Date StartTime U_cm/s V_cm/s W_cm/s Ustd_cm/s Vstd_cm/s Wstd_cm/s Uvar_(cm/s)^2 Vvar_(cm/s)^2 Wvar_(cm/s)^2 KE_(m/s)^2 TurbulentKE_(m/s)^2 HorizWindSpeed_cm/s FrictionSpeec_cm/s DragCoef SpeedOfSound_m/s SonicTemperature_C Pressure_mb 
01/01/2022  00:00:00       30.256       89.665      -27.836       57.544      145.194       30.594     3311.295    21081.155      935.987        1.752        1.266       94.632       18.652        0.039      328.777       -4.909      860.072
01/01/2022  00:01:00       -1.401       27.628      -13.485       47.007       89.801       31.365     2209.669     8064.282      983.772        0.610        0.563       27.664       36.303        1.722      328.780       -4.901      860.090
01/01/2022  00:02:00        6.081       70.006      -15.169       33.885       38.747       27.922     1148.184     1501.360      779.637        0.430        0.171       70.270       17.698        0.063      328.753       -4.945      860.117
01/01/2022  00:03:00       -8.406       55.838       -8.764       39.560       51.182       27.913     1565.026     2619.585      779.121        0.411        0.248       56.468       26.872        0.226      328.720       -4.999      860.131
01/01/2022  00:04:00      -39.459      -20.221       -7.233       28.744       44.880       23.044      826.245     2014.191      531.021        0.269        0.169       44.339        9.822        0.049      328.846       -4.794      860.126
01/01/2022  00:05:00      -48.038       39.446      -12.726       59.978       37.362       20.939     3597.319     1395.951      438.436        0.473        0.272       62.158       25.226        0.165      328.730       -4.984      860.122
01/01/2022  00:06:00     -132.858       24.544      -31.605       86.522       37.510       37.887     7485.973     1406.995     1435.432        1.479        0.516      135.106       41.054        0.092      328.720       -5.001      860.117
01/01/2022  00:07:00      -21.103        6.215       -3.114       37.132       14.294       18.090     1378.780      204.307      327.234        0.120        0.096       21.999        7.337        0.111      328.680       -5.066      860.113
01/01/2022  00:08:00      -25.058       11.145      -12.896       20.558       18.304       10.242      422.616      335.053      104.889        0.089        0.043       27.425        7.255        0.070      328.677       -5.069      860.119
01/01/2022  00:09:00      -14.069       27.815      -14.832       26.245       26.804       24.604      688.808      718.457      605.355        0.160        0.101       31.171       19.883        0.407      328.678       -5.067      860.113
01/01/2022  00:10:00      -13.507       10.563        8.173       24.855       13.504       12.745      617.753      182.351      162.429        0.066        0.048       17.147        3.928        0.052      328.665       -5.089      860.122
01/01/2022  00:11:00      -29.113       19.177      -10.141       18.894       15.835       11.151      356.986      250.754      124.343        0.102        0.037       34.861        6.229        0.032      328.762       -4.931      860.153
01/01/2022  00:12:00      -14.990       26.880       -3.396       13.477       19.787       15.358      181.638      391.535      235.863        0.088        0.040       30.777        6.645        0.047      328.646       -5.120      860.176
01/01/2022  00:13:00      -16.937      -29.490      -15.339       21.687       21.264       18.826      470.322      452.143      354.431        0.133        0.064       34.007       14.163        0.173      328.732       -4.979      860.182
01/01/2022  00:14:00      -11.202        2.246       -9.211       19.228       17.249        9.405      369.728      297.530       88.458        0.049        0.038       11.425        4.887        0.183      328.634       -5.139      860.183
01/01/2022  00:15:00      -18.762        6.749      -15.518       17.480       22.610       13.045      305.537      511.201      170.168        0.081        0.049       19.939       13.226        0.440      328.672       -5.078      860.175
01/01/2022  00:16:00      -14.992      -13.210       -7.285       28.242       37.633       23.426      797.585     1416.212      548.760        0.161        0.138       19.981       19.627        0.965      328.748       -4.954      860.168
01/01/2022  00:17:00      -64.605       34.074      -15.879       71.384       52.692       26.465     5095.664     2776.489      700.418        0.708        0.429       73.040       30.330        0.172      328.577       -5.234      860.173
01/01/2022  00:18:00      -96.082       54.289       -9.722       34.381       32.773       27.089     1182.023     1074.082      733.807        0.763        0.149      110.359       22.534        0.042      328.507       -5.346      860.171
01/01/2022  00:19:00      -26.462       -6.462       -3.275       40.720       28.380       17.544     1658.147      805.396      307.799        0.176        0.139       27.239        5.807        0.045      328.581       -5.227      860.181
01/01/2022  00:20:00      -82.024        6.782      -19.766       35.972       26.182       19.447     1293.969      685.510      378.198        0.476        0.118       82.303       13.453        0.027      328.509       -5.342      860.173
01/01/2022  00:21:00      -76.044        7.534       -8.976       41.444       35.529       17.082     1717.574     1262.316      291.782        0.460        0.164       76.417       12.495        0.027      328.476       -5.397      860.165
01/01/2022  00:22:00      -64.756       -4.931        0.936       65.270       37.815       26.473     4260.234     1429.996      700.814        0.530        0.320       64.943       24.791        0.146      328.423       -5.483      860.146
01/01/2022  00:23:00      -53.279       17.319       -1.937       61.841       36.841       33.235     3824.334     1357.273     1104.547        0.471        0.314       56.023       37.810        0.455      328.385       -5.547      860.143
01/01/2022  00:24:00      -89.289       -2.787       -6.268       62.437       45.468       27.788     3898.432     2067.355      772.187        0.738        0.337       89.332       31.037        0.121      328.363       -5.581      860.160
01/01/2022  00:25:00      -96.295       31.988       -9.819       29.192       42.130       18.473      852.194     1774.937      341.235        0.668        0.148      101.469       10.678        0.011      328.412       -5.503      860.178
01/01/2022  00:26:00      -50.532       12.958       -0.976       42.023       25.021       19.905     1765.898      626.075      396.209        0.275        0.139       52.167       18.220        0.122      328.368       -5.573      860.192
01/01/2022  00:27:00      -44.807       -0.956       -9.683       25.336       28.300       15.089      641.890      800.892      227.678        0.189        0.084       44.817       14.141        0.100      328.436       -5.464      860.201
01/01/2022  00:28:00      -47.261       -3.590       -8.797       27.899       42.394       20.852      778.366     1797.224      434.819        0.267        0.151       47.397       11.776        0.062      328.505       -5.350      860.207
01/01/2022  00:29:00     -101.889       21.569      -11.135       73.233       40.560       28.075     5363.126     1645.104      788.181        0.938        0.390      104.147       36.061        0.120      328.360       -5.585      860.207
01/01/2022  00:30:00      -96.788       16.088      -11.440       49.191       39.117       28.081     2419.722     1530.160      788.553        0.725        0.237       98.116       21.410        0.048      328.331       -5.634      860.209
01/01/2022  00:31:00     -111.407       58.264        0.707       73.670       40.245       31.507     5427.342     1619.631      992.692        1.192        0.402      125.723       25.944        0.043      328.299       -5.686      860.221
01/01/2022  00:32:00      -76.163       39.839       -6.323       33.661       28.627       18.497     1133.081      819.518      342.131        0.486        0.115       85.954       13.769        0.026      328.340       -5.618      860.231
01/01/2022  00:33:00      -68.500       23.816       -3.986       40.354       37.249       18.262     1628.453     1387.480      333.487        0.431        0.167       72.523       16.886        0.054      328.381       -5.551      860.233
01/01/2022  00:34:00     -125.168       13.417      -14.817       54.316       47.732       26.635     2950.181     2278.301      709.420        1.100        0.297      125.885       25.772        0.042      328.377       -5.559      860.235
01/01/2022  00:35:00      -50.373       14.731        3.257       40.099       41.990       22.394     1607.894     1763.122      501.483        0.332        0.194       52.482       12.514        0.057      328.337       -5.625      860.235
01/01/2022  00:36:00      -27.824        7.451        1.255       32.681       41.379       22.789     1068.077     1712.248      519.355        0.206        0.165       28.804       17.490        0.369      328.400       -5.521      860.256
01/01/2022  00:37:00      -42.533       19.243       -9.374       60.127       40.586       24.141     3615.223     1647.253      582.773        0.406        0.292       46.683       23.260        0.248      328.450       -5.439      860.279
01/01/2022  00:38:00      -90.835       51.243      -17.238       45.051       52.932       34.739     2029.623     2801.745     1206.798        0.860        0.302      104.292       29.960        0.083      328.487       -5.381      860.312
01/01/2022  00:39:00      -86.822       18.693      -11.187       42.935       37.623       22.991     1843.419     1415.458      528.609        0.590        0.189       88.811       21.916        0.061      328.514       -5.335      860.339
01/01/2022  00:40:00      -83.773       41.726      -11.878       47.516       46.509       27.613     2257.807     2163.069      762.491        0.704        0.259       93.589       21.083        0.051      328.486       -5.381      860.359
01/01/2022  00:41:00     -110.663       30.077      -16.008       77.757       40.984       35.853     6046.150     1679.650     1285.444        1.121        0.451      114.678       40.359        0.124      328.509       -5.345      860.379
01/01/2022  00:42:00      -75.904       38.554       -0.073       60.750       38.432       31.000     3690.589     1477.029      960.972        0.669        0.306       85.134       23.694        0.077      328.489       -5.375      860.407
01/01/2022  00:43:00     -119.564       24.802      -12.392       41.379       45.143       25.360     1712.183     2037.851      643.150        0.973        0.220      122.109       14.647        0.014      328.526       -5.315      860.421
01/01/2022  00:44:00     -121.390        7.091       -7.590       53.971       38.461       24.751     2912.899     1479.250      612.627        0.992        0.250      121.597       25.768        0.045      328.543       -5.286      860.423
01/01/2022  00:45:00      -54.230        1.846      -14.582       50.505       40.383       31.831     2550.775     1630.764     1013.207        0.417        0.260       54.262       19.604        0.131      328.514       -5.335      860.418
01/01/2022  00:46:00      -47.064        9.641       -7.197       53.155       40.030       36.188     2825.490     1602.399     1309.573        0.405        0.287       48.041       25.962        0.292      328.472       -5.405      860.421
01/01/2022  00:47:00      -88.467       25.883      -12.208       53.566       46.809       27.632     2869.330     2191.080      763.532        0.723        0.291       92.175       22.825        0.061      328.462       -5.420      860.436
01/01/2022  00:48:00     -115.156       21.096       -9.000       85.489       52.431       29.988     7308.323     2748.986      899.305        1.237        0.548      117.073       25.085        0.046      328.434       -5.464      860.451
01/01/2022  00:49:00     -159.788       51.699        0.826       48.305       42.031       34.825     2333.340     1766.645     1212.798        1.676        0.266      167.943       33.064        0.039      328.377       -5.559      860.466
01/01/2022  00:50:00      -91.633       38.935       -2.236       65.577       49.617       41.063     4300.333     2461.843     1686.148        0.918        0.422       99.562       28.079        0.080      328.383       -5.548      860.471
01/01/2022  00:51:00      -13.071       26.560       -5.215       47.599       32.989       24.890     2265.685     1088.279      619.518        0.244        0.199       29.602       11.429        0.149      328.473       -5.403      860.479
01/01/2022  00:52:00      -24.920        9.972       -9.956       24.613       30.366       25.499      605.786      922.080      650.176        0.150        0.109       26.841       11.296        0.177      328.491       -5.373      860.500
01/01/2022  00:53:00      -39.796       57.409       -2.547       23.461       34.957       21.810      550.422     1222.005      475.673        0.357        0.112       69.854       18.065        0.067      328.505       -5.351      860.534
01/01/2022  00:54:00      -60.272       61.769      -13.554       29.021       28.300       22.660      842.233      800.866      513.489        0.489        0.108       86.302        8.443        0.010      328.415       -5.498      860.570
01/01/2022  00:55:00      -68.767       61.981      -10.382       23.630       23.582       14.101      558.365      556.090      198.838        0.500        0.066       92.578       12.009        0.017      328.406       -5.511      860.618
01/01/2022  00:56:00      -85.880       59.260      -16.383       15.416       19.177       13.357      237.648      367.749      178.413        0.597        0.039      104.341       12.463        0.014      328.453       -5.437      860.656
01/01/2022  00:57:00      -50.783       12.550       -4.229       25.655       23.422       17.310      658.169      548.587      299.626        0.213        0.075       52.311       12.095        0.053      328.451       -5.437      860.685
01/01/2022  00:58:00      -67.132       -5.102       -5.486       35.421       24.901       20.063     1254.617      620.048      402.531        0.342        0.114       67.325       14.825        0.048      328.665       -5.089      860.713
01/01/2022  00:59:00     -105.520       -2.678       -6.773       44.493       34.198       24.607     1979.660     1169.529      605.485        0.747        0.188      105.554       24.895        0.056      328.642       -5.127      860.731
01/01/2022  01:00:00      -55.372       10.302        4.287       32.640       44.408       26.686     1065.373     1972.114      712.163        0.347        0.187       56.322       21.252        0.142      328.578       -5.230      860.749
01/01/2022  01:01:00      -87.595      -17.998       -8.461       63.833       39.262       31.562     4074.712     1541.479      996.133        0.734        0.331       89.425       27.550        0.095      328.525       -5.316      860.758
01/01/2022  01:02:00      -81.497        6.412       -0.885       43.192       41.007       26.233     1865.569     1681.593      688.167        0.546        0.212       81.749       17.848        0.048      328.594       -5.205      860.763
01/01/2022  01:03:00      -39.893       -2.121       -0.551       39.166       24.249       22.987     1533.982      588.015      528.416        0.212        0.133       39.949       24.745        0.384      328.589       -5.214      860.767
01/01/2022  01:04:00      -35.944       -5.504       -1.836       44.400       29.205       20.728     1971.359      852.937      429.657        0.229        0.163       36.363       22.510        0.383      328.660       -5.097      860.767
01/01/2022  01:05:00      -63.608      -18.242       -3.878       54.468       26.192       20.420     2966.769      686.035      416.985        0.423        0.203       66.172       25.303        0.146      328.680       -5.066      860.764
01/01/2022  01:06:00      -81.978       18.102      -13.469       30.893       31.714       20.379      954.362     1005.790      415.310        0.480        0.119       83.953       16.575        0.039      328.605       -5.187      860.752
01/01/2022  01:07:00      -51.763      -25.176       -9.657       39.802       52.096       23.232     1584.170     2713.986      539.706        0.412        0.242       57.561       13.636        0.056      328.650       -5.113      860.747
01/01/2022  01:08:00      -88.001       21.661      -10.818       48.034       48.119       31.583     2307.269     2315.415      997.511        0.697        0.281       90.627       26.897        0.088      328.570       -5.244      860.745
01/01/2022  01:09:00      -94.405      -12.189       -3.584       63.285       47.492       33.681     4005.030     2255.483     1134.413        0.823        0.370       95.188       31.437        0.109      328.606       -5.186      860.755
01/01/2022  01:10:00      -62.796       -0.376       -8.509       40.338       38.279       21.899     1627.165     1465.313      479.578        0.379        0.179       62.798       15.283        0.059      328.661       -5.095      860.777
01/01/2022  01:11:00      -89.741       17.644       -8.873       36.774       23.406       23.503     1352.319      547.830      552.374        0.545        0.123       91.459        8.740        0.009      328.589       -5.212      860.797
01/01/2022  01:12:00      -66.037       28.744       -3.883       47.538       44.979       30.099     2259.890     2023.097      905.967        0.519        0.259       72.021       19.946        0.077      328.545       -5.285      860.805
01/01/2022  01:13:00      -73.640       12.274       -5.589       50.871       28.380       24.249     2587.900      805.417      588.034        0.479        0.199       74.656       21.032        0.079      328.550       -5.276      860.814
01/01/2022  01:14:00      -44.590       16.369       -5.483       70.691       55.412       25.144     4997.188     3070.486      632.245        0.549        0.435       47.499       12.502        0.069      328.497       -5.363      860.815
01/01/2022  01:15:00      -87.613        9.215      -15.144       73.296       43.428       21.485     5372.245     1885.961      461.597        0.785        0.386       88.096       15.332        0.030      328.480       -5.390      860.826
01/01/2022  01:16:00      -79.631       10.912       -8.612       56.489       45.397       35.381     3191.037     2060.912     1251.834        0.652        0.325       80.375       26.841        0.112      328.453       -5.436      860.829
01/01/2022  01:17:00      -86.893       10.221       -3.711       66.579       38.193       34.997     4432.800     1458.738     1224.802        0.739        0.356       87.492       23.925        0.075      328.382       -5.550      860.856
01/01/2022  01:18:00      -68.738       -2.689       -2.408       92.606       50.528       46.543     8575.863     2553.080     2166.260        0.901        0.665       68.790       48.483        0.497      328.362       -5.583      860.879
01/01/2022  01:19:00     -157.708       27.682      -12.612       84.246       46.282       31.768     7097.441     2142.058     1009.186        1.802        0.512      160.119       36.610        0.052      328.387       -5.545      860.905
01/01/2022  01:20:00     -179.012       23.548      -21.423       36.961       49.186       33.542     1366.086     2419.230     1125.087        1.898        0.246      180.554       26.410        0.021      328.409       -5.509      860.922
01/01/2022  01:21:00     -124.898       23.040      -25.469       41.167       42.766       20.873     1694.749     1828.937      435.699        1.037        0.198      127.005       20.048        0.025      328.412       -5.502      860.934
01/01/2022  01:22:00     -102.468      -16.397      -14.415       29.604       29.926       23.217      876.398      895.573      539.025        0.664        0.116      103.771       16.462        0.025      328.438       -5.460      860.944
01/01/2022  01:23:00      -84.293      -46.830      -18.597       37.912       33.713       22.096     1437.350     1136.571      488.230        0.635        0.153       96.428       15.913        0.027      328.511       -5.340      860.961
01/01/2022  01:24:00      -57.347      -19.256       -7.420       40.856       23.685       19.897     1669.217      560.983      395.888        0.317        0.131       60.494       19.254        0.101      328.654       -5.107      860.985
01/01/2022  01:25:00      -79.690      -22.602       -7.262       41.166       26.364       24.202     1694.635      695.041      585.729        0.494        0.149       82.834       20.878        0.064      328.498       -5.360      861.007
01/01/2022  01:26:00      -95.057      -20.259       -9.059       41.830       31.877       25.087     1749.746     1016.140      629.334        0.646        0.170       97.192       26.438        0.074      328.430       -5.470      861.033
01/01/2022  01:27:00      -22.936        3.427       -7.963       50.988       27.186       19.087     2599.780      739.098      364.331        0.215        0.185       23.191       13.315        0.330      328.435       -5.464      861.051
01/01/2022  01:28:00      -30.495      -40.107       -5.652       36.450       32.608       24.204     1328.607     1063.287      585.832        0.277        0.149       50.384       13.542        0.072      328.604       -5.188      861.058
01/01/2022  01:29:00      -19.721       15.669       -7.848       18.231       10.410        7.288      332.378      108.368       53.114        0.059        0.025       25.187        4.137        0.027      328.409       -5.506      861.053
01/01/2022  01:30:00       -3.301      -11.034       -2.716       25.166       21.708       13.147      633.311      471.253      172.832        0.071        0.064       11.517       10.444        0.822      328.475       -5.398      861.035
01/01/2022  01:31:00      -33.183       14.668       -3.181       24.378       10.798       15.897      594.278      116.595      252.719        0.114        0.048       36.280       16.960        0.219      328.461       -5.423      861.023
01/01/2022  01:32:00      -11.115       -7.301       -7.787       18.431       20.849       14.400      339.700      434.695      207.368        0.061        0.049       13.298        7.208        0.294      328.560       -5.259      861.012
01/01/2022  01:33:00      -38.354       -2.173      -10.148       32.430       20.428       12.394     1051.714      417.313      153.609        0.160        0.081       38.416        9.752        0.064      328.547       -5.281      861.012
01/01/2022  01:34:00      -17.741      -12.203       -2.559       20.107       22.021       16.845      404.281      484.908      283.738        0.082        0.059       21.532       12.024        0.312      328.539       -5.293      861.003
01/01/2022  01:35:00      -11.398       12.733       -1.537       20.255       17.012       13.902      410.283      289.424      193.269        0.059        0.045       17.089        6.672        0.152      328.521       -5.323      861.002
01/01/2022  01:36:00      -36.089       11.554      -14.499       25.218       11.337       12.343      635.965      128.525      152.356        0.128        0.046       37.893        7.698        0.041      328.426       -5.482      860.990
01/01/2022  01:37:00      -40.131       24.558       -8.890       24.799       19.062       11.303      615.013      363.347      127.753        0.170        0.055       47.049        9.192        0.038      328.490       -5.375      860.989
01/01/2022  01:38:00      -71.454       24.691      -23.140       21.506       17.112       14.230      462.506      292.816      202.484        0.360        0.048       75.599       10.449        0.019      328.453       -5.435      860.989
01/01/2022  01:39:00      -60.174       38.157      -11.334       17.611       13.396       12.784      310.131      179.465      163.440        0.293        0.033       71.253       11.177        0.025      328.455       -5.431      860.985
01/01/2022  01:40:00      -64.153       25.033      -13.768       23.101       25.010       13.222      533.663      625.513      174.830        0.313        0.067       68.864       10.135        0.022      328.490       -5.375      860.987
01/01/2022  01:41:00      -56.659       22.574       -4.088       19.661       17.294       12.959      386.556      299.066      167.925        0.229        0.043       60.990       10.475        0.029      328.488       -5.377      860.988
01/01/2022  01:42:00      -53.851        4.046      -11.396       23.963       17.324       14.135      574.214      300.130      199.793        0.206        0.054       54.003        8.900        0.027      328.512       -5.338      860.988
01/01/2022  01:43:00      -21.725        0.760        0.538       31.151       10.192       12.753      970.373      103.870      162.636        0.085        0.062       21.738       14.312        0.433      328.529       -5.310      860.999
01/01/2022  01:44:00      -17.835       -3.503        1.900       14.931       24.719       12.635      222.931      611.022      159.636        0.066        0.050       18.176        6.317        0.121      328.626       -5.153      861.020
01/01/2022  01:45:00      -37.061        8.747       -8.786       18.687       15.464       12.904      349.194      239.144      166.517        0.114        0.038       38.079        7.722        0.041      328.543       -5.288      861.045
01/01/2022  01:46:00      -20.154      -23.210       -9.417       29.528       25.964       17.042      871.884      674.142      290.416        0.143        0.092       30.739       13.662        0.198      328.607       -5.183      861.075
01/01/2022  01:47:00      -41.855       -2.071       -4.832       32.389       19.652       16.282     1049.068      386.186      265.092        0.174        0.085       41.907       11.158        0.071      328.565       -5.251      861.105
01/01/2022  01:48:00      -39.181      -18.825       -8.310       24.823       19.232       17.689      616.198      369.854      312.897        0.163        0.065       43.469       11.908        0.075      328.617       -5.168      861.119
01/01/2022  01:49:00      -48.569      -14.215       -6.026       31.723       17.533       19.442     1006.370      307.419      377.991        0.214        0.085       50.607       19.220        0.144      328.591       -5.210      861.124
01/01/2022  01:50:00      -68.435      -15.615      -15.656       18.945       21.643       15.122      358.914      468.422      228.669        0.311        0.053       70.194        5.168        0.005      328.573       -5.240      861.135
01/01/2022  01:51:00      -53.056      -14.104       -8.485       22.434       19.329       15.831      503.281      373.620      250.612        0.211        0.056       54.898       11.098        0.041      328.612       -5.176      861.147
01/01/2022  01:52:00      -17.303       -0.532       -4.959       34.733       13.733       17.289     1206.388      188.588      298.908        0.101        0.085       17.311       18.606        1.155      328.583       -5.222      861.165
01/01/2022  01:53:00      -40.900       -9.113       -1.319       31.689       16.715       16.776     1004.223      279.398      281.451        0.166        0.078       41.903       15.104        0.130      328.583       -5.223      861.187
01/01/2022  01:54:00      -26.122       -3.556       -5.363       27.386       12.493       14.072      750.006      156.074      198.034        0.091        0.055       26.363       15.673        0.353      328.559       -5.260      861.206
01/01/2022  01:55:00       -6.837        3.972       -3.519       16.700       16.223       15.471      278.873      263.197      239.346        0.043        0.039        7.907        6.093        0.594      328.562       -5.257      861.215
01/01/2022  01:56:00      -32.011       -1.559       -3.209       29.548       22.888       19.879      873.071      523.847      395.158        0.141        0.090       32.049       16.618        0.269      328.538       -5.296      861.227
01/01/2022  01:57:00       -9.729      -15.005       -9.259       23.812       19.579       18.228      567.001      383.352      332.269        0.084        0.064       17.883        8.838        0.244      328.645       -5.123      861.232
01/01/2022  01:58:00      -24.439        2.113       -4.756       20.459       24.412       13.566      418.576      595.945      184.041        0.091        0.060       24.530        9.792        0.159      328.605       -5.188      861.250
01/01/2022  01:59:00      -14.793       -9.439       -7.527       37.747       19.092       16.997     1424.864      364.512      288.914        0.122        0.104       17.548       13.096        0.557      328.571       -5.244      861.273
01/01/2022  02:00:00      -37.062       26.724       -6.043       45.429       31.897       15.156     2063.767     1017.425      229.715        0.272        0.166       45.692       12.552        0.075      328.509       -5.343      861.295
01/01/2022  02:01:00      -98.833       45.170      -10.913       19.261       15.686       15.368      370.972      246.059      236.189        0.639        0.043      108.666       11.809        0.012      328.360       -5.587      861.312
01/01/2022  02:02:00      -76.979       30.561       -8.089       22.167       17.024       12.805      491.390      289.832      163.980        0.394        0.047       82.824        8.918        0.012      328.341       -5.617      861.330
01/01/2022  02:03:00      -55.249       31.924       -4.474       20.694       14.023       14.874      428.248      196.658      221.233        0.247        0.042       63.809       11.261        0.031      328.348       -5.604      861.336
01/01/2022  02:04:00      -61.631       28.768      -13.546       20.142       11.912       15.750      405.708      141.896      248.052        0.280        0.040       68.014       12.377        0.033      328.370       -5.570      861.346
01/01/2022  02:05:00      -52.148       24.431      -13.512       16.626       13.839       15.204      276.439      191.511      231.173        0.210        0.035       57.587       11.975        0.043      328.361       -5.584      861.358
01/01/2022  02:06:00      -51.437       22.906      -12.872       21.099       18.726       11.379      445.158      350.652      129.492        0.213        0.046       56.307        7.038        0.016      328.381       -5.551      861.362
01/01/2022  02:07:00      -34.031       20.464       -8.195       21.647       22.318       15.348      468.589      498.087      235.569        0.142        0.060       39.710       11.954        0.091      328.399       -5.523      861.358
01/01/2022  02:08:00      -13.497       23.469       -0.673       19.340       16.465        9.698      374.041      271.095       94.054        0.074        0.037       27.073        7.383        0.074      328.299       -5.685      861.360
01/01/2022  02:09:00      -34.295       28.130      -10.847       14.948       19.045       14.917      223.440      362.719      222.525        0.145        0.040       44.356       12.235        0.076      328.304       -5.678      861.359
01/01/2022  02:10:00      -13.971       -5.720      -13.394       16.529       22.848       12.771      273.201      522.037      163.089        0.068        0.048       15.097        6.245        0.171      328.306       -5.674      861.356
01/01/2022  02:11:00       -2.762      -24.193      -13.240       14.565       23.434       15.939      212.142      549.156      254.060        0.089        0.051       24.350        8.001        0.108      328.374       -5.563      861.359
01/01/2022  02:12:00      -13.908      -37.053      -12.434       21.713       16.542       14.834      471.434      273.622      220.048        0.134        0.048       39.578        8.969        0.051      328.388       -5.540      861.374
01/01/2022  02:13:00        3.664      -34.570        4.527       19.134       18.436       15.309      366.105      339.884      234.373        0.108        0.047       34.764       10.391        0.089      328.371       -5.568      861.384
01/01/2022  02:14:00        1.875      -14.283       -7.832       10.901       13.709        8.664      118.842      187.934       75.069        0.033        0.019       14.406        3.718        0.067      328.360       -5.586      861.400
01/01/2022  02:15:00        0.895       -9.778       -5.588        8.070       14.057       10.550       65.133      197.604      111.294        0.025        0.019        9.819        7.306        0.554      328.315       -5.660      861.395
01/01/2022  02:16:00        0.164       21.128       -8.820        8.736        9.369        8.993       76.322       87.779       80.870        0.038        0.012       21.129        5.710        0.073      328.290       -5.700      861.378
01/01/2022  02:17:00       23.885       34.471      -10.140       11.760        8.541        9.886      138.303       72.948       97.736        0.109        0.015       41.937        3.455        0.007      328.292       -5.696      861.386
01/01/2022  02:18:00       16.203       19.229       -1.986       12.632       10.230        8.248      159.560      104.655       68.027        0.048        0.017       25.145        6.380        0.064      328.259       -5.751      861.399
01/01/2022  02:19:00        6.005       27.246       -5.923       12.132       12.389        7.819      147.178      153.494       61.129        0.059        0.018       27.900        3.535        0.016      328.311       -5.664      861.388
01/01/2022  02:20:00       -1.950       17.840        1.308       20.099       17.474       12.335      403.990      305.341      152.140        0.059        0.043       17.946       11.112        0.383      328.206       -5.837      861.372
01/01/2022  02:21:00       -5.848      -16.274       -9.152       11.414       19.264       12.047      130.273      371.085      145.124        0.051        0.032       17.293        7.597        0.193      328.299       -5.687      861.353
01/01/2022  02:22:00        5.273      -14.244       -4.851       17.037       14.787       15.325      290.260      218.670      234.842        0.050        0.037       15.188        7.859        0.268      328.302       -5.679      861.334
01/01/2022  02:23:00      -12.861       -2.444        4.317       31.632       24.455       18.253     1000.611      598.023      333.187        0.106        0.097       13.092       13.914        1.130      328.301       -5.682      861.327
01/01/2022  02:24:00      -31.761       -8.873        0.110       32.021       24.795       21.708     1025.350      614.783      471.242        0.160        0.106       32.977       21.699        0.433      328.295       -5.693      861.324
01/01/2022  02:25:00      -58.276       -2.833       -1.175       33.577       29.274       18.783     1127.383      856.978      352.810        0.287        0.117       58.344       17.359        0.089      328.237       -5.787      861.329
01/01/2022  02:26:00      -16.096       -3.299       -2.029       32.650       17.891       15.317     1066.025      320.092      234.622        0.095        0.081       16.431       10.846        0.436      328.223       -5.809      861.341
01/01/2022  02:27:00      -11.590        1.130       -4.429       13.100       15.567       12.716      171.615      242.326      161.699        0.037        0.029       11.645        7.697        0.437      328.233       -5.795      861.362
01/01/2022  02:28:00      -47.594       21.908       -6.568       17.976       16.599        9.432      323.120      275.525       88.972        0.174        0.034       52.394        2.821        0.003      328.131       -5.958      861.387
01/01/2022  02:29:00      -79.283       22.774       -7.199       22.777       15.567       15.187      518.814      242.344      230.635        0.392        0.050       82.489       13.659        0.027      328.060       -6.074      861.410
01/01/2022  02:30:00      -70.698       13.265      -16.314       16.594       13.193       14.731      275.363      174.057      217.013        0.305        0.033       71.931        6.081        0.007      328.140       -5.945      861.429
01/01/2022  02:31:00      -33.513        4.967       -7.027       18.214       12.788       15.274      331.759      163.530      233.307        0.096        0.036       33.879       10.096        0.089      328.135       -5.953      861.440
01/01/2022  02:32:00      -15.168        2.049       -8.108       23.448       15.296       13.810      549.814      233.965      190.710        0.064        0.049       15.305       11.783        0.593      328.125       -5.969      861.448
01/01/2022  02:33:00      -48.175       28.954       -9.962        9.731       12.101        9.752       94.701      146.442       95.108        0.180        0.017       56.206        5.082        0.008      328.081       -6.041      861.458
01/01/2022  02:34:00      -18.827       22.713       -8.913       12.765       11.741        7.707      162.944      137.856       59.398        0.065        0.018       29.501        7.727        0.069      328.082       -6.038      861.489
01/01/2022  02:35:00        2.114       -9.671       -4.272        4.592       11.338        5.119       21.088      128.545       26.200        0.015        0.009        9.900        3.609        0.133      328.169       -5.897      861.515
01/01/2022  02:36:00      -10.417      -18.486       -7.394       13.110       19.818       13.856      171.874      392.768      191.976        0.063        0.038       21.219        6.674        0.099      328.281       -5.714      861.533
01/01/2022  02:37:00      -63.220      -13.390      -12.913       39.116       24.404       17.842     1530.061      595.556      318.342        0.339        0.122       64.623       16.571        0.066      328.146       -5.934      861.548
01/01/2022  02:38:00     -114.960      -31.859       -6.366       53.229       51.233       28.642     2833.348     2624.829      820.347        1.027        0.314      119.293       30.004        0.063      328.028       -6.126      861.558
01/01/2022  02:39:00      -95.583      -13.509       -2.480       63.594       35.852       22.636     4044.255     1285.332      512.399        0.758        0.292       96.533       20.589        0.045      327.955       -6.245      861.564
01/01/2022  02:40:00      -25.436       -7.126        3.811       45.107       47.665       28.263     2034.663     2271.939      798.806        0.291        0.255       26.415       20.287        0.590      327.868       -6.388      861.566
01/01/2022  02:41:00      -88.969       -8.506       -6.841       53.019       44.820       35.612     2810.965     2008.813     1268.181        0.706        0.304       89.375       26.339        0.087      327.822       -6.462      861.563
01/01/2022  02:42:00     -190.907      -24.467      -28.619       45.191       41.932       36.686     2042.240     1758.304     1345.862        2.150        0.257      192.469       16.312        0.007      327.661       -6.725      861.556
01/01/2022  02:43:00      -84.203       -5.102       -8.783       57.824       31.606       29.398     3343.633      998.961      864.266        0.620        0.260       84.357       24.334        0.083      327.717       -6.633      861.550
01/01/2022  02:44:00      -75.859       21.430       -7.282       56.211       37.397       23.805     3159.669     1398.541      566.683        0.569        0.256       78.828       28.983        0.135      327.571       -6.872      861.554
01/01/2022  02:45:00      -26.155       15.990       11.364       53.375       29.421       26.103     2848.860      865.593      681.392        0.273        0.220       30.655       25.556        0.695      327.555       -6.897      861.564
01/01/2022  02:46:00      -72.217       43.660       -0.593       50.971       24.758       23.804     2598.017      612.953      566.644        0.545        0.189       84.389       24.143        0.082      327.621       -6.789      861.578
01/01/2022  02:47:00      -85.326       16.787      -20.536       28.838       28.866       19.951      831.605      833.235      398.059        0.502        0.103       86.962       14.315        0.027      327.659       -6.730      861.579
01/01/2022  02:48:00      -20.129       -6.433       -1.617       27.729       25.589       17.265      768.884      654.811      298.071        0.109        0.086       21.132       10.162        0.231      327.786       -6.523      861.593
01/01/2022  02:49:00     -106.337      -32.454      -17.448       66.329       36.837       27.483     4399.478     1356.962      755.336        0.959        0.326      111.179       24.573        0.049      327.627       -6.782      861.610
01/01/2022  02:50:00     -136.743        2.385      -13.455       42.279       39.283       33.084     1787.530     1543.186     1094.541        1.165        0.221      136.764       18.610        0.019      327.536       -6.929      861.631
01/01/2022  02:51:00      -89.841      -13.370       -5.515       54.440       46.387       30.944     2963.693     2151.769      957.537        0.718        0.304       90.830       28.346        0.097      327.584       -6.850      861.656
01/01/2022  02:52:00     -113.517       43.765       -2.034       69.861       42.101       29.070     4880.538     1772.463      845.059        1.115        0.375      121.662       33.439        0.076      327.478       -7.021      861.678
01/01/2022  02:53:00     -136.889       32.647        0.179       37.543       30.179       25.581     1409.450      910.796      654.398        1.139        0.149      140.729       26.488        0.035      327.485       -7.012      861.700
01/01/2022  02:54:00     -139.291       41.633      -14.884       31.437       25.969       24.326      988.276      674.404      591.761        1.181        0.113      145.380       10.234        0.005      327.529       -6.939      861.711
01/01/2022  02:55:00      -95.384       15.188       -7.287       48.916       45.337       27.646     2392.743     2055.487      764.315        0.730        0.261       96.585       20.372        0.044      327.591       -6.839      861.724
01/01/2022  02:56:00     -122.123       31.090       -6.409       48.635       38.814       23.639     2365.373     1506.510      558.820        1.018        0.222      126.018       24.351        0.037      327.564       -6.882      861.747
01/01/2022  02:57:00      -92.662       13.433       -4.685       41.997       45.531       30.367     1763.759     2073.082      922.127        0.677        0.238       93.631       20.734        0.049      327.584       -6.850      861.776
01/01/2022  02:58:00     -133.545      -23.493      -10.634       79.040       46.043       34.840     6247.360     2119.966     1213.835        1.404        0.479      135.596       26.436        0.038      327.565       -6.880      861.819
01/01/2022  02:59:00     -123.925      -10.453       -3.493       48.651       28.514       27.445     2366.898      813.041      753.239        0.971        0.197      124.365       17.526        0.020      327.613       -6.803      861.867
01/01/2022  03:00:00     -115.943      -16.485      -16.063       40.596       35.032       27.602     1648.010     1227.258      761.863        0.880        0.182      117.109       19.046        0.026      327.700       -6.661      861.911
01/01/2022  03:01:00     -154.887      -27.331      -17.897       47.968       34.911       31.571     2300.897     1218.794      996.758        1.479        0.226      157.280       26.659        0.029      327.675       -6.702      861.946
01/01/2022  03:02:00     -175.529      -18.022      -24.264       53.047       54.964       36.198     2814.021     3021.060     1310.303        1.943        0.357      176.452       33.943        0.037      327.578       -6.861      861.965
01/01/2022  03:03:00      -72.881       -7.737        2.988       53.277       48.653       34.265     2838.409     2367.119     1174.062        0.588        0.319       73.291       33.238        0.206      327.560       -6.888      861.981
01/01/2022  03:04:00     -168.824       -2.083       -8.324       60.882       35.270       30.450     3706.640     1243.997      927.228        1.723        0.294      168.837       22.243        0.017      327.538       -6.927      861.985
01/01/2022  03:05:00     -161.054       13.724       -0.419       76.069       42.428       35.560     5786.557     1800.159     1264.490        1.749        0.443      161.637       34.548        0.046      327.512       -6.967      861.985
01/01/2022  03:06:00      -80.763       -0.311        5.617       78.259       41.615       35.042     6124.441     1731.822     1227.942        0.782        0.454       80.763       36.057        0.199      327.531       -6.937      861.989
01/01/2022  03:07:00      -63.053       19.878       -8.362       57.265       40.915       35.342     3279.304     1674.008     1249.050        0.532        0.310       66.112       21.864        0.109      327.645       -6.750      862.006
01/01/2022  03:08:00      -51.137       30.035        2.964       47.682       52.163       30.163     2273.560     2720.946      909.835        0.471        0.295       59.305       32.344        0.297      327.601       -6.823      862.022
01/01/2022  03:09:00     -100.887       37.274       -7.688       40.607       46.191       27.789     1648.899     2133.563      772.201        0.809        0.228      107.552       26.317        0.060      327.493       -6.996      862.033
01/01/2022  03:10:00      -62.218       37.793       -7.161       52.100       36.980       27.403     2714.438     1367.511      750.899        0.509        0.242       72.797       14.940        0.042      327.490       -7.002      862.039
01/01/2022  03:11:00     -121.265       63.894      -18.156       36.445       35.531       28.543     1328.245     1262.474      814.674        1.126        0.170      137.068       20.711        0.023      327.493       -6.999      862.044
01/01/2022  03:12:00      -94.800       45.157      -15.504       34.562       26.771       19.872     1194.542      716.687      394.903        0.679        0.115      105.006       18.913        0.032      327.446       -7.075      862.041
01/01/2022  03:13:00      -60.414        2.555      -10.712       36.993       24.426       20.387     1368.452      596.625      415.618        0.308        0.119       60.468       21.439        0.126      327.555       -6.897      862.033
01/01/2022  03:14:00     -104.481       27.480       -7.172       37.183       26.831       15.334     1382.548      719.892      235.134        0.703        0.117      108.035       13.288        0.015      327.493       -6.997      862.030
01/01/2022  03:15:00      -97.715       22.549      -12.676       20.966       27.799       20.755      439.572      772.803      430.783        0.593        0.082      100.283       15.591        0.024      327.617       -6.796      862.024
01/01/2022  03:16:00      -61.710        3.878       -7.180       42.791       26.768       20.129     1831.027      716.524      405.181        0.341        0.148       61.832       13.015        0.044      327.623       -6.787      862.030
01/01/2022  03:17:00      -13.392        5.068        4.006       48.766       31.354       29.082     2378.090      983.091      845.751        0.221        0.210       14.319       27.926        3.804      327.586       -6.846      862.042
01/01/2022  03:18:00     -121.497       -7.103      -14.012       62.873       53.205       42.836     3952.975     2830.791     1834.953        1.181        0.431      121.704       40.395        0.110      327.569       -6.874      862.061
01/01/2022  03:19:00     -107.170      -24.548       -1.510       55.093       44.154       30.792     3035.202     1949.601      948.137        0.901        0.297      109.946       27.813        0.064      327.561       -6.887      862.089
01/01/2022  03:20:00      -89.685       -8.238       -7.553       77.599       53.230       38.097     6021.624     2833.431     1451.371        0.924        0.515       90.062       32.940        0.134      327.594       -6.834      862.116
01/01/2022  03:21:00      -85.015       -7.833       -0.719       71.541       58.660       37.960     5118.085     3440.987     1440.961        0.864        0.500       85.376       32.787        0.147      327.470       -7.035      862.115
01/01/2022  03:22:00     -145.553       -9.512       -7.119       59.712       41.872       36.132     3565.544     1753.280     1305.550        1.397        0.331      145.863       22.474        0.024      327.427       -7.105      862.087
01/01/2022  03:23:00     -144.046        2.354       -9.996       71.205       35.319       35.753     5070.128     1247.467     1278.293        1.422        0.380      144.065       37.793        0.069      327.399       -7.152      862.070
01/01/2022  03:24:00      -60.545      -12.556       -8.439       58.616       40.589       29.749     3435.804     1647.469      885.003        0.493        0.298       61.833       20.806        0.113      327.425       -7.108      862.058
01/01/2022  03:25:00     -129.595       -9.146       -9.465       67.690       45.671       31.557     4581.999     2085.875      995.828        1.231        0.383      129.917       30.717        0.056      327.353       -7.226      862.054
01/01/2022  03:26:00      -89.229      -10.917       -4.016       58.690       37.420       35.146     3444.536     1400.227     1235.207        0.709        0.304       89.895       37.118        0.170      327.390       -7.164      862.039
01/01/2022  03:27:00      -96.462       36.182        0.989       66.801       48.083       25.524     4462.340     2312.002      651.488        0.902        0.371      103.024       25.302        0.060      327.338       -7.250      862.019
01/01/2022  03:28:00     -103.292        1.926      -15.486       68.283       52.915       39.375     4662.583     2800.013     1550.423        0.996        0.451      103.310       35.455        0.118      327.346       -7.237      861.998
01/01/2022  03:29:00      -96.203       17.473        4.444       90.310       58.278       36.809     8155.813     3396.358     1354.889        1.124        0.645       97.777       43.732        0.200      327.248       -7.396      861.976
01/01/2022  03:30:00      -37.748       19.384      -12.000       48.188       42.171       31.566     2322.095     1778.407      996.414        0.352        0.255       42.434       24.706        0.339      327.294       -7.320      861.969
01/01/2022  03:31:00     -155.693       66.765      -21.870       44.801       29.555       31.445     2007.157      873.522      988.781        1.652        0.193      169.405       17.563        0.011      327.233       -7.419      861.974
01/01/2022  03:32:00     -122.534        4.329      -14.635       55.745       45.197       32.954     3107.510     2042.801     1085.978        1.074        0.312      122.610       27.993        0.052      327.240       -7.408      861.982
01/01/2022  03:33:00      -56.673      -11.092      -12.184       40.290       28.925       24.861     1623.262      836.639      618.069        0.328        0.154       57.748       19.408        0.113      327.287       -7.332      861.996
01/01/2022  03:34:00      -60.932        9.364      -16.441       42.560       43.759       17.282     1811.321     1914.876      298.662        0.405        0.201       61.647        8.454        0.019      327.255       -7.384      862.015
01/01/2022  03:35:00      -38.499      -40.215      -12.663       32.179       31.657       19.254     1035.497     1002.179      370.711        0.283        0.120       55.673       14.878        0.071      327.240       -7.409      862.032
01/01/2022  03:36:00       -9.601      -29.048       -3.747       16.555       20.418       19.307      274.074      416.900      372.751        0.101        0.053       30.594        8.463        0.077      327.251       -7.392      862.045
01/01/2022  03:37:00       15.273      -47.077      -27.367       23.120       23.452       16.741      534.524      549.979      280.276        0.228        0.068       49.493        8.529        0.030      327.480       -7.018      862.070
01/01/2022  03:38:00      -10.900        2.219      -15.224       17.397       20.172       13.533      302.642      406.924      183.144        0.062        0.045       11.124        7.952        0.511      327.526       -6.943      862.096
01/01/2022  03:39:00       -6.120       15.029      -13.487       25.486       33.745       12.303      649.558     1138.730      151.359        0.119        0.097       16.227        6.272        0.149      327.427       -7.104      862.115
01/01/2022  03:40:00        4.380      -52.112       -7.838       33.154       33.039       23.252     1099.184     1091.547      540.650        0.276        0.137       52.296       20.070        0.147      327.434       -7.094      862.126
01/01/2022  03:41:00       40.284        6.318      -18.241       22.256       33.011       19.455      495.350     1089.734      378.482        0.198        0.098       40.776       17.861        0.192      327.348       -7.233      862.141
01/01/2022  03:42:00       43.247      -34.891      -15.864       23.521       17.486       18.393      553.227      305.775      338.320        0.227        0.060       55.567        6.818        0.015      327.448       -7.071      862.151
01/01/2022  03:43:00       19.577      -31.725      -17.860       16.508       20.742       11.652      272.509      430.213      135.771        0.127        0.042       37.279        9.244        0.061      327.448       -7.071      862.145
01/01/2022  03:44:00       -1.476      -14.441       -8.435       22.723       17.747       12.344      516.352      314.967      152.369        0.063        0.049       14.516        7.888        0.295      327.453       -7.064      862.147
01/01/2022  03:45:00      -27.136      -35.338       -2.630       49.399       31.552       17.607     2440.219      995.526      309.998        0.287        0.187       44.555        7.192        0.026      327.421       -7.115      862.143
01/01/2022  03:46:00     -105.086      -14.510        1.153       51.850       37.674       24.192     2688.376     1419.362      585.233        0.797        0.235      106.083       10.581        0.010      327.327       -7.266      862.147
01/01/2022  03:47:00      -68.296       -4.504       -4.694       47.284       29.193       24.708     2235.752      852.225      610.479        0.420        0.185       68.444        6.793        0.010      327.353       -7.225      862.159
01/01/2022  03:48:00      -28.844       -1.299        4.706       34.360       29.148       15.488     1180.616      849.600      239.883        0.156        0.114       28.873       10.325        0.128      327.365       -7.207      862.157
01/01/2022  03:49:00      -39.299       -1.514       -4.610       50.989       24.695       23.837     2599.859      609.863      568.203        0.267        0.189       39.328       17.714        0.203      327.279       -7.345      862.150
01/01/2022  03:50:00      -88.638      -15.262       -7.515       34.893       27.587       23.290     1217.536      761.022      542.445        0.533        0.126       89.942       24.466        0.074      327.219       -7.443      862.152
01/01/2022  03:51:00      -90.681      -15.543      -15.417       24.892       27.656       19.359      619.613      764.849      374.763        0.523        0.088       92.004       13.035        0.020      327.278       -7.347      862.170
01/01/2022  03:52:00      -44.017        2.643       -5.224       36.690       26.954       15.304     1346.121      726.530      234.222        0.214        0.115       44.097       12.511        0.080      327.298       -7.313      862.186
01/01/2022  03:53:00      -35.181      -14.583      -10.839       32.161       27.254       13.174     1034.351      742.778      173.547        0.176        0.098       38.084        9.794        0.066      327.339       -7.247      862.197
01/01/2022  03:54:00       -0.321      -21.853      -15.834       16.150       16.540       18.341      260.834      273.581      336.393        0.080        0.044       21.856        9.855        0.203      327.394       -7.158      862.224
01/01/2022  03:55:00      -76.265      -41.579      -11.978       55.103       39.729       20.899     3036.295     1578.430      436.750        0.637        0.253       86.862       12.520        0.021      327.262       -7.374      862.233
01/01/2022  03:56:00     -120.731      -43.551       -7.859       52.763       46.100       32.918     2783.907     2125.243     1083.612        1.126        0.300      128.346       26.069        0.041      327.130       -7.587      862.235
01/01/2022  03:57:00      -93.669      -38.071      -10.556       72.535       52.035       37.571     5261.329     2707.598     1411.575        0.986        0.469      101.111       26.301        0.068      327.149       -7.556      862.253
01/01/2022  03:58:00      -76.873      -33.544      -20.179       46.787       59.993       36.742     2189.037     3599.124     1350.009        0.729        0.357       83.873       21.758        0.067      327.106       -7.626      862.277
01/01/2022  03:59:00      -83.526       -2.197       -3.515       50.839       44.873       34.882     2584.640     2013.569     1216.772        0.640        0.291       83.555       15.727        0.035      327.067       -7.689      862.286
01/01/2022  04:00:00      -52.560      -11.099        0.768       58.062       43.885       31.359     3371.234     1925.925      983.370        0.458        0.314       53.719       27.904        0.270      327.058       -7.704      862.289
01/01/2022  04:01:00     -142.490       -9.216       -6.985       87.677       50.530       42.783     7687.262     2553.235     1830.357        1.625        0.604      142.788       21.551        0.023      326.995       -7.806      862.295
01/01/2022  04:02:00     -205.953        4.750        2.471       88.926       50.747       39.228     7907.846     2575.220     1538.873        2.723        0.601      206.008       43.185        0.044      326.844       -8.054      862.314
01/01/2022  04:03:00      -89.008       14.532       -3.913       84.676       36.191       42.502     7170.021     1309.817     1806.410        0.922        0.514       90.186       43.795        0.236      326.887       -7.982      862.328
01/01/2022  04:04:00     -174.665      -22.518      -14.034       67.336       43.844       33.486     4534.084     1922.315     1121.344        1.939        0.379      176.110       26.127        0.022      326.881       -7.993      862.341
01/01/2022  04:05:00      -91.755      -25.597      -16.538       80.523       49.599       36.360     6483.981     2460.015     1322.018        0.980        0.513       95.258       41.209        0.187      326.888       -7.980      862.351
01/01/2022  04:06:00     -154.319       31.638       -1.173       51.063       47.760       33.257     2607.424     2280.982     1106.044        1.540        0.300      157.529       27.677        0.031      326.781       -8.153      862.355
01/01/2022  04:07:00     -168.003       14.565      -11.186       70.823       42.432       35.503     5015.896     1800.504     1260.487        1.832        0.404      168.633       38.192        0.051      326.747       -8.211      862.361
01/01/2022  04:08:00     -129.279       15.112      -12.073       53.793       36.319       27.090     2893.730     1319.070      733.858        1.102        0.247      130.159       20.819        0.026      326.835       -8.066      862.369
01/01/2022  04:09:00      -99.066        5.917       -6.308       47.698       34.563       27.216     2275.053     1194.586      740.718        0.705        0.211       99.242       24.796        0.062      326.831       -8.072      862.386
01/01/2022  04:10:00     -107.756      -27.514       -4.741       69.667       37.340       26.723     4853.451     1394.296      714.104        0.968        0.348      111.213       31.755        0.082      326.853       -8.037      862.389
01/01/2022  04:11:00      -63.921      -20.143       -7.620       38.966       37.948       21.415     1518.323     1440.039      458.587        0.398        0.171       67.020       10.619        0.025      326.906       -7.949      862.394
01/01/2022  04:12:00      -44.375        2.657      -11.642       37.935       28.405       24.692     1439.056      806.871      609.690        0.248        0.143       44.454       16.538        0.138      326.851       -8.041      862.395
01/01/2022  04:13:00      -28.146      -28.008      -12.705       32.694       44.401       22.186     1068.873     1971.461      492.205        0.263        0.177       39.707        9.648        0.059      326.886       -7.982      862.389
01/01/2022  04:14:00     -106.396       -8.681      -20.170       49.635       20.668       19.735     2463.667      427.170      389.453        0.754        0.164      106.750       10.124        0.009      326.825       -8.082      862.395
01/01/2022  04:15:00     -118.825       -8.311      -16.289       27.180       24.279       17.929      738.755      589.491      321.464        0.805        0.082      119.116       12.110        0.010      326.830       -8.074      862.398
01/01/2022  04:16:00      -81.327       24.343      -18.067       25.369       10.262       14.834      643.569      105.308      220.060        0.425        0.048       84.892       13.817        0.026      326.782       -8.153      862.384
01/01/2022  04:17:00      -85.975       -3.629       -9.191       38.420       34.730       21.024     1476.102     1206.154      442.013        0.531        0.156       86.052       17.045        0.039      326.873       -8.004      862.369
01/01/2022  04:18:00      -88.674       10.654      -16.475       40.444       27.356       15.432     1635.709      748.339      238.147        0.543        0.131       89.312       13.783        0.024      326.904       -7.953      862.363
01/01/2022  04:19:00      -32.765       -9.441        0.915       43.730       23.072       24.973     1912.300      532.318      623.651        0.212        0.153       34.099       22.862        0.450      326.848       -8.046      862.367
01/01/2022  04:20:00      -16.739       14.687        8.494       38.644       26.962       17.214     1493.392      726.941      296.332        0.154        0.126       22.269       16.844        0.572      326.829       -8.074      862.374
01/01/2022  04:21:00      -30.035      -13.195       -7.826       42.130       21.598       20.286     1774.915      466.461      411.524        0.189        0.133       32.806       13.565        0.171      326.986       -7.822      862.384
01/01/2022  04:22:00      -53.244      -10.597      -10.546       42.552       31.676       24.858     1810.679     1003.339      617.920        0.324        0.172       54.288       19.245        0.126      326.995       -7.807      862.394
01/01/2022  04:23:00      -39.659       -0.575       -1.027       49.269       26.852       22.024     2427.414      721.041      485.048        0.260        0.182       39.663       22.967        0.335      326.988       -7.817      862.415
01/01/2022  04:24:00      -70.858       -2.772       -7.240       34.232       25.919       22.091     1171.816      671.818      488.009        0.371        0.117       70.912       14.757        0.043      327.003       -7.792      862.429
01/01/2022  04:25:00      -54.708       -4.938        2.467       43.884       33.792       24.386     1925.827     1141.869      594.700        0.334        0.183       54.931       21.451        0.153      326.970       -7.847      862.438
01/01/2022  04:26:00      -79.045       -4.146       -7.734       44.028       28.235       17.223     1938.475      797.197      296.635        0.468        0.152       79.154       16.194        0.042      327.032       -7.746      862.449
01/01/2022  04:27:00       -1.032       11.196       -4.752       28.348       20.898       13.748      803.600      436.712      189.009        0.079        0.071       11.244        7.504        0.445      326.989       -7.815      862.460
01/01/2022  04:28:00       -1.322      -24.972       -9.749       21.892       20.585       19.783      479.280      423.731      391.367        0.101        0.065       25.007       10.592        0.179      327.094       -7.644      862.463
01/01/2022  04:29:00      -58.524      -26.648      -22.737       34.059       19.152       17.239     1160.040      366.793      297.199        0.324        0.091       64.306       10.184        0.025      327.015       -7.774      862.471
01/01/2022  04:30:00      -69.677      -56.863      -15.965       30.192       43.885       26.192      911.559     1925.878      686.002        0.593        0.176       89.935       18.632        0.043      326.954       -7.872      862.474
01/01/2022  04:31:00      -92.514      -20.113      -14.774       35.195       39.517       28.908     1238.667     1561.579      835.700        0.641        0.182       94.675       15.211        0.026      326.894       -7.971      862.467
01/01/2022  04:32:00      -79.996      -12.576      -11.113       63.666       33.792       23.413     4053.313     1141.885      548.172        0.621        0.287       80.978       22.965        0.080      326.898       -7.963      862.464
01/01/2022  04:33:00     -133.847      -18.286       -5.142       42.051       27.323       29.608     1768.258      746.571      876.641        1.083        0.170      135.091       27.061        0.040      326.827       -8.078      862.465
01/01/2022  04:34:00     -118.756      -25.457      -13.208       44.814       23.117       18.691     2008.314      534.384      349.356        0.891        0.145      121.454       17.863        0.022      326.880       -7.993      862.472
01/01/2022  04:35:00      -69.288      -22.819      -13.426       27.632       26.929       17.646      763.509      725.146      311.386        0.365        0.090       72.949       11.257        0.024      326.927       -7.916      862.489
01/01/2022  04:36:00      -68.331      -13.395      -12.932       22.895       23.397       14.205      524.184      547.442      201.796        0.314        0.064       69.632       11.471        0.027      326.952       -7.878      862.510
01/01/2022  04:37:00      -36.908       -3.853       -2.284       30.482       26.141       17.917      929.174      683.330      321.019        0.166        0.097       37.109       19.274        0.270      327.009       -7.783      862.526
01/01/2022  04:38:00      -67.407       -4.363       -1.947       39.011       31.699       16.298     1521.835     1004.835      265.638        0.368        0.140       67.548       15.423        0.052      326.981       -7.828      862.549
01/01/2022  04:39:00      -16.887       -5.563        6.645       26.405       24.371       14.282      697.229      593.941      203.989        0.093        0.075       17.780       11.268        0.402      327.063       -7.696      862.558
01/01/2022  04:40:00      -12.992      -12.977       -8.663       27.041       23.507       19.698      731.220      552.589      388.004        0.104        0.084       18.363       14.457        0.620      327.093       -7.647      862.568
01/01/2022  04:41:00       -6.439       -4.825       -9.231       17.294       17.295       15.665      299.077      299.112      245.390        0.050        0.042        8.046        8.903        1.224      327.032       -7.747      862.578
01/01/2022  04:42:00      -23.552        3.172       -0.865       21.829       16.237       15.331      476.507      263.655      235.049        0.077        0.049       23.765        7.389        0.097      327.023       -7.761      862.588
01/01/2022  04:43:00      -19.400        1.798       -3.024       12.488       23.222       13.799      155.955      539.265      190.409        0.064        0.044       19.483        8.996        0.213      327.042       -7.731      862.604
01/01/2022  04:44:00      -24.698        0.440        0.512       24.973       18.998       12.773      623.659      360.927      163.144        0.088        0.057       24.702       10.586        0.184      327.018       -7.769      862.619
01/01/2022  04:45:00       -1.529      -11.986       -1.595       14.113       20.921       11.522      199.168      437.672      132.765        0.046        0.038       12.084        8.421        0.486      327.000       -7.798      862.624
01/01/2022  04:46:00      -16.236       -9.166       -2.287       29.997       15.980       15.259      899.794      255.349      232.838        0.087        0.069       18.645        7.882        0.179      327.011       -7.779      862.624
01/01/2022  04:47:00      -66.334       -9.124       -4.279       45.436       27.120       19.225     2064.392      735.513      369.614        0.384        0.158       66.958       25.703        0.147      326.981       -7.829      862.636
01/01/2022  04:48:00     -137.104      -12.245      -16.098       28.156       27.021       23.058      792.763      730.161      531.653        1.063        0.103      137.649        8.701        0.004      326.922       -7.923      862.646
01/01/2022  04:49:00     -113.389       -8.603      -13.171       30.419       28.076       26.139      925.321      788.246      683.259        0.775        0.120      113.715       17.583        0.024      326.928       -7.915      862.658
01/01/2022  04:50:00     -131.304      -14.996      -11.651       33.243       27.720       23.761     1105.127      768.395      564.581        1.002        0.122      132.158       19.632        0.022      326.850       -8.041      862.659
01/01/2022  04:51:00      -91.935      -17.599      -10.684       26.335       23.062       23.955      693.544      531.864      573.829        0.534        0.090       93.604       11.377        0.015      326.919       -7.928      862.662
01/01/2022  04:52:00      -81.909       -4.998      -12.317       32.882       31.280       21.884     1081.200      978.420      478.929        0.471        0.127       82.062       14.529        0.031      326.929       -7.914      862.677
01/01/2022  04:53:00      -36.556        3.965       -2.198       37.512       30.378       14.589     1407.143      922.853      212.849        0.195        0.127       36.770        9.277        0.064      326.939       -7.896      862.689
01/01/2022  04:54:00      -70.073        4.826       -3.110       58.043       26.466       24.535     3368.960      700.452      601.985        0.481        0.234       70.239       24.230        0.119      326.802       -8.120      862.713
01/01/2022  04:55:00      -69.101      -12.432       -5.844       59.610       29.679       28.986     3553.302      880.855      840.193        0.512        0.264       70.211       29.168        0.173      326.734       -8.231      862.721
01/01/2022  04:56:00      -63.844       -2.643        1.809       41.928       34.113       30.266     1757.990     1163.709      916.032        0.396        0.192       63.899       20.805        0.106      326.857       -8.030      862.730
01/01/2022  04:57:00      -71.662       -5.665        1.254       43.310       32.228       30.191     1875.747     1038.632      911.512        0.450        0.191       71.886       21.713        0.091      326.795       -8.130      862.752
01/01/2022  04:58:00      -86.482       21.961       -3.934       46.287       36.555       21.889     2142.524     1336.257      479.122        0.597        0.198       89.226       23.472        0.069      326.725       -8.244      862.789
01/01/2022  04:59:00      -51.891      -11.945       -3.207       49.885       42.407       19.875     2488.478     1798.328      395.016        0.376        0.234       53.248       20.802        0.153      326.720       -8.253      862.823
01/01/2022  05:00:00      -61.176       -8.201      -10.901       39.520       36.209       23.162     1561.826     1311.077      536.469        0.367        0.170       61.724       16.619        0.072      326.738       -8.223      862.860
01/01/2022  05:01:00      -71.932       12.648        0.165       60.493       29.219       30.590     3659.436      853.731      935.724        0.539        0.272       73.035       29.682        0.165      326.632       -8.396      862.903
01/01/2022  05:02:00      -53.478       -9.258        2.437       34.674       39.306       24.769     1202.290     1544.999      613.528        0.316        0.168       54.273       12.026        0.049      326.637       -8.386      862.937
01/01/2022  05:03:00      -49.751       -8.241       -9.136       38.041       34.497       18.528     1447.123     1190.061      343.299        0.280        0.149       50.429       11.311        0.050      326.725       -8.244      862.961
01/01/2022  05:04:00     -102.978      -29.697      -12.499       33.455       29.613       23.118     1119.265      876.907      534.444        0.709        0.127      107.175       14.720        0.019      326.611       -8.429      862.972
01/01/2022  05:05:00      -45.681       -8.687       -5.607       48.459       29.841       21.733     2348.281      890.468      472.343        0.295        0.186       46.500       25.212        0.294      326.551       -8.526      862.979
01/01/2022  05:06:00        2.847      -13.254       -1.345       51.611       20.857       21.164     2663.726      435.034      447.929        0.187        0.177       13.556       22.590        2.777      326.611       -8.429      862.984
01/01/2022  05:07:00      -45.251      -12.773      -18.186       56.937       37.929       26.449     3241.837     1438.640      699.549        0.396        0.269       47.019       24.806        0.278      326.577       -8.485      862.979
01/01/2022  05:08:00     -123.003        0.163      -20.053       38.912       39.581       23.565     1514.135     1566.670      555.323        0.958        0.182      123.003       18.619        0.023      326.445       -8.697      862.978
01/01/2022  05:09:00      -89.469      -22.750       -9.910       79.445       36.275       38.931     6311.494     1315.890     1515.661        0.888        0.457       92.316       38.027        0.170      326.443       -8.701      862.980
01/01/2022  05:10:00     -122.410       -4.366      -13.508       55.296       43.914       29.221     3057.667     1928.409      853.844        1.051        0.292      122.488       27.796        0.051      326.454       -8.683      862.986
01/01/2022  05:11:00     -131.428       -6.645       -5.780       65.353       32.007       27.406     4271.020     1024.477      751.096        1.170        0.302      131.596       35.242        0.072      326.404       -8.765      863.006
01/01/2022  05:12:00     -128.652        2.293      -12.562       37.176       28.223       19.447     1382.024      796.539      378.194        0.964        0.128      128.672       15.904        0.015      326.457       -8.678      863.022
01/01/2022  05:13:00      -28.968      -24.435        3.317       31.475       38.010       16.897      990.695     1444.766      285.508        0.208        0.136       37.898       13.708        0.131      326.553       -8.522      863.044
01/01/2022  05:14:00      -64.852      -21.338       -6.328       40.518       27.719       22.657     1641.723      768.369      513.327        0.381        0.146       68.272       20.049        0.086      326.632       -8.396      863.079
01/01/2022  05:15:00      -82.043        6.279      -18.322       31.726       19.466       17.387     1006.557      378.917      302.301        0.440        0.084       82.283        9.208        0.013      326.537       -8.549      863.120
01/01/2022  05:16:00      -26.517      -13.328       -7.511       28.340       21.630       27.350      803.132      467.855      748.043        0.148        0.101       29.678       22.368        0.568      326.585       -8.470      863.151
01/01/2022  05:17:00      -55.346      -19.699       -6.731       35.367       22.818       19.525     1250.847      520.681      381.229        0.282        0.108       58.747       17.728        0.091      326.606       -8.437      863.172
01/01/2022  05:18:00      -30.303      -14.648      -12.183       39.181       24.243       14.940     1535.178      587.723      223.190        0.181        0.117       33.658       16.466        0.239      326.643       -8.377      863.191
01/01/2022  05:19:00      -50.821      -18.610        1.356       35.872       22.070       25.982     1286.781      487.091      675.077        0.269        0.122       54.121       24.359        0.203      326.622       -8.412      863.202
01/01/2022  05:20:00     -104.138      -21.430      -10.914       30.768       28.510       22.067      946.686      812.822      486.952        0.683        0.112      106.320        9.984        0.009      326.596       -8.454      863.221
01/01/2022  05:21:00      -62.736      -14.969      -10.011       47.916       37.585       22.766     2295.904     1412.598      518.303        0.424        0.211       64.497       10.279        0.025      326.564       -8.505      863.236
01/01/2022  05:22:00      -59.515      -21.275       -1.590       62.782       38.864       34.759     3941.618     1510.403     1208.221        0.533        0.333       63.203       25.625        0.164      326.572       -8.492      863.253
01/01/2022  05:23:00     -105.747      -46.462      -14.777       55.363       61.425       32.308     3065.050     3773.034     1043.788        1.072        0.394      115.504       26.277        0.052      326.488       -8.629      863.268
01/01/2022  05:24:00      -60.052       -9.179       -8.396       64.068       52.121       38.003     4104.710     2716.570     1444.224        0.601        0.413       60.750       27.204        0.201      326.509       -8.593      863.277
01/01/2022  05:25:00      -67.070      -15.030      -14.371       62.039       54.296       34.407     3848.896     2948.064     1183.851        0.645        0.399       68.733       25.024        0.133      326.479       -8.643      863.287
01/01/2022  05:26:00      -66.504       10.190        4.804       79.578       43.193       27.666     6332.625     1865.621      765.405        0.676        0.448       67.280       17.413        0.067      326.491       -8.624      863.288
01/01/2022  05:27:00     -197.335      -11.001      -13.994       45.367       43.197       28.186     2058.135     1865.973      794.427        2.199        0.236      197.641       17.241        0.008      326.304       -8.928      863.295
01/01/2022  05:28:00      -75.974      -10.600        1.119       79.497       33.034       33.507     6319.815     1091.274     1122.722        0.721        0.427       76.710       36.149        0.222      326.372       -8.817      863.312
01/01/2022  05:29:00      -75.932       -3.572       -1.517       72.443       37.648       29.237     5247.996     1417.347      854.806        0.665        0.376       76.016       33.431        0.193      326.418       -8.741      863.325
01/01/2022  05:30:00      -92.021       17.579       -4.186       70.451       28.267       27.710     4963.279      799.001      767.830        0.766        0.327       93.685       27.381        0.085      326.376       -8.810      863.348
01/01/2022  05:31:00     -118.188        8.673       -9.780       38.794       35.364       25.757     1504.941     1250.648      663.424        0.878        0.171      118.506       21.027        0.031      326.383       -8.799      863.384
01/01/2022  05:32:00      -85.597       13.804       -9.672       50.405       39.152       28.897     2540.643     1532.862      835.064        0.626        0.245       86.703       32.753        0.143      326.308       -8.920      863.424
01/01/2022  05:33:00      -55.447       -9.936      -10.927       35.077       29.001       21.599     1230.380      841.056      466.528        0.291        0.127       56.330       18.853        0.112      326.448       -8.693      863.448
01/01/2022  05:34:00      -94.992      -24.343       -9.201       66.619       40.525       24.909     4438.069     1642.278      620.458        0.820        0.335       98.061       29.967        0.093      326.357       -8.842      863.472
01/01/2022  05:35:00     -139.385      -20.818      -31.143       23.261       14.885       16.658      541.073      221.573      277.494        1.094        0.052      140.931       13.192        0.009      326.374       -8.811      863.498
01/01/2022  05:36:00     -159.637      -33.771      -24.745       25.238       29.852       16.732      636.945      891.139      279.962        1.452        0.090      163.170       11.907        0.005      326.357       -8.841      863.516
01/01/2022  05:37:00     -121.340      -25.879      -26.074       49.557       29.763       26.329     2455.907      885.837      693.192        1.005        0.202      124.069       27.505        0.049      326.432       -8.719      863.540
01/01/2022  05:38:00      -60.638       -7.150       -3.881       49.928       39.889       21.030     2492.832     1591.170      442.241        0.413        0.226       61.058       24.123        0.156      326.472       -8.655      863.577
01/01/2022  05:39:00      -45.519       -4.882      -15.372       45.148       21.957       23.069     2038.313      482.131      532.196        0.269        0.153       45.780       27.010        0.348      326.460       -8.674      863.617
01/01/2022  05:40:00      -19.248        9.490        3.067       48.021       25.874       21.673     2305.995      669.444      469.712        0.196        0.172       21.460       21.183        0.974      326.494       -8.620      863.665
01/01/2022  05:41:00      -16.312        8.862        3.535       28.585       25.983       19.066      817.128      675.094      363.510        0.111        0.093       18.564       10.658        0.330      326.413       -8.750      863.695
01/01/2022  05:42:00      -97.250       -4.734      -13.088       53.422       34.132       20.955     2853.884     1164.994      439.130        0.705        0.223       97.365       12.795        0.017      326.358       -8.839      863.705
01/01/2022  05:43:00     -129.833        4.524      -12.977       56.928       33.152       20.544     3240.847     1099.032      422.061        1.090        0.238      129.912       13.525        0.011      326.353       -8.847      863.704
01/01/2022  05:44:00        0.388        2.106        3.768       47.995       29.522       18.383     2303.547      871.565      337.947        0.177        0.176        2.141       17.490       66.712      326.364       -8.829      863.693
01/01/2022  05:45:00     -116.310      -24.250      -11.999       39.090       35.121       28.409     1528.042     1233.478      807.071        0.891        0.178      118.811       21.922        0.034      326.366       -8.825      863.717
01/01/2022  05:46:00     -143.205       25.533       -2.581       62.360       44.633       23.049     3888.772     1992.085      531.277        1.379        0.321      145.463       24.833        0.029      326.283       -8.960      863.737
01/01/2022  05:47:00      -60.692       18.507        5.190       62.809       40.299       26.750     3945.009     1624.029      715.551        0.517        0.314       63.451       30.502        0.231      326.231       -9.044      863.742
01/01/2022  05:48:00      -72.690        5.748        3.515       51.887       45.256       38.051     2692.234     2048.120     1447.904        0.576        0.309       72.917       32.068        0.193      326.146       -9.183      863.744
01/01/2022  05:49:00     -180.319        6.180      -14.587       31.378       29.080       27.694      984.566      845.675      766.943        1.768        0.130      180.425       13.370        0.005      326.110       -9.242      863.743
01/01/2022  05:50:00      -63.316        2.318        2.286       61.898       30.550       37.102     3831.346      933.299     1376.566        0.508        0.307       63.358       39.090        0.381      326.130       -9.209      863.727
01/01/2022  05:51:00     -115.193       30.880       -7.076       56.780       57.488       37.308     3223.961     3304.820     1391.883        1.110        0.396      119.261       33.613        0.079      326.163       -9.156      863.739
01/01/2022  05:52:00     -109.140       29.401        1.094       55.624       44.995       25.588     3094.047     2024.549      654.724        0.927        0.289      113.031       26.995        0.057      326.125       -9.217      863.755
01/01/2022  05:53:00      -85.499       17.503        2.559       52.545       44.489       30.125     2761.012     1979.252      907.534        0.663        0.282       87.272       25.739        0.087      326.070       -9.306      863.791
01/01/2022  05:54:00      -89.460       16.315        3.686       47.644       31.601       27.055     2269.924      998.594      731.964        0.614        0.200       90.935       24.763        0.074      326.191       -9.111      863.842
01/01/2022  05:55:00     -127.128      -23.866       -8.215       38.670       33.514       23.736     1495.401     1123.200      563.405        0.999        0.159      129.349       20.534        0.025      326.229       -9.047      863.900
01/01/2022  05:56:00     -121.661      -15.328      -13.260       27.379       36.649       18.258      749.625     1343.180      333.360        0.882        0.121      122.623       12.591        0.011      326.271       -8.981      863.948
01/01/2022  05:57:00      -84.017       -8.351      -14.856       41.616       24.305       18.011     1731.921      590.726      324.385        0.500        0.132       84.431       15.925        0.036      326.372       -8.816      863.986
01/01/2022  05:58:00      -99.342        8.181      -11.665       33.917       33.600       24.559     1150.384     1128.953      603.166        0.648        0.144       99.679       13.525        0.018      326.381       -8.800      864.018
01/01/2022  05:59:00      -84.704       -1.401      -17.011       41.220       38.678       26.088     1699.058     1496.001      680.605        0.567        0.194       84.715       17.377        0.042      326.376       -8.810      864.035
01/01/2022  06:00:00     -103.699      -15.785       -4.908       36.235       29.831       23.812     1312.950      889.909      567.007        0.690        0.138      104.893       15.255        0.021      326.382       -8.799      864.053
01/01/2022  06:01:00      -60.129        4.603       -7.367       41.813       26.920       23.452     1748.320      724.701      549.992        0.336        0.151       60.305       20.077        0.111      326.384       -8.796      864.071
01/01/2022  06:02:00      -73.859      -15.037       -9.753       49.075       23.355       21.465     2408.387      545.442      460.758        0.459        0.171       75.374       21.920        0.085      326.390       -8.787      864.091
01/01/2022  06:03:00      -98.960      -29.118      -21.911       34.320       29.811       22.713     1177.896      888.675      515.874        0.685        0.129      103.155       19.718        0.037      326.311       -8.914      864.105
01/01/2022  06:04:00      -92.439      -20.546      -12.402       29.610       33.300       17.345      876.724     1108.917      300.857        0.570        0.114       94.695       12.129        0.016      326.302       -8.930      864.121
01/01/2022  06:05:00      -34.022      -16.300       -0.611       42.997       36.375       21.760     1848.762     1323.157      473.488        0.253        0.182       37.725       19.135        0.257      326.326       -8.891      864.145
01/01/2022  06:06:00     -117.895        3.902      -11.452       41.834       37.333       26.374     1750.099     1393.757      695.567        0.894        0.192      117.959       22.046        0.035      326.310       -8.917      864.156
01/01/2022  06:07:00      -70.238       -1.845       -1.594       41.395       42.750       31.452     1713.522     1827.563      989.200        0.473        0.227       70.262       24.518        0.122      326.341       -8.865      864.169
01/01/2022  06:08:00      -99.911        7.594       -8.802       58.777       28.881       32.094     3454.777      834.085     1029.999        0.772        0.266      100.200       23.110        0.053      326.222       -9.060      864.182
01/01/2022  06:09:00     -112.913       -7.321      -19.024       50.407       32.739       29.532     2540.880     1071.841      872.110        0.882        0.224      113.150       14.381        0.016      326.207       -9.084      864.198
01/01/2022  06:10:00     -155.579       11.318      -20.991       37.504       31.451       29.925     1406.522      989.137      895.502        1.403        0.165      155.990       16.714        0.011      326.204       -9.088      864.220
01/01/2022  06:11:00     -168.500       -8.089      -25.663       38.998       28.326       25.651     1520.860      802.382      657.984        1.605        0.149      168.694       11.041        0.004      326.147       -9.181      864.251
01/01/2022  06:12:00     -133.977      -18.042       -7.101       65.336       41.492       37.109     4268.750     1721.624     1377.094        1.285        0.368      135.186       32.105        0.056      326.188       -9.115      864.276
01/01/2022  06:13:00     -141.556      -32.002      -15.468       61.707       41.745       29.812     3807.735     1742.683      888.727        1.387        0.322      145.128       33.658        0.054      326.154       -9.169      864.298
01/01/2022  06:14:00     -119.878      -11.244       -6.831       47.966       43.276       28.494     2300.762     1872.824      811.906        0.976        0.249      120.405       27.740        0.053      326.179       -9.129      864.322
01/01/2022  06:15:00      -55.506       -7.597       -0.235       68.283       35.303       27.612     4662.514     1246.282      762.402        0.490        0.334       56.024       33.364        0.355      326.137       -9.196      864.352
01/01/2022  06:16:00      -69.819        1.931       -2.807       52.396       36.533       25.924     2745.335     1334.643      672.050        0.482        0.238       69.846       23.282        0.111      326.221       -9.061      864.387
01/01/2022  06:17:00     -130.428      -21.503      -15.088       49.243       31.885       25.551     2424.878     1016.649      652.871        1.090        0.205      132.189       26.552        0.040      326.177       -9.132      864.412
01/01/2022  06:18:00      -81.679      -44.535      -11.758       75.491       58.262       41.370     5698.836     3394.446     1711.459        0.980        0.540       93.031       39.335        0.179      326.156       -9.165      864.428
01/01/2022  06:19:00     -114.673      -25.682      -22.617       52.393       66.029       33.366     2745.029     4359.801     1113.277        1.127        0.411      117.513       21.700        0.034      325.995       -9.426      864.427
01/01/2022  06:20:00     -115.881       16.999       -7.782       57.792       41.499       36.786     3339.893     1722.134     1353.213        1.010        0.321      117.122       23.304        0.040      325.994       -9.429      864.435
01/01/2022  06:21:00     -166.955      -10.171      -22.305       49.099       41.111       32.583     2410.674     1690.145     1061.637        1.682        0.258      167.265       25.171        0.023      325.985       -9.444      864.452
01/01/2022  06:22:00     -139.637       -2.214      -20.744       54.438       44.759       27.603     2963.450     2003.390      761.914        1.283        0.286      139.654       26.682        0.037      325.922       -9.545      864.481
01/01/2022  06:23:00     -131.636       -0.175      -13.579       56.709       41.708       25.512     3215.945     1739.539      650.840        1.156        0.280      131.636       17.556        0.018      325.974       -9.460      864.517
01/01/2022  06:24:00     -139.217      -36.776      -18.656       41.288       32.237       22.072     1704.706     1039.203      487.154        1.216        0.162      143.992       14.108        0.010      325.947       -9.505      864.547
01/01/2022  06:25:00     -105.701      -39.444       -5.970       56.071       37.898       34.044     3144.011     1436.277     1159.012        0.925        0.287      112.821       35.646        0.100      325.976       -9.457      864.566
01/01/2022  06:26:00      -90.824       -9.526       -7.187       55.151       30.615       35.728     3041.652      937.254     1276.508        0.682        0.263       91.323       27.725        0.092      326.016       -9.393      864.569
01/01/2022  06:27:00     -136.519      -16.891      -11.567       71.309       40.621       33.211     5085.014     1650.103     1102.996        1.345        0.392      137.560       37.960        0.076      325.992       -9.430      864.557
01/01/2022  06:28:00     -154.612        4.076       -8.863       51.078       41.003       30.805     2608.924     1681.238      948.935        1.462        0.262      154.666       25.124        0.026      325.951       -9.499      864.540
01/01/2022  06:29:00     -126.325       -2.318       -8.291       59.548       36.174       29.570     3545.962     1308.571      874.385        1.088        0.286      126.346       30.429        0.058      325.949       -9.501      864.535
01/01/2022  06:30:00     -108.779       17.705      -10.109       50.857       39.591       22.126     2586.435     1567.422      489.570        0.845        0.232      110.211       20.501        0.035      325.980       -9.451      864.532
01/01/2022  06:31:00     -139.670       23.830       -6.248       53.679       36.906       27.184     2881.399     1362.052      738.961        1.255        0.249      141.689       19.986        0.020      325.912       -9.561      864.535
01/01/2022  06:32:00     -185.615       30.329       -7.014       37.987       34.836       26.739     1442.994     1213.571      714.960        1.940        0.169      188.077       14.109        0.006      325.885       -9.605      864.553
01/01/2022  06:33:00     -148.830       32.240       -5.301       55.659       38.874       28.884     3097.897     1511.203      834.302        1.433        0.272      152.282       29.006        0.036      325.919       -9.549      864.580
01/01/2022  06:34:00      -61.069        2.698      -13.492       83.189       48.667       33.855     6920.475     2368.429     1146.177        0.718        0.522       61.129       39.982        0.428      325.966       -9.473      864.600
01/01/2022  06:35:00     -110.692       41.322        1.809       69.631       44.068       32.937     4848.514     1941.947     1084.872        1.092        0.394      118.153       37.988        0.103      325.915       -9.556      864.620
01/01/2022  06:36:00     -137.037       25.855      -11.043       48.653       41.493       29.745     2367.102     1721.649      884.744        1.227        0.249      139.455       27.740        0.040      325.894       -9.589      864.640
01/01/2022  06:37:00     -104.245       -1.484      -16.902       41.669       42.169       23.810     1736.323     1778.229      566.929        0.762        0.204      104.255       19.860        0.036      325.939       -9.517      864.670
01/01/2022  06:38:00      -73.654       15.855      -16.596       30.290       31.364       18.643      917.479      983.716      347.578        0.410        0.112       75.341       15.247        0.041      325.846       -9.667      864.705
01/01/2022  06:39:00      -85.433        8.440      -11.414       34.474       29.593       22.383     1188.484      875.740      501.012        0.503        0.128       85.849       14.141        0.027      325.971       -9.466      864.732
01/01/2022  06:40:00      -79.543       15.896      -10.627       27.287       35.322       18.742      744.564     1247.619      351.253        0.452        0.117       81.116       18.803        0.054      325.981       -9.449      864.749
01/01/2022  06:41:00      -88.361      -24.833       -9.820       46.585       32.321       27.789     2170.166     1044.657      772.256        0.625        0.199       91.784       25.269        0.076      325.998       -9.422      864.755
01/01/2022  06:42:00      -50.720       -7.274      -14.349       40.039       29.390       23.943     1603.088      863.785      573.250        0.294        0.152       51.239       20.420        0.159      326.063       -9.317      864.767
01/01/2022  06:43:00      -26.983       -9.253        0.526       29.550       27.976       16.702      873.229      782.661      278.970        0.137        0.097       28.526       14.302        0.251      326.189       -9.113      864.783
01/01/2022  06:44:00      -51.595      -13.012       -5.280       37.897       23.768       19.451     1436.193      564.906      378.341        0.262        0.119       53.210       16.460        0.096      326.146       -9.181      864.788
01/01/2022  06:45:00      -80.728      -20.099      -14.393       29.456       28.925       19.791      867.651      836.683      391.686        0.461        0.105       83.192       11.500        0.019      326.034       -9.363      864.804
01/01/2022  06:46:00      -60.316        4.318      -15.687       29.327       27.823       16.585      860.101      774.139      275.058        0.291        0.095       60.471       12.174        0.041      326.069       -9.307      864.812
01/01/2022  06:47:00      -23.629      -17.853       -5.286       26.612       21.522       16.243      708.217      463.184      263.833        0.117        0.072       29.615        2.619        0.008      326.171       -9.140      864.827
01/01/2022  06:48:00      -34.265       -2.311       -8.038       28.943       16.516       20.859      837.687      272.785      435.104        0.139        0.077       34.342       16.821        0.240      326.091       -9.272      864.835
01/01/2022  06:49:00        5.333        3.140       -6.856       15.919       13.464       14.626      253.417      181.268      213.919        0.037        0.032        6.189       11.942        3.723      326.054       -9.331      864.836
01/01/2022  06:50:00       -3.567        6.492        4.754       30.638       18.919       17.501      938.669      357.932      306.274        0.084        0.080        7.408        9.739        1.728      326.046       -9.344      864.841
01/01/2022  06:51:00      -26.995       -9.219       -4.867       40.133       24.711       26.018     1610.622      610.633      676.952        0.187        0.145       28.526       24.888        0.761      326.040       -9.354      864.856
01/01/2022  06:52:00      -61.636       -7.062       -0.637       40.960       30.967       28.049     1677.698      958.953      786.722        0.364        0.171       62.039       23.620        0.145      325.986       -9.441      864.873
01/01/2022  06:53:00      -51.985        4.046       -3.871       52.701       33.557       34.396     2777.363     1126.052     1183.102        0.391        0.254       52.142       35.850        0.473      326.014       -9.396      864.892
01/01/2022  06:54:00      -72.158       19.634        7.406       41.915       36.508       25.650     1756.852     1332.804      657.905        0.470        0.187       74.781       19.877        0.071      325.974       -9.461      864.920
01/01/2022  06:55:00      -15.923      -12.858        3.867       26.743       20.039       17.967      715.169      401.554      322.821        0.094        0.072       20.467       13.654        0.445      326.100       -9.257      864.941
01/01/2022  06:56:00      -82.143       30.129       -6.615       51.463       28.840       18.856     2648.438      831.773      355.545        0.577        0.192       87.494       20.430        0.055      325.984       -9.444      864.951
01/01/2022  06:57:00      -24.880       -5.289       -1.266       26.562       26.238       22.139      705.522      688.451      490.154        0.127        0.094       25.436       16.674        0.430      326.076       -9.296      864.962
01/01/2022  06:58:00      -89.704        6.166        2.219       51.217       34.070       26.579     2623.146     1160.746      706.448        0.629        0.225       89.915       27.917        0.096      326.073       -9.300      864.956
01/01/2022  06:59:00     -106.929       -0.701       -7.422       59.835       34.009       27.791     3580.228     1156.615      772.364        0.850        0.275      106.931       24.919        0.054      325.949       -9.502      864.952
01/01/2022  07:00:00      -29.661        6.259       -0.886       73.334       35.804       36.190     5377.813     1281.949     1309.737        0.444        0.398       30.314       29.119        0.923      326.016       -9.393      864.961
01/01/2022  07:01:00     -164.710       36.277       -1.237       58.775       42.569       25.212     3454.540     1812.155      635.658        1.717        0.295      168.658       25.172        0.022      325.925       -9.540      864.955
01/01/2022  07:02:00      -94.198       20.453       -2.146       69.849       31.362       27.912     4878.947      983.578      779.103        0.797        0.332       96.393       29.413        0.093      325.916       -9.554      864.962
01/01/2022  07:03:00     -105.844       24.741        0.327       47.458       28.154       22.738     2252.242      792.641      516.998        0.769        0.178      108.697       18.875        0.030      325.876       -9.618      864.971
01/01/2022  07:04:00      -98.393        4.986       -4.712       54.997       35.746       32.450     3024.652     1277.794     1052.979        0.754        0.268       98.519       24.256        0.061      325.980       -9.451      864.979
01/01/2022  07:05:00      -81.042        3.136       -8.935       66.017       35.442       26.800     4358.226     1256.151      718.249        0.649        0.317       81.103       31.794        0.154      325.956       -9.491      864.992
01/01/2022  07:06:00     -118.852       -5.865      -16.094       49.445       38.276       30.044     2444.780     1465.054      902.634        0.961        0.241      118.997       27.324        0.053      325.947       -9.505      865.009
01/01/2022  07:07:00      -82.640       -1.707       -7.255       22.614       33.283       19.937      511.382     1107.776      397.468        0.445        0.101       82.658       11.807        0.020      325.967       -9.472      865.028
01/01/2022  07:08:00      -66.156      -14.611       -7.238       34.922       28.238       21.069     1219.573      797.381      443.907        0.355        0.123       67.751       16.717        0.061      326.134       -9.203      865.031
01/01/2022  07:09:00      -43.923        6.817        0.081       31.936       23.972       20.347     1019.929      574.673      413.997        0.199        0.100       44.448       13.742        0.096      326.072       -9.302      865.039
01/01/2022  07:10:00      -15.993      -13.718       -3.320       45.935       28.295       23.173     2110.028      800.620      536.971        0.195        0.172       21.071       15.591        0.547      326.102       -9.254      865.037
01/01/2022  07:11:00      -24.881       -3.319        1.967       23.792       20.660       17.832      566.042      426.847      317.969        0.097        0.066       25.101       14.061        0.314      326.149       -9.178      865.040
01/01/2022  07:12:00       -1.839       15.821        5.906       25.484       29.492       17.141      649.430      869.796      293.799        0.105        0.091       15.928       11.743        0.544      326.051       -9.336      865.054
01/01/2022  07:13:00      -26.066       -8.435       -7.640       21.332       32.105       18.145      455.072     1030.745      329.248        0.131        0.091       27.396       14.868        0.295      326.064       -9.314      865.083
01/01/2022  07:14:00      -13.937        8.750        1.848       36.882       17.990       20.852     1360.264      323.651      434.797        0.120        0.106       16.456       24.291        2.179      326.042       -9.351      865.128
01/01/2022  07:15:00      -42.380      -19.430        1.438       26.878       21.166       14.557      722.445      448.008      211.895        0.178        0.069       46.622       12.542        0.072      326.005       -9.411      865.157
01/01/2022  07:16:00        8.704       -0.007       -6.069       11.421       15.464       11.876      130.448      239.127      141.043        0.031        0.026        8.704        6.791        0.609      326.070       -9.307      865.164
01/01/2022  07:17:00       -1.004       -1.443        4.386       35.758       22.585       21.643     1278.645      510.088      468.401        0.114        0.113        1.758       20.616      137.510      326.118       -9.227      865.152
01/01/2022  07:18:00      -28.842       -0.409        1.134       47.341       33.517       29.949     2241.161     1123.389      896.939        0.255        0.213       28.845       26.961        0.874      325.984       -9.444      865.150
01/01/2022  07:19:00      -59.052      -18.241      -16.382       46.651       21.995       22.022     2176.352      483.777      484.983        0.362        0.157       61.805       21.542        0.121      326.064       -9.315      865.163
01/01/2022  07:20:00     -125.399      -24.186      -17.412       35.931       24.558       24.570     1291.001      603.097      603.690        0.955        0.125      127.710       19.532        0.023      326.012       -9.399      865.186
01/01/2022  07:21:00      -68.794       -5.476      -10.511       64.007       27.105       29.374     4096.855      734.677      862.849        0.528        0.285       69.011       31.777        0.212      325.989       -9.435      865.225
01/01/2022  07:22:00       -2.175      -33.263      -11.322       37.003       28.827       24.356     1369.228      831.009      593.197        0.202        0.140       33.334       17.937        0.290      326.144       -9.186      865.254
01/01/2022  07:23:00      -35.040       15.745       -2.526       44.096       22.230       21.638     1944.428      494.159      468.208        0.219        0.145       38.415       20.668        0.289      325.938       -9.518      865.281
01/01/2022  07:24:00      -24.107       10.022       -9.473       24.591       15.614       19.175      604.721      243.808      367.690        0.099        0.061       26.107        8.316        0.101      325.951       -9.498      865.281
01/01/2022  07:25:00      -25.712        9.287       -5.138       28.907       15.892       15.051      835.609      252.544      226.522        0.104        0.066       27.338       13.498        0.244      325.908       -9.567      865.271
01/01/2022  07:26:00      -14.955        3.513       -1.396       21.285       20.872       15.263      453.049      435.654      232.952        0.068        0.056       15.362       10.938        0.507      326.051       -9.336      865.270
01/01/2022  07:27:00      -36.319       -7.395       -5.569       40.773       20.156       25.389     1662.422      406.258      644.596        0.206        0.136       37.064       22.873        0.381      326.118       -9.227      865.287
01/01/2022  07:28:00      -35.203       -2.363       -4.169       33.286       18.499       19.172     1107.947      342.200      367.549        0.154        0.091       35.282       18.942        0.288      326.058       -9.324      865.310
01/01/2022  07:29:00      -80.065       15.410        2.465       31.242       24.776       19.133      976.078      613.856      366.076        0.430        0.098       81.534       15.465        0.036      325.954       -9.493      865.326
01/01/2022  07:30:00      -52.935      -11.970       -1.176       29.225       31.006       20.089      854.096      961.344      403.576        0.258        0.111       54.272       18.547        0.117      326.114       -9.234      865.338
01/01/2022  07:31:00       -0.948        0.786        3.787       17.754       19.166       12.479      315.219      367.321      155.720        0.043        0.042        1.232        9.979       65.636      326.264       -8.993      865.355
01/01/2022  07:32:00      -68.093       23.210       -8.515       44.232       27.467       14.708     1956.513      754.450      216.321        0.409        0.146       71.940       16.019        0.050      326.071       -9.303      865.373
01/01/2022  07:33:00      -36.549      -12.124       -0.773       29.711       22.824       17.354      882.757      520.927      301.156        0.159        0.085       38.507       16.650        0.187      326.146       -9.182      865.395
01/01/2022  07:34:00      -75.138      -10.228       -5.222       32.195       28.909       23.602     1036.518      835.710      557.055        0.410        0.121       75.831       18.356        0.059      326.207       -9.083      865.412
01/01/2022  07:35:00      -98.074      -35.776       -8.166       41.318       28.838       20.943     1707.199      831.610      438.605        0.697        0.149      104.395       18.823        0.033      326.175       -9.134      865.417
01/01/2022  07:36:00     -116.353      -21.794      -28.110       44.996       44.777       31.364     2024.661     2004.936      983.704        0.991        0.251      118.376       22.501        0.036      326.086       -9.280      865.428
01/01/2022  07:37:00     -132.982      -11.507       -8.342       63.712       55.542       35.739     4059.193     3084.864     1277.296        1.315        0.421      133.479       23.045        0.030      325.975       -9.459      865.434
01/01/2022  07:38:00     -112.599      -14.803       -6.736       84.032       43.815       36.695     7061.382     1919.773     1346.505        1.163        0.516      113.568       42.679        0.141      325.954       -9.493      865.432
01/01/2022  07:39:00     -113.667       -8.978      -22.874       61.849       42.318       33.579     3825.352     1790.791     1127.560        1.013        0.337      114.021       22.695        0.040      325.928       -9.535      865.435
01/01/2022  07:40:00     -143.094      -22.889      -12.183       55.982       44.812       29.280     3134.036     2008.110      857.331        1.357        0.300      144.913       20.346        0.020      325.874       -9.622      865.440
01/01/2022  07:41:00     -103.376       -4.284      -18.797       70.924       30.090       25.601     5030.146      905.437      655.412        0.882        0.330      103.465       23.414        0.051      325.856       -9.652      865.450
01/01/2022  07:42:00      -89.479      -23.766       -8.471       49.779       35.762       28.369     2477.952     1278.952      804.818        0.660        0.228       92.582       10.655        0.013      325.892       -9.593      865.453
01/01/2022  07:43:00      -53.950       13.018       -8.106       57.197       45.794       43.749     3271.468     2097.103     1914.017        0.521        0.364       55.498       37.828        0.465      325.852       -9.656      865.463
01/01/2022  07:44:00     -110.330      -14.427      -15.547       61.389       38.999       23.453     3768.584     1520.906      550.032        0.923        0.292      111.269       13.845        0.015      325.868       -9.632      865.469
01/01/2022  07:45:00     -110.832      -24.459      -15.053       67.058       48.404       36.670     4496.827     2342.917     1344.683        1.065        0.409      113.499       28.155        0.062      325.842       -9.675      865.487
01/01/2022  07:46:00      -74.335      -10.894      -14.551       63.416       35.513       28.784     4021.604     1261.167      828.497        0.598        0.306       75.129       16.531        0.048      325.844       -9.670      865.494
01/01/2022  07:47:00     -122.563      -14.369      -13.543       48.273       39.241       30.237     2330.279     1539.888      914.306        1.010        0.239      123.402       19.488        0.025      325.826       -9.701      865.502
01/01/2022  07:48:00     -105.059      -18.527      -24.917       35.154       29.743       26.443     1235.777      884.666      699.224        0.741        0.141      106.680       16.285        0.023      325.890       -9.596      865.507
01/01/2022  07:49:00      -92.800       -0.378      -12.585       49.905       24.919       19.690     2490.485      620.965      387.692        0.613        0.175       92.800       13.475        0.021      325.892       -9.593      865.515
01/01/2022  07:50:00     -128.009      -23.951      -24.280       52.653       28.254       24.628     2772.301      798.309      606.528        1.086        0.209      130.230       23.733        0.033      325.916       -9.554      865.529
01/01/2022  07:51:00     -153.058      -26.661      -21.187       40.534       34.469       22.448     1643.005     1188.144      503.920        1.396        0.167      155.363       19.487        0.016      325.909       -9.566      865.542
01/01/2022  07:52:00     -136.217       -5.763      -18.042       61.900       40.253       29.130     3831.570     1620.293      848.535        1.261        0.315      136.339       28.972        0.045      325.916       -9.556      865.544
01/01/2022  07:53:00     -104.091      -10.306       -2.298       50.734       39.746       28.542     2573.988     1579.740      814.673        0.796        0.248      104.600       23.773        0.052      325.964       -9.478      865.540
01/01/2022  07:54:00     -118.824       13.015        0.035       66.285       45.839       34.558     4393.670     2101.248     1194.245        1.099        0.384      119.534       31.356        0.069      325.958       -9.486      865.540
01/01/2022  07:55:00     -118.253      -10.715      -10.919       43.217       33.248       29.516     1867.707     1105.449      871.222        0.903        0.192      118.737       24.621        0.043      326.009       -9.404      865.558
01/01/2022  07:56:00     -128.064      -15.142       -9.981       59.840       33.996       31.182     3580.815     1155.736      972.319        1.122        0.285      128.956       31.662        0.060      325.934       -9.526      865.598
01/01/2022  07:57:00     -135.941        0.102      -12.779       28.960       28.472       25.246      838.671      810.639      637.372        1.046        0.114      135.941       14.857        0.012      325.928       -9.534      865.626
01/01/2022  07:58:00      -82.983      -23.784      -16.606       60.460       56.195       25.169     3655.465     3157.882      633.457        0.759        0.372       86.324       26.998        0.098      325.996       -9.424      865.649
01/01/2022  07:59:00      -68.743      -11.745       -2.315       62.951       35.363       32.552     3962.888     1250.539     1059.616        0.557        0.314       69.739       22.830        0.107      325.999       -9.421      865.667
01/01/2022  08:00:00     -122.901      -14.214      -13.199       52.922       36.488       22.250     2800.700     1331.401      495.045        1.005        0.231      123.720       16.697        0.018      325.958       -9.486      865.679
01/01/2022  08:01:00      -82.024      -21.439      -10.420       49.966       61.460       36.401     2496.605     3777.317     1325.047        0.745        0.380       84.779       26.929        0.101      325.985       -9.442      865.690
01/01/2022  08:02:00      -93.282      -13.687      -18.375       57.309       52.803       32.620     3284.321     2788.149     1064.082        0.818        0.357       94.281       22.007        0.054      326.024       -9.380      865.709
01/01/2022  08:03:00     -130.222      -35.945      -18.227       47.964       38.688       26.942     2300.537     1496.737      725.870        1.155        0.226      135.092       23.839        0.031      325.983       -9.446      865.723
01/01/2022  08:04:00     -122.371      -37.883      -24.258       33.588       28.515       24.252     1128.144      813.084      588.178        0.976        0.126      128.101       17.544        0.019      325.992       -9.430      865.722
01/01/2022  08:05:00     -151.707      -36.619      -21.839       24.015       31.966       21.140      576.709     1021.856      446.914        1.344        0.102      156.063        5.849        0.001      325.987       -9.438      865.715
01/01/2022  08:06:00     -112.455      -17.315       -9.058       70.812       46.059       42.906     5014.315     2121.421     1840.911        1.100        0.449      113.780       42.212        0.138      325.996       -9.425      865.719
01/01/2022  08:07:00     -113.033      -25.475      -17.500       25.634       21.305       19.382      657.102      453.924      375.666        0.761        0.074      115.869       11.672        0.010      326.006       -9.410      865.732
01/01/2022  08:08:00     -117.609        5.034      -18.546       34.802       24.841       21.458     1211.210      617.065      460.433        0.824        0.114      117.717       16.917        0.021      326.045       -9.347      865.761
01/01/2022  08:09:00     -126.659      -15.355      -16.235       35.444       20.806       25.571     1256.280      432.889      653.875        0.944        0.117      127.586       25.005        0.038      326.007       -9.407      865.781
01/01/2022  08:10:00      -89.684        2.554      -15.620       21.744       31.024       17.089      472.790      962.473      292.035        0.501        0.086       89.720        9.087        0.010      326.114       -9.232      865.801
01/01/2022  08:11:00      -31.870       -6.896       -4.939       25.238       26.189       15.945      636.968      685.887      254.233        0.133        0.079       32.607       15.668        0.231      326.328       -8.888      865.830
01/01/2022  08:12:00      -32.025        6.850        3.558       20.596       22.358       15.835      424.176      499.890      250.760        0.113        0.059       32.749       12.102        0.137      326.220       -9.064      865.865
01/01/2022  08:13:00      -31.565        1.943       -0.703       17.103       19.770       18.401      292.516      390.833      338.607        0.101        0.051       31.625       11.521        0.133      326.302       -8.931      865.907
01/01/2022  08:14:00      -21.858       -9.710       -8.064       13.630       16.452       13.242      185.763      270.663      175.340        0.063        0.032       23.918        7.439        0.097      326.442       -8.701      865.941
01/01/2022  08:15:00        4.274       -1.664        5.121       13.106       15.811       18.214      171.762      250.003      331.762        0.040        0.038        4.587        9.522        4.309      326.638       -8.385      865.974
01/01/2022  08:16:00      -11.159        1.734       -7.042       34.416       34.638       23.228     1184.448     1199.777      539.526        0.155        0.146       11.293       18.998        2.830      326.543       -8.539      865.990
01/01/2022  08:17:00      -50.970      -23.544       -3.679       37.170       28.590       20.797     1381.599      817.412      432.521        0.290        0.132       56.145       19.138        0.116      326.471       -8.654      865.997
01/01/2022  08:18:00      -14.164      -17.098       -5.415       25.527       27.774       21.934      651.615      771.379      481.084        0.121        0.095       22.203       12.535        0.319      326.663       -8.344      866.000
01/01/2022  08:19:00      -40.297        1.043       -4.943       27.958       32.888       18.058      781.662     1081.593      326.091        0.192        0.109       40.311       10.738        0.071      326.462       -8.670      866.008
01/01/2022  08:20:00      -14.934      -24.655      -15.296       24.274       33.670       12.006      589.230     1133.649      144.148        0.147        0.093       28.826       11.828        0.168      326.642       -8.378      866.006
01/01/2022  08:21:00      -39.621       -6.809      -10.223       19.616       18.674       15.525      384.793      348.702      241.023        0.135        0.049       40.202        8.035        0.040      326.539       -8.546      866.011
01/01/2022  08:22:00      -42.270      -11.878       -4.612       31.433       18.422       19.309      988.022      339.386      372.846        0.182        0.085       43.907        7.876        0.032      326.540       -8.545      866.033
01/01/2022  08:23:00       -4.443       -4.798        0.613       16.160       19.701        9.347      261.140      388.124       87.364        0.039        0.037        6.539        6.158        0.887      326.710       -8.269      866.069
01/01/2022  08:24:00      -26.246      -27.265      -13.819       17.943       32.680       12.691      321.957     1067.963      161.068        0.159        0.078       37.845        8.472        0.050      326.618       -8.418      866.115
01/01/2022  08:25:00      -41.321       24.479       -1.640       31.845       26.263       22.396     1014.127      689.763      501.573        0.226        0.110       48.028       18.838        0.154      326.508       -8.595      866.161
01/01/2022  08:26:00        9.418       20.046       -7.379       30.106       27.469       27.372      906.358      754.571      749.208        0.148        0.121       22.148        7.025        0.101      326.618       -8.417      866.197
01/01/2022  08:27:00       -6.614      -10.422      -14.155       27.885       28.593       26.490      777.552      817.534      701.724        0.132        0.115       12.344       11.907        0.931      326.686       -8.307      866.227
01/01/2022  08:28:00        4.677       -2.351      -22.332       17.204       21.677       17.567      295.967      469.887      308.584        0.080        0.054        5.235       13.964        7.115      326.744       -8.213      866.250
01/01/2022  08:29:00        3.480       -8.804       -6.695       22.072       27.775       18.856      487.185      771.459      355.540        0.087        0.081        9.467       15.715        2.755      326.879       -7.994      866.270
01/01/2022  08:30:00      -12.815      -17.533        0.684       34.998       32.442       26.308     1224.874     1052.459      692.109        0.172        0.148       21.717       14.716        0.459      326.940       -7.896      866.276
01/01/2022  08:31:00      -66.458      -28.347       -5.030       55.464       30.137       27.148     3076.230      908.240      737.039        0.498        0.236       72.251       16.199        0.050      326.681       -8.315      866.260
01/01/2022  08:32:00      -59.354      -20.907        0.848       56.089       51.322       34.047     3145.946     2633.965     1159.200        0.545        0.347       62.928       24.507        0.152      326.659       -8.352      866.240
01/01/2022  08:33:00      -68.298      -25.668      -12.133       45.872       41.215       36.925     2104.232     1698.694     1363.451        0.532        0.258       72.962       14.275        0.038      326.612       -8.427      866.225
01/01/2022  08:34:00      -63.019      -26.103       -6.407       54.704       43.675       24.989     2992.542     1907.533      624.436        0.511        0.276       68.211       25.293        0.137      326.518       -8.580      866.224
01/01/2022  08:35:00      -63.946      -43.994       -3.691       39.740       47.471       30.898     1579.269     2253.520      954.708        0.541        0.239       77.618       21.556        0.077      326.483       -8.637      866.241
01/01/2022  08:36:00      -94.639      -89.013       -8.201       31.269       54.463       26.110      977.752     2966.211      681.713        1.079        0.231      129.922        9.057        0.005      326.460       -8.674      866.254
01/01/2022  08:37:00      -97.610      -57.136      -16.472       41.008       70.937       32.718     1681.638     5032.025     1070.483        1.042        0.389      113.103       33.434        0.087      326.483       -8.637      866.284
01/01/2022  08:38:00      -92.522      -16.916       -4.419       50.086       42.755       28.473     2508.634     1827.962      810.700        0.701        0.257       94.055       16.113        0.029      326.569       -8.497      866.313
01/01/2022  08:39:00      -87.215       -6.837      -12.921       54.030       34.729       21.613     2919.226     1206.094      467.108        0.621        0.230       87.482       14.640        0.028      326.600       -8.446      866.331
01/01/2022  08:40:00      -64.496      -22.290       -5.639       45.367       46.176       30.625     2058.131     2132.216      937.880        0.491        0.256       68.239       15.613        0.052      326.596       -8.453      866.344
01/01/2022  08:41:00      -50.710      -20.231       -7.916       45.369       55.048       36.406     2058.356     3030.320     1325.360        0.473        0.321       54.597       20.092        0.135      326.610       -8.432      866.348
01/01/2022  08:42:00      -43.168       -4.108       -4.891       37.394       33.811       24.080     1398.336     1143.179      579.833        0.251        0.156       43.363       16.430        0.144      326.728       -8.239      866.343
01/01/2022  08:43:00      -62.285       -2.219        3.244       34.686       27.634       19.154     1203.133      763.614      366.886        0.311        0.117       62.324       19.899        0.102      326.676       -8.323      866.333
01/01/2022  08:44:00     -106.495      -44.163      -14.296       46.254       34.245       22.964     2139.472     1172.707      527.366        0.867        0.192      115.289       28.290        0.060      326.658       -8.354      866.337
01/01/2022  08:45:00     -123.754      -30.886      -16.236       35.207       25.412       25.678     1239.530      645.776      659.380        0.954        0.127      127.550       21.931        0.030      326.695       -8.293      866.346
01/01/2022  08:46:00      -84.266        5.869       -8.657       35.318       24.067       19.517     1247.367      579.229      380.911        0.471        0.110       84.470       13.884        0.027      326.702       -8.282      866.352
01/01/2022  08:47:00      -60.463      -15.144        0.641       52.181       40.351       27.503     2722.894     1628.240      756.422        0.450        0.255       62.331       23.220        0.139      326.876       -7.999      866.363
01/01/2022  08:48:00     -100.635      -32.308      -19.416       37.161       59.294       21.983     1380.929     3515.739      483.263        0.846        0.269      105.693        6.290        0.004      326.703       -8.280      866.367
01/01/2022  08:49:00     -127.986        6.469       -6.429       59.281       36.120       33.591     3514.284     1304.688     1128.376        1.120        0.297      128.149       31.416        0.060      326.716       -8.260      866.380
01/01/2022  08:50:00     -130.561      -16.426      -11.354       64.578       39.909       29.892     4170.357     1592.697      893.556        1.205        0.333      131.590       31.630        0.058      326.743       -8.215      866.393
01/01/2022  08:51:00     -102.363       -2.547        0.930       47.266       32.336       29.754     2234.052     1045.633      885.279        0.732        0.208      102.395       27.924        0.074      326.742       -8.217      866.408
01/01/2022  08:52:00      -21.617       -0.374        2.459       49.206       31.426       26.353     2421.242      987.565      694.479        0.229        0.205       21.620       14.497        0.450      326.952       -7.876      866.415
01/01/2022  08:53:00      -74.813       -6.086       -4.420       41.116       26.838       26.088     1690.538      720.297      680.600        0.437        0.155       75.061       20.667        0.076      326.973       -7.843      866.401
01/01/2022  08:54:00      -79.479      -20.951       -3.939       51.891       36.447       30.814     2692.644     1328.349      949.531        0.587        0.249       82.194       31.765        0.149      327.100       -7.636      866.395
01/01/2022  08:55:00     -109.386       16.530      -14.578       33.087       27.459       19.942     1094.770      754.004      397.678        0.735        0.112      110.628       20.172        0.033      326.827       -8.078      866.398
01/01/2022  08:56:00      -58.266       26.955      -19.708       26.977       31.577       14.418      727.752      997.109      207.874        0.322        0.097       64.199       12.970        0.041      326.936       -7.902      866.403
01/01/2022  08:57:00      -35.841        7.693       -6.131       29.372       14.830       15.089      862.727      219.931      227.673        0.135        0.066       36.658       13.994        0.146      327.032       -7.745      866.406
01/01/2022  08:58:00      -36.109       -2.670       -7.394       27.949       21.260       15.374      781.137      451.970      236.370        0.142        0.073       36.208       12.004        0.110      327.117       -7.607      866.407
01/01/2022  08:59:00      -57.897       24.136      -18.943       19.127       11.742       11.212      365.856      137.874      125.702        0.246        0.031       62.726        9.315        0.022      326.899       -7.961      866.424
01/01/2022  09:00:00      -47.509       34.281       -4.545       29.754       20.217       17.908      885.274      408.709      320.708        0.253        0.081       58.586       15.697        0.072      326.998       -7.801      866.440
01/01/2022  09:01:00      -18.010       -1.501       -7.753       13.936       12.967        9.386      194.221      168.132       88.099        0.042        0.023       18.072        3.672        0.041      327.071       -7.682      866.470
01/01/2022  09:02:00      -51.314       -1.307      -12.728       19.922       15.338       14.472      396.900      235.258      209.440        0.182        0.042       51.331        6.229        0.015      327.105       -7.628      866.495
01/01/2022  09:03:00      -23.630       10.708      -16.883       16.095       12.168        9.985      259.061      148.058       99.703        0.073        0.025       25.943        9.245        0.127      327.150       -7.555      866.512
01/01/2022  09:04:00      -34.158        5.298       -3.956       25.860        7.894       13.146      668.765       62.319      172.816        0.106        0.045       34.566       12.455        0.130      327.289       -7.329      866.523
01/01/2022  09:05:00      -18.428        1.491       -7.618       26.694       13.351       11.854      712.579      178.255      140.521        0.072        0.052       18.488       10.773        0.340      327.376       -7.188      866.537
01/01/2022  09:06:00      -12.434       14.942       -4.284       13.648       14.802       12.170      186.255      219.109      148.116        0.047        0.028       19.439        8.743        0.202      327.424       -7.110      866.543
01/01/2022  09:07:00      -24.999       18.268      -11.979       23.262       20.058       17.354      541.119      402.343      301.166        0.117        0.062       30.962       10.643        0.118      327.421       -7.114      866.557
01/01/2022  09:08:00      -24.181       24.025       -0.665       15.325       13.253       10.579      234.851      175.651      111.925        0.084        0.026       34.087        5.435        0.025      327.295       -7.320      866.578
01/01/2022  09:09:00      -44.620       19.960       -8.185       18.794       14.757       14.708      353.228      217.782      216.318        0.162        0.039       48.881       11.070        0.051      327.295       -7.321      866.593
01/01/2022  09:10:00      -29.613       40.863       -6.207       10.652       13.935        8.051      113.475      194.183       64.821        0.148        0.019       50.465        5.242        0.011      327.267       -7.365      866.601
01/01/2022  09:11:00      -42.699      -25.058       -9.634       47.424       31.680       23.459     2249.018     1003.603      550.344        0.317        0.190       49.509       26.632        0.289      327.509       -6.972      866.600
01/01/2022  09:12:00      -32.368        1.871        2.699       27.812       32.545       21.183      773.492     1059.150      448.703        0.167        0.114       32.422       13.870        0.183      327.623       -6.787      866.589
01/01/2022  09:13:00      -77.705       -1.772       -9.211       57.373       25.696       24.192     3291.692      660.269      585.277        0.533        0.227       77.725       20.874        0.072      327.616       -6.798      866.583
01/01/2022  09:14:00      -39.458      -10.923       -6.938       34.428       36.320       27.781     1185.285     1319.169      771.770        0.250        0.164       40.942       18.003        0.193      327.694       -6.671      866.590
01/01/2022  09:15:00      -39.084      -16.243      -16.991       30.073       30.807       20.247      904.360      949.081      409.941        0.217        0.113       42.325       13.395        0.100      327.489       -7.005      866.613
01/01/2022  09:16:00      -42.533        4.507       -4.975       44.596       37.019       28.879     1988.772     1370.437      834.025        0.302        0.210       42.771       21.112        0.244      327.620       -6.791      866.620
01/01/2022  09:17:00       -4.879       18.492      -11.464       15.437       15.705       21.179      238.301      246.644      448.547        0.072        0.047       19.125        8.450        0.195      327.711       -6.643      866.633
01/01/2022  09:18:00      -16.689      -31.080       -3.754       23.294       35.674       26.586      542.600     1272.630      706.820        0.189        0.126       35.278       15.134        0.184      327.885       -6.360      866.626
01/01/2022  09:19:00      -55.268      -26.767      -26.312       29.800       36.882       20.080      888.047     1360.284      403.206        0.356        0.133       61.409        8.047        0.017      327.661       -6.725      866.624
01/01/2022  09:20:00      -76.053      -47.097      -16.998       27.764       22.409       19.775      770.854      502.168      391.049        0.498        0.083       89.455       10.058        0.013      327.463       -7.046      866.632
01/01/2022  09:21:00      -29.179        4.332      -10.789       30.429       24.661       16.765      925.948      608.172      281.053        0.140        0.091       29.499       10.503        0.127      327.534       -6.931      866.657
01/01/2022  09:22:00      -18.938       11.853       -1.890       19.976       17.132       14.095      399.035      293.508      198.665        0.070        0.045       22.341        9.132        0.167      327.731       -6.611      866.679
01/01/2022  09:23:00      -30.497       24.115      -10.526       23.763       15.574       15.532      564.702      242.544      241.230        0.134        0.052       38.879        6.907        0.032      327.634       -6.769      866.709
01/01/2022  09:24:00        0.877       12.929       -6.617       20.643       11.677       10.972      426.114      136.342      120.386        0.045        0.034       12.959        7.138        0.303      327.798       -6.502      866.736
01/01/2022  09:25:00      -24.819       12.606      -14.596       24.888       27.823       18.388      619.425      774.141      338.132        0.136        0.087       27.837       10.666        0.147      327.806       -6.489      866.765
01/01/2022  09:26:00      -30.432       16.369       -7.806       25.983       40.272       17.557      675.109     1621.854      308.253        0.193        0.130       34.555       18.256        0.279      327.666       -6.716      866.791
01/01/2022  09:27:00        4.464      -18.859      -15.533       12.566       22.794       17.231      157.917      519.571      296.916        0.080        0.049       19.380        5.672        0.086      328.025       -6.133      866.822
01/01/2022  09:28:00       13.501       -3.763      -11.718       16.743       23.670       15.382      280.323      560.245      236.610        0.071        0.054       14.015        6.414        0.209      328.079       -6.043      866.851
01/01/2022  09:29:00        1.859      -17.374      -12.510       20.673       20.558       23.207      427.356      422.645      538.586        0.092        0.069       17.473        7.569        0.188      328.096       -6.015      866.871
01/01/2022  09:30:00      -25.651      -27.637       -8.206       39.436       43.251       27.233     1555.202     1870.689      741.656        0.283        0.208       37.706       20.412        0.293      327.991       -6.188      866.896
01/01/2022  09:31:00       22.922       21.972      -14.052       17.399       28.491       16.982      302.738      811.762      288.392        0.130        0.070       31.752       11.980        0.142      328.174       -5.889      866.917
01/01/2022  09:32:00      -12.741       10.421      -23.064       20.703       23.032       15.555      428.594      530.483      241.971        0.100        0.060       16.460       11.724        0.507      328.026       -6.129      866.937
01/01/2022  09:33:00       -0.996       12.500      -17.106       30.831       19.208       14.307      950.568      368.964      204.685        0.099        0.076       12.539       10.108        0.650      328.074       -6.051      866.954
01/01/2022  09:34:00       47.316      -58.054      -30.603       56.889       35.923       28.106     3236.383     1290.452      789.955        0.593        0.266       74.894       20.679        0.076      328.007       -6.162      866.976
01/01/2022  09:35:00       90.747     -127.978      -33.944       60.193       69.381       40.476     3623.218     4813.655     1638.287        1.792        0.504      156.886       43.612        0.077      328.062       -6.073      866.999
01/01/2022  09:36:00       88.662      -96.264      -28.726       48.257       66.867       24.327     2328.703     4471.226      591.788        1.267        0.370      130.873       23.681        0.033      327.858       -6.404      867.027
01/01/2022  09:37:00      102.125      -12.300      -13.732       30.050       26.198       24.962      903.020      686.335      623.113        0.649        0.111      102.863       17.451        0.029      327.953       -6.248      867.046
01/01/2022  09:38:00       71.169      -14.893      -40.084       54.329       57.626       31.695     2951.692     3320.739     1004.562        0.708        0.364       72.711       17.329        0.057      328.235       -5.790      867.063
01/01/2022  09:39:00       20.928     -107.476      -24.793       60.384       65.439       34.930     3646.171     4282.247     1220.073        1.087        0.457      109.495       25.732        0.055      328.296       -5.691      867.084
01/01/2022  09:40:00       73.735     -128.419      -29.799       38.606       56.757       23.206     1490.401     3221.324      538.533        1.403        0.263      148.082       17.457        0.014      327.971       -6.221      867.093
01/01/2022  09:41:00       49.195      -35.325      -27.428       29.952       29.146       23.971      897.104      849.495      574.616        0.337        0.116       60.564       15.336        0.064      328.014       -6.150      867.103
01/01/2022  09:42:00       27.095      -79.712      -14.560       38.185       40.627       25.088     1458.107     1650.529      629.423        0.552        0.187       84.191       27.329        0.105      328.194       -5.856      867.087
01/01/2022  09:43:00       27.055      -64.992      -22.322       37.192       44.302       26.107     1383.231     1962.651      681.583        0.474        0.201       70.398       15.006        0.045      328.527       -5.314      867.069
01/01/2022  09:44:00      -33.152      -23.368      -18.350       40.173       39.207       21.362     1613.863     1537.206      456.351        0.279        0.180       40.560       19.245        0.225      328.249       -5.768      867.065
01/01/2022  09:45:00        2.247      -61.270      -35.898       56.094       42.250       32.767     3146.506     1785.038     1073.651        0.553        0.300       61.312       18.607        0.092      328.261       -5.749      867.078
01/01/2022  09:46:00       85.929      -88.185      -34.082       31.899       40.164       28.462     1017.525     1613.158      810.059        0.988        0.172      123.127       15.931        0.017      328.307       -5.673      867.092
01/01/2022  09:47:00       85.604      -84.788      -47.053       33.213       43.558       30.466     1103.087     1897.341      928.175        1.033        0.196      120.487       12.815        0.011      328.277       -5.722      867.091
01/01/2022  09:48:00       27.008      -22.688      -36.067       43.247       51.195       26.292     1870.335     2620.884      691.288        0.386        0.259       35.273       21.371        0.367      328.401       -5.518      867.098
01/01/2022  09:49:00      -20.737        8.345      -17.688       40.011       38.776       28.986     1600.918     1503.613      840.208        0.238        0.197       22.353       17.387        0.605      328.513       -5.338      867.101
01/01/2022  09:50:00       51.683      -11.948      -31.990       23.973       63.980       27.617      574.727     4093.418      762.704        0.463        0.272       53.046       25.297        0.227      328.291       -5.698      867.103
01/01/2022  09:51:00       74.744      -28.117      -15.423       45.900       64.131       32.052     2106.805     4112.820     1027.362        0.693        0.362       79.858       22.272        0.078      328.436       -5.464      867.103
01/01/2022  09:52:00       18.382     -103.121      -24.689       42.899       55.246       33.873     1840.304     3052.144     1147.372        0.881        0.302      104.746       29.034        0.077      328.417       -5.494      867.092
01/01/2022  09:53:00        3.153       10.437      -28.723       44.585       31.376       23.262     1987.780      984.445      541.139        0.223        0.176       10.903       15.821        2.106      328.474       -5.401      867.084
01/01/2022  09:54:00      -23.969      -19.819      -16.210       23.982       37.602       20.906      575.116     1413.913      437.070        0.183        0.121       31.102       14.924        0.230      328.650       -5.113      867.083
01/01/2022  09:55:00       31.750      -35.793      -21.764       46.991       34.671       26.875     2208.125     1202.082      722.286        0.345        0.207       47.846       11.494        0.058      328.531       -5.307      867.096
01/01/2022  09:56:00      -13.407      -48.344      -11.384       37.626       37.827       24.149     1415.692     1430.894      583.163        0.304        0.171       50.169       17.717        0.125      328.713       -5.011      867.113
01/01/2022  09:57:00      -51.141      -47.453       -7.626       54.636       37.791       34.300     2985.142     1428.189     1176.463        0.526        0.279       69.765       24.777        0.126      328.753       -4.946      867.123
01/01/2022  09:58:00      -18.526      -19.464      -22.610       26.429       31.627       27.284      698.480     1000.267      744.411        0.184        0.122       26.871       16.393        0.372      328.712       -5.012      867.130
01/01/2022  09:59:00      -25.519        3.619      -16.788       33.490       31.555       27.500     1121.584      995.744      756.273        0.191        0.144       25.775       19.305        0.561      328.693       -5.042      867.130
01/01/2022  10:00:00        1.540       21.754       -5.014       22.052       23.629       29.033      486.306      558.326      842.904        0.119        0.094       21.809       13.647        0.392      328.668       -5.083      867.131
01/01/2022  10:01:00       -4.612       17.842        6.181       20.249       31.106       33.684      410.015      967.611     1134.628        0.144        0.126       18.429       19.776        1.152      328.693       -5.043      867.139
01/01/2022  10:02:00      -22.429       11.648       -4.855       21.169       33.610       23.439      448.136     1129.637      549.377        0.139        0.106       25.273       17.913        0.502      328.610       -5.179      867.136
01/01/2022  10:03:00       33.140      -37.295       -9.180       48.880       43.785       32.386     2389.262     1917.124     1048.867        0.396        0.268       49.892       34.245        0.471      328.826       -4.827      867.138
01/01/2022  10:04:00       -3.777      -68.720      -44.416       57.964       33.031       28.653     3359.833     1091.020      821.013        0.599        0.264       68.824       20.584        0.089      328.507       -5.347      867.144
01/01/2022  10:05:00        0.264      -20.045       -7.177       46.199       37.097       31.758     2134.372     1376.171     1008.548        0.249        0.226       20.046       14.519        0.525      328.777       -4.907      867.144
01/01/2022  10:06:00      -24.387      -54.341      -21.212       28.262       42.110       19.150      798.738     1773.280      366.731        0.347        0.147       59.563       14.418        0.059      328.690       -5.049      867.143
01/01/2022  10:07:00        5.081       -6.667      -13.382       15.253       25.554       16.269      232.653      652.992      264.667        0.070        0.058        8.383        8.958        1.142      328.749       -4.953      867.140
01/01/2022  10:08:00        2.788       30.562      -11.115       19.391       20.404       17.122      376.021      416.311      293.169        0.108        0.054       30.689        7.925        0.067      328.596       -5.202      867.137
01/01/2022  10:09:00      -51.791      -14.047      -17.788       21.136       15.855       17.337      446.728      251.370      300.568        0.210        0.050       53.662        6.095        0.013      328.447       -5.444      867.128
01/01/2022  10:10:00       -4.956      -86.894      -38.561       44.176       37.705       26.736     1951.505     1421.682      714.794        0.657        0.204       87.035       13.665        0.025      328.672       -5.078      867.131
01/01/2022  10:11:00       -4.960      -17.643      -18.027       28.295       37.961       22.821      800.615     1441.030      520.821        0.171        0.138       18.327       18.285        0.995      328.744       -4.961      867.126
01/01/2022  10:12:00      -30.830       -1.905       -7.793       26.735       13.256       15.546      714.775      175.735      241.670        0.107        0.057       30.888        5.783        0.035      328.859       -4.772      867.124
01/01/2022  10:13:00      -39.030      -15.545       -8.660       27.125       20.891       19.883      735.788      436.426      395.344        0.170        0.078       42.012       15.971        0.145      328.932       -4.652      867.129
01/01/2022  10:14:00       -8.045      -25.705        6.444       19.596       18.079       17.274      384.013      326.850      298.408        0.089        0.050       26.935        6.911        0.066      329.091       -4.393      867.142
01/01/2022  10:15:00      -36.668      -13.223      -10.642       34.364       26.510       20.410     1180.869      702.803      416.572        0.197        0.115       38.980       14.534        0.139      328.758       -4.937      867.150
01/01/2022  10:16:00      -32.623        4.929        0.782       25.115       17.591       20.595      630.754      309.457      424.145        0.123        0.068       32.993       10.839        0.108      328.799       -4.871      867.150
01/01/2022  10:17:00      -49.235       -5.792      -18.098       34.528       31.425       21.076     1192.174      987.550      444.195        0.270        0.131       49.574       13.417        0.073      328.743       -4.962      867.150
01/01/2022  10:18:00      -60.480      -65.886      -30.864       45.241       41.545       34.836     2046.712     1726.025     1213.540        0.697        0.249       89.436       13.664        0.023      328.742       -4.963      867.156
01/01/2022  10:19:00      -24.254      -57.278      -47.962       63.572       44.650       39.350     4041.413     1993.624     1548.459        0.688        0.379       62.202       38.026        0.374      328.855       -4.779      867.157
01/01/2022  10:20:00      -13.396      -25.432       -4.465       33.168       28.215       30.482     1100.124      796.066      929.174        0.184        0.141       28.744       18.269        0.404      329.048       -4.464      867.166
01/01/2022  10:21:00      -17.102        8.133       -4.575       43.984       25.030       30.896     1934.631      626.521      954.537        0.195        0.176       18.938       24.487        1.672      329.016       -4.516      867.175
01/01/2022  10:22:00      -22.146       -7.135       -9.593       28.737       21.743       20.584      825.809      472.769      423.699        0.118        0.086       23.267        5.836        0.063      329.043       -4.471      867.181
01/01/2022  10:23:00      -26.400      -60.448      -28.434       55.469       44.671       28.089     3076.861     1995.526      788.966        0.551        0.293       65.962       24.029        0.133      328.732       -4.980      867.200
01/01/2022  10:24:00        7.217       12.952      -45.914       49.354       37.618       24.946     2435.790     1415.137      622.278        0.340        0.224       14.827        6.087        0.169      328.721       -4.999      867.205
01/01/2022  10:25:00      -33.157      -35.737      -17.653       40.974       30.960       23.231     1678.847      958.549      539.702        0.293        0.159       48.750       18.671        0.147      329.032       -4.490      867.211
01/01/2022  10:26:00      -10.831      -15.131       -4.381       27.435       28.873       25.027      752.683      833.679      626.326        0.129        0.111       18.608       17.769        0.912      329.354       -3.964      867.211
01/01/2022  10:27:00       29.498      -85.618      -25.909       46.072       39.166       29.149     2122.645     1533.993      849.684        0.669        0.225       90.557        5.446        0.004      329.353       -3.966      867.208
01/01/2022  10:28:00       54.633      -39.632      -17.346       48.565       46.712       35.308     2358.557     2182.024     1246.624        0.532        0.289       67.494       21.194        0.099      328.960       -4.607      867.215
01/01/2022  10:29:00       27.280      -20.787      -18.497       44.503       49.488       30.016     1980.497     2449.097      900.941        0.342        0.267       34.297       17.858        0.271      329.094       -4.388      867.211
01/01/2022  10:30:00       -6.468       42.117      -15.279       29.514       31.980       26.565      871.073     1022.748      705.680        0.232        0.130       42.611       12.541        0.087      329.052       -4.457      867.207
01/01/2022  10:31:00       16.369       36.790        3.610       48.631       31.028       27.214     2365.016      962.725      740.616        0.285        0.203       40.267       28.097        0.487      328.948       -4.627      867.191
01/01/2022  10:32:00      -26.131       73.284      -16.959       42.829       26.952       21.649     1834.361      726.420      468.690        0.468        0.151       77.803       12.797        0.027      328.957       -4.612      867.166
01/01/2022  10:33:00      -30.812       10.018      -10.811       55.365       46.597       26.151     3065.257     2171.291      683.862        0.354        0.296       32.400       19.681        0.369      329.021       -4.508      867.153
01/01/2022  10:34:00      -31.010      -13.396       -6.910       31.360       26.020       20.418      983.477      677.024      416.896        0.163        0.104       33.780       15.236        0.203      328.868       -4.758      867.156
01/01/2022  10:35:00      -47.517      -15.126      -17.900       38.990       49.790       23.302     1520.219     2479.050      542.993        0.367        0.227       49.866        8.977        0.032      328.810       -4.853      867.146
01/01/2022  10:36:00       10.877      -57.269      -18.533       29.832       45.730       24.644      889.953     2091.240      607.334        0.366        0.179       58.292       25.838        0.196      328.946       -4.630      867.138
01/01/2022  10:37:00       66.119      -87.162      -27.470       40.076       55.109       25.181     1606.082     3036.964      634.080        0.900        0.264      109.402       19.733        0.033      328.999       -4.544      867.133
01/01/2022  10:38:00       37.400      -51.156       -0.916       62.957       42.681       26.216     3963.545     1821.639      687.300        0.524        0.324       63.369       33.889        0.286      328.932       -4.653      867.130
01/01/2022  10:39:00       -7.815      -52.895      -33.578       26.610       25.101       20.007      708.089      630.053      400.260        0.286        0.087       53.470        9.820        0.034      329.123       -4.340      867.124
01/01/2022  10:40:00      -45.673      -42.422      -36.803       31.755       17.794       17.842     1008.368      316.627      318.338        0.344        0.082       62.335       11.109        0.032      328.955       -4.617      867.107
01/01/2022  10:41:00      -37.865      -59.933      -32.477       34.581       35.146       25.075     1195.838     1235.254      628.761        0.457        0.153       70.892        7.131        0.010      329.229       -4.168      867.094
01/01/2022  10:42:00       26.842      -99.778      -33.662       25.301       35.036       27.073      640.160     1227.502      732.972        0.720        0.130      103.326       18.982        0.034      328.636       -5.135      867.080
01/01/2022  10:43:00       75.616     -130.899      -21.418       41.390       70.807       28.192     1713.108     5013.589      794.803        1.541        0.376      151.169       27.847        0.034      328.879       -4.741      867.058
01/01/2022  10:44:00       56.040     -125.682      -19.606       31.654       45.289       23.576     1001.985     2051.135      555.830        1.146        0.180      137.610       17.626        0.016      328.795       -4.875      867.053
01/01/2022  10:45:00       30.847        5.858       -9.987       48.233       30.856       29.588     2326.451      952.112      875.436        0.262        0.208       31.398       27.500        0.767      329.186       -4.239      867.040
01/01/2022  10:46:00      -21.438        5.206      -19.711       28.321       28.265       25.385      802.073      798.935      644.415        0.156        0.112       22.061       12.393        0.316      329.192       -4.229      867.035
01/01/2022  10:47:00      -24.578      -14.882      -23.416       28.337       38.818       22.905      802.998     1506.830      524.633        0.210        0.142       28.732       17.088        0.354      329.297       -4.059      867.036
01/01/2022  10:48:00      -26.589        6.287      -17.817       32.144       20.239       20.485     1033.247      409.599      419.632        0.146        0.093       27.322       13.321        0.238      329.266       -4.108      867.036
01/01/2022  10:49:00      -14.119       22.046        0.972       16.874       33.381       14.681      284.746     1114.309      215.543        0.115        0.081       26.179        9.067        0.120      329.357       -3.958      867.031
01/01/2022  10:50:00        3.026       19.842       -8.472       12.885       17.622       12.897      166.018      310.544      166.340        0.056        0.032       20.072        5.076        0.064      329.217       -4.188      867.009
01/01/2022  10:51:00       87.000     -106.815      -28.339       56.590       66.201       35.729     3202.400     4382.581     1276.594        1.432        0.443      137.762       28.776        0.044      329.160       -4.281      866.989
01/01/2022  10:52:00      109.262     -169.976      -39.370       45.185       72.286       33.606     2041.681     5225.201     1129.359        2.539        0.420      202.064       34.627        0.029      328.991       -4.559      866.943
01/01/2022  10:53:00      102.732     -136.748      -46.955       33.371       64.034       26.096     1113.635     4100.410      681.017        1.868        0.295      171.038       27.558        0.026      328.891       -4.720      866.933
01/01/2022  10:54:00      118.345     -149.258      -49.353       51.818       60.288       31.783     2685.114     3634.668     1010.186        2.302        0.366      190.482       22.218        0.014      328.865       -4.764      866.925
01/01/2022  10:55:00       94.176     -122.350      -37.457       26.193       31.690       19.715      686.075     1004.273      388.694        1.366        0.104      154.397       13.631        0.008      328.722       -4.997      866.931
01/01/2022  10:56:00       56.558     -114.697      -32.394       40.126       64.895       34.903     1610.112     4211.357     1218.220        1.222        0.352      127.884       19.552        0.023      329.109       -4.364      866.921
01/01/2022  10:57:00       15.827      -85.380      -56.416       37.815       56.554       34.347     1429.969     3198.312     1179.735        0.826        0.290       86.835       24.035        0.077      329.290       -4.069      866.931
01/01/2022  10:58:00       42.161       41.165      -11.608       35.519       26.096       17.429     1261.589      680.983      303.755        0.293        0.112       58.924        7.437        0.016      329.204       -4.210      866.929
01/01/2022  10:59:00        4.613       13.645        4.369       23.445       21.516       20.769      549.652      462.934      431.335        0.083        0.072       14.403       13.724        0.908      329.386       -3.912      866.926
01/01/2022  11:00:00       18.190       45.398        0.202       39.971       21.655       17.949     1597.653      468.952      322.165        0.239        0.119       48.906       13.617        0.078      329.256       -4.124      866.919
01/01/2022  11:01:00      -10.464       38.313       -0.011       33.002       31.301       18.916     1089.120      979.776      357.814        0.200        0.121       39.716        8.918        0.050      329.378       -3.925      866.920
01/01/2022  11:02:00      -36.494       17.638       -7.943       23.538       39.812       16.106      554.050     1584.957      259.410        0.205        0.120       40.533        9.881        0.059      329.312       -4.033      866.913
01/01/2022  11:03:00      -33.595      -44.792      -15.827       19.619       32.927       18.464      384.914     1084.196      340.923        0.260        0.091       55.990       16.972        0.092      329.485       -3.750      866.911
01/01/2022  11:04:00       56.743      -18.339      -20.103       43.533       50.130       36.202     1895.141     2512.978     1310.567        0.484        0.286       59.632       26.353        0.195      329.565       -3.619      866.902
01/01/2022  11:05:00      137.327       -6.882      -36.572       54.174       78.316       44.764     2934.860     6133.447     2003.830        1.566        0.554      137.500       28.900        0.044      329.491       -3.742      866.887
01/01/2022  11:06:00       95.474      -60.383      -43.375       56.501       77.180       40.635     3192.360     5956.787     1651.184        1.272        0.540      112.967       32.143        0.081      329.540       -3.659      866.862
01/01/2022  11:07:00      133.533     -168.740      -49.253       38.700       48.380       24.934     1497.681     2340.643      621.708        2.659        0.223      215.184       24.883        0.013      329.169       -4.268      866.840
01/01/2022  11:08:00       75.006     -135.155      -39.591       56.766       59.512       34.236     3222.366     3541.695     1172.097        1.670        0.397      154.572       25.365        0.027      329.247       -4.139      866.821
01/01/2022  11:09:00       60.243     -179.688      -52.770       94.699       67.808       39.552     8967.988     4597.979     1564.360        2.691        0.757      189.517       24.826        0.017      329.470       -3.776      866.798
01/01/2022  11:10:00      119.302     -159.796      -46.377       34.535       46.764       36.137     1192.645     2186.846     1305.847        2.330        0.234      199.419       16.024        0.006      329.190       -4.235      866.791
01/01/2022  11:11:00       95.206     -138.873      -44.912       57.814       58.799       39.464     3342.426     3457.274     1557.369        1.936        0.418      168.375       31.080        0.034      329.329       -4.004      866.777
01/01/2022  11:12:00       70.409     -180.021      -48.625       83.527      101.888       40.503     6976.726    10381.188     1640.501        2.936        0.950      193.300       44.194        0.052      329.361       -3.957      866.758
01/01/2022  11:13:00       -3.329      -78.629      -24.954       89.526       41.746       32.592     8014.867     1742.717     1062.250        0.882        0.541       78.699       16.398        0.043      329.608       -3.550      866.746
01/01/2022  11:14:00       43.131     -118.940      -32.986       53.236       61.806       43.870     2834.051     3819.964     1924.590        1.284        0.429      126.519       37.054        0.086      329.694       -3.408      866.717
01/01/2022  11:15:00       28.162      -95.122      -43.768       49.448       78.564       40.943     2445.140     6172.288     1676.355        1.102        0.515       99.203       33.079        0.111      329.892       -3.085      866.703
01/01/2022  11:16:00       18.780      -29.547      -34.514       46.457       82.836       36.075     2158.241     6861.722     1301.420        0.637        0.516       35.010       27.700        0.626      329.551       -3.641      866.705
01/01/2022  11:17:00      -18.816      -24.855       -7.533       58.246       54.472       42.420     3392.603     2967.223     1799.494        0.459        0.408       31.174       20.550        0.435      329.839       -3.170      866.696
01/01/2022  11:18:00      -99.872     -119.061      -31.008       58.046       64.740       40.371     3369.378     4191.207     1629.842        1.715        0.460      155.403       21.325        0.019      329.610       -3.546      866.672
01/01/2022  11:19:00        6.941      -99.474      -34.656       80.962       75.954       46.575     6554.896     5768.977     2169.217        1.282        0.725       99.716       42.207        0.179      330.073       -2.788      866.651
01/01/2022  11:20:00       80.048      -67.556      -39.668       68.605       75.225       41.543     4706.600     5658.860     1725.794        1.232        0.605      104.745       38.254        0.133      329.599       -3.563      866.645
01/01/2022  11:21:00      -63.828       -7.986      -16.120       35.514       53.640       30.860     1261.239     2877.220      952.327        0.474        0.255       64.326        9.486        0.022      329.873       -3.115      866.634
01/01/2022  11:22:00      -17.345      -23.413      -12.025       37.651       32.312       30.609     1417.562     1044.065      936.900        0.220        0.170       29.138       27.759        0.908      330.114       -2.721      866.618
01/01/2022  11:23:00      -31.122      -53.425       -3.269       56.111       43.685       38.308     3148.406     1908.375     1467.512        0.518        0.326       61.829       21.119        0.117      330.245       -2.505      866.613
01/01/2022  11:24:00       17.353      -42.614      -53.318       53.661       73.497       41.871     2879.511     5401.855     1753.176        0.750        0.502       46.011       41.297        0.806      330.214       -2.556      866.602
01/01/2022  11:25:00      -25.282        2.087       -8.536       43.708       28.475       32.121     1910.399      810.814     1031.755        0.223        0.188       25.368       10.542        0.173      329.918       -3.040      866.596
01/01/2022  11:26:00      -33.003       -7.460       -9.033       43.587       30.758       31.901     1899.812      946.026     1017.645        0.254        0.193       33.836       13.262        0.154      330.037       -2.847      866.582
01/01/2022  11:27:00       -0.984      -99.065      -43.944       75.529       59.541       50.638     5704.701     3545.072     2564.193        1.178        0.591       99.069       34.852        0.124      330.141       -2.675      866.579
01/01/2022  11:28:00      -37.763      -82.273      -24.050       88.402       65.699       45.066     7814.879     4316.403     2030.947        1.147        0.708       90.526       29.741        0.108      330.111       -2.725      866.573
01/01/2022  11:29:00       27.813     -132.412      -39.122       93.837      136.449       54.271     8805.434    18618.270     2945.369        2.510        1.518      135.301       64.037        0.224      329.896       -3.079      866.560
01/01/2022  11:30:00      -25.765      -59.436      -41.322       54.452       48.639       30.351     2965.031     2365.750      921.154        0.608        0.313       64.780       10.006        0.024      329.972       -2.953      866.536
01/01/2022  11:31:00      -73.980      -80.013      -19.350       68.264       39.120       29.758     4659.922     1530.407      885.520        0.966        0.354      108.973       14.591        0.018      329.986       -2.929      866.517
01/01/2022  11:32:00      -24.454     -125.449      -32.644      114.786       68.651       55.164    13175.889     4713.007     3043.102        1.916        1.047      127.810       48.478        0.144      330.007       -2.895      866.501
01/01/2022  11:33:00     -107.347     -120.797      -25.739       60.585       46.567       38.319     3670.582     2168.501     1468.347        1.704        0.365      161.602       13.485        0.007      329.961       -2.972      866.484
01/01/2022  11:34:00       36.887     -139.193      -53.632       85.086       61.547       48.511     7239.605     3787.990     2353.358        1.849        0.669      143.997       21.331        0.022      329.798       -3.238      866.463
01/01/2022  11:35:00       -1.284     -102.141      -49.263       77.608       64.465       42.634     6022.979     4155.757     1817.690        1.243        0.600      102.149       19.625        0.037      330.002       -2.905      866.436
01/01/2022  11:36:00       19.759     -105.334      -40.693       54.876       66.201       41.466     3011.428     4382.523     1719.399        1.113        0.456      107.171       35.965        0.113      329.964       -2.965      866.418
01/01/2022  11:37:00        2.569      -77.864      -44.173       59.973       53.178       24.615     3596.758     2827.889      605.920        0.752        0.352       77.906       17.957        0.053      330.031       -2.856      866.390
01/01/2022  11:38:00       52.299      -53.897      -32.190       44.342       70.424       31.069     1966.224     4959.517      965.260        0.728        0.395       75.100       34.954        0.217      329.823       -3.198      866.372
01/01/2022  11:39:00      -43.020        3.379      -24.107       21.616       21.529       20.424      467.265      463.502      417.138        0.190        0.067       43.152        7.025        0.027      329.917       -3.043      866.349
01/01/2022  11:40:00      -56.062      -10.396      -11.580       53.204       57.083       45.833     2830.663     3258.414     2100.628        0.579        0.409       57.018       41.787        0.537      329.918       -3.042      866.331
01/01/2022  11:41:00      -31.545      -67.571      -35.039       70.628       52.521       32.149     4988.336     2758.471     1033.573        0.778        0.439       74.572       28.467        0.146      329.844       -3.163      866.325
01/01/2022  11:42:00       -4.799      -32.271      -39.455       36.010       43.600       31.914     1296.739     1900.968     1018.509        0.342        0.211       32.626       25.622        0.617      330.033       -2.854      866.316
01/01/2022  11:43:00      -83.644      -73.437      -17.923       78.885       67.398       34.979     6222.819     4542.543     1223.554        1.235        0.599      111.307       34.300        0.095      329.960       -2.973      866.303
01/01/2022  11:44:00      -78.890      -31.245      -23.613       63.213       41.169       27.840     3995.860     1694.851      775.059        0.711        0.323       84.852       17.439        0.042      329.992       -2.920      866.302
01/01/2022  11:45:00      -50.333      -87.098      -25.051       61.961       48.635       35.723     3839.182     2365.329     1276.161        0.911        0.374      100.595       28.158        0.078      330.245       -2.507      866.301
01/01/2022  11:46:00      -92.429      -90.767      -36.344       49.104       31.684       33.253     2411.214     1003.856     1105.738        1.131        0.226      129.544       29.191        0.051      330.006       -2.896      866.305
01/01/2022  11:47:00       77.161     -169.092      -38.566       93.437       87.614       45.342     8730.477     7676.253     2055.889        2.724        0.923      185.865       41.860        0.051      330.041       -2.843      866.297
01/01/2022  11:48:00      120.968     -148.496      -65.139       68.178      111.587       33.933     4648.279    12451.568     1151.456        2.959        0.913      191.531       29.079        0.023      329.742       -3.332      866.286
01/01/2022  11:49:00        1.393      -40.936      -16.540       65.486       65.368       42.673     4288.433     4272.925     1820.957        0.616        0.519       40.959       37.981        0.860      330.280       -2.447      866.293
01/01/2022  11:50:00      109.303     -135.185      -42.069       60.587       89.347       35.918     3670.784     7982.951     1290.071        2.247        0.647      173.846       39.155        0.051      329.759       -3.302      866.294
01/01/2022  11:51:00       68.428      -23.599      -24.146       77.170       93.227       35.426     5955.247     8691.213     1254.999        1.086        0.795       72.382       34.085        0.222      329.702       -3.393      866.287
01/01/2022  11:52:00        8.138      -26.405      -17.451       79.925       56.527       33.447     6388.084     3195.276     1118.712        0.588        0.535       27.631       23.260        0.709      330.061       -2.805      866.257
01/01/2022  11:53:00       11.600      -52.024      -26.435       71.683       54.045       35.330     5138.483     2920.900     1248.189        0.642        0.465       53.302       11.610        0.047      330.221       -2.546      866.241
01/01/2022  11:54:00      -68.185      -49.996      -33.780       48.848       59.670       28.474     2386.154     3560.522      810.779        0.752        0.338       84.551       19.848        0.055      330.204       -2.572      866.242
01/01/2022  11:55:00      -89.928      -57.110      -26.447       44.837       51.194       29.146     2010.367     2620.813      849.508        0.876        0.274      106.529       21.424        0.040      330.097       -2.748      866.224
01/01/2022  11:56:00      -13.417      -59.805      -27.070       56.601       50.888       38.963     3203.663     2589.554     1518.102        0.590        0.366       61.292       29.403        0.230      330.332       -2.363      866.204
01/01/2022  11:57:00      -41.446      -82.899      -20.627       64.072       48.154       33.441     4105.244     2318.776     1118.271        0.828        0.377       92.682       25.525        0.076      330.208       -2.564      866.184
01/01/2022  11:58:00      -49.612      -21.339      -12.924       42.894       57.551       34.981     1839.908     3312.122     1223.644        0.473        0.319       54.006       28.406        0.277      330.220       -2.546      866.159
01/01/2022  11:59:00      -58.584      -57.883       -6.021       44.196       46.801       31.082     1953.251     2190.350      966.102        0.596        0.255       82.356       15.204        0.034      330.334       -2.359      866.143
01/01/2022  12:00:00       62.274        8.467      -14.669       62.368       60.027       31.568     3889.752     3603.230      996.558        0.633        0.424       62.846       27.156        0.187      330.581       -1.955      866.115
01/01/2022  12:01:00      -12.222       18.098        9.377       58.890       60.046       32.790     3468.054     3605.538     1075.180        0.436        0.407       21.838       17.371        0.633      330.399       -2.252      866.091
01/01/2022  12:02:00      111.675      -15.255      -15.315       62.704       70.268       38.598     3931.760     4937.644     1489.800        1.165        0.518      112.712       24.199        0.046      330.187       -2.600      866.071
01/01/2022  12:03:00        1.635      -16.055       -8.276       29.102       33.751       28.128      846.933     1139.138      791.202        0.155        0.139       16.138       14.425        0.799      330.749       -1.679      866.055
01/01/2022  12:04:00      103.399     -209.941      -56.638       91.196       94.747       48.824     8316.775     8977.017     2383.764        3.882        0.984      234.023       61.487        0.069      330.207       -2.571      866.042
01/01/2022  12:05:00      121.737     -236.303      -65.931       63.695       62.587       44.575     4057.009     3917.147     1986.891        4.248        0.498      265.818       36.721        0.019      329.883       -3.102      866.040
01/01/2022  12:06:00      119.651     -117.090      -40.442       83.308       68.861       50.580     6940.236     4741.864     2558.361        2.195        0.712      167.411       42.211        0.064      329.988       -2.929      866.019
01/01/2022  12:07:00       91.049     -217.223      -56.853       79.893      141.596       41.937     6382.963    20049.450     1758.738        4.344        1.410      235.533       40.884        0.030      330.086       -2.767      866.008
01/01/2022  12:08:00      175.230     -217.750      -68.442       77.428      103.572       48.261     5995.097    10727.168     2329.145        5.092        0.953      279.500       52.588        0.035      329.816       -3.210      865.997
01/01/2022  12:09:00      120.731     -100.622      -35.279       93.467       83.687       53.767     8736.089     7003.456     2890.899        2.228        0.932      157.165       40.601        0.067      330.103       -2.741      865.989
01/01/2022  12:10:00      140.737     -228.133      -55.930       48.585       73.924       38.321     2360.548     5464.822     1468.509        4.214        0.465      268.051       32.729        0.015      329.744       -3.329      865.992
01/01/2022  12:11:00       82.127      -90.320      -32.160       42.376       44.543       26.161     1795.691     1984.109      684.421        1.020        0.223      122.076       13.588        0.012      329.943       -2.999      865.995
01/01/2022  12:12:00       90.565     -110.960      -44.862       64.086       55.555       39.379     4106.960     3086.339     1550.714        1.563        0.437      143.228       21.820        0.023      330.120       -2.711      865.976
01/01/2022  12:13:00       -0.999      -44.958      -21.181       26.939       63.339       32.820      725.712     4011.816     1077.163        0.414        0.291       44.970       32.255        0.514      330.252       -2.495      865.975
01/01/2022  12:14:00       32.258      -56.455      -21.936       44.026       79.708       31.536     1938.295     6353.307      994.490        0.700        0.464       65.021       33.292        0.262      330.384       -2.279      865.958
01/01/2022  12:15:00       92.244     -243.712      -50.439       69.541      119.765       44.926     4835.903    14343.772     2018.370        4.582        1.060      260.585       58.118        0.050      330.042       -2.843      865.943
01/01/2022  12:16:00       89.589     -147.951      -43.587       48.543       71.098       32.850     2356.393     5054.990     1079.124        2.015        0.425      172.962       18.301        0.011      330.024       -2.869      865.935
01/01/2022  12:17:00       97.473     -209.023      -41.792       77.955       97.286       35.989     6076.942     9464.563     1295.176        3.588        0.842      230.633       46.902        0.041      330.265       -2.477      865.918
01/01/2022  12:18:00       61.522     -221.685      -42.591       68.652      123.360       47.537     4713.062    15217.712     2259.767        3.846        1.110      230.064       55.012        0.057      330.193       -2.592      865.912
01/01/2022  12:19:00      135.057     -257.284      -54.073       49.415       58.850       30.448     2441.800     3463.332      927.055        4.709        0.342      290.578       25.382        0.008      329.928       -3.029      865.899
01/01/2022  12:20:00       89.483      -84.107      -22.234       65.933      125.340       45.904     4347.219    15710.211     2107.144        1.887        1.108      122.805       22.198        0.033      330.351       -2.333      865.886
01/01/2022  12:21:00       96.773     -242.700      -47.275       62.266       82.353       36.144     3877.001     6781.998     1306.396        4.123        0.598      261.282       27.622        0.011      330.157       -2.654      865.895
01/01/2022  12:22:00      126.046     -318.379      -60.508       40.659       61.532       22.291     1653.119     3786.194      496.894        6.342        0.297      342.421        7.283        0.000      329.882       -3.103      865.871
01/01/2022  12:23:00      145.377     -283.589      -61.727       51.107       68.883       43.117     2611.910     4744.916     1859.066        5.729        0.461      318.680       32.694        0.011      329.948       -2.995      865.853
01/01/2022  12:24:00      145.633     -322.397      -59.647       53.034       52.490       28.892     2812.631     2755.241      834.735        6.755        0.320      353.764       26.692        0.006      329.847       -3.159      865.834
01/01/2022  12:25:00      146.682     -170.448      -77.344       84.873       85.732       46.494     7203.467     7350.033     2161.708        3.663        0.836      224.874       37.505        0.028      330.107       -2.734      865.810
01/01/2022  12:26:00       64.969     -155.530      -41.985       44.494       27.192       22.474     1979.682      739.400      505.083        1.670        0.161      168.555       19.270        0.013      329.959       -2.976      865.801
01/01/2022  12:27:00       19.719      -44.874      -24.138       31.177       41.529       32.466      972.019     1724.673     1054.062        0.337        0.188       49.016       19.389        0.156      330.322       -2.379      865.773
01/01/2022  12:28:00       32.566       15.912       -4.885       42.475       47.699       25.808     1804.123     2275.236      666.045        0.304        0.237       36.246        9.589        0.070      330.657       -1.830      865.748
01/01/2022  12:29:00       15.540       11.397       -8.721       38.102       46.131       31.394     1451.760     2128.056      985.613        0.251        0.228       19.272       21.779        1.277      330.923       -1.392      865.739
01/01/2022  12:30:00      125.225     -171.979      -53.705       82.148      101.440       47.196     6748.291    10290.166     2227.463        3.370        0.963      212.739       54.648        0.066      330.324       -2.379      865.746
01/01/2022  12:31:00      148.028     -177.945      -68.232       55.348       81.850       40.091     3063.355     6699.463     1607.320        3.480        0.569      231.466       29.429        0.016      330.179       -2.617      865.736
01/01/2022  12:32:00      124.908     -198.560      -46.417       60.729       59.231       34.394     3688.000     3508.340     1182.927        3.278        0.419      234.581       32.165        0.019      330.219       -2.551      865.736
01/01/2022  12:33:00      108.560     -154.013      -39.759       51.949      103.494       32.827     2698.710    10711.004     1077.627        2.578        0.724      188.428       34.925        0.034      330.282       -2.447      865.739
01/01/2022  12:34:00       86.741     -202.180      -46.407       49.930       68.877       32.314     2493.006     4744.069     1044.205        2.942        0.414      220.002       19.156        0.008      330.166       -2.637      865.756
01/01/2022  12:35:00       94.869     -154.748      -24.604       64.772       64.123       42.021     4195.456     4111.724     1765.801        2.181        0.504      181.513       51.357        0.080      330.096       -2.751      865.762
01/01/2022  12:36:00       93.353     -104.836      -35.604       53.299       73.971       34.954     2840.768     5471.709     1221.761        1.525        0.477      140.376       30.227        0.046      330.265       -2.474      865.763
01/01/2022  12:37:00      132.467     -128.845      -44.351       69.137       98.318       42.258     4779.988     9666.412     1785.758        2.617        0.812      184.793       35.533        0.037      330.269       -2.469      865.743
01/01/2022  12:38:00      163.106     -301.956      -70.074       34.674       50.743       26.181     1202.317     2574.857      685.449        6.358        0.223      343.192       21.517        0.004      329.946       -3.001      865.727
01/01/2022  12:39:00      157.499     -179.504      -53.078       46.008       59.425       27.383     2116.690     3531.316      749.809        3.312        0.320      238.805       33.233        0.019      330.005       -2.904      865.715
01/01/2022  12:40:00      124.618     -215.075      -43.441       40.801       67.910       29.653     1664.695     4611.755      879.274        3.541        0.358      248.570       22.332        0.008      330.171       -2.631      865.696
01/01/2022  12:41:00       82.165     -135.999      -33.437       53.480       71.904       37.530     2860.080     5170.211     1408.488        1.790        0.472      158.893       36.711        0.053      330.324       -2.377      865.684
01/01/2022  12:42:00       96.262     -103.210      -35.807       61.072       57.414       37.366     3729.827     3296.411     1396.227        1.481        0.421      141.134       31.471        0.050      330.442       -2.183      865.662
01/01/2022  12:43:00       16.255      -73.486      -32.884       85.737       54.477       42.583     7350.897     2967.741     1813.312        0.944        0.607       75.262       27.392        0.132      330.732       -1.706      865.635
01/01/2022  12:44:00        4.826       -7.596      -12.753       41.686       73.485       38.523     1737.734     5400.110     1484.049        0.443        0.431        8.999       20.312        5.094      330.944       -1.359      865.609
01/01/2022  12:45:00       95.798     -145.078      -44.936       78.912      100.688       38.038     6227.181    10138.072     1446.902        2.502        0.891      173.853       44.397        0.065      330.452       -2.170      865.579
01/01/2022  12:46:00      141.270     -130.087      -48.709       49.299       72.715       35.216     2430.362     5287.448     1240.176        2.410        0.448      192.041       29.823        0.024      330.251       -2.497      865.573
01/01/2022  12:47:00      115.389     -108.626      -39.982       63.200       81.219       36.736     3994.235     6596.471     1349.516        1.932        0.597      158.475       43.262        0.075      330.278       -2.454      865.576
01/01/2022  12:48:00      124.509     -227.364      -47.217       80.329       90.888       46.056     6452.823     8260.563     2121.156        4.313        0.842      259.224       56.731        0.048      330.450       -2.172      865.574
01/01/2022  12:49:00      138.955     -227.872      -59.216       32.308       45.511       15.998     1043.815     2071.240      255.926        3.906        0.169      266.897       19.369        0.005      330.059       -2.813      865.592
01/01/2022  12:50:00       37.987      -45.196      -20.544       64.216       56.050       27.219     4123.746     3141.593      740.860        0.596        0.400       59.040       16.846        0.081      330.510       -2.072      865.594
01/01/2022  12:51:00       73.717      -54.906      -25.639       40.261       72.746       36.638     1620.974     5291.940     1342.321        0.868        0.413       91.917       29.949        0.106      330.478       -2.122      865.576
01/01/2022  12:52:00       53.873      -96.599      -16.357       62.752       69.333       33.130     3937.757     4807.098     1097.579        1.117        0.492      110.606       28.347        0.066      330.686       -1.782      865.550
01/01/2022  12:53:00       44.197       12.630      -12.243       66.634       66.939       41.896     4440.144     4480.828     1755.251        0.647        0.534       45.966       37.218        0.656      330.791       -1.612      865.517
01/01/2022  12:54:00       67.849      -24.070       -9.453       86.433       70.799       55.499     7470.610     5012.557     3080.177        1.041        0.778       71.992       49.578        0.474      330.812       -1.577      865.478
01/01/2022  12:55:00      116.053     -104.609      -42.562       72.379       78.826       45.597     5238.663     6213.464     2079.054        1.987        0.677      156.241       30.674        0.039      330.614       -1.902      865.470
01/01/2022  12:56:00       24.865      -69.936      -43.187      103.882       78.428       50.483    10791.538     6150.886     2548.566        1.343        0.975       74.224       39.766        0.287      330.876       -1.471      865.470
01/01/2022  12:57:00      -17.097      -80.828      -28.759       81.644       72.111       39.294     6665.713     5200.054     1543.985        1.053        0.670       82.616       28.011        0.115      330.938       -1.368      865.483
01/01/2022  12:58:00       74.192     -189.622      -51.068      100.475      105.621       43.445    10095.231    11155.830     1887.492        3.360        1.157      203.619       53.279        0.068      330.739       -1.698      865.480
01/01/2022  12:59:00       97.966     -102.880      -30.378       26.635       59.536       27.732      709.401     3544.578      769.050        1.306        0.251      142.062       26.518        0.035      330.261       -2.479      865.488
01/01/2022  13:00:00       35.680      -25.413       -3.764       23.820       17.703       14.918      567.407      313.412      222.535        0.152        0.055       43.804        8.678        0.039      330.537       -2.026      865.464
01/01/2022  13:01:00       44.071      -56.377      -15.164       42.425       43.042       28.407     1799.899     1852.632      806.939        0.490        0.223       71.558       27.535        0.148      330.717       -1.730      865.446
01/01/2022  13:02:00       99.012      -83.998      -21.510       80.416       61.996       35.514     6466.730     3843.446     1261.216        1.444        0.579      129.843       37.280        0.082      330.667       -1.815      865.433
01/01/2022  13:03:00      -28.384      -90.614      -44.372       84.975       94.489       35.898     7220.782     8928.144     1288.684        1.421        0.872       94.956       41.494        0.191      330.992       -1.280      865.438
01/01/2022  13:04:00       -3.545      -84.785      -28.472      101.064       69.120       42.733    10213.845     4777.591     1826.134        1.241        0.841       84.859       34.934        0.169      330.878       -1.468      865.447
01/01/2022  13:05:00      -56.620      -11.172      -19.103       48.552       48.595       35.609     2357.275     2361.488     1267.971        0.484        0.299       57.712       31.261        0.293      330.763       -1.656      865.458
01/01/2022  13:06:00       31.778       -2.798      -10.070       33.823       42.706       29.811     1144.010     1823.831      888.721        0.249        0.193       31.901       29.139        0.834      331.178       -0.974      865.470
01/01/2022  13:07:00       32.956     -120.315      -15.269       48.375       69.886       36.075     2340.177     4884.017     1301.426        1.216        0.426      124.747       33.656        0.073      331.107       -1.091      865.464
01/01/2022  13:08:00      -56.884      -24.879      -36.996       49.158       33.030       27.288     2416.488     1090.971      744.651        0.474        0.213       62.087       18.896        0.093      331.054       -1.179      865.469
01/01/2022  13:09:00       27.326      -21.557      -26.504       55.097       34.506       19.441     3035.675     1190.647      377.943        0.326        0.230       34.806        6.560        0.036      331.112       -1.083      865.470
01/01/2022  13:10:00       14.684      -32.510       -2.335       32.140       40.775       28.738     1033.003     1662.636      825.882        0.240        0.176       35.672       16.289        0.209      331.285       -0.799      865.471
01/01/2022  13:11:00       81.301     -169.736      -43.669       69.671      104.869       43.309     4854.028    10997.539     1875.687        2.752        0.886      188.202       39.928        0.045      330.792       -1.612      865.463
01/01/2022  13:12:00       55.578     -122.549      -23.887       67.125       83.295       35.222     4505.778     6938.031     1240.606        1.568        0.634      134.563       49.536        0.136      330.645       -1.851      865.474
01/01/2022  13:13:00       66.037     -165.402      -37.563       67.744       86.413       41.606     4589.300     7467.173     1731.051        2.346        0.689      178.098       48.355        0.074      330.756       -1.670      865.474
01/01/2022  13:14:00       69.129     -130.663      -21.269       50.213       45.000       34.499     2521.343     2025.010     1190.153        1.402        0.287      147.823       18.641        0.016      330.626       -1.881      865.484
01/01/2022  13:15:00       33.826      -54.532      -25.557       53.927       64.397       34.005     2908.086     4147.014     1156.328        0.649        0.411       64.171       21.450        0.112      330.869       -1.482      865.482
01/01/2022  13:16:00       90.531       57.577      -11.047       33.844       26.880       25.739     1145.390      722.558      662.491        0.708        0.127      107.289       19.027        0.031      330.643       -1.854      865.485
01/01/2022  13:17:00       70.553       40.898      -12.800       28.026       20.273       17.216      785.469      411.010      296.400        0.415        0.075       81.550       10.695        0.017      330.755       -1.669      865.482
01/01/2022  13:18:00      142.810      -41.919      -14.180       55.531       45.975       29.240     3083.684     2113.744      854.974        1.420        0.303      148.835       21.119        0.020      330.705       -1.752      865.478
01/01/2022  13:19:00       83.401      -68.191      -24.650       43.787       80.325       32.361     1917.344     6452.174     1047.266        1.081        0.471      107.730       27.419        0.065      330.898       -1.434      865.483
01/01/2022  13:20:00       84.622     -130.552      -35.357       32.344       47.865       34.780     1046.152     2291.040     1209.665        1.500        0.227      155.579       17.953        0.013      330.722       -1.723      865.468
01/01/2022  13:21:00       50.644     -140.444      -25.328       39.949       52.380       36.589     1595.944     2743.688     1338.769        1.430        0.284      149.296       30.300        0.041      330.819       -1.564      865.460
01/01/2022  13:22:00       66.301     -172.640      -36.860       54.786       52.755       32.926     3001.553     2783.090     1084.091        2.121        0.343      184.934        9.419        0.003      330.862       -1.495      865.460
01/01/2022  13:23:00       77.864      -88.644      -36.866       39.624       74.484       26.284     1570.066     5547.897      690.842        1.154        0.390      117.986       22.895        0.038      331.102       -1.101      865.459
01/01/2022  13:24:00      117.894     -183.130      -49.270       47.507       72.275       33.875     2256.875     5223.728     1147.499        2.924        0.431      217.797       32.243        0.022      330.815       -1.575      865.462
01/01/2022  13:25:00      136.505     -167.498      -52.326       57.610       80.441       27.290     3318.909     6470.771      744.727        2.998        0.527      216.077       27.740        0.016      330.718       -1.734      865.474
01/01/2022  13:26:00       74.853     -219.867      -36.978       45.162       49.226       27.238     2039.636     2423.232      741.927        3.026        0.260      232.260       24.388        0.011      330.805       -1.590      865.481
01/01/2022  13:27:00       84.446     -153.987      -46.106       57.386       56.991       29.652     3293.119     3247.999      879.259        2.019        0.371      175.622       31.748        0.033      330.757       -1.668      865.492
01/01/2022  13:28:00       48.710     -104.532      -32.793       44.342       46.239       34.808     1966.230     2138.071     1211.575        0.984        0.266      115.324       24.344        0.045      330.976       -1.307      865.495
01/01/2022  13:29:00       66.503     -133.305      -44.873       39.838       79.363       38.913     1587.102     6298.416     1514.236        1.680        0.470      148.973       16.776        0.013      331.112       -1.084      865.494
01/01/2022  13:30:00       98.611      -90.207      -52.318       41.591      100.007       39.652     1729.790    10001.319     1572.320        1.695        0.665      133.646       22.487        0.028      331.095       -1.113      865.493
01/01/2022  13:31:00       22.481       -4.637      -14.328       62.022       44.264       39.063     3846.706     1959.320     1525.901        0.403        0.367       22.954       27.797        1.467      331.244       -0.866      865.490
01/01/2022  13:32:00        9.655      -26.522      -26.365       31.619       31.966       17.011      999.763     1021.810      289.387        0.190        0.116       28.225        6.394        0.051      331.510       -0.429      865.501
01/01/2022  13:33:00       59.719      -78.990      -26.347       56.201       95.579       42.917     3158.584     9135.435     1841.886        1.232        0.707       99.024       34.828        0.124      331.250       -0.858      865.507
01/01/2022  13:34:00      122.992     -170.671      -47.235       48.581       55.082       32.844     2360.070     3034.029     1078.716        2.648        0.324      210.370       16.800        0.006      330.771       -1.645      865.514
01/01/2022  13:35:00      138.854      -73.542      -31.181       53.474       43.799       30.337     2859.493     1918.342      920.317        1.568        0.285      157.127       26.028        0.027      330.779       -1.630      865.515
01/01/2022  13:36:00      126.512     -156.848      -44.713       50.313       96.773       37.705     2531.377     9364.983     1421.675        2.796        0.666      201.511       41.140        0.042      330.921       -1.400      865.503
01/01/2022  13:37:00      138.500     -161.826      -61.882       35.079       87.496       25.543     1230.560     7655.577      652.437        2.937        0.477      213.002       17.154        0.006      330.832       -1.548      865.508
01/01/2022  13:38:00       78.508      -50.335      -27.866       54.100       40.872       18.864     2926.790     1670.517      355.848        0.721        0.248       93.258       19.738        0.045      330.803       -1.589      865.520
01/01/2022  13:39:00       46.080      -29.631      -13.440       44.059       51.156       16.910     1941.162     2616.955      285.934        0.401        0.242       54.785       12.580        0.053      330.934       -1.374      865.520
01/01/2022  13:40:00      125.366     -142.772      -49.236       70.301      107.602       41.914     4942.296    11578.201     1756.789        2.840        0.914      190.001       46.860        0.061      330.888       -1.453      865.503
01/01/2022  13:41:00       87.442     -231.685      -40.926       46.020       57.676       28.382     2117.806     3326.506      805.531        3.462        0.312      247.637       15.475        0.004      330.934       -1.379      865.507
01/01/2022  13:42:00       50.739     -167.326      -35.790       50.711       49.978       38.230     2571.643     2497.791     1461.571        1.919        0.327      174.850       28.935        0.027      331.074       -1.146      865.514
01/01/2022  13:43:00       43.726     -164.234      -43.415       67.294      108.064       38.217     4528.454    11677.807     1460.556        2.422        0.883      169.956       21.606        0.016      331.098       -1.110      865.527
01/01/2022  13:44:00      110.740     -121.113      -42.437       68.417       67.593       34.818     4680.855     4568.770     1212.267        1.960        0.523      164.109       36.410        0.049      330.939       -1.369      865.534
01/01/2022  13:45:00       38.991     -128.158      -27.347       52.326       79.898       45.208     2738.026     6383.628     2043.786        1.493        0.558      133.958       29.687        0.049      331.175       -0.980      865.544
01/01/2022  13:46:00       77.487     -192.334      -41.485       40.973       41.571       31.057     1678.820     1728.122      964.545        2.454        0.219      207.356       12.387        0.004      331.015       -1.244      865.553
01/01/2022  13:47:00      124.190     -123.429      -42.626       66.310       94.082       41.896     4397.012     8851.431     1755.246        2.374        0.750      175.094       29.407        0.028      331.145       -1.031      865.557
01/01/2022  13:48:00       50.457      -59.080      -26.022       51.893       80.478       36.468     2692.920     6476.736     1329.880        0.860        0.525       77.694       20.421        0.069      331.430       -0.561      865.576
01/01/2022  13:49:00       52.795     -208.880      -44.291       47.676       57.961       30.459     2273.028     3359.495      927.753        2.747        0.328      215.448       18.992        0.008      331.077       -1.142      865.587
01/01/2022  13:50:00       92.154     -209.600      -41.390       62.544       60.526       32.402     3911.707     3663.375     1049.900        3.138        0.431      228.964       30.618        0.018      330.902       -1.432      865.589
01/01/2022  13:51:00       88.501     -179.054      -34.249       37.283       50.150       27.678     1390.039     2515.044      766.097        2.287        0.234      199.731       22.337        0.013      331.074       -1.146      865.597
01/01/2022  13:52:00       57.014     -119.851      -39.791       38.753       55.284       31.230     1501.808     3056.285      975.318        1.236        0.277      132.721       20.171        0.023      331.418       -0.580      865.600
01/01/2022  13:53:00       28.121      -47.651      -19.787       64.134       39.539       33.002     4113.157     1563.326     1089.152        0.511        0.338       55.330       24.199        0.191      331.369       -0.659      865.599
01/01/2022  13:54:00       84.226      -19.794       -5.471       89.881       62.522       51.689     8078.678     3909.047     2671.737        1.108        0.733       86.520       40.509        0.219      331.226       -0.894      865.588
01/01/2022  13:55:00      140.144      -35.058      -17.617       86.007       61.960       55.749     7397.264     3839.022     3107.988        1.776        0.717      144.463       47.762        0.109      331.093       -1.116      865.591
01/01/2022  13:56:00      110.842       -4.512      -15.751       99.566       65.839       55.546     9913.463     4334.760     3085.401        1.494        0.867      110.934       45.365        0.167      331.113       -1.082      865.600
01/01/2022  13:57:00       63.686       -5.486      -17.759       67.541       61.126       54.138     4561.820     3736.355     2930.927        0.781        0.561       63.922       35.476        0.308      331.116       -1.077      865.605
01/01/2022  13:58:00       51.591       10.058      -43.664       40.265       57.978       34.145     1621.260     3361.440     1165.898        0.541        0.307       52.562       20.572        0.153      331.231       -0.887      865.618
01/01/2022  13:59:00       79.536       29.583      -24.075       41.625       55.202       27.097     1732.636     3047.311      734.251        0.665        0.276       84.859       18.940        0.050      331.244       -0.865      865.630
01/01/2022  14:00:00       90.111       18.444       -0.328       59.292       50.304       35.529     3515.564     2530.496     1262.343        0.788        0.365       91.980       26.692        0.084      331.283       -0.802      865.636
01/01/2022  14:01:00       98.805       11.888      -16.700       70.759       59.819       29.030     5006.891     3578.335      842.740        0.980        0.471       99.517       15.293        0.024      331.226       -0.895      865.636
01/01/2022  14:02:00       80.022       -9.566      -16.723       65.747       53.820       33.450     4322.655     2896.564     1118.914        0.755        0.417       80.592       18.113        0.051      331.334       -0.719      865.634
01/01/2022  14:03:00       42.029      -15.858      -25.738       50.583       59.061       43.747     2558.595     3488.225     1913.804        0.532        0.398       44.921       30.501        0.461      331.327       -0.729      865.621
01/01/2022  14:04:00       79.659       -5.664       -8.896       72.079       54.969       35.677     5195.359     3021.622     1272.840        0.797        0.474       79.860       33.855        0.180      331.348       -0.695      865.620
01/01/2022  14:05:00       95.139       45.783      -13.109       44.351       31.484       23.556     1966.972      991.270      554.865        0.742        0.176      105.582       20.924        0.039      330.979       -1.301      865.604
01/01/2022  14:06:00       97.731        6.375      -27.488       67.447       64.738       34.419     4549.136     4190.949     1184.691        1.013        0.496       97.938       32.825        0.112      331.195       -0.946      865.598
01/01/2022  14:07:00       88.921      -21.138      -21.232       61.387       56.028       41.244     3768.306     3139.102     1701.047        0.870        0.430       91.398       26.023        0.081      331.151       -1.019      865.605
01/01/2022  14:08:00      104.422      -74.313      -39.372       54.115       80.056       40.213     2928.424     6409.001     1617.047        1.446        0.548      128.166       33.395        0.068      331.178       -0.976      865.612
01/01/2022  14:09:00       93.034      -25.888      -22.416       51.181       66.072       45.108     2619.537     4365.507     2034.769        0.942        0.451       96.568       36.118        0.140      331.100       -1.104      865.619
01/01/2022  14:10:00       34.245       49.341      -12.426       24.116       22.200       18.288      581.564      492.820      334.434        0.258        0.070       60.060        9.899        0.027      330.969       -1.319      865.636
01/01/2022  14:11:00       32.823       39.214      -20.793       27.259       28.602       11.122      743.037      818.052      123.694        0.237        0.084       51.138        8.636        0.029      330.961       -1.331      865.637
01/01/2022  14:12:00       50.441       22.954      -16.481       30.279       24.533       14.734      916.810      601.890      217.089        0.254        0.087       55.418       11.296        0.042      330.971       -1.314      865.653
01/01/2022  14:13:00      114.852       58.777      -16.346       55.363       47.070       34.102     3065.011     2215.576     1162.930        1.168        0.322      129.018       24.509        0.036      331.147       -1.027      865.667
01/01/2022  14:14:00      144.916       61.196      -25.518       70.797       45.817       29.690     5012.246     2099.226      881.505        1.669        0.400      157.307       20.961        0.018      331.125       -1.061      865.682
01/01/2022  14:15:00      165.291       79.748      -21.089       56.633       49.260       30.099     3207.347     2426.510      905.921        2.033        0.327      183.523       23.312        0.016      331.094       -1.113      865.691
01/01/2022  14:16:00      101.344       36.020      -31.957       61.000       51.802       32.891     3720.954     2683.446     1081.791        1.004        0.374      107.555       23.876        0.049      331.268       -0.826      865.687
01/01/2022  14:17:00      109.969       64.341      -29.306       31.279       34.355       22.034      978.395     1180.285      485.500        0.987        0.132      127.408        7.997        0.004      331.168       -0.991      865.684
01/01/2022  14:18:00       29.958       36.536      -12.540       41.448       23.358       15.767     1717.920      545.590      248.614        0.245        0.126       47.248       12.045        0.065      331.078       -1.139      865.675
01/01/2022  14:19:00       44.999        4.417      -26.866       36.392       41.027       20.034     1324.384     1683.212      401.370        0.309        0.170       45.215       16.034        0.126      331.197       -0.943      865.665
01/01/2022  14:20:00       48.942       34.406      -13.840       36.449       33.469       20.866     1328.549     1120.144      435.410        0.333        0.144       59.825       14.980        0.063      331.283       -0.801      865.667
01/01/2022  14:21:00       88.472       25.868      -17.388       39.779       19.997       18.706     1582.390      399.878      349.919        0.557        0.117       92.176       17.700        0.037      331.173       -0.982      865.666
01/01/2022  14:22:00       45.299      -15.294      -22.564       17.552       41.198       13.706      308.084     1697.262      187.864        0.249        0.110       47.811        7.668        0.026      331.100       -1.103      865.655
01/01/2022  14:23:00      -15.022        9.872       -7.669       50.789       36.521       29.288     2579.492     1333.818      857.797        0.258        0.239       17.975        3.027        0.028      331.255       -0.849      865.644
01/01/2022  14:24:00      138.626       81.802      -11.827       53.857       31.491       26.947     2900.559      991.700      726.148        1.533        0.231      160.962       21.644        0.018      331.050       -1.185      865.647
01/01/2022  14:25:00      190.179      105.310      -23.923       48.312       35.658       26.693     2334.034     1271.469      712.509        2.607        0.216      217.390       16.145        0.006      331.069       -1.157      865.661
01/01/2022  14:26:00      168.217       51.610      -14.128       87.065       46.827       36.972     7580.295     2192.750     1366.925        2.115        0.557      175.956       29.206        0.028      331.251       -0.856      865.660
01/01/2022  14:27:00      185.018       23.159      -19.367       82.190      108.362       49.245     6755.202    11742.312     2425.081        2.803        1.046      186.461       26.855        0.021      331.398       -0.615      865.660
01/01/2022  14:28:00      104.618      -43.337      -26.105       82.346       66.180       42.061     6780.806     4379.759     1769.117        1.321        0.646      113.239       31.909        0.079      331.486       -0.469      865.688
01/01/2022  14:29:00       75.072      -31.674      -30.475       57.289       64.040       24.711     3281.999     4101.068      610.657        0.778        0.400       81.480       23.448        0.083      331.500       -0.444      865.723
01/01/2022  14:30:00       43.583      -10.698        4.214       52.075       35.921       36.369     2711.843     1290.325     1322.736        0.368        0.266       44.877       30.707        0.468      331.775        0.008      865.733
01/01/2022  14:31:00      -25.916      -19.019      -15.978       27.400       34.029       20.495      750.772     1157.949      420.063        0.181        0.116       32.146       10.283        0.102      331.875        0.173      865.750
01/01/2022  14:32:00       65.137      -25.026      -12.682       62.623       50.776       35.598     3921.640     2578.174     1267.211        0.640        0.388       69.779       30.115        0.186      331.428       -0.562      865.764
01/01/2022  14:33:00      107.968      -18.511      -18.331       60.587       42.748       31.473     3670.829     1827.360      990.569        0.941        0.324      109.544       33.121        0.091      331.221       -0.904      865.782
01/01/2022  14:34:00      138.292       79.621      -17.392       23.965       48.206       24.078      574.332     2323.831      579.758        1.462        0.174      159.575        9.835        0.004      331.124       -1.064      865.797
01/01/2022  14:35:00       46.835       39.450      -16.809       31.913       25.344       24.535     1018.424      642.304      601.958        0.315        0.113       61.236       16.719        0.075      331.195       -0.947      865.806
01/01/2022  14:36:00      153.029      -81.510      -24.208       77.857       69.080       34.352     6061.704     4771.989     1180.027        2.133        0.601      173.383       32.520        0.035      331.225       -0.899      865.805
01/01/2022  14:37:00      135.331      -53.941      -13.264       71.184       67.016       48.968     5067.107     4491.211     2397.817        1.668        0.598      145.685       43.046        0.087      331.346       -0.699      865.814
01/01/2022  14:38:00       51.678      -32.802      -18.260       57.982       62.384       49.149     3361.965     3891.732     2415.656        0.687        0.483       61.209       36.542        0.356      331.647       -0.203      865.836
01/01/2022  14:39:00       88.079      -44.427      -22.310       45.034       50.429       35.578     2028.083     2543.098     1265.763        0.803        0.292       98.650       30.996        0.099      331.346       -0.698      865.856
01/01/2022  14:40:00       50.120      -24.326       -5.910       44.262       36.507       25.982     1959.104     1332.732      675.047        0.355        0.198       55.711       19.382        0.121      331.335       -0.715      865.872
01/01/2022  14:41:00       38.167       34.141      -21.794       49.883       54.533       31.967     2488.289     2973.822     1021.885        0.479        0.324       51.209       28.910        0.319      331.572       -0.327      865.896
01/01/2022  14:42:00        9.290       30.899      -10.640       30.944       37.280       32.293      957.554     1389.763     1042.836        0.227        0.170       32.265       16.701        0.268      331.602       -0.277      865.903
01/01/2022  14:43:00       96.047       54.130      -22.344       25.594       23.827       18.582      655.060      567.741      345.274        0.711        0.078      110.250        6.385        0.003      331.259       -0.841      865.905
01/01/2022  14:44:00      140.549       56.518      -18.740       47.095       39.762       25.658     2217.902     1581.026      658.337        1.388        0.223      151.487       10.323        0.005      331.174       -0.980      865.901
01/01/2022  14:45:00      120.866       75.497      -14.632       46.666       32.999       27.839     2177.690     1088.956      775.017        1.228        0.202      142.508       16.446        0.013      331.286       -0.796      865.889
01/01/2022  14:46:00      129.303       44.259      -11.279       33.378       31.317       19.420     1114.075      980.739      377.122        1.064        0.124      136.668       12.685        0.009      331.286       -0.796      865.885
01/01/2022  14:47:00       99.923       66.441      -22.682       45.701       31.391       25.257     2088.555      985.408      637.924        0.931        0.186      119.995       15.202        0.016      331.307       -0.761      865.882
01/01/2022  14:48:00       77.283      -26.901      -12.837       46.771       53.321       24.763     2187.542     2843.083      613.211        0.625        0.282       81.831       19.472        0.057      331.454       -0.521      865.884
01/01/2022  14:49:00       80.727      -16.159       -7.014       33.856       23.531       20.217     1146.230      553.697      408.714        0.447        0.105       82.328       18.227        0.049      331.406       -0.599      865.896
01/01/2022  14:50:00       69.545       19.479       -6.079       56.632       43.315       30.269     3207.239     1876.165      916.232        0.563        0.300       72.222       28.763        0.159      331.393       -0.621      865.905
01/01/2022  14:51:00       46.635       15.899      -12.331       54.462       67.272       38.448     2966.091     4525.515     1478.246        0.577        0.448       49.271       31.508        0.409      331.658       -0.186      865.913
01/01/2022  14:52:00       93.718      -46.412      -21.478       53.987       69.922       41.375     2914.585     4889.150     1711.884        1.046        0.476      104.581       34.940        0.112      331.581       -0.312      865.934
01/01/2022  14:53:00      115.403      -41.399      -36.831       54.002       59.264       40.784     2916.230     3512.238     1663.335        1.224        0.405      122.604       31.390        0.066      331.545       -0.372      865.956
01/01/2022  14:54:00      119.092       23.431      -27.697       49.054       57.721       30.587     2406.300     3331.714      935.562        1.109        0.334      121.375       21.444        0.031      331.510       -0.430      865.976
01/01/2022  14:55:00       58.433      -86.695      -22.182       67.274       58.905       34.283     4525.800     3469.834     1175.295        1.029        0.459      104.548       16.145        0.024      331.664       -0.175      865.984
01/01/2022  14:56:00       32.735      -98.455      -38.746       52.627       52.192       27.686     2769.629     2724.050      766.508        0.926        0.313      103.754       13.223        0.016      331.730       -0.065      865.990
01/01/2022  14:57:00       18.590      -93.344      -44.813       63.388       50.426       36.779     4017.991     2542.776     1352.683        0.949        0.396       95.177       24.365        0.066      331.693       -0.129      865.987
01/01/2022  14:58:00        5.879      -32.910      -26.259       49.706       55.621       22.582     2470.715     3093.682      509.952        0.394        0.304       33.431        9.559        0.082      331.701       -0.114      865.993
01/01/2022  14:59:00       54.366      -50.644      -10.232       49.676       85.397       35.305     2467.734     7292.731     1246.453        0.831        0.550       74.300       39.122        0.277      331.641       -0.214      865.989
01/01/2022  15:00:00       26.633     -145.360      -28.886       35.674       46.250       32.972     1272.615     2139.083     1087.173        1.359        0.225      147.780       23.824        0.026      331.604       -0.274      865.995
01/01/2022  15:01:00       49.648     -128.182      -27.578       41.917       33.858       29.104     1757.004     1146.396      847.067        1.170        0.188      137.461       27.680        0.041      331.645       -0.206      866.003
01/01/2022  15:02:00       -3.474        1.218      -13.655       42.291       31.928       27.931     1788.540     1019.426      780.157        0.189        0.179        3.681       15.818       18.461      331.929        0.261      866.026
01/01/2022  15:03:00        4.299      -58.318      -21.209       41.640       34.002       19.205     1733.882     1156.132      368.821        0.356        0.163       58.476       14.201        0.059      332.034        0.432      866.039
01/01/2022  15:04:00       48.105      -52.675      -28.752       31.877       44.730       24.598     1016.127     2000.772      605.048        0.477        0.181       71.335       24.833        0.121      331.556       -0.354      866.052
01/01/2022  15:05:00       28.293      -19.919      -15.472       34.234       26.415       19.997     1171.995      697.738      399.865        0.185        0.113       34.602       18.624        0.290      331.800        0.051      866.058
01/01/2022  15:06:00       59.142      -45.556      -17.602       46.388       55.403       34.015     2151.868     3069.534     1156.994        0.613        0.319       74.654       28.879        0.150      331.822        0.087      866.056
01/01/2022  15:07:00       50.967      -40.066      -15.033       41.167       48.656       39.272     1694.692     2367.384     1542.270        0.502        0.280       64.830       27.276        0.177      331.809        0.063      866.052
01/01/2022  15:08:00       67.309      -20.941      -14.284       39.896       36.830       33.214     1591.715     1356.423     1103.155        0.461        0.203       70.491       28.178        0.160      331.802        0.053      866.052
01/01/2022  15:09:00       36.738      -58.675      -18.548       25.539       28.560       22.004      652.239      815.675      484.179        0.354        0.098       69.228       14.615        0.045      331.746       -0.040      866.054
01/01/2022  15:10:00       59.776     -122.871      -31.484       38.323       56.573       31.044     1468.646     3200.517      963.705        1.265        0.282      136.640       15.199        0.012      331.708       -0.101      866.045
01/01/2022  15:11:00        4.194      -84.820      -20.577       57.499       46.493       28.855     3306.091     2161.566      832.619        0.697        0.315       84.924       22.119        0.068      331.899        0.212      866.049
01/01/2022  15:12:00      -15.125      -79.521      -36.534       33.972       43.918       24.281     1154.076     1928.831      589.584        0.578        0.184       80.946       14.246        0.031      331.671       -0.164      866.054
01/01/2022  15:13:00        8.219      -36.573      -14.875       36.244       71.838       28.614     1313.634     5160.680      818.744        0.446        0.365       37.485       23.540        0.394      332.064        0.482      866.068
01/01/2022  15:14:00      113.968     -136.743      -44.725       37.504       62.834       34.266     1406.567     3948.104     1174.129        2.011        0.326      178.009       28.133        0.025      331.455       -0.519      866.078
01/01/2022  15:15:00      118.909     -131.332      -43.312       25.134       42.571       19.118      631.719     1812.279      365.485        1.804        0.140      177.165       15.186        0.007      331.432       -0.557      866.091
01/01/2022  15:16:00       68.426      -99.116      -24.988       22.573       34.972       19.088      509.547     1223.058      364.360        0.861        0.105      120.441       15.805        0.017      331.447       -0.532      866.108
01/01/2022  15:17:00       22.871      -16.424      -18.315       16.500       37.527       15.618      272.260     1408.297      243.929        0.153        0.096       28.157       10.228        0.132      331.509       -0.431      866.105
01/01/2022  15:18:00       21.035      -53.359      -22.292       32.677       41.060       18.094     1067.780     1685.928      327.409        0.343        0.154       57.356       21.008        0.134      331.687       -0.136      866.095
01/01/2022  15:19:00       32.923      -11.426      -22.095       32.901       53.101       23.854     1082.506     2819.712      569.011        0.309        0.224       34.849       18.621        0.286      331.703       -0.109      866.097
01/01/2022  15:20:00      -43.209        6.409      -16.784       36.489       45.553       24.424     1331.459     2075.090      596.525        0.310        0.200       43.682       18.039        0.171      331.819        0.080      866.095
01/01/2022  15:21:00       -5.904       -0.897       -7.959       45.900       28.268       18.203     2106.796      799.108      331.344        0.167        0.162        5.972       18.568        9.668      331.607       -0.269      866.098
01/01/2022  15:22:00       12.893       -1.561       -4.356       16.219       37.191       16.156      263.058     1383.192      261.007        0.105        0.095       12.987       17.801        1.879      331.845        0.124      866.105
01/01/2022  15:23:00       23.725       -9.974      -14.578       28.635       33.850       24.194      819.964     1145.845      585.341        0.171        0.128       25.736       23.142        0.809      331.775        0.008      866.101
01/01/2022  15:24:00       64.806      -84.469      -28.960       44.962       64.547       38.291     2021.548     4166.298     1466.182        0.991        0.383      106.465       28.004        0.069      331.611       -0.261      866.100
01/01/2022  15:25:00       52.165     -158.943      -24.444       63.488       69.471       47.639     4030.729     4826.181     2269.497        1.985        0.556      167.284       28.001        0.028      331.837        0.109      866.097
01/01/2022  15:26:00       87.745     -141.041      -39.880       40.994       62.833       33.299     1680.485     3947.954     1108.833        1.796        0.337      166.107       25.909        0.024      331.532       -0.391      866.106
01/01/2022  15:27:00       68.085     -138.757      -27.185       46.375       33.889       26.076     2150.672     1148.491      679.967        1.430        0.199      154.560       20.777        0.018      331.626       -0.238      866.110
01/01/2022  15:28:00       60.585     -102.193      -25.341       31.768       41.292       29.655     1009.225     1705.032      879.435        0.917        0.180      118.802       21.354        0.032      331.557       -0.351      866.120
01/01/2022  15:29:00       41.099      -76.858      -19.135       30.928       54.423       24.653      956.517     2961.903      607.788        0.624        0.226       87.157       27.049        0.096      331.756       -0.022      866.122
01/01/2022  15:30:00        6.927      -48.503      -22.133       31.457       32.883       20.265      989.551     1081.286      410.661        0.269        0.124       48.995        8.641        0.031      331.858        0.144      866.122
01/01/2022  15:31:00        0.128       -3.925        8.797       29.464       20.874       19.632      868.106      435.709      385.401        0.089        0.084        3.927       10.020        6.511      332.073        0.498      866.126
01/01/2022  15:32:00       18.457      -50.899      -25.584       50.745       36.922       25.884     2575.085     1363.263      669.974        0.410        0.230       54.142       19.435        0.129      332.026        0.421      866.131
01/01/2022  15:33:00       27.184      -67.492      -16.233       31.964       44.632       27.364     1021.667     1992.040      748.764        0.466        0.188       72.761       21.640        0.088      331.905        0.222      866.124
01/01/2022  15:34:00       68.655       -3.499      -11.820       66.090       44.532       37.978     4367.930     1983.064     1442.329        0.633        0.390       68.744       35.518        0.267      331.820        0.082      866.123
01/01/2022  15:35:00       17.720      -32.396       -6.662       72.294       43.633       33.014     5226.476     1903.827     1089.942        0.481        0.411       36.925       32.102        0.756      331.942        0.282      866.115
01/01/2022  15:36:00       77.424     -150.570      -28.570       36.459       59.098       32.516     1329.293     3492.537     1057.279        1.768        0.294      169.309       22.469        0.018      331.785        0.024      866.125
01/01/2022  15:37:00       82.413     -134.358      -30.901       46.162       50.110       34.434     2130.947     2511.033     1185.724        1.581        0.291      157.620       34.084        0.047      331.760       -0.017      866.135
01/01/2022  15:38:00       55.967      -32.749      -20.922       44.321       50.889       29.296     1964.338     2589.733      858.270        0.503        0.271       64.844       12.518        0.037      331.674       -0.159      866.164
01/01/2022  15:39:00       76.359      -71.474      -15.625       36.627       41.004       31.136     1341.562     1681.316      969.434        0.759        0.200      104.591       20.290        0.038      331.689       -0.133      866.177
01/01/2022  15:40:00       50.718      -77.491      -17.237       38.768       49.747       30.689     1502.962     2474.794      941.819        0.690        0.246       92.613       25.153        0.074      331.715       -0.090      866.190
01/01/2022  15:41:00       26.892      -26.165      -14.556       20.887       35.767       20.802      436.261     1279.285      432.705        0.188        0.107       37.520       13.566        0.131      331.846        0.124      866.195
01/01/2022  15:42:00       60.068      -59.726      -14.064       32.263       34.717       21.280     1040.876     1205.259      452.841        0.504        0.135       84.707       21.978        0.067      331.776        0.010      866.203
01/01/2022  15:43:00       71.930      -80.247      -27.818       37.882       34.736       18.801     1435.026     1206.604      353.473        0.769        0.150      107.766       16.158        0.022      331.757       -0.022      866.203
01/01/2022  15:44:00       57.883       -1.500      -26.159       39.627       34.616       16.338     1570.285     1198.277      266.946        0.354        0.152       57.902       15.072        0.068      331.604       -0.273      866.213
01/01/2022  15:45:00       16.072       46.312      -13.449        8.848       16.255       13.985       78.283      264.209      195.584        0.156        0.027       49.021        5.495        0.013      331.724       -0.076      866.218
01/01/2022  15:46:00       -3.062      -26.005      -16.556       15.306       32.647       14.138      234.262     1065.830      199.871        0.123        0.075       26.185        6.030        0.053      331.959        0.311      866.230
01/01/2022  15:47:00        8.219        2.265      -19.344       12.973       41.123       13.538      168.309     1691.068      183.291        0.124        0.102        8.525        7.319        0.737      331.860        0.149      866.238
01/01/2022  15:48:00      -54.346       23.818      -10.543       42.053       33.291       19.021     1768.485     1108.319      361.786        0.343        0.162       59.336       16.928        0.081      332.142        0.612      866.243
01/01/2022  15:49:00      -10.986       -3.321      -11.879       26.454       48.551       21.539      699.804     2357.242      463.913        0.190        0.176       11.476       17.508        2.327      332.065        0.486      866.259
01/01/2022  15:50:00      -16.361       32.465       -6.895       24.098       21.238       12.970      580.720      451.034      168.226        0.128        0.060       36.354       10.250        0.079      331.923        0.252      866.268
01/01/2022  15:51:00       -1.288       -4.504       -0.392       22.563       24.922       18.346      509.080      621.081      336.589        0.074        0.073        4.685       10.832        5.346      332.131        0.593      866.278
01/01/2022  15:52:00      -30.527       21.980      -10.866       25.045       18.986       12.988      627.263      360.476      168.678        0.134        0.058       37.617       11.395        0.092      331.918        0.243      866.270
01/01/2022  15:53:00       -7.075       16.179      -10.500        8.068       12.139       11.593       65.092      147.362      134.396        0.038        0.017       17.658        7.501        0.180      331.900        0.214      866.268
01/01/2022  15:54:00        9.858       12.146      -22.239       22.077       16.983       13.651      487.411      288.433      186.338        0.085        0.048       15.643        9.990        0.408      331.931        0.266      866.266
01/01/2022  15:55:00      -30.085      -20.617       -9.121       26.508       25.060       19.584      702.663      627.986      383.518        0.156        0.086       36.471        4.192        0.013      332.099        0.539      866.262
01/01/2022  15:56:00       -6.201       -5.915      -18.933       23.018       22.234       16.763      529.829      494.334      281.007        0.087        0.065        8.569        7.310        0.728      332.052        0.465      866.273
01/01/2022  15:57:00       24.900       32.464       -4.316       29.100       17.085       14.908      846.805      291.902      222.261        0.153        0.068       40.914        4.890        0.014      331.797        0.045      866.285
01/01/2022  15:58:00        6.105       50.182      -12.119       19.840       17.474       14.720      393.640      305.356      216.687        0.181        0.046       50.552       11.378        0.051      331.811        0.067      866.281
01/01/2022  15:59:00      -11.179       -1.661       -0.813       27.384       28.809       14.768      749.908      829.983      218.100        0.096        0.090       11.302       10.472        0.859      332.233        0.762      866.278
01/01/2022  16:00:00        0.733      -22.371      -13.049       16.783       22.121       15.184      281.680      489.337      230.546        0.084        0.050       22.383        6.882        0.095      332.168        0.655      866.284
01/01/2022  16:01:00      -13.166       -4.044        1.347       24.862       21.493       21.495      618.120      461.946      462.044        0.087        0.077       13.773       14.960        1.180      332.196        0.701      866.276
01/01/2022  16:02:00      -97.077       13.026      -11.005       27.733       32.676       24.192      769.103     1067.693      585.247        0.607        0.121       97.947       18.003        0.034      331.968        0.326      866.281
01/01/2022  16:03:00      -35.759       -6.241       -5.235       33.043       29.360       19.889     1091.851      861.997      395.576        0.185        0.117       36.300       11.288        0.097      331.886        0.191      866.278
01/01/2022  16:04:00      -15.422       13.624        7.194       41.849       31.849       23.976     1751.376     1014.350      574.831        0.191        0.167       20.578       24.031        1.364      332.036        0.438      866.286
01/01/2022  16:05:00      -58.413       31.668      -12.590       37.467       42.340       19.273     1403.742     1792.686      371.438        0.407        0.178       66.445       17.821        0.072      331.923        0.254      866.304
01/01/2022  16:06:00      -52.379       19.727      -21.468       22.427       34.909       14.211      502.952     1218.653      201.967        0.276        0.096       55.970        5.243        0.009      331.840        0.115      866.313
01/01/2022  16:07:00      -15.294       31.513       -8.471       26.400       29.336       21.837      696.940      860.602      476.851        0.167        0.102       35.028       15.066        0.185      331.823        0.086      866.318
01/01/2022  16:08:00        5.018        5.730       -2.571        9.081        9.772       10.288       82.457       95.485      105.848        0.017        0.014        7.617        8.593        1.273      331.804        0.056      866.310
01/01/2022  16:09:00      -33.932       13.854       -4.589       31.723       26.568       14.041     1006.378      705.856      197.137        0.164        0.095       36.651        9.641        0.069      331.932        0.266      866.315
01/01/2022  16:10:00        5.662        1.470       -2.457       31.366       28.195       20.705      983.809      794.962      428.702        0.112        0.110        5.850        8.248        1.988      331.951        0.297      866.310
01/01/2022  16:11:00      -36.951       10.293       -8.698       25.725       16.460       15.342      661.762      270.925      235.365        0.136        0.058       38.358        7.540        0.039      332.049        0.459      866.304
01/01/2022  16:12:00      -45.188       28.361       -6.318       34.160       25.986       16.531     1166.875      675.286      273.268        0.250        0.106       53.351       14.940        0.078      331.984        0.352      866.309
01/01/2022  16:13:00       -7.827       65.494      -16.092       28.606       22.712       17.367      818.298      515.857      301.608        0.312        0.082       65.960       15.680        0.057      331.967        0.325      866.313
01/01/2022  16:14:00        7.500       44.812        9.432       25.138       20.934       18.216      631.911      438.227      331.812        0.178        0.070       45.435       14.292        0.099      331.824        0.087      866.332
01/01/2022  16:15:00       14.524       31.022       -7.681       14.972       17.319       11.158      224.164      299.934      124.497        0.094        0.032       34.254        9.170        0.072      331.797        0.044      866.348
01/01/2022  16:16:00       31.336       15.389       -6.235       12.236       17.801        9.614      149.709      316.860       92.428        0.091        0.028       34.910        2.999        0.007      331.730       -0.064      866.360
01/01/2022  16:17:00       30.422        8.622       -9.382       13.110       19.569       11.641      171.870      382.928      135.515        0.089        0.035       31.620        5.465        0.030      331.701       -0.112      866.366
01/01/2022  16:18:00       44.340       -4.837      -10.124       18.976       27.686       13.636      360.070      766.499      185.942        0.170        0.066       44.603       11.679        0.069      331.700       -0.116      866.367
01/01/2022  16:19:00       29.818       -1.757       -5.441       29.188       18.399       13.563      851.941      338.512      183.951        0.115        0.069       29.870       13.772        0.213      331.774        0.005      866.371
01/01/2022  16:20:00       47.228       -0.199       -7.122       21.257       21.737       10.378      451.853      472.490      107.707        0.166        0.052       47.228        5.621        0.014      331.711       -0.097      866.376
01/01/2022  16:21:00       50.919      -17.977      -14.690       27.210       17.430       10.936      740.387      303.814      119.586        0.215        0.058       53.999        8.613        0.025      331.680       -0.149      866.393
01/01/2022  16:22:00       18.288      -24.020      -16.036       22.628       25.333       22.941      512.024      641.784      526.275        0.142        0.084       30.190       14.587        0.233      331.689       -0.133      866.404
01/01/2022  16:23:00        9.106      -37.421       -8.447       20.180       29.102       25.590      407.232      846.907      654.841        0.173        0.095       38.513       14.958        0.151      331.805        0.059      866.404
01/01/2022  16:24:00        7.811      -17.042      -11.631       28.615       25.883       24.466      818.822      669.921      598.576        0.129        0.104       18.747       14.231        0.576      331.816        0.075      866.409
01/01/2022  16:25:00       29.383       -1.939      -12.075       20.757       19.084       15.806      430.849      364.217      249.832        0.103        0.052       29.447       10.854        0.136      331.621       -0.244      866.406
01/01/2022  16:26:00       34.066      -11.551       -4.986       28.917       14.574       18.134      836.214      212.408      328.831        0.135        0.069       35.971       14.712        0.167      331.607       -0.268      866.409
01/01/2022  16:27:00       25.330      -14.581      -12.265       17.368       23.449       14.570      301.657      549.835      212.288        0.103        0.053       29.226       11.782        0.163      331.604       -0.273      866.415
01/01/2022  16:28:00       67.392      -11.432       -7.738       24.481       16.445       19.121      599.333      270.437      365.601        0.298        0.062       68.354        9.346        0.019      331.585       -0.304      866.429
01/01/2022  16:29:00       34.698        7.779      -12.517       30.797       29.760       14.036      948.454      885.687      197.021        0.173        0.102       35.560       14.253        0.161      331.586       -0.303      866.443
01/01/2022  16:30:00        7.787      -24.640        0.661       11.865       17.254       13.306      140.775      297.714      177.043        0.064        0.031       25.842        5.212        0.041      331.720       -0.081      866.465
01/01/2022  16:31:00      -27.733       -8.810      -11.862       18.725       33.542       13.291      350.613     1125.061      176.654        0.132        0.083       29.099       15.103        0.269      331.824        0.089      866.475
01/01/2022  16:32:00       -9.831       15.103        7.230       25.264       37.265       15.480      638.250     1388.683      239.625        0.132        0.113       18.021       14.098        0.612      331.715       -0.090      866.482
01/01/2022  16:33:00       -1.141      -13.103       -0.342       14.185       11.993        9.727      201.218      143.828       94.619        0.031        0.022       13.153        3.987        0.092      331.921        0.249      866.498
01/01/2022  16:34:00       -1.949       -7.075       -1.817       29.213       35.869       21.211      853.404     1286.602      449.923        0.132        0.129        7.339        9.079        1.530      331.798        0.046      866.508
01/01/2022  16:35:00      -76.781      -33.021      -16.194       49.383       48.406       32.366     2438.637     2343.187     1047.533        0.654        0.291       83.581       14.330        0.029      331.658       -0.184      866.527
01/01/2022  16:36:00     -157.538     -153.454      -27.607       45.911       42.071       24.457     2107.853     1769.954      598.163        2.680        0.224      219.924        6.974        0.001      331.439       -0.549      866.536
01/01/2022  16:37:00     -137.048     -138.852      -20.013       46.070       58.543       31.751     2122.465     3427.247     1008.117        2.251        0.328      195.095       28.962        0.022      331.424       -0.571      866.550
01/01/2022  16:38:00      -96.049      -55.463      -16.364       64.186       46.732       22.642     4119.785     2183.871      512.668        0.969        0.341      110.912        9.922        0.008      331.506       -0.436      866.558
01/01/2022  16:39:00      -92.242       -6.474       -4.565       62.249       52.822       36.927     3874.949     2790.116     1363.577        0.830        0.401       92.469       32.013        0.120      331.432       -0.557      866.575
01/01/2022  16:40:00     -196.586      -30.513      -15.017      111.045       56.689       50.862    12330.930     3213.625     2586.985        2.896        0.907      198.940       54.119        0.074      331.304       -0.770      866.582
01/01/2022  16:41:00     -127.871      -15.661      -12.694       54.698       44.385       32.081     2991.852     1970.051     1029.179        1.137        0.300      128.826       25.025        0.038      331.330       -0.725      866.596
01/01/2022  16:42:00      -66.260        6.533       -2.445       48.353       45.277       23.177     2338.049     2050.043      537.181        0.468        0.246       66.581       18.373        0.076      331.321       -0.739      866.615
01/01/2022  16:43:00     -123.757       36.741      -10.465       61.316       41.772       35.608     3759.655     1744.924     1267.898        1.177        0.339      129.096       25.334        0.039      331.313       -0.753      866.624
01/01/2022  16:44:00     -137.188      -23.306      -22.970       53.891       52.195       36.148     2904.274     2724.370     1306.651        1.341        0.347      139.154       27.878        0.040      331.299       -0.775      866.632
01/01/2022  16:45:00      -96.749        0.824        7.459       65.966       47.189       30.429     4351.519     2226.803      925.914        0.846        0.375       96.752       25.346        0.069      331.285       -0.797      866.643
01/01/2022  16:46:00     -125.713      -13.224       -5.161       85.225       56.054       37.534     7263.244     3142.014     1408.778        1.391        0.591      126.407       38.473        0.093      331.231       -0.888      866.646
01/01/2022  16:47:00     -128.023       12.529       -2.953       44.946       36.733       30.576     2020.162     1349.309      934.883        1.043        0.215      128.634       18.667        0.021      331.293       -0.787      866.657
01/01/2022  16:48:00     -137.286       32.675      -10.544       38.463       29.089       25.115     1479.423      846.184      630.749        1.149        0.148      141.121       18.070        0.016      331.153       -1.016      866.661
01/01/2022  16:49:00      -84.728       -4.180       -2.879       52.942       49.405       36.354     2802.817     2440.806     1321.641        0.688        0.328       84.831       35.363        0.174      331.226       -0.895      866.676
01/01/2022  16:50:00     -101.059       -0.935       -3.590       55.412       40.159       32.807     3070.535     1612.709     1076.319        0.799        0.288      101.064       32.994        0.107      331.231       -0.887      866.690
01/01/2022  16:51:00     -133.589       54.858       -4.284       47.866       35.540       27.025     2291.179     1263.087      730.351        1.258        0.214      144.414       22.678        0.025      331.112       -1.083      866.696
01/01/2022  16:52:00      -96.220       32.296       -7.062       37.184       39.101       24.196     1382.677     1528.875      585.438        0.692        0.175      101.496       17.800        0.031      331.145       -1.029      866.704
01/01/2022  16:53:00      -70.678       33.554       -6.233       50.490       29.758       20.991     2549.287      885.535      440.636        0.502        0.194       78.239       19.290        0.061      331.222       -0.901      866.725
01/01/2022  16:54:00        3.271       -0.000       -3.092       15.495       16.875       13.233      240.100      284.776      175.124        0.036        0.035        3.271        8.104        6.138      331.206       -0.928      866.754
01/01/2022  16:55:00      -56.855       23.614       -4.705       35.225       21.916       18.155     1240.798      480.322      329.599        0.293        0.103       61.564       17.875        0.084      331.225       -0.897      866.779
01/01/2022  16:56:00      -51.112       -4.819       -1.829       35.674       22.789       18.301     1272.614      519.321      334.915        0.238        0.106       51.339       12.126        0.056      331.207       -0.926      866.805
01/01/2022  16:57:00      -83.435       39.985        5.356       43.996       35.895       25.400     1935.642     1288.485      645.181        0.623        0.193       92.521       23.284        0.063      331.178       -0.975      866.835
01/01/2022  16:58:00     -135.874       39.173       -5.139       60.119       53.765       32.964     3614.249     2890.702     1086.606        1.381        0.380      141.408       29.046        0.042      331.089       -1.120      866.854
01/01/2022  16:59:00     -158.855       47.694       -1.876       61.016       34.004       28.433     3722.945     1156.295      808.434        1.660        0.284      165.860       30.973        0.035      330.999       -1.271      866.869
01/01/2022  17:00:00      -91.202       22.776       -1.076       55.638       29.176       21.722     3095.636      851.228      471.857        0.663        0.221       94.003       22.103        0.055      331.112       -1.082      866.882
01/01/2022  17:01:00      -94.096       19.087       -0.709       39.779       37.371       29.732     1582.338     1396.572      883.987        0.654        0.193       96.012       21.127        0.048      331.125       -1.062      866.886
01/01/2022  17:02:00      -41.109      -11.289       -4.378       46.171       35.055       29.350     2131.776     1228.827      861.401        0.303        0.211       42.631       24.060        0.319      331.172       -0.984      866.889
01/01/2022  17:03:00     -134.016       11.152      -18.516       77.238       43.499       21.697     5965.661     1892.183      470.763        1.338        0.416      134.479       24.514        0.033      331.059       -1.170      866.896
01/01/2022  17:04:00     -100.087        6.820      -13.743       61.992       41.101       25.312     3842.965     1689.287      640.687        0.821        0.309      100.319       17.625        0.031      331.064       -1.162      866.901
01/01/2022  17:05:00      -50.427      -12.422      -11.789       60.635       28.033       29.252     3676.649      785.872      855.700        0.408        0.266       51.934       28.325        0.297      331.065       -1.161      866.908
01/01/2022  17:06:00      -62.748        0.070      -14.782       61.500       55.036       27.170     3782.215     3028.971      738.207        0.585        0.377       62.748       30.294        0.233      331.080       -1.136      866.920
01/01/2022  17:07:00     -138.728       39.305       -9.993       43.642       36.433       24.207     1904.623     1327.345      585.984        1.235        0.191      144.189       19.103        0.018      331.007       -1.255      866.940
01/01/2022  17:08:00     -113.223        9.397      -15.775       41.969       40.347       27.511     1761.428     1627.894      756.844        0.865        0.207      113.613       17.310        0.023      331.090       -1.118      866.957
01/01/2022  17:09:00      -12.950       11.038        5.299       40.056       30.075       20.011     1604.460      904.523      400.460        0.161        0.145       17.016       15.088        0.786      331.012       -1.249      866.967
01/01/2022  17:10:00      -47.425       -4.700        3.003       31.620       38.876       25.841      999.812     1511.341      667.771        0.273        0.159       47.657       15.627        0.108      331.030       -1.216      866.986
01/01/2022  17:11:00      -53.693       11.973       -3.447       39.293       27.163       23.739     1543.958      737.854      563.554        0.294        0.142       55.012       19.998        0.132      330.986       -1.289      866.997
01/01/2022  17:12:00      -60.628      -15.698       -2.294       48.610       41.569       28.778     2362.909     1728.022      828.176        0.442        0.246       62.628       23.037        0.135      331.024       -1.228      867.002
01/01/2022  17:13:00      -26.281       -8.373       -9.412       50.836       31.585       32.680     2584.346      997.623     1067.958        0.275        0.232       27.583       31.488        1.303      330.944       -1.360      867.000
01/01/2022  17:14:00      -35.858       -5.557        2.394       55.435       28.383       25.542     3073.076      805.595      652.371        0.293        0.227       36.286       21.328        0.345      330.972       -1.313      866.986
01/01/2022  17:15:00      -94.585       10.335       -3.662       41.770       37.447       21.770     1744.753     1402.268      473.924        0.634        0.181       95.148       23.127        0.059      330.913       -1.409      866.980
01/01/2022  17:16:00      -86.774      -10.137       -6.133       71.738       47.400       35.927     5146.398     2246.732     1290.716        0.818        0.434       87.364       29.452        0.114      330.866       -1.487      866.979
01/01/2022  17:17:00     -104.234       -0.522       -4.099       50.548       51.225       28.019     2555.083     2624.045      785.091        0.842        0.298      104.235       25.139        0.058      330.849       -1.513      866.989
01/01/2022  17:18:00     -108.041       22.558       -2.060       64.685       46.548       28.850     4184.094     2166.679      832.332        0.968        0.359      110.370       21.224        0.037      330.799       -1.595      866.994
01/01/2022  17:19:00     -129.557       34.515      -19.674       31.317       26.498       20.767      980.748      702.118      431.276        1.024        0.106      134.076       15.513        0.013      330.763       -1.655      867.004
01/01/2022  17:20:00      -76.044       14.186       -1.662       61.835       33.627       24.791     3823.566     1130.806      614.587        0.578        0.278       77.356       26.327        0.116      330.838       -1.533      867.017
01/01/2022  17:21:00      -75.586       -5.231       -0.938       53.713       38.787       21.966     2885.097     1504.468      482.512        0.531        0.244       75.767       23.643        0.097      330.779       -1.629      867.028
01/01/2022  17:22:00      -88.120      -20.838       -7.942       61.308       48.631       27.886     3758.717     2365.005      777.654        0.758        0.345       90.550       20.521        0.051      330.770       -1.644      867.037
01/01/2022  17:23:00      -91.799       -7.690       -4.710       62.417       31.872       30.444     3895.907     1015.819      926.816        0.717        0.292       92.120       30.413        0.109      330.730       -1.710      867.052
01/01/2022  17:24:00      -75.019        8.561        0.456       52.560       30.681       30.130     2762.590      941.304      907.820        0.516        0.231       75.506       30.020        0.158      330.692       -1.772      867.065
01/01/2022  17:25:00      -83.331      -17.088       -3.488       69.318       35.321       30.652     4804.959     1247.608      939.518        0.712        0.350       85.065       25.278        0.088      330.681       -1.791      867.065
01/01/2022  17:26:00      -99.743      -20.203       -7.674       67.323       22.753       34.360     4532.396      517.681     1180.631        0.832        0.312      101.768       39.895        0.154      330.598       -1.927      867.065
01/01/2022  17:27:00      -11.820       -0.855        9.654       51.107       48.990       32.157     2611.899     2400.046     1034.042        0.314        0.302       11.851       30.930        6.812      330.620       -1.891      867.068
01/01/2022  17:28:00     -112.996       36.050       -8.778       58.851       46.408       25.266     3463.498     2153.705      638.383        1.020        0.313      118.608       24.527        0.043      330.613       -1.901      867.066
01/01/2022  17:29:00     -167.737       34.962        1.128       64.404       40.748       30.542     4147.838     1660.438      932.792        1.805        0.337      171.342       31.515        0.034      330.508       -2.075      867.060
01/01/2022  17:30:00     -127.954       25.510       -9.130       80.761       49.403       39.068     6522.369     2440.609     1526.283        1.380        0.524      130.472       41.153        0.099      330.459       -2.155      867.054
01/01/2022  17:31:00     -104.116      -26.524       -6.652       59.786       49.588       27.784     3574.332     2458.954      771.943        0.920        0.340      107.442       20.152        0.035      330.505       -2.081      867.052
01/01/2022  17:32:00      -90.214       42.386       -9.988       61.876       45.755       32.342     3828.629     2093.476     1046.017        0.850        0.348       99.675       27.873        0.078      330.495       -2.095      867.051
01/01/2022  17:33:00      -40.428       10.159       -6.057       53.433       53.172       39.067     2855.089     2827.313     1526.229        0.449        0.360       41.685       36.370        0.761      330.523       -2.050      867.044
01/01/2022  17:34:00      -33.023       12.320        1.276       45.178       45.603       31.671     2041.060     2079.679     1003.035        0.318        0.256       35.246       20.275        0.331      330.489       -2.106      867.041
01/01/2022  17:35:00      -40.955       11.638       -5.229       74.222       43.675       41.031     5508.948     1907.525     1683.559        0.547        0.455       42.576       29.020        0.465      330.477       -2.125      867.033
01/01/2022  17:36:00      -87.071      -12.086      -15.509       44.940       44.579       37.750     2019.621     1987.244     1425.026        0.670        0.272       87.906       17.056        0.038      330.580       -1.957      867.030
01/01/2022  17:37:00     -104.829      -12.295        5.107       70.252       52.415       44.591     4935.413     2747.305     1988.401        1.042        0.484      105.548       38.733        0.135      330.471       -2.134      867.030
01/01/2022  17:38:00     -116.776      -17.520      -13.025       64.181       47.804       39.489     4119.223     2285.197     1559.412        1.104        0.398      118.083       29.736        0.063      330.570       -1.974      867.028
01/01/2022  17:39:00     -120.793        4.288       -7.663       65.156       50.786       30.309     4245.298     2579.233      918.633        1.120        0.387      120.869       28.763        0.057      330.556       -1.994      867.021
01/01/2022  17:40:00     -110.367       38.280       -3.290       62.195       43.666       30.578     3868.193     1906.686      934.989        1.018        0.335      116.817       26.314        0.051      330.512       -2.070      867.007
01/01/2022  17:41:00     -127.040       55.176       -4.560       67.025       46.229       25.834     4492.320     2137.105      667.404        1.325        0.365      138.505       34.481        0.062      330.426       -2.210      866.998
01/01/2022  17:42:00      -85.295       26.442      -11.773       28.964       19.580       18.389      838.897      383.375      338.139        0.484        0.078       89.299       15.931        0.032      330.590       -1.939      866.990
01/01/2022  17:43:00     -102.053       27.164       -5.117       39.574       26.611       25.012     1566.063      708.160      625.590        0.704        0.145      105.607       24.813        0.055      330.620       -1.891      866.983
01/01/2022  17:44:00     -137.194       28.579       -5.091       49.295       44.463       27.372     2429.970     1976.921      749.213        1.241        0.258      140.139       23.543        0.028      330.534       -2.033      866.979
01/01/2022  17:45:00     -141.400        5.667       -5.973       45.156       43.081       35.924     2039.082     1856.015     1290.513        1.262        0.259      141.514       30.130        0.045      330.479       -2.121      866.974
01/01/2022  17:46:00     -131.913       13.444       -5.549       54.755       38.942       27.993     2998.153     1516.512      783.609        1.145        0.265      132.596       17.391        0.017      330.525       -2.047      866.977
01/01/2022  17:47:00     -131.416       22.177      -13.481       33.628       38.274       23.197     1130.842     1464.913      538.104        1.054        0.157      133.274       18.238        0.019      330.439       -2.187      866.979
01/01/2022  17:48:00     -106.728       38.010       -6.917       25.185       29.744       18.446      634.259      884.687      340.243        0.737        0.093      113.294        9.853        0.008      330.399       -2.253      866.985
01/01/2022  17:49:00      -60.638        0.556        0.654       38.574       40.055       22.698     1487.922     1604.434      515.192        0.364        0.180       60.641       23.661        0.152      330.521       -2.054      866.983
01/01/2022  17:50:00      -52.205       21.954       -5.948       33.766       26.428       17.518     1140.146      698.413      306.887        0.269        0.107       56.634       13.983        0.061      330.418       -2.222      866.979
01/01/2022  17:51:00      -23.165        0.301       -7.251       27.894       31.078       27.328      778.086      965.846      746.844        0.154        0.125       23.167       18.144        0.613      330.443       -2.182      866.978
01/01/2022  17:52:00      -82.545      -11.738       -8.281       47.580       34.415       28.158     2263.866     1184.393      792.883        0.563        0.212       83.376       20.933        0.063      330.359       -2.319      866.985
01/01/2022  17:53:00      -31.823       -2.533        2.082       33.309       33.281       23.196     1109.522     1107.658      538.043        0.189        0.138       31.923       15.736        0.243      330.397       -2.256      867.005
01/01/2022  17:54:00      -37.973       -5.713       -0.477       35.416       23.642       19.575     1254.328      558.924      383.194        0.184        0.110       38.401       11.347        0.087      330.411       -2.233      867.018
01/01/2022  17:55:00      -41.014        2.299      -10.604       44.964       24.591       19.567     2021.760      604.721      382.849        0.240        0.150       41.079       19.077        0.216      330.405       -2.243      867.029
01/01/2022  17:56:00     -117.476       25.457       -6.117       27.265       24.535       16.256      743.384      601.989      264.243        0.805        0.080      120.203       12.212        0.010      330.349       -2.334      867.041
01/01/2022  17:57:00      -50.166       22.241        2.535       50.809       29.515       24.112     2581.516      871.122      581.389        0.353        0.202       54.875       31.104        0.321      330.265       -2.473      867.038
01/01/2022  17:58:00      -44.911        7.195      -10.921       49.601       41.775       23.460     2460.288     1745.166      550.367        0.347        0.238       45.484       18.522        0.166      330.283       -2.445      867.040
01/01/2022  17:59:00       -0.722        4.646       -4.080       20.798       27.716       20.025      432.543      768.152      401.013        0.082        0.080        4.702       14.523        9.541      330.279       -2.451      867.046
01/01/2022  18:00:00      -25.129       -1.666        0.748       34.791       22.208       27.042     1210.382      493.204      731.273        0.153        0.122       25.185       20.191        0.643      330.268       -2.468      867.048
01/01/2022  18:01:00      -16.381      -15.096        5.945       19.568       18.995       19.282      382.916      360.794      371.807        0.082        0.056       22.276       12.162        0.298      330.344       -2.343      867.054
01/01/2022  18:02:00       -5.888      -22.594       -1.511       16.885       16.587       15.105      285.107      275.126      228.146        0.067        0.039       23.348        8.337        0.127      330.388       -2.271      867.056
01/01/2022  18:03:00       -6.487      -16.602       -2.390       16.404       16.541       14.274      269.105      273.596      203.759        0.053        0.037       17.825        6.190        0.121      330.467       -2.142      867.059
01/01/2022  18:04:00      -39.989       -8.696      -11.462       13.219       11.697       11.843      174.754      136.817      140.245        0.113        0.023       40.923        6.098        0.022      330.406       -2.241      867.068
01/01/2022  18:05:00      -27.216        5.126       -4.600       19.255       12.235       10.028      370.767      149.683      100.557        0.070        0.031       27.695        8.597        0.096      330.447       -2.175      867.074
01/01/2022  18:06:00        0.033       -4.760       -7.353       17.842       24.598       12.784      318.344      605.046      163.442        0.058        0.054        4.761        9.450        3.940      330.386       -2.276      867.087
01/01/2022  18:07:00      -18.732       -0.275       -3.050       29.552       20.704       17.746      873.305      428.653      314.911        0.099        0.081       18.734       15.206        0.659      330.397       -2.257      867.101
01/01/2022  18:08:00      -52.949      -14.337       -7.131       43.488       23.709       17.695     1891.231      562.105      313.102        0.291        0.138       54.855       20.922        0.145      330.326       -2.373      867.107
01/01/2022  18:09:00      -40.171       -3.796       -1.217       29.470       25.702       22.312      868.492      660.616      497.844        0.183        0.101       40.350       17.686        0.192      330.247       -2.501      867.104
01/01/2022  18:10:00      -42.359        0.810       -1.943       46.617       22.255       17.474     2173.134      495.285      305.330        0.239        0.149       42.366       22.360        0.279      330.277       -2.453      867.108
01/01/2022  18:11:00       15.389       -7.553       -2.277       19.244       19.939       13.822      370.335      397.573      191.037        0.063        0.048       17.143        7.061        0.170      330.247       -2.503      867.110
01/01/2022  18:12:00      -19.257        2.827       -8.126       37.292       24.963       15.919     1390.662      623.150      253.409        0.136        0.113       19.463       14.299        0.540      330.268       -2.466      867.112
01/01/2022  18:13:00      -18.216      -15.596       -5.106       19.609       17.464       20.996      384.505      305.007      440.818        0.087        0.057       23.980       16.393        0.467      330.249       -2.498      867.119
01/01/2022  18:14:00      -44.734       15.996       -7.823       35.961       17.798       12.135     1293.178      316.781      147.249        0.204        0.088       47.508       17.618        0.138      330.211       -2.562      867.127
01/01/2022  18:15:00      -43.033        7.664       -2.054       27.669       22.843       18.817      765.585      521.809      354.088        0.178        0.082       43.710       18.199        0.173      330.265       -2.474      867.128
01/01/2022  18:16:00       -1.973       -2.393       -9.897       19.775       14.855       15.413      391.041      220.679      237.574        0.048        0.042        3.102       14.283       21.203      330.210       -2.562      867.138
01/01/2022  18:17:00      -29.361        1.058      -10.814       31.338       18.555       14.256      982.075      344.277      203.237        0.125        0.076       29.380        3.215        0.012      330.302       -2.411      867.131
01/01/2022  18:18:00      -30.287        8.115      -10.568       17.641       15.530       15.434      311.196      241.168      238.202        0.094        0.040       31.355       14.536        0.215      330.251       -2.496      867.137
01/01/2022  18:19:00        3.976        2.250      -10.647        9.974       14.156        8.094       99.484      200.396       65.519        0.025        0.018        4.568        1.958        0.184      330.209       -2.564      867.134
01/01/2022  18:20:00       14.176       18.647       -3.748       16.259        9.784        7.530      264.364       95.730       56.706        0.049        0.021       23.424        7.861        0.113      330.206       -2.569      867.130
01/01/2022  18:21:00       20.485       15.399       -7.025       12.663        8.076       10.581      160.359       65.223      111.966        0.052        0.017       25.628        8.126        0.101      330.314       -2.392      867.126
01/01/2022  18:22:00       26.287        0.543       -4.980       15.772       12.666       12.626      248.764      160.433      159.409        0.064        0.028       26.292       10.502        0.160      330.335       -2.358      867.144
01/01/2022  18:23:00       13.105      -18.128       -5.160        9.159       10.366       10.405       83.887      107.464      108.272        0.041        0.015       22.369        7.293        0.106      330.308       -2.403      867.157
01/01/2022  18:24:00       11.782       -8.133       -2.213        8.820        6.520        9.872       77.786       42.507       97.448        0.021        0.011       14.317        5.555        0.151      330.263       -2.476      867.170
01/01/2022  18:25:00       13.034       -8.882       -5.029       12.113       16.773        7.506      146.719      281.322       56.333        0.038        0.024       15.773        7.980        0.256      330.275       -2.455      867.182
01/01/2022  18:26:00       18.757      -19.760      -19.131        7.587        7.269        6.227       57.560       52.834       38.777        0.063        0.007       27.245        5.004        0.034      330.227       -2.535      867.183
01/01/2022  18:27:00       23.980       -5.274      -10.482       14.637       12.660        6.890      214.253      160.288       47.473        0.057        0.021       24.553        5.823        0.056      330.296       -2.423      867.198
01/01/2022  18:28:00       29.568        2.410       -5.132       18.894       12.631       12.642      356.976      159.546      159.833        0.079        0.034       29.666       11.784        0.158      330.347       -2.339      867.207
01/01/2022  18:29:00       50.213        8.412       -6.438       20.335       10.313       10.755      413.510      106.351      115.659        0.163        0.032       50.913        7.503        0.022      330.244       -2.507      867.220
01/01/2022  18:30:00       35.368       -1.083      -10.975       23.606       25.236        9.200      557.236      636.851       84.633        0.133        0.064       35.385        8.827        0.062      330.281       -2.446      867.224
01/01/2022  18:31:00       10.455      -10.283       -0.625       16.171       12.490       16.862      261.500      156.001      284.316        0.046        0.035       14.664       14.128        0.928      330.197       -2.585      867.236
01/01/2022  18:32:00       15.174       10.343      -13.878       21.937       25.307       23.516      481.241      640.448      552.980        0.110        0.084       18.364       13.946        0.577      330.238       -2.517      867.251
01/01/2022  18:33:00       15.856        1.015      -18.932       21.739       19.648       22.028      472.586      386.043      485.246        0.098        0.067       15.888       14.095        0.787      330.244       -2.507      867.265
01/01/2022  18:34:00       24.749       -8.432       -6.792       32.208       18.915       16.377     1037.335      357.779      268.210        0.120        0.083       26.146       12.413        0.225      330.160       -2.646      867.274
01/01/2022  18:35:00       35.988      -21.961       -9.534       22.656       21.834       19.360      513.273      476.719      374.803        0.162        0.068       42.159       15.471        0.135      330.214       -2.558      867.265
01/01/2022  18:36:00       28.213      -29.549       -8.018       20.702       17.138       16.968      428.593      293.724      287.928        0.137        0.051       40.855       13.520        0.110      330.356       -2.324      867.273
01/01/2022  18:37:00       24.702      -16.008      -11.881       12.614       17.789       14.012      159.107      316.452      196.322        0.084        0.034       29.435        8.510        0.084      330.350       -2.333      867.275
01/01/2022  18:38:00        1.372       -7.792      -14.049       11.218       12.396        8.318      125.847      153.661       69.185        0.030        0.017        7.912        5.483        0.480      330.323       -2.378      867.288
01/01/2022  18:39:00       -7.003       -4.835        3.175        7.418        8.759        7.601       55.033       76.715       57.773        0.014        0.009        8.510        5.028        0.349      330.245       -2.506      867.298
01/01/2022  18:40:00      -25.514       -3.797       -6.245       16.128       21.065        9.361      260.101      443.720       87.633        0.075        0.040       25.795        7.521        0.085      330.264       -2.475      867.309
01/01/2022  18:41:00        4.584       -2.782       -2.461        8.799       10.167       10.812       77.414      103.367      116.898        0.017        0.015        5.362        6.736        1.578      330.114       -2.721      867.323
01/01/2022  18:42:00        5.529        6.027       -4.578        9.196        5.968        7.439       84.558       35.614       55.344        0.013        0.009        8.179        6.628        0.657      330.176       -2.619      867.343
01/01/2022  18:43:00       -4.551       -4.097        1.255       15.219       14.124        9.452      231.617      199.487       89.344        0.028        0.026        6.123        3.513        0.329      330.223       -2.541      867.359
01/01/2022  18:44:00       -7.057       -3.247       -1.539       13.293       13.061       10.967      176.695      170.582      120.277        0.027        0.023        7.769        4.995        0.413      330.192       -2.592      867.369
01/01/2022  18:45:00       -4.727       -3.900       -6.433       16.030       27.229       10.247      256.961      741.393      104.999        0.059        0.055        6.128        6.649        1.177      330.181       -2.611      867.374
01/01/2022  18:46:00      -24.775      -15.548      -19.826       24.815       16.724       12.745      615.809      279.697      162.430        0.115        0.053       29.250       10.495        0.129      330.162       -2.641      867.369
01/01/2022  18:47:00      -20.972       -3.966       -0.525       13.005       12.648       12.220      169.121      159.966      149.326        0.047        0.024       21.344        9.039        0.179      330.213       -2.558      867.363
01/01/2022  18:48:00      -12.579       -9.372       -0.664       17.685       15.569       10.132      312.769      242.406      102.658        0.045        0.033       15.687        7.815        0.248      330.167       -2.634      867.360
01/01/2022  18:49:00        5.042      -14.248        1.568       14.490       11.262        7.734      209.969      126.843       59.809        0.031        0.020       15.114        6.404        0.179      330.190       -2.597      867.354
01/01/2022  18:50:00        6.214      -17.399       -1.723        9.541       15.779       14.128       91.023      248.969      199.587        0.044        0.027       18.475        7.779        0.177      330.146       -2.669      867.351
01/01/2022  18:51:00       -5.624      -11.384        0.656       21.101       10.781       10.730      445.247      116.226      115.143        0.042        0.034       12.698        9.055        0.509      330.133       -2.690      867.357
01/01/2022  18:52:00       10.053       -9.368       -4.732       12.364       16.255        8.130      152.863      264.233       66.089        0.035        0.024       13.741        7.755        0.318      330.142       -2.675      867.353
01/01/2022  18:53:00       -9.850      -30.501       -1.682       34.585       17.476       16.247     1196.095      305.397      263.976        0.140        0.088       32.052       12.850        0.161      330.195       -2.587      867.359
01/01/2022  18:54:00      -29.867       -7.201       -2.449       17.246       22.341       15.617      297.410      499.138      243.899        0.099        0.052       30.722       10.226        0.111      330.144       -2.673      867.356
01/01/2022  18:55:00      -23.745      -31.573       -3.962       31.568       29.430       21.049      996.558      866.097      443.040        0.194        0.115       39.505       16.059        0.165      330.074       -2.785      867.363
01/01/2022  18:56:00      -68.193       -3.236      -16.595       45.241       38.970       22.782     2046.779     1518.667      519.009        0.451        0.204       68.270       17.974        0.069      329.923       -3.033      867.366
01/01/2022  18:57:00      -85.262       -8.221       -9.371       38.074       31.833       17.483     1449.615     1013.337      305.669        0.510        0.138       85.657       14.302        0.028      329.928       -3.025      867.375
01/01/2022  18:58:00      -68.673       -3.931      -12.244       33.279       26.506       19.723     1107.493      702.557      389.015        0.354        0.110       68.786       15.915        0.054      329.945       -2.997      867.387
01/01/2022  18:59:00      -62.390       -3.210      -19.821       38.051       25.259       20.943     1447.895      638.008      438.589        0.341        0.126       62.473       13.944        0.050      329.947       -2.993      867.396
01/01/2022  19:00:00      -52.518      -17.089        0.841       43.976       36.100       25.830     1933.869     1303.182      667.181        0.348        0.195       55.229       24.911        0.203      329.907       -3.060      867.403
01/01/2022  19:01:00      -57.041       -4.409       -0.859       40.303       35.114       23.403     1624.321     1233.025      547.694        0.334        0.170       57.211       10.006        0.031      329.913       -3.050      867.407
01/01/2022  19:02:00      -43.440      -10.459       -6.162       39.782       31.293       25.092     1582.632      979.257      629.616        0.261        0.160       44.682       21.286        0.227      329.909       -3.056      867.409
01/01/2022  19:03:00      -38.261        2.429      -18.478       52.958       28.466       27.613     2804.536      810.286      762.488        0.309        0.219       38.338       18.725        0.239      329.815       -3.209      867.416
01/01/2022  19:04:00      -58.196       -4.472       -5.125       39.473       30.104       21.464     1558.101      906.270      460.706        0.318        0.146       58.368       14.966        0.066      329.805       -3.227      867.428
01/01/2022  19:05:00     -112.907        0.726       -5.918       36.995       31.924       21.929     1368.656     1019.173      480.866        0.783        0.143      112.909       18.641        0.027      329.742       -3.331      867.432
01/01/2022  19:06:00      -71.692      -23.804       -6.846       45.873       31.228       31.731     2104.305      975.162     1006.837        0.492        0.204       75.540       13.295        0.031      329.774       -3.277      867.445
01/01/2022  19:07:00      -90.635      -19.231      -17.928       35.601       21.898       19.751     1267.404      479.540      390.099        0.552        0.107       92.653       15.563        0.028      329.733       -3.343      867.455
01/01/2022  19:08:00      -77.382       -5.701      -12.294       47.492       27.764       29.495     2255.474      770.814      869.948        0.503        0.195       77.592       28.610        0.136      329.741       -3.331      867.460
01/01/2022  19:09:00      -95.229        5.503      -19.881       29.045       25.957       24.986      843.592      673.742      624.279        0.582        0.107       95.388       16.643        0.030      329.730       -3.348      867.466
01/01/2022  19:10:00     -136.889      -13.668      -11.373       46.175       28.133       27.894     2132.092      791.450      778.066        1.138        0.185      137.570       13.155        0.009      329.720       -3.365      867.470
01/01/2022  19:11:00      -54.507      -12.776      -19.494       35.145       38.123       26.636     1235.171     1453.372      709.500        0.346        0.170       55.984       19.104        0.116      329.707       -3.386      867.467
01/01/2022  19:12:00      -45.365      -20.563       -7.954       38.421       36.365       28.448     1476.141     1322.426      809.268        0.308        0.180       49.808       16.470        0.109      329.732       -3.346      867.459
01/01/2022  19:13:00     -111.492        4.715      -18.371       55.464       30.168       26.745     3076.201      910.127      715.318        0.875        0.235      111.592       18.729        0.028      329.577       -3.600      867.441
01/01/2022  19:14:00     -111.120       -6.033      -15.657       45.295       35.028       22.234     2051.628     1226.932      494.341        0.820        0.189      111.284       17.030        0.023      329.662       -3.459      867.423
01/01/2022  19:15:00     -101.272      -20.889       -4.883       56.558       23.347       21.442     3198.855      545.081      459.769        0.746        0.210      103.404       19.865        0.037      329.628       -3.515      867.398
01/01/2022  19:16:00     -119.759       -2.854       -3.696       40.239       28.978       23.554     1619.176      839.750      554.800        0.869        0.151      119.793       18.970        0.025      329.662       -3.462      867.383
01/01/2022  19:17:00     -137.239      -26.583      -19.721       29.150       23.386       19.720      849.740      546.901      388.875        1.086        0.089      139.790       15.887        0.013      329.586       -3.585      867.372
01/01/2022  19:18:00     -119.817      -32.199      -21.189       17.176       21.831       14.986      295.012      476.583      224.576        0.842        0.050      124.068        6.406        0.003      329.596       -3.569      867.364
01/01/2022  19:19:00      -93.803       -9.041      -10.876       45.178       28.386       26.187     2041.092      805.755      685.771        0.627        0.177       94.238       28.189        0.089      329.662       -3.459      867.357
01/01/2022  19:20:00       -9.328        4.725        1.399       20.179       18.721       11.768      407.182      350.469      138.477        0.050        0.045       10.456        9.512        0.827      329.734       -3.343      867.368
01/01/2022  19:21:00      -40.939       -0.207       -1.841       34.134       17.303       16.500     1165.155      299.377      272.264        0.171        0.087       40.940       16.577        0.164      329.679       -3.432      867.369
01/01/2022  19:22:00      -73.285      -25.269      -13.711       44.913       20.909       17.105     2017.173      437.191      292.592        0.447        0.137       77.519       14.169        0.033      329.641       -3.495      867.372
01/01/2022  19:23:00      -29.718      -10.182       -4.532       40.584       17.963       19.296     1647.027      322.673      372.337        0.167        0.117       31.414       24.180        0.592      329.654       -3.473      867.377
01/01/2022  19:24:00      -59.197       41.534       -8.571       37.571       35.550       17.855     1411.544     1263.783      318.812        0.415        0.150       72.314       12.007        0.028      329.511       -3.707      867.378
01/01/2022  19:25:00      -83.527       38.612       -4.925       40.187       27.244       22.360     1615.018      742.215      499.964        0.567        0.143       92.019       25.151        0.075      329.483       -3.753      867.381
01/01/2022  19:26:00     -103.575       31.433      -13.521       29.593       24.554       19.950      875.773      602.898      397.995        0.689        0.094      108.239       16.613        0.024      329.561       -3.626      867.392
01/01/2022  19:27:00     -121.097       37.201       -6.962       33.645       27.482       24.344     1131.963      755.287      592.621        0.929        0.124      126.682       21.991        0.030      329.481       -3.757      867.393
01/01/2022  19:28:00      -73.204        7.874      -16.587       57.750       33.512       27.194     3335.037     1123.023      739.506        0.545        0.260       73.626       14.563        0.039      329.539       -3.661      867.399
01/01/2022  19:29:00      -59.913        3.966        1.709       39.182       41.223       21.629     1535.258     1699.310      467.800        0.365        0.185       60.044       16.508        0.076      329.555       -3.635      867.404
01/01/2022  19:30:00      -40.787        0.103       -9.412       30.282       36.637       18.230      917.011     1342.272      332.348        0.217        0.130       40.787       14.876        0.133      329.463       -3.787      867.405
01/01/2022  19:31:00      -37.031       -9.663       -0.309       30.877       25.120       21.364      953.359      631.006      456.403        0.175        0.102       38.271       19.436        0.258      329.544       -3.654      867.410
01/01/2022  19:32:00      -42.699       27.422       -0.229       46.204       26.240       15.507     2134.831      688.537      240.462        0.282        0.153       50.746       22.716        0.200      329.500       -3.725      867.407
01/01/2022  19:33:00      -19.791      -13.486       -7.567       42.468       24.130       20.379     1803.514      582.277      415.305        0.172        0.140       23.949       18.667        0.608      329.500       -3.725      867.410
01/01/2022  19:34:00       -5.361        0.101       -5.180       18.656       19.185       17.375      348.062      368.072      301.888        0.054        0.051        5.362       12.622        5.542      329.537       -3.666      867.402
01/01/2022  19:35:00       -7.639       -7.454       -4.259       30.878       18.484       14.310      953.462      341.662      204.770        0.082        0.075       10.673       12.144        1.295      329.513       -3.703      867.401
01/01/2022  19:36:00      -13.850       -9.717        1.322       23.291       20.101       13.501      542.478      404.052      182.272        0.071        0.056       16.918        6.991        0.171      329.554       -3.638      867.391
01/01/2022  19:37:00       -6.102      -10.973       -5.595       12.826       13.632       14.814      164.510      185.845      219.462        0.038        0.028       12.556        8.782        0.489      329.564       -3.621      867.389
01/01/2022  19:38:00       -2.382       -5.609       -5.188       13.591        9.727       11.194      184.722       94.610      125.298        0.023        0.020        6.094       10.224        2.815      329.594       -3.571      867.384
01/01/2022  19:39:00        8.055       -9.462       -1.282       10.139       14.548        9.720      102.793      211.650       94.480        0.028        0.020       12.426        5.516        0.197      329.567       -3.616      867.381
01/01/2022  19:40:00        5.106        0.834       -6.699       10.818        7.047        7.609      117.031       49.657       57.903        0.015        0.011        5.174        2.574        0.248      329.564       -3.621      867.383
01/01/2022  19:41:00       -4.968       -3.470       -4.246       21.798       12.979       12.622      475.138      168.463      159.315        0.043        0.040        6.059       10.840        3.200      329.544       -3.654      867.389
01/01/2022  19:42:00       -6.114       -1.137       -8.599       15.735       10.055        9.974      247.577      101.106       99.490        0.028        0.022        6.218        7.111        1.308      329.551       -3.642      867.394
01/01/2022  19:43:00      -45.987       24.304       -8.507       32.544       16.013       12.000     1059.110      256.422      144.001        0.212        0.073       52.014       14.186        0.074      329.558       -3.631      867.392
01/01/2022  19:44:00      -83.930       14.642      -13.268       23.236       21.929       14.831      539.895      480.875      219.962        0.434        0.062       85.198        2.828        0.001      329.541       -3.657      867.394
01/01/2022  19:45:00      -46.428        3.325       -4.993       33.547       21.289       19.942     1125.422      453.221      397.680        0.208        0.099       46.547       20.215        0.189      329.552       -3.640      867.407
01/01/2022  19:46:00      -51.486       -0.778       -0.937       36.514       28.605       21.551     1333.264      818.234      464.449        0.263        0.131       51.492       20.145        0.153      329.474       -3.769      867.417
01/01/2022  19:47:00      -65.162        7.089       -7.770       50.234       28.014       18.913     2523.504      784.790      357.718        0.401        0.183       65.546       25.095        0.147      329.466       -3.781      867.419
01/01/2022  19:48:00      -73.060       30.351       -5.893       32.685       25.008       20.111     1068.304      625.410      404.446        0.420        0.105       79.113       14.741        0.035      329.354       -3.965      867.430
01/01/2022  19:49:00      -68.744       25.579       -5.089       29.612       22.647       15.713      876.859      512.879      246.907        0.352        0.082       73.349       12.095        0.027      329.293       -4.064      867.434
01/01/2022  19:50:00      -32.017        9.101       -1.441       41.991       19.605       17.519     1763.258      384.375      306.909        0.178        0.123       33.286       20.517        0.380      329.362       -3.952      867.445
01/01/2022  19:51:00        5.774      -15.709       -9.620       15.924       20.965       16.480      253.578      439.551      271.582        0.067        0.048       16.737       13.964        0.696      329.434       -3.834      867.458
01/01/2022  19:52:00        3.908      -25.110      -16.497       15.742       19.584       18.600      247.814      383.550      345.953        0.095        0.049       25.412        7.831        0.095      329.481       -3.755      867.463
01/01/2022  19:53:00        1.182      -12.516      -12.456       12.007       13.561        9.725      144.158      183.910       94.568        0.037        0.021       12.572        5.560        0.196      329.400       -3.889      867.467
01/01/2022  19:54:00      -25.861        2.127      -11.516       27.531       18.256       13.861      757.934      333.266      192.116        0.104        0.064       25.949        6.539        0.064      329.392       -3.902      867.468
01/01/2022  19:55:00      -87.287       23.584       -9.186       23.528       18.547       12.852      553.546      344.010      165.170        0.466        0.053       90.417        6.498        0.005      329.294       -4.061      867.457
01/01/2022  19:56:00      -49.503       13.490       -7.882       22.392       28.486       18.542      501.416      811.438      343.813        0.218        0.083       51.308       13.908        0.073      329.353       -3.966      867.446
01/01/2022  19:57:00      -18.189      -19.418       -1.644       14.729       16.237       15.800      216.942      263.644      249.646        0.072        0.037       26.607       10.052        0.143      329.470       -3.775      867.436
01/01/2022  19:58:00       -6.663      -11.447      -14.207       10.506       10.203       11.458      110.383      104.093      131.296        0.036        0.017       13.245        4.108        0.096      329.320       -4.020      867.422
01/01/2022  19:59:00       -3.905       12.948       -3.392        8.157        6.443        8.399       66.532       41.516       70.540        0.019        0.009       13.524        5.508        0.166      329.325       -4.012      867.401
01/01/2022  20:00:00        9.602        3.407       -0.595        7.869        7.252        5.557       61.922       52.590       30.875        0.012        0.007       10.188        4.591        0.203      329.308       -4.039      867.403
01/01/2022  20:01:00      -11.197       20.861       -6.880       13.011        9.353        8.222      169.289       87.483       67.604        0.047        0.016       23.676        5.070        0.046      329.388       -3.909      867.407
01/01/2022  20:02:00        3.282      -11.843       -6.109        6.167       17.212        8.945       38.033      296.268       80.014        0.030        0.021       12.289        4.697        0.146      329.375       -3.930      867.421
01/01/2022  20:03:00       -2.613       -1.328       -0.989        6.623       11.412       10.551       43.869      130.232      111.318        0.015        0.014        2.931        3.436        1.374      329.356       -3.962      867.432
01/01/2022  20:04:00       -8.027        2.538       -4.480       14.632       13.623        8.561      214.106      185.579       73.288        0.028        0.024        8.419        5.706        0.459      329.398       -3.894      867.443
01/01/2022  20:05:00        3.299       -2.002       -6.399       13.038       11.024        7.954      169.983      121.529       63.266        0.021        0.018        3.859        6.406        2.756      329.415       -3.865      867.446
01/01/2022  20:06:00        6.670       -5.587       -4.266       17.197       10.425        8.845      295.748      108.688       78.226        0.029        0.024        8.701        7.674        0.778      329.409       -3.875      867.450
01/01/2022  20:07:00       -4.712      -10.556       -5.504        7.036       11.821        8.016       49.501      139.741       64.262        0.021        0.013       11.560        4.592        0.158      329.390       -3.904      867.457
01/01/2022  20:08:00       -5.704      -19.371       -3.721        7.590       12.602        8.651       57.615      158.809       74.836        0.036        0.015       20.193        4.779        0.056      329.596       -3.570      867.467
01/01/2022  20:09:00       -7.454        2.205       -9.055        9.619       14.731       10.403       92.529      217.011      108.212        0.028        0.021        7.774        8.171        1.105      329.539       -3.663      867.471
01/01/2022  20:10:00      -50.729      -21.562       -8.503       39.845       33.745       22.792     1587.618     1138.730      519.488        0.318        0.162       55.121       17.513        0.101      329.322       -4.016      867.477
01/01/2022  20:11:00      -36.412       -0.733        0.410       34.927       21.333       21.555     1219.894      455.097      464.608        0.173        0.107       36.419       16.357        0.202      329.257       -4.122      867.484
01/01/2022  20:12:00       -8.034      -21.378        8.345       18.082       21.736       26.602      326.972      472.451      707.646        0.105        0.075       22.837       15.732        0.475      329.355       -3.963      867.502
01/01/2022  20:13:00      -21.672       -8.710        4.073       30.241       35.050       17.089      914.535     1228.497      292.031        0.150        0.122       23.357       11.284        0.233      329.295       -4.060      867.517
01/01/2022  20:14:00       -3.635      -28.061       -7.529       25.505       20.697       12.461      650.518      428.358      155.279        0.105        0.062       28.296       11.051        0.153      329.243       -4.145      867.539
01/01/2022  20:15:00      -22.102       -6.050      -11.784       19.035       20.085       15.754      362.330      403.396      248.184        0.084        0.051       22.915       14.926        0.424      329.257       -4.123      867.555
01/01/2022  20:16:00      -27.709       12.799       -4.837       33.479       25.135       18.274     1120.865      631.744      333.944        0.152        0.104       30.522       13.321        0.190      329.276       -4.092      867.570
01/01/2022  20:17:00       -6.721       -7.627        0.159       40.930       27.933       21.993     1675.278      780.265      483.685        0.152        0.147       10.166       18.850        3.438      329.197       -4.221      867.576
01/01/2022  20:18:00      -59.551       -2.537       -1.366       53.330       39.208       30.224     2844.065     1537.301      913.472        0.442        0.265       59.605       33.089        0.308      329.207       -4.203      867.584
01/01/2022  20:19:00      -43.768        0.831       -3.347       42.172       30.433       20.875     1778.446      926.166      435.771        0.253        0.157       43.776       15.605        0.127      329.169       -4.267      867.587
01/01/2022  20:20:00      -25.064      -11.717        2.105       51.207       35.198       26.823     2622.158     1238.880      719.487        0.267        0.229       27.668       21.792        0.620      329.134       -4.322      867.588
01/01/2022  20:21:00      -82.025        7.735       -6.354       65.703       38.363       28.795     4316.937     1471.697      829.141        0.672        0.331       82.388       29.456        0.128      329.015       -4.519      867.590
01/01/2022  20:22:00      -64.088      -14.187       -8.784       61.767       27.354       19.594     3815.147      748.243      383.940        0.467        0.247       65.639       22.264        0.115      329.042       -4.473      867.597
01/01/2022  20:23:00      -46.572       -0.296      -15.092       40.906       43.714       22.437     1673.307     1910.922      503.432        0.324        0.204       46.573       17.382        0.139      329.050       -4.460      867.614
01/01/2022  20:24:00      -63.643       13.604      -11.305       25.866       23.381       14.893      669.065      546.678      221.810        0.290        0.072       65.081       11.612        0.032      329.145       -4.306      867.622
01/01/2022  20:25:00      -15.190      -11.067       -3.462       28.092       27.840       20.488      789.178      775.065      419.739        0.117        0.099       18.794       15.789        0.706      329.142       -4.313      867.633
01/01/2022  20:26:00      -54.266       13.846        3.211       42.104       32.456       20.988     1772.727     1053.396      440.496        0.321        0.163       56.005       16.684        0.089      329.093       -4.391      867.641
01/01/2022  20:27:00      -72.876        6.038       -8.869       40.867       30.127       18.762     1670.108      907.609      352.010        0.418        0.146       73.125       10.233        0.020      329.021       -4.509      867.640
01/01/2022  20:28:00      -32.558       -7.294       -6.388       33.950       20.570       20.447     1152.629      423.136      418.090        0.157        0.100       33.365       17.889        0.287      328.994       -4.551      867.645
01/01/2022  20:29:00        9.930      -19.312       -5.598       33.356       32.464       22.888     1112.619     1053.933      523.843        0.160        0.135       21.715       23.524        1.174      329.039       -4.478      867.647
01/01/2022  20:30:00      -49.043       22.754      -10.639       53.577       17.388       15.440     2870.458      302.350      238.407        0.322        0.171       54.064       14.525        0.072      329.027       -4.498      867.657
01/01/2022  20:31:00      -33.758        1.938        2.760       52.859       23.446       15.952     2794.075      549.695      254.470        0.237        0.180       33.814       15.714        0.216      329.092       -4.394      867.655
01/01/2022  20:32:00      -12.514       -1.360        0.220       25.207       34.916       20.949      635.373     1219.110      438.858        0.123        0.115       12.588       17.355        1.901      329.036       -4.484      867.663
01/01/2022  20:33:00       -6.846        4.973       -0.860       21.079       18.742       24.377      444.338      351.249      594.229        0.073        0.069        8.462       13.961        2.722      328.966       -4.598      867.673
01/01/2022  20:34:00      -51.150       25.933       -6.205       34.955       25.135       20.508     1221.867      631.774      420.572        0.280        0.114       57.349       14.227        0.062      328.914       -4.684      867.676
01/01/2022  20:35:00      -99.999       10.654       -2.759       41.963       23.802       19.458     1760.889      566.557      378.603        0.641        0.135      100.565       22.182        0.049      328.906       -4.694      867.677
01/01/2022  20:36:00      -18.470        7.072        3.366       47.801       31.866       19.098     2284.972     1015.426      364.724        0.203        0.183       19.778       17.987        0.827      328.961       -4.607      867.686
01/01/2022  20:37:00      -85.340       39.507        1.740       30.764       23.245       17.764      946.442      540.327      315.570        0.532        0.090       94.041       13.710        0.021      328.893       -4.715      867.694
01/01/2022  20:38:00      -69.815        9.299       -1.369       41.021       22.777       18.383     1682.729      518.806      337.918        0.375        0.127       70.431       14.081        0.040      328.918       -4.677      867.699
01/01/2022  20:39:00      -43.771       -5.485      -12.937       46.921       29.724       28.965     2201.555      883.495      838.987        0.302        0.196       44.114       26.023        0.348      328.920       -4.672      867.708
01/01/2022  20:40:00      -39.439        3.415       -1.115       47.343       25.493       25.722     2241.382      649.871      661.638        0.256        0.178       39.586       23.433        0.350      328.928       -4.661      867.718
01/01/2022  20:41:00     -108.639        6.499       -9.231       32.280       29.710       23.474     1042.020      882.659      551.007        0.720        0.124      108.833       15.367        0.020      329.022       -4.506      867.736
01/01/2022  20:42:00       -4.740       17.627        5.066       31.049       21.479       17.374      964.055      461.351      301.860        0.104        0.086       18.253       12.039        0.435      328.943       -4.636      867.752
01/01/2022  20:43:00      -43.643        6.533       -8.254       43.774       26.394       23.616     1916.145      696.638      557.725        0.259        0.159       44.129       19.343        0.192      328.940       -4.640      867.766
01/01/2022  20:44:00      -62.325       10.588      -18.342       40.279       34.025       25.036     1622.408     1157.728      626.778        0.387        0.170       63.218       15.682        0.062      329.026       -4.500      867.785
01/01/2022  20:45:00      -89.375       12.814      -10.320       39.531       30.987       18.785     1562.697      960.224      352.858        0.557        0.144       90.289       11.070        0.015      329.044       -4.471      867.800
01/01/2022  20:46:00      -93.755       23.130        0.336       56.084       25.745       21.201     3145.403      662.792      449.502        0.679        0.213       96.566       26.576        0.076      328.935       -4.649      867.818
01/01/2022  20:47:00      -70.934       15.371       -3.539       42.510       25.293       16.198     1807.109      639.747      262.384        0.399        0.135       72.580       17.339        0.057      328.942       -4.635      867.832
01/01/2022  20:48:00      -74.107       18.559       -4.052       53.602       31.163       17.125     2873.149      971.137      293.252        0.499        0.207       76.395       23.096        0.091      328.893       -4.716      867.841
01/01/2022  20:49:00      -35.864       11.500       -2.458       36.068       23.540       16.008     1300.899      554.147      256.270        0.177        0.106       37.663       15.159        0.162      328.931       -4.655      867.847
01/01/2022  20:50:00      -26.267      -10.886        3.163       32.433       23.902       17.300     1051.904      571.288      299.278        0.137        0.096       28.434       14.020        0.243      329.000       -4.542      867.847
01/01/2022  20:51:00      -11.458        3.305        4.898       20.865       17.560       16.384      435.330      308.361      268.441        0.059        0.051       11.925       12.964        1.182      328.948       -4.627      867.838
01/01/2022  20:52:00      -20.978      -16.092      -12.995       27.138       34.325       13.557      736.489     1178.193      183.784        0.148        0.105       26.439        2.270        0.007      328.935       -4.649      867.819
01/01/2022  20:53:00       -8.568      -47.010       -9.880       14.186       14.678       13.406      201.254      215.437      179.734        0.149        0.030       47.784        9.156        0.037      328.878       -4.742      867.795
01/01/2022  20:54:00      -31.764      -22.481      -17.767       21.273       19.533       13.296      452.536      381.527      176.780        0.142        0.051       38.915       11.303        0.084      328.906       -4.695      867.761
01/01/2022  20:55:00      -23.029        4.541       -1.733       30.195       14.839       17.124      911.753      220.207      293.235        0.099        0.071       23.473       18.627        0.630      328.948       -4.627      867.737
01/01/2022  20:56:00      -34.334        1.782      -10.240       26.836       18.688       16.683      720.177      349.237      278.318        0.132        0.067       34.380       13.241        0.148      328.983       -4.571      867.717
01/01/2022  20:57:00       -9.096        7.486       -1.297       21.831       17.319       13.520      476.584      299.956      182.784        0.055        0.048       11.780       13.085        1.234      328.963       -4.603      867.716
01/01/2022  20:58:00      -10.195       -9.830       -4.981       26.219       22.337       18.069      687.425      498.963      326.497        0.087        0.076       14.163       15.122        1.140      328.968       -4.594      867.731
01/01/2022  20:59:00      -17.953       -1.604       -2.904       33.822       19.448       21.703     1143.913      378.222      471.039        0.116        0.100       18.025       22.528        1.562      328.985       -4.567      867.754
01/01/2022  21:00:00      -47.983        4.762        2.129       46.208       22.952       17.090     2135.134      526.807      292.066        0.264        0.148       48.219       19.625        0.166      328.964       -4.601      867.755
01/01/2022  21:01:00      -35.298        3.188        4.195       37.500       22.156       19.236     1406.244      490.879      370.022        0.177        0.113       35.442       15.739        0.197      328.977       -4.579      867.789
01/01/2022  21:02:00      -39.776       13.762       -3.480       30.215       16.456       10.293      912.958      270.788      105.952        0.154        0.064       42.089       11.534        0.075      328.918       -4.676      867.811
01/01/2022  21:03:00      -57.175        8.900       -3.981       26.895       17.974       14.597      723.333      323.049      213.087        0.231        0.063       57.864       10.849        0.035      329.012       -4.523      867.834
01/01/2022  21:04:00      -59.928       13.014       -7.308       37.492       21.682       15.712     1405.657      470.094      246.881        0.297        0.106       61.324       18.959        0.096      328.999       -4.545      867.839
01/01/2022  21:05:00      -64.108        8.533       -4.136       29.792       22.674       17.293      887.567      514.100      299.043        0.295        0.085       64.673       14.634        0.051      329.095       -4.387      867.845
01/01/2022  21:06:00      -60.256       15.439       -5.206       30.092       21.461       11.959      905.543      460.575      143.024        0.270        0.075       62.202       14.389        0.054      328.953       -4.620      867.854
01/01/2022  21:07:00      -73.600       26.999       -2.334       22.949       16.345       13.888      526.635      267.151      192.884        0.357        0.049       78.396       10.091        0.017      328.894       -4.715      867.859
01/01/2022  21:08:00      -78.126       20.081      -11.884       13.121       18.592       16.059      172.170      345.653      257.876        0.371        0.039       80.665        3.548        0.002      328.940       -4.640      867.867
01/01/2022  21:09:00      -43.374        1.868       -8.034       29.134       15.030       15.306      848.799      225.887      234.273        0.163        0.065       43.414       11.430        0.069      328.986       -4.566      867.862
01/01/2022  21:10:00       -0.325       -8.410       -1.764       15.483       15.121       11.038      239.731      228.631      121.845        0.033        0.030        8.416        6.843        0.661      328.995       -4.552      867.859
01/01/2022  21:11:00       -4.021      -11.443       -4.722       10.859        8.606        7.945      117.911       74.061       63.118        0.021        0.013       12.129        2.197        0.033      329.082       -4.408      867.853
01/01/2022  21:12:00       -2.590       -2.648       -4.914        7.079        8.620       10.042       50.113       74.296      100.846        0.013        0.011        3.704        4.790        1.673      329.009       -4.529      867.846
01/01/2022  21:13:00        1.822       -1.811       -0.001        7.988        8.073        7.713       63.814       65.174       59.493        0.010        0.009        2.569        5.586        4.728      328.927       -4.662      867.844
01/01/2022  21:14:00        6.335        3.701       -0.512        6.190        5.611        8.345       38.310       31.488       69.643        0.010        0.007        7.336        4.460        0.370      328.922       -4.669      867.849
01/01/2022  21:15:00      -16.783       -6.285       -1.839       13.311       18.459       11.937      177.184      340.744      142.489        0.049        0.033       17.922        8.337        0.216      328.984       -4.569      867.861
01/01/2022  21:16:00      -47.415       19.090       -6.235       24.711       10.945       11.075      610.634      119.793      122.657        0.175        0.043       51.114        8.682        0.029      328.951       -4.622      867.872
01/01/2022  21:17:00      -41.214       11.324       -6.411       22.308       15.860        8.864      497.625      251.549       78.576        0.135        0.041       42.742        7.860        0.034      328.927       -4.662      867.878
01/01/2022  21:18:00      -47.160       15.142       -7.615       16.447        8.928       11.100      270.515       79.702      123.220        0.149        0.024       49.531       10.860        0.048      328.911       -4.688      867.887
01/01/2022  21:19:00      -18.044        7.233      -10.926       12.982       13.548       10.466      168.530      183.553      109.535        0.048        0.023       19.439        3.705        0.036      328.910       -4.690      867.905
01/01/2022  21:20:00      -35.152       23.889      -10.470       10.329        9.525        7.347      106.691       90.726       53.972        0.108        0.013       42.501        2.749        0.004      328.897       -4.711      867.929
01/01/2022  21:21:00      -16.801       10.244       -9.876       14.308       14.716       14.131      204.724      216.551      199.682        0.055        0.031       19.678        9.605        0.238      328.846       -4.793      867.948
01/01/2022  21:22:00      -39.637       17.645      -19.190       16.733       13.886       12.644      279.993      192.833      159.882        0.144        0.032       43.387        9.823        0.051      328.917       -4.677      867.966
01/01/2022  21:23:00      -16.605       15.649      -18.995       14.993       15.808       13.117      224.802      249.891      172.061        0.076        0.032       22.817       10.928        0.229      328.888       -4.725      867.981
01/01/2022  21:24:00       -1.665       13.111       -1.559       14.184       12.469        8.497      201.192      155.485       72.192        0.030        0.021       13.217        6.809        0.265      328.808       -4.857      868.002
01/01/2022  21:25:00       -9.813       12.097      -14.161       17.673       13.573       14.381      312.332      184.224      206.805        0.057        0.035       15.577        9.774        0.394      328.812       -4.849      868.008
01/01/2022  21:26:00      -13.163        5.869       -8.604       21.258       19.802       12.562      451.887      392.109      157.812        0.064        0.050       14.413        9.367        0.422      328.796       -4.874      868.010
01/01/2022  21:27:00       -5.442        3.969      -13.074       17.166       18.690       10.235      294.661      349.318      104.754        0.048        0.037        6.736        9.923        2.170      328.806       -4.859      868.000
01/01/2022  21:28:00       -9.353      -15.627       -4.565       13.298       17.956       11.157      176.843      322.429      124.472        0.049        0.031       18.212        8.026        0.194      328.840       -4.803      867.989
01/01/2022  21:29:00        1.363       -6.691       -1.701        7.669        7.578        8.038       58.815       57.430       64.614        0.012        0.009        6.828        5.491        0.647      328.830       -4.820      867.970
01/01/2022  21:30:00        0.376        0.634       -3.126       15.737       15.146        7.550      247.648      229.387       57.004        0.027        0.027        0.737        2.663       13.060      328.862       -4.768      867.953
01/01/2022  21:31:00       23.241       -2.734        2.876       12.944       13.785       12.870      167.542      190.030      165.644        0.054        0.026       23.401        8.006        0.117      328.825       -4.827      867.931
01/01/2022  21:32:00       -2.984        7.586       -9.230       13.241       12.086       12.134      175.330      146.077      147.236        0.031        0.023        8.152        7.821        0.920      328.773       -4.912      867.918
01/01/2022  21:33:00      -42.480        6.405      -10.755       23.127       16.989       12.482      534.870      288.632      155.807        0.147        0.049       42.960        5.408        0.016      328.803       -4.864      867.912
01/01/2022  21:34:00       -8.337        1.680      -10.807       24.692       15.179       15.614      609.713      230.398      243.812        0.064        0.054        8.505       10.246        1.451      328.806       -4.858      867.903
01/01/2022  21:35:00        0.170       -1.079       -4.581       22.633       25.489       16.925      512.246      649.700      286.443        0.074        0.072        1.092       12.693      135.000      328.696       -5.039      867.904
01/01/2022  21:36:00        9.445       -1.359       -6.036       10.330       16.567       13.849      106.715      274.478      191.802        0.035        0.029        9.542        9.110        0.911      328.673       -5.075      867.908
01/01/2022  21:37:00      -33.215        9.438       -7.943       27.786       14.662       14.417      772.050      214.975      207.840        0.122        0.060       34.530       12.529        0.132      328.649       -5.115      867.917
01/01/2022  21:38:00      -54.017       19.417       -8.438       26.843       14.864       12.480      720.525      220.950      155.749        0.223        0.055       57.401        7.357        0.016      328.661       -5.096      867.922
01/01/2022  21:39:00      -68.422       32.374      -11.717       15.336       17.174        9.666      235.190      294.937       93.436        0.325        0.031       75.694        4.490        0.004      328.628       -5.149      867.928
01/01/2022  21:40:00      -75.385       33.434      -16.661       12.754       17.068        9.351      162.662      291.327       87.441        0.381        0.027       82.467        7.268        0.008      328.601       -5.192      867.934
01/01/2022  21:41:00      -51.856        5.351      -16.103       28.424       21.389       10.706      807.905      457.487      114.627        0.218        0.069       52.132        6.010        0.013      328.690       -5.048      867.940
01/01/2022  21:42:00      -22.417        0.173      -10.689       19.350       14.416       19.126      374.417      207.812      365.806        0.078        0.047       22.418        8.189        0.133      328.634       -5.139      867.946
01/01/2022  21:43:00      -26.558        3.365      -10.993       20.585       21.787       22.196      423.735      474.685      492.642        0.111        0.070       26.771       12.988        0.235      328.629       -5.149      867.952
01/01/2022  21:44:00      -16.534       10.951       -7.467       28.502       24.469       13.324      812.345      598.747      177.538        0.102        0.079       19.832       15.398        0.603      328.589       -5.214      867.961
01/01/2022  21:45:00      -36.481       13.638       -5.800       16.009       15.441       11.174      256.273      238.418      124.848        0.108        0.031       38.947        6.923        0.032      328.663       -5.093      867.964
01/01/2022  21:46:00      -16.446       10.596      -10.617       22.995       18.198       10.780      528.760      331.164      116.207        0.074        0.049       19.564       12.041        0.379      328.640       -5.130      867.965
01/01/2022  21:47:00      -52.320       19.768      -23.168       16.001       13.844       17.911      256.022      191.668      320.787        0.222        0.038       55.930       10.813        0.037      328.650       -5.115      867.960
01/01/2022  21:48:00       -4.749        0.036       -4.060       12.365       16.656       13.585      152.904      277.416      184.553        0.033        0.031        4.749        9.701        4.172      328.571       -5.243      867.951
01/01/2022  21:49:00        4.700       -3.023        3.118        9.515       13.050        9.754       90.531      170.293       95.148        0.020        0.018        5.588        9.084        2.643      328.525       -5.317      867.940
01/01/2022  21:50:00       -5.624       -4.461       -0.190       20.025       14.760       13.957      401.012      217.872      194.794        0.043        0.041        7.178       13.256        3.410      328.545       -5.285      867.934
01/01/2022  21:51:00      -32.579      -13.493      -11.820       23.006       21.095       17.855      529.274      445.001      318.801        0.134        0.065       35.263       13.970        0.157      328.647       -5.120      867.919
01/01/2022  21:52:00      -31.149        3.759       -7.469       30.456       18.274       15.584      927.580      333.947      242.847        0.127        0.075       31.375       15.298        0.238      328.609       -5.179      867.900
01/01/2022  21:53:00      -24.420       -8.120       -9.211       31.079       27.497       12.957      965.890      756.082      167.876        0.132        0.094       25.734        9.746        0.143      328.671       -5.080      867.880
01/01/2022  21:54:00      -17.345        4.436       -5.585       17.213       19.720       15.478      296.283      388.892      239.570        0.064        0.046       17.904        9.502        0.282      328.611       -5.179      867.886
01/01/2022  21:55:00      -11.614        2.804       -1.461       35.157       15.384       10.470     1236.043      236.662      109.629        0.086        0.079       11.948       11.610        0.944      328.607       -5.185      867.887
01/01/2022  21:56:00      -16.439       -4.246       -3.984       27.289       14.289       12.187      744.716      204.174      148.535        0.070        0.055       16.979        5.198        0.094      328.643       -5.126      867.882
01/01/2022  21:57:00      -21.134        8.727        0.466       21.636       18.617       10.595      468.112      346.593      112.256        0.072        0.046       22.865        4.856        0.045      328.613       -5.174      867.885
01/01/2022  21:58:00       -5.377       -2.494       -0.231       24.089       24.076       14.190      580.278      579.667      201.363        0.070        0.068        5.927       14.349        5.861      328.660       -5.096      867.890
01/01/2022  21:59:00      -13.137       -0.432       -1.148       20.956       16.261       16.516      439.148      264.418      272.793        0.058        0.049       13.144       14.231        1.172      328.638       -5.136      867.903
01/01/2022  22:00:00      -28.623       -0.230       -4.244       20.920       21.337       14.543      437.662      455.273      211.486        0.097        0.055       28.624       10.075        0.124      328.588       -5.215      867.933
01/01/2022  22:01:00      -28.271       -1.681       -4.744       28.601       22.373       14.759      818.037      500.558      217.823        0.118        0.077       28.321       14.212        0.252      328.537       -5.295      867.949
01/01/2022  22:02:00      -42.658      -16.946        8.624       35.800       25.034       20.900     1281.635      626.691      436.818        0.226        0.117       45.900       18.894        0.169      328.563       -5.255      867.960
01/01/2022  22:03:00      -76.020      -20.668       -5.016       36.603       19.940       16.646     1339.776      397.610      277.090        0.412        0.101       78.779        8.900        0.013      328.569       -5.245      867.967
01/01/2022  22:04:00      -46.310       -1.445       -2.904       35.099       21.947       18.386     1231.912      481.683      338.052        0.210        0.103       46.333       13.788        0.089      328.557       -5.264      867.952
01/01/2022  22:05:00      -92.754      -11.047       -8.997       33.609       21.049       16.508     1129.544      443.071      272.514        0.533        0.092       93.409       11.753        0.016      328.484       -5.384      867.930
01/01/2022  22:06:00      -39.152       -0.095        2.887       42.099       32.366       19.148     1772.367     1047.558      366.659        0.236        0.159       39.152       14.423        0.136      328.495       -5.365      867.915
01/01/2022  22:07:00      -31.851       -2.438       -4.028       35.891       20.718       14.808     1288.185      429.255      219.278        0.149        0.097       31.944       15.577        0.238      328.471       -5.406      867.906
01/01/2022  22:08:00      -40.665        3.053       -5.151       27.185       17.961       19.483      739.006      322.607      379.579        0.157        0.072       40.780       17.520        0.185      328.482       -5.388      867.895
01/01/2022  22:09:00      -44.847      -13.066       -2.371       33.544       17.405       15.887     1125.220      302.944      252.381        0.193        0.084       46.711       15.826        0.115      328.506       -5.349      867.894
01/01/2022  22:10:00      -10.955       -7.378       -0.626       23.213       15.999       14.212      538.826      255.975      201.980        0.059        0.050       13.208        9.240        0.489      328.521       -5.325      867.914
01/01/2022  22:11:00      -40.192        3.018       -2.359       30.436       30.614       19.599      926.338      937.200      384.125        0.194        0.112       40.306       19.852        0.243      328.490       -5.375      867.921
01/01/2022  22:12:00        5.323      -10.950        0.094       21.883       30.610       15.198      478.860      936.950      230.987        0.090        0.082       12.176       10.220        0.705      328.535       -5.301      867.930
01/01/2022  22:13:00      -13.471      -15.654       -2.994       23.895       19.534       20.015      570.967      381.573      400.614        0.089        0.068       20.652       16.539        0.641      328.511       -5.339      867.949
01/01/2022  22:14:00      -20.107       -1.427       -2.532       39.583       27.473       20.211     1566.788      754.772      408.466        0.157        0.137       20.157       20.422        1.026      328.445       -5.447      867.971
01/01/2022  22:15:00      -36.251       -3.964       -7.136       26.878       22.643       16.963      722.430      512.722      287.752        0.145        0.076       36.467       14.157        0.151      328.469       -5.410      867.973
01/01/2022  22:16:00      -12.377      -10.171       -2.378       21.143       12.377       14.979      447.020      153.192      224.360        0.054        0.041       16.021       10.578        0.436      328.485       -5.382      867.963
01/01/2022  22:17:00       -2.863      -22.335       -4.400       13.054        8.328        7.963      170.400       69.362       63.407        0.041        0.015       22.518        4.025        0.032      328.459       -5.426      867.956
01/01/2022  22:18:00        0.031        7.206      -13.441       12.357       16.944       10.571      152.698      287.103      111.755        0.039        0.028        7.206        9.236        1.643      328.499       -5.361      867.951
01/01/2022  22:19:00       -7.891        8.664        4.291       10.553        7.976        6.354      111.357       63.611       40.378        0.019        0.011       11.719        5.634        0.231      328.480       -5.390      867.946
01/01/2022  22:20:00      -11.751        7.752       -2.584       15.349       12.359       10.127      235.595      152.756      102.558        0.035        0.025       14.077        5.857        0.173      328.532       -5.307      867.948
01/01/2022  22:21:00        0.321        8.140       -2.361        7.792        8.673       10.727       60.714       75.223      115.058        0.016        0.013        8.146        7.079        0.755      328.473       -5.401      867.964
01/01/2022  22:22:00        3.705      -11.149       -8.920        7.517       12.249        8.819       56.501      150.050       77.777        0.025        0.014       11.748        4.410        0.141      328.542       -5.289      867.987
01/01/2022  22:23:00      -15.223       20.612       -4.414       16.828       11.398       10.261      283.169      129.911      105.281        0.060        0.026       25.624        9.856        0.148      328.506       -5.349      867.989
01/01/2022  22:24:00      -46.127       26.100      -12.337       10.619       10.072        9.548      112.766      101.435       91.171        0.163        0.015       52.999        7.319        0.019      328.522       -5.321      867.992
01/01/2022  22:25:00      -42.902       28.405      -11.536       19.942       14.279       17.100      397.693      203.897      292.405        0.184        0.045       51.453       12.965        0.063      328.487       -5.380      867.992
01/01/2022  22:26:00      -56.378       24.324      -10.781       14.705       11.554       13.746      216.241      133.498      188.957        0.221        0.027       61.401        5.778        0.009      328.523       -5.321      867.985
01/01/2022  22:27:00      -26.436       16.184       -9.142       12.989       19.594        9.340      168.712      383.939       87.236        0.084        0.032       30.996        4.584        0.022      328.502       -5.356      867.979
01/01/2022  22:28:00      -38.508       19.188      -10.767       24.516       12.368       11.905      601.057      152.956      141.726        0.143        0.045       43.023       10.481        0.059      328.413       -5.500      867.983
01/01/2022  22:29:00      -33.310        8.836      -13.903       27.349       24.677       18.143      747.958      608.931      329.172        0.153        0.084       34.462       18.180        0.278      328.432       -5.469      867.997
01/01/2022  22:30:00      -24.489      -16.127       -6.328       40.721       31.337       26.837     1658.166      981.984      720.210        0.213        0.168       29.322       23.044        0.618      328.343       -5.614      868.028
01/01/2022  22:31:00      -14.877      -15.302        1.657       31.182       34.135       21.505      972.304     1165.222      462.455        0.153        0.130       21.342       14.881        0.486      328.434       -5.466      868.056
01/01/2022  22:32:00       -1.806       -8.291        0.653       16.815       24.815       13.970      282.740      615.763      195.153        0.058        0.055        8.486        4.103        0.234      328.389       -5.539      868.075
01/01/2022  22:33:00      -29.754       -3.318       -5.877       34.777       17.739       14.996     1209.413      314.682      224.867        0.134        0.087       29.938       10.495        0.123      328.325       -5.643      868.104
01/01/2022  22:34:00      -53.786      -20.076       -8.966       29.505       25.572       20.294      870.546      653.913      411.849        0.266        0.097       57.411        8.476        0.022      328.279       -5.720      868.114
01/01/2022  22:35:00      -55.426        3.368      -10.086       30.395       38.156       19.027      923.870     1455.890      362.034        0.296        0.137       55.528       14.007        0.064      328.128       -5.964      868.115
01/01/2022  22:36:00      -74.545      -20.559       -9.406       47.695       19.895       19.348     2274.813      395.798      374.328        0.456        0.152       77.328       20.727        0.072      328.140       -5.945      868.111
01/01/2022  22:37:00      -29.338        0.429        5.139       50.384       23.262       27.826     2538.583      541.120      774.280        0.237        0.193       29.341       30.249        1.063      328.109       -5.995      868.119
01/01/2022  22:38:00      -43.125       10.338        0.211       58.982       42.001       34.259     3478.884     1764.097     1173.706        0.419        0.321       44.347       26.022        0.344      328.078       -6.045      868.136
01/01/2022  22:39:00     -114.263       -0.564       -7.998       50.654       27.398       25.837     2565.872      750.634      667.564        0.855        0.199      114.265       25.574        0.050      328.009       -6.158      868.147
01/01/2022  22:40:00      -83.708       -4.054       -1.712       42.995       27.185       26.039     1848.533      739.039      678.005        0.515        0.163       83.806       24.249        0.084      328.011       -6.154      868.146
01/01/2022  22:41:00     -129.712       11.117      -16.468       31.118       30.127       17.854      968.339      907.644      318.755        0.971        0.110      130.187       14.794        0.013      327.986       -6.192      868.138
01/01/2022  22:42:00      -52.455       -2.383      -12.857       60.386       31.599       25.321     3646.520      998.511      641.151        0.410        0.264       52.509       23.772        0.205      328.000       -6.172      868.122
01/01/2022  22:43:00      -99.728        4.142       -3.213       53.273       27.711       23.318     2837.988      767.880      543.728        0.706        0.207       99.814       21.874        0.048      327.945       -6.261      868.095
01/01/2022  22:44:00      -76.537       -3.862       -8.711       56.576       27.240       27.689     3200.887      742.003      766.706        0.533        0.235       76.635       29.265        0.146      327.950       -6.253      868.070
01/01/2022  22:45:00      -72.677       -7.359      -12.268       27.442       26.418       17.841      753.054      697.896      318.309        0.363        0.088       73.048       10.268        0.020      328.025       -6.133      868.058
01/01/2022  22:46:00      -25.290       -8.147        2.810       33.445       34.658       25.765     1118.599     1201.188      663.833        0.185        0.149       26.570       17.101        0.414      328.020       -6.140      868.045
01/01/2022  22:47:00      -18.100       29.056        1.486       29.927       29.653       19.453      895.634      879.314      378.406        0.166        0.108       34.233       12.155        0.126      328.026       -6.130      868.035
01/01/2022  22:48:00        7.375      -12.452       -5.345       25.406       36.389       22.717      645.446     1324.154      516.071        0.136        0.124       14.472       16.433        1.289      328.022       -6.138      868.036
01/01/2022  22:49:00      -66.161        9.916       -6.521       45.598       26.753       26.892     2079.197      715.745      723.163        0.402        0.176       66.900       28.977        0.188      328.047       -6.097      868.034
01/01/2022  22:50:00     -100.307       24.626       -0.222       32.687       27.693       20.861     1068.457      766.891      435.164        0.647        0.114      103.286       18.458        0.032      327.975       -6.212      868.023
01/01/2022  22:51:00      -42.872        2.365       -4.862       33.755       26.238       25.177     1139.374      688.432      633.899        0.216        0.123       42.937       21.605        0.253      328.002       -6.169      868.012
01/01/2022  22:52:00     -105.838       31.777       -7.459       58.209       27.825       18.178     3388.231      774.212      330.425        0.838        0.225      110.506       20.999        0.036      327.977       -6.210      868.011
01/01/2022  22:53:00      -52.863        1.085       -1.205       36.344       42.520       25.159     1320.905     1807.928      632.999        0.328        0.188       52.874       18.106        0.117      328.015       -6.150      868.011
01/01/2022  22:54:00       -7.674        4.467      -10.853       25.835       31.982       16.466      667.465     1022.853      271.139        0.108        0.098        8.879        6.770        0.581      327.983       -6.200      868.016
01/01/2022  22:55:00      -16.757       -9.127       -9.210       42.964       18.643       22.394     1845.871      347.565      501.483        0.157        0.135       19.082       22.839        1.433      328.022       -6.137      868.014
01/01/2022  22:56:00      -64.629       -7.811        2.592       50.645       28.858       26.725     2564.934      832.806      714.244        0.418        0.206       65.099       22.846        0.123      327.972       -6.218      868.019
01/01/2022  22:57:00      -93.372      -12.712       -3.032       45.430       34.781       29.333     2063.870     1209.712      860.442        0.651        0.207       94.233       27.689        0.086      328.004       -6.167      868.030
01/01/2022  22:58:00      -68.103       -6.348       -7.443       50.163       39.415       24.675     2516.295     1553.516      608.846        0.471        0.234       68.398       24.878        0.132      327.958       -6.239      868.041
01/01/2022  22:59:00      -53.230      -20.300       -3.777       45.697       27.730       27.366     2088.190      768.965      748.904        0.343        0.180       56.969       21.781        0.146      327.965       -6.229      868.046
01/01/2022  23:00:00      -17.936       -3.061      -22.208       37.681       45.988       22.924     1419.880     2114.940      525.507        0.244        0.203       18.195       13.080        0.517      327.991       -6.189      868.055
01/01/2022  23:01:00      -42.529      -11.364        1.421       49.674       28.157       24.398     2467.470      792.825      595.284        0.290        0.193       44.021       22.504        0.261      327.954       -6.246      868.046
01/01/2022  23:02:00      -21.143       -1.902       -4.194       31.890       25.204       25.448     1016.943      635.241      647.576        0.138        0.115       21.228       21.213        0.999      327.991       -6.188      868.044
01/01/2022  23:03:00      -22.387        2.873        2.661       37.647       31.598       23.229     1417.317      998.463      539.606        0.174        0.148       22.571       18.470        0.670      327.932       -6.283      868.043
01/01/2022  23:04:00      -43.830        8.676       -0.248       38.935       24.517       23.674     1515.961      601.089      560.453        0.234        0.134       44.680       23.416        0.275      327.923       -6.298      868.041
01/01/2022  23:05:00      -89.800       17.645      -10.749       46.090       30.413       17.009     2124.249      924.932      289.300        0.591        0.167       91.517       17.460        0.036      327.917       -6.307      868.030
01/01/2022  23:06:00      -89.830       28.288      -10.269       38.565       26.427       21.476     1487.276      698.364      461.216        0.581        0.132       94.179       17.859        0.036      327.955       -6.246      868.022
01/01/2022  23:07:00      -82.217       27.526       -4.683       41.440       24.722       21.641     1717.303      611.180      468.337        0.517        0.140       86.702       23.394        0.073      327.904       -6.329      868.023
01/01/2022  23:08:00      -26.101       -3.014      -10.265       30.866       25.670       21.328      952.719      658.937      454.900        0.143        0.103       26.275       18.903        0.518      328.072       -6.056      868.011
01/01/2022  23:09:00      -18.090       -6.120       -4.242       34.279       27.209       23.604     1175.057      740.304      557.157        0.143        0.124       19.097       20.741        1.180      327.997       -6.178      868.000
01/01/2022  23:10:00      -55.390       -8.353       -2.250       41.829       28.628       23.218     1749.644      819.539      539.071        0.312        0.155       56.016       19.925        0.127      327.988       -6.193      867.997
01/01/2022  23:11:00      -93.415       -0.790       -3.031       35.206       27.990       22.742     1239.483      783.449      517.188        0.564        0.127       93.418       18.472        0.039      327.937       -6.274      867.992
01/01/2022  23:12:00      -45.644       -4.904       -4.948       35.706       18.013       20.262     1274.908      324.477      410.529        0.207        0.100       45.907       21.555        0.220      327.931       -6.284      867.993
01/01/2022  23:13:00      -70.537       -0.035      -11.282       46.848       24.080       23.405     2194.761      579.857      547.772        0.421        0.166       70.537       23.540        0.111      327.965       -6.229      868.000
01/01/2022  23:14:00      -64.948      -25.684       -6.460       50.888       34.825       31.053     2589.584     1212.755      964.282        0.484        0.238       69.842       28.152        0.162      327.943       -6.266      868.011
01/01/2022  23:15:00      -76.220       -0.463        2.892       67.446       32.303       28.019     4548.922     1043.471      785.079        0.610        0.319       76.221       26.839        0.124      327.994       -6.183      868.016
01/01/2022  23:16:00      -96.111       -3.930       -7.488       31.975       29.794       22.481     1022.414      887.685      505.411        0.586        0.121       96.191       19.596        0.042      328.027       -6.130      867.999
01/01/2022  23:17:00      -72.280       -4.636       -1.680       45.856       24.324       17.521     2102.757      591.652      306.975        0.412        0.150       72.428       18.513        0.065      328.054       -6.086      867.992
01/01/2022  23:18:00      -52.725      -19.051      -12.159       40.229       24.778       22.397     1618.404      613.952      501.628        0.301        0.137       56.061       18.193        0.105      328.036       -6.114      868.010
01/01/2022  23:19:00      -86.642      -19.132      -12.116       38.593       32.162       22.049     1489.453     1034.376      486.139        0.551        0.150       88.729       21.214        0.057      327.896       -6.342      868.019
01/01/2022  23:20:00      -80.433      -23.579      -13.854       50.274       24.759       24.165     2527.449      613.030      583.931        0.547        0.186       83.818       21.651        0.067      327.791       -6.515      868.012
01/01/2022  23:21:00      -49.100        2.750       -4.171       36.600       17.446       23.906     1339.588      304.351      571.481        0.233        0.111       49.177       22.918        0.217      327.822       -6.463      868.006
01/01/2022  23:22:00      -47.622        0.613       -1.703       29.662       34.601       24.211      879.814     1197.240      586.168        0.247        0.133       47.626       18.615        0.153      327.847       -6.420      867.989
01/01/2022  23:23:00      -36.850        1.183        6.217       33.994       36.346       22.428     1155.605     1321.000      503.038        0.219        0.149       36.869       20.479        0.309      327.859       -6.401      867.977
01/01/2022  23:24:00      -39.248       -8.220        1.979       36.727       22.672       19.112     1348.861      514.022      365.263        0.192        0.111       40.099       14.815        0.136      327.758       -6.566      867.965
01/01/2022  23:25:00      -16.013       -1.791       -2.287       25.639       18.376       16.291      657.371      337.669      265.400        0.076        0.063       16.113       10.220        0.402      327.745       -6.587      867.959
01/01/2022  23:26:00      -42.856       -9.634      -12.042       27.451       23.677       24.428      753.542      560.621      596.709        0.199        0.096       43.925       18.368        0.175      327.826       -6.457      867.953
01/01/2022  23:27:00      -50.763      -16.942       -7.744       36.234       30.560       19.270     1312.925      933.912      371.322        0.277        0.131       53.516        7.528        0.020      327.810       -6.481      867.943
01/01/2022  23:28:00      -46.779        9.866        4.820       30.543       36.283       22.309      932.852     1316.451      497.712        0.253        0.137       47.808       22.232        0.216      327.609       -6.809      867.920
01/01/2022  23:29:00      -11.836       12.598        2.885       20.960       23.528       18.404      439.329      553.557      338.716        0.082        0.067       17.285        8.506        0.242      327.679       -6.694      867.899
01/01/2022  23:30:00      -16.062      -10.657        2.271       30.219       29.519       29.991      913.171      871.355      899.484        0.153        0.134       19.276       16.607        0.742      327.665       -6.718      867.895
01/01/2022  23:31:00     -102.197      -11.898       -2.034       41.267       28.293       25.134     1702.927      800.512      631.724        0.686        0.157      102.888       22.783        0.049      327.614       -6.802      867.910
01/01/2022  23:32:00     -104.123      -16.286      -17.205       56.493       31.698       25.068     3191.425     1004.773      628.420        0.811        0.241      105.389       22.362        0.045      327.635       -6.766      867.923
01/01/2022  23:33:00      -98.316      -14.119      -17.838       39.827       23.499       24.717     1586.159      552.191      610.939        0.647        0.137       99.324       20.415        0.042      327.581       -6.854      867.936
01/01/2022  23:34:00      -27.167       10.573      -13.064       30.313       40.794       19.939      918.853     1664.171      397.561        0.200        0.149       29.152        7.439        0.065      327.653       -6.738      867.948
01/01/2022  23:35:00      -48.371      -10.890       -8.870       48.794       43.106       24.156     2380.858     1858.147      583.505        0.368        0.241       49.582       14.621        0.087      327.719       -6.631      867.975
01/01/2022  23:36:00        1.612       -9.168        9.947       30.730       21.151       21.892      944.343      447.362      479.266        0.103        0.094        9.308       15.989        2.951      327.724       -6.623      867.985
01/01/2022  23:37:00      -58.165        4.441        7.762       52.067       42.183       26.305     2710.954     1779.392      691.944        0.432        0.259       58.334       27.933        0.229      327.606       -6.815      867.967
01/01/2022  23:38:00      -36.349       -0.924        4.074       53.034       26.197       21.096     2812.628      686.301      445.044        0.264        0.197       36.361       20.679        0.323      327.682       -6.691      867.947
01/01/2022  23:39:00      -63.457        4.231       -6.318       39.242       34.375       23.921     1539.951     1181.613      572.237        0.369        0.165       63.598       17.559        0.076      327.697       -6.666      867.929
01/01/2022  23:40:00      -71.184       -0.969        6.207       68.257       37.181       28.749     4659.061     1382.449      826.500        0.599        0.343       71.190       32.700        0.211      327.572       -6.869      867.930
01/01/2022  23:41:00     -133.425        8.807       -2.725       41.259       22.626       22.524     1702.299      511.914      507.340        1.030        0.136      133.715       20.663        0.024      327.518       -6.958      867.926
01/01/2022  23:42:00      -37.934        2.499       -0.935       49.697       31.478       25.434     2469.780      990.863      646.876        0.278        0.205       38.016       29.291        0.594      327.557       -6.895      867.919
01/01/2022  23:43:00      -80.911       19.211      -11.128       48.990       37.198       26.537     2400.065     1383.721      704.215        0.576        0.224       83.161       16.384        0.039      327.610       -6.808      867.919
01/01/2022  23:44:00     -108.317       33.581       -3.304       34.539       36.360       22.067     1192.937     1322.058      486.936        0.794        0.150      113.403       20.298        0.032      327.583       -6.850      867.922
01/01/2022  23:45:00     -106.254       -5.322       -5.204       44.890       25.076       21.866     2015.154      628.800      478.107        0.723        0.156      106.387       21.292        0.040      327.590       -6.839      867.916
01/01/2022  23:46:00      -73.679       -2.978       -1.871       51.781       41.677       26.561     2681.295     1736.974      705.501        0.528        0.256       73.739       22.386        0.092      327.611       -6.806      867.902
01/01/2022  23:47:00      -26.755      -12.487      -10.634       51.738       23.700       20.803     2676.790      561.667      432.755        0.233        0.184       29.526       17.944        0.369      327.598       -6.829      867.902
01/01/2022  23:48:00      -46.848       -3.126       -9.424       41.624       35.175       23.039     1732.576     1237.304      530.783        0.290        0.175       46.952       14.967        0.102      327.568       -6.877      867.891
01/01/2022  23:49:00      -71.355      -20.671       -4.575       34.512       33.188       24.358     1191.109     1101.411      593.298        0.421        0.144       74.289       20.109        0.073      327.541       -6.920      867.875
01/01/2022  23:50:00      -42.910        6.727       -1.378       37.787       26.212       19.727     1427.893      687.073      389.160        0.220        0.125       43.434       15.145        0.122      327.496       -6.994      867.863
01/01/2022  23:51:00      -83.598      -15.942       -4.203       34.009       35.464       24.646     1156.601     1257.670      607.441        0.514        0.151       85.105       16.376        0.037      327.451       -7.065      867.864
01/01/2022  23:52:00     -110.393      -38.616      -15.673       32.430       20.454       18.373     1051.689      418.359      337.571        0.787        0.090      116.952       18.443        0.025      327.468       -7.038      867.857
01/01/2022  23:53:00      -71.034      -11.913      -10.086       31.574       32.195       23.516      996.905     1036.529      553.006        0.394        0.129       72.026       19.785        0.075      327.527       -6.943      867.853
01/01/2022  23:54:00      -99.503      -27.863      -16.849       31.897       21.021       16.655     1017.406      441.881      277.378        0.635        0.087      103.330       14.129        0.019      327.447       -7.073      867.842
01/01/2022  23:55:00      -81.959      -21.375      -13.690       20.361       18.500       16.816      414.554      342.246      282.786        0.420        0.052       84.701       12.761        0.023      327.447       -7.073      867.830
01/01/2022  23:56:00      -94.609      -14.486      -12.317       32.420       30.645       24.303     1051.030      939.127      590.646        0.595        0.129       95.712       22.265        0.054      327.448       -7.071      867.812
01/01/2022  23:57:00      -82.771      -13.671       -9.398       34.716       34.375       23.650     1205.227     1181.634      559.311        0.504        0.147       83.893       23.510        0.079      327.500       -6.985      867.808
01/01/2022  23:58:00      -66.982      -12.363       -9.379       59.361       32.038       30.566     3523.721     1026.462      934.307        0.510        0.274       68.114       36.683        0.290      327.511       -6.968      867.803
01/01/2022  23:59:00     -141.604      -20.018      -21.453       34.374       25.495       23.321     1181.599      649.990      543.847        1.164        0.119      143.012        8.588        0.004      327.395       -7.156      867.796
01/02/2022  00:00:00     -103.501       -4.474       -9.477       51.004       40.271       25.454     2601.434     1621.762      647.891        0.785        0.244      103.597       25.081        0.059      327.405       -7.140      867.779
01/02/2022  00:01:00      -41.401      -34.163       -7.605       37.696       29.910       22.647     1421.010      894.584      512.877        0.288        0.141       53.677       16.403        0.093      327.542       -6.918      867.764
01/02/2022  00:02:00      -64.743      -14.478       -4.634       39.885       33.794       21.150     1590.783     1142.040      447.339        0.380        0.159       66.342       19.151        0.083      327.531       -6.937      867.766
01/02/2022  00:03:00      -79.274       -7.320       -1.910       42.777       25.585       15.093     1829.861      654.573      227.811        0.453        0.136       79.612       17.098        0.046      327.449       -7.068      867.761
01/02/2022  00:04:00      -53.330       -6.931        1.913       36.353       32.023       19.934     1321.539     1025.462      397.357        0.282        0.137       53.778       14.008        0.068      327.512       -6.967      867.758
01/02/2022  00:05:00      -16.871       12.231        1.680       28.896       20.694       25.443      834.965      428.228      647.331        0.117        0.096       20.838       13.496        0.419      327.429       -7.102      867.764
01/02/2022  00:06:00      -75.292       -5.949       -8.302       41.994       29.088       24.805     1763.512      846.098      615.297        0.450        0.161       75.526       24.845        0.108      327.397       -7.153      867.772
01/02/2022  00:07:00      -36.534        8.847       -6.010       53.390       27.356       21.930     2850.540      748.356      480.925        0.276        0.204       37.590       22.368        0.354      327.374       -7.190      867.775
01/02/2022  00:08:00      -60.614      -25.044      -12.433       44.888       25.498       21.744     2014.936      650.132      472.797        0.380        0.157       65.584       15.428        0.055      327.391       -7.164      867.779
01/02/2022  00:09:00      -24.134       -2.403        6.663       39.269       26.576       16.643     1542.070      706.268      277.003        0.158        0.126       24.253       17.228        0.505      327.429       -7.102      867.772
01/02/2022  00:10:00      -95.168        2.122      -16.152       30.907       26.981       21.833      955.268      727.975      476.658        0.574        0.108       95.192       10.083        0.011      327.328       -7.265      867.760
01/02/2022  00:11:00      -67.894       10.163       -6.564       41.133       30.839       16.482     1691.953      951.065      271.662        0.383        0.146       68.651       10.375        0.023      327.407       -7.138      867.747
01/02/2022  00:12:00      -36.156       15.266        3.444       39.853       22.826       15.730     1588.242      521.034      247.435        0.195        0.118       39.246       16.037        0.167      327.337       -7.252      867.740
01/02/2022  00:13:00      -52.209       11.767       -4.020       36.330       22.528       17.171     1319.893      507.491      294.831        0.250        0.106       53.519       10.241        0.037      327.363       -7.209      867.736
01/02/2022  00:14:00      -34.424       -1.391       -9.380       36.897       27.860       20.809     1361.391      776.181      433.013        0.192        0.129       34.452       16.523        0.230      327.351       -7.229      867.739
01/02/2022  00:15:00      -56.818      -11.071       -2.897       31.146       25.761       22.271      970.053      663.608      495.981        0.274        0.106       57.887       15.234        0.069      327.423       -7.111      867.743
01/02/2022  00:16:00      -47.314      -19.764      -11.225       27.905       24.226       12.982      778.708      586.910      168.521        0.214        0.077       51.276        8.735        0.029      327.428       -7.103      867.751
01/02/2022  00:17:00      -15.095      -11.923        2.680       24.003       18.938       17.927      576.134      358.665      321.393        0.082        0.063       19.236        8.482        0.194      327.428       -7.101      867.751
01/02/2022  00:18:00      -13.376      -11.011       -4.167       21.127       22.181       16.059      446.355      491.977      257.882        0.076        0.060       17.325       13.292        0.589      327.511       -6.968      867.750
01/02/2022  00:19:00       -1.451        2.339       -4.749       22.928       11.440       13.339      525.691      130.872      177.939        0.043        0.042        2.752        5.487        3.975      327.420       -7.116      867.758
01/02/2022  00:20:00      -30.179        7.048       -9.050       21.844       18.438       19.575      477.166      339.960      383.197        0.112        0.060       30.991       10.107        0.106      327.360       -7.215      867.769
01/02/2022  00:21:00      -35.245       -4.863       -6.014       23.307       31.639       16.971      543.215     1000.998      288.015        0.157        0.092       35.579       14.899        0.175      327.358       -7.216      867.768
01/02/2022  00:22:00       -4.019       10.091       -2.909       23.664       21.829       14.817      559.982      476.490      219.534        0.069        0.063       10.862       14.170        1.702      327.319       -7.280      867.772
01/02/2022  00:23:00      -52.313       -5.896       -7.105       28.463       31.664       24.030      810.158     1002.635      577.433        0.261        0.120       52.644       14.882        0.080      327.308       -7.298      867.779
01/02/2022  00:24:00        3.240       -4.744      -11.434       19.999       20.473       13.726      399.959      419.125      188.408        0.059        0.050        5.745       11.271        3.849      327.312       -7.290      867.772
01/02/2022  00:25:00      -12.816       -1.346      -10.993       16.397       13.066        8.996      268.859      170.709       80.929        0.040        0.026       12.886        4.263        0.109      327.337       -7.250      867.768
01/02/2022  00:26:00      -51.775       -2.711      -10.891       39.042       23.478       17.502     1524.307      551.196      306.326        0.259        0.119       51.846       10.558        0.041      327.283       -7.339      867.766
01/02/2022  00:27:00      -60.029      -12.938       -6.377       36.866       24.566       19.203     1359.115      603.481      368.744        0.307        0.117       61.407       11.368        0.034      327.277       -7.348      867.776
01/02/2022  00:28:00      -89.211        1.122       -7.624       29.886       27.994       23.484      893.172      783.639      551.520        0.512        0.111       89.218       12.923        0.021      327.275       -7.351      867.796
01/02/2022  00:29:00      -69.823      -10.141       -8.796       37.102       22.406       18.901     1376.586      502.031      357.245        0.365        0.112       70.555       17.753        0.063      327.343       -7.243      867.811
01/02/2022  00:30:00      -57.443        4.620       -0.082       42.603       35.483       23.323     1815.043     1259.073      543.956        0.347        0.181       57.628       26.035        0.204      327.319       -7.279      867.802
01/02/2022  00:31:00      -28.382      -36.743      -23.891       27.646       34.536       22.046      764.304     1192.750      486.017        0.258        0.122       46.428       11.836        0.065      327.338       -7.249      867.796
01/02/2022  00:32:00       -5.557      -17.006       -2.654       21.941       28.781       20.120      481.428      828.319      404.833        0.102        0.086       17.891       15.025        0.705      327.342       -7.242      867.794
01/02/2022  00:33:00      -36.401       -4.484       -8.568       38.018       28.367       15.909     1445.344      804.679      253.103        0.196        0.125       36.676        9.517        0.067      327.346       -7.237      867.784
01/02/2022  00:34:00      -48.319       -0.295       -7.541       36.717       29.864       27.402     1348.138      891.850      750.881        0.269        0.150       48.320       21.746        0.203      327.321       -7.276      867.783
01/02/2022  00:35:00      -30.685        2.361       -6.471       65.543       41.790       24.500     4295.931     1746.394      600.264        0.381        0.332       30.776       22.776        0.548      327.329       -7.264      867.778
01/02/2022  00:36:00      -53.183        9.446       -3.601       45.437       39.584       26.159     2064.526     1566.916      684.289        0.362        0.216       54.015       19.538        0.131      327.330       -7.262      867.775
01/02/2022  00:37:00      -62.955       16.120       -5.064       37.639       25.292       20.955     1416.670      639.695      439.103        0.337        0.125       64.986       16.081        0.061      327.344       -7.240      867.770
01/02/2022  00:38:00      -67.870       25.102       -7.948       22.449       20.036       14.830      503.942      401.447      219.931        0.321        0.056       72.363       10.874        0.023      327.308       -7.298      867.752
01/02/2022  00:39:00      -45.978       20.033       -1.175       29.398       18.945       11.844      864.239      358.922      140.290        0.194        0.068       50.153       10.420        0.043      327.353       -7.225      867.752
01/02/2022  00:40:00      -73.311        2.488      -12.205       31.284       36.493       18.132      978.689     1331.727      328.760        0.408        0.132       73.353        9.553        0.017      327.455       -7.062      867.752
01/02/2022  00:41:00      -42.379        0.140       -4.412       45.292       31.613       17.393     2051.359      999.375      302.522        0.258        0.168       42.379       18.783        0.196      327.439       -7.087      867.750
01/02/2022  00:42:00      -51.761      -10.565      -14.984       44.520       22.052       14.689     1982.060      486.280      215.766        0.285        0.134       52.829       17.762        0.113      327.393       -7.160      867.740
01/02/2022  00:43:00      -27.449        4.475        1.226       30.108       29.257       18.247      906.471      855.993      332.960        0.143        0.105       27.811       11.645        0.175      327.405       -7.141      867.734
01/02/2022  00:44:00       -9.444        1.906       -6.064       20.300       21.908       19.767      412.090      479.968      390.747        0.071        0.064        9.635       15.597        2.620      327.434       -7.093      867.721
01/02/2022  00:45:00      -27.600       -6.782       -0.753       29.181       17.844       18.774      851.502      318.398      352.450        0.117        0.076       28.421       14.144        0.248      327.436       -7.092      867.714
01/02/2022  00:46:00      -32.321        8.405        1.541       31.200       32.118       23.112      973.430     1031.540      534.185        0.183        0.127       33.396       19.759        0.350      327.364       -7.207      867.708
01/02/2022  00:47:00      -98.146      -11.316      -11.165       39.032       26.946       22.688     1523.480      726.079      514.742        0.632        0.138       98.796       19.141        0.038      327.305       -7.302      867.692
01/02/2022  00:48:00     -108.306       -4.707       -4.736       29.531       31.043       20.382      872.100      963.639      415.420        0.701        0.113      108.408       13.928        0.017      327.269       -7.361      867.675
01/02/2022  00:49:00     -123.671       -3.547       -5.270       40.351       26.859       22.210     1628.190      721.407      493.265        0.909        0.142      123.722       21.403        0.030      327.208       -7.462      867.662
01/02/2022  00:50:00      -99.922      -11.526       -7.136       41.289       32.868       25.521     1704.746     1080.338      651.314        0.680        0.172      100.585       21.220        0.045      327.189       -7.492      867.686
01/02/2022  00:51:00      -73.687       20.426       -8.756       35.023       39.043       27.822     1226.579     1524.344      774.049        0.472        0.176       76.466       15.245        0.040      327.237       -7.413      867.705
01/02/2022  00:52:00      -36.572        1.729       -9.293       39.751       20.870       18.095     1580.143      435.554      327.445        0.188        0.117       36.613       15.308        0.175      327.275       -7.351      867.723
01/02/2022  00:53:00      -52.218       -7.436       -3.976       54.712       30.962       20.316     2993.403      958.643      412.756        0.358        0.218       52.745       16.995        0.104      327.207       -7.462      867.738
01/02/2022  00:54:00     -140.254       22.518      -12.159       32.140       30.924       20.347     1032.997      956.315      414.002        1.136        0.120      142.050       14.084        0.010      327.181       -7.504      867.739
01/02/2022  00:55:00     -102.433        2.771       -4.417       66.700       36.978       32.349     4448.859     1367.339     1046.443        0.869        0.343      102.470       34.439        0.113      327.179       -7.507      867.739
01/02/2022  00:56:00     -124.212       11.793      -12.177       49.602       37.281       29.629     2460.387     1389.909      877.858        1.022        0.236      124.771       24.361        0.038      327.207       -7.463      867.717
01/02/2022  00:57:00      -69.307        8.954       -0.001       53.067       35.122       29.657     2816.124     1233.586      879.545        0.491        0.246       69.883       26.865        0.148      327.256       -7.384      867.699
01/02/2022  00:58:00      -66.657       18.076       -6.603       42.587       28.102       19.726     1813.634      789.745      389.116        0.390        0.150       69.065       17.669        0.065      327.217       -7.446      867.707
01/02/2022  00:59:00      -75.838       40.176       -8.571       30.246       23.801       26.137      914.812      566.480      683.158        0.480        0.108       85.822       19.031        0.049      327.174       -7.515      867.718
01/02/2022  01:00:00      -76.586       35.233      -14.538       35.143       25.866       26.443     1235.028      669.052      699.240        0.496        0.130       84.302       18.489        0.048      327.175       -7.515      867.728
01/02/2022  01:01:00      -72.774       10.587       -7.821       52.726       34.390       25.637     2779.981     1182.666      657.233        0.504        0.231       73.540       24.739        0.113      327.236       -7.415      867.723
01/02/2022  01:02:00      -48.043      -10.084       -4.478       41.684       35.783       24.280     1737.515     1280.447      589.533        0.302        0.180       49.090       21.436        0.191      327.267       -7.364      867.731
01/02/2022  01:03:00      -56.331        4.319        0.424       44.319       26.748       16.629     1964.211      715.445      276.524        0.307        0.148       56.496       16.354        0.084      327.315       -7.286      867.731
01/02/2022  01:04:00      -46.869       -8.868      -18.783       25.975       27.319       14.845      674.691      746.307      220.381        0.213        0.082       47.700        8.382        0.031      327.304       -7.305      867.725
01/02/2022  01:05:00       -3.489       -0.497       -7.886        9.135        9.224        9.221       83.442       85.085       85.018        0.016        0.013        3.524        5.508        2.443      327.356       -7.220      867.716
01/02/2022  01:06:00      -40.622        3.687       -7.422       27.620       21.828       16.649      762.862      476.463      277.204        0.162        0.076       40.789       10.219        0.063      327.391       -7.164      867.714
01/02/2022  01:07:00      -28.434       -0.233       -0.007       31.138       24.590       18.866      969.603      604.677      355.935        0.137        0.097       28.435       15.653        0.303      327.303       -7.306      867.699
01/02/2022  01:08:00       -7.931        0.064       -5.288       27.990       18.308       16.845      783.413      335.173      283.761        0.075        0.070        7.931       10.963        1.911      327.289       -7.328      867.695
01/02/2022  01:09:00      -52.437        1.717      -15.329       45.319       17.256       16.130     2053.794      297.769      260.172        0.280        0.131       52.465       15.318        0.085      327.332       -7.260      867.694
01/02/2022  01:10:00      -31.833      -11.480       -5.690       42.704       29.103       17.882     1823.589      846.997      319.774        0.208        0.150       33.840       15.475        0.209      327.354       -7.223      867.671
01/02/2022  01:11:00      -31.288       -8.295       -4.528       20.171       18.875       13.821      406.856      356.262      191.026        0.101        0.048       32.369       10.849        0.112      327.350       -7.229      867.647
01/02/2022  01:12:00      -54.667        7.061      -14.987       18.116       20.748       14.033      328.194      430.478      196.924        0.211        0.048       55.121       12.761        0.054      327.387       -7.171      867.632
01/02/2022  01:13:00      -47.488        9.505       -4.442       35.073       21.232       25.062     1230.150      450.793      628.120        0.234        0.115       48.430       19.819        0.167      327.413       -7.128      867.629
01/02/2022  01:14:00       -1.928      -19.641        5.534       33.170       21.715       23.323     1100.277      471.529      543.982        0.127        0.106       19.735       20.243        1.052      327.415       -7.124      867.633
01/02/2022  01:15:00      -19.807      -11.000       -3.159       19.013       15.236       17.535      361.497      232.122      307.473        0.071        0.045       22.657       11.545        0.260      327.389       -7.166      867.646
01/02/2022  01:16:00       -9.523       -5.787       -3.061       19.225       24.199       13.059      369.619      585.576      170.526        0.063        0.056       11.143       11.392        1.045      327.358       -7.216      867.655
01/02/2022  01:17:00      -28.913        6.245      -11.607       36.272       16.429       18.068     1315.631      269.919      326.458        0.146        0.096       29.580        8.454        0.082      327.322       -7.274      867.645
01/02/2022  01:18:00      -44.106       -8.996      -12.196       28.175       19.972       22.081      793.807      398.891      487.566        0.193        0.084       45.014       17.476        0.151      327.308       -7.297      867.634
01/02/2022  01:19:00      -27.623       13.329      -11.796       38.072       24.631       19.670     1449.478      606.664      386.911        0.176        0.122       30.670       17.685        0.332      327.373       -7.193      867.628
01/02/2022  01:20:00      -51.301       -4.438       -7.283       43.330       27.821       20.604     1877.462      774.007      424.531        0.289        0.154       51.493       23.983        0.217      327.429       -7.102      867.629
01/02/2022  01:21:00      -48.915        9.608       -2.782       25.205       20.274       17.012      635.297      411.053      289.409        0.191        0.067       49.850       14.794        0.088      327.349       -7.230      867.636
01/02/2022  01:22:00      -34.400        4.427       -4.108       20.432       26.988       14.178      417.466      728.364      201.024        0.128        0.067       34.684       12.441        0.129      327.352       -7.226      867.638
01/02/2022  01:23:00      -13.837        1.118       -0.098       28.249       23.491       16.312      797.984      551.804      266.094        0.090        0.081       13.882       16.986        1.497      327.434       -7.094      867.635
01/02/2022  01:24:00      -29.224       -9.470        7.744       26.954       21.018       15.696      726.539      441.755      246.355        0.121        0.071       30.720       15.689        0.261      327.395       -7.158      867.647
01/02/2022  01:25:00      -39.907       -2.097      -11.131       35.644       26.499       14.068     1270.464      702.221      197.896        0.195        0.109       39.962       10.923        0.075      327.360       -7.214      867.682
01/02/2022  01:26:00      -18.679       -7.961       -0.303       36.073       18.322       15.538     1301.253      335.695      241.437        0.115        0.094       20.305       15.179        0.559      327.376       -7.188      867.721
01/02/2022  01:27:00      -16.193       -3.155        3.263       32.317       19.202       16.608     1044.402      368.709      275.823        0.099        0.084       16.498       16.701        1.025      327.314       -7.289      867.727
01/02/2022  01:28:00      -26.890        1.535       -2.233       27.549       21.810       18.997      758.953      475.678      360.888        0.116        0.080       26.934       17.106        0.403      327.383       -7.176      867.719
01/02/2022  01:29:00      -19.388        1.227        0.203       29.351       26.141       19.096      861.470      683.370      364.666        0.114        0.095       19.427       11.988        0.381      327.387       -7.170      867.717
01/02/2022  01:30:00      -76.034       -3.970       -0.294       45.979       29.273       19.515     2114.035      856.919      380.821        0.457        0.168       76.137       21.399        0.079      327.320       -7.279      867.731
01/02/2022  01:31:00      -53.453      -20.226       -8.794       40.890       28.180       19.615     1671.976      794.090      384.733        0.310        0.143       57.152       16.950        0.088      327.376       -7.189      867.738
01/02/2022  01:32:00      -86.674       -8.966      -11.996       39.795       25.361       17.378     1583.613      643.186      302.006        0.513        0.126       87.137       16.060        0.034      327.297       -7.316      867.732
01/02/2022  01:33:00      -52.281        4.453        3.161       42.301       24.746       21.094     1789.361      612.343      444.946        0.280        0.142       52.470       22.636        0.186      327.293       -7.322      867.731
01/02/2022  01:34:00      -88.673       11.129       -6.050       27.161       26.999       14.948      737.733      728.958      223.443        0.486        0.085       89.369       15.282        0.029      327.225       -7.433      867.725
01/02/2022  01:35:00      -49.114        6.065       -3.814       33.201       32.930       21.548     1102.313     1084.404      464.305        0.256        0.133       49.487       13.276        0.072      327.199       -7.474      867.716
01/02/2022  01:36:00      -59.210       -7.143       -2.645       49.493       34.957       27.915     2449.550     1222.006      779.255        0.401        0.223       59.639       30.139        0.255      327.267       -7.366      867.713
01/02/2022  01:37:00      -12.024        7.086       -0.957       42.143       25.196       22.435     1776.022      634.838      503.335        0.155        0.146       13.957       22.134        2.515      327.302       -7.306      867.707
01/02/2022  01:38:00      -59.813       -1.276       -1.747       41.235       32.204       19.453     1700.338     1037.080      378.413        0.335        0.156       59.827       15.724        0.069      327.282       -7.340      867.713
01/02/2022  01:39:00      -38.481       19.331       -1.252       35.763       27.648       20.292     1279.027      764.418      411.751        0.216        0.123       43.063       10.698        0.062      327.267       -7.364      867.698
01/02/2022  01:40:00     -115.505       39.212      -14.122       22.028       34.512       18.649      485.221     1191.075      347.784        0.855        0.101      121.980        5.787        0.002      327.261       -7.374      867.685
01/02/2022  01:41:00       -3.977        3.110        1.410       51.337       26.090       20.030     2635.525      680.712      401.206        0.187        0.186        5.049       16.081       10.145      327.290       -7.328      867.682
01/02/2022  01:42:00      -30.694       -3.201       -0.740       49.120       23.064       21.743     2412.810      531.954      472.740        0.218        0.171       30.860       26.187        0.720      327.249       -7.394      867.693
01/02/2022  01:43:00      -58.917       -7.332       -1.957       35.809       32.699       23.224     1282.303     1069.200      539.361        0.321        0.145       59.371       15.503        0.068      327.229       -7.427      867.685
01/02/2022  01:44:00      -72.730       -1.157      -12.975       25.657       27.350       18.453      658.264      748.012      340.518        0.360        0.087       72.740       13.342        0.034      327.258       -7.380      867.655
01/02/2022  01:45:00      -67.233      -13.361        4.713       38.485       25.491       18.037     1481.118      649.791      325.334        0.359        0.123       68.548       17.934        0.068      327.310       -7.295      867.625
01/02/2022  01:46:00      -67.747      -10.545       -0.155       46.520       31.040       26.443     2164.092      963.462      699.215        0.426        0.191       68.562       25.056        0.134      327.198       -7.477      867.633
01/02/2022  01:47:00      -68.873      -13.516       -2.148       51.964       31.676       32.428     2700.309     1003.390     1051.556        0.484        0.238       70.187       27.424        0.153      327.241       -7.407      867.644
01/02/2022  01:48:00      -61.591       -3.604       -4.863       42.569       36.825       26.762     1812.091     1356.115      716.222        0.386        0.194       61.697       22.208        0.130      327.246       -7.398      867.659
01/02/2022  01:49:00     -110.227       -0.027      -10.666       46.442       38.410       25.912     2156.840     1475.323      671.452        0.828        0.215      110.227       15.798        0.021      327.204       -7.467      867.661
01/02/2022  01:50:00      -35.672       -8.776       -2.923       33.085       32.271       21.598     1094.624     1041.405      466.491        0.198        0.130       36.736       19.545        0.283      327.212       -7.455      867.638
01/02/2022  01:51:00     -123.249       12.223       -8.862       59.794       32.449       21.631     3575.336     1052.948      467.906        1.026        0.255      123.853        9.335        0.006      327.147       -7.561      867.622
01/02/2022  01:52:00      -89.712        2.917      -13.681       55.187       39.826       25.806     3045.561     1586.104      665.943        0.677        0.265       89.759        8.704        0.009      327.181       -7.506      867.624
01/02/2022  01:53:00     -101.078       -7.122       -5.009       70.613       38.974       31.142     4986.128     1518.981      969.817        0.888        0.374      101.329       29.702        0.086      327.161       -7.537      867.638
01/02/2022  01:54:00     -140.131        4.434       -0.509       44.173       36.126       24.215     1951.252     1305.094      586.343        1.175        0.192      140.201       22.882        0.027      327.049       -7.719      867.636
01/02/2022  01:55:00      -95.018        8.611       -8.049       54.144       32.993       22.403     2931.621     1088.521      501.878        0.684        0.226       95.407       22.415        0.055      327.005       -7.791      867.621
01/02/2022  01:56:00      -87.881       33.219       -4.607       41.308       26.785       22.082     1706.311      717.414      487.628        0.588        0.146       93.950       22.122        0.055      326.996       -7.806      867.597
01/02/2022  01:57:00      -79.384        5.406      -10.446       46.731       28.195       21.591     2183.790      794.942      466.180        0.494        0.172       79.567       14.938        0.035      327.056       -7.708      867.593
01/02/2022  01:58:00      -62.766      -26.208      -13.199       40.269       30.580       23.125     1621.623      935.142      534.763        0.395        0.155       68.018       18.320        0.073      327.143       -7.566      867.590
01/02/2022  01:59:00      -80.697       -7.986      -14.021       32.031       34.421       23.163     1026.004     1184.832      536.540        0.476        0.137       81.092       17.450        0.046      327.080       -7.668      867.578
01/02/2022  02:00:00      -77.816       -7.087       -0.087       42.997       33.212       22.424     1848.710     1103.050      502.845        0.478        0.173       78.138       17.380        0.049      327.068       -7.689      867.572
01/02/2022  02:01:00      -82.767       -6.410      -15.830       44.014       36.076       24.148     1937.218     1301.470      583.124        0.548        0.191       83.015       21.439        0.067      327.034       -7.743      867.565
01/02/2022  02:02:00      -69.089      -17.656      -10.480       29.301       21.866       25.145      858.527      478.106      632.291        0.358        0.098       71.310       19.426        0.074      327.092       -7.651      867.560
01/02/2022  02:03:00      -63.735       10.461       -8.075       49.134       19.690       21.790     2414.190      387.688      474.818        0.376        0.164       64.588       25.462        0.155      327.109       -7.621      867.557
01/02/2022  02:04:00      -53.968        9.228       -6.869       36.087       28.768       15.881     1302.305      827.578      252.218        0.271        0.119       54.752       10.177        0.035      327.152       -7.552      867.574
01/02/2022  02:05:00      -43.442       -1.389       -9.221       40.152       32.531       22.706     1612.211     1058.272      515.581        0.258        0.159       43.465       21.814        0.252      327.156       -7.545      867.579
01/02/2022  02:06:00      -56.852      -14.624      -10.482       39.578       28.400       19.844     1566.390      806.579      393.802        0.316        0.138       58.703       17.770        0.092      327.220       -7.441      867.572
01/02/2022  02:07:00      -37.945       -1.908       -8.211       32.255       18.798       16.640     1040.412      353.377      276.898        0.159        0.084       37.993       15.088        0.158      327.278       -7.347      867.548
01/02/2022  02:08:00       -9.571       -2.608        3.247       27.391       18.717       18.957      750.263      350.315      359.385        0.078        0.073        9.920       14.198        2.049      327.235       -7.416      867.521
01/02/2022  02:09:00      -84.475       -4.625       -6.895       47.041       28.936       26.343     2212.852      837.312      693.962        0.547        0.187       84.602       25.141        0.088      327.191       -7.488      867.538
01/02/2022  02:10:00      -89.807       -8.274       -3.901       46.479       27.954       20.402     2160.287      781.425      416.261        0.575        0.168       90.187       18.344        0.041      327.204       -7.468      867.562
01/02/2022  02:11:00      -95.187       -2.897      -12.064       52.895       26.154       20.131     2797.926      684.033      405.267        0.655        0.194       95.231       21.030        0.049      327.210       -7.457      867.571
01/02/2022  02:12:00      -96.651        9.400       -2.630       46.627       28.512       23.160     2174.070      812.906      536.368        0.648        0.176       97.107       20.851        0.046      327.196       -7.481      867.556
01/02/2022  02:13:00      -61.139      -12.673       -5.023       43.326       23.796       20.910     1877.172      566.271      437.245        0.340        0.144       62.438       21.465        0.118      327.247       -7.396      867.526
01/02/2022  02:14:00      -51.624        2.814       -6.524       30.545       35.513       19.316      933.015     1261.183      373.103        0.264        0.128       51.701       12.715        0.060      327.192       -7.486      867.529
01/02/2022  02:15:00      -55.473       13.971       -8.438       43.192       28.125       22.374     1865.539      791.005      500.616        0.325        0.158       57.205       15.071        0.069      327.194       -7.484      867.546
01/02/2022  02:16:00      -52.243        7.780       -3.468       35.041       33.250       24.257     1227.875     1105.552      588.425        0.286        0.146       52.819       23.313        0.195      327.134       -7.580      867.559
01/02/2022  02:17:00      -21.976        4.836        4.787       37.499       24.650       22.608     1406.196      607.608      511.121        0.153        0.126       22.502       18.011        0.641      327.113       -7.616      867.579
01/02/2022  02:18:00      -53.343        8.795       -6.213       34.379       28.148       25.414     1181.903      792.295      645.888        0.279        0.131       54.063       19.224        0.126      327.076       -7.676      867.586
01/02/2022  02:19:00      -23.487        0.377       -2.431       34.321       27.845       21.242     1177.929      775.370      451.233        0.148        0.120       23.490       20.427        0.756      327.127       -7.592      867.577
01/02/2022  02:20:00        9.801       -8.984       -4.308       24.867       21.529       16.471      618.347      463.516      271.292        0.077        0.068       13.295       11.331        0.726      327.170       -7.523      867.576
01/02/2022  02:21:00      -44.892        3.262       -7.085       37.757       21.523       14.843     1425.595      463.226      220.318        0.209        0.105       45.010       16.055        0.127      327.231       -7.423      867.584
01/02/2022  02:22:00       -7.525        3.652        3.174       21.357       17.731       11.224      456.143      314.406      125.971        0.049        0.045        8.364       11.053        1.746      327.233       -7.420      867.582
01/02/2022  02:23:00      -12.612       23.086        2.140       35.635       17.307       13.558     1269.827      299.525      183.809        0.122        0.088       26.307       10.987        0.174      327.289       -7.328      867.576
01/02/2022  02:24:00      -13.325        1.048       -4.146       20.206       11.912       14.135      408.296      141.891      199.784        0.047        0.037       13.366        8.162        0.373      327.135       -7.579      867.554
01/02/2022  02:25:00       -2.028        2.174       -4.077        8.535       14.468        8.312       72.853      209.320       69.091        0.019        0.018        2.974        4.346        2.136      327.126       -7.593      867.552
01/02/2022  02:26:00      -37.628       15.252       -4.896       21.106       21.731       13.316      445.482      472.239      177.315        0.138        0.055       40.601        7.161        0.031      327.218       -7.444      867.588
01/02/2022  02:27:00      -39.150        9.504       -3.231       24.313       20.055       15.931      591.129      402.215      253.796        0.144        0.062       40.287        9.013        0.050      327.165       -7.531      867.602
01/02/2022  02:28:00      -10.588       -1.939       -4.399       32.789       11.019        9.553     1075.088      121.425       91.256        0.071        0.064       10.764       10.480        0.948      327.239       -7.411      867.586
01/02/2022  02:29:00       -5.780      -15.795       -5.911       22.302       20.860       13.718      497.372      435.129      188.172        0.072        0.056       16.819        9.196        0.299      327.289       -7.329      867.583
01/02/2022  02:30:00      -24.535      -12.585       -1.445       35.151       19.669       16.111     1235.595      386.883      259.555        0.132        0.094       27.574       10.229        0.138      327.229       -7.425      867.597
01/02/2022  02:31:00       18.165       -1.590       10.314       12.898       17.698       13.809      166.360      313.221      190.687        0.055        0.034       18.235        8.296        0.207      327.225       -7.435      867.608
01/02/2022  02:32:00      -20.344        4.878       -4.847       48.016       29.295       25.510     2305.526      858.171      650.776        0.214        0.191       20.920       22.529        1.160      327.138       -7.575      867.614
01/02/2022  02:33:00        5.579       -8.509        7.442       34.654       27.699       23.731     1200.916      767.230      563.145        0.134        0.127       10.175       16.164        2.524      327.056       -7.708      867.603
01/02/2022  02:34:00      -72.576       17.023      -12.931       44.234       30.707       20.029     1956.667      942.940      401.150        0.451        0.165       74.546       20.233        0.074      327.039       -7.737      867.581
01/02/2022  02:35:00      -50.600       18.651      -10.055       30.478       29.863       19.527      928.926      891.817      381.304        0.261        0.110       53.928        6.562        0.015      327.106       -7.626      867.585
01/02/2022  02:36:00     -112.846       20.002       -5.980       37.166       28.056       21.503     1381.311      787.115      462.400        0.790        0.132      114.605       21.618        0.036      327.126       -7.596      867.598
01/02/2022  02:37:00      -84.764       22.896       -4.619       38.779       30.264       21.009     1503.772      915.894      441.367        0.530        0.143       87.802       20.867        0.056      327.094       -7.645      867.623
01/02/2022  02:38:00      -87.677        4.357       -8.611       48.132       39.528       26.641     2316.689     1562.452      709.720        0.618        0.229       87.785       25.530        0.085      327.097       -7.641      867.630
01/02/2022  02:39:00      -54.658        7.840        4.606       49.501       29.323       15.365     2450.316      859.817      236.089        0.331        0.177       55.217       20.157        0.133      327.055       -7.709      867.610
01/02/2022  02:40:00      -12.691      -22.192        1.489       31.867       18.439       11.903     1015.481      340.007      141.684        0.108        0.075       25.564       13.388        0.274      327.133       -7.582      867.588
01/02/2022  02:41:00      -36.208        2.559       -8.575       37.424       21.401       17.758     1400.520      458.016      315.356        0.178        0.109       36.298       13.307        0.134      327.140       -7.572      867.586
01/02/2022  02:42:00      -52.864        0.868       -9.101       25.860       26.410       17.275      668.735      697.483      298.408        0.227        0.083       52.871       10.157        0.037      327.118       -7.608      867.594
01/02/2022  02:43:00      -45.913       -7.479       -7.441       44.153       28.793       22.670     1949.505      829.038      513.944        0.276        0.165       46.518       22.788        0.240      327.075       -7.677      867.599
01/02/2022  02:44:00      -43.025       -9.593        1.149       43.438       34.799       25.202     1886.860     1210.962      635.152        0.284        0.187       44.081       23.756        0.290      326.979       -7.832      867.586
01/02/2022  02:45:00      -34.315      -11.709       -2.916       52.466       32.717       24.673     2752.642     1070.414      608.777        0.288        0.222       36.258       24.901        0.472      326.954       -7.872      867.552
01/02/2022  02:46:00      -77.682      -19.897      -14.817       22.240       29.926       25.902      494.621      895.573      670.897        0.436        0.103       80.190       13.307        0.028      326.996       -7.805      867.520
01/02/2022  02:47:00      -67.338       29.337       -5.200       29.705       22.134       17.133      882.413      489.896      293.531        0.354        0.083       73.451       13.085        0.032      326.952       -7.876      867.518
01/02/2022  02:48:00      -42.479      -19.506       -0.222       46.997       33.447       30.838     2208.697     1118.695      950.987        0.323        0.214       46.743       25.365        0.294      326.957       -7.867      867.549
01/02/2022  02:49:00      -28.408       11.110        2.821       33.050       40.829       22.458     1092.321     1666.972      504.347        0.210        0.163       30.503       13.456        0.195      326.982       -7.828      867.558
01/02/2022  02:50:00      -26.142        0.680       -3.516       32.364       28.897       16.723     1047.445      835.018      279.661        0.143        0.108       26.150       11.421        0.191      326.985       -7.823      867.546
01/02/2022  02:51:00      -27.503       -2.025       -1.175       29.160       30.077       18.895      850.333      904.638      357.036        0.144        0.106       27.578       12.008        0.190      326.988       -7.818      867.532
01/02/2022  02:52:00      -37.484      -10.462       -2.032       42.538       17.416       17.370     1809.459      303.333      301.727        0.197        0.121       38.917       18.999        0.238      326.943       -7.891      867.533
01/02/2022  02:53:00      -79.696      -13.512       -8.101       29.758       27.311       27.640      885.530      745.889      763.950        0.450        0.120       80.833       23.325        0.083      327.017       -7.770      867.539
01/02/2022  02:54:00      -93.871        2.539      -12.703       23.074       26.136       19.394      532.399      683.101      376.139        0.529        0.080       93.905       14.276        0.023      327.047       -7.720      867.550
01/02/2022  02:55:00     -102.707        3.441      -13.579       26.522       29.368       18.619      703.441      862.498      346.686        0.633        0.096      102.765       13.487        0.017      327.012       -7.780      867.536
01/02/2022  02:56:00      -61.619        6.112      -11.340       29.770       26.987       20.932      886.229      728.321      438.133        0.301        0.103       61.922       14.372        0.054      327.032       -7.747      867.516
01/02/2022  02:57:00      -56.429       21.510      -11.418       16.835       21.472       11.820      283.421      461.047      139.718        0.233        0.044       60.389        9.609        0.025      327.079       -7.671      867.481
01/02/2022  02:58:00      -50.398       27.953       -5.520       18.946       18.536       12.508      358.957      343.569      156.445        0.211        0.043       57.630       10.795        0.035      327.037       -7.739      867.466
01/02/2022  02:59:00      -65.815        3.021       -1.276       46.249       26.465       21.580     2139.005      700.396      465.694        0.382        0.165       65.884       23.120        0.123      327.074       -7.678      867.472
01/02/2022  03:00:00      -11.137       -8.669       -9.910       37.075       33.791       25.928     1374.526     1141.814      672.257        0.174        0.159       14.114       17.079        1.464      327.179       -7.507      867.489
01/02/2022  03:01:00      -50.525       11.763       -5.608       41.303       29.416       21.782     1705.899      865.297      474.451        0.288        0.152       51.876       19.032        0.135      327.133       -7.582      867.471
01/02/2022  03:02:00      -69.564       26.962        1.808       46.473       41.960       26.160     2159.721     1760.681      684.344        0.509        0.230       74.607       21.447        0.083      327.009       -7.783      867.446
01/02/2022  03:03:00      -55.595       -1.849      -15.481       38.732       40.030       26.638     1500.180     1602.365      709.605        0.357        0.191       55.626       15.622        0.079      327.024       -7.761      867.448
01/02/2022  03:04:00      -78.381      -13.932       -9.314       58.923       39.232       25.380     3471.870     1539.157      644.128        0.604        0.283       79.609       28.522        0.128      327.031       -7.747      867.474
01/02/2022  03:05:00      -42.461        4.453       -1.558       39.218       31.770       25.706     1538.076     1009.355      660.816        0.252        0.160       42.694       21.991        0.265      327.032       -7.746      867.488
01/02/2022  03:06:00      -40.071       -2.325        0.299       47.052       33.505       23.915     2213.900     1122.599      571.922        0.276        0.195       40.139       24.796        0.382      327.038       -7.737      867.478
01/02/2022  03:07:00      -33.121       -9.153       -3.003       52.054       16.781       22.750     2709.655      281.595      517.560        0.235        0.175       34.363       26.887        0.612      327.058       -7.703      867.449
01/02/2022  03:08:00      -20.600      -23.905       -9.330       23.843       13.509       17.542      568.494      182.488      307.718        0.107        0.053       31.556       15.866        0.253      327.138       -7.573      867.407
01/02/2022  03:09:00      -42.613      -26.357      -24.901       25.617       19.155       12.241      656.243      366.915      149.830        0.215        0.059       50.105        8.123        0.026      327.116       -7.609      867.419
01/02/2022  03:10:00      -46.552      -13.836      -11.250       33.718       16.499       18.760     1136.882      272.219      351.955        0.212        0.088       48.565       13.735        0.080      327.063       -7.697      867.432
01/02/2022  03:11:00      -77.007      -10.010      -16.639       34.697       15.473       18.235     1203.860      239.424      332.524        0.404        0.089       77.655       16.454        0.045      327.040       -7.734      867.414
01/02/2022  03:12:00      -37.891       -8.207       -5.280       44.801       26.732       24.683     2007.115      714.607      609.244        0.243        0.167       38.769       23.616        0.371      327.012       -7.778      867.375
01/02/2022  03:13:00      -30.587       -9.510       -5.428       41.348       26.071       22.751     1709.655      679.675      517.627        0.198        0.145       32.032       17.461        0.297      326.977       -7.837      867.342
01/02/2022  03:14:00      -51.698        6.972       -3.864       24.174       22.123       18.192      584.367      489.448      330.934        0.207        0.070       52.166        8.923        0.029      326.971       -7.846      867.333
01/02/2022  03:15:00      -78.837       -3.382      -18.808       32.585       23.377       19.205     1061.760      546.505      368.843        0.428        0.099       78.909        8.746        0.012      326.957       -7.866      867.330
01/02/2022  03:16:00      -36.091        3.460       -4.280       29.036       19.310       16.862      843.066      372.880      284.331        0.142        0.075       36.257       15.077        0.173      326.923       -7.922      867.328
01/02/2022  03:17:00      -29.765       -7.649       -7.107       17.561       14.861       11.180      308.381      220.854      124.986        0.082        0.033       30.732        8.939        0.085      327.054       -7.712      867.322
01/02/2022  03:18:00       -2.429        4.497       -8.120       11.782       13.244        7.419      138.806      175.394       55.036        0.023        0.018        5.111        4.691        0.843      327.037       -7.739      867.326
01/02/2022  03:19:00        3.274        9.933        2.455        7.312       14.094        8.722       53.469      198.632       76.073        0.022        0.016       10.459        7.214        0.476      327.023       -7.763      867.330
01/02/2022  03:20:00      -12.949      -10.895       -5.233       16.083       14.856       11.096      258.648      220.713      123.131        0.046        0.030       16.923        5.248        0.096      327.145       -7.564      867.341
01/02/2022  03:21:00      -15.113        6.222       -4.272       24.810       14.298       12.999      615.547      204.420      168.976        0.064        0.049       16.344        5.336        0.107      327.093       -7.648      867.363
01/02/2022  03:22:00        5.597      -15.291       -7.523       24.574       15.413       17.068      603.874      237.571      291.329        0.073        0.057       16.283       11.238        0.476      327.124       -7.597      867.358
01/02/2022  03:23:00       -3.497        5.956       -3.632       14.111       14.841       10.083      199.125      220.252      101.661        0.029        0.026        6.906        6.505        0.887      327.093       -7.647      867.334
01/02/2022  03:24:00      -23.646       -0.668      -14.271       25.262       21.649        7.140      638.187      468.695       50.978        0.096        0.058       23.655        6.366        0.072      327.029       -7.752      867.315
01/02/2022  03:25:00      -22.602      -11.335       -7.154       17.618       21.303       14.114      310.394      453.815      199.216        0.083        0.048       25.285        7.356        0.085      327.057       -7.705      867.319
01/02/2022  03:26:00       -1.032      -21.861       -5.946        9.211       22.484       10.402       84.845      505.537      108.201        0.061        0.035       21.886        8.147        0.139      327.024       -7.759      867.304
01/02/2022  03:27:00       -4.516      -15.677       -9.732       10.788       13.109       13.587      116.389      171.839      184.598        0.042        0.024       16.315        2.944        0.033      327.035       -7.741      867.289
01/02/2022  03:28:00       -2.960       -9.739        0.525       11.096       15.522       12.869      123.127      240.936      165.609        0.032        0.026       10.179        7.283        0.512      327.056       -7.709      867.294
01/02/2022  03:29:00       -7.925       -2.116       -7.767       13.217       11.847       12.810      174.688      140.357      164.090        0.030        0.024        8.203        7.839        0.913      327.003       -7.794      867.318
01/02/2022  03:30:00      -18.066       12.792       -4.204       17.371       12.305       10.623      301.768      151.409      112.848        0.054        0.028       22.136        8.462        0.146      327.001       -7.797      867.312
01/02/2022  03:31:00      -20.827       11.970       -8.529       12.123       10.368        8.773      146.955      107.494       76.960        0.049        0.017       24.022        5.184        0.047      326.922       -7.924      867.266
01/02/2022  03:32:00      -29.745        1.249      -16.531       19.976       21.951       10.303      399.041      481.833      106.160        0.107        0.049       29.771        6.149        0.043      326.956       -7.869      867.233
01/02/2022  03:33:00       -8.904      -11.645       -5.962       16.748       18.462       14.568      280.491      340.838      212.234        0.054        0.042       14.659       13.098        0.798      327.029       -7.751      867.252
01/02/2022  03:34:00      -11.832       -1.789        0.280       15.745       12.843       11.263      247.896      164.930      126.849        0.034        0.027       11.967        7.416        0.384      327.019       -7.768      867.273
01/02/2022  03:35:00      -23.955       -0.644       -4.761       18.206       22.577       16.883      331.461      509.742      285.048        0.086        0.056       23.963       11.026        0.212      326.988       -7.818      867.252
01/02/2022  03:36:00      -15.048       -4.566       -4.832       29.706       16.703       21.150      882.446      278.991      447.321        0.094        0.080       15.726       21.004        1.784      326.982       -7.826      867.195
01/02/2022  03:37:00      -16.657       22.435        1.658       14.130       13.350       10.241      199.654      178.209      104.884        0.063        0.024       27.943        6.247        0.050      326.949       -7.881      867.137
01/02/2022  03:38:00      -51.309        7.279       -7.590       19.723       14.434       13.637      389.010      208.344      185.972        0.176        0.039       51.823       11.214        0.047      326.996       -7.806      867.122
01/02/2022  03:39:00      -52.194       12.299       -7.398       23.295       24.173       16.909      542.642      584.338      285.930        0.217        0.071       53.624       11.715        0.048      327.031       -7.747      867.121
01/02/2022  03:40:00      -17.649        2.096      -13.410        9.543       15.137        8.949       91.064      229.126       80.080        0.045        0.020       17.773        5.453        0.094      327.032       -7.747      867.095
01/02/2022  03:41:00       -2.988       21.453       -3.748        8.983        6.622        5.551       80.690       43.849       30.812        0.032        0.008       21.660        4.433        0.042      326.909       -7.945      867.071
01/02/2022  03:42:00      -43.031       30.656      -14.677       17.320       11.913       11.027      299.977      141.924      121.594        0.179        0.028       52.835        9.084        0.030      326.952       -7.875      867.051
01/02/2022  03:43:00      -30.616        2.885      -14.574       20.146       17.222       12.013      405.855      296.610      144.319        0.100        0.042       30.751        5.875        0.036      326.983       -7.825      867.036
01/02/2022  03:44:00        5.842       -8.558       -2.282       14.221       18.717       13.629      202.236      350.337      185.759        0.043        0.037       10.362        6.376        0.379      326.985       -7.822      867.035
01/02/2022  03:45:00        9.324       -4.711       -7.941       14.580       17.845       11.186      212.566      318.437      125.132        0.041        0.033       10.447        8.998        0.742      327.046       -7.724      867.042
01/02/2022  03:46:00      -10.976       -5.889       -6.112       18.970       14.311       13.110      359.844      204.812      171.863        0.046        0.037       12.456       11.050        0.787      326.948       -7.881      867.053
01/02/2022  03:47:00       -5.212       -3.190       -0.693       13.390       19.020       12.252      179.288      361.767      150.118        0.036        0.035        6.110        8.227        1.813      326.989       -7.814      867.069
01/02/2022  03:48:00       -8.283      -10.278        3.400       22.152       21.954       17.506      490.720      481.961      306.471        0.073        0.064       13.200       10.726        0.660      326.962       -7.859      867.074
01/02/2022  03:49:00      -13.240        0.550        6.384       26.733       18.956       14.138      714.634      359.341      199.879        0.074        0.064       13.251        9.215        0.484      326.947       -7.884      867.090
01/02/2022  03:50:00      -34.953        4.776       -0.355       35.428       27.507       15.990     1255.158      756.612      255.671        0.176        0.113       35.278       15.559        0.195      326.934       -7.907      867.092
01/02/2022  03:51:00      -25.425       -7.413       -0.357       22.029       11.989       14.687      485.292      143.744      215.716        0.077        0.042       26.483        2.177        0.007      327.006       -7.789      867.087
01/02/2022  03:52:00      -71.842       -8.658       -1.615       58.246       30.401       25.694     3392.619      924.244      660.190        0.511        0.249       72.362       30.253        0.175      327.002       -7.794      867.100
01/02/2022  03:53:00     -144.576      -10.283      -25.789       52.112       39.761       35.382     2715.619     1580.907     1251.889        1.361        0.277      144.942       25.118        0.030      326.891       -7.974      867.101
01/02/2022  03:54:00      -66.227        2.135      -10.550       52.735       41.627       28.793     2781.013     1732.773      829.024        0.492        0.267       66.262       24.825        0.140      326.831       -8.072      867.093
01/02/2022  03:55:00      -60.603      -13.056       -6.468       49.632       46.567       34.893     2463.330     2168.524     1217.523        0.487        0.292       61.994       23.290        0.141      326.771       -8.170      867.088
01/02/2022  03:56:00     -102.923       -3.167       -3.775       67.054       40.286       35.702     4496.291     1622.930     1274.619        0.900        0.370      102.972       23.505        0.052      326.733       -8.232      867.102
01/02/2022  03:57:00     -171.112      -10.841       -7.742       43.570       34.126       26.477     1898.364     1164.618      701.043        1.661        0.188      171.455       26.087        0.023      326.709       -8.271      867.108
01/02/2022  03:58:00     -120.975       19.204      -14.137       28.761       19.760       13.022      827.199      390.444      169.582        0.830        0.069      122.490        6.237        0.003      326.726       -8.243      867.089
01/02/2022  03:59:00      -58.270       30.530      -15.475       18.838       19.757       14.675      354.884      390.349      215.342        0.276        0.048       65.783        7.304        0.012      326.723       -8.248      867.072
01/02/2022  04:00:00      -54.650        2.963       -6.133       58.341       40.925       21.047     3403.630     1674.832      442.957        0.428        0.276       54.730       16.450        0.090      326.750       -8.203      867.101
01/02/2022  04:01:00      -79.125       21.332       -4.630       35.347       21.864       16.599     1249.414      478.031      275.535        0.437        0.100       81.951        7.937        0.009      326.673       -8.329      867.099
01/02/2022  04:02:00      -29.443      -12.134        4.674       19.912       25.692       17.310      396.496      660.074      299.646        0.120        0.068       31.846       12.612        0.157      326.832       -8.070      867.057
01/02/2022  04:03:00      -56.247       35.612       -9.568       20.380       12.419       15.202      415.340      154.220      231.102        0.266        0.040       66.573       12.013        0.033      326.704       -8.278      867.001
01/02/2022  04:04:00      -85.955       19.352      -15.804       29.018       18.775       17.616      842.062      352.508      310.323        0.476        0.075       88.106       13.799        0.025      326.713       -8.264      866.994
01/02/2022  04:05:00      -81.856       12.264      -11.480       33.030       19.296       14.868     1090.973      372.319      221.069        0.433        0.084       82.769       11.729        0.020      326.711       -8.268      867.021
01/02/2022  04:06:00      -79.271       16.852      -10.932       16.732       25.289       17.298      279.967      639.551      299.218        0.395        0.061       81.042        9.856        0.015      326.736       -8.228      867.024
01/02/2022  04:07:00      -58.056       21.977       -7.719       25.126       17.894       14.527      631.333      320.182      211.044        0.254        0.058       62.076        9.705        0.024      326.740       -8.223      866.984
01/02/2022  04:08:00      -84.345       23.986       -9.515       35.560       18.610       17.336     1264.492      346.338      300.552        0.485        0.096       87.689       19.307        0.048      326.657       -8.354      866.948
01/02/2022  04:09:00      -69.028       21.627       -4.866       34.473       25.986       18.644     1188.390      675.254      347.582        0.373        0.111       72.337       13.247        0.034      326.621       -8.413      866.949
01/02/2022  04:10:00      -71.807       31.342      -14.541       14.840       16.341       12.490      220.222      267.035      156.005        0.350        0.032       78.349        4.762        0.004      326.608       -8.434      866.979
01/02/2022  04:11:00      -40.827       46.596       -7.765       25.613       19.799       11.087      656.017      391.993      122.926        0.253        0.059       61.952       10.482        0.029      326.682       -8.314      866.998
01/02/2022  04:12:00      -40.560       36.629      -14.569       21.272       20.249       16.891      452.513      410.038      285.320        0.217        0.057       54.652       13.125        0.058      326.799       -8.123      866.992
01/02/2022  04:13:00      -47.354        1.879      -13.748       27.068       27.851       20.851      732.686      775.669      434.755        0.219        0.097       47.391       16.954        0.128      326.679       -8.319      866.993
01/02/2022  04:14:00      -63.671       13.144      -16.952       43.687       21.646       18.869     1908.554      468.552      356.037        0.362        0.137       65.014       11.149        0.029      326.737       -8.225      866.984
01/02/2022  04:15:00     -105.615       27.484       -9.837       29.892       23.480       14.550      893.561      551.291      211.708        0.683        0.083      109.133       15.647        0.021      326.577       -8.485      866.972
01/02/2022  04:16:00      -60.498        9.817       -2.259       42.592       20.870       16.420     1814.069      435.554      269.605        0.314        0.126       61.289       19.291        0.099      326.645       -8.374      867.001
01/02/2022  04:17:00      -85.035       12.809       -6.927       29.190       27.498       14.760      852.078      756.151      217.858        0.463        0.091       85.995       14.340        0.028      326.772       -8.167      867.038
01/02/2022  04:18:00      -32.168       12.949      -12.804       15.659       14.276       12.324      245.204      203.803      151.892        0.098        0.030       34.676        9.282        0.072      326.728       -8.239      867.040
01/02/2022  04:19:00      -22.513       25.487      -17.650       11.254       13.615       11.841      126.646      185.367      140.207        0.096        0.023       34.006        6.604        0.038      326.767       -8.174      867.007
01/02/2022  04:20:00      -24.086       29.354       -5.821       22.812       11.069        9.431      520.393      122.519       88.947        0.110        0.037       37.971        8.051        0.045      326.808       -8.109      866.981
01/02/2022  04:21:00      -66.845       15.586      -16.767        9.629       13.641       13.702       92.714      186.066      187.750        0.273        0.023       68.638        5.349        0.006      326.905       -7.953      866.974
01/02/2022  04:22:00      -49.226       12.208       -6.141       12.810       11.321        9.778      164.085      128.172       95.609        0.150        0.019       50.717        5.283        0.011      326.863       -8.020      866.969
01/02/2022  04:23:00      -24.917       11.960       -6.093       16.643       14.256       10.681      276.976      203.247      114.086        0.070        0.030       27.639       10.385        0.141      326.862       -8.021      866.960
01/02/2022  04:24:00      -41.282        4.490       -7.045       45.106       23.483       17.350     2034.584      551.457      301.033        0.233        0.144       41.526       15.580        0.141      326.814       -8.099      866.981
01/02/2022  04:25:00     -113.717       38.045      -14.924       31.646       28.254       13.359     1001.443      798.314      178.462        0.829        0.099      119.912        9.648        0.006      326.744       -8.215      866.989
01/02/2022  04:26:00      -71.770       28.730       -7.839       29.590       27.827       17.711      875.540      774.323      313.695        0.400        0.098       77.307        8.990        0.014      326.775       -8.163      866.975
01/02/2022  04:27:00      -87.223       15.881       -8.585       32.565       18.595       19.183     1060.470      345.783      368.000        0.485        0.089       88.657       14.595        0.027      326.937       -7.899      866.993
01/02/2022  04:28:00     -112.156       33.066      -12.865       44.660       28.864       18.102     1994.495      833.103      327.679        0.850        0.158      116.929        9.456        0.007      326.859       -8.027      867.031
01/02/2022  04:29:00      -27.934       19.280        0.599       20.325       25.904       15.403      413.087      671.020      237.238        0.124        0.066       33.941        9.585        0.080      326.746       -8.211      867.020
01/02/2022  04:30:00      -16.099        1.903       -1.625       19.030       15.206       11.438      362.147      231.214      130.823        0.049        0.036       16.212        8.530        0.277      326.865       -8.016      867.009
01/02/2022  04:31:00      -27.472        9.056       -0.758       35.235       17.372       17.160     1241.539      301.777      294.455        0.134        0.092       28.926       10.351        0.128      326.952       -7.876      867.064
01/02/2022  04:32:00      -16.954        6.114        3.986       31.004       14.991       15.382      961.248      224.730      236.602        0.088        0.071       18.023        8.190        0.207      326.857       -8.031      867.085
01/02/2022  04:33:00      -14.523       10.796      -10.179       16.334        7.674        6.616      266.809       58.887       43.769        0.040        0.018       18.096        3.614        0.040      326.931       -7.910      867.032
01/02/2022  04:34:00      -22.164       17.395       -4.776       12.811       11.591        9.039      164.123      134.351       81.695        0.060        0.019       28.175        4.962        0.031      326.964       -7.857      866.993
01/02/2022  04:35:00      -32.554       29.266       -1.353       33.206       19.554       14.581     1102.640      382.343      212.602        0.181        0.085       43.775        7.974        0.033      326.930       -7.911      866.996
01/02/2022  04:36:00       -2.664      -13.151      -14.299       25.467       20.999       14.791      648.546      440.969      218.771        0.085        0.065       13.419       10.535        0.616      326.944       -7.890      867.035
01/02/2022  04:37:00      -21.798        5.175       -4.359       17.358       22.065       11.547      301.305      486.875      133.328        0.072        0.046       22.404       11.584        0.267      326.986       -7.822      867.045
01/02/2022  04:38:00      -22.742        4.110      -11.887       14.725       13.333        9.564      216.812      177.778       91.470        0.058        0.024       23.111        5.440        0.055      326.938       -7.899      866.987
01/02/2022  04:39:00       -3.824       -5.702       -6.986       21.953       16.649       16.922      481.930      277.201      286.361        0.057        0.052        6.865       11.471        2.792      326.925       -7.920      866.964
01/02/2022  04:40:00      -61.088       -4.871       -7.649       41.000       38.871       23.399     1680.980     1510.985      547.494        0.378        0.187       61.282        9.847        0.026      326.866       -8.016      866.991
01/02/2022  04:41:00      -61.433       13.645       -8.501       36.891       19.655       22.869     1360.941      386.310      522.992        0.315        0.114       62.930       12.928        0.042      326.793       -8.132      866.977
01/02/2022  04:42:00      -32.947      -19.171       -9.998       23.506       26.406       15.992      552.519      697.259      255.743        0.153        0.075       38.119       13.998        0.135      326.901       -7.959      866.964
01/02/2022  04:43:00      -26.226      -24.138      -21.753       21.136       23.577       21.674      446.710      555.853      469.773        0.161        0.074       35.643       15.188        0.182      326.880       -7.992      866.965
01/02/2022  04:44:00      -17.081        7.705       -8.453       18.151       17.114       12.764      329.465      292.891      162.926        0.060        0.039       18.739        5.824        0.097      326.887       -7.982      866.980
01/02/2022  04:45:00      -34.431       13.251       -5.238       27.483       17.377       18.094      755.320      301.948      327.405        0.139        0.069       36.893       13.990        0.144      326.816       -8.096      866.962
01/02/2022  04:46:00      -18.276       -6.200       -1.552       24.728       20.464       13.856      611.465      418.793      191.996        0.080        0.061       19.300        9.728        0.254      326.749       -8.205      866.964
01/02/2022  04:47:00        8.413      -14.495       -4.274       16.123       14.091       13.279      259.962      198.563      176.329        0.047        0.032       16.760        9.885        0.348      326.805       -8.116      866.995
01/02/2022  04:48:00      -12.763       -0.938       -2.368       21.593       22.800       14.358      466.247      519.846      206.139        0.068        0.060       12.797       11.062        0.747      326.866       -8.016      867.029
01/02/2022  04:49:00      -46.261       13.631       -0.825       31.027       19.719       15.411      962.680      388.833      237.490        0.196        0.079       48.228       14.538        0.091      326.919       -7.929      867.033
01/02/2022  04:50:00      -75.699       17.015       -9.940       16.875       19.591       14.929      284.749      383.821      222.865        0.350        0.045       77.588       11.734        0.023      326.817       -8.096      867.025
01/02/2022  04:51:00      -37.783       -5.286      -13.228       42.080       20.381       18.372     1770.696      415.397      337.543        0.208        0.126       38.151       10.884        0.081      326.827       -8.080      867.060
01/02/2022  04:52:00      -24.857       11.342       -3.209       37.855       19.965       19.723     1432.983      398.582      388.994        0.149        0.111       27.323       13.366        0.239      326.817       -8.094      867.101
01/02/2022  04:53:00      -73.997       -9.056       -2.221       33.481       22.108       21.416     1120.972      488.743      458.656        0.382        0.103       74.549       14.832        0.040      326.851       -8.039      867.078
01/02/2022  04:54:00      -49.497       48.756      -12.947       18.170       19.521       10.993      330.162      381.070      120.837        0.291        0.042       69.477       10.835        0.024      326.804       -8.115      867.006
01/02/2022  04:55:00      -36.044       49.382      -10.157       26.050       17.313       11.150      678.622      299.751      124.330        0.247        0.055       61.137        4.839        0.006      326.804       -8.115      866.960
01/02/2022  04:56:00      -22.391       -7.218       -5.914       21.874       29.989       16.756      478.489      899.321      280.771        0.112        0.083       23.525       15.045        0.409      326.861       -8.024      867.002
01/02/2022  04:57:00        4.118      -29.661      -18.320       40.475       22.354       18.136     1638.250      499.686      328.898        0.185        0.123       29.945       11.054        0.136      326.955       -7.870      867.015
01/02/2022  04:58:00        7.623       23.960       -3.270       18.848       17.479       15.175      355.255      305.504      230.286        0.077        0.045       25.144        8.088        0.103      326.948       -7.882      866.967
01/02/2022  04:59:00      -29.910       18.056      -13.011       31.149       27.233       16.221      970.286      741.635      263.120        0.168        0.099       34.937       17.201        0.242      326.950       -7.877      866.971
01/02/2022  05:00:00      -17.797      -22.105        1.431       36.200       24.546       21.544     1310.449      602.512      464.139        0.159        0.119       28.379       18.487        0.424      326.941       -7.894      867.027
01/02/2022  05:01:00      -54.704       -6.441       -4.860       46.089       22.091       18.470     2124.197      488.000      341.146        0.300        0.148       55.082       17.230        0.098      326.974       -7.841      867.040
01/02/2022  05:02:00       -9.982       44.659        0.989       17.650       20.872       16.437      311.535      435.634      270.160        0.156        0.051       45.761       11.689        0.065      327.042       -7.731      866.985
01/02/2022  05:03:00      -30.206       45.033        7.691       25.249       27.202       17.412      637.499      739.929      303.184        0.234        0.084       54.225        5.483        0.010      327.003       -7.793      866.950
01/02/2022  05:04:00      -75.605       50.018      -16.591       26.670       21.285       12.887      711.283      453.035      166.068        0.491        0.067       90.653        9.982        0.012      326.938       -7.899      866.966
01/02/2022  05:05:00      -31.047      -11.356       -8.782       32.040       25.534       14.783     1026.550      651.974      218.540        0.153        0.095       33.058       17.569        0.282      326.991       -7.814      866.981
01/02/2022  05:06:00      -18.121      -13.457      -10.468       16.585       18.251       11.348      275.057      333.081      128.777        0.068        0.037       22.571        6.088        0.073      326.968       -7.851      866.986
01/02/2022  05:07:00      -11.698       12.032       -4.861       14.700       19.238       14.662      216.080      370.085      214.982        0.055        0.040       16.781       11.401        0.462      326.965       -7.855      866.977
01/02/2022  05:08:00       11.065       19.604       -7.517       24.388       13.164       16.668      594.795      173.278      277.813        0.080        0.052       22.511        9.016        0.160      326.896       -7.968      866.952
01/02/2022  05:09:00        8.752       34.804       -7.233        8.190       10.441        8.821       67.078      109.023       77.816        0.080        0.013       35.888        4.405        0.015      326.989       -7.815      866.908
01/02/2022  05:10:00        4.580        7.413       -7.959        6.808       13.553        5.148       46.349      183.693       26.498        0.020        0.013        8.714        4.767        0.299      326.981       -7.830      866.902
01/02/2022  05:11:00      -41.715      -44.060      -21.724       20.237       19.676       14.723      409.528      387.153      216.756        0.258        0.051       60.674        8.615        0.020      327.110       -7.620      866.963
01/02/2022  05:12:00      -38.896       12.062       -2.077       53.978       24.656       19.916     2913.644      607.901      396.637        0.279        0.196       40.724       18.711        0.211      327.001       -7.797      866.994
01/02/2022  05:13:00      -37.686        4.202       -9.919       43.733       25.025       17.129     1912.594      626.241      293.418        0.218        0.142       37.919       14.269        0.142      326.888       -7.978      866.963
01/02/2022  05:14:00       -4.310      -33.011       -8.326       14.300       26.406       13.266      204.493      697.292      175.974        0.113        0.054       33.291        8.943        0.072      327.041       -7.732      866.971
01/02/2022  05:15:00      -46.261      -21.186       -5.058       38.160       18.439       20.798     1456.167      339.990      432.566        0.242        0.111       50.881        9.064        0.032      326.998       -7.801      866.987
01/02/2022  05:16:00      -30.316       35.071       -0.883       24.239       26.407       18.147      587.550      697.310      329.298        0.188        0.081       46.358       13.845        0.089      326.947       -7.884      866.957
01/02/2022  05:17:00        3.996        9.259        7.228       10.878       16.223        8.195      118.329      263.173       67.158        0.030        0.022       10.085        5.366        0.283      326.877       -7.998      866.922
01/02/2022  05:18:00      -43.741      -23.604      -22.209       30.343       19.816       21.845      920.677      392.684      477.218        0.238        0.090       49.704       17.820        0.129      327.030       -7.750      866.973
01/02/2022  05:19:00      -40.484        4.486        4.239       43.275       34.110       18.763     1872.700     1163.510      352.035        0.253        0.169       40.731       21.166        0.270      327.023       -7.761      866.988
01/02/2022  05:20:00      -15.756       20.227       -0.459       32.696       21.227       15.710     1069.056      450.582      246.794        0.121        0.088       25.640       13.712        0.286      326.886       -7.982      866.932
01/02/2022  05:21:00      -13.697      -25.615        1.426       27.765       30.130       18.804      770.919      907.830      353.579        0.144        0.102       29.048       15.777        0.295      327.017       -7.770      866.940
01/02/2022  05:22:00      -53.013      -15.078       -8.126       32.414       24.013       12.962     1050.648      576.603      168.010        0.245        0.090       55.115        6.537        0.014      326.929       -7.911      866.988
01/02/2022  05:23:00      -33.260       18.500       -8.992       28.512       12.136       11.795      812.935      147.289      139.118        0.131        0.055       38.059        9.562        0.063      326.874       -8.001      866.950
01/02/2022  05:24:00      -42.762       19.108       -6.126       24.134       15.054        9.856      582.455      226.616       97.142        0.157        0.045       46.837        4.047        0.007      326.907       -7.949      866.906
01/02/2022  05:25:00       12.534      -15.019       -1.318       27.930       24.863       21.574      780.078      618.178      465.424        0.112        0.093       19.562        9.226        0.222      326.910       -7.943      866.934
01/02/2022  05:26:00      -30.678      -17.622       -9.616       34.949       27.652       19.690     1221.402      764.620      387.678        0.186        0.119       35.379       10.111        0.082      326.934       -7.905      866.947
01/02/2022  05:27:00      -22.475       -7.950       -6.501       24.619       26.251       19.861      606.088      689.134      394.459        0.115        0.084       23.840       16.100        0.456      326.832       -8.070      866.896
01/02/2022  05:28:00      -47.812        7.787       -2.832       48.758       37.623       22.047     2377.366     1415.498      486.071        0.332        0.214       48.442       18.213        0.141      326.754       -8.196      866.864
01/02/2022  05:29:00      -26.965       -8.689        2.603       50.848       36.755       33.007     2585.527     1350.934     1089.462        0.292        0.251       28.330       14.759        0.271      326.879       -7.995      866.885
01/02/2022  05:30:00      -17.172        0.453       -6.839       35.952       32.564       24.610     1292.544     1060.391      605.671        0.165        0.148       17.178       17.544        1.043      326.800       -8.123      866.920
01/02/2022  05:31:00      -63.560      -24.490       -4.423       67.909       36.491       30.124     4611.609     1331.563      907.478        0.575        0.343       68.115       30.990        0.207      326.733       -8.231      866.952
01/02/2022  05:32:00      -95.330        3.206        0.190       41.273       33.166       26.073     1703.422     1099.996      679.805        0.629        0.174       95.384       20.709        0.047      326.641       -8.380      866.956
01/02/2022  05:33:00     -106.086       19.093       -7.869       41.389       25.335       22.835     1713.024      641.856      521.452        0.728        0.144      107.790       14.867        0.019      326.649       -8.368      866.922
01/02/2022  05:34:00     -129.207        7.609      -20.137       42.475       46.243       23.758     1804.164     2138.371      564.449        1.083        0.225      129.431       14.406        0.012      326.599       -8.448      866.914
01/02/2022  05:35:00      -98.950       16.288       -2.845       65.905       36.013       29.472     4343.529     1296.962      868.609        0.829        0.325      100.281       30.866        0.095      326.631       -8.396      866.977
01/02/2022  05:36:00     -165.686      -21.564       -7.644       63.602       44.255       30.102     4045.217     1958.504      906.132        1.744        0.345      167.083       30.600        0.034      326.549       -8.532      867.055
01/02/2022  05:37:00     -105.128      -83.863      -13.046       57.342       59.891       27.321     3288.051     3586.980      746.447        1.294        0.381      134.480       30.197        0.050      326.536       -8.551      867.065
01/02/2022  05:38:00      -97.784      -15.910      -16.893       55.816       53.688       31.426     3115.428     2882.393      987.617        0.854        0.349       99.070       24.582        0.062      326.390       -8.786      867.021
01/02/2022  05:39:00     -111.629        5.381      -10.515       46.720       44.733       33.090     2182.765     2001.051     1094.952        0.894        0.264      111.759       22.213        0.040      326.388       -8.790      867.001
01/02/2022  05:40:00      -57.012       -8.404        3.604       45.672       31.346       22.761     2085.971      982.555      518.072        0.346        0.179       57.628       14.502        0.063      326.505       -8.602      867.023
01/02/2022  05:41:00      -26.451       17.093        5.942       28.904       28.425       23.569      835.443      807.958      555.517        0.161        0.110       31.493       16.709        0.281      326.478       -8.644      867.057
01/02/2022  05:42:00      -50.905        7.277      -19.461       24.389       26.682       23.588      594.801      711.931      556.417        0.244        0.093       51.423        7.389        0.021      326.470       -8.657      867.042
01/02/2022  05:43:00      -76.008       -0.976       -1.731       45.886       31.799       21.768     2105.513     1011.173      473.857        0.469        0.180       76.015       22.673        0.089      326.535       -8.553      867.038
01/02/2022  05:44:00      -56.319       -2.725       -8.650       45.807       31.292       18.441     2098.293      979.212      340.079        0.334        0.171       56.385       10.174        0.033      326.562       -8.509      867.043
01/02/2022  05:45:00      -81.755       -4.486       -9.859       45.171       23.017       18.122     2040.403      529.784      328.398        0.485        0.145       81.878       18.320        0.050      326.494       -8.621      867.043
01/02/2022  05:46:00      -74.553        1.762       -3.490       32.929       23.680       21.152     1084.325      560.760      447.428        0.383        0.105       74.573       16.687        0.050      326.520       -8.577      867.050
01/02/2022  05:47:00      -53.081      -20.724      -10.802       32.769       18.117       23.640     1073.782      328.224      558.870        0.266        0.098       56.983       18.023        0.100      326.651       -8.364      867.061
01/02/2022  05:48:00      -16.337       10.186        1.611       22.463       20.297       18.910      504.602      411.980      357.574        0.082        0.064       19.252       11.065        0.330      326.637       -8.386      867.034
01/02/2022  05:49:00      -74.622       22.053      -15.317       21.297       21.954       13.508      453.547      481.971      182.466        0.370        0.056       77.812        5.205        0.004      326.649       -8.366      866.994
01/02/2022  05:50:00      -69.213        7.040      -10.773       30.244       34.898       15.752      914.702     1217.871      248.126        0.367        0.119       69.570       10.832        0.024      326.611       -8.428      867.032
01/02/2022  05:51:00      -73.030      -20.211      -10.278       31.929       23.490       19.017     1019.433      551.778      361.648        0.389        0.097       75.775       14.682        0.038      326.636       -8.390      867.081
01/02/2022  05:52:00      -40.275       12.301       -9.117       31.248       21.105       14.905      976.454      445.422      222.161        0.175        0.082       42.111       10.522        0.062      326.675       -8.325      867.030
01/02/2022  05:53:00      -11.205       32.583       -7.381       13.488       17.079        6.748      181.930      291.703       45.541        0.088        0.026       34.455        4.306        0.016      326.725       -8.246      866.946
01/02/2022  05:54:00      -38.279       -1.377      -10.741       35.320       33.040       23.052     1247.513     1091.661      531.400        0.223        0.144       38.304       17.117        0.200      326.722       -8.250      866.984
01/02/2022  05:55:00      -65.076       -1.604       -2.230       55.929       32.901       32.474     3128.096     1082.459     1054.550        0.475        0.263       65.096       30.374        0.218      326.737       -8.226      867.075
01/02/2022  05:56:00     -100.174        5.413       -4.983       48.960       34.672       26.827     2397.049     1202.140      719.673        0.720        0.216      100.320       24.169        0.058      326.789       -8.140      867.079
01/02/2022  05:57:00      -90.313       18.213       -9.568       39.189       27.890       17.756     1535.783      777.828      315.283        0.560        0.131       92.131       18.176        0.039      326.799       -8.125      867.001
01/02/2022  05:58:00      -79.661       24.797       -5.899       35.334       38.111       23.675     1248.517     1452.433      560.514        0.513        0.163       83.432       22.304        0.071      326.747       -8.210      866.962
01/02/2022  05:59:00      -90.472       28.277       -3.195       54.346       30.565       20.758     2953.462      934.236      430.893        0.666        0.216       94.788       20.895        0.049      326.741       -8.218      866.993
01/02/2022  06:00:00      -61.477       14.840        3.391       46.759       23.978       22.369     2186.386      574.968      500.364        0.364        0.163       63.243       22.684        0.129      326.642       -8.379      866.993
01/02/2022  06:01:00      -64.634       -1.405       -1.172       45.868       34.977       23.516     2103.829     1223.409      553.017        0.403        0.194       64.649       21.591        0.112      326.732       -8.234      866.946
01/02/2022  06:02:00     -103.843       11.406      -10.591       40.377       29.763       18.850     1630.283      885.832      355.333        0.695        0.144      104.468       17.919        0.029      326.710       -8.270      866.931
01/02/2022  06:03:00      -76.906       13.665       -2.185       30.871       30.513       15.936      953.003      931.019      253.965        0.412        0.107       78.111       10.776        0.019      326.748       -8.206      866.944
01/02/2022  06:04:00      -48.830        1.505       -7.661       21.112       18.240       11.978      445.731      332.713      143.463        0.168        0.046       48.853        6.846        0.020      326.786       -8.145      866.964
01/02/2022  06:05:00      -35.682        2.617       -4.662       27.148       27.132       20.485      737.028      736.160      419.615        0.160        0.095       35.778       19.877        0.309      326.950       -7.879      866.991
01/02/2022  06:06:00      -41.667        0.225       -7.597       34.203       37.740       26.772     1169.838     1424.300      716.720        0.255        0.166       41.667       18.030        0.187      326.798       -8.127      866.990
01/02/2022  06:07:00      -38.196       17.347      -13.193       23.392       13.720       15.916      547.204      188.250      253.327        0.146        0.049       41.951       11.966        0.081      326.706       -8.276      866.944
01/02/2022  06:08:00      -19.537       27.303       -4.767       11.323       13.294       10.814      128.201      176.731      116.939        0.079        0.021       33.573        6.555        0.038      326.632       -8.396      866.901
01/02/2022  06:09:00      -27.840       46.036      -13.099       21.064       18.135       19.410      443.678      328.871      376.733        0.211        0.057       53.799       13.797        0.066      326.721       -8.252      866.919
01/02/2022  06:10:00       13.440       -9.713       -4.906       21.258       15.807       19.229      451.914      249.854      369.756        0.069        0.054       16.582       10.786        0.423      326.680       -8.318      866.983
01/02/2022  06:11:00     -101.098      -14.449       -6.040       59.426       38.118       31.348     3531.463     1453.011      982.690        0.822        0.298      102.126       28.862        0.080      326.647       -8.371      867.048
01/02/2022  06:12:00     -119.315        0.022       -2.312       38.716       39.292       24.467     1498.893     1543.861      598.648        0.894        0.182      119.315       20.015        0.028      326.625       -8.406      867.076
01/02/2022  06:13:00      -79.160       26.308        1.208       48.450       40.877       24.696     2347.443     1670.889      609.901        0.579        0.231       83.417       19.723        0.056      326.456       -8.680      867.056
01/02/2022  06:14:00      -14.571       -3.228        1.043       19.587       23.000       18.534      383.661      528.980      343.502        0.074        0.063       14.924       15.961        1.144      326.508       -8.596      867.040
01/02/2022  06:15:00      -60.218       -9.907      -17.093       27.975       20.125       17.950      782.592      405.035      322.190        0.276        0.075       61.027       17.124        0.079      326.631       -8.396      867.085
01/02/2022  06:16:00       -6.399       10.808       -9.622       22.081       29.592       18.164      487.591      875.703      329.930        0.097        0.085       12.560        9.701        0.597      326.632       -8.395      867.115
01/02/2022  06:17:00      -27.687        3.844       -4.646       23.865       36.522       25.980      569.535     1333.856      674.967        0.169        0.129       27.953       16.707        0.357      326.611       -8.429      867.081
01/02/2022  06:18:00       16.168       15.767      -11.198       30.049       14.413       10.166      902.913      207.730      103.356        0.092        0.061       22.583       10.337        0.210      326.491       -8.624      867.017
01/02/2022  06:19:00       13.901       26.822      -11.710       27.802       15.695        8.873      772.936      246.342       78.737        0.107        0.055       30.210        9.371        0.096      326.678       -8.322      867.035
01/02/2022  06:20:00        5.849        0.707      -13.499       26.878       18.366       15.144      722.452      337.324      229.353        0.075        0.064        5.892        7.509        1.624      326.660       -8.350      867.098
01/02/2022  06:21:00      -36.683       21.132       -6.382       38.800       41.318       15.578     1505.477     1707.167      242.663        0.264        0.173       42.334       14.465        0.117      326.618       -8.418      867.087
01/02/2022  06:22:00      -44.914       27.653       -9.036       18.071       15.106       12.625      326.574      228.206      159.398        0.179        0.036       52.744        7.408        0.020      326.532       -8.558      867.040
01/02/2022  06:23:00      -40.406        6.761       -7.206       31.004       20.862       18.586      961.235      435.214      345.453        0.174        0.087       40.968       15.759        0.148      326.729       -8.238      867.063
01/02/2022  06:24:00      -91.308       27.752       -0.598       45.893       23.339       19.984     2106.210      544.722      399.342        0.608        0.153       95.432       23.836        0.062      326.583       -8.473      867.128
01/02/2022  06:25:00      -81.048       30.489       -7.506       36.398       23.051       19.119     1324.802      531.364      365.524        0.489        0.111       86.593       21.632        0.062      326.515       -8.585      867.159
01/02/2022  06:26:00        4.276       -5.208      -12.919       15.891       21.322       14.328      252.509      454.611      205.279        0.056        0.046        6.738        4.549        0.456      326.606       -8.438      867.171
01/02/2022  06:27:00      -47.607       10.432       -3.206       58.402       31.780       22.174     3410.741     1009.986      491.698        0.365        0.246       48.737       20.510        0.177      326.627       -8.403      867.160
01/02/2022  06:28:00      -68.688       31.642       -8.298       31.173       19.076       17.010      971.769      363.911      289.344        0.371        0.081       75.626       15.019        0.039      326.601       -8.445      867.098
01/02/2022  06:29:00      -38.856       58.399       -6.101       23.391       18.267       10.622      547.127      333.675      112.830        0.298        0.050       70.144       11.880        0.029      326.546       -8.535      867.023
01/02/2022  06:30:00        8.384       -1.179       -1.064       13.511        7.967       10.872      182.539       63.480      118.206        0.022        0.018        8.466        7.526        0.790      326.583       -8.475      867.025
01/02/2022  06:31:00       17.055       -7.053        0.257       21.062       21.831       13.197      443.588      476.577      174.167        0.072        0.055       18.456       10.726        0.338      326.693       -8.297      867.094
01/02/2022  06:32:00      -12.211        4.830        0.800       32.965       29.303       22.758     1086.703      858.674      517.947        0.132        0.123       13.131       18.721        2.033      326.672       -8.331      867.148
01/02/2022  06:33:00      -10.293       -1.250        3.699       36.356       26.122       21.644     1321.777      682.346      468.459        0.130        0.124       10.369       15.945        2.365      326.702       -8.282      867.132
01/02/2022  06:34:00      -39.113       20.083       -9.996       10.870       14.542        9.701      118.165      211.461       94.111        0.123        0.021       43.968        7.403        0.028      326.558       -8.515      867.083
01/02/2022  06:35:00      -34.059       25.640       -8.779       16.317        8.262        8.165      266.257       68.265       66.665        0.115        0.020       42.631        4.046        0.009      326.619       -8.416      867.054
01/02/2022  06:36:00      -35.353       61.821      -12.717       19.397       16.887       10.484      376.249      285.172      109.905        0.300        0.039       71.215        6.395        0.008      326.682       -8.313      867.031
01/02/2022  06:37:00      -47.231       19.627      -13.264       26.019       33.234       16.121      676.991     1104.517      259.885        0.242        0.102       51.146       12.026        0.055      326.598       -8.451      867.055
01/02/2022  06:38:00      -36.453      -45.488      -20.242       19.682       22.809       16.643      387.377      520.257      276.982        0.250        0.059       58.292        8.780        0.023      326.600       -8.446      867.118
01/02/2022  06:39:00      -54.140       16.490       -3.804       32.992       24.651       14.143     1088.455      607.679      200.013        0.256        0.095       56.596       10.313        0.033      326.659       -8.351      867.137
01/02/2022  06:40:00       -9.308       43.132       -3.881       19.909       16.626       13.019      396.359      276.433      169.504        0.140        0.042       44.125        8.053        0.033      326.612       -8.426      867.061
01/02/2022  06:41:00       58.167       13.471       -8.797       25.446       18.494       11.009      647.508      342.043      121.206        0.238        0.056       59.707        7.151        0.014      326.745       -8.211      867.009
01/02/2022  06:42:00        0.387       14.176      -11.759       26.438       29.892       14.470      698.948      893.532      209.378        0.107        0.090       14.181       12.562        0.785      326.920       -7.927      867.073
01/02/2022  06:43:00        7.575       -9.301        6.778       27.327       28.084       23.254      746.742      788.719      540.768        0.113        0.104       11.995       11.396        0.903      326.866       -8.015      867.132
01/02/2022  06:44:00       -1.667        8.055       -8.890       37.398       21.191       19.397     1398.606      449.043      376.225        0.118        0.111        8.226        9.769        1.410      326.754       -8.198      867.069
01/02/2022  06:45:00       93.555       41.998      -23.202       31.307       40.625       18.369      980.148     1650.365      337.437        0.701        0.148      102.549       10.999        0.012      326.758       -8.192      866.943
01/02/2022  06:46:00       18.031       -1.924       -9.534       43.051       15.581       16.913     1853.388      242.774      286.058        0.140        0.119       18.134       14.952        0.680      326.723       -8.247      866.961
01/02/2022  06:47:00      -44.883       23.373      -19.653       41.588       33.990       19.159     1729.560     1155.309      367.084        0.310        0.163       50.604       12.564        0.062      326.810       -8.107      867.048
01/02/2022  06:48:00      -14.881       17.603      -12.351       30.085       17.217       16.347      905.084      296.441      267.217        0.108        0.073       23.050       10.662        0.214      326.728       -8.240      867.053
01/02/2022  06:49:00       21.274       25.979       -6.604       15.904       11.972       10.704      252.922      143.321      114.569        0.084        0.026       33.578        5.054        0.023      326.675       -8.325      867.040
01/02/2022  06:50:00       -0.410       -5.833       -9.701       18.631       20.048       12.920      347.105      401.906      166.935        0.052        0.046        5.847       11.451        3.835      326.786       -8.145      867.099
01/02/2022  06:51:00        6.426      -23.533       -1.847       13.658       17.938       10.578      186.553      321.783      111.892        0.061        0.031       24.395        6.198        0.065      326.854       -8.034      867.115
01/02/2022  06:52:00       60.680       35.507       -7.571       13.894       17.659       11.235      193.042      311.844      126.224        0.282        0.032       70.305        4.825        0.005      326.810       -8.105      867.053
01/02/2022  06:53:00       74.532       36.835      -10.483       11.520       11.137        8.360      132.716      124.042       69.897        0.367        0.016       83.138        4.791        0.003      326.730       -8.236      866.993
01/02/2022  06:54:00       84.254       37.208      -10.215       25.155       20.119       10.464      632.779      404.755      109.501        0.487        0.057       92.104        8.888        0.009      326.714       -8.262      866.989
01/02/2022  06:55:00       76.019       26.842      -15.692       24.506       15.261       12.225      600.552      232.894      149.439        0.386        0.049       80.618        9.622        0.014      326.732       -8.233      867.034
01/02/2022  06:56:00       40.436       18.899      -14.287       14.005       15.861        9.561      196.148      251.577       91.408        0.137        0.027       44.635        8.505        0.036      326.760       -8.187      867.095
01/02/2022  06:57:00       36.082       25.508      -14.448       20.583       14.988       14.686      423.669      224.632      215.692        0.151        0.043       44.188       15.363        0.121      326.779       -8.154      867.093
01/02/2022  06:58:00      125.793       59.621      -30.407       39.767       35.644       22.621     1581.398     1270.461      511.716        1.183        0.168      139.207       15.815        0.013      326.842       -8.055      866.975
01/02/2022  06:59:00       94.512       25.393      -23.789       43.555       46.169       30.803     1897.009     2131.539      948.812        0.756        0.249       97.864       15.766        0.026      326.785       -8.147      866.906
01/02/2022  07:00:00       14.803        7.834      -12.471       49.617       14.548       16.522     2461.799      211.635      272.968        0.169        0.147       16.748       18.631        1.237      326.659       -8.352      867.010
01/02/2022  07:01:00      -22.548       30.054       -5.346       27.412       19.667       16.497      751.418      386.805      272.135        0.143        0.071       37.571        8.928        0.056      326.794       -8.131      867.123
01/02/2022  07:02:00       38.750       24.558       -8.155       39.795       15.326       10.132     1583.679      234.893      102.659        0.205        0.096       45.877        6.782        0.022      326.713       -8.264      867.100
01/02/2022  07:03:00      105.873       54.464       -8.329       29.717       26.567       15.405      883.115      705.811      237.302        0.804        0.091      119.061       12.320        0.011      326.762       -8.184      867.016
01/02/2022  07:04:00       62.287       33.808       -4.078       34.806       25.358       20.437     1211.467      643.051      417.664        0.366        0.114       70.870        9.844        0.019      326.717       -8.259      867.015
01/02/2022  07:05:00       15.098        1.544      -15.353       20.132       17.608       15.080      405.279      310.057      227.400        0.070        0.047       15.177        8.478        0.312      326.770       -8.171      867.094
01/02/2022  07:06:00        0.829       18.072       -4.758       20.699       22.055       12.283      428.455      486.412      150.884        0.071        0.053       18.091        6.961        0.148      326.911       -7.943      867.152
01/02/2022  07:07:00       38.270       45.589      -16.077       25.142       15.689       10.508      632.101      246.137      110.412        0.239        0.049       59.523        9.657        0.026      326.864       -8.018      867.134
01/02/2022  07:08:00       84.648       62.511      -17.171       21.423       15.848       16.474      458.948      251.153      271.407        0.617        0.049      105.228       10.265        0.010      326.793       -8.135      867.094
01/02/2022  07:09:00       89.085       45.704      -17.993       12.602       18.777       11.149      158.816      352.561      124.310        0.549        0.032      100.125        6.123        0.004      326.806       -8.112      867.112
01/02/2022  07:10:00       56.468       30.213       -8.615       17.735       10.676        8.562      314.523      113.977       73.305        0.234        0.025       64.042        4.003        0.004      326.842       -8.053      867.175
01/02/2022  07:11:00       -2.955       23.135       -9.151       14.945        8.326        6.789      223.362       69.316       46.089        0.048        0.017       23.323        6.701        0.083      326.848       -8.045      867.192
01/02/2022  07:12:00       37.456       39.445       -6.654       23.912       11.140        9.769      571.801      124.104       95.440        0.190        0.040       54.396        6.369        0.014      326.907       -7.951      867.120
01/02/2022  07:13:00      102.588       19.156      -13.599       24.015       26.206       16.910      576.700      686.747      285.940        0.631        0.077      104.361       14.310        0.019      326.925       -7.918      866.998
01/02/2022  07:14:00       68.437       18.754       -8.930       31.288       29.329       15.889      978.963      860.190      252.450        0.360        0.105       70.960        8.984        0.016      326.853       -8.035      866.960
01/02/2022  07:15:00      -13.054       36.785      -12.435       20.977       21.197       16.417      440.048      449.306      269.527        0.142        0.058       39.032       10.799        0.077      326.912       -7.939      867.067
01/02/2022  07:16:00       15.867      -21.706      -21.168       14.846       27.910       12.996      220.407      778.987      168.900        0.117        0.058       26.887        7.461        0.077      327.061       -7.700      867.140
01/02/2022  07:17:00        5.372        2.904      -10.879       35.457       45.267       26.431     1257.229     2049.113      698.618        0.208        0.200        6.107       23.738       15.108      327.039       -7.735      867.055
01/02/2022  07:18:00       49.760       16.886       -7.500       40.825       43.401       35.797     1666.707     1883.621     1281.410        0.382        0.242       52.547       18.295        0.121      326.866       -8.013      866.918
01/02/2022  07:19:00       39.539       15.458      -10.929       39.196       33.451       20.027     1536.357     1118.958      401.086        0.249        0.153       42.454       15.233        0.129      327.019       -7.769      866.936
01/02/2022  07:20:00        4.937      -62.534      -25.806       29.340       28.542       23.615      860.808      814.663      557.663        0.342        0.112       62.729       13.215        0.044      327.122       -7.601      867.039
01/02/2022  07:21:00       33.639       11.010      -15.743       54.946       49.231       18.882     3019.030     2423.713      356.512        0.365        0.290       35.395       19.876        0.315      327.094       -7.645      866.979
01/02/2022  07:22:00       81.045       21.485       -4.714       38.724       37.196       24.450     1499.559     1383.550      597.810        0.527        0.174       83.845       18.146        0.047      326.873       -8.003      866.843
01/02/2022  07:23:00        9.769       12.902       -4.741       37.143       26.773       21.766     1379.599      716.792      473.762        0.143        0.129       16.183       15.309        0.895      326.938       -7.898      866.905
01/02/2022  07:24:00       23.176      -31.368      -11.103       25.251       47.136       27.497      637.612     2221.837      756.091        0.263        0.181       39.001       17.296        0.197      327.043       -7.727      867.083
01/02/2022  07:25:00      -64.784      -59.547        0.363       41.800       47.009       29.600     1747.238     2209.884      876.181        0.629        0.242       87.993       22.941        0.068      326.988       -7.817      867.117
01/02/2022  07:26:00      -11.710       14.856       -9.037       25.481       14.046       19.159      649.296      197.298      367.052        0.083        0.061       18.917       10.557        0.311      326.897       -7.964      866.978
01/02/2022  07:27:00       -4.297       37.041      -15.610       16.460       28.675       28.516      270.940      822.261      813.160        0.177        0.095       37.289       19.206        0.265      326.897       -7.965      866.900
01/02/2022  07:28:00      -33.165      -27.449        3.161       70.466       42.231       34.140     4965.460     1783.456     1165.550        0.489        0.396       43.051       27.720        0.415      326.980       -7.831      867.022
01/02/2022  07:29:00     -172.461      -11.581      -13.304       58.724       44.722       31.869     3448.517     2000.068     1015.621        1.826        0.323      172.849       32.466        0.035      326.770       -8.171      867.095
01/02/2022  07:30:00      -56.281       41.675      -10.360       49.791       16.976       12.399     2479.098      288.174      153.739        0.397        0.146       70.031       14.509        0.043      326.671       -8.332      866.956
01/02/2022  07:31:00       -4.795       34.327       -9.545       18.349       28.120       14.196      336.680      790.729      201.529        0.131        0.066       34.660       13.613        0.154      326.680       -8.317      866.871
01/02/2022  07:32:00       -0.861        5.558       -4.796       29.138       27.597       20.563      849.000      761.600      422.828        0.104        0.102        5.624       15.161        7.267      326.869       -8.011      867.005
01/02/2022  07:33:00      -93.831      -26.606        9.293      120.873       36.329       38.617    14610.216     1319.800     1491.256        1.351        0.871       97.531       55.092        0.319      326.854       -8.036      867.150
01/02/2022  07:34:00     -144.201       30.180      -16.854       72.208       38.249       23.382     5213.924     1463.014      546.732        1.460        0.361      147.326       17.418        0.014      326.708       -8.273      867.128
01/02/2022  07:35:00      -28.324       28.473      -16.779       23.369       19.998       11.276      546.124      399.934      127.141        0.148        0.054       40.162        8.800        0.048      326.683       -8.314      867.029
01/02/2022  07:36:00      -40.907       12.825      -14.699       31.645       17.057       20.331     1001.412      290.951      413.352        0.188        0.085       42.870       11.643        0.074      326.747       -8.209      867.060
01/02/2022  07:37:00       10.962      -24.736        7.505       52.144       30.115       33.250     2719.023      906.927     1105.576        0.276        0.237       27.056       27.378        1.024      326.753       -8.198      867.143
01/02/2022  07:38:00      -55.519       10.001       -3.124       51.633       44.012       29.136     2665.937     1937.095      848.919        0.432        0.273       56.412       20.797        0.136      326.667       -8.338      867.092
01/02/2022  07:39:00       -4.745       26.840        1.121       14.978       16.951       16.493      224.355      287.339      272.023        0.076        0.039       27.256       10.729        0.155      326.762       -8.184      866.965
01/02/2022  07:40:00      -20.757       16.733       -5.452       39.333       30.287       19.121     1547.101      917.311      365.613        0.178        0.142       26.662       13.529        0.258      326.832       -8.071      866.977
01/02/2022  07:41:00       -8.100      -22.218        4.312       70.139       35.424       39.908     4919.542     1254.887     1592.684        0.417        0.388       23.649       29.789        1.587      326.914       -7.937      867.098
01/02/2022  07:42:00      -90.172       -4.638       -0.138       45.604       36.749       33.549     2079.702     1350.485     1125.531        0.635        0.228       90.291       23.358        0.067      326.735       -8.228      867.106
01/02/2022  07:43:00      -22.641       21.236       -8.164       25.083       17.202       15.812      629.178      295.892      250.016        0.110        0.059       31.042        4.637        0.022      326.729       -8.239      867.014
01/02/2022  07:44:00      -75.116       55.362      -14.100       29.554       20.323       16.967      873.416      413.026      287.879        0.524        0.079       93.313        9.028        0.009      326.642       -8.378      866.976
01/02/2022  07:45:00      -79.150       17.195      -16.470       64.209       32.912       22.016     4122.783     1083.206      484.715        0.626        0.285       80.996       22.815        0.079      326.779       -8.156      866.993
01/02/2022  07:46:00       -1.998        7.034       -7.954       33.916       23.625       13.898     1150.284      558.145      193.162        0.101        0.095        7.312       13.417        3.366      326.826       -8.081      866.981
01/02/2022  07:47:00      -32.417       28.304       -8.576       26.195       12.606        9.349      686.166      158.909       87.407        0.143        0.047       43.034        9.061        0.044      326.647       -8.373      866.946
01/02/2022  07:48:00      -25.288       24.896      -11.853       31.858       16.379       12.063     1014.925      268.282      145.522        0.141        0.071       35.487       11.827        0.111      326.756       -8.194      866.962
01/02/2022  07:49:00      -22.738       -4.574       -6.544       32.840       20.612       14.841     1078.452      424.858      220.246        0.115        0.086       23.194       12.856        0.307      326.922       -7.924      867.049
01/02/2022  07:50:00        5.217       -0.571       -1.755       11.046       15.414       11.631      122.004      237.602      135.269        0.026        0.025        5.248        8.299        2.500      326.988       -7.817      867.118
01/02/2022  07:51:00       -9.607        9.645        5.738       27.248       22.733       24.707      742.429      516.801      610.429        0.104        0.093       13.613       22.521        2.737      327.077       -7.673      867.167
01/02/2022  07:52:00      -60.100      -14.293        0.400       60.830       37.021       30.289     3700.301     1370.537      917.423        0.490        0.299       61.776       18.250        0.087      326.877       -7.997      867.209
01/02/2022  07:53:00      -77.185        2.121       -4.536       40.679       19.597       15.964     1654.820      384.029      254.834        0.414        0.115       77.214       14.836        0.037      326.803       -8.116      867.166
01/02/2022  07:54:00        6.479       27.892       -6.240       42.065       32.157       22.346     1769.495     1034.096      499.329        0.208        0.165       28.635       13.105        0.209      326.936       -7.901      867.037
01/02/2022  07:55:00       16.389      -23.084      -19.832       47.103       49.309       32.480     2218.713     2431.363     1054.939        0.345        0.285       28.310       23.937        0.715      327.534       -6.932      866.967
01/02/2022  07:56:00        0.770      -10.863       -9.547       54.108       65.589       40.313     2927.622     4301.958     1625.168        0.453        0.443       10.891       36.915       11.489      327.179       -7.508      867.127
01/02/2022  07:57:00     -110.405      -29.921        4.432      114.958       65.962       55.094    13215.321     4350.970     3035.369        1.685        1.030      114.387       51.614        0.204      327.084       -7.662      867.265
01/02/2022  07:58:00     -112.587        9.785       -8.074       87.680       41.057       29.667     7687.777     1685.696      880.160        1.154        0.513      113.012       34.472        0.093      326.889       -7.979      867.190
01/02/2022  07:59:00       43.873       20.879      -25.293       50.931       59.971       42.051     2593.918     3596.464     1768.321        0.548        0.398       48.588       22.053        0.206      327.138       -7.574      866.945
01/02/2022  08:00:00      115.573       17.028      -16.372       51.572       51.507       29.225     2659.711     2652.966      854.081        1.004        0.308      116.821        9.070        0.006      326.990       -7.815      866.886
01/02/2022  08:01:00      -24.337       -7.836      -22.830       41.834       46.800       29.272     1750.086     2190.280      856.861        0.299        0.240       25.567       20.070        0.616      327.218       -7.445      867.098
01/02/2022  08:02:00      -48.412      -28.686       -6.324       71.751       46.473       29.689     5148.168     2159.748      881.426        0.570        0.409       56.272       23.318        0.172      327.250       -7.393      867.228
01/02/2022  08:03:00       43.045       44.969      -22.818       77.215       57.968       31.183     5962.157     3360.319      972.377        0.734        0.515       62.250       32.196        0.267      327.250       -7.392      867.067
01/02/2022  08:04:00       38.556       -7.798       -7.964       73.731       76.541       45.109     5436.332     5858.565     2034.802        0.747        0.666       39.336       27.022        0.472      327.600       -6.824      866.846
01/02/2022  08:05:00      -39.660      -12.491        1.046       65.012       43.617       45.684     4226.567     1902.422     2087.034        0.497        0.411       41.581       32.843        0.624      327.443       -7.079      866.988
01/02/2022  08:06:00      -57.319      -15.109       -4.675       99.315       74.588       57.312     9863.396     5563.310     3284.660        1.112        0.936       59.277       31.979        0.291      327.365       -7.205      867.234
01/02/2022  08:07:00      -31.455       -3.737       -6.832      111.577       62.387       29.183    12449.521     3892.081      851.660        0.912        0.860       31.676       32.000        1.021      327.314       -7.289      867.164
01/02/2022  08:08:00      154.131       85.269      -27.360       45.067       67.177       30.803     2031.014     4512.794      948.822        1.963        0.375      176.145       29.922        0.029      327.356       -7.220      866.865
01/02/2022  08:09:00       19.974       11.218      -24.167       80.580       49.986       38.040     6493.207     2498.624     1447.060        0.577        0.522       22.909       34.409        2.256      327.360       -7.213      866.973
01/02/2022  08:10:00      -47.634      -13.597       18.175      113.303       68.244       59.760    12837.613     4657.293     3571.314        1.192        1.053       49.537       47.411        0.916      327.413       -7.129      867.298
01/02/2022  08:11:00     -164.749       15.309       -5.286      103.646       52.645       42.264    10742.431     2771.523     1786.231        2.135        0.765      165.459       47.314        0.082      327.174       -7.517      867.354
01/02/2022  08:12:00       22.820       23.204      -19.010       46.489       37.416       33.983     2161.189     1399.990     1154.869        0.307        0.236       32.545       21.967        0.456      327.499       -6.989      867.132
01/02/2022  08:13:00       59.887       56.812      -19.581       51.535       42.323       28.731     2655.870     1791.262      825.470        0.623        0.264       82.547       24.750        0.090      327.395       -7.156      867.030
01/02/2022  08:14:00      -12.213        0.095      -12.010       46.709       36.676       20.056     2181.699     1345.163      402.225        0.211        0.196       12.213       10.044        0.676      327.465       -7.043      867.145
01/02/2022  08:15:00      -58.869      -10.833       -1.538       57.674       46.159       30.804     3326.330     2130.686      948.917        0.499        0.320       59.858       25.432        0.181      327.487       -7.007      867.260
01/02/2022  08:16:00      -57.536      -27.514       -7.044       29.115       33.560       22.262      847.670     1126.261      495.578        0.329        0.123       63.776       10.457        0.027      327.355       -7.221      867.217
01/02/2022  08:17:00       68.241       44.043      -21.792       51.804       50.474       24.858     2683.701     2547.574      617.921        0.646        0.292       81.219       12.672        0.024      327.656       -6.733      867.036
01/02/2022  08:18:00      121.247       76.808      -21.747       44.608       32.189       22.240     1989.885     1036.127      494.634        1.230        0.176      143.528       16.784        0.014      327.453       -7.062      866.982
01/02/2022  08:19:00        6.339       16.703       -1.516       38.974       21.345       16.173     1518.990      455.619      261.577        0.128        0.112       17.865       15.355        0.739      327.574       -6.866      867.100
01/02/2022  08:20:00      -34.705       -1.551      -13.235       21.949       36.235       17.648      481.738     1312.963      311.463        0.174        0.105       34.739       14.312        0.170      327.548       -6.908      867.176
01/02/2022  08:21:00      -60.831      -22.596      -13.353       28.167       18.563       20.747      793.395      344.603      430.433        0.298        0.078       64.892       19.200        0.088      327.571       -6.871      867.219
01/02/2022  08:22:00      -26.892       32.494       -4.801       29.159       17.123       12.010      850.229      293.210      144.241        0.154        0.064       42.178        6.618        0.025      327.574       -6.864      867.232
01/02/2022  08:23:00        1.303       80.079        4.637       30.253       27.021       28.796      915.236      730.157      829.230        0.445        0.124       80.090       15.839        0.039      327.588       -6.845      867.200
01/02/2022  08:24:00       58.829       49.758      -13.421       44.824       18.900       16.302     2009.158      357.197      265.760        0.437        0.132       77.050        8.629        0.013      327.555       -6.898      867.153
01/02/2022  08:25:00       55.167      -26.641      -12.974       46.988       54.589       27.260     2207.847     2979.954      743.088        0.493        0.297       61.263       24.377        0.158      327.880       -6.368      867.194
01/02/2022  08:26:00      -49.319      -53.833      -12.888       50.635       44.284       38.330     2563.954     1961.058     1469.165        0.574        0.300       73.009       25.690        0.124      327.744       -6.588      867.336
01/02/2022  08:27:00      -26.246        5.523      -10.376       79.934       33.945       18.444     6389.374     1152.237      340.183        0.435        0.394       26.820        9.663        0.130      327.798       -6.501      867.377
01/02/2022  08:28:00      -59.114       55.187       -4.885       47.654       22.992       21.520     2270.887      528.623      463.128        0.491        0.163       80.871       19.282        0.057      327.518       -6.957      867.223
01/02/2022  08:29:00       59.075       72.629      -21.084       59.559       71.191       41.017     3547.322     5068.152     1682.399        0.975        0.515       93.621       29.524        0.099      327.888       -6.356      867.028
01/02/2022  08:30:00       11.947      -66.307      -36.422       45.441       58.847       34.512     2064.910     3462.984     1191.099        0.629        0.336       67.375       19.773        0.086      328.145       -5.937      867.123
01/02/2022  08:31:00       26.894      -41.409      -31.034       30.319       61.619       18.465      919.223     3796.895      340.939        0.423        0.253       49.376       16.774        0.115      328.016       -6.146      867.346
01/02/2022  08:32:00      -31.018       48.542      -15.290       34.509       33.290       20.305     1190.861     1108.230      412.308        0.313        0.136       57.605       10.531        0.033      327.831       -6.449      867.329
01/02/2022  08:33:00      -26.053       12.252       -6.415       26.859       22.380       19.686      721.390      500.862      387.556        0.124        0.080       28.790        8.497        0.087      327.905       -6.328      867.251
01/02/2022  08:34:00       12.817      -86.367      -19.665       37.752       33.959       29.558     1425.193     1153.201      873.704        0.573        0.173       87.313       17.816        0.042      327.996       -6.180      867.308
01/02/2022  08:35:00       11.753      -32.832      -12.294       48.293       67.886       32.491     2332.250     4608.569     1055.660        0.468        0.400       34.872       36.126        1.073      328.052       -6.088      867.289
01/02/2022  08:36:00       44.586       76.934        3.401       45.830       30.288       31.867     2100.407      917.342     1015.520        0.597        0.202       88.919       22.789        0.066      327.946       -6.259      867.168
01/02/2022  08:37:00       43.109       32.763      -11.395       35.490       29.466       23.521     1259.566      868.263      553.222        0.287        0.134       54.146       17.588        0.106      327.891       -6.351      867.183
01/02/2022  08:38:00       -5.568      -12.163        1.831       47.392       52.267       25.281     2245.999     2731.807      639.127        0.290        0.281       13.377       27.459        4.214      327.946       -6.260      867.300
01/02/2022  08:39:00       60.719      -37.150      -24.866       36.243       46.876       32.188     1313.531     2197.355     1036.055        0.512        0.227       71.182       28.567        0.161      328.127       -5.968      867.306
01/02/2022  08:40:00       61.231       11.378       -7.086       45.867       44.907       30.361     2103.819     2016.609      921.771        0.448        0.252       62.279       24.753        0.158      327.977       -6.211      867.219
01/02/2022  08:41:00       94.992       43.487      -12.306       43.503       26.111       20.102     1892.528      681.767      404.100        0.702        0.149      104.473       15.521        0.022      327.753       -6.575      867.241
01/02/2022  08:42:00      -21.046      -59.847      -20.548       32.860       33.049       25.028     1079.754     1092.256      626.389        0.362        0.140       63.439       20.246        0.102      328.049       -6.093      867.370
01/02/2022  08:43:00       57.690       10.140      -13.409       31.403       47.192       19.832      986.162     2227.039      393.301        0.361        0.180       58.575       11.140        0.036      327.994       -6.183      867.408
01/02/2022  08:44:00      119.191       40.857      -21.557       30.122       30.675       20.135      907.319      940.953      405.403        0.930        0.113      126.000        9.956        0.006      327.910       -6.320      867.329
01/02/2022  08:45:00       55.346       20.535      -21.227       32.903       42.867       23.952     1082.635     1837.539      573.697        0.371        0.175       59.032       21.795        0.136      328.064       -6.068      867.357
01/02/2022  08:46:00        3.644        6.972      -15.062       24.996       22.539       14.077      624.793      508.005      198.173        0.081        0.067        7.867        9.360        1.415      328.140       -5.945      867.421
01/02/2022  08:47:00       78.984       35.622      -32.153       26.368       25.212       22.680      695.252      635.631      514.364        0.519        0.092       86.645       14.253        0.027      327.835       -6.440      867.341
01/02/2022  08:48:00       44.065      -10.022       -4.018       42.905       72.709       35.176     1840.809     5286.584     1237.376        0.521        0.418       45.190       24.182        0.286      328.261       -5.748      867.292
01/02/2022  08:49:00       20.693      -44.273      -27.179       32.895       34.766       22.473     1082.096     1208.678      505.025        0.296        0.140       48.870        8.755        0.032      328.319       -5.652      867.434
01/02/2022  08:50:00       20.477       18.286      -15.545       27.010       32.174       15.768      729.557     1035.176      248.642        0.150        0.101       27.453       10.372        0.143      328.234       -5.792      867.499
01/02/2022  08:51:00      121.337       84.119      -16.982       27.364       23.305       21.825      748.778      543.123      476.326        1.193        0.088      147.643       17.341        0.014      327.978       -6.209      867.357
01/02/2022  08:52:00       96.873       16.169      -27.300       42.219       49.751       13.829     1782.416     2475.139      191.249        0.742        0.222       98.213       12.393        0.016      327.922       -6.298      867.300
01/02/2022  08:53:00       28.315      -52.832      -22.737       26.829       24.818       22.962      719.796      615.915      527.262        0.299        0.093       59.941       18.449        0.095      328.220       -5.814      867.433
01/02/2022  08:54:00       67.465      -53.519      -18.890       32.121       30.207       24.580     1031.751      912.492      604.182        0.516        0.127       86.115       19.439        0.051      328.122       -5.974      867.461
01/02/2022  08:55:00       89.284       36.814      -29.285       46.599       46.004       27.351     2171.495     2116.335      748.053        0.761        0.252       96.576       19.043        0.039      328.298       -5.688      867.329
01/02/2022  08:56:00       -7.950      -28.963      -22.866       51.393       54.855       34.703     2641.244     3009.062     1204.282        0.414        0.343       30.034       15.423        0.264      328.369       -5.573      867.277
01/02/2022  08:57:00       14.161      -78.174      -15.598       31.044       41.031       20.914      963.722     1683.531      437.396        0.482        0.154       79.447       18.507        0.054      328.153       -5.923      867.364
01/02/2022  08:58:00      -46.651       37.770       -6.167       23.768       36.265       20.204      564.916     1315.177      408.195        0.296        0.114       60.024       15.429        0.066      328.093       -6.021      867.404
01/02/2022  08:59:00       16.557       64.536      -10.548       50.679       27.876       17.028     2568.311      777.095      289.938        0.409        0.182       66.626        5.658        0.007      328.212       -5.827      867.319
01/02/2022  09:00:00       51.337       29.216      -23.026       62.549       58.964       35.986     3912.435     3476.732     1294.959        0.635        0.434       59.068       27.094        0.210      328.454       -5.432      867.286
01/02/2022  09:01:00       85.171      -85.411      -33.942       57.691       51.384       39.427     3328.207     2640.307     1554.472        1.161        0.376      120.620       33.465        0.077      328.290       -5.700      867.330
01/02/2022  09:02:00       48.654       -7.845      -27.211       58.908       92.557       41.582     3470.117     8566.812     1729.097        0.847        0.688       49.282       34.984        0.504      328.225       -5.806      867.328
01/02/2022  09:03:00       83.968       20.687      -20.020       25.903       51.005       19.991      670.985     2601.548      399.646        0.578        0.184       86.479       17.522        0.041      328.220       -5.814      867.302
01/02/2022  09:04:00      -10.441       -4.199      -10.129       34.162       25.198       18.820     1167.029      634.924      354.203        0.119        0.108       11.254       18.139        2.598      328.268       -5.736      867.352
01/02/2022  09:05:00       12.006      -96.177      -26.760       48.523       44.045       27.136     2354.500     1939.973      736.378        0.757        0.252       96.923       18.498        0.036      328.341       -5.618      867.441
01/02/2022  09:06:00       13.099      -26.437      -10.181       35.655       59.430       28.071     1271.263     3531.980      787.971        0.328        0.280       29.504       26.281        0.793      328.408       -5.509      867.456
01/02/2022  09:07:00       87.648       36.994      -16.159       73.081       44.079       33.062     5340.855     1942.954     1093.120        0.884        0.419       95.135       23.659        0.062      328.788       -4.888      867.359
01/02/2022  09:08:00       91.274        6.564       -9.584       67.954       52.596       36.825     4617.734     2766.342     1356.092        0.860        0.437       91.510       35.975        0.155      328.625       -5.154      867.277
01/02/2022  09:09:00       70.818       36.938      -25.944       53.338       43.127       30.863     2844.957     1859.926      952.555        0.635        0.283       79.872       27.523        0.119      328.375       -5.560      867.339
01/02/2022  09:10:00       54.457      -48.889      -33.143       50.058       40.398       28.199     2505.843     1632.020      795.199        0.569        0.247       73.183       22.495        0.094      328.326       -5.642      867.390
01/02/2022  09:11:00       84.353      -14.238      -18.777       42.722       48.113       22.019     1825.131     2314.892      484.847        0.615        0.231       85.546        9.947        0.014      328.285       -5.709      867.320
01/02/2022  09:12:00       80.928       20.106      -20.356       42.248       81.457       34.149     1784.914     6635.315     1166.162        0.848        0.479       83.388       26.536        0.101      328.491       -5.374      867.215
01/02/2022  09:13:00       67.577      -83.175      -38.009       26.886       37.902       25.119      722.862     1436.598      630.969        0.786        0.140      107.167       16.302        0.023      328.442       -5.452      867.229
01/02/2022  09:14:00      110.540      -66.547      -32.919       56.307       41.862       32.723     3170.423     1752.410     1070.774        1.186        0.300      129.026       25.193        0.038      328.476       -5.397      867.286
01/02/2022  09:15:00      122.834       18.973      -26.331       60.588       59.586       37.751     3670.935     3550.464     1425.117        1.239        0.432      124.291       24.240        0.038      328.450       -5.439      867.226
01/02/2022  09:16:00       57.468       -1.610      -16.229       65.013       62.998       35.357     4226.723     3968.693     1250.130        0.651        0.472       57.491       23.389        0.166      328.617       -5.167      867.158
01/02/2022  09:17:00       17.146      -60.980      -14.000       51.170       41.030       26.848     2618.388     1683.486      720.841        0.461        0.251       63.345       14.330        0.051      328.524       -5.319      867.259
01/02/2022  09:18:00       79.260      -95.345      -30.719       28.599       38.564       33.058      817.929     1487.167     1092.812        0.986        0.170      123.987       19.666        0.025      328.505       -5.349      867.378
01/02/2022  09:19:00       78.646      -80.008      -33.168       45.769       61.791       37.183     2094.783     3818.125     1382.588        1.049        0.365      112.190       40.571        0.131      328.366       -5.577      867.400
01/02/2022  09:20:00       53.842       10.088       -7.463       57.783       62.537       36.118     3338.844     3910.887     1304.476        0.580        0.428       54.779       28.751        0.275      328.725       -4.992      867.347
01/02/2022  09:21:00      124.572       33.402      -23.462       66.485       55.559       30.646     4420.226     3086.857      939.199        1.281        0.422      128.973       23.727        0.034      328.529       -5.311      867.321
01/02/2022  09:22:00      102.843       46.185      -23.426       25.606       35.385       25.502      655.679     1252.081      650.334        0.791        0.128      112.738       10.029        0.008      328.219       -5.817      867.340
01/02/2022  09:23:00       52.450        9.588      -19.898       54.373       53.122       42.996     2956.471     2822.000     1848.616        0.543        0.381       53.319       29.567        0.307      328.740       -4.967      867.360
01/02/2022  09:24:00       51.913       -8.412       -4.985       63.668       56.435       48.542     4053.573     3184.867     2356.286        0.619        0.480       52.590       44.957        0.731      328.871       -4.754      867.362
01/02/2022  09:25:00       11.671      -31.027      -10.570       40.287       30.840       25.433     1623.007      951.132      646.860        0.222        0.161       33.150       17.457        0.277      328.772       -4.914      867.367
01/02/2022  09:26:00       86.203       28.681      -28.802       54.417       57.753       36.189     2961.229     3335.370     1309.675        0.834        0.380       90.849       30.355        0.112      328.456       -5.429      867.377
01/02/2022  09:27:00       97.543      -21.441      -21.027       53.392       43.275       31.107     2850.741     1872.683      967.627        0.805        0.285       99.872       14.046        0.020      328.538       -5.296      867.373
01/02/2022  09:28:00      100.377       28.019      -24.804       56.153       50.641       26.059     3153.209     2564.547      679.084        0.894        0.320      104.214       19.859        0.036      328.546       -5.283      867.352
01/02/2022  09:29:00      114.605       57.932      -26.046       42.261       47.751       28.545     1785.956     2280.170      814.810        1.102        0.244      128.415       15.751        0.015      328.529       -5.311      867.371
01/02/2022  09:30:00       27.077       47.409       -9.012       31.930       13.045       17.678     1019.531      170.159      312.523        0.228        0.075       54.596       15.301        0.079      328.280       -5.717      867.457
01/02/2022  09:31:00      -17.084        7.105       -8.942       26.967       41.526       16.732      727.196     1724.400      279.954        0.158        0.137       18.502       15.410        0.694      328.516       -5.332      867.511
01/02/2022  09:32:00       41.456      -18.882      -23.127       26.900       38.611       26.739      723.591     1490.792      714.993        0.277        0.146       45.554       10.733        0.056      328.881       -4.738      867.483
01/02/2022  09:33:00       62.938      -17.284       -7.246       70.101       53.347       30.855     4914.172     2845.918      952.002        0.651        0.436       65.268       19.510        0.089      328.783       -4.897      867.412
01/02/2022  09:34:00       37.415       -3.241       -0.505       47.198       51.368       38.311     2227.662     2638.655     1467.752        0.387        0.317       37.555       20.599        0.301      328.915       -4.682      867.393
01/02/2022  09:35:00        9.587      -31.741      -20.270       43.597       47.949       24.778     1900.661     2299.076      613.958        0.316        0.241       33.157       25.308        0.583      328.756       -4.941      867.434
01/02/2022  09:36:00      -17.318       11.246       -7.855       15.691       24.198       18.304      246.196      585.534      335.023        0.083        0.058       20.649       16.943        0.673      328.809       -4.853      867.462
01/02/2022  09:37:00       44.064       29.900        7.290       53.445       30.045       18.556     2856.336      902.685      344.320        0.350        0.205       53.251       17.589        0.109      328.755       -4.943      867.408
01/02/2022  09:38:00      120.279       44.440      -27.717       50.752       43.097       23.000     2575.749     1857.372      528.981        1.109        0.248      128.226        8.130        0.004      328.530       -5.310      867.331
01/02/2022  09:39:00       -0.669      -31.534      -17.120       76.207       59.651       25.802     5807.487     3558.197      665.748        0.566        0.502       31.542       27.094        0.738      328.976       -4.583      867.334
01/02/2022  09:40:00       14.153      -90.822      -16.497       45.453       43.243       27.571     2065.979     1869.946      760.148        0.671        0.235       91.918       26.189        0.081      328.585       -5.219      867.425
01/02/2022  09:41:00        0.405      -31.542      -10.738       26.237       39.862       23.350      688.381     1588.964      545.214        0.197        0.141       31.545       15.366        0.237      329.064       -4.438      867.501
01/02/2022  09:42:00      -24.708       -5.891      -13.372       18.528       22.167       16.899      343.288      491.390      285.579        0.097        0.056       25.401        7.094        0.078      329.041       -4.475      867.516
01/02/2022  09:43:00       25.053      -91.270      -18.826       48.408       85.392       34.005     2343.310     7291.788     1156.338        1.005        0.540       94.646       31.367        0.110      328.776       -4.907      867.474
01/02/2022  09:44:00      -15.297      -34.654        4.202       51.990       72.069       38.596     2702.999     5193.974     1489.675        0.542        0.469       37.880       18.929        0.250      329.301       -4.051      867.417
01/02/2022  09:45:00       42.829      -42.321      -41.065       30.617       82.374       26.806      937.422     6785.487      718.551        0.688        0.422       60.211       18.110        0.090      328.916       -4.679      867.382
01/02/2022  09:46:00       12.133      -16.030      -11.957       45.087       44.586       41.892     2032.878     1987.934     1754.901        0.316        0.289       20.104       22.836        1.290      329.185       -4.242      867.354
01/02/2022  09:47:00       66.028      -27.881      -20.302       86.126       50.154       36.433     7417.730     2515.387     1327.334        0.840        0.563       71.674       35.486        0.245      328.948       -4.628      867.333
01/02/2022  09:48:00       26.130      -27.465      -14.867       49.217       38.448       29.313     2422.290     1478.246      859.226        0.321        0.238       37.909       18.425        0.236      329.132       -4.327      867.321
01/02/2022  09:49:00       -4.969      -45.478      -20.273       27.988       32.713       17.264      783.315     1070.145      298.035        0.233        0.108       45.749       11.926        0.068      328.948       -4.628      867.358
01/02/2022  09:50:00       46.965     -113.625      -24.329       41.957       36.861       29.495     1760.399     1358.707      869.947        0.985        0.199      122.948       18.555        0.023      328.841       -4.801      867.472
01/02/2022  09:51:00       68.077      -61.659      -35.060       35.710       54.549       28.823     1275.232     2975.628      830.751        0.737        0.254       91.849       25.643        0.078      328.912       -4.687      867.558
01/02/2022  09:52:00      168.970        0.876      -34.061       83.716       51.648       27.841     7008.432     2667.486      775.110        2.008        0.523      168.972       31.833        0.035      328.792       -4.884      867.455
01/02/2022  09:53:00      150.717       19.060      -19.871       98.455       72.455       40.180     9693.449     5249.673     1614.418        2.001        0.828      151.918       19.728        0.017      328.993       -4.556      867.274
01/02/2022  09:54:00       83.722      -50.468      -28.657       81.010       50.802       43.843     6562.629     2580.840     1922.207        1.072        0.553       97.757       24.956        0.065      329.091       -4.394      867.332
01/02/2022  09:55:00       -2.868      -66.977      -25.408       34.793       29.402       21.506     1210.537      864.489      462.524        0.384        0.127       67.038       17.031        0.065      328.878       -4.741      867.512
01/02/2022  09:56:00       13.106      -36.709      -17.724       29.627       47.071       34.937      877.730     2215.645     1220.571        0.307        0.216       38.979       24.671        0.401      329.371       -3.936      867.491
01/02/2022  09:57:00       60.334      -20.513      -23.645       45.794       63.013       37.304     2097.119     3970.577     1391.579        0.604        0.373       63.725       24.750        0.151      329.072       -4.425      867.326
01/02/2022  09:58:00       -5.970      -71.163      -18.839       45.962       42.219       35.329     2112.541     1782.407     1248.109        0.530        0.257       71.413       22.251        0.097      329.346       -3.977      867.354
01/02/2022  09:59:00      -16.982     -103.228      -60.020       45.222       51.925       41.059     2045.067     2696.176     1685.860        1.049        0.321      104.616       28.080        0.072      329.135       -4.322      867.527
01/02/2022  10:00:00      -46.619       20.608      -10.267       39.077       38.854       24.412     1526.998     1509.661      595.921        0.317        0.182       50.971       21.112        0.172      329.207       -4.203      867.523
01/02/2022  10:01:00       72.997       72.958       -6.669       90.531       60.581       32.565     8195.788     3670.027     1060.497        1.181        0.646      103.206       26.318        0.065      329.041       -4.475      867.335
01/02/2022  10:02:00       69.183       -4.901       -9.359       92.719       47.655       36.719     8596.845     2271.030     1348.260        0.855        0.611       69.357       27.245        0.154      329.057       -4.448      867.242
01/02/2022  10:03:00       30.682      -78.801      -30.913       69.771       44.809       30.444     4867.947     2007.861      926.847        0.795        0.390       84.564       22.748        0.072      329.043       -4.471      867.310
01/02/2022  10:04:00       34.232      -67.357      -15.939       36.940       37.464       35.835     1364.528     1403.560     1284.149        0.501        0.203       75.557       17.584        0.054      329.073       -4.423      867.397
01/02/2022  10:05:00       18.464      -60.138      -17.792       38.056       39.944       20.600     1448.231     1595.504      424.371        0.387        0.173       62.909       22.496        0.128      329.256       -4.125      867.424
01/02/2022  10:06:00       69.921        5.742      -14.278       63.933       52.514       31.982     4087.388     2757.691     1022.850        0.650        0.393       70.156       25.065        0.128      329.246       -4.140      867.382
01/02/2022  10:07:00       74.802      -38.651      -31.917       58.699       56.180       45.307     3445.574     3156.172     2052.713        0.838        0.433       84.197       35.221        0.175      329.202       -4.213      867.348
01/02/2022  10:08:00       -1.221       12.777      -10.244       50.997       37.894       29.308     2600.706     1435.991      858.963        0.258        0.245       12.835       18.403        2.056      329.485       -3.751      867.371
01/02/2022  10:09:00       81.849       65.115      -11.424       65.346       52.551       29.690     4270.123     2761.620      881.476        0.949        0.396      104.591       32.953        0.099      329.143       -4.310      867.368
01/02/2022  10:10:00      102.073        4.488      -38.515       81.394       88.490       45.654     6624.960     7830.473     2084.277        1.423        0.827      102.172       38.631        0.143      329.326       -4.010      867.274
01/02/2022  10:11:00       53.181      -18.617      -25.188       54.198       51.555       49.933     2937.443     2657.946     2493.267        0.595        0.404       56.345       30.985        0.302      329.502       -3.721      867.212
01/02/2022  10:12:00       -4.814      -50.216      -33.115       38.878       21.113       19.556     1511.507      445.747      382.423        0.299        0.117       50.447        3.377        0.004      329.159       -4.281      867.301
01/02/2022  10:13:00       16.784      -23.885      -14.108       27.355       31.496       27.294      748.304      991.988      744.984        0.177        0.124       29.192       13.282        0.207      329.298       -4.056      867.382
01/02/2022  10:14:00       73.380       16.637      -26.765       57.370       55.095       26.435     3291.372     3035.508      698.787        0.670        0.351       75.242       11.213        0.022      329.355       -3.961      867.329
01/02/2022  10:15:00      148.264       52.963      -32.460       35.337       24.930       19.365     1248.730      621.488      375.021        1.404        0.112      157.439       10.657        0.005      328.865       -4.763      867.211
01/02/2022  10:16:00       83.890       40.432      -21.436       46.736       44.183       25.944     2184.231     1952.151      673.109        0.697        0.240       93.125       15.360        0.027      329.217       -4.187      867.148
01/02/2022  10:17:00       71.578        5.045      -33.913       55.771       54.380       24.804     3110.441     2957.199      615.258        0.649        0.334       71.756       11.505        0.026      329.306       -4.041      867.207
01/02/2022  10:18:00       21.549      -29.019        0.524       51.793       47.789       34.187     2682.498     2283.776     1168.750        0.372        0.307       36.145       19.303        0.285      329.510       -3.709      867.322
01/02/2022  10:19:00       51.100     -110.689      -30.013       47.051       50.824       32.895     2213.771     2583.031     1082.052        1.082        0.294      121.915       28.322        0.054      329.414       -3.867      867.338
01/02/2022  10:20:00       85.305       34.788      -26.374       69.062       72.879       22.478     4769.611     5311.388      505.276        0.988        0.529       92.125       26.466        0.083      329.146       -4.304      867.240
01/02/2022  10:21:00       81.015       72.625      -19.814       40.025       23.560       26.833     1602.040      555.064      720.009        0.755        0.144      108.802       15.544        0.020      329.259       -4.120      867.143
01/02/2022  10:22:00       80.167       39.973      -17.389       54.212       43.911       24.472     2938.911     1928.159      598.900        0.690        0.273       89.580       25.200        0.079      329.220       -4.182      867.151
01/02/2022  10:23:00      -10.855       12.226       -6.854       41.652       54.181       22.631     1734.905     2935.606      512.152        0.275        0.259       16.350       15.557        0.905      329.404       -3.882      867.237
01/02/2022  10:24:00      -22.012      -15.324      -11.827       51.824       55.128       27.168     2685.734     3039.101      738.106        0.366        0.323       26.820       22.760        0.720      329.499       -3.727      867.266
01/02/2022  10:25:00      121.517       64.307      -23.660       44.986       33.027       24.036     2023.737     1090.785      577.708        1.158        0.185      137.483       12.105        0.008      329.336       -3.993      867.171
01/02/2022  10:26:00       86.134       85.668       -1.979       61.644       48.472       31.257     3799.981     2349.488      977.016        1.094        0.356      121.483       30.002        0.061      329.364       -3.949      867.063
01/02/2022  10:27:00       69.452       48.473       -9.253       46.334       29.607       25.268     2146.806      876.570      638.492        0.546        0.183       84.695       15.322        0.033      329.270       -4.101      867.027
01/02/2022  10:28:00       61.753       13.126      -26.041       45.926       62.188       29.175     2109.216     3867.323      851.200        0.574        0.341       63.133       25.024        0.157      329.513       -3.704      867.036
01/02/2022  10:29:00       94.171      -13.808      -19.983       88.219       63.590       57.507     7782.577     4043.627     3306.999        1.229        0.757       95.178       45.914        0.233      329.571       -3.610      867.007
01/02/2022  10:30:00      149.800       31.648      -24.083       52.236       60.507       33.333     2728.575     3661.097     1111.110        1.576        0.375      153.107       20.134        0.017      329.157       -4.287      866.950
01/02/2022  10:31:00       78.548        8.630       -9.768       51.558       58.023       28.419     2658.191     3366.707      807.631        0.658        0.342       79.020       25.448        0.104      329.413       -3.867      866.938
01/02/2022  10:32:00      119.387       14.805      -24.447       49.218       43.568       25.514     2422.401     1898.151      650.939        1.002        0.249      120.301        7.358        0.004      329.260       -4.117      866.920
01/02/2022  10:33:00      108.268       13.031      -31.955       48.895       61.538       35.747     2390.678     3786.968     1277.852        1.018        0.373      109.050       22.969        0.044      329.356       -3.962      866.914
01/02/2022  10:34:00      113.571       71.558      -19.847       42.154       38.124       29.313     1776.993     1453.469      859.269        1.125        0.204      134.235       16.277        0.015      329.203       -4.210      866.929
01/02/2022  10:35:00       78.102       56.103      -13.450       33.442       27.702       22.239     1118.393      767.381      494.565        0.590        0.119       96.163       16.827        0.031      329.250       -4.134      866.925
01/02/2022  10:36:00       66.469       47.681      -14.438       26.599       26.047       19.844      707.513      678.444      393.798        0.434        0.089       81.802        9.957        0.015      329.397       -3.894      866.908
01/02/2022  10:37:00       62.248       45.893      -14.598       41.367       43.186       24.994     1711.264     1865.010      624.699        0.520        0.210       77.337       18.678        0.058      329.470       -3.774      866.906
01/02/2022  10:38:00       77.910       18.141       -0.709       65.047       30.122       23.979     4231.173      907.327      575.014        0.606        0.286       79.994       23.177        0.084      329.418       -3.860      866.903
01/02/2022  10:39:00      118.721       41.211      -26.747       35.681       25.831       20.406     1273.132      667.251      416.392        0.943        0.118      125.670        9.537        0.006      329.187       -4.236      866.920
01/02/2022  10:40:00       56.821      -20.597      -16.228       57.299       92.263       35.083     3283.198     8512.415     1230.817        0.847        0.651       60.439       35.893        0.353      329.547       -3.648      866.938
01/02/2022  10:41:00       24.835      -25.854      -16.734       43.116       44.315       38.528     1859.031     1963.783     1484.401        0.344        0.265       35.850       27.841        0.603      329.388       -3.909      866.910
01/02/2022  10:42:00      124.184       11.944      -24.291      105.393       46.541       30.331    11107.610     2166.051      919.948        1.517        0.710      124.757       31.181        0.062      329.461       -3.790      866.781
01/02/2022  10:43:00      137.261       24.365      -34.971       81.792       59.788       31.896     6689.861     3574.653     1017.359        1.597        0.564      139.407       27.035        0.038      329.524       -3.687      866.694
01/02/2022  10:44:00       -9.059       11.650       -4.921       73.832       45.073       31.145     5451.171     2031.562      970.012        0.435        0.423       14.757       20.368        1.905      329.572       -3.608      866.771
01/02/2022  10:45:00       11.892      -59.028      -21.303       45.180       46.121       33.679     2041.234     2127.122     1134.274        0.469        0.265       60.214       22.305        0.137      329.421       -3.854      866.892
01/02/2022  10:46:00       46.694       25.278       -0.940       41.672       40.432       25.153     1736.527     1634.750      632.655        0.341        0.200       53.097       24.911        0.220      329.523       -3.688      866.858
01/02/2022  10:47:00      120.160       41.962      -15.785       53.008       53.857       34.303     2809.852     2900.601     1176.693        1.167        0.344      127.277       25.616        0.041      329.481       -3.756      866.713
01/02/2022  10:48:00       90.396        6.111      -36.642       76.105       74.584       50.871     5791.993     5562.718     2587.851        1.174        0.697       90.602       36.460        0.162      329.816       -3.207      866.561
01/02/2022  10:49:00       54.674       32.676      -11.224       79.377       69.195       52.599     6300.773     4787.990     2766.685        0.902        0.693       63.694       40.745        0.409      329.808       -3.220      866.474
01/02/2022  10:50:00       17.434      -44.441       -2.376       67.260       89.110       41.487     4523.945     7940.545     1721.168        0.823        0.709       47.738       35.015        0.538      329.768       -3.287      866.514
01/02/2022  10:51:00       44.233      -35.500      -23.979       55.748       76.247       27.990     3107.795     5813.650      783.445        0.675        0.485       56.717       16.786        0.088      329.627       -3.517      866.608
01/02/2022  10:52:00      117.508       53.536      -17.941       38.171       47.645       26.303     1456.991     2270.018      691.840        1.071        0.221      129.129       22.438        0.030      329.320       -4.019      866.604
01/02/2022  10:53:00      139.358       57.011      -26.912       30.695       25.347       18.039      942.170      642.472      325.388        1.265        0.096      150.569       13.892        0.009      329.277       -4.090      866.512
01/02/2022  10:54:00       61.915      -19.527      -13.881       31.261       51.905       29.151      977.274     2694.145      849.754        0.446        0.226       64.921       24.609        0.144      329.719       -3.367      866.572
01/02/2022  10:55:00       16.594      -60.848      -18.828       29.667       63.544       26.737      880.110     4037.807      714.858        0.498        0.282       63.070       23.334        0.137      329.830       -3.186      866.651
01/02/2022  10:56:00       60.806      -22.603       -9.223       52.696       45.539       26.080     2776.859     2073.795      680.166        0.491        0.277       64.872       15.648        0.058      329.834       -3.178      866.565
01/02/2022  10:57:00       89.528       48.845      -29.844       49.899       68.343       36.430     2489.874     4670.750     1327.154        0.989        0.424      101.985       16.729        0.027      329.950       -2.990      866.378
01/02/2022  10:58:00       66.871      -40.696      -25.905       59.899       69.290       50.355     3587.850     4801.151     2535.654        0.886        0.546       78.281       39.673        0.257      330.381       -2.283      866.326
01/02/2022  10:59:00        4.340      -78.256      -27.627       34.416       52.434       26.650     1184.486     2749.354      710.247        0.577        0.232       78.377       13.943        0.032      329.728       -3.352      866.398
01/02/2022  11:00:00       42.413      -13.736      -33.646       38.093       45.351       31.154     1451.048     2056.736      970.549        0.380        0.224       44.581       16.751        0.141      330.184       -2.605      866.393
01/02/2022  11:01:00      112.283       30.887      -24.872       45.155       59.169       34.445     2038.994     3500.946     1186.473        1.045        0.336      116.454       24.579        0.045      329.629       -3.514      866.321
01/02/2022  11:02:00       23.022       -5.638      -28.171       49.861       62.821       39.049     2486.152     3946.524     1524.814        0.466        0.398       23.703       23.698        1.000      330.076       -2.782      866.302
01/02/2022  11:03:00       43.684      -65.960      -22.218       34.136       44.969       33.576     1165.246     2022.195     1127.349        0.553        0.216       79.114       26.537        0.113      329.732       -3.344      866.392
01/02/2022  11:04:00       72.971      -60.397      -25.821       43.362       49.629       30.993     1880.290     2463.015      960.575        0.747        0.265       94.724       27.173        0.082      329.733       -3.344      866.427
01/02/2022  11:05:00       83.813      -39.453      -25.427       71.267       42.886       30.588     5079.028     1839.182      935.637        0.854        0.393       92.635       27.538        0.088      329.612       -3.542      866.355
01/02/2022  11:06:00       -1.016      -61.810      -17.880       25.996       41.367       13.216      675.812     1711.242      174.661        0.335        0.128       61.819        5.439        0.008      329.524       -3.686      866.267
01/02/2022  11:07:00       40.527        4.074       -8.046       56.351       36.654       30.450     3175.470     1343.502      927.227        0.358        0.272       40.731       26.752        0.431      329.910       -3.053      866.263
01/02/2022  11:08:00       54.096        3.513      -15.102       39.020       30.990       21.382     1522.540      960.388      457.206        0.305        0.147       54.210       23.502        0.188      329.577       -3.600      866.266
01/02/2022  11:09:00       86.974       22.584      -43.531       44.515       44.721       25.896     1981.568     1999.960      670.579        0.731        0.233       89.858       12.409        0.019      329.930       -3.022      866.223
01/02/2022  11:10:00      122.856       40.730      -22.230       49.607       43.415       33.023     2460.842     1884.851     1090.541        1.134        0.272      129.432       14.361        0.012      329.903       -3.067      866.206
01/02/2022  11:11:00       64.431       25.834      -15.970       67.929       66.121       40.751     4614.297     4371.967     1660.664        0.786        0.532       69.417       22.587        0.106      330.056       -2.816      866.220
01/02/2022  11:12:00       91.621       90.153      -20.826       42.023       31.599       20.788     1765.969      998.519      432.137        1.008        0.160      128.538       16.943        0.017      329.583       -3.588      866.257
01/02/2022  11:13:00      104.801       68.082      -27.552       15.629       10.495        9.810      244.278      110.137       96.245        0.841        0.023      124.974        4.964        0.002      329.440       -3.824      866.235
01/02/2022  11:14:00      146.838       73.740      -34.154       19.873       17.365       16.972      394.930      301.559      288.059        1.457        0.049      164.314        8.021        0.002      329.467       -3.778      866.093
01/02/2022  11:15:00      127.049       68.154      -20.683       47.428       34.057       21.382     2249.385     1159.866      457.195        1.254        0.193      144.175       17.761        0.015      329.569       -3.613      866.007
01/02/2022  11:16:00       -2.914      -40.858      -13.062       36.058       49.773       35.381     1300.204     2477.378     1251.802        0.344        0.251       40.962       31.733        0.600      330.220       -2.547      866.162
01/02/2022  11:17:00      -26.347       11.915      -15.001       40.937       40.277       32.054     1675.840     1622.202     1027.479        0.269        0.216       28.916       17.966        0.386      330.240       -2.514      866.261
01/02/2022  11:18:00      -36.719       21.610        7.184       38.783       40.803       26.654     1504.124     1664.908      710.427        0.287        0.194       42.606       22.433        0.277      329.920       -3.038      866.144
01/02/2022  11:19:00       55.281       47.788       -0.859       68.575       38.694       33.435     4702.568     1497.204     1117.898        0.633        0.366       73.073       32.599        0.199      330.090       -2.759      866.008
01/02/2022  11:20:00       97.217       61.532      -21.255       46.725       41.412       28.710     2183.183     1714.945      824.265        0.920        0.236      115.054        9.313        0.007      330.027       -2.863      866.049
01/02/2022  11:21:00       30.656        6.620      -33.302       21.804       34.538       20.005      475.423     1192.847      400.220        0.208        0.103       31.362       19.570        0.389      329.835       -3.177      866.134
01/02/2022  11:22:00       42.390      -26.752      -22.561       56.134       66.934       25.573     3150.979     4480.096      653.992        0.565        0.414       50.126       23.113        0.213      330.080       -2.775      866.131
01/02/2022  11:23:00      156.473       59.053      -26.427       37.677       31.849       24.033     1419.553     1014.346      577.588        1.584        0.151      167.246        7.784        0.002      329.859       -3.137      866.070
01/02/2022  11:24:00       65.914       30.036       -9.602       53.767       64.509       30.575     2890.855     4161.448      934.841        0.666        0.399       72.435       32.238        0.198      330.119       -2.712      866.023
01/02/2022  11:25:00       76.448        5.302      -18.330       37.746       30.640       26.735     1424.796      938.806      714.757        0.464        0.154       76.632       18.846        0.060      329.850       -3.154      865.990
01/02/2022  11:26:00        8.199       10.570      -10.919       13.275       15.792       15.688      176.214      249.387      246.121        0.048        0.034       13.377       12.852        0.923      330.329       -2.368      866.014
01/02/2022  11:27:00        8.692       -8.112        1.924       25.414       24.865       20.114      645.894      618.268      404.571        0.091        0.083       11.889       12.888        1.175      330.494       -2.098      866.007
01/02/2022  11:28:00       27.152       38.297       -5.819       44.672       43.769       19.609     1995.571     1915.729      384.513        0.327        0.215       46.945        8.800        0.035      330.304       -2.408      865.893
01/02/2022  11:29:00      114.998       58.580      -15.329       57.788       37.038       27.996     3339.474     1371.819      783.804        1.119        0.275      129.059       21.966        0.029      330.058       -2.813      865.819
01/02/2022  11:30:00       22.787       25.815       -6.259       63.055       37.650       28.527     3975.985     1417.508      813.807        0.371        0.310       34.433       30.324        0.776      329.938       -3.008      865.896
01/02/2022  11:31:00      -60.582      -31.645      -29.388       50.920       60.350       40.253     2592.807     3642.151     1620.343        0.669        0.393       68.349       32.376        0.224      330.486       -2.111      865.969
01/02/2022  11:32:00      -24.878      -65.177      -31.813       42.140       34.493       22.404     1775.782     1189.782      501.923        0.467        0.173       69.763       19.032        0.074      330.385       -2.275      865.951
01/02/2022  11:33:00        7.462       10.715      -14.268       38.746       30.005       26.815     1501.273      900.327      719.037        0.175        0.156       13.057       26.340        4.069      330.137       -2.683      865.895
01/02/2022  11:34:00        6.908       13.183       -2.610       26.322       25.773       22.556      692.835      664.229      508.753        0.105        0.093       14.884       15.200        1.043      330.222       -2.542      865.878
01/02/2022  11:35:00      -20.014        9.535      -15.056       27.221       30.106       27.260      740.957      906.344      743.132        0.155        0.120       22.169       26.934        1.476      330.174       -2.621      865.845
01/02/2022  11:36:00        8.932       24.395      -10.769       29.860       38.277       18.000      891.609     1465.104      324.002        0.174        0.134       25.979       16.363        0.397      330.246       -2.504      865.803
01/02/2022  11:37:00      -35.023       11.275       -9.209       69.733       46.379       29.019     4862.708     2150.997      842.109        0.465        0.393       36.793       27.242        0.548      330.163       -2.640      865.859
01/02/2022  11:38:00     -113.865      -14.067      -11.433       54.530       43.006       33.900     2973.525     1849.485     1149.196        0.963        0.299      114.730       23.731        0.043      330.209       -2.564      865.906
01/02/2022  11:39:00       27.893       10.007       -5.276       61.168       42.722       26.215     3741.566     1825.166      687.209        0.358        0.313       29.633       18.561        0.392      330.258       -2.485      865.758
01/02/2022  11:40:00       77.204      138.211      -27.597       33.894       45.723       26.117     1148.779     2090.618      682.082        1.487        0.196      158.313       16.292        0.011      330.116       -2.717      865.596
01/02/2022  11:41:00       -0.513      112.589      -10.752       45.931       47.385       29.734     2109.651     2245.331      884.113        0.901        0.262      112.591       28.536        0.064      330.415       -2.227      865.606
01/02/2022  11:42:00      -22.791       35.367        8.723       37.443       57.257       32.396     1402.012     3278.370     1049.483        0.379        0.286       42.075       27.853        0.438      330.744       -1.687      865.718
01/02/2022  11:43:00      -67.079       20.822       -6.710       61.821       39.095       30.813     3821.888     1528.456      949.435        0.564        0.315       70.237       17.342        0.061      330.429       -2.204      865.787
01/02/2022  11:44:00      -76.721       83.670      -22.532       37.664       29.896       21.732     1418.604      893.775      472.286        0.809        0.139      113.520       13.374        0.014      330.128       -2.699      865.746
01/02/2022  11:45:00       32.820       97.291      -14.109       29.985       37.801       22.643      899.123     1428.947      512.694        0.679        0.142      102.678       18.706        0.033      330.080       -2.775      865.665
01/02/2022  11:46:00       41.004       24.232      -26.563       12.122       49.431       19.810      146.950     2443.465      392.455        0.298        0.149       47.630        6.992        0.022      330.034       -2.850      865.651
01/02/2022  11:47:00       18.775       25.006       -4.800       27.340       25.902       12.617      747.503      670.937      159.180        0.129        0.079       31.270        9.671        0.096      330.387       -2.272      865.667
01/02/2022  11:48:00      -14.651       57.416       -2.791       38.861       41.020       20.766     1510.146     1682.660      431.233        0.357        0.181       59.256       18.019        0.092      330.446       -2.177      865.675
01/02/2022  11:49:00      -42.898       79.624      -12.029       19.860       20.465       17.618      394.419      418.799      310.405        0.472        0.056       90.444        9.854        0.012      330.264       -2.473      865.694
01/02/2022  11:50:00      -31.715       43.044      -17.748       36.309       20.405       16.319     1318.353      416.381      266.294        0.259        0.100       53.466       10.164        0.036      330.221       -2.545      865.688
01/02/2022  11:51:00       65.081       43.700      -27.162       37.449       34.118       16.971     1402.425     1164.030      288.030        0.487        0.143       78.391        8.745        0.012      330.123       -2.706      865.599
01/02/2022  11:52:00      108.696       33.952      -28.088       32.207       21.026       15.119     1037.315      442.095      228.570        0.773        0.085      113.875       12.773        0.013      330.124       -2.705      865.507
01/02/2022  11:53:00       22.191       14.131      -28.284       14.616       18.831       12.111      213.614      354.594      146.668        0.110        0.036       26.309       10.190        0.150      330.264       -2.473      865.485
01/02/2022  11:54:00      -31.442       25.798      -24.182       14.970       16.619       17.927      224.095      276.197      321.395        0.153        0.041       40.671        9.283        0.052      330.229       -2.533      865.479
01/02/2022  11:55:00      -23.509        8.610       -9.022       46.234       32.591       31.153     2137.613     1062.150      970.527        0.244        0.209       25.036       22.875        0.835      330.452       -2.166      865.472
01/02/2022  11:56:00       -3.847       51.463        3.868       28.076       29.699       26.367      788.245      882.044      695.217        0.252        0.118       51.607       15.872        0.095      330.604       -1.915      865.456
01/02/2022  11:57:00       82.650       92.983      -22.779       61.351       31.616       31.243     3763.938      999.549      976.135        1.087        0.287      124.407       25.942        0.043      330.495       -2.095      865.417
01/02/2022  11:58:00      104.159       26.019      -28.510       63.815       41.056       26.230     4072.310     1685.598      688.018        0.939        0.322      107.359       27.054        0.064      330.487       -2.109      865.396
01/02/2022  11:59:00       53.121       38.347       -9.814       33.241       25.607       26.731     1104.973      655.706      714.527        0.343        0.124       65.516       16.543        0.064      330.583       -1.951      865.413
01/02/2022  12:00:00       55.689       70.880      -20.262       34.529       31.032       16.966     1192.247      962.979      287.845        0.549        0.122       90.140       14.495        0.026      330.588       -1.942      865.426
01/02/2022  12:01:00       88.328       62.582      -13.921       67.848       32.241       25.095     4603.328     1039.471      629.734        0.909        0.314      108.251       23.367        0.047      330.481       -2.116      865.381
01/02/2022  12:02:00      122.978       69.380      -16.937       35.990       27.483       19.418     1295.291      755.329      377.060        1.133        0.121      141.199       10.795        0.006      330.199       -2.581      865.344
01/02/2022  12:03:00       61.623       31.122      -17.852       22.228       10.934       11.567      494.064      119.556      133.797        0.292        0.037       69.036        6.417        0.009      330.175       -2.620      865.357
01/02/2022  12:04:00       77.171       32.417      -22.617       16.954       22.977       19.501      287.422      527.963      380.270        0.436        0.060       83.704       12.488        0.022      330.286       -2.439      865.358
01/02/2022  12:05:00       65.705        9.661      -22.411       36.928       29.276       27.248     1363.664      857.098      742.456        0.394        0.148       66.412       16.914        0.065      330.445       -2.178      865.339
01/02/2022  12:06:00       83.717       30.274      -27.236       46.196       35.976       24.585     2134.085     1294.277      604.412        0.635        0.202       89.023       14.517        0.027      330.597       -1.928      865.346
01/02/2022  12:07:00       68.691       12.552      -20.733       53.769       71.988       42.094     2891.072     5182.296     1771.934        0.757        0.492       69.829       23.993        0.118      330.908       -1.418      865.364
01/02/2022  12:08:00       69.595       16.153      -21.458       54.665       68.863       40.239     2988.306     4742.050     1619.185        0.746        0.467       71.445       17.932        0.063      330.884       -1.458      865.346
01/02/2022  12:09:00      143.846       43.624      -26.090       69.938       67.149       33.124     4891.266     4508.977     1097.220        1.688        0.525      150.316       24.299        0.026      330.612       -1.906      865.307
01/02/2022  12:10:00       79.437      104.377      -18.958       41.149       34.056       24.379     1693.205     1159.779      594.318        1.051        0.172      131.167       18.493        0.020      330.404       -2.245      865.337
01/02/2022  12:11:00       17.091      108.710      -14.134       28.947       33.321       21.782      837.942     1110.264      474.440        0.737        0.121      110.046       15.158        0.019      330.544       -2.015      865.348
01/02/2022  12:12:00       58.318       70.978       -2.890       38.664       27.631       23.630     1494.932      763.462      558.372        0.563        0.141       91.863       22.140        0.058      330.561       -1.989      865.337
01/02/2022  12:13:00        6.152       64.482      -14.343       26.224       37.828       23.956      687.699     1430.985      573.898        0.355        0.135       64.774       12.999        0.040      330.560       -1.987      865.313
01/02/2022  12:14:00       58.110       57.591      -14.130       40.741       28.010       30.175     1659.829      784.564      910.553        0.512        0.168       81.814       21.904        0.072      330.669       -1.810      865.261
01/02/2022  12:15:00       45.147       50.354       -1.213       31.435       36.344       27.040      988.147     1320.863      731.188        0.381        0.152       67.630       24.461        0.131      330.697       -1.765      865.277
01/02/2022  12:16:00       54.261       29.352      -23.394       30.154       30.835       20.793      909.252      950.810      432.365        0.332        0.115       61.691       15.363        0.062      330.642       -1.853      865.283
01/02/2022  12:17:00       88.007      -37.626      -41.429       59.901       71.461       43.742     3588.115     5106.710     1913.384        1.074        0.530       95.713       28.201        0.087      331.077       -1.141      865.224
01/02/2022  12:18:00      112.853        3.936      -27.685       87.685       79.978       68.095     7688.727     6396.531     4636.963        1.612        0.936      112.921       47.864        0.180      330.953       -1.345      865.143
01/02/2022  12:19:00       91.099       35.632      -15.508       85.124       73.970       33.989     7246.050     5471.561     1155.283        1.184        0.694       97.820       13.733        0.020      330.832       -1.544      865.142
01/02/2022  12:20:00      116.400       87.675      -13.026       53.613       39.193       26.949     2874.346     1536.114      726.248        1.327        0.257      145.725       17.335        0.014      330.525       -2.047      865.137
01/02/2022  12:21:00      101.969       80.650      -23.952       27.659       20.527       19.716      765.029      421.367      388.724        0.953        0.079      130.008       12.544        0.009      330.484       -2.114      865.097
01/02/2022  12:22:00      134.572       68.939      -22.456       52.231       43.706       26.734     2728.086     1910.252      714.692        1.436        0.268      151.202       22.612        0.022      330.573       -1.968      865.026
01/02/2022  12:23:00      155.543       47.412      -35.539       72.342       29.456       29.924     5233.358      867.629      895.464        1.735        0.350      162.608        8.585        0.003      330.579       -1.959      864.999
01/02/2022  12:24:00       53.997       22.645      -17.131       45.904       54.139       27.074     2107.212     2931.012      733.019        0.475        0.289       58.553       17.274        0.087      331.026       -1.224      865.033
01/02/2022  12:25:00       77.741       14.452      -43.467       50.678       56.022       24.380     2568.231     3138.478      594.379        0.722        0.315       79.073       22.113        0.078      330.765       -1.653      865.042
01/02/2022  12:26:00       25.725      -31.532      -14.331       40.414       54.218       25.209     1633.299     2939.551      635.514        0.353        0.260       40.694       21.233        0.272      330.851       -1.511      865.067
01/02/2022  12:27:00       -5.157        8.318       -0.633       19.589       14.404       13.088      383.718      207.461      171.292        0.043        0.038        9.787        5.902        0.364      331.208       -0.925      865.085
01/02/2022  12:28:00       60.498       63.347      -17.474       47.632       43.761       23.726     2268.840     1915.066      562.930        0.636        0.237       87.595       25.090        0.082      330.929       -1.384      865.086
01/02/2022  12:29:00      158.695       90.466      -16.686       67.497       62.006       39.187     4555.897     3844.775     1535.604        2.179        0.497      182.670       30.243        0.027      330.804       -1.590      865.034
01/02/2022  12:30:00      138.363       65.651      -41.919       86.882       79.103       43.775     7548.429     6257.218     1916.211        2.046        0.786      153.149       30.514        0.040      331.030       -1.219      864.938
01/02/2022  12:31:00       84.104       -5.145      -64.027       52.468       77.586       52.350     2752.922     6019.641     2740.550        1.135        0.576       84.261       35.821        0.181      331.205       -0.931      864.906
01/02/2022  12:32:00       68.374       22.328      -19.329       43.159       62.730       31.775     1862.678     3935.025     1009.668        0.618        0.340       71.927       19.919        0.077      330.905       -1.423      864.947
01/02/2022  12:33:00       73.150       53.355       -0.452       68.742       49.103       32.819     4725.436     2411.058     1077.069        0.820        0.411       90.541       34.102        0.142      331.055       -1.175      864.981
01/02/2022  12:34:00       85.475       10.245      -17.879       63.753       52.836       31.561     4064.502     2791.632      996.125        0.779        0.393       86.087       32.935        0.146      331.072       -1.147      864.961
01/02/2022  12:35:00       68.846      -47.018      -20.062       62.957       79.992       31.871     3963.621     6398.757     1015.749        0.936        0.569       83.369       41.524        0.248      330.970       -1.317      864.934
01/02/2022  12:36:00       88.020      -51.348      -15.310       60.944       44.956       37.961     3714.182     2021.074     1441.073        0.890        0.359      101.903       42.080        0.171      330.848       -1.517      864.899
01/02/2022  12:37:00      112.061      -21.159      -25.306       78.089       57.736       38.991     6097.903     3333.437     1520.264        1.230        0.548      114.041       26.189        0.053      330.963       -1.328      864.842
01/02/2022  12:38:00      123.595       18.950      -26.309       82.475       72.943       45.665     6802.079     5320.650     2085.271        1.526        0.710      125.039       34.041        0.074      330.875       -1.473      864.756
01/02/2022  12:39:00       79.544       -9.368      -13.945       65.727       61.041       41.760     4320.054     3725.962     1743.892        0.820        0.489       80.094       31.861        0.158      331.145       -1.028      864.757
01/02/2022  12:40:00       58.411      -73.087      -28.154       48.979       66.069       45.084     2398.897     4365.134     2032.535        0.917        0.440       93.561       28.207        0.091      331.167       -0.993      864.766
01/02/2022  12:41:00       31.721      -16.064      -19.388       32.329       24.412       17.670     1045.175      595.962      312.224        0.180        0.098       35.557       22.292        0.393      330.885       -1.456      864.761
01/02/2022  12:42:00       82.036      -36.936      -34.082       77.604       70.155       41.889     6022.350     4921.772     1754.680        1.097        0.635       89.968       27.931        0.096      331.144       -1.031      864.752
01/02/2022  12:43:00       80.844       10.175      -13.453       42.103       49.482       21.716     1772.672     2448.474      471.600        0.576        0.235       81.481       18.943        0.054      330.757       -1.665      864.752
01/02/2022  12:44:00       81.501       66.413      -20.796       25.806       15.736       15.092      665.927      247.636      227.763        0.631        0.057      105.134        6.655        0.004      330.656       -1.832      864.717
01/02/2022  12:45:00       97.600       36.275      -20.270       61.904       65.150       40.933     3832.130     4244.509     1675.551        1.050        0.488      104.123       28.219        0.073      331.212       -0.919      864.684
01/02/2022  12:46:00      149.203       -3.828      -30.862       86.009       84.921       53.259     7397.553     7211.637     2836.517        2.033        0.872      149.252       41.099        0.076      331.354       -0.686      864.644
01/02/2022  12:47:00      199.615        2.576      -30.469       85.175       67.891       37.113     7254.794     4609.239     1377.398        2.701        0.662      199.632       34.346        0.030      331.031       -1.219      864.568
01/02/2022  12:48:00      126.550       11.733      -11.608       99.637       50.287       40.588     9927.448     2528.786     1647.408        1.519        0.705      127.092       52.407        0.170      331.098       -1.107      864.552
01/02/2022  12:49:00      122.883       -3.111      -17.809       84.330       42.419       26.601     7111.599     1799.341      707.620        1.252        0.481      122.922       30.789        0.063      330.989       -1.286      864.559
01/02/2022  12:50:00       13.387       -2.455       -7.374       42.706       39.459       26.231     1823.842     1557.029      688.071        0.215        0.203       13.610       11.683        0.737      331.412       -0.590      864.592
01/02/2022  12:51:00       85.125       -4.412      -21.396       61.875       63.196       30.626     3828.483     3993.797      937.922        0.824        0.438       85.239       24.273        0.081      331.371       -0.657      864.592
01/02/2022  12:52:00      117.161       38.318      -20.647       35.601       26.119       15.944     1267.420      682.195      254.206        0.891        0.110      123.268        9.263        0.006      330.854       -1.506      864.546
01/02/2022  12:53:00       91.600       45.539      -23.297       38.281       49.790       30.088     1465.455     2479.004      905.261        0.793        0.242      102.296       19.640        0.037      331.280       -0.807      864.510
01/02/2022  12:54:00       75.762      -50.532      -51.597       62.203       85.318       35.092     3869.216     7279.231     1231.441        1.167        0.619       91.068       27.211        0.089      331.714       -0.093      864.519
01/02/2022  12:55:00       33.637       27.428        0.238       55.630       61.395       39.579     3094.659     3769.359     1566.479        0.516        0.422       43.402       27.794        0.410      331.842        0.119      864.507
01/02/2022  12:56:00      113.971       11.873      -19.004       63.670       34.914       30.420     4053.873     1218.969      925.403        0.984        0.310      114.587       21.758        0.036      331.173       -0.981      864.473
01/02/2022  12:57:00       53.689       34.980      -21.081       45.053       53.540       27.843     2029.733     2866.534      775.230        0.511        0.284       64.079       19.607        0.094      331.488       -0.463      864.435
01/02/2022  12:58:00       91.227       22.207       -9.794       75.339       71.673       40.289     5675.893     5136.962     1623.170        1.067        0.622       93.891       38.563        0.169      331.491       -0.459      864.384
01/02/2022  12:59:00      143.694       19.420       -9.830       89.807       52.219       33.982     8065.233     2726.823     1154.781        1.653        0.597      145.000       32.488        0.050      331.390       -0.628      864.343
01/02/2022  13:00:00      180.084       50.863      -25.689       63.556       69.857       33.989     4039.341     4879.989     1155.233        2.287        0.504      187.129       28.690        0.024      331.289       -0.793      864.395
01/02/2022  13:01:00       60.421        7.764      -19.214       43.686       68.329       32.527     1908.486     4668.821     1057.995        0.586        0.382       60.918       25.281        0.172      331.504       -0.438      864.414
01/02/2022  13:02:00       62.409     -113.058      -28.604       41.693       57.808       32.067     1738.304     3341.795     1028.282        1.180        0.305      129.139       17.403        0.018      331.205       -0.931      864.400
01/02/2022  13:03:00      143.825       28.921      -13.468       84.385       59.567       40.919     7120.882     3548.242     1674.395        1.702        0.617      146.704       35.657        0.059      331.402       -0.606      864.397
01/02/2022  13:04:00      108.954       38.654      -12.024       98.053       58.358       37.072     9614.446     3405.671     1374.353        1.395        0.720      115.608       31.069        0.072      331.621       -0.247      864.377
01/02/2022  13:05:00      170.015       70.802      -14.950       61.698       46.301       28.702     3806.679     2143.763      823.832        2.046        0.339      184.169       25.336        0.019      331.267       -0.829      864.348
01/02/2022  13:06:00       92.743       12.911      -21.771       49.621       53.847       34.452     2462.231     2899.498     1186.969        0.789        0.327       93.638       18.806        0.040      331.641       -0.212      864.296
01/02/2022  13:07:00      114.457       40.974      -26.932       58.349       44.757       26.547     3404.560     2003.230      704.758        1.081        0.306      121.570       20.365        0.028      331.553       -0.359      864.337
01/02/2022  13:08:00       38.127       24.199      -25.101       58.152       64.147       34.129     3381.671     4114.796     1164.774        0.566        0.433       45.158       21.897        0.235      332.101        0.546      864.320
01/02/2022  13:09:00       78.804      -27.020      -38.434       69.421       70.295       42.127     4819.292     4941.408     1774.705        0.997        0.577       83.308       30.391        0.133      332.144        0.615      864.236
01/02/2022  13:10:00       80.892      -52.895      -29.335       50.370       76.633       54.715     2537.166     5872.612     2993.679        1.080        0.570       96.652       29.423        0.093      332.174        0.665      864.270
01/02/2022  13:11:00       53.364      -71.091      -31.207       48.725      107.061       36.883     2374.085    11462.154     1360.321        1.203        0.760       88.891       30.434        0.117      331.911        0.231      864.303
01/02/2022  13:12:00       84.654       -0.600      -27.738       59.723       54.902       41.473     3566.847     3014.258     1719.970        0.812        0.415       84.656       36.217        0.183      331.730       -0.066      864.213
01/02/2022  13:13:00      160.747       35.715      -17.675       65.798       41.254       27.880     4329.325     1701.868      777.314        1.712        0.340      164.667       12.784        0.006      331.301       -0.773      864.126
01/02/2022  13:14:00      114.643       14.686      -25.180       56.163       55.347       30.289     3154.326     3063.254      917.445        1.056        0.357      115.580       23.297        0.041      331.559       -0.349      864.154
01/02/2022  13:15:00      108.876      -59.217      -26.504       53.887       51.973       34.358     2903.773     2701.186     1180.481        1.142        0.339      123.938       26.239        0.045      331.535       -0.387      864.172
01/02/2022  13:16:00       78.036      -76.986      -24.777       42.219       57.753       30.307     1782.420     3335.444      918.510        0.933        0.302      109.620       25.436        0.054      331.484       -0.472      864.195
01/02/2022  13:17:00       40.650      -41.086       -1.029       48.464       42.381       31.072     2348.734     1796.120      965.463        0.422        0.256       57.797       31.379        0.295      331.767       -0.003      864.221
01/02/2022  13:18:00        6.676       15.118        3.663       17.907       19.915       18.071      320.654      396.622      326.568        0.066        0.052       16.526       12.052        0.532      331.996        0.372      864.174
01/02/2022  13:19:00       18.011       -0.113       -5.605       52.821       38.833       35.401     2790.073     1508.012     1253.251        0.295        0.278       18.011       27.241        2.287      332.231        0.759      864.153
01/02/2022  13:20:00       59.656      -18.394      -10.788       63.546       60.765       38.777     4038.148     3692.435     1503.660        0.662        0.462       62.427       33.338        0.285      332.152        0.630      864.110
01/02/2022  13:21:00      164.669        2.822      -24.081       57.228       59.102       31.595     3275.100     3493.015      998.246        1.773        0.388      164.693       31.277        0.036      331.505       -0.438      864.040
01/02/2022  13:22:00       43.652       63.341      -11.987       34.726       30.278       25.470     1205.876      916.737      648.730        0.442        0.139       76.926       20.674        0.072      331.614       -0.258      864.000
01/02/2022  13:23:00      101.516       55.570      -21.185       35.832       23.200       18.518     1283.943      538.261      342.898        0.800        0.108      115.730       18.008        0.024      331.630       -0.231      864.051
01/02/2022  13:24:00       48.644       -9.629      -17.969       54.853       92.666       35.224     3008.885     8587.045     1240.706        0.781        0.642       49.588       45.945        0.858      331.920        0.246      864.094
01/02/2022  13:25:00      131.869       20.297      -14.311       47.972       51.514       36.295     2301.272     2653.670     1317.345        1.214        0.314      133.421       21.752        0.027      331.593       -0.292      864.084
01/02/2022  13:26:00      153.710       56.847      -11.455       51.412       46.464       33.796     2643.190     2158.940     1142.174        1.647        0.297      163.885       19.776        0.015      331.761       -0.016      863.996
01/02/2022  13:27:00      140.661       50.715      -10.647       53.411       53.865       37.481     2852.783     2901.482     1404.826        1.481        0.358      149.525       23.815        0.025      331.779        0.013      864.004
01/02/2022  13:28:00       96.816       22.200      -32.949       31.382       36.207       19.161      984.835     1310.923      367.126        0.681        0.133       99.329       10.026        0.010      331.427       -0.565      864.110
01/02/2022  13:29:00        1.783       -3.425      -10.689       32.073       46.306       29.829     1028.704     2144.272      889.747        0.210        0.203        3.861       24.093       38.934      331.977        0.341      864.192
01/02/2022  13:30:00      181.403      118.273      -15.423       80.760       43.481       38.755     6522.168     1890.567     1501.957        2.852        0.496      216.554       30.152        0.019      331.546       -0.372      864.100
01/02/2022  13:31:00      204.821       87.057      -26.100       73.098       59.079       39.148     5343.319     3490.357     1532.589        3.029        0.518      222.555       11.420        0.003      331.568       -0.335      863.959
01/02/2022  13:32:00       66.518       55.748      -16.488       50.477       36.895       26.313     2547.891     1361.206      692.363        0.620        0.230       86.790       20.926        0.058      331.744       -0.043      863.987
01/02/2022  13:33:00       49.128       54.073       -7.182       23.868       35.594       24.032      569.700     1266.961      577.522        0.390        0.121       73.057        9.888        0.018      331.739       -0.052      864.033
01/02/2022  13:34:00      138.479       71.164      -24.618       27.668       23.444       18.931      765.511      549.615      358.366        1.326        0.084      155.695       11.939        0.006      331.570       -0.332      863.962
01/02/2022  13:35:00       50.040      -29.515      -16.246       62.514       80.232       30.474     3907.996     6437.113      928.676        0.745        0.564       58.096       30.742        0.280      332.336        0.932      863.959
01/02/2022  13:36:00       78.516      -94.105      -37.545       44.894       50.938       31.819     2015.440     2594.695     1012.422        1.103        0.281      122.558       33.047        0.073      331.884        0.188      864.030
01/02/2022  13:37:00      138.608       13.352      -26.939       62.976       50.405       28.694     3965.935     2540.663      823.330        1.372        0.366      139.249       26.042        0.035      331.728       -0.071      863.973
01/02/2022  13:38:00      174.691      114.539      -27.066       39.206       30.298       26.346     1537.105      917.975      694.092        2.376        0.157      208.893       12.156        0.003      331.689       -0.135      863.811
01/02/2022  13:39:00      144.206       34.586      -22.580       49.766       66.567       31.250     2476.661     4431.139      976.586        1.519        0.394      148.295       19.900        0.018      331.997        0.373      863.684
01/02/2022  13:40:00      142.177       51.494      -13.247       91.218       60.136       37.820     8320.633     3616.298     1430.373        1.820        0.668      151.215       41.976        0.077      332.135        0.599      863.710
01/02/2022  13:41:00       66.121      -98.733      -28.018       66.247       92.468       42.846     4388.641     8550.390     1835.765        1.484        0.739      118.828       37.506        0.100      332.320        0.905      863.758
01/02/2022  13:42:00       80.256     -109.608      -38.626       57.473       56.536       27.930     3303.105     3196.325      780.071        1.361        0.364      135.849       24.327        0.032      332.199        0.707      863.755
01/02/2022  13:43:00       55.116      -81.960      -25.247       59.035       70.824       34.549     3485.164     5015.999     1193.638        1.004        0.485       98.768       32.007        0.105      332.305        0.881      863.713
01/02/2022  13:44:00       48.977      -50.273      -37.248       71.923       96.451       48.381     5172.855     9302.847     2340.697        1.156        0.841       70.186       46.410        0.437      332.356        0.965      863.643
01/02/2022  13:45:00       35.376      -10.733      -26.857       41.831       57.168       34.938     1749.860     3268.224     1220.697        0.416        0.312       36.968       17.223        0.217      332.465        1.146      863.561
01/02/2022  13:46:00       65.058       74.651       -3.791       45.021       53.354       31.548     2026.911     2846.670      995.300        0.784        0.293       99.022       28.056        0.080      332.109        0.557      863.493
01/02/2022  13:47:00       37.095       13.681      -10.398       24.761       19.488       20.125      613.127      379.800      405.032        0.153        0.070       39.537       11.812        0.089      332.186        0.685      863.541
01/02/2022  13:48:00      -43.730      -24.178      -17.738       28.378       42.493       24.786      805.293     1805.688      614.323        0.302        0.161       49.969       15.231        0.093      332.593        1.356      863.591
01/02/2022  13:49:00       13.913       19.187      -15.068       51.764       42.295       32.953     2679.544     1788.827     1085.921        0.317        0.278       23.701       22.802        0.926      332.437        1.099      863.543
01/02/2022  13:50:00       67.418      -41.528      -31.953       50.506       43.195       35.989     2550.855     1865.804     1295.228        0.650        0.286       79.182       14.905        0.035      332.607        1.380      863.463
01/02/2022  13:51:00       43.803      -66.141       -0.628       65.608       67.472       48.655     4304.415     4552.455     2367.266        0.876        0.561       79.331       37.692        0.226      332.589        1.350      863.493
01/02/2022  13:52:00       16.031      -32.656      -14.450       41.859       71.908       32.406     1752.193     5170.737     1050.156        0.475        0.399       36.379       33.315        0.839      332.803        1.703      863.539
01/02/2022  13:53:00      119.453       34.694      -21.230       55.743       42.987       25.636     3107.310     1847.858      657.226        1.077        0.281      124.389       14.643        0.014      332.132        0.595      863.551
01/02/2022  13:54:00       38.968       21.947      -12.402       26.221       26.292       17.658      687.545      691.259      311.817        0.192        0.085       44.724        6.353        0.020      332.335        0.930      863.579
01/02/2022  13:55:00       26.885       63.085       -7.890       20.932       18.944       15.386      438.145      358.881      236.737        0.290        0.052       68.575       13.954        0.041      331.973        0.335      863.590
01/02/2022  13:56:00       70.285       56.927      -10.094       44.095       48.059       22.524     1944.343     2309.669      507.321        0.652        0.238       90.447       20.271        0.050      332.169        0.656      863.560
01/02/2022  13:57:00       46.490      -20.408      -16.203       42.543       53.063       26.178     1809.934     2815.667      685.313        0.407        0.266       50.772       18.644        0.135      332.508        1.216      863.576
01/02/2022  13:58:00       15.172     -102.991      -27.229       61.272       40.652       32.178     3754.250     1652.598     1035.434        0.901        0.322      104.102       23.073        0.049      332.512        1.223      863.580
01/02/2022  13:59:00       87.964       17.456      -30.866       49.677       39.134       24.940     2467.781     1531.464      622.012        0.681        0.231       89.680       19.823        0.049      332.319        0.904      863.538
01/02/2022  14:00:00       57.968      -11.226      -17.757       64.557       41.740       41.339     4167.640     1742.249     1708.895        0.571        0.381       59.045       32.601        0.305      332.525        1.244      863.461
01/02/2022  14:01:00       85.857       70.800      -21.325       39.074       29.525       25.684     1526.754      871.728      659.644        0.795        0.153      111.283       19.082        0.029      332.483        1.175      863.456
01/02/2022  14:02:00       53.303       80.901      -15.185       51.106       38.576       27.951     2611.811     1488.099      781.261        0.725        0.244       96.882       21.559        0.050      332.446        1.113      863.498
01/02/2022  14:03:00       92.118       58.591      -15.384       39.017       25.403       17.341     1522.308      645.328      300.698        0.731        0.123      109.172       13.497        0.015      332.100        0.544      863.510
01/02/2022  14:04:00       79.716       34.016      -24.040       42.407       34.376       17.406     1798.349     1181.684      302.976        0.569        0.164       86.670       15.857        0.033      332.043        0.448      863.483
01/02/2022  14:05:00       27.628       20.814      -16.269       31.682       30.834       15.381     1003.758      950.728      236.569        0.183        0.110       34.591       11.111        0.103      332.439        1.102      863.438
01/02/2022  14:06:00       19.142       67.596        4.087       33.737       35.586       20.279     1138.195     1266.377      411.230        0.388        0.141       70.254       12.121        0.030      332.616        1.396      863.419
01/02/2022  14:07:00       26.122       22.424       -1.118       58.410       30.757       26.083     3411.750      945.987      680.303        0.311        0.252       34.426       20.443        0.353      332.823        1.737      863.411
01/02/2022  14:08:00       69.731      -11.393       -8.467       41.312       34.799       23.276     1706.654     1210.991      541.795        0.426        0.173       70.656       17.840        0.064      332.549        1.283      863.418
01/02/2022  14:09:00       68.773       -3.946       -7.507       47.748       30.053       25.996     2279.827      903.196      675.775        0.433        0.193       68.886       21.399        0.097      332.573        1.324      863.409
01/02/2022  14:10:00       12.207       13.590      -19.481       45.365       34.520       26.415     2057.977     1191.602      697.743        0.233        0.197       18.267       18.940        1.075      332.694        1.523      863.387
01/02/2022  14:11:00        4.021      -61.065      -37.062       37.859       52.241       21.040     1433.320     2729.143      442.680        0.486        0.230       61.198       21.429        0.123      332.755        1.625      863.404
01/02/2022  14:12:00       28.583      -55.659      -22.073       33.426       36.486       28.755     1117.280     1331.261      826.873        0.384        0.164       62.569       22.969        0.135      332.653        1.458      863.445
01/02/2022  14:13:00       -8.030      -54.807      -23.511       37.863       31.177       19.700     1433.577      972.027      388.101        0.321        0.140       55.392       18.670        0.114      332.378        1.001      863.472
01/02/2022  14:14:00       22.228      -13.826        1.204       42.568       37.015       32.131     1812.068     1370.075     1032.386        0.245        0.211       26.177       27.440        1.099      332.738        1.596      863.445
01/02/2022  14:15:00      222.047       56.558      -26.170       48.540       36.258       28.920     2356.162     1314.636      836.383        2.885        0.225      229.137       23.037        0.010      332.305        0.878      863.394
01/02/2022  14:16:00      117.044       56.556      -20.669       62.475       37.587       29.897     3903.181     1412.757      893.853        1.177        0.310      129.992       19.837        0.023      332.308        0.886      863.380
01/02/2022  14:17:00       55.744       55.244       -5.220       55.718       33.679       24.877     3104.444     1134.242      618.848        0.552        0.243       78.482       17.692        0.051      332.536        1.261      863.420
01/02/2022  14:18:00       70.226       62.694      -11.581       32.159       25.871       21.625     1034.204      669.312      467.625        0.558        0.109       94.139       16.954        0.032      332.392        1.023      863.465
01/02/2022  14:19:00       65.246       79.890      -12.690       28.504       28.316       19.274      812.453      801.773      371.473        0.639        0.099      103.148       17.368        0.028      332.387        1.016      863.465
01/02/2022  14:20:00       68.841       66.955      -13.094       39.168       31.420       21.321     1534.133      987.196      454.590        0.618        0.149       96.032       17.283        0.032      332.521        1.237      863.428
01/02/2022  14:21:00       19.250       26.944      -11.180       29.280       28.100       22.534      857.334      789.629      507.791        0.169        0.108       33.114       15.319        0.214      332.764        1.640      863.422
01/02/2022  14:22:00      -12.902      -31.652       -1.396       35.281       31.536       23.843     1244.779      994.528      568.471        0.199        0.140       34.180       17.093        0.250      332.979        1.995      863.484
01/02/2022  14:23:00       31.677        6.415       -6.336       27.674       44.475       23.982      765.832     1977.985      575.120        0.220        0.166       32.320       15.177        0.221      332.937        1.925      863.543
01/02/2022  14:24:00       99.532      -11.757      -28.057       53.828       37.723       28.916     2897.442     1423.046      836.137        0.799        0.258      100.224       28.142        0.079      332.580        1.337      863.581
01/02/2022  14:25:00      100.766       31.307      -22.877       64.428       60.365       43.507     4151.021     3643.970     1892.900        1.067        0.484      105.518       33.918        0.103      332.864        1.804      863.513
01/02/2022  14:26:00      180.645       74.476      -20.389       68.111       42.255       28.443     4639.059     1785.491      809.014        2.291        0.362      195.395       16.666        0.007      332.533        1.253      863.483
01/02/2022  14:27:00       88.928       65.183      -15.177       53.763       19.117       14.170     2890.500      365.447      200.782        0.792        0.173      110.259       18.484        0.028      332.394        1.024      863.541
01/02/2022  14:28:00       15.128       16.326      -15.188       11.723       12.779       14.631      137.422      163.291      214.077        0.062        0.026       22.258        9.149        0.169      332.544        1.275      863.622
01/02/2022  14:29:00      -13.018      -15.918       -8.507       25.558       23.609       20.658      653.227      557.398      426.739        0.107        0.082       20.564       14.831        0.520      332.869        1.813      863.640
01/02/2022  14:30:00       64.417       58.844      -26.298       50.889       43.681       27.658     2589.646     1908.051      764.974        0.678        0.263       87.248       21.118        0.059      332.754        1.622      863.629
01/02/2022  14:31:00       46.326       17.297      -40.028       33.185       64.501       29.301     1101.218     4160.433      858.573        0.508        0.306       49.450       21.928        0.197      332.757        1.627      863.596
01/02/2022  14:32:00       73.179       28.977      -17.179       39.693       34.742       25.541     1575.514     1207.038      652.363        0.496        0.172       78.707       16.249        0.043      332.599        1.367      863.560
01/02/2022  14:33:00       71.151       43.957      -11.794       23.535       18.982       19.592      553.919      360.307      383.865        0.422        0.065       83.634       11.069        0.018      332.643        1.439      863.524
01/02/2022  14:34:00       64.873       25.135      -19.080       33.828       22.054       20.063     1144.338      486.368      402.516        0.362        0.102       69.572       16.865        0.059      332.638        1.431      863.501
01/02/2022  14:35:00       41.026       22.003       -9.384       27.354       23.281       15.078      748.267      541.986      227.341        0.189        0.076       46.553        9.509        0.042      332.660        1.468      863.515
01/02/2022  14:36:00       70.049       28.250       -9.037       26.055       24.284       16.786      678.846      589.718      281.772        0.367        0.078       75.531        9.262        0.015      332.699        1.534      863.518
01/02/2022  14:37:00      102.524       60.397      -18.455       33.241       33.257       18.644     1104.938     1106.031      347.597        0.853        0.128      118.992       12.280        0.011      332.764        1.640      863.480
01/02/2022  14:38:00       82.488       70.976      -24.345       38.032       41.644       28.312     1446.445     1734.260      801.563        0.821        0.199      108.821       11.392        0.011      332.895        1.855      863.428
01/02/2022  14:39:00       60.810       51.878      -11.117       43.259       51.171       30.408     1871.321     2618.476      924.618        0.596        0.271       79.933       19.705        0.061      332.903        1.869      863.393
01/02/2022  14:40:00       64.838       29.322      -20.989       43.008       45.414       26.577     1849.675     2062.464      706.351        0.506        0.231       71.160       16.906        0.056      332.921        1.899      863.395
01/02/2022  14:41:00       64.075       21.719      -13.258       35.041       27.864       20.451     1227.866      776.419      418.229        0.359        0.121       67.656        6.515        0.009      332.841        1.765      863.423
01/02/2022  14:42:00        7.583      -24.537      -21.204       21.955       33.911       25.185      482.011     1149.946      634.260        0.169        0.113       25.682       16.335        0.405      333.082        2.166      863.479
01/02/2022  14:43:00       19.271      -38.768      -29.187       34.133       27.187       25.175     1165.062      739.124      633.785        0.263        0.127       43.293       18.236        0.177      333.040        2.096      863.504
01/02/2022  14:44:00       31.286       23.648      -19.899       62.211       43.315       18.388     3870.243     1876.174      338.127        0.401        0.304       39.218        7.499        0.037      332.954        1.953      863.486
01/02/2022  14:45:00       96.018       17.040      -26.290       25.560       23.931       14.780      653.308      572.700      218.452        0.582        0.072       97.518       10.052        0.011      332.692        1.518      863.457
01/02/2022  14:46:00       93.234       18.632      -23.978       34.832       26.531       14.949     1213.286      703.873      223.463        0.588        0.107       95.078       11.494        0.015      332.729        1.581      863.460
01/02/2022  14:47:00      116.299       22.191      -11.463       36.086       28.431       17.838     1302.203      808.348      318.206        0.829        0.121      118.397       14.450        0.015      332.817        1.727      863.506
01/02/2022  14:48:00       64.014       39.726      -20.655       26.664       11.605       10.723      710.951      134.687      114.979        0.353        0.048       75.339        5.959        0.006      332.697        1.530      863.530
01/02/2022  14:49:00       23.141       37.736      -10.202       24.053       20.703       18.045      578.538      428.606      325.621        0.170        0.067       44.266       15.613        0.124      332.802        1.701      863.494
01/02/2022  14:50:00       33.262       58.762      -12.866       25.214       24.891       19.502      635.722      619.556      380.331        0.318        0.082       67.523       14.342        0.045      332.915        1.889      863.428
01/02/2022  14:51:00       39.574       58.463       -8.883       24.294       23.335       13.045      590.198      544.543      170.184        0.318        0.065       70.598       10.157        0.021      332.886        1.842      863.390
01/02/2022  14:52:00       32.969       24.606       -7.664       25.545       18.699       18.824      652.558      349.645      354.360        0.155        0.068       41.139       13.726        0.111      332.899        1.863      863.409
01/02/2022  14:53:00       20.940       33.247       -3.337       19.653       18.709       12.080      386.224      350.017      145.929        0.122        0.044       39.292        9.115        0.054      332.932        1.917      863.458
01/02/2022  14:54:00        6.267       -9.025      -18.142       33.036       31.799       22.553     1091.390     1011.196      508.640        0.153        0.131       10.988       15.858        2.083      333.129        2.242      863.490
01/02/2022  14:55:00       26.478      -21.405      -18.729       39.578       59.247       31.906     1566.450     3510.215     1017.997        0.380        0.305       34.048       23.072        0.459      333.218        2.389      863.491
01/02/2022  14:56:00       66.420      -36.746      -34.439       58.096       72.945       41.486     3375.128     5320.906     1721.049        0.868        0.521       75.907       33.986        0.200      333.376        2.651      863.472
01/02/2022  14:57:00       90.100      -18.233      -19.489       50.827       40.936       33.553     2583.420     1675.728     1125.818        0.711        0.269       91.927       25.171        0.075      333.318        2.556      863.453
01/02/2022  14:58:00       73.103      -15.110      -25.946       58.895       48.399       29.396     3468.582     2342.417      864.133        0.646        0.334       74.648       27.940        0.140      333.217        2.388      863.457
01/02/2022  14:59:00      -18.472      -22.553       -7.866       37.326       26.878       22.007     1393.204      722.445      484.308        0.176        0.130       29.153       13.872        0.226      333.371        2.642      863.473
01/02/2022  15:00:00       86.223      -19.164      -19.112       51.216       35.330       22.679     2623.041     1248.230      514.323        0.628        0.219       88.327       23.308        0.070      333.168        2.307      863.488
01/02/2022  15:01:00       54.156       29.080      -10.267       41.763       56.077       38.800     1744.107     3144.615     1505.474        0.514        0.320       61.469       21.345        0.121      333.024        2.069      863.494
01/02/2022  15:02:00       86.001       63.560      -19.861       39.163       47.925       29.916     1533.703     2296.784      894.939        0.828        0.236      106.939       25.024        0.055      332.936        1.925      863.471
01/02/2022  15:03:00       98.793        8.925       -9.579       37.487       46.867       18.949     1405.238     2196.484      359.063        0.695        0.198       99.195       17.014        0.029      332.967        1.976      863.427
01/02/2022  15:04:00       64.174        7.850      -11.163       28.609       20.624       19.972      818.503      425.369      398.880        0.297        0.082       64.652        4.986        0.006      332.894        1.853      863.410
01/02/2022  15:05:00      130.846       18.482      -13.219       28.122       19.723       18.309      790.833      388.983      335.221        0.958        0.076      132.144        4.646        0.001      332.840        1.764      863.382
01/02/2022  15:06:00      148.352       18.677       -8.785       33.920       36.787       23.653     1150.583     1353.308      559.481        1.275        0.153      149.523       14.071        0.009      332.848        1.776      863.318
01/02/2022  15:07:00      122.166        4.596      -10.613       37.498       34.608       19.993     1406.098     1197.710      399.729        0.903        0.150      122.253       10.012        0.007      332.899        1.863      863.266
01/02/2022  15:08:00       58.450       32.529       -1.141       42.398       29.589       26.981     1797.585      875.505      727.979        0.394        0.170       66.892       14.772        0.049      332.925        1.907      863.256
01/02/2022  15:09:00       52.819        3.580       -3.663       60.207       37.032       21.813     3624.927     1371.406      475.813        0.414        0.274       52.941       15.281        0.083      333.088        2.175      863.274
01/02/2022  15:10:00       14.984        1.176        0.062       29.133       11.768       13.723      848.705      138.494      188.330        0.070        0.059       15.030       16.288        1.174      333.129        2.242      863.316
01/02/2022  15:11:00       30.132       -7.302      -18.896       43.016       55.999       18.782     1850.411     3135.877      352.779        0.333        0.267       31.004       22.123        0.509      332.955        1.954      863.373
01/02/2022  15:12:00       66.431     -124.815      -29.010       45.539       43.730       30.577     2073.816     1912.293      934.944        1.288        0.246      141.392       29.196        0.043      333.106        2.204      863.418
01/02/2022  15:13:00       32.857      -63.870      -11.935       40.011       67.597       28.019     1600.863     4569.313      785.067        0.613        0.348       71.826       24.111        0.113      333.130        2.244      863.430
01/02/2022  15:14:00       72.289       22.113      -18.773       33.479       46.928       29.470     1120.815     2202.229      868.467        0.513        0.210       75.596       19.053        0.064      333.101        2.197      863.421
01/02/2022  15:15:00       61.920       42.193      -17.079       23.294       32.008       20.399      542.593     1024.512      416.113        0.394        0.099       74.928       11.173        0.022      332.984        2.004      863.413
01/02/2022  15:16:00       62.624       49.922      -13.977       23.227       16.903       15.899      539.489      285.707      252.768        0.384        0.054       80.087        9.087        0.013      332.885        1.843      863.391
01/02/2022  15:17:00      121.613       61.554      -14.618       39.488       19.372       15.271     1559.308      375.257      233.190        1.048        0.108      136.303        6.855        0.003      332.916        1.889      863.350
01/02/2022  15:18:00      102.810       14.305      -15.646       61.271       52.439       32.312     3754.114     2749.833     1044.045        0.928        0.377      103.801       19.423        0.035      333.030        2.080      863.290
01/02/2022  15:19:00      115.434       38.300      -12.397       40.885       46.528       26.841     1671.563     2164.893      720.424        0.975        0.228      121.622       22.376        0.034      332.988        2.008      863.258
01/02/2022  15:20:00      104.915       21.862      -13.251       62.030       32.641       25.996     3847.663     1065.457      675.781        0.862        0.279      107.168       15.757        0.022      333.046        2.104      863.272
01/02/2022  15:21:00      101.238       19.414       -9.568       28.288       29.496       19.208      800.184      870.018      368.933        0.638        0.102      103.082       15.800        0.023      332.947        1.941      863.293
01/02/2022  15:22:00       93.218       52.441      -12.980       56.069       28.602       19.506     3143.737      818.064      380.491        0.797        0.217      106.957       16.066        0.023      332.992        2.015      863.316
01/02/2022  15:23:00       26.985        6.568      -17.486       18.267       26.792       15.212      333.697      717.808      231.412        0.118        0.064       27.773        7.320        0.069      333.207        2.372      863.369
01/02/2022  15:24:00       28.672        0.698       -8.472       15.634       25.321       13.437      244.417      641.177      180.552        0.098        0.053       28.681       12.082        0.177      333.246        2.436      863.423
01/02/2022  15:25:00       25.231       50.220        2.730       46.559       44.581       23.794     2167.784     1987.460      566.158        0.394        0.236       56.202       18.825        0.112      333.125        2.237      863.440
01/02/2022  15:26:00       69.549       64.380       -8.385       50.667       47.670       31.527     2567.137     2272.462      993.966        0.744        0.292       94.773       16.691        0.031      333.092        2.182      863.422
01/02/2022  15:27:00      148.970       81.478      -28.330       25.558       48.013       21.576      653.215     2305.287      465.524        1.653        0.171      169.796       13.100        0.006      333.077        2.155      863.391
01/02/2022  15:28:00       95.441       48.911      -19.509       32.651       12.785       13.718     1066.075      163.468      188.188        0.665        0.071      107.244        7.280        0.005      333.001        2.031      863.332
01/02/2022  15:29:00      122.328       54.195      -21.953       26.402       27.277       24.276      697.048      744.038      589.302        1.021        0.102      133.796       16.830        0.016      333.048        2.110      863.299
01/02/2022  15:30:00      145.977       21.461      -14.491       52.488       29.329       19.904     2754.978      860.186      396.187        1.299        0.201      147.546       13.335        0.008      333.113        2.216      863.287
01/02/2022  15:31:00      222.456       19.519      -18.276       57.630       51.384       31.517     3321.273     2640.306      993.291        2.858        0.348      223.311        9.183        0.002      333.132        2.243      863.286
01/02/2022  15:32:00      212.315       74.770      -26.507       42.636       45.002       25.355     1817.792     2025.207      642.890        2.793        0.224      225.096       15.237        0.005      333.043        2.095      863.290
01/02/2022  15:33:00      167.702       62.974      -23.384       55.671       51.574       30.232     3099.251     2659.886      913.994        1.965        0.334      179.136       21.210        0.014      333.057        2.121      863.298
01/02/2022  15:34:00      174.214       48.231      -17.437       59.216       40.938       23.591     3506.514     1675.890      556.529        1.936        0.287      180.768       24.209        0.018      333.036        2.087      863.310
01/02/2022  15:35:00      149.523       77.531      -17.372       45.388       37.841       30.554     2060.111     1431.942      933.523        1.655        0.221      168.429       26.037        0.024      333.056        2.123      863.309
01/02/2022  15:36:00       54.228       55.676       -7.633       44.521       30.517       19.951     1982.147      931.276      398.059        0.470        0.166       77.721       15.432        0.039      333.135        2.253      863.288
01/02/2022  15:37:00      111.547       69.279      -18.745       35.911       27.019       20.433     1289.619      730.032      417.498        1.001        0.122      131.310       14.694        0.013      333.194        2.349      863.261
01/02/2022  15:38:00       67.085       32.618       -5.621       29.433       34.495       21.269      866.291     1189.885      452.356        0.405        0.125       74.595       15.257        0.042      333.231        2.410      863.261
01/02/2022  15:39:00       50.446       37.532       -4.261       28.746       25.945       25.006      826.335      673.137      625.299        0.305        0.106       62.876       17.840        0.081      333.166        2.305      863.281
01/02/2022  15:40:00       40.113       -6.075      -20.162       39.039       41.216       31.469     1524.081     1698.748      990.276        0.313        0.211       40.571       19.744        0.237      333.416        2.716      863.300
01/02/2022  15:41:00       33.849       26.936      -33.298       27.598       43.467       32.135      761.637     1889.348     1032.671        0.333        0.184       43.259       12.789        0.087      333.459        2.789      863.307
01/02/2022  15:42:00       -7.015      -12.972       -7.260       29.848       46.883       30.010      890.932     2197.971      900.616        0.213        0.199       14.747       16.340        1.228      333.534        2.912      863.316
01/02/2022  15:43:00       40.905       26.976      -13.122       49.133       56.111       30.735     2414.086     3148.406      944.621        0.454        0.325       48.999       26.076        0.283      333.364        2.630      863.322
01/02/2022  15:44:00       33.606       15.583      -11.750       39.018       45.250       31.354     1522.376     2047.526      983.101        0.303        0.228       37.043       16.337        0.195      333.290        2.509      863.332
01/02/2022  15:45:00       56.161       -0.871      -20.387       34.408       20.753       19.491     1183.922      430.678      379.914        0.278        0.100       56.168        7.857        0.020      333.155        2.285      863.354
01/02/2022  15:46:00       51.166       29.685      -16.516       29.847       25.841       16.675      890.826      667.768      278.058        0.280        0.092       59.154        4.846        0.007      333.133        2.249      863.385
01/02/2022  15:47:00        1.604      -24.380      -17.188       30.522       29.147       21.260      931.590      849.538      451.994        0.156        0.112       24.433       11.437        0.219      333.392        2.677      863.416
01/02/2022  15:48:00      -32.244       -0.259      -13.453       27.257       35.394       23.112      742.930     1252.710      534.184        0.187        0.126       32.245       10.694        0.110      333.525        2.898      863.423
01/02/2022  15:49:00      -10.536      -27.008      -20.508       43.918       30.697       28.309     1928.802      942.280      801.375        0.247        0.184       28.990       11.457        0.156      333.565        2.964      863.424
01/02/2022  15:50:00       49.977       25.737      -16.990       29.426       58.697       26.006      865.904     3445.321      676.337        0.422        0.249       56.215       17.002        0.091      333.405        2.700      863.444
01/02/2022  15:51:00       43.514       50.099      -11.330       26.923       21.282       17.191      724.822      452.935      295.525        0.300        0.074       66.358       12.175        0.034      333.160        2.293      863.457
01/02/2022  15:52:00       42.513       28.481        1.223       33.043       44.593       22.254     1091.841     1988.495      495.243        0.310        0.179       51.171       17.212        0.113      333.233        2.414      863.442
01/02/2022  15:53:00       95.599       33.651      -18.030       15.651       23.664       14.120      244.939      559.970      199.375        0.580        0.050      101.349        8.438        0.007      333.103        2.200      863.397
01/02/2022  15:54:00       92.643       30.754      -16.943       42.069       38.765       25.017     1769.820     1502.701      625.847        0.686        0.195       97.614        8.626        0.008      333.147        2.272      863.344
01/02/2022  15:55:00      125.819       55.344      -11.611       46.263       36.784       23.405     2140.299     1353.047      547.801        1.153        0.202      137.453       15.601        0.013      333.066        2.137      863.302
01/02/2022  15:56:00      105.450       14.976      -12.135       55.979       37.775       19.781     3133.677     1426.972      391.277        0.822        0.248      106.508       14.653        0.019      333.090        2.179      863.290
01/02/2022  15:57:00       77.155       63.504      -16.830       59.350       31.161       21.113     3522.426      971.030      445.746        0.760        0.247       99.928       28.338        0.080      333.086        2.172      863.294
01/02/2022  15:58:00       76.333       34.175      -13.585       22.410       14.936       12.119      502.196      223.083      146.874        0.403        0.044       83.634       11.184        0.018      333.060        2.131      863.313
01/02/2022  15:59:00       52.691       26.449      -15.320       29.949       24.293       14.640      896.960      590.149      214.343        0.271        0.085       58.956       12.438        0.045      333.154        2.282      863.311
01/02/2022  16:00:00       24.703        9.187      -14.596       31.949       20.991       18.773     1020.723      440.604      352.431        0.136        0.091       26.357       11.371        0.186      333.151        2.280      863.293
01/02/2022  16:01:00       69.457       10.577      -28.809       39.747       30.807       26.119     1579.825      949.069      682.206        0.449        0.161       70.258       16.376        0.054      333.208        2.374      863.249
01/02/2022  16:02:00       96.402       37.369      -20.149       21.013       25.143       17.959      441.547      632.193      322.509        0.625        0.070      103.392        8.429        0.007      333.084        2.170      863.232
01/02/2022  16:03:00       46.085       46.178       -9.857       28.544       26.475       21.677      814.761      700.925      469.894        0.317        0.099       65.240       15.227        0.054      333.105        2.203      863.244
01/02/2022  16:04:00       68.955       46.853       -9.762       26.679       18.694       18.720      711.750      349.470      350.438        0.423        0.071       83.367       12.922        0.024      333.083        2.169      863.259
01/02/2022  16:05:00       28.218       57.234       -2.805       30.194       30.539       18.783      911.705      932.604      352.808        0.314        0.110       63.813       18.320        0.082      333.145        2.270      863.289
01/02/2022  16:06:00       25.024       59.761       -5.407       22.821       31.811       13.588      520.807     1011.946      184.634        0.297        0.086       64.789       12.487        0.037      333.185        2.334      863.311
01/02/2022  16:07:00       72.115       43.524      -12.895       12.929       19.818        9.495      167.170      392.758       90.148        0.396        0.033       84.231        6.069        0.005      333.091        2.181      863.327
01/02/2022  16:08:00       95.861       37.555      -13.259       19.284       20.962       11.852      371.888      439.398      140.475        0.586        0.048      102.955        4.681        0.002      333.122        2.232      863.315
01/02/2022  16:09:00      138.643       15.583      -10.038       47.223       33.407       21.726     2230.047     1116.045      472.029        1.169        0.191      139.515       13.424        0.009      333.048        2.108      863.299
01/02/2022  16:10:00       81.182       13.923       -9.914       61.872       40.692       29.381     3828.171     1655.853      863.240        0.661        0.317       82.367       27.319        0.110      333.092        2.182      863.295
01/02/2022  16:11:00      123.358       47.048       -9.774       45.128       31.470       20.824     2036.498      990.372      433.632        1.049        0.173      132.025       17.558        0.018      333.012        2.048      863.307
01/02/2022  16:12:00      138.533       54.363      -17.937       34.646       35.920       16.831     1200.378     1290.242      283.289        1.262        0.139      148.817        5.834        0.002      332.991        2.014      863.318
01/02/2022  16:13:00      129.137        9.080       -9.863       30.175       22.678       15.737      910.546      514.271      247.643        0.926        0.084      129.456        8.764        0.005      332.996        2.023      863.310
01/02/2022  16:14:00      123.108       22.514      -10.430       30.391       27.136       16.835      923.594      736.359      283.418        0.886        0.097      125.150       12.156        0.009      332.981        1.997      863.302
01/02/2022  16:15:00      138.050       48.074      -16.355       37.198       28.784       25.908     1383.692      828.515      671.214        1.226        0.144      146.181       16.516        0.013      333.005        2.036      863.285
01/02/2022  16:16:00      130.955       63.413      -31.585       21.919       19.730       16.668      480.438      389.262      277.812        1.166        0.057      145.501       13.844        0.009      332.968        1.977      863.282
01/02/2022  16:17:00       95.239       56.088      -21.483       28.581       24.986       20.779      816.854      624.304      431.764        0.727        0.094      110.527       13.935        0.016      332.972        1.982      863.289
01/02/2022  16:18:00      128.755       37.036      -13.401       26.582       26.804       16.144      706.628      718.432      260.640        0.991        0.084      133.976       10.678        0.006      332.955        1.955      863.285
01/02/2022  16:19:00      140.507       45.287      -13.121       26.995       27.238       15.472      728.717      741.915      239.391        1.184        0.086      147.625       12.634        0.007      332.944        1.938      863.254
01/02/2022  16:20:00      112.311       29.203      -13.133       23.208       28.146       18.880      538.624      792.175      356.471        0.766        0.084      116.045        6.576        0.003      332.932        1.917      863.233
01/02/2022  16:21:00      108.346       47.375      -14.870       26.849       26.546       17.213      720.843      704.665      296.274        0.796        0.086      118.251       11.846        0.010      332.928        1.911      863.244
01/02/2022  16:22:00       62.776       29.970       -8.728       43.124       31.268       22.042     1859.699      977.684      485.859        0.412        0.166       69.563       28.945        0.173      332.949        1.945      863.262
01/02/2022  16:23:00       32.495        0.980       -0.379       31.783       28.986       21.750     1010.168      840.173      473.077        0.169        0.116       32.510       15.976        0.241      332.977        1.991      863.272
01/02/2022  16:24:00       76.356       26.593       -9.142       39.095       21.888       12.753     1528.395      479.071      162.650        0.440        0.109       80.854       17.622        0.047      332.981        1.997      863.280
01/02/2022  16:25:00       56.163       37.572      -10.726       22.289       19.085       14.574      496.818      364.232      212.396        0.288        0.054       67.572        8.435        0.016      332.910        1.881      863.295
01/02/2022  16:26:00       71.190       16.666      -12.593       16.077       12.479        9.280      258.470      155.729       86.114        0.300        0.025       73.114        6.846        0.009      332.958        1.959      863.308
01/02/2022  16:27:00       43.306       39.623      -14.014       15.061       14.265       10.580      226.832      203.500      111.926        0.209        0.027       58.698        6.409        0.012      332.969        1.973      863.324
01/02/2022  16:28:00       68.559       38.187      -12.907       12.517       16.998       12.909      156.669      288.947      166.643        0.347        0.031       78.477       10.997        0.020      332.973        1.984      863.332
01/02/2022  16:29:00       57.653       40.828      -14.877       17.910       14.025       13.999      320.776      196.692      195.963        0.296        0.036       70.646       11.528        0.027      332.978        1.991      863.312
01/02/2022  16:30:00       73.514       43.061      -10.187       19.618       17.577       14.924      384.856      308.963      222.732        0.414        0.046       85.197       10.614        0.016      332.972        1.985      863.262
01/02/2022  16:31:00      129.836       65.852      -20.512       40.738       25.435       16.201     1659.574      646.946      262.478        1.209        0.128      145.581        9.271        0.004      332.997        2.023      863.210
01/02/2022  16:32:00       88.789       -3.134       -8.601       34.459       31.020       23.326     1187.395      962.256      544.099        0.533        0.135       88.844       15.731        0.031      333.061        2.130      863.198
01/02/2022  16:33:00       26.987       -2.928      -16.819       40.212       51.879       22.889     1617.038     2691.409      523.922        0.293        0.242       27.145        9.560        0.124      333.033        2.084      863.230
01/02/2022  16:34:00       20.871     -103.541       -6.624       25.338       24.661       16.320      641.993      608.149      266.343        0.636        0.076      105.624        8.563        0.007      333.115        2.220      863.249
01/02/2022  16:35:00       26.763       10.499      -14.974       26.724       37.988       26.677      714.198     1443.119      711.644        0.196        0.143       28.749       15.180        0.279      333.015        2.054      863.248
01/02/2022  16:36:00      141.640       49.365      -20.070       25.198       33.690       14.538      634.927     1135.014      211.355        1.244        0.099      149.996       11.719        0.006      332.974        1.987      863.201
01/02/2022  16:37:00      150.727        0.000      -19.457       30.704       18.158       17.478      942.721      329.706      305.490        1.234        0.079      150.727       17.931        0.014      332.948        1.944      863.161
01/02/2022  16:38:00      127.533       -0.830       -9.802       31.021       29.086       20.160      962.298      846.006      406.433        0.929        0.111      127.535       11.864        0.009      332.875        1.823      863.129
01/02/2022  16:39:00       95.560       17.187       -2.604       26.001       22.925       20.015      676.044      525.541      400.612        0.552        0.080       97.093       12.656        0.017      332.825        1.742      863.113
01/02/2022  16:40:00      121.108       48.922      -22.840       23.923       22.355       16.404      572.329      499.760      269.105        0.946        0.067      130.616       12.713        0.009      332.914        1.886      863.103
01/02/2022  16:41:00      123.281       32.510      -27.014       33.537       33.339       24.213     1124.748     1111.487      586.247        0.990        0.141      127.495       13.058        0.010      332.927        1.908      863.095
01/02/2022  16:42:00      124.533       -1.855      -12.544       27.625       35.400       24.389      763.167     1253.191      594.832        0.914        0.131      124.546       14.355        0.013      332.927        1.909      863.093
01/02/2022  16:43:00       62.940       16.562      -28.463       58.315       25.398       22.440     3400.654      645.063      503.537        0.480        0.227       65.083       11.542        0.031      332.977        1.990      863.136
01/02/2022  16:44:00       14.095      -89.351      -17.052       31.887       45.408       16.703     1016.790     2061.912      278.991        0.591        0.168       90.456       21.916        0.059      332.997        2.024      863.223
01/02/2022  16:45:00       39.581      -90.333      -21.855       42.522       32.383       31.793     1808.154     1048.688     1010.819        0.704        0.193       98.624       28.631        0.084      333.105        2.202      863.311
01/02/2022  16:46:00       55.017      -77.429      -16.937       30.521       32.988       18.630      931.519     1088.213      347.088        0.584        0.118       94.984       21.053        0.049      333.015        2.054      863.360
01/02/2022  16:47:00       36.628      -19.230      -19.088       33.056       28.613       23.171     1092.684      818.729      536.898        0.226        0.122       41.369       16.571        0.160      333.108        2.208      863.319
01/02/2022  16:48:00       30.776       88.641       -7.699       28.146       22.204       13.481      792.193      493.001      181.743        0.517        0.073       93.832        9.909        0.011      333.030        2.080      863.230
01/02/2022  16:49:00        8.799      119.130       -4.616       31.976       26.652       22.703     1022.473      710.340      515.436        0.827        0.112      119.454       19.098        0.026      333.091        2.180      863.187
01/02/2022  16:50:00       -1.409       66.570       -5.113       27.708       31.161       19.914      767.757      971.007      396.574        0.330        0.107       66.585       11.305        0.029      333.028        2.075      863.187
01/02/2022  16:51:00       11.136      105.467      -15.484       40.322       31.549       24.227     1625.881      995.354      586.938        0.735        0.160      106.053       18.557        0.031      332.909        1.880      863.189
01/02/2022  16:52:00       45.600       56.199      -16.776       36.160       31.435       24.952     1307.543      988.174      622.593        0.422        0.146       72.372       21.916        0.092      332.893        1.855      863.180
01/02/2022  16:53:00       25.839       31.275        1.461       21.311       19.432       24.572      454.165      377.585      603.805        0.154        0.072       40.568       10.108        0.062      332.908        1.877      863.183
01/02/2022  16:54:00        6.541       12.614       -3.668       12.530       19.596       18.952      156.991      384.014      359.176        0.056        0.045       14.210       11.554        0.661      332.812        1.718      863.227
01/02/2022  16:55:00        0.930       33.534      -15.009       14.186       11.781        9.933      201.255      138.788       98.656        0.089        0.022       33.547        6.246        0.035      332.898        1.863      863.243
01/02/2022  16:56:00       37.211       51.666      -10.694       15.900       18.872       10.796      252.807      356.168      116.555        0.245        0.036       63.671        7.026        0.012      332.778        1.662      863.184
01/02/2022  16:57:00       65.449       83.761       -4.755       37.526       28.461       22.534     1408.194      810.027      507.763        0.702        0.136      106.299       21.950        0.043      332.756        1.626      863.083
01/02/2022  16:58:00       61.172       75.769      -12.378       36.425       32.676       19.661     1326.792     1067.751      386.568        0.621        0.139       97.380       16.383        0.028      332.776        1.659      863.054
01/02/2022  16:59:00       15.524       21.122       -7.753       40.023       31.664       25.445     1601.875     1002.622      647.472        0.200        0.163       26.213        8.890        0.115      332.885        1.839      863.111
01/02/2022  17:00:00      -25.317       -4.777       -6.948       69.620       37.636       46.373     4846.959     1416.488     2150.472        0.456        0.421       25.764       40.069        2.419      332.703        1.538      863.179
01/02/2022  17:01:00     -167.584       51.293      -10.574       40.478       33.193       27.811     1638.454     1101.745      773.453        1.717        0.176      175.258       18.067        0.011      332.652        1.454      863.193
01/02/2022  17:02:00     -118.579       35.667      -14.232       32.664       32.272       20.236     1066.954     1041.507      409.476        0.903        0.126      123.827       14.096        0.013      332.642        1.437      863.174
01/02/2022  17:03:00       -4.979       35.091        5.030       32.294       26.836       21.178     1042.900      720.183      448.493        0.175        0.111       35.442        8.833        0.062      332.628        1.414      863.174
01/02/2022  17:04:00      -12.540       10.648      -14.105       33.061       50.290       19.249     1093.009     2529.061      370.514        0.223        0.200       16.451       16.453        1.000      332.638        1.431      863.188
01/02/2022  17:05:00      -30.131        8.474       -1.070       34.300       25.844       23.169     1176.505      667.892      536.816        0.168        0.119       31.300       14.513        0.215      332.631        1.420      863.192
01/02/2022  17:06:00      -72.303       33.346      -20.490       31.677       20.912       13.622     1003.447      437.297      185.564        0.419        0.081       79.622        9.564        0.014      332.578        1.332      863.174
01/02/2022  17:07:00      -67.349       48.052       -6.151       32.218       20.821       22.627     1038.019      433.512      511.991        0.443        0.099       82.734       19.960        0.058      332.571        1.320      863.127
01/02/2022  17:08:00      -28.329       60.935       -9.749       26.653       26.572       12.716      710.393      706.094      161.695        0.309        0.079       67.198        9.155        0.019      332.617        1.396      863.110
01/02/2022  17:09:00       16.008      131.082      -15.738       35.706       31.677       20.221     1274.921     1003.459      408.876        1.019        0.134      132.056       18.398        0.019      332.874        1.821      863.126
01/02/2022  17:10:00      -35.035       44.151      -14.913       35.043       33.909       23.009     1227.993     1149.840      529.433        0.315        0.145       56.363       13.449        0.057      332.719        1.563      863.144
01/02/2022  17:11:00        1.684       -2.400       -0.440       18.015       21.061       11.438      324.539      443.584      130.838        0.045        0.045        2.932       10.123       11.917      332.683        1.506      863.174
01/02/2022  17:12:00       18.723      -12.384      -30.985       18.465       23.982       18.639      340.971      575.125      347.416        0.136        0.063       22.448        8.287        0.136      332.624        1.408      863.191
01/02/2022  17:13:00       -9.303       -2.920      -10.923       33.425       20.005       15.841     1117.224      400.189      250.941        0.099        0.088        9.751       17.639        3.273      332.556        1.296      863.181
01/02/2022  17:14:00      -13.379       44.684       -3.941       16.803       11.372       12.185      282.324      129.320      148.463        0.138        0.028       46.644        5.773        0.015      332.493        1.192      863.113
01/02/2022  17:15:00       36.928       44.063       -3.409       21.079       24.666       19.303      444.322      608.418      372.593        0.237        0.071       57.491       13.917        0.059      332.593        1.356      863.022
01/02/2022  17:16:00       35.477       77.774       -7.583       22.580       16.618       13.798      509.856      276.160      190.398        0.417        0.049       85.483       10.114        0.014      332.668        1.481      863.004
01/02/2022  17:17:00      -11.842       33.324       -9.377       37.367       40.796       21.108     1396.286     1664.274      445.547        0.242        0.175       35.365       21.549        0.371      332.582        1.337      863.068
01/02/2022  17:18:00       13.104       -3.098        3.784       84.194       48.197       41.854     7088.649     2322.943     1751.737        0.568        0.558       13.465       29.030        4.648      332.474        1.160      863.153
01/02/2022  17:19:00     -179.279       28.503      -17.226       55.807       42.770       30.764     3114.465     1829.249      946.439        1.957        0.295      181.530       20.609        0.013      332.358        0.966      863.194
01/02/2022  17:20:00      -57.970       14.886      -11.775       61.157       25.677       20.763     3740.136      659.323      431.105        0.427        0.242       59.851       22.638        0.143      332.296        0.866      863.189
01/02/2022  17:21:00       31.607       17.962      -19.829       25.402       41.364       19.649      645.249     1711.018      386.096        0.223        0.137       36.354       16.436        0.204      332.552        1.289      863.146
01/02/2022  17:22:00       50.252       -1.582      -36.007       32.274       38.860       31.813     1041.620     1510.096     1012.049        0.369        0.178       50.277       16.477        0.107      332.685        1.508      863.108
01/02/2022  17:23:00       22.615      -68.894      -37.651       47.403       46.376       25.656     2247.000     2150.717      658.238        0.586        0.253       72.511       21.985        0.092      332.754        1.622      863.126
01/02/2022  17:24:00        2.101      -38.997      -20.704       30.092       26.978       21.403      905.527      727.796      458.090        0.202        0.105       39.054       12.091        0.096      332.728        1.580      863.179
01/02/2022  17:25:00       10.514      -44.633      -22.731       28.351       33.447       22.472      803.798     1118.677      504.993        0.252        0.121       45.854       11.374        0.062      332.831        1.751      863.219
01/02/2022  17:26:00      -79.928        8.918      -20.421       27.048       24.743       19.550      731.587      612.194      382.218        0.431        0.086       80.424        5.395        0.005      332.780        1.665      863.225
01/02/2022  17:27:00      -90.251       14.292      -17.121       23.977       24.899       18.216      574.906      619.936      331.837        0.508        0.076       91.375       10.843        0.014      332.791        1.683      863.202
01/02/2022  17:28:00      -81.222       27.857      -18.534       18.939       19.107       11.056      358.691      365.081      122.242        0.428        0.042       85.867        5.604        0.004      332.744        1.606      863.155
01/02/2022  17:29:00      -79.811       24.013      -23.853       12.653       14.191        8.179      160.093      201.372       66.897        0.397        0.021       83.346        3.879        0.002      332.675        1.493      863.125
01/02/2022  17:30:00      -38.953        3.073      -14.272       27.948       21.019       15.809      781.075      441.799      249.934        0.160        0.074       39.074       12.160        0.097      332.659        1.468      863.143
01/02/2022  17:31:00      -26.592       -3.662       -6.821       27.917       23.062       13.643      779.345      531.834      186.138        0.113        0.075       26.843        7.714        0.083      332.716        1.560      863.182
01/02/2022  17:32:00      -12.838      -12.986      -14.333       21.998       19.271       15.880      483.915      371.368      252.188        0.082        0.055       18.261        9.485        0.270      332.627        1.413      863.214
01/02/2022  17:33:00       -5.704       -0.802       -4.354       18.214       14.974       10.321      331.759      224.232      106.528        0.036        0.033        5.760        7.374        1.639      332.563        1.307      863.225
01/02/2022  17:34:00      -27.022       22.275       -7.970       20.780       11.836       10.277      431.822      140.098      105.620        0.098        0.034       35.020        9.683        0.076      332.478        1.167      863.154
01/02/2022  17:35:00       -8.943       25.924       -5.826        7.444       13.174        7.888       55.410      173.543       62.228        0.054        0.015       27.423        6.732        0.060      332.445        1.110      863.121
01/02/2022  17:36:00       37.574       22.808       -1.022       33.247       22.740       14.068     1105.380      517.121      197.905        0.188        0.091       43.955       10.196        0.054      332.491        1.188      863.109
01/02/2022  17:37:00       52.520       25.235       -5.328       22.610       20.705       12.765      511.227      428.703      162.949        0.226        0.055       58.268       11.227        0.037      332.475        1.162      863.108
01/02/2022  17:38:00        3.147       52.009       -5.234       26.960       17.778       11.697      726.841      316.057      136.810        0.196        0.059       52.104       11.710        0.051      332.521        1.237      863.118
01/02/2022  17:39:00      -39.070       40.020       -9.445       32.375       17.866       12.335     1048.164      319.197      152.155        0.237        0.076       55.929       16.751        0.090      332.390        1.020      863.132
01/02/2022  17:40:00      -24.264       -7.693      -12.747       47.626       34.621       23.255     2268.225     1198.648      540.811        0.241        0.200       25.455       15.435        0.368      332.283        0.845      863.153
01/02/2022  17:41:00        6.928       -1.731       -7.860       44.356       31.144       24.625     1967.472      969.958      606.389        0.183        0.177        7.141       20.352        8.123      332.378        1.002      863.190
01/02/2022  17:42:00      -98.612      -13.909       -8.821       56.457       39.566       25.413     3187.445     1565.457      645.843        0.770        0.270       99.588       10.907        0.012      332.334        0.929      863.219
01/02/2022  17:43:00      -57.158      -18.513      -11.361       48.323       26.427       23.650     2335.090      698.374      559.343        0.367        0.180       60.082       21.853        0.132      332.362        0.975      863.202
01/02/2022  17:44:00       -6.586      -12.777      -12.528       22.586       18.958       21.131      510.125      359.413      446.522        0.084        0.066       14.374       14.286        0.988      332.515        1.227      863.151
01/02/2022  17:45:00       31.429      -43.164      -16.666       54.442       54.589       30.757     2963.882     2979.957      945.993        0.501        0.344       53.394       31.063        0.338      332.646        1.444      863.071
01/02/2022  17:46:00       48.069      -85.791      -26.680       30.796       19.234       19.567      948.403      369.951      382.857        0.604        0.085       98.339       18.192        0.034      332.823        1.738      863.016
01/02/2022  17:47:00        1.431       -7.932       -4.183       19.550       31.669       15.985      382.187     1002.929      255.512        0.086        0.082        8.060       16.486        4.184      332.791        1.685      863.017
01/02/2022  17:48:00      -59.285       33.679      -17.222       44.663       25.464       17.563     1994.769      648.429      308.447        0.395        0.148       68.183       18.794        0.076      332.360        0.971      863.029
01/02/2022  17:49:00      -46.774        7.685      -16.050       56.156       32.500       24.185     3153.470     1056.280      584.911        0.365        0.240       47.401       24.885        0.276      332.203        0.713      863.047
01/02/2022  17:50:00      -53.122       19.258       -4.473       50.888       36.081       19.697     2589.547     1301.874      387.969        0.375        0.214       56.505       19.035        0.113      332.191        0.693      863.057
01/02/2022  17:51:00      -65.923       76.770       -9.108       46.395       24.850       21.856     2152.508      617.527      477.687        0.678        0.162      101.190        6.164        0.004      332.174        0.664      863.055
01/02/2022  17:52:00      -39.027       31.858       -8.149       30.320       31.780       18.011      919.283     1009.972      324.400        0.243        0.113       50.379       19.336        0.147      332.286        0.850      863.049
01/02/2022  17:53:00      -21.018        1.119       -9.198       55.066       27.083       18.635     3032.298      733.471      347.247        0.232        0.206       21.048       12.011        0.326      332.343        0.942      863.066
01/02/2022  17:54:00      -75.195       -5.237        0.836       50.809       31.532       34.426     2581.572      994.247     1185.137        0.522        0.238       75.377       29.768        0.156      332.191        0.692      863.120
01/02/2022  17:55:00     -134.010       -9.202       -4.814       81.895       45.402       43.939     6706.870     2061.352     1930.673        1.438        0.535      134.325       39.698        0.087      332.279        0.837      863.170
01/02/2022  17:56:00     -127.231      -31.226      -14.399       50.521       48.671       35.124     2552.327     2368.885     1233.698        1.176        0.308      131.006       28.784        0.048      332.349        0.952      863.161
01/02/2022  17:57:00      -42.830       48.849      -12.567       42.690       31.525       20.596     1822.473      993.854      424.193        0.381        0.162       64.966       19.054        0.086      332.357        0.967      863.089
01/02/2022  17:58:00       33.441       39.774      -15.092       46.915       34.678       13.874     2200.971     1202.556      192.496        0.326        0.180       51.965       16.677        0.103      332.413        1.059      862.961
01/02/2022  17:59:00       69.430       87.019       -9.795       34.963       27.964       24.228     1222.446      782.000      587.000        0.754        0.130      111.323       21.353        0.037      332.364        0.978      862.871
01/02/2022  18:00:00      -11.224       65.464      -18.842       29.339       52.972       16.901      860.771     2806.059      285.646        0.436        0.198       66.420       14.961        0.051      332.470        1.154      862.917
01/02/2022  18:01:00      -34.906       14.641       -6.430       61.153       41.772       37.226     3739.683     1744.865     1385.770        0.417        0.344       37.852       32.282        0.727      332.280        0.839      863.051
01/02/2022  18:02:00     -153.078      -32.546       -7.002      100.240       60.897       51.773    10048.061     3708.496     2680.395        2.049        0.822      156.499       47.308        0.091      332.374        0.992      863.153
01/02/2022  18:03:00     -129.446      -26.003      -11.584       73.523       48.187       25.427     5405.620     2321.987      646.552        1.297        0.419      132.032       28.175        0.046      332.407        1.049      863.176
01/02/2022  18:04:00      -70.332       33.904       -7.761       50.733       30.194       21.655     2573.845      911.656      468.957        0.505        0.198       78.077       14.552        0.035      332.366        0.982      863.118
01/02/2022  18:05:00        9.891       43.594       -0.812       24.365       20.948       11.816      593.651      438.817      139.617        0.159        0.059       44.702        6.456        0.021      332.347        0.949      863.021
01/02/2022  18:06:00       33.820       49.919       -3.547       37.948       22.567       21.336     1440.046      509.261      455.219        0.303        0.120       60.297       22.057        0.134      332.373        0.993      862.931
01/02/2022  18:07:00       12.277       68.083       -4.323       25.490       25.775       13.409      649.760      664.346      179.800        0.315        0.075       69.181       13.345        0.037      332.370        0.988      862.858
01/02/2022  18:08:00        9.329       55.096      -13.650       19.342       16.348       12.689      374.128      267.242      161.005        0.206        0.040       55.880       10.573        0.036      332.307        0.885      862.866
01/02/2022  18:09:00      -38.027       11.392      -17.079       26.990       25.741       15.023      728.465      662.611      225.687        0.174        0.081       39.697        7.637        0.037      332.187        0.684      862.921
01/02/2022  18:10:00       -7.708       -1.866      -15.130       46.409       21.815       27.117     2153.832      475.888      735.326        0.183        0.168        7.931       25.031        9.962      332.105        0.552      862.979
01/02/2022  18:11:00      -54.822       13.308      -10.673       50.049       35.271       34.237     2504.875     1244.039     1172.202        0.411        0.246       56.414       26.441        0.220      332.104        0.549      863.017
01/02/2022  18:12:00     -112.242        4.470      -14.481       51.300       37.485       29.083     2631.708     1405.141      845.837        0.885        0.244      112.331       10.134        0.008      332.109        0.556      863.026
01/02/2022  18:13:00     -107.008       21.988       -0.414       48.279       45.328       26.097     2330.891     2054.607      681.077        0.850        0.253      109.244       20.644        0.036      332.080        0.508      863.010
01/02/2022  18:14:00     -120.802       58.157       -7.096       44.994       31.343       24.267     2024.480      982.364      588.877        1.081        0.180      134.072       17.920        0.018      332.096        0.537      862.948
01/02/2022  18:15:00      -29.817      131.148       -9.748       34.245       38.651       22.279     1172.749     1493.911      496.375        1.067        0.158      134.495       11.288        0.007      332.270        0.823      862.861
01/02/2022  18:16:00      -12.224      139.514      -11.450       25.102       33.061       23.616      630.120     1093.062      557.722        1.101        0.114      140.048       20.550        0.022      332.242        0.775      862.771
01/02/2022  18:17:00      -32.708      141.708      -15.760       28.923       41.350       19.133      836.549     1709.834      366.053        1.216        0.146      145.434       12.673        0.008      332.075        0.502      862.737
01/02/2022  18:18:00      -66.189       40.155      -30.195       35.763       23.884       29.064     1279.016      570.458      844.688        0.480        0.135       77.417       24.522        0.100      332.085        0.518      862.754
01/02/2022  18:19:00        8.821        3.873       -9.974       35.112       46.357       37.036     1232.853     2149.001     1371.702        0.247        0.238        9.634       27.274        8.015      332.020        0.411      862.804
01/02/2022  18:20:00       21.590      -19.372       -2.834       29.654       22.852       15.813      879.345      522.210      250.044        0.125        0.083       29.008        9.321        0.103      332.032        0.431      862.874
01/02/2022  18:21:00      -63.413        7.048       -4.691       47.918       32.562       29.125     2296.153     1060.307      848.289        0.415        0.210       63.803       24.993        0.153      331.944        0.286      862.932
01/02/2022  18:22:00      -55.457       16.948       -6.028       23.936       31.298       20.495      572.927      979.590      420.058        0.269        0.099       57.989       19.808        0.117      331.921        0.248      862.952
01/02/2022  18:23:00      -31.709       33.227       -5.876       21.482       12.280       12.942      461.475      150.806      167.507        0.146        0.039       45.929        8.318        0.033      331.926        0.256      862.964
01/02/2022  18:24:00      -26.201       18.494        0.694       26.502       18.835       15.721      702.338      354.743      247.143        0.117        0.065       32.070       12.684        0.156      331.965        0.319      863.000
01/02/2022  18:25:00       -1.481       15.835       -5.511        7.782       12.099        9.820       60.553      146.385       96.438        0.029        0.015       15.904        8.552        0.289      332.040        0.444      863.015
01/02/2022  18:26:00        2.533       14.670       -3.531        6.803        8.922        9.279       46.284       79.610       86.096        0.022        0.011       14.887        6.351        0.182      332.078        0.505      862.979
01/02/2022  18:27:00       17.472       24.233        0.209       15.409       20.017       10.312      237.439      400.679      106.341        0.082        0.037       29.875        8.941        0.090      332.075        0.501      862.909
01/02/2022  18:28:00       13.181       67.919       -3.440       22.534       19.144       14.111      507.802      366.480      199.123        0.294        0.054       69.187       10.219        0.022      332.201        0.709      862.838
01/02/2022  18:29:00       -3.059       84.580       -8.758       10.241       15.723       11.074      104.873      247.206      122.635        0.386        0.024       84.636        8.294        0.010      332.132        0.595      862.813
01/02/2022  18:30:00       -3.957       15.111       -7.798       11.801       33.962        9.191      139.256     1153.432       84.466        0.084        0.069       15.621        8.258        0.279      331.950        0.296      862.857
01/02/2022  18:31:00       -6.416      -57.478      -27.825       17.890       22.769       17.900      320.042      518.432      320.415        0.264        0.058       57.835       14.077        0.059      332.068        0.490      862.896
01/02/2022  18:32:00       25.498      -59.415      -26.948       19.275       22.354       15.042      371.519      499.700      226.250        0.300        0.055       64.655        9.531        0.022      332.096        0.537      862.905
01/02/2022  18:33:00       22.675       40.499      -13.709       12.885       15.263        9.435      166.016      232.966       89.017        0.142        0.024       46.415        7.342        0.025      331.917        0.243      862.878
01/02/2022  18:34:00       63.753       43.161       -4.660       16.682       12.801       10.985      278.292      163.861      120.660        0.326        0.028       76.989        4.199        0.003      331.935        0.270      862.822
01/02/2022  18:35:00       29.095       40.627       -8.370       10.703       14.271        9.632      114.554      203.672       92.780        0.149        0.021       49.970        8.714        0.030      332.040        0.445      862.781
01/02/2022  18:36:00        7.107       -1.010       -8.425        8.835       10.188        7.267       78.062      103.803       52.806        0.018        0.012        7.179        4.311        0.361      332.114        0.563      862.814
01/02/2022  18:37:00      -15.154       -5.195      -12.598       16.185       22.570       18.467      261.943      509.413      341.019        0.076        0.056       16.019       11.719        0.535      331.978        0.343      862.841
01/02/2022  18:38:00      -57.737       23.965       -7.510       36.889       26.269       15.669     1360.834      690.038      245.525        0.313        0.115       62.513        9.583        0.024      331.809        0.064      862.816
01/02/2022  18:39:00      -62.205       82.145      -11.214       23.626       27.175       14.986      558.193      738.496      224.580        0.613        0.076      103.040       13.129        0.016      331.848        0.129      862.735
01/02/2022  18:40:00      -30.625       89.406      -10.486       21.050       23.416       15.585      443.110      548.319      242.894        0.514        0.062       94.506        8.325        0.008      331.964        0.319      862.676
01/02/2022  18:41:00      -60.950       44.870      -21.339       38.220       32.501       18.014     1460.801     1056.289      324.505        0.451        0.142       75.685       16.759        0.049      331.916        0.240      862.681
01/02/2022  18:42:00      -15.561       -3.612      -20.565       40.030       32.207       27.742     1602.431     1037.303      769.593        0.204        0.170       15.975       23.050        2.082      331.682       -0.145      862.742
01/02/2022  18:43:00       -3.010       15.649       -6.180       23.531       26.736       18.275      553.714      714.834      333.973        0.095        0.080       15.936       12.244        0.590      331.697       -0.121      862.783
01/02/2022  18:44:00       -2.435        0.440      -10.131       21.681       19.825       15.172      470.073      393.018      230.191        0.060        0.055        2.474        3.151        1.622      331.686       -0.136      862.804
01/02/2022  18:45:00      -61.814       45.246      -13.794       27.564       20.620       11.207      759.776      425.170      125.599        0.368        0.066       76.604       11.592        0.023      331.837        0.111      862.801
01/02/2022  18:46:00     -105.336       33.793      -15.680       25.225       24.033       20.337      636.277      577.603      413.605        0.706        0.081      110.624       15.963        0.021      331.768       -0.004      862.774
01/02/2022  18:47:00     -100.210       15.637       -8.378       34.918       19.010       17.336     1219.292      361.373      300.542        0.612        0.094      101.422       14.548        0.021      331.661       -0.181      862.740
01/02/2022  18:48:00      -80.589       11.466       -9.235       32.407       29.940       16.280     1050.234      896.432      265.025        0.446        0.111       81.400       10.828        0.018      331.677       -0.154      862.709
01/02/2022  18:49:00      -42.803       -0.798      -16.117       38.063       26.769       18.105     1448.788      716.575      327.795        0.229        0.125       42.810       13.434        0.098      331.690       -0.130      862.685
01/02/2022  18:50:00      -45.352       28.752      -12.038       46.407       38.520       29.019     2153.571     1483.789      842.105        0.375        0.224       53.698       22.947        0.183      331.587       -0.301      862.692
01/02/2022  18:51:00      -21.913       17.990       -2.657       36.368       24.906       13.640     1322.601      620.296      186.059        0.147        0.106       28.352        9.907        0.122      331.489       -0.463      862.687
01/02/2022  18:52:00       92.525       51.480       -8.943       37.718       13.340        9.616     1422.617      177.969       92.467        0.649        0.085      105.882        9.132        0.007      331.642       -0.213      862.656
01/02/2022  18:53:00       77.173       46.570      -12.194       41.414       25.255       17.965     1715.133      637.838      322.748        0.547        0.134       90.136       18.991        0.044      331.565       -0.340      862.634
01/02/2022  18:54:00       62.930       18.473      -12.380       27.822       24.717       14.971      774.091      610.928      224.126        0.303        0.080       65.586       14.370        0.048      331.656       -0.188      862.643
01/02/2022  18:55:00       47.400       38.141      -19.280       16.690       11.595       10.712      278.546      134.440      114.757        0.230        0.026       60.840        9.239        0.023      331.580       -0.313      862.684
01/02/2022  18:56:00      -34.801       35.262       -6.833       45.542       20.970       13.783     2074.036      439.733      189.970        0.260        0.135       49.543       12.720        0.066      331.541       -0.377      862.698
01/02/2022  18:57:00     -134.327       61.303      -23.261       46.308       34.360       25.863     2144.401     1180.614      668.890        1.317        0.200      147.654       20.763        0.020      331.297       -0.779      862.690
01/02/2022  18:58:00     -134.497      112.482      -22.943       47.238       34.764       29.973     2231.457     1208.563      898.398        1.780        0.217      175.333       26.667        0.023      331.287       -0.797      862.677
01/02/2022  18:59:00     -117.146       63.933      -24.243       44.324       37.895       26.704     1964.587     1436.040      713.109        1.126        0.206      133.456       20.069        0.023      331.467       -0.501      862.666
01/02/2022  19:00:00      -59.001        3.186       -9.814       71.589       25.295       29.761     5124.965      639.818      885.747        0.512        0.333       59.087       16.828        0.081      331.350       -0.692      862.662
01/02/2022  19:01:00      -33.061       11.732      -11.305       28.685       24.076       17.874      822.812      579.668      319.485        0.154        0.086       35.081        7.907        0.051      331.597       -0.286      862.664
01/02/2022  19:02:00        4.517        9.943      -10.532       25.995       28.618       18.930      675.738      818.978      358.362        0.104        0.093       10.921       15.379        1.983      331.750       -0.032      862.682
01/02/2022  19:03:00       38.723       34.859       -5.572       37.130       32.046       16.617     1378.644     1026.935      276.117        0.271        0.134       52.102       17.621        0.114      331.859        0.146      862.658
01/02/2022  19:04:00       54.645       86.334      -10.348       27.087       20.662       16.040      733.725      426.934      257.296        0.598        0.071      102.175       10.635        0.011      331.920        0.246      862.595
01/02/2022  19:05:00       27.140       50.629       -3.729       19.304       28.250       15.656      372.642      798.060      245.108        0.236        0.071       57.445       10.934        0.036      331.760       -0.016      862.545
01/02/2022  19:06:00       16.024       25.014       -7.906       17.750       17.418       11.710      315.071      303.398      137.131        0.085        0.038       29.706       10.497        0.125      331.809        0.065      862.553
01/02/2022  19:07:00      -27.869       -2.916      -14.162       19.470       15.779       13.843      379.078      248.980      191.632        0.090        0.041       28.021        7.223        0.066      331.569       -0.331      862.592
01/02/2022  19:08:00      -64.355       -0.262       -2.347       54.005       42.081       26.477     2916.512     1770.796      701.021        0.477        0.269       64.356       20.687        0.103      331.459       -0.511      862.647
01/02/2022  19:09:00     -114.843       -3.086       -3.053       62.180       38.979       37.581     3866.403     1519.398     1412.341        1.000        0.340      114.885       33.815        0.087      331.615       -0.256      862.688
01/02/2022  19:10:00     -166.034       23.439       -8.872       60.863       32.204       31.926     3704.329     1037.086     1019.272        1.698        0.288      167.680       28.300        0.028      331.622       -0.247      862.665
01/02/2022  19:11:00     -128.522       58.799      -17.828       37.300       48.433       28.212     1391.316     2345.781      795.898        1.241        0.227      141.334       20.782        0.022      331.565       -0.339      862.577
01/02/2022  19:12:00      -64.096      121.189      -10.961       39.585       32.784       21.470     1566.953     1074.775      460.945        1.101        0.155      137.095       19.756        0.021      331.558       -0.348      862.488
01/02/2022  19:13:00       27.472      107.175      -15.130       38.799       28.086       23.244     1505.346      788.820      540.297        0.765        0.142      110.640       18.239        0.027      331.878        0.180      862.446
01/02/2022  19:14:00       77.997       52.955      -14.770       31.311       22.619       20.509      980.384      511.599      420.626        0.551        0.096       94.275       11.313        0.014      331.580       -0.315      862.417
01/02/2022  19:15:00       47.569       36.827      -17.692       44.475       24.869       16.193     1978.036      618.446      262.207        0.339        0.143       60.158        7.352        0.015      331.516       -0.419      862.389
01/02/2022  19:16:00       -2.188       -3.459      -14.734       31.762       47.092       22.881     1008.834     2217.684      523.529        0.199        0.188        4.093       14.194       12.026      331.748       -0.035      862.459
01/02/2022  19:17:00       17.372       -6.217       -5.244       39.538       37.222       30.973     1563.257     1385.500      959.305        0.214        0.195       18.451       26.904        2.126      331.639       -0.216      862.555
01/02/2022  19:18:00     -132.529        3.814       -4.625       62.102       37.669       31.218     3856.688     1418.919      974.576        1.192        0.313      132.584       23.648        0.032      331.618       -0.252      862.572
01/02/2022  19:19:00     -114.595       30.233       -6.204       39.250       29.137       22.076     1540.541      848.973      487.333        0.848        0.144      118.516       18.920        0.025      331.659       -0.184      862.556
01/02/2022  19:20:00     -108.839       39.267       -8.879       47.960       29.025       25.238     2300.151      842.473      636.939        0.862        0.189      115.706       18.068        0.024      331.521       -0.411      862.534
01/02/2022  19:21:00      -90.611       73.031      -13.851       23.812       27.042       13.058      566.992      731.250      170.512        0.760        0.073      116.378        8.313        0.005      331.558       -0.349      862.501
01/02/2022  19:22:00      -86.777       70.996      -20.151       24.241       22.343       13.019      587.648      499.192      169.493        0.712        0.063      112.119       13.980        0.016      331.762       -0.013      862.449
01/02/2022  19:23:00        8.582       20.484      -16.582       19.366       16.365       13.579      375.038      267.807      184.379        0.080        0.041       22.209        4.985        0.050      331.730       -0.066      862.428
01/02/2022  19:24:00      -22.364      -28.744      -20.914       22.385       28.087       19.061      501.103      788.863      363.311        0.171        0.083       36.419        8.967        0.061      331.716       -0.089      862.449
01/02/2022  19:25:00      -31.586       -4.482       -1.004       44.028       28.079       26.154     1938.496      788.450      684.035        0.221        0.171       31.902       22.118        0.481      331.477       -0.483      862.446
01/02/2022  19:26:00      -99.298      -10.479       -3.577       44.753       32.607       25.492     2002.833     1063.224      649.849        0.685        0.186       99.849       26.325        0.070      331.424       -0.570      862.433
01/02/2022  19:27:00     -158.602       13.484      -20.705       31.751       31.878       24.953     1008.116     1016.198      622.664        1.421        0.132      159.174       17.860        0.013      331.511       -0.429      862.413
01/02/2022  19:28:00     -144.349       57.945      -18.822       28.536       23.383       17.569      814.288      546.758      308.660        1.311        0.083      155.545       15.520        0.010      331.495       -0.454      862.408
01/02/2022  19:29:00     -122.797       54.082       -9.327       47.409       32.724       29.951     2247.650     1070.829      897.058        1.115        0.211      134.179       27.222        0.041      331.369       -0.661      862.390
01/02/2022  19:30:00     -170.505      101.456      -30.108       43.842       40.109       27.044     1922.141     1608.709      731.357        2.227        0.213      198.407       20.054        0.010      331.446       -0.536      862.373
01/02/2022  19:31:00      -92.420       30.861      -10.408       53.136       37.749       31.046     2823.394     1424.956      963.863        0.741        0.261       97.437       25.154        0.067      331.355       -0.683      862.405
01/02/2022  19:32:00     -103.544      -15.317      -18.011       69.750       29.527       38.326     4865.052      871.833     1468.897        0.924        0.360      104.671       37.133        0.126      331.259       -0.840      862.474
01/02/2022  19:33:00     -137.521      -75.504      -31.856       51.236       56.420       31.080     2625.114     3183.222      965.949        1.620        0.339      156.885       29.285        0.035      331.529       -0.396      862.536
01/02/2022  19:34:00      -73.129      -37.031      -13.378       64.929       45.098       39.153     4215.829     2033.801     1532.972        0.734        0.389       81.971       23.478        0.082      331.745       -0.041      862.553
01/02/2022  19:35:00      -47.400      -36.100      -16.172       29.818       33.011       19.705      889.119     1089.706      388.291        0.309        0.118       59.582        7.487        0.016      331.907        0.226      862.502
01/02/2022  19:36:00      -51.337       46.530       -7.576       17.029       27.320       10.118      289.974      746.401      102.383        0.300        0.057       69.286        8.605        0.015      331.946        0.289      862.408
01/02/2022  19:37:00     -112.046       63.419      -29.289       22.445       23.973       15.066      503.759      574.704      226.986        0.937        0.065      128.749       12.957        0.010      331.736       -0.056      862.340
01/02/2022  19:38:00     -123.188       36.215       -0.984       75.891       32.883       33.168     5759.385     1081.305     1100.133        1.221        0.397      128.401       40.420        0.099      331.639       -0.216      862.351
01/02/2022  19:39:00      -48.755      -29.567      -18.125       66.102       54.370       38.017     4369.412     2956.071     1445.300        0.617        0.439       57.020       35.938        0.397      331.532       -0.393      862.402
01/02/2022  19:40:00      -51.366       15.680      -10.576       59.853       41.813       32.713     3582.342     1748.296     1070.153        0.470        0.320       53.705       32.386        0.364      331.393       -0.620      862.395
01/02/2022  19:41:00      -41.038       17.718       -7.997       36.669       39.658       16.659     1344.617     1572.732      277.527        0.263        0.160       44.699        6.674        0.022      331.417       -0.581      862.312
01/02/2022  19:42:00      -27.678      -23.035      -18.863       32.088       40.589       21.957     1029.615     1647.451      482.130        0.241        0.158       36.009       11.423        0.101      331.551       -0.361      862.259
01/02/2022  19:43:00     -100.902       -2.939      -10.158       77.187       48.820       27.211     5957.826     2383.382      740.412        0.969        0.454      100.945       24.198        0.057      331.460       -0.512      862.277
01/02/2022  19:44:00     -119.363       -6.304       -6.905       45.501       37.689       24.927     2070.334     1420.425      621.333        0.922        0.206      119.530       23.097        0.037      331.432       -0.556      862.275
01/02/2022  19:45:00      -58.206       24.942       -4.135       42.878       32.054       23.079     1838.538     1027.427      532.645        0.371        0.170       63.325       15.817        0.062      331.302       -0.772      862.242
01/02/2022  19:46:00     -112.005       96.328      -22.136       39.762       38.921       22.851     1580.994     1514.863      522.147        1.297        0.181      147.730       20.319        0.019      331.333       -0.719      862.257
01/02/2022  19:47:00     -124.208       42.431      -22.738       47.691       35.781       31.127     2274.454     1280.284      968.870        1.113        0.226      131.255       22.656        0.030      331.339       -0.710      862.332
01/02/2022  19:48:00      -16.931       14.719        3.285       27.326       34.528       21.546      746.695     1192.153      464.227        0.146        0.120       22.435       16.272        0.526      331.195       -0.944      862.370
01/02/2022  19:49:00      -50.156       36.879        1.152       32.187       29.348       19.129     1035.995      861.324      365.934        0.307        0.113       62.255       17.461        0.079      331.217       -0.908      862.296
01/02/2022  19:50:00       14.809       16.381       -6.321       30.249       24.717       14.922      914.993      610.945      222.680        0.114        0.087       22.083        9.192        0.173      331.381       -0.641      862.149
01/02/2022  19:51:00       43.308       -5.475      -11.200       34.969       19.963       11.479     1222.798      398.523      131.761        0.189        0.088       43.652        9.402        0.046      331.445       -0.537      862.108
01/02/2022  19:52:00      -21.920      -30.737      -24.385       23.533       41.805       18.935      553.807     1747.698      358.515        0.234        0.133       37.753       20.044        0.282      331.643       -0.210      862.182
01/02/2022  19:53:00      -36.174        9.098      -22.120       22.633       26.109       22.884      512.267      681.698      523.675        0.180        0.086       37.300       14.843        0.158      331.533       -0.391      862.178
01/02/2022  19:54:00      -43.132        0.325      -13.804       29.735       14.850       17.180      884.141      220.517      295.144        0.173        0.070       43.134        8.280        0.037      331.402       -0.606      862.179
01/02/2022  19:55:00      -93.954       12.794      -12.997       35.117       28.707       17.544     1233.218      824.120      307.790        0.576        0.118       94.821       11.815        0.016      331.491       -0.462      862.233
01/02/2022  19:56:00     -110.034       13.050       -9.567       71.970       50.638       35.426     5179.733     2564.237     1255.029        1.068        0.450      110.805       31.802        0.082      331.327       -0.730      862.237
01/02/2022  19:57:00     -137.025        2.001       -6.603       77.633       65.344       50.965     6026.867     4269.864     2597.477        1.586        0.645      137.040       38.697        0.080      331.316       -0.750      862.245
01/02/2022  19:58:00      -78.462        3.823       -1.293       99.609       58.700       54.990     9921.953     3445.670     3023.906        1.128        0.820       78.555       49.368        0.395      331.086       -1.127      862.289
01/02/2022  19:59:00     -177.920       13.345       -6.500       85.169       69.484       49.968     7253.787     4828.018     2496.760        2.322        0.729      178.420       45.884        0.066      330.987       -1.291      862.296
01/02/2022  20:00:00     -174.262       63.575      -12.479       63.661       38.597       33.930     4052.677     1489.738     1151.240        2.063        0.335      185.497       23.179        0.016      331.064       -1.164      862.254
01/02/2022  20:01:00     -190.862       65.280       -6.583       60.010       38.707       34.579     3601.257     1498.227     1195.694        2.351        0.315      201.717       25.658        0.016      331.001       -1.268      862.210
01/02/2022  20:02:00     -182.704       46.095      -20.008       67.563       59.659       38.696     4564.724     3559.191     1497.379        2.276        0.481      188.429       35.648        0.036      330.988       -1.289      862.217
01/02/2022  20:03:00     -167.391       61.039      -25.706       82.514       73.299       38.942     6808.590     5372.743     1516.512        2.305        0.685      178.172       35.147        0.039      330.978       -1.308      862.239
01/02/2022  20:04:00     -182.604      120.953      -44.464       48.523       54.877       32.206     2354.450     3011.491     1037.236        2.818        0.320      219.029       26.099        0.014      331.046       -1.196      862.220
01/02/2022  20:05:00     -159.138      112.808      -35.424       44.142       72.932       35.546     1948.524     5319.066     1263.495        2.392        0.427      195.065       23.771        0.015      331.209       -0.925      862.217
01/02/2022  20:06:00      -83.336        0.133       -1.264       62.928       60.399       40.975     3959.927     3647.997     1678.927        0.812        0.464       83.337       33.905        0.166      331.249       -0.857      862.267
01/02/2022  20:07:00      -26.002      -44.662      -36.338       30.440       44.924       21.289      926.601     2018.153      453.216        0.369        0.170       51.680       15.205        0.087      331.225       -0.896      862.326
01/02/2022  20:08:00       -2.153       19.878       -1.149       36.170       24.513       25.304     1308.278      600.873      640.276        0.147        0.127       19.994       24.984        1.561      331.275       -0.815      862.317
01/02/2022  20:09:00      -28.777       23.812      -13.074       22.884       18.498       14.093      523.661      342.173      198.599        0.132        0.053       37.351        8.358        0.050      331.396       -0.616      862.268
01/02/2022  20:10:00      -27.143        9.870      -12.616       14.481       17.717       14.398      209.690      313.884      207.294        0.086        0.037       28.882       11.122        0.148      331.364       -0.670      862.249
01/02/2022  20:11:00      -69.300        4.651      -20.334       26.780       21.051       16.270      717.168      443.130      264.720        0.333        0.071       69.456       12.504        0.032      331.310       -0.756      862.261
01/02/2022  20:12:00      -82.866        3.413      -12.844       35.472       23.320       19.733     1258.265      543.800      389.404        0.462        0.110       82.937       12.084        0.021      331.323       -0.736      862.235
01/02/2022  20:13:00     -102.241       33.204      -12.129       31.707       28.812       22.062     1005.306      830.112      486.745        0.701        0.116      107.498       15.062        0.020      331.298       -0.776      862.187
01/02/2022  20:14:00     -112.229       57.172       -6.900       52.030       33.545       22.886     2707.106     1125.250      523.771        1.013        0.218      125.952       21.975        0.030      331.225       -0.895      862.127
01/02/2022  20:15:00      -82.220       18.105       -2.170       73.264       42.740       28.913     5367.620     1826.717      835.988        0.756        0.402       84.190       31.041        0.136      331.249       -0.857      862.129
01/02/2022  20:16:00      -69.526       12.524       -6.816       44.816       37.542       31.583     2008.465     1409.369      997.500        0.473        0.221       70.645       16.424        0.054      331.272       -0.819      862.185
01/02/2022  20:17:00      -36.678        7.547      -10.759       29.844       26.751       16.404      890.657      715.613      269.083        0.170        0.094       37.446       11.705        0.098      331.229       -0.890      862.200
01/02/2022  20:18:00        7.735      -13.649      -13.780       21.171       16.159       15.518      448.212      261.117      240.824        0.069        0.048       15.688        5.821        0.138      331.343       -0.704      862.180
01/02/2022  20:19:00       16.860      -16.725       -3.289       17.027       19.145       11.981      289.929      366.516      143.533        0.069        0.040       23.748       10.466        0.194      331.431       -0.560      862.134
01/02/2022  20:20:00      -28.853        7.161       -6.911       28.179       12.483       17.373      794.031      155.819      301.828        0.109        0.063       29.728       17.860        0.361      331.419       -0.579      862.077
01/02/2022  20:21:00      -65.425       30.115       -7.477       16.133       16.467       12.193      260.269      271.157      148.665        0.296        0.034       72.023        7.801        0.012      331.454       -0.522      862.083
01/02/2022  20:22:00      -20.765       28.539       -7.070       16.493       14.110        9.144      272.006      199.100       83.610        0.093        0.028       35.294        6.201        0.031      331.471       -0.494      862.126
01/02/2022  20:23:00       13.021       16.080      -14.227        7.709       14.102       14.219       59.424      198.860      202.168        0.055        0.023       20.691       10.378        0.252      331.605       -0.272      862.141
01/02/2022  20:24:00       54.485       38.390      -24.175       26.942       21.580       15.581      725.883      465.695      242.774        0.323        0.072       66.652       11.422        0.029      331.585       -0.304      862.087
01/02/2022  20:25:00       -0.963       44.709       -9.503       42.681       16.823       12.983     1821.647      283.030      168.547        0.218        0.114       44.720        8.123        0.033      331.474       -0.488      862.075
01/02/2022  20:26:00      -45.004        1.447      -18.869       44.554       23.956       20.475     1985.042      573.912      419.224        0.268        0.149       45.027       19.824        0.194      331.315       -0.749      862.143
01/02/2022  20:27:00      -63.015      -15.223       -5.560       56.423       34.094       35.369     3183.541     1162.400     1250.932        0.491        0.280       64.828       22.160        0.117      331.137       -1.041      862.207
01/02/2022  20:28:00      -72.770       25.376       -4.408       57.758       41.883       20.416     3336.004     1754.219      416.810        0.573        0.275       77.068       16.249        0.044      331.262       -0.836      862.218
01/02/2022  20:29:00      -45.819       -5.717      -13.702       29.070       23.747       15.439      845.090      563.914      238.374        0.198        0.082       46.174       11.876        0.066      331.369       -0.660      862.213
01/02/2022  20:30:00      -40.659       62.562      -13.543       34.683       38.894       18.149     1202.913     1512.767      329.377        0.440        0.152       74.613       12.270        0.027      331.386       -0.633      862.167
01/02/2022  20:31:00       39.982       47.851       -4.905       31.467       32.797       15.694      990.166     1075.632      246.310        0.311        0.116       62.356       14.053        0.051      331.482       -0.476      862.131
01/02/2022  20:32:00       16.726        2.525       -6.567       15.938       12.962       11.409      254.029      168.019      130.169        0.044        0.028       16.916        5.695        0.113      331.450       -0.526      862.145
01/02/2022  20:33:00       -5.001        5.541       -8.490       21.838       20.179       10.457      476.891      407.197      109.340        0.056        0.050        7.465        5.421        0.527      331.476       -0.485      862.194
01/02/2022  20:34:00        3.045      -19.474       -8.339       15.813       14.580       10.161      250.048      212.588      103.251        0.051        0.028       19.711        7.179        0.133      331.262       -0.836      862.237
01/02/2022  20:35:00       14.715       14.514       -5.352       18.327       13.816        7.482      335.885      190.894       55.978        0.052        0.029       20.669       10.887        0.277      331.384       -0.635      862.212
01/02/2022  20:36:00       82.573       49.956      -21.956       12.117       10.455       11.652      146.815      109.315      135.771        0.509        0.020       96.509       10.747        0.012      331.552       -0.359      862.144
01/02/2022  20:37:00       58.839       47.010      -14.332       13.087        7.656        7.574      171.276       58.611       57.363        0.308        0.014       75.312        3.112        0.002      331.440       -0.544      862.099
01/02/2022  20:38:00       -1.356       43.525       -4.908       27.336       17.834       11.261      747.232      318.059      126.814        0.156        0.060       43.546        7.292        0.028      331.543       -0.375      862.113
01/02/2022  20:39:00      -72.934       16.685      -12.814       23.275       32.472       15.030      541.741     1054.421      225.886        0.379        0.091       74.818       12.386        0.027      331.058       -1.173      862.154
01/02/2022  20:40:00      -60.796       14.303       -4.138       53.230       42.750       30.778     2833.448     1827.575      947.257        0.476        0.280       62.456       25.148        0.162      330.958       -1.337      862.201
01/02/2022  20:41:00     -119.121       21.941        0.804       95.764       62.096       41.919     9170.686     3855.932     1757.163        1.473        0.739      121.125       40.001        0.109      331.010       -1.253      862.249
01/02/2022  20:42:00     -160.497       11.887      -11.871       97.007       45.537       36.955     9410.385     2073.599     1365.664        1.944        0.642      160.936       40.823        0.064      331.066       -1.162      862.265
01/02/2022  20:43:00     -160.580        8.668       -4.590       69.499       41.104       38.647     4830.075     1689.564     1493.598        1.695        0.401      160.814       39.099        0.059      331.061       -1.168      862.243
01/02/2022  20:44:00      -62.565      -16.085       -3.644       60.074       42.294       35.037     3608.894     1788.784     1227.565        0.540        0.331       64.600       28.693        0.197      331.045       -1.195      862.223
01/02/2022  20:45:00      -81.505       37.409       -5.199       39.611       29.682       30.110     1569.039      881.042      906.583        0.571        0.168       89.680       28.175        0.099      331.066       -1.159      862.183
01/02/2022  20:46:00      -79.269       40.449       -6.392       31.649       19.772       16.409     1001.686      390.942      269.248        0.481        0.083       88.993       13.444        0.023      331.092       -1.115      862.144
01/02/2022  20:47:00      -52.317       12.030       -7.104       45.494       20.776       17.829     2069.694      431.659      317.888        0.288        0.141       53.682       17.328        0.104      331.207       -0.926      862.165
01/02/2022  20:48:00      -36.405       11.955       -6.366       31.180       26.393       19.852      972.181      696.590      394.108        0.179        0.103       38.318       18.250        0.227      331.142       -1.033      862.192
01/02/2022  20:49:00      -83.525      -10.089      -12.182       39.660       28.975       24.101     1572.935      839.549      580.856        0.511        0.150       84.132       22.720        0.073      331.135       -1.045      862.207
01/02/2022  20:50:00      -26.879       -4.826        3.669       62.577       27.321       19.068     3915.858      746.419      363.582        0.289        0.251       27.309       23.072        0.714      331.101       -1.102      862.207
01/02/2022  20:51:00       20.207       21.120        0.048       20.827       22.134       20.570      433.748      489.901      423.115        0.110        0.067       29.230       13.276        0.206      331.100       -1.102      862.173
01/02/2022  20:52:00       -7.400       15.940       -6.806        8.700       12.339       12.114       75.690      152.244      146.744        0.036        0.019       17.574        6.465        0.135      331.162       -0.998      862.106
01/02/2022  20:53:00       -3.990       50.700      -20.229       17.382       16.014       16.381      302.122      256.435      268.325        0.191        0.041       50.857        7.388        0.021      331.462       -0.506      862.045
01/02/2022  20:54:00        3.972       15.613      -14.948       26.452       17.802       10.661      699.720      316.928      113.660        0.081        0.057       16.110        5.428        0.114      331.421       -0.574      862.068
01/02/2022  20:55:00      -35.692      -26.895      -10.404       48.371       29.552       30.040     2339.750      873.334      902.397        0.311        0.206       44.691       30.121        0.454      331.255       -0.847      862.143
01/02/2022  20:56:00      -40.415      -20.190        2.231       40.452       25.446       19.803     1636.375      647.493      392.161        0.236        0.134       45.178       18.577        0.169      331.084       -1.130      862.178
01/02/2022  20:57:00      -64.546      -54.666      -11.847       56.753       38.496       26.318     3220.858     1481.953      692.642        0.634        0.270       84.584       21.738        0.066      331.279       -0.808      862.184
01/02/2022  20:58:00       -8.307      -12.614      -15.353       21.141       44.055       15.862      446.921     1940.854      251.593        0.155        0.132       15.104        5.703        0.143      331.343       -0.703      862.169
01/02/2022  20:59:00       16.024       50.711        1.771       26.310       17.664       15.803      692.231      312.006      249.739        0.204        0.063       53.182       13.605        0.065      331.194       -0.948      862.124
01/02/2022  21:00:00       -0.577       39.560      -10.282       32.260        8.749        8.622     1040.713       76.540       74.336        0.143        0.060       39.565       10.884        0.076      331.032       -1.215      862.093
01/02/2022  21:01:00      -27.606       20.176      -11.169       29.856       23.741       12.730      891.386      563.644      162.040        0.146        0.081       34.193       10.914        0.102      330.927       -1.387      862.127
01/02/2022  21:02:00      -58.321       -8.741       -3.341       59.343       29.691       27.281     3521.597      881.585      744.257        0.432        0.257       58.972       18.219        0.095      330.852       -1.510      862.178
01/02/2022  21:03:00      -81.372      -12.338       -0.298       75.604       37.936       33.239     5715.919     1439.166     1104.822        0.752        0.413       82.302       37.122        0.203      330.776       -1.634      862.213
01/02/2022  21:04:00      -41.722       31.547       -3.892       32.305       17.314       17.483     1043.633      299.761      305.667        0.220        0.082       52.307       17.300        0.109      330.766       -1.650      862.209
01/02/2022  21:05:00       -8.276        7.117       -4.717        8.604        8.577        8.920       74.021       73.567       79.566        0.018        0.011       10.915        7.136        0.427      330.873       -1.475      862.205
01/02/2022  21:06:00       11.987       -3.870       -6.980       17.180       27.396       13.774      295.153      750.548      189.710        0.072        0.062       12.597       10.496        0.694      331.087       -1.123      862.180
01/02/2022  21:07:00       38.005       24.483      -20.326       26.503       34.441       18.696      702.404     1186.205      349.557        0.235        0.112       45.209       18.046        0.159      330.987       -1.288      862.133
01/02/2022  21:08:00       38.376        3.731      -25.342       33.284       31.313       19.121     1107.808      980.505      365.613        0.229        0.123       38.557       13.650        0.125      331.134       -1.046      862.118
01/02/2022  21:09:00      -24.684      -19.884        2.116       18.536       15.348       13.253      343.602      235.561      175.641        0.088        0.038       31.696        6.812        0.046      331.149       -1.022      862.119
01/02/2022  21:10:00       -3.025      -22.899       -9.344       13.765       11.337       10.149      189.480      128.527      102.996        0.052        0.021       23.098        6.082        0.069      331.125       -1.062      862.166
01/02/2022  21:11:00       -1.481       -7.285      -13.733       10.746       21.286        9.817      115.477      453.096       96.368        0.045        0.033        7.434        9.033        1.476      331.002       -1.265      862.212
01/02/2022  21:12:00      -81.364       45.973      -17.238       37.142       17.780       18.909     1379.516      316.127      357.566        0.554        0.103       93.454       17.341        0.034      330.875       -1.472      862.209
01/02/2022  21:13:00      -78.433       -6.014       -5.869       91.857       45.819       41.986     8437.694     2099.408     1762.787        0.926        0.615       78.663       49.759        0.400      330.679       -1.793      862.203
01/02/2022  21:14:00      -90.963       -3.694        1.955       84.346       66.691       52.537     7114.197     4447.716     2760.160        1.130        0.716       91.038       43.879        0.232      330.733       -1.704      862.202
01/02/2022  21:15:00       -4.312      -11.278      -18.144       71.357       48.680       35.298     5091.841     2369.711     1245.938        0.459        0.435       12.074       19.773        2.682      330.690       -1.776      862.191
01/02/2022  21:16:00      -73.931        0.274       -4.482       57.343       36.001       26.729     3288.175     1296.069      714.426        0.539        0.265       73.931       16.802        0.052      330.525       -2.049      862.195
01/02/2022  21:17:00        6.373      -23.517      -21.166       26.831       22.791       24.976      719.896      519.449      623.791        0.145        0.093       24.365       10.666        0.192      330.823       -1.558      862.171
01/02/2022  21:18:00       45.778      -50.666      -24.965       21.212       27.806       17.296      449.929      773.199      299.135        0.340        0.076       68.284       13.781        0.041      331.037       -1.206      862.141
01/02/2022  21:19:00       44.431      -17.296      -15.175       22.558       24.968       16.036      508.859      623.410      257.140        0.195        0.069       47.678       11.379        0.057      331.033       -1.214      862.107
01/02/2022  21:20:00       20.775       16.866       -5.542       20.233       11.628       10.258      409.380      135.221      105.218        0.070        0.032       26.759       10.118        0.143      330.873       -1.476      862.096
01/02/2022  21:21:00      -36.362       20.912      -12.208       22.751       13.831        9.381      517.593      191.289       87.999        0.135        0.040       41.946        7.839        0.035      330.942       -1.362      862.120
01/02/2022  21:22:00      -49.578       48.906       -8.777        9.757       15.336        6.910       95.199      235.194       47.754        0.265        0.019       69.641        6.826        0.010      330.759       -1.663      862.115
01/02/2022  21:23:00      -74.553       55.241      -14.965       29.282       15.731       11.316      857.422      247.461      128.042        0.503        0.062       92.788       11.805        0.016      330.780       -1.628      862.095
01/02/2022  21:24:00      -99.146       39.060      -17.558       45.702       38.657       29.147     2088.661     1494.376      849.525        0.805        0.222      106.563        9.838        0.009      330.722       -1.723      862.094
01/02/2022  21:25:00      -64.208       16.240      -14.829       80.637       38.113       39.234     6502.327     1452.568     1539.270        0.705        0.475       66.230       43.387        0.429      330.702       -1.755      862.112
01/02/2022  21:26:00      -85.568       56.975      -10.025       50.402       38.996       29.121     2540.369     1520.699      848.012        0.779        0.245      102.801       29.030        0.080      330.708       -1.744      862.133
01/02/2022  21:27:00      -30.248       93.889      -11.696       29.710       29.292       25.261      882.687      858.033      638.102        0.612        0.119       98.641        7.517        0.006      331.104       -1.096      862.159
01/02/2022  21:28:00      -18.783       26.696      -13.460       28.893       27.667       17.294      834.834      765.462      299.083        0.157        0.095       32.642       11.373        0.121      331.077       -1.140      862.154
01/02/2022  21:29:00      -84.673       32.630      -24.550       35.310       27.716       25.025     1246.797      768.154      626.273        0.574        0.132       90.743       21.942        0.058      330.909       -1.416      862.118
01/02/2022  21:30:00      -80.536       22.988      -19.869       24.210       26.573       20.297      586.148      706.132      411.968        0.456        0.085       83.752       15.113        0.033      330.754       -1.670      862.122
01/02/2022  21:31:00      -77.704       24.241      -21.254       47.725       35.078       25.839     2277.636     1230.453      667.646        0.563        0.209       81.397       13.451        0.027      330.648       -1.844      862.169
01/02/2022  21:32:00     -177.137       39.573      -32.969       25.255       31.134       21.263      637.817      969.356      452.130        1.804        0.103      181.503        7.164        0.002      330.707       -1.747      862.175
01/02/2022  21:33:00     -131.389       35.208      -23.476       40.254       27.886       30.214     1620.360      777.608      912.884        1.118        0.166      136.024       22.947        0.028      330.631       -1.873      862.139
01/02/2022  21:34:00      -77.176       21.958       -5.703       50.876       30.750       29.022     2588.351      945.545      842.285        0.542        0.219       80.239       22.630        0.080      330.788       -1.614      862.104
01/02/2022  21:35:00       -7.515      -19.435       -9.528       19.050       24.118       15.490      362.919      581.677      239.941        0.085        0.059       20.837       11.815        0.322      330.821       -1.560      862.086
01/02/2022  21:36:00      -12.872      -14.225      -29.105       20.878       16.682       11.886      435.881      278.282      141.287        0.104        0.043       19.185        8.405        0.192      330.899       -1.433      862.093
01/02/2022  21:37:00       -8.184       27.653       -2.960       25.404       24.848       25.009      645.380      617.429      625.468        0.136        0.094       28.838       17.973        0.388      330.825       -1.554      862.119
01/02/2022  21:38:00      -12.053        7.456       -6.629       42.875       23.159       18.661     1838.229      536.320      348.217        0.148        0.136       14.173       15.504        1.197      330.846       -1.519      862.153
01/02/2022  21:39:00      -74.875       -4.358      -13.277       23.358       24.918       16.304      545.611      620.917      265.817        0.362        0.072       75.002        7.422        0.010      330.804       -1.588      862.174
01/02/2022  21:40:00      -83.242        9.214       -7.189       23.689       19.348       12.787      561.171      374.331      163.518        0.408        0.055       83.750        9.784        0.014      330.878       -1.466      862.135
01/02/2022  21:41:00      -59.638      -13.477       -8.636       32.711       18.093       18.351     1069.994      327.344      336.745        0.277        0.087       61.142       17.422        0.081      331.004       -1.259      862.127
01/02/2022  21:42:00      -42.319       -1.833       -9.963       21.568       22.017       14.296      465.166      484.737      204.387        0.152        0.058       42.358       10.338        0.060      331.002       -1.263      862.136
01/02/2022  21:43:00      -58.563       -4.793       -5.151       44.633       21.942       23.997     1992.133      481.470      575.853        0.326        0.152       58.759       18.268        0.097      330.911       -1.412      862.156
01/02/2022  21:44:00      -88.363      -17.885       -9.147       30.256       26.772       21.957      915.400      716.721      482.099        0.516        0.106       90.154       10.249        0.013      330.840       -1.529      862.176
01/02/2022  21:45:00      -97.947       -2.558      -10.431       29.247       26.815       24.696      855.411      719.020      609.916        0.595        0.109       97.981       16.700        0.029      331.019       -1.235      862.136
01/02/2022  21:46:00      -74.877       44.716      -10.618       29.189       30.794       16.055      851.998      948.256      257.752        0.489        0.103       87.213        9.364        0.012      330.905       -1.423      861.998
01/02/2022  21:47:00      -21.069       89.911       -1.497       38.338       26.328       19.682     1469.811      693.150      387.395        0.554        0.128       92.347       13.819        0.022      331.262       -0.837      861.879
01/02/2022  21:48:00       52.995       40.805       -7.777       29.961       35.175       20.828      897.652     1237.251      433.785        0.355        0.128       66.884       15.099        0.051      331.143       -1.031      861.833
01/02/2022  21:49:00       40.415       44.945      -23.854       41.364       21.535       23.279     1710.996      463.756      541.905        0.347        0.136       60.443       17.955        0.088      331.125       -1.060      861.865
01/02/2022  21:50:00       -3.694       18.653       -8.893       28.883       24.610       24.191      834.229      605.637      585.203        0.123        0.101       19.016       15.875        0.697      331.259       -0.841      861.952
01/02/2022  21:51:00      -99.629       13.593      -18.095      104.775       67.373       38.673    10977.726     4539.188     1495.628        1.372        0.851      100.552       26.431        0.069      330.774       -1.637      862.012
01/02/2022  21:52:00     -254.255       30.235      -17.949      114.430       80.232       57.729    13094.291     6437.127     3332.676        4.437        1.143      256.046       44.347        0.030      330.716       -1.736      862.049
01/02/2022  21:53:00      -80.221       59.614      -10.080       42.760       67.344       34.052     1828.400     4535.260     1159.556        0.881        0.376       99.946       28.622        0.082      330.881       -1.463      861.978
01/02/2022  21:54:00      -37.074      104.783       -7.024       23.407       38.248       16.557      547.894     1462.906      274.125        0.734        0.114      111.149        8.668        0.006      331.992        0.366      861.893
01/02/2022  21:55:00      -35.630        9.477      -19.748       69.928       42.195       29.329     4889.879     1780.395      860.196        0.464        0.377       36.869       28.454        0.596      330.974       -1.309      861.929
01/02/2022  21:56:00      -82.477        8.245       -1.827       63.677       46.475       30.659     4054.723     2159.915      939.980        0.701        0.358       82.888       29.308        0.125      330.835       -1.536      861.981
01/02/2022  21:57:00      -48.328        9.591       -9.715       66.215       49.176       36.687     4384.477     2418.297     1345.953        0.533        0.407       49.270       41.551        0.711      330.826       -1.552      861.961
01/02/2022  21:58:00       10.227       -2.703       -3.645       15.856       19.363       14.779      251.403      374.910      218.425        0.048        0.042       10.578        8.387        0.629      330.790       -1.610      861.910
01/02/2022  21:59:00        0.091      -37.167      -19.379       15.390       29.106       14.957      236.845      847.163      223.716        0.153        0.065       37.167        6.563        0.031      330.878       -1.466      861.905
01/02/2022  22:00:00       -7.683       17.527      -11.706       24.184       17.825       15.575      584.864      317.732      242.594        0.082        0.057       19.137        6.325        0.109      330.974       -1.310      861.915
01/02/2022  22:01:00       12.948      -31.174      -16.709       20.282       19.421       17.265      411.372      377.183      298.082        0.125        0.054       33.756        6.789        0.040      330.986       -1.291      861.961
01/02/2022  22:02:00      -77.161        5.647       -2.584       53.251       41.781       24.433     2835.681     1745.638      596.983        0.558        0.259       77.367       23.869        0.095      330.858       -1.500      862.014
01/02/2022  22:03:00      -70.907        1.946       -7.794       36.750       24.177       21.386     1350.571      584.504      457.357        0.374        0.120       70.933       12.817        0.033      330.929       -1.384      862.010
01/02/2022  22:04:00      -40.233       10.576       -8.783       34.225       34.256       23.447     1171.361     1173.461      549.745        0.235        0.145       41.600       20.765        0.249      330.972       -1.313      861.972
01/02/2022  22:05:00       13.059       18.950       -9.694       25.125       16.912       14.595      631.267      286.018      213.002        0.088        0.057       23.014       12.278        0.285      330.957       -1.338      861.929
01/02/2022  22:06:00       45.966       -3.430      -10.369       27.513       33.256       20.758      756.989     1105.932      430.891        0.226        0.115       46.094       13.772        0.089      331.004       -1.261      861.896
01/02/2022  22:07:00        3.843        5.848       -6.511       29.627       22.064       23.146      877.739      486.826      535.760        0.100        0.095        6.998       16.690        5.688      330.811       -1.577      861.898
01/02/2022  22:08:00       -5.075      -11.287      -12.204       22.528       26.961       19.807      507.511      726.901      392.322        0.096        0.081       12.375        9.941        0.645      330.663       -1.819      861.937
01/02/2022  22:09:00      -32.368       18.092       -3.514       10.871       19.587       10.703      118.189      383.655      114.544        0.100        0.031       37.081        4.155        0.013      330.718       -1.728      861.994
01/02/2022  22:10:00      -83.637       35.784      -17.114       25.507       26.746       16.368      650.622      715.370      267.916        0.510        0.082       90.970       14.495        0.025      330.805       -1.587      862.032
01/02/2022  22:11:00      -77.739       28.894       -4.411       17.496       15.446       12.424      306.098      238.569      154.355        0.380        0.035       82.935        8.410        0.010      330.824       -1.556      862.027
01/02/2022  22:12:00      -86.334       15.708       -7.152       20.485       22.214        9.442      419.623      493.442       89.158        0.438        0.050       87.752        9.311        0.011      330.982       -1.297      861.978
01/02/2022  22:13:00      -30.169       -5.943      -14.769       19.788       16.838       12.370      391.567      283.533      153.018        0.100        0.041       30.749       11.758        0.146      331.065       -1.160      861.998
01/02/2022  22:14:00       42.626        4.088       -9.812       23.018       12.365       10.538      529.820      152.900      111.045        0.136        0.040       42.822        7.681        0.032      330.961       -1.330      861.969
01/02/2022  22:15:00       58.119        7.396      -16.876       61.155       60.235       53.252     3739.965     3628.242     2835.803        0.696        0.510       58.588       43.617        0.554      330.672       -1.806      861.862
01/02/2022  22:16:00       65.233        4.703       -4.948      101.690       70.063       64.377    10340.863     4908.803     4144.433        1.184        0.970       65.402       55.575        0.722      330.402       -2.249      861.771
01/02/2022  22:17:00       95.889       -7.512      -19.671       63.684       56.523       60.596     4055.615     3194.867     3671.857        1.028        0.546       96.183       47.526        0.244      330.305       -2.407      861.823
01/02/2022  22:18:00       29.770      -17.602       -3.474       35.901       35.645       22.463     1288.858     1270.584      504.596        0.214        0.153       34.585       13.122        0.144      330.549       -2.008      861.938
01/02/2022  22:19:00      -52.993        9.817      -18.399       56.566       34.171       26.122     3199.659     1167.655      682.335        0.415        0.252       53.895       26.542        0.243      330.674       -1.801      862.033
01/02/2022  22:20:00      -95.859       11.453      -13.762       46.212       39.610       29.338     2135.521     1568.934      860.740        0.704        0.228       96.541       18.653        0.037      330.458       -2.157      862.077
01/02/2022  22:21:00      -81.624       26.662       -8.993       34.693       24.384       17.741     1203.598      594.585      314.755        0.478        0.106       85.869       12.540        0.021      330.836       -1.536      862.030
01/02/2022  22:22:00      -24.147       11.153       -0.715       11.551        9.975       10.730      133.419       99.505      115.131        0.053        0.017       26.598        5.468        0.042      330.934       -1.376      861.949
01/02/2022  22:23:00      -13.519       45.101       -3.320       16.587       14.009       10.398      275.142      196.247      108.116        0.140        0.029       47.084       12.598        0.072      331.075       -1.143      861.917
01/02/2022  22:24:00      -16.471       78.467      -11.951       10.710       19.222       10.829      114.698      369.484      117.274        0.359        0.030       80.178        8.963        0.012      330.971       -1.315      861.904
01/02/2022  22:25:00      -12.431       83.183      -15.809       18.036       14.485       13.519      325.300      209.808      182.769        0.402        0.036       84.107        7.270        0.007      331.095       -1.112      861.903
01/02/2022  22:26:00      -15.524       24.105      -17.792       14.408       28.939       11.665      207.590      837.467      136.071        0.116        0.059       28.671       11.513        0.161      330.876       -1.471      861.944
01/02/2022  22:27:00        5.358      -27.834      -16.620       14.613        8.581       11.086      213.526       73.625      122.893        0.074        0.021       28.345        5.095        0.032      330.799       -1.597      861.984
01/02/2022  22:28:00       50.497        0.627      -16.878       39.468       31.794       28.240     1557.711     1010.847      797.517        0.310        0.168       50.500       22.399        0.197      330.704       -1.753      861.963
01/02/2022  22:29:00       56.655       28.607      -15.015       43.790       50.693       38.511     1917.534     2569.733     1483.131        0.511        0.299       63.468       18.333        0.083      330.305       -2.407      861.905
01/02/2022  22:30:00       13.389      -22.716      -12.431       23.597       26.836       20.535      556.830      720.174      421.674        0.127        0.085       26.368       13.753        0.272      330.168       -2.633      861.960
01/02/2022  22:31:00       29.090      -20.124      -12.488       28.973       15.265       12.296      839.427      233.016      151.197        0.132        0.061       35.373       10.135        0.082      330.305       -2.406      862.051
01/02/2022  22:32:00        6.958       -1.771       -8.465        9.772        7.952       11.071       95.500       63.239      122.571        0.020        0.014        7.180        4.499        0.393      330.337       -2.354      862.080
01/02/2022  22:33:00      -19.736      -13.434      -11.711       15.805       10.675        8.295      249.805      113.959       68.801        0.057        0.022       23.874        8.354        0.122      330.549       -2.006      862.095
01/02/2022  22:34:00      -40.344      -11.188      -14.361       15.166       18.693       10.035      230.013      349.421      100.703        0.132        0.034       41.867        8.891        0.045      330.712       -1.738      862.135
01/02/2022  22:35:00      -22.766       17.276       -9.198       13.570       18.441        8.081      184.147      340.076       65.298        0.075        0.029       28.578        3.156        0.012      330.724       -1.720      862.082
01/02/2022  22:36:00       20.851       55.760      -10.911       40.795       16.108       13.869     1664.218      259.473      192.344        0.289        0.106       59.531        4.794        0.006      330.840       -1.529      861.984
01/02/2022  22:37:00      104.799       62.929      -10.841       34.207       15.935       17.298     1170.126      253.912      299.216        0.839        0.086      122.241       12.066        0.010      330.693       -1.769      861.947
01/02/2022  22:38:00       59.218       50.165      -22.188       43.309       27.618       16.007     1875.673      762.768      256.213        0.470        0.145       77.610       11.987        0.024      330.715       -1.735      862.017
01/02/2022  22:39:00      -85.906       32.340      -21.164       69.880       38.129       29.374     4883.196     1453.842      862.858        0.804        0.360       91.792       27.735        0.091      330.562       -1.984      862.091
01/02/2022  22:40:00     -118.743       23.435       -6.936      103.222       56.318       42.603    10654.856     3171.725     1815.008        1.517        0.782      121.033       42.378        0.123      330.253       -2.494      862.131
01/02/2022  22:41:00      -57.741        2.955       -1.750       72.177       50.850       31.599     5209.477     2585.720      998.515        0.607        0.440       57.817       26.131        0.204      330.341       -2.348      862.077
01/02/2022  22:42:00     -102.909       91.698      -18.284       30.790       31.260       18.990      948.010      977.197      360.628        1.081        0.114      137.836       15.585        0.013      330.477       -2.125      861.958
01/02/2022  22:43:00      -72.985       48.341      -10.768       30.495       37.500       20.345      929.937     1406.222      413.915        0.526        0.138       87.542       20.157        0.053      330.926       -1.388      861.885
01/02/2022  22:44:00      -11.133       -3.517       -3.058       15.329       24.921       11.996      234.969      621.061      143.904        0.057        0.050       11.675       10.075        0.745      330.872       -1.477      861.914
01/02/2022  22:45:00       17.702      -43.978      -22.594       23.320       17.351       12.010      543.834      301.067      144.239        0.187        0.049       47.407        7.106        0.022      330.765       -1.651      861.968
01/02/2022  22:46:00       22.847      -34.922      -17.530       15.619        8.819        6.748      243.943       77.779       45.535        0.121        0.018       41.732        5.705        0.019      330.643       -1.852      861.945
01/02/2022  22:47:00      -38.455        5.121      -19.016       35.906       29.849       17.627     1289.220      890.963      310.722        0.218        0.125       38.794       14.538        0.140      330.531       -2.035      861.936
01/02/2022  22:48:00      -82.027      -21.986       -3.069       68.611       42.936       37.113     4707.446     1843.517     1377.376        0.757        0.396       84.922       35.892        0.179      330.368       -2.305      862.007
01/02/2022  22:49:00      -97.741        1.740       -0.964       66.073       51.000       36.502     4365.659     2600.993     1332.407        0.893        0.415       97.757       36.168        0.137      330.703       -1.754      862.067
01/02/2022  22:50:00      -82.554       -7.450      -12.090       61.108       45.458       39.829     3734.166     2066.429     1586.317        0.720        0.369       82.889       27.273        0.108      330.723       -1.721      862.067
01/02/2022  22:51:00      -70.340      -18.617       -6.703       35.802       24.439       20.958     1281.759      597.282      439.229        0.383        0.116       72.762       21.079        0.084      330.808       -1.581      862.000
01/02/2022  22:52:00        0.801      -18.861      -23.456       26.437       22.262       15.748      698.899      495.605      248.005        0.117        0.072       18.878       13.499        0.511      330.848       -1.515      861.941
01/02/2022  22:53:00      -56.129       16.688       -6.711       34.557       18.442       10.030     1194.168      340.121      100.596        0.255        0.082       58.558        8.395        0.021      330.853       -1.509      861.911
01/02/2022  22:54:00      -92.901       22.408      -13.205       30.022       21.777       21.117      901.328      474.228      445.910        0.556        0.091       95.565       17.093        0.032      330.762       -1.657      861.899
01/02/2022  22:55:00      -96.702       41.480       -9.414       33.231       33.510       23.255     1104.278     1122.895      540.797        0.696        0.138      105.223       20.484        0.038      330.633       -1.868      861.855
01/02/2022  22:56:00     -101.759       23.862       -3.932       81.317       47.704       32.139     6612.525     2275.686     1032.940        1.043        0.496      104.519       36.193        0.120      330.519       -2.058      861.852
01/02/2022  22:57:00      -48.895        2.668       -5.771       70.646       53.984       38.714     4990.843     2914.262     1498.772        0.592        0.470       48.968       33.185        0.459      330.491       -2.103      861.920
01/02/2022  22:58:00     -128.793       31.942      -12.627       91.172       48.033       39.552     8312.266     2307.137     1564.394        1.497        0.609      132.695       32.281        0.059      330.485       -2.115      862.009
01/02/2022  22:59:00     -161.305       27.910      -11.596       84.865       53.951       33.218     7202.135     2910.696     1103.411        1.907        0.561      163.702       33.219        0.041      330.510       -2.074      862.028
01/02/2022  23:00:00     -125.811      -16.427      -25.824       42.516       38.471       34.775     1807.647     1480.029     1209.333        1.063        0.225      126.879       19.340        0.023      330.517       -2.060      861.950
01/02/2022  23:01:00     -136.173       48.788       -4.011       72.262       48.722       36.039     5221.821     2373.802     1298.810        1.492        0.445      144.650       31.105        0.046      330.578       -1.961      861.883
01/02/2022  23:02:00     -119.162       50.853      -20.712       76.603       50.642       36.666     5868.004     2564.567     1344.373        1.349        0.489      129.559       35.991        0.077      330.640       -1.859      861.882
01/02/2022  23:03:00     -116.299       49.865       -7.052       60.832       34.646       28.982     3700.546     1200.368      839.974        1.090        0.287      126.539       19.660        0.024      330.643       -1.854      861.877
01/02/2022  23:04:00      -42.795       26.548       -7.939       34.316       27.899       24.783     1177.611      778.333      614.190        0.258        0.129       50.361       18.995        0.142      330.549       -2.007      861.875
01/02/2022  23:05:00     -103.781       43.197       -8.598       47.895       34.256       26.233     2293.894     1173.475      688.146        0.843        0.208      112.412       22.375        0.040      330.571       -1.972      861.863
01/02/2022  23:06:00      -81.460       27.636      -12.229       34.169       31.946       26.106     1167.510     1020.546      681.509        0.521        0.143       86.021       15.237        0.031      330.645       -1.849      861.870
01/02/2022  23:07:00     -109.898       49.087      -30.814       58.143       48.130       32.918     3380.605     2316.543     1083.586        1.111        0.339      120.362       29.901        0.062      330.721       -1.724      861.888
01/02/2022  23:08:00      -60.117       13.622      -16.032       68.888       58.570       38.921     4745.567     3430.397     1514.858        0.687        0.485       61.641       25.017        0.165      330.626       -1.881      861.928
01/02/2022  23:09:00     -108.200       36.101      -11.349       82.282       59.724       42.632     6770.393     3567.002     1817.447        1.264        0.608      114.063       24.560        0.046      330.581       -1.954      861.915
01/02/2022  23:10:00     -130.838      157.746      -19.127       74.337       71.262       40.715     5526.026     5078.298     1657.671        2.731        0.613      204.944       31.381        0.023      331.051       -1.185      861.831
01/02/2022  23:11:00        6.741       28.427       -2.068       53.972       58.719       27.951     2912.954     3447.885      781.251        0.400        0.357       29.215       10.915        0.140      331.186       -0.962      861.754
01/02/2022  23:12:00       41.789      -30.075      -11.986       26.791       25.879       13.827      717.745      669.699      191.183        0.219        0.079       51.486       12.177        0.056      330.868       -1.483      861.794
01/02/2022  23:13:00        1.199      -58.945      -21.635       18.974       20.822       18.864      360.005      433.555      355.856        0.255        0.057       58.957        5.022        0.007      331.011       -1.249      861.873
01/02/2022  23:14:00      -34.757       16.621      -22.621       48.920       34.578       37.238     2393.153     1195.639     1386.702        0.348        0.249       38.526       31.125        0.653      330.951       -1.347      861.907
01/02/2022  23:15:00     -154.153      -17.160      -18.820       59.644       33.767       34.342     3557.449     1140.191     1179.364        1.514        0.294      155.105       27.357        0.031      330.922       -1.396      861.928
01/02/2022  23:16:00      -79.996       14.555        4.074       78.512       39.534       36.820     6164.134     1562.915     1355.724        0.785        0.454       81.310       35.387        0.189      330.812       -1.576      861.906
01/02/2022  23:17:00     -147.730       20.735        1.652       82.790       56.885       36.275     6854.208     3235.851     1315.881        1.683        0.570      149.178       22.264        0.022      330.829       -1.549      861.904
01/02/2022  23:18:00     -208.754       57.245      -18.566       53.317       50.491       40.367     2842.694     2549.379     1629.527        2.711        0.351      216.460       27.605        0.016      330.896       -1.440      861.931
01/02/2022  23:19:00     -190.372       56.414      -20.582       75.773       70.481       49.414     5741.540     4967.553     2441.772        2.650        0.658      198.554       40.788        0.042      331.018       -1.241      861.939
01/02/2022  23:20:00     -140.859       54.126      -16.791       77.130       62.737       40.948     5949.056     3935.901     1676.699        1.731        0.578      150.901       40.120        0.071      330.957       -1.339      861.890
01/02/2022  23:21:00      -83.860       52.167      -18.234       41.794       40.493       26.106     1746.697     1639.719      681.516        0.708        0.203       98.761       16.392        0.028      331.074       -1.145      861.808
01/02/2022  23:22:00      -86.940       39.541      -20.238       30.065       33.267       17.068      903.915     1106.711      291.313        0.592        0.115       95.509        8.056        0.007      331.185       -0.962      861.724
01/02/2022  23:23:00      -38.286        2.687      -15.594       33.750       45.936       24.016     1139.093     2110.099      576.764        0.277        0.191       38.380        9.296        0.059      331.000       -1.268      861.737
01/02/2022  23:24:00      -35.846        4.803      -14.585       47.404       32.817       21.204     2247.145     1076.965      449.599        0.265        0.189       36.166       16.252        0.202      330.955       -1.340      861.808
01/02/2022  23:25:00      -38.256      -13.896      -17.117       41.134       51.034       26.674     1692.042     2604.498      711.521        0.348        0.250       40.702       22.605        0.308      330.975       -1.309      861.849
01/02/2022  23:26:00      -53.242      -12.948       -8.296       31.643       23.439       18.031     1001.254      549.366      325.114        0.247        0.094       54.794       16.768        0.094      331.091       -1.117      861.852
01/02/2022  23:27:00      -49.855      -32.708      -19.701       22.823       32.680       18.656      520.909     1067.981      348.055        0.294        0.097       59.626       10.086        0.029      331.433       -0.555      861.814
01/02/2022  23:28:00      -24.015       23.301       -0.261       16.357       14.886        8.374      267.566      221.581       70.131        0.084        0.028       33.461        6.331        0.036      331.538       -0.382      861.792
01/02/2022  23:29:00        2.252        0.849      -15.035       19.746       21.197       15.762      389.895      449.297      248.430        0.066        0.054        2.407       14.159       34.610      331.271       -0.821      861.797
01/02/2022  23:30:00       16.664      -10.594       -7.427       20.038       15.705       13.393      401.509      246.652      179.368        0.064        0.041       19.746       10.166        0.265      330.937       -1.370      861.809
01/02/2022  23:31:00      -30.896       -7.884       -5.779       33.547       13.383       13.754     1125.435      179.108      189.186        0.127        0.075       31.886       18.481        0.336      331.019       -1.236      861.837
01/02/2022  23:32:00      -82.138       -2.822      -13.766       43.457       29.122       26.087     1888.543      848.089      680.536        0.518        0.171       82.186       23.517        0.082      330.788       -1.616      861.879
01/02/2022  23:33:00      -73.876       -6.179       -9.774       43.572       26.767       20.706     1898.516      716.465      428.730        0.432        0.152       74.134       20.971        0.080      330.794       -1.605      861.829
01/02/2022  23:34:00      -85.431       33.006       -1.737       28.976       27.240       19.246      839.583      742.015      370.426        0.517        0.098       91.585       14.883        0.026      331.100       -1.102      861.743
01/02/2022  23:35:00     -111.226       37.111      -11.140       43.074       45.193       24.255     1855.360     2042.371      588.308        0.918        0.224      117.254       14.960        0.016      331.125       -1.061      861.746
01/02/2022  23:36:00     -121.937       29.597      -13.247       45.161       25.856       17.675     2039.476      668.556      312.396        0.947        0.151      125.478       10.947        0.008      331.049       -1.186      861.776
01/02/2022  23:37:00      -52.720       31.699       -8.378       52.033       35.919       28.203     2707.414     1290.146      795.419        0.432        0.240       61.516       24.508        0.159      331.029       -1.219      861.809
01/02/2022  23:38:00      -30.976      -10.340      -12.021       54.889       30.484       26.201     3012.842      929.260      686.504        0.292        0.231       32.657       22.129        0.459      330.929       -1.384      861.841
01/02/2022  23:39:00      -86.102       -7.842       -2.444       52.455       36.854       29.162     2751.519     1358.181      850.402        0.622        0.248       86.458       24.983        0.083      331.060       -1.170      861.837
01/02/2022  23:40:00      -53.184        3.328      -11.789       62.640       37.836       38.606     3923.720     1431.600     1490.396        0.491        0.342       53.288       33.827        0.403      331.019       -1.236      861.851
01/02/2022  23:41:00      -75.498       25.955       -4.588       92.905       43.409       35.519     8631.249     1884.336     1261.567        0.908        0.589       79.835       28.488        0.127      331.047       -1.191      861.898
01/02/2022  23:42:00     -114.866       20.587       -3.406      113.557       52.232       39.402    12895.256     2728.189     1552.494        1.540        0.859      116.696       46.305        0.157      330.989       -1.285      861.930
01/02/2022  23:43:00     -201.273       55.595       -5.756       78.279       48.311       38.276     6127.565     2333.910     1465.066        2.678        0.496      208.810       35.544        0.029      330.952       -1.349      861.902
01/02/2022  23:44:00      -74.465       40.309      -10.301       65.878       38.528       32.183     4339.966     1484.430     1035.740        0.707        0.343       84.675       34.843        0.169      330.886       -1.454      861.826
01/02/2022  23:45:00      -75.984       36.125        4.564       57.702       53.028       33.876     3329.503     2811.973     1147.590        0.719        0.364       84.134       33.211        0.156      330.896       -1.439      861.821
01/02/2022  23:46:00       -0.689       52.911      -11.896       39.408       31.005       28.623     1553.009      961.324      819.269        0.314        0.167       52.915       18.270        0.119      330.981       -1.298      861.859
01/02/2022  23:47:00        2.022      -30.537      -28.760       32.019       26.993       23.681     1025.222      728.601      560.773        0.204        0.116       30.604       17.400        0.323      330.994       -1.278      861.892
01/02/2022  23:48:00       19.859        0.010      -15.187       23.878       24.441       20.850      570.171      597.345      434.737        0.111        0.080       19.859       14.761        0.552      330.881       -1.463      861.912
01/02/2022  23:49:00      -11.192       -9.732       -3.716       25.652        8.857       13.250      658.039       78.438      175.559        0.057        0.046       14.832       16.347        1.215      331.037       -1.205      861.917
01/02/2022  23:50:00      -23.425        5.900       -7.346       17.656       19.276       15.751      311.718      371.560      248.083        0.078        0.047       24.157       11.022        0.208      330.992       -1.281      861.892
01/02/2022  23:51:00       -1.929       14.902      -11.495       12.985       10.073        8.717      168.613      101.463       75.989        0.035        0.017       15.026        6.346        0.178      331.197       -0.942      861.786
01/02/2022  23:52:00        5.007       33.222       -2.586       16.618       13.133        6.590      276.142      172.481       43.432        0.081        0.025       33.597        5.215        0.024      331.561       -0.344      861.703
01/02/2022  23:53:00      -48.371       10.856      -17.023       22.254       14.093       13.014      495.254      198.609      169.358        0.181        0.043       49.574        7.097        0.020      331.001       -1.265      861.684
01/02/2022  23:54:00      -95.890      -11.191      -12.129       35.934       27.029       20.969     1291.284      730.544      439.688        0.596        0.123       96.541       17.679        0.034      330.736       -1.700      861.686
01/02/2022  23:55:00     -100.479       -9.849      -11.613       38.492       40.739       31.459     1481.645     1659.636      989.670        0.723        0.207      100.960       22.119        0.048      330.700       -1.760      861.696
01/02/2022  23:56:00      -97.033       -3.262       -9.191       46.490       35.367       31.894     2161.350     1250.859     1017.198        0.697        0.221       97.088       27.810        0.082      330.787       -1.617      861.762
01/02/2022  23:57:00      -54.449       -4.252       -5.147       40.855       28.003       22.355     1669.134      784.181      499.746        0.298        0.148       54.615       21.052        0.149      330.792       -1.608      861.819
01/02/2022  23:58:00       10.964        4.437       -9.618       21.252       27.791       16.783      451.631      772.340      281.668        0.087        0.075       11.828       10.131        0.734      330.884       -1.456      861.774
01/02/2022  23:59:00       33.538       31.839      -11.455       31.184       20.496       21.836      972.470      420.087      476.827        0.207        0.093       46.244       15.938        0.119      330.870       -1.479      861.694
01/03/2022  00:00:00       11.270       16.938      -12.190       12.404       17.208       11.782      153.864      296.107      138.818        0.058        0.029       20.345        9.655        0.225      330.764       -1.654      861.708
01/03/2022  00:01:00      -39.000        3.619       -5.723       23.648       22.583       15.521      559.229      510.011      240.907        0.144        0.066       39.168       13.658        0.122      330.741       -1.691      861.763
01/03/2022  00:02:00      -84.469       19.811       -9.446       23.857       22.392       18.100      569.142      501.386      327.601        0.451        0.070       86.761       12.666        0.021      330.623       -1.886      861.787
01/03/2022  00:03:00      -76.746       25.104       -9.088       24.612       18.736       10.648      605.741      351.048      113.382        0.384        0.054       80.747        8.802        0.012      330.767       -1.649      861.792
01/03/2022  00:04:00      -44.938       12.562      -10.569       11.225        8.471        7.007      126.009       71.761       49.101        0.127        0.012       46.661        4.066        0.008      330.888       -1.451      861.763
01/03/2022  00:05:00      -21.581      -10.304      -10.818       14.966       17.732       10.226      223.982      314.435      104.565        0.067        0.032       23.915        6.955        0.085      330.878       -1.468      861.779
01/03/2022  00:06:00      -69.760       14.733      -13.781       48.736       25.842       19.649     2375.239      667.830      386.085        0.435        0.171       71.299       16.343        0.053      330.598       -1.926      861.747
01/03/2022  00:07:00     -104.535       23.123       -9.756       18.460       15.473       13.532      340.776      239.405      183.118        0.616        0.038      107.062        7.842        0.005      330.605       -1.916      861.680
01/03/2022  00:08:00      -90.499       23.286       -9.845       29.824       22.737       15.426      889.473      516.969      237.958        0.524        0.082       93.446        9.497        0.010      330.620       -1.890      861.654
01/03/2022  00:09:00      -76.610        1.423      -12.147       13.634       15.277       11.815      185.872      233.374      139.590        0.329        0.028       76.624        9.164        0.014      330.880       -1.466      861.659
01/03/2022  00:10:00      -86.368       10.858      -19.915       10.824       19.550        9.819      117.151      382.220       96.420        0.428        0.030       87.047        8.544        0.010      330.871       -1.479      861.641
01/03/2022  00:11:00      -63.568      -60.854      -17.574       30.298       46.528       21.145      917.966     2164.842      447.131        0.579        0.176       88.001       22.920        0.068      330.779       -1.631      861.710
01/03/2022  00:12:00      -40.989      -86.155      -40.744       82.855       53.203       39.708     6864.908     2830.517     1576.720        1.102        0.564       95.409       40.404        0.179      330.814       -1.573      861.743
01/03/2022  00:13:00       62.577      -58.537      -43.785       43.491       63.895       32.908     1891.434     4082.582     1082.925        0.816        0.353       85.689       31.517        0.135      330.616       -1.898      861.659
01/03/2022  00:14:00       11.612       -9.513      -17.733       14.665       25.651       23.780      215.067      657.993      565.468        0.099        0.072       15.011        5.388        0.129      330.484       -2.114      861.606
01/03/2022  00:15:00      -35.139       10.411      -13.396       33.462       29.541       24.697     1119.678      872.667      609.925        0.206        0.130       36.649       15.734        0.184      330.664       -1.819      861.592
01/03/2022  00:16:00      -59.558        2.588       -7.901       71.377       37.982       34.299     5094.690     1442.612     1176.418        0.566        0.386       59.614       27.718        0.216      330.528       -2.042      861.655
01/03/2022  00:17:00      -50.538      -21.949        0.083       44.723       32.797       28.630     2000.177     1075.620      819.662        0.346        0.195       55.098       19.455        0.125      330.573       -1.968      861.744
01/03/2022  00:18:00       -7.912      -61.234      -17.241       53.638       36.175       22.808     2877.082     1308.613      520.200        0.441        0.235       61.744       24.918        0.163      330.898       -1.435      861.754
01/03/2022  00:19:00       41.290      -50.130       -8.481       63.432       57.989       32.160     4023.622     3362.750     1034.243        0.635        0.421       64.945       37.361        0.331      330.568       -1.977      861.685
01/03/2022  00:20:00        4.899      -27.016       -8.837       27.679       42.158       19.620      766.105     1777.335      384.949        0.188        0.146       27.456       17.441        0.404      330.860       -1.496      861.666
01/03/2022  00:21:00       19.268      -27.919      -15.260       17.574       17.418       19.156      308.832      303.376      366.957        0.118        0.049       33.923       10.258        0.091      330.872       -1.478      861.703
01/03/2022  00:22:00       47.933       14.364      -20.034       28.619       30.184       13.740      819.042      911.046      188.782        0.241        0.096       50.039       11.381        0.052      330.845       -1.523      861.700
01/03/2022  00:23:00       78.516      -32.852      -10.800       17.328       17.471       10.682      300.271      305.225      114.103        0.404        0.036       85.111        6.336        0.006      331.174       -0.980      861.667
01/03/2022  00:24:00       -3.023        7.806       -5.816       19.457       15.616        8.762      378.564      243.868       76.765        0.040        0.035        8.371        8.183        0.955      331.193       -0.950      861.651
01/03/2022  00:25:00      -38.446       59.016       -4.567       33.347       29.302       11.753     1112.045      858.619      138.142        0.354        0.105       70.435       14.542        0.043      331.152       -1.017      861.608
01/03/2022  00:26:00      -58.632       13.353      -19.779       46.097       49.355       29.428     2124.894     2435.953      866.026        0.472        0.271       60.134       23.171        0.148      330.403       -2.247      861.682
01/03/2022  00:27:00      -36.043       19.262      -14.128       92.068       56.680       40.723     8476.513     3212.650     1658.364        0.761        0.667       40.867       21.378        0.274      330.349       -2.337      861.770
01/03/2022  00:28:00      -68.908       29.287       -9.838       55.738       32.286       21.614     3106.713     1042.375      467.180        0.516        0.231       74.873       10.298        0.019      330.415       -2.228      861.710
01/03/2022  00:29:00      -40.876       41.195       -8.005       29.772       23.827       17.201      886.394      567.727      295.887        0.259        0.088       58.033       12.860        0.049      330.907       -1.420      861.678
01/03/2022  00:30:00       -8.861       -2.990       -7.544       23.961       23.135       19.323      574.121      535.212      373.394        0.081        0.074        9.352       17.030        3.316      330.814       -1.572      861.709
01/03/2022  00:31:00       10.936      -12.192       -8.018       14.321       13.317       17.186      205.081      177.336      295.343        0.051        0.034       16.378       11.828        0.522      330.819       -1.563      861.725
01/03/2022  00:32:00       48.138      -21.717      -39.846       32.051       40.200       27.011     1027.286     1616.047      729.609        0.387        0.169       52.810       16.097        0.093      330.626       -1.881      861.703
01/03/2022  00:33:00       39.703       -1.343      -23.176       29.059       23.934       22.347      844.444      572.855      499.386        0.202        0.096       39.725       14.121        0.126      330.456       -2.159      861.617
01/03/2022  00:34:00       24.389        7.238      -12.453       19.480       18.410       11.431      379.470      338.945      130.665        0.083        0.042       25.441        9.615        0.143      330.594       -1.933      861.599
01/03/2022  00:35:00      -13.930       47.078       -7.193       20.106       12.696        6.402      404.233      161.194       40.982        0.153        0.030       49.096        5.226        0.011      330.677       -1.796      861.639
01/03/2022  00:36:00      -46.832       50.832       -8.910       27.509       24.720       15.459      756.720      611.073      238.986        0.323        0.080       69.117       12.983        0.035      330.538       -2.024      861.701
01/03/2022  00:37:00      -57.805       20.102      -17.780       18.656       16.880       11.794      348.052      284.919      139.106        0.242        0.039       61.200        8.521        0.019      330.474       -2.129      861.730
01/03/2022  00:38:00       10.630       65.428       -5.020       23.963       38.157       16.075      574.233     1455.970      258.394        0.335        0.114       66.286       11.874        0.032      330.647       -1.847      861.661
01/03/2022  00:39:00       56.030       65.685      -10.857       25.260       36.197       21.358      638.074     1310.256      456.154        0.499        0.120       86.336       17.850        0.043      330.648       -1.845      861.632
01/03/2022  00:40:00       34.400       34.490      -13.216       19.706       20.771       14.796      388.308      431.437      218.908        0.179        0.052       48.713        9.641        0.039      330.617       -1.895      861.655
01/03/2022  00:41:00       84.409       39.840      -22.930       28.236       26.364       23.657      797.292      695.070      559.666        0.564        0.103       93.339       16.780        0.032      330.710       -1.743      861.587
01/03/2022  00:42:00       44.567       -7.755       -3.633       27.304       25.018       22.242      745.518      625.922      494.685        0.196        0.093       45.237       18.799        0.173      330.015       -2.884      861.563
01/03/2022  00:43:00       94.087      -12.062       -5.840       24.476       11.408       10.365      599.077      130.139      107.433        0.493        0.042       94.857        6.547        0.005      330.380       -2.286      861.642
01/03/2022  00:44:00      100.849       -2.518       -5.364       27.681       25.388       14.134      766.253      644.547      199.776        0.591        0.081      100.880       10.914        0.012      330.615       -1.899      861.632
01/03/2022  00:45:00       76.850       57.492       -6.963       40.319       18.528       17.096     1625.604      343.295      292.281        0.576        0.113       95.975        8.897        0.009      330.169       -2.630      861.581
01/03/2022  00:46:00      -26.747       60.135       -8.810       47.940       29.808       14.608     2298.236      888.492      213.388        0.390        0.170       65.815       15.551        0.056      330.468       -2.139      861.625
01/03/2022  00:47:00      -34.778       50.734       -6.629       29.431       31.516       12.387      866.206      993.243      153.448        0.292        0.101       61.510       11.834        0.037      330.153       -2.656      861.651
01/03/2022  00:48:00       56.928      121.054      -14.270       25.302       29.802       20.357      640.176      888.156      414.411        1.002        0.097      133.772       14.492        0.012      330.978       -1.303      861.591
01/03/2022  00:49:00       52.113       47.421      -11.562       27.053       32.080       17.056      731.880     1029.149      290.893        0.357        0.103       70.459       12.529        0.032      330.838       -1.534      861.601
01/03/2022  00:50:00       33.163       -8.700       -4.857       17.153       22.745       12.929      294.220      517.332      167.169        0.109        0.049       34.286        8.092        0.056      330.613       -1.902      861.634
01/03/2022  00:51:00       54.379       16.973       -9.132       25.030       21.837        8.948      626.507      476.845       80.074        0.226        0.059       56.967        7.152        0.016      330.668       -1.812      861.592
01/03/2022  00:52:00      -15.697       38.257      -11.879       62.047       11.920       14.056     3849.833      142.089      197.571        0.302        0.209       41.352       21.406        0.268      330.785       -1.619      861.635
01/03/2022  00:53:00     -100.492       16.229      -14.352       39.359       34.175       26.124     1549.095     1167.916      682.486        0.698        0.170      101.793       22.099        0.047      330.263       -2.476      861.711
01/03/2022  00:54:00      -72.172       39.684      -11.048       41.793       27.761       18.484     1746.660      770.656      341.669        0.488        0.143       82.362       14.666        0.032      330.059       -2.811      861.624
01/03/2022  00:55:00      -24.019       -6.257       -3.491       18.554       13.933        9.837      344.246      194.132       96.772        0.063        0.032       24.821        6.828        0.076      330.255       -2.488      861.400
01/03/2022  00:56:00      -42.958      -10.692       -9.959       45.069       31.978       24.609     2031.235     1022.614      605.593        0.286        0.183       44.268       19.265        0.189      330.348       -2.337      861.345
01/03/2022  00:57:00      -68.124       -7.978       -2.597       68.215       34.614       40.033     4653.230     1198.106     1602.678        0.608        0.373       68.590       39.093        0.325      330.216       -2.553      861.488
01/03/2022  00:58:00      -99.349       24.351       -7.618       29.933       33.072       17.560      895.976     1093.775      308.339        0.641        0.115      102.290       17.054        0.028      330.347       -2.338      861.508
01/03/2022  00:59:00     -141.103       30.646       -6.204       45.028       25.656       21.989     2027.501      658.244      483.509        1.203        0.158      144.393       23.191        0.026      330.369       -2.301      861.449
01/03/2022  01:00:00     -136.121       -0.744      -10.807       36.890       26.981       20.767     1360.871      727.969      431.284        1.058        0.126      136.123       13.754        0.010      330.399       -2.253      861.402
01/03/2022  01:01:00     -136.726       36.221      -12.324       46.456       31.101       22.994     2158.136      967.283      528.718        1.191        0.183      141.443       21.481        0.023      330.448       -2.174      861.442
01/03/2022  01:02:00     -130.183        0.798      -11.734       43.508       38.170       24.689     1892.976     1456.947      609.539        1.052        0.198      130.186       13.457        0.011      330.450       -2.170      861.551
01/03/2022  01:03:00      -65.765       61.281      -20.094       45.386       22.256       14.091     2059.862      495.318      198.568        0.562        0.138       89.891        3.808        0.002      330.901       -1.427      861.398
01/03/2022  01:04:00        3.381       39.962       -4.809        9.253       18.856       10.894       85.622      355.547      118.676        0.110        0.028       40.105       10.536        0.069      331.678       -0.150      861.207
01/03/2022  01:05:00      -33.476       13.618      -15.656       33.916       25.109       28.138     1150.290      630.481      791.754        0.206        0.129       36.139       23.877        0.437      330.918       -1.401      861.267
01/03/2022  01:06:00      -57.176      -16.408      -10.108       39.084       38.147       24.091     1527.566     1455.197      580.370        0.360        0.178       59.484       16.218        0.074      330.398       -2.254      861.362
01/03/2022  01:07:00     -143.804        6.865      -14.858       53.064       62.897       39.350     2815.762     3956.051     1548.398        1.463        0.416      143.968       27.045        0.035      330.437       -2.192      861.448
01/03/2022  01:08:00     -128.547       71.933      -12.541       50.103       43.530       29.785     2510.324     1894.861      887.135        1.357        0.265      147.305       24.364        0.027      330.524       -2.047      861.367
01/03/2022  01:09:00     -144.702       58.939      -19.723       32.469       42.361       26.264     1054.263     1794.417      689.804        1.417        0.177      156.245       23.043        0.022      330.881       -1.463      861.277
01/03/2022  01:10:00     -194.441       42.846      -36.712       66.738       39.962       28.278     4453.994     1596.936      799.637        2.392        0.343      199.106       19.763        0.010      330.653       -1.838      861.336
01/03/2022  01:11:00     -198.796       61.501       -5.514      109.060       62.146       40.090    11894.170     3862.156     1607.190        3.034        0.868      208.092       44.789        0.046      330.528       -2.044      861.388
01/03/2022  01:12:00     -152.288       42.665       -9.918      112.006       60.535       45.989    12545.434     3664.469     2115.004        2.171        0.916      158.151       45.953        0.084      330.364       -2.312      861.340
01/03/2022  01:13:00     -192.176       33.201       -3.655       83.589       56.740       37.201     6987.201     3219.476     1383.946        2.482        0.580      195.022       35.396        0.033      330.465       -2.146      861.340
01/03/2022  01:14:00      -82.693       33.427       -0.766       58.468       33.667       26.304     3418.522     1133.491      691.910        0.660        0.262       89.194       19.198        0.046      330.550       -2.005      861.355
01/03/2022  01:15:00       39.702       10.874      -10.041       45.876       23.178       24.731     2104.622      537.236      611.599        0.252        0.163       41.164       10.237        0.062      330.586       -1.945      861.348
01/03/2022  01:16:00       82.745       31.268      -20.245       22.150       22.108       19.059      490.610      488.757      363.247        0.479        0.067       88.456       13.231        0.022      330.548       -2.009      861.304
01/03/2022  01:17:00       27.891       20.826      -21.448       40.380       37.831       26.237     1630.516     1431.184      688.376        0.271        0.188       34.808       24.533        0.497      330.749       -1.679      861.299
01/03/2022  01:18:00        4.902       25.034       -8.374       15.930       18.283       11.643      253.764      334.279      135.565        0.072        0.036       25.510        8.480        0.110      330.590       -1.938      861.267
01/03/2022  01:19:00       34.864       37.735      -12.443       29.167       15.975       12.074      850.724      255.193      145.770        0.202        0.063       51.375       10.733        0.044      330.481       -2.118      861.198
01/03/2022  01:20:00      -29.373        4.061       -5.909       36.533       26.468       20.965     1334.641      700.558      439.533        0.169        0.124       29.653       21.020        0.503      330.395       -2.259      861.188
01/03/2022  01:21:00       10.843       -0.835        2.507       26.908       26.927       26.401      724.062      725.076      697.005        0.113        0.107       10.875       12.196        1.258      330.353       -2.329      861.275
01/03/2022  01:22:00      105.117       22.216      -18.611       36.188       37.960       19.977     1309.606     1440.993      399.077        0.752        0.157      107.439       18.215        0.029      330.062       -2.806      861.218
01/03/2022  01:23:00      114.312       50.738      -15.722       29.707       29.983       15.034      882.511      898.961      226.010        0.895        0.100      125.067        9.683        0.006      330.120       -2.711      861.053
01/03/2022  01:24:00       51.286        6.607      -10.763       19.188       24.328       15.704      368.184      591.851      246.630        0.200        0.060       51.710        6.766        0.017      330.072       -2.790      861.163
01/03/2022  01:25:00       82.457        9.978      -13.358       34.342       21.461       14.766     1179.385      460.568      218.034        0.447        0.093       83.058       11.743        0.020      329.988       -2.927      861.224
01/03/2022  01:26:00       80.799       15.051       -7.718       37.067       24.490       16.137     1373.965      599.764      260.407        0.452        0.112       82.189       17.434        0.045      330.074       -2.785      861.190
01/03/2022  01:27:00      -31.831       52.739      -19.993       44.326       25.596       16.843     1964.810      655.158      283.699        0.355        0.145       61.600       14.194        0.053      330.179       -2.613      861.248
01/03/2022  01:28:00      -74.987       41.832      -17.497       19.710       21.016       16.638      388.475      441.655      276.826        0.439        0.055       85.866       11.261        0.017      329.942       -3.003      861.250
01/03/2022  01:29:00      -67.905       19.516      -11.907       13.784       17.083       11.117      190.011      291.836      123.577        0.287        0.030       70.654        6.845        0.009      330.273       -2.459      861.227
01/03/2022  01:30:00      -51.712       -4.460      -20.770       17.438       11.881       12.906      304.077      141.150      166.559        0.187        0.031       51.904       13.025        0.063      330.288       -2.433      861.203
01/03/2022  01:31:00      -29.914       43.505      -12.225       15.703       32.291       12.965      246.572     1042.709      168.092        0.220        0.073       52.797        7.504        0.020      330.561       -1.986      861.072
01/03/2022  01:32:00      -90.026       14.109      -21.788       28.000       43.534       19.901      784.010     1895.240      396.069        0.593        0.154       91.125       10.195        0.013      330.351       -2.332      861.100
01/03/2022  01:33:00      -78.302        1.537       -9.162       55.997       37.890       30.553     3135.634     1435.624      933.478        0.586        0.275       78.317       23.756        0.092      330.171       -2.626      861.219
01/03/2022  01:34:00      -30.489       44.517       -3.900       43.788       20.372       13.809     1917.411      415.008      190.695        0.272        0.126       53.957       11.910        0.049      330.980       -1.299      861.156
01/03/2022  01:35:00       26.388       50.950       -9.143       23.983       52.867       15.437      575.200     2794.926      238.303        0.349        0.180       57.378       19.171        0.112      331.174       -0.980      860.949
01/03/2022  01:36:00      -92.513        3.794      -26.212       45.224       42.415       25.016     2045.195     1799.052      625.820        0.686        0.224       92.591       24.738        0.071      330.507       -2.076      860.939
01/03/2022  01:37:00     -203.737       50.463      -29.871       93.362       53.870       33.344     8716.404     2901.997     1111.835        2.884        0.637      209.893       35.069        0.028      330.142       -2.679      861.108
01/03/2022  01:38:00     -132.816       74.055       -1.389      102.715       57.701       38.422    10550.365     3329.457     1476.249        1.924        0.768      152.066       42.911        0.080      330.254       -2.494      861.179
01/03/2022  01:39:00      -49.992        6.495      -18.780       39.110       51.230       23.786     1529.571     2624.526      565.790        0.381        0.236       50.412       19.412        0.148      330.334       -2.360      861.176
01/03/2022  01:40:00      -11.848      -22.700      -13.805       27.675       39.050       20.685      765.907     1524.918      427.868        0.178        0.136       25.606       10.922        0.182      330.367       -2.306      861.131
01/03/2022  01:41:00      -97.789       17.525      -14.757       65.471       43.194       32.137     4286.430     1865.710     1032.755        0.863        0.359       99.347       31.879        0.103      330.300       -2.415      861.153
01/03/2022  01:42:00     -123.034       18.880      -12.488       66.103       33.877       24.126     4369.668     1147.619      582.062        1.087        0.305      124.474       26.127        0.044      330.366       -2.308      861.210
01/03/2022  01:43:00     -144.567        5.636      -16.396       84.954       42.794       37.685     7217.110     1831.293     1420.158        1.583        0.523      144.677       42.580        0.087      330.503       -2.083      861.271
01/03/2022  01:44:00     -144.599       88.583      -11.965       73.472       67.131       49.272     5398.179     4506.634     2427.775        2.061        0.617      169.575       47.678        0.079      330.431       -2.203      861.282
01/03/2022  01:45:00      -49.856       57.561      -12.181       34.995       31.676       26.002     1224.671     1003.387      676.117        0.443        0.145       76.150       15.224        0.040      330.743       -1.688      861.102
01/03/2022  01:46:00      -91.093        6.978      -25.720       44.356       27.427       22.935     1967.445      752.245      526.014        0.613        0.162       91.360       16.273        0.032      330.948       -1.350      861.032
01/03/2022  01:47:00      -45.607        1.617       -2.695       70.776       45.774       45.760     5009.285     2095.224     2093.970        0.564        0.460       45.635       44.492        0.951      330.400       -2.250      861.064
01/03/2022  01:48:00     -110.437       -3.707      -11.803      104.040       74.833       47.343    10824.252     5599.965     2241.367        1.550        0.933      110.499       45.872        0.172      330.400       -2.251      861.205
01/03/2022  01:49:00     -153.916       37.562       -9.873       91.946       66.821       46.059     8454.001     4465.018     2121.469        2.012        0.752      158.433       41.807        0.070      330.674       -1.805      861.309
01/03/2022  01:50:00     -125.473       39.634       -4.616       49.423       41.627       30.829     2442.619     1732.809      950.433        1.123        0.256      131.584       20.649        0.025      330.674       -1.802      861.206
01/03/2022  01:51:00     -150.848      115.489      -27.719       39.528       60.164       28.316     1562.430     3619.742      801.783        2.142        0.299      189.981       16.370        0.007      331.615       -0.256      861.094
01/03/2022  01:52:00     -102.221       39.459      -10.866      112.236       70.423       30.155    12596.870     4959.380      909.350        1.529        0.923      109.573       29.018        0.070      331.180       -0.971      861.069
01/03/2022  01:53:00       17.810        3.989       10.762       72.710       49.610       44.425     5286.782     2461.146     1973.559        0.508        0.486       18.251       31.957        3.066      330.738       -1.695      861.145
01/03/2022  01:54:00      -94.047       20.624       -7.670       84.708       55.125       31.897     7175.364     3038.772     1017.424        1.028        0.562       96.282       32.510        0.114      330.670       -1.809      861.097
01/03/2022  01:55:00      -24.041       33.028       -7.262       32.169       22.229       20.079     1034.863      494.117      403.181        0.183        0.097       40.851       11.169        0.075      331.106       -1.093      861.007
01/03/2022  01:56:00      -40.662       13.690      -12.072       54.671       37.633       25.389     2988.885     1416.279      644.625        0.352        0.252       42.905       21.625        0.254      330.774       -1.638      861.024
01/03/2022  01:57:00     -127.013        3.316      -11.649       99.762       54.638       44.827     9952.472     2985.298     2009.477        1.561        0.747      127.056       41.758        0.108      330.560       -1.990      861.176
01/03/2022  01:58:00     -108.018        6.902      -12.140      105.774       66.190       44.892    11188.125     4381.106     2015.252        1.472        0.879      108.239       46.662        0.186      330.811       -1.580      861.237
01/03/2022  01:59:00      -37.473       25.691       -4.114       55.546       29.317       24.334     3085.329      859.466      592.168        0.331        0.227       45.434       23.896        0.277      330.729       -1.711      861.102
01/03/2022  02:00:00      -90.881       93.489      -12.830       34.986       25.883       15.563     1224.019      669.924      242.218        0.965        0.107      130.382        8.346        0.004      331.286       -0.798      861.017
01/03/2022  02:01:00      -61.993      -14.418      -12.122       73.070       38.721       30.841     5339.252     1499.317      951.169        0.599        0.389       63.648       36.522        0.329      330.975       -1.308      861.097
01/03/2022  02:02:00     -143.788       10.722       -6.567       71.772       44.838       37.526     5151.160     2010.424     1408.221        1.470        0.428      144.187       34.712        0.058      330.962       -1.329      861.155
01/03/2022  02:03:00     -122.197       24.572       -7.795       51.335       42.669       25.596     2635.294     1820.642      655.144        1.035        0.256      124.643       23.420        0.035      330.896       -1.438      861.092
01/03/2022  02:04:00      -69.341       15.662       -5.514       65.280       45.601       37.426     4261.519     2079.494     1400.718        0.641        0.387       71.088       38.775        0.298      330.848       -1.517      861.059
01/03/2022  02:05:00      -47.990       15.207      -10.766       52.922       40.496       33.277     2800.701     1639.959     1107.382        0.410        0.277       50.342       18.885        0.141      330.813       -1.574      861.116
01/03/2022  02:06:00      -48.041      -26.963        1.671       41.508       31.396       23.744     1722.910      985.723      563.763        0.315        0.164       55.091       16.913        0.094      330.988       -1.286      861.188
01/03/2022  02:07:00      -25.469        9.791       -4.325       25.729       10.939       13.086      661.978      119.672      171.251        0.086        0.048       27.286        9.416        0.119      331.059       -1.168      861.136
01/03/2022  02:08:00      -34.674       13.955       -6.544       24.904       16.039       10.392      620.226      257.263      107.997        0.121        0.049       37.377        8.704        0.054      331.125       -1.061      860.986
01/03/2022  02:09:00      -35.267        0.022       -6.177       54.535       25.917       30.598     2974.033      671.682      936.234        0.293        0.229       35.267       27.547        0.610      331.030       -1.218      861.031
01/03/2022  02:10:00      -89.054       -9.303       -2.797       66.589       50.271       39.846     4434.045     2527.140     1587.734        0.829        0.427       89.539       33.772        0.142      330.843       -1.525      861.175
01/03/2022  02:11:00      -86.274       57.309       -7.536       60.155       55.972       24.731     3618.572     3132.842      611.623        0.907        0.368      103.574       27.759        0.072      331.252       -0.852      861.187
01/03/2022  02:12:00       21.701      133.858      -10.902       28.570       39.395       23.369      816.273     1551.973      546.110        1.071        0.146      135.605       15.986        0.014      332.063        0.484      861.047
01/03/2022  02:13:00      -51.128       80.083      -16.879       39.187       62.574       28.575     1535.585     3915.502      816.533        0.779        0.313       95.012       17.044        0.032      331.662       -0.179      861.080
01/03/2022  02:14:00       -1.452      -32.562       -9.005       36.248       30.395       28.668     1313.893      923.829      821.844        0.210        0.153       32.595       22.078        0.459      330.923       -1.394      861.089
01/03/2022  02:15:00      -24.802      -11.146       -5.317       88.510       51.996       42.518     7833.959     2703.603     1807.803        0.655        0.617       27.192       37.231        1.875      330.779       -1.630      861.112
01/03/2022  02:16:00      -96.616        4.488       -3.455       86.153       57.183       53.219     7422.395     3269.854     2832.297        1.144        0.676       96.720       43.334        0.201      330.814       -1.572      861.155
01/03/2022  02:17:00      -91.615       49.809       -4.627       40.901       45.678       25.989     1672.870     2086.456      675.415        0.766        0.222      104.279       18.989        0.033      331.004       -1.261      861.124
01/03/2022  02:18:00      -22.250       62.761      -10.027       45.931       21.800       19.621     2109.632      475.225      384.971        0.375        0.148       66.589       14.954        0.050      331.339       -0.709      861.044
01/03/2022  02:19:00        2.871       72.969      -10.966       13.872       23.924       14.412      192.423      572.368      207.720        0.321        0.049       73.025        8.695        0.014      332.016        0.406      861.085
01/03/2022  02:20:00       -1.110      -12.077      -10.310       13.850       58.408       16.184      191.828     3411.520      261.907        0.206        0.193       12.128       22.521        3.448      331.671       -0.163      861.177
01/03/2022  02:21:00     -117.922      -31.805      -13.215       98.186       41.343       38.110     9640.437     1709.205     1452.360        1.394        0.640      122.136       32.516        0.071      331.144       -1.032      861.276
01/03/2022  02:22:00     -177.153      -14.583      -24.685       40.196       34.514       26.482     1615.699     1191.185      701.295        1.786        0.175      177.752       20.619        0.013      331.460       -0.510      861.248
01/03/2022  02:23:00      -68.339      -14.774      -20.417       15.883       21.186       17.966      252.275      448.827      322.777        0.316        0.051       69.918       13.587        0.038      331.670       -0.166      861.123
01/03/2022  02:24:00      -43.902       -1.535      -21.475        8.630       10.665        8.493       74.473      113.742       72.131        0.133        0.013       43.929        5.440        0.015      332.242        0.778      861.107
01/03/2022  02:25:00      -84.230        7.619      -26.499       30.555       26.843       19.854      933.613      720.566      394.171        0.495        0.102       84.574       17.595        0.043      331.938        0.276      861.131
01/03/2022  02:26:00     -132.344       39.653      -12.643       37.582       55.719       32.780     1412.380     3104.633     1074.533        1.242        0.280      138.157       20.084        0.021      331.004       -1.260      861.174
01/03/2022  02:27:00     -137.012       57.071      -25.504       28.331       32.526       23.651      802.668     1057.950      559.382        1.255        0.121      148.423       14.575        0.010      331.112       -1.083      861.202
01/03/2022  02:28:00      -93.666       16.500      -12.327       69.983       48.271       36.860     4897.586     2330.136     1358.642        0.889        0.429       95.108       26.460        0.077      330.878       -1.467      861.161
01/03/2022  02:29:00      -72.828       46.166      -13.855       36.367       32.782       28.747     1322.571     1074.675      826.392        0.542        0.161       86.227       17.110        0.039      331.513       -0.423      861.088
01/03/2022  02:30:00      -25.727      -10.318      -14.656       35.514       52.150       23.061     1261.243     2719.666      531.827        0.275        0.226       27.719       12.833        0.214      331.549       -0.365      861.114
01/03/2022  02:31:00      -28.482      -48.833      -33.825       29.028       34.488       22.950      842.616     1189.428      526.705        0.345        0.128       56.533       17.563        0.097      331.258       -0.842      861.162
01/03/2022  02:32:00      -60.092      -20.267       -6.474       23.223       28.150       22.685      539.296      792.426      514.602        0.295        0.092       63.418       12.542        0.039      331.283       -0.801      861.136
01/03/2022  02:33:00      -82.218       -1.693      -11.711       34.450       20.094       17.691     1186.769      403.757      312.961        0.440        0.095       82.235       12.645        0.024      331.506       -0.435      861.084
01/03/2022  02:34:00      -47.136      -51.048       -3.685       35.473       41.506       15.106     1258.325     1722.724      228.197        0.402        0.160       69.482       12.175        0.031      331.829        0.097      861.074
01/03/2022  02:35:00        3.347      -30.616       -8.089       32.684       56.051       28.491     1068.243     3141.721      811.748        0.302        0.251       30.799       22.731        0.545      331.842        0.118      861.185
01/03/2022  02:36:00     -139.827       23.729       -4.450      105.033       38.669       27.604    11031.938     1495.255      761.968        1.671        0.664      141.826       37.352        0.069      331.514       -0.424      861.301
01/03/2022  02:37:00      -31.277       73.377      -17.962       36.905       22.087       14.316     1361.986      487.848      204.951        0.437        0.103       79.765        6.518        0.007      332.538        1.265      861.173
01/03/2022  02:38:00      -27.227       70.414      -12.409       31.472       20.693       17.337      990.505      428.219      300.567        0.379        0.086       75.494       10.294        0.019      333.135        2.252      860.990
01/03/2022  02:39:00      -68.380        9.780      -31.311       75.337       54.643       39.629     5675.634     2985.867     1570.481        0.799        0.512       69.075       32.610        0.223      331.172       -0.984      861.061
01/03/2022  02:40:00     -118.675       58.510       -9.740       65.727       56.924       31.682     4320.049     3240.299     1003.769        1.308        0.428      132.315       24.191        0.033      331.111       -1.086      861.128
01/03/2022  02:41:00      -47.169      146.902      -11.909       46.562       25.125       19.417     2168.052      631.284      377.032        1.356        0.159      154.289        7.693        0.002      332.628        1.414      861.013
01/03/2022  02:42:00      -13.620      115.192       -6.799       19.997       32.286       16.216      399.865     1042.418      262.965        0.760        0.085      115.995        9.755        0.007      333.161        2.296      861.018
01/03/2022  02:43:00      -72.284        8.138      -19.820       53.646       44.178       29.734     2877.851     1951.729      884.115        0.570        0.286       72.740       20.724        0.081      331.342       -0.705      861.096
01/03/2022  02:44:00     -138.203       15.144      -11.387       52.404       41.195       29.381     2746.228     1696.990      863.252        1.238        0.265      139.031       22.220        0.026      330.884       -1.455      861.123
01/03/2022  02:45:00     -108.030       -5.137       -5.681       69.257       40.565       33.929     4796.548     1645.532     1151.164        0.966        0.380      108.152       34.101        0.099      330.879       -1.465      861.193
01/03/2022  02:46:00      -47.369        0.678      -10.308       44.737       37.377       24.732     2001.418     1397.037      611.678        0.318        0.201       47.374       24.269        0.262      330.874       -1.476      861.212
01/03/2022  02:47:00      -90.929       -8.345       -7.503       42.500       27.243       20.741     1806.208      742.156      430.185        0.569        0.149       91.311       19.384        0.045      331.379       -0.644      861.141
01/03/2022  02:48:00      -13.594      -18.977       -6.295       19.670       16.150       15.386      386.899      260.812      236.719        0.073        0.044       23.344       13.422        0.331      331.718       -0.086      861.093
01/03/2022  02:49:00      -22.992       -7.714       -7.862       28.227        8.588        6.614      796.738       73.761       43.739        0.078        0.046       24.251       10.158        0.175      331.994        0.369      861.125
01/03/2022  02:50:00      -94.027       41.842      -17.912       24.683       20.550       13.980      609.250      422.295      195.434        0.607        0.061      102.917       11.438        0.012      331.241       -0.870      861.177
01/03/2022  02:51:00     -118.033       28.517      -12.867       46.466       30.924       22.107     2159.120      956.270      488.702        0.926        0.180      121.429       16.522        0.019      330.974       -1.309      861.211
01/03/2022  02:52:00      -77.486        2.056        3.163       56.824       36.602       25.318     3228.932     1339.734      640.996        0.561        0.260       77.514       24.134        0.097      330.893       -1.442      861.210
01/03/2022  02:53:00      -25.123        7.751      -15.953       36.597       45.881       18.487     1339.353     2105.073      341.779        0.237        0.189       26.291       10.944        0.173      331.150       -1.022      861.133
01/03/2022  02:54:00      -66.025       67.296      -16.534       18.818       20.372       11.782      354.103      415.029      138.827        0.503        0.045       94.276       10.678        0.013      332.239        0.774      861.072
01/03/2022  02:55:00      -92.978        2.119      -29.046       28.126       31.694       21.530      791.049     1004.489      463.554        0.588        0.113       93.002       12.600        0.018      331.076       -1.142      861.099
01/03/2022  02:56:00     -118.919      -10.486      -18.031       27.843       31.339       23.638      775.240      982.104      558.772        0.845        0.116      119.381       17.099        0.021      330.914       -1.408      861.156
01/03/2022  02:57:00      -99.547       43.122      -17.567       19.444       31.017       15.240      378.078      962.038      232.252        0.682        0.079      108.486        8.063        0.006      331.269       -0.825      861.163
01/03/2022  02:58:00      -49.575      107.207      -13.011       37.122       29.953       15.988     1378.029      897.202      255.603        0.833        0.127      118.115       13.005        0.012      332.264        0.814      861.107
01/03/2022  02:59:00      -46.751       74.858      -17.577       25.161       32.791       16.222      633.068     1075.218      263.143        0.503        0.099       88.257       10.469        0.014      332.749        1.615      861.085
01/03/2022  03:00:00      -67.889      -29.669      -21.407       22.375       13.801       16.872      500.659      190.474      284.658        0.346        0.049       74.089       13.950        0.035      331.413       -0.587      861.110
01/03/2022  03:01:00      -21.325        5.259      -12.990       20.314       11.272        7.396      412.659      127.065       54.700        0.062        0.030       21.964        9.570        0.190      332.224        0.748      861.035
01/03/2022  03:02:00      -35.257       -5.525      -15.973       45.435       20.597       22.796     2064.363      424.235      519.638        0.227        0.150       35.687       26.248        0.541      331.831        0.101      860.985
01/03/2022  03:03:00     -124.104       -6.129      -20.829       45.834       32.092       26.826     2100.795     1029.867      719.636        0.986        0.193      124.255       22.853        0.034      331.386       -0.633      861.099
01/03/2022  03:04:00      -96.723       17.859       -7.814       48.786       18.853       13.557     2380.025      355.425      183.785        0.633        0.146       98.358       13.730        0.019      331.474       -0.487      861.063
01/03/2022  03:05:00        9.379       -0.511       -6.672       45.936        8.361        9.558     2110.078       69.913       91.346        0.120        0.114        9.392        9.517        1.027      332.121        0.579      860.988
01/03/2022  03:06:00       60.886       27.115       -4.880       29.709       24.683       15.739      882.614      609.245      247.721        0.310        0.087       66.651       14.158        0.045      332.620        1.400      860.938
01/03/2022  03:07:00      -30.058        2.060      -11.574       41.566       33.100       38.125     1727.742     1095.634     1453.518        0.266        0.214       30.128       28.911        0.921      331.585       -0.305      860.988
01/03/2022  03:08:00      -90.191       -1.001        1.531       74.907       48.537       49.575     5611.007     2355.882     2457.689        0.928        0.521       90.197       41.613        0.213      331.158       -1.009      861.126
01/03/2022  03:09:00     -120.879      -28.445      -11.384       38.586       50.617       18.932     1488.895     2562.043      358.406        0.998        0.220      124.181       12.003        0.009      332.145        0.619      861.203
01/03/2022  03:10:00       -5.884       10.478       -1.623       39.320       16.567       13.428     1546.055      274.481      180.312        0.107        0.100       12.017        7.183        0.357      332.471        1.156      861.162
01/03/2022  03:11:00      106.739       55.742      -13.708       24.132       29.843       14.914      582.330      890.625      222.428        0.819        0.085      120.417        6.575        0.003      332.742        1.603      860.978
01/03/2022  03:12:00      -23.643       23.709       -3.454       39.027       45.417       20.908     1523.088     2062.704      437.125        0.258        0.201       33.483       28.669        0.733      332.102        0.548      860.941
01/03/2022  03:13:00      -49.677       -3.912      -14.445       28.241       24.045       21.923      797.551      578.140      480.612        0.227        0.093       49.831        9.121        0.034      331.368       -0.661      861.001
01/03/2022  03:14:00      -86.749       -6.506      -13.904       20.042       18.716       16.669      401.675      350.294      277.858        0.440        0.051       86.992        8.592        0.010      332.106        0.552      861.090
01/03/2022  03:15:00      -82.048       11.331      -14.595       36.606       23.749       21.699     1339.971      564.034      470.845        0.472        0.119       82.827       14.459        0.030      332.388        1.018      861.063
01/03/2022  03:16:00      -22.417        3.769       -2.207       39.929       16.283       14.204     1594.301      265.127      201.751        0.129        0.103       22.732       12.713        0.313      332.472        1.157      860.932
01/03/2022  03:17:00       -1.637      -30.022       -3.911       11.965       28.691        8.742      143.157      823.170       76.422        0.098        0.052       30.067        5.401        0.032      332.991        2.014      860.861
01/03/2022  03:18:00      -48.785        1.265      -19.528       49.797       48.321       24.181     2479.756     2334.881      584.727        0.408        0.270       48.801       14.945        0.094      333.141        2.264      860.945
01/03/2022  03:19:00      112.949       40.834      -19.438       51.506       38.517       42.449     2652.903     1483.581     1801.960        1.037        0.297      120.103       20.505        0.029      333.854        3.442      860.830
01/03/2022  03:20:00      -24.255      -14.488      -11.807       35.809       35.593       26.309     1282.274     1266.843      692.186        0.209        0.162       28.253       22.591        0.639      332.096        0.537      860.861
01/03/2022  03:21:00       18.459        3.493      -21.764       68.663       31.716       25.733     4714.614     1005.925      662.211        0.360        0.319       18.786       23.089        1.510      332.256        0.800      860.941
01/03/2022  03:22:00       29.327      -59.490      -23.730       43.536       45.915       31.496     1895.424     2108.218      992.011        0.498        0.250       66.326       23.707        0.128      332.124        0.582      860.930
01/03/2022  03:23:00       68.419      -17.024      -24.339       28.808       29.329       12.111      829.872      860.193      146.676        0.370        0.092       70.505       11.532        0.027      331.829        0.097      860.892
01/03/2022  03:24:00      109.262        7.233      -13.584       35.932       27.592       17.173     1291.074      761.306      294.907        0.726        0.117      109.501       11.380        0.011      331.875        0.173      860.746
01/03/2022  03:25:00        5.510        8.453       -5.033       26.919       14.025       16.066      724.619      196.688      258.115        0.065        0.059       10.091        7.172        0.505      331.932        0.266      860.786
01/03/2022  03:26:00       -6.258       23.563       -8.106       16.136       14.321        7.682      260.376      205.080       59.018        0.059        0.026       24.380        9.911        0.165      332.258        0.802      860.812
01/03/2022  03:27:00       52.483       36.179       -8.979       17.424       14.491        9.257      303.585      209.993       85.686        0.237        0.030       63.745        9.428        0.022      332.394        1.027      860.809
01/03/2022  03:28:00       39.607      -50.370      -15.842       14.216       42.552        9.828      202.090     1810.658       96.599        0.323        0.105       64.077       14.283        0.050      331.980        0.346      860.795
01/03/2022  03:29:00       -3.524        9.860       -6.148       32.789       43.412       21.262     1075.117     1884.603      452.076        0.178        0.171       10.471       11.682        1.245      331.692       -0.130      860.768
01/03/2022  03:30:00      -13.470       47.958      -11.232       10.354       13.893       12.978      107.205      193.004      168.423        0.154        0.023       49.813       10.605        0.045      332.448        1.117      860.763
01/03/2022  03:31:00      -21.305       49.602      -12.433       41.154       29.096       14.542     1693.640      846.600      211.474        0.291        0.138       53.984       15.676        0.084      331.807        0.062      860.747
01/03/2022  03:32:00       55.950       32.713      -13.367       50.830       32.529       18.149     2583.650     1058.158      329.374        0.417        0.199       64.812       10.332        0.025      332.137        0.604      860.648
01/03/2022  03:33:00       16.556       22.912      -12.421       49.997       29.857       12.128     2499.747      891.429      147.079        0.225        0.177       28.268        9.833        0.121      331.947        0.292      860.630
01/03/2022  03:34:00       41.073       11.378       -6.726       21.454       24.823       11.074      460.276      616.178      122.629        0.153        0.060       42.620        9.386        0.049      331.927        0.259      860.603
01/03/2022  03:35:00       69.235       42.813       -8.040       16.474       17.029        8.649      271.402      289.990       74.805        0.366        0.032       81.403        6.351        0.006      331.972        0.331      860.516
01/03/2022  03:36:00       63.067       40.200       -8.712       27.912       21.031       14.741      779.079      442.300      217.286        0.355        0.072       74.789        5.520        0.005      332.027        0.422      860.485
01/03/2022  03:37:00      -45.872       76.645       -6.864       44.529       31.290       20.154     1982.854      979.088      406.185        0.570        0.168       89.324       25.540        0.082      331.988        0.360      860.486
01/03/2022  03:38:00      -63.996       47.106      -16.504       66.986       29.898       18.663     4487.062      893.885      348.317        0.616        0.286       79.463       19.206        0.058      331.130       -1.052      860.470
01/03/2022  03:39:00       83.577      -39.033      -25.517       27.768       77.725       28.362      771.084     6041.113      804.409        0.839        0.381       92.242       24.226        0.069      331.930        0.262      860.394
01/03/2022  03:40:00       87.399      -64.685      -36.545       30.448       43.016       28.898      927.101     1850.335      835.076        0.838        0.181      108.732       28.307        0.068      331.566       -0.336      860.417
01/03/2022  03:41:00       83.316      -12.585      -11.327       58.670       31.004       37.166     3442.221      961.231     1381.292        0.651        0.289       84.261       34.675        0.169      331.712       -0.097      860.423
01/03/2022  03:42:00       84.832       11.764       -2.720       53.676       30.549       22.098     2881.110      933.240      488.306        0.582        0.215       85.644       20.198        0.056      331.743       -0.045      860.405
01/03/2022  03:43:00      109.869       -6.083      -20.525       50.229       54.014       23.750     2522.911     2917.518      564.075        0.927        0.300      110.037       19.447        0.031      331.721       -0.080      860.366
01/03/2022  03:44:00       82.386      -46.236      -15.516       68.183       68.534       45.774     4648.877     4696.896     2095.226        1.030        0.572       94.473       36.125        0.146      331.040       -1.200      860.435
01/03/2022  03:45:00       83.604     -134.513      -39.981       48.437       70.070       34.394     2346.105     4909.778     1182.938        1.756        0.422      158.377       20.537        0.017      330.996       -1.274      860.493
01/03/2022  03:46:00      105.741      -64.398      -34.547       53.805       90.447       30.331     2894.976     8180.732      919.964        1.426        0.600      123.807       23.261        0.035      330.958       -1.335      860.423
01/03/2022  03:47:00      171.371       -9.566      -15.861       64.032       38.455       29.302     4100.094     1478.777      858.594        1.807        0.322      171.637       23.832        0.019      330.792       -1.608      860.313
01/03/2022  03:48:00       42.859      -16.286       -4.856       31.797       22.314       19.460     1011.022      497.920      378.682        0.201        0.094       45.849       14.485        0.100      330.733       -1.704      860.323
01/03/2022  03:49:00      123.650       -9.368       -6.297       44.604       34.314       25.207     1989.484     1177.462      635.415        0.961        0.190      124.004       21.554        0.030      331.127       -1.058      860.355
01/03/2022  03:50:00       84.294       24.802       -7.768       52.021       23.651       14.633     2706.208      559.368      214.127        0.563        0.174       87.867       13.573        0.024      330.717       -1.731      860.359
01/03/2022  03:51:00       59.657        3.949       -6.945       46.136       28.700       12.202     2128.516      823.674      148.899        0.336        0.155       59.788       17.397        0.085      330.869       -1.482      860.440
01/03/2022  03:52:00      176.484       66.774      -15.899       28.960       29.368       12.257      838.686      862.483      150.233        1.885        0.093      188.694        5.082        0.001      330.835       -1.538      860.308
01/03/2022  03:53:00      111.000       40.951       -4.314       43.150       30.963       21.090     1861.960      958.722      444.785        0.864        0.163      118.313       18.730        0.025      330.632       -1.871      860.291
01/03/2022  03:54:00      117.298       86.798      -16.958       42.173       30.662       23.930     1778.539      940.156      572.624        1.244        0.165      145.920        9.738        0.004      331.145       -1.028      860.321
01/03/2022  03:55:00      127.469       81.667      -16.403       37.199       19.541       17.712     1383.798      381.854      313.723        1.263        0.104      151.386        7.959        0.003      331.362       -0.671      860.328
01/03/2022  03:56:00       51.389       81.514       -6.291       47.741       37.029       24.357     2279.213     1371.131      593.244        0.678        0.212       96.361       22.494        0.054      331.162       -1.000      860.338
01/03/2022  03:57:00       44.421       84.569       -7.442       30.811       25.263       15.263      949.305      638.206      232.974        0.550        0.091       95.526       12.972        0.018      331.476       -0.483      860.372
01/03/2022  03:58:00      125.026       49.982      -20.234       26.425       21.171       16.173      698.286      448.214      261.563        0.997        0.070      134.647       13.938        0.011      331.889        0.195      860.349
01/03/2022  03:59:00      135.583       61.074      -13.979       20.254       14.766       16.092      410.206      218.024      258.942        1.160        0.044      148.704        8.031        0.003      332.062        0.482      860.315
01/03/2022  04:00:00      140.588       58.946       -9.262       44.165       32.562       16.180     1950.574     1060.271      261.799        1.330        0.164      152.445       12.218        0.006      332.055        0.469      860.273
01/03/2022  04:01:00      141.313       52.737      -24.513       44.373       32.051       18.716     1968.992     1027.263      350.275        1.335        0.167      150.833       10.723        0.005      332.004        0.385      860.270
01/03/2022  04:02:00       -1.172       51.779       -3.487       25.610       29.592       14.940      655.848      875.695      223.207        0.222        0.088       51.792        6.516        0.016      332.066        0.486      860.326
01/03/2022  04:03:00       49.264       66.688        1.480       46.025       25.739       23.919     2118.336      662.486      572.105        0.511        0.168       82.911       18.935        0.052      332.297        0.866      860.281
01/03/2022  04:04:00       59.284       76.613      -14.783       39.845       39.580       26.767     1587.657     1566.564      716.473        0.674        0.194       96.872       26.485        0.075      332.143        0.614      860.233
01/03/2022  04:05:00       16.360      129.753      -16.276       32.300       39.000       16.881     1043.271     1520.970      284.958        1.011        0.142      130.780       15.518        0.014      332.299        0.870      860.289
01/03/2022  04:06:00      -62.850       42.491      -21.739       22.746       19.125       15.662      517.370      365.783      245.287        0.368        0.056       75.866        8.038        0.011      331.376       -0.648      860.313
01/03/2022  04:07:00      -79.579       20.393      -19.584       19.653       16.700       14.195      386.256      278.890      201.491        0.400        0.043       82.150       10.012        0.015      331.301       -0.772      860.282
01/03/2022  04:08:00      -50.465        7.460      -18.413       18.525       21.264       13.723      343.172      452.164      188.318        0.196        0.049       51.013        8.480        0.028      331.989        0.360      860.223
01/03/2022  04:09:00       14.621       17.283       -4.228       24.278       27.040       10.515      589.416      731.141      110.564        0.098        0.072       22.638        9.409        0.173      332.448        1.117      860.203
01/03/2022  04:10:00       -2.329       73.490       -4.124       28.551       22.416       14.060      815.173      502.457      197.683        0.347        0.076       73.527       11.498        0.024      332.837        1.760      860.151
01/03/2022  04:11:00      -13.430       63.313       -9.122       23.325       28.411       17.292      544.066      807.161      299.027        0.296        0.083       64.721       14.864        0.053      332.586        1.346      860.141
01/03/2022  04:12:00       41.771      158.977      -16.086       36.181       32.610       17.045     1309.054     1063.390      290.539        1.497        0.133      164.373       12.198        0.006      333.142        2.265      860.128
01/03/2022  04:13:00       75.487      126.039      -17.351       32.059       36.791       23.327     1027.753     1353.546      544.160        1.240        0.146      146.916       20.614        0.020      333.762        3.290      860.111
01/03/2022  04:14:00       69.235       87.021      -12.972       32.465       31.351       23.206     1054.001      982.870      538.519        0.755        0.129      111.203       18.090        0.026      333.590        3.006      860.059
01/03/2022  04:15:00      -28.268       75.285      -17.055       63.484       55.632       22.416     4030.276     3094.894      502.461        0.719        0.381       80.418       19.736        0.060      333.175        2.318      860.066
01/03/2022  04:16:00      -91.550        2.827      -19.689       29.106        5.458       12.126      847.166       29.794      147.030        0.490        0.051       91.594       11.752        0.016      332.125        0.586      860.164
01/03/2022  04:17:00      -25.417       19.497       -5.445       32.690       22.221       13.966     1068.639      493.774      195.053        0.141        0.088       32.034       10.039        0.098      331.972        0.331      860.165
01/03/2022  04:18:00       56.573        5.782      -18.424       27.440       11.724       12.042      752.943      137.449      145.009        0.230        0.052       56.867        5.007        0.008      331.971        0.330      860.127
01/03/2022  04:19:00       69.018       -5.646      -15.211       54.118       35.349       21.593     2928.756     1249.533      466.256        0.483        0.232       69.248       19.063        0.076      331.641       -0.214      860.136
01/03/2022  04:20:00       11.758      -20.947      -24.212       29.602       37.968       33.187      876.296     1441.575     1101.356        0.229        0.171       24.021       21.590        0.808      331.782        0.020      860.137
01/03/2022  04:21:00      -63.604        0.533      -21.512       42.966       19.259       23.970     1846.074      370.910      574.539        0.365        0.140       63.606       23.173        0.133      331.669       -0.166      860.163
01/03/2022  04:22:00      -94.500      -34.342        2.254       59.036       53.674       28.591     3485.284     2880.912      817.444        0.865        0.359      100.547       28.695        0.081      331.946        0.289      860.205
01/03/2022  04:23:00     -105.382       32.862       -1.740       35.713       25.815       23.507     1275.387      666.438      552.595        0.734        0.125      110.387       19.374        0.031      331.723       -0.078      860.197
01/03/2022  04:24:00      -85.196       99.697      -18.758       21.139       18.703       13.833      446.875      349.784      191.351        0.927        0.049      131.140        8.474        0.004      331.634       -0.224      860.197
01/03/2022  04:25:00      -77.425       63.153      -16.050       30.031       34.836       14.230      901.886     1213.556      202.490        0.628        0.116       99.915       15.461        0.024      331.874        0.171      860.089
01/03/2022  04:26:00      -58.327        7.879      -21.316       50.992       32.435       33.702     2600.214     1052.018     1135.798        0.435        0.239       58.857       20.604        0.123      331.257       -0.843      860.102
01/03/2022  04:27:00     -101.853       31.968       -6.232       49.682       34.821       25.232     2468.261     1212.511      636.651        0.788        0.216      106.752       22.916        0.046      331.453       -0.522      860.205
01/03/2022  04:28:00       30.513       62.484       -6.872       59.418       24.559       15.474     3530.547      603.135      239.444        0.463        0.219       69.536       18.145        0.068      332.932        1.918      860.148
01/03/2022  04:29:00       61.774       23.609      -14.625       33.004       32.141       22.609     1089.239     1033.064      511.172        0.361        0.132       66.132       19.504        0.087      333.921        3.552      860.044
01/03/2022  04:30:00      -87.551       -3.223      -24.641       57.117       20.429       24.294     3262.357      417.340      590.196        0.628        0.213       87.611       30.926        0.125      331.995        0.372      860.058
01/03/2022  04:31:00     -162.086      -26.004      -25.167       54.241       40.111       32.933     2942.112     1608.913     1084.576        1.661        0.282      164.159       27.906        0.029      331.238       -0.877      860.140
01/03/2022  04:32:00      -97.046       35.610      -14.176       57.298       53.077       26.613     3283.061     2817.175      708.246        0.885        0.340      103.373       24.239        0.055      331.500       -0.445      860.161
01/03/2022  04:33:00      -73.187       99.278      -18.709       33.528       19.676       13.588     1124.150      387.141      184.622        0.863        0.085      123.338        9.455        0.006      332.289        0.854      860.083
01/03/2022  04:34:00      -45.041       96.874       -4.866       43.687       30.698       15.674     1908.582      942.363      245.666        0.727        0.155      106.833       14.962        0.020      332.940        1.932      860.026
01/03/2022  04:35:00     -141.070       50.724      -15.924       99.769       74.348       53.960     9953.842     5527.582     2911.663        2.056        0.920      149.912       52.936        0.125      331.330       -0.727      860.086
01/03/2022  04:36:00     -157.540      133.387      -22.422       69.170       48.956       40.953     4784.453     2396.681     1677.143        2.598        0.443      206.424       36.370        0.031      331.995        0.367      860.143
01/03/2022  04:37:00     -104.527      135.358      -22.907       29.266       30.854       18.551      856.498      951.995      344.121        1.596        0.108      171.019       12.774        0.006      332.430        1.088      860.134
01/03/2022  04:38:00      -63.485       30.948      -22.034       73.140       53.021       33.387     5349.511     2811.254     1114.720        0.737        0.464       70.626       24.032        0.116      331.519       -0.414      860.109
01/03/2022  04:39:00     -163.730       32.463       -2.756      106.407       71.875       54.214    11322.405     5165.970     2939.199        2.364        0.971      166.918       36.045        0.047      331.281       -0.807      860.055
01/03/2022  04:40:00     -201.898       63.353      -10.526       87.923       67.442       42.338     7730.531     4548.483     1792.530        2.948        0.704      211.604       41.389        0.038      331.680       -0.151      860.002
01/03/2022  04:41:00      -56.334      154.626      -20.040       59.500       46.026       24.022     3540.269     2118.349      577.064        1.686        0.312      164.569       20.709        0.016      333.496        2.850      860.000
01/03/2022  04:42:00     -195.246       91.034      -43.843       84.037       78.883       43.280     7062.192     6222.584     1873.141        3.174        0.758      215.426       24.065        0.012      331.893        0.199      860.023
01/03/2022  04:43:00        7.730      147.566      -19.585       47.069       70.101       34.932     2215.484     4914.166     1220.264        1.528        0.417      147.769       27.562        0.035      332.573        1.322      859.966
01/03/2022  04:44:00      -39.590       58.826      -22.249       45.242       62.543       30.337     2046.817     3911.689      920.305        0.620        0.344       70.907       15.316        0.047      332.590        1.351      859.930
01/03/2022  04:45:00      -69.764       98.705      -15.810       39.492       41.380       33.128     1559.610     1712.273     1097.489        0.961        0.218      120.870       24.788        0.042      332.319        0.905      860.003
01/03/2022  04:46:00      -23.916       17.033        8.929       23.688       26.096       17.602      561.103      680.976      309.845        0.125        0.078       29.361        8.329        0.080      332.345        0.948      859.958
01/03/2022  04:47:00      -32.258       -2.280      -10.836       17.200       36.349       13.456      295.837     1321.216      181.062        0.148        0.090       32.339        9.509        0.086      332.459        1.135      859.906
01/03/2022  04:48:00       -1.529       31.381       -4.620       14.087       17.502       10.847      198.443      306.314      117.654        0.082        0.031       31.418        6.494        0.043      333.233        2.415      859.827
01/03/2022  04:49:00        3.334      -39.738       -4.949       11.704       31.056       15.175      136.980      964.489      230.285        0.147        0.067       39.878       18.660        0.219      332.613        1.389      859.848
01/03/2022  04:50:00       -9.273       -7.309       -4.596       27.430       34.023       18.671      752.394     1157.571      348.618        0.121        0.113       11.807       15.394        1.700      332.529        1.253      859.944
01/03/2022  04:51:00      -79.743       99.990      -12.791       70.920       40.561       18.311     5029.651     1645.202      335.278        1.176        0.351      127.894       30.643        0.057      332.299        0.869      859.991
01/03/2022  04:52:00      -65.271       79.960      -18.687       83.943       56.112       24.384     7046.471     3148.607      594.572        1.089        0.539      103.218       28.999        0.079      332.617        1.394      859.956
01/03/2022  04:53:00       35.510      128.675      -14.806       34.142       63.529       30.711     1165.701     4035.935      943.150        1.209        0.307      133.485       32.463        0.059      333.539        2.922      859.763
01/03/2022  04:54:00       62.253      174.772      -17.414       42.675       46.406       23.978     1821.129     2153.511      574.938        1.964        0.227      185.528       17.711        0.009      333.866        3.461      859.737
01/03/2022  04:55:00       41.001       45.008      -16.336       44.036       36.363       25.352     1939.130     1322.274      642.731        0.394        0.195       60.883       13.546        0.050      333.534        2.913      859.823
01/03/2022  04:56:00      -19.863       -5.081        0.703       64.306       48.732       45.217     4135.272     2374.786     2044.621        0.449        0.428       20.503       30.111        2.157      332.795        1.691      859.935
01/03/2022  04:57:00       25.465      -17.701       -6.533       23.399       23.430       24.250      547.527      548.944      588.044        0.134        0.084       31.013       18.598        0.360      332.451        1.120      859.974
01/03/2022  04:58:00       51.092      -38.488      -29.170       29.796       45.786       27.876      887.777     2096.323      777.078        0.435        0.188       63.966       28.887        0.204      332.289        0.853      859.986
01/03/2022  04:59:00      -17.428      -24.454       -9.280       40.890       28.414       16.000     1671.983      807.332      255.990        0.186        0.137       30.029       10.197        0.115      332.769        1.649      859.940
01/03/2022  05:00:00      -66.929       10.417      -23.607       20.612       23.970       15.144      424.869      574.579      229.350        0.319        0.061       67.734        9.362        0.019      332.127        0.588      859.980
01/03/2022  05:01:00       -6.404       14.946       -8.161       21.721       12.877        8.310      471.793      165.806       69.061        0.052        0.035       16.260        4.153        0.065      332.733        1.590      860.033
01/03/2022  05:02:00       -1.865       -0.991       -1.799       14.509       11.009        8.949      210.501      121.196       80.093        0.021        0.021        2.112        8.302       15.452      333.157        2.289      860.033
01/03/2022  05:03:00       91.333       61.606      -13.047       16.816       18.862       10.465      282.763      355.770      109.520        0.653        0.037      110.169        8.585        0.006      333.278        2.490      859.860
01/03/2022  05:04:00       53.892       42.534      -14.565       23.268       24.055       18.156      541.394      578.652      329.645        0.319        0.072       68.655        8.376        0.015      333.383        2.663      859.809
01/03/2022  05:05:00      -15.586        2.729        2.810       22.125       10.657       11.932      489.525      113.576      142.377        0.050        0.037       15.823        5.498        0.121      333.294        2.516      859.865
01/03/2022  05:06:00       22.593      -35.584      -14.578       31.477       43.728       20.919      990.780     1912.174      437.589        0.266        0.167       42.151       29.826        0.501      333.208        2.374      859.886
01/03/2022  05:07:00        2.349      -63.766      -24.914       39.857       54.257       22.408     1588.609     2943.817      502.112        0.486        0.252       63.809       11.234        0.031      332.954        1.955      859.904
01/03/2022  05:08:00       72.553      -26.392      -19.564       39.149       23.073       18.079     1532.647      532.386      326.838        0.437        0.120       77.204       15.386        0.040      333.530        2.906      859.868
01/03/2022  05:09:00       36.451        6.854      -24.845       97.396       41.499       41.375     9485.970     1722.143     1711.860        0.745        0.646       37.089       22.445        0.366      333.437        2.752      859.773
01/03/2022  05:10:00      -10.392       46.860      -33.728       32.317       43.676       24.532     1044.393     1907.628      601.809        0.350        0.178       47.999       18.444        0.148      332.822        1.735      859.738
01/03/2022  05:11:00       32.538       42.499      -11.175       29.290       36.826       23.553      857.923     1356.150      554.757        0.288        0.138       53.525       11.958        0.050      333.657        3.117      859.716
01/03/2022  05:12:00      -11.713       38.853      -12.701       59.132       23.155       24.159     3496.628      536.149      583.650        0.321        0.231       40.580       20.065        0.244      333.194        2.350      859.798
01/03/2022  05:13:00       80.890       43.036      -15.795       29.947       28.731       18.150      896.847      825.465      329.435        0.535        0.103       91.625       10.931        0.014      333.308        2.539      859.768
01/03/2022  05:14:00       15.701       25.447       -2.389       34.595       27.405       15.338     1196.809      751.011      235.255        0.154        0.109       29.901        5.591        0.035      333.456        2.785      859.855
01/03/2022  05:15:00      -22.618       33.295      -11.137       31.494       19.717       13.719      991.873      388.743      188.224        0.166        0.078       40.251       14.365        0.127      333.139        2.260      859.990
01/03/2022  05:16:00      102.981       10.861       -8.361       40.309       29.391       23.659     1624.835      863.805      559.754        0.692        0.152      103.552       17.706        0.029      333.081        2.164      859.861
01/03/2022  05:17:00       80.866      -19.003       -7.528       47.547       29.350       15.704     2260.698      861.418      246.611        0.516        0.168       83.068       17.329        0.044      333.200        2.361      859.775
01/03/2022  05:18:00       68.665       55.010      -14.232       29.437       21.589       12.515      866.530      466.091      156.633        0.472        0.074       87.983       10.571        0.014      333.501        2.858      859.797
01/03/2022  05:19:00        0.509       82.327       -2.497       22.982       19.996       18.221      528.152      399.821      331.991        0.402        0.063       82.329       10.956        0.018      333.875        3.477      859.793
01/03/2022  05:20:00      -15.294      -25.850       -5.875       20.721       35.039       15.770      429.368     1227.756      248.694        0.142        0.095       30.035       14.757        0.241      332.931        1.915      859.857
01/03/2022  05:21:00       49.206       11.079      -26.129       46.452       52.530       26.215     2157.760     2759.395      687.237        0.441        0.280       50.438       19.102        0.143      332.730        1.583      859.952
01/03/2022  05:22:00      151.857      -38.000       -8.852       94.390       61.663       46.131     8909.395     3802.338     2128.095        1.971        0.742      156.540       47.153        0.091      332.504        1.207      860.017
01/03/2022  05:23:00      115.388       34.089      -16.906       46.673       47.620       21.159     2178.406     2267.646      447.708        0.983        0.245      120.318       16.371        0.019      333.131        2.246      860.048
01/03/2022  05:24:00      111.337       -7.828      -18.732       74.701       54.251       32.544     5580.242     2943.193     1059.129        1.119        0.479      111.612       36.209        0.105      333.422        2.727      859.975
01/03/2022  05:25:00       70.503      -35.163      -21.510       74.115       55.921       23.693     5493.031     3127.108      561.364        0.792        0.459       78.785       19.007        0.058      333.031        2.080      859.898
01/03/2022  05:26:00      -51.962     -102.637      -50.324       63.429       58.229       35.697     4023.228     3390.630     1274.274        1.223        0.434      115.041       24.951        0.047      332.837        1.760      860.023
01/03/2022  05:27:00      -16.773       -3.295       -0.986       34.760       42.326       26.664     1208.237     1791.482      710.982        0.200        0.186       17.094       23.162        1.836      332.886        1.842      859.926
01/03/2022  05:28:00       -9.917       45.058      -18.705       18.299       18.698       14.398      334.868      349.615      207.300        0.168        0.045       46.136       10.863        0.055      333.435        2.749      859.874
01/03/2022  05:29:00      -43.836       -2.708      -54.748       50.861       94.291       53.669     2586.880     8890.779     2880.315        0.964        0.718       43.919       50.102        1.301      334.452        4.432      859.937
01/03/2022  05:30:00      -20.864      -31.497       -8.206       37.107       49.201       36.584     1376.946     2420.766     1338.414        0.331        0.257       37.780       27.684        0.537      334.327        4.227      860.057
01/03/2022  05:31:00       35.464      -93.849      -29.533       83.997      115.026       34.423     7055.535    13230.956     1184.970        1.620        1.074      100.326       48.891        0.237      334.016        3.709      859.983
01/03/2022  05:32:00      123.554     -194.745      -39.728       41.619      108.729       36.928     1732.129    11821.917     1363.656        3.484        0.746      230.632       50.174        0.047      334.185        3.989      859.962
01/03/2022  05:33:00       61.879       -3.077      -15.188       34.855       46.160       21.400     1214.850     2130.726      457.974        0.394        0.190       61.956       15.800        0.065      334.003        3.689      859.955
01/03/2022  05:34:00       71.446       30.202       -6.948       36.237       44.690       32.694     1313.095     1997.211     1068.865        0.522        0.219       77.567       19.377        0.062      333.551        2.941      859.964
01/03/2022  05:35:00       32.450      -11.864      -13.744       57.014       59.207       39.452     3250.637     3505.436     1556.477        0.485        0.416       34.551       29.592        0.734      333.194        2.349      859.916
01/03/2022  05:36:00      -10.782      -20.316      -10.893       41.771       50.672       21.039     1744.780     2567.687      442.650        0.270        0.238       23.000       13.890        0.365      333.249        2.441      860.058
01/03/2022  05:37:00      -17.127       31.557       -4.561       41.851       21.151       10.730     1751.548      447.366      115.125        0.181        0.116       35.905        7.165        0.040      333.328        2.571      860.117
01/03/2022  05:38:00       66.237      -19.670      -18.795       24.120       18.785       20.785      581.765      352.890      432.004        0.325        0.068       69.096        7.745        0.013      332.962        1.968      860.037
01/03/2022  05:39:00       71.193      -10.752      -23.819       35.059       28.634       26.610     1229.130      819.885      708.118        0.425        0.138       72.000       13.592        0.036      332.426        1.081      860.032
01/03/2022  05:40:00       23.284        9.158       -7.370       20.689       13.271       11.453      428.043      176.130      131.172        0.071        0.037       25.020        6.965        0.077      332.760        1.633      860.050
01/03/2022  05:41:00      -37.454       29.513       -9.404       17.120        8.809        8.368      293.097       77.606       70.026        0.140        0.022       47.685        9.144        0.037      333.335        2.583      860.101
01/03/2022  05:42:00      -49.764       -4.643      -13.953       14.192       17.026       14.036      201.409      289.898      197.001        0.169        0.034       49.980        7.674        0.024      332.853        1.787      860.159
01/03/2022  05:43:00       14.607      -13.211       -9.654       33.857       12.815       11.213     1146.269      164.223      125.732        0.096        0.072       19.695       14.010        0.506      333.698        3.185      860.187
01/03/2022  05:44:00       31.820      -33.079       -0.316       45.874       36.682       20.626     2104.445     1345.552      425.432        0.299        0.194       45.899       12.718        0.077      333.472        2.809      860.163
01/03/2022  05:45:00       17.832      -52.648       -5.123       29.194       27.410       24.777      852.319      751.319      613.895        0.267        0.111       55.586       18.626        0.112      333.702        3.191      860.117
01/03/2022  05:46:00        5.665      -25.450       -5.559       35.093       33.453       20.119     1231.489     1119.073      404.768        0.173        0.138       26.073       10.688        0.168      333.642        3.093      860.131
01/03/2022  05:47:00       -4.567       10.522       -9.939       33.575       21.694       19.117     1127.276      470.638      365.451        0.110        0.098       11.470       11.817        1.061      332.951        1.947      860.236
01/03/2022  05:48:00       71.715      -12.830       -9.819       64.367       52.088       54.076     4143.054     2713.199     2924.211        0.759        0.489       72.854       37.016        0.258      332.179        0.672      860.131
01/03/2022  05:49:00       70.159      -51.448      -35.739       34.705       46.482       29.330     1204.403     2160.602      860.236        0.654        0.211       87.001       29.164        0.112      332.481        1.172      860.085
01/03/2022  05:50:00       67.253      -80.853      -31.711       47.061       72.006       30.592     2214.756     5184.862      935.866        1.020        0.417      105.167       31.764        0.091      332.647        1.446      860.174
01/03/2022  05:51:00       80.711      -26.623      -19.112       30.934       48.013       19.763      956.900     2305.237      390.594        0.562        0.183       84.989       19.810        0.054      332.375        0.997      860.186
01/03/2022  05:52:00      140.700       42.933       -9.980       27.126       24.267       16.737      735.800      588.878      280.135        1.167        0.080      147.104        9.648        0.004      332.430        1.088      860.154
01/03/2022  05:53:00       67.706      -26.187      -25.198       50.995       52.462       41.149     2600.461     2752.312     1693.263        0.647        0.352       72.594       29.321        0.163      331.933        0.268      860.147
01/03/2022  05:54:00      114.330      -25.864      -26.419      102.318       75.965       56.860    10469.017     5770.613     3233.020        1.695        0.974      117.219       50.268        0.184      332.077        0.504      860.108
01/03/2022  05:55:00       97.372       -9.909       -3.864       76.026       53.576       36.560     5779.965     2870.428     1336.648        0.979        0.499       97.875       32.880        0.113      331.893        0.203      860.140
01/03/2022  05:56:00      -44.281       -6.409       -7.497       44.525       31.534       26.524     1982.460      994.374      703.547        0.287        0.184       44.743       22.551        0.254      331.784        0.024      860.352
01/03/2022  05:57:00      -54.043        6.048       -3.694       49.710       30.462       25.669     2471.108      927.935      658.876        0.351        0.203       54.380       23.058        0.180      331.868        0.163      860.444
01/03/2022  05:58:00       69.969       89.955      -20.311       70.316       37.729       18.672     4944.409     1423.461      348.658        1.006        0.336      113.963       23.282        0.042      332.024        0.418      860.208
01/03/2022  05:59:00      111.528       19.539       -1.979       76.769       77.436       51.565     5893.476     5996.365     2658.979        1.368        0.727      113.227       37.928        0.112      331.776        0.008      859.847
01/03/2022  06:00:00      -13.079      -44.556      -19.748       33.659       32.156       27.767     1132.911     1034.033      770.993        0.274        0.147       46.436       19.102        0.169      331.806        0.059      860.072
01/03/2022  06:01:00      -63.445        9.618      -12.069       48.913       28.631       30.149     2392.517      819.715      908.967        0.419        0.206       64.170       23.645        0.136      332.008        0.392      860.227
01/03/2022  06:02:00       56.195       58.313       -9.842       92.216       26.321       17.279     8503.709      692.814      298.573        0.807        0.475       80.984       23.733        0.086      332.406        1.048      860.195
01/03/2022  06:03:00      168.454      -15.640      -16.512       84.500       59.610       39.365     7140.278     3553.355     1549.635        2.057        0.612      169.178       35.719        0.045      332.070        0.490      860.030
01/03/2022  06:04:00       69.557      -17.416       -2.415       59.705       44.508       37.440     3564.655     1980.999     1401.734        0.605        0.347       71.704       36.615        0.261      331.707       -0.103      859.959
01/03/2022  06:05:00       18.581      -33.774      -13.464       42.189       20.731       23.705     1779.885      429.782      561.913        0.222        0.139       38.548        8.431        0.048      331.954        0.303      860.074
01/03/2022  06:06:00      -61.928       10.995      -17.448       24.875       20.321       20.535      618.744      412.936      421.683        0.286        0.073       62.897       12.316        0.038      331.877        0.177      860.231
01/03/2022  06:07:00       17.756       17.549       -9.229       35.584       12.773       10.068     1266.216      163.139      101.359        0.112        0.077       24.965        7.046        0.080      332.151        0.626      860.226
01/03/2022  06:08:00        7.215      -17.766       -0.355       25.963       25.501       22.676      674.055      650.296      514.185        0.110        0.092       19.175       12.290        0.411      332.194        0.697      860.084
01/03/2022  06:09:00        8.852      -68.370      -40.659       25.371       27.403       23.293      643.701      750.939      542.580        0.417        0.097       68.941       11.056        0.026      331.948        0.292      860.151
01/03/2022  06:10:00       53.656       -3.031      -31.869       36.407       38.625       23.478     1325.453     1491.904      551.219        0.364        0.168       53.742       20.382        0.144      331.668       -0.169      860.170
01/03/2022  06:11:00      123.084       18.226      -16.482       84.243       57.854       30.583     7096.923     3347.083      935.346        1.356        0.569      124.426       32.199        0.067      331.650       -0.199      859.985
01/03/2022  06:12:00       -3.857       -6.349       -4.291       52.490       38.543       30.888     2755.235     1485.577      954.096        0.263        0.260        7.428       22.284        9.000      331.432       -0.556      859.968
01/03/2022  06:13:00      -47.139       19.122       -9.837       29.150       22.243       18.415      849.705      494.762      339.097        0.218        0.084       50.869       11.074        0.047      331.287       -0.794      860.123
01/03/2022  06:14:00      -11.820       38.118       -5.588       12.317       21.318        8.988      151.712      454.471       80.788        0.116        0.034       39.909        8.037        0.041      331.463       -0.506      860.124
01/03/2022  06:15:00       -7.556       70.745       -5.927       34.118       41.365       15.966     1164.021     1711.032      254.928        0.411        0.156       71.148       16.359        0.053      331.646       -0.205      860.035
01/03/2022  06:16:00       55.505       53.072      -10.912       27.099       26.173       16.978      734.377      685.042      288.250        0.386        0.085       76.795       11.456        0.022      331.582       -0.310      860.037
01/03/2022  06:17:00       47.439      -31.392      -32.942       26.721       48.818       24.401      714.005     2383.224      595.399        0.401        0.185       56.886       17.253        0.092      331.254       -0.851      860.098
01/03/2022  06:18:00       69.528      -50.785      -26.685       39.137       43.351       29.151     1531.740     1879.297      849.803        0.619        0.213       86.101       18.350        0.045      331.214       -0.914      860.105
01/03/2022  06:19:00       52.046       32.116      -11.140       18.119       19.741       17.177      328.299      389.689      295.063        0.244        0.051       61.157        7.291        0.014      331.322       -0.739      860.031
01/03/2022  06:20:00      -31.528       51.603      -13.973       59.035       17.777       17.037     3485.155      316.006      290.260        0.397        0.205       60.472       23.985        0.157      331.437       -0.547      860.014
01/03/2022  06:21:00      -74.379       75.610      -15.705       23.655       17.409       12.147      559.571      303.076      147.561        0.625        0.051      106.062        6.675        0.004      331.303       -0.770      860.067
01/03/2022  06:22:00        3.706       95.760       -6.029       32.760       33.375       10.967     1073.196     1113.920      120.280        0.576        0.115       95.831        9.437        0.010      331.891        0.198      859.975
01/03/2022  06:23:00       20.297       85.642       -9.558       28.665       52.357       19.166      821.696     2741.270      367.320        0.588        0.197       88.014       21.907        0.062      331.770       -0.001      859.856
01/03/2022  06:24:00       21.971       18.014      -21.370       18.582       38.791       17.224      345.283     1504.775      296.661        0.170        0.107       28.411        8.727        0.094      331.532       -0.392      859.846
01/03/2022  06:25:00       -3.685       66.709      -15.669       37.054       47.553       17.510     1372.967     2261.305      306.614        0.432        0.197       66.811       17.894        0.072      331.664       -0.174      859.877
01/03/2022  06:26:00      -75.450       -1.937      -17.909       42.264       38.449       34.817     1786.270     1478.347     1212.214        0.525        0.224       75.474       27.970        0.137      331.152       -1.016      859.975
01/03/2022  06:27:00      -52.964        8.053       -4.276       35.364       28.649       26.851     1250.596      820.784      720.986        0.284        0.140       53.573       19.789        0.136      331.098       -1.105      860.004
01/03/2022  06:28:00      -66.826       19.768      -11.933       35.783       23.650       17.756     1280.445      559.303      315.277        0.358        0.108       69.689       17.777        0.065      331.393       -0.622      860.029
01/03/2022  06:29:00      -49.744        2.054       -7.294       27.793       15.058       11.629      772.458      226.758      135.238        0.183        0.057       49.786        9.965        0.040      331.528       -0.399      860.080
01/03/2022  06:30:00       87.818      -23.446      -17.397       39.038       14.271       13.117     1523.971      203.662      172.065        0.523        0.095       90.894        9.751        0.012      331.697       -0.119      859.993
01/03/2022  06:31:00       45.689      -14.159       -7.054       51.408       21.875       21.734     2642.816      478.526      472.352        0.297        0.180       47.832       22.189        0.215      332.012        0.398      859.869
01/03/2022  06:32:00      -58.106      -17.824      -17.696       62.732       41.160       33.851     3935.261     1694.125     1145.872        0.539        0.339       60.778       21.325        0.123      331.563       -0.341      859.968
01/03/2022  06:33:00     -133.167      -17.329        3.326       92.853       49.221       42.470     8621.647     2422.735     1803.663        1.544        0.642      134.290       45.762        0.116      331.407       -0.598      860.097
01/03/2022  06:34:00      -89.961        2.962        2.997       70.163       39.539       41.205     4922.825     1563.329     1697.846        0.815        0.409       90.009       32.249        0.128      331.545       -0.371      860.181
01/03/2022  06:35:00       -4.831       54.550       -5.474       40.956       21.766       15.126     1677.367      473.754      228.800        0.270        0.119       54.763       19.230        0.123      331.603       -0.276      859.952
01/03/2022  06:36:00       85.617       64.682      -13.798       21.982       24.094       14.967      483.204      580.517      224.009        0.650        0.064      107.303        8.018        0.006      332.043        0.450      859.739
01/03/2022  06:37:00       21.461       31.429       -0.384       30.792       20.929       15.503      948.122      438.043      240.358        0.154        0.081       38.057        6.861        0.033      331.597       -0.285      859.743
01/03/2022  06:38:00      -57.845        6.785      -12.037       58.911       51.716       35.302     3470.535     2674.559     1246.204        0.546        0.370       58.242       30.714        0.278      331.545       -0.371      859.920
01/03/2022  06:39:00      -31.400      -26.359       -6.333       41.071       50.033       32.617     1686.857     2503.258     1063.837        0.349        0.263       40.997       20.070        0.240      331.534       -0.388      860.147
01/03/2022  06:40:00       17.491      -30.405      -23.081       47.324       35.972       26.327     2239.594     1293.983      693.130        0.299        0.211       35.077       29.311        0.698      331.885        0.189      860.062
01/03/2022  06:41:00       68.030      -89.582      -42.899       47.559       85.704       41.429     2261.819     7345.236     1716.338        1.291        0.566      112.486       23.376        0.043      331.807        0.061      859.998
01/03/2022  06:42:00       24.375      -83.948       -8.811       35.584       39.335       23.050     1266.255     1547.272      531.319        0.553        0.167       87.415       17.560        0.040      332.196        0.702      860.026
01/03/2022  06:43:00      -56.851       14.931      -24.053       34.464       32.617       12.902     1187.758     1063.857      166.469        0.323        0.121       58.779        6.893        0.014      332.142        0.612      860.033
01/03/2022  06:44:00     -116.010       47.534      -17.864       31.039       15.431       10.012      963.419      238.102      100.237        0.867        0.065      125.371        3.455        0.001      331.812        0.070      860.055
01/03/2022  06:45:00     -134.225       44.524      -16.723       30.736       16.546       17.995      944.693      273.767      323.818        1.091        0.077      141.417       14.382        0.010      331.887        0.192      860.141
01/03/2022  06:46:00      -59.032       64.651       -9.123       28.935       18.388       15.393      837.262      338.120      236.952        0.458        0.071       87.548       11.946        0.019      331.923        0.251      860.093
01/03/2022  06:47:00      -33.208       23.014      -12.813       16.116       26.754       14.168      259.739      715.771      200.742        0.149        0.059       40.403       10.003        0.061      332.368        0.984      859.943
01/03/2022  06:48:00      -21.574       -1.852      -26.007       37.248       36.569       19.934     1387.390     1337.264      397.383        0.213        0.156       21.653       10.534        0.237      331.641       -0.212      860.029
01/03/2022  06:49:00        7.760      -43.059      -21.535       24.318       24.139       10.721      591.373      582.701      114.932        0.183        0.064       43.752       10.418        0.057      331.663       -0.176      860.047
01/03/2022  06:50:00       -6.452       -8.527      -12.734       29.464       14.099        9.117      868.102      198.783       83.114        0.071        0.057       10.693        6.389        0.357      331.637       -0.220      860.015
01/03/2022  06:51:00      -66.749       -6.292       -6.380       31.725       26.941       20.113     1006.467      725.807      404.537        0.334        0.107       67.045       17.230        0.066      331.682       -0.146      860.017
01/03/2022  06:52:00     -100.423      -15.452      -14.206       48.928       31.752       34.994     2393.915     1008.185     1224.582        0.758        0.231      101.605       32.376        0.102      331.603       -0.274      860.081
01/03/2022  06:53:00     -100.690      -20.915       -5.324       58.392       46.404       35.192     3409.677     2153.361     1238.465        0.870        0.340      102.839       29.861        0.084      331.398       -0.613      860.191
01/03/2022  06:54:00      -96.072       11.698        0.332       63.415       44.214       29.911     4021.406     1954.863      894.687        0.812        0.344       96.781       16.937        0.031      331.427       -0.567      860.210
01/03/2022  06:55:00     -110.711       44.519       -5.011       39.779       33.226       22.970     1582.370     1103.963      527.612        0.874        0.161      119.327       16.818        0.020      331.568       -0.331      860.164
01/03/2022  06:56:00      -48.235        9.545      -14.607       26.940       15.875       12.428      725.782      252.008      154.446        0.188        0.057       49.170        6.054        0.015      331.862        0.153      860.137
01/03/2022  06:57:00        7.251      -14.521       -8.390       22.180       18.865       10.667      491.941      355.893      113.784        0.065        0.048       16.231        8.964        0.305      333.126        2.237      860.108
01/03/2022  06:58:00       19.750       20.688       -7.525       41.011       29.623       15.807     1681.934      877.543      249.865        0.184        0.140       28.602       17.246        0.364      333.437        2.752      860.082
01/03/2022  06:59:00      -81.753       35.586      -10.413       45.059       21.466       16.092     2030.280      460.788      258.946        0.540        0.138       89.162       14.336        0.026      332.246        0.784      860.040
01/03/2022  07:00:00      -68.368       20.750      -13.386       37.509       28.619       15.497     1406.937      819.035      240.157        0.387        0.123       71.447       11.086        0.024      331.572       -0.325      860.081
01/03/2022  07:01:00      -60.847       33.583      -16.960       20.757       17.721       20.987      430.870      314.045      440.449        0.315        0.059       69.499       11.449        0.027      331.608       -0.268      860.179
01/03/2022  07:02:00      -10.818       -3.182      -14.385       36.350       26.394       12.096     1321.313      696.635      146.313        0.125        0.108       11.277        9.543        0.716      331.777        0.010      860.237
01/03/2022  07:03:00       29.733        3.686      -21.813       27.613       29.125       28.624      762.474      848.266      819.313        0.190        0.122       29.961       24.614        0.675      331.590       -0.297      860.138
01/03/2022  07:04:00        8.982      -10.559      -14.661       21.774       17.495       10.385      474.104      306.069      107.856        0.065        0.044       13.862        8.613        0.386      331.917        0.242      860.125
01/03/2022  07:05:00      -55.895       25.694      -16.362       26.068       21.478       12.286      679.540      461.299      150.937        0.267        0.065       61.518        5.783        0.009      331.785        0.026      860.209
01/03/2022  07:06:00       15.362        0.320      -12.781       16.010       11.411        9.161      256.326      130.214       83.921        0.043        0.024       15.365        3.811        0.062      332.074        0.501      860.190
01/03/2022  07:07:00      -16.089       15.943      -12.541       24.476       21.279        9.555      599.077      452.781       91.301        0.091        0.057       22.651        8.699        0.147      332.222        0.745      860.177
01/03/2022  07:08:00      -34.019      117.752      -17.106       20.552       25.128       15.257      422.382      631.409      232.786        0.830        0.064      122.567       11.493        0.009      332.339        0.937      860.114
01/03/2022  07:09:00      -30.305      120.314      -16.861       38.819       28.132       15.152     1506.885      791.430      229.581        0.910        0.126      124.072        7.920        0.004      332.676        1.493      860.052
01/03/2022  07:10:00      -48.794       31.641      -16.952       29.180       23.118       11.959      851.501      534.437      143.021        0.260        0.076       58.155       11.576        0.040      331.390       -0.625      860.042
01/03/2022  07:11:00      -18.156       19.120       -4.654       22.701       28.304       16.332      515.356      801.104      266.733        0.115        0.079       26.367       14.121        0.287      331.783        0.022      860.093
01/03/2022  07:12:00        3.110      -47.657      -29.385       48.876       20.974       15.692     2388.892      439.925      246.239        0.311        0.154       47.758       11.525        0.058      331.598       -0.282      860.158
01/03/2022  07:13:00       34.716       16.745      -23.949       32.211       32.205       23.581     1037.576     1037.174      556.048        0.234        0.132       38.543       16.784        0.190      331.686       -0.138      860.075
01/03/2022  07:14:00      -38.187       16.788      -11.271       25.454       19.687       12.031      647.888      387.564      144.738        0.152        0.059       41.714        8.418        0.041      331.884        0.189      860.073
01/03/2022  07:15:00      -59.812       31.188      -20.346       41.825       13.998       10.826     1749.342      195.944      117.209        0.351        0.103       67.455       12.388        0.034      332.361        0.974      860.113
01/03/2022  07:16:00       16.681       49.629      -13.861       34.046       25.900       12.230     1159.100      670.794      149.583        0.246        0.099       52.358        8.582        0.027      333.320        2.557      860.159
01/03/2022  07:17:00      -38.501       -7.569      -18.974       86.716       44.179       40.572     7519.593     1951.747     1646.054        0.651        0.556       39.238       15.577        0.158      331.877        0.176      860.231
01/03/2022  07:18:00       -6.180       85.946      -14.760       53.923       19.566       21.683     2907.649      382.819      470.138        0.570        0.188       86.168       13.683        0.025      332.704        1.541      860.139
01/03/2022  07:19:00       31.798       96.756       -9.777       32.793       45.178       22.114     1075.412     2041.093      489.024        0.704        0.180      101.847       16.778        0.027      333.394        2.681      860.046
01/03/2022  07:20:00      -35.922      -12.251      -21.288       30.877       26.175       28.592      953.390      685.128      817.514        0.217        0.123       37.953       25.833        0.463      332.204        0.716      860.127
01/03/2022  07:21:00      -18.302       -2.076      -12.130       21.034       10.553       13.293      442.417      111.369      176.700        0.061        0.037       18.420       14.289        0.602      332.087        0.522      860.108
01/03/2022  07:22:00       30.447       -4.227       -4.286       13.293       16.322        5.799      176.704      266.401       33.627        0.072        0.024       30.739        5.352        0.030      332.224        0.746      859.982
01/03/2022  07:23:00      -54.622      -37.441      -18.358       37.417       22.259       17.279     1400.013      495.468      298.551        0.346        0.110       66.223       20.770        0.098      331.996        0.372      859.962
01/03/2022  07:24:00      -20.096       10.721       -3.326       20.951       12.541       17.029      438.947      157.278      289.983        0.071        0.044       22.777       11.104        0.238      332.208        0.721      859.954
01/03/2022  07:25:00      -93.347        0.705      -16.164       74.905       56.980       43.901     5610.730     3246.743     1927.286        0.988        0.539       93.349       35.598        0.145      331.689       -0.132      860.003
01/03/2022  07:26:00      -56.251       12.655       -7.882       62.328       23.352       11.479     3884.787      545.309      131.778        0.397        0.228       57.657        8.053        0.020      332.054        0.466      859.998
01/03/2022  07:27:00       -1.825        7.984      -10.412       21.533       14.079       16.925      463.654      198.231      286.467        0.056        0.047        8.190        9.133        1.243      333.296        2.521      859.847
01/03/2022  07:28:00      -95.273       47.078      -15.085       41.991       27.400       19.300     1763.216      750.752      372.492        0.720        0.144      106.270        7.525        0.005      332.282        0.843      859.846
01/03/2022  07:29:00       11.596      -76.593      -16.608       48.653       45.450       24.427     2367.152     2065.736      596.701        0.565        0.251       77.465       26.538        0.117      332.293        0.860      859.922
01/03/2022  07:30:00      124.538     -110.734      -35.616       57.678       71.363       41.520     3326.789     5092.616     1723.914        1.959        0.507      166.648       44.944        0.073      332.568        1.315      859.874
01/03/2022  07:31:00       96.253        5.632      -14.670       27.101       39.431       15.871      734.439     1554.810      251.892        0.603        0.127       96.417       16.117        0.028      333.050        2.113      859.853
01/03/2022  07:32:00      -29.607       25.652       -2.921       24.845       20.964       18.081      617.271      439.475      326.905        0.146        0.069       39.174       18.395        0.220      332.854        1.788      859.876
01/03/2022  07:33:00      -18.012       28.482       -9.004        9.309       12.131       11.399       86.652      147.166      129.929        0.079        0.018       33.699        9.350        0.077      333.146        2.270      859.896
01/03/2022  07:34:00      -30.910       22.527      -10.132       11.487       15.458       13.520      131.957      238.950      182.791        0.106        0.028       38.248       10.057        0.069      333.597        3.016      859.864
01/03/2022  07:35:00      -41.090       14.789       -5.936       28.278       47.051       21.964      799.620     2213.794      482.417        0.272        0.175       43.670       19.463        0.199      333.400        2.692      859.801
01/03/2022  07:36:00      -51.536      -50.869      -12.992       41.285       42.252       26.936     1704.450     1785.194      725.572        0.481        0.211       72.413       15.481        0.046      333.527        2.901      859.820
01/03/2022  07:37:00      -48.585      -76.115      -17.331       38.922       41.883       30.387     1514.913     1754.168      923.340        0.632        0.210       90.300       22.756        0.064      333.555        2.948      859.824
01/03/2022  07:38:00     -114.573       -2.232      -10.720       84.638       47.681       39.102     7163.626     2273.477     1528.950        1.210        0.548      114.595       45.056        0.155      333.434        2.747      859.860
01/03/2022  07:39:00     -180.271        6.077       -2.076      141.646       72.764       56.649    20063.552     5294.604     3209.131        3.055        1.428      180.373       69.730        0.149      333.460        2.790      859.783
01/03/2022  07:40:00     -218.086        5.987        3.761      143.563      107.005       67.803    20610.198    11450.026     4597.198        4.213        1.833      218.168       69.766        0.102      334.303        4.184      859.690
01/03/2022  07:41:00       19.677      -65.737      -27.839       48.400       58.339       36.158     2342.580     3403.456     1307.420        0.627        0.353       68.619       31.829        0.215      333.522        2.893      859.808
01/03/2022  07:42:00     -123.565      -14.646       -4.503       98.954       53.195       46.966     9791.855     2829.750     2205.772        1.516        0.741      124.430       36.429        0.086      333.946        3.595      859.931
01/03/2022  07:43:00     -256.693     -108.760      -15.374       91.017      124.637       56.165     8284.069    15534.495     3154.508        5.246        1.349      278.784       43.835        0.025      334.356        4.271      860.015
01/03/2022  07:44:00      -97.092     -128.609      -24.484      101.724       54.712       44.559    10347.795     2993.403     1985.545        2.094        0.766      161.143       40.137        0.062      334.522        4.547      859.977
01/03/2022  07:45:00       -6.595      -23.728      -20.122       82.543       36.505       31.906     6813.282     1332.611     1017.977        0.509        0.458       24.628       20.889        0.719      333.820        3.386      859.950
01/03/2022  07:46:00       72.207      -11.799      -24.163       36.520       46.571       28.222     1333.708     2168.875      796.483        0.512        0.215       73.165       19.152        0.069      333.169        2.308      859.927
01/03/2022  07:47:00        0.134      -14.795      -10.676       28.314       54.732       25.356      801.659     2995.601      642.916        0.239        0.222       14.796       28.004        3.582      333.287        2.504      859.894
01/03/2022  07:48:00        8.953      -74.505      -22.788       55.839       34.632       27.890     3117.980     1199.348      777.865        0.562        0.255       75.041       11.479        0.023      333.624        3.060      859.873
01/03/2022  07:49:00     -107.367      -93.258      -20.519       70.045       62.116       34.954     4906.266     3858.456     1221.792        1.531        0.499      142.214       25.111        0.031      334.151        3.932      859.883
01/03/2022  07:50:00     -137.689      -24.878      -17.102       51.068       50.485       33.712     2607.925     2548.750     1136.508        1.308        0.315      139.919       26.557        0.036      334.036        3.745      859.869
01/03/2022  07:51:00     -127.363      -77.682      -24.000       73.122       56.851       38.681     5346.862     3232.075     1496.223        1.645        0.504      149.184       24.820        0.028      334.271        4.134      859.857
01/03/2022  07:52:00      -66.111      -48.741      -10.721       85.672       58.438       37.791     7339.650     3415.012     1428.174        0.952        0.609       82.136       37.304        0.206      334.578        4.642      859.872
01/03/2022  07:53:00      -49.619      -98.264      -13.649       48.729       65.728       37.169     2374.509     4320.169     1381.498        1.019        0.404      110.081       31.920        0.084      334.624        4.718      859.870
01/03/2022  07:54:00      -88.579      -30.900      -17.953       92.979       68.861       40.181     8645.087     4741.881     1614.508        1.206        0.750       93.814       21.702        0.054      334.432        4.401      859.943
01/03/2022  07:55:00      -86.824       -3.279       -9.875       46.641       41.104       35.401     2175.414     1689.567     1253.202        0.638        0.256       86.886       23.780        0.075      334.185        3.990      859.946
01/03/2022  07:56:00     -167.373      -31.041      -28.854       84.029       47.645       34.931     7060.953     2270.031     1220.179        2.018        0.528      170.227       34.858        0.042      334.366        4.289      859.915
01/03/2022  07:57:00     -150.155     -166.100      -26.805       69.746       71.771       31.820     4864.547     5151.102     1012.490        3.094        0.551      223.910       25.406        0.013      334.790        4.992      859.945
01/03/2022  07:58:00      -51.963     -135.316      -24.341       70.447       53.526       34.006     4962.831     2865.051     1156.405        1.529        0.449      144.950       25.100        0.030      334.707        4.857      859.993
01/03/2022  07:59:00       59.132     -107.265      -26.532       63.142       47.292       30.324     3986.865     2236.508      919.575        1.142        0.357      122.484       29.855        0.059      334.263        4.118      859.998
01/03/2022  08:00:00       22.601     -115.691      -27.975       71.367       66.709       37.784     5093.183     4450.112     1427.643        1.282        0.549      117.878       24.827        0.044      334.574        4.636      860.003
01/03/2022  08:01:00      -70.137        3.299      -17.581       52.925       73.925       32.101     2801.082     5464.965     1030.481        0.727        0.465       70.215       19.014        0.073      334.638        4.743      860.003
01/03/2022  08:02:00     -230.861      -16.727      -19.160      100.159       94.534       47.744    10031.869     8936.596     2279.477        3.759        1.062      231.466       37.319        0.026      334.652        4.762      860.046
01/03/2022  08:03:00     -127.918       10.351        1.984       74.264       68.661       49.442     5515.191     4714.381     2444.471        1.457        0.634      128.336       40.005        0.097      334.657        4.773      860.108
01/03/2022  08:04:00     -257.592      -66.140      -30.060      103.456       84.218       46.452    10703.139     7092.718     2157.818        4.579        0.998      265.948       33.146        0.016      334.859        5.108      860.151
01/03/2022  08:05:00     -183.388       28.759        4.909      146.189       98.537       65.073    21371.191     9709.614     4234.488        3.489        1.766      185.630       59.100        0.101      334.849        5.090      860.064
01/03/2022  08:06:00     -225.740      -83.618      -23.732      106.799       93.376       47.918    11406.044     8719.075     2296.140        4.046        1.121      240.729       46.636        0.038      335.153        5.595      860.023
01/03/2022  08:07:00     -182.455      -14.207      -12.206       85.650       91.537       41.365     7335.960     8378.943     1711.041        2.553        0.871      183.007       37.679        0.042      335.004        5.347      860.032
01/03/2022  08:08:00     -193.633       -4.565       -3.937      107.982       68.604       53.367    11660.119     4706.475     2848.072        2.837        0.961      193.687       54.591        0.079      334.932        5.230      860.054
01/03/2022  08:09:00     -195.655      -44.104      -16.463      101.871       71.214       43.722    10377.712     5071.491     1911.655        2.893        0.868      200.564       43.076        0.046      334.957        5.270      860.076
01/03/2022  08:10:00     -228.283      -29.830      -22.525      106.690       69.556       40.791    11382.750     4838.082     1663.903        3.569        0.894      230.223       39.169        0.029      335.053        5.430      860.051
01/03/2022  08:11:00     -131.427     -141.821      -11.415       90.243       55.799       40.898     8143.815     3113.577     1672.654        2.522        0.647      193.356       38.136        0.039      335.002        5.346      860.073
01/03/2022  08:12:00       34.010      -34.013      -27.336       53.826       74.200       37.995     2897.223     5505.608     1443.640        0.645        0.492       48.099       13.186        0.075      333.146        2.271      860.137
01/03/2022  08:13:00     -109.634      -66.694      -16.714      101.003       64.033       37.421    10201.520     4100.174     1400.365        1.622        0.785      128.326       26.113        0.041      334.210        4.033      860.100
01/03/2022  08:14:00     -127.832      -21.697      -13.097       53.338       63.774       36.734     2844.981     4067.135     1349.380        1.262        0.413      129.660       25.563        0.039      334.399        4.345      860.058
01/03/2022  08:15:00     -102.640      -21.846       -7.034       72.737       56.560       33.861     5290.619     3198.994     1146.542        1.035        0.482      104.939       34.349        0.107      334.276        4.141      860.089
01/03/2022  08:16:00     -145.479      -27.406       -6.012       84.722       61.515       39.637     7177.895     3784.086     1571.077        1.724        0.627      148.038       33.796        0.052      334.436        4.406      860.124
01/03/2022  08:17:00     -183.122      -78.538      -31.437       75.660       64.261       42.176     5724.391     4129.449     1778.816        2.616        0.582      199.254       34.881        0.031      334.362        4.282      860.124
01/03/2022  08:18:00     -206.141     -137.030      -33.366       79.342      120.764       48.735     6295.089    14584.045     2375.086        4.282        1.163      247.530       37.439        0.023      334.681        4.811      860.117
01/03/2022  08:19:00     -163.146      -69.909       -7.596       55.271       75.880       41.320     3054.897     5757.842     1707.365        2.104        0.526      177.493       33.743        0.036      334.447        4.424      860.094
01/03/2022  08:20:00     -199.746        0.844       -9.047       76.823       72.454       46.386     5901.803     5249.633     2151.650        2.664        0.665      199.747       42.243        0.045      334.545        4.586      860.051
01/03/2022  08:21:00      -77.512      -20.068        4.870       56.143       56.848       28.552     3152.091     3231.698      815.209        0.682        0.360       80.067       16.960        0.045      334.379        4.313      860.055
01/03/2022  08:22:00       -8.324      -21.650        0.986       39.134       31.589       25.655     1531.450      997.874      658.154        0.186        0.159       23.195       15.373        0.439      334.238        4.079      860.121
01/03/2022  08:23:00       55.136      -47.988      -25.936       71.671       40.104       27.559     5136.760     1608.313      759.504        0.676        0.375       73.095       15.645        0.046      332.825        1.741      860.164
01/03/2022  08:24:00        9.076      -35.610       -7.644       54.109       47.259       38.997     2927.778     2233.379     1520.786        0.404        0.334       36.749       35.546        0.936      333.133        2.249      860.205
01/03/2022  08:25:00       29.542      -35.253      -18.937       28.981       32.416       22.615      839.870     1050.781      511.419        0.244        0.120       45.995       21.850        0.226      332.909        1.879      860.236
01/03/2022  08:26:00      -97.579      -98.704      -17.370       79.979       36.056       27.349     6396.605     1300.061      747.985        1.400        0.422      138.795       24.048        0.030      334.037        3.746      860.285
01/03/2022  08:27:00     -136.143      -46.482      -29.181       51.354       80.847       29.843     2637.230     6536.259      890.623        1.580        0.503      143.860       32.140        0.050      334.381        4.314      860.278
01/03/2022  08:28:00     -178.108      -59.549      -21.742       91.710       68.391       43.208     8410.759     4677.375     1866.922        2.535        0.748      187.799       45.028        0.057      334.640        4.743      860.241
01/03/2022  08:29:00     -286.206      -33.061      -22.481      103.946      102.524       59.069    10804.864    10511.266     3489.146        5.415        1.240      288.109       36.517        0.016      334.531        4.561      860.333
01/03/2022  08:30:00     -220.372      -27.820      -14.668      123.735       87.635       63.415    15310.297     7679.876     4021.416        3.828        1.351      222.122       63.886        0.083      334.537        4.572      860.431
01/03/2022  08:31:00     -242.775      -21.286       -2.275      116.151       78.698       60.916    13490.989     6193.406     3710.736        4.139        1.170      243.706       49.803        0.042      334.777        4.969      860.447
01/03/2022  08:32:00     -198.259        0.057      -15.856      123.587       86.029       46.953    15273.745     7400.917     2204.546        3.221        1.244      198.259       42.941        0.047      334.847        5.087      860.378
01/03/2022  08:33:00     -253.021       27.846      -12.108      134.731      116.809       54.672    18152.421    13644.277     2989.021        4.986        1.739      254.549       47.317        0.035      334.956        5.269      860.341
01/03/2022  08:34:00     -192.652       -7.147       -9.209      186.950       95.282       89.641    34950.389     9078.749     8035.559        4.465        2.603      192.784       92.247        0.229      334.825        5.050      860.353
01/03/2022  08:35:00     -203.021      -16.748       -7.443      150.634      123.716       89.707    22690.723    15305.567     8047.375        4.379        2.302      203.711       86.939        0.182      334.890        5.159      860.437
01/03/2022  08:36:00     -176.711       15.781      -29.848      151.698      105.105       68.062    23012.189    11047.099     4632.436        3.552        1.935      177.414       46.988        0.070      334.905        5.184      860.458
01/03/2022  08:37:00     -162.304        2.602      -10.440      148.722       91.989       73.393    22118.141     8462.025     5386.578        3.121        1.798      162.325       72.372        0.199      334.944        5.249      860.419
01/03/2022  08:38:00     -198.749      -32.743      -25.528      174.584       87.114       85.423    30479.645     7588.854     7297.156        4.329        2.268      201.428       84.239        0.175      334.975        5.301      860.397
01/03/2022  08:39:00     -212.351        6.709        1.022      186.512      103.609       74.382    34786.643    10734.873     5532.640        4.809        2.553      212.457       74.947        0.124      335.010        5.358      860.433
01/03/2022  08:40:00     -278.219       -5.980       -8.749      155.805      111.311       87.168    24275.325    12390.034     7598.235        6.088        2.213      278.283       81.685        0.086      335.036        5.401      860.420
01/03/2022  08:41:00     -196.379     -127.324      -20.033      101.897      134.190       44.748    10383.073    18006.928     2002.426        4.278        1.520      234.043       18.023        0.006      335.067        5.453      860.430
01/03/2022  08:42:00     -231.365      -29.286      -19.987      144.133      103.789       60.842    20774.213    10772.204     3701.761        4.501        1.762      233.211       53.024        0.052      335.047        5.421      860.459
01/03/2022  08:43:00     -321.238      -40.214      -31.130      182.700      143.066       58.636    33379.141    20467.921     3438.176        8.152        2.864      323.745       55.976        0.030      335.180        5.640      860.526
01/03/2022  08:44:00     -410.035      -46.740      -34.580      175.701      115.480       82.794    30870.744    13335.643     6854.874       11.128        2.553      412.690       69.711        0.029      335.110        5.526      860.496
01/03/2022  08:45:00     -326.532      -23.179      -14.265      169.101      105.597       79.415    28595.068    11150.641     6306.788        7.670        2.303      327.353       81.709        0.062      335.123        5.546      860.391
01/03/2022  08:46:00     -320.112      -21.836      -12.989      156.164      117.640       72.469    24387.176    13839.218     5251.756        7.329        2.174      320.856       76.894        0.057      335.244        5.746      860.382
01/03/2022  08:47:00     -253.050      -71.409      -29.215       88.870      110.115       55.289     7897.789    12125.325     3056.903        4.653        1.154      262.933       48.398        0.034      335.293        5.827      860.374
01/03/2022  08:48:00     -217.074      -89.109      -24.540       93.801      107.386       44.338     8798.555    11531.661     1965.896        3.898        1.115      234.652       47.146        0.040      335.306        5.848      860.347
01/03/2022  08:49:00     -152.169        5.923      -30.563       89.454       88.458       38.141     8002.105     7824.813     1454.769        2.070        0.864      152.284       19.543        0.016      335.248        5.754      860.183
01/03/2022  08:50:00     -216.599       42.477      -24.633      109.394       94.140       52.001    11966.987     8862.427     2704.085        3.643        1.177      220.724       43.715        0.039      335.231        5.725      860.076
01/03/2022  08:51:00     -209.220       25.344        0.053      163.483       84.421       66.424    26726.653     7126.866     4412.088        4.133        1.913      210.749       56.338        0.071      335.113        5.530      860.122
01/03/2022  08:52:00     -237.982       16.446      -10.276      173.550      120.834       73.884    30119.663    14600.954     5458.820        5.359        2.509      238.550       59.876        0.063      335.331        5.891      860.123
01/03/2022  08:53:00     -163.096       38.518       -0.648      129.628       91.535       71.322    16803.509     8378.681     5086.792        2.917        1.513      167.583       71.974        0.184      335.270        5.789      860.139
01/03/2022  08:54:00     -305.173       62.409      -16.782      115.828       92.421       56.644    13416.123     8541.644     3208.563        6.123        1.258      311.489       49.242        0.025      335.180        5.641      860.183
01/03/2022  08:55:00     -111.274       23.626        9.387      163.481       90.821       71.386    26726.018     8248.473     5095.908        2.654        2.004      113.754       67.503        0.352      335.131        5.559      860.240
01/03/2022  08:56:00     -113.704        1.735      -20.717      107.253       96.294       64.417    11503.242     9272.478     4149.596        1.914        1.246      113.717       54.262        0.228      335.094        5.500      860.188
01/03/2022  08:57:00     -281.868      -73.734      -23.779      133.804      100.124       65.631    17903.586    10024.730     4307.384        5.884        1.612      291.353       64.939        0.050      335.223        5.713      860.174
01/03/2022  08:58:00     -207.433      -51.501      -12.480       93.926       86.821       56.010     8822.165     7537.887     3137.136        3.266        0.975      213.731       59.029        0.076      335.234        5.729      860.195
01/03/2022  08:59:00     -226.566       12.713      -12.719       86.846       69.804       48.967     7542.242     4872.531     2397.785        3.323        0.741      226.922       45.061        0.039      335.143        5.579      860.216
01/03/2022  09:00:00     -210.339        1.775       -1.174      126.820       90.754       61.363    16083.238     8236.295     3765.473        3.616        1.404      210.346       59.240        0.079      335.054        5.431      860.269
01/03/2022  09:01:00     -282.649       -3.889      -15.475      125.705       75.523       64.933    15801.858     5703.694     4216.309        5.293        1.286      282.676       55.381        0.038      335.016        5.368      860.316
01/03/2022  09:02:00     -378.611      -15.729      -32.311      166.870       83.388       84.604    27845.578     6953.613     7157.892        9.329        2.098      378.938       88.961        0.055      335.020        5.376      860.295
01/03/2022  09:03:00     -333.913        6.394      -11.817      184.616      150.420       99.649    34083.004    22626.062     9929.920        8.915        3.332      333.974       90.101        0.073      334.959        5.273      860.231
01/03/2022  09:04:00     -283.344      -46.646      -14.860      215.693      137.149      105.952    46523.376    18809.976    11225.802        7.961        3.828      287.158       90.398        0.099      334.915        5.200      860.214
01/03/2022  09:05:00     -307.535      -41.931       -1.215      229.332      136.050      115.284    52593.334    18509.559    13290.363        9.035        4.220      310.381      131.756        0.180      334.888        5.155      860.225
01/03/2022  09:06:00     -311.301        1.155      -21.927      204.932      114.595       97.975    41997.271    13132.082     9599.113        8.105        3.236      311.303      103.554        0.111      334.873        5.131      860.196
01/03/2022  09:07:00     -251.998       -8.344       -8.683      146.386       92.104       76.175    21428.910     8483.129     5802.703        4.967        1.786      252.136       65.055        0.067      334.903        5.180      860.206
01/03/2022  09:08:00     -188.696      -15.082      -14.302      145.022       86.501       70.568    21031.510     7482.453     4979.809        3.476        1.675      189.298       64.895        0.118      335.331        5.892      860.189
01/03/2022  09:09:00     -273.900      -16.862      -18.493      112.496       91.467       62.207    12655.292     8366.200     3869.708        5.026        1.245      274.419       59.049        0.046      335.249        5.754      860.124
01/03/2022  09:10:00     -248.264       -0.170      -21.624      165.123       89.699       81.753    27265.488     8045.918     6683.562        5.204        2.100      248.264       60.133        0.059      335.132        5.560      860.142
01/03/2022  09:11:00     -280.502       49.515      -24.028      177.563      131.445       66.121    31528.442    17277.698     4371.956        6.743        2.659      284.839       61.464        0.047      335.080        5.477      860.179
01/03/2022  09:12:00     -151.954        2.050      -10.735       97.701       72.587       54.499     9545.490     5268.935     2970.142        2.049        0.889      151.968       55.673        0.134      335.065        5.450      860.099
01/03/2022  09:13:00     -193.081      -31.552      -22.455       91.129       63.862       46.419     8304.571     4078.325     2154.677        2.666        0.727      195.642       47.371        0.059      335.197        5.668      860.152
01/03/2022  09:14:00     -238.626      -47.618      -43.242       67.870       74.045       49.498     4606.367     5482.597     2450.097        3.681        0.627      243.331       34.388        0.020      335.165        5.615      860.217
01/03/2022  09:15:00     -184.666        7.399       -9.190       73.414       60.343       35.604     5389.660     3641.272     1267.674        2.227        0.515      184.814       23.501        0.016      335.244        5.746      860.116
01/03/2022  09:16:00     -229.223       66.183        4.139      133.477       79.382       58.608    17816.081     6301.522     3434.866        4.224        1.378      238.586       59.096        0.061      335.177        5.635      860.058
01/03/2022  09:17:00     -295.933      -13.917       -3.805      149.137      105.243       80.208    22241.983    11076.155     6433.291        6.376        1.988      296.260       63.815        0.046      335.359        5.939      860.096
01/03/2022  09:18:00     -267.658        5.272      -19.849      128.357      111.303       79.336    16475.526    12388.286     6294.246        5.360        1.758      267.710       79.320        0.088      335.414        6.028      860.170
01/03/2022  09:19:00     -216.983       16.430      -19.622       81.054       97.901       50.050     6569.767     9584.654     2505.004        3.319        0.933      217.604       39.062        0.032      335.385        5.982      860.185
01/03/2022  09:20:00     -259.420        0.034      -24.714      175.307       96.205       62.898    30732.463     9255.465     3956.188        5.592        2.197      259.420       66.497        0.066      335.457        6.102      860.209
01/03/2022  09:21:00     -303.975       -9.348      -15.365      136.734       91.697       63.129    18696.226     8408.382     3985.310        6.190        1.554      304.119       68.638        0.051      335.369        5.952      860.185
01/03/2022  09:22:00     -326.564       30.733       -8.865      115.771       92.551       59.986    13403.007     8565.638     3598.288        6.661        1.278      328.007       56.564        0.030      335.302        5.841      860.162
01/03/2022  09:23:00      -83.947       28.920        9.591      138.924       86.252       56.047    19299.963     7439.417     3141.275        1.892        1.494       88.789       58.849        0.439      335.233        5.728      860.148
01/03/2022  09:24:00     -236.816       27.142      -10.848      139.037       92.854       59.089    19331.334     8621.843     3491.486        4.418        1.572      238.366       64.771        0.074      335.224        5.714      860.108
01/03/2022  09:25:00     -200.142      -11.854      -11.027      137.456       93.329       59.452    18894.068     8710.341     3534.568        3.572        1.557      200.493       57.447        0.082      335.274        5.797      860.078
01/03/2022  09:26:00     -120.136      -84.044      -12.926       54.594       55.907       31.996     2980.486     3125.542     1023.743        1.440        0.356      146.615       25.961        0.031      335.295        5.832      860.084
01/03/2022  09:27:00      -60.818      -53.149      -20.738       60.181       44.112       37.229     3621.798     1945.831     1385.972        0.695        0.348       80.769       29.240        0.131      335.361        5.943      860.077
01/03/2022  09:28:00     -124.952      -45.322      -19.876       59.233       57.237       32.963     3508.541     3276.043     1086.567        1.297        0.394      132.918       23.016        0.030      335.505        6.183      860.044
01/03/2022  09:29:00     -109.755      -28.610       -1.327       70.313       57.892       48.203     4943.972     3351.487     2323.509        1.174        0.531      113.422       33.301        0.086      335.408        6.023      860.022
01/03/2022  09:30:00     -133.143       -3.918      -17.927       47.756       54.201       34.483     2280.665     2937.782     1189.047        1.223        0.320      133.201       17.197        0.017      335.408        6.023      859.979
01/03/2022  09:31:00     -159.359      -98.205      -27.287       61.889       48.234       35.337     3830.273     2326.548     1248.690        2.159        0.370      187.188       27.726        0.022      335.510        6.190      859.939
01/03/2022  09:32:00     -146.781      -12.123       -8.620       74.338       56.941       46.212     5526.207     3242.265     2135.518        1.633        0.545      147.281       47.107        0.102      335.489        6.157      859.908
01/03/2022  09:33:00     -157.475      -41.707      -20.339       55.717       50.494       27.831     3104.400     2549.597      774.560        1.669        0.321      162.905       21.950        0.018      335.491        6.158      859.905
01/03/2022  09:34:00      -75.350      -13.276        2.553      104.266       62.588       47.964    10871.475     3917.282     2300.523        1.147        0.854       76.510       49.870        0.425      335.428        6.055      859.971
01/03/2022  09:35:00      -86.390       15.769        5.504       69.711       49.410       34.003     4859.640     2441.305     1156.188        0.810        0.423       87.817       35.610        0.164      335.509        6.189      860.063
01/03/2022  09:36:00      -36.607       17.248       -6.286       58.463       44.197       35.900     3417.913     1953.331     1288.778        0.417        0.333       40.467       24.569        0.369      335.721        6.543      860.069
01/03/2022  09:37:00       44.402       -7.994      -18.547       29.458       48.048       25.101      867.769     2308.636      630.040        0.309        0.190       45.116       19.826        0.193      335.891        6.827      860.010
01/03/2022  09:38:00      -58.304       -9.857       -7.797       50.152       33.753       22.987     2515.198     1139.247      528.386        0.387        0.209       59.131       17.294        0.086      335.895        6.833      860.029
01/03/2022  09:39:00     -112.109      -43.881      -24.766       53.602       57.260       40.975     2873.145     3278.754     1678.931        1.147        0.392      120.391       28.740        0.057      335.912        6.862      860.119
01/03/2022  09:40:00     -136.056      -29.622       -9.331       50.571       32.351       24.008     2557.392     1046.574      576.361        1.183        0.209      139.243       23.031        0.027      335.826        6.719      860.183
01/03/2022  09:41:00     -117.526      -53.631       -8.260       59.140       68.366       31.912     3497.536     4673.932     1018.350        1.297        0.459      129.184       30.181        0.055      336.029        7.056      860.186
01/03/2022  09:42:00     -156.862      -61.267      -20.634       47.531       55.727       33.600     2259.230     3105.475     1128.959        1.764        0.325      168.402       25.186        0.022      336.044        7.081      860.158
01/03/2022  09:43:00     -148.901      -82.385      -17.522       39.628       61.299       29.120     1570.414     3757.602      848.000        1.772        0.309      170.173        9.318        0.003      336.165        7.283      860.174
01/03/2022  09:44:00      -63.010      -56.122      -23.654       33.224       33.960       27.724     1103.854     1153.266      768.621        0.535        0.151       84.380       19.282        0.052      336.275        7.468      860.202
01/03/2022  09:45:00      -81.066      -74.632      -29.256       55.713       55.488       27.405     3103.985     3078.884      751.025        0.996        0.347      110.189       21.365        0.038      336.282        7.479      860.216
01/03/2022  09:46:00       -0.113       14.490       -6.056       13.092       13.831       12.778      171.389      191.298      163.267        0.039        0.026       14.490        6.115        0.178      336.390        7.659      860.272
01/03/2022  09:47:00       79.231      -27.596      -28.369       61.002       61.259       26.846     3721.299     3752.714      720.694        0.802        0.410       83.900       17.064        0.041      336.264        7.448      860.246
01/03/2022  09:48:00       45.361      -67.915      -23.384       37.370       53.781       34.673     1396.481     2892.422     1202.198        0.635        0.275       81.670       29.976        0.135      336.445        7.752      860.200
01/03/2022  09:49:00       33.140     -130.953      -23.834       65.780       43.728       34.031     4327.023     1912.117     1158.108        1.310        0.370      135.081       35.127        0.068      336.438        7.741      860.237
01/03/2022  09:50:00      -53.031      -86.953      -28.080      138.400      100.584       61.717    19154.679    10117.162     3808.943        2.212        1.654      101.849       56.777        0.311      336.334        7.564      860.287
01/03/2022  09:51:00     -277.309      -47.286      -28.595      146.817      112.053       82.352    21555.332    12555.826     6781.775        6.042        2.045      281.311       55.228        0.039      336.326        7.549      860.300
01/03/2022  09:52:00     -176.912     -235.354      -70.910      161.388      136.989       81.507    26045.975    18766.028     6643.465        7.158        2.573      294.430       61.171        0.043      336.452        7.759      860.329
01/03/2022  09:53:00     -102.893     -215.904      -37.661      133.753      115.143       70.784    17889.997    13257.909     5010.441        4.738        1.808      239.168       57.363        0.058      336.539        7.907      860.363
01/03/2022  09:54:00       67.234     -270.078      -65.976       87.583      150.400       45.382     7670.814    22620.299     2059.568        5.708        1.618      278.321       24.421        0.008      336.475        7.799      860.399
01/03/2022  09:55:00      -99.879        2.835      -26.362       46.093       57.902       27.073     2124.592     3352.651      732.955        0.844        0.311       99.920       25.503        0.065      336.431        7.728      860.417
01/03/2022  09:56:00     -101.744      -63.012       -7.515       53.455       48.836       25.094     2857.424     2384.958      629.693        1.012        0.294      119.676       19.565        0.027      336.450        7.759      860.396
01/03/2022  09:57:00     -214.700      -79.124      -27.815       72.585       99.151       34.697     5268.609     9830.830     1203.864        3.471        0.815      228.816       30.623        0.018      336.418        7.700      860.411
01/03/2022  09:58:00     -182.960     -143.089      -31.483       71.449       80.063       32.646     5104.961     6410.155     1065.737        3.376        0.629      232.269       27.148        0.014      336.451        7.758      860.415
01/03/2022  09:59:00     -178.689     -117.904      -33.010       81.971       75.472       41.869     6719.321     5696.022     1752.998        3.054        0.708      214.082       19.580        0.008      336.543        7.913      860.448
01/03/2022  10:00:00      -33.874      -60.744      -23.961       56.152       58.612       39.889     3153.043     3435.322     1591.155        0.679        0.409       69.551       29.127        0.175      336.722        8.215      860.513
01/03/2022  10:01:00       24.682       15.474      -25.097       57.490       54.784       35.268     3305.086     3001.279     1243.816        0.451        0.378       29.131       35.018        1.445      336.851        8.428      860.480
01/03/2022  10:02:00      -74.103       -3.859        3.127       65.873       57.674       37.242     4339.268     3326.327     1386.999        0.728        0.453       74.203       25.614        0.119      336.826        8.388      860.506
01/03/2022  10:03:00     -135.947      -85.573      -17.646      112.436       94.261       72.550    12641.817     8885.043     5263.495        2.645        1.340      160.637       59.362        0.137      336.595        8.001      860.601
01/03/2022  10:04:00     -201.522     -136.280      -26.692       91.083      112.678       38.569     8296.146    12696.246     1487.565        4.118        1.124      243.277       47.983        0.039      336.573        7.963      860.634
01/03/2022  10:05:00     -164.723      -47.692      -32.260       81.519       71.631       49.828     6645.293     5130.960     2482.795        2.235        0.713      171.488       43.647        0.065      336.626        8.054      860.578
01/03/2022  10:06:00      -42.887      -21.194      -20.011       45.590       30.796       26.237     2078.480      948.391      688.366        0.320        0.186       47.839        6.891        0.021      336.759        8.275      860.505
01/03/2022  10:07:00      -51.166      -14.332       -4.440       52.129       32.399       26.518     2717.483     1049.674      703.188        0.366        0.224       53.135       26.417        0.247      336.765        8.286      860.499
01/03/2022  10:08:00     -137.629      -32.285      -26.580       79.538       67.145       46.228     6326.300     4508.455     2137.057        1.683        0.649      141.365       20.185        0.020      336.618        8.041      860.471
01/03/2022  10:09:00      -92.751       -7.663       -1.199       53.607       38.897       36.535     2873.702     1512.959     1334.796        0.719        0.286       93.067       28.612        0.095      336.711        8.197      860.418
01/03/2022  10:10:00     -152.524      -65.917      -20.891       68.614       82.229       38.244     4707.872     6761.594     1462.582        2.049        0.647      166.159       30.425        0.034      336.693        8.165      860.408
01/03/2022  10:11:00     -209.216      -88.485      -26.756      142.251      125.754       57.782    20235.414    15814.007     3338.721        4.585        1.969      227.158       47.171        0.043      336.664        8.117      860.393
01/03/2022  10:12:00       24.684     -176.178      -35.634       99.560       95.732       54.312     9912.249     9164.651     2949.793        2.747        1.101      177.899       37.732        0.045      336.958        8.607      860.301
01/03/2022  10:13:00      -18.041      -27.800      -29.784       73.889       66.003       38.281     5459.575     4356.354     1465.460        0.663        0.564       33.141       28.013        0.714      337.005        8.687      860.154
01/03/2022  10:14:00       47.410     -111.222      -22.587       65.749       79.643       41.485     4322.873     6342.974     1720.973        1.376        0.619      120.905       43.769        0.131      337.006        8.688      860.079
01/03/2022  10:15:00      -27.520      -56.461      -25.658       58.751       60.185       30.782     3451.704     3622.204      947.519        0.631        0.401       62.811       25.225        0.161      337.040        8.746      860.115
01/03/2022  10:16:00     -164.710      -45.640      -20.949       68.862       61.332       42.112     4741.987     3761.661     1773.382        1.996        0.514      170.916       34.230        0.040      336.746        8.255      860.187
01/03/2022  10:17:00      -77.259       -7.371       14.937       82.308       50.172       31.885     6774.565     2517.271     1016.654        0.828        0.515       77.610       34.107        0.193      336.837        8.407      860.158
01/03/2022  10:18:00     -109.940      -10.987        4.763       80.433       54.228       43.067     6469.473     2940.673     1854.740        1.175        0.563      110.488       40.533        0.135      336.809        8.360      860.168
01/03/2022  10:19:00     -195.505      -16.996      -11.357      116.849       61.255       48.763    13653.694     3752.161     2377.831        2.921        0.989      196.242       45.769        0.054      336.719        8.209      860.205
01/03/2022  10:20:00     -276.157      -10.989      -33.230       78.178       59.016       47.980     6111.818     3482.928     2302.061        4.469        0.595      276.375       33.403        0.015      336.659        8.108      860.249
01/03/2022  10:21:00     -144.060      -29.724      -26.717       50.283       36.723       27.147     2528.426     1348.576      736.980        1.348        0.231      147.095       16.525        0.013      336.638        8.076      860.248
01/03/2022  10:22:00     -115.802      -24.675      -12.271       62.482       48.125       43.816     3904.056     2315.973     1919.885        1.115        0.407      118.402       34.057        0.083      336.713        8.202      860.258
01/03/2022  10:23:00     -101.466      -13.303      -23.203      105.958       33.813       29.728    11227.039     1143.314      883.761        1.213        0.663      102.335       27.341        0.071      336.681        8.146      860.304
01/03/2022  10:24:00     -194.955       41.876       -2.643       60.734       38.810       30.985     3688.558     1506.195      960.089        2.296        0.308      199.402       30.388        0.023      336.615        8.035      860.349
01/03/2022  10:25:00      -69.126       -0.057        0.468       42.041       58.414       32.067     1767.475     3412.158     1028.296        0.549        0.310       69.126       24.890        0.130      336.768        8.291      860.383
01/03/2022  10:26:00     -110.770      -54.024      -28.687       43.021       26.541       24.587     1850.828      704.442      604.507        0.959        0.158      123.242       11.435        0.009      336.785        8.320      860.379
01/03/2022  10:27:00      -58.337        9.141        4.913       30.253       31.826       19.232      915.256     1012.881      369.876        0.290        0.115       59.048       16.810        0.081      336.806        8.355      860.344
01/03/2022  10:28:00      -88.108      -14.185      -16.745       47.212       26.503       24.888     2228.928      702.409      619.400        0.590        0.178       89.243       25.357        0.081      336.807        8.358      860.327
01/03/2022  10:29:00     -195.933       10.876      -25.810      130.169       81.284       62.213    16943.974     6607.077     3870.459        3.329        1.371      196.234       42.413        0.047      336.776        8.303      860.350
01/03/2022  10:30:00      -27.796       47.409      -28.385       65.572       66.034       30.994     4299.670     4360.470      960.598        0.672        0.481       54.956       17.234        0.098      336.771        8.296      860.255
01/03/2022  10:31:00       16.140        1.249       -7.466       30.209       23.986       21.932      912.596      575.348      480.992        0.114        0.098       16.188       13.633        0.709      336.897        8.508      860.198
01/03/2022  10:32:00      -46.927       -9.503       -5.596       51.912       35.403       33.330     2694.878     1253.370     1110.899        0.369        0.253       47.879       20.303        0.180      336.964        8.619      860.211
01/03/2022  10:33:00     -161.231      -39.324      -18.791      109.221       84.528       64.075    11929.309     7145.055     4105.578        2.553        1.159      165.957       47.080        0.080      336.666        8.120      860.240
01/03/2022  10:34:00     -192.134     -125.898      -27.786       82.270       87.841       39.302     6768.339     7716.045     1544.615        3.478        0.801      229.708       22.792        0.010      336.765        8.284      860.243
01/03/2022  10:35:00     -157.499     -136.849      -24.922       67.983      102.345       43.301     4621.726    10474.578     1875.007        3.056        0.849      208.647       25.285        0.015      336.691        8.162      860.182
01/03/2022  10:36:00     -126.610      -59.264      -24.856       95.649       67.087       49.913     9148.691     4500.642     2491.319        1.815        0.807      139.794       40.265        0.083      336.749        8.259      860.057
01/03/2022  10:37:00     -290.082      -26.373      -14.857      125.015       81.758       62.820    15628.831     6684.306     3946.302        5.566        1.313      291.279       66.296        0.052      336.590        7.992      859.918
01/03/2022  10:38:00       36.155     -124.347      -37.344      135.744      138.325       48.405    18426.387    19133.929     2343.040        2.903        1.995      129.496       46.285        0.128      336.806        8.353      859.837
01/03/2022  10:39:00       40.895     -173.116      -32.369       60.254       80.077       40.143     3630.570     6412.391     1611.454        2.217        0.583      177.881       37.883        0.045      336.835        8.401      859.817
01/03/2022  10:40:00     -114.447      -29.392      -10.540      101.855       74.747       35.919    10374.374     5587.164     1290.165        1.566        0.863      118.161       33.150        0.079      336.798        8.341      859.907
01/03/2022  10:41:00     -227.754     -191.804      -36.195       69.420       86.789       39.821     4819.088     7532.364     1585.675        5.195        0.697      297.759       31.454        0.011      336.571        7.959      859.951
01/03/2022  10:42:00      -90.096       26.501       -1.601      109.562       53.367       57.043    12003.728     2848.009     3253.848        1.346        0.905       93.912       54.897        0.342      336.596        8.006      859.968
01/03/2022  10:43:00     -190.122       56.210      -13.911      141.433       73.713       55.133    20003.338     5433.639     3039.599        3.398        1.424      198.257       47.113        0.056      336.656        8.103      859.984
01/03/2022  10:44:00     -155.337     -145.673       -3.885       93.712      113.585       36.821     8781.852    12901.553     1355.766        3.420        1.152      212.956       44.400        0.043      336.692        8.162      860.002
01/03/2022  10:45:00     -168.702      -93.776      -33.479       81.901      120.612       41.854     6707.748    14547.194     1751.757        3.069        1.150      193.014       34.300        0.032      336.712        8.196      859.955
01/03/2022  10:46:00     -263.028      153.540      -27.526      148.326      150.335       82.595    22000.670    22600.649     6821.977        7.246        2.571      304.562       75.872        0.062      336.795        8.334      859.936
01/03/2022  10:47:00     -337.344      127.774      -21.291      171.872      120.032       84.976    29540.109    14407.572     7220.929        9.087        2.558      360.732       74.227        0.042      336.882        8.478      859.922
01/03/2022  10:48:00      -24.375       83.976      -32.602       50.548       48.362       34.137     2555.151     2338.905     1165.303        0.738        0.303       87.442       11.934        0.019      336.818        8.373      859.902
01/03/2022  10:49:00      -29.912       67.954       -9.003       59.860       35.838       24.517     3583.196     1284.355      601.093        0.553        0.273       74.246       14.043        0.036      336.852        8.432      859.868
01/03/2022  10:50:00      -83.293       17.502        9.618      102.227       68.022       47.894    10450.437     4626.946     2293.829        1.235        0.869       85.112       47.638        0.313      336.933        8.566      859.853
01/03/2022  10:51:00      -56.319      -16.846       -6.334       69.790       39.145       36.204     4870.674     1532.365     1310.700        0.560        0.386       58.784       32.921        0.314      336.839        8.409      859.825
01/03/2022  10:52:00      -57.023        1.973      -16.055       79.052       44.335       34.393     6249.161     1965.587     1182.891        0.645        0.470       57.057       19.970        0.122      336.893        8.500      859.840
01/03/2022  10:53:00      -58.865       30.951        6.276       83.516       62.112       47.604     6974.944     3857.939     2266.104        0.878        0.655       66.506       36.140        0.295      337.030        8.730      859.868
01/03/2022  10:54:00     -102.456       42.790       -1.371       79.244      115.441       56.611     6279.588    13326.525     3204.771        1.757        1.141      111.033       34.556        0.097      336.977        8.641      859.843
01/03/2022  10:55:00     -213.575       77.759       -2.489      159.197       81.533       62.204    25343.645     6647.671     3869.355        4.376        1.793      227.290       64.063        0.079      336.800        8.342      859.796
01/03/2022  10:56:00     -217.337       74.593       12.506      204.767      105.832       84.787    41929.698    11200.380     7188.875        5.663        3.016      229.782       93.648        0.166      336.616        8.037      859.730
01/03/2022  10:57:00     -257.537       83.453      -34.628      119.388      108.549       79.589    14253.436    11782.846     6334.337        5.342        1.619      270.721       58.278        0.046      336.514        7.864      859.671
01/03/2022  10:58:00     -171.429       64.983      -27.979      109.875       86.500       63.140    12072.430     7482.279     3986.647        2.896        1.177      183.332       53.853        0.086      336.629        8.058      859.632
01/03/2022  10:59:00      -87.856       83.702      -38.496       80.867       63.667       54.597     6539.501     4053.532     2980.831        1.489        0.679      121.346       27.575        0.052      336.714        8.201      859.602
01/03/2022  11:00:00      -20.297       75.866        0.457       60.356       72.288       36.437     3642.861     5225.585     1327.622        0.818        0.510       78.534       14.049        0.032      336.936        8.572      859.567
01/03/2022  11:01:00        9.666      -19.956      -16.551       41.597       42.242       24.692     1730.351     1784.352      609.687        0.244        0.206       22.173       16.947        0.584      336.916        8.539      859.587
01/03/2022  11:02:00       21.630      -28.341      -18.744       39.747       28.771       24.097     1579.794      827.791      580.677        0.230        0.149       35.652       11.333        0.101      336.921        8.547      859.608
01/03/2022  11:03:00      -78.728      -53.565      -19.511       66.616       39.339       28.083     4437.724     1547.594      788.679        0.811        0.339       95.223       27.245        0.082      336.782        8.315      859.612
01/03/2022  11:04:00     -103.835      -72.045      -11.195       75.811       48.726       44.898     5747.306     2374.242     2015.803        1.312        0.507      126.381       19.663        0.024      336.863        8.449      859.609
01/03/2022  11:05:00       36.740     -272.479      -44.363      106.895      145.450       54.847    11426.472    21155.837     3008.143        5.657        1.780      274.944       46.445        0.029      336.937        8.570      859.543
01/03/2022  11:06:00       34.513     -125.300      -43.229       92.629      126.084       46.433     8580.164    15897.228     2155.985        2.269        1.332      129.966       38.965        0.090      336.957        8.605      859.515
01/03/2022  11:07:00      -52.258      -10.980      -14.081       61.269       49.827       42.409     3753.931     2482.722     1798.510        0.554        0.402       53.399       23.237        0.189      336.989        8.661      859.444
01/03/2022  11:08:00     -230.327      -70.877      -23.616      115.100      102.115       56.402    13248.048    10427.512     3181.230        4.274        1.343      240.986       46.527        0.037      336.871        8.459      859.364
01/03/2022  11:09:00     -116.465      -67.316      -37.721       78.506       66.721       44.784     6163.137     4451.713     2005.571        1.607        0.631      134.519       21.481        0.026      336.834        8.400      859.311
01/03/2022  11:10:00       -6.260       11.856       -5.413       24.580       32.521       22.003      604.173     1057.625      484.119        0.118        0.107       13.407       16.197        1.460      337.010        8.695      859.249
01/03/2022  11:11:00       57.047       -7.722      -29.457       88.479       49.968       33.140     7828.586     2496.831     1098.257        0.780        0.571       57.568       28.445        0.244      336.951        8.598      859.269
01/03/2022  11:12:00      -87.567       -4.066      -23.417       83.594       58.809       38.333     6988.036     3458.466     1469.405        1.007        0.596       87.661       33.545        0.146      336.917        8.540      859.265
01/03/2022  11:13:00      -83.399      -15.013       -4.004       43.700       50.580       35.798     1909.729     2558.337     1281.481        0.647        0.287       84.739       24.844        0.086      336.986        8.656      859.290
01/03/2022  11:14:00      -59.124      -17.474      -10.045       56.643       33.460       30.649     3208.451     1119.546      939.389        0.458        0.263       61.652       18.212        0.087      336.969        8.628      859.330
01/03/2022  11:15:00     -215.729      -24.539       -7.663       73.057       62.623       54.804     5337.322     3921.700     3003.473        2.973        0.613      217.120       41.749        0.037      336.959        8.607      859.347
01/03/2022  11:16:00     -195.362      -31.193      -14.470       78.713       66.952       55.416     6195.782     4482.509     3070.960        2.655        0.687      197.837       46.479        0.055      336.924        8.549      859.371
01/03/2022  11:17:00      -81.511       64.606       -1.107       42.614       38.641       30.570     1815.923     1493.123      934.535        0.753        0.212      104.010       25.009        0.058      336.996        8.672      859.360
01/03/2022  11:18:00      -49.334       49.498      -20.376       21.422       32.317       20.438      458.906     1044.410      417.704        0.361        0.096       69.885        6.040        0.007      337.124        8.886      859.305
01/03/2022  11:19:00      -85.990       64.230      -17.068       53.972       31.966       17.876     2913.002     1021.801      319.541        0.803        0.213      107.330       13.106        0.015      337.104        8.852      859.284
01/03/2022  11:20:00     -137.829       53.157       -9.881       59.043       56.933       30.882     3486.092     3241.409      953.723        1.480        0.384      147.725       26.058        0.031      337.061        8.780      859.282
01/03/2022  11:21:00      -28.122      -10.932      -10.179       60.883       45.674       44.784     3706.683     2086.140     2005.565        0.440        0.390       30.172       31.515        1.091      337.082        8.816      859.278
01/03/2022  11:22:00      -56.845       -5.468       -5.349       79.610       71.874       34.130     6337.752     5165.940     1164.832        0.798        0.633       57.108       30.418        0.284      337.043        8.751      859.275
01/03/2022  11:23:00     -138.176       21.914       -2.152       96.439       71.916       46.344     9300.572     5171.873     2147.750        1.810        0.831      139.903       36.535        0.068      336.980        8.644      859.233
01/03/2022  11:24:00     -132.025       19.176        0.559      133.154       60.723       55.968    17729.927     3687.295     3132.464        2.117        1.227      133.410       44.193        0.110      336.965        8.619      859.155
01/03/2022  11:25:00     -143.242       34.175      -17.722       76.783       64.467       32.508     5895.645     4156.038     1056.776        1.655        0.555      147.262       23.719        0.026      336.996        8.672      859.128
01/03/2022  11:26:00      -33.678       -3.930       11.302       82.747       49.989       47.132     6847.099     2498.872     2221.432        0.642        0.578       33.907       50.798        2.245      337.029        8.728      859.116
01/03/2022  11:27:00      -61.829      -23.672       -6.024       85.631       54.760       45.329     7332.699     2998.684     2054.681        0.840        0.619       66.205       50.072        0.572      336.966        8.621      859.105
01/03/2022  11:28:00     -119.098      -10.767      -12.098       82.622       57.173       39.402     6826.439     3268.780     1552.509        1.305        0.582      119.584       34.882        0.085      336.960        8.609      859.088
01/03/2022  11:29:00     -182.461     -116.434      -32.730       69.812       78.202       43.763     4873.742     6115.498     1915.213        3.041        0.645      216.446       31.353        0.021      336.890        8.492      859.069
01/03/2022  11:30:00     -202.393      -41.591      -29.758       85.362       73.478       44.961     7286.713     5399.038     2021.493        2.914        0.735      206.622       40.291        0.038      336.859        8.438      859.036
01/03/2022  11:31:00     -123.163        9.943      -16.483       61.143       66.244       32.091     3738.468     4388.237     1029.851        1.235        0.458      123.564       26.250        0.045      336.878        8.475      859.037
01/03/2022  11:32:00      -35.113      -35.128       -7.288       56.070       39.032       29.571     3143.896     1523.490      874.434        0.403        0.277       49.668       16.414        0.109      336.976        8.638      859.074
01/03/2022  11:33:00      -98.716       30.134       -9.277       65.946       38.735       32.473     4348.850     1500.436     1054.520        0.882        0.345      103.213       30.666        0.088      336.931        8.564      859.091
01/03/2022  11:34:00      -92.360       25.014       -6.508       87.120       50.512       31.194     7589.922     2551.418      973.080        1.015        0.556       95.687       35.762        0.140      336.969        8.626      859.089
01/03/2022  11:35:00     -123.130       -3.148      -10.517       68.396       47.658       32.511     4678.010     2271.303     1056.976        1.164        0.400      123.171       21.618        0.031      336.938        8.575      859.075
01/03/2022  11:36:00      -75.621       -4.694       -2.358       37.154       42.300       22.587     1380.426     1789.259      510.180        0.471        0.184       75.766       17.416        0.053      336.970        8.628      859.026
01/03/2022  11:37:00      -73.939      -51.264      -27.558       60.065       53.190       38.439     3607.858     2829.204     1477.585        0.838        0.396       89.972       26.819        0.089      336.972        8.633      859.013
01/03/2022  11:38:00       10.266     -146.574      -39.451      131.628      139.672       63.439    17325.929    19508.263     4024.504        3.199        2.043      146.933       41.031        0.078      337.087        8.823      858.998
01/03/2022  11:39:00       87.071     -267.294      -71.761      129.211      151.972       63.096    16695.481    23095.508     3981.128        6.397        2.189      281.118       44.601        0.025      336.865        8.451      859.038
01/03/2022  11:40:00      -73.455     -286.380      -39.719      185.946      129.928       64.640    34576.031    16881.414     4178.266        7.230        2.782      295.650       28.867        0.010      336.868        8.454      859.092
01/03/2022  11:41:00     -101.889     -227.123      -50.933      135.437      145.113       74.243    18343.313    21057.875     5511.993        5.473        2.246      248.930       41.359        0.028      336.816        8.369      859.047
01/03/2022  11:42:00     -135.635      -92.990      -24.439      135.735      129.746       87.312    18423.962    16833.896     7623.464        3.525        2.144      164.451       73.110        0.198      336.797        8.338      858.948
01/03/2022  11:43:00     -161.990      -27.598      -19.298      146.596      131.022       85.156    21490.469    17166.766     7251.504        3.663        2.295      164.324       65.816        0.160      336.729        8.225      858.914
01/03/2022  11:44:00      -32.795     -119.212      -24.882      110.853      127.160       80.309    12288.444    16169.771     6449.577        2.540        1.745      123.640       31.758        0.066      336.788        8.324      858.956
01/03/2022  11:45:00      -57.753     -223.760      -45.095      148.690      115.676       67.926    22108.793    13380.966     4613.979        4.776        2.005      231.093       40.576        0.031      336.866        8.451      858.989
01/03/2022  11:46:00     -106.521      -49.482        2.262       71.267      111.218       55.721     5078.964    12369.547     3104.820        1.717        1.028      117.453       20.863        0.032      336.788        8.323      859.046
01/03/2022  11:47:00     -197.258       14.343       -1.685      124.804       91.142       76.903    15576.092     8306.915     5914.138        3.445        1.490      197.779       62.138        0.099      336.722        8.214      859.034
01/03/2022  11:48:00      -80.846      -13.987       -6.918      122.819       77.017       61.853    15084.431     5931.574     3825.734        1.581        1.242       82.047       55.933        0.465      336.766        8.288      858.975
01/03/2022  11:49:00        1.183      -68.032      -14.653       81.259       70.574       40.087     6603.062     4980.732     1606.937        0.902        0.660       68.042       41.658        0.375      336.874        8.467      859.034
01/03/2022  11:50:00     -101.365     -119.933      -29.152       98.305      136.219       67.510     9663.935    18555.543     4557.645        2.914        1.639      157.031       67.466        0.185      336.852        8.430      859.029
01/03/2022  11:51:00      -40.882      -45.582      -28.562      101.330       62.108       51.565    10267.779     3857.355     2658.998        1.067        0.839       61.230       28.197        0.212      336.918        8.540      858.954
01/03/2022  11:52:00     -133.277      -20.717      -10.884       60.950       68.420       38.204     3714.884     4681.302     1459.515        1.408        0.493      134.878       37.235        0.076      336.894        8.501      858.966
01/03/2022  11:53:00     -194.196     -191.774      -22.084      117.321      119.061       70.613    13764.200    14175.600     4986.264        5.395        1.646      272.928       51.779        0.036      336.908        8.521      859.000
01/03/2022  11:54:00     -108.790        2.686      -21.232      108.045       97.018       52.200    11673.824     9412.520     2724.836        1.805        1.191      108.823       39.614        0.133      336.944        8.584      858.968
01/03/2022  11:55:00     -240.118       56.530       -3.110      157.003       77.567       56.555    24649.900     6016.563     3198.474        4.736        1.693      246.683       53.276        0.047      336.889        8.490      858.895
01/03/2022  11:56:00     -172.284       -7.708      -10.072      181.872      114.506       77.943    33077.418    13111.675     6075.114        4.104        2.613      172.456       77.999        0.205      336.712        8.196      858.871
01/03/2022  11:57:00     -325.351       51.216      -24.370      160.674      108.614       73.065    25816.063    11797.055     5338.472        7.600        2.148      329.357       57.203        0.030      336.555        7.932      858.858
01/03/2022  11:58:00     -182.695       25.269      -36.091       68.463      102.655       42.985     4687.162    10538.126     1847.747        2.619        0.854      184.434       42.909        0.054      336.562        7.947      858.822
01/03/2022  11:59:00     -117.444       14.026       -7.323       71.019       78.524       37.230     5043.638     6166.074     1386.101        1.332        0.630      118.279       32.375        0.075      336.634        8.066      858.812
01/03/2022  12:00:00      -38.308       31.739       10.641       64.823       94.747       53.467     4202.003     8976.937     2858.706        0.931        0.802       49.748       42.138        0.717      336.997        8.674      858.877
01/03/2022  12:01:00      -37.634       21.845      -26.972       81.861       70.526       46.514     6701.173     4973.925     2163.527        0.823        0.692       43.515       29.537        0.461      336.802        8.348      858.889
01/03/2022  12:02:00      -69.811      -29.410      -37.347       84.401       96.425       44.304     7123.523     9297.729     1962.831        1.276        0.919       75.753       32.325        0.182      336.837        8.405      858.864
01/03/2022  12:03:00       89.765     -110.611      -35.344       57.402       95.977       43.300     3294.941     9211.557     1874.855        1.796        0.719      142.452       19.958        0.020      336.844        8.418      858.816
01/03/2022  12:04:00     -177.938       89.976      -32.165      130.813       88.572       52.834    17112.024     7845.033     2791.414        3.427        1.387      199.393       22.148        0.012      336.850        8.426      858.779
01/03/2022  12:05:00     -296.163       50.494      -13.508      139.022       87.758       57.273    19327.144     7701.450     3280.142        6.037        1.515      300.437       53.154        0.031      337.062        8.781      858.798
01/03/2022  12:06:00     -300.902       -3.232      -13.740       98.606       93.179       57.057     9723.065     8682.419     3255.493        5.620        1.083      300.919       51.253        0.029      336.840        8.409      858.800
01/03/2022  12:07:00     -335.744      -20.209       -2.517      180.234       78.128       79.754    32484.351     6104.044     6360.703        7.904        2.247      336.352       90.602        0.073      336.819        8.372      858.788
01/03/2022  12:08:00     -264.015       -3.759      -11.246      135.060       82.997       63.623    18241.325     6888.497     4047.932        4.951        1.459      264.042       67.650        0.066      336.826        8.386      858.783
01/03/2022  12:09:00      -25.829      -11.563       -3.094      111.074       65.986       56.808    12337.360     4354.101     3227.152        1.036        0.996       28.300       19.190        0.460      336.950        8.594      858.704
01/03/2022  12:10:00        7.734      -14.026        2.129       51.256       50.740       34.065     2627.159     2574.520     1160.391        0.331        0.318       16.017       22.586        1.988      336.954        8.602      858.695
01/03/2022  12:11:00      -90.936       44.701      -24.037       53.812       46.794       24.457     2895.679     2189.684      598.144        0.826        0.284      101.328       24.165        0.057      336.763        8.282      858.703
01/03/2022  12:12:00     -212.125      -70.943      -35.714      141.712       98.050       68.208    20082.235     9613.773     4652.343        4.282        1.717      223.674       62.644        0.078      336.784        8.314      858.719
01/03/2022  12:13:00     -209.161      -30.565      -19.370       87.915       59.126       50.757     7729.095     3495.864     2576.293        2.943        0.690      211.383       40.262        0.036      336.747        8.253      858.792
01/03/2022  12:14:00     -186.415      -29.297       -4.941      103.122       67.490       66.539    10634.111     4554.914     4427.426        2.762        0.981      188.704       59.659        0.100      336.781        8.311      858.810
01/03/2022  12:15:00     -246.226        8.012      -14.910      136.211      118.033       70.235    18553.452    13931.736     4932.990        4.916        1.871      246.357       60.564        0.060      336.785        8.316      858.817
01/03/2022  12:16:00     -284.706       49.164      -31.091      118.160       82.832       55.689    13961.707     6861.218     3101.284        5.418        1.196      288.920       18.084        0.004      336.771        8.292      858.795
01/03/2022  12:17:00     -293.027       60.786      -22.593      114.245       61.713       62.196    13051.947     3808.514     3868.396        5.540        1.036      299.265       55.036        0.034      336.767        8.286      858.737
01/03/2022  12:18:00     -154.898       35.467      -12.573      149.548      130.645       65.068    22364.598    17068.190     4233.792        3.453        2.183      158.906       76.108        0.229      336.855        8.433      858.719
01/03/2022  12:19:00     -295.557       73.764        0.431      142.067      101.935       67.516    20183.114    10390.694     4558.444        6.396        1.757      304.623       66.611        0.048      336.887        8.487      858.698
01/03/2022  12:20:00     -431.561      -35.761      -19.004      203.930      126.879       88.547    41587.334    16098.154     7840.603       12.669        3.276      433.040       96.667        0.050      336.750        8.258      858.719
01/03/2022  12:21:00     -347.489      -34.544       -4.278      161.981      128.527       85.425    26237.852    16519.062     7297.416        8.600        2.503      349.202       87.197        0.062      336.723        8.214      858.644
01/03/2022  12:22:00     -129.793      -77.637      -15.160       99.752      120.687       56.769     9950.367    14565.465     3222.724        2.542        1.387      151.241       43.662        0.083      336.640        8.078      858.574
01/03/2022  12:23:00      -20.261       -9.193      -13.255       67.542       44.682       37.725     4561.911     1996.513     1423.188        0.432        0.399       22.249       26.286        1.396      336.736        8.238      858.425
01/03/2022  12:24:00     -104.457      -16.579      -10.928      109.993       86.117       58.995    12098.367     7416.163     3480.441        1.715        1.150      105.765       37.164        0.123      336.632        8.065      858.372
01/03/2022  12:25:00     -134.131       -2.062        3.030      140.672       75.529       58.434    19788.739     5704.683     3414.537        2.345        1.445      134.147       52.674        0.154      336.695        8.170      858.349
01/03/2022  12:26:00     -408.068      -20.016      -16.957      197.694      115.745       96.555    39083.104    13396.838     9322.782       11.449        3.090      408.559       98.157        0.058      336.652        8.096      858.328
01/03/2022  12:27:00     -335.912       58.065       -5.400      140.679      108.130       69.155    19790.544    11692.185     4782.482        7.624        1.813      340.893       56.606        0.028      336.668        8.122      858.301
01/03/2022  12:28:00     -338.088       49.217       -9.487       99.363       75.376       58.433     9872.991     5681.538     3414.429        6.789        0.948      341.652       43.562        0.016      336.673        8.130      858.288
01/03/2022  12:29:00     -299.662       36.367       -4.484      138.373      106.215       64.274    19147.089    11281.681     4131.146        6.284        1.728      301.861       63.191        0.044      336.750        8.257      858.313
01/03/2022  12:30:00     -343.053       14.201      -11.316      158.094      108.748       74.853    24993.687    11826.095     5603.026        8.021        2.121      343.347       76.502        0.050      336.740        8.240      858.327
01/03/2022  12:31:00     -383.610       24.912      -24.390      151.691      109.751       72.467    23010.261    12045.275     5251.537        9.433        2.015      384.418       68.017        0.031      336.702        8.178      858.356
01/03/2022  12:32:00     -464.847      -41.768      -14.983      279.936      173.363      114.882    78364.264    30054.648    13197.944       16.981        6.081      466.719      119.283        0.065      336.685        8.150      858.442
01/03/2022  12:33:00     -339.034       17.680       -6.149      182.955      119.325       72.364    33472.453    14238.470     5236.506        8.411        2.647      339.495       64.581        0.036      336.673        8.129      858.521
01/03/2022  12:34:00     -258.131        5.926      -14.555      127.234      101.238       64.329    16188.610    10249.086     4138.200        4.872        1.529      258.199       52.825        0.042      336.714        8.197      858.467
01/03/2022  12:35:00     -192.383       -4.539       -7.772      137.791      101.105       67.058    18986.458    10222.225     4496.820        3.539        1.685      192.436       65.507        0.116      336.782        8.313      858.330
01/03/2022  12:36:00     -265.387       70.046       -9.835      198.068      150.475       92.768    39230.806    22642.730     8605.862        7.294        3.524      274.476      100.569        0.134      336.913        8.529      858.186
01/03/2022  12:37:00     -298.523       10.507      -19.330      201.206      124.277       89.015    40483.970    15444.696     7923.736        7.671        3.193      298.708       73.118        0.060      336.769        8.290      858.129
01/03/2022  12:38:00     -241.321      -34.044      -12.767      206.033      116.853       86.574    42449.410    13654.571     7494.997        6.157        3.180      243.711       85.523        0.123      336.704        8.184      858.136
01/03/2022  12:39:00     -542.675      -68.601      -45.535      201.171      141.453      100.993    40469.742    20009.020    10199.505       18.596        3.534      546.994       86.887        0.025      336.625        8.050      858.200
01/03/2022  12:40:00     -228.921      -71.018      -32.128      110.412      124.066       47.523    12190.704    15392.459     2258.467        4.416        1.492      239.683       38.864        0.026      336.664        8.115      858.469
01/03/2022  12:41:00     -196.754     -217.318      -42.544      124.696      135.844       60.650    15549.045    18453.670     3678.433        6.271        1.884      293.154       35.970        0.015      336.778        8.304      858.687
01/03/2022  12:42:00     -238.530      -43.289      -35.582      106.196      114.726       63.906    11277.667    13162.021     4083.965        4.427        1.426      242.426       67.100        0.077      336.621        8.043      858.755
01/03/2022  12:43:00     -324.777       31.417      -15.482      136.995      129.931       76.351    18767.756    16882.024     5829.525        7.409        2.074      326.293       56.825        0.030      336.644        8.082      858.699
01/03/2022  12:44:00     -369.865       83.126       19.216      217.217      132.208       95.321    47183.146    17478.864     9086.142       10.890        3.687      379.091       83.413        0.048      336.545        7.916      858.673
01/03/2022  12:45:00      -58.637       -6.966      -25.859      129.505      106.567       76.330    16771.596    11356.617     5826.238        1.905        1.698       59.049       62.966        1.137      336.607        8.023      858.715
01/03/2022  12:46:00     -179.426      -61.812      -10.488       84.665       68.382       51.154     7168.189     4676.032     2616.683        2.529        0.723      189.774       52.644        0.077      336.602        8.014      858.724
01/03/2022  12:47:00      -84.920       40.186       -7.832       29.647       41.683       38.267      878.921     1737.488     1464.365        0.648        0.204       93.949       17.762        0.036      336.684        8.152      858.667
01/03/2022  12:48:00     -280.306       53.634      -19.686      180.689      102.835       72.046    32648.671    10574.949     5190.622        6.512        2.421      285.391       35.140        0.015      336.640        8.076      858.627
01/03/2022  12:49:00     -202.058        9.786       -6.533      128.394      122.996       74.762    16485.097    15128.057     5589.386        3.908        1.860      202.294       74.515        0.136      336.652        8.095      858.631
01/03/2022  12:50:00      -82.285       -2.709      -26.616      113.614       86.620       57.577    12908.083     7503.005     3315.141        1.560        1.186       82.330       56.428        0.470      336.609        8.025      858.608
01/03/2022  12:51:00     -267.701       68.220      -17.800      201.654      136.822       98.407    40664.450    18720.128     9683.900        7.284        3.453      276.256       89.427        0.105      336.586        7.986      858.522
01/03/2022  12:52:00     -323.065      105.248        5.415      225.159      129.879       93.211    50696.435    16868.621     8688.336        9.585        3.813      339.776       91.408        0.072      336.571        7.960      858.491
01/03/2022  12:53:00     -328.311      155.391       -0.525      193.789      122.122       78.224    37554.013    14913.743     6118.966        9.525        2.929      363.228       88.419        0.059      336.456        7.765      858.593
01/03/2022  12:54:00     -459.553      161.919      -21.406      184.884      146.490       79.455    34182.131    21459.282     6313.148       14.990        3.098      487.244       82.068        0.028      336.357        7.600      858.581
01/03/2022  12:55:00     -391.250      148.948      -11.215      167.138      141.758       78.716    27935.219    20095.297     6196.243       11.480        2.711      418.643       76.543        0.033      336.333        7.562      858.542
01/03/2022  12:56:00     -512.689       77.843       -2.394      297.070      185.841      108.277    88250.519    34537.031    11723.880       20.169        6.726      518.565      120.561        0.054      336.189        7.321      858.450
01/03/2022  12:57:00     -619.515       33.258       -0.306      316.977      234.153      137.643   100474.340    54827.431    18945.695       27.954        8.712      620.407      138.381        0.050      336.106        7.180      858.399
01/03/2022  12:58:00     -474.649      -25.614      -20.190      304.557      181.285      131.701    92754.771    32864.331    17345.189       18.463        7.148      475.340      137.861        0.084      336.068        7.119      858.543
01/03/2022  12:59:00     -307.234       41.827      -24.135      186.394      109.282       82.786    34742.873    11942.516     6853.480        7.512        2.677      310.068       84.283        0.074      336.048        7.084      858.687
01/03/2022  13:00:00     -136.521       48.613       -5.594      119.773      112.810       66.009    14345.494    12726.127     4357.228        2.622        1.571      144.918       56.904        0.154      336.223        7.378      858.683
01/03/2022  13:01:00     -233.898       13.154      -20.261      110.135       79.694       49.920    12129.636     6351.094     2492.053        3.813        1.049      234.267       46.072        0.039      336.112        7.191      858.634
01/03/2022  13:02:00     -170.160        6.284       17.577      193.399      116.609      103.052    37403.159    13597.564    10619.785        4.545        3.081      170.276       85.721        0.253      336.146        7.249      858.605
01/03/2022  13:03:00     -175.003      -19.969      -12.384      152.122      111.981       75.217    23141.103    12539.784     5657.548        3.625        2.067      176.139       52.402        0.089      336.097        7.167      858.567
01/03/2022  13:04:00     -369.048      -87.686      -34.983      170.009      150.308       99.122    28903.054    22592.601     9825.125       10.320        3.066      379.322      105.287        0.077      335.978        6.969      858.523
01/03/2022  13:05:00     -203.346      -13.494      -20.260      152.491      131.071      103.895    23253.506    17179.613    10794.192        4.658        2.561      203.794       96.029        0.222      335.999        7.004      858.538
01/03/2022  13:06:00     -153.035       46.040       -6.865      167.983       88.041       66.977    28218.127     7751.232     4485.953        3.301        2.023      159.810       68.741        0.185      336.055        7.097      858.568
01/03/2022  13:07:00     -259.303       35.284      -24.445      139.818      103.280       66.353    19549.179    10666.727     4402.711        5.184        1.731      261.693       54.378        0.043      335.948        6.919      858.565
01/03/2022  13:08:00     -155.749       -9.398       -6.733      137.867      126.477       75.605    19007.388    15996.524     5716.041        3.255        2.036      156.032       61.627        0.156      336.006        7.015      858.529
01/03/2022  13:09:00     -280.147       68.098       -7.520      202.018      141.544       93.043    40811.338    20034.676     8656.951        7.633        3.475      288.305       85.155        0.087      335.989        6.986      858.494
01/03/2022  13:10:00     -249.267       23.398      -12.694      210.207      132.255       81.838    44186.792    17491.379     6697.487        6.560        3.419      250.363       72.927        0.085      335.893        6.829      858.406
01/03/2022  13:11:00     -231.446       18.235        9.315      196.174      108.238       86.314    38484.281    11715.430     7450.049        5.581        2.882      232.164       86.869        0.140      335.912        6.859      858.340
01/03/2022  13:12:00     -510.371      131.090      -30.808      152.221      133.826       90.163    23171.164    17909.300     8129.305       16.390        2.460      526.938       57.428        0.012      335.964        6.945      858.342
01/03/2022  13:13:00     -284.028      132.990      -32.943      111.475       96.782       64.589    12426.651     9366.763     4171.679        6.270        1.298      313.621       41.629        0.018      336.027        7.050      858.396
01/03/2022  13:14:00      -31.028       -7.464       -0.154       57.410       41.805       28.655     3295.854     1747.683      821.081        0.344        0.293       31.913       27.202        0.727      336.037        7.069      858.435
01/03/2022  13:15:00      -60.069      -70.424      -48.109       70.190       39.139       32.310     4926.595     1531.894     1043.951        0.919        0.375       92.563       30.489        0.108      336.116        7.202      858.485
01/03/2022  13:16:00      -61.432     -103.433      -27.443       83.073       64.382       42.114     6901.169     4145.082     1773.556        1.402        0.641      120.301       35.191        0.086      336.185        7.317      858.459
01/03/2022  13:17:00      134.080     -374.620      -75.212       91.861      121.583       63.420     8438.486    14782.376     4022.067        9.560        1.362      397.891       60.556        0.023      336.373        7.627      858.412
01/03/2022  13:18:00       50.833     -262.266      -57.469       94.111      129.939       50.200     8856.880    16884.091     2520.083        5.146        1.413      267.147       36.534        0.019      336.530        7.892      858.379
01/03/2022  13:19:00      -53.928     -109.248      -24.899       83.574       96.084       65.243     6984.627     9232.131     4256.614        1.796        1.024      121.833       45.078        0.137      336.635        8.070      858.408
01/03/2022  13:20:00      -89.537      -16.585      -31.450       88.542       91.403       53.342     7839.637     8354.567     2845.397        1.416        0.952       91.060       30.432        0.112      336.670        8.129      858.428
01/03/2022  13:21:00     -251.330      -25.370       -4.656      228.123      117.974       78.242    52040.072    13917.960     6121.871        6.794        3.604      252.607       92.911        0.135      336.545        7.917      858.547
01/03/2022  13:22:00     -231.301       10.488       -2.319      136.759       90.178       71.021    18703.107     8132.040     5043.947        4.274        1.594      231.538       63.201        0.075      336.455        7.766      858.670
01/03/2022  13:23:00     -112.793       34.557      -12.335       84.494       82.240       40.041     7139.214     6763.377     1603.280        1.478        0.775      117.968       39.728        0.113      336.352        7.595      858.573
01/03/2022  13:24:00     -161.260        7.538       -5.058      172.636       98.823       56.166    29803.176     9766.024     3154.652        3.440        2.136      161.436       56.402        0.122      336.023        7.045      858.461
01/03/2022  13:25:00     -538.258        5.441      -39.292      230.051      182.089      101.910    52923.501    33156.258    10385.740       19.386        4.823      538.285      103.689        0.037      335.928        6.884      858.428
01/03/2022  13:26:00     -358.346      -63.488      -19.480      233.022      167.180      136.374    54299.160    27949.262    18597.771       11.682        5.042      363.927      116.995        0.103      335.905        6.847      858.404
01/03/2022  13:27:00     -466.867       56.269      -23.036      274.191      181.342      104.975    75180.893    32884.843    11019.755       17.035        5.954      470.246      106.454        0.051      335.823        6.710      858.412
01/03/2022  13:28:00     -341.407       -3.443       -6.047      209.413      128.740       97.844    43853.933    16573.983     9573.476        9.329        3.500      341.425       72.150        0.045      335.882        6.809      858.414
01/03/2022  13:29:00     -262.885       52.900        0.853      272.362      155.519      107.298    74181.310    24186.141    11512.832        9.087        5.494      268.155      116.414        0.188      335.935        6.898      858.438
01/03/2022  13:30:00     -313.286       73.751       -2.494      254.911      136.744       97.489    64979.486    18698.883     9504.090        9.837        4.659      321.850      111.606        0.120      335.932        6.893      858.565
01/03/2022  13:31:00     -375.605      129.766      -25.054      300.239      190.171      119.785    90143.674    36165.067    14348.506       14.958        7.033      397.389      103.270        0.068      335.848        6.753      858.598
01/03/2022  13:32:00     -124.507       11.198       -5.614      217.476      149.305      111.823    47295.616    22291.955    12504.425        4.886        4.105      125.009       90.997        0.530      335.873        6.794      858.615
01/03/2022  13:33:00     -398.228      -31.888      -37.633      264.824      173.457      116.705    70131.547    30087.337    13620.079       13.741        5.692      399.503      106.454        0.071      335.790        6.655      858.593
01/03/2022  13:34:00     -365.638       -0.393       -5.797      244.180      151.253      123.676    59623.974    22877.379    15295.855       11.574        4.890      365.638      133.126        0.133      335.799        6.669      858.511
01/03/2022  13:35:00     -437.254      139.325      -14.010      293.770      151.161       99.137    86300.783    22849.545     9828.078       16.487        5.949      458.914      122.714        0.072      335.832        6.726      858.428
01/03/2022  13:36:00     -387.935       51.999      -29.928      193.948      130.524      100.989    37615.970    17036.393    10198.815       10.946        3.243      391.404      103.794        0.070      335.856        6.764      858.459
01/03/2022  13:37:00     -191.944      137.066       -6.328      133.242      124.445       72.692    17753.551    15486.548     5284.084        4.709        1.926      235.859       73.041        0.096      335.974        6.962      858.398
01/03/2022  13:38:00     -381.769       35.423      -12.425      268.835      143.205      113.741    72272.234    20507.717    12936.946       12.642        5.286      383.409      119.910        0.098      335.835        6.731      858.374
01/03/2022  13:39:00     -410.993       88.369        7.490      255.356      218.973      125.300    65206.588    47949.112    15699.978       15.279        6.443      420.386      119.412        0.081      335.779        6.636      858.375
01/03/2022  13:40:00     -423.306       51.332      -12.431      229.437      181.763      117.357    52641.467    33037.617    13772.569       14.070        4.973      426.407      105.268        0.061      335.769        6.621      858.378
01/03/2022  13:41:00     -323.021       33.016      -22.202      193.744      190.775      111.247    37536.665    36394.979    12375.879        9.610        4.315      324.704      100.475        0.096      335.799        6.671      858.392
01/03/2022  13:42:00     -296.632       18.526      -28.262      237.939      157.780       93.032    56614.754    24894.540     8654.976        8.963        4.508      297.210       85.544        0.083      335.853        6.762      858.372
01/03/2022  13:43:00     -399.545      139.611      -13.077      258.127      219.186      122.789    66629.654    48042.532    15077.126       15.450        6.487      423.234       93.281        0.049      335.908        6.851      858.360
01/03/2022  13:44:00     -410.457       48.870      -23.172      231.278      149.420       93.364    53489.479    22326.360     8716.889       12.795        4.227      413.356      111.250        0.072      335.921        6.875      858.411
01/03/2022  13:45:00     -302.796       28.285      -26.717      221.064      147.704       90.629    48869.459    21816.437     8213.619        8.603        3.945      304.114       92.002        0.092      335.919        6.871      858.444
01/03/2022  13:46:00     -240.147       41.128        1.539      263.596      153.626      102.825    69482.672    23601.095    10573.052        8.149        5.183      243.643      111.447        0.209      335.970        6.955      858.408
01/03/2022  13:47:00     -245.003       -2.393      -11.915      215.673      132.686       95.588    46514.848    17605.457     9137.004        6.670        3.663      245.014       88.559        0.131      335.910        6.856      858.382
01/03/2022  13:48:00     -506.846      110.120      -18.789      234.637      162.932      111.182    55054.747    26546.747    12361.535       18.165        4.698      518.671      114.337        0.049      335.890        6.822      858.383
01/03/2022  13:49:00     -274.130       50.921      -18.221      260.041      189.754      109.181    67621.488    36006.747    11920.397        9.679        5.777      278.819      115.389        0.171      335.936        6.899      858.399
01/03/2022  13:50:00     -441.743       54.239      -17.550      432.070      150.228      117.427   186684.417    22568.326    13789.056       21.067       11.152      445.061      127.152        0.082      335.916        6.866      858.399
01/03/2022  13:51:00     -271.890       36.496       -2.316      230.151      127.688       89.782    52969.461    16304.126     8060.884        7.628        3.867      274.328       97.324        0.126      335.986        6.981      858.427
01/03/2022  13:52:00     -371.402      -24.866      -24.879      218.173      149.020      105.053    47599.645    22207.083    11036.081       10.999        4.042      372.233      117.213        0.099      335.917        6.867      858.493
01/03/2022  13:53:00     -346.277      -44.094      -29.804      240.169      140.287      122.064    57681.306    19680.506    14899.658       10.748        4.613      349.073      113.489        0.106      335.864        6.779      858.429
01/03/2022  13:54:00     -241.131      -14.275      -15.077      145.426       92.702       75.956    21148.754     8593.640     5769.266        4.704        1.776      241.553       72.998        0.091      335.914        6.861      858.350
01/03/2022  13:55:00     -354.555      148.017       -9.988      277.134      161.447       95.026    76802.985    26065.017     9029.881       12.979        5.595      384.211       63.252        0.027      336.087        7.151      858.283
01/03/2022  13:56:00     -447.635       99.843       15.973      254.158      157.478      105.896    64596.244    24799.462    11213.945       15.559        5.030      458.634      117.790        0.066      336.090        7.155      858.299
01/03/2022  13:57:00     -444.373      144.368       -6.826      249.346      177.860      106.385    62173.445    31634.176    11317.762       16.172        5.256      467.236      121.358        0.067      336.033        7.059      858.319
01/03/2022  13:58:00     -320.391      109.928        3.319      280.242      181.433      105.710    78535.822    32917.975    11174.690       11.866        6.131      338.725      119.141        0.124      336.026        7.048      858.404
01/03/2022  13:59:00     -353.289      154.449        8.805      224.580      154.708      111.399    50436.275    23934.523    12409.745       11.775        4.339      385.575      104.535        0.074      336.083        7.144      858.406
01/03/2022  14:00:00     -385.610       88.380        9.375      239.081      164.744       99.591    57159.692    27140.671     9918.295       12.539        4.711      395.608       98.985        0.063      336.045        7.080      858.315
01/03/2022  14:01:00     -390.314      -17.255      -17.475      294.424      145.555      111.970    86685.669    21186.355    12537.337       13.666        6.020      390.695      115.731        0.088      336.125        7.213      858.337
01/03/2022  14:02:00     -353.264      -93.381      -38.781      188.779      188.178       90.490    35637.334    35410.980     8188.509       10.711        3.962      365.398       86.090        0.056      336.234        7.395      858.369
01/03/2022  14:03:00     -270.946     -125.638      -34.470      128.950      124.253       67.020    16627.976    15438.784     4491.677        6.347        1.828      298.659       54.063        0.033      336.235        7.397      858.365
01/03/2022  14:04:00     -325.985       -2.149      -16.781      169.239      102.779       78.093    28641.945    10563.471     6098.498        7.592        2.265      325.992       69.899        0.046      336.203        7.343      858.358
01/03/2022  14:05:00     -230.695       95.377      -22.963      109.886       88.327       51.372    12074.850     7801.729     2639.112        4.268        1.126      249.634       46.174        0.034      336.196        7.333      858.438
01/03/2022  14:06:00     -156.110        4.403        1.756      126.439       71.730       60.405    15986.784     5145.160     3648.794        2.458        1.239      156.173       64.008        0.168      336.382        7.644      858.478
01/03/2022  14:07:00      -66.605        4.186        5.477      123.932       62.671       58.311    15359.189     3927.626     3400.149        1.358        1.134       66.736       62.342        0.873      336.230        7.392      858.381
01/03/2022  14:08:00      -62.053       -8.575      -21.078       96.229       59.974       50.872     9259.966     3596.849     2587.960        0.990        0.772       62.643       43.777        0.488      336.309        7.521      858.242
01/03/2022  14:09:00     -142.171       14.530      -14.053      134.354       73.930       58.667    18051.028     5465.641     3441.855        2.378        1.348      142.912       51.912        0.132      336.303        7.512      858.277
01/03/2022  14:10:00     -265.785      103.027        1.285      159.187      126.278       75.116    25340.365    15946.174     5642.471        6.408        2.346      285.055       72.842        0.065      336.404        7.681      858.315
01/03/2022  14:11:00     -173.643       34.788        7.379      167.084      100.589       77.597    27916.993    10118.090     6021.245        3.773        2.203      177.094       65.872        0.138      336.412        7.695      858.370
01/03/2022  14:12:00     -322.597      126.562       -2.869      144.759       99.454       66.959    20955.081     9891.039     4483.556        7.771        1.766      346.536       58.691        0.029      336.370        7.623      858.467
01/03/2022  14:13:00     -458.040      119.957      -10.374      217.483      147.342       96.506    47299.020    21709.660     9313.427       15.130        3.916      473.487      101.456        0.046      336.189        7.319      858.489
01/03/2022  14:14:00     -496.791      104.402       -2.463      261.439      181.391      110.430    68350.612    32902.518    12194.724       18.556        5.672      507.643      110.310        0.047      336.238        7.402      858.590
01/03/2022  14:15:00     -412.127       22.863      -17.317      264.005      194.889      112.593    69698.598    37981.652    12677.203       14.549        6.018      412.761      120.099        0.085      336.174        7.295      858.702
01/03/2022  14:16:00     -268.911       92.612       -9.543      140.537      119.625       69.083    19750.670    14310.173     4772.439        5.990        1.942      284.412       65.322        0.053      336.348        7.586      858.672
01/03/2022  14:17:00     -211.408      101.112      -20.949      176.470      125.842       84.231    31141.525    15836.118     7094.777        5.470        2.704      234.344       53.408        0.052      336.205        7.349      858.586
01/03/2022  14:18:00     -327.609       52.670      -19.414      198.525      105.267       73.993    39412.206    11081.058     5474.973        8.321        2.798      331.816       87.554        0.070      336.132        7.225      858.570
01/03/2022  14:19:00     -324.468       41.955       -7.674      225.054      135.069       92.507    50649.215    18243.515     8557.633        9.226        3.873      327.169      108.066        0.109      336.006        7.014      858.586
01/03/2022  14:20:00     -301.506      102.737       -5.734      222.442      128.549       81.849    49480.653    16524.753     6699.266        8.709        3.635      318.529       95.953        0.091      336.028        7.052      858.508
01/03/2022  14:21:00     -402.078      -47.439      -48.314      293.629      186.133      124.287    86217.900    34645.388    15447.147       15.126        6.816      404.867      126.424        0.098      336.013        7.026      858.491
01/03/2022  14:22:00     -614.177        5.080      -35.419      270.718      185.138      109.717    73288.209    34276.235    12037.822       24.903        5.980      614.198       86.148        0.020      335.930        6.889      858.460
01/03/2022  14:23:00     -545.054      -24.115      -22.231      297.807      141.036      140.034    88689.283    19891.116    19609.437       21.315        6.409      545.587      124.988        0.052      335.923        6.877      858.450
01/03/2022  14:24:00     -424.450      -35.671      -23.626      187.528       98.693       95.766    35166.587     9740.216     9171.180       11.802        2.704      425.947       97.929        0.053      335.947        6.917      858.471
01/03/2022  14:25:00     -391.513      -43.605       -9.752      367.678      183.085      149.461   135187.158    33520.071    22338.708       17.313        9.552      393.934      153.683        0.152      335.994        6.996      858.548
01/03/2022  14:26:00     -625.673      -30.055      -32.533      311.757      198.913      139.525    97192.663    39566.192    19467.237       27.480        7.811      626.395      137.094        0.048      335.974        6.962      858.414
01/03/2022  14:27:00     -389.166      -48.307      -13.571      265.447      232.196      109.050    70462.164    53914.994    11891.866       14.509        6.813      392.153       98.817        0.063      336.059        7.104      858.412
01/03/2022  14:28:00     -578.886       37.022      -20.154      307.157      219.070      125.063    94345.552    47991.630    15640.798       24.740        7.899      580.069      135.548        0.055      335.974        6.962      858.503
01/03/2022  14:29:00     -633.716      -34.415      -29.370      359.444      219.204      127.320   129199.992    48050.609    16210.341       29.852        9.673      634.650      126.511        0.040      335.889        6.820      858.503
01/03/2022  14:30:00     -223.169       69.057        1.022      234.249      145.706       95.512    54872.723    21230.156     9122.503        6.988        4.261      233.610       99.184        0.180      336.041        7.074      858.626
01/03/2022  14:31:00     -144.547       68.660       -2.232      155.588      121.260       78.925    24207.648    14703.950     6229.204        3.537        2.257      160.025       59.305        0.137      336.117        7.201      858.613
01/03/2022  14:32:00     -314.696       45.938       -7.474      215.328      125.544       82.844    46366.217    15761.193     6863.130        8.508        3.450      318.032       86.249        0.074      336.035        7.064      858.567
01/03/2022  14:33:00     -311.396      -23.518      -27.715      294.287      133.989       99.860    86604.562    17953.002     9972.044       10.639        5.726      312.283      113.917        0.133      335.964        6.946      858.492
01/03/2022  14:34:00     -362.775      -10.481      -39.718      225.141      175.345      107.168    50688.486    30745.717    11485.036       11.309        4.646      362.926      110.089        0.092      335.894        6.827      858.487
01/03/2022  14:35:00     -488.863       25.756      -14.315      270.662      143.803       97.679    73257.818    20679.274     9541.122       17.165        5.174      489.541      103.725        0.045      335.766        6.615      858.546
01/03/2022  14:36:00     -312.485      151.126        2.112      188.174      123.485       83.459    35409.329    15248.591     6965.322        8.905        2.881      347.111       80.484        0.054      335.840        6.740      858.475
01/03/2022  14:37:00     -436.574      -89.400      -17.934      310.478      257.671      105.423    96396.705    66394.598    11113.989       18.638        8.695      445.634      120.241        0.073      335.827        6.718      858.426
01/03/2022  14:38:00     -618.565     -141.566      -35.990      355.482      279.590      165.478   126367.719    78170.553    27383.106       31.790       11.596      634.558      177.311        0.078      335.898        6.837      858.457
01/03/2022  14:39:00     -488.237      -63.379      -15.588      258.431      206.364      130.252    66786.393    42586.174    16965.675       18.446        6.317      492.334      118.588        0.058      335.964        6.945      858.583
01/03/2022  14:40:00     -285.886      -55.261        3.369      218.449      135.664      106.512    47720.081    18404.848    11344.849        8.112        3.873      291.178      110.459        0.144      336.035        7.064      858.604
01/03/2022  14:41:00     -312.069      -31.354       -1.697      206.808      159.207      102.161    42769.354    25346.889    10436.832        8.845        3.928      313.640       98.453        0.099      336.030        7.055      858.637
01/03/2022  14:42:00     -400.698      -17.499      -25.441      274.362      195.879      116.735    75274.526    38368.750    13627.071       14.437        6.364      401.080      121.141        0.091      335.968        6.953      858.664
01/03/2022  14:43:00     -413.183       12.859       -9.518      298.685      165.992      132.721    89212.821    27553.438    17614.825       15.265        6.719      413.383      140.124        0.115      335.948        6.919      858.681
01/03/2022  14:44:00     -400.728      -14.806      -45.494      182.040      177.887       92.391    33138.627    31643.661     8536.058       11.808        3.666      401.001       85.111        0.045      335.935        6.896      858.681
01/03/2022  14:45:00     -348.845       28.449       -8.582      233.117      216.249      111.666    54343.739    46763.775    12469.394       11.806        5.679      350.004      107.899        0.095      335.939        6.903      858.738
01/03/2022  14:46:00     -344.555       89.150        7.532      278.491      197.156      110.926    77557.167    38870.651    12304.614       12.770        6.437      355.901       96.635        0.074      336.013        7.026      858.709
01/03/2022  14:47:00     -575.329       76.002      -29.795      295.580      239.778      109.802    87367.262    57493.357    12056.427       24.726        7.846      580.327      118.703        0.042      335.912        6.858      858.707
01/03/2022  14:48:00     -555.466       38.301      -58.651      211.564      196.139      123.466    44759.192    38470.610    15243.891       20.594        4.924      556.785      105.426        0.036      335.897        6.835      858.720
01/03/2022  14:49:00     -377.333       30.265      -10.536      301.224      144.797      128.080    90736.099    20966.130    16404.534       13.573        6.405      378.545      129.414        0.117      335.920        6.873      858.716
01/03/2022  14:50:00     -552.589     -106.329      -51.961      342.666      202.150      143.490   117419.777    40864.724    20589.277       24.908        8.944      562.726      151.712        0.073      335.872        6.793      858.752
01/03/2022  14:51:00     -392.006     -122.148       -5.120      261.670      229.694      115.419    68471.151    52759.234    13321.583       15.156        6.728      410.596      129.553        0.100      335.882        6.811      858.739
01/03/2022  14:52:00     -470.935      -12.463      -30.900      267.282      168.916      138.559    71439.714    28532.450    19198.519       17.101        5.959      471.100      133.331        0.080      335.872        6.792      858.721
01/03/2022  14:53:00     -615.284       -5.110      -41.479      324.585      205.619      150.614   105355.694    42279.217    22684.436       27.529        8.516      615.305      132.328        0.046      335.842        6.742      858.659
01/03/2022  14:54:00     -460.415       -8.096      -16.030      330.752      187.026      119.033   109396.562    34978.835    14168.931       18.540        7.927      460.486      120.257        0.068      335.887        6.817      858.626
01/03/2022  14:55:00     -286.294      -24.982      -37.239      180.507      140.001       81.685    32582.708    19600.214     6672.413        7.140        2.943      287.382       57.553        0.040      335.928        6.886      858.590
01/03/2022  14:56:00     -142.388        7.387       -6.305      146.903      140.687       78.429    21580.392    19792.740     6151.133        3.394        2.376      142.579       57.538        0.163      336.001        7.007      858.570
01/03/2022  14:57:00     -325.629       -8.969       -1.665      225.979      190.007      113.098    51066.438    36102.589    12791.250       10.302        4.998      325.752      102.883        0.100      335.944        6.911      858.594
01/03/2022  14:58:00     -506.551       86.546      -50.497      270.136      170.954      112.407    72973.401    29225.174    12635.393       19.071        5.742      513.891      110.999        0.047      335.882        6.808      858.564
01/03/2022  14:59:00     -467.087       68.116        6.251      341.979      200.900      129.044   116949.719    40360.722    16652.438       19.837        8.698      472.028      129.335        0.075      335.858        6.769      858.539
01/03/2022  15:00:00     -554.525       30.533      -38.127      286.174      168.530      123.799    81895.322    28402.301    15326.094       21.773        6.281      555.365      115.582        0.043      335.788        6.651      858.576
01/03/2022  15:01:00     -446.125       50.817      -30.641      186.584      145.681      107.321    34813.549    21222.909    11517.768       13.504        3.378      449.010       92.753        0.043      335.782        6.642      858.553
01/03/2022  15:02:00     -273.236       51.090      -17.423      221.501      121.462       77.963    49062.658    14752.958     6078.270        7.372        3.495      277.972       87.689        0.100      335.801        6.675      858.448
01/03/2022  15:03:00     -371.315      -41.026      -36.248      190.094      113.183       92.960    36135.631    12810.369     8641.606        9.922        2.879      373.574       97.900        0.069      335.789        6.655      858.405
01/03/2022  15:04:00     -262.538       29.952      -33.925      150.944      129.069       88.522    22783.997    16658.849     7836.115        5.912        2.364      264.241       79.764        0.091      335.830        6.722      858.403
01/03/2022  15:05:00     -392.623      -47.992      -34.214      209.783      125.685       90.492    44009.089    15796.621     8188.776       11.280        3.400      395.545      102.270        0.067      335.788        6.652      858.384
01/03/2022  15:06:00     -259.279      -11.736       -5.068      188.042       98.950       74.099    35359.913     9791.186     5490.619        5.901        2.532      259.545       86.819        0.112      335.794        6.662      858.315
01/03/2022  15:07:00     -200.785      -57.760      -21.529      179.789      137.456       74.961    32323.915    18894.029     5619.215        5.047        2.842      208.928       76.629        0.135      335.800        6.674      858.256
01/03/2022  15:08:00     -199.411       -8.370      -15.712      126.393       99.192       50.505    15975.241     9839.139     2550.708        3.422        1.418      199.587       36.725        0.034      335.812        6.692      858.246
01/03/2022  15:09:00     -245.138       48.144      -10.163      110.950       98.145       59.912    12309.924     9632.498     3589.428        4.402        1.277      249.821       49.185        0.039      335.711        6.523      858.277
01/03/2022  15:10:00     -255.478       35.361      -20.256      142.516       95.579       66.375    20310.879     9135.301     4405.647        5.038        1.693      257.913       67.994        0.070      335.711        6.524      858.267
01/03/2022  15:11:00     -244.945      -10.533        8.688      201.302      128.913       86.624    40522.335    16618.493     7503.676        6.240        3.232      245.171       97.358        0.158      335.854        6.763      858.216
01/03/2022  15:12:00     -348.597      -30.741      -45.753      143.658      152.435       88.413    20637.638    23236.299     7816.815        8.811        2.585      349.950       91.224        0.068      335.786        6.648      858.202
01/03/2022  15:13:00     -171.272       26.269       -2.362      156.684      107.177       81.232    24549.980    11486.999     6598.650        3.632        2.132      173.274       72.237        0.174      335.867        6.784      858.239
01/03/2022  15:14:00     -279.264      -46.299      -20.792      251.944      157.264      101.076    63475.736    24731.897    10216.404        8.948        4.921      283.076      105.580        0.139      335.740        6.572      858.315
01/03/2022  15:15:00     -218.500       65.493       -0.030      313.959      140.517       88.110    98570.339    19745.099     7763.413        8.903        6.304      228.104      109.402        0.230      335.708        6.519      858.462
01/03/2022  15:16:00     -132.618       46.047       16.257      212.133      121.215       88.519    45000.395    14693.026     7835.604        4.374        3.376      140.384       82.769        0.348      335.663        6.445      858.481
01/03/2022  15:17:00     -206.320       72.561      -30.788      145.078      124.781       74.235    21047.590    15570.213     5510.833        4.545        2.106      218.708       50.662        0.054      335.721        6.539      858.441
01/03/2022  15:18:00     -429.644      125.331      -15.590      239.112      134.251       83.018    57174.443    18023.207     6892.018       14.130        4.104      447.551       96.453        0.046      335.593        6.326      858.392
01/03/2022  15:19:00     -190.535        9.446      -15.942      187.157      176.873      117.498    35027.801    31284.136    13805.803        5.837        4.006      190.769      105.614        0.306      335.684        6.478      858.336
01/03/2022  15:20:00     -388.096       79.512      -19.742      218.600      175.541      115.286    47785.809    30814.666    13290.832       12.459        4.595      396.158      120.362        0.092      335.621        6.372      858.349
01/03/2022  15:21:00     -199.076       39.570       -8.437      106.694      121.291       59.813    11383.519    14711.575     3577.644        3.546        1.484      202.971       49.366        0.059      335.708        6.517      858.367
01/03/2022  15:22:00     -386.280      106.478      -20.724      225.415      124.607       77.857    50811.849    15526.801     6061.660       11.668        3.620      400.687       83.454        0.043      335.726        6.548      858.410
01/03/2022  15:23:00     -414.813       61.339      -36.437      190.856      158.083      102.476    36425.915    24990.278    10501.303       12.453        3.596      419.324       81.985        0.038      335.647        6.416      858.426
01/03/2022  15:24:00     -381.575       -5.355      -21.983      247.029      174.198      107.499    61023.109    30344.869    11556.033       12.450        5.146      381.613      105.960        0.077      335.678        6.469      858.422
01/03/2022  15:25:00     -300.692      154.820       -7.557      260.615      196.275      129.952    67920.050    38523.826    16887.538       11.886        6.167      338.208      129.178        0.146      335.772        6.625      858.406
01/03/2022  15:26:00     -222.505       34.656       -8.226      196.940      167.066       96.633    38785.420    27911.174     9338.009        6.339        3.802      225.188       95.694        0.181      335.779        6.637      858.454
01/03/2022  15:27:00     -352.432        0.831       -6.806      372.680      162.434      112.745   138890.604    26384.796    12711.531       15.109        8.899      352.433      124.531        0.125      335.757        6.601      858.455
01/03/2022  15:28:00     -403.206      -23.807      -16.124      237.397      173.418      127.395    56357.260    30073.930    16229.489       13.301        5.133      403.908      123.661        0.094      335.760        6.606      858.475
01/03/2022  15:29:00     -398.666       94.545      -20.722      190.168      146.946       94.544    36163.918    21593.052     8938.571       11.749        3.335      409.724       81.159        0.039      335.774        6.628      858.477
01/03/2022  15:30:00     -331.006       24.845      -11.628      226.273      158.323      107.490    51199.595    25066.028    11554.016        9.905        4.391      331.937      111.864        0.114      335.800        6.672      858.458
01/03/2022  15:31:00     -367.083      -44.322      -32.158      173.401      174.934       90.643    30067.837    30601.979     8216.205       10.330        3.444      369.750       73.748        0.040      335.799        6.670      858.405
01/03/2022  15:32:00     -168.780        3.876       10.583      162.308       91.323       66.374    26344.008     8339.827     4405.570        3.384        1.954      168.825       66.953        0.157      335.835        6.732      858.391
01/03/2022  15:33:00     -278.762       -9.971      -25.819      129.465       72.062       59.055    16761.171     5192.936     3487.479        5.195        1.272      278.940       65.272        0.055      335.858        6.770      858.321
01/03/2022  15:34:00     -160.344       68.776      -23.297       68.328       60.076       42.376     4668.722     3609.066     1795.766        2.053        0.504      174.471       35.617        0.042      335.839        6.740      858.262
01/03/2022  15:35:00     -216.130      114.402        0.088      137.759      111.722       67.007    18977.567    12481.911     4489.909        4.787        1.797      244.540       60.933        0.062      335.957        6.934      858.228
01/03/2022  15:36:00     -161.833       28.518       -7.804      177.027      120.338       74.592    31338.539    14481.236     5563.951        3.921        2.569      164.327       62.121        0.143      335.902        6.843      858.213
01/03/2022  15:37:00     -291.435       95.150        4.784      177.752      115.456       84.748    31595.847    13330.049     7182.208        7.305        2.605      306.574       84.208        0.075      335.922        6.877      858.236
01/03/2022  15:38:00     -488.954      -85.582      -43.046      284.116      192.017      130.392    80721.854    36870.717    17002.139       19.140        6.730      496.388      136.527        0.076      335.930        6.891      858.216
01/03/2022  15:39:00     -366.382      -41.705      -38.185      263.897      107.371       70.672    69641.783    11528.534     4994.487       11.178        4.308      368.748       65.309        0.031      335.964        6.947      858.185
01/03/2022  15:40:00     -282.046      -40.600      -40.255       92.765       95.040       57.230     8605.404     9032.682     3275.285        5.186        1.046      284.953       46.531        0.027      335.939        6.903      858.095
01/03/2022  15:41:00     -149.652       13.526      -27.330      142.722      100.351       72.265    20369.538    10070.293     5222.190        2.949        1.783      150.262       61.483        0.167      335.915        6.866      858.059
01/03/2022  15:42:00     -278.242       56.793       -4.242      187.202      102.405       69.049    35044.577    10486.778     4767.726        6.547        2.515      283.978       66.409        0.055      335.798        6.668      857.999
01/03/2022  15:43:00     -262.768       46.173       -4.295      171.145      103.523       72.575    29290.744    10716.976     5267.146        5.823        2.264      266.794       76.118        0.081      335.724        6.545      857.982
01/03/2022  15:44:00     -162.393       21.592        6.711      118.579       73.068       63.108    14061.038     5338.876     3982.566        2.513        1.169      163.822       66.202        0.163      335.699        6.504      858.040
01/03/2022  15:45:00     -233.598       69.070      -11.388       90.571       80.431       52.011     8203.086     6469.190     2705.187        3.842        0.869      243.595       48.797        0.040      335.756        6.597      858.024
01/03/2022  15:46:00     -214.353       33.288      -25.642       67.657       63.002       45.209     4577.429     3969.283     2043.811        2.915        0.530      216.922       14.684        0.005      335.528        6.220      857.983
01/03/2022  15:47:00      -83.414      134.967      -26.239       78.845       88.182       45.867     6216.599     7776.127     2103.807        2.098        0.805      158.663       34.196        0.046      335.673        6.462      857.915
01/03/2022  15:48:00     -189.602       61.316      -32.385      172.725       97.778       68.667    29834.086     9560.539     4715.143        4.243        2.205      199.271       75.335        0.143      335.528        6.220      857.951
01/03/2022  15:49:00     -246.531       76.868      -20.427      137.405      109.693       71.013    18880.260    12032.512     5042.903        5.152        1.798      258.236       61.477        0.057      335.549        6.254      857.981
01/03/2022  15:50:00     -274.960       49.171       -3.058      128.051       90.971       58.457    16397.150     8275.749     3417.264        5.306        1.405      279.322       59.855        0.046      335.524        6.211      857.988
01/03/2022  15:51:00     -250.304       34.600       -2.543      134.895       64.699       45.993    18196.765     4185.999     2115.381        4.417        1.225      252.684       50.203        0.039      335.552        6.260      857.998
01/03/2022  15:52:00     -311.934       81.519      -17.652      121.721       90.148       71.841    14816.123     8126.624     5161.077        6.618        1.405      322.409       66.140        0.042      335.500        6.172      858.052
01/03/2022  15:53:00      -80.233       57.395      -17.803      194.309      115.113       84.782    37756.017    13251.108     7187.962        3.411        2.910       98.648       79.443        0.649      335.518        6.203      858.079
01/03/2022  15:54:00     -261.013       89.089      -11.906      150.230      102.769       68.891    22569.057    10561.509     4745.915        5.703        1.894      275.799       69.494        0.063      335.519        6.203      858.110
01/03/2022  15:55:00     -186.750       67.559       -8.466      130.815      137.724       74.159    17112.539    18967.878     5499.544        4.054        2.079      198.594       68.887        0.120      335.519        6.205      858.063
01/03/2022  15:56:00     -363.862       85.353       -5.986      135.509      138.921       73.952    18362.816    19299.085     5468.929        9.142        2.157      373.739       75.802        0.041      335.499        6.170      858.025
01/03/2022  15:57:00     -313.489      120.230       -8.909      219.353      173.968       96.953    48115.861    30264.958     9399.912       10.028        4.389      335.754      107.316        0.102      335.458        6.102      858.061
01/03/2022  15:58:00     -278.880       80.730      -12.990      186.486      135.205       90.979    34776.952    18280.299     8277.165        7.289        3.067      290.330       83.845        0.083      335.471        6.123      858.076
01/03/2022  15:59:00     -165.322       47.425      -11.747      197.820      121.711      101.689    39132.865    14813.681    10340.704        4.699        3.214      171.989       60.755        0.125      335.447        6.084      858.132
01/03/2022  16:00:00     -236.543       82.323       -2.263      191.882      127.265       86.280    36818.644    16196.317     7444.282        6.159        3.023      250.459       62.538        0.062      335.450        6.090      858.094
01/03/2022  16:01:00     -273.743        9.766        2.122      210.074      136.031      109.090    44131.086    18504.531    11900.576        7.477        3.727      273.917       96.245        0.123      335.500        6.174      858.052
01/03/2022  16:02:00     -260.010      -52.547       -0.180      222.162      168.265      118.294    49355.808    28312.965    13993.562        8.100        4.583      265.267      112.176        0.179      335.584        6.312      857.977
01/03/2022  16:03:00     -387.303       94.720      -26.916      158.184      172.200       93.645    25022.117    29652.833     8769.368       11.156        3.172      398.717       51.326        0.017      335.615        6.363      857.883
01/03/2022  16:04:00     -357.544        8.299       -3.122      212.242      185.769      108.640    45046.836    34509.939    11802.609       10.962        4.568      357.641       95.951        0.072      335.657        6.433      857.763
01/03/2022  16:05:00     -366.620      -46.744      -35.584      275.702      145.818      113.035    76011.404    21262.752    12776.948       12.394        5.503      369.588      126.998        0.118      335.646        6.416      857.722
01/03/2022  16:06:00     -454.975       11.082      -27.944      152.931      120.674       89.774    23387.913    14562.193     8059.400       12.695        2.300      455.110       76.103        0.028      335.678        6.468      857.713
01/03/2022  16:07:00     -307.129       93.210      -13.681      221.137      183.187       88.495    48901.543    33557.546     7831.445        9.673        4.515      320.962       75.810        0.056      335.692        6.492      857.759
01/03/2022  16:08:00     -356.361       42.961       -2.542      193.833      182.831       88.853    37571.282    33427.262     7894.782       10.385        3.945      358.941       75.789        0.045      335.651        6.423      857.787
01/03/2022  16:09:00     -520.641       84.173      -18.990      245.521      193.697      119.464    60280.753    37518.523    14271.675       19.527        5.604      527.401      104.876        0.040      335.689        6.485      857.734
01/03/2022  16:10:00     -296.871      136.855       30.034      213.025      201.393      118.742    45379.483    40559.337    14099.778       10.388        5.002      326.897      112.119        0.118      335.710        6.522      857.694
01/03/2022  16:11:00     -337.530      -29.503      -18.760      310.290      191.101      129.025    96280.158    36519.472    16647.393       13.227        7.472      338.817      122.526        0.131      335.674        6.462      857.753
01/03/2022  16:12:00     -230.772       64.155      -19.933      288.534      161.518       95.984    83252.024    26088.110     9212.898        8.814        5.928      239.524       58.694        0.060      335.728        6.555      857.758
01/03/2022  16:13:00     -443.888       70.470      -13.493      231.199      149.234      104.734    53452.983    22270.723    10969.114       14.442        4.335      449.447      106.884        0.057      335.681        6.473      857.760
01/03/2022  16:14:00     -285.269      -31.534      -12.540      231.406      131.401      106.490    53548.555    17266.286    11340.203        8.233        4.108      287.006      115.363        0.162      335.706        6.516      857.696
01/03/2022  16:15:00     -297.945      -32.337      -17.329      185.193      127.124       90.154    34296.320    16160.506     8127.714        7.434        2.929      299.695       69.457        0.054      335.687        6.484      857.702
01/03/2022  16:16:00     -222.564       49.481       -7.443      160.938      118.935       76.137    25901.158    14145.529     5796.879        4.893        2.292      227.997       76.543        0.113      335.689        6.488      857.776
01/03/2022  16:17:00     -316.655       91.465       -4.423      219.711      125.126       95.942    48272.922    15656.512     9204.856        9.088        3.657      329.600       93.273        0.080      335.643        6.411      857.806
01/03/2022  16:18:00     -352.242       56.661      -28.604      199.808      140.672       86.621    39923.205    19788.554     7503.120        9.765        3.361      356.770       97.843        0.075      335.663        6.443      857.831
01/03/2022  16:19:00     -364.561      -57.805       -9.645      324.910      160.908      141.203   105566.758    25891.381    19938.300       14.384        7.570      369.116      150.621        0.167      335.592        6.325      857.808
01/03/2022  16:20:00     -144.582       -4.389       -5.245      217.470      124.560      101.246    47293.251    15515.273    10250.704        4.699        3.653      144.648      108.527        0.563      335.505        6.182      857.867
01/03/2022  16:21:00     -129.370        7.328      -11.320      136.473      119.791       82.028    18624.980    14349.813     6728.661        2.830        1.985      129.577       66.353        0.262      335.517        6.201      857.856
01/03/2022  16:22:00     -189.207      -21.585      -11.444      255.937      138.430      101.696    65503.948    19162.851    10342.065        6.569        4.750      190.434      107.258        0.317      335.438        6.069      857.812
01/03/2022  16:23:00     -263.692      -19.924        5.599      254.501      129.123      101.005    64770.990    16672.822    10201.984        8.079        4.582      264.444      116.439        0.194      335.464        6.112      857.768
01/03/2022  16:24:00     -447.391      138.866       -6.226      236.019      169.467      120.160    55705.056    28718.970    14438.453       15.915        4.943      468.447      121.582        0.067      335.454        6.095      857.747
01/03/2022  16:25:00     -444.965       75.309      -28.979      235.690      178.313      110.657    55549.913    31795.643    12245.057       15.203        4.980      451.293       95.005        0.044      335.490        6.154      857.690
01/03/2022  16:26:00     -402.082       28.221      -39.283      338.620      186.495      154.784   114663.365    34780.357    23958.133       16.867        8.670      403.071      148.422        0.136      335.525        6.215      857.647
01/03/2022  16:27:00     -324.760       17.755      -17.940      242.527      182.054      130.504    58819.370    33143.592    17031.392       10.753        5.450      325.245      130.730        0.162      335.565        6.281      857.634
01/03/2022  16:28:00     -188.714        8.755       -6.422      237.011      143.385      105.291    56174.430    20559.369    11086.178        6.176        4.391      188.917       93.066        0.243      335.590        6.323      857.548
01/03/2022  16:29:00     -206.647       39.142      -22.582      280.865      193.651      123.980    78885.381    37500.764    15370.939        8.823        6.588      210.321      139.059        0.437      335.606        6.348      857.488
01/03/2022  16:30:00     -291.983       44.947      -14.925      302.866      159.912      111.942    91728.065    25571.982    12530.976       10.864        6.492      295.422       93.292        0.100      335.594        6.330      857.476
01/03/2022  16:31:00     -449.995      112.212       11.645      273.428      185.067      115.654    74762.626    34249.672    13375.906       16.878        6.119      463.775      100.615        0.047      335.617        6.367      857.388
01/03/2022  16:32:00     -255.116      120.910      -18.827      166.522      136.144       79.319    27729.652    18535.232     6291.546        6.630        2.628      282.318       76.625        0.074      335.657        6.434      857.343
01/03/2022  16:33:00     -344.916       81.813      -21.703      242.868      132.559       86.739    58984.807    17571.958     7523.571       10.509        4.204      354.486       85.691        0.058      335.536        6.233      857.375
01/03/2022  16:34:00     -516.340      -34.478      -19.435      377.074      192.635      142.504   142184.796    37108.147    20307.497       23.385        9.980      517.490      167.572        0.105      335.623        6.378      857.414
01/03/2022  16:35:00     -627.338      -35.527      -50.395      343.162      230.104      133.649   117760.151    52947.721    17862.007       29.293        9.428      628.343      142.009        0.051      335.944        6.912      857.301
01/03/2022  16:36:00     -359.780        7.188       -2.361      301.055      144.281      107.457    90634.048    20817.151    11546.960       12.623        6.150      359.852      111.063        0.095      335.820        6.705      857.265
01/03/2022  16:37:00     -301.007       49.061      -10.519      229.969      123.478      118.780    52885.518    15246.914    14108.696        8.767        4.112      304.979      127.529        0.175      335.780        6.639      857.273
01/03/2022  16:38:00     -283.100        4.311      -26.368      179.090      165.614       99.685    32073.260    27428.116     9937.062        7.514        3.472      283.133       89.391        0.100      335.796        6.665      857.285
01/03/2022  16:39:00     -201.060       24.460       -2.893      137.478      117.885       84.121    18900.239    13896.845     7076.279        4.045        1.994      202.542       59.008        0.085      335.779        6.637      857.295
01/03/2022  16:40:00     -331.752       19.135       -9.328      220.726       98.458       78.248    48720.013     9693.980     6122.825        8.751        3.227      332.303       63.514        0.037      335.796        6.666      857.320
01/03/2022  16:41:00     -359.700       69.749      -16.463      171.321      108.525       70.749    29350.841    11777.723     5005.449        9.032        2.307      366.401       72.585        0.039      335.657        6.433      857.288
01/03/2022  16:42:00     -200.132      -11.995       -0.999      176.004      120.368       92.846    30977.526    14488.388     8620.449        4.713        2.704      200.491       89.870        0.201      335.569        6.288      857.324
01/03/2022  16:43:00     -204.614       55.061       -2.366      166.141      111.695       74.791    27602.901    12475.884     5593.728        4.528        2.284      211.893       79.157        0.140      335.556        6.266      857.435
01/03/2022  16:44:00     -322.046      132.925      -20.680      119.052       94.573       65.842    14173.436     8944.119     4335.203        7.463        1.373      348.400       49.242        0.020      335.527        6.217      857.456
01/03/2022  16:45:00     -155.804       15.068        6.525      161.418      103.500       77.472    26055.613    10712.262     6001.902        3.365        2.138      156.531       66.458        0.180      335.469        6.123      857.480
01/03/2022  16:46:00     -201.340       51.177      -10.605      220.268      128.865       88.296    48518.110    16606.233     7796.114        5.808        3.646      207.742       93.273        0.202      335.424        6.047      857.548
01/03/2022  16:47:00     -270.690       95.875      -20.398      216.124      148.507       91.780    46709.607    22054.222     8423.590        8.002        3.859      287.168       74.538        0.067      335.395        5.999      857.506
01/03/2022  16:48:00     -476.244       92.856       -8.645      255.039      149.540       99.551    65044.668    22362.126     9910.350       16.639        4.866      485.212      109.038        0.051      335.380        5.972      857.420
01/03/2022  16:49:00     -315.545      119.358        7.712      212.406      129.054      100.233    45116.240    16654.910    10046.706        9.283        3.591      337.365       98.412        0.085      335.400        6.006      857.444
01/03/2022  16:50:00     -253.404       70.799      -26.083      205.784      149.072       83.157    42347.131    22222.389     6915.092        7.068        3.574      263.108       43.559        0.027      335.425        6.048      857.411
01/03/2022  16:51:00     -574.114       54.277      -35.953      349.199      171.873       97.777   121939.943    29540.339     9560.272       24.741        8.052      576.674      109.319        0.036      335.402        6.010      857.440
01/03/2022  16:52:00     -588.803      187.493       -0.652      285.812      235.850      133.243    81688.543    55625.059    17753.765       26.843        7.753      617.934      126.979        0.042      335.373        5.960      857.401
01/03/2022  16:53:00     -713.531      174.321      -12.488      264.606      166.082      115.302    70016.541    27583.184    13294.634       32.526        5.545      734.517      119.913        0.027      335.323        5.875      857.429
01/03/2022  16:54:00     -614.955      262.684       -9.786      282.451      216.039      134.504    79778.771    46672.966    18091.288       29.588        7.227      668.710      139.535        0.044      335.404        6.012      857.473
01/03/2022  16:55:00     -432.625      166.170       -5.040      315.263      198.598      127.656    99390.811    39441.121    16296.151       18.494        7.756      463.440      134.646        0.084      335.413        6.027      857.396
01/03/2022  16:56:00     -606.167      113.003      -28.596      389.542      267.942      145.504   151743.048    71792.849    21171.442       31.282       12.235      616.610      138.764        0.051      335.410        6.022      857.434
01/03/2022  16:57:00     -308.148      120.978       16.202      327.274      191.208      134.588   107108.168    36560.461    18113.941       13.579        8.089      331.045      143.938        0.189      335.399        6.005      857.444
01/03/2022  16:58:00     -587.236      269.486      -27.073      305.480      233.848      134.569    93318.003    54684.772    18108.713       29.213        8.306      646.119      125.388        0.038      335.407        6.017      857.412
01/03/2022  16:59:00     -471.716      183.733      -23.185      251.254      195.524      112.549    63128.512    38229.672    12667.259       18.540        5.701      506.235       93.739        0.034      335.383        5.977      857.425
01/03/2022  17:00:00     -477.360      187.755       -0.383      272.120      200.460      132.310    74049.470    40184.040    17506.009       19.741        6.587      512.957      128.009        0.062      335.316        5.866      857.446
01/03/2022  17:01:00     -450.864      138.756        1.085      282.460      187.903      118.166    79783.492    35307.566    13963.213       17.577        6.453      471.732      135.408        0.082      335.265        5.778      857.469
01/03/2022  17:02:00     -235.096       63.359        7.111      279.149      195.228      105.664    77924.311    38113.963    11164.889        9.325        6.360      243.484      109.587        0.203      335.270        5.789      857.510
01/03/2022  17:03:00     -385.965       99.259       12.122      286.278      196.578      112.061    81955.115    38642.726    12557.626       14.604        6.658      398.524      121.031        0.092      335.296        5.833      857.500
01/03/2022  17:04:00     -334.623      100.137       14.248      296.539      187.851      130.348    87935.486    35287.904    16990.554       13.118        7.011      349.285      115.610        0.110      335.240        5.739      857.519
01/03/2022  17:05:00     -346.789       81.148      -30.906      318.616      173.620      106.135   101515.942    30143.831    11264.649       13.534        7.146      356.156       85.123        0.057      335.256        5.764      857.521
01/03/2022  17:06:00     -190.126       17.440      -22.707      236.310      181.439      136.465    55842.600    32920.014    18622.579        7.216        5.369      190.925      121.206        0.403      335.224        5.712      857.487
01/03/2022  17:07:00     -489.424      184.707       11.578      340.209      228.075      129.235   115742.229    52018.133    16701.648       22.909        9.223      523.118      125.038        0.057      335.289        5.821      857.419
01/03/2022  17:08:00     -324.904       65.881        8.972      304.700      184.282      132.229    92842.327    33959.814    17484.563       12.711        7.214      331.516      144.667        0.190      335.285        5.813      857.366
01/03/2022  17:09:00     -517.312      177.104      -15.777      336.410      220.207      133.743   113171.816    48491.028    17887.163       23.936        8.978      546.788      139.003        0.065      335.368        5.951      857.351
01/03/2022  17:10:00     -668.837        9.341      -55.880      356.800      237.053      129.759   127305.969    56194.348    16837.516       32.541       10.017      668.902      113.502        0.029      335.392        5.992      857.316
01/03/2022  17:11:00     -412.657      162.783      -39.573      266.353      155.683      103.638    70943.789    24237.270    10740.902       15.212        5.296      443.604      108.637        0.060      335.370        5.955      857.301
01/03/2022  17:12:00     -341.062       89.900       -0.250      344.909      299.502      136.267   118962.458    89701.186    18568.664       17.578       11.362      352.711      144.537        0.168      335.393        5.994      857.253
01/03/2022  17:13:00     -319.224      179.782       -1.205      298.350      211.615      130.708    89012.475    44780.788    17084.710       14.252        7.544      366.368      133.930        0.134      335.372        5.959      857.258
01/03/2022  17:14:00     -401.888      -35.267      -19.265      288.683      189.612      123.075    83337.767    35952.736    15147.437       14.876        6.722      403.432      113.999        0.080      335.314        5.863      857.342
01/03/2022  17:15:00     -314.784      -21.726      -12.837      311.822      155.083      112.835    97232.850    24050.754    12731.741       11.685        6.701      315.533      129.974        0.170      335.287        5.817      857.325
01/03/2022  17:16:00     -348.688       24.950       -1.776      292.526      181.950      112.228    85571.324    33105.782    12595.131       12.672        6.564      349.579      107.283        0.094      335.243        5.745      857.379
01/03/2022  17:17:00     -330.251       87.085      -12.246      241.556      175.608      123.903    58349.449    30838.264    15352.007       11.065        5.227      341.539      108.467        0.101      335.252        5.759      857.395
01/03/2022  17:18:00     -187.310       14.161      -18.419      284.449      151.646      118.304    80911.370    22996.381    13995.758        7.674        5.895      187.844      102.650        0.299      335.230        5.724      857.330
01/03/2022  17:19:00     -515.448      100.402      -21.573      293.360      183.628      117.220    86060.150    33719.096    13740.592       20.485        6.676      525.136      101.480        0.037      335.250        5.756      857.231
01/03/2022  17:20:00     -404.724      104.760       10.742      286.911      177.869      113.787    82317.688    31637.432    12947.545       15.087        6.345      418.062      117.209        0.079      335.316        5.866      857.364
01/03/2022  17:21:00     -661.657       53.588      -28.716      395.585      211.427      128.839   156487.195    44701.482    16599.413       32.960       10.889      663.824      158.123        0.057      335.347        5.918      857.274
01/03/2022  17:22:00     -721.832      180.759      -13.810      360.444      276.335      134.634   129919.652    76361.078    18126.273       38.912       11.220      744.121      130.935        0.031      335.417        6.032      857.182
01/03/2022  17:23:00     -546.959      185.292      -17.868      285.900      229.781      149.320    81739.021    52799.313    22296.459       24.530        7.842      577.492      139.093        0.058      335.372        5.958      857.220
01/03/2022  17:24:00     -522.540       73.885        1.929      394.834      242.364      154.075   155893.969    58740.387    23739.066       25.840       11.919      527.738      158.782        0.091      335.437        6.068      857.195
01/03/2022  17:25:00     -516.470        4.018      -21.324      385.669      289.030      160.011   148740.911    83538.083    25603.597       26.250       12.894      516.486      156.319        0.092      335.521        6.207      857.160
01/03/2022  17:26:00     -660.264      -29.789      -43.986      320.415      175.503      144.227   102665.503    30801.253    20801.331       29.649        7.713      660.935      145.508        0.048      335.485        6.145      857.259
01/03/2022  17:27:00     -301.246        7.820       16.222      385.041      228.213      180.298   148256.329    52080.969    32507.260       16.192       11.642      301.347      188.141        0.390      335.474        6.128      857.330
01/03/2022  17:28:00     -322.439       -3.460        0.578      369.703      192.881      155.598   136679.980    37203.165    24210.806       15.100        9.905      322.458      165.332        0.263      335.503        6.177      857.246
01/03/2022  17:29:00     -428.250      161.352      -12.509      301.496      196.379      141.632    90900.050    38564.851    20059.659       17.953        7.476      457.638      128.426        0.079      335.507        6.182      857.159
01/03/2022  17:30:00     -502.921      107.046       -1.943      335.180      220.563      129.236   112345.545    48648.223    16701.910       22.101        8.885      514.187      152.075        0.087      335.491        6.157      857.169
01/03/2022  17:31:00     -661.294        0.637      -15.595      436.885      248.855      171.336   190868.346    61928.825    29355.971       35.980       14.108      661.294      189.697        0.082      335.649        6.420      857.184
01/03/2022  17:32:00     -494.829       70.022      -65.920      421.128      195.915      137.344   177348.597    38382.532    18863.421       24.431       11.730      499.759      144.818        0.084      335.592        6.325      857.179
01/03/2022  17:33:00     -427.599       98.699       -7.152      252.418      203.044      137.612    63715.072    41226.945    18937.017       15.823        6.194      438.843      126.605        0.083      335.510        6.188      857.174
01/03/2022  17:34:00     -327.314        1.154        0.221      267.663      208.540      147.287    71643.677    43489.069    21693.330       12.196        6.841      327.316      152.775        0.218      335.501        6.173      857.183
01/03/2022  17:35:00     -399.300      182.587      -14.084      423.496      227.407      130.175   179349.254    51714.110    16945.610       22.045       12.400      439.066      150.463        0.117      335.633        6.394      857.160
01/03/2022  17:36:00     -553.373      -16.812      -28.900      464.999      245.406      167.216   216224.412    60223.860    27961.325       30.582       15.220      553.628      198.346        0.128      335.724        6.545      857.192
01/03/2022  17:37:00     -665.257      -21.035      -17.360      454.579      280.238      198.135   206642.072    78533.391    39257.485       38.381       16.222      665.589      214.515        0.104      335.765        6.613      857.125
01/03/2022  17:38:00     -354.913       28.218        3.107      372.593      212.327      162.445   138825.872    45082.719    26388.537       16.849       10.515      356.033      170.551        0.229      335.719        6.536      857.095
01/03/2022  17:39:00     -494.625      -12.387      -46.574      359.464      200.369      136.843   129214.450    40147.774    18725.967       21.750        9.404      494.780      152.320        0.095      335.647        6.417      857.157
01/03/2022  17:40:00     -361.716       87.777      -25.215      343.277      222.586      153.594   117839.333    49544.340    23591.021       16.504        9.549      372.214      159.605        0.184      335.593        6.327      857.116
01/03/2022  17:41:00     -498.983      -32.587      -18.744      342.951      217.894      154.412   117615.482    47477.588    23843.122       21.963        9.447      500.046      178.934        0.128      335.632        6.392      857.000
01/03/2022  17:42:00     -365.918       14.987      -36.645      305.139      195.600      128.265    93109.942    38259.527    16451.898       14.162        7.391      366.225      148.272        0.164      335.567        6.284      857.086
01/03/2022  17:43:00     -303.937      132.581      -24.351      283.151      213.683      142.535    80174.720    45660.423    20316.089       12.832        7.308      331.595      105.357        0.101      335.529        6.221      857.097
01/03/2022  17:44:00     -288.868       81.955        2.437      278.669      221.355      127.344    77656.254    48998.148    16216.561       11.649        7.144      300.269      114.050        0.144      335.507        6.185      857.096
01/03/2022  17:45:00     -272.372       41.986        4.692      268.690      168.821      107.787    72194.089    28500.567    11618.143        9.412        5.616      275.589       91.425        0.110      335.535        6.232      857.133
01/03/2022  17:46:00     -321.569       85.559       -6.851      200.758      167.720      109.587    40303.710    28130.008    12009.314        9.559        4.022      332.756      109.724        0.109      335.561        6.273      857.186
01/03/2022  17:47:00     -368.292       79.170      -13.435      265.047      179.229      108.305    70249.923    32122.882    11729.955       12.807        5.705      376.705      122.772        0.106      335.563        6.278      857.236
01/03/2022  17:48:00     -655.413       56.192      -74.905      334.869      215.881      142.481   112137.523    46604.559    20300.786       30.866        8.952      657.818      140.268        0.045      335.672        6.459      857.139
01/03/2022  17:49:00     -613.824       72.062      -26.573      397.013      226.018      169.203   157619.126    51083.984    28629.653       30.996       11.867      618.040      171.365        0.077      335.704        6.513      857.159
01/03/2022  17:50:00     -400.591       50.781      -13.380      243.386      220.009      116.191    59236.759    48403.914    13500.333       14.216        6.057      403.797      122.943        0.093      335.761        6.607      857.205
01/03/2022  17:51:00     -441.560      151.996      -10.957      248.658      176.212      110.724    61830.773    31050.717    12259.781       16.165        5.257      466.988      119.664        0.066      335.720        6.538      857.215
01/03/2022  17:52:00     -398.171      103.955        0.182      279.944      215.855      132.225    78368.810    46593.430    17483.536       15.587        7.122      411.517      115.873        0.079      335.725        6.547      857.181
01/03/2022  17:53:00     -442.986      165.150       -8.686      353.308      222.275      144.054   124826.782    49406.325    20751.676       20.925        9.749      472.770      122.527        0.067      335.718        6.535      857.156
01/03/2022  17:54:00     -545.271      240.295        1.702      339.128      197.459      143.793   115007.498    38989.947    20676.414       26.484        8.734      595.871      156.689        0.069      335.708        6.519      857.127
01/03/2022  17:55:00     -418.076      163.235      -16.534      303.768      202.175      109.627    92274.956    40874.661    12018.047       17.341        7.258      448.813      104.879        0.055      335.624        6.378      857.150
01/03/2022  17:56:00     -508.555       62.335      -16.175      275.921      147.658      116.556    76132.321    21802.954    13585.380       18.713        5.576      512.361      121.874        0.057      335.523        6.211      857.160
01/03/2022  17:57:00     -261.178      132.186       13.188      200.363      149.896      114.153    40145.516    22468.800    13031.021        8.074        3.782      292.724      104.527        0.128      335.552        6.259      857.215
01/03/2022  17:58:00     -399.868       95.207        0.863      300.336      183.269      125.942    90201.772    33587.559    15861.502       15.428        6.983      411.046      135.930        0.109      335.643        6.411      857.218
01/03/2022  17:59:00     -574.511       80.799      -41.888      356.529      197.648      119.692   127112.919    39064.823    14326.131       25.939        9.025      580.164      146.127        0.063      335.684        6.479      857.184
01/03/2022  18:00:00     -611.602      244.224      -53.419      298.501      219.163      126.650    89102.833    48032.267    16040.103       29.484        7.659      658.560      120.598        0.034      335.761        6.608      857.163
01/03/2022  18:01:00     -365.207      109.091       -0.394      234.785      218.402      108.023    55124.189    47699.442    11668.944       12.986        5.725      381.152       89.767        0.055      335.749        6.586      857.135
01/03/2022  18:02:00     -560.969      191.813        6.287      305.997      175.329      141.394    93634.344    30740.189    19992.328       24.792        7.218      592.857      120.048        0.041      335.762        6.608      857.064
01/03/2022  18:03:00     -175.860       51.172       16.985      252.779      165.325      107.899    63897.183    27332.333    11642.174        6.833        5.144      183.153      119.187        0.423      335.806        6.683      857.112
01/03/2022  18:04:00     -315.507       56.874      -15.870      268.257      184.255      119.944    71961.778    33950.045    14386.561       11.164        6.015      320.592      113.521        0.125      335.687        6.483      857.067
01/03/2022  18:05:00     -359.930      140.705       17.184      262.536      200.735      117.592    68925.246    40294.593    13827.979       13.632        6.152      386.455      118.497        0.094      335.648        6.419      857.037
01/03/2022  18:06:00     -242.988       40.658       -0.913      191.891      140.466       86.997    36822.223    19730.749     7568.486        6.240        3.206      246.366       76.594        0.097      335.721        6.541      856.932
01/03/2022  18:07:00     -524.410        4.924      -32.116      328.549      172.670      124.798   107944.755    29814.914    15574.468       21.467        7.667      524.433      111.555        0.045      335.862        6.774      857.123
01/03/2022  18:08:00     -442.951       23.581       -8.315      296.681      167.714      121.789    88019.871    28127.997    14832.640       16.388        6.549      443.578      131.901        0.088      335.819        6.703      857.103
01/03/2022  18:09:00     -387.145       28.813      -14.497      353.734      270.451      140.461   125128.046    73143.864    19729.414       18.442       10.900      388.216      129.609        0.111      335.770        6.624      857.160
01/03/2022  18:10:00     -585.534      132.586      -45.239      242.155      151.933      115.865    58639.098    23083.591    13424.769       22.879        4.757      600.358       99.462        0.027      335.749        6.587      857.059
01/03/2022  18:11:00     -371.807       24.753      -20.642      224.280      170.551       95.243    50301.353    29087.723     9071.170       11.385        4.423      372.630      100.090        0.072      335.743        6.576      857.144
01/03/2022  18:12:00     -305.961       79.999      -15.673      192.047      185.643       95.727    36882.231    34463.465     9163.635        9.037        4.025      316.247       97.313        0.095      335.785        6.648      857.110
01/03/2022  18:13:00     -365.801      192.063      -24.245      290.797      196.813      106.314    84562.972    38735.293    11302.668       15.292        6.730      413.157      114.384        0.077      335.823        6.711      857.090
01/03/2022  18:14:00     -234.260       90.838       -9.514      220.345      131.610       83.230    48551.971    17321.149     6927.264        6.800        3.640      251.255       76.170        0.092      335.757        6.599      857.068
01/03/2022  18:15:00     -213.636       70.274      -20.863      186.593      172.176       99.454    34816.763    29644.637     9891.089        6.267        3.718      224.898       73.509        0.107      335.745        6.582      857.134
01/03/2022  18:16:00     -473.004       78.802      -50.423      226.516      205.571      105.587    51309.458    42259.453    11148.597       16.858        5.236      479.523       90.282        0.035      335.788        6.651      857.205
01/03/2022  18:17:00     -253.964       68.254       -3.642      276.813      194.051      114.587    76625.412    37655.689    13130.291        9.827        6.371      262.976      103.536        0.155      335.752        6.593      857.101
01/03/2022  18:18:00      -61.064       96.873       10.173      176.730      161.664       98.875    31233.518    26135.349     9776.203        4.017        3.357      114.513       66.735        0.340      335.747        6.583      857.068
01/03/2022  18:19:00     -493.295      148.840        4.768      298.534      200.439      103.811    89122.667    40175.868    10776.691       20.277        7.004      515.261      121.882        0.056      335.792        6.658      857.089
01/03/2022  18:20:00     -412.241      130.763       -3.210      278.841      163.146       78.823    77752.313    26616.575     6213.047       14.880        5.529      432.483       70.312        0.026      335.723        6.544      857.088
01/03/2022  18:21:00     -530.430      138.761       -6.830      288.255      166.770      106.788    83091.018    27812.091    11403.714       21.146        6.115      548.279      127.699        0.054      335.855        6.764      856.998
01/03/2022  18:22:00     -112.674       48.457       -6.867      145.723      123.412       61.713    21235.198    15230.605     3808.495        2.768        2.014      122.652       41.896        0.117      335.815        6.698      857.098
01/03/2022  18:23:00     -131.207      -30.252        6.461      231.007      117.572       93.505    53364.342    13823.209     8743.232        4.704        3.797      134.649      101.655        0.570      335.741        6.575      857.032
01/03/2022  18:24:00     -458.780      152.627       -5.128      248.950      147.175       99.517    61976.055    21660.523     9903.570       16.365        4.677      483.501       89.108        0.034      335.760        6.605      856.907
01/03/2022  18:25:00     -444.679       79.875      -34.408      347.941      169.938      114.952   121062.958    28879.039    13214.046       18.420        8.158      451.796      134.321        0.088      335.859        6.771      856.974
01/03/2022  18:26:00     -427.900      121.944      -11.429      320.775      223.252      140.350   102896.685    49841.601    19698.060       18.524        8.622      444.937      131.551        0.087      335.905        6.847      856.940
01/03/2022  18:27:00     -200.622       -2.372      -22.704      206.561      123.376      105.234    42667.569    15221.648    11074.099        5.485        3.448      200.636       98.476        0.241      335.855        6.765      856.975
01/03/2022  18:28:00      -92.533       -2.127       -2.652      175.519      128.609      107.693    30807.078    16540.189    11597.693        3.375        2.947       92.558      102.061        1.216      335.865        6.782      857.051
01/03/2022  18:29:00     -175.459       35.637       -6.424      188.721      151.961       80.592    35615.457    23091.996     6495.140        4.864        3.260      179.042       82.109        0.210      335.874        6.796      857.031
01/03/2022  18:30:00     -318.566       42.606       -0.880      239.651       93.582       72.511    57432.827     8757.545     5257.861        8.736        3.572      321.402       80.110        0.062      335.786        6.650      857.125
01/03/2022  18:31:00     -418.330        8.379       -6.012      317.689      180.697      133.506   100926.571    32651.241    17823.855       16.323        7.570      418.414      124.586        0.089      335.909        6.855      857.076
01/03/2022  18:32:00     -408.060      -14.394      -15.049      256.294      192.575      139.645    65686.701    37084.971    19500.724       14.459        6.114      408.314      130.928        0.103      335.909        6.852      856.971
01/03/2022  18:33:00     -333.912      104.126       16.656      229.585      175.599      108.338    52709.239    30835.038    11737.028       10.893        4.764      349.771      100.527        0.083      336.013        7.026      857.105
01/03/2022  18:34:00     -192.605        3.401      -23.340      114.817      119.069       62.182    13182.977    14177.520     3866.550        3.443        1.561      192.635       38.309        0.040      335.940        6.905      857.093
01/03/2022  18:35:00     -304.673       23.979      -28.289      195.550      145.826      100.081    38239.658    21265.294    10016.230        8.185        3.476      305.615       95.346        0.097      335.831        6.724      857.049
01/03/2022  18:36:00     -392.979      120.660      -19.498      232.502      142.100      107.266    54057.251    20192.347    11505.929       12.755        4.288      411.085      110.519        0.072      335.767        6.617      857.057
01/03/2022  18:37:00     -416.828      148.541      -12.667      181.292      172.988       85.349    32866.689    29924.837     7284.509       13.301        3.504      442.504       76.716        0.030      335.857        6.768      857.109
01/03/2022  18:38:00     -258.590      125.228       -2.901      155.750      156.878       78.084    24258.059    24610.766     6097.088        6.875        2.748      287.317       69.037        0.058      335.893        6.828      857.116
01/03/2022  18:39:00     -203.411       33.021      -10.034      169.414      105.319       86.762    28700.965    11092.159     7527.597        4.494        2.366      206.074       94.157        0.209      335.807        6.684      857.142
01/03/2022  18:40:00     -395.610      -71.417      -52.897      187.240      121.085       94.355    35058.951    14661.576     8902.800       11.150        2.931      402.005       81.374        0.041      335.864        6.779      857.167
01/03/2022  18:41:00     -348.888       41.757      -21.929      257.321      164.582      108.763    66214.286    27087.159    11829.441       11.452        5.257      351.378      128.001        0.133      335.852        6.758      857.041
01/03/2022  18:42:00     -493.528       66.664       -6.986      275.224      208.014      137.225    75748.434    43269.893    18830.710       19.293        6.892      498.010      135.334        0.074      335.921        6.874      857.044
01/03/2022  18:43:00     -185.097       37.372      -52.189      211.998      150.154       95.225    44943.301    22546.267     9067.893        5.746        3.828      188.832       70.680        0.140      335.986        6.982      857.195
01/03/2022  18:44:00     -210.088       47.256      -30.525      209.225      145.320       92.399    43774.906    21117.813     8537.578        6.035        3.672      215.337       88.021        0.167      335.936        6.899      857.060
01/03/2022  18:45:00     -330.613       89.397        7.870      400.629      211.468      144.278   160503.929    44718.916    20816.184       17.166       11.302      342.486      125.191        0.134      335.955        6.931      857.065
01/03/2022  18:46:00     -269.552       57.327      -12.601      262.830      174.747      115.291    69079.526    30536.550    13292.093        9.449        5.645      275.581      117.184        0.181      335.935        6.898      857.047
01/03/2022  18:47:00     -373.929      102.188       -4.737      226.521      182.576      107.751    51311.790    33333.941    11610.292       12.325        4.813      387.641      109.486        0.080      336.036        7.066      856.984
01/03/2022  18:48:00     -306.108       43.004       -5.150      378.411      230.750      155.235   143194.655    53245.361    24098.038       15.802       11.027      309.114      158.028        0.261      336.068        7.117      856.962
01/03/2022  18:49:00     -495.174      -19.045      -13.188      418.899      249.073      156.971   175476.512    62037.487    24640.020       25.390       13.108      495.540      174.307        0.124      336.093        7.160      856.951
01/03/2022  18:50:00     -531.270       -8.584      -11.971      310.957      188.931      153.299    96694.432    35695.022    23500.704       21.915        7.795      531.339      173.999        0.107      336.083        7.143      857.093
01/03/2022  18:51:00     -314.277       33.855      -17.487      270.165      193.166      130.063    72988.950    37313.217    16916.368       11.370        6.361      316.095      123.863        0.154      336.020        7.039      857.143
01/03/2022  18:52:00     -517.263      -18.682      -16.646      342.640      244.328      176.501   117402.162    59696.113    31152.497       23.818       10.413      517.601      184.412        0.127      335.986        6.982      857.110
01/03/2022  18:53:00     -463.994      -34.474        0.505      391.362      245.297      176.404   153164.535    60170.831    31118.377       23.042       12.223      465.273      180.384        0.150      335.967        6.949      857.197
01/03/2022  18:54:00     -615.648      -87.750      -42.035      354.766      237.690      150.757   125858.993    56496.449    22727.618       29.675       10.254      621.870      158.291        0.065      335.966        6.949      857.272
01/03/2022  18:55:00     -558.468      -49.795      -14.841      367.390      177.662      153.105   134975.191    31563.913    23441.241       25.225        9.499      560.684      173.406        0.096      335.964        6.945      857.257
01/03/2022  18:56:00     -490.493      -51.428      -41.315      249.431      172.610      115.826    62215.596    29794.180    13415.760       17.516        5.271      493.182      112.827        0.052      335.956        6.931      857.347
01/03/2022  18:57:00     -526.349       19.711      -25.200      306.562      185.105      124.439    93979.972    34263.830    15485.015       21.087        7.186      526.718      129.492        0.060      335.959        6.936      857.317
01/03/2022  18:58:00     -499.761       32.706      -14.545      318.471      215.969      116.587   101423.615    46642.465    13592.638       20.632        8.083      500.830      117.776        0.055      335.993        6.994      857.294
01/03/2022  18:59:00     -454.089      -32.687       -8.494      308.641      175.900      109.445    95259.456    30940.739    11978.239       17.273        6.909      455.264      122.010        0.072      335.979        6.969      857.416
01/03/2022  19:00:00     -776.714      -32.939      -53.261      339.222      205.062      140.989   115071.229    42050.350    19877.958       39.207        8.850      777.412      138.932        0.032      336.000        7.005      857.508
01/03/2022  19:01:00     -440.885      -63.390      -39.237      239.158      131.532       91.156    57196.583    17300.552     8309.347       14.136        4.140      445.419      103.132        0.054      336.013        7.026      857.365
01/03/2022  19:02:00     -429.666      -95.133      -58.644      204.519      194.438      119.036    41828.086    37806.268    14169.473       14.544        4.690      440.072      114.544        0.068      336.023        7.044      857.480
01/03/2022  19:03:00     -515.381      -51.631      -29.988      302.856      259.339      148.964    91721.460    67256.839    22190.352       22.514        9.058      517.960      136.985        0.070      336.038        7.068      857.560
01/03/2022  19:04:00     -465.698      -35.543      -33.870      383.556      233.084      129.128   147114.958    54328.036    16673.914       21.866       10.906      467.052      137.841        0.087      336.011        7.024      857.641
01/03/2022  19:05:00     -399.506      -79.104      -25.278      182.903      196.348       98.579    33453.602    38552.582     9717.867       12.410        4.086      407.262       95.513        0.055      336.048        7.086      857.604
01/03/2022  19:06:00     -249.775       -5.976      -22.089      182.212      193.397      100.560    33201.225    37402.431    10112.410        7.180        4.036      249.846       77.409        0.096      335.976        6.966      857.595
01/03/2022  19:07:00     -713.880      -13.891      -24.718      471.772      262.219      183.927   222568.940    68758.713    33828.990       41.773       16.258      714.015      216.517        0.092      336.159        7.272      857.620
01/03/2022  19:08:00     -563.035      -33.263        0.102      430.033      202.470      164.449   184928.053    40994.247    27043.405       28.549       12.648      564.017      188.102        0.111      336.152        7.259      857.616
01/03/2022  19:09:00     -398.686      -93.944      -46.227      195.899      153.010      102.339    38376.396    23412.202    10473.373       12.107        3.613      409.604       67.617        0.027      336.170        7.288      857.672
01/03/2022  19:10:00     -339.513       -2.165        0.663      215.399      155.682      103.193    46396.896    24236.853    10648.894        9.826        4.064      339.520       86.711        0.065      336.144        7.246      857.546
01/03/2022  19:11:00     -259.721      -53.721      -25.368      229.140      122.164       82.423    52505.352    14923.983     6793.517        7.259        3.711      265.219       90.871        0.117      336.044        7.079      857.780
01/03/2022  19:12:00     -285.458      -12.859        6.449      200.928      182.455       96.331    40372.021    33289.710     9279.688        8.230        4.147      285.748       77.493        0.074      336.069        7.120      857.801
01/03/2022  19:13:00     -335.965     -104.413      -21.996      227.998      197.686       92.158    51983.096    39079.665     8493.087       11.189        4.978      351.816       96.255        0.075      336.087        7.149      857.810
01/03/2022  19:14:00     -585.849      -25.500      -47.666      336.880      255.355      155.707   113487.897    65206.321    24244.697       27.450       10.147      586.403      159.637        0.074      336.033        7.062      857.665
01/03/2022  19:15:00     -568.043       85.714      -36.798      323.840      212.758      123.295   104872.276    45266.059    15201.565       24.833        8.267      574.474      122.557        0.046      335.990        6.989      857.668
01/03/2022  19:16:00     -370.803      -95.996      -36.178      230.226      274.268      114.705    53003.786    75223.181    13157.327       14.468        7.069      383.027      109.449        0.082      336.049        7.087      857.689
01/03/2022  19:17:00     -384.789      -14.296      -40.473      247.095      193.714      112.499    61055.978    37525.079    12656.050       13.055        5.562      385.055      125.548        0.106      336.000        7.005      857.685
01/03/2022  19:18:00     -443.872       -2.030      -31.940      162.115      140.489       81.279    26281.273    19737.032     6606.237       12.533        2.631      443.877       62.802        0.020      336.073        7.125      857.753
01/03/2022  19:19:00     -340.063        2.129      -12.819      168.706      164.876       94.048    28461.557    27184.215     8845.109        9.014        3.225      340.070       81.859        0.058      336.031        7.057      857.718
01/03/2022  19:20:00     -359.774      -33.590      -36.008      262.445      143.389      117.392    68877.638    20560.418    13780.814       11.752        5.161      361.339      114.540        0.100      335.986        6.982      857.787
01/03/2022  19:21:00     -530.281      -45.410      -50.522      215.272      183.591       91.523    46342.110    33705.767     8376.395       18.710        4.421      532.221       78.905        0.022      335.995        6.997      857.668
01/03/2022  19:22:00     -356.372      -23.302      -11.744      200.130      161.448       88.672    40052.073    26065.451     7862.639       10.082        3.699      357.133       78.212        0.048      335.998        7.002      857.670
01/03/2022  19:23:00     -441.735       -9.140      -11.052      357.810      245.003      140.446   128028.329    60026.648    19724.963       20.152       10.389      441.830      153.667        0.121      335.984        6.979      857.781
01/03/2022  19:24:00     -484.643      -29.832      -24.281      228.508      196.543      115.193    52215.879    38629.065    13269.352       17.022        5.206      485.560      100.329        0.043      336.071        7.124      857.755
01/03/2022  19:25:00     -476.112      -20.063      -29.001      198.735      120.315       85.206    39495.496    14475.783     7260.038       14.457        3.062      476.535       92.511        0.038      336.098        7.167      857.764
01/03/2022  19:26:00     -352.357      -22.172      -18.294      181.798      150.183       92.001    33050.624    22554.793     8464.174        9.451        3.203      353.054       92.897        0.069      336.106        7.181      857.717
01/03/2022  19:27:00     -309.099     -204.770      -17.714      232.203      168.470      110.398    53918.111    28382.231    12187.640       11.612        4.724      370.773      109.953        0.088      336.203        7.344      857.799
01/03/2022  19:28:00     -375.502     -293.123      -64.789      218.477      174.719       87.754    47732.176    30526.714     7700.794       15.852        4.298      476.364       75.334        0.025      336.228        7.386      857.620
01/03/2022  19:29:00     -203.190     -125.593       -1.633      204.355      199.644       99.803    41760.883    39857.747     9960.633        7.430        4.579      238.872      102.260        0.183      336.157        7.267      857.625
01/03/2022  19:30:00     -318.120      -79.431      -32.697      188.959      135.915       75.901    35705.550    18472.885     5760.933        8.425        2.997      327.887       79.397        0.059      336.183        7.311      857.686
01/03/2022  19:31:00     -138.122     -107.464      -21.912      213.154      135.989       83.774    45434.558    18493.033     7018.128        5.101        3.547      175.004       76.297        0.190      336.196        7.333      857.841
01/03/2022  19:32:00      -92.893     -315.454      -66.749      191.164      129.617       67.662    36543.484    16800.693     4578.156        8.525        2.896      328.847       33.846        0.011      336.322        7.542      857.867
01/03/2022  19:33:00       23.296     -136.140      -32.907       90.131      102.581       44.311     8123.684    10522.811     1963.493        2.038        1.030      138.118       28.303        0.042      336.279        7.472      857.933
01/03/2022  19:34:00     -182.956      -71.962      -18.274      178.423      124.221       79.006    31834.922    15430.923     6241.886        4.624        2.675      196.600       69.172        0.124      336.294        7.496      857.893
01/03/2022  19:35:00     -147.572      -94.654      -30.502      142.104      124.750       77.912    20193.663    15562.568     6070.308        3.674        2.091      175.319       54.721        0.097      336.213        7.360      858.076
01/03/2022  19:36:00     -283.379      -52.871      -31.119      268.782      167.047       91.273    72243.746    27904.617     8330.792        9.625        5.424      288.269       39.720        0.019      336.362        7.609      858.083
01/03/2022  19:37:00     -272.196        7.823        4.093      244.350      213.885       96.410    59707.125    45746.619     9294.926        9.444        5.737      272.309       88.781        0.106      336.488        7.820      857.824
01/03/2022  19:38:00     -517.287      -38.372      -38.844      388.445      228.103      145.806   150889.174    52030.998    21259.326       24.733       11.209      518.708      155.711        0.090      336.382        7.642      858.008
01/03/2022  19:39:00     -554.062      -78.262      -50.737      269.125      178.910      112.368    72428.178    32008.906    12626.674       21.635        5.853      559.562       97.313        0.030      336.320        7.538      857.988
01/03/2022  19:40:00     -528.392      -60.886      -63.837      339.294      201.548      140.459   115120.531    40621.577    19728.653       23.119        8.774      531.888      158.431        0.089      336.306        7.516      857.913
01/03/2022  19:41:00     -530.169      -37.922      -16.207      308.055      205.113      118.442    94898.022    42071.262    14028.484       21.686        7.550      531.524       99.937        0.035      336.263        7.444      857.981
01/03/2022  19:42:00     -475.894      -82.639      -19.334      363.425      226.701      140.511   132077.927    51393.252    19743.436       21.841       10.161      483.016      155.461        0.104      336.243        7.411      857.829
01/03/2022  19:43:00     -379.811      -15.187      -22.806      245.959      163.102      101.468    60495.881    26602.315    10295.851       12.118        4.870      380.115      104.426        0.075      336.247        7.419      857.876
01/03/2022  19:44:00     -400.247      -46.119       -9.402      251.101      145.088      112.146    63051.505    21050.672    12576.807       12.953        4.834      402.895      118.926        0.087      336.236        7.398      857.867
01/03/2022  19:45:00     -354.875     -109.455      -51.431      175.951      148.133       82.351    30958.621    21943.297     6781.748       10.011        2.984      371.371       77.798        0.044      336.304        7.512      857.850
01/03/2022  19:46:00     -569.153      -79.201      -31.570      294.092      284.607      111.101    86490.034    81000.865    12343.510       25.549        8.992      574.637      105.956        0.034      336.284        7.479      857.724
01/03/2022  19:47:00     -472.802      -71.856      -38.688      251.909      188.100      107.550    63457.935    35381.750    11567.102       17.028        5.520      478.231      100.967        0.045      336.326        7.549      857.486
01/03/2022  19:48:00     -415.928       44.140      -14.773      235.536      149.392       99.107    55477.326    22318.047     9822.156       13.137        4.381      418.263       73.307        0.031      336.258        7.436      857.562
01/03/2022  19:49:00     -449.327       60.070      -43.690      312.542      236.996      116.648    97682.569    56167.016    13606.805       18.740        8.373      453.324      104.723        0.053      336.191        7.323      857.604
01/03/2022  19:50:00     -424.163      -37.132       -8.511      235.090      272.659       99.135    55267.371    74342.890     9827.787       16.038        6.972      425.785      101.594        0.057      336.132        7.225      857.679
01/03/2022  19:51:00     -392.432     -366.538      -43.090      280.364      293.844      116.116    78603.859    86344.313    13482.874       23.429        8.922      536.985      113.476        0.045      336.295        7.497      857.758
01/03/2022  19:52:00     -572.740      -65.470      -34.611      245.706      181.194      124.753    60371.548    32831.269    15563.288       22.112        5.438      576.470      129.724        0.051      336.219        7.371      857.860
01/03/2022  19:53:00     -444.382      -54.283      -20.341      224.706      245.471      106.146    50492.662    60255.794    11266.881       16.140        6.101      447.685       97.683        0.048      336.240        7.405      857.995
01/03/2022  19:54:00     -368.300     -169.953      -37.423      215.849      190.160      101.501    46590.579    36160.735    10302.543       12.947        4.653      405.622       94.926        0.055      336.337        7.566      858.100
01/03/2022  19:55:00     -192.930     -198.651      -46.210      117.541      136.000       84.213    13815.805    18495.905     7091.792        5.910        1.970      276.919       30.738        0.012      336.400        7.671      858.154
01/03/2022  19:56:00     -148.104      -65.845      -20.231      126.250      116.269       55.939    15939.030    13518.397     3129.219        2.963        1.629      162.082       27.410        0.029      336.340        7.573      858.132
01/03/2022  19:57:00     -145.435       -0.896      -27.570      105.150      112.553       65.181    11056.611    12668.068     4248.570        2.494        1.399      145.438       45.724        0.099      336.309        7.521      858.167
01/03/2022  19:58:00     -297.707       14.506      -35.286      200.072      113.081       81.580    40028.764    12787.233     6655.220        7.477        2.974      298.061       70.769        0.056      336.295        7.499      858.078
01/03/2022  19:59:00     -351.110      -98.142      -33.427      238.154      145.320       89.844    56717.518    21117.913     8071.926       10.995        4.295      364.568      100.914        0.077      336.294        7.495      858.080
01/03/2022  20:00:00     -400.420       -8.695      -19.780      223.413      125.235       89.902    49913.354    15683.711     8082.448       11.723        3.684      400.515      101.366        0.064      336.268        7.453      858.006
01/03/2022  20:01:00     -173.735       33.057      -15.416       97.604      145.119       57.992     9526.514    21059.405     3363.062        3.273        1.697      176.852       41.323        0.055      336.262        7.443      858.036
01/03/2022  20:02:00      -91.745      -75.520        2.930      114.656      106.511       76.809    13145.974    11344.643     5899.682        2.225        1.520      118.829       64.602        0.296      336.233        7.395      858.119
01/03/2022  20:03:00      -99.123       -4.215      -14.092       55.267       89.280       44.216     3054.459     7971.001     1955.042        1.151        0.649       99.213       28.882        0.085      336.286        7.487      858.180
01/03/2022  20:04:00       39.446      104.086      -23.963       81.516       81.848       33.809     6644.777     6699.140     1143.055        1.372        0.724      111.309       18.873        0.029      336.270        7.458      858.098
01/03/2022  20:05:00       54.184       49.788      -20.181       44.085       61.761       22.625     1943.531     3814.366      511.872        0.604        0.313       73.585       18.312        0.062      336.243        7.412      858.022
01/03/2022  20:06:00     -107.194       -0.278      -12.523       94.009      140.303       54.451     8837.786    19684.985     2964.946        2.156        1.574      107.194       31.900        0.089      336.272        7.460      858.261
01/03/2022  20:07:00     -220.248       39.719      -14.467      191.264      134.194       98.393    36581.910    18007.979     9681.109        5.727        3.214      223.801      100.183        0.200      336.193        7.328      858.264
01/03/2022  20:08:00      -85.173       99.957       -8.182       94.998      142.546       71.306     9024.578    20319.318     5084.515        2.586        1.721      131.323       54.199        0.170      336.292        7.492      858.013
01/03/2022  20:09:00     -264.009     -124.412      -36.125      142.867      199.972       66.099    20410.975    39988.883     4369.127        7.561        3.238      291.855       67.418        0.053      336.309        7.521      858.222
01/03/2022  20:10:00      -61.572      -12.980      -27.223      147.881      112.283       68.647    21868.883    12607.374     4712.423        2.194        1.959       62.925       62.440        0.985      336.321        7.543      858.282
01/03/2022  20:11:00       68.374     -218.047      -82.925      222.069      223.512      111.987    49314.543    49957.463    12541.025        8.543        5.591      228.516       66.200        0.084      336.442        7.743      857.854
01/03/2022  20:12:00     -447.305      -57.475      -30.618      328.224      172.764      134.362   107730.817    29847.466    18053.143       17.995        7.782      450.983      143.007        0.101      336.489        7.822      857.954
01/03/2022  20:13:00     -213.437      -39.647      -16.495      148.675      112.591       61.285    22104.215    12676.765     3755.848        4.296        1.927      217.088       44.178        0.041      336.482        7.810      858.118
01/03/2022  20:14:00     -252.167       27.983      -18.307      181.354      131.476       93.042    32889.127    17285.911     8656.787        6.176        2.942      253.715       88.257        0.121      336.400        7.673      858.075
01/03/2022  20:15:00     -268.166      -41.601       -6.431      171.518      138.453       84.585    29418.528    19169.240     7154.682        6.470        2.787      271.374       71.356        0.069      336.375        7.629      858.025
01/03/2022  20:16:00     -386.320     -133.433      -18.857      277.589      155.042       97.687    77055.873    24038.097     9542.818       13.900        5.532      408.715      123.445        0.091      336.495        7.831      858.126
01/03/2022  20:17:00     -573.616     -173.321      -80.229      348.030      283.680      144.858   121124.608    80474.249    20983.797       29.401       11.129      599.229      160.445        0.072      336.557        7.935      858.056
01/03/2022  20:18:00     -521.999      -87.124      -24.745      246.642      218.364      123.684    60832.290    47682.877    15297.806       20.223        6.191      529.220      102.536        0.038      336.516        7.867      858.077
01/03/2022  20:19:00     -330.935     -115.387      -36.147      245.175      200.271      130.940    60110.693    40108.614    17145.262       12.073        5.868      350.474      110.566        0.100      336.366        7.616      858.202
01/03/2022  20:20:00      -77.851     -262.139      -54.361      197.183      156.403       72.783    38881.002    24462.039     5297.410        7.317        3.432      273.455       34.461        0.016      336.183        7.310      858.133
01/03/2022  20:21:00      175.290     -316.518      -79.385      208.677      210.814      105.759    43546.127    44442.667    11185.068       11.817        4.959      361.815      121.531        0.113      336.247        7.418      858.143
01/03/2022  20:22:00      -45.460     -289.975      -60.433      210.404      144.673       71.204    44269.930    20930.186     5070.018        8.002        3.514      293.517       58.373        0.040      336.619        8.038      858.326
01/03/2022  20:23:00     -103.912       38.219      -10.749      171.045      160.751       60.030    29256.314    25840.766     3603.659        3.553        2.935      110.717       64.813        0.343      336.517        7.870      858.391
01/03/2022  20:24:00       69.183     -395.614      -71.211      174.797      140.262       63.369    30554.022    19673.353     4015.577       11.030        2.712      401.617       64.898        0.026      336.445        7.748      858.186
01/03/2022  20:25:00       62.471     -125.404      -63.440      115.069      154.746       52.054    13240.814    23946.230     2709.618        3.177        1.995      140.103       44.676        0.102      336.514        7.865      858.290
01/03/2022  20:26:00     -235.138      -31.827       -2.693      213.766      202.635       71.318    45695.799    41060.894     5086.241        7.406        4.592      237.282       72.580        0.094      336.686        8.151      858.278
01/03/2022  20:27:00     -309.860      -40.983      -24.189      216.628      122.833       71.839    46927.479    15088.005     5160.812        8.271        3.359      312.558       62.210        0.040      336.746        8.252      858.277
01/03/2022  20:28:00     -441.714      156.002       -1.895      188.564      158.288      105.248    35556.200    25055.048    11077.122       14.556        3.584      468.453       90.282        0.037      336.611        8.025      858.064
01/03/2022  20:29:00     -220.883       73.008       17.322      164.986      131.016       82.941    27220.439    17165.248     6879.157        5.283        2.563      232.636       80.966        0.121      336.528        7.888      858.025
01/03/2022  20:30:00     -117.787        5.309      -10.841      179.273      117.398       75.483    32138.988    13782.349     5697.678        3.281        2.581      117.907       61.746        0.274      336.569        7.959      857.893
01/03/2022  20:31:00     -480.085     -142.328      -42.360      294.467      187.563      118.170    86710.941    35179.769    13964.086       19.417        6.793      500.738      113.753        0.052      336.224        7.380      857.906
01/03/2022  20:32:00     -139.181     -162.193      -21.912      268.784      155.709      105.371    72244.835    24245.279    11103.055        7.686        5.380      213.724       65.002        0.093      336.060        7.105      858.131
01/03/2022  20:33:00      114.782     -334.700      -61.404      178.556      222.115       99.408    31882.147    49334.958     9881.905       11.002        4.555      353.834       58.661        0.027      336.149        7.253      858.012
01/03/2022  20:34:00       82.650     -145.555      -32.030       64.371       68.995       41.514     4143.637     4760.311     1723.444        1.983        0.531      167.384       35.922        0.046      336.097        7.168      858.218
01/03/2022  20:35:00      158.733     -236.733      -53.865       81.611      110.777       57.483     6660.330    12271.643     3304.253        5.318        1.112      285.024       50.138        0.031      335.999        7.003      858.108
01/03/2022  20:36:00      -46.321      -34.920      -18.629       78.619       66.611       40.942     6180.885     4437.065     1676.228        0.800        0.615       58.008       29.159        0.253      336.247        7.420      858.255
01/03/2022  20:37:00     -162.890       22.694      -34.521      189.497      121.460       74.785    35909.130    14752.622     5592.822        4.224        2.813      164.463       62.892        0.146      336.411        7.692      858.332
01/03/2022  20:38:00     -112.788     -163.902      -19.327       70.860       79.803       54.106     5021.138     6368.535     2927.468        2.714        0.716      198.960       14.211        0.005      336.663        8.113      858.318
01/03/2022  20:39:00      -28.604       93.013      -11.436       58.962       41.649       22.974     3476.459     1734.616      527.824        0.767        0.287       97.312       22.546        0.054      336.596        8.006      858.280
01/03/2022  20:40:00      -15.358       24.941       -3.921      124.129       74.129       45.388    15408.038     5495.061     2060.073        1.191        1.148       29.290       25.857        0.779      336.467        7.788      858.365
01/03/2022  20:41:00     -286.452       75.384       13.250      145.697      105.843       67.054    21227.605    11202.730     4496.197        6.241        1.846      296.205       56.978        0.037      336.347        7.584      858.361
01/03/2022  20:42:00      -79.407        3.238      -44.055      126.319      112.590       46.858    15956.584    12676.517     2195.626        1.954        1.541       79.473       59.926        0.569      336.568        7.956      858.396
01/03/2022  20:43:00      -71.320      -45.209      -17.898      118.703      131.211       35.732    14090.378    17216.239     1276.762        2.001        1.629       84.442       27.669        0.107      336.663        8.114      858.356
01/03/2022  20:44:00     -210.146       91.967      -14.039      199.438      146.755       75.961    39775.648    21536.961     5770.084        5.994        3.354      229.389       51.594        0.051      336.653        8.098      858.415
01/03/2022  20:45:00      -55.849       21.774      -25.123      119.707      165.080       82.298    14329.742    27251.320     6772.969        2.628        2.418       59.944       60.468        1.018      336.629        8.059      858.407
01/03/2022  20:46:00     -230.778      -15.529      -36.373      119.524      120.771       73.656    14285.924    14585.616     5425.201        4.455        1.715      231.300       57.457        0.062      336.576        7.969      858.175
01/03/2022  20:47:00     -128.556       -9.174      -24.086      124.061       83.668       59.613    15391.204     7000.262     3553.702        2.156        1.297      128.883       63.524        0.243      336.479        7.807      858.137
01/03/2022  20:48:00      -69.923     -104.560       -9.038      104.651       94.109       55.503    10951.875     8856.488     3080.559        1.939        1.144      125.786       31.742        0.064      336.547        7.920      858.128
01/03/2022  20:49:00      -74.613      -93.560      -30.262      157.823      106.097       56.135    24908.223    11256.574     3151.174        2.727        1.966      119.669       35.905        0.090      336.592        7.998      857.955
01/03/2022  20:50:00      -82.541     -198.095      -48.954      205.820      207.408      102.982    42361.856    43017.961    10605.274        7.220        4.799      214.604       89.022        0.172      336.639        8.076      858.038
01/03/2022  20:51:00     -498.011      -40.674      -22.998      391.046      133.733      104.156   152917.149    17884.615    10848.471       21.589        9.083      499.669      123.839        0.061      336.838        8.406      857.746
01/03/2022  20:52:00     -147.052     -112.158      -44.064      116.657       78.442       70.939    13608.966     6153.149     5032.317        3.047        1.240      184.942       45.073        0.059      336.719        8.208      857.748
01/03/2022  20:53:00      -30.225       14.494      -31.991      140.706      126.520       95.279    19798.258    16007.355     9078.023        2.351        2.244       33.521       52.660        2.468      336.507        7.853      857.798
01/03/2022  20:54:00      261.245      -93.460       -9.788      244.475      184.166      144.512    59768.161    33917.095    20883.822        9.580        5.728      277.460      126.860        0.209      335.832        6.726      857.671
01/03/2022  20:55:00      125.094      -86.011      -17.526      203.348      141.187       82.870    41350.373    19933.686     6867.410        4.574        3.408      151.811       52.922        0.122      335.809        6.689      857.925
01/03/2022  20:56:00     -104.449      -87.728      -33.479      140.683      106.550       92.719    19791.832    11352.870     8596.788        2.973        1.987      136.403       54.094        0.157      336.137        7.235      858.325
01/03/2022  20:57:00      -85.444      -88.210      -49.993       96.417       68.503       54.898     9296.171     4692.714     3013.832        1.729        0.850      122.808       26.552        0.047      336.279        7.474      858.381
01/03/2022  20:58:00       82.360      -64.896      -41.213       60.420      111.206       46.631     3650.598    12366.683     2174.473        1.544        0.910      104.856       24.964        0.057      336.195        7.333      858.528
01/03/2022  20:59:00      -57.423      -45.172      -10.713       54.733       50.298       28.725     2995.694     2529.846      825.133        0.590        0.318       73.061       24.374        0.111      336.172        7.296      858.857
01/03/2022  21:00:00      -25.157       -5.795       -2.305       48.456       31.959       18.285     2347.992     1021.409      334.352        0.219        0.185       25.815       18.431        0.510      336.132        7.226      858.744
01/03/2022  21:01:00      173.535      -56.616      -37.657       78.751       81.883       37.294     6201.696     6704.854     1390.841        2.451        0.715      182.537       27.555        0.023      336.000        7.003      858.775
01/03/2022  21:02:00      205.451      -22.097      -26.008      134.605      113.542       69.841    18118.585    12891.716     4877.697        3.962        1.794      206.636       70.488        0.116      335.912        6.858      858.366
01/03/2022  21:03:00      136.299      -70.042      -25.104      137.031      143.258       84.977    18777.478    20522.949     7221.013        3.531        2.326      153.243       69.290        0.204      336.011        7.024      858.179
01/03/2022  21:04:00      186.004     -184.334      -54.542       59.363      117.253       39.002     3524.017    13748.377     1521.174        4.517        0.940      261.871       42.335        0.026      335.950        6.921      858.223
01/03/2022  21:05:00      482.560       53.400      -37.715      192.181       68.781       47.759    36933.603     4730.807     2280.905       14.053        2.197      485.505       35.609        0.005      335.868        6.785      858.089
01/03/2022  21:06:00      547.726       61.039      -21.321      245.749      143.829      107.836    60392.638    20686.736    11628.650       19.843        4.635      551.117       55.439        0.010      335.812        6.691      857.753
01/03/2022  21:07:00      210.942      -27.817      -32.009      180.101      113.151       81.824    32436.296    12803.052     6695.244        4.911        2.597      212.768       74.541        0.123      335.864        6.780      857.888
01/03/2022  21:08:00      -68.634       30.541      -22.123      163.199       93.853       57.922    26633.859     8808.460     3354.979        2.246        1.940       75.122       33.455        0.198      335.918        6.870      858.212
01/03/2022  21:09:00     -142.825       38.681       -4.388       99.035       62.962       36.811     9807.993     3964.199     1355.064        1.852        0.756      147.970       36.742        0.062      335.865        6.782      858.324
01/03/2022  21:10:00       -4.397      149.634      -43.498      109.725       74.340       49.013    12039.678     5526.428     2402.238        2.213        0.998      149.698       38.144        0.065      336.314        7.530      858.443
01/03/2022  21:11:00      108.145      134.489      -27.139       78.459       61.943       41.893     6155.893     3836.931     1755.045        2.113        0.587      172.576       33.393        0.037      336.529        7.889      858.428
01/03/2022  21:12:00      187.879      167.157      -22.466       64.392       48.331       46.139     4146.289     2335.880     2128.801        3.618        0.431      251.475       33.578        0.018      336.035        7.064      858.566
01/03/2022  21:13:00      203.937       52.895      -21.919      122.365      114.651       60.585    14973.302    13144.867     3670.500        3.832        1.589      210.684       58.680        0.078      335.673        6.462      858.471
01/03/2022  21:14:00      206.270      160.914      -20.121      127.404      115.842       60.889    16231.780    13419.360     3707.462        5.110        1.668      261.612       59.991        0.053      335.719        6.537      858.464
01/03/2022  21:15:00      212.030      205.885      -32.085       96.083       74.175       46.549     9231.873     5501.903     2166.773        5.263        0.845      295.542       36.866        0.016      336.104        7.179      858.618
01/03/2022  21:16:00      197.514      136.081      -23.786       85.873       81.471       55.916     7374.169     6637.524     3126.563        3.761        0.857      239.854       31.403        0.017      335.955        6.930      858.682
01/03/2022  21:17:00      250.203      122.339      -23.231      100.604       78.245       45.057    10121.256     6122.208     2030.110        4.819        0.914      278.511       50.070        0.032      335.959        6.937      858.758
01/03/2022  21:18:00      140.002      119.578      -26.277       56.967       54.880       35.842     3245.289     3011.773     1284.657        2.106        0.377      184.118       30.314        0.027      335.973        6.963      858.944
01/03/2022  21:19:00      207.270       72.707      -24.427       65.323       53.594       32.644     4267.051     2872.284     1065.625        2.852        0.410      219.653       27.286        0.015      336.044        7.079      858.979
01/03/2022  21:20:00      109.741       47.678        1.038       58.802       47.701       34.023     3457.622     2275.426     1157.594        1.060        0.345      119.651       26.986        0.051      335.870        6.792      858.894
01/03/2022  21:21:00       58.560        0.104      -23.232       46.465       31.485       35.422     2159.006      991.323     1254.712        0.419        0.220       58.560       13.679        0.055      336.070        7.123      859.061
01/03/2022  21:22:00       53.684      -11.450      -23.927       56.601       63.302       37.771     3203.635     4007.097     1426.635        0.611        0.432       54.891       17.195        0.098      336.041        7.077      859.043
01/03/2022  21:23:00      203.595       -2.592      -21.275      119.804       76.822       43.370    14353.110     5901.571     1880.968        3.202        1.107      203.611       31.223        0.024      335.937        6.902      858.975
01/03/2022  21:24:00       94.317      -20.430      -15.724      120.544       74.971       67.857    14530.755     5620.629     4604.632        1.715        1.238       96.505       56.376        0.341      335.628        6.388      858.727
01/03/2022  21:25:00      204.456       69.391      -17.744       67.156       66.255       39.703     4509.992     4389.715     1576.359        2.870        0.524      215.910       27.957        0.017      335.677        6.466      858.781
01/03/2022  21:26:00      189.237       51.803      -31.137      217.999       81.590       58.490    47523.704     6656.897     3421.072        4.852        2.880      196.199       36.756        0.035      335.723        6.544      858.634
01/03/2022  21:27:00     -189.029      193.427      -30.250      162.743       99.406       54.993    26485.274     9881.507     3024.181        5.672        1.970      270.455       39.222        0.021      335.865        6.781      858.960
01/03/2022  21:28:00      103.180      196.206      -29.597      164.613      137.886       57.456    27097.433    19012.559     3301.247        4.971        2.471      221.682       46.018        0.043      335.838        6.737      859.074
01/03/2022  21:29:00       42.705       35.142      -63.995       95.130       90.084       52.602     9049.767     8115.178     2766.987        1.354        0.997       55.305       44.864        0.658      335.947        6.920      859.069
01/03/2022  21:30:00      125.785      -60.905      -33.492       84.002      135.436       53.915     7056.362    18342.979     2906.790        2.447        1.415      139.754       37.214        0.071      336.613        8.031      859.097
01/03/2022  21:31:00     -228.743     -119.892      -44.303      176.846      145.548       74.650    31274.553    21184.102     5572.611        6.334        2.902      258.259       61.135        0.056      336.636        8.070      859.136
01/03/2022  21:32:00      117.977       55.568       -7.200      106.998      129.552       67.593    11448.563    16783.706     4568.751        2.492        1.640      130.409       48.307        0.137      336.490        7.825      858.872
01/03/2022  21:33:00      392.795      203.136      -36.706      183.620      124.935       75.571    33716.424    15608.773     5710.926       12.596        2.752      442.213       48.105        0.012      336.650        8.091      858.529
01/03/2022  21:34:00       98.655      251.917      -24.359      133.826      123.833       59.345    17909.465    15334.523     3521.818        5.527        1.838      270.546       59.905        0.049      336.294        7.496      858.640
01/03/2022  21:35:00      -99.094       -2.704       -3.889      156.149      147.932       76.649    24382.616    21883.977     5875.092        3.098        2.607       99.130       48.117        0.236      336.182        7.310      858.972
01/03/2022  21:36:00      -84.075        8.573      -20.705      180.477      114.714       52.487    32571.991    13159.344     2754.861        2.802        2.424       84.511       32.631        0.149      336.418        7.706      859.041
01/03/2022  21:37:00     -105.517       -8.056        0.032      194.009      114.103       77.545    37639.671    13019.490     6013.181        3.393        2.834      105.824       86.027        0.661      336.438        7.739      858.778
01/03/2022  21:38:00     -252.030      -32.271      -26.811      226.950       88.093       85.599    51506.181     7760.370     7327.153        6.592        3.330      254.088       93.871        0.136      336.631        8.059      858.822
01/03/2022  21:39:00     -346.446       35.004      -30.362      206.275      153.673       99.455    42549.329    23615.337     9891.338        9.910        3.803      348.209       81.227        0.054      336.566        7.951      858.861
01/03/2022  21:40:00     -360.143     -132.566      -43.382      231.395      216.779      116.394    53543.843    46993.033    13547.680       13.160        5.704      383.767      111.463        0.084      336.680        8.140      858.605
01/03/2022  21:41:00     -255.266     -112.942       -6.341      168.886      193.403      101.808    28522.522    37404.576    10364.931        7.711        3.815      279.136       92.856        0.111      336.656        8.101      858.527
01/03/2022  21:42:00     -508.613      -44.040      -11.172      266.494      142.208      119.986    71018.843    20223.081    14396.531       18.318        5.282      510.516      126.847        0.062      336.626        8.051      858.587
01/03/2022  21:43:00     -398.529      -14.864      -13.464      246.544      137.135      109.481    60783.821    18805.880    11986.025       12.538        4.579      398.806      118.238        0.088      336.603        8.014      858.563
01/03/2022  21:44:00     -299.663      -73.979      -26.849      167.895      130.006       81.727    28188.811    16901.536     6679.288        7.387        2.588      308.659       67.249        0.047      336.592        7.996      858.617
01/03/2022  21:45:00     -133.554     -258.817      -60.741      216.647      245.284      102.384    46935.753    60164.194    10482.441       10.303        5.879      291.244       94.491        0.105      336.810        8.358      858.494
01/03/2022  21:46:00      -96.784      -74.469      -49.028      156.662      147.879       79.336    24542.859    21868.123     6294.250        3.500        2.635      122.118       75.070        0.378      336.814        8.367      858.589
01/03/2022  21:47:00       77.650     -129.237      -49.803       93.738       86.368       58.107     8786.788     7459.493     3376.466        2.241        0.981      150.771       53.400        0.125      336.807        8.355      858.572
01/03/2022  21:48:00     -302.150       49.205      -15.338      248.350      145.632       85.228    61677.877    21208.731     7263.820        9.203        4.508      306.130       77.911        0.065      336.712        8.197      858.641
01/03/2022  21:49:00     -164.155     -240.626      -96.375      242.529      202.798      116.712    58820.350    41126.968    13621.657       10.383        5.678      291.286       90.480        0.096      336.676        8.136      858.655
01/03/2022  21:50:00     -164.189      100.541      -15.325      168.353      133.682       84.513    28342.628    17870.878     7142.488        4.532        2.668      192.527       61.781        0.103      336.558        7.939      858.661
01/03/2022  21:51:00     -252.651       91.436       -0.185      114.631      110.017       70.238    13140.341    12103.794     4933.420        5.118        1.509      268.688       68.157        0.064      336.481        7.810      858.664
01/03/2022  21:52:00     -101.049       12.697      -25.876       65.544       66.416       40.750     4295.965     4411.089     1660.563        1.070        0.518      101.844       34.384        0.114      336.500        7.842      858.697
01/03/2022  21:53:00      -25.320      -51.206      -31.379      163.300      178.655       60.940    26666.858    31917.725     3713.661        3.326        3.115       57.124       59.341        1.079      336.428        7.719      858.741
01/03/2022  21:54:00      -82.962     -129.305      -57.092      175.022      127.895       64.704    30632.710    16357.247     4186.545        3.901        2.559      153.631       52.674        0.118      336.492        7.826      859.026
01/03/2022  21:55:00     -145.666      -16.284      -20.340      120.517       76.665       54.863    14524.367     5877.539     3009.919        2.265        1.171      146.574       45.053        0.094      336.648        8.089      858.891
01/03/2022  21:56:00     -173.188      -29.435      -13.975      177.257      147.688       96.268    31420.143    21811.789     9267.471        4.677        3.125      175.671       55.402        0.099      336.573        7.964      858.965
01/03/2022  21:57:00      -54.374       13.687      -30.285      177.676      133.768       87.330    31568.628    17893.794     7626.551        3.056        2.854       56.070       72.827        1.687      336.541        7.911      858.860
01/03/2022  21:58:00      -87.518       -6.595      -17.399      136.211      100.430       81.831    18553.466    10086.259     6696.304        2.166        1.767       87.767       69.763        0.632      336.528        7.888      858.945
01/03/2022  21:59:00     -162.258       47.553       -0.101      122.836       99.497       50.769    15088.594     9899.693     2577.470        2.807        1.378      169.082       43.374        0.066      336.404        7.680      858.947
01/03/2022  22:00:00      -82.964      -77.763      -41.362      172.267      109.033       70.929    29675.751    11888.259     5030.890        3.061        2.330      113.710       59.204        0.271      336.522        7.879      858.986
01/03/2022  22:01:00      -59.529        4.595      -19.880      117.860       96.329       61.179    13891.074     9279.361     3742.903        1.543        1.346       59.707       55.140        0.853      336.432        7.729      858.903
01/03/2022  22:02:00     -571.805       16.623      -46.083      266.953      208.303      122.070    71264.039    43390.023    14901.056       22.943        6.478      572.047      110.018        0.037      336.572        7.961      858.770
01/03/2022  22:03:00     -409.040      -62.358      -25.090      258.779      215.853      118.686    66966.315    46592.468    14086.269       14.971        6.382      413.766      118.280        0.082      336.564        7.948      858.857
01/03/2022  22:04:00     -153.863      -12.306      -14.615      149.560      201.854       76.889    22368.303    40744.890     5911.923        4.652        3.451      154.354       70.551        0.209      336.536        7.902      858.733
01/03/2022  22:05:00     -450.912      -90.145      -32.419      170.608      196.526       94.185    29107.023    38622.536     8870.877       14.454        3.830      459.834       90.484        0.039      336.586        7.984      858.598
01/03/2022  22:06:00     -325.789       -0.972      -33.865      205.636      120.356       89.403    42286.208    14485.499     7992.958        8.601        3.238      325.790       89.998        0.076      336.551        7.927      858.511
01/03/2022  22:07:00     -377.704      -55.293      -31.365      217.605      177.815      118.517    47352.101    31618.075    14046.213       11.984        4.651      381.730      104.390        0.075      336.542        7.912      858.631
01/03/2022  22:08:00      -73.658      -51.995      -38.004      197.998      150.121       73.538    39203.048    22536.371     5407.795        3.835        3.357       90.161       62.687        0.483      336.606        8.021      858.496
01/03/2022  22:09:00     -249.975     -106.773      -51.500      310.204      198.392      107.729    96226.629    39359.583    11605.597       11.184        7.360      271.824       73.850        0.074      336.747        8.253      858.454
01/03/2022  22:10:00      -72.206      -77.411      -42.499      100.585      139.584       65.260    10117.370    19483.786     4258.843        2.343        1.693      105.860       60.460        0.326      336.779        8.306      858.488
01/03/2022  22:11:00       52.804     -243.819      -70.896      208.642      149.829       89.776    43531.305    22448.749     8059.729        7.064        3.702      249.472       51.820        0.043      336.748        8.256      858.608
01/03/2022  22:12:00      -16.729     -211.008      -66.157      225.940      477.656      113.415    51048.918   228155.140    12862.961       17.057       14.603      211.671      135.082        0.407      336.718        8.204      858.414
01/03/2022  22:13:00     -159.957      -57.058      -21.451      154.201      125.167       60.166    23778.031    15666.786     3619.922        3.618        2.153      169.829       68.969        0.165      336.708        8.190      858.633
01/03/2022  22:14:00      -32.226     -171.653      -62.777      233.884      268.006      105.790    54701.846    71827.290    11191.573        8.606        6.886      174.652      123.429        0.499      336.706        8.185      858.511
01/03/2022  22:15:00     -293.446       52.054      -34.738      187.995      216.771       94.642    35342.119    46989.543     8957.196        9.064        4.564      298.027       75.494        0.064      336.731        8.226      858.509
01/03/2022  22:16:00     -292.192       14.435      -52.117      184.045      179.055      100.375    33872.444    32060.519    10075.170        8.214        3.800      292.549       86.907        0.088      336.592        7.996      858.661
01/03/2022  22:17:00     -202.469       13.298       -1.341      114.539      215.442       71.003    13119.114    46415.136     5041.482        5.286        3.229      202.905       58.397        0.083      336.641        8.076      858.652
01/03/2022  22:18:00     -174.324      -14.652       -5.184      146.773      110.430       63.402    21542.170    12194.786     4019.809        3.419        1.888      174.939       44.962        0.066      336.513        7.864      858.736
01/03/2022  22:19:00     -137.766       24.512        4.053      151.476      156.065       78.641    22944.912    24356.245     6184.480        3.653        2.674      139.930       62.712        0.201      336.482        7.811      858.723
01/03/2022  22:20:00     -237.496        3.369      -19.719      242.991      146.733       87.690    59044.763    21530.430     7689.615        7.252        4.413      237.520       95.044        0.160      336.535        7.898      858.723
01/03/2022  22:21:00     -351.748      -14.447      -16.913      276.649      201.913       99.159    76534.833    40768.746     9832.528       12.566        6.357      352.045      121.458        0.119      336.555        7.933      858.799
01/03/2022  22:22:00     -309.507     -177.320      -18.574      180.538      226.136      103.212    32594.009    51137.370    10652.768       11.097        4.719      356.703       96.802        0.074      336.721        8.210      858.806
01/03/2022  22:23:00     -247.974      -48.569      -20.713      139.092       98.608       66.891    19346.637     9723.465     4474.448        4.891        1.677      252.685       55.045        0.047      336.646        8.086      858.916
01/03/2022  22:24:00     -243.792      -28.517       -4.846      149.280      205.891       79.337    22284.534    42391.013     6294.328        6.561        3.548      245.454       44.313        0.033      336.613        8.031      859.042
01/03/2022  22:25:00     -415.448      -67.668      -19.716      347.615      227.373      126.271   120836.393    51698.467    15944.366       18.299        9.424      420.923      139.756        0.110      336.740        8.243      859.095
01/03/2022  22:26:00     -506.522     -231.339      -40.554      271.404      218.887      141.807    73660.319    47911.363    20109.161       22.668        7.084      556.850      143.214        0.066      336.888        8.488      858.865
01/03/2022  22:27:00     -329.494     -102.022      -23.499      214.574      167.510       86.186    46041.995    28059.704     7428.011       10.051        4.076      344.927       61.712        0.032      336.854        8.431      858.986
01/03/2022  22:28:00     -157.506       48.340      -24.459      175.683      182.549       75.569    30864.522    33324.047     5710.657        4.881        3.495      164.757       63.472        0.148      336.790        8.326      858.817
01/03/2022  22:29:00     -281.204      -17.913      -26.686      232.342      160.742       85.350    53982.898    25837.831     7284.677        8.359        4.355      281.774       84.675        0.090      336.777        8.305      858.881
01/03/2022  22:30:00     -301.941     -105.355      -34.688      154.477      157.252       77.314    23863.106    24728.298     5977.432        7.901        2.728      319.794       64.912        0.041      336.868        8.455      858.867
01/03/2022  22:31:00     -359.943       41.789      -15.107      232.332      183.637      113.487    53978.336    33722.715    12879.275       11.604        5.029      362.361      103.256        0.081      336.708        8.188      858.878
01/03/2022  22:32:00     -288.504     -109.436      -35.003      250.550      156.471       95.146    62775.551    24483.224     9052.742        9.636        4.816      308.562       96.882        0.099      336.663        8.113      858.837
01/03/2022  22:33:00     -292.521      -15.572      -26.014      207.392      110.389       92.013    43011.522    12185.702     8466.451        7.506        3.183      292.936       86.603        0.087      336.675        8.135      858.957
01/03/2022  22:34:00     -165.976       -4.201      -12.538      159.396      119.698       48.538    25407.082    14327.586     2355.934        3.490        2.105      166.029        5.423        0.001      336.665        8.118      858.954
01/03/2022  22:35:00     -118.868     -164.585      -27.863      141.498      170.916       61.292    20021.797    29212.403     3756.747        4.748        2.650      203.022       58.510        0.083      336.839        8.407      859.087
01/03/2022  22:36:00     -124.804     -267.273      -55.255      202.030      209.692       96.893    40816.172    43970.576     9388.264        9.210        4.709      294.976       71.974        0.060      336.918        8.538      859.204
01/03/2022  22:37:00      -52.458       20.032      -28.210      180.158      217.256       69.450    32457.033    47199.977     4823.329        4.420        4.224       56.152       49.792        0.786      336.940        8.575      858.900
01/03/2022  22:38:00     -207.304     -265.800     -115.256      394.495      359.467      156.378   155626.617   129216.855    24454.200       21.805       15.465      337.083      175.450        0.271      336.876        8.467      859.103
01/03/2022  22:39:00     -416.261     -173.186      -44.602      286.087      207.093      122.342    81845.798    42887.527    14967.535       17.245        6.985      450.851      121.797        0.073      336.960        8.609      859.039
01/03/2022  22:40:00     -287.804     -197.569      -30.531      212.443      169.007       86.716    45132.224    28563.207     7519.689       10.199        4.061      349.091      106.313        0.093      336.926        8.552      859.106
01/03/2022  22:41:00     -345.884      -20.888      -27.568      204.285      164.872       99.166    41732.365    27182.804     9833.815        9.978        3.937      346.515       93.672        0.073      336.774        8.300      859.145
01/03/2022  22:42:00     -376.308     -110.153      -33.276      143.572      129.004       79.844    20612.998    16641.981     6375.128        9.923        2.182      392.098       77.304        0.039      336.815        8.366      859.292
01/03/2022  22:43:00     -293.033       62.860      -15.920      156.922       86.795       72.121    24624.462     7533.321     5201.427        6.371        1.868      299.700       69.557        0.054      336.714        8.199      859.368
01/03/2022  22:44:00     -141.039      -77.924      -28.699       97.891      183.080       50.558     9582.727    33518.171     2556.094        3.621        2.283      161.134       34.388        0.046      336.931        8.559      859.359
01/03/2022  22:45:00     -276.333      -64.737      -34.539      230.363      164.186       82.211    53066.944    26957.022     6758.686        8.425        4.339      283.815       86.392        0.093      336.878        8.473      859.301
01/03/2022  22:46:00      -27.688       31.945      -10.802       67.221       43.023       38.610     4518.670     1851.003     1490.711        0.488        0.393       42.274       34.572        0.669      336.808        8.357      859.302
01/03/2022  22:47:00     -246.450       27.288      -39.053      137.262      108.101       50.133    18840.900    11685.859     2513.283        4.802        1.652      247.956       53.777        0.047      336.811        8.360      859.395
01/03/2022  22:48:00     -102.272       73.359        3.397       77.669       69.251       47.664     6032.544     4795.708     2271.860        1.447        0.655      125.862       42.890        0.116      336.836        8.403      859.312
01/03/2022  22:49:00     -101.957      104.128      -20.254       93.555       50.819       25.703     8752.534     2582.565      660.640        1.682        0.600      145.732       36.231        0.062      336.923        8.550      859.275
01/03/2022  22:50:00       79.567       65.859      -14.296       67.204       51.932       22.607     4516.356     2696.968      511.061        0.930        0.386      103.287       18.599        0.032      336.654        8.102      859.336
01/03/2022  22:51:00       85.947      102.806      -31.627       76.008      128.291       33.800     5777.226    16458.457     1142.447        2.116        1.169      134.000       32.682        0.059      336.637        8.071      859.230
01/03/2022  22:52:00      -93.905     -113.088      -46.861      157.754      148.317       57.293    24886.287    21997.988     3282.488        3.698        2.508      146.993       14.578        0.010      336.916        8.536      859.438
01/03/2022  22:53:00     -127.800      -49.902      -19.640      152.674       95.845       69.270    23309.322     9186.253     4798.380        2.824        1.865      137.197       59.765        0.190      336.923        8.547      859.355
01/03/2022  22:54:00     -339.593      -53.479      -32.798      179.071      132.424       92.816    32066.308    17536.016     8614.767        8.873        2.911      343.778       90.340        0.069      336.913        8.530      859.363
01/03/2022  22:55:00     -250.987      -15.518      -25.204      235.002      129.801       84.254    55226.075    16848.356     7098.693        7.151        3.959      251.466       98.391        0.153      336.832        8.396      859.416
01/03/2022  22:56:00     -230.580       66.099      -18.746      147.373      154.389       81.260    21718.673    23835.995     6603.133        5.501        2.608      239.867       65.511        0.075      336.862        8.444      859.477
01/03/2022  22:57:00     -410.242       -8.818      -17.507      238.333       98.185       95.403    56802.561     9640.250     9101.672       12.210        3.777      410.337      125.827        0.094      336.820        8.376      859.386
01/03/2022  22:58:00     -363.146       45.442       -7.920      224.006      115.732       88.620    50178.868    13393.972     7853.445       10.270        3.571      365.978       90.906        0.062      336.779        8.306      859.375
01/03/2022  22:59:00      -90.618      112.917       -1.785      158.765      108.845       65.073    25206.293    11847.324     4234.558        3.112        2.064      144.782       49.694        0.118      336.827        8.388      859.347
01/03/2022  23:00:00     -182.927      -44.625      -27.468       75.155      102.077       55.665     5648.323    10419.673     3098.571        2.768        0.958      188.291       37.964        0.041      336.842        8.412      859.295
01/03/2022  23:01:00     -348.613       -7.435      -37.105      216.868      260.113       86.704    47031.567    67658.782     7517.568       12.256        6.110      348.692       74.987        0.046      336.849        8.423      859.419
01/03/2022  23:02:00     -424.663       31.390       -8.424      358.941      151.022      101.544   128838.801    22807.547    10311.182       17.165        8.098      425.822      139.813        0.108      336.817        8.371      859.485
01/03/2022  23:03:00     -391.727       -1.721        4.321      285.034      149.381       96.917    81244.513    22314.807     9392.945       13.319        5.648      391.731      108.967        0.077      336.835        8.401      859.481
01/03/2022  23:04:00     -226.361      -18.989      -20.060      177.109      138.430       57.643    31367.499    19162.843     3322.660        5.292        2.693      227.156       60.351        0.071      336.824        8.382      859.467
01/03/2022  23:05:00     -271.823      -86.372      -36.797       98.526      160.249       57.839     9707.288    25679.777     3345.383        6.071        1.937      285.216       41.266        0.021      336.869        8.456      859.601
01/03/2022  23:06:00      -91.385      -74.055      -30.005      170.889      179.540       62.302    29203.191    32234.741     3881.508        4.002        3.266      117.623       47.147        0.161      336.797        8.339      859.566
01/03/2022  23:07:00     -214.839      -64.945       -5.933      165.550      105.603       77.427    27406.932    11151.962     5994.977        4.747        2.228      224.441       82.590        0.135      336.887        8.489      859.556
01/03/2022  23:08:00     -107.121      -48.076       -4.394      101.285       84.764       45.172    10258.665     7184.988     2040.531        1.664        0.974      117.415       32.499        0.077      336.843        8.415      859.750
01/03/2022  23:09:00     -110.376      -11.165      -27.565       90.673       66.477       55.721     8221.522     4419.151     3104.784        1.440        0.787      110.939       45.083        0.165      336.803        8.349      859.931
01/03/2022  23:10:00      104.164     -109.481      -68.022      140.315      123.441       79.152    19688.374    15237.598     6265.046        3.432        2.060      151.117       75.801        0.252      336.779        8.307      859.864
01/03/2022  23:11:00       66.579     -221.635      -85.677      136.281      174.183       77.909    18572.573    30339.601     6069.885        5.793        2.749      231.420       77.235        0.111      336.805        8.350      859.663
01/03/2022  23:12:00      -63.172        8.543      -14.686       79.772       69.693       44.560     6363.607     4857.087     1985.600        0.874        0.660       63.747       34.519        0.293      336.854        8.435      859.732
01/03/2022  23:13:00     -107.138     -143.382      -27.678      125.273      183.702       60.405    15693.308    33746.575     3648.799        4.294        2.654      178.989       61.007        0.116      336.823        8.382      859.781
01/03/2022  23:14:00     -332.418       63.461      -61.292      266.208      188.247       80.127    70866.495    35436.851     6420.369       11.548        5.636      338.421       23.680        0.005      336.822        8.379      859.744
01/03/2022  23:15:00     -221.165       35.660        4.335      321.197      156.934       96.158   103167.366    24628.148     9246.296        9.360        6.852      224.022       76.216        0.116      336.754        8.266      859.787
01/03/2022  23:16:00     -338.513      -31.016       -6.994      197.635      154.149      103.475    39059.417    23762.047    10707.071        9.455        3.676      339.931       92.691        0.074      336.782        8.313      859.804
01/03/2022  23:17:00     -436.911       64.946      -34.373      348.134      206.428      133.592   121197.357    42612.458    17846.878       18.894        9.083      441.712      140.408        0.101      336.848        8.421      859.766
01/03/2022  23:18:00     -288.711       16.719      -27.409      284.913      133.974       94.629    81175.259    17948.923     8954.608        9.621        5.404      289.194      105.014        0.132      336.749        8.257      859.999
01/03/2022  23:19:00     -369.722      -65.730      -57.065      160.301      122.098       87.182    25696.384    14908.039     7600.638        9.623        2.410      375.519       70.769        0.036      336.792        8.327      860.019
01/03/2022  23:20:00     -388.111      -96.022       -4.957      275.046      227.817      119.652    75650.310    51900.425    14316.672       15.085        7.093      399.813      123.946        0.096      336.800        8.341      860.074
01/03/2022  23:21:00     -523.171       39.867        6.385      292.113      196.999      133.938    85330.142    38808.745    17939.314       20.868        7.104      524.688      124.253        0.056      336.792        8.328      860.043
01/03/2022  23:22:00     -189.484      -77.206       11.484      164.831      184.291       83.829    27169.423    33963.190     7027.254        5.507        3.408      204.610       82.409        0.162      336.852        8.429      859.930
01/03/2022  23:23:00     -388.857      -47.787      -24.622      302.725      182.717      104.376    91642.266    33385.625    10894.378       14.499        6.796      391.783       98.897        0.064      336.822        8.379      859.906
01/03/2022  23:24:00     -410.149     -143.972      -38.684      238.322      186.694       99.195    56797.431    34854.547     9839.629       14.595        5.075      434.684      111.451        0.066      336.909        8.524      859.882
01/03/2022  23:25:00     -410.400     -166.386      -29.884      218.046      219.732      127.213    47544.266    48282.093    16183.141       15.449        5.600      442.846      106.686        0.058      336.963        8.615      859.896
01/03/2022  23:26:00     -317.685     -160.939      -34.486      206.406      180.801       80.588    42603.270    32688.848     6494.476       10.489        4.089      356.126       62.510        0.031      336.950        8.592      860.115
01/03/2022  23:27:00     -280.057       27.057      -13.574      156.947      152.277       94.583    24632.314    23188.381     8946.021        6.805        2.838      281.361       82.122        0.085      336.870        8.459      860.171
01/03/2022  23:28:00     -282.423     -197.225      -40.727      142.227      103.144       76.031    20228.656    10638.735     5780.654        7.848        1.832      344.471       56.568        0.027      337.004        8.681      860.279
01/03/2022  23:29:00     -127.670      -45.343      -32.251       74.980       86.625       39.846     5622.052     7503.860     1587.716        1.705        0.736      135.483       21.148        0.024      336.996        8.670      860.442
01/03/2022  23:30:00     -162.317       12.818        0.428      122.115       71.295       57.557    14911.984     5082.912     3312.755        2.491        1.165      162.822       52.200        0.103      336.851        8.428      860.352
01/03/2022  23:31:00       15.744      -22.885       -5.892       97.127       96.984       48.559     9433.572     9405.887     2357.930        1.100        1.060       27.778       38.157        1.887      336.770        8.294      860.488
01/03/2022  23:32:00       54.144     -146.060      -85.042       77.075       91.531       48.854     5940.488     8377.974     2386.687        2.410        0.835      155.773       44.245        0.081      336.793        8.332      860.489
01/03/2022  23:33:00      -38.350     -112.897      -23.548      112.143      100.733       48.183    12576.149    10147.193     2321.620        1.990        1.252      119.233       19.327        0.026      336.963        8.618      860.469
01/03/2022  23:34:00      -41.259      -60.127      -21.123       73.932       82.550       33.390     5465.959     6814.500     1114.878        0.958        0.670       72.922       21.937        0.090      336.915        8.535      860.560
01/03/2022  23:35:00     -289.889       66.885      -18.215      186.732       95.542       77.478    34868.673     9128.277     6002.885        6.941        2.500      297.504       58.267        0.038      336.849        8.424      860.653
01/03/2022  23:36:00       19.401      -28.785        5.592       39.226       47.022       24.298     1538.666     2211.040      590.369        0.279        0.217       34.713       21.874        0.397      336.810        8.361      860.505
01/03/2022  23:37:00      -35.072      -12.937       -7.974       41.925       44.290       30.401     1757.700     1961.564      924.221        0.305        0.232       37.382       24.331        0.424      336.811        8.363      860.425
01/03/2022  23:38:00       67.326       52.854      -29.261       56.062       63.151       34.653     3142.939     3988.019     1200.836        0.826        0.417       85.594       22.047        0.066      336.799        8.343      860.510
01/03/2022  23:39:00      -70.275       11.245      -37.999      103.355      119.399       46.137    10682.330    14256.113     2128.608        1.678        1.353       71.169       37.018        0.271      336.776        8.305      860.494
01/03/2022  23:40:00     -234.226      109.592      -10.508      150.476       90.497       63.019    22643.102     8189.767     3971.403        5.089        1.740      258.596       58.963        0.052      336.704        8.184      860.405
01/03/2022  23:41:00     -281.944      105.101       -8.407      168.477      134.937       76.897    28384.580    18208.005     5913.138        7.155        2.625      300.897       72.868        0.059      336.626        8.052      860.466
01/03/2022  23:42:00     -188.282       28.312        0.532      165.784      117.039       73.141    27484.398    13698.242     5349.612        4.138        2.327      190.399       58.327        0.094      336.512        7.862      860.461
01/03/2022  23:43:00      -71.280       37.188      -15.269      113.205       65.314       56.726    12815.419     4265.869     3217.822        1.349        1.015       80.397       43.279        0.290      336.463        7.779      860.499
01/03/2022  23:44:00     -239.072       71.895       -0.798       89.407       80.059       53.150     7993.547     6409.463     2824.971        3.977        0.861      249.649       42.348        0.029      336.414        7.696      860.516
01/03/2022  23:45:00     -299.213      166.584      -44.232      175.362      171.034       78.289    30751.754    29252.792     6129.197        9.267        3.307      342.460       83.153        0.059      336.587        7.988      860.542
01/03/2022  23:46:00     -410.514      162.390      -32.527      139.675      117.177       75.419    19509.117    13730.390     5688.024       11.743        1.946      441.466       59.351        0.018      336.556        7.933      860.455
01/03/2022  23:47:00     -323.030      111.552       -1.430      126.071       98.122       67.651    15893.993     9627.982     4576.643        7.344        1.505      341.749       53.645        0.025      336.525        7.882      860.616
01/03/2022  23:48:00     -131.514       47.877      -10.192      114.628       66.917       49.001    13139.465     4477.885     2401.108        1.985        1.001      139.957       41.804        0.089      336.557        7.937      860.666
01/03/2022  23:49:00      -53.622       78.722      -16.985       72.371       61.257       31.298     5237.592     3752.371      979.541        0.966        0.498       95.249       28.652        0.090      336.509        7.858      860.577
01/03/2022  23:50:00      -58.595       91.446      -11.649      104.737       51.568       33.301    10969.742     2659.220     1108.966        1.333        0.737      108.608       32.133        0.088      336.539        7.909      860.656
01/03/2022  23:51:00     -252.539       17.452      -33.483      104.804       73.124       50.230    10983.819     5347.073     2523.015        4.202        0.943      253.141       41.506        0.027      336.669        8.123      860.664
01/03/2022  23:52:00     -109.073       29.577      -31.065       82.434       74.563       43.903     6795.384     5559.598     1927.511        1.401        0.714      113.012       27.267        0.058      336.536        7.904      860.651
01/03/2022  23:53:00     -192.285       24.785      -20.192      113.340      168.909       58.750    12845.877    28530.100     3451.607        4.140        2.241      193.876       35.013        0.033      336.766        8.286      860.535
01/03/2022  23:54:00     -198.568      -44.510      -10.277      150.040      102.178       69.196    22512.119    10440.245     4788.143        3.962        1.887      203.495       58.301        0.082      336.699        8.175      860.455
01/03/2022  23:55:00      -95.310       24.686      -11.996       60.252       54.705       32.748     3630.361     2992.637     1072.399        0.876        0.385       98.455       28.907        0.086      336.615        8.036      860.406
01/03/2022  23:56:00      -46.363       40.407        1.074       59.171       39.428       25.364     3501.193     1554.554      643.336        0.474        0.285       61.500       23.539        0.146      336.522        7.880      860.484
01/03/2022  23:57:00      132.383       22.553      -23.721       77.081       44.243       28.403     5941.424     1957.420      806.752        1.365        0.435      134.291       26.077        0.038      336.414        7.699      860.305
01/03/2022  23:58:00       52.153      139.974      -16.140       72.432       59.352       39.051     5246.454     3522.711     1525.002        1.643        0.515      149.374       24.525        0.027      336.434        7.732      860.191
01/03/2022  23:59:00        3.870      105.956       -2.334       77.347       36.062       27.696     5982.620     1300.440      767.071        0.965        0.403      106.027       21.674        0.042      336.522        7.882      860.342
01/04/2022  00:00:00     -249.226       81.346      -26.521      106.760       78.255       40.937    11397.690     6123.802     1675.826        4.431        0.960      262.166       26.037        0.010      336.516        7.868      860.488
01/04/2022  00:01:00     -190.067       17.996      -12.093      127.858       75.365       54.507    16347.546     5679.938     2971.052        3.079        1.250      190.917       46.478        0.059      336.449        7.757      860.456
01/04/2022  00:02:00      -67.081       31.615      -11.475       80.369       69.276       44.160     6459.139     4799.122     1950.093        0.942        0.660       74.158       40.010        0.291      336.400        7.675      860.352
01/04/2022  00:03:00      -38.342      -46.049      -28.238       56.625       51.825       32.345     3206.415     2685.816     1046.228        0.566        0.347       59.922       20.451        0.116      336.361        7.612      860.433
01/04/2022  00:04:00     -190.360       83.538      -21.432      220.051      100.106       61.865    48422.521    10021.223     3827.335        5.296        3.114      207.884       35.194        0.029      336.509        7.856      860.374
01/04/2022  00:05:00     -367.038      156.444        3.673      203.587      155.196       92.261    41447.835    24085.650     8512.125       11.661        3.702      398.988       91.985        0.053      336.564        7.948      860.337
01/04/2022  00:06:00     -153.323       25.200      -11.870       92.053       78.174       46.168     8473.737     6111.237     2131.498        2.050        0.836      155.380       40.315        0.067      336.546        7.918      860.466
01/04/2022  00:07:00      -28.107       37.664      -21.494       77.733       53.182       28.190     6042.369     2828.358      794.662        0.617        0.483       46.996       26.668        0.322      336.448        7.756      860.454
01/04/2022  00:08:00      -62.007      -19.192      -25.099      123.477      135.323       56.738    15246.536    18312.423     3219.213        2.080        1.839       64.909       35.564        0.300      336.538        7.906      860.382
01/04/2022  00:09:00     -245.868       48.260       -5.585      133.748       93.728       60.815    17888.636     8784.919     3698.498        4.659        1.519      250.559       62.136        0.061      336.760        8.277      860.430
01/04/2022  00:10:00     -178.965       -2.981       -3.155      121.997       96.950       62.806    14883.298     9399.397     3944.566        3.013        1.411      178.990       58.927        0.108      336.692        8.163      860.602
01/04/2022  00:11:00     -291.405      -60.945      -46.987       82.596       56.925       40.335     6822.064     3240.405     1626.910        5.126        0.584      297.710       26.064        0.008      336.803        8.345      860.364
01/04/2022  00:12:00     -229.663       26.673      -31.028      154.099      107.081       71.650    23746.515    11466.415     5133.723        4.738        2.017      231.207       71.024        0.094      336.783        8.314      860.260
01/04/2022  00:13:00     -239.142      -14.475      -15.374      195.816      105.991       73.129    38343.922    11234.027     5347.887        5.627        2.746      239.579       70.999        0.088      336.728        8.224      860.263
01/04/2022  00:14:00      -92.574     -114.263      -24.670       92.685      100.422       51.352     8590.563    10084.592     2637.006        2.177        1.066      147.058       42.974        0.085      336.668        8.125      860.270
01/04/2022  00:15:00     -133.027     -111.926      -21.641       73.093       73.095       38.641     5342.595     5342.872     1493.165        2.143        0.609      173.849       27.630        0.025      336.683        8.148      860.285
01/04/2022  00:16:00      -23.217       38.925      -11.578       57.003       77.003       29.560     3249.299     5929.478      873.804        0.612        0.503       45.323       27.845        0.377      336.777        8.306      860.356
01/04/2022  00:17:00      -61.568       35.748       -9.308       64.541       38.715       18.647     4165.585     1498.881      347.697        0.558        0.301       71.193       11.258        0.025      336.688        8.158      860.353
01/04/2022  00:18:00       48.733       55.427       -7.788       42.954       39.194       15.088     1845.089     1536.194      227.647        0.456        0.180       73.804       20.996        0.081      336.648        8.093      860.385
01/04/2022  00:19:00       87.130       35.832      -32.341      130.039      135.489       78.736    16910.065    18357.293     6199.287        2.569        2.073       94.210       49.650        0.278      336.705        8.184      860.263
01/04/2022  00:20:00      177.443       95.862      -35.204       96.849       96.403       47.139     9379.675     9293.568     2222.098        3.140        1.045      201.682       35.237        0.031      336.679        8.141      860.258
01/04/2022  00:21:00       74.043     -131.104      -44.911       62.665      121.210       58.148     3926.898    14691.912     3381.187        2.334        1.100      150.567       35.188        0.055      336.677        8.137      860.368
01/04/2022  00:22:00       11.364      -94.111      -23.884       43.793       87.378       32.994     1917.802     7634.898     1088.600        1.010        0.532       94.795       17.780        0.035      336.829        8.392      860.568
01/04/2022  00:23:00      100.280      -64.616      -42.066       68.186       89.733       55.809     4649.302     8051.956     3114.674        1.591        0.791      119.295       43.876        0.135      336.757        8.272      860.534
01/04/2022  00:24:00      127.264      -97.427      -50.908      102.551      104.260       66.802    10516.674    10870.082     4462.456        2.706        1.292      160.275       57.806        0.130      336.662        8.112      860.460
01/04/2022  00:25:00      313.418       51.994      -19.542      160.016      129.878       66.768    25605.166    16868.252     4458.019        7.412        2.347      317.701       53.892        0.029      336.695        8.167      860.412
01/04/2022  00:26:00      212.434      107.862      -28.957      158.041      111.258       68.459    24977.094    12378.329     4686.692        4.981        2.102      238.248       52.408        0.048      336.929        8.557      860.469
01/04/2022  00:27:00       69.443      310.409      -33.796       92.470       85.157       48.536     8550.703     7251.726     2355.743        6.023        0.908      318.082       39.136        0.015      336.981        8.643      860.571
01/04/2022  00:28:00      -77.239      104.491      -26.528       59.275       67.888       41.871     3513.499     4608.829     1753.214        1.373        0.494      129.939       22.585        0.030      336.931        8.563      860.748
01/04/2022  00:29:00     -114.720      173.849      -16.600       86.177      103.599       45.731     7426.474    10732.737     2091.344        3.195        1.013      208.289       23.866        0.013      336.857        8.437      860.725
01/04/2022  00:30:00     -184.545       52.421      -21.640      135.084       97.231       67.986    18247.815     9453.924     4622.078        3.479        1.616      191.846       66.575        0.120      336.632        8.061      860.738
01/04/2022  00:31:00     -202.511        9.181      -10.784      140.418       98.629       63.461    19717.292     9727.751     4027.331        3.734        1.674      202.719       42.246        0.043      336.523        7.881      860.768
01/04/2022  00:32:00     -115.112       42.091      -12.779      161.891       92.745       64.760    26208.774     8601.628     4193.897        2.709        1.950      122.565       48.542        0.157      336.417        7.704      860.774
01/04/2022  00:33:00      -81.710       71.567      -11.311       53.641       44.939       23.829     2877.331     2019.492      567.801        0.869        0.273      108.620       15.998        0.022      336.530        7.895      860.711
01/04/2022  00:34:00     -142.617       47.455       -2.003      140.766      101.085       67.511    19815.201    10218.163     4557.754        2.859        1.730      150.305       52.727        0.123      336.350        7.590      860.640
01/04/2022  00:35:00     -186.896        4.614      -11.749      164.065       85.697       62.923    26917.187     7343.914     3959.334        3.665        1.911      186.953       63.452        0.115      336.319        7.536      860.691
01/04/2022  00:36:00     -241.833       45.385       -7.295      140.709      117.110       64.947    19799.125    13714.681     4218.069        4.916        1.887      246.055       56.111        0.052      336.293        7.494      860.715
01/04/2022  00:37:00      -19.066      -50.757        1.547      145.997       92.265       49.028    21315.055     8512.899     2403.730        1.758        1.612       54.220       41.752        0.593      336.246        7.418      860.721
01/04/2022  00:38:00      -68.300      109.630      -24.033       79.638       67.005       46.029     6342.189     4489.632     2118.624        1.510        0.648      129.165       30.754        0.057      336.253        7.429      860.631
01/04/2022  00:39:00      -37.607       87.768      -15.748       50.774       36.129       29.945     2578.013     1305.269      896.679        0.707        0.239       95.485        5.991        0.004      336.336        7.568      860.580
01/04/2022  00:40:00      -37.359       18.091      -11.535       50.603       49.262       26.971     2560.683     2426.738      727.426        0.378        0.286       41.509       30.443        0.538      336.206        7.353      860.703
01/04/2022  00:41:00     -207.603       86.921       -0.411      103.557       91.891       59.279    10724.015     8443.909     3514.015        3.666        1.134      225.065       63.789        0.080      336.241        7.406      860.642
01/04/2022  00:42:00     -317.671      116.070        3.307      200.995      116.202       69.602    40398.802    13502.917     4844.443        8.656        2.937      338.212       61.973        0.034      336.250        7.420      860.599
01/04/2022  00:43:00     -358.704      153.196      -10.280      245.947      216.728      103.336    60489.950    46971.083    10678.383       13.517        5.907      390.048       89.255        0.052      336.505        7.848      860.532
01/04/2022  00:44:00     -183.457      -70.675      -23.119      149.694      153.754       70.468    22408.335    23640.199     4965.748        4.509        2.551      196.599       42.689        0.047      336.816        8.370      860.750
01/04/2022  00:45:00      -68.809       44.824        2.952       91.202       64.550       52.324     8317.795     4166.723     2737.816        1.098        0.761       82.121       28.977        0.125      336.889        8.492      860.732
01/04/2022  00:46:00     -191.576       32.188        0.025      171.451       89.257       58.827    29395.443     7966.788     3460.586        3.927        2.041      194.261       46.403        0.057      336.661        8.112      860.730
01/04/2022  00:47:00      -75.624       43.907      -11.220       61.604       62.492       34.950     3795.014     3905.258     1221.520        0.835        0.446       87.446       24.461        0.078      336.639        8.076      860.740
01/04/2022  00:48:00      -73.600       46.884      -10.928       64.356       61.863       44.271     4141.738     3827.009     1959.910        0.883        0.496       87.264       28.920        0.110      336.533        7.900      860.700
01/04/2022  00:49:00     -131.020       -8.180      -21.586       73.711       90.566       38.013     5433.316     8202.177     1444.957        1.639        0.754      131.275       28.154        0.046      336.580        7.978      860.689
01/04/2022  00:50:00     -225.572       76.438      -28.292       93.275      119.732       57.253     8700.138    14335.870     3277.872        4.192        1.316      238.171       33.813        0.020      336.472        7.793      860.734
01/04/2022  00:51:00      -97.808        6.828      -11.732      123.486       88.056       80.039    15248.800     7753.941     6406.212        1.957        1.470       98.046       71.591        0.533      336.322        7.545      860.852
01/04/2022  00:52:00     -251.549      -14.168      -25.368      271.099      138.542      105.554    73494.669    19193.844    11141.591        8.396        5.192      251.948      118.531        0.221      336.471        7.792      860.835
01/04/2022  00:53:00     -109.096      -41.052      -27.856      154.368      129.268       98.211    23829.466    16710.092     9645.419        3.226        2.509      116.564       63.758        0.299      336.852        8.430      860.588
01/04/2022  00:54:00     -466.391      136.768      -28.835      242.126      152.613      105.494    58625.047    23290.724    11129.023       16.503        4.652      486.030       87.779        0.033      336.587        7.986      860.740
01/04/2022  00:55:00     -331.338      133.495      -19.291      223.714      163.384       97.302    50047.881    26694.296     9467.646       10.708        4.310      357.220      101.415        0.081      336.617        8.038      860.687
01/04/2022  00:56:00     -121.540       -6.232      -28.886      139.505      123.917       79.677    19461.715    15355.425     6348.385        2.840        2.058      121.700       35.485        0.085      336.474        7.798      860.691
01/04/2022  00:57:00     -272.150       86.935      -15.815      180.553      136.165       86.087    32599.339    18540.966     7410.988        7.020        2.928      285.698       64.967        0.052      336.394        7.662      860.703
01/04/2022  00:58:00     -397.716       63.891      -13.665      232.037      163.566      106.013    53840.938    26753.930    11238.709       12.712        4.592      402.816       93.863        0.054      336.667        8.120      860.715
01/04/2022  00:59:00     -459.748      -20.795      -25.423      259.163      133.963      112.132    67165.719    17946.117    12573.545       15.505        4.884      460.218      116.244        0.064      336.762        8.280      860.807
01/04/2022  01:00:00     -190.848       18.309      -14.604      126.294       96.562       56.437    15950.263     9324.186     3185.138        3.271        1.423      191.724       57.711        0.091      336.678        8.140      860.809
01/04/2022  01:01:00     -157.081      -21.739      -17.919      123.748      103.674       80.078    15313.456    10748.402     6412.542        2.897        1.624      158.578       65.228        0.169      336.607        8.022      860.864
01/04/2022  01:02:00     -290.588       59.956        4.261      162.813      112.635       71.765    26508.121    12686.584     5150.267        6.619        2.217      296.709       79.205        0.071      336.598        8.005      861.052
01/04/2022  01:03:00     -151.631       48.705        4.365       90.847       86.817       51.111     8253.160     7537.272     2612.362        2.189        0.920      159.261       33.830        0.045      336.594        8.002      861.228
01/04/2022  01:04:00       22.312     -100.450      -38.150       74.072       78.786       47.650     5486.725     6207.236     2270.522        1.300        0.698      102.898       34.855        0.115      336.703        8.183      861.264
01/04/2022  01:05:00      -42.721       27.159       -3.123       71.483       54.794       35.947     5109.769     3002.421     1292.220        0.599        0.470       50.623       24.933        0.243      336.742        8.248      861.285
01/04/2022  01:06:00      -98.667       28.521      -19.102       52.741       49.095       33.305     2781.624     2410.311     1109.246        0.861        0.315      102.707       24.677        0.058      336.785        8.321      861.335
01/04/2022  01:07:00       29.813       87.780      -10.462       32.701       52.433       23.296     1069.360     2749.192      542.682        0.653        0.218       92.704       20.785        0.050      336.864        8.453      861.324
01/04/2022  01:08:00      -48.693      190.437      -23.291      110.289       64.497       46.103    12163.721     4159.916     2125.454        2.881        0.922      196.563       36.090        0.034      336.698        8.174      861.421
01/04/2022  01:09:00      -94.816       57.736        4.891      106.444       86.413       62.764    11330.300     7467.291     3939.308        1.754        1.137      111.011       51.616        0.216      336.540        7.911      861.493
01/04/2022  01:10:00     -189.607       26.071      -22.813      189.722      135.843       80.733    35994.437    18453.381     6517.816        4.905        3.048      191.391       59.108        0.095      336.499        7.839      861.493
01/04/2022  01:11:00     -156.804       80.685      -31.504      175.333      109.433       72.193    30741.763    11975.494     5211.840        4.000        2.396      176.345       60.637        0.118      336.595        8.001      861.454
01/04/2022  01:12:00     -202.395      130.249      -20.224      144.561       78.830       51.200    20897.888     6214.117     2621.464        4.403        1.487      240.684       34.684        0.021      336.747        8.256      861.455
01/04/2022  01:13:00      -18.772      193.412      -17.024       87.228      110.218       35.961     7608.717    12148.078     1293.193        2.955        1.052      194.320       45.790        0.056      336.781        8.311      861.329
01/04/2022  01:14:00     -116.616      219.469      -26.627      146.965       60.422       43.144    21598.775     3650.878     1861.390        4.479        1.356      248.527       49.200        0.039      336.776        8.302      861.298
01/04/2022  01:15:00       42.363      239.482      -28.462       78.581       92.648       41.980     6175.051     8583.626     1762.283        3.824        0.826      243.200       38.318        0.025      336.618        8.037      861.363
01/04/2022  01:16:00      -14.806      231.151      -13.479       85.298       72.918       41.834     7275.831     5316.987     1750.110        3.408        0.717      231.625       38.325        0.027      336.386        7.650      861.346
01/04/2022  01:17:00     -128.963      104.536      -34.754      138.846       99.759       52.293    19278.297     9951.926     2734.510        3.036        1.598      166.010       45.641        0.076      336.366        7.619      861.397
01/04/2022  01:18:00     -189.938      180.974      -17.270      185.037      120.436       60.661    34238.630    14504.829     3679.756        6.077        2.621      262.351       52.154        0.040      336.306        7.516      861.438
01/04/2022  01:19:00     -202.344      250.582      -27.885      121.474      136.534       61.972    14755.880    18641.662     3840.541        7.087        1.862      322.078       48.860        0.023      336.319        7.539      861.443
01/04/2022  01:20:00     -270.835      160.077      -44.738      162.825      107.504       68.426    26511.827    11557.095     4682.125        7.186        2.138      314.605       82.331        0.068      336.222        7.376      861.432
01/04/2022  01:21:00     -118.887      206.929      -24.866      117.796      161.193       73.682    13875.827    25983.301     5428.981        5.142        2.264      238.650       62.593        0.069      336.225        7.382      861.488
01/04/2022  01:22:00     -102.974      132.131      -40.005      155.100       96.705       70.047    24056.114     9351.887     4906.598        3.398        1.916      167.518       65.260        0.152      336.165        7.282      861.554
01/04/2022  01:23:00      -81.531      -14.587      -42.291       88.109       91.456       59.348     7763.234     8364.205     3522.165        1.415        0.982       82.826       32.327        0.152      335.996        7.002      861.616
01/04/2022  01:24:00      -61.177       -5.596      -31.840      119.803       98.324       64.136    14352.715     9667.560     4113.487        1.646        1.407       61.433       28.642        0.217      335.983        6.980      861.605
01/04/2022  01:25:00     -152.661       83.330      -50.316      140.153       70.614       48.139    19642.864     4986.395     2317.353        2.986        1.347      173.923       30.744        0.031      335.987        6.983      861.533
01/04/2022  01:26:00     -341.340      100.596        0.873      233.711      155.127      105.017    54620.654    24064.379    11028.518       10.816        4.486      355.854       99.248        0.078      336.024        7.046      861.499
01/04/2022  01:27:00     -276.450       67.354      -20.612      155.525       92.117       70.433    24188.053     8485.591     4960.829        5.950        1.882      284.536       60.978        0.046      336.222        7.375      861.551
01/04/2022  01:28:00     -120.787       75.122      -21.500      114.181       51.694       41.720    13037.378     2672.275     1740.527        1.907        0.873      142.242       37.087        0.068      336.210        7.357      861.543
01/04/2022  01:29:00     -346.502      141.470       -0.791      302.506      206.116       78.146    91509.632    42483.695     6106.753       14.006        7.005      374.269       90.881        0.059      336.182        7.309      861.455
01/04/2022  01:30:00     -378.491       69.461      -23.026      177.456      159.155       91.562    31490.524    25330.368     8383.544       10.690        3.260      384.812       64.542        0.028      336.436        7.733      861.505
01/04/2022  01:31:00     -338.315      115.123      -14.623      145.573      121.827       82.406    21191.566    14841.849     6790.687        8.537        2.141      357.365       72.211        0.041      336.212        7.357      861.520
01/04/2022  01:32:00     -429.087      146.900      -26.420      169.098      138.386       90.431    28594.136    19150.744     8177.797       13.115        2.796      453.536       81.592        0.032      336.140        7.239      861.430
01/04/2022  01:33:00      -82.596       21.821        1.632      206.172      141.998      106.460    42506.795    20163.484    11333.696        4.064        3.700       85.429       65.041        0.580      336.076        7.134      861.512
01/04/2022  01:34:00     -222.610       35.391      -15.659      153.110       96.936       58.439    23442.820     9396.634     3415.151        4.365        1.813      225.406       55.344        0.060      336.069        7.122      861.592
01/04/2022  01:35:00     -252.473       73.649      -10.649      138.231       79.241       62.361    19107.684     6279.089     3888.935        4.927        1.464      262.996       59.899        0.052      335.992        6.992      861.523
01/04/2022  01:36:00     -188.294      109.936      -35.482       84.209       56.300       42.172     7091.200     3169.679     1778.516        3.042        0.602      218.038       37.264        0.029      336.062        7.110      861.443
01/04/2022  01:37:00      -48.534      -12.089      -22.892      136.468       96.547       65.659    18623.628     9321.385     4311.159        1.764        1.613       50.017       35.582        0.506      336.007        7.019      861.454
01/04/2022  01:38:00     -266.057       93.990      -33.459      143.328      102.455       60.677    20542.945    10496.955     3681.699        5.772        1.736      282.171       44.688        0.025      336.182        7.310      861.466
01/04/2022  01:39:00      -48.836       26.166      -23.021      104.674       63.520       35.384    10956.596     4034.809     1252.025        0.992        0.812       55.405       39.226        0.501      336.193        7.329      861.546
01/04/2022  01:40:00      -45.748       21.443       -8.145       74.401       59.337       38.239     5535.510     3520.938     1462.240        0.657        0.526       50.524       12.225        0.059      335.986        6.986      861.494
01/04/2022  01:41:00      -13.772      100.133      -29.688       97.429      100.055       49.875     9492.368    10011.099     2487.473        1.654        1.100      101.076       39.201        0.150      335.970        6.956      861.387
01/04/2022  01:42:00     -112.072      132.003      -32.804       70.970      113.152       56.276     5036.728    12803.267     3167.024        2.603        1.050      173.161       38.702        0.050      336.038        7.069      861.432
01/04/2022  01:43:00       -2.789       68.607       -9.662       62.811      111.454       42.930     3945.213    12421.895     1842.992        1.151        0.911       68.664       25.047        0.133      335.960        6.941      861.480
01/04/2022  01:44:00     -193.734       66.078      -26.234      170.833      110.902       91.523    29183.912    12299.245     8376.378        4.621        2.493      204.693       89.456        0.191      336.003        7.011      861.490
01/04/2022  01:45:00     -356.105       98.481      -22.704      199.867      130.916       77.484    39946.670    17138.892     6003.718       10.005        3.154      369.472       55.315        0.022      335.974        6.964      861.584
01/04/2022  01:46:00     -299.540      132.559      -32.951      139.194       93.755       53.002    19374.884     8790.037     2809.262        6.967        1.549      327.561       11.247        0.001      336.146        7.249      861.637
01/04/2022  01:47:00     -119.431       56.213      -19.099      109.778       55.039       36.437    12051.253     3029.280     1327.647        1.710        0.820      131.999       36.182        0.075      336.139        7.239      861.624
01/04/2022  01:48:00     -121.390      124.835      -35.540      111.527       69.217       50.295    12438.269     4790.947     2529.554        2.567        0.988      174.124       44.388        0.065      336.222        7.375      861.579
01/04/2022  01:49:00      -44.037      -10.756      -17.241       62.250       85.301       61.187     3875.067     7276.212     3743.789        0.862        0.745       45.331       23.263        0.263      336.059        7.107      861.513
01/04/2022  01:50:00     -125.633       25.010      -25.566      100.574       97.796       53.455    10115.151     9564.143     2857.414        1.980        1.127      128.098       39.491        0.095      336.001        7.010      861.593
01/04/2022  01:51:00     -186.175       54.772      -21.716      120.294       76.238       47.050    14470.759     5812.229     2213.706        3.031        1.125      194.065       39.493        0.041      335.999        7.005      861.555
01/04/2022  01:52:00     -152.773       76.970      -37.620       97.037      103.789       61.458     9416.135    10772.227     3777.122        2.732        1.198      171.067       43.864        0.066      336.009        7.022      861.543
01/04/2022  01:53:00      -38.185      124.261       -8.979       88.822       74.850       47.948     7889.284     5602.501     2298.994        1.638        0.790      129.996       24.472        0.035      336.083        7.146      861.524
01/04/2022  01:54:00     -166.550      163.284      -28.949      191.207      170.303       98.336    36560.208    29002.983     9669.979        6.522        3.762      233.239       87.248        0.140      336.236        7.399      861.502
01/04/2022  01:55:00      -90.924      -21.381       -7.731      148.288       82.872       78.417    21989.266     6867.771     6149.292        2.189        1.750       93.405       60.510        0.420      336.227        7.387      861.582
01/04/2022  01:56:00     -227.440       55.207      -15.768      163.248       93.042       66.987    26649.749     8656.762     4487.194        4.740        1.990      234.044       50.635        0.047      336.283        7.478      861.642
01/04/2022  01:57:00     -169.965       -6.266        2.190      118.106       76.358       66.490    13949.056     5830.488     4420.859        2.656        1.210      170.080       52.295        0.095      336.211        7.357      861.681
01/04/2022  01:58:00     -176.449       91.694      -23.391      112.599      125.761       57.293    12678.618    15815.913     3282.520        3.593        1.589      198.852       44.352        0.050      336.125        7.214      861.621
01/04/2022  01:59:00     -296.664       36.067      -22.161      103.860       78.652       60.277    10786.900     6186.073     3633.261        5.520        1.030      298.848       58.185        0.038      336.119        7.203      861.653
01/04/2022  02:00:00     -286.877       96.285      -11.779      153.991      115.726       68.489    23713.112    13392.568     4690.811        6.674        2.090      302.604       68.347        0.051      336.234        7.396      861.714
01/04/2022  02:01:00     -154.657       71.746      -25.690      126.093      117.563       75.123    15899.352    13821.140     5643.401        3.254        1.768      170.488       70.125        0.169      336.182        7.310      861.628
01/04/2022  02:02:00      -80.608      164.213      -24.645       70.565       68.202       52.411     4979.461     4651.504     2746.866        2.322        0.619      182.930       38.115        0.043      336.174        7.296      861.594
01/04/2022  02:03:00      -72.959       23.585      -16.039      113.537       71.594       61.323    12890.570     5125.700     3760.459        1.395        1.089       76.676       67.194        0.768      336.042        7.078      861.713
01/04/2022  02:04:00     -176.618       21.774       -7.184      115.528       78.917       49.556    13346.810     6227.969     2455.828        2.687        1.102      177.955       35.360        0.039      336.343        7.578      861.857
01/04/2022  02:05:00      -57.785       29.562      -22.718       74.957       44.120       25.339     5618.508     1946.534      642.041        0.647        0.410       64.908        7.998        0.015      336.126        7.219      861.788
01/04/2022  02:06:00       46.115       92.562      -18.801       55.275       59.966       45.095     3055.339     3595.877     2033.519        0.986        0.434      103.413       36.047        0.122      336.043        7.080      861.664
01/04/2022  02:07:00     -136.388       42.679      -18.508      147.731      116.073       71.982    21824.409    13472.894     5181.447        3.061        2.024      142.910       62.371        0.190      336.101        7.174      861.669
01/04/2022  02:08:00     -530.874      178.320      -30.288      310.838      230.643      112.474    96620.274    53196.409    12650.406       23.847        8.123      560.023      120.926        0.047      336.236        7.399      861.629
01/04/2022  02:09:00     -430.131      -51.163      -44.448      299.455      153.952       84.479    89673.199    23701.131     7136.633       15.504        6.026      433.163       37.377        0.007      336.636        8.068      861.798
01/04/2022  02:10:00     -235.508       69.192      -36.653      119.626       69.147       51.967    14310.264     4781.249     2700.527        4.169        1.090      245.462       46.047        0.035      336.665        8.117      861.822
01/04/2022  02:11:00     -239.236        5.207      -32.508       75.512       47.766       33.008     5702.058     2281.635     1089.496        3.369        0.454      239.292       15.699        0.004      336.806        8.353      861.876
01/04/2022  02:12:00     -223.630       95.049      -25.668       72.327       53.977       48.818     5231.267     2913.541     2383.185        3.511        0.526      242.991       43.975        0.033      336.397        7.666      861.903
01/04/2022  02:13:00     -242.836      116.682        7.294      163.542      119.648       72.398    26745.978    14315.581     5241.486        5.946        2.315      269.414       68.254        0.064      336.255        7.430      861.898
01/04/2022  02:14:00     -145.691       46.168       -0.041      125.675      141.163       72.016    15794.237    19927.048     5186.366        3.212        2.045      152.831       65.111        0.182      336.138        7.235      861.853
01/04/2022  02:15:00     -232.434       84.200      -33.773      137.012      116.282       73.977    18772.322    13521.396     5472.622        5.000        1.888      247.215       64.036        0.067      336.057        7.100      861.832
01/04/2022  02:16:00     -361.710       82.825      -32.028      174.181      116.632       90.840    30339.161    13603.124     8251.866        9.545        2.610      371.072       66.503        0.032      336.247        7.418      861.931
01/04/2022  02:17:00     -340.640       48.849      -13.517      249.816      108.377       85.665    62407.881    11745.477     7338.452       10.003        4.075      344.125       81.396        0.056      336.460        7.774      862.006
01/04/2022  02:18:00     -232.131      -13.022       -7.149      256.564      168.180      113.396    65825.225    28284.390    12858.540        8.052        5.348      232.496      111.673        0.231      336.379        7.636      861.940
01/04/2022  02:19:00     -271.386        1.020      -24.454      216.708      237.173       88.677    46962.206    56250.848     7863.611        9.264        5.554      271.388      110.983        0.167      336.504        7.846      861.967
01/04/2022  02:20:00     -378.684       79.567      -27.005      130.646      120.762       67.432    17068.352    14583.355     4547.090        9.332        1.810      386.953       45.307        0.014      336.169        7.287      862.062
01/04/2022  02:21:00     -329.250      127.110      -44.181      147.855       96.045       65.114    21861.019     9224.630     4239.778        8.091        1.766      352.934       51.310        0.021      335.988        6.987      862.084
01/04/2022  02:22:00      -59.928      109.517      -30.054      141.699      124.107       64.263    20078.535    15402.616     4129.688        2.804        1.981      124.841       40.229        0.104      335.902        6.844      862.020
01/04/2022  02:23:00     -309.965      142.754      -36.397      137.235      127.818       88.309    18833.448    16337.442     7798.445        8.037        2.148      341.258       62.231        0.033      335.945        6.912      862.044
01/04/2022  02:24:00      -94.204       52.432      -11.632      195.674      141.300       88.638    38288.212    19965.560     7856.666        3.892        3.306      107.813       99.582        0.853      335.924        6.881      862.049
01/04/2022  02:25:00     -354.450       96.823      -12.088      255.536      201.789      123.227    65298.873    40718.680    15184.842       12.816        6.060      367.436      111.970        0.093      335.944        6.912      861.926
01/04/2022  02:26:00     -233.527      137.326      -72.172      264.011      217.329      162.961    69702.027    47231.817    26556.440       11.102        7.175      270.912      112.790        0.173      336.044        7.078      862.113
01/04/2022  02:27:00     -358.364       67.489      -16.764      198.880      154.434       95.429    39553.401    23849.735     9106.609       10.287        3.625      364.663       80.315        0.049      336.033        7.059      862.213
01/04/2022  02:28:00     -252.066       98.746      -23.527      198.290      155.381       94.385    39318.918    24143.338     8908.444        7.309        3.619      270.718       80.901        0.089      335.996        6.998      862.174
01/04/2022  02:29:00     -346.164      117.888      -26.053      189.862      173.058       99.365    36047.418    29949.139     9873.488       10.512        3.794      365.687       58.702        0.026      336.009        7.021      862.149
01/04/2022  02:30:00     -427.185      220.411      -29.953      155.701      190.960      110.239    24242.860    36465.648    12152.566       15.240        3.643      480.695       85.429        0.032      335.971        6.956      862.107
01/04/2022  02:31:00     -462.376      120.483       -2.340      316.640      181.564      108.415   100260.681    32965.623    11753.801       18.662        7.249      477.816      108.140        0.051      335.922        6.875      862.132
01/04/2022  02:32:00     -495.497      129.242      -19.029      297.802      151.253       97.415    88686.203    22877.337     9489.651       19.180        6.053      512.075       72.873        0.020      336.004        7.011      862.255
01/04/2022  02:33:00     -279.784       80.422       -8.443      164.237      136.266       71.775    26973.650    18568.490     5151.681        6.775        2.535      291.113       62.026        0.045      335.903        6.844      862.114
01/04/2022  02:34:00     -241.575       53.181      -15.360      212.112      109.032       80.999    44991.667    11888.052     6560.869        6.242        3.172      247.359       70.198        0.081      335.804        6.681      862.078
01/04/2022  02:35:00     -430.486      109.186       -8.179      199.822      135.049       84.181    39928.808    18238.111     7086.409       13.127        3.263      444.117       72.356        0.027      335.933        6.892      862.185
01/04/2022  02:36:00     -153.317       63.572      -20.982      246.742      216.035       84.298    60881.564    46671.279     7106.190        7.130        5.733      165.974      104.803        0.399      335.947        6.919      862.243
01/04/2022  02:37:00     -388.208       84.879      -17.025      322.654      162.963      117.867   104105.314    26556.945    13892.554       15.135        7.228      397.379      132.534        0.111      335.919        6.872      862.252
01/04/2022  02:38:00     -114.160       36.221       -8.863      216.047      142.115      102.156    46676.393    20196.795    10435.910        4.585        3.865      119.769       91.896        0.589      335.842        6.743      862.328
01/04/2022  02:39:00     -401.307      111.246      -21.546      329.496      186.894      131.414   108567.802    34929.325    17269.691       16.730        8.038      416.441      125.031        0.090      335.917        6.867      862.290
01/04/2022  02:40:00     -410.426       99.803       -7.435      289.860      158.264      117.835    84019.004    25047.625    13885.170       15.069        6.148      422.386      110.623        0.069      335.912        6.859      862.307
01/04/2022  02:41:00     -293.245       59.342      -24.615      193.155      178.476       86.444    37308.774    31853.681     7472.544        8.336        3.832      299.189       81.695        0.075      335.876        6.800      862.339
01/04/2022  02:42:00     -319.536      134.530      -23.327      295.924      181.073      111.177    87570.865    32787.611    12360.364       12.671        6.636      346.701      134.660        0.151      335.847        6.751      862.254
01/04/2022  02:43:00     -298.876       72.646      -35.094      321.671      176.164      124.904   103472.432    31033.817    15601.066       12.294        7.505      307.578      107.412        0.122      335.828        6.718      862.205
01/04/2022  02:44:00     -247.990       78.109      -28.392      254.323      159.399      109.282    64679.943    25408.058    11942.533        8.520        5.102      260.000       78.121        0.090      335.855        6.764      862.212
01/04/2022  02:45:00     -436.663      171.768       -8.032      318.647      178.852      111.622   101535.863    31987.910    12459.533       18.309        7.299      469.232      124.111        0.070      335.896        6.834      862.284
01/04/2022  02:46:00     -380.455      140.819        1.051      280.403      168.140      125.570    78625.770    28271.030    15767.946       14.360        6.133      405.680      112.356        0.077      336.015        7.031      862.229
01/04/2022  02:47:00     -265.967      102.606      -25.411      271.446      195.782      111.042    73682.858    38330.787    12330.354       10.311        6.217      285.073       95.357        0.112      336.036        7.066      862.216
01/04/2022  02:48:00     -457.460      229.148      -18.938      203.810      230.747      104.399    41538.527    53244.214    10899.111       18.389        5.284      511.643       86.018        0.028      335.996        6.997      862.134
01/04/2022  02:49:00     -461.366      153.032      -64.049      313.502      241.955      105.259    98283.267    58542.032    11079.426       20.411        8.395      486.084       86.244        0.031      335.936        6.898      862.103
01/04/2022  02:50:00     -289.518       53.280       19.200      265.837      209.325      118.178    70669.195    43816.767    13966.079       10.772        6.423      294.379      124.029        0.178      335.934        6.896      861.975
01/04/2022  02:51:00     -453.255       96.569      -18.630      284.098      190.502      105.716    80711.671    36290.875    11175.843       17.162        6.409      463.428      112.894        0.059      335.834        6.729      862.024
01/04/2022  02:52:00     -603.115      227.056      -18.575      312.264      211.366      125.166    97508.912    44675.612    15666.625       28.672        7.893      644.439      118.741        0.034      336.046        7.083      862.091
01/04/2022  02:53:00     -461.083      108.599        1.077      323.996      207.890      110.547   104973.483    43218.162    12220.533       19.237        8.021      473.699      104.594        0.049      335.895        6.830      862.181
01/04/2022  02:54:00     -459.586      155.949       -2.940      257.844      143.435      110.936    66483.782    20573.661    12306.870       16.744        4.968      485.324      132.930        0.075      335.839        6.737      862.240
01/04/2022  02:55:00     -458.017      111.442      -17.688      283.617      164.243      104.925    80438.620    26975.926    11009.349       17.045        5.921      471.379      106.379        0.051      335.795        6.663      862.241
01/04/2022  02:56:00     -533.439      102.114      -10.961      325.863      180.358      126.846   106186.996    32529.016    16090.034       22.493        7.740      543.125      133.445        0.060      335.786        6.648      862.306
01/04/2022  02:57:00     -322.751      128.920      -10.629      361.244      166.660      128.388   130497.577    27775.556    16483.591       14.780        8.738      347.547      122.980        0.125      335.762        6.610      862.287
01/04/2022  02:58:00     -345.461       18.193       12.344      303.210      173.222      118.993    91936.344    30005.900    14159.306       12.794        6.805      345.940      126.950        0.135      335.771        6.624      862.268
01/04/2022  02:59:00     -410.337      126.635       -6.437      295.598      127.498      110.962    87378.239    16255.735    12312.545       15.018        5.797      429.433      117.548        0.075      335.755        6.597      862.282
01/04/2022  03:00:00     -458.721      118.281      -20.430      277.533      179.938       99.103    77024.417    32377.587     9821.470       17.201        5.961      473.725      123.678        0.068      335.772        6.624      862.222
01/04/2022  03:01:00     -455.495       46.213       -5.987      221.534      130.905      103.066    49077.093    17136.205    10622.541       14.323        3.842      457.834       81.933        0.032      335.802        6.674      862.220
01/04/2022  03:02:00     -486.807      135.194       -5.967      302.253      210.496      112.797    91357.175    44308.698    12723.071       20.181        7.419      505.231      119.248        0.056      335.900        6.838      862.196
01/04/2022  03:03:00     -420.077      100.468        5.329      307.019      180.619      125.442    94260.906    32623.248    15735.677       16.458        7.131      431.924      118.348        0.075      335.914        6.861      862.228
01/04/2022  03:04:00     -506.888      164.281      -33.109      284.598      227.269      112.341    80995.818    51651.366    12620.557       21.512        7.263      532.845       83.720        0.025      335.897        6.834      862.470
01/04/2022  03:05:00     -487.622      105.040        2.473      304.934      137.768      103.642    92984.963    18980.111    10741.685       18.574        6.135      498.808      123.338        0.061      336.041        7.072      862.396
01/04/2022  03:06:00     -301.612      110.316        6.218      210.936      110.446       84.113    44494.098    12198.372     7075.065        8.346        3.188      321.153       92.260        0.083      335.969        6.954      862.350
01/04/2022  03:07:00     -460.033      144.598       -1.310      253.478      151.107      104.856    64251.106    22833.429    10994.717       16.529        4.904      482.223      108.240        0.050      335.827        6.718      862.348
01/04/2022  03:08:00     -573.104      124.483       -8.291      229.536      175.269       97.009    52686.685    30719.057     9410.760       21.840        4.641      586.467       89.691        0.023      335.884        6.812      862.393
01/04/2022  03:09:00     -473.537      159.799      -23.456      255.523      138.146       98.193    65291.935    19084.324     9641.915       17.215        4.701      499.772      108.625        0.047      335.872        6.792      862.412
01/04/2022  03:10:00     -415.657      107.738      -25.068      246.729      117.235       90.829    60875.010    13743.969     8249.847       13.392        4.143      429.393       86.743        0.041      335.936        6.896      862.377
01/04/2022  03:11:00     -670.846      211.211       -2.058      434.670      286.227      177.210   188937.771    81926.177    31403.325       39.840       15.113      703.310      185.994        0.070      336.093        7.160      862.398
01/04/2022  03:12:00     -418.493        6.625      -17.128      422.806      190.250      151.283   178765.118    36194.913    22886.499       20.662       11.892      418.546      179.146        0.183      336.122        7.208      862.311
01/04/2022  03:13:00     -235.569       49.618      -16.686      182.375      152.614       95.957    33260.751    23291.106     9207.743        6.198        3.288      240.738       83.303        0.120      336.058        7.102      862.399
01/04/2022  03:14:00     -513.183      157.252      -17.527      226.554      186.394      119.844    51326.612    34742.742    14362.658       19.439        5.022      536.736       80.320        0.022      336.048        7.086      862.385
01/04/2022  03:15:00     -686.753      202.116      -14.081      365.733      240.213      144.693   133760.852    57702.048    20936.159       36.250       10.620      715.877      133.507        0.035      336.004        7.012      862.343
01/04/2022  03:16:00     -504.398      187.191        1.970      289.810      183.668      127.821    83989.958    33734.023    16338.259       21.174        6.703      538.013      134.031        0.062      336.005        7.015      862.348
01/04/2022  03:17:00     -428.890      120.877        2.444      266.062      186.240      121.692    70789.236    34685.157    14808.911       15.940        6.014      445.598      117.876        0.070      335.972        6.958      862.362
01/04/2022  03:18:00     -569.807       88.280       -1.609      309.643      211.458      121.786    95879.046    44714.402    14831.788       24.392        7.771      576.605      131.207        0.052      335.954        6.928      862.389
01/04/2022  03:19:00     -708.551      217.303      -18.523      278.652      233.999      129.004    77647.019    54755.655    16642.005       34.930        7.452      741.124      117.796        0.025      335.980        6.971      862.446
01/04/2022  03:20:00     -454.766       88.431       -1.395      355.815      182.217      125.511   126604.282    33203.045    15752.970       19.506        8.778      463.284      147.296        0.101      335.942        6.908      862.465
01/04/2022  03:21:00     -281.574       33.295      -19.276      369.443      173.422      120.257   136488.016    30075.053    14461.772       13.086        9.051      283.536      134.190        0.224      335.905        6.848      862.506
01/04/2022  03:22:00     -357.256       42.575      -18.193      278.015      190.310      133.811    77292.274    36218.070    17905.340       13.057        6.571      359.784      147.306        0.168      335.874        6.796      862.501
01/04/2022  03:23:00     -395.535       80.205      -10.950      287.052      174.667      122.689    82398.884    30508.514    15052.639       14.546        6.398      403.585      121.331        0.090      335.906        6.850      862.532
01/04/2022  03:24:00     -659.585      -50.028      -45.464      450.394      267.402      177.617   202855.192    71503.833    31547.821       37.271       15.295      661.480      193.884        0.086      336.072        7.126      862.435
01/04/2022  03:25:00     -582.131      124.433      -37.755      326.302      271.635      156.982   106472.796    73785.313    24643.280       28.031       10.245      595.281      120.327        0.041      336.041        7.071      862.464
01/04/2022  03:26:00     -547.951      121.108      -17.410      389.454      251.247      157.873   151674.178    63124.916    24923.822       27.743       11.986      561.175      149.499        0.071      335.999        7.004      862.488
01/04/2022  03:27:00     -685.131      173.152      -10.065      374.158      280.265      163.951   139994.102    78548.669    26879.783       37.241       12.271      706.673      180.460        0.065      335.953        6.926      862.419
01/04/2022  03:28:00     -499.467       91.130        6.933      352.591      293.107      152.121   124320.211    85911.766    23140.731       24.555       11.669      507.712      150.556        0.088      335.964        6.947      862.365
01/04/2022  03:29:00     -582.370      -21.768      -35.510      421.463      206.346      164.652   177631.358    42578.665    27110.259       29.406       12.366      582.777      190.165        0.106      335.950        6.922      862.385
01/04/2022  03:30:00     -439.924       31.315      -19.449      363.742      249.022      182.598   132308.507    62012.083    33342.013       21.124       11.383      441.037      165.081        0.140      335.929        6.886      862.408
01/04/2022  03:31:00     -683.539      -33.451      -40.649      315.518      226.543      152.701    99551.478    51321.824    23317.715       32.206        8.710      684.357      148.672        0.047      335.901        6.839      862.399
01/04/2022  03:32:00     -548.643      -10.761        7.875      460.501      224.365      170.871   212061.062    50339.799    29196.828       29.634       14.580      548.749      186.091        0.115      335.970        6.956      862.385
01/04/2022  03:33:00     -473.671      106.871      -39.101      350.876      251.967      140.421   123114.126    63487.246    19718.074       22.178       10.316      485.578      152.283        0.098      336.070        7.123      862.355
01/04/2022  03:34:00     -259.449       79.822      -19.152      368.089      182.134      136.448   135489.729    33172.678    18618.155       13.063        9.364      271.450      148.411        0.299      336.028        7.052      862.390
01/04/2022  03:35:00     -410.841      120.333      -14.814      305.992      299.061      154.479    93630.940    89437.256    23863.795       19.517       10.347      428.101      135.419        0.100      335.987        6.984      862.406
01/04/2022  03:36:00     -474.224      103.134      -36.360      345.484      215.163      145.269   119359.247    46295.235    21103.080       21.177        9.338      485.309      152.639        0.099      336.013        7.027      862.427
01/04/2022  03:37:00     -353.197       55.387       15.400      451.877      243.816      176.697   204193.086    59446.450    31221.876       21.140       14.743      357.514      188.960        0.279      335.912        6.859      862.451
01/04/2022  03:38:00     -446.049       73.187      -12.283      445.875      209.502      151.657   198804.757    43891.026    22999.796       23.503       13.285      452.013      168.270        0.139      335.926        6.881      862.447
01/04/2022  03:39:00     -263.491       87.708      -10.745      370.144      233.032      147.519   137006.354    54303.770    21761.927       14.511       10.654      277.706      163.920        0.348      335.929        6.888      862.410
01/04/2022  03:40:00     -651.339      164.795       -6.976      419.448      246.652      179.822   175936.848    60837.001    32335.832       36.023       13.455      671.863      211.529        0.099      335.902        6.842      862.378
01/04/2022  03:41:00     -649.584       68.131       -2.012      466.397      276.966      177.275   217526.109    76710.040    31426.270       37.607       16.283      653.147      191.517        0.086      335.921        6.874      862.358
01/04/2022  03:42:00     -669.850       80.309      -32.532      388.943      257.745      150.925   151276.660    66432.631    22778.304       34.830       12.024      674.647      145.901        0.047      335.906        6.848      862.442
01/04/2022  03:43:00     -486.383       87.138      -10.641      411.699      274.286      206.395   169495.949    75232.966    42598.760       26.575       14.366      494.127      214.475        0.188      335.914        6.861      862.446
01/04/2022  03:44:00     -506.194       92.012      -16.440      317.938      214.622      126.385   101084.874    46062.515    15973.214       21.401        8.156      514.488      129.230        0.063      335.863        6.776      862.503
01/04/2022  03:45:00     -665.429       70.097      -15.860      419.080      225.956      157.492   175627.925    51055.948    24803.620       34.968       12.574      669.111      163.981        0.060      335.832        6.726      862.520
01/04/2022  03:46:00     -831.668       60.881      -47.133      358.304      246.406      160.197   128382.090    60715.936    25663.157       45.614       10.738      833.893      140.859        0.029      335.908        6.852      862.475
01/04/2022  03:47:00     -371.853       28.349      -13.710      486.321      205.008      146.520   236508.596    42028.394    21467.991       21.958       15.000      372.932      168.154        0.203      335.946        6.914      862.513
01/04/2022  03:48:00     -480.280       62.664      -12.035      294.018      210.728      128.124    86446.554    44406.186    16415.832       19.098        7.363      484.351      130.467        0.073      335.870        6.790      862.467
01/04/2022  03:49:00     -160.251       63.782      -10.293      281.276      164.777      118.381    79116.034    27151.475    14014.174        7.505        6.014      172.478       87.705        0.259      335.803        6.677      862.492
01/04/2022  03:50:00     -331.279      -49.414        6.025      356.490      195.259      149.842   127084.970    38125.898    22452.620       14.991        9.383      334.944      168.046        0.252      335.766        6.616      862.443
01/04/2022  03:51:00     -569.930      132.124      -50.078      437.046      269.517      149.946   191008.778    72639.387    22483.776       31.541       14.307      585.045      147.433        0.064      335.853        6.760      862.481
01/04/2022  03:52:00     -194.687       18.368       -9.121      223.140      214.101      108.271    49791.513    45839.044    11722.505        7.282        5.368      195.551       97.464        0.248      335.796        6.667      862.503
01/04/2022  03:53:00     -452.552       85.104       -2.036      345.150      242.522      189.434   119128.555    58817.114    35885.395       21.290       10.692      460.484      167.658        0.133      335.907        6.849      862.411
01/04/2022  03:54:00     -436.673       37.803      -23.338      466.295      291.484      158.506   217431.319    84962.792    25124.205       26.003       16.376      438.306      177.139        0.163      336.016        7.032      862.429
01/04/2022  03:55:00     -333.712      108.727       -4.770      280.956      244.915      137.174    78936.444    59983.233    18816.744       14.044        7.887      350.977      147.186        0.176      335.951        6.923      862.454
01/04/2022  03:56:00     -446.165       56.785      -11.269      394.054      232.099      158.204   155278.451    53870.109    25028.432       21.825       11.709      449.765      150.502        0.112      335.932        6.891      862.384
01/04/2022  03:57:00     -220.880       73.304      -13.348      407.586      241.421      131.396   166126.743    58284.226    17264.892       14.796       12.084      232.726       97.898        0.177      335.919        6.870      862.404
01/04/2022  03:58:00     -586.661      116.236      -14.286      434.771      221.962      130.227   189025.472    49267.319    16959.180       30.652       12.763      598.065      160.430        0.072      335.943        6.910      862.395
01/04/2022  03:59:00     -559.222       93.020       24.022      422.626      265.351      180.409   178612.816    70410.916    32547.286       30.171       14.079      566.905      186.559        0.108      335.941        6.906      862.394
01/04/2022  04:00:00     -451.086      -37.351      -19.692      438.030      229.913      180.449   191870.184    52860.121    32562.003       24.123       13.865      452.630      204.750        0.205      335.954        6.929      862.321
01/04/2022  04:01:00     -599.803       60.020      -20.312      461.005      305.935      208.495   212525.428    93596.114    43470.241       35.662       17.480      602.798      206.036        0.117      336.063        7.110      862.282
01/04/2022  04:02:00     -820.212       62.264      -23.333      498.102      293.687      192.873   248105.997    86252.305    37200.093       52.430       18.578      822.572      207.170        0.063      336.069        7.121      862.264
01/04/2022  04:03:00     -631.547      -20.847      -48.522      355.322      178.793      135.288   126253.449    31967.042    18302.883       28.905        8.826      631.891      143.897        0.052      336.046        7.081      862.271
01/04/2022  04:04:00     -253.972      124.624      -28.650      367.586      197.481      142.680   135119.743    38998.876    20357.617       13.763        9.724      282.901      124.496        0.194      336.002        7.009      862.314
01/04/2022  04:05:00     -678.042      -19.639      -63.921      399.068      236.610      142.878   159255.362    55984.495    20414.203       34.989       11.783      678.326      161.175        0.056      336.032        7.058      862.307
01/04/2022  04:06:00     -634.840       57.842      -18.469      384.943      291.458      157.456   148181.208    84947.601    24792.521       33.227       12.896      637.470      172.634        0.073      335.999        7.002      862.349
01/04/2022  04:07:00     -664.165       12.389      -15.450      418.597      251.321      145.053   175223.215    63162.367    21040.391       35.042       12.971      664.281      158.379        0.057      336.009        7.019      862.275
01/04/2022  04:08:00     -279.171       50.848        7.697      402.504      229.409      155.469   162009.642    52628.342    24170.548       15.965       11.940      283.764      150.701        0.282      335.934        6.896      862.276
01/04/2022  04:09:00     -703.743       14.335      -33.492      402.163      263.715      154.657   161734.921    69545.578    23918.718       37.584       12.760      703.889      160.379        0.052      335.936        6.899      862.229
01/04/2022  04:10:00     -856.812      -52.851      -35.727      466.123      277.252      175.017   217270.286    76868.864    30630.891       53.142       16.239      858.441      219.706        0.066      335.953        6.928      862.195
01/04/2022  04:11:00     -852.767      -68.686      -26.089      432.039      257.988      160.449   186657.705    66557.699    25743.905       50.573       13.948      855.529      174.560        0.042      336.002        7.010      862.144
01/04/2022  04:12:00     -571.350       43.705      -27.208      385.528      251.928      156.109   148631.576    63467.524    24369.951       28.274       11.823      573.019      174.874        0.093      335.960        6.940      862.217
01/04/2022  04:13:00     -454.965      -24.448      -17.043      381.988      224.684      152.413   145914.831    50483.088    23229.850       21.371       10.981      455.622      154.056        0.114      335.936        6.898      862.299
01/04/2022  04:14:00     -364.574      -46.955      -11.296      325.906      185.888      139.675   106214.862    34554.254    19508.986       14.773        8.014      367.585      143.513        0.152      335.890        6.822      862.305
01/04/2022  04:15:00     -583.798      -29.369      -39.987      428.921      262.075      167.498   183973.227    68683.271    28055.460       31.194       14.036      584.536      185.504        0.101      335.869        6.788      862.300
01/04/2022  04:16:00     -544.794      -38.453      -44.378      441.328      254.593      181.843   194770.691    64817.806    33066.804       29.640       14.633      546.149      169.228        0.096      335.885        6.813      862.263
01/04/2022  04:17:00     -538.276      -18.879      -12.066      300.175      227.288      158.060    90105.196    51659.745    24982.875       22.846        8.337      538.607      155.359        0.083      335.878        6.803      862.234
01/04/2022  04:18:00     -419.926       16.078       -0.404      484.828      267.464      213.307   235058.019    71536.781    45499.702       26.428       17.605      420.234      233.763        0.309      335.927        6.883      862.191
01/04/2022  04:19:00     -745.903      -61.335      -36.341      449.233      222.782      194.869   201810.190    49631.699    37973.820       42.538       14.471      748.421      207.002        0.076      336.016        7.032      862.210
01/04/2022  04:20:00     -601.043      -16.923      -32.621      437.460      249.353      176.537   191371.423    62176.812    31165.204       32.361       14.236      601.281      178.059        0.088      336.007        7.016      862.225
01/04/2022  04:21:00     -313.852      -33.462       -4.451      347.383      191.132      154.159   120675.167    36531.585    23764.963       14.027        9.049      315.631      153.847        0.238      335.942        6.910      862.256
01/04/2022  04:22:00     -307.616      -20.635        2.216      344.131      160.426      123.131   118426.342    25736.527    15161.331       12.716        7.966      308.307      129.725        0.177      335.882        6.811      862.326
01/04/2022  04:23:00     -631.850       74.447      -17.671      495.244      249.931      155.658   245266.964    62465.545    24229.521       36.846       16.598      636.220      156.598        0.061      335.926        6.882      862.304
01/04/2022  04:24:00     -500.942      -35.520      -24.714      356.134      236.440      128.021   126831.265    55903.930    16389.500       22.593        9.956      502.199      117.689        0.055      335.871        6.789      862.335
01/04/2022  04:25:00     -448.473        6.844      -14.011      289.204      183.304      146.720    83638.902    33600.371    21526.668       17.004        6.938      448.525      146.847        0.107      335.837        6.735      862.305
01/04/2022  04:26:00     -522.724      -37.340      -18.299      310.205      180.486      128.789    96227.084    32575.323    16586.548       21.015        7.269      524.056      131.342        0.063      335.900        6.838      862.321
01/04/2022  04:27:00     -370.750      -70.211      -22.067      302.671      169.661      122.003    91609.743    28784.753    14884.712       13.905        6.764      377.339      137.569        0.133      335.891        6.823      862.289
01/04/2022  04:28:00     -523.385      -10.897       13.932      368.100      225.488      151.651   135497.966    50844.997    22998.088       24.175       10.467      523.498      154.544        0.087      335.873        6.792      862.319
01/04/2022  04:29:00     -681.037       39.240      -33.423      382.835      206.093      145.068   146562.774    42474.389    21044.678       33.824       10.504      682.166      165.982        0.059      335.898        6.834      862.437
01/04/2022  04:30:00     -424.210      -19.373       13.358      324.502      230.119      152.354   105301.294    52954.752    23211.734       18.095        9.073      424.652      136.555        0.103      335.875        6.797      862.500
01/04/2022  04:31:00     -607.778      -14.349      -20.550      399.881      214.878      153.121   159904.916    46172.433    23446.053       29.973       11.476      607.948      165.343        0.074      335.943        6.909      862.498
01/04/2022  04:32:00     -611.243      -10.692      -25.704      400.985      215.130      179.148   160789.239    46280.730    32093.861       30.673       11.958      611.337      183.421        0.090      335.972        6.959      862.477
01/04/2022  04:33:00     -603.062      -73.314       -7.078      428.101      220.197      164.927   183270.373    48486.615    27201.056       31.399       12.948      607.502      171.152        0.079      335.948        6.919      862.514
01/04/2022  04:34:00     -776.022      -22.080      -19.676      453.144      297.074      175.175   205339.520    88252.867    30686.251       46.362       16.214      776.336      171.940        0.049      335.944        6.911      862.506
01/04/2022  04:35:00     -521.355       15.589        1.935      424.046      222.732      140.881   179815.380    49609.595    19847.341       26.062       12.464      521.588      159.694        0.094      335.943        6.910      862.443
01/04/2022  04:36:00     -634.602       31.924      -25.756      325.919      221.348      136.836   106223.405    48995.135    18724.163       28.914        8.697      635.404      137.456        0.047      335.868        6.784      862.561
01/04/2022  04:37:00     -401.796      -42.345      -34.108      350.003      165.278      106.802   122502.063    27316.667    11406.747       16.278        8.061      404.021      107.794        0.071      335.883        6.811      862.599
01/04/2022  04:38:00     -424.911       14.846      -28.670      371.170      154.373      133.695   137767.024    23831.004    17874.481       18.050        8.974      425.171      164.162        0.149      335.855        6.766      862.599
01/04/2022  04:39:00     -586.124      -38.678      -32.209      429.718      240.125      165.803   184657.589    57660.142    27490.792       30.789       13.490      587.399      174.141        0.088      335.967        6.950      862.601
01/04/2022  04:40:00     -885.422      -68.145      -31.518      418.644      287.129      203.492   175262.928    82443.071    41408.875       54.431       14.956      888.040      221.578        0.062      335.976        6.965      862.552
01/04/2022  04:41:00     -745.432       19.707      -44.020      412.094      264.120      176.318   169821.057    69759.378    31088.041       41.428       13.533      745.693      163.486        0.048      335.928        6.885      862.608
01/04/2022  04:42:00     -767.376      -40.660      -41.340      426.275      235.531      165.642   181710.788    55474.910    27437.361       42.838       13.231      768.452      186.844        0.059      335.917        6.866      862.584
01/04/2022  04:43:00     -540.419       16.104      -14.666      393.930      230.870      165.334   155181.060    53300.759    27335.375       26.413       11.791      540.659      175.143        0.105      335.902        6.842      862.511
01/04/2022  04:44:00     -602.679        2.451        8.464      396.071      241.776      162.582   156872.086    58455.874    26432.859       30.249       12.088      602.684      187.392        0.097      335.904        6.845      862.497
01/04/2022  04:45:00     -570.806       -8.231       -8.081      358.748      237.163      183.985   128699.913    56246.217    33850.377       27.233       10.940      570.865      195.261        0.117      335.948        6.917      862.543
01/04/2022  04:46:00     -680.215      -44.055      -39.771      392.883      243.781      159.924   154357.202    59429.083    25575.638       35.274       11.968      681.640      161.274        0.056      335.930        6.888      862.472
01/04/2022  04:47:00     -526.748       14.196      -14.286      382.803      202.573      140.445   146537.947    41035.900    19724.818       24.255       10.365      526.940      134.492        0.065      335.866        6.782      862.489
01/04/2022  04:48:00     -847.038      -54.109       -2.785      418.916      195.502      165.058   175490.555    38221.218    27244.210       48.064       12.048      848.765      167.349        0.039      335.901        6.839      862.484
01/04/2022  04:49:00     -468.163      -31.637      -12.055      298.081      183.204      124.958    88852.565    33563.840    15614.379       17.915        6.902      469.231      121.616        0.067      335.891        6.824      862.524
01/04/2022  04:50:00     -652.665       -4.136      -26.475      338.760      204.694      152.631   114758.641    41899.521    23296.153       30.329        8.998      652.679      182.929        0.079      335.924        6.878      862.486
01/04/2022  04:51:00     -489.354        7.263      -12.527      308.684      178.511      139.932    95285.875    31866.320    19581.070       19.318        7.337      489.408      155.651        0.101      335.901        6.839      862.533
01/04/2022  04:52:00     -367.231       87.347       16.468      292.409      178.178      130.607    85503.217    31747.474    17058.281       13.851        6.715      377.476      137.163        0.132      335.893        6.827      862.553
01/04/2022  04:53:00     -567.380        0.330      -43.096      331.459      186.517      132.155   109865.233    34788.446    17464.928       24.292        8.106      567.380      156.822        0.076      335.954        6.927      862.544
01/04/2022  04:54:00     -375.498       -5.860        6.468      309.937      202.960      132.593    96060.738    41192.660    17580.925       14.793        7.742      375.543      120.817        0.103      335.878        6.803      862.551
01/04/2022  04:55:00     -427.224        0.774        2.339      327.757      204.271      149.379   107424.707    41726.558    22314.055       17.696        8.573      427.225      139.610        0.107      335.930        6.888      862.577
01/04/2022  04:56:00     -596.599      128.577      -17.210      398.296      215.951      141.617   158639.407    46634.955    20055.467       29.900       11.266      610.297      156.584        0.066      335.930        6.888      862.603
01/04/2022  04:57:00     -473.376      -28.606      -51.419      282.320      156.259      121.668    79704.394    24416.938    14803.095       17.321        5.946      474.240      119.700        0.064      335.878        6.801      862.614
01/04/2022  04:58:00     -527.939     -107.403      -23.821      288.149      173.311      130.320    83029.647    30036.552    16983.351       21.041        6.502      538.753      146.424        0.074      335.884        6.812      862.603
01/04/2022  04:59:00     -307.857       63.328       -6.365      299.225      177.932      121.045    89535.376    31659.705    14652.000       11.731        6.792      314.303      132.391        0.177      335.866        6.783      862.609
01/04/2022  05:00:00     -635.064       63.963       -4.442      339.081      171.498      115.361   114976.021    29411.524    13308.140       28.253        7.885      638.277      138.216        0.047      335.898        6.835      862.655
01/04/2022  05:01:00     -489.616      -29.805      -28.380      292.575      170.400      121.560    85600.283    29036.310    14776.948       18.539        6.471      490.523      131.027        0.071      335.869        6.786      862.737
01/04/2022  05:02:00     -590.910      -56.560      -32.597      293.532      181.203      142.871    86160.955    32834.348    20412.089       24.640        6.970      593.611      135.995        0.052      335.889        6.819      862.801
01/04/2022  05:03:00     -321.514       55.395        9.075      334.982      202.599      149.005   112213.261    41046.441    22202.356       14.096        8.773      326.251      148.499        0.207      335.915        6.863      862.799
01/04/2022  05:04:00     -416.259       10.567       13.083      319.178      216.624      160.046   101874.447    46925.963    25614.676       17.395        8.721      416.394      143.704        0.119      335.914        6.862      862.827
01/04/2022  05:05:00     -696.417      -20.541      -17.031      322.883      211.387      144.531   104253.217    44684.578    20889.189       32.774        8.491      696.720      155.514        0.050      335.992        6.990      862.862
01/04/2022  05:06:00     -482.213        9.202      -21.453      207.950      125.376       88.772    43243.343    15719.166     7880.406       14.995        3.342      482.301       83.416        0.030      335.936        6.898      862.856
01/04/2022  05:07:00     -465.929      -21.421      -13.614      344.745      181.936      158.023   118848.946    33100.857    24971.140       19.730        8.846      466.421      163.752        0.123      335.916        6.865      862.898
01/04/2022  05:08:00     -588.508       -4.135      -15.156      306.316      178.114      125.262    93829.552    31724.462    15690.613       24.389        7.062      588.523      129.323        0.048      335.943        6.910      862.929
01/04/2022  05:09:00     -498.017      -49.610      -39.347      415.724      197.478      144.988   172826.302    38997.593    21021.655       24.240       11.642      500.482      172.294        0.119      335.954        6.928      862.930
01/04/2022  05:10:00     -450.375      -89.111      -16.619      399.998      223.656      145.734   159998.574    50021.967    21238.487       22.111       11.563      459.106      153.665        0.112      335.963        6.944      862.937
01/04/2022  05:11:00     -613.683      -58.546       -3.617      379.450      232.519      163.195   143982.232    54064.933    26632.761       30.232       11.234      616.469      167.565        0.074      335.957        6.932      862.956
01/04/2022  05:12:00     -410.152       37.162      -38.345      323.610      234.720      162.448   104723.676    55093.363    26389.453       17.861        9.310      411.832      153.218        0.138      335.975        6.963      862.991
01/04/2022  05:13:00     -406.391       13.565      -15.641      335.763      219.377      164.609   112736.686    48126.072    27096.073       17.674        9.398      406.617      157.181        0.149      336.008        7.020      862.999
01/04/2022  05:14:00     -471.073       -0.703      -12.037      350.677      195.230      152.661   122974.669    38114.603    23305.287       20.319        9.220      471.074      169.525        0.130      336.010        7.021      862.987
01/04/2022  05:15:00     -531.484       32.469      -11.290      315.919      193.555      135.552    99804.983    37463.506    18374.331       21.962        7.782      532.475      121.690        0.052      336.018        7.035      863.042
01/04/2022  05:16:00     -659.032     -103.448      -63.393      295.231      203.824      128.059    87161.429    41544.046    16399.053       29.705        7.255      667.101      129.192        0.038      336.104        7.178      862.971
01/04/2022  05:17:00     -686.863      -67.462      -32.150      331.009      206.119      149.757   109566.761    42484.868    22427.114       32.589        8.724      690.168      156.109        0.051      336.002        7.009      863.056
01/04/2022  05:18:00     -567.477      -66.779      -19.105      377.434      194.806      163.711   142456.050    37949.327    26801.425       26.699       10.360      571.392      174.166        0.093      336.118        7.201      863.025
01/04/2022  05:19:00     -485.320       -1.470       -9.257      313.143      145.114      122.343    98058.347    21057.975    14967.824       18.483        6.704      485.322      131.717        0.074      336.077        7.134      863.053
01/04/2022  05:20:00     -332.195      -59.637      -39.896      322.856      167.422      130.405   104236.156    28030.150    17005.397       13.236        7.464      337.506      138.230        0.168      336.012        7.025      863.068
01/04/2022  05:21:00     -441.618      -96.144      -36.714      302.775      223.974      128.439    91672.451    50164.555    16496.598       18.195        7.917      451.963      124.962        0.076      336.056        7.098      863.047
01/04/2022  05:22:00     -357.001      -21.795      -14.179      257.854      198.313      131.530    66488.514    39328.176    17300.066       12.560        6.156      357.666      117.114        0.107      336.056        7.099      863.076
01/04/2022  05:23:00     -298.486       16.125      -12.676      280.026      174.616      137.103    78414.381    30490.745    18797.342       10.859        6.385      298.922      133.078        0.198      336.063        7.111      863.126
01/04/2022  05:24:00     -385.230      -28.757      -27.153      345.624      201.556      137.139   119456.129    40624.679    18807.081       16.439        8.944      386.302      167.066        0.187      336.051        7.090      863.159
01/04/2022  05:25:00     -461.913      -23.895      -16.532      309.503      165.181      136.522    95792.192    27284.695    18638.287       17.794        7.086      462.530      130.365        0.079      336.060        7.105      863.190
01/04/2022  05:26:00      -82.744       -2.773      -12.554      243.411      174.609      129.654    59248.770    30488.414    16810.202        5.676        5.327       82.790      119.924        2.098      336.057        7.100      863.152
01/04/2022  05:27:00     -503.707      -16.898       -5.308      333.491      171.089      146.347   111215.980    29271.588    21417.575       20.794        8.095      503.990      163.907        0.106      336.049        7.085      863.182
01/04/2022  05:28:00     -295.733      -56.276       -0.259      297.318      199.886      159.107    88398.171    39954.358    25315.122       12.212        7.683      301.040      161.757        0.289      336.044        7.079      863.174
01/04/2022  05:29:00     -353.136       53.826       -2.385      271.010      203.696      126.248    73446.505    41492.150    15938.617       12.922        6.544      357.214      122.301        0.117      336.021        7.040      863.184
01/04/2022  05:30:00     -367.459       -0.656      -14.533      425.587      183.789      157.335   181124.564    33778.223    24754.265       18.740       11.983      367.459      181.768        0.245      336.097        7.166      863.178
01/04/2022  05:31:00     -425.293       66.943       13.795      304.691      197.507      136.824    92836.622    39009.107    18720.916       16.803        7.528      430.530      129.023        0.090      336.113        7.194      863.212
01/04/2022  05:32:00     -479.221      -46.222       -4.798      273.723      207.963      124.958    74924.476    43248.520    15614.548       18.278        6.689      481.445      121.837        0.064      336.116        7.198      863.314
01/04/2022  05:33:00     -507.839       14.852      -25.962      374.531      270.827      157.751   140273.700    73347.398    24885.261       24.861       11.925      508.056      153.338        0.091      336.133        7.226      863.331
01/04/2022  05:34:00     -438.186       20.589      -23.741      404.339      213.050      137.162   163490.059    45390.376    18813.525       21.030       11.385      438.670      137.084        0.098      336.131        7.223      863.373
01/04/2022  05:35:00     -573.970      -33.368      -42.459      294.149      240.618      137.545    86523.538    57896.873    18918.530       24.782        8.167      574.939      139.130        0.059      336.132        7.225      863.378
01/04/2022  05:36:00     -583.757      -72.115      -47.849      328.466      197.636      140.230   107890.110    39060.096    19664.345       25.741        8.331      588.194      143.413        0.059      336.126        7.214      863.361
01/04/2022  05:37:00     -395.134       36.616       -5.003      328.426      236.709      135.615   107863.506    56031.333    18391.333       16.986        9.114      396.827      151.902        0.147      336.084        7.144      863.375
01/04/2022  05:38:00     -409.631      -17.721      -50.726      231.124      177.666      121.659    53418.082    31565.120    14800.927       13.522        4.989      410.015      102.577        0.063      336.124        7.213      863.386
01/04/2022  05:39:00     -658.169      -86.810      -35.700      311.288      194.521      148.014    96900.037    37838.447    21908.055       29.929        7.832      663.869      144.375        0.047      336.147        7.251      863.391
01/04/2022  05:40:00     -749.915       29.495      -47.009      296.539      208.224      128.495    87935.584    43357.159    16510.976       35.660        7.390      750.494      121.510        0.026      336.183        7.309      863.419
01/04/2022  05:41:00     -466.663      -26.825      -10.523      352.651      231.350      164.927   124362.898    53522.701    27201.050       21.181       10.254      467.434      188.800        0.163      336.151        7.256      863.410
01/04/2022  05:42:00     -540.840      -74.063      -30.941      295.111      195.867      151.852    87090.626    38363.774    23059.167       22.370        7.426      545.887      142.728        0.068      336.167        7.282      863.448
01/04/2022  05:43:00     -427.899      -29.400       -3.202      349.425      187.340      140.465   122097.947    35096.152    19730.473       18.042        8.846      428.908      138.034        0.104      336.158        7.269      863.486
01/04/2022  05:44:00     -620.839      -69.062      -38.588      313.009      203.876      143.329    97974.640    41565.343    20543.116       27.586        8.004      624.669      152.519        0.060      336.165        7.281      863.447
01/04/2022  05:45:00     -390.204      -54.287       -4.045      328.581      190.955      164.988   107965.761    36463.730    27221.062       16.341        8.583      393.963      153.498        0.152      336.164        7.280      863.412
01/04/2022  05:46:00     -513.474       -0.753      -18.215      376.653      192.810      138.714   141867.476    37175.841    19241.650       23.110        9.914      513.475      149.269        0.085      336.178        7.302      863.369
01/04/2022  05:47:00     -456.085      -34.968      -30.922      326.784      176.830      148.840   106787.799    31268.857    22153.462       18.517        8.011      457.424      164.128        0.129      336.157        7.268      863.319
01/04/2022  05:48:00     -412.827      -52.672      -34.481      298.773      186.410      143.058    89265.466    34748.745    20465.604       15.941        7.224      416.174      112.991        0.074      336.147        7.249      863.317
01/04/2022  05:49:00     -589.125      -93.231      -41.776      359.952      238.036      171.760   129565.296    56660.968    29501.652       28.658       10.786      596.456      182.962        0.094      336.214        7.362      863.260
01/04/2022  05:50:00     -412.420       54.037      -19.693      252.335      171.969      122.750    63673.116    29573.189    15067.455       14.084        5.416      415.945      108.898        0.069      336.164        7.279      863.318
01/04/2022  05:51:00     -471.139       18.717      -25.663      301.300      165.782      138.960    90781.539    27483.568    19309.794       18.025        6.879      471.511      124.775        0.070      336.182        7.309      863.365
01/04/2022  05:52:00     -449.062        6.497        3.771      355.646      185.457      143.378   126483.940    34394.420    20557.347       19.154        9.072      449.109      171.608        0.146      336.139        7.238      863.361
01/04/2022  05:53:00     -388.402       -5.387      -17.967      396.771      222.344      179.155   157427.484    49437.032    32096.571       19.504       11.948      388.440      171.704        0.195      336.144        7.245      863.358
01/04/2022  05:54:00     -307.484       -9.016       -7.208      312.316      195.781      142.165    97541.435    38330.224    20210.862       12.535        7.804      307.616      139.893        0.207      336.146        7.249      863.408
01/04/2022  05:55:00     -475.920       18.062      -32.733      310.816      190.312      132.395    96606.627    36218.843    17528.375       18.910        7.518      476.262      128.816        0.073      336.115        7.196      863.466
01/04/2022  05:56:00     -398.225      -29.705      -28.011      329.302      221.361      151.301   108439.675    49000.603    22891.893       17.026        9.017      399.331      151.583        0.144      336.121        7.207      863.464
01/04/2022  05:57:00     -432.007      -45.733      -31.763      340.631      211.076      164.493   116029.460    44552.957    27057.859       18.865        9.382      434.421      171.265        0.155      336.200        7.336      863.454
01/04/2022  05:58:00     -427.597       68.230      -12.904      321.130      203.088      137.483   103124.366    41244.798    18901.476       17.544        8.164      433.006      126.878        0.086      336.188        7.319      863.427
01/04/2022  05:59:00     -578.688       77.082       -8.472      354.944      225.038      135.960   125985.170    50642.294    18485.001       26.797        9.756      583.800      136.817        0.055      336.201        7.340      863.453
01/04/2022  06:00:00     -558.365      -99.760      -48.248      338.617      221.112      158.926   114661.317    48890.716    25257.455       25.640        9.440      567.207      171.930        0.092      336.241        7.407      863.487
01/04/2022  06:01:00     -242.118        4.564        1.399      274.587      177.180      133.956    75397.976    31392.684    17944.187        9.167        6.237      242.161      126.092        0.271      336.188        7.318      863.481
01/04/2022  06:02:00     -598.189      -30.442      -13.495      386.228      216.560      166.626   149171.743    46898.236    27764.186       29.135       11.192      598.963      168.211        0.079      336.185        7.314      863.524
01/04/2022  06:03:00     -552.607       -9.720       -5.995      326.867      247.438      156.177   106842.134    61225.532    24391.133       24.895        9.623      552.692      149.669        0.073      336.291        7.490      863.484
01/04/2022  06:04:00     -468.011      -17.788        3.096      361.182      188.987      140.373   130452.511    35716.267    19704.469       20.258        9.294      468.349      165.802        0.125      336.217        7.368      863.572
01/04/2022  06:05:00     -523.120       18.139      -15.840      309.904      165.984      125.611    96040.628    27550.582    15778.048       20.678        6.968      523.435      128.192        0.060      336.171        7.290      863.599
01/04/2022  06:06:00     -476.431       24.062      -22.667      307.865      175.946      142.172    94780.929    30956.852    20212.910       18.699        7.298      477.039      132.794        0.077      336.196        7.332      863.618
01/04/2022  06:07:00     -397.936       56.154        4.276      259.014      204.943      120.170    67088.037    42001.800    14440.852       14.251        6.177      401.879      131.667        0.107      336.146        7.248      863.634
01/04/2022  06:08:00     -284.220      -29.868      -15.783      316.009      215.274      150.642    99861.590    46342.891    22692.940       12.538        8.445      285.785      134.683        0.222      336.157        7.267      863.679
01/04/2022  06:09:00     -308.787       11.559       -5.818      270.454      148.582      122.556    73145.371    22076.490    15019.855       10.286        5.512      309.003      131.557        0.181      336.138        7.235      863.745
01/04/2022  06:10:00     -302.349      -33.111       11.277      273.073      169.145      131.049    74569.053    28609.991    17173.861       10.647        6.018      304.157      128.792        0.179      336.118        7.202      863.746
01/04/2022  06:11:00     -343.482      -58.317       16.629      318.617      144.219      127.869   101516.793    20799.027    16350.515       13.014        6.933      348.398      150.500        0.187      336.158        7.267      863.718
01/04/2022  06:12:00     -394.405      -35.754        7.860      299.492      152.091      132.188    89695.533    23131.790    17473.786       14.357        6.515      396.022      136.145        0.118      336.155        7.263      863.744
01/04/2022  06:13:00     -540.509      -17.612      -13.478      253.332      154.278      107.997    64177.018    23801.749    11663.381       19.612        4.982      540.796       99.738        0.034      336.192        7.324      863.822
01/04/2022  06:14:00     -504.813      -45.091      -15.457      280.526      164.971      128.409    78694.820    27215.286    16488.846       18.973        6.120      506.823      133.714        0.070      336.129        7.220      863.837
01/04/2022  06:15:00     -459.852      -55.460      -32.699      301.152      191.592      129.976    90692.828    36707.325    16893.676       17.992        7.215      463.184      142.593        0.095      336.239        7.404      863.767
01/04/2022  06:16:00     -371.260      -19.403      -19.018      270.293      171.083      122.749    73058.370    29269.336    15067.295       12.796        5.870      371.767      131.444        0.125      336.182        7.310      863.768
01/04/2022  06:17:00     -448.616       24.179      -18.611      305.703      240.242      155.919    93454.144    57716.363    24310.815       18.880        8.774      449.267      145.011        0.104      336.195        7.331      863.809
01/04/2022  06:18:00     -270.647       -8.878      -18.701      278.000      197.548      125.302    77284.009    39025.192    15700.566       10.282        6.600      270.793      118.155        0.190      336.190        7.323      863.810
01/04/2022  06:19:00     -557.201       29.497      -14.781      291.164      223.207      127.874    84776.211    49821.358    16351.707       23.123        7.547      557.981      133.172        0.057      336.175        7.297      863.814
01/04/2022  06:20:00     -600.922      -31.573      -20.193      267.196      147.200      118.821    71393.912    21667.694    14118.401       23.483        5.359      601.751      132.165        0.048      336.158        7.269      863.779
01/04/2022  06:21:00     -332.882       10.362       -7.745      236.719      158.657      110.426    56035.987    25171.932    12193.815       10.217        4.670      333.044      112.362        0.114      336.125        7.213      863.697
01/04/2022  06:22:00     -231.133       30.344      -10.694      244.158      136.329       81.874    59613.139    18585.580     6703.314        6.966        4.245      233.116       77.680        0.111      336.097        7.168      863.713
01/04/2022  06:23:00     -486.865      -66.560      -36.032      162.684      162.643       97.616    26465.971    26452.871     9528.878       15.260        3.122      491.393       82.249        0.028      336.147        7.251      863.736
01/04/2022  06:24:00     -283.997       16.604        3.954      239.815      128.112       95.858    57511.205    16412.761     9188.722        8.201        4.156      284.482      107.179        0.142      336.115        7.198      863.764
01/04/2022  06:25:00     -360.907      -38.102       -8.735      380.016      189.721      140.028   144412.068    35994.131    19607.894       16.586       10.001      362.912      130.681        0.130      336.104        7.179      863.741
01/04/2022  06:26:00     -495.568       -1.476      -15.648      409.812      209.669      155.680   167945.540    43961.188    24236.192       24.095       11.807      495.570      162.534        0.108      336.159        7.271      863.734
01/04/2022  06:27:00     -512.139      -57.823      -18.501      335.763      207.253      170.171   112736.520    42953.763    28958.238       22.528        9.232      515.393      174.481        0.115      336.201        7.339      863.732
01/04/2022  06:28:00     -493.003       -9.641       -1.051      316.857      197.328      115.786   100398.330    38938.346    13406.301       19.792        7.637      493.097      133.876        0.074      336.200        7.339      863.751
01/04/2022  06:29:00     -423.035      -46.210        1.030      257.362      168.630      124.232    66235.273    28435.963    15433.582       14.558        5.505      425.551      131.961        0.096      336.134        7.227      863.747
01/04/2022  06:30:00     -504.362      -55.337       -9.560      288.275      174.717      135.480    83102.606    30525.942    18354.804       19.473        6.599      507.389      150.908        0.088      336.114        7.195      863.767
01/04/2022  06:31:00     -338.322       53.231        2.165      256.527      181.527      112.051    65806.206    32952.107    12555.472       11.429        5.566      342.484      123.987        0.131      336.108        7.185      863.751
01/04/2022  06:32:00     -465.181      -31.597      -23.832      260.849      180.793      117.239    68042.129    32686.277    13744.963       16.620        5.724      466.253      121.488        0.068      336.117        7.202      863.690
01/04/2022  06:33:00     -485.087      -66.269      -37.795      222.236      131.243      117.387    49388.640    17224.693    13779.773       16.075        4.020      489.592      106.691        0.047      336.100        7.172      863.651
01/04/2022  06:34:00     -465.143       31.296        2.490      270.832      143.018      104.413    73350.034    20454.120    10902.174       16.101        5.235      466.194      126.497        0.074      336.056        7.099      863.633
01/04/2022  06:35:00     -446.442      -35.228      -29.490      218.590      155.506       93.483    47781.371    24182.196     8739.096       14.105        4.035      447.829      106.734        0.057      336.076        7.132      863.587
01/04/2022  06:36:00     -468.246      -19.055       -2.468      245.326      129.738      111.593    60184.713    16831.898    12452.939       15.453        4.473      468.633      129.366        0.076      336.069        7.120      863.582
01/04/2022  06:37:00     -464.968       -1.028      -12.868      243.757      141.581      107.577    59417.524    20045.111    11572.826       15.368        4.552      464.969      119.085        0.066      336.062        7.110      863.615
01/04/2022  06:38:00     -478.018        3.119      -38.538      273.980      172.860      110.069    75065.185    29880.492    12115.278       17.351        5.853      478.028      116.278        0.059      336.087        7.151      863.560
01/04/2022  06:39:00     -445.837       -9.572      -25.256      200.312      133.599       99.186    40124.743    17848.797     9837.924       13.364        3.391      445.939       98.939        0.049      336.096        7.165      863.545
01/04/2022  06:40:00     -550.027      -12.828       -2.506      244.899      163.362      112.443    59975.533    26687.174    12643.338       20.098        4.965      550.176      121.253        0.049      336.087        7.148      863.526
01/04/2022  06:41:00     -376.812      -59.563      -14.917      290.484      166.580      125.160    84380.989    27748.733    15664.914       13.675        6.390      381.491      135.742        0.127      336.107        7.184      863.523
01/04/2022  06:42:00     -291.558       10.084       -3.889      260.979      150.985      114.726    68110.023    22796.434    13162.046        9.458        5.203      291.732      119.169        0.167      336.152        7.258      863.548
01/04/2022  06:43:00     -391.070       68.668      -12.626      255.025      133.170       99.095    65037.996    17734.345     9819.785       12.518        4.630      397.053      101.694        0.066      336.156        7.266      863.626
01/04/2022  06:44:00     -306.153      -26.016      -33.088      221.216      103.596       75.167    48936.472    10732.046     5650.117        8.040        3.266      307.256       75.315        0.060      336.081        7.138      863.674
01/04/2022  06:45:00     -274.280       13.485      -21.625      210.255      110.557       79.116    44207.192    12222.740     6259.300        6.927        3.134      274.612       71.946        0.069      336.001        7.008      863.697
01/04/2022  06:46:00     -193.404      -20.847       -0.917      205.382       94.802       93.394    42181.869     8987.412     8722.530        4.886        2.995      194.524       91.292        0.220      335.953        6.927      863.726
01/04/2022  06:47:00     -241.183       41.424      -15.941      234.918      117.590       97.031    55186.241    13827.502     9415.061        6.927        3.921      244.714       96.923        0.157      335.952        6.926      863.745
01/04/2022  06:48:00     -265.820      -16.610       -4.022      264.608      144.992       80.170    70017.497    21022.567     6427.226        8.419        4.873      266.338       96.822        0.132      335.964        6.946      863.726
01/04/2022  06:49:00     -424.680      -16.937      -11.622      280.476      149.938      128.562    78666.799    22481.414    16528.287       14.920        5.884      425.018      126.382        0.088      335.993        6.993      863.761
01/04/2022  06:50:00     -351.267      -68.239       18.004      301.916      150.253      136.233    91153.453    22575.871    18559.321       13.030        6.614      357.834      143.948        0.162      336.036        7.064      863.800
01/04/2022  06:51:00     -281.235       13.477       -7.660      265.800      150.622      126.230    70649.805    22687.021    15934.124        9.428        5.464      281.558      120.084        0.182      335.972        6.959      863.838
01/04/2022  06:52:00     -473.352      -34.322      -13.928      247.950      131.707      111.075    61479.148    17346.641    12337.607       15.828        4.558      474.595       99.370        0.044      335.968        6.951      863.873
01/04/2022  06:53:00     -393.352      -35.975        5.291      286.229      155.004      139.926    81926.915    24026.249    19579.351       14.077        6.277      394.993      147.480        0.139      335.968        6.952      863.893
01/04/2022  06:54:00     -267.632      107.613       16.332      289.571      206.934      127.593    83851.341    42821.792    16279.849       11.319        7.148      288.457      116.298        0.163      335.998        7.005      863.884
01/04/2022  06:55:00     -404.524     -129.345      -34.855      280.742      206.950      110.929    78816.095    42828.417    12305.155       15.774        6.697      424.700      118.367        0.078      336.119        7.204      863.892
01/04/2022  06:56:00     -245.036       53.078        6.368      262.870      161.112      130.889    69100.856    25957.033    17132.035        8.752        5.609      250.719      111.299        0.197      336.068        7.119      864.003
01/04/2022  06:57:00     -393.762      -11.937       -0.210      277.461      199.781      135.379    76984.513    39912.310    18327.410       14.518        6.761      393.943      141.982        0.130      336.073        7.126      863.976
01/04/2022  06:58:00     -226.567       -5.019      -10.968      290.879      159.165      114.600    84610.837    25333.449    13133.146        8.726        6.154      226.623      114.413        0.255      336.060        7.104      863.977
01/04/2022  06:59:00     -379.911       59.637       11.060      278.633      164.332      109.193    77636.287    27004.914    11923.080       13.227        5.828      384.563       99.808        0.067      336.052        7.092      864.034
01/04/2022  07:00:00     -171.511       80.045      -29.156      299.481      170.693      110.565    89688.918    29135.938    12224.642        8.384        6.552      189.271       68.755        0.132      336.052        7.093      864.052
01/04/2022  07:01:00     -462.078       40.493      -11.781      276.524      164.213      113.990    76465.462    26965.850    12993.800       16.584        5.821      463.849      103.671        0.050      336.051        7.091      864.069
01/04/2022  07:02:00     -598.961      -85.247      -24.075      338.530      179.372      160.824   114602.327    32174.370    25864.465       26.959        8.632      604.997      170.089        0.079      336.081        7.140      864.025
01/04/2022  07:03:00     -256.050       -4.259       -4.721      270.499      197.986      113.120    73169.740    39198.451    12796.104        9.536        6.258      256.086      109.415        0.183      336.065        7.114      864.055
01/04/2022  07:04:00     -267.626      -27.276      -16.544      256.651      143.999      114.578    65869.951    20735.808    13128.117        8.617        4.987      269.012      103.460        0.148      336.041        7.074      864.069
01/04/2022  07:05:00     -138.986       55.264       -5.365      250.824      131.601       89.167    62912.865    17318.906     7950.813        5.528        4.409      149.570       83.373        0.311      336.027        7.051      864.072
01/04/2022  07:06:00     -287.743      -39.413      -23.888      269.904      128.029      130.412    72848.175    16391.406    17007.236        9.556        5.312      290.430      138.185        0.226      336.045        7.081      864.145
01/04/2022  07:07:00     -249.389       13.488      -11.923      281.312      108.849      100.491    79136.657    11848.082    10098.397        8.178        5.054      249.754      109.555        0.192      336.026        7.048      864.199
01/04/2022  07:08:00     -208.668       14.760      -12.728      188.472      123.753       87.167    35521.619    15314.886     7598.006        5.117        2.922      209.190       69.381        0.110      336.023        7.043      864.211
01/04/2022  07:09:00     -381.514      -46.572      -25.046      322.432      154.462      128.325   103962.544    23858.505    16467.296       14.629        7.214      384.346      139.120        0.131      336.052        7.090      864.212
01/04/2022  07:10:00     -277.360      -32.572      -14.923      245.331      138.423      107.988    60187.308    19160.880    11661.327        8.459        4.550      279.266      118.706        0.181      336.004        7.013      864.214
01/04/2022  07:11:00     -347.017      -11.942      -30.994      180.883      131.131       97.515    32718.632    17195.346     9509.141        9.046        2.971      347.223       89.630        0.067      335.996        6.998      864.252
01/04/2022  07:12:00     -426.768      -29.958      -21.535      253.268      163.072      119.364    64144.530    26592.442    14247.803       14.422        5.249      427.818      106.097        0.062      335.986        6.981      864.270
01/04/2022  07:13:00     -446.692       17.648      -34.118      182.847      126.595       96.262    33433.141    16026.300     9266.293       12.986        2.936      447.040       82.852        0.034      336.019        7.036      864.317
01/04/2022  07:14:00     -425.670       -8.157      -25.109      238.748      200.408      111.242    57000.453    40163.510    12374.765       14.570        5.477      425.748      107.083        0.063      336.031        7.056      864.399
01/04/2022  07:15:00     -242.779      -22.392       -8.521      245.543      173.917      123.068    60291.360    30247.188    15145.721        8.258        5.284      243.810      111.351        0.209      336.022        7.041      864.487
01/04/2022  07:16:00     -415.494       -0.162      -10.367      328.444      186.646      137.769   107875.630    34836.665    18980.253       16.719        8.085      415.494      130.940        0.099      336.026        7.050      864.533
01/04/2022  07:17:00     -432.962       18.867       -9.558      295.414      171.483      128.649    87269.409    29406.428    16550.689       16.054        6.661      433.373      145.005        0.112      336.043        7.077      864.540
01/04/2022  07:18:00     -368.491        2.913      -13.043      289.335      152.185      127.592    83714.971    23160.142    16279.813       12.954        6.158      368.502      122.056        0.110      336.057        7.101      864.515
01/04/2022  07:19:00     -453.063      -40.711       -9.345      249.173      132.101      116.117    62087.336    17450.685    13483.144       15.000        4.651      454.888      106.368        0.055      336.055        7.095      864.584
01/04/2022  07:20:00     -331.606        8.931       -8.988      247.457      157.578      116.400    61234.755    24830.866    13548.900       10.485        4.981      331.727      132.815        0.160      336.038        7.069      864.639
01/04/2022  07:21:00     -335.497        6.438       -1.281      222.520      132.655       94.289    49515.264    17597.426     8890.420        9.429        3.800      335.558      102.525        0.093      336.003        7.010      864.684
01/04/2022  07:22:00     -404.813       15.618      -22.151      223.085      155.434       94.228    49767.004    24159.830     8878.982       12.369        4.140      405.114       64.362        0.025      336.038        7.069      864.712
01/04/2022  07:23:00     -323.275       61.599      -25.444      285.655      167.017      101.875    81599.016    27894.822    10378.484       11.439        5.994      329.092      113.325        0.119      336.066        7.115      864.725
01/04/2022  07:24:00     -472.819      -34.902      -36.940      266.353      169.717      113.424    70943.807    28804.012    12865.070       16.936        5.631      474.105       99.376        0.044      336.074        7.128      864.777
01/04/2022  07:25:00     -333.346      -13.528       -9.948      296.759      147.724      105.493    88065.942    21822.258    11128.783       11.619        6.051      333.620      103.015        0.095      336.032        7.058      864.849
01/04/2022  07:26:00     -331.840       25.070      -27.846      211.482      137.222       94.423    44724.742    18829.811     8915.655        9.198        3.624      332.786       77.067        0.054      335.999        7.003      864.857
01/04/2022  07:27:00     -259.197       13.506       -0.435      158.777      119.030       72.036    25210.201    14168.246     5189.254        5.596        2.228      259.548       72.711        0.078      335.948        6.920      864.867
01/04/2022  07:28:00     -258.982      -45.626      -10.855      224.275      104.813      104.116    50299.489    10985.693    10840.100        7.069        3.606      262.971      113.155        0.185      335.940        6.907      864.842
01/04/2022  07:29:00     -288.946       -1.141      -17.971      190.610       92.372       75.697    36332.258     8532.495     5730.096        6.720        2.530      288.948       82.928        0.082      335.917        6.867      864.814
01/04/2022  07:30:00     -116.976      -20.106       -5.315      186.566      112.322       84.732    34806.727    12616.285     7179.428        3.435        2.730      118.691       77.959        0.431      335.905        6.849      864.799
01/04/2022  07:31:00     -358.472       14.431       -3.059      252.413      145.671       86.930    63712.486    21220.091     7556.748       11.059        4.624      358.762       95.004        0.070      335.890        6.823      864.811
01/04/2022  07:32:00     -318.828       -0.170       -5.880      228.551      140.693       98.423    52235.346    19794.505     9687.112        9.169        4.086      318.828      107.653        0.114      335.939        6.905      864.800
01/04/2022  07:33:00     -474.074      -46.448       -5.616      218.011      130.347      124.323    47528.951    16990.381    15456.142       15.344        3.999      476.344      108.790        0.052      335.945        6.914      864.761
01/04/2022  07:34:00     -369.236      -14.387      -29.296      215.903      114.113       91.203    46614.116    13021.864     8318.059       10.266        3.398      369.516       79.764        0.047      335.921        6.874      864.733
01/04/2022  07:35:00     -363.339      -18.938      -24.273      189.864      123.601       87.768    36048.391    15277.117     7703.203        9.599        2.951      363.832       78.088        0.046      335.922        6.875      864.690
01/04/2022  07:36:00     -294.172        7.190      -21.725      199.714      132.360       93.817    39885.618    17519.044     8801.658        7.662        3.310      294.260       92.682        0.099      335.893        6.828      864.656
01/04/2022  07:37:00     -351.191       -9.174      -32.044      207.163      132.680       89.975    42916.524    17604.017     8095.478        9.652        3.431      351.311       91.873        0.068      335.886        6.815      864.641
01/04/2022  07:38:00     -247.450      -17.106        2.108      190.137      122.428      100.535    36151.902    14988.618    10107.307        6.138        3.062      248.041      105.458        0.181      335.856        6.766      864.595
01/04/2022  07:39:00     -220.806        5.196        5.468      227.319      124.243       95.414    51674.105    15436.330     9103.740        6.250        3.811      220.867       98.181        0.198      335.845        6.747      864.546
01/04/2022  07:40:00     -373.813       -1.568      -11.129      172.943      126.044       91.270    29909.272    15887.179     8330.142        9.698        2.706      373.816       95.501        0.065      335.869        6.788      864.551
01/04/2022  07:41:00     -250.641       43.501      -15.108      178.541      105.680       65.011    31876.912    11168.193     4226.462        5.610        2.364      254.388       53.023        0.043      335.867        6.784      864.502
01/04/2022  07:42:00     -394.476      -12.655      -19.527      191.976      121.353       79.960    36854.957    14726.665     6393.536       10.705        2.899      394.679       75.888        0.037      335.890        6.822      864.468
01/04/2022  07:43:00     -313.270      -24.477       -3.174      235.740      143.606       97.086    55573.369    20622.609     9425.613        9.217        4.281      314.225      102.167        0.106      335.859        6.771      864.445
01/04/2022  07:44:00     -372.619      -12.369      -15.600      182.236      123.781       90.267    33210.099    15321.792     8148.217        9.795        2.834      372.825       92.348        0.061      335.894        6.829      864.432
01/04/2022  07:45:00     -201.386      -22.593       -2.487      176.122      131.306       85.888    31018.913    17241.330     7376.828        4.834        2.782      202.650       89.242        0.194      335.893        6.828      864.454
01/04/2022  07:46:00     -555.937       -1.840      -19.558      240.249      150.295       95.092    57719.751    22588.588     9042.571       19.938        4.468      555.940      104.332        0.035      335.944        6.911      864.469
01/04/2022  07:47:00     -620.525       50.570      -45.789      301.695      152.870      114.242    91019.654    23369.151    13051.345       25.855        6.372      622.582      128.708        0.043      335.949        6.922      864.492
01/04/2022  07:48:00     -456.534        8.706       -3.871      251.183      154.808      106.104    63092.774    23965.603    11257.986       15.340        4.916      456.617      124.077        0.074      335.950        6.923      864.520
01/04/2022  07:49:00     -453.171      -16.696      -34.866      239.252      132.611      110.673    57241.348    17585.671    12248.544       14.695        4.354      453.479      118.460        0.068      335.934        6.895      864.516
01/04/2022  07:50:00     -435.638        9.737      -19.961      185.085      132.580       76.947    34256.331    17577.533     5920.897       12.400        2.888      435.747       88.177        0.041      335.895        6.832      864.523
01/04/2022  07:51:00     -407.027       -2.935      -10.994      204.869      162.235       96.566    41971.198    26320.211     9324.996       12.169        3.881      407.037      109.320        0.072      335.873        6.794      864.548
01/04/2022  07:52:00     -332.939       -5.934       -6.619      317.732      169.499      106.117   100953.857    28729.916    11260.743       12.591        7.047      332.991      127.152        0.146      335.895        6.831      864.582
01/04/2022  07:53:00     -528.747       15.855      -20.908      286.702      175.113      126.431    82197.830    30664.716    15984.716       20.453        6.442      528.985      133.569        0.064      335.931        6.889      864.546
01/04/2022  07:54:00     -368.065       50.918      -36.507      265.387      161.459      102.909    70430.252    26069.004    10590.341       12.322        5.354      371.570       98.612        0.070      335.944        6.912      864.551
01/04/2022  07:55:00     -385.816      -47.160      -15.905      192.467      129.822       94.477    37043.735    16853.697     8925.998       10.707        3.141      388.688       85.567        0.048      335.920        6.871      864.485
01/04/2022  07:56:00     -656.317      -77.509      -37.397      248.034      163.796      115.329    61520.892    26829.022    13300.872       26.989        5.083      660.878      121.196        0.034      335.911        6.856      864.482
01/04/2022  07:57:00     -532.354       43.062      -21.719      326.899      221.704      126.254   106862.749    49152.833    15940.154       22.881        8.598      534.093      125.781        0.055      335.940        6.905      864.453
01/04/2022  07:58:00     -460.590       18.415       -7.879      233.223      135.000       96.446    54393.079    18225.116     9301.919       14.722        4.096      460.958      101.366        0.048      335.920        6.872      864.463
01/04/2022  07:59:00     -546.391      -43.061      -24.770      306.843      201.363      132.884    94152.834    40546.925    17658.037       22.666        7.618      548.085      145.848        0.071      335.937        6.902      864.494
01/04/2022  08:00:00     -451.093       55.845      -15.173      254.120      167.534      114.394    64577.161    28067.620    13085.877       15.626        5.287      454.537      125.277        0.076      335.905        6.847      864.583
01/04/2022  08:01:00     -445.876      -31.219      -40.915      263.744      207.771      136.578    69561.134    43168.871    18653.544       16.639        6.569      446.968      131.304        0.086      335.919        6.870      864.654
01/04/2022  08:02:00     -430.125      -22.697      -13.433      328.403      215.490      147.577   107848.314    46435.760    21779.020       18.085        8.803      430.724      119.582        0.077      335.881        6.807      864.714
01/04/2022  08:03:00     -288.139       81.689        3.546      249.591      208.892      126.500    62295.688    43635.901    16002.337       10.580        6.097      299.495      119.584        0.159      335.914        6.862      864.749
01/04/2022  08:04:00     -333.079       27.731       -1.235      327.316      182.273      106.867   107135.809    33223.289    11420.451       13.172        7.589      334.232      114.919        0.118      335.897        6.834      864.795
01/04/2022  08:05:00     -228.275      -19.235       -2.810      241.292      167.150      110.421    58221.681    27939.132    12192.778        7.540        4.918      229.084       95.098        0.172      335.890        6.822      864.809
01/04/2022  08:06:00     -253.103      -62.992      -32.039      264.028      144.359      124.924    69710.597    20839.548    15605.914        8.759        5.308      260.823       91.014        0.122      335.844        6.746      864.807
01/04/2022  08:07:00     -306.877       40.608       -6.236      245.730      168.252       99.327    60383.206    28308.845     9865.781        9.719        4.928      309.552       64.120        0.043      335.845        6.747      864.809
01/04/2022  08:08:00     -401.511       21.635       -5.875      321.609      179.853      124.196   103432.447    32347.020    15424.762       15.643        7.560      402.094      107.665        0.072      335.875        6.796      864.885
01/04/2022  08:09:00     -395.297      -13.775      -30.672      309.423      127.836      102.031    95742.745    16342.142    10410.265       13.992        6.125      395.537      106.429        0.072      335.830        6.723      864.956
01/04/2022  08:10:00     -374.104      -38.816      -20.301      271.540      150.262      108.342    73734.094    22578.690    11737.929       12.494        5.403      376.112      109.535        0.085      335.853        6.761      865.006
01/04/2022  08:11:00     -361.623       67.263       -3.686      186.723      158.668       88.029    34865.463    25175.437     7749.147       10.154        3.390      367.826       89.651        0.059      335.878        6.802      865.031
01/04/2022  08:12:00     -219.883      -37.249        5.047      238.103      161.164      105.121    56693.194    25973.755    11050.352        7.172        4.686      223.016      104.930        0.221      335.821        6.708      865.072
01/04/2022  08:13:00     -184.337        6.789       -7.768      246.768      171.249      137.895    60894.210    29326.337    19015.103        7.164        5.462      184.462      135.447        0.539      335.804        6.679      865.039
01/04/2022  08:14:00     -241.208      -24.262       -1.148      223.309      133.860      112.732    49866.716    17918.446    12708.572        6.962        4.025      242.425      100.193        0.171      335.803        6.678      865.027
01/04/2022  08:15:00     -382.339       18.765      -16.242      227.360      161.022      103.481    51692.586    25928.132    10708.411       11.755        4.416      382.799       76.878        0.040      335.806        6.684      865.007
01/04/2022  08:16:00     -239.909      -24.030        1.023      231.182      140.932      109.827    53445.178    19861.890    12061.920        7.174        4.268      241.109      112.895        0.219      335.817        6.700      864.995
01/04/2022  08:17:00     -316.350      -43.289      -23.654      321.340      168.497      120.857   103259.242    28391.228    14606.383       12.436        7.313      319.298      105.188        0.109      335.834        6.729      864.973
01/04/2022  08:18:00     -403.427       13.457       -5.565      281.739      148.083      111.072    79376.643    21928.617    12337.072       13.828        5.682      403.652      112.995        0.078      335.829        6.720      864.935
01/04/2022  08:19:00     -502.189       -6.871      -23.805      257.411      191.016      142.843    66260.387    36486.992    20404.255       18.796        6.158      502.236      143.041        0.081      335.852        6.759      864.900
01/04/2022  08:20:00     -548.042       30.560      -28.362      242.454      179.745      120.224    58783.758    32308.403    14453.733       20.380        5.277      548.894      123.434        0.051      335.846        6.749      864.940
01/04/2022  08:21:00     -469.541      -43.796      -26.907      240.229      157.502      121.489    57709.787    24806.860    14759.640       16.018        4.864      471.580      120.358        0.065      335.832        6.726      864.971
01/04/2022  08:22:00     -288.274      -41.988      -19.900      266.246      178.209      145.103    70887.098    31758.360    21054.935       10.446        6.185      291.316      147.902        0.258      335.840        6.739      864.967
01/04/2022  08:23:00     -304.385      -20.185      -12.940      208.363      143.445      103.036    43415.143    20576.531    10616.500        8.390        3.730      305.053      107.652        0.125      335.813        6.694      864.963
01/04/2022  08:24:00     -434.544      -30.765      -17.463      281.837      176.041      129.699    79431.965    30990.542    16821.715       15.864        6.362      435.632      126.631        0.084      335.825        6.713      864.960
01/04/2022  08:25:00     -458.035      -25.208        8.410      314.075      182.378      136.893    98643.160    33261.673    18739.769       18.055        7.532      458.728      143.351        0.098      335.788        6.652      864.989
01/04/2022  08:26:00     -441.905       20.646      -23.176      253.213      154.230      121.383    64116.712    23786.821    14733.868       14.942        5.132      442.387      111.125        0.063      335.782        6.642      865.012
01/04/2022  08:27:00     -435.059       60.073      -19.904      302.449      214.110      134.505    91475.326    45843.165    18091.596       17.432        7.771      439.187      137.403        0.098      335.790        6.655      865.079
01/04/2022  08:28:00     -438.704       89.531        7.189      304.394      169.028      133.034    92655.583    28570.626    17697.930       16.970        6.946      447.747      149.323        0.111      335.838        6.735      865.085
01/04/2022  08:29:00     -436.180       48.769      -24.795      283.870      160.188      109.018    80582.457    25660.345    11884.956       15.567        5.906      438.898      105.974        0.058      335.824        6.712      865.077
01/04/2022  08:30:00     -411.958        0.543      -39.842      219.620      166.696      125.513    48233.107    27787.616    15753.488       13.152        4.589      411.959      130.068        0.100      335.864        6.779      865.068
01/04/2022  08:31:00     -313.502        3.946      -31.225      192.679      156.864      111.062    37125.325    24606.299    12334.811        8.666        3.703      313.527      100.519        0.103      335.839        6.736      865.014
01/04/2022  08:32:00     -488.901       -8.949      -43.155      297.781      180.625      101.608    88673.694    32625.218    10324.258       18.627        6.581      488.983      116.180        0.056      335.834        6.730      864.955
01/04/2022  08:33:00     -434.289       -7.709      -36.640      266.187      192.323      123.185    70855.694    36988.090    15174.490       15.649        6.151      434.358      122.336        0.079      335.830        6.722      864.952
01/04/2022  08:34:00     -344.929       62.111      -14.840      203.578      140.374       96.651    41444.120    19704.961     9341.376        9.676        3.525      350.477      107.821        0.095      335.881        6.808      864.999
01/04/2022  08:35:00     -235.638       40.441        1.798      210.828      141.719       91.792    44448.466    20084.295     8425.749        6.505        3.648      239.083       76.433        0.102      335.882        6.810      865.037
01/04/2022  08:36:00     -377.219       76.715       -2.828      247.010      183.304      117.787    61013.773    33600.362    13873.716       12.832        5.424      384.940      124.728        0.105      335.915        6.863      865.074
01/04/2022  08:37:00     -242.986      112.127       -7.520      182.470      163.728       98.284    33295.209    26806.910     9659.791        7.070        3.488      267.609       95.203        0.127      335.915        6.865      865.078
01/04/2022  08:38:00     -285.030       65.611      -15.651      213.136      149.648      105.204    45426.821    22394.556    11067.892        8.233        3.944      292.484       89.753        0.094      335.914        6.863      865.092
01/04/2022  08:39:00     -274.042        0.548      -27.489      240.105      135.662       87.147    57650.614    18404.169     7594.650        7.974        4.182      274.043      103.015        0.141      335.859        6.772      865.161
01/04/2022  08:40:00     -192.817       38.084      -10.615      148.298       89.590       60.279    21992.415     8026.281     3633.583        3.619        1.683      196.542       71.986        0.134      335.838        6.735      865.211
01/04/2022  08:41:00     -234.583       84.424      -14.033      126.811      111.335       79.583    16080.963    12395.468     6333.426        4.858        1.740      249.312       54.711        0.048      335.862        6.775      865.181
01/04/2022  08:42:00     -378.881      -17.677      -22.636      310.881      167.234      119.382    96646.968    27967.316    14252.079       14.160        6.943      379.293      137.280        0.131      335.871        6.791      865.153
01/04/2022  08:43:00     -409.998       25.086      -31.152      225.485      153.113       91.015    50843.315    23443.570     8283.805       12.612        4.129      410.765       93.520        0.052      335.853        6.760      865.148
01/04/2022  08:44:00     -479.067       11.575      -19.336      230.129      168.751       99.408    52959.580    28476.786     9881.887       16.065        4.566      479.207       95.704        0.040      335.872        6.791      865.125
01/04/2022  08:45:00     -342.513       68.159      -23.140      235.343      211.102      107.895    55386.491    44564.133    11641.357       11.702        5.580      349.229       81.758        0.055      335.866        6.783      865.124
01/04/2022  08:46:00     -142.630       -7.236      -20.595      138.988      100.557       63.203    19317.692    10111.707     3994.641        2.712        1.671      142.814       43.249        0.092      335.856        6.765      865.116
01/04/2022  08:47:00     -299.958       37.670      -27.388      264.844      152.461       91.693    70142.587    23244.508     8407.620        9.695        5.090      302.314      103.829        0.118      335.870        6.790      865.159
01/04/2022  08:48:00     -170.091        7.188      -26.498      165.655      145.672       91.896    27441.449    21220.341     8444.822        4.339        2.855      170.243       71.902        0.178      335.873        6.794      865.189
01/04/2022  08:49:00     -438.862      -26.162      -38.634      247.144      176.582      104.499    61080.340    31181.042    10920.138       14.896        5.159      439.641      103.231        0.055      335.903        6.843      865.275
01/04/2022  08:50:00     -368.165       46.591      -20.092      165.574      135.334       82.675    27414.602    18315.364     6835.150        9.533        2.628      371.101       78.730        0.045      335.868        6.786      865.449
01/04/2022  08:51:00     -178.708       36.968      -28.851      128.022      108.855       57.959    16389.532    11849.497     3359.257        3.286        1.580      182.492       55.134        0.091      335.881        6.809      865.562
01/04/2022  08:52:00     -280.878      -23.598      -27.536      210.583      145.248       97.232    44345.368    21096.904     9453.970        7.754        3.745      281.868      104.318        0.137      335.903        6.845      865.584
01/04/2022  08:53:00     -443.746       13.911      -24.161      262.811      162.171       98.671    69069.864    26299.360     9735.936       15.138        5.255      443.964       96.014        0.047      335.910        6.854      865.541
01/04/2022  08:54:00     -284.805       44.020      -13.294      219.108      105.044       84.234    48008.525    11034.289     7095.294        7.467        3.307      288.186       86.710        0.091      335.896        6.833      865.501
01/04/2022  08:55:00     -316.895      110.825       -1.835      161.544      120.879       83.570    26096.439    14611.842     6983.921        8.019        2.385      335.715       80.759        0.058      335.924        6.880      865.451
01/04/2022  08:56:00     -238.836       39.734       -1.996      228.091      117.974       83.324    52025.712    13917.901     6942.825        6.574        3.644      242.119      113.376        0.219      335.903        6.844      865.420
01/04/2022  08:57:00     -280.898       17.721      -12.148      255.443      146.710       87.265    65251.019    21523.948     7615.167        8.686        4.720      281.456      105.703        0.141      335.912        6.859      865.431
01/04/2022  08:58:00     -416.594      -23.248      -10.931      277.493      165.252      132.259    77002.309    27308.311    17492.462       14.798        6.090      417.242      139.838        0.112      335.895        6.832      865.440
01/04/2022  08:59:00     -370.297       32.396      -11.928      253.106      187.074      117.130    64062.545    34996.637    13719.500       12.552        5.639      371.712      102.161        0.076      335.896        6.832      865.503
01/04/2022  09:00:00     -375.519      161.706       -2.936      192.720      151.621       75.555    37141.053    22988.843     5708.593       11.649        3.292      408.857       84.143        0.042      335.908        6.852      865.492
01/04/2022  09:01:00     -288.129       85.854      -28.074      113.283      102.529       59.849    12833.111    10512.298     3581.848        5.905        1.346      300.648       33.882        0.013      335.875        6.798      865.452
01/04/2022  09:02:00     -144.662       11.028      -10.474      145.729       88.967       74.457    21236.961     7915.072     5543.798        2.792        1.735      145.082       57.930        0.159      335.877        6.803      865.390
01/04/2022  09:03:00     -197.149       45.504        6.368      144.246      130.023       70.505    20807.002    16905.938     4970.959        4.182        2.134      202.332       68.219        0.114      335.875        6.798      865.326
01/04/2022  09:04:00     -153.486       -7.993      -12.078      142.535      106.552       85.296    20316.337    11353.341     7275.387        3.135        1.947      153.694       81.653        0.282      335.861        6.775      865.264
01/04/2022  09:05:00     -179.711       37.340      -25.507       79.993       58.201       53.919     6398.840     3387.337     2907.212        2.351        0.635      183.549       47.036        0.066      335.846        6.751      865.186
01/04/2022  09:06:00     -273.299      -11.164      -23.640      201.672      127.749       83.149    40671.507    16319.850     6913.719        6.963        3.195      273.527       67.871        0.062      335.865        6.780      865.098
01/04/2022  09:07:00     -281.600      -29.613      -18.016      203.847      102.507       83.419    41553.682    10507.647     6958.717        6.975        2.951      283.152       86.084        0.092      335.875        6.799      865.018
01/04/2022  09:08:00     -248.190       30.575       -3.122      160.794      144.223       79.566    25854.836    20800.373     6330.726        5.775        2.649      250.066       72.372        0.084      335.894        6.828      864.996
01/04/2022  09:09:00     -513.539        8.329      -18.881      311.846      175.363      117.043    97247.855    30752.092    13699.168       20.290        7.085      513.607      134.765        0.069      335.913        6.860      865.007
01/04/2022  09:10:00     -241.050       60.997        0.612      241.580      159.459      103.373    58360.710    25427.196    10685.934        7.813        4.724      248.648      108.588        0.191      335.934        6.896      865.078
01/04/2022  09:11:00     -338.252       29.817       -9.747      145.320      118.653       71.714    21117.796    14078.627     5142.918        7.786        2.017      339.563       63.329        0.035      335.922        6.874      865.129
01/04/2022  09:12:00     -450.802       14.484      -45.074      252.697      192.402      115.150    63855.571    37018.363    13259.590       15.978        5.707      451.034      108.984        0.058      335.942        6.907      865.160
01/04/2022  09:13:00     -258.408      -29.351        0.268      300.274      150.722      143.406    90164.597    22717.169    20565.255       10.052        6.672      260.069      152.835        0.345      335.949        6.921      865.173
01/04/2022  09:14:00     -496.591       48.887      -17.734      276.186      151.779      112.868    76278.898    23036.820    12739.110       18.066        5.603      498.992      123.332        0.061      335.931        6.891      865.249
01/04/2022  09:15:00     -394.658       95.925      -12.290      221.277      178.079      111.855    48963.301    31711.975    12511.627       12.913        4.659      406.149      117.337        0.083      335.940        6.906      865.307
01/04/2022  09:16:00     -200.550       78.454      -17.389      160.105      124.514       81.531    25633.600    15503.852     6647.223        4.722        2.389      215.349       72.595        0.114      335.977        6.969      865.333
01/04/2022  09:17:00     -275.822       -5.229       -3.655      223.783      180.130      111.113    50078.806    32446.686    12346.080        8.548        4.744      275.872      102.986        0.139      335.979        6.969      865.381
01/04/2022  09:18:00     -169.733       20.984        6.459      124.717      106.767       74.578    15554.328    11399.213     5561.900        3.090        1.626      171.025       57.891        0.115      335.981        6.975      865.437
01/04/2022  09:19:00     -298.090       37.569       -6.642      203.486      132.441       94.082    41406.654    17540.676     8851.451        7.904        3.390      300.448       78.533        0.068      335.952        6.925      865.552
01/04/2022  09:20:00     -448.725      116.866      -14.052      279.564      172.735      101.344    78156.240    29837.303    10270.659       16.671        5.913      463.693       95.603        0.043      335.982        6.976      865.571
01/04/2022  09:21:00     -155.332       12.972      -12.749      176.663      111.361       93.529    31209.876    12401.168     8747.636        3.840        2.618      155.872       89.438        0.329      336.002        7.009      865.599
01/04/2022  09:22:00     -310.697       21.400      -18.068      218.317      134.175       88.232    47662.120    18002.943     7784.809        8.537        3.672      311.433       82.965        0.071      335.956        6.934      865.613
01/04/2022  09:23:00     -245.462      104.677       11.576      183.280      143.223       85.101    33591.707    20512.783     7242.171        6.633        3.067      266.850       77.419        0.084      336.005        7.014      865.638
01/04/2022  09:24:00     -389.715       96.452      -12.986      229.469      149.533       98.514    52655.981    22360.120     9704.965       12.302        4.236      401.473       90.427        0.051      336.017        7.034      865.649
01/04/2022  09:25:00     -212.993       49.835       -2.990      147.355      108.478       75.072    21713.418    11767.388     5635.774        4.348        1.956      218.745       70.401        0.104      336.036        7.067      865.749
01/04/2022  09:26:00     -161.882       49.222      -18.809      281.546      112.583       78.114    79268.052    12674.910     6101.753        6.350        4.902      169.200       85.061        0.253      336.036        7.067      865.776
01/04/2022  09:27:00     -376.475       85.584       13.212      299.948      198.775      121.894    89968.678    39511.391    14858.034       14.676        7.217      386.080      151.638        0.154      335.993        6.995      865.774
01/04/2022  09:28:00     -261.062      -18.591      -12.009      147.402      104.311       88.277    21727.406    10880.698     7792.886        5.451        2.020      261.723       79.549        0.092      336.010        7.022      865.771
01/04/2022  09:29:00     -295.367       -4.367      -30.748      132.742       94.034       77.174    17620.415     8842.467     5955.806        6.031        1.621      295.399       59.014        0.040      335.997        7.000      865.761
01/04/2022  09:30:00      -99.386       26.792       15.410      149.781       94.840       81.354    22434.408     8994.610     6618.448        2.443        1.902      102.934       61.785        0.360      336.016        7.033      865.733
01/04/2022  09:31:00     -210.327       -5.349      -25.827      172.485      129.994       70.976    29750.968    16898.322     5037.651        4.830        2.584      210.395       84.716        0.162      335.995        6.997      865.674
01/04/2022  09:32:00     -454.455      -22.726      -45.101      223.810      149.826       93.696    50091.056    22447.725     8778.863       14.518        4.066      455.023      105.383        0.054      335.985        6.977      865.598
01/04/2022  09:33:00     -224.464       15.551      -11.316      163.377       89.483       69.938    26692.042     8007.160     4891.378        4.517        1.980      225.002       68.425        0.092      336.003        7.010      865.565
01/04/2022  09:34:00     -287.388       76.598       -5.876      242.176      165.256       79.817    58649.089    27309.478     6370.731        9.039        4.616      297.421       79.863        0.072      336.020        7.038      865.519
01/04/2022  09:35:00     -275.437       80.573       -1.672      295.561      178.965      102.363    87356.026    32028.582    10478.251       10.609        6.493      286.980      106.196        0.137      336.032        7.058      865.517
01/04/2022  09:36:00     -313.546      -25.802      -20.720      239.766      154.182      104.387    57487.863    23772.105    10896.664        9.576        4.608      314.606       89.089        0.080      336.024        7.045      865.515
01/04/2022  09:37:00     -264.291       54.884      -17.162      175.437      129.465      106.031    30778.275    16761.081    11242.487        6.596        2.939      269.930      104.654        0.150      336.066        7.115      865.539
01/04/2022  09:38:00     -247.068       -6.219       -8.757      198.043      119.832       83.867    39221.073    14359.644     7033.754        6.088        3.031      247.146       65.388        0.070      336.122        7.209      865.588
01/04/2022  09:39:00     -322.905       87.153      -31.607      159.493      169.861       93.846    25437.884    28852.806     8806.985        8.797        3.155      334.460       77.429        0.054      336.174        7.294      865.613
01/04/2022  09:40:00     -373.772      -16.608      -20.614      295.140      217.356      117.156    87107.396    47243.805    13725.431       14.421        7.404      374.141      126.145        0.114      336.152        7.259      865.617
01/04/2022  09:41:00     -433.531       65.874      -16.598      286.894      214.053      103.556    82308.152    45818.645    10723.772       16.568        6.943      438.507      107.642        0.060      336.156        7.266      865.574
01/04/2022  09:42:00     -411.995       92.862       -6.691      303.922      215.708      134.820    92368.436    46530.152    18176.536       16.771        7.854      422.331      135.108        0.102      336.148        7.253      865.539
01/04/2022  09:43:00     -482.697      170.499      -14.849      310.642      190.700      114.149    96498.232    36366.366    13029.897       20.406        7.295      511.925      111.823        0.048      336.148        7.252      865.497
01/04/2022  09:44:00     -375.681       15.136      -27.253      206.101      134.935       92.269    42477.551    18207.501     8513.561       10.564        3.460      375.986      100.281        0.071      336.142        7.243      865.462
01/04/2022  09:45:00     -340.381       75.914      -15.843      306.542      152.890      100.881    93967.987    23375.442    10176.939       12.467        6.376      348.743      119.417        0.117      336.144        7.244      865.387
01/04/2022  09:46:00     -374.141       -7.196      -19.329      241.887      159.726      103.647    58509.162    25512.342    10742.675       11.757        4.738      374.210      106.302        0.081      336.140        7.239      865.321
01/04/2022  09:47:00     -270.373       44.711        7.121      188.049      146.709       88.571    35362.305    21523.459     7844.895        6.993        3.237      274.045       80.316        0.086      336.204        7.345      865.410
01/04/2022  09:48:00     -442.388      -18.240       -9.260      241.210      172.146      124.997    58182.054    29634.409    15624.337       14.976        5.172      442.764      125.915        0.081      336.205        7.346      865.438
01/04/2022  09:49:00     -287.158       29.165        5.474      270.621      195.962      136.914    73235.718    38401.268    18745.354       10.684        6.519      288.636      116.630        0.163      336.223        7.377      865.525
01/04/2022  09:50:00     -432.045       60.075        3.623      260.247      176.550      111.231    67728.694    31169.778    12372.320       15.076        5.564      436.202      124.629        0.082      336.222        7.375      865.581
01/04/2022  09:51:00     -669.189      175.015       -7.260      334.268      285.158      132.865   111734.807    81315.258    17653.018       34.456       10.535      691.697      130.623        0.036      336.193        7.326      865.591
01/04/2022  09:52:00     -411.329        9.338      -23.980      313.253      178.990      107.629    98127.351    32037.539    11584.091       15.578        7.087      411.435      110.314        0.072      336.211        7.356      865.588
01/04/2022  09:53:00     -348.196       -5.899      -30.270      267.357      160.536      112.942    71479.912    25771.828    12755.790       11.608        5.500      348.246      127.052        0.133      336.240        7.405      865.622
01/04/2022  09:54:00     -303.300      -37.678       -8.596      234.792      153.349      107.907    55127.498    23515.765    11643.918        9.187        4.514      305.632      106.460        0.121      336.246        7.417      865.634
01/04/2022  09:55:00     -514.646       58.402      -17.254      358.543      198.024      146.546   128553.069    39213.609    21475.755       22.887        9.462      517.949      146.675        0.080      336.192        7.326      865.596
01/04/2022  09:56:00     -392.276       -6.214      -29.660      312.815      207.517      116.136    97853.020    43063.504    13487.667       15.457        7.720      392.326      122.456        0.097      336.208        7.352      865.589
01/04/2022  09:57:00     -393.100       96.393      -13.942      357.862      159.527      102.780   128065.224    25448.905    10563.746       16.402        8.204      404.746      137.946        0.116      336.205        7.346      865.603
01/04/2022  09:58:00     -327.773       95.281        1.032      183.768      149.594       94.028    33770.531    22378.295     8841.186        9.074        3.250      341.341       76.154        0.050      336.228        7.386      865.561
01/04/2022  09:59:00     -399.804       73.786      -16.219      248.604      202.498      121.816    61804.047    41005.440    14839.061       14.158        5.882      406.556      116.199        0.082      336.177        7.299      865.567
01/04/2022  10:00:00     -462.515      129.654      -35.454      331.263      194.631      109.011   109735.225    37881.408    11883.433       19.571        7.975      480.344      128.400        0.071      336.164        7.278      865.550
01/04/2022  10:01:00     -308.512      115.074       -8.085      250.736      178.079      112.822    62868.402    31712.278    12728.904       10.788        5.365      329.275       91.820        0.078      336.165        7.281      865.520
01/04/2022  10:02:00     -564.308      -24.683      -19.216      316.449      148.696      115.983   100140.160    22110.625    13452.104       22.754        6.785      564.848      129.284        0.052      336.089        7.154      865.516
01/04/2022  10:03:00     -255.509       15.959       10.292      256.458      177.458      125.260    65770.766    31491.336    15690.053        8.928        5.648      256.007      134.791        0.277      336.107        7.184      865.441
01/04/2022  10:04:00     -407.194       22.753       -0.413      348.189      203.678      152.239   121235.803    41484.525    23176.584       17.608        9.295      407.829      163.489        0.161      336.035        7.065      865.352
01/04/2022  10:05:00     -627.783        6.632       -3.619      307.967      232.183      154.925    94843.795    53909.097    24001.763       28.343        8.638      627.818      165.826        0.070      335.988        6.985      865.272
01/04/2022  10:06:00     -353.669       31.781      -23.120      319.210      220.451      140.864   101895.206    48598.580    19842.704       14.845        8.517      355.094      141.075        0.158      336.010        7.021      865.265
01/04/2022  10:07:00     -476.758      125.854      -22.672      286.635      220.217      133.502    82159.836    48495.645    17822.664       19.604        7.424      493.089      128.036        0.067      336.016        7.032      865.252
01/04/2022  10:08:00     -399.754       43.204       -4.269      388.284      203.489      144.608   150764.772    41407.669    20911.389       18.735       10.654      402.082      181.894        0.205      336.042        7.075      865.282
01/04/2022  10:09:00     -514.689       74.783      -31.583      377.564      227.673      121.901   142554.527    51835.219    14859.937       24.033       10.462      520.094      113.275        0.047      336.072        7.125      865.299
01/04/2022  10:10:00     -309.347      128.951      -16.319      288.897      155.357       97.787    83461.432    24135.754     9562.351       11.485        5.858      335.147       46.950        0.020      336.124        7.213      865.331
01/04/2022  10:11:00     -325.730       43.951      -21.242      301.682      173.798      107.936    91011.747    30205.875    11650.247       12.065        6.643      328.682       84.931        0.067      336.154        7.262      865.413
01/04/2022  10:12:00     -559.442       34.060      -44.930      307.553      192.688      129.518    94588.584    37128.671    16774.983       23.230        7.425      560.478      144.518        0.066      336.114        7.195      865.423
01/04/2022  10:13:00     -449.156      -29.139      -17.544      340.483      196.829      157.635   115928.642    38741.710    24848.744       19.118        8.976      450.100      136.140        0.091      336.127        7.217      865.441
01/04/2022  10:14:00     -402.503       -3.077      -14.558      297.058      176.323      142.609    88243.591    31089.743    20337.275       15.092        6.984      402.514      143.192        0.127      336.128        7.219      865.428
01/04/2022  10:15:00     -319.936       15.107       26.348      316.250      179.690      132.523   100013.972    32288.552    17562.273       12.655        7.493      320.292      152.631        0.227      336.199        7.337      865.500
01/04/2022  10:16:00     -383.109       51.087       -4.672      269.529      178.246      109.789    72645.730    31771.519    12053.610       13.292        5.824      386.500       85.844        0.049      336.370        7.623      865.456
01/04/2022  10:17:00     -226.170       -2.095       -2.533      299.003      182.176      128.802    89402.767    33188.223    16589.871        9.515        6.959      226.180      138.677        0.376      336.260        7.438      865.528
01/04/2022  10:18:00     -442.041       13.182      -11.666      333.543      197.009      133.462   111250.914    38812.678    17812.161       18.176        8.394      442.238      118.331        0.072      336.180        7.306      865.501
01/04/2022  10:19:00     -332.945       -1.760       -3.404      253.072      136.798      111.700    64045.671    18713.727    12476.995       10.303        4.762      332.950      117.095        0.124      336.237        7.400      865.504
01/04/2022  10:20:00     -605.621      -60.896        0.274      338.555      234.597      152.827   114619.423    55035.845    23355.950       28.171        9.651      608.675      157.717        0.067      336.353        7.594      865.474
01/04/2022  10:21:00     -462.018        6.782      -26.996      354.312      157.169      128.947   125536.691    24702.015    16627.391       19.052        8.343      462.067      115.299        0.062      336.387        7.651      865.416
01/04/2022  10:22:00     -320.922        1.367      -15.398      210.830      132.502      110.321    44449.350    17556.717    12170.808        8.869        3.709      320.925       89.617        0.078      336.333        7.560      865.462
01/04/2022  10:23:00     -382.687      -31.888      -18.425      268.982      150.707      105.273    72351.538    22712.748    11082.328       12.696        5.307      384.013       92.745        0.058      336.287        7.483      865.452
01/04/2022  10:24:00     -354.961      -35.392      -15.750      270.512      191.052      119.893    73176.759    36500.752    14374.233       12.575        6.203      356.721      128.942        0.131      336.320        7.539      865.426
01/04/2022  10:25:00     -535.341      130.433       -3.640      298.978      198.149      120.120    89387.852    39263.077    14428.930       22.332        7.154      551.002      113.971        0.043      336.304        7.512      865.442
01/04/2022  10:26:00     -334.307      -43.932        6.294      298.598      185.582      134.614    89160.578    34440.768    18120.998       12.770        7.086      337.181      133.278        0.156      336.308        7.518      865.430
01/04/2022  10:27:00     -209.757       54.739      -24.947      188.933      199.538       99.609    35695.587    39815.258     9922.019        6.651        4.272      216.782       98.787        0.208      336.403        7.678      865.408
01/04/2022  10:28:00     -408.716        0.938      -21.928      283.433      167.489      102.241    80334.257    28052.666    10453.302       14.316        5.942      408.717      112.610        0.076      336.366        7.614      865.409
01/04/2022  10:29:00     -392.572        7.912      -27.949      262.650      188.653      123.504    68984.922    35589.848    15253.359       13.737        5.991      392.652      131.597        0.112      336.423        7.711      865.409
01/04/2022  10:30:00     -315.152        4.199      -19.807      258.278      167.848      109.020    66707.563    28172.809    11885.323       10.323        5.338      315.180       99.638        0.100      336.434        7.728      865.423
01/04/2022  10:31:00     -260.117       -4.447       -9.708      240.697      155.931       90.591    57934.946    24314.586     8206.749        7.910        4.523      260.155       93.302        0.129      336.439        7.737      865.419
01/04/2022  10:32:00     -360.492       29.111      -12.185      326.372      197.966      133.134   106518.639    39190.508    17724.637       14.716        8.172      361.666      142.129        0.154      336.473        7.795      865.468
01/04/2022  10:33:00     -487.854      -69.062      -46.366      322.071      189.839      117.324   103729.484    36038.942    13764.859       19.920        7.677      492.718      102.964        0.044      336.503        7.844      865.423
01/04/2022  10:34:00     -612.895       33.927      -32.326      244.103      196.409      103.706    59586.307    38576.435    10754.953       24.336        5.446      613.833       97.690        0.025      336.519        7.872      865.434
01/04/2022  10:35:00     -559.690        6.165       -9.271      431.996      265.586      165.885   186620.442    70536.006    27517.776       29.897       14.234      559.724      177.253        0.100      336.521        7.876      865.389
01/04/2022  10:36:00     -287.289       44.897       21.529      255.366      226.936      119.380    65211.975    51500.173    14251.580       10.797        6.548      290.776      117.433        0.163      336.530        7.892      865.452
01/04/2022  10:37:00     -478.079       -6.209      -33.827      391.353      230.173      140.900   153156.780    52979.606    19852.844       22.782       11.299      478.119      108.503        0.052      336.485        7.813      865.435
01/04/2022  10:38:00     -502.035        0.712      -42.289      381.346      256.779      127.856   145424.742    65935.539    16347.175       24.073       11.385      502.036      157.880        0.099      336.467        7.784      865.422
01/04/2022  10:39:00     -449.481       52.454       -8.100      318.497      251.895      160.107   101440.046    63450.840    25634.322       19.765        9.526      452.531      138.769        0.094      336.478        7.801      865.349
01/04/2022  10:40:00     -415.271      -71.425      -21.125      333.458      189.431      145.370   111194.150    35884.124    21132.307       17.307        8.411      421.368      149.365        0.126      336.438        7.735      865.363
01/04/2022  10:41:00     -637.553      -43.653      -35.674      381.551      250.555      156.117   145580.838    62777.802    24372.381       32.115       11.637      639.045      179.484        0.079      336.398        7.668      865.357
01/04/2022  10:42:00     -467.009      130.050      -11.373      288.315      232.759      133.552    83125.633    54176.866    17836.037       19.511        7.757      484.779      122.688        0.064      336.407        7.684      865.369
01/04/2022  10:43:00     -371.080       29.590      -35.229      307.790      230.191      150.215    94734.631    52988.068    22564.610       15.502        8.514      372.258      169.127        0.206      336.403        7.676      865.351
01/04/2022  10:44:00     -440.816      -42.918       -6.332      266.367      172.669      117.763    70951.500    29814.533    13868.179       15.540        5.732      442.901      127.575        0.083      336.426        7.715      865.394
01/04/2022  10:45:00     -388.209        5.286      -17.563      300.456      182.845      142.009    90273.590    33432.425    20166.580       14.743        7.194      388.245      145.241        0.140      336.416        7.698      865.433
01/04/2022  10:46:00     -645.616       93.083       -1.104      288.256      222.695      136.386    83091.474    49592.903    18601.248       28.836        7.564      652.291      129.298        0.039      336.374        7.627      865.451
01/04/2022  10:47:00     -389.499        6.080      -13.173      294.603      186.896      140.502    86791.135    34930.082    19740.892       14.666        7.073      389.546      151.327        0.151      336.407        7.684      865.494
01/04/2022  10:48:00     -468.650       64.052      -14.030      325.977      172.190      119.482   106261.081    29649.382    14275.847       18.703        7.509      473.007      149.424        0.100      336.398        7.667      865.460
01/04/2022  10:49:00     -344.045       93.673      -33.862      265.128      182.275      116.142    70293.005    33224.203    13488.976       12.263        5.850      356.569       95.171        0.071      336.360        7.606      865.384
01/04/2022  10:50:00     -308.527       98.929       20.843      359.286      208.111      136.694   129086.230    43310.094    18685.275       14.821        9.554      324.000      151.785        0.219      336.399        7.671      865.343
01/04/2022  10:51:00     -513.103      104.913       -9.411      388.899      261.681      162.800   151242.423    68477.033    26503.788       26.025       12.311      523.719      145.883        0.078      336.338        7.570      865.334
01/04/2022  10:52:00     -236.968       79.299        9.678      188.044      156.271       95.416    35360.718    24420.682     9104.146        6.570        3.444      249.884       83.246        0.111      336.386        7.649      865.338
01/04/2022  10:53:00     -506.908      109.073      -52.420      344.714      231.842      129.531   118828.056    53750.875    16778.269       23.044        9.468      518.510      139.118        0.072      336.396        7.666      865.328
01/04/2022  10:54:00     -429.530       47.647       -8.030      317.897      226.230      149.141   101058.316    51179.984    22242.895       18.062        8.724      432.165      136.373        0.100      336.401        7.674      865.327
01/04/2022  10:55:00     -556.377       84.535      -22.244      286.487      219.631      125.723    82074.900    48237.723    15806.162       23.163        7.306      562.763      123.063        0.048      336.341        7.574      865.357
01/04/2022  10:56:00     -317.018       90.146      -13.106      246.437      177.957      116.513    60730.951    31668.580    13575.229       10.737        5.299      329.586       99.164        0.091      336.377        7.634      865.360
01/04/2022  10:57:00     -405.398       91.495      -13.285      221.597      178.280      121.928    49105.168    31783.861    14866.408       13.431        4.788      415.594      103.338        0.062      336.348        7.584      865.338
01/04/2022  10:58:00     -322.074       -7.902        1.459      276.021      141.090      131.044    76187.469    19906.518    17172.518       10.851        5.663      322.171      148.156        0.211      336.366        7.614      865.362
01/04/2022  10:59:00     -429.316       12.397       -0.802      350.949      214.322      144.758   123164.951    45933.764    20954.768       18.723        9.503      429.495      157.850        0.135      336.362        7.609      865.358
01/04/2022  11:00:00     -439.049       16.792      -23.191      327.320      213.536      136.435   107138.137    45597.828    18614.578       18.244        8.568      439.370      109.409        0.062      336.379        7.637      865.336
01/04/2022  11:01:00     -402.103       59.269      -14.713      280.530      212.792      145.678    78696.832    45280.510    21222.018       15.528        7.260      406.447      144.838        0.127      336.424        7.711      865.328
01/04/2022  11:02:00     -427.604       78.534      -37.988      318.204      261.240      132.672   101253.906    68246.234    17601.973       18.874        9.355      434.756      146.463        0.113      336.465        7.782      865.337
01/04/2022  11:03:00     -526.723       33.803      -25.701      342.807      235.492      160.215   117516.374    55456.359    25668.899       23.890        9.932      527.807      162.385        0.095      336.444        7.746      865.318
01/04/2022  11:04:00     -587.742      -35.511        9.872      383.495      211.948      175.523   147068.252    44921.982    30808.405       28.476       11.140      588.814      178.292        0.092      336.418        7.702      865.279
01/04/2022  11:05:00     -421.979       13.397        2.104      362.581      208.492      132.291   131464.705    43469.118    17500.961       18.531        9.622      422.192      148.030        0.123      336.465        7.782      865.292
01/04/2022  11:06:00     -517.396      -21.066      -36.374      355.939      191.972      156.912   126692.718    36853.094    24621.255       22.878        9.408      517.825      167.173        0.104      336.447        7.750      865.295
01/04/2022  11:07:00     -514.203       25.606      -44.694      334.318      199.658      130.006   111768.449    39863.494    16901.531       21.777        8.427      514.841      135.569        0.069      336.473        7.794      865.303
01/04/2022  11:08:00     -536.012      147.817       -9.415      331.449      231.222      131.091   109858.516    53463.748    17184.849       24.484        9.025      556.020      148.708        0.072      336.461        7.774      865.321
01/04/2022  11:09:00     -481.059       99.364       -7.854      451.796      250.272      157.586   204119.803    62636.118    24833.503       26.642       14.579      491.214      177.071        0.130      336.456        7.767      865.317
01/04/2022  11:10:00     -459.923       34.438       -7.170      345.657      243.099      172.455   119478.547    59096.947    29740.814       21.050       10.416      461.210      159.589        0.120      336.469        7.787      865.301
01/04/2022  11:11:00     -524.557      109.266      -43.270      343.446      229.376      147.223   117954.869    52613.470    21674.737       24.057        9.612      535.816      162.219        0.092      336.430        7.722      865.239
01/04/2022  11:12:00     -433.941        3.440      -16.478      324.382      203.066      130.551   105223.749    41235.921    17043.532       17.602        8.175      433.955      134.452        0.096      336.449        7.755      865.225
01/04/2022  11:13:00     -692.502      -30.555      -32.559      395.992      236.433      163.733   156809.583    55900.574    26808.464       36.049       11.976      693.176      170.797        0.061      336.410        7.689      865.161
01/04/2022  11:14:00     -545.506       -3.841      -42.783      299.941      239.523      148.731    89964.903    57371.190    22120.818       23.441        8.473      545.520      150.019        0.076      336.398        7.668      865.189
01/04/2022  11:15:00     -648.368       78.327      -11.998      432.185      226.033      175.335   186783.938    51090.776    30742.319       34.759       13.431      653.082      201.462        0.095      336.347        7.584      865.183
01/04/2022  11:16:00     -485.505      103.953      -24.267      302.183      206.232      125.351    91314.267    42531.459    15712.960       19.831        7.478      496.509      118.062        0.057      336.382        7.643      865.228
01/04/2022  11:17:00     -494.854       91.136      -36.179      296.007      205.919      136.075    87620.121    42402.591    18516.335       20.149        7.427      503.176      123.957        0.061      336.374        7.628      865.188
01/04/2022  11:18:00     -711.132      106.505      -27.697      473.463      231.650      140.497   224166.979    53661.920    19739.443       40.764       14.878      719.064      167.451        0.054      336.352        7.591      865.133
01/04/2022  11:19:00     -551.386      -15.692      -25.970      318.642      239.688      157.879   101532.821    57450.314    24925.905       24.439        9.195      551.610      150.414        0.074      336.360        7.606      865.134
01/04/2022  11:20:00     -456.030       28.657      -14.568      279.566      215.075      116.831    78157.001    46257.309    13649.595       17.351        6.903      456.930      121.640        0.071      336.382        7.642      865.156
01/04/2022  11:21:00     -431.003       11.404       -1.439      341.745      206.129      162.602   116789.981    42489.264    26439.443       18.577        9.286      431.154      173.035        0.161      336.388        7.652      865.129
01/04/2022  11:22:00     -395.560       22.587      -26.059      429.401      221.455      143.496   184385.119    49042.323    20591.048       20.579       12.701      396.204      121.336        0.094      336.350        7.590      865.133
01/04/2022  11:23:00     -379.065      -12.601      -16.819      408.719      193.263      155.157   167051.617    37350.575    24073.824       18.626       11.424      379.274      144.332        0.145      336.357        7.600      865.135
01/04/2022  11:24:00     -537.321      106.668        9.054      296.089      265.135      124.460    87668.406    70296.638    15490.226       23.678        8.673      547.806      142.622        0.068      336.425        7.714      865.154
01/04/2022  11:25:00     -504.524       45.054      -44.521      433.374      267.196      154.139   187813.157    71393.835    23758.951       27.071       14.148      506.532      135.828        0.072      336.399        7.670      865.178
01/04/2022  11:26:00     -487.146        7.360      -14.674      341.478      220.333      137.973   116607.418    48546.745    19036.682       21.085        9.210      487.202      153.592        0.099      336.393        7.661      865.212
01/04/2022  11:27:00     -311.838       33.165      -31.180      318.540      195.997      128.937   101467.693    38414.972    16624.838       12.788        7.825      313.597      127.480        0.165      336.367        7.617      865.233
01/04/2022  11:28:00     -520.660      127.166      -27.447      366.035      176.160      135.564   133981.854    31032.234    18377.627       23.567        9.170      535.964      143.662        0.072      336.363        7.611      865.282
01/04/2022  11:29:00     -534.350      -57.366      -37.985      337.556      257.312      160.848   113943.746    66209.553    25872.061       24.811       10.301      537.420      135.915        0.064      336.364        7.611      865.229
01/04/2022  11:30:00     -564.474       57.435      -11.827      322.826      200.747      149.790   104216.715    40299.201    22437.015       24.448        8.348      567.388      147.259        0.067      336.374        7.628      865.151
01/04/2022  11:31:00     -429.566       61.124      -20.958      389.137      237.123      176.079   151427.639    56227.118    31003.818       21.364       11.933      433.893      192.309        0.196      336.389        7.652      865.101
01/04/2022  11:32:00     -410.570       21.239        8.389      461.806      250.877      159.279   213264.416    62939.396    25369.914       23.528       15.079      411.119      164.288        0.160      336.391        7.659      865.040
01/04/2022  11:33:00     -526.981       85.650      -30.923      290.774      212.004      135.510    84549.681    44945.686    18362.826       21.690        7.393      533.896      141.010        0.070      336.434        7.729      864.999
01/04/2022  11:34:00     -363.258       -2.767      -26.601      343.822      189.503      149.740   118213.768    35911.457    22422.007       15.458        8.827      363.268      142.575        0.154      336.410        7.688      864.978
01/04/2022  11:35:00     -363.651      -60.310      -52.607      282.532      212.929      141.501    79824.476    45338.922    20022.510       14.189        7.259      368.619      131.182        0.127      336.381        7.640      864.927
01/04/2022  11:36:00     -603.357      142.183        0.856      344.518      235.458      141.261   118692.927    55440.312    19954.546       28.914        9.704      619.883      140.956        0.052      336.358        7.601      864.896
01/04/2022  11:37:00     -521.638        5.274        1.020      365.087      216.905      153.319   133288.249    47047.613    23506.600       23.795       10.192      521.664      175.564        0.113      336.344        7.579      864.824
01/04/2022  11:38:00     -607.138      105.859      -32.982      422.690      250.659      190.249   178666.900    62830.142    36194.542       32.925       13.885      616.297      212.426        0.119      336.332        7.558      864.728
01/04/2022  11:39:00     -475.376        9.401      -20.878      357.368      239.065      149.636   127711.917    57151.842    22390.930       21.684       10.363      475.468      142.025        0.089      336.349        7.586      864.723
01/04/2022  11:40:00     -502.457       18.536      -28.930      423.140      220.299      160.466   179047.433    48531.543    25749.268       25.344       12.666      502.798      185.455        0.136      336.352        7.594      864.686
01/04/2022  11:41:00     -597.547       47.766      -26.095      387.336      221.310      140.410   150028.794    48978.189    19715.044       28.933       10.936      599.453      165.682        0.076      336.348        7.584      864.692
01/04/2022  11:42:00     -523.932      102.862      -28.064      348.991      255.996      131.701   121794.731    65533.701    17345.230       24.524       10.234      533.933      136.993        0.066      336.410        7.688      864.711
01/04/2022  11:43:00     -389.975       20.233       -5.856      344.930      209.554      148.898   118977.029    43912.807    22170.589       16.876        9.253      390.499      151.948        0.151      336.391        7.657      864.663
01/04/2022  11:44:00     -267.154       -6.789       -6.232      254.361      171.235      115.493    64699.603    29321.549    13338.627        8.939        5.368      267.240       97.851        0.134      336.414        7.696      864.670
01/04/2022  11:45:00     -527.421       52.761      -38.636      259.436      253.943      124.619    67307.040    64487.149    15529.866       21.486        7.366      530.054      115.243        0.047      336.378        7.634      864.658
01/04/2022  11:46:00     -484.184      173.022       -5.507      322.177      190.409      142.870   103798.209    36255.752    20411.907       21.240        8.023      514.170      155.967        0.092      336.411        7.691      864.676
01/04/2022  11:47:00     -460.671      -19.307      -44.989      282.092      172.226      126.114    79575.772    29661.894    15904.626       16.986        6.257      461.075      132.552        0.083      336.371        7.623      864.671
01/04/2022  11:48:00     -435.871        3.567      -37.405      347.704      197.893      118.754   120898.059    39161.808    14102.477       18.275        8.708      435.886      128.966        0.088      336.423        7.709      864.681
01/04/2022  11:49:00     -340.168       39.378      -28.683      301.681      210.040      130.478    91011.547    44116.640    17024.597       13.509        7.608      342.439      125.932        0.135      336.463        7.777      864.698
01/04/2022  11:50:00     -390.932       67.738      -28.345      319.917      233.589      131.483   102346.921    54563.857    17287.872       16.618        8.710      396.757      119.421        0.091      336.446        7.748      864.696
01/04/2022  11:51:00     -488.232       57.669      -20.428      284.747      187.961      116.646    81080.760    35329.391    13606.287       18.604        6.501      491.626      126.119        0.066      336.435        7.731      864.703
01/04/2022  11:52:00     -732.831       70.435      -30.656      342.065      215.728      115.623   117008.436    46538.477    13368.775       35.990        8.846      736.208      132.190        0.032      336.350        7.588      864.700
01/04/2022  11:53:00     -541.582       -0.404      -34.024      201.166      197.931      103.476    40467.762    39176.584    10707.185       19.239        4.518      541.583       94.043        0.030      336.373        7.626      864.712
01/04/2022  11:54:00     -435.969      -41.461      -32.795      372.542      189.242      133.699   138787.762    35812.403    17875.506       19.263        9.624      437.936      148.945        0.116      336.451        7.757      864.676
01/04/2022  11:55:00     -537.139      -27.066      -32.873      320.359      214.726      147.525   102629.781    46107.176    21763.734       23.038        8.525      537.821      158.904        0.087      336.491        7.825      864.667
01/04/2022  11:56:00     -276.583      -22.314       -8.274      208.227      150.526      101.101    43358.634    22658.172    10221.511        7.664        3.812      277.482      113.428        0.167      336.535        7.901      864.668
01/04/2022  11:57:00     -343.371      -30.553      -32.516      204.935      171.323      111.712    41998.202    29351.656    12479.489       10.185        4.191      344.728       66.577        0.037      336.560        7.940      864.736
01/04/2022  11:58:00     -428.178      -15.734      -24.055      303.954      182.014      129.676    92388.001    33129.180    16815.969       16.322        7.117      428.467      120.963        0.080      336.494        7.830      864.783
01/04/2022  11:59:00     -355.186       33.671       -9.345      351.973      188.046      125.528   123884.645    35361.182    15757.270       15.116        8.750      356.779      144.193        0.163      336.481        7.809      864.766
01/04/2022  12:00:00     -289.472       81.760      -17.869      223.549      198.161      120.151    49974.123    39267.745    14436.179        9.722        5.184      300.797      100.921        0.113      336.553        7.929      864.749
01/04/2022  12:01:00     -351.916        9.578       20.023      367.465      247.328      138.403   135030.188    61171.138    19155.300       16.981       10.768      352.046      146.482        0.173      336.556        7.935      864.734
01/04/2022  12:02:00     -389.792        1.240      -18.706      332.546      239.078      147.259   110586.669    57158.254    21685.247       17.082        9.472      389.794      138.305        0.126      336.545        7.917      864.776
01/04/2022  12:03:00     -550.024      -52.803      -14.608      285.489      179.696      134.771    81503.777    32290.693    18163.192       21.872        6.598      552.553      134.102        0.059      336.560        7.941      864.793
01/04/2022  12:04:00     -411.161      -13.999      -28.444      268.035      178.025      145.576    71842.515    31692.779    21192.282       14.737        6.236      411.400      143.167        0.121      336.599        8.007      864.796
01/04/2022  12:05:00     -383.316       20.191      -34.311      252.115      198.124      111.645    63561.759    39253.211    12464.600       13.188        5.764      383.847      100.782        0.069      336.607        8.021      864.838
01/04/2022  12:06:00     -294.357      -51.392       -7.881      228.312      143.143      114.498    52126.399    20489.945    13109.744        8.752        4.286      298.809      108.799        0.133      336.634        8.066      864.872
01/04/2022  12:07:00     -578.044       21.221      -37.632      348.537      172.989      119.846   121477.904    29925.304    14362.957       25.085        8.288      578.433      150.227        0.067      336.536        7.902      864.859
01/04/2022  12:08:00     -453.538       51.942      -33.297      277.445      181.942      125.470    76975.567    33102.937    15742.769       16.764        6.291      456.503      113.139        0.061      336.520        7.875      864.833
01/04/2022  12:09:00     -412.453      -50.736      -47.012      236.650      180.102      108.423    56003.436    32436.790    11755.532       13.753        5.010      415.562       83.686        0.041      336.482        7.808      864.771
01/04/2022  12:10:00     -162.317       27.674      -31.946      317.174      214.834      112.187   100599.604    46153.771    12585.908        9.371        7.967      164.659      105.006        0.407      336.501        7.843      864.738
01/04/2022  12:11:00     -375.033       34.131        0.847      294.657      179.782      116.921    86822.670    32321.572    13670.616       13.729        6.641      376.583      129.777        0.119      336.460        7.773      864.731
01/04/2022  12:12:00     -631.659       39.205      -31.897      326.363      257.943      135.706   106512.940    66534.417    18416.090       29.647        9.573      632.874      165.872        0.069      336.382        7.642      864.692
01/04/2022  12:13:00     -462.180      -14.600      -20.638      296.768      174.140      137.387    88071.199    30324.822    18875.153       17.573        6.864      462.410      138.673        0.090      336.396        7.666      864.669
01/04/2022  12:14:00     -260.675       45.837      -31.673      173.738      217.273       80.978    30184.937    47207.418     6557.357        7.749        4.197      264.674       69.619        0.069      336.445        7.747      864.656
01/04/2022  12:15:00     -276.255      -11.021      -13.871      327.162      166.318      135.207   107035.250    27661.591    18280.891       11.478        7.649      276.475      141.253        0.261      336.371        7.624      864.626
01/04/2022  12:16:00     -573.144      -36.381      -18.643      363.411      220.234      149.880   132067.504    48502.833    22464.086       26.656       10.152      574.297      133.056        0.054      336.323        7.543      864.607
01/04/2022  12:17:00     -697.757       26.289      -24.776      389.066      253.210      151.647   151372.273    64115.381    22996.678       36.328       11.924      698.253      166.853        0.057      336.394        7.664      864.514
01/04/2022  12:18:00     -412.918       37.350       -0.837      308.657      248.499      152.427    95268.949    61751.519    23233.883       17.604        9.013      414.604      158.838        0.147      336.464        7.780      864.530
01/04/2022  12:19:00     -428.660      -91.609      -50.235      313.705      224.833      148.878    98410.845    50549.885    22164.678       18.286        8.556      438.340      152.103        0.120      336.450        7.755      864.563
01/04/2022  12:20:00     -580.911      -94.428      -34.079      298.173      226.411      152.056    88907.142    51261.972    23121.086       25.538        8.165      588.535      151.235        0.066      336.420        7.704      864.545
01/04/2022  12:21:00     -495.904       31.952       -9.143      371.122      191.431      140.948   137731.450    36645.799    19866.372       22.060        9.712      496.932      154.864        0.097      336.384        7.645      864.515
01/04/2022  12:22:00     -541.344      -48.935      -19.288      299.640      205.894      144.262    89784.007    42392.286    20811.477       22.438        7.649      543.551      141.418        0.068      336.355        7.596      864.496
01/04/2022  12:23:00     -358.361       29.940      -10.350      233.406      160.228      111.903    54478.213    25673.169    12522.209       11.103        4.634      359.609      118.334        0.108      336.364        7.612      864.531
01/04/2022  12:24:00     -388.227       27.529      -34.074      208.999      171.843       82.205    43680.618    29529.875     6757.736       11.629        3.998      389.202       64.773        0.028      336.391        7.657      864.548
01/04/2022  12:25:00     -528.885       81.560      -19.591      334.304      257.671      138.884   111759.480    66394.320    19288.867       24.206        9.872      535.136      123.745        0.053      336.416        7.697      864.582
01/04/2022  12:26:00     -469.615      -23.278      -26.273      313.501      166.917      131.150    98282.714    27861.178    17200.333       18.253        7.167      470.192      123.740        0.069      336.407        7.684      864.632
01/04/2022  12:27:00     -344.041        8.843       -7.337      184.697      172.900      103.605    34113.165    29894.566    10733.935        9.661        3.737      344.155       80.797        0.055      336.469        7.786      864.637
01/04/2022  12:28:00     -350.486       46.310        2.102      206.562      192.216      111.035    42667.713    36947.148    12328.837       10.845        4.597      353.533       98.132        0.077      336.460        7.772      864.784
01/04/2022  12:29:00     -440.357      -22.259      -14.633      246.055      170.325      112.091    60542.919    29010.629    12564.302       14.835        5.106      440.920      124.265        0.079      336.394        7.663      864.798
01/04/2022  12:30:00     -294.575      -40.979      -30.026      178.602      123.958       74.680    31898.784    15365.545     5577.125        7.109        2.642      297.411       59.388        0.040      336.409        7.688      864.771
01/04/2022  12:31:00     -303.684       23.204      -22.957      169.619      109.258       78.224    28770.762    11937.402     6118.970        7.005        2.341      304.569       70.433        0.053      336.403        7.678      864.790
01/04/2022  12:32:00     -425.464      104.225       -0.253      253.105      223.819      112.653    64061.918    50094.797    12690.696       15.934        6.342      438.044       97.917        0.050      336.366        7.616      864.717
01/04/2022  12:33:00     -318.655      -52.995       -5.679      277.598      202.301      126.759    77060.891    40925.660    16067.720       11.919        6.703      323.032      139.461        0.186      336.368        7.619      864.634
01/04/2022  12:34:00     -394.236      -42.125      -20.040      253.036      156.995       95.505    64027.017    24647.371     9121.217       12.768        4.890      396.480       98.734        0.062      336.308        7.519      864.604
01/04/2022  12:35:00     -215.328      -19.453      -11.844      164.816      104.389       77.739    27164.208    10897.159     6043.392        4.549        2.205      216.205       82.766        0.147      336.357        7.600      864.698
01/04/2022  12:36:00     -351.066      -38.031      -46.872      181.412      159.922       90.866    32910.445    25574.890     8256.543        9.680        3.337      353.120       63.244        0.032      336.353        7.594      864.716
01/04/2022  12:37:00     -350.986        3.701      -15.799      192.313      153.422       94.193    36984.415    23538.251     8872.386        9.641        3.470      351.006       89.807        0.065      336.395        7.661      864.720
01/04/2022  12:38:00     -423.914       53.435      -38.793      273.620      153.008       91.123    74867.683    23411.377     8303.486       14.530        5.329      427.269       82.603        0.037      336.406        7.682      864.687
01/04/2022  12:39:00     -169.181      -46.526      -14.568      189.854      143.519       71.348    36044.398    20597.684     5090.515        4.635        3.087      175.461       80.847        0.212      336.473        7.794      864.702
01/04/2022  12:40:00     -337.439      -94.783      -49.098      173.267      217.032       88.408    30021.558    47102.797     7816.010       10.508        4.247      350.498       82.237        0.055      336.485        7.814      864.651
01/04/2022  12:41:00     -105.622      -42.605        3.274       82.927      123.620       50.479     6876.867    15281.790     2548.081        1.884        1.235      113.892       42.290        0.138      336.539        7.908      864.660
01/04/2022  12:42:00     -307.248        4.616       -3.923      233.997      175.376      109.725    54754.570    30756.767    12039.595        9.598        4.878      307.282      100.922        0.108      336.492        7.827      864.655
01/04/2022  12:43:00     -366.502       36.906      -29.952      200.819      186.510       98.093    40328.415    34785.949     9622.316       11.064        4.237      368.355       64.045        0.030      336.492        7.827      864.591
01/04/2022  12:44:00     -554.499       -7.879      -40.729      262.815      190.982      119.766    69071.911    36473.983    14344.003       21.452        5.994      554.555       96.738        0.030      336.525        7.881      864.572
01/04/2022  12:45:00     -575.002     -118.081      -64.927      241.063      233.641      129.020    58111.517    54588.182    16646.249       23.904        6.467      587.001      127.151        0.047      336.535        7.898      864.540
01/04/2022  12:46:00     -517.723      -13.636      -22.510      294.028      176.994      138.636    86452.515    31326.852    19220.038       20.284        6.850      517.902      149.137        0.083      336.488        7.819      864.523
01/04/2022  12:47:00     -394.486      -50.227      -26.668      254.219      163.420      112.470    64627.538    26706.142    12649.451       13.140        5.199      397.671      125.609        0.100      336.552        7.928      864.509
01/04/2022  12:48:00     -391.699      -86.357      -40.053      188.394      137.022       65.747    35492.417    18775.074     4322.683       11.053        2.930      401.105       52.233        0.017      336.529        7.888      864.574
01/04/2022  12:49:00     -239.849      -10.724      -27.058      140.641      126.115       60.779    19779.912    15904.960     3694.088        4.887        1.969      240.088       49.434        0.042      336.571        7.962      864.578
01/04/2022  12:50:00     -182.851      -59.435      -28.091      104.279      141.706       51.708    10874.150    20080.659     2673.668        3.569        1.681      192.268       48.248        0.063      336.563        7.948      864.596
01/04/2022  12:51:00     -115.489       -8.707      -12.474      108.405      109.783       57.304    11751.566    12052.228     3283.716        2.032        1.354      115.817       44.843        0.150      336.620        8.045      864.619
01/04/2022  12:52:00      -78.515     -111.581      -29.547      148.418      102.136       57.513    22027.921    10431.744     3307.763        2.762        1.788      136.437       54.430        0.159      336.712        8.197      864.607
01/04/2022  12:53:00     -116.728     -126.794      -27.159      175.584      138.873       74.980    30829.674    19285.754     5621.936        4.308        2.787      172.343       42.899        0.062      336.717        8.203      864.602
01/04/2022  12:54:00     -151.468      -48.111      -20.045      116.500       69.264       47.096    13572.285     4797.558     2218.016        2.312        1.029      158.925       37.309        0.055      336.669        8.124      864.640
01/04/2022  12:55:00     -198.321      -95.259      -30.890      189.017      116.209       68.136    35727.261    13504.514     4642.532        5.161        2.694      220.012       56.579        0.066      336.632        8.063      864.690
01/04/2022  12:56:00     -175.165      -31.408      -16.315      122.027       83.668       55.564    14890.529     7000.392     3087.404        2.845        1.249      177.958       49.233        0.077      336.747        8.256      864.637
01/04/2022  12:57:00     -177.054      -56.123      -37.960      150.977      130.989       65.294    22794.006    17158.022     4263.273        4.007        2.211      185.736       51.978        0.078      336.799        8.340      864.635
01/04/2022  12:58:00     -138.883      -65.828      -25.813       91.255      143.530       65.885     8327.482    20600.721     4340.849        2.877        1.663      153.694       55.390        0.130      336.852        8.430      864.682
01/04/2022  12:59:00       49.253      -43.988      -32.086      103.779      109.591       60.382    10770.024    12010.098     3646.037        1.590        1.321       66.036       54.290        0.676      336.899        8.508      864.635
01/04/2022  13:00:00     -102.919       26.484       -0.890       79.501       50.225       48.407     6320.422     2522.516     2343.197        1.124        0.559      106.272       40.696        0.147      336.988        8.658      864.612
01/04/2022  13:01:00       30.314      -83.845      -34.354       72.392       68.283       27.921     5240.643     4662.598      779.600        0.990        0.534       89.156       27.812        0.097      337.081        8.814      864.621
01/04/2022  13:02:00     -122.886      -37.092       -7.841       95.370       69.923       55.713     9095.351     4889.168     3103.912        1.681        0.854      128.362       46.063        0.129      337.055        8.771      864.653
01/04/2022  13:03:00     -132.842      -43.872      -40.172       91.817       91.146       45.479     8430.364     8307.614     2068.351        1.999        0.940      139.899       29.448        0.044      336.755        8.269      864.570
01/04/2022  13:04:00     -341.045       76.410      -28.511      207.136      135.684       90.382    42905.176    18410.060     8168.854        9.621        3.474      349.499      105.590        0.091      336.787        8.320      864.508
01/04/2022  13:05:00     -253.053      -48.908      -24.512      134.723      147.659       73.675    18150.171    21803.160     5428.018        5.620        2.269      257.736       64.386        0.062      336.826        8.385      864.545
01/04/2022  13:06:00     -136.312       -0.211      -20.291       77.124       90.818       55.522     5948.084     8247.947     3082.745        1.813        0.864      136.312       46.255        0.115      336.834        8.399      864.610
01/04/2022  13:07:00      -58.092      -90.595      -10.920       65.644       80.341       45.558     4309.121     6454.684     2075.491        1.227        0.642      107.620       24.843        0.053      337.059        8.777      864.624
01/04/2022  13:08:00     -134.601      -83.891      -16.193       94.541      124.574       51.627     8937.996    15518.680     2665.347        2.626        1.356      158.604       35.644        0.051      336.977        8.639      864.636
01/04/2022  13:09:00     -225.315       -3.714      -10.470      146.361      103.605       61.451    21421.593    10733.927     3776.170        4.340        1.797      225.346       63.920        0.080      337.013        8.698      864.652
01/04/2022  13:10:00     -349.102       13.799      -16.746      222.950      149.925       81.590    49706.491    22477.626     6656.880       10.058        3.942      349.375       98.888        0.080      336.940        8.576      864.671
01/04/2022  13:11:00     -375.530      -46.019      -27.961      199.271      164.533       97.952    39708.959    27071.237     9594.638       11.013        3.819      378.339       93.852        0.062      336.917        8.537      864.662
01/04/2022  13:12:00     -116.340      -21.512      -16.595      137.172       87.801       62.174    18816.158     7709.044     3865.654        2.233        1.520      118.312       33.570        0.081      337.067        8.791      864.608
01/04/2022  13:13:00      -99.747      -31.860      -29.552       84.544       92.594       49.508     7147.606     8573.595     2451.003        1.500        0.909      104.712       45.234        0.187      337.171        8.964      864.605
01/04/2022  13:14:00     -134.513      105.948      -14.567      108.906       83.932       47.121    11860.456     7044.646     2220.356        2.532        1.056      171.227       28.778        0.028      337.212        9.033      864.621
01/04/2022  13:15:00     -178.792      -17.545      -23.536      110.999      105.581       48.832    12320.774    11147.320     2384.602        2.934        1.293      179.651       36.261        0.041      337.138        8.909      864.702
01/04/2022  13:16:00     -180.010      -22.913      -17.831      141.388       82.596       67.601    19990.557     6822.142     4569.858        3.231        1.569      181.463       64.780        0.127      337.115        8.869      864.743
01/04/2022  13:17:00       13.321      -78.502      -25.561       92.158      103.469       81.047     8493.042    10705.741     6568.544        1.638        1.288       79.625       36.949        0.215      337.284        9.153      864.744
01/04/2022  13:18:00      -86.251     -113.579      -20.131       83.276       75.330       56.154     6934.844     5674.583     3153.253        1.825        0.788      142.616       31.803        0.050      337.287        9.159      864.745
01/04/2022  13:19:00     -103.181     -115.334      -27.801      105.678      101.557       48.267    11167.779    10313.754     2329.708        2.426        1.191      154.752       48.427        0.098      337.194        9.002      864.775
01/04/2022  13:20:00       19.442      -48.050      -41.077       75.536       65.105       42.705     5705.734     4238.599     1823.734        0.807        0.588       51.834       38.393        0.549      337.294        9.173      864.760
01/04/2022  13:21:00     -150.504      -61.866       -4.754      137.103      114.760       60.016    18797.210    13169.751     3601.889        3.103        1.778      162.723       72.171        0.197      337.197        9.008      864.763
01/04/2022  13:22:00     -330.478      -63.152      -38.172      158.877      147.923       75.570    25241.766    21881.207     5710.812        8.374        2.642      336.458       50.970        0.023      337.124        8.883      864.779
01/04/2022  13:23:00     -253.616     -161.756      -25.459      140.882      160.775       56.868    19847.736    25848.451     3234.001        7.002        2.447      300.809       47.962        0.025      337.127        8.889      864.767
01/04/2022  13:24:00     -208.990      -64.718      -29.111      113.803      136.914       71.119    12951.140    18745.465     5057.861        4.273        1.838      218.782       51.272        0.055      337.129        8.892      864.737
01/04/2022  13:25:00     -187.534       48.335        3.462      149.557      106.101       71.540    22367.341    11257.466     5117.915        3.812        1.937      193.663       64.779        0.112      337.184        8.985      864.772
01/04/2022  13:26:00     -268.208       88.787       -8.865      147.702      125.384       69.818    21815.808    15721.142     4874.527        6.115        2.121      282.522       63.323        0.050      337.204        9.018      864.745
01/04/2022  13:27:00      -51.854       51.541        9.085       90.373      111.584       59.899     8167.223    12450.969     3587.891        1.481        1.210       73.111       29.340        0.161      337.221        9.048      864.702
01/04/2022  13:28:00     -259.344       55.708      -60.765      289.221      141.795      102.345    83648.979    20105.856    10474.578        9.412        5.711      265.260       17.204        0.004      337.097        8.839      864.649
01/04/2022  13:29:00     -571.057       -5.502      -34.988      254.341      169.265      124.355    64689.256    28650.693    15464.154       21.806        5.440      571.083      118.089        0.043      337.041        8.742      864.648
01/04/2022  13:30:00     -412.745       34.613       -6.071      242.551      192.261      110.100    58831.216    36964.295    12121.949       13.974        5.396      414.193      112.131        0.073      337.046        8.752      864.624
01/04/2022  13:31:00     -322.788      -36.073      -26.753      179.931      147.037       89.145    32374.988    21619.738     7946.749        8.406        3.097      324.797       88.620        0.074      337.124        8.883      864.642
01/04/2022  13:32:00     -247.763      -37.935       -9.614      163.458      115.469       84.130    26718.517    13333.089     7077.819        5.502        2.356      250.650       84.101        0.113      337.132        8.897      864.686
01/04/2022  13:33:00     -169.885       41.719       10.008      120.293      128.895       68.348    14470.480    16613.915     4671.432        3.322        1.788      174.933       68.605        0.154      337.187        8.992      864.689
01/04/2022  13:34:00     -267.418      -78.079      -23.156      196.069      142.516       79.179    38442.864    20310.723     6269.286        7.157        3.251      278.583       87.688        0.099      337.114        8.867      864.655
01/04/2022  13:35:00     -509.646       15.290      -24.020      243.608      166.978       91.693    59344.951    27881.716     8407.568       17.807        4.782      509.876       99.125        0.038      336.919        8.539      864.542
01/04/2022  13:36:00     -448.117       19.186      -28.768      198.075      162.807       90.284    39233.719    26506.046     8151.196       13.793        3.695      448.527       91.941        0.042      336.926        8.552      864.567
01/04/2022  13:37:00     -412.484        3.063      -23.732      210.394      182.071       97.189    44265.731    33149.720     9445.655       12.877        4.343      412.495       78.295        0.036      336.918        8.538      864.554
01/04/2022  13:38:00     -247.601      -81.536       -7.181      157.517      132.304       71.210    24811.708    17504.302     5070.829        5.769        2.369      260.681       77.919        0.089      337.003        8.682      864.588
01/04/2022  13:39:00     -291.649      -42.704      -34.863      161.785      119.421       78.470    26174.330    14261.487     6157.526        6.734        2.330      294.759       55.782        0.036      336.970        8.627      864.590
01/04/2022  13:40:00     -396.708      -65.288      -20.077      233.918      220.581      106.221    54717.529    48655.898    11282.927       13.833        5.733      402.044      100.619        0.063      336.982        8.646      864.621
01/04/2022  13:41:00     -474.557      -96.357      -34.135      289.910      201.845      103.643    84047.870    40741.340    10741.883       18.557        6.777      484.241      132.224        0.075      337.035        8.734      864.561
01/04/2022  13:42:00     -451.110      -99.202      -47.777      239.379      198.871      110.774    57302.198    39549.762    12270.899       16.235        5.456      461.889      104.837        0.052      336.987        8.654      864.533
01/04/2022  13:43:00     -239.122      -17.824      -10.305      161.402      138.171       83.544    26050.662    19091.274     6979.543        5.485        2.606      239.785       74.374        0.096      337.059        8.775      864.532
01/04/2022  13:44:00     -345.393      -26.453      -21.591      240.806      179.593      109.699    57987.723    32253.520    12033.906       11.135        5.114      346.404      123.350        0.127      337.042        8.745      864.470
01/04/2022  13:45:00     -328.441      -15.915       -9.217      188.894      152.466       81.667    35680.991    23245.854     6669.569        8.689        3.280      328.826       92.706        0.079      337.082        8.813      864.482
01/04/2022  13:46:00     -248.532      -98.713      -39.776      163.155      167.234       82.705    26619.397    27967.265     6840.095        6.725        3.071      267.419       65.811        0.061      337.120        8.876      864.484
01/04/2022  13:47:00     -385.096      -89.743      -27.809      284.831      196.561      121.182    81128.879    38636.047    14685.042       14.576        6.722      395.415      117.910        0.089      337.013        8.697      864.408
01/04/2022  13:48:00     -332.136     -141.299      -38.742      154.577      140.841       87.775    23894.098    19836.116     7704.409        9.160        2.572      360.943       74.029        0.042      337.051        8.759      864.428
01/04/2022  13:49:00     -169.182      -21.551        7.454      137.768      155.256       94.684    18980.155    24104.317     8965.002        4.059        2.602      170.549       71.572        0.176      337.200        9.011      864.412
01/04/2022  13:50:00     -283.713      -31.037       -6.939      226.099      127.925       79.023    51120.560    16364.784     6244.610        7.760        3.686      285.406       73.643        0.067      337.143        8.914      864.391
01/04/2022  13:51:00     -115.680      -13.745       19.064      143.907      116.546       82.583    20709.274    13582.976     6819.986        2.752        2.056      116.493       89.446        0.590      337.224        9.051      864.404
01/04/2022  13:52:00     -271.015      -79.035      -20.683      156.428      150.124       89.739    24469.852    22537.287     8053.057        6.758        2.753      282.304       77.972        0.076      337.108        8.857      864.365
01/04/2022  13:53:00     -235.541       -7.820       -6.277      191.290      187.888       84.086    36592.044    35301.764     7070.393        6.726        3.948      235.671       89.995        0.146      337.190        8.995      864.343
01/04/2022  13:54:00     -211.674     -134.894       12.767      216.219      192.193      117.266    46750.473    36938.293    13751.372        8.028        4.872      251.003      109.772        0.191      337.162        8.948      864.252
01/04/2022  13:55:00     -407.817      -26.497      -37.038      241.738      212.302      101.493    58437.157    45072.095    10300.916       14.108        5.691      408.677      101.073        0.061      337.033        8.731      864.224
01/04/2022  13:56:00     -423.834      -36.586      -38.325      227.214      208.396      104.372    51626.061    43429.048    10893.545       14.418        5.297      425.411       85.772        0.041      337.111        8.860      864.232
01/04/2022  13:57:00     -495.785       59.423      -22.464      264.271      192.680      108.382    69839.277    37125.469    11746.675       18.425        5.936      499.333      132.683        0.071      337.219        9.042      864.219
01/04/2022  13:58:00     -345.942      -37.194      -28.771      233.169      142.136       98.309    54367.720    20202.641     9664.565       10.305        4.212      347.935       99.087        0.081      337.209        9.026      864.243
01/04/2022  13:59:00     -378.770      -19.049      -31.121      212.297      170.253      103.863    45070.041    28986.192    10787.524       11.481        4.242      379.248      100.313        0.070      337.170        8.961      864.210
01/04/2022  14:00:00     -539.377      -20.827      -16.196      299.099      197.625      110.089    89460.327    39055.810    12119.636       21.610        7.032      539.779      104.969        0.038      337.213        9.032      864.183
01/04/2022  14:01:00     -312.453      -60.580      -21.068      161.084      185.748       85.386    25948.079    34502.335     7290.756        8.473        3.387      318.271       86.473        0.074      337.284        9.151      864.235
01/04/2022  14:02:00     -294.551        5.072      -28.101      160.355      186.227       81.025    25713.649    34680.356     6565.075        7.726        3.348      294.594       77.623        0.069      337.226        9.053      864.259
01/04/2022  14:03:00     -358.018       20.905      -10.894      182.167      152.005       89.793    33184.944    23105.605     8062.757        9.653        3.218      358.628       75.083        0.044      337.177        8.971      864.275
01/04/2022  14:04:00     -243.023      -11.786      -11.064      197.234      177.786      103.156    38901.055    31607.727    10641.241        7.022        4.058      243.309       94.017        0.149      337.167        8.958      864.284
01/04/2022  14:05:00     -529.195      -32.374      -27.519      261.608      162.357      122.656    68438.698    26359.670    15044.534       19.583        5.492      530.185      121.819        0.053      337.060        8.774      864.292
01/04/2022  14:06:00     -347.154      -26.799      -23.266      200.814      105.087       78.486    40326.389    11043.307     6160.015        8.964        2.876      348.187       85.672        0.061      337.157        8.939      864.342
01/04/2022  14:07:00     -278.189      -10.578      -28.572      168.122      136.914       76.179    28264.957    18745.329     5803.187        6.556        2.641      278.390       76.138        0.075      337.189        8.991      864.409
01/04/2022  14:08:00     -246.193       25.327        1.617      195.958      109.630       68.929    38399.534    12018.789     4751.198        5.820        2.758      247.492       87.472        0.125      337.295        9.170      864.496
01/04/2022  14:09:00     -185.353        5.933       -0.301      148.443      140.938       87.921    22035.178    19863.564     7730.135        4.200        2.481      185.448       77.818        0.176      337.356        9.272      864.463
01/04/2022  14:10:00     -244.008      -27.032      -33.252      171.358      163.101       76.798    29363.679    26601.829     5897.860        6.161        3.093      245.501       72.948        0.088      337.235        9.070      864.512
01/04/2022  14:11:00     -305.385       82.062      -14.930      190.293      158.945       85.288    36211.483    25263.663     7273.971        8.447        3.437      316.219       81.392        0.066      337.192        8.997      864.599
01/04/2022  14:12:00     -276.782       -9.328       -1.480      140.625      120.995       70.840    19775.292    14639.883     5018.353        5.806        1.972      276.939       55.589        0.040      337.021        8.711      864.608
01/04/2022  14:13:00     -172.892      -25.351      -13.589      160.838       91.598       82.247    25868.758     8390.217     6764.522        3.586        2.051      174.740       73.077        0.175      337.119        8.876      864.654
01/04/2022  14:14:00     -141.293       22.927      -38.707       80.173       56.127       42.612     6427.763     3150.267     1815.805        1.669        0.570      143.141       28.712        0.040      337.175        8.972      864.722
01/04/2022  14:15:00     -253.230      102.639      -29.603      134.213       87.611       58.573    18013.229     7675.770     3430.797        5.232        1.456      273.240       55.562        0.041      337.398        9.342      864.741
01/04/2022  14:16:00     -312.526       72.569      -15.174      189.034      128.474       85.952    35733.876    16505.542     7387.799        8.139        2.981      320.840       86.242        0.072      337.252        9.097      864.732
01/04/2022  14:17:00      -56.677        1.170       -9.775       96.485       88.517       54.554     9309.384     7835.278     2976.155        1.171        1.006       56.689       42.102        0.552      337.413        9.370      864.765
01/04/2022  14:18:00     -187.931       70.243      -24.931      122.794      173.878       61.277    15078.354    30233.635     3754.842        4.496        2.453      200.629       61.464        0.094      337.317        9.206      864.732
01/04/2022  14:19:00     -117.219       44.102       -8.675      126.266       61.370       47.544    15943.075     3766.329     2260.456        1.886        1.098      125.241       36.183        0.083      337.733        9.905      864.744
01/04/2022  14:20:00      -70.480       34.242      -15.303      151.950       95.902       51.105    23088.674     9197.115     2611.701        2.063        1.745       78.358       35.714        0.208      337.397        9.343      864.780
01/04/2022  14:21:00     -183.538      -20.947      -29.411      152.668      100.561       57.520    23307.481    10112.526     3308.538        3.585        1.836      184.729       72.442        0.154      337.532        9.568      864.829
01/04/2022  14:22:00     -442.945       79.551      -20.493      221.141      215.564      110.738    48903.434    46467.850    12262.965       15.527        5.382      450.031      107.972        0.058      337.136        8.905      864.817
01/04/2022  14:23:00     -499.388      -34.572      -35.116      233.332      133.093      101.105    54443.926    17713.707    10222.247       16.708        4.119      500.584       94.531        0.036      337.121        8.878      864.748
01/04/2022  14:24:00     -281.666      -17.113      -20.689      159.612      111.416       77.892    25476.068    12413.535     6067.183        6.200        2.198      282.186       73.163        0.067      337.276        9.138      864.808
01/04/2022  14:25:00      -49.444      -35.064      -23.836      133.308       83.904       57.054    17770.931     7039.863     3255.163        1.615        1.403       60.615       43.899        0.524      337.461        9.450      864.779
01/04/2022  14:26:00     -518.782      140.690      -21.272      276.248      157.583      115.423    76313.136    24832.546    13322.458       20.190        5.723      537.520      103.318        0.037      337.208        9.024      864.782
01/04/2022  14:27:00     -265.704      -52.018       -6.400      251.973      159.091       97.957    63490.632    25310.055     9595.526        8.585        4.920      270.748       93.568        0.119      337.212        9.030      864.787
01/04/2022  14:28:00     -387.539       84.738      -25.868      315.601      224.235      118.792    99604.259    50281.545    14111.449       16.099        8.200      396.695       38.316        0.009      337.093        8.832      864.733
01/04/2022  14:29:00     -303.580       42.684       15.871      225.453      161.241      111.389    50829.065    25998.596    12407.608        9.172        4.462      306.566      107.871        0.124      337.297        9.174      864.717
01/04/2022  14:30:00     -368.566      -11.589      -30.718      291.865      160.475      103.484    85185.436    25752.200    10708.915       12.926        6.082      368.748      128.628        0.122      337.128        8.891      864.674
01/04/2022  14:31:00     -306.164      -33.315      -33.295      190.965      152.371       83.864    36467.677    23217.052     7033.184        8.132        3.336      307.971       94.510        0.094      337.195        9.003      864.669
01/04/2022  14:32:00     -232.952       36.117      -23.230      218.959      157.564      109.000    47943.148    24826.413    11880.920        7.037        4.233      235.735      118.743        0.254      337.212        9.032      864.650
01/04/2022  14:33:00     -416.230       -9.598      -24.610      206.755      119.896       93.633    42747.537    14375.108     8767.213       11.991        3.294      416.341       98.155        0.056      337.098        8.840      864.670
01/04/2022  14:34:00     -356.261      -19.584      -14.668      198.488      145.652       96.212    39397.415    21214.509     9256.755        9.868        3.493      356.799      100.520        0.079      337.166        8.953      864.607
01/04/2022  14:35:00     -186.923      105.197      -20.246      164.576      139.491       66.429    27085.099    19457.718     4412.801        4.868        2.548      214.492       70.656        0.109      337.358        9.276      864.619
01/04/2022  14:36:00     -189.267      -51.617       -5.476      122.611      125.992       68.813    15033.352    15874.106     4735.203        3.707        1.782      196.179       61.326        0.098      337.140        8.910      864.579
01/04/2022  14:37:00     -285.241      -40.311      -13.257      146.756      110.509       79.704    21537.308    12212.157     6352.769        6.163        2.005      288.075       66.897        0.054      337.127        8.890      864.548
01/04/2022  14:38:00     -238.791        2.803      -21.279      265.172      106.283       93.081    70316.329    11296.016     8664.053        7.386        4.514      238.808      102.137        0.183      337.138        8.907      864.542
01/04/2022  14:39:00     -376.774       86.532      -29.121      142.894      122.580       77.165    20418.803    15025.803     5954.367        9.584        2.070      386.583       58.543        0.023      337.068        8.788      864.584
01/04/2022  14:40:00     -391.611      -97.046      -28.223      177.945      120.264       90.827    31664.378    14463.379     8249.607       10.897        2.719      403.456       93.676        0.054      337.032        8.729      864.596
01/04/2022  14:41:00     -125.032       51.504      -15.689       92.411      125.343       61.290     8539.875    15710.769     3756.406        2.326        1.400      135.224       49.483        0.134      337.296        9.172      864.682
01/04/2022  14:42:00     -116.367       27.073      -44.418      164.094       99.718       65.267    26926.685     9943.607     4259.777        2.868        2.057      119.475       40.238        0.113      337.134        8.902      864.689
01/04/2022  14:43:00      -72.197      -48.437      -18.790       97.943       54.750       49.625     9592.863     2997.554     2462.596        1.148        0.753       86.940       33.696        0.150      337.305        9.191      864.731
01/04/2022  14:44:00     -434.117      -29.719      -26.120      264.589      176.815       97.742    70007.175    31263.430     9553.567       15.040        5.541      435.133       89.138        0.042      336.947        8.588      864.740
01/04/2022  14:45:00     -378.202       63.038      -27.077      140.301      138.642       85.874    19684.305    19221.576     7374.359        9.700        2.314      383.419       28.050        0.005      336.971        8.626      864.714
01/04/2022  14:46:00     -326.344      -72.736      -30.715      193.970      193.740       89.846    37624.456    37535.139     8072.224        9.797        4.162      334.352       95.580        0.082      336.938        8.572      864.672
01/04/2022  14:47:00     -257.353       81.383      -10.039      200.008      116.572       74.854    40003.230    13589.071     5603.147        6.606        2.960      269.915       67.398        0.062      337.045        8.752      864.684
01/04/2022  14:48:00     -175.342       67.784       -0.450      113.558      106.729       54.765    12895.449    11390.987     2999.192        3.131        1.364      187.988       55.179        0.086      337.241        9.080      864.712
01/04/2022  14:49:00     -136.306      -44.905      -19.049       99.634      120.162       63.004     9926.916    14438.938     3969.480        2.464        1.417      143.512       50.878        0.126      337.104        8.851      864.711
01/04/2022  14:50:00     -118.726       65.978      -14.412      133.728       97.153       58.019    17883.226     9438.640     3366.171        2.467        1.534      135.827       59.943        0.195      337.474        9.472      864.717
01/04/2022  14:51:00     -226.404       78.941       -8.338      143.825       69.858       59.477    20685.701     4880.150     3537.527        4.333        1.455      239.772       60.188        0.063      337.246        9.089      864.754
01/04/2022  14:52:00     -106.739       62.184       -9.867       61.257       60.951       44.502     3752.369     3715.045     1980.459        1.240        0.472      123.531       25.781        0.044      337.301        9.181      864.769
01/04/2022  14:53:00        9.203       66.875      -18.427      123.368       34.706       26.209    15219.677     1204.491      686.893        1.100        0.856       67.505       24.825        0.135      337.238        9.078      864.803
01/04/2022  14:54:00       31.472       72.501       -3.836       64.034       36.504       30.865     4100.413     1332.554      952.639        0.632        0.319       79.037       13.258        0.028      337.400        9.347      864.853
01/04/2022  14:55:00      -39.341      -17.660      -10.484       43.916       35.261       30.969     1928.652     1243.355      959.060        0.305        0.207       43.124       28.824        0.447      337.659        9.782      864.889
01/04/2022  14:56:00       68.185      123.890      -13.487       88.201       82.799       43.478     7779.411     6855.609     1890.374        1.835        0.826      141.415       40.776        0.083      337.266        9.123      864.868
01/04/2022  14:57:00      -99.936      -17.446        8.243      143.088       79.294       63.722    20474.257     6287.608     4060.465        2.059        1.541      101.448       60.669        0.358      337.526        9.558      864.842
01/04/2022  14:58:00      -97.675       42.145       -5.859      131.894      103.311       75.536    17395.945    10673.201     5705.655        2.256        1.689      106.380       64.820        0.371      337.479        9.480      864.913
01/04/2022  14:59:00        6.249      -16.836      -26.243       90.438      121.077       58.442     8178.967    14659.556     3415.457        1.363        1.313       17.958       45.179        6.329      337.373        9.303      864.914
01/04/2022  15:00:00      -68.763      -14.408       -5.217       70.676       77.781       55.153     4995.073     6049.944     3041.842        0.952        0.704       70.256       39.918        0.323      337.569        9.631      864.929
01/04/2022  15:01:00      -13.035       68.838      -16.256       77.861       78.455       44.402     6062.397     6155.131     1971.548        0.968        0.709       70.061       35.157        0.252      337.434        9.406      864.937
01/04/2022  15:02:00      -24.736        9.541      -12.029      108.082       65.723       39.199    11681.627     4319.557     1536.536        0.919        0.877       26.512       30.810        1.350      337.515        9.541      864.962
01/04/2022  15:03:00     -135.785       11.060      -29.715      192.935       78.524       59.772    37223.743     6165.960     3572.671        3.319        2.348      136.234       69.811        0.263      337.491        9.499      864.967
01/04/2022  15:04:00     -410.703       60.783      -57.483      211.976      146.418       90.868    44934.017    21438.085     8257.002       12.514        3.731      415.177       54.419        0.017      337.105        8.852      864.985
01/04/2022  15:05:00     -249.699      139.006      -16.306      246.065      149.278       87.694    60547.960    22283.844     7690.245        8.621        4.526      285.784       51.453        0.032      337.212        9.031      864.987
01/04/2022  15:06:00     -322.314       73.273      -11.301      183.733      129.822       86.737    33757.783    16853.709     7523.294        8.375        2.907      330.538       43.228        0.017      337.210        9.029      864.958
01/04/2022  15:07:00     -276.548       36.102        1.515      134.183      108.883       68.789    18005.039    11855.445     4731.956        5.618        1.730      278.895       62.455        0.050      337.128        8.890      865.026
01/04/2022  15:08:00     -144.209       86.958      -10.648       82.641       93.444       55.389     6829.603     8731.805     3067.953        2.355        0.931      168.399       49.036        0.085      337.367        9.290      865.031
01/04/2022  15:09:00     -235.593       79.125       -1.120      137.058       86.391       70.283    18784.968     7463.333     4939.735        4.647        1.559      248.526       70.514        0.081      337.358        9.276      865.047
01/04/2022  15:10:00     -248.631       26.258      -24.070      196.547      126.431       74.620    38630.907    15984.918     5568.134        6.162        3.009      250.014       61.640        0.061      337.162        8.948      865.038
01/04/2022  15:11:00     -195.409      -20.883      -17.029      121.286       84.045       60.809    14710.371     7063.514     3697.765        3.219        1.274      196.521       67.297        0.117      337.133        8.899      865.019
01/04/2022  15:12:00     -304.433       35.567       -6.202      158.386      100.897       69.293    25086.181    10180.267     4801.544        6.702        2.003      306.503       70.015        0.052      337.128        8.892      865.057
01/04/2022  15:13:00     -212.752       29.244      -12.433      130.143      107.928       69.484    16937.246    11648.428     4827.970        3.984        1.671      214.752       66.639        0.096      337.097        8.840      865.023
01/04/2022  15:14:00     -110.175        7.310       -5.781       97.572       98.675       54.051     9520.334     9736.779     2921.546        1.720        1.109      110.417       54.365        0.242      337.324        9.220      865.032
01/04/2022  15:15:00     -185.723        6.774       -9.242      194.036       77.043       62.026    37649.838     5935.641     3847.226        4.102        2.372      185.847       69.964        0.142      337.154        8.934      865.064
01/04/2022  15:16:00      -48.127       57.720       -8.548       71.739       85.805       42.178     5146.463     7362.467     1778.958        1.000        0.714       75.152       18.954        0.064      337.252        9.101      865.053
01/04/2022  15:17:00      -91.276      104.669        0.456      108.079       60.034       55.376    11681.022     3604.060     3066.545        1.882        0.918      138.878       51.207        0.136      337.275        9.138      865.045
01/04/2022  15:18:00      -86.487       63.709       -9.093      100.673       68.894       53.776    10135.047     4746.431     2891.877        1.469        0.889      107.419       37.335        0.121      337.593        9.670      865.084
01/04/2022  15:19:00     -346.471      115.582        9.523      171.271      104.037       80.892    29333.788    10823.616     6543.569        9.009        2.335      365.241       81.766        0.050      337.170        8.962      865.151
01/04/2022  15:20:00     -290.211       29.445       -1.313      183.537      101.567       74.552    33685.946    10315.778     5558.044        6.732        2.478      291.701       56.931        0.038      337.014        8.700      865.178
01/04/2022  15:21:00     -244.120       91.499       -1.978      131.617      107.233       67.757    17323.089    11498.824     4590.969        5.069        1.671      260.703       64.268        0.061      337.189        8.991      865.211
01/04/2022  15:22:00     -299.398      123.772      -38.026      153.899      107.984       75.560    23684.808    11660.452     5709.248        7.372        2.053      323.973       39.176        0.015      337.037        8.737      865.263
01/04/2022  15:23:00     -298.480      142.998      -26.020      171.773      146.061       83.345    29505.889    21333.926     6946.357        8.399        2.889      330.966       82.346        0.062      337.045        8.752      865.307
01/04/2022  15:24:00     -426.457       52.909       -8.245      242.665      149.601      106.832    58886.172    22380.459    11413.058       13.869        4.634      429.727       93.416        0.047      336.899        8.508      865.307
01/04/2022  15:25:00     -340.748       61.921      -21.406      128.648      102.942       74.506    16550.359    10597.158     5551.181        7.654        1.635      346.329       54.638        0.025      336.914        8.531      865.340
01/04/2022  15:26:00     -236.597      117.606      -15.569      215.429      142.113       91.312    46409.448    20196.234     8337.857        7.248        3.747      264.215       96.705        0.134      337.001        8.679      865.389
01/04/2022  15:27:00     -335.544       43.581      -39.639      207.939      173.418       90.864    43238.445    30073.871     8256.192        9.880        4.078      338.362       63.138        0.035      336.904        8.514      865.397
01/04/2022  15:28:00     -209.204      161.260      -43.901      159.194      210.239       80.586    25342.844    44200.387     6494.043        7.385        3.802      264.142       66.866        0.064      336.907        8.521      865.364
01/04/2022  15:29:00      -53.515        9.323      -26.564      172.983      103.663       87.047    29923.089    10745.916     7577.106        2.594        2.412       54.321       57.924        1.137      336.933        8.567      865.322
01/04/2022  15:30:00     -362.838      148.206      -51.628      156.751      133.837       80.977    24570.946    17912.276     6557.287       10.265        2.452      391.939       75.432        0.037      336.787        8.321      865.332
01/04/2022  15:31:00     -220.011      138.134      -41.553      149.954      148.793       72.407    22486.057    22139.254     5242.745        5.953        2.493      259.780       51.107        0.039      336.854        8.431      865.325
01/04/2022  15:32:00     -105.299      115.514      -30.584       92.186       86.156       65.673     8498.196     7422.862     4312.918        2.280        1.012      156.306       53.179        0.116      337.074        8.800      865.309
01/04/2022  15:33:00     -155.846      111.962      -52.258      154.606      101.628       91.175    23903.074    10328.172     8312.833        4.104        2.127      191.894       88.181        0.211      337.113        8.865      865.302
01/04/2022  15:34:00      -52.144       27.380      -19.482      152.624      129.471       81.101    23294.217    16762.778     6577.428        2.523        2.332       58.895       72.081        1.498      336.888        8.490      865.296
01/04/2022  15:35:00      -71.173       27.910      -28.125      116.300      129.430       53.594    13525.673    16752.098     2872.345        1.989        1.658       76.450       49.345        0.417      336.851        8.430      865.279
01/04/2022  15:36:00     -293.111      110.280      -21.032      213.353      133.857       89.659    45519.311    17917.708     8038.660        8.498        3.574      313.171       91.588        0.086      336.927        8.555      865.254
01/04/2022  15:37:00     -395.680      206.144      -38.393      196.644      187.486      113.884    38668.763    35151.047    12969.562       14.364        4.339      446.159       90.166        0.041      336.937        8.570      865.230
01/04/2022  15:38:00     -237.350       35.769       -1.124      209.563      106.042       84.294    43916.709    11244.835     7105.522        5.993        3.113      240.030       72.312        0.091      336.921        8.545      865.254
01/04/2022  15:39:00     -186.149       36.004      -15.231      185.663      108.485       91.688    34470.868    11768.919     8406.704        4.540        2.732      189.599       71.023        0.140      336.878        8.473      865.264
01/04/2022  15:40:00     -231.412       40.445      -12.635      206.305       96.277       63.368    42561.560     9269.175     4015.467        5.559        2.792      234.920       64.840        0.076      336.835        8.401      865.245
01/04/2022  15:41:00     -128.286       20.265       -5.373      143.427       95.215       74.043    20571.190     9065.920     5482.424        2.600        1.756      129.877       69.236        0.284      336.859        8.441      865.253
01/04/2022  15:42:00      -89.478       47.416        8.023      158.897       91.163       70.180    25248.202     8310.691     4925.298        2.439        1.924      101.265       73.794        0.531      336.924        8.549      865.280
01/04/2022  15:43:00     -264.503       63.362       -4.887      155.108      109.604       70.231    24058.441    12013.101     4932.446        5.749        2.050      271.987       53.480        0.039      336.865        8.450      865.316
01/04/2022  15:44:00     -133.662       16.948      -35.322      193.380      120.491       90.666    37395.895    14517.984     8220.302        3.976        3.007      134.732       75.354        0.313      336.866        8.453      865.300
01/04/2022  15:45:00     -106.648       86.358      -20.563      186.201       82.196       45.180    34670.830     6756.170     2041.269        3.135        2.173      137.228       55.921        0.166      336.940        8.576      865.302
01/04/2022  15:46:00     -185.450       60.106       -5.686      175.499       97.876       71.761    30799.902     9579.630     5149.628        4.177        2.276      194.947       46.562        0.057      336.889        8.492      865.286
01/04/2022  15:47:00     -241.523       21.550      -15.622      169.900      111.675       91.026    28866.083    12471.332     8285.709        5.432        2.481      242.483       83.828        0.120      336.822        8.379      865.276
01/04/2022  15:48:00     -207.749       48.684        5.946      204.948      102.569       70.151    42003.579    10520.461     4921.186        5.149        2.872      213.378       80.723        0.143      336.858        8.439      865.298
01/04/2022  15:49:00     -304.556       39.065      -26.068      184.105      108.704       79.017    33894.735    11816.587     6243.686        7.345        2.598      307.051       76.182        0.062      336.785        8.315      865.374
01/04/2022  15:50:00     -157.424       26.538      -10.326      194.104      129.512       67.203    37676.275    16773.343     4516.176        4.227        2.948      159.645       74.347        0.217      336.787        8.323      865.351
01/04/2022  15:51:00     -196.842       40.271      -20.423      168.603      113.644       71.240    28426.973    12915.014     5075.137        4.359        2.321      200.919       58.935        0.086      336.906        8.519      865.359
01/04/2022  15:52:00     -348.675      109.740       14.960      218.136      154.145       98.485    47583.479    23760.816     9699.318       10.743        4.052      365.537       92.187        0.064      336.865        8.451      865.422
01/04/2022  15:53:00     -312.851       37.972        1.833      223.317      144.775       92.406    49870.490    20959.695     8538.843        8.933        3.968      315.147       72.628        0.053      336.748        8.255      865.394
01/04/2022  15:54:00     -358.692      130.375      -41.300      129.605      119.827       70.271    16797.394    14358.574     4937.967        9.172        1.805      381.651       47.926        0.016      336.784        8.315      865.400
01/04/2022  15:55:00     -208.877      116.006      -30.700      119.193      115.538       61.018    14206.941    13349.036     3723.151        4.465        1.564      238.929       64.009        0.072      336.872        8.462      865.378
01/04/2022  15:56:00     -127.397       88.630      -47.381      111.276      131.209       62.624    12382.400    17215.841     3921.708        2.992        1.676      155.195       43.225        0.078      336.850        8.425      865.409
01/04/2022  15:57:00     -216.457       91.352      -16.231      231.868      128.931       65.677    53762.974    16623.279     4313.476        6.507        3.735      234.944       47.355        0.041      336.791        8.327      865.432
01/04/2022  15:58:00     -259.457       59.758       -8.363      202.551      104.055       90.146    41026.725    10827.539     8126.287        6.546        2.999      266.250       47.670        0.032      336.759        8.274      865.465
01/04/2022  15:59:00      -21.745        1.039       -7.700       93.383       94.993       69.013     8720.409     9023.627     4762.730        1.152        1.125       21.770       50.135        5.304      336.736        8.236      865.458
01/04/2022  16:00:00      -20.442       -6.244        2.321       70.767       59.607       47.503     5007.960     3552.959     2256.543        0.564        0.541       21.375       24.784        1.344      336.748        8.258      865.441
01/04/2022  16:01:00      -43.485       80.211      -15.608       55.932       35.034       32.474     3128.382     1227.388     1054.586        0.699        0.271       91.241       30.302        0.110      336.759        8.278      865.448
01/04/2022  16:02:00      -79.081      102.756      -30.113       54.278       51.247       48.900     2946.131     2626.296     2391.251        1.284        0.398      129.663       26.423        0.042      336.934        8.568      865.475
01/04/2022  16:03:00      -94.427      146.358      -34.605       77.665       97.692       50.623     6031.778     9543.726     2562.738        2.483        0.907      174.176       30.628        0.031      336.766        8.288      865.489
01/04/2022  16:04:00      -79.920        2.837        0.444      144.891       66.024       50.969    20993.511     4359.107     2597.847        1.717        1.398       79.971       70.646        0.780      336.786        8.320      865.503
01/04/2022  16:05:00      -62.407       45.715      -19.826       80.322       70.595       58.976     6451.664     4983.632     3478.195        1.064        0.746       77.360       40.006        0.267      336.924        8.552      865.511
01/04/2022  16:06:00      -94.401      169.895      -34.831       89.607      123.139       53.419     8029.327    15163.296     2853.596        3.251        1.302      194.360       41.422        0.045      336.797        8.338      865.557
01/04/2022  16:07:00     -108.626      114.762      -23.226      113.162       95.887       46.605    12805.618     9194.318     2171.987        2.484        1.209      158.018       30.786        0.038      336.714        8.199      865.550
01/04/2022  16:08:00      -61.035      121.893      -12.784       91.020      125.292       48.131     8284.718    15698.011     2316.583        2.252        1.315      136.320       48.663        0.127      336.616        8.036      865.565
01/04/2022  16:09:00      -75.674      208.630      -17.047       88.779       74.459       35.885     7881.741     5544.090     1287.730        3.213        0.736      221.930       29.462        0.018      336.596        8.003      865.512
01/04/2022  16:10:00     -100.889       91.611      -30.202       91.566      105.082       55.340     8384.387    11042.128     3062.492        2.098        1.124      136.276       49.753        0.133      336.642        8.081      865.513
01/04/2022  16:11:00      -85.402       44.298      -10.479      102.570      106.905       56.701    10520.681    11428.676     3215.002        1.726        1.258       96.208       49.959        0.270      336.701        8.179      865.521
01/04/2022  16:12:00     -391.657      141.922      -36.356      201.300      130.563       90.917    40521.597    17046.576     8265.887       12.033        3.292      416.578       89.597        0.046      336.660        8.108      865.503
01/04/2022  16:13:00     -117.737       87.253       15.430      137.675      100.679       72.649    18954.339    10136.176     5277.844        2.803        1.718      146.544       63.609        0.188      336.793        8.331      865.495
01/04/2022  16:14:00      -30.089       14.949        1.440       85.072       99.850       59.270     7237.313     9969.971     3512.927        1.092        1.036       33.598       45.870        1.864      336.694        8.168      865.544
01/04/2022  16:15:00     -280.306       58.522       -7.233      140.168      109.605       69.922    19647.050    12013.256     4889.058        5.929        1.827      286.350       61.336        0.046      336.579        7.976      865.532
01/04/2022  16:16:00     -291.187      154.602       -6.251      144.491      102.463       68.541    20877.699    10498.719     4697.806        7.240        1.804      329.685       73.671        0.050      336.592        7.995      865.493
01/04/2022  16:17:00     -265.365       99.346      -28.870      104.056       92.581       48.364    10827.657     8571.183     2339.123        5.143        1.087      283.352       39.428        0.019      336.590        7.992      865.480
01/04/2022  16:18:00     -347.111       96.135      -26.216      130.562      110.183       64.170    17046.435    12140.389     4117.818        8.185        1.665      360.177       41.006        0.013      336.577        7.971      865.471
01/04/2022  16:19:00     -135.545       37.441       -3.966      125.288      100.617       76.042    15697.190    10123.814     5782.322        2.569        1.580      140.621       46.958        0.112      336.718        8.208      865.463
01/04/2022  16:20:00      -16.583       32.264        7.418      171.129      105.164       87.688    29285.036    11059.486     7689.205        2.469        2.402       36.276       55.532        2.343      336.578        7.973      865.488
01/04/2022  16:21:00     -243.679       12.390       24.132      324.169      206.072      148.304   105085.451    42465.815    21994.042       11.480        8.477      243.993      131.283        0.290      336.527        7.887      865.498
01/04/2022  16:22:00     -228.231       52.007      -15.667      252.877      114.704       74.259    63946.572    13157.008     5514.416        6.881        4.131      234.081       41.245        0.031      336.523        7.881      865.536
01/04/2022  16:23:00     -314.376      125.259      -24.115      173.458      164.419       89.732    30087.509    27033.653     8051.883        9.013        3.259      338.411       67.726        0.040      336.575        7.966      865.539
01/04/2022  16:24:00     -382.439      133.479      -36.775      248.114      165.852      109.209    61560.634    27506.801    11926.533       13.319        5.050      405.064       82.700        0.042      336.540        7.909      865.541
01/04/2022  16:25:00     -375.447       79.170      -16.146      182.470      145.832       87.366    33295.424    21267.017     7632.759       10.483        3.110      383.704       76.354        0.040      336.549        7.924      865.563
01/04/2022  16:26:00     -340.817      122.788      -30.134      175.650      129.780       77.404    30853.077    16842.857     5991.404        9.290        2.684      362.261       62.514        0.030      336.533        7.895      865.570
01/04/2022  16:27:00     -326.607       97.096      -46.062      139.369      135.547       77.493    19423.633    18372.937     6005.121        8.100        2.190      340.735       55.152        0.026      336.533        7.894      865.555
01/04/2022  16:28:00     -369.828      143.490       -4.387      192.325      160.456       98.335    36989.035    25746.131     9669.703       11.488        3.620      396.689       99.718        0.063      336.502        7.843      865.544
01/04/2022  16:29:00     -303.444      124.218        2.681      217.406      130.299       82.394    47265.422    16977.901     6788.803        8.926        3.552      327.885       75.188        0.053      336.529        7.889      865.569
01/04/2022  16:30:00     -294.286       99.537        5.891      206.907      150.964       97.417    42810.380    22790.228     9490.050        8.580        3.755      310.664       87.952        0.080      336.489        7.822      865.595
01/04/2022  16:31:00     -401.651       49.894       -1.653      229.888      144.275      114.315    52848.649    20815.385    13067.907       12.526        4.337      404.738      102.112        0.064      336.496        7.833      865.564
01/04/2022  16:32:00     -407.108      117.146      -38.195       98.306      104.048       61.708     9663.973    10825.905     3807.857       10.260        1.215      423.627       43.621        0.011      336.485        7.814      865.531
01/04/2022  16:33:00     -455.285      109.269      -23.105      186.704      146.704       85.182    34858.215    21522.183     7255.955       14.169        3.182      468.214       89.149        0.036      336.446        7.747      865.529
01/04/2022  16:34:00     -210.679      107.501      -14.434      267.439      138.591       83.649    71523.665    19207.600     6997.122        7.692        4.886      236.521       71.111        0.090      336.480        7.807      865.529
01/04/2022  16:35:00     -494.236      115.828        4.140      236.209      180.878      120.191    55794.720    32716.712    14445.836       18.031        5.148      507.627      117.050        0.053      336.485        7.814      865.507
01/04/2022  16:36:00     -261.363       59.999      -29.253      202.519      126.335       72.414    41014.072    15960.542     5243.782        6.748        3.111      268.162       56.826        0.045      336.469        7.788      865.528
01/04/2022  16:37:00     -174.024      114.750       -2.119      153.599      131.278       81.800    23592.585    17233.820     6691.316        4.548        2.376      208.451       76.651        0.135      336.471        7.790      865.511
01/04/2022  16:38:00     -266.748       80.299       -6.293      158.732      126.186       68.777    25195.714    15923.024     4730.281        6.174        2.292      278.572       70.423        0.064      336.419        7.705      865.513
01/04/2022  16:39:00     -450.858      139.729      -14.711      171.432      159.945       85.305    29388.985    25582.414     7276.926       14.262        3.112      472.014       74.044        0.025      336.370        7.622      865.528
01/04/2022  16:40:00     -247.609       85.525       -1.402      163.110      114.593       70.012    26604.797    13131.557     4901.620        5.662        2.232      261.964       66.829        0.065      336.474        7.797      865.559
01/04/2022  16:41:00     -474.966       66.956      -26.367      248.331      156.032       88.926    61668.476    24345.922     7907.850       16.233        4.696      479.662       44.838        0.009      336.409        7.687      865.524
01/04/2022  16:42:00     -402.234       58.153      -50.352      245.980      137.096       95.539    60506.116    18795.361     9127.756       12.805        4.421      406.416       34.055        0.007      336.414        7.694      865.461
01/04/2022  16:43:00     -434.143       78.588       -7.589      252.551      144.042       86.983    63781.804    20748.051     7566.076       14.339        4.605      441.199       82.426        0.035      336.419        7.704      865.464
01/04/2022  16:44:00     -373.410      111.694       -9.857      278.452      170.183      114.981    77535.314    28962.415    13220.599       13.584        5.986      389.758      130.538        0.112      336.442        7.741      865.419
01/04/2022  16:45:00     -583.885       81.922      -28.349      254.613      167.857      116.670    64827.558    28176.032    13611.898       22.751        5.331      589.604      121.099        0.042      336.397        7.667      865.422
01/04/2022  16:46:00     -218.406      111.497      -14.804      178.855      198.055       85.495    31989.240    39225.659     7309.453        6.942        3.926      245.220       64.968        0.070      336.472        7.794      865.418
01/04/2022  16:47:00     -193.024       17.564       -3.929      192.882      112.340       96.218    37203.541    12620.243     9257.968        4.832        2.954      193.822       97.218        0.252      336.405        7.680      865.404
01/04/2022  16:48:00     -162.951       34.668      -27.865      204.125      142.811       91.282    41667.174    20395.107     8332.462        4.945        3.520      166.598       66.743        0.160      336.384        7.648      865.372
01/04/2022  16:49:00     -363.329       34.810      -16.454      181.770      132.302       94.001    33040.495    17503.820     8836.149        9.642        2.969      364.993       80.780        0.049      336.374        7.629      865.365
01/04/2022  16:50:00     -559.687      222.013      -10.224      311.056      174.880      104.507    96755.812    30582.986    10921.792       25.043        6.913      602.113      126.825        0.044      336.364        7.611      865.346
01/04/2022  16:51:00     -345.014      149.521      -26.654      172.183      158.909       93.337    29647.148    25252.010     8711.816       10.284        3.181      376.020       63.646        0.029      336.397        7.669      865.329
01/04/2022  16:52:00     -213.541       74.358        7.178      183.997      176.608       95.038    33855.071    31190.518     9032.234        6.262        3.704      226.117       94.308        0.174      336.409        7.689      865.298
01/04/2022  16:53:00     -250.384       69.133      -11.153      152.728      110.652       75.339    23325.979    12243.943     5675.904        5.441        2.062      259.752       77.088        0.088      336.328        7.552      865.270
01/04/2022  16:54:00     -179.480       25.717       -7.333      111.953       72.919       47.902    12533.438     5317.173     2294.594        2.653        1.007      181.314       45.859        0.064      336.370        7.624      865.256
01/04/2022  16:55:00     -189.544       79.701       -1.344      166.694      104.387       62.648    27786.797    10896.674     3924.720        4.244        2.130      205.619       67.909        0.109      336.416        7.700      865.217
01/04/2022  16:56:00     -266.854       65.489      -13.167      170.729      134.141       76.084    29148.390    17993.753     5788.768        6.429        2.647      274.772       61.117        0.049      336.367        7.619      865.227
01/04/2022  16:57:00     -222.922       90.804        0.905      191.722      120.171       93.808    36757.293    14441.066     8799.953        5.896        3.000      240.707      103.441        0.185      336.392        7.659      865.220
01/04/2022  16:58:00     -194.770       14.414       -1.994      210.603       98.836       89.007    44353.768     9768.528     7922.251        5.008        3.102      195.303       99.378        0.259      336.301        7.509      865.225
01/04/2022  16:59:00     -354.517      124.674        5.037      196.449      136.614       86.358    38592.293    18663.497     7457.632       10.297        3.236      375.800       91.084        0.059      336.290        7.489      865.221
01/04/2022  17:00:00     -208.341       52.114        0.512      209.862       85.279       65.154    44042.203     7272.475     4245.089        5.083        2.778      214.760       82.009        0.146      336.310        7.523      865.219
01/04/2022  17:01:00     -398.585       77.744      -14.521      211.641      110.800       82.794    44791.976    12276.548     6854.827       11.451        3.196      406.096       81.673        0.040      336.262        7.442      865.224
01/04/2022  17:02:00     -203.323       66.739       -5.418      128.634       95.966       63.896    16546.687     9209.529     4082.751        3.783        1.492      213.997       59.333        0.077      336.411        7.690      865.234
01/04/2022  17:03:00     -249.176       51.734      -10.621      141.944       97.934       56.193    20148.094     9591.126     3157.643        4.888        1.645      254.490       46.357        0.033      336.319        7.538      865.224
01/04/2022  17:04:00     -346.804       34.533      -22.063      269.451      151.252       87.755    72603.774    22877.150     7700.941       11.255        5.159      348.520       86.755        0.062      336.302        7.508      865.225
01/04/2022  17:05:00     -215.104       47.979      -29.012      154.726      106.872       75.376    23940.269    11421.699     5681.528        4.522        2.052      220.390       66.025        0.090      336.310        7.523      865.236
01/04/2022  17:06:00     -314.209      197.539      -41.460      143.807      122.588       75.398    20680.511    15027.825     5684.898        9.042        2.070      371.145       51.952        0.020      336.326        7.549      865.229
01/04/2022  17:07:00     -340.317       65.933       -2.027      135.490       88.668       71.222    18357.611     7862.084     5072.548        7.572        1.565      346.645       70.914        0.042      336.241        7.407      865.212
01/04/2022  17:08:00     -166.508       18.885       -6.653      115.446       73.162       53.491    13327.773     5352.707     2861.334        2.483        1.077      167.575       39.820        0.056      336.232        7.391      865.241
01/04/2022  17:09:00     -320.753      104.653        5.196      200.327      123.981       80.021    40130.848    15371.250     6403.428        8.787        3.095      337.394       95.951        0.081      336.275        7.465      865.244
01/04/2022  17:10:00     -292.379      127.498        3.409      196.562      122.800       69.762    38636.523    15079.959     4866.697        8.016        2.929      318.969       67.048        0.044      336.316        7.534      865.267
01/04/2022  17:11:00     -202.968       67.569        2.605      136.570       99.498       64.548    18651.256     9899.826     4166.499        3.924        1.636      213.920       59.429        0.077      336.352        7.594      865.313
01/04/2022  17:12:00     -332.655      139.457      -11.391      151.582      119.219       88.205    22977.180    14213.059     7780.159        8.760        2.249      360.704       77.778        0.046      336.380        7.638      865.322
01/04/2022  17:13:00     -204.739      108.002      -22.383      215.455      147.529       83.167    46420.992    21764.672     6916.803        6.458        3.755      231.479       57.332        0.061      336.297        7.499      865.344
01/04/2022  17:14:00     -284.316       75.547       -2.624      211.672      101.883       74.274    44804.978    10380.138     5516.573        7.361        3.035      294.181       85.314        0.084      336.222        7.376      865.360
01/04/2022  17:15:00     -196.471       15.049        9.110      243.011      127.029       87.537    59054.531    16136.318     7662.660        6.087        4.143      197.046       99.284        0.254      336.274        7.463      865.348
01/04/2022  17:16:00     -296.474       63.203        8.421      212.962      126.564       68.378    45352.771    16018.353     4675.509        7.899        3.302      303.135       72.493        0.057      336.267        7.450      865.384
01/04/2022  17:17:00     -243.451       17.419       -5.117      200.538       97.590       86.952    40215.361     9523.844     7560.616        5.844        2.865      244.073       96.067        0.155      336.267        7.451      865.385
01/04/2022  17:18:00     -158.067       95.763       12.461      152.043      113.248       69.713    23117.118    12825.003     4859.886        3.755        2.040      184.813       73.584        0.159      336.407        7.686      865.399
01/04/2022  17:19:00     -475.456       34.897      -49.678      230.299      147.594      101.585    53037.630    21783.890    10319.473       15.743        4.257      476.734      100.486        0.044      336.310        7.523      865.421
01/04/2022  17:20:00     -333.429       76.633       -1.420      263.733      135.543       87.163    69555.302    18371.958     7597.397       10.627        4.776      342.122       99.837        0.085      336.321        7.540      865.465
01/04/2022  17:21:00     -437.881      133.956       -2.789      203.687      164.472      114.495    41488.245    27050.877    13109.153       14.565        4.082      457.912       96.315        0.044      336.322        7.540      865.467
01/04/2022  17:22:00     -301.246      109.361      -15.164      187.035      143.489       96.469    34982.163    20589.038     9306.206        8.390        3.244      320.483       88.923        0.077      336.377        7.634      865.491
01/04/2022  17:23:00     -529.678      137.814      -16.352      218.175      151.327      106.739    47600.506    22899.913    11393.286       19.084        4.095      547.313      105.827        0.037      336.278        7.470      865.510
01/04/2022  17:24:00     -404.550      150.799       -1.090      218.206      135.064       82.803    47613.641    18242.339     6856.341       12.954        3.636      431.742       78.968        0.033      336.290        7.489      865.572
01/04/2022  17:25:00     -425.929      132.712       -5.691      174.298      152.877       97.804    30379.937    23371.459     9565.557       13.118        3.166      446.125       98.981        0.049      336.268        7.453      865.610
01/04/2022  17:26:00     -364.885       92.085       -8.930      180.933      144.727       91.544    32736.806    20945.865     8380.256       10.187        3.103      376.326       95.838        0.065      336.283        7.479      865.623
01/04/2022  17:27:00     -512.986      176.563       -5.649      260.903      168.759      102.741    68070.617    28479.716    10555.684       20.071        5.355      542.521      106.642        0.039      336.241        7.407      865.634
01/04/2022  17:28:00     -543.311      186.642      -26.719      225.312      188.693      117.542    50765.361    35605.045    13816.217       21.544        5.009      574.475      106.633        0.034      336.266        7.448      865.611
01/04/2022  17:29:00     -311.983       54.604      -29.725      190.728      159.615      108.768    36377.352    25476.897    11830.554        8.743        3.684      316.725      103.636        0.107      336.320        7.539      865.595
01/04/2022  17:30:00     -362.244       96.657      -21.233      238.431      184.219       94.691    56849.519    33936.470     8966.348       12.037        4.988      374.918       90.381        0.058      336.355        7.597      865.602
01/04/2022  17:31:00     -177.635       14.295       -3.798      187.474      140.744       83.687    35146.635    19808.802     7003.584        4.685        3.098      178.209       80.634        0.205      336.367        7.619      865.616
01/04/2022  17:32:00     -187.705       41.763      -22.657      144.223      117.115       78.816    20800.217    13715.807     6212.008        3.910        2.036      192.295       76.089        0.157      336.344        7.579      865.597
01/04/2022  17:33:00     -223.594       92.882      -24.232      201.102      132.874       83.104    40441.955    17655.520     6906.296        6.209        3.250      242.118       63.555        0.069      336.375        7.631      865.599
01/04/2022  17:34:00     -324.803       24.103      -33.737      216.088      150.371       89.985    46694.102    22611.339     8097.303        9.230        3.870      325.696       72.859        0.050      336.347        7.585      865.596
01/04/2022  17:35:00     -255.317      127.082       10.745      298.812      157.150      109.167    89288.814    24696.182    11917.377       10.365        6.295      285.196       65.923        0.053      336.359        7.605      865.629
01/04/2022  17:36:00     -432.705      129.609      -15.189      194.280      129.094       92.555    37744.545    16665.191     8566.498       13.361        3.149      451.700       62.190        0.019      336.345        7.580      865.645
01/04/2022  17:37:00     -509.901      139.137      -13.294      208.468      180.824      100.758    43458.800    32697.291    10152.253       18.291        4.315      528.544       99.215        0.035      336.325        7.548      865.673
01/04/2022  17:38:00     -312.859       82.333      -12.615      218.238      157.514       99.644    47627.664    24810.816     9928.991        9.358        4.118      323.511       99.178        0.094      336.361        7.609      865.689
01/04/2022  17:39:00     -391.258      134.674        6.228      197.382      128.106       77.257    38959.589    16411.058     5968.615       11.629        3.067      413.788       83.882        0.041      336.304        7.513      865.706
01/04/2022  17:40:00     -334.252      111.662      -19.648      156.202      157.195       83.093    24398.914    24710.318     6904.370        9.029        2.801      352.411       71.171        0.041      336.296        7.501      865.703
01/04/2022  17:41:00     -257.618       51.924      -14.115      171.042      104.574       92.113    29255.438    10935.809     8484.842        5.896        2.434      262.799       56.202        0.046      336.340        7.573      865.658
01/04/2022  17:42:00     -313.049       91.690       -3.394      231.993      133.832       85.500    53820.528    17910.882     7310.174        9.272        3.952      326.201       65.145        0.040      336.344        7.580      865.677
01/04/2022  17:43:00     -425.480      102.936      -10.898      181.067      149.641       96.452    32785.169    22392.494     9302.934       12.810        3.224      437.755       79.778        0.033      336.322        7.541      865.687
01/04/2022  17:44:00     -261.088      155.458      -25.324      132.351      105.337       74.532    17516.848    11095.904     5555.043        6.357        1.708      303.866       50.400        0.028      336.407        7.682      865.698
01/04/2022  17:45:00     -236.789       35.922      -22.394      149.124      110.794       77.175    22237.896    12275.273     5955.960        4.916        2.023      239.498       75.629        0.100      336.307        7.517      865.685
01/04/2022  17:46:00     -292.492      111.429      -10.889      107.418       81.647       66.324    11538.729     6666.169     4398.908        6.034        1.130      312.998       47.006        0.023      336.254        7.428      865.679
01/04/2022  17:47:00     -244.454      127.537      -18.571      128.699      102.294       61.073    16563.371    10463.991     3729.900        5.356        1.538      275.724       50.908        0.034      336.331        7.558      865.635
01/04/2022  17:48:00     -300.257       44.222       -9.381      126.618       98.831       62.075    16032.127     9767.515     3853.316        6.092        1.483      303.497       59.859        0.039      336.214        7.362      865.627
01/04/2022  17:49:00     -297.429       86.465      -11.814      186.280      115.717       87.098    34700.344    13390.418     7586.009        7.587        2.784      309.742       85.592        0.076      336.272        7.460      865.632
01/04/2022  17:50:00     -140.640       61.899       -1.099      128.226       81.479       51.326    16441.922     6638.825     2634.348        2.466        1.286      153.659       50.085        0.106      336.215        7.366      865.638
01/04/2022  17:51:00     -232.680       50.235      -24.490      144.645       96.312       61.111    20922.246     9275.932     3734.581        4.559        1.697      238.041       58.614        0.061      336.194        7.330      865.655
01/04/2022  17:52:00     -270.977      137.979        1.510      152.419      118.679       69.674    23231.508    14084.600     4854.514        6.731        2.109      304.084       76.346        0.063      336.247        7.419      865.671
01/04/2022  17:53:00     -271.497      127.740      -11.620      118.078      102.459       71.678    13942.298    10497.870     5137.698        5.987        1.479      300.047       52.772        0.031      336.242        7.409      865.696
01/04/2022  17:54:00     -295.686       70.908       -6.426      126.998       76.935       54.045    16128.385     5918.932     2920.888        5.873        1.248      304.070       42.984        0.020      336.195        7.328      865.687
01/04/2022  17:55:00     -156.325        7.058      -19.367      132.203       98.248       63.778    17477.511     9652.757     4067.575        2.802        1.560      156.484       68.317        0.191      336.230        7.389      865.673
01/04/2022  17:56:00     -455.462       92.612      -15.399      199.984      140.827       87.822    39993.779    19832.282     7712.639       14.189        3.377      464.783       78.717        0.029      336.211        7.358      865.648
01/04/2022  17:57:00     -152.702       68.667        8.139      134.494      105.097       66.035    18088.580    11045.292     4360.629        3.079        1.675      167.431       59.565        0.127      336.313        7.531      865.650
01/04/2022  17:58:00     -215.182       67.687       -8.784      124.601      111.715       61.034    15525.465    12480.248     3725.204        4.134        1.587      225.576       54.432        0.058      336.160        7.271      865.653
01/04/2022  17:59:00     -222.902       64.671        6.554      167.268       97.395       66.827    27978.669     9485.746     4465.811        4.791        2.097      232.095       63.412        0.075      336.148        7.252      865.617
01/04/2022  18:00:00     -244.982       16.014       -0.698      159.429      143.121       75.090    25417.534    20483.508     5638.490        5.590        2.577      245.504       80.010        0.106      336.207        7.350      865.604
01/04/2022  18:01:00     -223.968       46.722       -1.662      180.055      113.081       84.205    32419.753    12787.255     7090.536        5.231        2.615      228.789       83.296        0.133      336.161        7.274      865.608
01/04/2022  18:02:00     -151.162       11.615        9.596      158.094      124.668       90.158    24993.870    15542.040     8128.475        3.586        2.433      151.607       83.885        0.306      336.191        7.324      865.623
01/04/2022  18:03:00     -437.986       54.341      -17.380      200.210      151.714       87.078    40084.146    23017.087     7582.574       13.287        3.534      441.344       59.429        0.018      336.195        7.330      865.600
01/04/2022  18:04:00     -222.595       53.745       -8.320      147.860       95.369       73.139    21862.488     9095.249     5349.299        4.440        1.815      228.992       81.178        0.126      336.194        7.328      865.589
01/04/2022  18:05:00     -497.523      124.390        5.746      178.611      126.489       88.916    31901.851    15999.469     7906.097       15.941        2.790      512.837       91.322        0.032      336.133        7.226      865.583
01/04/2022  18:06:00     -230.216       56.499      -14.565      195.448      130.877       88.381    38199.970    17128.727     7811.141        5.976        3.157      237.047       79.717        0.113      336.162        7.276      865.598
01/04/2022  18:07:00     -238.685       76.811       -2.145      179.577      132.925       81.727    32248.005    17668.947     6679.374        5.973        2.830      250.740       77.499        0.096      336.180        7.306      865.594
01/04/2022  18:08:00     -270.480       14.306      -32.101      129.666      102.439       75.264    16813.303    10493.682     5664.722        5.368        1.649      270.858       65.012        0.058      336.179        7.304      865.580
01/04/2022  18:09:00     -503.336      171.064       14.514      305.383      194.489      104.302    93258.576    37825.881    10878.946       21.237        7.098      531.611      123.544        0.054      336.195        7.331      865.542
01/04/2022  18:10:00     -354.084      108.520       -8.586      237.137      169.129      104.749    56233.723    28604.653    10972.385       11.650        4.791      370.341      107.033        0.084      336.222        7.376      865.499
01/04/2022  18:11:00     -328.709       94.208        7.608      183.839      164.340       93.357    33796.623    27007.485     8715.517        9.324        3.476      341.943       66.717        0.038      336.226        7.383      865.528
01/04/2022  18:12:00     -284.521      -12.886      -13.190      270.250      164.391      116.025    73035.301    27024.539    13461.759        9.739        5.676      284.812      114.764        0.162      336.274        7.463      865.496
01/04/2022  18:13:00     -433.093       67.096      -21.930      245.755      177.488      109.045    60395.438    31502.059    11890.828       14.815        5.189      438.259      109.358        0.062      336.283        7.477      865.498
01/04/2022  18:14:00     -300.196       33.458        7.235      278.818      160.352      102.024    77739.428    25712.905    10408.863       10.255        5.693      302.055      105.882        0.123      336.229        7.389      865.481
01/04/2022  18:15:00     -292.547       29.563      -12.591      249.133      139.848      104.755    62067.142    19557.349    10973.605        8.959        4.630      294.037      118.928        0.164      336.198        7.336      865.513
01/04/2022  18:16:00     -364.693       52.442      -25.831      215.686      119.930       90.336    46520.398    14383.201     8160.539       10.273        3.453      368.444       96.338        0.068      336.158        7.269      865.531
01/04/2022  18:17:00     -306.971       32.712      -20.994      307.223      137.848       97.652    94385.744    19001.949     9535.864       10.931        6.146      308.709      116.274        0.142      336.130        7.223      865.555
01/04/2022  18:18:00     -415.162      -10.101      -20.998      286.806      144.962      119.052    82257.556    21013.865    14173.271       14.515        5.872      415.285      115.409        0.077      336.135        7.230      865.540
01/04/2022  18:19:00     -425.759       83.117      -41.279      248.317      151.610       81.099    61661.319    22985.444     6577.097       14.054        4.561      433.796       88.133        0.041      336.148        7.251      865.546
01/04/2022  18:20:00     -291.071       57.461        2.438      252.824      145.448      100.833    63920.057    21155.183    10167.320        9.162        4.762      296.688       83.658        0.080      336.154        7.262      865.566
01/04/2022  18:21:00     -357.317       98.840      -11.501      223.821      144.213       88.532    50095.692    20797.501     7837.839       10.814        3.937      370.736       80.189        0.047      336.195        7.332      865.633
01/04/2022  18:22:00     -406.355      103.214        2.736      210.466      135.699       94.501    44295.892    18414.320     8930.501       12.370        3.582      419.258       82.844        0.039      336.122        7.209      865.713
01/04/2022  18:23:00     -318.921       83.008       15.256      254.991      140.790       94.707    65020.552    19821.923     8969.493       10.131        4.691      329.547      117.261        0.127      336.110        7.190      865.755
01/04/2022  18:24:00     -381.236       87.175        0.817      265.519      158.441       98.461    70500.502    25103.499     9694.505       12.910        5.265      391.076      107.301        0.075      336.063        7.109      865.814
01/04/2022  18:25:00     -386.459      133.933       -0.960      252.342      184.942      106.143    63676.290    34203.727    11266.384       13.820        5.457      409.010       82.360        0.041      336.038        7.068      865.853
01/04/2022  18:26:00     -325.069       78.532       -0.103      231.355      168.425      109.162    53524.943    28366.962    11916.257       10.281        4.690      334.421      122.578        0.134      336.085        7.147      865.865
01/04/2022  18:27:00     -377.038      102.485      -15.749      175.392      109.661       77.425    30762.330    12025.550     5994.599       10.084        2.439      390.718       77.563        0.039      336.080        7.139      865.882
01/04/2022  18:28:00     -298.076      119.362       -3.202      184.537      152.998       70.819    34053.773    23408.249     5015.270        8.278        3.124      321.087       77.068        0.058      336.037        7.066      865.890
01/04/2022  18:29:00     -389.128       99.358      -22.517      162.244      102.396       74.724    26322.956    10484.851     5583.725       10.209        2.120      401.612       68.993        0.030      336.004        7.010      865.873
01/04/2022  18:30:00     -429.576      148.623      -11.352      157.102      115.316       75.251    24681.114    13297.792     5662.677       12.519        2.182      454.560       70.028        0.024      336.017        7.032      865.886
01/04/2022  18:31:00     -266.335       26.266       -1.887      205.999      131.273       73.076    42435.392    17232.717     5340.118        6.831        3.250      267.627       72.757        0.074      336.024        7.045      865.914
01/04/2022  18:32:00     -346.813      107.053      -19.967      153.545      106.115       82.603    23576.191    11260.461     6823.321        8.689        2.083      362.960       76.881        0.045      336.038        7.068      865.923
01/04/2022  18:33:00     -274.926       25.454       -1.311      170.198      146.151       92.428    28967.461    21360.121     8542.960        6.754        2.944      276.102       90.222        0.107      336.021        7.040      865.922
01/04/2022  18:34:00     -220.721       47.877        0.301      183.970      136.913       91.883    33845.118    18745.299     8442.455        5.601        3.052      225.854       69.102        0.094      336.042        7.075      865.917
01/04/2022  18:35:00     -184.728       55.129       -2.667      208.287      147.788       94.838    43383.572    21841.315     8994.295        5.568        3.711      192.779       88.180        0.209      336.088        7.153      865.940
01/04/2022  18:36:00     -287.181       80.515       -1.781      134.527      115.381       72.249    18097.601    13312.780     5219.979        6.279        1.832      298.255       66.516        0.050      336.034        7.062      866.002
01/04/2022  18:37:00     -344.471      147.440        1.609      171.896      123.653       82.926    29548.192    15289.964     6876.790        9.605        2.586      374.698       74.650        0.040      336.082        7.142      866.080
01/04/2022  18:38:00     -292.833       76.079       -3.308      146.405      115.587       73.270    21434.381    13360.312     5368.464        6.585        2.008      302.554       68.120        0.051      336.066        7.114      866.161
01/04/2022  18:39:00     -347.430      131.216        2.337      186.491      118.486       78.932    34778.860    14038.921     6230.195        9.648        2.752      371.383       72.727        0.038      336.007        7.016      866.225
01/04/2022  18:40:00     -381.001      138.472      -10.809      219.434      147.665       95.079    48151.139    21804.923     9039.966       12.171        3.950      405.384       93.329        0.053      336.073        7.127      866.245
01/04/2022  18:41:00     -325.684       78.748      -15.875      219.117      144.492       86.359    48012.193    20877.831     7457.930        9.442        3.817      335.069       91.908        0.075      336.043        7.076      866.289
01/04/2022  18:42:00     -280.679       91.724       -4.774      169.904      146.731       90.535    28867.242    21529.859     8196.645        7.289        2.930      295.286       81.577        0.076      336.088        7.152      866.299
01/04/2022  18:43:00     -239.556      107.949        1.205      142.227      118.706       76.861    20228.527    14091.046     5907.652        5.463        2.011      262.755       73.407        0.078      336.101        7.172      866.293
01/04/2022  18:44:00     -256.636      123.091      -22.200      115.012       87.204       71.081    13227.698     7604.490     5052.517        5.369        1.294      284.629       43.051        0.023      336.059        7.105      866.283
01/04/2022  18:45:00     -365.875      164.010       -8.596      175.732      119.627       81.225    30881.793    14310.514     6597.487       10.630        2.589      400.953       81.594        0.041      336.068        7.119      866.243
01/04/2022  18:46:00     -378.362      135.447      -21.782      151.667      136.886       84.331    23002.949    18737.650     7111.680       10.541        2.443      401.875       55.446        0.019      336.080        7.138      866.231
01/04/2022  18:47:00     -404.679      186.824       -1.359      202.039      143.213       92.322    40819.673    20509.850     8523.328       13.425        3.493      445.723       83.520        0.035      336.123        7.209      866.228
01/04/2022  18:48:00     -233.867       61.283        4.605      191.637      114.345       93.501    36724.832    13074.786     8742.372        5.850        2.927      241.763       86.219        0.127      336.084        7.146      866.228
01/04/2022  18:49:00     -296.600      136.534      -20.902      157.962      132.559       81.273    24952.054    17571.860     6605.337        7.808        2.456      326.516       71.791        0.048      336.101        7.174      866.232
01/04/2022  18:50:00     -277.719       98.311        6.126      262.356      114.246      101.749    68830.913    13052.101    10352.828        8.952        4.612      294.607      101.244        0.118      336.044        7.077      866.209
01/04/2022  18:51:00     -152.161       25.385        4.719      184.672      146.656       79.977    34103.679    21508.084     6396.252        4.290        3.100      154.264       80.166        0.270      336.121        7.208      866.181
01/04/2022  18:52:00     -180.059       80.904      -17.151      181.865      154.039       92.411    33074.755    23728.144     8539.839        5.229        3.267      197.400       92.048        0.217      336.099        7.169      866.126
01/04/2022  18:53:00     -285.055       75.860      -19.768      265.440      127.371       92.012    70458.310    16223.356     8466.141        9.126        4.757      294.976      117.069        0.158      336.079        7.136      866.115
01/04/2022  18:54:00     -284.623       65.294      -24.684      176.275      126.103       84.517    31072.765    15901.961     7143.113        6.999        2.706      292.017       84.532        0.084      336.070        7.121      866.081
01/04/2022  18:55:00     -403.679      138.566      -16.094      178.449      160.070       90.052    31844.099    25622.396     8109.381       12.398        3.279      426.799       86.230        0.041      336.086        7.148      866.033
01/04/2022  18:56:00     -332.073       93.425      -15.203      160.773      136.829       82.592    25847.954    18722.064     6821.492        8.530        2.570      344.965       78.234        0.051      336.039        7.070      866.006
01/04/2022  18:57:00     -253.446       80.321      -21.614      187.125      162.757       88.837    35015.893    26489.744     7892.049        7.026        3.470      265.869       84.863        0.102      336.087        7.151      865.976
01/04/2022  18:58:00     -339.180       66.595       10.772      157.401      134.006       84.635    24775.212    17957.719     7163.021        8.474        2.495      345.656       77.416        0.050      336.037        7.067      865.976
01/04/2022  18:59:00     -353.893       92.752       -1.447      200.482      115.101       82.836    40192.988    13248.143     6861.736        9.706        3.015      365.846       92.219        0.064      335.992        6.991      865.977
01/04/2022  19:00:00     -234.410       64.969       -7.356      206.326      129.468       95.774    42570.391    16761.893     9172.570        6.385        3.425      243.247       89.900        0.137      336.012        7.027      865.978
01/04/2022  19:01:00     -337.894      122.684        4.986      232.867      151.341       91.370    54226.922    22904.114     8348.395       10.735        4.274      359.477       86.183        0.057      336.072        7.127      865.957
01/04/2022  19:02:00     -325.782       74.049      -16.078      202.564      136.869       86.545    41032.117    18733.254     7489.967        8.955        3.363      334.091      105.766        0.100      336.012        7.026      865.965
01/04/2022  19:03:00     -242.610       41.010       10.543      234.995      118.744       91.032    55222.647    14100.201     8286.913        6.912        3.880      246.052       98.582        0.161      335.941        6.909      865.935
01/04/2022  19:04:00     -332.773       71.493      -11.657      191.712      120.384       81.909    36753.552    14492.327     6709.148        8.696        2.898      340.366       64.605        0.036      335.940        6.906      865.927
01/04/2022  19:05:00     -361.691       99.041      -24.011      136.779       88.662       65.166    18708.576     7861.014     4246.565        8.601        1.541      375.006       51.321        0.019      335.934        6.896      865.913
01/04/2022  19:06:00     -366.436       67.589      -26.181      202.394      129.051       82.008    40963.210    16654.033     6725.321       10.192        3.217      372.617       80.256        0.046      335.969        6.954      865.864
01/04/2022  19:07:00     -426.567       78.454      -16.647      276.470      121.105       88.293    76435.584    14666.359     7795.702       14.363        4.945      433.722       87.626        0.041      335.918        6.868      865.846
01/04/2022  19:08:00     -308.979       43.540      -19.659      260.531      149.665       83.067    67876.527    22399.634     6900.082        9.745        4.859      312.032       65.753        0.044      335.933        6.894      865.819
01/04/2022  19:09:00     -309.993       61.224      -16.245      251.616      139.780       85.889    63310.694    19538.525     7376.892        9.515        4.511      315.981       70.540        0.050      335.932        6.892      865.804
01/04/2022  19:10:00     -398.044      119.525        2.293      183.991      134.934       93.363    33852.561    18207.078     8716.577       11.674        3.039      415.602       96.789        0.054      335.953        6.925      865.800
01/04/2022  19:11:00     -409.893      169.843       -1.324      192.896      160.338      101.602    37209.000    25708.216    10322.880       13.504        3.662      443.688       82.292        0.034      336.023        7.044      865.839
01/04/2022  19:12:00     -478.922      146.193      -18.490      207.893      154.321      101.312    43219.318    23815.095    10264.206       16.418        3.865      500.738       79.719        0.025      336.023        7.042      865.883
01/04/2022  19:13:00     -329.526       68.982      -13.409      235.165      136.246       85.002    55302.592    18563.090     7225.312        9.729        4.055      336.669       87.060        0.067      335.988        6.986      865.973
01/04/2022  19:14:00     -277.545       73.093       -4.599      167.899       95.729       77.206    28190.041     9164.020     5960.707        6.285        2.166      287.008       78.049        0.074      336.012        7.025      866.051
01/04/2022  19:15:00     -309.003       97.504       -0.707      245.433      122.570       92.910    60237.536    15023.504     8632.306        9.443        4.195      324.021       86.985        0.072      336.005        7.014      866.071
01/04/2022  19:16:00     -450.338      111.945        4.778      182.181      120.701       82.351    33189.878    14568.743     6781.725       13.494        2.727      464.043       71.990        0.024      336.002        7.007      866.069
01/04/2022  19:17:00     -340.817       88.291       -6.784      264.940      159.653       90.885    70193.181    25488.940     8260.084       11.395        5.197      352.068       95.885        0.074      336.055        7.098      866.051
01/04/2022  19:18:00     -470.411       76.461       -7.346      222.394      171.394       94.686    49459.148    29375.894     8965.500       15.748        4.390      476.584       98.861        0.043      336.060        7.104      866.011
01/04/2022  19:19:00     -377.774       86.179      -24.491      202.901      103.130       66.662    41168.692    10635.869     4443.827       10.348        2.812      387.479       57.735        0.022      336.034        7.062      865.964
01/04/2022  19:20:00     -291.321       77.719      -21.787      139.026      109.408       67.903    19328.175    11970.217     4610.875        6.364        1.795      301.510       55.998        0.034      336.039        7.070      865.899
01/04/2022  19:21:00     -334.053      120.683        8.071      205.489      128.377       88.886    42225.653    16480.594     7900.643        9.640        3.330      355.184       97.918        0.076      336.009        7.020      865.862
01/04/2022  19:22:00     -305.857      137.967       -7.621      157.877      136.149       75.055    24925.082    18536.620     5633.225        8.086        2.455      335.534       65.088        0.038      336.022        7.043      865.859
01/04/2022  19:23:00     -326.513       73.960      -26.859      222.818      145.553       95.752    49647.749    21185.545     9168.380        9.639        4.000      334.785       47.514        0.020      336.040        7.072      865.851
01/04/2022  19:24:00     -289.297       78.801      -12.704      182.534      140.874       81.867    33318.749    19845.370     6702.216        7.495        2.993      299.837       61.419        0.042      336.043        7.076      865.844
01/04/2022  19:25:00     -250.813       90.887      -25.830      250.565      144.294      102.147    62782.823    20820.851    10434.102        8.292        4.702      266.773      104.839        0.154      336.026        7.050      865.839
01/04/2022  19:26:00     -240.208      112.342      -10.793      201.077      101.966       75.030    40431.824    10397.026     5629.571        6.344        2.823      265.180       78.335        0.087      336.047        7.084      865.825
01/04/2022  19:27:00     -398.840      158.022      -43.630      206.688      121.801       96.659    42720.093    14835.444     9342.998       12.641        3.345      429.004       91.281        0.045      336.075        7.129      865.794
01/04/2022  19:28:00     -375.120      159.838      -31.365      160.769      116.647       85.473    25846.544    13606.446     7305.611       10.699        2.338      407.754       63.996        0.025      336.014        7.027      865.784
01/04/2022  19:29:00     -273.137      139.167      -14.526      225.036      111.095       66.035    50641.054    12342.092     4360.653        8.075        3.367      306.547       36.058        0.014      336.080        7.139      865.748
01/04/2022  19:30:00     -108.438      161.181      -18.012      133.029      127.317       74.619    17696.614    16209.504     5567.970        3.876        1.974      194.264       59.418        0.094      336.103        7.178      865.734
01/04/2022  19:31:00     -154.384      163.764      -28.576      126.817      118.690       56.673    16082.560    14087.284     3211.848        4.242        1.669      225.063       50.249        0.050      336.078        7.137      865.705
01/04/2022  19:32:00     -165.233      201.489      -29.878      145.818      116.689       71.836    21262.956    13616.407     5160.366        5.441        2.002      260.576       57.623        0.049      336.180        7.306      865.702
01/04/2022  19:33:00      -98.462      -20.978      -16.547      147.405      133.235       81.023    21728.200    17751.590     6564.797        2.822        2.302      100.672       79.793        0.628      336.118        7.202      865.785
01/04/2022  19:34:00       27.390       20.578      -13.373       50.875       72.511       38.326     2588.228     5257.811     1468.913        0.533        0.466       34.259       21.503        0.394      336.136        7.234      865.838
01/04/2022  19:35:00     -134.592       40.103        8.354      168.441       87.977       54.986    28372.271     7740.002     3023.452        2.946        1.957      140.440       58.612        0.174      336.035        7.065      865.839
01/04/2022  19:36:00     -256.467       96.920      -13.959      177.284      101.174       64.351    31429.731    10236.171     4141.104        6.058        2.290      274.170       50.113        0.033      335.986        6.983      865.834
01/04/2022  19:37:00     -325.874      112.893      -20.790      214.088      112.462       56.962    45833.823    12647.755     3244.714        9.054        3.086      344.874       41.444        0.014      335.951        6.926      865.804
01/04/2022  19:38:00     -149.504       22.087       -2.820       77.725       69.158       41.873     6041.168     4782.796     1753.310        1.771        0.629      151.127       40.834        0.073      335.935        6.900      865.817
01/04/2022  19:39:00     -148.899       30.659      -10.918      122.919       83.841       67.587    15108.968     7029.238     4568.058        2.496        1.335      152.023       52.732        0.120      335.953        6.929      865.854
01/04/2022  19:40:00     -107.006       77.629       -2.072      156.401      144.962       82.976    24461.164    21013.866     6884.975        3.491        2.618      132.198       54.695        0.171      336.000        7.005      865.846
01/04/2022  19:41:00     -201.770       61.644      -16.769      130.419      112.020       53.805    17009.090    12548.420     2894.986        3.862        1.623      210.977       50.789        0.058      336.024        7.046      865.837
01/04/2022  19:42:00      -70.512       25.305      -20.445      105.302       72.215       58.029    11088.583     5214.994     3367.378        1.285        0.984       74.915       45.968        0.377      335.996        7.002      865.874
01/04/2022  19:43:00     -239.745       98.096      -20.089      131.752      111.108       55.008    17358.473    12345.093     3025.878        5.011        1.636      259.037       52.747        0.041      335.934        6.895      865.897
01/04/2022  19:44:00     -247.995      103.036      -30.054      136.991      100.303       61.795    18766.494    10060.760     3818.603        5.283        1.632      268.548       49.376        0.034      335.885        6.815      865.896
01/04/2022  19:45:00     -271.569       88.170        0.876      195.224      102.899       68.769    38112.465    10588.175     4729.160        6.747        2.671      285.524       79.768        0.078      335.963        6.945      865.868
01/04/2022  19:46:00     -219.233       85.580       -7.265      126.764       82.645       59.103    16069.191     6830.276     3493.198        4.091        1.320      235.344       46.062        0.038      335.949        6.921      865.869
01/04/2022  19:47:00     -176.082       29.231       -6.522      213.807      103.323       83.075    45713.628    10675.682     6901.387        4.758        3.165      178.492       84.615        0.225      335.988        6.988      865.830
01/04/2022  19:48:00     -287.851       17.972       -7.912      211.718      127.050       72.999    44824.668    16141.617     5328.899        7.476        3.315      288.412       93.128        0.104      335.988        6.987      865.818
01/04/2022  19:49:00     -287.719       71.198      -20.330      171.697      123.351       71.897    29479.813    15215.500     5169.139        6.906        2.493      296.397       78.802        0.071      336.036        7.066      865.762
01/04/2022  19:50:00     -203.337       62.474        1.242      152.662      110.599       65.737    23305.699    12232.096     4321.312        4.255        1.993      212.718       61.963        0.085      336.047        7.083      865.703
01/04/2022  19:51:00     -188.364        7.454      -17.560      131.322      117.161       69.045    17245.350    13726.719     4767.230        3.579        1.787      188.511       44.481        0.056      336.046        7.081      865.693
01/04/2022  19:52:00     -328.969       65.767      -18.626      141.711      112.841       69.368    20082.021    12733.078     4811.911        7.525        1.881      335.479       56.940        0.029      336.047        7.083      865.706
01/04/2022  19:53:00     -304.700       93.793       -3.627      161.393      139.344       64.272    26047.745    19416.782     4130.915        7.561        2.480      318.809       57.165        0.032      336.081        7.140      865.717
01/04/2022  19:54:00     -185.610       22.483      -14.095      130.132      117.071       80.667    16934.437    13705.619     6507.198        3.614        1.857      186.966       61.396        0.108      336.137        7.235      865.739
01/04/2022  19:55:00     -236.987       27.572      -15.146      150.490       77.923       56.912    22647.211     6071.995     3238.921        4.455        1.598      238.586       43.732        0.034      336.112        7.193      865.744
01/04/2022  19:56:00     -385.837      154.859        9.331      156.597      142.395       89.629    24522.681    20276.465     8033.372       11.288        2.642      415.754       78.376        0.036      336.141        7.240      865.752
01/04/2022  19:57:00     -316.273       57.893        7.461      187.627      120.616       76.809    35203.922    14548.131     5899.571        7.953        2.783      321.528       77.221        0.058      336.161        7.272      865.764
01/04/2022  19:58:00     -214.877       42.461      -10.214      271.196      129.978       79.158    73547.070    16894.159     6266.014        7.238        4.835      219.032       78.214        0.128      336.162        7.275      865.718
01/04/2022  19:59:00     -244.900       51.178       -8.620      160.173      130.591       82.541    25655.495    17054.032     6813.019        5.609        2.476      250.191       84.596        0.114      336.217        7.366      865.671
01/04/2022  20:00:00     -133.302      -17.594       -1.930      186.741      109.138       84.315    34872.179    11911.070     7109.048        3.598        2.695      134.458       75.221        0.313      336.177        7.300      865.632
01/04/2022  20:01:00     -168.949       14.849      -12.359      104.189       89.951       60.323    10855.370     8091.187     3638.825        2.575        1.129      169.600       40.083        0.056      336.198        7.336      865.604
01/04/2022  20:02:00     -272.344       83.446      -23.718      196.744      124.984       77.871    38708.150    15621.031     6063.922        7.103        3.020      284.841       54.277        0.036      336.186        7.314      865.601
01/04/2022  20:03:00     -240.861       49.834      -12.910      159.323      111.455       85.161    25383.693    12422.219     7252.437        5.285        2.253      245.962       80.197        0.106      336.191        7.324      865.608
01/04/2022  20:04:00     -297.036       72.339      -29.160      171.689      109.845       72.225    29477.044    12065.850     5216.383        7.053        2.338      305.718       82.860        0.073      336.170        7.289      865.640
01/04/2022  20:05:00     -140.154       15.967      -20.599      157.453       90.622       83.294    24791.596     8212.331     6937.894        3.012        1.997      141.060       78.738        0.312      336.228        7.386      865.700
01/04/2022  20:06:00     -120.064        6.621        1.127      161.189      110.107       75.215    25981.905    12123.466     5657.256        2.910        2.188      120.247       65.614        0.298      336.150        7.256      865.719
01/04/2022  20:07:00     -368.687      -51.959      -47.974      172.065      104.879       99.092    29606.239    10999.673     9819.188        9.567        2.521      372.330       85.476        0.053      336.182        7.309      865.698
01/04/2022  20:08:00     -176.741      -14.978       -6.929      195.110      103.358       92.889    38068.085    10682.800     8628.344        4.443        2.869      177.374       94.711        0.285      336.224        7.381      865.714
01/04/2022  20:09:00     -297.632      -55.421      -12.522      206.731      140.950       95.724    42737.690    19866.770     9163.172        8.178        3.588      302.748       91.340        0.091      336.291        7.491      865.730
01/04/2022  20:10:00     -199.914       22.449      -19.076      210.854       98.085       76.896    44459.432     9620.748     5912.989        5.040        3.000      201.171       71.562        0.127      336.301        7.507      865.774
01/04/2022  20:11:00     -341.666       77.189       -4.811      227.061      140.167       86.548    51556.689    19646.796     7490.521       10.069        3.935      350.277      104.135        0.088      336.285        7.480      865.811
01/04/2022  20:12:00     -287.989       -1.725      -21.919      178.836      128.080       93.217    31982.200    16404.384     8689.478        7.024        2.854      287.994       75.963        0.070      336.288        7.487      865.791
01/04/2022  20:13:00     -402.753      -13.759      -21.983      218.405      148.646       98.190    47700.627    22095.698     9641.221       12.115        3.972      402.988       88.240        0.048      336.266        7.449      865.765
01/04/2022  20:14:00     -317.068       11.845      -22.497      221.593      124.354       87.073    49103.297    15463.878     7581.706        8.665        3.607      317.290       70.468        0.049      336.264        7.445      865.760
01/04/2022  20:15:00     -315.914      -55.133      -11.793      238.065      127.106      105.880    56674.983    16155.990    11210.501        9.350        4.202      320.689      112.416        0.123      336.288        7.486      865.788
01/04/2022  20:16:00     -416.143        7.874       -7.962      214.882      126.695       87.278    46174.404    16051.540     7617.372       12.156        3.492      416.218      109.396        0.069      336.286        7.483      865.807
01/04/2022  20:17:00     -378.767      -11.951       -9.634      199.003      103.476       81.435    39602.080    10707.194     6631.655       10.031        2.847      378.955       94.460        0.062      336.264        7.444      865.811
01/04/2022  20:18:00     -349.100        4.202      -24.708      153.363      111.181       84.524    23520.058    12361.114     7144.348        8.275        2.151      349.125       79.227        0.051      336.264        7.445      865.805
01/04/2022  20:19:00     -293.053        2.756       -0.534      141.183       82.517       74.822    19932.700     6809.103     5598.353        5.911        1.617      293.066       70.721        0.058      336.267        7.451      865.800
01/04/2022  20:20:00     -100.249      -37.036       10.887       91.831       71.138       37.010     8432.856     5060.644     1369.721        1.320        0.743      106.872       41.091        0.148      336.278        7.471      865.775
01/04/2022  20:21:00     -180.821      -36.396      -16.931      129.907       76.513       57.462    16875.742     5854.186     3301.841        3.016        1.302      184.447       65.997        0.128      336.361        7.608      865.760
01/04/2022  20:22:00     -219.479       -1.502       -7.984       83.021       58.036       43.140     6892.499     3368.139     1861.087        3.018        0.606      219.484       47.748        0.047      336.303        7.510      865.797
01/04/2022  20:23:00     -205.154       38.163       -7.750      105.384       90.517       44.963    11105.717     8193.346     2021.657        3.246        1.066      208.674       34.374        0.027      336.280        7.473      865.825
01/04/2022  20:24:00     -130.173       -5.047        0.623      123.530       74.538       56.267    15259.777     5555.941     3165.953        2.047        1.199      130.271       57.112        0.192      336.272        7.461      865.850
01/04/2022  20:25:00     -119.374      -21.310      -18.074       95.118       77.851       59.198     9047.485     6060.738     3504.369        1.682        0.931      121.261       42.873        0.125      336.295        7.498      865.858
01/04/2022  20:26:00     -169.871       -0.820      -16.402      128.574       86.919       50.176    16531.384     7554.967     2517.607        2.786        1.330      169.873       45.346        0.071      336.284        7.480      865.855
01/04/2022  20:27:00     -329.044       33.691      -19.198       82.757       79.553       45.859     6848.769     6328.644     2103.033        6.252        0.764      330.765       42.319        0.016      336.342        7.575      865.845
01/04/2022  20:28:00     -219.691        2.358      -17.478      104.645       82.869       42.070    10950.491     6867.317     1769.887        3.408        0.979      219.704       47.147        0.046      336.322        7.543      865.876
01/04/2022  20:29:00     -228.487       23.606      -21.559      100.191       61.205       46.587    10038.211     3746.022     2170.354        3.459        0.798      229.703       46.103        0.040      336.325        7.547      865.886
01/04/2022  20:30:00     -253.299      -14.609      -22.072      107.417       76.300       52.314    11538.336     5821.654     2736.744        4.248        1.005      253.720       34.509        0.018      336.319        7.538      865.894
01/04/2022  20:31:00     -175.865       45.401      -16.258       69.255       68.549       44.872     4796.202     4698.988     2013.504        2.238        0.575      181.631       39.992        0.048      336.285        7.482      865.958
01/04/2022  20:32:00     -146.850       48.251       -0.151       75.635       83.521       42.252     5720.582     6975.823     1785.194        1.918        0.724      154.574       40.251        0.068      336.422        7.711      865.973
01/04/2022  20:33:00     -215.133      -42.386      -35.105       98.799       79.773       56.423     9761.225     6363.670     3183.511        3.431        0.965      219.268       43.046        0.039      336.335        7.564      865.931
01/04/2022  20:34:00     -251.609       12.513      -16.938      108.056       58.938       49.267    11676.139     3473.727     2427.275        4.066        0.879      251.920       39.115        0.024      336.325        7.547      865.924
01/04/2022  20:35:00      -60.714       36.293        6.321       77.455       50.240       34.594     5999.307     2524.035     1196.713        0.738        0.486       70.734       33.443        0.224      336.280        7.474      865.931
01/04/2022  20:36:00     -227.705      -36.954      -22.491      160.074       95.162       54.824    25623.659     9055.759     3005.689        4.570        1.884      230.684       56.944        0.061      336.300        7.507      865.914
01/04/2022  20:37:00      -92.889      -11.269       -9.596      164.947       93.399       69.888    27207.500     8723.355     4884.294        2.482        2.041       93.570       72.368        0.598      336.301        7.510      865.877
01/04/2022  20:38:00     -209.538       -9.655      -15.225      123.890       83.917       62.843    15348.652     7042.060     3949.274        3.528        1.317      209.761       53.595        0.065      336.279        7.471      865.837
01/04/2022  20:39:00     -150.887      -32.738      -15.443      137.079       74.500       65.924    18790.538     5550.238     4345.953        2.638        1.434      154.398       53.340        0.119      336.301        7.509      865.812
01/04/2022  20:40:00      -96.777        9.451      -10.692      119.211      122.882       58.572    14211.255    15100.063     3430.643        2.115        1.637       97.237       64.973        0.446      336.341        7.576      865.795
01/04/2022  20:41:00     -179.447       46.345        9.556      137.275      120.087       70.251    18844.491    14420.939     4935.227        3.631        1.910      185.335       68.163        0.135      336.317        7.536      865.772
01/04/2022  20:42:00      -81.966       29.569       -0.550      121.758       78.871       61.355    14825.104     6220.623     3764.490        1.620        1.241       87.136       62.927        0.522      336.285        7.483      865.753
01/04/2022  20:43:00     -226.425       -2.601       -7.620      152.395      107.532       80.749    23224.255    11563.058     6520.376        4.631        2.065      226.440       70.910        0.098      336.273        7.460      865.792
01/04/2022  20:44:00     -358.054      -29.901      -13.820      274.028      131.894      105.860    75091.157    17396.086    11206.277       11.647        5.185      359.300      115.027        0.102      336.306        7.517      865.785
01/04/2022  20:45:00     -455.946       20.446       -7.505      207.997      141.610      108.573    43262.952    20053.288    11788.203       14.172        3.755      456.404      106.028        0.054      336.311        7.523      865.746
01/04/2022  20:46:00     -407.808       23.614       -5.896      235.310      120.972       93.113    55370.615    14634.219     8669.991       12.277        3.934      408.491      103.520        0.064      336.303        7.511      865.713
01/04/2022  20:47:00     -388.444        2.852       -7.924      223.518      153.416       99.398    49960.376    23536.604     9880.034       11.715        4.169      388.455      102.337        0.069      336.293        7.495      865.694
01/04/2022  20:48:00     -381.083      -75.567      -25.698      203.247      106.744      104.313    41309.209    11394.383    10881.132       10.758        3.179      388.504       99.217        0.065      336.292        7.490      865.675
01/04/2022  20:49:00     -244.842        3.701      -19.092      213.310      121.818       92.044    45501.202    14839.529     8472.126        6.456        3.441      244.870      100.565        0.169      336.300        7.506      865.678
01/04/2022  20:50:00     -175.731        7.307       -7.830      171.483      109.840       81.005    29406.544    12064.839     6561.828        3.951        2.402      175.883       83.058        0.223      336.295        7.497      865.688
01/04/2022  20:51:00     -147.834      -21.881        0.777      176.493      123.247       88.135    31149.678    15189.752     7767.840        3.821        2.705      149.445       89.502        0.359      336.258        7.437      865.670
01/04/2022  20:52:00     -339.903       32.505      -17.205      206.607      122.850       89.103    42686.342    15092.188     7939.260        9.129        3.286      341.454       84.919        0.062      336.292        7.492      865.640
01/04/2022  20:53:00     -265.798      -24.837       -4.445      228.254      127.682       89.632    52100.021    16302.699     8033.968        7.385        3.822      266.956       98.402        0.136      336.293        7.495      865.646
01/04/2022  20:54:00     -299.031       -6.304       -2.981      183.077      123.199       79.030    33517.346    15177.987     6245.692        7.219        2.747      299.097       81.600        0.074      336.308        7.519      865.626
01/04/2022  20:55:00     -184.656        4.740      -10.025      156.188      100.392       72.592    24394.769    10078.635     5269.529        3.697        1.987      184.717       47.620        0.066      336.323        7.545      865.654
01/04/2022  20:56:00     -178.407       59.719      -10.320      106.255       66.755       44.769    11290.105     4456.242     2004.258        2.662        0.888      188.137       44.814        0.057      336.322        7.545      865.694
01/04/2022  20:57:00     -135.456        1.179      -15.064       92.342       66.766       54.028     8527.131     4457.744     2919.001        1.724        0.795      135.461       43.624        0.104      336.287        7.486      865.681
01/04/2022  20:58:00     -276.815      127.278       -3.207      150.023       99.288       70.053    22506.936     9858.120     4907.391        6.505        1.864      304.674       70.009        0.053      336.342        7.576      865.710
01/04/2022  20:59:00     -201.672      112.527       -0.075       98.690       69.389       60.430     9739.684     4814.854     3651.728        3.577        0.910      230.942       54.665        0.056      336.331        7.556      865.709
01/04/2022  21:00:00     -214.177       -7.478      -28.460      144.106       98.369       72.895    20766.677     9676.442     5313.744        4.124        1.788      214.308       68.342        0.102      336.290        7.488      865.747
01/04/2022  21:01:00     -201.463       90.494      -38.499      113.452      144.170       74.072    12871.359    20785.036     5486.665        4.469        1.957      220.854       63.276        0.082      336.335        7.565      865.761
01/04/2022  21:02:00     -147.009       -8.987      -15.171       90.014       95.728       51.455     8102.505     9163.897     2647.645        2.091        0.996      147.284       43.241        0.086      336.276        7.466      865.794
01/04/2022  21:03:00     -253.846       56.652      -21.803      160.115      111.363       62.359    25636.923    12401.673     3888.706        5.502        2.096      260.091       63.551        0.060      336.294        7.495      865.779
01/04/2022  21:04:00     -214.632       20.212      -21.993      192.497       91.754       68.261    37055.137     8418.815     4659.583        4.854        2.507      215.582       69.601        0.104      336.326        7.550      865.712
01/04/2022  21:05:00     -170.883      -22.650      -20.543      141.020       66.500       55.988    19886.709     4422.299     3134.686        2.878        1.372      172.377       40.784        0.056      336.325        7.549      865.722
01/04/2022  21:06:00     -199.191      -16.596       -8.729      111.170      119.988       76.228    12358.796    14397.182     5810.657        3.629        1.628      199.881       50.504        0.064      336.283        7.479      865.746
01/04/2022  21:07:00     -100.552      -64.237      -11.864       74.194       73.287       33.185     5504.704     5370.972     1101.270        1.318        0.599      119.319       34.018        0.081      336.290        7.491      865.762
01/04/2022  21:08:00     -156.112      -18.347        4.756      157.225       96.419       59.804    24719.584     9296.659     3576.498        3.115        1.880      157.186       57.038        0.132      336.285        7.483      865.710
01/04/2022  21:09:00     -197.611      -87.740       -9.400       96.001       99.688       52.564     9216.205     9937.758     2762.999        3.437        1.096      216.214       43.267        0.040      336.289        7.488      865.714
01/04/2022  21:10:00     -110.498       39.480      -28.266       36.682       41.540       27.243     1345.567     1725.603      742.179        0.919        0.191      117.339       22.875        0.038      336.343        7.578      865.736
01/04/2022  21:11:00     -126.735       37.393      -17.134       91.889      114.935       73.032     8443.663    13210.024     5333.713        2.237        1.349      132.136       55.733        0.178      336.366        7.618      865.735
01/04/2022  21:12:00      -79.377      -62.374      -17.207       60.990       94.593       44.992     3719.773     8947.790     2024.293        1.259        0.735      100.952       21.503        0.045      336.300        7.508      865.749
01/04/2022  21:13:00     -156.204      -43.560      -20.419       95.782       83.300       40.764     9174.264     6938.860     1661.740        2.224        0.889      162.164       30.123        0.035      336.279        7.473      865.760
01/04/2022  21:14:00     -179.975      -43.532      -12.011      125.669      138.695       65.178    15792.662    19236.194     4248.129        3.685        1.964      185.164       56.524        0.093      336.278        7.471      865.720
01/04/2022  21:15:00     -191.953      -78.749      -27.062       62.899       80.022       46.295     3956.245     6403.586     2143.237        2.814        0.625      207.478       36.130        0.030      336.294        7.496      865.708
01/04/2022  21:16:00     -110.078      -24.667      -24.015       72.911       69.208       43.172     5316.057     4789.780     1863.824        1.263        0.598      112.808       40.416        0.128      336.342        7.577      865.687
01/04/2022  21:17:00      -55.032      -51.645      -24.144       70.148       68.232       31.647     4920.735     4655.646     1001.562        0.843        0.529       75.470       28.492        0.143      336.264        7.448      865.654
01/04/2022  21:18:00      -13.509       32.901       -4.422       99.720      100.799       39.244     9944.139    10160.366     1540.111        1.146        1.082       35.567       45.864        1.663      336.423        7.714      865.619
01/04/2022  21:19:00       -9.426      -16.174      -30.254       52.875       65.834       23.037     2795.778     4334.087      530.686        0.446        0.383       18.720       29.583        2.497      336.470        7.793      865.616
01/04/2022  21:20:00      -36.228       82.262      -13.775       72.252       75.439       33.117     5220.282     5690.986     1096.753        1.014        0.600       89.886       27.914        0.096      336.360        7.609      865.588
01/04/2022  21:21:00      -16.909      -61.532      -27.444       57.242       47.981       42.906     3276.618     2302.145     1840.909        0.612        0.371       63.813       19.412        0.093      336.293        7.497      865.550
01/04/2022  21:22:00      -98.827      -25.307      -30.089       66.892       51.065       27.382     4474.518     2607.678      749.782        0.957        0.392      102.016       12.781        0.016      336.361        7.612      865.559
01/04/2022  21:23:00      -95.057       68.192      -16.130       50.681       31.122       37.378     2568.603      968.549     1397.120        0.944        0.247      116.987       19.824        0.029      336.470        7.792      865.587
01/04/2022  21:24:00      -96.030       -4.288      -27.951       66.723       39.161       40.733     4451.940     1533.622     1659.144        0.883        0.382       96.126       33.165        0.119      336.384        7.649      865.638
01/04/2022  21:25:00      -21.625       22.402       -3.752       21.583       18.895       20.180      465.832      357.015      407.250        0.111        0.062       31.137       11.162        0.129      336.342        7.581      865.668
01/04/2022  21:26:00       80.952       12.321      -10.089       41.356       32.781       17.370     1710.295     1074.566      301.733        0.495        0.154       81.884       14.198        0.030      336.329        7.556      865.659
01/04/2022  21:27:00       69.768      -14.817       -5.316       65.176       31.292       27.267     4247.891      979.204      743.511        0.554        0.299       71.324       23.623        0.110      336.287        7.487      865.640
01/04/2022  21:28:00       30.699       99.433       -6.719       81.549       87.106       37.182     6650.295     7587.377     1382.475        1.324        0.781      104.064       34.295        0.109      336.330        7.558      865.653
01/04/2022  21:29:00      129.838       55.523      -11.012       58.225       37.564       31.831     3390.133     1411.074     1013.210        1.294        0.291      141.212       15.605        0.012      336.191        7.326      865.636
01/04/2022  21:30:00       42.209        5.104      -12.790       34.424       25.808       21.828     1185.040      666.037      476.455        0.215        0.116       42.517        6.734        0.025      336.128        7.221      865.623
01/04/2022  21:31:00       51.426       34.648       -4.309       41.307       31.675       22.084     1706.234     1003.284      487.698        0.353        0.160       62.009       22.296        0.129      336.025        7.051      865.617
01/04/2022  21:32:00       62.868       70.094      -15.644       37.347       36.017       17.882     1394.771     1297.204      319.774        0.606        0.151       94.157       13.216        0.020      336.187        7.319      865.624
01/04/2022  21:33:00      -10.361       77.326      -17.362       38.223       58.327       24.147     1461.028     3402.045      583.064        0.592        0.272       78.017       18.560        0.057      336.356        7.602      865.698
01/04/2022  21:34:00       11.206      118.987      -30.646       31.267       40.315       21.289      977.650     1625.290      453.207        0.914        0.153      119.513       20.473        0.029      336.350        7.592      865.714
01/04/2022  21:35:00       14.511       53.236      -11.365       22.227       25.964       26.431      494.052      674.117      698.619        0.252        0.093       55.178       17.662        0.102      336.371        7.628      865.715
01/04/2022  21:36:00       69.400       72.517      -18.263       39.430       24.653       23.881     1554.692      607.760      570.306        0.657        0.137      100.375       19.105        0.036      336.248        7.422      865.754
01/04/2022  21:37:00       40.408       70.265      -14.878       41.713       29.855       20.069     1739.966      891.304      402.753        0.491        0.152       81.055        9.980        0.015      336.252        7.427      865.845
01/04/2022  21:38:00       22.250      133.362      -11.927       38.152       48.140       30.525     1455.608     2317.448      931.772        1.156        0.235      135.205       24.675        0.033      336.312        7.528      865.890
01/04/2022  21:39:00       62.824      218.742      -32.725       63.844       62.753       43.095     4075.998     3937.964     1857.218        3.137        0.494      227.585       37.073        0.027      336.358        7.602      865.801
01/04/2022  21:40:00       99.001      132.678      -22.952       66.687       53.738       40.326     4447.142     2887.782     1626.187        1.844        0.448      165.544       36.246        0.048      336.319        7.539      865.800
01/04/2022  21:41:00      103.600      147.467      -18.683       55.566       67.944       36.323     3087.589     4616.322     1319.350        2.092        0.451      180.221       35.992        0.040      336.321        7.543      865.775
01/04/2022  21:42:00       41.970      103.102      -15.676       33.162       69.855       25.862     1099.710     4879.704      668.839        0.964        0.332      111.317       23.400        0.044      336.251        7.426      865.806
01/04/2022  21:43:00       12.513       -6.955      -13.928       19.044       20.327       15.302      362.675      413.191      234.145        0.070        0.051       14.317       10.609        0.549      336.153        7.263      865.848
01/04/2022  21:44:00      -29.326       -9.055      -14.813       37.145       34.752       24.156     1379.716     1207.720      583.501        0.217        0.159       30.692       19.550        0.406      336.173        7.295      865.889
01/04/2022  21:45:00      -68.846       19.771        8.013       72.742       36.318       29.960     5291.384     1318.984      897.595        0.635        0.375       71.629       33.199        0.215      336.224        7.382      865.942
01/04/2022  21:46:00       16.730       -0.484      -11.044       18.577       27.257       19.019      345.122      742.947      361.725        0.093        0.072       16.737       15.891        0.901      336.146        7.251      865.951
01/04/2022  21:47:00       -4.057      -15.710       -6.251       21.894       24.783       15.547      479.337      614.185      241.715        0.082        0.067       16.225       11.377        0.492      336.133        7.229      865.939
01/04/2022  21:48:00      -16.148       15.678      -13.464       51.921       29.546       28.151     2695.801      872.965      792.465        0.252        0.218       22.506       23.526        1.093      336.187        7.318      866.007
01/04/2022  21:49:00        3.010       78.519       -5.062       41.521       50.768       26.519     1723.978     2577.376      703.245        0.560        0.250       78.576        6.025        0.006      336.285        7.484      866.038
01/04/2022  21:50:00      -82.438       47.802      -20.355       49.608       59.614       28.017     2460.929     3553.831      784.934        0.815        0.340       95.294        9.503        0.010      336.488        7.824      866.051
01/04/2022  21:51:00      -34.842       -6.563        5.779       65.322       42.851       30.480     4266.987     1836.189      929.009        0.416        0.352       35.455       29.163        0.677      336.330        7.558      866.072
01/04/2022  21:52:00      -95.970     -127.577      -15.417       53.312       85.871       49.663     2842.130     7373.792     2466.394        1.920        0.634      159.644       28.948        0.033      336.475        7.800      866.078
01/04/2022  21:53:00      -50.754     -112.622      -11.357       40.960       43.266       36.816     1677.700     1871.965     1355.435        1.015        0.245      123.530       17.019        0.019      336.405        7.683      866.098
01/04/2022  21:54:00      -14.051      -74.072      -19.658       57.793       62.457       39.328     3339.987     3900.894     1546.726        0.743        0.439       75.393       33.619        0.199      336.349        7.591      866.120
01/04/2022  21:55:00       -6.475        1.699       -0.333       43.009       36.202       39.393     1849.810     1310.593     1551.772        0.238        0.236        6.694       16.352        5.967      336.325        7.549      866.212
01/04/2022  21:56:00     -105.719       21.880      -35.867      118.580       84.590       56.505    14061.210     7155.543     3192.775        1.867        1.220      107.960       33.241        0.095      336.415        7.699      866.247
01/04/2022  21:57:00     -113.842       68.952      -11.165       71.814       63.483       40.015     5157.222     4030.078     1601.199        1.431        0.539      133.095       37.873        0.081      336.435        7.734      866.248
01/04/2022  21:58:00     -140.392      -98.374       -5.484      115.206      143.732       59.942    13272.466    20658.792     3592.986        3.346        1.876      171.427       57.972        0.114      336.459        7.772      866.212
01/04/2022  21:59:00     -143.711       32.277      -12.451      130.239       86.359       70.369    16962.200     7457.866     4951.835        2.561        1.469      147.291       64.112        0.189      336.392        7.660      866.221
01/04/2022  22:00:00     -105.815       85.357      -13.789      123.861       62.491       49.524    15341.617     3905.143     2452.624        2.018        1.085      135.950       48.796        0.129      336.545        7.918      866.197
01/04/2022  22:01:00      -96.915       48.985       -6.254       66.207       42.627       34.446     4383.430     1817.070     1186.497        0.961        0.369      108.591       38.093        0.123      336.427        7.721      866.154
01/04/2022  22:02:00     -222.690       -0.682      -20.713      130.414       69.693       59.300    17007.836     4857.182     3516.500        3.770        1.269      222.691       56.204        0.064      336.473        7.795      866.138
01/04/2022  22:03:00      -84.207       -2.818       -4.440       77.534       53.633       40.768     6011.444     2876.496     1662.067        0.883        0.528       84.254       39.000        0.214      336.365        7.617      866.129
01/04/2022  22:04:00        9.068      -31.090       -4.175       33.009       25.183       25.271     1089.606      634.196      638.631        0.171        0.118       32.386       11.710        0.131      336.413        7.697      866.064
01/04/2022  22:05:00     -106.719      -72.570      -23.726       48.783       49.622       20.678     2379.776     2462.355      427.565        1.124        0.263      129.056       19.750        0.023      336.396        7.667      866.094
01/04/2022  22:06:00     -115.763       21.381      -31.995       80.044       63.188       40.443     6406.992     3992.776     1635.676        1.346        0.602      117.721       28.999        0.061      336.357        7.601      866.126
01/04/2022  22:07:00     -233.260      -48.086      -24.651      146.912       99.412       69.497    21583.175     9882.844     4829.849        4.681        1.815      238.165       68.581        0.083      336.352        7.593      866.111
01/04/2022  22:08:00      -97.721       37.094      -24.678       76.706       81.284       41.224     5883.872     6607.124     1699.401        1.286        0.710      104.524       16.099        0.024      336.337        7.570      866.118
01/04/2022  22:09:00     -170.870       84.134       -3.175      111.558       94.001       54.071    12445.272     8836.179     2923.642        3.024        1.210      190.460       52.176        0.075      336.451        7.759      866.094
01/04/2022  22:10:00     -114.559       47.699        2.540       99.434       60.759       46.103     9887.058     3691.602     2125.520        1.555        0.785      124.092       36.252        0.085      336.474        7.800      865.988
01/04/2022  22:11:00     -200.438       84.350       -5.354      112.348       81.790       55.379    12622.010     6689.545     3066.838        3.484        1.119      217.464       48.883        0.051      336.343        7.577      865.967
01/04/2022  22:12:00     -163.963       24.307      -40.987      146.352       82.396       63.818    21418.935     6789.176     4072.699        3.071        1.614      165.755       40.720        0.060      336.408        7.687      865.932
01/04/2022  22:13:00     -195.166       26.204      -19.080       99.172       86.222       45.191     9834.994     7434.238     2042.211        2.922        0.966      196.917       34.673        0.031      336.340        7.574      865.924
01/04/2022  22:14:00      -38.244      -54.639      -24.093       54.737       55.346       35.060     2996.091     3063.131     1229.224        0.616        0.364       66.693       20.823        0.097      336.318        7.539      865.989
01/04/2022  22:15:00        7.900       -4.195      -13.900       32.763       53.468       21.811     1073.420     2858.822      475.721        0.234        0.220        8.945       23.614        6.970      336.405        7.686      866.036
01/04/2022  22:16:00       18.881       61.318        4.724       31.158       34.678       29.583      970.851     1202.587      875.151        0.359        0.152       64.159       19.806        0.095      336.344        7.582      866.051
01/04/2022  22:17:00       31.906       43.406      -13.480       26.456       26.159       19.335      699.922      684.309      373.825        0.242        0.088       53.871        8.179        0.023      336.305        7.517      866.058
01/04/2022  22:18:00      101.957       40.673       -9.734       74.838       43.191       26.000     5600.708     1865.447      675.984        1.014        0.407      109.770        7.721        0.005      336.302        7.511      866.075
01/04/2022  22:19:00       -0.519       20.954      -22.173       47.416       56.032       24.407     2248.243     3139.596      595.714        0.346        0.299       20.960       19.202        0.839      336.302        7.512      866.088
01/04/2022  22:20:00      -35.984      -69.106      -30.277       70.572       65.394       52.487     4980.339     4276.339     2754.924        0.950        0.601       77.914       36.972        0.225      336.365        7.617      866.099
01/04/2022  22:21:00      -25.366      -84.816      -14.954      138.217       86.919       61.615    19104.050     7554.952     3796.350        1.925        1.523       88.528       15.568        0.031      336.388        7.654      866.029
01/04/2022  22:22:00       45.110     -205.587      -50.025      168.840      211.103       71.535    28506.922    44564.525     5117.316        6.248        3.909      210.478       91.224        0.188      336.575        7.967      865.972
01/04/2022  22:23:00       13.128       25.263      -23.838       48.274       73.463       35.717     2330.406     5396.858     1275.677        0.519        0.450       28.470       32.889        1.335      336.464        7.782      865.954
01/04/2022  22:24:00       -6.449      -86.281      -26.588       99.221       92.955       47.753     9844.797     8640.627     2280.394        1.448        1.038       86.522       39.785        0.211      336.460        7.775      865.884
01/04/2022  22:25:00      -52.268      -43.142      -23.695       47.676       51.347       40.318     2272.958     2636.515     1625.537        0.584        0.327       67.773       10.439        0.024      336.365        7.617      865.942
01/04/2022  22:26:00      -30.202       24.604      -14.214       51.810       49.912       35.531     2684.316     2491.199     1262.462        0.408        0.322       38.956       32.927        0.714      336.256        7.434      865.997
01/04/2022  22:27:00      -21.099      -58.546      -10.689       64.218       42.171       29.937     4123.921     1778.385      896.225        0.539        0.340       62.231       26.067        0.175      336.324        7.548      866.060
01/04/2022  22:28:00     -120.278     -151.149      -58.516      215.775       98.524       59.762    46559.006     9706.915     3571.495        5.028        2.992      193.165       49.203        0.065      336.497        7.836      866.074
01/04/2022  22:29:00     -226.548      -74.998      -29.799      131.240      133.026       81.212    17223.810    17695.842     6595.403        4.967        2.076      238.640       72.629        0.093      336.457        7.767      866.007
01/04/2022  22:30:00     -173.442     -164.822      -50.435      216.495      124.945       59.597    46870.200    15611.353     3551.777        6.290        3.302      239.267       85.344        0.127      336.566        7.953      866.002
01/04/2022  22:31:00      -97.375       -6.802       -9.531       91.277       87.806       50.505     8331.544     7709.817     2550.747        1.410        0.930       97.612       25.144        0.066      336.508        7.856      865.977
01/04/2022  22:32:00     -144.660       60.644      -25.304       93.660       81.930       53.811     8772.191     6712.448     2895.665        2.181        0.919      156.857       29.455        0.035      336.439        7.739      865.902
01/04/2022  22:33:00     -174.024      -20.113      -43.153      128.078       71.925       46.673    16403.846     5173.219     2178.378        2.815        1.188      175.182       43.287        0.061      336.413        7.696      865.837
01/04/2022  22:34:00      -42.994      -27.948      -17.163       66.693      119.644       58.539     4448.017    14314.628     3426.777        1.255        1.109       51.279       43.049        0.705      336.393        7.663      865.798
01/04/2022  22:35:00      -14.177        9.148       -8.091       34.142       34.425       37.764     1165.664     1185.099     1426.111        0.206        0.189       16.873       19.459        1.330      336.374        7.632      865.779
01/04/2022  22:36:00        0.996      -16.029        2.176       42.712       30.114       27.915     1824.284      906.863      779.233        0.189        0.176       16.060       18.132        1.275      336.435        7.735      865.799
01/04/2022  22:37:00     -133.068       52.409       -8.590       61.428       38.237       34.066     3773.421     1462.050     1160.478        1.346        0.320      143.017       28.336        0.039      336.357        7.601      865.845
01/04/2022  22:38:00      -30.297        6.359        1.479       39.408       43.803       40.017     1552.985     1918.672     1601.353        0.302        0.254       30.957       12.871        0.173      336.379        7.641      865.842
01/04/2022  22:39:00      -15.885      103.428       -7.195       81.520       58.489       37.502     6645.530     3420.924     1406.418        1.124        0.574      104.641       18.629        0.032      336.452        7.762      865.830
01/04/2022  22:40:00      -89.839        8.993      -15.898       89.399       78.152       46.155     7992.250     6107.750     2130.255        1.231        0.812       90.288       39.456        0.191      336.363        7.613      865.832
01/04/2022  22:41:00     -122.084      -38.746      -13.336       65.407       52.022       45.537     4278.136     2706.288     2073.637        1.282        0.453      128.085       34.106        0.071      336.413        7.697      865.878
01/04/2022  22:42:00     -157.042      -38.124      -21.849      115.341       81.016       50.097    13303.572     6563.569     2509.719        2.448        1.119      161.604       51.498        0.102      336.402        7.677      865.867
01/04/2022  22:43:00      -56.870      -11.443       -4.445       63.140       48.025       31.351     3986.664     2306.409      982.882        0.533        0.364       58.010       31.819        0.301      336.354        7.598      865.817
01/04/2022  22:44:00      -37.066      -14.902      -11.611       74.688       71.168       30.823     5578.246     5064.880      950.064        0.666        0.580       39.949       19.837        0.247      336.365        7.617      865.821
01/04/2022  22:45:00     -191.463     -138.874      -39.130      142.197       80.469       48.552    20220.059     6475.273     2357.311        4.326        1.453      236.525       52.957        0.050      336.467        7.786      865.828
01/04/2022  22:46:00      -59.989      -27.668      -12.236       98.519       71.579       39.915     9705.966     5123.607     1593.215        1.047        0.821       66.062       37.039        0.314      336.411        7.694      865.836
01/04/2022  22:47:00        7.805        5.944       -6.469       50.854       68.684       32.559     2586.169     4717.526     1060.092        0.425        0.418        9.811       14.077        2.059      336.399        7.673      865.884
01/04/2022  22:48:00     -125.045      -97.077      -16.315       87.341      132.257       49.362     7628.477    17492.023     2436.559        2.644        1.378      158.304       20.842        0.017      336.497        7.838      865.914
01/04/2022  22:49:00     -273.309     -165.390      -61.429      152.729      172.060       83.410    23326.053    29604.730     6957.199        8.285        2.994      319.455       80.235        0.063      336.437        7.734      865.814
01/04/2022  22:50:00     -224.425      -28.039      -19.281      129.985      107.498       60.406    16896.056    11555.854     3648.869        4.181        1.605      226.170       60.338        0.071      336.431        7.723      865.890
01/04/2022  22:51:00       -1.605       -6.634        6.207       90.876       75.204       42.548     8258.403     5655.599     1810.366        0.790        0.786        6.825       17.811        6.810      336.405        7.683      865.940
01/04/2022  22:52:00      -26.891       14.380      -13.105       31.284       46.548       21.305      978.711     2166.758      453.902        0.235        0.180       30.495       19.978        0.429      336.541        7.912      866.015
01/04/2022  22:53:00      -28.008      -17.812      -11.325       47.004       50.065       27.537     2209.391     2506.469      758.278        0.335        0.274       33.192       29.231        0.776      336.412        7.695      866.046
01/04/2022  22:54:00      -63.742       61.612      -28.679       79.123       63.755       31.427     6260.378     4064.670      987.680        1.000        0.566       88.651       19.438        0.048      336.369        7.626      866.043
01/04/2022  22:55:00     -109.426       27.680      -35.539       86.459      106.451       50.883     7475.209    11331.724     2589.039        1.770        1.070      112.873       26.086        0.053      336.425        7.717      866.036
01/04/2022  22:56:00     -299.270      110.024      -12.871      138.848      132.486       76.697    19278.690    17552.667     5882.367        7.227        2.136      318.854       69.695        0.048      336.457        7.766      866.011
01/04/2022  22:57:00     -178.113       43.583      -37.968       76.197       96.609       50.286     5805.948     9333.274     2528.705        2.636        0.883      183.367       47.788        0.068      336.451        7.759      866.047
01/04/2022  22:58:00     -152.414       64.204       -2.128       94.845       69.254       48.928     8995.665     4796.132     2393.906        2.177        0.809      165.385       53.251        0.104      336.543        7.913      866.112
01/04/2022  22:59:00     -111.286       75.945      -27.613      121.124       96.362       50.186    14671.113     9285.644     2518.655        2.269        1.324      134.730       51.982        0.149      336.503        7.848      866.194
01/04/2022  23:00:00     -115.443       32.825       -9.125      113.273       98.232       58.604    12830.730     9649.531     3434.469        2.020        1.296      120.019       56.325        0.220      336.490        7.825      866.314
01/04/2022  23:01:00     -214.193        3.236      -33.506      122.602       79.584       49.261    15031.264     6333.631     2426.672        3.540        1.190      214.218       24.072        0.013      336.458        7.769      866.367
01/04/2022  23:02:00      -97.444      213.649      -26.485       75.205      117.358       45.235     5655.818    13772.861     2046.164        3.865        1.074      234.821       19.257        0.007      336.557        7.936      866.492
01/04/2022  23:03:00      -75.823      136.928      -31.795       93.899       59.777       36.435     8817.015     3573.313     1327.475        1.961        0.686      156.520       16.212        0.011      336.573        7.965      866.561
01/04/2022  23:04:00       91.543      233.226      -30.905       41.930       71.926       25.987     1758.139     5173.343      675.341        3.567        0.380      250.548       21.816        0.008      336.508        7.855      866.470
01/04/2022  23:05:00      129.603      219.534      -24.160       51.298      111.579       36.930     2631.517    12449.895     1363.796        4.101        0.822      254.935       45.417        0.032      336.343        7.579      866.459
01/04/2022  23:06:00       49.843      126.396       -3.486       77.118       76.813       43.995     5947.186     5900.281     1935.602        1.613        0.689      135.869       37.860        0.078      336.329        7.556      866.430
01/04/2022  23:07:00      -12.487      151.572      -16.881       74.371       72.222       34.557     5531.071     5216.066     1194.204        1.768        0.597      152.086       26.615        0.031      336.398        7.672      866.393
01/04/2022  23:08:00      -70.838      166.070      -24.647       85.734       59.064       32.595     7350.241     3488.556     1062.410        2.255        0.595      180.547        9.218        0.003      336.410        7.689      866.435
01/04/2022  23:09:00     -111.702       26.077      -16.720       71.996       44.399       41.087     5183.477     1971.234     1688.152        1.114        0.442      114.705       36.895        0.103      336.418        7.706      866.465
01/04/2022  23:10:00        5.791       -6.618        5.435       58.318       54.069       46.090     3401.042     2923.438     2124.314        0.428        0.422        8.794       30.807       12.272      336.422        7.713      866.491
01/04/2022  23:11:00     -106.462        0.829       -0.672      131.276       76.530       62.560    17233.274     5856.781     3913.713        1.916        1.350      106.465       54.479        0.262      336.389        7.656      866.477
01/04/2022  23:12:00     -156.405       21.924        4.503      141.668      128.728       85.316    20069.694    16570.965     7278.791        3.443        2.196      157.934       80.737        0.261      336.491        7.828      866.401
01/04/2022  23:13:00       72.700      136.548      -21.231       82.981       87.873       46.179     6885.893     7721.731     2132.534        2.056        0.837      154.696       44.502        0.083      336.470        7.790      866.290
01/04/2022  23:14:00     -127.938      115.177      -21.531      166.767      146.533       65.999    27811.186    21471.797     4355.846        4.186        2.682      172.145       42.286        0.060      336.424        7.713      866.216
01/04/2022  23:15:00     -191.654       45.840      -19.669      120.534       74.038       61.881    14528.544     5481.654     3829.273        3.152        1.192      197.059       40.821        0.043      336.458        7.770      866.189
01/04/2022  23:16:00      -99.133       10.702      -32.316      183.005      115.949       71.285    33490.722    13444.060     5081.577        3.149        2.601       99.710       48.054        0.232      336.414        7.696      866.168
01/04/2022  23:17:00     -179.330       58.255      -19.118       63.509       51.868       36.524     4033.448     2690.250     1333.979        2.199        0.403      188.555       24.594        0.017      336.399        7.671      866.183
01/04/2022  23:18:00     -214.082       48.571      -25.484      120.734       92.477       72.217    14576.817     8551.977     5215.277        3.859        1.417      219.522       46.345        0.045      336.369        7.621      866.188
01/04/2022  23:19:00     -227.096      117.263      -19.412      121.435      112.102       51.401    14746.494    12566.765     2642.062        4.782        1.498      255.584       40.330        0.025      336.414        7.696      866.153
01/04/2022  23:20:00     -172.913       79.394      -11.224      122.701       58.040       51.292    15055.582     3368.655     2630.852        2.869        1.053      190.269       43.943        0.053      336.348        7.585      866.091
01/04/2022  23:21:00     -166.680       14.545        2.776      112.548       56.994       41.702    12667.148     3248.296     1739.040        2.282        0.883      167.313       42.010        0.063      336.332        7.560      866.098
01/04/2022  23:22:00     -127.041      -25.727      -21.676       84.967       91.195       49.974     7219.461     8316.510     2497.411        1.765        0.902      129.620       40.023        0.095      336.442        7.742      866.075
01/04/2022  23:23:00       14.312       51.663       -3.889       28.468       58.911       29.024      810.441     3470.553      842.420        0.401        0.256       53.609       24.385        0.207      336.388        7.659      866.077
01/04/2022  23:24:00       13.993      183.831      -11.244       70.830       49.859       30.970     5016.849     2485.968      959.161        2.129        0.423      184.363       31.676        0.030      336.455        7.767      866.091
01/04/2022  23:25:00       54.833       83.118      -14.667       87.502       52.676       35.430     7656.640     2774.764     1255.304        1.091        0.584       99.576       47.569        0.228      336.453        7.764      866.056
01/04/2022  23:26:00       25.397       30.944      -25.897       81.933       44.444       24.208     6713.088     1975.259      586.033        0.577        0.464       40.032       18.288        0.209      336.488        7.823      866.049
01/04/2022  23:27:00       64.891      206.392      -25.037       71.427      103.476       45.264     5101.861    10707.297     2048.817        3.264        0.893      216.352       43.782        0.041      336.440        7.740      865.947
01/04/2022  23:28:00       13.621      -47.566      -20.176       39.854       53.620       27.454     1588.309     2875.073      753.730        0.404        0.261       49.478       15.900        0.103      336.377        7.641      865.949
01/04/2022  23:29:00      -85.919       18.280      -18.783       62.334       42.875       29.516     3885.486     1838.249      871.172        0.733        0.330       87.842       28.843        0.108      336.392        7.661      865.973
01/04/2022  23:30:00      -23.794       -8.305       -3.591       40.789       34.611       22.392     1663.751     1197.930      501.404        0.200        0.168       25.202       18.240        0.524      336.362        7.614      865.928
01/04/2022  23:31:00      -60.410      -31.567      -16.797       46.538       32.023       28.783     2165.831     1025.495      828.463        0.447        0.201       68.160       19.957        0.086      336.415        7.700      865.925
01/04/2022  23:32:00      -92.492       -0.152      -21.309       59.407       44.570       30.345     3529.157     1986.465      920.830        0.772        0.322       92.492       22.798        0.061      336.419        7.707      865.900
01/04/2022  23:33:00     -158.161       -7.296       -6.180      141.145       90.862       58.509    19921.837     8255.866     3423.275        2.835        1.580      158.330       55.862        0.124      336.345        7.582      865.904
01/04/2022  23:34:00     -193.631       33.629      -10.405      144.064       82.278       60.608    20754.349     6769.708     3673.305        3.496        1.560      196.529       60.051        0.093      336.499        7.839      865.922
01/04/2022  23:35:00     -168.094       38.656      -14.623       81.367       53.267       33.348     6620.550     2837.338     1112.060        2.026        0.528      172.481       30.089        0.030      336.411        7.693      865.982
01/04/2022  23:36:00      -63.618       13.584      -12.744       81.707       47.689       35.433     6675.984     2274.200     1255.463        0.730        0.510       65.052       32.409        0.248      336.370        7.625      865.995
01/04/2022  23:37:00     -170.458       11.559      -20.470      152.097      110.449       68.527    23133.407    12199.037     4695.980        3.481        2.001      170.850       58.409        0.117      336.494        7.832      865.995
01/04/2022  23:38:00     -272.014       36.610      -22.207      167.487      116.904       79.908    28052.034    13666.487     6385.364        6.196        2.405      274.467       78.617        0.082      336.434        7.730      865.898
01/04/2022  23:39:00     -261.002       71.431      -32.682      113.403       98.888       55.905    12860.142     9778.920     3125.414        5.002        1.288      270.600       32.267        0.014      336.434        7.730      865.949
01/04/2022  23:40:00      -57.624       20.580      -30.298       93.295       44.168       37.147     8704.023     1950.821     1379.897        0.835        0.602       61.188       31.198        0.260      336.435        7.735      866.008
01/04/2022  23:41:00      -34.808      -35.425      -21.351       62.286       55.031       27.840     3879.564     3028.419      775.072        0.530        0.384       49.664       19.106        0.148      336.463        7.781      866.016
01/04/2022  23:42:00     -104.464       27.474      -25.698       93.643       60.995       39.972     8768.934     3720.393     1597.753        1.320        0.704      108.016       44.019        0.166      336.488        7.823      866.039
01/04/2022  23:43:00     -104.306       77.605       -9.230      101.372       64.707       49.349    10276.234     4186.986     2435.362        1.694        0.845      130.009       52.169        0.161      336.546        7.920      866.043
01/04/2022  23:44:00        3.893      118.612      -22.159       64.566       69.794       42.973     4168.821     4871.206     1846.696        1.273        0.544      118.676       14.811        0.016      336.554        7.935      866.016
01/04/2022  23:45:00      -27.696      178.314      -15.839       58.078      104.894       44.114     3373.037    11002.706     1946.068        2.456        0.816      180.452       24.498        0.018      336.623        8.048      866.037
01/04/2022  23:46:00       16.700      224.098      -26.393       95.587       95.057       63.299     9136.797     9035.788     4006.792        3.668        1.109      224.719       32.799        0.021      336.604        8.016      866.036
01/04/2022  23:47:00      -10.904      170.708      -27.115       90.540      126.884       49.976     8197.481    16099.668     2497.570        2.839        1.340      171.056       31.105        0.033      336.599        8.009      866.092
01/04/2022  23:48:00      239.331      128.504      -32.686       87.927      111.269       54.309     7731.127    12380.809     2949.516        4.896        1.153      271.648       10.487        0.001      336.541        7.909      866.127
01/04/2022  23:49:00      259.639      160.724      -43.656       75.948       70.113       52.100     5768.165     4915.849     2714.387        5.427        0.670      305.360       31.526        0.011      336.624        8.047      866.145
01/04/2022  23:50:00       87.467      129.277      -24.920       56.274       44.347       35.390     3166.715     1966.637     1252.455        1.568        0.319      156.087       16.857        0.012      336.611        8.029      866.165
01/04/2022  23:51:00       69.371       24.688       -7.830       30.683       32.193       17.623      941.448     1036.364      310.587        0.389        0.114       73.633       11.581        0.025      336.577        7.974      866.160
01/04/2022  23:52:00       66.305       17.801      -15.885       42.574       33.193       34.690     1812.572     1101.754     1203.390        0.454        0.206       68.653       22.485        0.107      336.575        7.971      866.185
01/04/2022  23:53:00       48.570       45.691       -8.408       26.599       20.724       20.147      707.494      429.479      405.886        0.303        0.077       66.683       12.583        0.036      336.500        7.843      866.226
01/04/2022  23:54:00       98.127       68.557      -13.973       36.785       24.814       22.647     1353.146      615.743      512.873        0.850        0.124      119.704       13.593        0.013      336.498        7.840      866.215
01/04/2022  23:55:00       74.269       36.441      -10.798       63.245       22.691       17.771     3999.982      514.878      315.815        0.589        0.242       82.728       17.114        0.043      336.465        7.786      866.213
01/04/2022  23:56:00      -68.997       26.889      -20.162       36.034       24.035       21.268     1298.432      577.682      452.314        0.411        0.116       74.051       22.425        0.092      336.519        7.876      866.259
01/04/2022  23:57:00       -7.995      114.348      -11.126       21.667       32.106       16.489      469.447     1030.766      271.888        0.752        0.089      114.627        8.634        0.006      336.645        8.087      866.248
01/04/2022  23:58:00     -156.053      149.147      -31.971      159.267       88.188       44.852    25366.001     7777.055     2011.686        4.138        1.758      215.864       59.735        0.077      336.759        8.276      866.237
01/04/2022  23:59:00     -350.411       95.830      -41.436      167.881      191.908      100.997    28184.057    36828.607    10200.480       10.444        3.761      363.278       82.705        0.052      336.728        8.221      866.175
01/05/2022  00:00:00     -159.774       90.935      -30.137      142.110      126.645       72.089    20195.146    16038.922     5196.814        3.806        2.072      183.840       65.499        0.127      336.791        8.326      866.197
01/05/2022  00:01:00      -95.458       72.956       -7.612       78.393       96.457       40.902     6145.521     9304.047     1672.996        1.580        0.856      120.145       24.467        0.041      336.846        8.420      866.158
01/05/2022  00:02:00     -135.014       51.004      -12.547      110.605       71.564       49.123    12233.499     5121.426     2413.077        2.037        0.988      144.326       52.656        0.133      336.767        8.287      866.188
01/05/2022  00:03:00     -170.458       42.379      -10.739      185.672       89.758       58.666    34474.092     8056.554     3441.688        3.846        2.299      175.648       61.944        0.124      336.685        8.151      866.242
01/05/2022  00:04:00     -238.037      272.979      -24.999      123.654       94.883       62.456    15290.232     9002.828     3900.798        7.999        1.410      362.187       40.089        0.012      336.809        8.355      866.230
01/05/2022  00:05:00      -46.258       68.696       -4.837      128.069      143.561       59.178    16401.689    20609.623     3502.039        2.369        2.026       82.819       54.477        0.433      336.730        8.225      866.194
01/05/2022  00:06:00      -56.617       -8.449       12.447      122.307       67.592       52.657    14958.958     4568.645     2772.728        1.286        1.115       57.244       37.322        0.425      336.706        8.188      866.223
01/05/2022  00:07:00     -286.789       31.150      -17.408      198.010       94.160       67.984    39207.896     8866.129     4621.846        6.810        2.635      288.476       84.581        0.086      336.687        8.154      866.233
01/05/2022  00:08:00     -234.102       63.312       -0.063      137.752       92.267       66.677    18975.518     8513.232     4445.862        4.537        1.597      242.512       46.277        0.036      336.657        8.104      866.288
01/05/2022  00:09:00     -256.174       68.970        0.560      184.407      105.247       62.058    34005.947    11076.871     3851.207        5.965        2.447      265.296       56.825        0.046      336.602        8.012      866.286
01/05/2022  00:10:00     -230.236      109.732      -20.565      161.229      126.205       60.891    25994.831    15927.628     3707.654        5.554        2.282      255.048       54.148        0.045      336.626        8.052      866.290
01/05/2022  00:11:00     -314.990       59.893      -15.942      268.917      185.026       89.837    72316.305    34234.675     8070.630       10.882        5.731      320.634       85.274        0.071      336.631        8.061      866.284
01/05/2022  00:12:00     -321.835       73.044      -27.183      179.883      196.929       88.369    32357.903    38781.011     7809.019        9.429        3.947      330.020       86.834        0.069      336.636        8.068      866.255
01/05/2022  00:13:00     -242.247      -21.003      -14.736      192.963      141.758       83.403    37234.681    20095.451     6956.063        6.180        3.214      243.156       85.325        0.123      336.621        8.045      866.234
01/05/2022  00:14:00     -271.776      -20.929        3.588      163.597      100.760       94.166    26764.117    10152.633     8867.239        6.004        2.289      272.581       81.528        0.089      336.601        8.009      866.178
01/05/2022  00:15:00     -223.899       -0.303       -6.826      160.151      117.160       87.999    25648.194    13726.412     7743.736        4.864        2.356      223.899       77.591        0.120      336.560        7.944      866.151
01/05/2022  00:16:00     -158.990       14.772      -20.147      176.263       92.434       83.521    31068.616     8544.021     6975.781        3.624        2.329      159.675       69.635        0.190      336.526        7.887      866.214
01/05/2022  00:17:00     -278.493       60.010       -1.743      194.953      113.843       70.981    38006.805    12960.334     5038.282        6.857        2.800      284.885       72.336        0.064      336.545        7.918      866.198
01/05/2022  00:18:00     -233.625       83.206      -15.082      163.465      121.293       78.921    26720.767    14712.103     6228.467        5.469        2.383      248.000       61.149        0.061      336.566        7.954      866.171
01/05/2022  00:19:00     -159.992       65.673       13.570      131.448       91.691       59.321    17278.510     8407.322     3519.036        2.964        1.460      172.947       53.002        0.094      336.555        7.935      866.125
01/05/2022  00:20:00     -181.480       48.055       -6.545      192.785      104.632       71.283    37166.248    10947.877     5081.203        4.423        2.660      187.734       58.505        0.097      336.517        7.871      866.089
01/05/2022  00:21:00     -203.694       61.793       -9.651      149.921      106.963       72.887    22476.226    11441.055     5312.546        4.231        1.961      212.861       48.399        0.052      336.515        7.867      866.146
01/05/2022  00:22:00     -273.259      112.527      -10.122      171.940       85.522       78.568    29563.496     7314.075     6172.869        6.523        2.153      295.521       62.435        0.045      336.523        7.877      866.142
01/05/2022  00:23:00     -228.812       64.573      -13.909      237.880      137.142       88.877    56586.737    18807.834     7899.073        6.999        4.165      237.749       58.741        0.061      336.457        7.768      866.130
01/05/2022  00:24:00     -237.515       46.736      -18.501      255.048      117.591       96.977    65049.506    13827.597     9404.573        7.359        4.414      242.070       79.525        0.108      336.457        7.768      866.126
01/05/2022  00:25:00      -91.605        6.819      -27.918      171.732       88.910       60.525    29491.856     7905.056     3663.315        2.513        2.053       91.859       64.841        0.498      336.460        7.774      866.063
01/05/2022  00:26:00     -196.626       17.238      -11.017      150.172      105.916       59.061    22551.568    11218.104     3488.224        3.816        1.863      197.380       71.713        0.132      336.429        7.721      866.091
01/05/2022  00:27:00     -203.117        2.454        1.718      215.606      103.230      101.712    46485.824    10656.474    10345.360        5.436        3.374      203.132      113.378        0.312      336.423        7.711      866.107
01/05/2022  00:28:00     -153.168       -9.874      -28.115      155.138      122.571       73.243    24067.730    15023.671     5364.492        3.439        2.223      153.486       61.290        0.159      336.470        7.791      866.119
01/05/2022  00:29:00     -295.005      116.134      -17.586      204.049      154.802       92.851    41635.936    23963.738     8621.380        8.751        3.711      317.041       78.710        0.062      336.471        7.791      866.152
01/05/2022  00:30:00     -353.331      120.915        2.283      169.354      101.698       77.347    28680.769    10342.400     5982.604        9.223        2.250      373.448       74.858        0.040      336.502        7.843      866.159
01/05/2022  00:31:00     -286.040       61.810      -13.673      135.358       97.259       68.145    18321.896     9459.394     4643.710        5.912        1.621      292.642       66.165        0.051      336.476        7.799      866.160
01/05/2022  00:32:00     -234.541      116.948       -7.607      113.570       83.023       68.445    12898.166     6892.880     4684.668        4.661        1.224      262.081       60.457        0.053      336.536        7.900      866.176
01/05/2022  00:33:00     -164.915       33.896        3.176      108.426       81.488       55.626    11756.274     6640.363     3094.199        2.492        1.075      168.363       53.625        0.101      336.460        7.774      866.162
01/05/2022  00:34:00     -142.199        3.659       -6.639      129.190       66.965       57.522    16690.162     4484.310     3308.725        2.238        1.224      142.246       58.922        0.172      336.446        7.752      866.152
01/05/2022  00:35:00     -259.421       22.007      -10.300      200.099       95.550       73.943    40039.610     9129.833     5467.604        6.125        2.732      260.353       86.541        0.110      336.446        7.750      866.120
01/05/2022  00:36:00     -198.207       67.268      -20.811      181.512      132.204       77.827    32946.761    17477.895     6056.979        5.035        2.824      209.311       78.982        0.142      336.533        7.896      866.108
01/05/2022  00:37:00     -347.213       71.843      -14.434      223.873      124.436       94.240    50119.289    15484.197     8881.252       10.019        3.724      354.568       95.492        0.073      336.520        7.876      866.059
01/05/2022  00:38:00     -305.314       35.187      -32.632      152.988      137.043       81.488    23405.237    18780.905     6640.291        7.216        2.441      307.335       68.585        0.050      336.526        7.885      866.074
01/05/2022  00:39:00     -254.917       64.091       -5.534      142.468       65.390       39.540    20297.204     4275.799     1563.427        4.762        1.307      262.850       50.510        0.037      336.553        7.930      866.082
01/05/2022  00:40:00     -150.338      -23.450       -4.676      131.606       66.607       56.525    17320.040     4436.530     3195.124        2.406        1.248      152.156       54.570        0.129      336.514        7.864      866.069
01/05/2022  00:41:00     -148.187       51.491        1.095      101.259       69.689       55.644    10253.395     4856.544     3096.298        2.141        0.910      156.879       48.758        0.097      336.554        7.931      866.073
01/05/2022  00:42:00     -175.022      -11.245        1.216      140.354       73.419       71.148    19699.292     5390.309     5062.053        3.045        1.508      175.383       61.617        0.123      336.473        7.796      866.067
01/05/2022  00:43:00     -283.360      -10.035      -22.144      160.983       75.128       80.757    25915.390     5644.224     6521.617        5.948        1.904      283.538       86.574        0.093      336.467        7.784      866.054
01/05/2022  00:44:00     -181.142      -12.788      -22.349      106.738       67.165       48.877    11393.027     4511.074     2388.923        2.588        0.915      181.593       48.884        0.072      336.495        7.833      866.037
01/05/2022  00:45:00     -174.277      -30.675      -20.367      134.616       67.596       74.703    18121.565     4569.173     5580.534        2.999        1.414      176.956       70.547        0.159      336.521        7.877      866.016
01/05/2022  00:46:00     -112.964       -0.821        2.185      123.634       70.061       56.368    15285.452     4908.551     3177.381        1.806        1.169      112.967       55.985        0.246      336.514        7.865      866.019
01/05/2022  00:47:00     -262.429      -33.385      -21.954      103.304       88.055       51.106    10671.722     7753.667     2611.796        4.575        1.052      264.544       48.178        0.033      336.514        7.863      866.006
01/05/2022  00:48:00     -238.764      -28.015      -10.010      157.971      114.078       72.028    24954.701    13013.726     5188.101        5.052        2.158      240.402       78.602        0.107      336.554        7.931      865.984
01/05/2022  00:49:00     -310.485       22.881      -19.260      187.463      115.138       90.823    35142.262    13256.799     8248.886        7.696        2.832      311.326       73.019        0.055      336.562        7.945      865.961
01/05/2022  00:50:00     -355.911      113.978      -10.235      160.204      117.058       66.007    25665.356    13702.638     4356.966        9.174        2.186      373.716       55.560        0.022      336.606        8.019      865.955
01/05/2022  00:51:00     -192.876        5.599       -5.955      133.824       92.418       73.652    17908.995     8541.044     5424.593        3.457        1.594      192.957       63.936        0.110      336.610        8.027      865.901
01/05/2022  00:52:00     -235.455       75.352      -21.701      100.986      103.550       48.317    10198.246    10722.512     2334.515        4.242        1.163      247.218       44.896        0.033      336.657        8.103      865.904
01/05/2022  00:53:00      -94.734       18.875       -4.666      120.089       60.571       44.841    14421.309     3668.901     2010.710        1.472        1.005       96.596       38.627        0.160      336.577        7.973      865.923
01/05/2022  00:54:00     -161.376      -26.231       -7.043       77.717       65.106       31.344     6039.939     4238.733      982.476        1.902        0.563      163.493       32.730        0.040      336.618        8.041      865.917
01/05/2022  00:55:00     -123.967       11.329      -19.897       82.849       51.526       27.623     6864.002     2654.971      763.005        1.309        0.514      124.484       33.158        0.071      336.658        8.108      865.923
01/05/2022  00:56:00      -78.793       14.424      -15.862       80.379       51.723       35.272     6460.753     2675.247     1244.119        0.852        0.519       80.103       26.883        0.113      336.634        8.069      865.932
01/05/2022  00:57:00     -184.584       52.436       -4.523       99.966       52.178       40.933     9993.264     2722.589     1675.513        2.561        0.720      191.887       43.609        0.052      336.613        8.033      865.934
01/05/2022  00:58:00       -7.846        6.529        5.339       82.674       81.934       55.725     6834.935     6713.190     3105.264        0.839        0.833       10.207       48.440       22.522      336.600        8.012      865.914
01/05/2022  00:59:00     -213.409       -1.532      -19.257      132.191       78.234       52.775    17474.503     6120.626     2785.157        3.614        1.319      213.414       42.602        0.040      336.665        8.117      865.917
01/05/2022  01:00:00     -318.564        6.116      -26.408       81.094       80.609       43.722     6576.292     6497.810     1911.590        5.860        0.749      318.622       42.868        0.018      336.630        8.056      865.902
01/05/2022  01:01:00     -234.528       -2.432        4.781      109.673       74.914       61.682    12028.221     5612.157     3804.699        3.823        1.072      234.541       60.821        0.067      336.644        8.082      865.877
01/05/2022  01:02:00     -208.888      -31.918      -13.897      121.241       71.153       66.840    14699.331     5062.742     4467.616        3.453        1.211      211.312       64.185        0.092      336.661        8.111      865.867
01/05/2022  01:03:00     -101.944       45.551      -12.873       66.068       50.759       24.179     4365.024     2576.506      584.621        1.008        0.376      111.658       21.004        0.035      336.562        7.949      865.862
01/05/2022  01:04:00     -132.112       51.122        2.350       51.231       51.178       31.275     2624.611     2619.209      978.122        1.315        0.311      141.658       29.947        0.045      336.543        7.916      865.871
01/05/2022  01:05:00     -200.895       53.151      -12.779       87.517       50.708       36.443     7659.278     2571.285     1328.094        2.745        0.578      207.807       33.158        0.025      336.481        7.809      865.863
01/05/2022  01:06:00      -55.820       17.642      -11.309       52.797       58.963       41.384     2787.522     3476.644     1712.616        0.576        0.399       58.542       30.048        0.263      336.572        7.964      865.855
01/05/2022  01:07:00     -148.633       84.201      -15.108      101.687       72.408       41.081    10340.154     5242.918     1687.629        2.334        0.864      170.826       35.431        0.043      336.570        7.959      865.863
01/05/2022  01:08:00      -53.783       99.417      -23.377       47.824       53.206       46.354     2287.180     2830.920     2148.683        1.029        0.363      113.033       30.507        0.073      336.591        7.997      865.848
01/05/2022  01:09:00     -198.419       53.476      -39.693      193.441       82.381       62.004    37419.411     6786.559     3844.485        4.592        2.403      205.499       60.569        0.087      336.528        7.888      865.847
01/05/2022  01:10:00     -142.840       10.216       -2.710      153.869      104.732       75.154    23675.669    10968.764     5648.192        3.040        2.015      143.204       45.476        0.101      336.523        7.882      865.849
01/05/2022  01:11:00     -202.105       36.141      -40.178      158.160       78.634       61.920    25014.439     6183.369     3834.037        3.939        1.752      205.311       17.743        0.007      336.496        7.834      865.836
01/05/2022  01:12:00     -254.230       69.652        5.478      211.616      103.035       71.313    44781.158    10616.114     5085.606        6.499        3.024      263.599       73.806        0.078      336.508        7.855      865.840
01/05/2022  01:13:00     -231.230       97.925       -8.575      124.455       99.532       69.965    15488.930     9906.660     4895.054        4.670        1.515      251.111       63.168        0.063      336.577        7.970      865.846
01/05/2022  01:14:00     -157.369       18.215       -2.493      130.178       90.170       71.243    16946.358     8130.601     5075.539        2.762        1.508      158.420       66.927        0.178      336.461        7.775      865.862
01/05/2022  01:15:00     -182.279      -17.284      -24.801      164.026       89.027       71.301    26904.470     7925.892     5083.870        3.702        1.996      183.096       80.307        0.192      336.465        7.781      865.873
01/05/2022  01:16:00     -200.375       60.456      -28.290      145.532       90.854       58.044    21179.528     8254.416     3369.124        3.870        1.640      209.297       47.174        0.051      336.513        7.862      865.853
01/05/2022  01:17:00      -70.415       10.298       14.461      130.878       92.618       72.548    17129.130     8578.028     5263.273        1.812        1.549       71.164       62.918        0.782      336.493        7.831      865.864
01/05/2022  01:18:00     -164.411       43.946       -3.990      124.801       90.180       57.742    15575.169     8132.443     3334.133        2.800        1.352      170.183       63.789        0.140      336.670        8.127      865.826
01/05/2022  01:19:00      -63.604       75.363        6.260      143.123      101.373       67.669    20484.064    10276.479     4579.118        2.255        1.767       98.615       59.097        0.359      336.631        8.062      865.850
01/05/2022  01:20:00     -112.107       20.939        7.340      157.730      121.168       86.261    24878.665    14681.668     7440.968        3.002        2.350      114.046       60.427        0.281      336.585        7.985      865.883
01/05/2022  01:21:00     -311.589        6.205       -9.776      233.569      167.475      103.175    54554.259    28047.729    10645.140        9.522        4.662      311.651       86.254        0.077      336.765        8.284      865.851
01/05/2022  01:22:00     -467.820      136.389       -7.497      272.730      153.386      109.499    74381.718    23527.304    11990.139       17.369        5.495      487.296      133.045        0.075      336.965        8.617      865.823
01/05/2022  01:23:00     -417.308       63.766      -18.397      311.692      168.197      106.955    97151.945    28290.217    11439.324       15.769        6.844      422.152      109.281        0.067      336.930        8.559      865.863
01/05/2022  01:24:00     -320.421      180.712      -46.587      129.176      121.229       63.969    16686.539    14696.563     4092.032        8.648        1.774      367.867       38.992        0.011      336.973        8.631      865.963
01/05/2022  01:25:00     -258.817       97.399      -27.299      144.984       98.440       75.525    21020.494     9690.413     5703.977        5.681        1.821      276.537       60.207        0.047      336.878        8.472      865.995
01/05/2022  01:26:00      -42.135       43.027      -22.892      117.050       56.120       47.583    13700.658     3149.427     2264.130        1.163        0.956       60.222       37.976        0.398      336.866        8.454      866.021
01/05/2022  01:27:00     -135.997       17.838       -9.622       98.739       70.952       48.651     9749.354     5034.193     2366.914        1.803        0.858      137.162       44.396        0.105      336.820        8.376      866.034
01/05/2022  01:28:00     -177.030       51.152       -6.996      168.841       93.639       58.238    28507.136     8768.270     3391.642        3.733        2.033      184.272       41.453        0.051      336.789        8.323      866.051
01/05/2022  01:29:00     -173.117       24.484       -6.554      177.774      114.156      102.564    31603.488    13031.535    10519.456        4.287        2.758      174.840       93.106        0.284      336.779        8.307      866.075
01/05/2022  01:30:00     -172.099       -1.560       -4.059      151.325      145.069       94.859    22899.303    21045.038     8998.185        4.128        2.647      172.106       78.960        0.210      336.815        8.368      866.039
01/05/2022  01:31:00     -155.400      125.018      -33.178      208.097      129.249       78.668    43304.445    16705.371     6188.620        5.353        3.310      199.446       61.634        0.095      336.926        8.553      866.071
01/05/2022  01:32:00     -200.547       26.259      -11.280      158.580      118.050       60.885    25147.654    13935.827     3707.012        4.191        2.140      202.259       50.442        0.062      337.087        8.823      866.037
01/05/2022  01:33:00     -287.487       16.895       -8.516      197.478      109.612       81.391    38997.440    12014.866     6624.547        7.031        2.882      287.983       69.883        0.059      336.939        8.574      866.030
01/05/2022  01:34:00     -136.632       84.811       -3.417      119.678       72.493       46.325    14322.856     5255.214     2146.019        2.379        1.086      160.815       48.532        0.091      336.968        8.626      866.044
01/05/2022  01:35:00     -141.963      195.850      -30.592      108.703      101.573       42.600    11816.359    10317.003     1814.718        4.169        1.197      241.890       37.322        0.024      336.967        8.621      866.157
01/05/2022  01:36:00      -46.931      303.006      -42.588      100.743      150.592       67.607    10149.079    22678.015     4570.680        6.661        1.870      306.619       46.992        0.023      336.973        8.631      866.185
01/05/2022  01:37:00     -125.559      181.616      -23.407      123.621      152.654       60.334    15282.064    23303.264     3640.183        4.575        2.111      220.792       53.290        0.058      336.972        8.628      866.269
01/05/2022  01:38:00      -26.823       93.045      -13.711       78.561       66.144       41.487     6171.906     4375.013     1721.136        1.091        0.613       96.834        6.441        0.004      336.991        8.665      866.298
01/05/2022  01:39:00     -100.613      161.962      -32.736       77.904       92.517       42.537     6068.981     8559.404     1809.399        2.693        0.822      190.669       35.781        0.035      337.048        8.757      866.297
01/05/2022  01:40:00      -91.379      109.565      -23.334       86.691       72.654       49.610     7515.309     5278.637     2461.175        1.807        0.763      142.670       36.908        0.067      337.064        8.785      866.291
01/05/2022  01:41:00      -45.816      143.666      -15.622      100.916       79.923       58.236    10184.008     6387.610     3391.464        2.147        0.998      150.795       37.332        0.061      336.977        8.639      866.292
01/05/2022  01:42:00      -90.390      205.885      -29.629      109.509      118.545       47.995    11992.308    14053.023     2303.533        3.989        1.417      224.854       30.761        0.019      337.016        8.702      866.257
01/05/2022  01:43:00     -170.964       84.537      -33.835      108.765       62.847       52.059    11829.783     3949.718     2710.119        2.800        0.924      190.723       53.034        0.077      336.860        8.444      866.234
01/05/2022  01:44:00     -110.901       55.925       -2.161      188.929      103.243       61.027    35694.118    10659.157     3724.286        3.275        2.504      124.204       71.605        0.332      336.823        8.379      866.217
01/05/2022  01:45:00     -234.727      107.454      -20.269      151.278      102.852       62.993    22885.044    10578.577     3968.148        5.224        1.872      258.153       67.215        0.068      336.779        8.305      866.202
01/05/2022  01:46:00     -375.182      107.929      -19.579      161.949      132.532       64.949    26227.393    17564.743     4218.308       10.039        2.401      390.397       63.288        0.026      336.752        8.261      866.204
01/05/2022  01:47:00     -304.829      125.257        4.349      146.339      109.787       80.805    21415.078    12053.100     6529.507        7.431        2.000      329.560       85.211        0.067      336.738        8.239      866.213
01/05/2022  01:48:00     -144.219       20.475      -26.762      194.428       85.598       69.751    37802.242     7327.010     4865.175        3.596        2.500      145.665       88.032        0.365      336.699        8.174      866.199
01/05/2022  01:49:00     -225.472      113.105      -12.708      147.087      104.991       71.585    21634.676    11023.075     5124.442        5.078        1.889      252.251       63.628        0.064      336.776        8.303      866.213
01/05/2022  01:50:00     -329.977      105.222       -3.592      131.011       89.059       55.814    17163.810     7931.469     3115.227        7.408        1.411      346.348       56.596        0.027      336.723        8.214      866.221
01/05/2022  01:51:00     -196.577       83.937       -5.392      101.624       56.576       44.409    10327.505     3200.823     1972.153        3.061        0.775      213.748       41.187        0.037      336.789        8.323      866.169
01/05/2022  01:52:00     -291.856       94.907       -2.828      116.299      117.927       60.878    13525.436    13906.687     3706.092        6.266        1.557      306.900       52.095        0.029      336.685        8.149      866.186
01/05/2022  01:53:00     -350.052       52.570      -25.203      183.673      130.633       93.119    33735.812    17064.995     8671.146        9.269        2.974      353.977       94.489        0.071      336.705        8.184      866.227
01/05/2022  01:54:00     -427.581       31.102      -14.102      223.817      110.985       98.390    50094.218    12317.752     9680.663       12.803        3.605      428.710       94.395        0.048      336.733        8.229      866.190
01/05/2022  01:55:00     -173.311       35.360       -6.108      181.575      128.831       83.979    32969.485    16597.520     7052.420        4.396        2.831      176.882       82.507        0.218      336.747        8.254      866.175
01/05/2022  01:56:00     -156.266      116.946      -17.358      193.090      117.284       62.716    37283.708    13755.449     3933.259        4.667        2.749      195.180       75.199        0.148      336.711        8.195      866.220
01/05/2022  01:57:00     -195.075       38.662      -12.361      133.832      109.846       66.001    17910.946    12066.142     4356.155        3.701        1.717      198.870       62.303        0.098      336.643        8.083      866.253
01/05/2022  01:58:00     -344.004      146.572      -12.216      140.085       96.201       74.410    19623.861     9254.570     5536.900        8.719        1.721      373.928       73.308        0.038      336.686        8.152      866.255
01/05/2022  01:59:00     -324.108       85.955       19.404      186.058      108.453       82.402    34617.487    11762.086     6790.054        8.298        2.658      335.312       90.092        0.072      336.650        8.091      866.256
01/05/2022  02:00:00     -253.608      103.576      -13.449      137.503       98.919       70.244    18907.106     9785.005     4934.171        5.442        1.681      273.943       65.849        0.058      336.612        8.029      866.244
01/05/2022  02:01:00     -304.759       95.870      -14.267      147.922       91.462       64.155    21881.048     8365.247     4115.814        6.831        1.718      319.483       56.047        0.031      336.580        7.976      866.223
01/05/2022  02:02:00     -289.203       72.252       -3.517      101.367       96.187       61.500    10275.227     9252.020     3782.261        5.609        1.165      298.092       59.335        0.040      336.633        8.063      866.199
01/05/2022  02:03:00     -128.733       -3.297      -13.941      142.469       84.047       75.649    20297.453     7063.954     5722.812        2.492        1.654      128.775       65.284        0.257      336.655        8.100      866.219
01/05/2022  02:04:00     -125.732       11.672        0.321      121.033      106.913       58.003    14649.076    11430.465     3364.391        2.269        1.472      126.272       60.920        0.233      336.642        8.081      866.259
01/05/2022  02:05:00     -201.781       34.831      -15.467      156.198       93.049       76.839    24397.933     8658.090     5904.157        4.056        1.948      204.765       69.534        0.115      336.598        8.007      866.300
01/05/2022  02:06:00     -117.301       51.230      -13.424      170.430       89.879       65.176    29046.266     8078.235     4247.846        2.896        2.069      128.000       29.802        0.054      336.634        8.066      866.266
01/05/2022  02:07:00     -384.289      117.622      -29.567      227.383      171.910       86.458    51702.880    29553.086     7474.923       12.554        4.437      401.886       96.569        0.058      336.652        8.095      866.252
01/05/2022  02:08:00     -574.943      130.708        6.987      278.034      176.800      110.734    77302.685    31258.266    12262.072       23.424        6.041      589.613      107.361        0.033      336.671        8.127      866.200
01/05/2022  02:09:00     -480.901       74.673      -11.141      356.590      183.471      121.737   127156.640    33661.687    14819.959       20.627        8.782      486.664      140.100        0.083      336.632        8.063      866.180
01/05/2022  02:10:00     -433.141      118.267       -7.319      241.560      133.915      109.035    58351.320    17933.240    11888.591       14.490        4.409      448.997       85.949        0.037      336.628        8.055      866.175
01/05/2022  02:11:00     -387.575       80.802       16.528      283.273      183.398      119.478    80243.468    33634.818    14275.074       14.256        6.408      395.908      123.799        0.098      336.599        8.007      866.140
01/05/2022  02:12:00     -527.072      150.201      -19.623      211.519      169.038      107.761    44740.188    28573.900    11612.513       19.282        4.246      548.056      103.593        0.036      336.603        8.013      866.098
01/05/2022  02:13:00     -441.792      140.737       -9.026      229.477      149.541      106.419    52659.852    22362.581    11325.025       15.069        4.317      463.667       93.893        0.041      336.618        8.039      866.073
01/05/2022  02:14:00     -458.369      207.091      -31.783      187.614      152.942       96.102    35199.150    23391.273     9235.652       16.090        3.391      502.980       80.828        0.026      336.597        8.004      866.055
01/05/2022  02:15:00     -348.690      144.781      -14.722      190.092      212.223      111.396    36134.886    45038.655    12409.057       11.816        4.679      377.553       97.037        0.066      336.590        7.992      866.044
01/05/2022  02:16:00     -477.151      230.457      -17.423      269.427      194.829      113.525    72590.993    37958.500    12887.993       20.224        6.172      529.890      101.590        0.037      336.639        8.074      866.044
01/05/2022  02:17:00     -472.921       56.259       -5.076      254.488      144.140       94.023    64763.966    20776.417     8840.407       16.060        4.719      476.256       81.489        0.029      336.615        8.035      866.023
01/05/2022  02:18:00     -371.224       59.483      -21.764      219.940      152.531      102.644    48373.809    23265.670    10535.857       11.198        4.109      375.959      102.647        0.075      336.644        8.082      866.019
01/05/2022  02:19:00     -508.746       22.621      -19.208      265.304      179.652      123.176    70386.328    32274.950    15172.265       18.875        5.892      509.248      100.725        0.039      336.628        8.056      866.026
01/05/2022  02:20:00     -414.821       49.836      -12.124      218.711      159.944       86.324    47834.299    25581.977     7451.881       12.777        4.043      417.804       80.564        0.037      336.602        8.011      866.047
01/05/2022  02:21:00     -337.158       57.851      -13.304      286.322      143.677      116.549    81980.500    20642.987    13583.586       11.668        5.810      342.085      100.333        0.086      336.651        8.095      866.069
01/05/2022  02:22:00     -360.131       76.761       -7.458      215.084      123.259      104.390    46260.963    15192.891    10897.289       10.398        3.618      368.221       82.591        0.050      336.711        8.193      866.113
01/05/2022  02:23:00     -406.081       90.196      -30.875      195.483      116.333       75.908    38213.635    13533.414     5762.042       11.574        2.875      415.978       69.099        0.028      336.738        8.238      866.111
01/05/2022  02:24:00     -124.150       30.283      -17.649      223.518      113.047       80.928    49960.112    12779.551     6549.397        4.295        3.464      127.790       74.232        0.337      336.677        8.138      866.093
01/05/2022  02:25:00     -295.156       44.077      -18.049      170.780       90.439       65.704    29165.736     8179.207     4316.986        6.552        2.083      298.429       44.731        0.022      336.663        8.113      866.122
01/05/2022  02:26:00     -491.790      199.087      -13.020      247.964      199.432       96.777    61486.364    39772.992     9365.808       19.612        5.531      530.560       79.131        0.022      336.691        8.159      866.216
01/05/2022  02:27:00     -319.968       50.348        9.532      315.288      172.744      126.128    99406.704    29840.606    15908.275       12.505        7.258      323.905      142.613        0.194      336.695        8.168      866.235
01/05/2022  02:28:00     -319.680       83.220      -13.862      308.201      157.345      111.058    94987.944    24757.336    12333.837       12.067        6.604      330.334      128.634        0.152      336.722        8.213      866.226
01/05/2022  02:29:00     -278.545       31.284      -10.441      283.273      154.019      103.745    80243.506    23721.932    10762.942        9.668        5.736      280.296      117.618        0.176      336.716        8.201      866.205
01/05/2022  02:30:00     -174.500       47.999        2.901      293.613      166.563      115.628    86208.834    27743.167    13369.784        8.002        6.366      180.981       97.067        0.288      336.729        8.224      866.208
01/05/2022  02:31:00     -290.394       45.563        8.627      292.310      172.836      125.425    85445.296    29872.320    15731.366       10.874        6.552      293.947      103.542        0.124      336.702        8.179      866.213
01/05/2022  02:32:00     -178.415       26.714       -9.340      294.864      146.516       99.899    86944.805    21467.082     9979.712        7.549        5.920      180.404      108.369        0.361      336.741        8.245      866.232
01/05/2022  02:33:00     -443.060      134.910      -43.625      246.994      180.451      108.541    61006.005    32562.739    11781.143       16.086        5.267      463.144       98.320        0.045      336.769        8.292      866.180
01/05/2022  02:34:00     -454.030      116.553      -28.201      255.521      167.572      114.380    65290.836    28080.383    13082.801       16.347        5.323      468.751      109.555        0.055      336.719        8.207      866.148
01/05/2022  02:35:00     -383.342       50.997       -1.722      311.281      148.455      116.352    96895.849    22038.873    13537.831       14.099        6.624      386.719      113.422        0.086      336.732        8.228      866.039
01/05/2022  02:36:00     -253.741       78.606       -9.912      207.405      159.232       99.613    43016.979    25354.754     9922.785        7.446        3.915      265.638       72.524        0.075      336.752        8.262      866.015
01/05/2022  02:37:00     -451.404       99.266      -36.618      283.090      179.416       96.197    80140.029    32190.122     9253.862       16.825        6.079      462.189       92.067        0.040      336.787        8.322      866.007
01/05/2022  02:38:00     -353.351      169.678      -12.125      227.042      196.956      104.095    51547.869    38791.566    10835.859       12.747        5.059      391.979      122.127        0.097      336.828        8.388      866.052
01/05/2022  02:39:00     -335.218       90.641      -13.201      297.355      188.538      108.297    88420.130    35546.436    11728.149       12.820        6.785      347.257       95.411        0.075      336.793        8.331      866.103
01/05/2022  02:40:00     -120.010       42.590      -20.359      235.561      148.529      102.456    55489.057    22060.814    10497.272        5.232        4.402      127.343       70.239        0.304      336.752        8.262      866.020
01/05/2022  02:41:00     -453.355       82.556      -26.159      233.693      172.341      115.588    54612.254    29701.251    13360.514       15.533        4.884      460.810       95.492        0.043      336.741        8.243      865.962
01/05/2022  02:42:00     -357.063       60.637      -37.922      335.186      200.001      118.563   112349.579    40000.463    14057.124       14.948        8.320      362.176      104.717        0.084      336.701        8.177      866.052
01/05/2022  02:43:00     -622.919      147.202      -42.697      228.331      199.375      109.881    52134.977    39750.471    12073.873       25.772        5.198      640.076       83.874        0.017      336.675        8.134      866.055
01/05/2022  02:44:00     -514.838      200.120      -39.196      310.317      204.568      127.373    96296.390    41847.874    16223.971       23.048        7.718      552.364       96.313        0.030      336.734        8.231      866.062
01/05/2022  02:45:00     -293.815       61.528        3.881      268.319      166.747      129.991    71995.244    27804.602    16897.566       10.339        5.835      300.188      103.896        0.120      336.735        8.233      866.049
01/05/2022  02:46:00     -400.961       97.612      -32.146      215.560      150.331       95.876    46466.085    22599.264     9192.248       12.478        3.913      412.671       90.077        0.048      336.715        8.200      866.064
01/05/2022  02:47:00     -426.079      116.832      -34.438      255.766      140.798       97.674    65416.465    19824.103     9540.128       14.556        4.739      441.807      100.065        0.051      336.694        8.163      866.057
01/05/2022  02:48:00     -195.019       -7.000       -4.406      233.396      133.545      127.984    54473.918    17834.204    16379.921        6.338        4.434      195.145      128.742        0.435      336.691        8.161      865.969
01/05/2022  02:49:00     -645.208      153.096      -22.141      295.752      177.077      124.379    87468.952    31356.368    15470.243       28.723        6.715      663.123       96.461        0.021      336.764        8.281      866.006
01/05/2022  02:50:00     -670.407      157.434      -46.577      324.772      194.775      108.718   105476.865    37937.217    11819.627       31.579        7.762      688.645      104.628        0.023      336.794        8.333      866.005
01/05/2022  02:51:00     -349.239      132.521      -32.207      272.684      190.567       97.211    74356.757    36315.602     9450.043       13.032        6.006      373.537      100.321        0.072      336.815        8.366      866.041
01/05/2022  02:52:00     -426.586      101.678        1.455      269.400      187.560      130.099    72576.502    35178.831    16925.864       15.848        6.234      438.536      106.251        0.059      336.841        8.410      866.010
01/05/2022  02:53:00     -224.520      112.161      -32.524      260.238      180.501      108.623    67723.700    32580.717    11798.927        8.805        5.605      250.976       89.157        0.126      336.829        8.391      865.972
01/05/2022  02:54:00     -444.837      113.509      -19.174      260.599      125.707       87.455    67912.043    15802.206     7648.389       15.123        4.568      459.091       82.812        0.033      336.789        8.325      865.993
01/05/2022  02:55:00     -362.679       99.596       -4.148      219.046      150.275       99.776    47980.932    22582.653     9955.325       11.098        4.026      376.106       94.555        0.063      336.750        8.258      866.040
01/05/2022  02:56:00     -306.142       81.256        9.187      221.835      147.644       94.199    49210.780    21798.775     8873.452        9.013        3.994      316.741       67.499        0.045      336.818        8.372      866.039
01/05/2022  02:57:00     -440.879       85.247      -20.285      163.549      134.958       97.216    26748.260    18213.755     9451.004       12.822        2.721      449.044       65.175        0.021      336.789        8.324      866.068
01/05/2022  02:58:00     -354.125      134.036       -3.876      232.712      161.425       95.155    54154.992    26058.167     9054.538       11.631        4.463      378.643      113.516        0.090      336.860        8.444      866.055
01/05/2022  02:59:00     -429.314      150.098      -19.173      224.402      144.461       84.409    50356.324    20868.881     7124.932       14.276        3.918      454.797      100.914        0.049      336.804        8.349      866.021
01/05/2022  03:00:00     -204.635        1.025      -10.812      273.178      134.040       97.778    74626.469    17966.623     9560.585        7.205        5.108      204.638       98.794        0.233      336.777        8.304      865.984
01/05/2022  03:01:00     -404.532       59.115      -10.403      200.401      132.816       96.622    40160.608    17640.118     9335.887       11.718        3.357      408.828       87.839        0.046      336.773        8.296      865.976
01/05/2022  03:02:00     -422.777      101.331      -15.728      169.850       96.783       68.116    28849.063     9366.943     4639.821       11.605        2.143      434.751       55.103        0.016      336.714        8.198      865.941
01/05/2022  03:03:00     -187.991       66.477       -7.518      188.439       99.839       73.486    35509.142     9967.762     5400.204        4.534        2.544      199.399       67.166        0.113      336.688        8.157      865.924
01/05/2022  03:04:00     -258.661       76.126      -10.222      223.701      119.708       74.600    50042.356    14329.904     5565.101        7.136        3.497      269.631       58.074        0.046      336.720        8.209      865.879
01/05/2022  03:05:00     -239.294      113.079       -1.423      132.708      115.373       69.846    17611.483    13310.820     4878.429        5.292        1.790      264.667       64.457        0.059      336.750        8.258      865.880
01/05/2022  03:06:00     -313.242       87.471        0.974      177.117      130.304       90.898    31370.598    16979.037     8262.433        8.118        2.831      325.226       73.023        0.050      336.643        8.080      865.878
01/05/2022  03:07:00     -411.262       68.603       -6.431      218.044      133.600       88.359    47543.388    17848.949     7807.380       12.353        3.660      416.945       85.931        0.042      336.666        8.119      865.861
01/05/2022  03:08:00     -244.027      122.488        0.828      188.583      149.532      108.493    35563.531    22359.842    11770.699        7.211        3.485      273.043       85.046        0.097      336.649        8.091      865.853
01/05/2022  03:09:00     -358.503      134.632       -9.229      220.056      146.456       72.023    48424.800    21449.281     5187.286       11.088        3.753      382.949       77.308        0.041      336.709        8.191      865.848
01/05/2022  03:10:00     -314.817      137.267      -27.160      161.971      112.841       84.883    26234.599    12733.124     7205.124        8.242        2.309      343.441       75.328        0.048      336.680        8.141      865.848
01/05/2022  03:11:00     -394.460      134.176      -16.850      166.348      145.289       76.656    27671.614    21108.826     5876.190       11.426        2.733      416.656       61.127        0.022      336.617        8.036      865.812
01/05/2022  03:12:00     -313.649       90.706       14.006      223.566      135.613      100.380    49981.774    18390.761    10076.201        9.261        3.922      326.502      102.969        0.099      336.631        8.061      865.822
01/05/2022  03:13:00     -489.170       77.799      -13.354      179.743      152.900       87.870    32307.671    23378.448     7721.150       15.445        3.170      495.318       78.944        0.025      336.609        8.025      865.832
01/05/2022  03:14:00     -200.674       51.665        0.715      183.224      113.594       76.057    33571.042    12903.571     5784.604        4.759        2.613      207.218       80.163        0.150      336.617        8.037      865.840
01/05/2022  03:15:00     -234.963       84.631       -3.222      179.114      142.329       83.925    32081.841    20257.450     7043.418        6.087        2.969      249.740       80.113        0.103      336.690        8.158      865.835
01/05/2022  03:16:00     -280.635       75.503       -8.055      166.528      133.250       78.515    27731.504    17755.563     6164.645        6.808        2.583      290.614       77.223        0.071      336.703        8.181      865.785
01/05/2022  03:17:00     -367.074      104.292      -10.753      234.996      115.957       81.376    55223.242    13446.115     6622.092       11.050        3.765      381.602       60.764        0.025      336.655        8.099      865.806
01/05/2022  03:18:00     -334.209      142.877       -5.101      185.962      158.514       76.377    34581.775    25126.595     5833.478        9.883        3.277      363.469       62.125        0.029      336.645        8.084      865.790
01/05/2022  03:19:00     -244.091       68.285      -11.183      248.873      148.582      114.509    61937.715    22076.723    13112.298        8.073        4.856      253.463      105.189        0.172      336.631        8.061      865.800
01/05/2022  03:20:00     -208.278       33.699      -32.746      218.794      122.157       84.173    47871.012    14922.397     7085.087        5.772        3.494      210.987       68.720        0.106      336.605        8.018      865.843
01/05/2022  03:21:00      -97.512       66.936      -19.572      204.736      136.259       94.791    41916.786    18566.410     8985.351        4.191        3.473      118.275       88.697        0.562      336.540        7.911      865.865
01/05/2022  03:22:00     -339.843       75.487      -36.580      211.567      143.994       93.818    44760.610    20734.319     8801.775        9.840        3.715      348.125       76.752        0.049      336.564        7.948      865.887
01/05/2022  03:23:00     -371.530       66.403      -24.906      148.547      136.756       81.524    22066.104    18702.272     6646.095        9.523        2.371      377.418       64.820        0.029      336.514        7.863      865.922
01/05/2022  03:24:00     -261.751       69.888      -12.318      236.908      113.383       89.108    56125.211    12855.695     7940.311        7.522        3.846      270.920       96.710        0.127      336.527        7.887      865.892
01/05/2022  03:25:00     -362.159       46.271      -16.952      252.260      159.612       98.922    63635.328    25476.093     9785.562       11.622        4.945      365.103       90.356        0.061      336.509        7.856      865.897
01/05/2022  03:26:00     -228.847       70.037      -15.759      193.425      160.228       97.452    37413.137    25672.990     9496.893        6.504        3.629      239.325       90.137        0.142      336.555        7.933      865.903
01/05/2022  03:27:00     -267.265       77.577      -20.577      162.866      136.783       80.334    26525.264    18709.465     6453.618        6.477        2.584      278.296       78.736        0.080      336.470        7.790      865.908
01/05/2022  03:28:00     -214.530       86.819        2.127      202.018      129.681       94.973    40811.312    16817.245     9019.829        6.009        3.332      231.432       98.180        0.180      336.431        7.725      865.900
01/05/2022  03:29:00     -110.876       56.607       10.678      181.967      132.903       85.423    33112.159    17663.200     7297.074        3.683        2.904      124.491       88.745        0.508      336.416        7.701      865.877
01/05/2022  03:30:00     -363.768      112.443      -19.954      165.811      125.720       81.168    27493.341    15805.506     6588.292        9.762        2.494      380.750       70.775        0.035      336.431        7.723      865.866
01/05/2022  03:31:00     -187.924       76.046        4.216      185.734      123.731      104.515    34497.043    15309.283    10923.317        5.091        3.036      202.727       67.166        0.110      336.452        7.760      865.852
01/05/2022  03:32:00     -258.313      109.394       12.168      231.872      124.246       90.262    53764.596    15437.138     8147.235        7.808        3.867      280.522      103.464        0.136      336.512        7.861      865.845
01/05/2022  03:33:00     -246.609       77.368       12.965      191.389      132.149       75.090    36629.845    17463.391     5638.548        6.334        2.987      258.460       82.202        0.101      336.511        7.860      865.821
01/05/2022  03:34:00     -218.857       63.086      -22.004      154.923      107.636      102.720    24001.061    11585.610    10551.399        4.924        2.307      227.768       85.212        0.140      336.464        7.780      865.802
01/05/2022  03:35:00     -195.904       76.679       -7.319      250.578      138.468       93.648    62789.141    19173.352     8769.882        6.751        4.537      210.376       86.471        0.169      336.502        7.846      865.802
01/05/2022  03:36:00     -167.208       45.763      -18.447      226.801       94.395       90.732    51438.782     8910.453     8232.303        4.947        3.429      173.357       88.867        0.263      336.469        7.790      865.815
01/05/2022  03:37:00     -265.122      117.790       -9.119      186.320      149.654       82.671    34714.998    22396.466     6834.567        7.408        3.197      290.110       81.289        0.079      336.435        7.730      865.822
01/05/2022  03:38:00     -196.110       49.303       -4.486      168.507       98.841       75.033    28394.646     9769.552     5629.945        4.234        2.190      202.212       61.994        0.094      336.488        7.819      865.821
01/05/2022  03:39:00     -250.018       68.022      -24.694      101.291       81.383       49.887    10259.829     6623.120     2488.681        4.356        0.969      259.106       35.605        0.019      336.383        7.644      865.838
01/05/2022  03:40:00     -217.025       59.564      -21.619      173.676      106.613       63.406    30163.461    11366.257     4020.268        4.832        2.277      225.051       63.294        0.079      336.370        7.623      865.834
01/05/2022  03:41:00     -323.533       85.955      -17.075      145.900      107.630       66.560    21286.863    11584.182     4430.228        7.482        1.865      334.756       71.420        0.046      336.360        7.606      865.841
01/05/2022  03:42:00     -248.523       70.596      -35.962      173.012       93.966       82.558    29933.216     8829.590     6815.795        5.680        2.279      258.355       89.840        0.121      336.335        7.563      865.876
01/05/2022  03:43:00     -180.091       76.992       -9.445      173.982      103.228       56.018    30269.798    10655.999     3138.020        4.125        2.203      195.858       58.827        0.090      336.344        7.580      865.883
01/05/2022  03:44:00     -304.935      111.911      -11.197      129.040      124.929       76.225    16651.414    15607.275     5810.181        7.184        1.903      324.823       60.890        0.035      336.385        7.647      865.871
01/05/2022  03:45:00     -229.704       68.620        2.553      182.150      118.190       75.623    33178.540    13968.893     5718.847        5.516        2.643      239.735       81.090        0.114      336.328        7.553      865.885
01/05/2022  03:46:00     -272.285       77.876      -11.908      144.071      100.484       73.655    20756.450    10097.115     5425.015        5.831        1.814      283.202       66.807        0.056      336.363        7.611      865.878
01/05/2022  03:47:00     -106.813       39.305      -28.439      116.222       98.046       76.168    13507.513     9612.992     5801.604        2.134        1.446      113.815       59.201        0.271      336.384        7.646      865.873
01/05/2022  03:48:00     -397.247      163.626      -20.884      164.056      154.628       75.647    26914.257    23909.940     5722.446       12.077        2.827      429.626       70.622        0.027      336.397        7.666      865.860
01/05/2022  03:49:00     -307.523       36.417       -3.192      250.892      123.225       98.360    62946.817    15184.279     9674.723        9.184        4.390      309.672      103.499        0.112      336.449        7.753      865.850
01/05/2022  03:50:00     -188.334       65.175      -34.711      189.263      111.171       91.866    35820.454    12358.942     8439.390        4.876        2.831      199.293       80.878        0.165      336.446        7.750      865.860
01/05/2022  03:51:00     -287.890       91.390      -23.436      201.862      131.226       92.607    40748.107    17220.266     8576.138        7.915        3.327      302.048       65.855        0.048      336.451        7.758      865.890
01/05/2022  03:52:00     -291.148       84.479      -13.272      170.962      100.196       86.962    29227.926    10039.236     7562.404        6.945        2.341      303.157       75.856        0.063      336.502        7.843      865.915
01/05/2022  03:53:00     -320.106      128.001      -23.262      162.306      146.375       77.996    26343.209    21425.527     6083.406        8.661        2.693      344.750       67.348        0.038      336.508        7.854      865.939
01/05/2022  03:54:00     -219.783      114.970       -4.591      210.015      127.944       90.148    44106.127    16369.615     8126.604        6.506        3.430      248.037       75.625        0.093      336.519        7.875      865.944
01/05/2022  03:55:00     -113.944       37.405      -33.570      163.986      120.126       78.097    26891.450    14430.272     6099.184        3.146        2.371      119.926       62.412        0.271      336.495        7.833      865.968
01/05/2022  03:56:00     -181.285       51.733       15.033      143.238      101.900       86.367    20516.989    10383.577     7459.195        3.706        1.918      188.522       83.994        0.199      336.547        7.921      866.011
01/05/2022  03:57:00     -208.546       27.934        5.072      168.439       98.715       69.372    28371.737     9744.601     4812.469        4.361        2.146      210.409       74.460        0.125      336.496        7.834      866.023
01/05/2022  03:58:00      -79.377       25.255        5.190      130.429       98.430       77.949    17011.664     9688.392     6076.048        1.986        1.639       83.298       59.570        0.511      336.517        7.871      866.033
01/05/2022  03:59:00     -244.883       47.729      -24.198      143.192      102.716       65.506    20504.026    10550.656     4290.973        4.908        1.767      249.491       64.229        0.066      336.516        7.869      866.009
01/05/2022  04:00:00     -256.384       92.801       -5.955      209.839      122.926       82.535    44032.285    15110.835     6812.022        7.016        3.298      272.663       88.610        0.106      336.600        8.009      865.977
01/05/2022  04:01:00     -262.746       65.616       -5.037      194.543      105.406       85.681    37846.883    11110.442     7341.294        6.482        2.815      270.815       82.184        0.092      336.660        8.108      865.927
01/05/2022  04:02:00     -239.030       31.204       -4.181      154.821       81.018       69.033    23969.680     6563.899     4765.623        4.671        1.765      241.058       69.889        0.084      336.619        8.042      865.932
01/05/2022  04:03:00     -207.677       59.779      -22.332      156.416       76.202       54.864    24466.011     5806.724     3010.095        4.024        1.664      216.110       54.573        0.064      336.635        8.069      865.917
01/05/2022  04:04:00     -267.542      114.482        7.813      177.567      112.076       74.974    31530.014    12561.048     5621.090        6.722        2.486      291.006       77.795        0.071      336.681        8.145      865.870
01/05/2022  04:05:00     -207.702      105.313      -17.190      151.471      100.152       68.174    22943.477    10030.345     4647.716        4.607        1.881      232.875       64.960        0.078      336.675        8.134      865.860
01/05/2022  04:06:00     -291.537       86.975        5.894      158.918      101.791       72.689    25254.900    10361.449     5283.623        6.674        2.045      304.234       61.824        0.041      336.652        8.096      865.842
01/05/2022  04:07:00     -277.963       61.455        9.728      206.534      115.535       85.338    42656.179    13348.394     7282.560        7.220        3.164      284.676       90.364        0.101      336.636        8.070      865.821
01/05/2022  04:08:00     -314.366       64.954       -8.950      213.025      126.646       83.784    45379.815    16039.277     7019.760        8.577        3.422      321.006       85.068        0.070      336.615        8.034      865.803
01/05/2022  04:09:00     -356.265       94.735      -12.970      229.022      163.248       87.086    52451.000    26650.012     7584.043       11.136        4.334      368.646       79.912        0.047      336.624        8.048      865.810
01/05/2022  04:10:00     -219.927       -0.795      -11.245      166.398      106.083       81.341    27688.422    11253.498     6616.391        4.702        2.278      219.929       78.013        0.126      336.588        7.990      865.812
01/05/2022  04:11:00     -159.391       69.644        5.712      142.001       91.730       75.540    20164.410     8414.358     5706.265        3.228        1.714      173.942       78.720        0.205      336.551        7.928      865.819
01/05/2022  04:12:00     -246.338       71.038      -30.920      118.359      100.114       67.300    14008.913    10022.840     4529.291        4.762        1.428      256.376       66.038        0.066      336.567        7.955      865.812
01/05/2022  04:13:00     -149.472       42.033       -3.175      159.275       79.791       73.529    25368.406     6366.561     5406.459        3.062        1.857      155.270       69.720        0.202      336.574        7.968      865.806
01/05/2022  04:14:00     -155.362       57.431      -15.526      130.612       58.743       54.072    17059.427     3450.695     2923.751        2.555        1.172      165.637       52.072        0.099      336.592        7.995      865.805
01/05/2022  04:15:00     -126.332       84.720      -11.056      139.045       74.060       64.526    19333.590     5484.924     4163.541        2.612        1.449      152.109       72.991        0.230      336.592        7.997      865.807
01/05/2022  04:16:00     -120.001       48.129      -39.701      137.863      104.843       68.928    19006.232    10992.043     4751.121        2.651        1.737      129.293       55.924        0.187      336.573        7.967      865.814
01/05/2022  04:17:00     -148.421       29.386       -7.608      125.842       99.287       63.140    15836.245     9857.850     3986.721        2.631        1.484      151.302       62.101        0.168      336.547        7.922      865.834
01/05/2022  04:18:00     -271.706       60.742       -2.165      142.998      105.907       73.066    20448.544    11216.391     5338.634        5.725        1.850      278.413       74.155        0.071      336.577        7.971      865.867
01/05/2022  04:19:00     -241.323       27.349       -6.153      188.638       86.361       77.090    35584.249     7458.174     5942.842        5.399        2.449      242.868       93.182        0.147      336.554        7.933      865.878
01/05/2022  04:20:00     -133.011       51.535        3.867      182.015       73.407       62.750    33129.600     5388.623     3937.542        3.140        2.123      142.646       82.191        0.332      336.534        7.901      865.856
01/05/2022  04:21:00     -192.158       41.492      -15.901      130.782       80.037       78.791    17103.842     6405.896     6208.095        3.430        1.486      196.587       73.984        0.142      336.526        7.885      865.847
01/05/2022  04:22:00     -177.419       69.344      -27.621      246.774      129.860       70.776    60897.362    16863.500     5009.227        5.989        4.139      190.489       86.354        0.206      336.570        7.959      865.874
01/05/2022  04:23:00     -367.610      105.409      -31.339      175.720      114.319       69.462    30877.446    13068.879     4824.984        9.799        2.439      382.424       50.106        0.017      336.541        7.910      865.908
01/05/2022  04:24:00     -196.759       58.245      -30.522      147.173      118.714       76.636    21659.927    14093.092     5873.137        4.232        2.081      205.199       62.052        0.091      336.580        7.975      865.933
01/05/2022  04:25:00     -358.001      139.431      -17.645      110.873      106.161       57.487    12292.830    11270.120     3304.710        8.739        1.343      384.195       51.315        0.018      336.471        7.791      865.958
01/05/2022  04:26:00     -139.556       50.193       -3.316      130.714      115.140       67.930    17086.057    13257.194     4614.519        2.848        1.748      148.308       55.603        0.141      336.550        7.925      865.964
01/05/2022  04:27:00      -75.398       47.341        1.087      136.568      105.704       77.113    18650.772    11173.303     5946.427        2.184        1.789       89.028       69.623        0.612      336.541        7.912      865.943
01/05/2022  04:28:00     -154.921       79.697      -19.001      105.614       65.326       54.599    11154.270     4267.477     2981.104        2.455        0.920      174.219       36.802        0.045      336.523        7.880      865.920
01/05/2022  04:29:00      -51.324       16.287      -19.979      101.056       98.392       76.130    10212.281     9681.066     5795.718        1.449        1.284       53.846       51.362        0.910      336.491        7.828      865.898
01/05/2022  04:30:00     -340.068       78.534      -54.684      191.591       93.992       59.226    36707.064     8834.525     3507.772        8.692        2.452      349.018       53.111        0.023      336.605        8.017      865.931
01/05/2022  04:31:00     -227.701       55.818      -22.920      153.108       79.010       63.703    23441.926     6242.603     4058.112        4.461        1.687      234.443       73.060        0.097      336.542        7.912      865.949
01/05/2022  04:32:00     -200.561       34.839      -16.351      186.788      133.335       75.746    34889.915    17778.308     5737.432        5.005        2.920      203.565       80.447        0.156      336.536        7.904      865.969
01/05/2022  04:33:00     -233.139       66.286      -20.878      138.376      106.367       73.619    19148.006    11313.952     5419.747        4.753        1.794      242.379       44.043        0.033      336.585        7.984      865.945
01/05/2022  04:34:00     -105.113       22.124      -16.306      149.044       87.188       76.174    22214.095     7601.678     5802.420        2.370        1.781      107.416       73.670        0.470      336.558        7.939      865.906
01/05/2022  04:35:00     -205.143       33.992      -28.105      181.740      123.300       76.259    33029.558    15202.953     5815.432        4.903        2.702      207.940       59.777        0.083      336.559        7.941      865.886
01/05/2022  04:36:00      -76.333       20.489        2.464      131.899       81.639       70.154    17397.356     6664.889     4921.559        1.761        1.449       79.035       51.765        0.429      336.617        8.040      865.880
01/05/2022  04:37:00     -188.502       37.147      -13.525      166.305       93.461       64.664    27657.216     8734.866     4181.445        3.883        2.029      192.127       48.199        0.063      336.572        7.963      865.885
01/05/2022  04:38:00     -221.249      101.335      -13.713      129.611       78.764       61.136    16799.089     6203.808     3737.639        4.307        1.337      243.352       52.550        0.047      336.572        7.963      865.883
01/05/2022  04:39:00     -244.500       99.845      -21.965      134.419      131.967       72.712    18068.474    17415.211     5287.018        5.549        2.039      264.100       65.979        0.062      336.543        7.914      865.878
01/05/2022  04:40:00     -149.358       79.548      -14.804      118.002       79.835       61.445    13924.405     6373.695     3775.445        2.646        1.204      169.221       38.104        0.051      336.569        7.958      865.875
01/05/2022  04:41:00     -165.781       39.544      -19.682      213.328      125.247       73.083    45508.659    15686.792     5341.170        4.797        3.327      170.432       78.447        0.212      336.489        7.823      865.876
01/05/2022  04:42:00     -411.376      100.124       -0.491      232.673      116.063       96.553    54136.617    13470.729     9322.463       12.808        3.846      423.385       84.386        0.040      336.757        8.269      865.856
01/05/2022  04:43:00     -271.239       92.195      -10.374      185.895      104.156       78.980    34556.906    10848.377     6237.894        6.690        2.582      286.479       67.785        0.056      336.656        8.103      865.853
01/05/2022  04:44:00     -243.522       58.604      -10.381      115.509       75.220       50.383    13342.219     5658.122     2538.398        4.219        1.077      250.475       46.680        0.035      336.595        8.002      865.832
01/05/2022  04:45:00     -223.883       58.860      -13.623      132.344       92.652       68.804    17515.009     8584.398     4733.958        4.230        1.542      231.491       63.471        0.075      336.617        8.038      865.828
01/05/2022  04:46:00     -179.832        1.779      -15.046      139.206      102.110       81.295    19378.278    10426.547     6608.917        3.448        1.821      179.841       74.535        0.172      336.567        7.955      865.841
01/05/2022  04:47:00     -152.135       58.178      -20.415      249.834      105.632       72.849    62417.154    11158.165     5306.956        5.290        3.944      162.879       73.230        0.202      336.627        8.054      865.851
01/05/2022  04:48:00     -261.114      109.330      -11.915      144.878      112.709       61.358    20989.595    12703.389     3764.749        5.886        1.873      283.079       58.826        0.043      336.591        7.995      865.847
01/05/2022  04:49:00     -218.213      100.767       -4.127      154.938      106.993       69.540    24005.669    11447.510     4835.854        4.903        2.014      240.356       84.637        0.124      336.601        8.012      865.859
01/05/2022  04:50:00     -269.649       72.142      -27.143      171.588      101.403       69.814    29442.590    10282.567     4874.002        6.162        2.230      279.133       49.709        0.032      336.600        8.009      865.888
01/05/2022  04:51:00     -125.026       42.943        9.595      175.294      120.101       77.083    30728.079    14424.193     5941.815        3.432        2.555      132.195       79.227        0.359      336.644        8.084      865.891
01/05/2022  04:52:00     -126.791       -4.359      -15.327      137.627       91.606       73.516    18941.259     8391.665     5404.646        2.453        1.637      126.866       73.708        0.338      336.601        8.012      865.894
01/05/2022  04:53:00     -243.351       92.117      -12.476      184.500      156.050       74.485    34040.219    24351.713     5548.025        6.589        3.197      260.202       58.849        0.051      336.643        8.081      865.895
01/05/2022  04:54:00     -267.667       42.402      -26.710      137.336       95.575       67.578    18861.071     9134.528     4566.790        5.335        1.628      271.005       55.354        0.042      336.620        8.044      865.909
01/05/2022  04:55:00     -173.004       52.288      -26.811      156.243      102.016       59.876    24411.962    10407.232     3585.111        3.589        1.920      180.733       52.733        0.085      336.600        8.010      865.920
01/05/2022  04:56:00     -244.135       88.687      -12.242      205.369      121.936       75.272    42176.245    14868.405     5665.920        6.515        3.136      259.744       70.607        0.074      336.730        8.226      865.949
01/05/2022  04:57:00     -372.067       78.101      -15.382      150.069      130.799       93.930    22520.689    17108.441     8822.939        9.660        2.423      380.175       85.510        0.051      336.752        8.262      865.979
01/05/2022  04:58:00     -104.961       -1.353       -5.747      174.482       94.410       81.573    30443.796     8913.218     6654.120        2.852        2.301      104.970       82.324        0.615      336.723        8.215      865.989
01/05/2022  04:59:00     -148.948       52.132        5.142      169.207       97.406       74.928    28631.088     9487.892     5614.240        3.432        2.187      157.808       62.320        0.156      336.726        8.221      865.994
01/05/2022  05:00:00     -274.427       25.546      -22.723      170.447      101.118       88.324    29052.349    10224.760     7801.041        6.177        2.354      275.613       89.016        0.104      336.748        8.257      866.023
01/05/2022  05:01:00     -298.933       63.348        0.202      171.871      128.779       84.453    29539.578    16584.080     7132.241        7.330        2.663      305.571       79.306        0.067      336.789        8.323      866.058
01/05/2022  05:02:00     -283.061       52.456        0.529      214.209      125.199       78.558    45885.369    15674.737     6171.373        7.529        3.387      287.881       92.207        0.103      336.798        8.338      866.076
01/05/2022  05:03:00     -143.986       46.525       -0.325      121.672       90.290       63.408    14804.182     8152.249     4020.526        2.493        1.349      151.316       64.210        0.180      336.739        8.242      866.102
01/05/2022  05:04:00     -159.567        5.254        0.652      174.546       99.706       74.200    30466.260     9941.311     5505.666        3.569        2.296      159.653       84.693        0.281      336.733        8.231      866.114
01/05/2022  05:05:00     -287.604       48.954       -5.882      169.217      113.393       70.956    28634.236    12857.989     5034.728        6.583        2.326      291.741       82.228        0.079      336.841        8.409      866.085
01/05/2022  05:06:00     -224.556       80.037      -24.459      117.883       78.779       50.497    13896.429     6206.144     2549.989        4.004        1.133      238.393       48.480        0.041      336.754        8.266      866.085
01/05/2022  05:07:00     -168.228       48.894       -2.431      121.027       91.490       57.577    14647.525     8370.508     3315.140        2.851        1.317      175.189       48.043        0.075      336.691        8.160      866.106
01/05/2022  05:08:00     -206.201       38.393        2.434      182.220       81.063       71.269    33204.064     6571.227     5079.282        4.442        2.243      209.745       63.361        0.091      336.748        8.256      866.146
01/05/2022  05:09:00     -197.316       58.333       -7.414      106.533       84.188       57.603    11349.383     7087.674     3318.161        3.207        1.088      205.758       53.777        0.068      336.718        8.204      866.165
01/05/2022  05:10:00     -142.007       37.274        3.081      111.284       82.988       48.752    12384.040     6887.012     2376.798        2.160        1.082      146.818       38.559        0.069      336.701        8.179      866.186
01/05/2022  05:11:00     -240.074       90.280      -27.074      121.625       80.486       55.984    14792.532     6477.943     3134.168        4.546        1.220      256.488       49.601        0.037      336.697        8.169      866.193
01/05/2022  05:12:00     -177.172        6.955       -7.281      195.588       81.395       80.575    38254.850     6625.116     6492.323        4.142        2.569      177.308       81.858        0.213      336.734        8.232      866.194
01/05/2022  05:13:00      -33.568       23.351        2.653       97.406       82.304       60.399     9487.857     6773.999     3647.997        1.079        0.995       40.891       52.052        1.620      336.701        8.180      866.232
01/05/2022  05:14:00     -105.898       50.264       -8.716      130.108       75.642       50.000    16928.221     5721.768     2499.970        1.948        1.257      117.221       57.648        0.242      336.669        8.126      866.277
01/05/2022  05:15:00     -219.530      100.499      -14.853       89.139       60.248       50.224     7945.693     3629.852     2522.456        3.630        0.705      241.440       53.274        0.049      336.662        8.110      866.292
01/05/2022  05:16:00     -243.725      105.381      -19.222      100.326       78.670       65.894    10065.365     6188.909     4342.015        4.573        1.030      265.532       55.453        0.044      336.676        8.135      866.303
01/05/2022  05:17:00     -203.120       86.336       -2.480      137.637       96.255       59.653    18943.979     9264.932     3558.457        4.024        1.588      220.707       64.006        0.084      336.730        8.226      866.309
01/05/2022  05:18:00     -334.190      119.671       -4.567      143.135      125.377       73.016    20487.512    15719.271     5331.396        8.377        2.077      354.971       68.603        0.037      336.848        8.422      866.298
01/05/2022  05:19:00     -224.690       53.208      -20.679      136.751       87.233       59.019    18700.763     7609.547     3483.258        4.176        1.490      230.904       54.603        0.056      336.780        8.310      866.313
01/05/2022  05:20:00     -248.295      124.538      -23.172      120.121       90.336       59.862    14429.074     8160.664     3583.448        5.193        1.309      277.778       45.880        0.027      336.800        8.341      866.329
01/05/2022  05:21:00     -287.528       27.543      -30.948       70.612       68.500       62.280     4986.107     4692.261     3878.815        4.897        0.678      288.844       30.878        0.011      336.771        8.293      866.343
01/05/2022  05:22:00      -79.368        7.013       -0.019       94.516       61.613       48.452     8933.319     3796.128     2347.585        1.071        0.754       79.678       43.201        0.294      336.739        8.242      866.353
01/05/2022  05:23:00     -263.819       80.506      -27.766      131.187       98.734       49.190    17209.952     9748.363     2419.642        5.311        1.469      275.829       51.477        0.035      336.793        8.330      866.368
01/05/2022  05:24:00     -133.073       50.195      -13.974      111.112       74.281       50.088    12345.818     5517.706     2508.768        2.039        1.019      142.225       30.177        0.045      336.743        8.250      866.393
01/05/2022  05:25:00      -70.495       30.895       -0.376       94.509       71.384       49.234     8931.885     5095.716     2424.016        1.118        0.823       76.967       38.317        0.248      336.742        8.246      866.426
01/05/2022  05:26:00     -275.755       78.267      -10.559      134.224       84.354       58.311    18016.167     7115.576     3400.132        5.540        1.427      286.647       42.376        0.022      336.747        8.254      866.444
01/05/2022  05:27:00     -204.057       62.851      -15.886      106.598       99.541       52.017    11363.051     9908.398     2705.728        3.491        1.199      213.517       43.272        0.041      336.757        8.271      866.463
01/05/2022  05:28:00     -202.685       65.670      -18.767      126.922       72.426       65.531    16109.266     5245.518     4294.304        3.569        1.282      213.058       63.532        0.089      336.709        8.191      866.483
01/05/2022  05:29:00     -195.099       49.338       -5.331      104.565       80.609       71.587    10933.814     6497.785     5124.684        3.154        1.128      201.241       67.421        0.112      336.725        8.217      866.505
01/05/2022  05:30:00      -76.313       35.437       -8.871       84.167       86.890       57.521     7084.130     7549.888     3308.669        1.255        0.897       84.139       49.506        0.346      336.724        8.219      866.499
01/05/2022  05:31:00     -220.720       54.845      -17.213      121.366       87.650       50.811    14729.705     7682.584     2581.766        3.850        1.250      227.431       39.398        0.030      336.710        8.191      866.484
01/05/2022  05:32:00     -191.476       82.311      -32.361       88.270       45.950       48.349     7791.515     2111.359     2337.615        2.836        0.612      208.418       44.138        0.045      336.682        8.145      866.479
01/05/2022  05:33:00      -44.649        5.879      -13.014       87.396       51.334       58.318     7638.081     2635.184     3401.036        0.793        0.684       45.034       54.149        1.446      336.659        8.108      866.478
01/05/2022  05:34:00     -151.089       85.247       -8.255      126.955       96.236       53.410    16117.608     9261.405     2852.676        2.919        1.412      173.479       57.572        0.110      336.642        8.080      866.467
01/05/2022  05:35:00      -87.615       38.909       -9.793       79.780       53.978       43.366     6364.874     2913.652     1880.641        1.022        0.558       95.866       43.966        0.210      336.611        8.030      866.463
01/05/2022  05:36:00      -73.033       40.409      -18.733       69.402       51.237       35.379     4816.595     2625.215     1251.699        0.800        0.435       83.466       21.749        0.068      336.596        8.007      866.466
01/05/2022  05:37:00       -8.096      -28.122       -3.657       43.577       44.463       30.724     1898.961     1976.932      943.939        0.284        0.241       29.265        9.819        0.113      336.589        7.996      866.446
01/05/2022  05:38:00     -104.202        9.580        0.056       77.986       50.700       32.319     6081.834     2570.521     1044.505        1.032        0.485      104.642       29.801        0.081      336.591        7.998      866.454
01/05/2022  05:39:00     -162.282       20.893       -1.240      117.404       68.294       44.760    13783.585     4664.060     2003.425        2.361        1.023      163.621       47.706        0.085      336.589        7.992      866.496
01/05/2022  05:40:00     -131.608       87.513      -19.989       98.845       91.449       44.049     9770.270     8362.993     1940.344        2.272        1.004      158.048       51.960        0.108      336.632        8.063      866.483
01/05/2022  05:41:00     -208.252       76.347      -11.430      125.496       81.710       50.789    15749.316     6676.489     2579.530        3.716        1.250      221.806       41.696        0.035      336.613        8.031      866.483
01/05/2022  05:42:00      -59.698       42.091      -15.699       72.971       52.523       37.672     5324.758     2758.677     1419.203        0.754        0.475       73.044       15.922        0.048      336.601        8.013      866.494
01/05/2022  05:43:00      -33.472       -8.773        0.085       67.968       61.264       38.795     4619.710     3753.326     1505.091        0.554        0.494       34.603       29.724        0.738      336.605        8.021      866.482
01/05/2022  05:44:00     -114.960        4.702       -1.096       67.446       53.294       39.804     4548.898     2840.225     1584.319        1.110        0.449      115.056       31.213        0.074      336.645        8.087      866.472
01/05/2022  05:45:00      -96.243        2.163      -20.771       95.272       68.191       57.740     9076.827     4649.993     3333.963        1.338        0.853       96.268       44.608        0.215      336.627        8.057      866.489
01/05/2022  05:46:00     -176.967       20.206      -13.109      152.707       69.954       55.675    23319.296     4893.597     3099.754        3.160        1.566      178.117       58.716        0.109      336.623        8.049      866.466
01/05/2022  05:47:00     -161.524       46.576       -6.643       89.146       69.671       46.551     7946.932     4854.112     2166.962        2.163        0.748      168.105       40.834        0.059      336.650        8.094      866.416
01/05/2022  05:48:00     -147.069       43.392       -1.417      123.780       72.194       55.996    15321.421     5212.028     3135.571        2.359        1.183      153.337       44.558        0.084      336.609        8.026      866.392
01/05/2022  05:49:00     -143.972       20.044      -27.550       71.793       61.744       47.733     5154.264     3812.265     2278.432        1.656        0.562      145.360       25.303        0.030      336.591        7.997      866.385
01/05/2022  05:50:00     -153.380       49.924      -26.333      118.451       67.940       51.763    14030.611     4615.820     2679.421        2.401        1.066      161.301       38.935        0.058      336.563        7.949      866.349
01/05/2022  05:51:00     -223.047       38.551       -9.880       64.950       52.982       44.824     4218.513     2807.052     2009.159        3.018        0.452      226.354       37.519        0.027      336.604        8.017      866.311
01/05/2022  05:52:00      -68.598       25.976       -6.563       67.110       66.120       39.792     4503.759     4371.810     1583.417        0.794        0.523       73.351       26.432        0.130      336.584        7.984      866.308
01/05/2022  05:53:00      -53.649       11.578       -0.161       57.989       47.571       44.619     3362.766     2263.018     1990.861        0.531        0.381       54.884       32.320        0.347      336.554        7.936      866.320
01/05/2022  05:54:00      -93.210       41.492      -11.555       85.211       69.194       45.843     7260.983     4787.848     2101.544        1.234        0.708      102.028       24.345        0.057      336.638        8.074      866.353
01/05/2022  05:55:00     -123.803       24.848      -15.502       89.548       65.916       47.133     8018.756     4344.929     2221.515        1.538        0.729      126.272       47.472        0.141      336.615        8.036      866.360
01/05/2022  05:56:00      -73.363       17.164      -21.193       76.698       69.454       48.404     5882.652     4823.860     2342.903        0.959        0.652       75.344       44.232        0.345      336.563        7.950      866.371
01/05/2022  05:57:00     -133.010       46.991      -12.841       79.364       79.588       47.254     6298.578     6334.213     2232.898        1.746        0.743      141.066       40.981        0.084      336.596        8.002      866.359
01/05/2022  05:58:00     -151.431       40.120      -15.025      163.863       73.703       52.121    26851.041     5432.070     2716.616        2.988        1.750      156.656       65.532        0.175      336.638        8.075      866.327
01/05/2022  05:59:00      -91.218       16.613       10.313       76.989       72.158       40.880     5927.258     5206.806     1671.174        1.075        0.640       92.719       41.308        0.198      336.601        8.013      866.301
01/05/2022  06:00:00     -205.012       24.368        0.431       90.632       79.182       45.865     8214.182     6269.816     2103.636        2.960        0.829      206.455       34.354        0.028      336.602        8.013      866.302
01/05/2022  06:01:00     -243.687       58.358       -4.064      119.247       72.579       45.906    14219.810     5267.726     2107.359        4.220        1.080      250.577       44.670        0.032      336.628        8.055      866.312
01/05/2022  06:02:00     -231.037       42.588       -9.769      146.547       60.622       41.356    21475.894     3675.053     1710.294        4.107        1.343      234.929       48.139        0.042      336.624        8.049      866.306
01/05/2022  06:03:00     -308.479       21.918      -21.514       86.583       66.219       49.811     7496.553     4384.984     2481.143        5.523        0.718      309.257       35.485        0.013      336.673        8.129      866.326
01/05/2022  06:04:00     -254.430      162.023      -10.792       92.935       88.292       55.889     8636.914     7795.396     3123.539        5.533        0.978      301.639       51.849        0.030      336.660        8.109      866.355
01/05/2022  06:05:00     -220.767       48.006      -20.405      130.870       80.727       58.815    17126.942     6516.858     3459.187        3.928        1.355      225.927       50.026        0.049      336.628        8.057      866.395
01/05/2022  06:06:00     -232.723       89.701      -38.036      166.798      118.167       79.237    27821.646    13963.442     6278.434        5.585        2.403      249.412       70.247        0.079      336.663        8.114      866.423
01/05/2022  06:07:00      -66.022       36.472       -5.942      162.106       71.393       60.752    26278.235     5096.976     3690.745        2.039        1.753       75.426       61.818        0.672      336.642        8.082      866.470
01/05/2022  06:08:00     -129.188       52.361      -17.400       99.505       73.412       56.526     9901.329     5389.297     3195.225        1.911        0.924      139.396       53.958        0.150      336.643        8.083      866.515
01/05/2022  06:09:00     -210.824       88.449       -9.807      114.091       71.325       47.139    13016.672     5087.310     2222.060        3.634        1.016      228.627       38.638        0.029      336.623        8.048      866.532
01/05/2022  06:10:00     -120.748       27.467      -16.447      101.604       77.065       55.228    10323.464     5939.035     3050.133        1.746        0.966      123.832       50.038        0.163      336.625        8.052      866.534
01/05/2022  06:11:00     -175.271       67.178      -21.368       98.569      107.767       52.610     9715.785    11613.824     2767.781        2.989        1.205      187.704       31.090        0.027      336.698        8.173      866.543
01/05/2022  06:12:00     -205.703       88.401      -15.309       72.907       52.833       42.484     5315.375     2791.288     1804.865        3.014        0.496      223.893       25.956        0.013      336.609        8.023      866.554
01/05/2022  06:13:00      -59.881       33.122      -11.450       74.126       52.867       31.828     5494.734     2794.902     1013.034        0.706        0.465       68.431       23.449        0.117      336.622        8.048      866.559
01/05/2022  06:14:00     -140.112       63.694      -17.286       85.553       39.102       36.267     7319.307     1528.942     1315.322        1.707        0.508      153.910       40.186        0.068      336.598        8.008      866.567
01/05/2022  06:15:00     -135.105       53.110       -1.838       65.068       59.958       32.708     4233.802     3594.943     1069.799        1.499        0.445      145.169       22.693        0.024      336.561        7.946      866.564
01/05/2022  06:16:00     -138.866       54.131      -30.157       70.547       53.757       32.506     4976.841     2889.823     1056.616        1.602        0.446      149.044       16.399        0.012      336.581        7.979      866.587
01/05/2022  06:17:00     -174.895       33.109      -13.426      129.219       80.900       59.920    16697.676     6544.850     3590.405        2.934        1.342      178.001       46.038        0.067      336.582        7.979      866.584
01/05/2022  06:18:00     -235.624       67.041      -46.675      122.003       84.756       51.144    14884.687     7183.593     2615.716        4.343        1.234      244.976       50.162        0.042      336.676        8.134      866.569
01/05/2022  06:19:00     -154.474       57.902      -17.989       90.557       81.472       40.782     8200.553     6637.660     1663.183        2.202        0.825      164.969       30.935        0.035      336.576        7.971      866.558
01/05/2022  06:20:00     -205.622       51.493      -19.122       64.419       47.967       35.679     4149.747     2300.819     1273.012        2.651        0.386      211.972       31.216        0.022      336.543        7.913      866.548
01/05/2022  06:21:00      -81.677       -0.077      -10.489       62.384       39.861       30.753     3891.712     1588.896      945.723        0.660        0.321       81.677       24.088        0.087      336.485        7.817      866.561
01/05/2022  06:22:00     -163.712       40.636      -16.037       60.552       54.597       36.504     3666.577     2980.823     1332.516        1.834        0.399      168.680       35.784        0.045      336.655        8.102      866.567
01/05/2022  06:23:00     -229.556      105.399      -10.759      178.469      106.381       69.701    31851.180    11316.857     4858.165        5.596        2.401      252.597       71.349        0.080      336.733        8.231      866.549
01/05/2022  06:24:00     -211.216      127.819      -32.429      134.889       71.149       50.811    18195.079     5062.213     2581.785        4.392        1.292      246.880       42.749        0.030      336.786        8.319      866.534
01/05/2022  06:25:00     -130.112       53.254      -24.725       79.021       48.570       42.826     6244.303     2359.040     1834.051        1.540        0.522      140.588       33.502        0.057      336.593        8.000      866.572
01/05/2022  06:26:00      -69.313       30.625       -7.038       80.391       45.642       33.230     6462.760     2083.231     1104.234        0.772        0.483       75.777       32.151        0.180      336.583        7.983      866.598
01/05/2022  06:27:00     -159.760       51.707      -12.478       76.569       70.772       41.105     5862.762     5008.675     1689.616        2.045        0.628      167.919       44.749        0.071      336.652        8.097      866.623
01/05/2022  06:28:00      -90.755       43.951       -4.438       67.848       57.187       33.516     4603.311     3270.363     1123.323        0.959        0.450      100.838       30.447        0.091      336.648        8.092      866.643
01/05/2022  06:29:00      -85.887       22.188      -16.088       61.835       47.994       32.971     3823.612     2303.442     1087.057        0.767        0.361       88.707       24.876        0.079      336.614        8.035      866.652
01/05/2022  06:30:00      -37.182        9.424      -13.473       47.656       35.076       31.005     2271.140     1230.340      961.325        0.306        0.223       38.358       28.172        0.539      336.503        7.850      866.659
01/05/2022  06:31:00      -87.700        4.564      -20.681       71.805       34.458       38.094     5155.993     1187.372     1451.161        0.797        0.390       87.819       41.692        0.225      336.467        7.790      866.668
01/05/2022  06:32:00      -94.369       19.186      -21.431       55.820       38.548       21.823     3115.819     1485.934      476.223        0.740        0.254       96.299       18.377        0.036      336.500        7.845      866.659
01/05/2022  06:33:00      -97.659        7.407      -13.192       56.945       29.928       20.254     3242.691      895.662      410.216        0.716        0.227       97.939        5.586        0.003      336.512        7.866      866.636
01/05/2022  06:34:00      -92.406       18.913      -14.377       43.350       24.347       18.479     1879.225      592.795      341.471        0.596        0.141       94.321       12.371        0.017      336.464        7.782      866.602
01/05/2022  06:35:00      -69.400       17.388       -3.533       58.184       43.766       29.605     3385.372     1915.455      876.451        0.565        0.309       71.545       29.884        0.174      336.477        7.805      866.618
01/05/2022  06:36:00     -167.093       62.989       -1.189       64.075       75.731       33.123     4105.549     5735.145     1097.133        2.141        0.547      178.571       33.476        0.035      336.567        7.954      866.626
01/05/2022  06:37:00     -230.135       50.777      -12.582       59.499       50.662       35.680     3540.081     2566.682     1273.045        3.154        0.369      235.670       27.252        0.013      336.520        7.875      866.629
01/05/2022  06:38:00     -247.492      103.027       -2.883      122.950       76.537       55.381    15116.667     5857.940     3067.072        4.795        1.202      268.079       59.055        0.049      336.736        8.236      866.622
01/05/2022  06:39:00     -193.722      102.100      -22.124       66.440       66.901       42.848     4414.258     4475.702     1835.920        2.958        0.536      218.981       35.265        0.026      336.666        8.120      866.605
01/05/2022  06:40:00     -143.499       51.676       -5.362       92.474       65.643       35.002     8551.408     4308.982     1225.134        1.869        0.704      152.520       38.298        0.063      336.622        8.047      866.598
01/05/2022  06:41:00      -77.657        9.442       -4.656       79.031       41.139       35.196     6245.864     1692.451     1238.738        0.766        0.459       78.229       29.636        0.144      336.601        8.012      866.599
01/05/2022  06:42:00     -177.509        4.953        4.678      135.254       86.465       53.101    18293.538     7476.167     2819.711        3.007        1.429      177.578       58.366        0.108      336.630        8.061      866.605
01/05/2022  06:43:00     -210.664       32.535      -13.282      101.298       72.595       49.135    10261.249     5270.106     2414.250        3.178        0.897      213.161       39.630        0.035      336.744        8.250      866.619
01/05/2022  06:44:00     -149.579       61.127       -2.662       65.156       55.200       39.133     4245.319     3047.061     1531.379        1.747        0.441      161.587       25.243        0.024      336.733        8.233      866.622
01/05/2022  06:45:00     -149.520       66.373       -1.607       86.675       68.754       41.521     7512.503     4727.069     1723.967        2.036        0.698      163.590       31.761        0.038      336.643        8.083      866.607
01/05/2022  06:46:00     -197.520       15.404      -16.770       89.388       39.717       42.056     7990.191     1577.451     1768.738        2.543        0.567      198.120       41.890        0.045      336.622        8.045      866.585
01/05/2022  06:47:00     -181.525       17.814      -17.486       88.780       50.545       41.200     7881.833     2554.824     1697.423        2.285        0.607      182.397       37.061        0.041      336.571        7.962      866.587
01/05/2022  06:48:00     -134.873       46.446        1.086       95.231       56.284       39.118     9068.907     3167.895     1530.211        1.706        0.688      142.646       31.194        0.048      336.559        7.944      866.594
01/05/2022  06:49:00     -239.894       56.413       -0.548      109.928       81.225       58.963    12084.194     6597.477     3476.658        4.144        1.108      246.438       46.804        0.036      336.675        8.132      866.605
01/05/2022  06:50:00     -252.875       84.234       -8.171      112.913       91.577       56.061    12749.267     8386.273     3142.824        4.769        1.214      266.535       53.673        0.041      336.717        8.202      866.607
01/05/2022  06:51:00     -249.812       58.299       -0.939      101.531       78.617       62.655    10308.644     6180.580     3925.687        4.311        1.021      256.524       62.144        0.059      336.683        8.147      866.596
01/05/2022  06:52:00     -240.772       29.979      -11.421      162.755       80.382       61.160    26489.167     6461.201     3740.514        4.784        1.835      242.631       58.986        0.059      336.710        8.193      866.607
01/05/2022  06:53:00     -244.655       12.688      -13.331      121.210       66.512       44.900    14691.762     4423.806     2016.031        4.066        1.057      244.984       56.628        0.053      336.567        7.956      866.617
01/05/2022  06:54:00     -249.199       66.345       -6.055      101.936       71.239       50.353    10390.977     5074.963     2535.440        4.227        0.900      257.879       42.356        0.027      336.535        7.898      866.583
01/05/2022  06:55:00     -233.375       57.073       -4.575       85.754       63.588       49.565     7353.763     4043.381     2456.734        3.580        0.693      240.252       45.148        0.035      336.576        7.969      866.532
01/05/2022  06:56:00     -149.101       49.843        0.672       91.449       78.303       40.907     8362.857     6131.306     1673.344        2.044        0.808      157.211       40.839        0.067      336.565        7.953      866.521
01/05/2022  06:57:00     -153.342       39.288       13.799      153.739       67.923       51.565    23635.594     4613.467     2658.941        2.807        1.545      158.295       61.835        0.153      336.534        7.900      866.529
01/05/2022  06:58:00     -260.163       61.699        0.678      124.948       68.321       48.770    15611.936     4667.722     2378.544        4.707        1.133      267.379       44.087        0.027      336.519        7.874      866.519
01/05/2022  06:59:00     -268.941       43.510      -18.193      123.144      101.000       64.359    15164.343    10200.978     4142.069        5.202        1.475      272.438       55.967        0.042      336.574        7.965      866.495
01/05/2022  07:00:00     -200.915       54.742       -9.862      128.555       84.484       48.372    16526.511     7137.543     2339.881        3.473        1.300      208.239       44.756        0.046      336.500        7.843      866.491
01/05/2022  07:01:00     -309.374       90.902       -8.301      148.355       90.607       60.650    22009.254     8209.551     3678.424        6.896        1.695      322.452       58.761        0.033      336.663        8.114      866.490
01/05/2022  07:02:00     -266.655       43.663      -26.398      105.787       94.486       62.849    11190.950     8927.660     3950.037        4.888        1.203      270.206       41.879        0.024      336.664        8.115      866.515
01/05/2022  07:03:00     -297.954      126.217      -19.058      167.561      116.019       85.726    28076.856    13460.496     7348.994        7.697        2.444      323.585       51.565        0.025      336.850        8.425      866.556
01/05/2022  07:04:00     -363.756      109.011       -0.632      141.816      101.743       74.061    20111.655    10351.658     5485.033        9.007        1.797      379.739       67.002        0.031      336.774        8.298      866.607
01/05/2022  07:05:00     -324.327      108.156       -6.015      116.106       93.218       59.249    13480.693     8689.562     3510.440        7.130        1.284      341.886       55.781        0.027      336.696        8.168      866.671
01/05/2022  07:06:00     -335.142       82.929      -12.035       88.059       79.972       56.720     7754.398     6395.500     3217.193        6.835        0.868      345.250       52.919        0.023      336.694        8.165      866.730
01/05/2022  07:07:00     -199.553       -8.533       -3.631      154.775       77.374       66.404    23955.254     5986.776     4409.518        3.712        1.718      199.736       73.442        0.135      336.647        8.087      866.764
01/05/2022  07:08:00     -103.634       24.044      -11.512      162.531       92.260       69.593    26416.291     8511.918     4843.248        2.560        1.989      106.387       64.698        0.370      336.722        8.214      866.771
01/05/2022  07:09:00     -208.104       38.360      -21.684      147.261       81.992       55.934    21685.666     6722.748     3128.608        3.839        1.577      211.610       55.936        0.070      336.666        8.120      866.791
01/05/2022  07:10:00      -44.885       11.473        0.739       85.377       96.771       61.378     7289.259     9364.577     3767.235        1.128        1.021       46.328       45.489        0.964      336.647        8.090      866.811
01/05/2022  07:11:00     -262.557       92.100       -9.322       98.112      100.766       50.763     9625.920    10153.799     2576.864        4.993        1.118      278.242       36.837        0.018      336.735        8.233      866.829
01/05/2022  07:12:00     -241.098       61.713       -0.578      125.499       78.208       52.170    15750.091     6116.520     2721.664        4.326        1.229      248.871       60.008        0.058      336.584        7.982      866.820
01/05/2022  07:13:00     -198.683       21.269       -5.720      132.770       70.586       70.867    17627.777     4982.436     5022.090        3.379        1.382      199.818       59.827        0.090      336.642        8.080      866.844
01/05/2022  07:14:00      -56.378       36.926       -2.550      152.511       81.065       66.804    23259.728     6571.607     4462.717        1.941        1.715       67.394       71.020        1.110      336.695        8.171      866.854
01/05/2022  07:15:00     -252.465      126.551      -29.893       90.442       70.792       60.555     8179.684     5011.449     3666.874        4.875        0.843      282.407       41.469        0.022      336.804        8.347      866.842
01/05/2022  07:16:00     -157.442       40.933        6.391      109.280       86.573       59.874    11942.207     7494.888     3584.901        2.476        1.151      162.676       62.215        0.146      336.751        8.261      866.829
01/05/2022  07:17:00     -192.013       63.599       -9.343      151.610      101.344       54.432    22985.503    10270.617     2962.895        3.860        1.811      202.272       53.699        0.070      336.699        8.175      866.820
01/05/2022  07:18:00     -256.257      106.361      -20.432      142.573      126.216       64.322    20327.166    15930.409     4137.370        5.889        2.020      277.453       35.098        0.016      336.718        8.206      866.838
01/05/2022  07:19:00     -257.870       83.753       -3.425      111.911      114.253       60.759    12524.056    13053.654     3691.690        5.139        1.463      271.130       57.208        0.045      336.633        8.063      866.862
01/05/2022  07:20:00     -132.404       41.181       -1.084      132.637       90.803       67.060    17592.514     8245.241     4497.068        2.478        1.517      138.660       65.995        0.227      336.693        8.166      866.879
01/05/2022  07:21:00     -168.099       57.354      -16.198      123.304       97.219       58.928    15203.954     9451.446     3472.463        2.996        1.406      177.614       57.192        0.104      336.620        8.044      866.876
01/05/2022  07:22:00     -155.355       34.633      -10.776      119.311       73.979       53.739    14235.049     5472.924     2887.849        2.402        1.130      159.169       50.366        0.100      336.597        8.006      866.898
01/05/2022  07:23:00     -210.133       53.920      -17.800      136.701       94.930       62.236    18687.245     9011.704     3873.367        3.947        1.579      216.941       65.708        0.092      336.586        7.987      866.927
01/05/2022  07:24:00     -252.552       28.559      -22.903      206.544      113.342       71.832    42660.378    12846.509     5159.835        6.288        3.033      254.162       66.239        0.068      336.663        8.115      866.952
01/05/2022  07:25:00     -239.284       90.415      -10.851      130.820      105.488       64.938    17113.889    11127.706     4216.942        4.900        1.623      255.796       62.819        0.060      336.759        8.273      866.973
01/05/2022  07:26:00     -185.542       52.666       -2.399      126.268       63.799       60.816    15943.549     4070.332     3698.623        3.045        1.186      192.872       51.610        0.072      336.649        8.090      867.007
01/05/2022  07:27:00     -142.501       39.285       -8.313       99.975       83.439       67.511     9994.953     6962.011     4557.673        2.171        1.076      147.816       44.225        0.090      336.648        8.090      867.045
01/05/2022  07:28:00     -182.277       36.963      -14.979      115.402       71.224       47.075    13317.507     5072.845     2216.063        2.771        1.030      185.987       41.867        0.051      336.740        8.241      867.070
01/05/2022  07:29:00     -210.877       72.792      -28.612       97.215       71.920       51.207     9450.661     5172.504     2622.196        3.391        0.862      223.087       48.071        0.046      336.776        8.303      867.089
01/05/2022  07:30:00     -153.686       30.601      -22.178      116.566       63.137       48.078    13587.733     3986.230     2311.530        2.246        0.994      156.703       43.315        0.076      336.629        8.058      867.107
01/05/2022  07:31:00     -223.040       81.019      -22.865      117.744       90.895       49.863    13863.734     8261.947     2486.313        4.072        1.231      237.299       55.169        0.054      336.765        8.284      867.122
01/05/2022  07:32:00     -118.865       30.570      -28.140      162.831       66.318       56.048    26513.960     4398.122     3141.371        2.495        1.703      122.733       29.546        0.058      336.659        8.108      867.137
01/05/2022  07:33:00      -51.868        9.856      -22.866       80.298       84.006       52.307     6447.773     7057.012     2736.007        0.977        0.812       52.796       46.991        0.792      336.505        7.853      867.124
01/05/2022  07:34:00      -49.748       26.907       -1.691       52.066       68.194       54.939     2710.919     4650.361     3018.262        0.679        0.519       56.558       36.179        0.409      336.420        7.710      867.108
01/05/2022  07:35:00      -15.684       28.053       21.850       90.912       56.498       44.623     8265.054     3192.060     1991.241        0.748        0.672       32.140       31.425        0.956      336.366        7.617      867.114
01/05/2022  07:36:00      -81.538      124.879      -23.241       70.116       63.659       42.994     4916.223     4052.502     1848.453        1.680        0.541      149.142       28.535        0.037      336.419        7.706      867.125
01/05/2022  07:37:00      -80.826       40.513       -9.513       99.034       99.686       49.136     9807.759     9937.276     2414.344        1.521        1.108       90.411       26.583        0.086      336.307        7.519      867.141
01/05/2022  07:38:00      -71.175       71.063       -7.656       74.264       47.124       43.329     5515.162     2220.711     1877.422        0.989        0.481      100.578       38.364        0.145      336.219        7.372      867.164
01/05/2022  07:39:00      -34.326      154.666      -19.078       53.535       73.647       38.830     2865.971     5423.866     1507.759        1.763        0.490      158.430       35.946        0.051      336.381        7.643      867.150
01/05/2022  07:40:00      -19.305      162.579      -11.842       45.960       80.141       32.143     2112.298     6422.617     1033.195        1.825        0.478      163.721       30.521        0.035      336.414        7.698      867.138
01/05/2022  07:41:00     -154.496       42.348      -19.193      151.330       58.063       43.410    22900.662     3371.342     1884.386        2.709        1.408      160.195       46.395        0.084      336.310        7.523      867.129
01/05/2022  07:42:00     -115.129       64.946      -23.338       84.662       46.326       37.340     7167.588     2146.093     1394.274        1.436        0.535      132.185       25.242        0.036      336.088        7.155      867.116
01/05/2022  07:43:00      -89.224       96.982      -21.641       41.569       71.226       25.319     1728.019     5073.078      641.069        1.264        0.372      131.781       20.834        0.025      336.382        7.646      867.113
01/05/2022  07:44:00      -54.645       48.533       -3.810       48.923       67.706       36.587     2393.474     4584.058     1338.620        0.683        0.416       73.085       18.285        0.063      336.156        7.268      867.089
01/05/2022  07:45:00      -50.186       56.466      -11.589       39.260       34.248       26.511     1541.342     1172.898      702.828        0.463        0.171       75.545       11.796        0.024      336.309        7.524      867.059
01/05/2022  07:46:00      -21.026        4.363       -5.833       66.214       48.861       34.642     4384.312     2387.430     1200.080        0.423        0.399       21.474       26.647        1.540      336.087        7.153      867.060
01/05/2022  07:47:00       -9.452        4.672      -15.318       45.666       59.805       24.228     2085.352     3576.669      587.020        0.330        0.312       10.544       16.331        2.399      336.000        7.009      867.063
01/05/2022  07:48:00      -63.713       25.650      -15.245       80.036       38.640       28.259     6405.699     1493.014      798.584        0.682        0.435       68.682       17.203        0.063      335.982        6.978      867.050
01/05/2022  07:49:00     -124.648       70.583      -26.042       67.570       36.498       29.142     4565.681     1332.101      849.234        1.397        0.337      143.244       27.533        0.037      336.204        7.347      867.052
01/05/2022  07:50:00     -100.211       68.384      -28.739       47.240       46.052       29.837     2231.620     2120.789      890.234        1.039        0.262      121.321       16.255        0.018      336.205        7.351      867.043
01/05/2022  07:51:00      -62.015       24.230      -32.335       59.277       37.088       31.807     3513.713     1375.552     1011.689        0.569        0.295       66.581       25.183        0.143      336.130        7.223      867.057
01/05/2022  07:52:00      -78.210       15.684      -25.913       37.783       44.612       33.422     1427.590     1990.249     1117.020        0.578        0.227       79.767       10.067        0.016      336.042        7.077      867.063
01/05/2022  07:53:00      -55.792       28.481      -21.748       52.672       49.985       35.086     2774.352     2498.507     1231.029        0.545        0.325       62.641       25.331        0.164      335.982        6.979      867.072
01/05/2022  07:54:00      -29.151        7.959      -10.288       46.462       46.086       33.174     2158.700     2123.912     1100.489        0.320        0.269       30.218       20.283        0.451      336.052        7.094      867.054
01/05/2022  07:55:00     -142.894       82.128      -13.908      119.766       96.235       60.410    14343.981     9261.206     3649.352        2.730        1.363      164.815       63.996        0.151      336.410        7.690      867.042
01/05/2022  07:56:00     -162.386       47.987      -20.287       78.475       48.765       36.058     6158.379     2378.011     1300.205        1.946        0.492      169.328       33.522        0.039      336.254        7.430      867.072
01/05/2022  07:57:00      -97.287       27.511      -17.546       56.407       45.368       32.413     3181.765     2058.229     1050.617        0.841        0.315      101.102       27.554        0.074      336.174        7.297      867.103
01/05/2022  07:58:00     -127.245       45.636      -24.344       64.333       38.314       30.697     4138.698     1467.958      942.314        1.271        0.327      135.182       20.533        0.023      336.269        7.457      867.111
01/05/2022  07:59:00      -40.056       30.245       -0.397       33.892       25.675       29.998     1148.650      659.186      899.886        0.261        0.135       50.192       11.734        0.055      336.313        7.530      867.104
01/05/2022  08:00:00      -91.970       53.555      -32.508       36.319       50.695       41.148     1319.039     2569.982     1693.137        0.898        0.279      106.427       25.143        0.056      336.311        7.526      867.068
01/05/2022  08:01:00      -71.854       28.201      -12.140       47.994       30.336       33.462     2303.418      920.292     1119.695        0.522        0.217       77.190       28.915        0.140      336.303        7.514      867.061
01/05/2022  08:02:00      -93.177       22.423      -23.176       50.241       53.254       31.508     2524.196     2835.989      992.765        0.804        0.318       95.837       30.602        0.102      336.267        7.454      867.089
01/05/2022  08:03:00      -14.950       51.431      -10.512       39.183       38.885       28.822     1535.304     1512.023      830.680        0.343        0.194       53.560       23.079        0.186      336.241        7.410      867.094
01/05/2022  08:04:00      -39.078       19.346      -12.814       27.722       47.332       26.113      768.487     2240.284      681.869        0.288        0.185       43.605       19.782        0.206      336.380        7.643      867.088
01/05/2022  08:05:00      -20.789       43.054       -8.871       32.891       47.396       26.981     1081.835     2246.423      727.962        0.321        0.203       47.810       19.286        0.163      336.320        7.540      867.096
01/05/2022  08:06:00      -27.890      155.629       -8.236       50.435       64.477       35.177     2543.739     4157.223     1237.450        1.650        0.397      158.108       22.160        0.020      336.415        7.702      867.090
01/05/2022  08:07:00        6.186      152.792      -19.005       58.426       43.085       31.721     3413.566     1856.316     1006.209        1.501        0.314      152.917       23.029        0.023      336.387        7.654      867.074
01/05/2022  08:08:00      -44.481       72.165      -17.940       37.201       50.324       22.667     1383.905     2532.475      513.797        0.597        0.222       84.772       20.226        0.057      336.423        7.715      867.058
01/05/2022  08:09:00      -73.777       54.268      -35.417       41.754       39.632       30.418     1743.422     1570.719      925.227        0.694        0.212       91.587       23.095        0.064      336.315        7.533      867.051
01/05/2022  08:10:00      -11.880      146.898      -18.359       26.844       35.531       24.342      720.589     1262.471      592.536        1.232        0.129      147.377       18.167        0.015      336.384        7.647      867.045
01/05/2022  08:11:00      -34.788       77.068       -2.295       28.615       37.168       20.699      818.842     1381.424      428.438        0.489        0.131       84.556       15.011        0.032      336.597        8.007      867.081
01/05/2022  08:12:00      -36.430      114.738      -16.080       44.487       71.943       25.663     1979.059     5175.756      658.601        1.128        0.391      120.383       24.777        0.042      336.482        7.812      867.120
01/05/2022  08:13:00      -62.935       33.259      -10.240       39.631       25.839       27.623     1570.602      667.654      763.054        0.409        0.150       71.183        9.477        0.018      336.432        7.728      867.125
01/05/2022  08:14:00      -79.078       13.254      -18.627       38.945       25.975       18.630     1516.738      674.678      347.091        0.466        0.127       80.181        8.298        0.011      336.331        7.561      867.122
01/05/2022  08:15:00      -62.028        8.459      -12.285       43.787       42.201       26.243     1917.310     1780.891      688.702        0.423        0.219       62.602       23.851        0.145      336.298        7.506      867.133
01/05/2022  08:16:00       -0.345       21.180       -4.748       45.647       35.456       33.454     2083.616     1257.120     1119.156        0.246        0.223       21.183       26.836        1.605      336.230        7.391      867.144
01/05/2022  08:17:00      -65.715       45.940       -6.826       61.605       59.905       25.081     3795.157     3588.602      629.038        0.724        0.401       80.181       26.665        0.111      336.293        7.496      867.137
01/05/2022  08:18:00      -94.392       42.594       -4.432      103.152       66.529       36.576    10640.357     4426.077     1337.838        1.357        0.820      103.557       29.921        0.083      336.427        7.721      867.105
01/05/2022  08:19:00     -165.285       26.059      -25.959       82.571       57.495       38.890     6817.925     3305.699     1512.423        2.015        0.582      167.326       24.951        0.022      336.352        7.596      867.048
01/05/2022  08:20:00     -137.726       27.936       -5.475       70.783       59.268       41.407     5010.275     3512.717     1714.500        1.501        0.512      140.530       32.990        0.055      336.282        7.479      866.999
01/05/2022  08:21:00      -69.330        8.490      -14.401       94.388       60.871       41.836     8909.178     3705.327     1750.288        0.972        0.718       69.847       37.360        0.286      336.327        7.554      866.980
01/05/2022  08:22:00     -224.159       74.280      -29.790       56.825       42.981       41.341     3229.088     1847.383     1709.091        3.172        0.339      236.146       26.339        0.012      336.316        7.531      866.983
01/05/2022  08:23:00     -219.863       71.589      -32.976       68.525       50.944       35.324     4695.692     2595.290     1247.785        3.154        0.427      231.224       33.507        0.021      336.308        7.519      866.995
01/05/2022  08:24:00     -178.279       23.857      -27.709       91.579       55.186       42.489     8386.733     3045.452     1805.315        2.318        0.662      179.868       44.066        0.060      336.283        7.480      867.002
01/05/2022  08:25:00     -231.632       48.679      -21.143       69.701       55.486       43.787     4858.297     3078.671     1917.275        3.316        0.493      236.692       32.074        0.018      336.234        7.396      867.019
01/05/2022  08:26:00     -133.066       23.102      -26.536       83.755       55.058       45.636     7014.892     3031.385     2082.618        1.553        0.606      135.056       32.982        0.060      336.285        7.482      867.035
01/05/2022  08:27:00      -64.653       31.661      -19.987       71.223       69.748       37.021     5072.714     4864.832     1370.523        0.844        0.565       71.990       36.156        0.252      336.318        7.539      867.044
01/05/2022  08:28:00      -44.867       14.786      -20.069       43.057       78.904       36.418     1853.921     6225.809     1326.240        0.602        0.470       47.240       21.148        0.200      336.314        7.532      867.048
01/05/2022  08:29:00      -90.176        7.978      -40.860       92.864       62.214       49.010     8623.747     3870.600     2401.982        1.238        0.745       90.528       45.217        0.249      336.365        7.616      867.040
01/05/2022  08:30:00     -147.890       47.251      -24.679      101.218       57.257       51.610    10245.065     3278.347     2663.548        2.045        0.809      155.255       44.375        0.082      336.393        7.660      867.056
01/05/2022  08:31:00     -136.716       47.269      -31.440       72.569       51.070       47.762     5266.189     2608.160     2281.171        1.603        0.508      144.657       33.591        0.054      336.422        7.712      867.031
01/05/2022  08:32:00     -236.054       69.403      -19.999      118.280       68.927       57.442    13990.146     4750.942     3299.528        4.149        1.102      246.045       53.363        0.047      336.589        7.991      867.019
01/05/2022  08:33:00     -155.648       37.640       -7.736      127.260       86.477       62.469    16194.993     7478.232     3902.389        2.663        1.379      160.135       61.207        0.146      336.781        8.312      867.015
01/05/2022  08:34:00     -337.443       65.854       -5.737      134.444       87.201       62.890    18075.092     7603.945     3955.140        7.393        1.482      343.809       69.840        0.041      336.951        8.593      867.005
01/05/2022  08:35:00     -262.173       77.995        2.057      112.853       76.971       49.303    12735.862     5924.577     2430.766        4.795        1.055      273.529       48.070        0.031      337.010        8.692      866.988
01/05/2022  08:36:00     -399.195       97.303       -2.306      116.593      109.934       64.041    13593.842    12085.449     4101.281        9.930        1.489      410.883       57.858        0.020      337.140        8.910      866.954
01/05/2022  08:37:00     -203.255       74.811        5.253      120.166       95.598       67.041    14439.911     9138.994     4494.535        3.750        1.404      216.586       64.881        0.090      337.162        8.947      866.924
01/05/2022  08:38:00     -331.698       76.912      -29.903      136.383       91.293       60.101    18600.431     8334.329     3612.175        7.368        1.527      340.498       45.953        0.018      337.190        8.994      866.908
01/05/2022  08:39:00     -174.212        9.386      -10.210      137.149       69.964       58.828    18809.831     4895.030     3460.684        2.885        1.358      174.464       40.266        0.053      337.182        8.984      866.904
01/05/2022  08:40:00     -140.584       36.603      -14.492      155.859       88.320       63.835    24291.988     7800.422     4074.851        2.873        1.808      145.271       63.499        0.191      337.177        8.974      866.897
01/05/2022  08:41:00     -358.567       73.816      -16.798      201.789      123.722       93.433    40718.661    15307.223     8729.817        9.952        3.238      366.086       82.306        0.051      337.191        8.996      866.897
01/05/2022  08:42:00     -268.714       92.423        1.422      204.832      109.571       84.123    41956.078    12005.838     7076.762        7.088        3.052      284.164       72.673        0.065      337.244        9.087      866.914
01/05/2022  08:43:00     -307.266       88.452       -7.499      131.459      101.221       54.296    17281.440    10245.644     2948.107        6.638        1.524      319.744       25.898        0.007      337.241        9.080      866.922
01/05/2022  08:44:00     -208.987       44.746        3.388      169.250      119.560       68.428    28645.467    14294.493     4682.390        4.665        2.381      213.724       77.793        0.132      337.252        9.100      866.961
01/05/2022  08:45:00     -188.823       65.935       -4.534      216.271      102.540       70.810    46773.210    10514.391     5014.007        5.115        3.115      200.004       49.981        0.062      337.279        9.145      867.013
01/05/2022  08:46:00     -154.623       75.122        5.626      119.331      101.982       59.917    14239.913    10400.269     3590.093        2.890        1.412      171.906       51.868        0.091      337.432        9.401      867.060
01/05/2022  08:47:00     -185.129       53.036       14.166      123.131       85.494       69.282    15161.306     7309.252     4799.980        3.227        1.364      192.576       60.428        0.098      337.332        9.234      867.114
01/05/2022  08:48:00      -95.724       51.100        6.141      115.345       95.233       66.787    13304.499     9069.329     4460.495        1.932        1.342      108.509       43.716        0.162      337.402        9.350      867.138
01/05/2022  08:49:00     -205.960       90.532        3.074      135.291      103.665       67.087    18303.586    10746.384     4500.638        4.208        1.678      224.980       51.423        0.052      337.387        9.323      867.178
01/05/2022  08:50:00     -285.837       31.867       -8.058      150.361      119.928       71.237    22608.482    14382.805     5074.774        6.242        2.103      287.608       70.955        0.061      337.310        9.195      867.201
01/05/2022  08:51:00     -323.901       52.375       -0.292      166.423       94.175       67.427    27696.682     8868.865     4546.430        7.438        2.056      328.109       72.754        0.049      337.351        9.263      867.237
01/05/2022  08:52:00     -391.723       82.261      -22.794      203.549       80.295       66.598    41432.070     6447.289     4435.311       10.651        2.616      400.267       77.136        0.037      337.342        9.248      867.264
01/05/2022  08:53:00      -78.293       26.877      -12.025      193.720      101.508       69.199    37527.316    10303.850     4788.510        2.980        2.631       82.777       64.867        0.614      337.456        9.440      867.275
01/05/2022  08:54:00     -265.770       63.566      -19.237      159.637      107.464       72.328    25484.053    11548.457     5231.332        5.865        2.113      273.266       57.330        0.044      337.460        9.446      867.289
01/05/2022  08:55:00      -76.814        8.822      -12.033      123.683       71.334       51.352    15297.596     5088.564     2637.003        1.457        1.151       77.319       19.106        0.061      337.410        9.363      867.303
01/05/2022  08:56:00      -92.122       11.884      -17.546      119.338       84.284       51.292    14241.581     7103.784     2630.858        1.645        1.199       92.885       54.709        0.347      337.512        9.534      867.320
01/05/2022  08:57:00     -195.208       34.483      -20.309      141.818       90.897       67.231    20112.243     8262.293     4520.018        3.630        1.645      198.230       57.086        0.083      337.416        9.371      867.351
01/05/2022  08:58:00     -275.210       95.208      -40.337      177.293      124.665       81.579    31432.973    15541.462     6655.111        7.002        2.681      291.213       83.485        0.082      337.376        9.305      867.388
01/05/2022  08:59:00     -145.428        5.283       -3.776      200.706      103.679       67.178    40283.056    10749.300     4512.835        3.836        2.777      145.524       69.104        0.225      337.408        9.360      867.387
01/05/2022  09:00:00     -209.293       92.220      -23.846      156.524      119.945       74.683    24499.715    14386.892     5577.604        4.866        2.223      228.710       65.021        0.081      337.414        9.368      867.395
01/05/2022  09:01:00     -257.554       65.462       -2.255      125.641      102.435       77.397    15785.568    10492.901     5990.294        5.144        1.613      265.743       75.858        0.081      337.442        9.414      867.432
01/05/2022  09:02:00     -156.505       41.156        6.885      128.728       85.641       46.352    16570.777     7334.439     2148.527        2.614        1.303      161.826       52.314        0.105      337.498        9.511      867.457
01/05/2022  09:03:00      -48.763       58.903       -6.025       64.267       83.777       35.195     4130.278     7018.572     1238.723        0.913        0.619       76.468       26.357        0.119      337.580        9.648      867.471
01/05/2022  09:04:00     -163.109      128.180      -25.128      106.575      116.340       51.875    11358.268    13534.976     2691.029        3.562        1.379      207.448       50.873        0.060      337.510        9.528      867.495
01/05/2022  09:05:00     -190.256       66.270      -27.141       90.960      101.829       54.333     8273.633    10369.052     2952.057        3.146        1.080      201.467       48.570        0.058      337.519        9.544      867.552
01/05/2022  09:06:00      -16.808      -45.594        8.894      104.113       81.406       57.514    10839.518     6626.907     3307.819        1.160        1.039       48.593       42.159        0.753      337.584        9.656      867.574
01/05/2022  09:07:00     -102.339       12.691      -10.375       63.479       54.807       51.227     4029.620     3003.838     2624.238        1.020        0.483      103.123       44.305        0.185      337.526        9.558      867.567
01/05/2022  09:08:00      -88.708       82.922      -17.098      103.348       73.811       38.011    10680.891     5448.003     1444.834        1.630        0.879      121.430       23.558        0.038      337.609        9.697      867.549
01/05/2022  09:09:00     -165.723       48.840       -4.302      107.346       87.155       51.610    11523.155     7595.986     2663.594        2.582        1.089      172.770       52.510        0.092      337.474        9.470      867.525
01/05/2022  09:10:00     -185.276      111.902      -19.988       92.897       87.244       57.406     8629.769     7611.452     3295.460        3.339        0.977      216.446       51.658        0.057      337.597        9.675      867.534
01/05/2022  09:11:00     -107.426       27.190       -9.311       68.316       49.526       35.259     4667.031     2452.868     1243.167        1.036        0.418      110.813       32.119        0.084      337.580        9.650      867.544
01/05/2022  09:12:00      -78.910        2.319      -24.900       69.018       57.515       56.753     4763.515     3307.956     3220.867        0.907        0.565       78.944       49.091        0.387      337.614        9.707      867.537
01/05/2022  09:13:00      -44.530       17.130       -0.087       36.978       44.778       29.988     1367.375     2005.100      899.295        0.327        0.214       47.711       17.320        0.132      337.677        9.812      867.532
01/05/2022  09:14:00      -18.983       21.450        5.632      100.039       58.335       55.238    10007.749     3402.987     3051.244        0.865        0.823       28.644       46.115        2.592      337.688        9.829      867.502
01/05/2022  09:15:00      -54.529      -36.471      -19.115      117.921       66.160       44.935    13905.277     4377.101     2019.121        1.248        1.015       65.601       35.725        0.297      337.701        9.851      867.494
01/05/2022  09:16:00     -153.658       46.293       -1.327       95.960       79.887       43.032     9208.234     6381.948     1851.783        2.160        0.872      160.480       47.152        0.086      337.607        9.692      867.495
01/05/2022  09:17:00      -54.182        8.646       -9.676      115.265       77.105       66.600    13286.090     5945.111     4435.565        1.338        1.183       54.867       64.400        1.378      337.687        9.829      867.518
01/05/2022  09:18:00     -125.339      -76.346      -10.328       73.568      126.171       55.095     5412.274    15919.056     3035.498        2.300        1.218      146.760       34.358        0.055      337.706        9.860      867.531
01/05/2022  09:19:00     -122.209        1.889      -32.752      113.441       84.804       56.695    12868.945     7191.780     3214.288        1.964        1.164      122.224       49.420        0.163      337.622        9.719      867.518
01/05/2022  09:20:00     -135.007       -7.005       -2.434      103.867       75.662       58.349    10788.321     5724.737     3404.633        1.910        0.996      135.188       52.108        0.149      337.694        9.839      867.543
01/05/2022  09:21:00     -191.364      -14.003      -23.032       96.314       61.043       39.494     9276.412     3726.296     1559.779        2.595        0.728      191.875       37.762        0.039      337.626        9.725      867.566
01/05/2022  09:22:00     -136.289      -22.367      -19.967       53.099       50.406       26.702     2819.502     2540.806      713.016        1.277        0.304      138.112       17.618        0.016      337.715        9.877      867.596
01/05/2022  09:23:00      -63.257       10.447      -13.233       34.621       34.552       24.148     1198.611     1193.847      583.141        0.363        0.149       64.114        9.652        0.023      337.735        9.910      867.641
01/05/2022  09:24:00      -23.079       -2.299       -5.944       37.564       42.282       20.452     1411.038     1787.806      418.270        0.209        0.181       23.193       17.449        0.566      337.722        9.889      867.682
01/05/2022  09:25:00       -6.123       10.178      -13.757       24.668       40.399       21.249      608.532     1632.119      451.527        0.151        0.135       11.878       12.387        1.088      337.692        9.837      867.715
01/05/2022  09:26:00      -21.318      -20.372      -14.401       49.173       64.072       34.477     2417.952     4105.162     1188.650        0.439        0.386       29.487       19.164        0.422      337.518        9.546      867.708
01/05/2022  09:27:00      -50.093       16.722      -19.837       41.236       46.628       26.752     1700.445     2174.206      715.680        0.389        0.230       52.810       16.592        0.099      337.487        9.494      867.716
01/05/2022  09:28:00     -217.160       36.094       -1.067      137.238       81.709       55.154    18834.214     6676.304     3041.912        3.850        1.428      220.139       53.479        0.059      337.602        9.685      867.708
01/05/2022  09:29:00     -137.756       51.683       -7.933      101.511       49.910       31.242    10304.503     2491.036      976.085        1.774        0.689      147.132       32.880        0.050      337.528        9.562      867.718
01/05/2022  09:30:00       31.993       71.204       -3.823       49.811       38.193       21.737     2481.114     1458.711      472.479        0.526        0.221       78.061       20.838        0.071      337.685        9.826      867.735
01/05/2022  09:31:00        5.247       21.856       -8.394       23.257       23.045       16.872      540.903      531.061      284.679        0.097        0.068       22.477        9.680        0.185      337.796       10.012      867.730
01/05/2022  09:32:00       -0.715       71.912      -21.944       34.547       32.031       32.837     1193.466     1025.969     1078.264        0.447        0.165       71.916       20.494        0.081      337.638        9.747      867.726
01/05/2022  09:33:00      -18.642       74.909      -19.672       58.930       96.365       29.967     3472.741     9286.220      898.044        1.000        0.683       77.194       14.434        0.035      337.612        9.703      867.722
01/05/2022  09:34:00       12.490      118.726      -14.705       49.841       83.966       37.708     2484.149     7050.279     1421.869        1.271        0.548      119.382       40.919        0.117      337.661        9.786      867.738
01/05/2022  09:35:00       16.105       27.320      -15.657       38.761       69.604       40.299     1502.405     4844.715     1624.004        0.461        0.399       31.714       20.029        0.399      337.789        9.999      867.762
01/05/2022  09:36:00      -67.921       36.857       -9.575       73.493       63.346       47.856     5401.209     4012.739     2290.205        0.888        0.585       77.277       50.243        0.423      337.694        9.839      867.791
01/05/2022  09:37:00      -78.393      119.465      -23.762       79.909       77.237       43.345     6385.470     5965.508     1878.803        1.760        0.711      142.889       37.488        0.069      337.740        9.917      867.774
01/05/2022  09:38:00      -25.751      216.779      -14.351       97.319      118.685       50.935     9471.074    14086.089     2594.382        3.700        1.308      218.303       46.262        0.045      337.707        9.860      867.768
01/05/2022  09:39:00      -72.463      262.599      -21.357      112.579       86.573       46.132    12674.092     7494.840     2128.167        4.848        1.115      272.413       42.450        0.024      337.608        9.693      867.773
01/05/2022  09:40:00     -119.392      157.015      -23.820       76.168       90.638       36.376     5801.527     8215.300     1323.217        2.740        0.767      197.251       42.201        0.046      337.623        9.720      867.801
01/05/2022  09:41:00      -41.622      150.739      -12.629       43.042       50.740       28.738     1852.605     2574.504      825.890        1.493        0.263      156.380       19.354        0.015      337.586        9.660      867.805
01/05/2022  09:42:00       21.672      118.634      -10.168       39.100       67.939       26.594     1528.800     4615.680      707.264        1.075        0.343      120.597       27.891        0.053      337.618        9.713      867.773
01/05/2022  09:43:00     -117.403      101.950      -16.306       96.681       66.784       33.591     9347.309     4460.124     1128.325        1.969        0.747      155.491       28.451        0.033      337.644        9.757      867.732
01/05/2022  09:44:00      -14.709       29.346       -3.529       56.613       42.413       30.549     3205.058     1798.840      933.222        0.351        0.297       32.826       17.461        0.283      337.704        9.858      867.680
01/05/2022  09:45:00      -49.700      139.835      -15.246       56.349       72.675       37.718     3175.202     5281.655     1422.649        1.607        0.494      148.404       29.842        0.040      337.739        9.914      867.648
01/05/2022  09:46:00      -25.906      184.217      -26.087       94.576      105.612       49.133     8944.610    11153.802     2414.099        2.890        1.126      186.029       40.838        0.048      337.715        9.873      867.628
01/05/2022  09:47:00     -108.727      197.252      -31.730       87.086      104.243       51.461     7583.903    10866.501     2648.274        3.641        1.055      225.233       47.899        0.045      337.672        9.801      867.632
01/05/2022  09:48:00      -82.014       79.150      -21.299      135.336       88.736       64.388    18315.923     7874.020     4145.794        2.188        1.517      113.978       58.024        0.259      337.741        9.919      867.628
01/05/2022  09:49:00     -131.659      101.465      -13.971       93.564       77.406       60.945     8754.292     5991.677     3714.324        2.314        0.923      166.221       46.357        0.078      337.601        9.684      867.623
01/05/2022  09:50:00      -45.527      143.893      -12.976       83.417       63.728       51.852     6958.472     4061.217     2688.662        1.832        0.685      150.923       47.026        0.097      337.834       10.075      867.632
01/05/2022  09:51:00      -70.976      190.629      -21.905       67.107      104.814       59.395     4503.406    10985.870     3527.758        3.043        0.951      203.413       48.056        0.056      337.753        9.936      867.649
01/05/2022  09:52:00      -48.470      222.495      -25.433       55.398       64.869       37.935     3068.944     4207.957     1439.101        3.061        0.436      227.713       27.027        0.014      337.674        9.804      867.667
01/05/2022  09:53:00       -7.980      219.429      -17.486       59.387      101.388       50.625     3526.809    10279.504     2562.912        3.244        0.818      219.574       53.183        0.059      337.743        9.920      867.656
01/05/2022  09:54:00      -68.709      173.366      -19.807       73.055       67.629       43.162     5337.031     4573.675     1862.924        2.347        0.589      186.485       24.239        0.017      337.850       10.102      867.651
01/05/2022  09:55:00      -37.218      150.605      -20.245       82.098       76.343       43.567     6740.064     5828.254     1898.088        1.947        0.723      155.136       29.828        0.037      337.859       10.116      867.654
01/05/2022  09:56:00      -71.663      102.423      -36.036       77.613       71.157       44.145     6023.797     5063.334     1948.760        1.498        0.652      125.004       38.634        0.096      337.921       10.221      867.655
01/05/2022  09:57:00      -52.272       23.740      -19.318       93.923       60.377       40.878     8821.608     3645.361     1671.040        0.890        0.707       57.410       40.550        0.499      337.967       10.298      867.667
01/05/2022  09:58:00      -53.921       74.696      -18.377       68.679       55.285       27.685     4716.819     3056.404      766.480        0.868        0.427       92.125       24.929        0.073      337.922       10.222      867.706
01/05/2022  09:59:00      -18.705       30.978      -25.259       59.380       42.276       38.402     3525.987     1787.278     1474.678        0.437        0.339       36.187       32.984        0.831      338.067       10.466      867.736
01/05/2022  10:00:00       11.745       62.580      -21.717       69.547       60.501       40.275     4836.833     3660.314     1622.070        0.732        0.506       63.672       26.199        0.169      338.132       10.576      867.742
01/05/2022  10:01:00     -182.499      144.550      -35.199      136.928       83.529       52.683    18749.338     6977.064     2775.452        4.197        1.425      232.810       53.831        0.053      338.056       10.446      867.752
01/05/2022  10:02:00     -194.321       92.850      -22.180      102.717       84.503       50.831    10550.781     7140.810     2583.785        3.357        1.014      215.364       34.518        0.026      338.086       10.496      867.772
01/05/2022  10:03:00     -160.760       -7.406      -39.309      109.829       88.969       60.248    12062.493     7915.412     3629.830        2.552        1.180      160.930       51.667        0.103      338.137       10.583      867.782
01/05/2022  10:04:00     -272.570       24.811      -17.536      188.515       64.776       69.586    35537.767     4195.893     4842.153        5.989        2.229      273.697       86.053        0.099      338.124       10.560      867.782
01/05/2022  10:05:00     -150.474        9.124      -18.103      109.859       60.446       44.182    12069.016     3653.724     1952.089        2.036        0.884      150.751       38.945        0.067      338.229       10.737      867.810
01/05/2022  10:06:00     -150.063      140.051      -15.424       80.343       45.260       42.391     6455.015     2048.513     1796.959        2.633        0.515      205.264       33.583        0.027      338.350       10.941      867.815
01/05/2022  10:07:00     -194.061       32.780      -35.239      164.030       98.784       76.952    26905.991     9758.261     5921.570        4.127        2.129      196.810       32.056        0.027      338.275       10.813      867.768
01/05/2022  10:08:00     -214.957       28.200      -21.703      146.030       65.354       50.792    21324.803     4271.143     2579.803        3.782        1.409      216.799       31.650        0.021      338.150       10.601      867.763
01/05/2022  10:09:00     -164.010       16.566       -5.168      134.299      103.146       54.539    18036.209    10639.095     2974.556        2.942        1.582      164.844       39.596        0.058      338.286       10.832      867.746
01/05/2022  10:10:00     -148.169        7.472       -9.673      119.535       66.776       54.892    14288.585     4459.052     3013.099        2.193        1.088      148.358       53.951        0.132      338.376       10.983      867.741
01/05/2022  10:11:00     -183.463       59.046        3.148      104.827       80.684       55.431    10988.756     6509.949     3072.602        2.886        1.029      192.730       55.698        0.084      338.371       10.976      867.739
01/05/2022  10:12:00     -127.436       24.853       -5.502      124.553       74.013       49.160    15513.544     5477.885     2416.721        2.014        1.170      129.836       50.193        0.149      338.359       10.954      867.758
01/05/2022  10:13:00     -148.247      -55.957      -14.767      144.426       85.170       69.538    20858.991     7253.957     4835.583        2.913        1.647      158.456       66.718        0.177      338.216       10.715      867.720
01/05/2022  10:14:00      -73.026      -11.473      -20.536       74.191       50.860       51.644     5504.307     2586.705     2667.054        0.832        0.538       73.922       39.191        0.281      338.389       11.008      867.714
01/05/2022  10:15:00     -154.900       68.791      -17.392       82.187       72.865       44.115     6754.697     5309.302     1946.114        2.152        0.701      169.488       32.404        0.037      338.395       11.018      867.725
01/05/2022  10:16:00      -68.851       27.146       -8.901       97.589       91.397       61.268     9523.539     8353.323     3753.720        1.359        1.082       74.009       28.512        0.148      338.380       10.991      867.673
01/05/2022  10:17:00     -147.632       59.130      -14.451      188.738      104.362       75.806    35621.858    10891.334     5746.556        3.887        2.613      159.033       63.951        0.162      338.321       10.890      867.684
01/05/2022  10:18:00     -145.100       64.886      -12.549      192.841       65.456       61.899    37187.548     4284.471     3831.430        3.535        2.265      158.947       49.464        0.097      338.368       10.971      867.686
01/05/2022  10:19:00      -56.641      -31.629      -24.031       60.050       46.234       38.922     3606.005     2137.550     1514.940        0.602        0.363       64.873       26.614        0.168      338.423       11.064      867.704
01/05/2022  10:20:00       31.410       11.941      -15.378       81.639      123.977       49.955     6664.881    15370.251     2495.497        1.294        1.227       33.603       30.569        0.828      338.274       10.814      867.704
01/05/2022  10:21:00      -61.154       50.857       -6.562       52.925       67.733       28.002     2801.026     4587.793      784.134        0.727        0.409       79.537       17.539        0.049      338.244       10.764      867.703
01/05/2022  10:22:00      -29.405      -14.205      -17.970       32.630       27.469       20.138     1064.744      754.552      405.552        0.181        0.111       32.657       10.182        0.097      338.279       10.823      867.703
01/05/2022  10:23:00       60.246      -86.623      -32.791       49.632       91.141       29.823     2463.304     8306.597      889.410        1.193        0.583      105.513       24.729        0.055      338.374       10.980      867.682
01/05/2022  10:24:00     -108.625     -100.546       -9.279       54.544       49.999       32.203     2975.028     2499.910     1037.046        1.425        0.326      148.017       21.620        0.021      337.918       10.215      867.661
01/05/2022  10:25:00     -148.144      -34.016      -29.609       87.558       55.604       41.313     7666.464     3091.766     1706.766        1.822        0.623      151.999       37.531        0.061      338.149       10.602      867.653
01/05/2022  10:26:00     -123.779       16.074       -7.807       78.732       76.881       37.349     6198.687     5910.689     1394.982        1.457        0.675      124.819       27.110        0.047      338.330       10.906      867.634
01/05/2022  10:27:00      -58.644      113.953        1.602       92.669      110.070       47.396     8587.528    12115.437     2246.423        1.968        1.147      128.158       57.546        0.202      338.162       10.623      867.585
01/05/2022  10:28:00      -49.503      -17.293      -21.525      109.368      108.504       57.408    11961.444    11773.082     3295.648        1.512        1.352       52.437       46.292        0.779      338.322       10.893      867.525
01/05/2022  10:29:00     -240.989       12.562      -26.622       98.826      112.020       45.668     9766.480    12548.476     2085.575        4.167        1.220      241.316       23.333        0.009      338.148       10.599      867.539
01/05/2022  10:30:00     -105.715      -26.852      -15.985      104.156       97.601       70.539    10848.428     9526.033     4975.750        1.875        1.268      109.072       64.361        0.348      338.240       10.756      867.525
01/05/2022  10:31:00      -48.074       14.011       -6.400       69.975       57.645       51.917     4896.484     3322.891     2695.367        0.673        0.546       50.074       31.133        0.387      338.424       11.067      867.551
01/05/2022  10:32:00     -143.710       52.013        7.089       87.546       82.394       57.089     7664.260     6788.824     3259.191        2.056        0.886      152.833       51.945        0.116      338.557       11.287      867.549
01/05/2022  10:33:00     -279.774      104.942      -20.197      250.881      164.465       60.629    62941.495    27048.635     3675.820        9.166        4.683      298.808       77.062        0.067      338.262       10.791      867.552
01/05/2022  10:34:00     -304.855      131.003      -15.134      209.002      174.870       84.421    43682.029    30579.651     7126.976        9.584        4.069      331.811      101.667        0.094      338.291       10.840      867.539
01/05/2022  10:35:00     -304.164       85.152       -8.193      175.017      117.683       68.373    30631.111    13849.395     4674.863        7.449        2.458      315.859       53.290        0.028      338.303       10.858      867.558
01/05/2022  10:36:00     -232.342      -10.930      -25.263      230.864      113.509       65.401    53297.984    12884.284     4277.255        6.259        3.523      232.599       82.055        0.124      338.122       10.558      867.539
01/05/2022  10:37:00     -155.017       58.099      -21.349      191.947       65.818       42.740    36843.775     4331.955     1826.670        3.542        2.150      165.547       40.145        0.059      338.400       11.025      867.564
01/05/2022  10:38:00      -63.461      123.518        4.131       66.909       70.749       49.555     4476.793     5005.445     2455.707        1.562        0.597      138.867       34.498        0.062      338.469       11.142      867.565
01/05/2022  10:39:00     -143.738      119.641      -48.478      136.752      125.148       56.022    18701.106    15662.105     3138.429        3.741        1.875      187.015       60.418        0.104      338.073       10.474      867.573
01/05/2022  10:40:00      -87.449        3.045      -14.198      114.027       86.640       53.311    13002.261     7506.558     2842.047        1.560        1.168       87.502       43.853        0.251      337.996       10.346      867.594
01/05/2022  10:41:00      -60.827       45.986      -26.250      100.637       90.009       72.536    10127.735     8101.660     5261.477        1.499        1.175       76.254       43.531        0.326      338.028       10.400      867.623
01/05/2022  10:42:00      -13.338      189.906      -24.008       84.913       92.510       44.025     7210.157     8558.034     1938.184        2.726        0.885      190.374       45.548        0.057      338.080       10.486      867.625
01/05/2022  10:43:00       61.399      240.298      -22.960       93.580       95.910       50.838     8757.270     9198.687     2584.533        4.129        1.027      248.018       60.356        0.059      338.005       10.359      867.628
01/05/2022  10:44:00       68.768      244.334      -35.711       77.178       88.122       44.372     5956.464     7765.434     1968.885        4.069        0.785      253.827       34.400        0.018      338.015       10.375      867.618
01/05/2022  10:45:00       78.478      346.899      -34.898       70.548       98.981       46.663     4977.019     9797.177     2177.473        7.233        0.848      355.665       48.472        0.019      337.768        9.962      867.627
01/05/2022  10:46:00      -22.281      187.555       -6.489       75.656       55.100       35.495     5723.806     3035.988     1259.924        2.287        0.501      188.874       25.508        0.018      337.943       10.256      867.608
01/05/2022  10:47:00      -25.948      227.043      -22.841       46.255       60.231       33.050     2139.482     3627.721     1092.335        2.980        0.343      228.521       24.936        0.012      337.874       10.141      867.585
01/05/2022  10:48:00        2.643      162.723       -9.282       57.442       55.275       33.799     3299.638     3055.306     1142.349        1.703        0.375      162.744       31.664        0.038      337.979       10.318      867.572
01/05/2022  10:49:00       74.583      229.997      -29.260       58.850       50.131       34.654     3463.321     2513.085     1200.903        3.325        0.359      241.788       30.829        0.016      337.760        9.947      867.563
01/05/2022  10:50:00       55.718      179.611      -29.908       79.808       54.766       30.483     6369.277     2999.281      929.241        2.328        0.515      188.055       29.571        0.025      337.835       10.075      867.557
01/05/2022  10:51:00      122.565      174.158      -28.512      100.948       62.903       44.309    10190.502     3956.819     1963.251        3.114        0.806      212.963       45.463        0.046      337.714        9.872      867.551
01/05/2022  10:52:00       88.833      262.120      -36.575       74.695      123.267       40.462     5579.368    15194.772     1637.192        5.017        1.121      276.764       34.022        0.015      337.629        9.729      867.544
01/05/2022  10:53:00       20.349      266.868      -22.183       65.295       73.185       42.743     4263.430     5356.059     1826.954        4.178        0.572      267.642       36.573        0.019      337.631        9.730      867.549
01/05/2022  10:54:00       34.512      152.030      -11.812       60.881       78.800       37.234     3706.459     6209.395     1386.382        1.787        0.565      155.898       41.070        0.069      337.767        9.963      867.558
01/05/2022  10:55:00       14.839      112.110      -12.977       73.499       68.340       42.152     5402.090     4670.358     1776.759        1.240        0.592      113.088       22.603        0.040      337.810       10.034      867.561
01/05/2022  10:56:00       34.399      195.437      -20.548       63.740       60.109       41.233     4062.775     3613.125     1700.173        2.459        0.469      198.441       29.035        0.021      337.760        9.949      867.562
01/05/2022  10:57:00       44.775      194.194      -16.492       70.607       71.813       35.307     4985.399     5157.041     1246.612        2.569        0.569      199.288       37.923        0.036      337.742        9.919      867.560
01/05/2022  10:58:00       57.205      180.075      -27.565       97.411       81.536       44.503     9488.980     6648.082     1980.496        2.729        0.906      188.942       40.021        0.045      337.685        9.823      867.550
01/05/2022  10:59:00      106.420      215.045      -30.137      102.865      115.395       51.441    10581.107    13315.946     2646.130        4.251        1.327      239.937       49.142        0.042      337.672        9.801      867.541
01/05/2022  11:00:00       82.473      278.354      -24.855       65.512       81.593       42.852     4291.859     6657.468     1836.328        4.884        0.639      290.315       40.406        0.019      337.594        9.671      867.521
01/05/2022  11:01:00       65.164      275.561      -38.463       74.542       89.173       42.827     5556.469     7951.814     1834.122        4.850        0.767      283.161       47.764        0.028      337.620        9.713      867.496
01/05/2022  11:02:00      108.803      225.803      -27.131       48.566       76.905       33.179     2358.633     5914.309     1100.816        3.647        0.469      250.650       26.431        0.011      337.708        9.861      867.483
01/05/2022  11:03:00      130.942      173.094      -27.509       78.080       62.611       43.247     6096.535     3920.182     1870.340        2.987        0.594      217.042       26.698        0.015      337.758        9.946      867.484
01/05/2022  11:04:00      113.201      171.323      -24.990       66.849       57.898       40.633     4468.804     3352.234     1651.073        2.613        0.474      205.343       27.349        0.018      337.812       10.037      867.479
01/05/2022  11:05:00      146.104      159.105      -14.616       99.093       82.458       59.722     9819.479     6799.297     3566.762        3.353        1.009      216.011       58.741        0.074      337.813       10.040      867.480
01/05/2022  11:06:00       44.202      215.535      -19.972       59.491       70.321       41.974     3539.155     4945.031     1761.803        2.953        0.512      220.021       40.285        0.034      337.794       10.007      867.509
01/05/2022  11:07:00      -47.800      212.899      -22.793      120.129       89.445       41.893    14431.018     8000.444     1755.047        3.615        1.209      218.199       37.745        0.030      337.842       10.086      867.520
01/05/2022  11:08:00      -15.246      241.635      -24.421      103.845       89.140       44.980    10783.780     7945.865     2023.218        3.998        1.038      242.116       40.244        0.028      337.814       10.038      867.523
01/05/2022  11:09:00      -57.511      217.115      -14.612       74.764       75.583       36.909     5589.714     5712.762     1362.269        3.166        0.633      224.603       32.011        0.020      337.855       10.108      867.510
01/05/2022  11:10:00      -46.216      121.254      -20.312       67.247       74.321       34.495     4522.193     5523.648     1189.880        1.424        0.562      129.763       25.923        0.040      337.944       10.260      867.512
01/05/2022  11:11:00      -32.688      198.250      -27.617       67.084      127.861       43.027     4500.223    16348.522     1851.343        3.191        1.135      200.927       29.597        0.022      337.812       10.037      867.509
01/05/2022  11:12:00      -58.836      284.577      -32.298       73.383       72.475       46.907     5385.017     5252.561     2200.246        4.916        0.642      290.596       40.591        0.020      337.885       10.157      867.514
01/05/2022  11:13:00       45.567      244.817      -18.274       67.561       80.836       42.420     4564.540     6534.402     1799.492        3.762        0.645      249.021       45.177        0.033      337.812       10.036      867.513
01/05/2022  11:14:00       28.381      279.096      -10.172       64.034       88.602       50.069     4100.306     7850.261     2506.868        4.663        0.723      280.535       50.061        0.032      337.848       10.096      867.500
01/05/2022  11:15:00       30.533      251.308      -23.825      104.525       96.464       60.553    10925.569     9305.238     3666.609        4.427        1.195      253.156       49.710        0.039      337.709        9.863      867.507
01/05/2022  11:16:00      -26.796      258.743      -26.009      101.066      121.991       48.236    10214.351    14881.726     2326.754        4.788        1.371      260.127       52.841        0.041      337.807       10.027      867.521
01/05/2022  11:17:00       98.204      337.130      -34.688       93.526       94.859       52.460     8747.066     8998.162     2752.006        7.250        1.025      351.142       57.380        0.027      337.696        9.840      867.536
01/05/2022  11:18:00      150.952      384.742      -49.120       72.801       69.177       38.883     5299.952     4785.417     1511.897        9.241        0.580      413.296       35.455        0.007      337.640        9.746      867.544
01/05/2022  11:19:00      165.383      388.701      -53.586       64.998       81.990       42.290     4224.726     6722.393     1788.443        9.702        0.637      422.422       36.225        0.007      337.631        9.732      867.531
01/05/2022  11:20:00      159.021      453.599      -46.927       82.643       81.537       53.315     6829.941     6648.289     2842.478       12.478        0.816      480.666       49.304        0.011      337.540        9.579      867.524
01/05/2022  11:21:00      164.410      368.717      -50.502       75.772       97.276       50.941     5741.372     9462.581     2595.008        9.166        0.890      403.712       37.424        0.009      337.653        9.768      867.521
01/05/2022  11:22:00      149.786      346.721      -37.625       77.482      120.291       53.264     6003.524    14469.835     2837.100        8.368        1.166      377.692       54.539        0.021      337.710        9.864      867.492
01/05/2022  11:23:00      179.461      265.363      -37.775       92.594      138.580       57.565     8573.693    19204.295     3313.688        6.757        1.555      320.349       62.009        0.037      337.902       10.186      867.470
01/05/2022  11:24:00      107.073      422.889      -52.415       98.167       85.143       51.775     9636.822     7249.329     2680.620       10.630        0.978      436.234       38.233        0.008      337.626        9.723      867.468
01/05/2022  11:25:00       54.557      336.289      -37.293      104.194       88.386       53.518    10856.324     7812.157     2864.168        6.949        1.077      340.686       46.698        0.019      337.740        9.915      867.466
01/05/2022  11:26:00       17.444      286.972      -24.538       97.430      102.910       43.304     9492.584    10590.506     1875.247        5.260        1.098      287.502       41.753        0.021      337.839       10.082      867.465
01/05/2022  11:27:00       89.613      308.341      -15.874       85.207      100.199       57.212     7260.317    10039.782     3273.163        6.196        1.029      321.099       54.653        0.029      337.875       10.142      867.457
01/05/2022  11:28:00       -3.420      266.398      -25.911       78.725      124.980       47.170     6197.578    15620.062     2225.021        4.784        1.202      266.420       51.208        0.037      338.005       10.360      867.445
01/05/2022  11:29:00      -10.738      226.593      -25.997       93.662       99.728       46.134     8772.533     9945.655     2128.347        3.649        1.042      226.848       44.397        0.038      338.131       10.572      867.412
01/05/2022  11:30:00      -42.027      211.200      -28.705      126.943      107.383       54.275    16114.498    11531.051     2945.829        3.889        1.530      215.341       27.454        0.016      338.089       10.500      867.395
01/05/2022  11:31:00       20.958      239.027      -29.256       90.306       76.131       38.403     8155.249     5795.997     1474.785        3.692        0.771      239.944       31.192        0.017      338.069       10.467      867.362
01/05/2022  11:32:00      100.844      297.957      -39.753       66.113       93.453       45.106     4370.978     8733.446     2034.565        5.783        0.757      314.559       21.668        0.005      337.922       10.221      867.349
01/05/2022  11:33:00       95.969      362.859      -39.379       93.185      100.246       58.736     8683.511    10049.196     3449.976        8.230        1.109      375.336       57.807        0.024      337.921       10.217      867.345
01/05/2022  11:34:00       33.225      295.642      -16.375       93.758       97.241       59.927     8790.550     9455.774     3591.302        5.530        1.092      297.503       53.744        0.033      337.937       10.245      867.344
01/05/2022  11:35:00       69.326      329.821      -39.383      102.711      103.606       53.121    10549.618    10734.283     2821.809        6.962        1.205      337.028       47.434        0.020      337.877       10.143      867.334
01/05/2022  11:36:00      -49.767      225.113      -16.533       95.777      120.341       62.793     9173.225    14481.845     3942.981        4.051        1.380      230.549       54.183        0.055      338.026       10.395      867.324
01/05/2022  11:37:00        6.660      310.579      -27.258      105.541      102.816       59.740    11138.907    10571.085     3568.909        6.126        1.264      310.651       41.196        0.018      337.927       10.229      867.331
01/05/2022  11:38:00      -32.789      266.034      -27.902      155.989      130.086       54.277    24332.466    16922.377     2946.046        5.841        2.210      268.047       53.795        0.040      338.011       10.369      867.323
01/05/2022  11:39:00      137.933      292.521      -39.708       68.493       89.362       46.716     4691.346     7985.486     2182.389        6.051        0.743      323.410       38.195        0.014      337.921       10.219      867.330
01/05/2022  11:40:00      130.563      321.165      -37.729       80.197       91.515       51.901     6431.497     8375.001     2693.663        6.956        0.875      346.689       45.131        0.017      337.949       10.264      867.326
01/05/2022  11:41:00       72.527      284.875      -36.974      130.874       99.194       49.971    17127.941     9839.360     2497.063        5.862        1.473      293.963       51.683        0.031      338.163       10.625      867.328
01/05/2022  11:42:00      107.352      383.959      -34.653      105.509      131.776       57.656    11132.161    17364.954     3324.207        9.598        1.591      398.684       63.257        0.025      337.985       10.327      867.324
01/05/2022  11:43:00       33.816      377.932      -37.802      124.290      119.364       61.107    15448.051    14247.876     3734.020        8.941        1.671      379.442       52.286        0.019      337.937       10.244      867.315
01/05/2022  11:44:00      -33.854      306.015       -8.232       95.047      149.458       61.592     9033.943    22337.731     3793.529        6.501        1.758      307.882       64.180        0.043      337.939       10.249      867.301
01/05/2022  11:45:00       62.236      294.160      -37.517       92.261       98.565       53.389     8512.183     9714.983     2850.382        5.644        1.054      300.672       47.640        0.025      338.017       10.379      867.280
01/05/2022  11:46:00       76.234      263.608      -13.145       97.684      113.299       62.855     9542.200    12836.705     3950.753        5.090        1.316      274.410       65.572        0.057      338.001       10.352      867.259
01/05/2022  11:47:00       79.970      333.842      -21.653       97.146      127.490       59.118     9437.372    16253.808     3494.934        7.375        1.459      343.287       68.002        0.039      338.020       10.384      867.250
01/05/2022  11:48:00      -62.093      375.313      -35.164      122.066      100.098       58.292    14900.110    10019.583     3397.902        8.713        1.416      380.415       42.646        0.013      337.895       10.175      867.239
01/05/2022  11:49:00     -128.828      332.976      -37.759      112.323       91.831       57.276    12616.416     8432.875     3280.572        7.661        1.216      357.029       33.798        0.009      338.031       10.403      867.231
01/05/2022  11:50:00     -125.794      351.683      -28.244      131.031      136.738       69.952    17169.015    18697.205     4893.337        9.052        2.038      373.504       63.023        0.028      337.820       10.049      867.229
01/05/2022  11:51:00      -77.690      343.886      -26.606       83.359      128.703       58.061     6948.700    16564.554     3371.060        7.594        1.344      352.553       55.968        0.025      337.862       10.119      867.214
01/05/2022  11:52:00       45.829      404.150      -30.468       95.505      135.097       56.191     9121.169    18251.287     3157.433        9.844        1.526      406.740       61.890        0.023      337.804       10.023      867.195
01/05/2022  11:53:00       -1.340      375.595      -28.869       97.934      108.618       61.101     9591.010    11797.832     3733.320        8.351        1.256      375.597       57.592        0.024      337.851       10.101      867.127
01/05/2022  11:54:00      -10.421      425.011      -32.660      114.307      115.124       57.349    13065.986    13253.481     3288.921       10.570        1.480      425.139       46.355        0.012      337.810       10.032      867.086
01/05/2022  11:55:00       27.062      399.516      -26.961       89.038      102.647       59.483     7927.852    10536.489     3538.212        9.153        1.100      400.432       57.236        0.020      337.903       10.186      867.053
01/05/2022  11:56:00      121.612      325.994      -36.330       97.659      116.786       49.969     9537.373    13639.054     2496.879        7.402        1.284      347.939       60.513        0.030      337.988       10.331      867.041
01/05/2022  11:57:00      110.402      328.425      -32.898       97.247      106.791       63.586     9456.929    11404.381     4043.147        7.301        1.245      346.485       62.446        0.032      337.992       10.337      867.038
01/05/2022  11:58:00       94.538      297.194      -24.134       98.557      108.048       63.263     9713.500    11674.350     4002.164        6.161        1.270      311.868       53.083        0.029      338.026       10.395      867.032
01/05/2022  11:59:00      210.039      411.059      -55.192      131.859      154.196       75.222    17386.783    23776.353     5658.361       13.147        2.341      461.612       63.082        0.019      337.881       10.151      867.001
01/05/2022  12:00:00       80.833      406.346      -29.445      106.342      121.480       58.765    11308.686    14757.399     3453.368       10.101        1.476      414.308       64.688        0.024      337.959       10.282      867.030
01/05/2022  12:01:00       76.332      284.269      -34.247       90.416       90.033       51.814     8174.998     8105.915     2684.702        5.338        0.948      294.339       40.037        0.019      338.040       10.418      867.032
01/05/2022  12:02:00      132.950      407.704      -46.206       80.467      142.273       51.280     6474.898    20241.618     2629.651       10.768        1.467      428.833       65.070        0.023      337.809       10.030      867.012
01/05/2022  12:03:00       93.685      334.272      -30.608       67.488      128.698       60.256     4554.614    16563.259     3630.734        7.310        1.237      347.152       65.875        0.036      338.079       10.483      866.999
01/05/2022  12:04:00       55.484      363.669      -37.950      107.527       99.509       49.322    11562.016     9901.947     2432.616        8.033        1.195      367.877       49.112        0.018      338.036       10.411      866.996
01/05/2022  12:05:00       30.094      306.054      -22.026       90.353       79.417       50.111     8163.615     6307.060     2511.073        5.602        0.849      307.530       47.675        0.024      338.116       10.544      866.985
01/05/2022  12:06:00      101.875      350.555      -39.556       68.709       89.235       44.792     4720.951     7962.871     2006.305        7.476        0.735      365.058       35.666        0.010      337.953       10.273      866.973
01/05/2022  12:07:00       84.139      314.944      -36.772      124.834       86.777       57.650    15583.458     7530.177     3323.504        6.702        1.322      325.989       60.868        0.035      338.049       10.434      866.957
01/05/2022  12:08:00       76.407      337.067      -37.333       95.371       80.268       52.224     9095.639     6442.879     2727.392        6.955        0.913      345.619       47.499        0.019      338.032       10.402      866.941
01/05/2022  12:09:00      103.209      338.946      -37.719       91.051       95.337       51.259     8290.283     9089.214     2627.525        7.348        1.000      354.311       41.731        0.014      338.022       10.388      866.920
01/05/2022  12:10:00       33.723      392.093      -37.552      111.658      105.820       60.271    12467.537    11197.925     3632.585        9.179        1.365      393.540       57.388        0.021      337.955       10.274      866.894
01/05/2022  12:11:00      -14.454      305.256      -12.406       80.981       99.244       50.727     6557.910     9849.469     2573.223        5.626        0.949      305.598       41.092        0.018      338.116       10.548      866.888
01/05/2022  12:12:00      117.199      396.659      -41.258      121.166      148.592       54.580    14681.263    22079.548     2979.020       10.625        1.987      413.611       73.653        0.032      338.022       10.387      866.878
01/05/2022  12:13:00       89.423      391.008      -47.227       98.142      106.186       48.245     9631.877    11275.478     2327.574        9.317        1.162      401.103       50.970        0.016      337.939       10.249      866.863
01/05/2022  12:14:00      136.936      432.365      -50.511       91.524      108.458       55.151     8376.717    11763.057     3041.671       11.571        1.159      453.532       53.764        0.014      337.901       10.185      866.850
01/05/2022  12:15:00      148.006      398.859      -48.425       67.555       88.736       42.226     4563.689     7874.088     1783.001        9.878        0.711      425.435       38.324        0.008      337.890       10.166      866.807
01/05/2022  12:16:00      115.321      392.016      -51.036      113.297      103.596       46.974    12836.106    10732.043     2206.539        9.767        1.289      408.626       47.230        0.013      337.988       10.331      866.775
01/05/2022  12:17:00      139.863      466.844      -45.617       97.132      136.554       63.578     9434.568    18647.012     4042.104       13.585        1.606      487.345       70.753        0.021      337.915       10.208      866.736
01/05/2022  12:18:00      117.173      372.461      -39.630      119.581      121.927       71.280    14299.612    14866.260     5080.789        9.413        1.712      390.457       73.979        0.036      338.043       10.424      866.727
01/05/2022  12:19:00      191.595      374.894      -51.304      113.513      103.232       62.090    12885.295    10656.820     3855.117       10.364        1.370      421.015       56.039        0.018      338.041       10.419      866.707
01/05/2022  12:20:00       -1.275      283.853      -31.105      102.105      109.612       64.163    10425.410    12014.710     4116.902        5.404        1.328      283.856       45.590        0.026      338.077       10.480      866.693
01/05/2022  12:21:00      213.485      347.018      -52.647      103.486       91.796       63.221    10709.267     8426.596     3996.878        9.595        1.157      407.428       47.342        0.014      338.057       10.445      866.678
01/05/2022  12:22:00      149.406      293.260      -34.791       96.423      166.361       55.902     9297.355    27676.019     3125.063        7.481        2.005      329.125       59.086        0.032      338.157       10.614      866.639
01/05/2022  12:23:00       19.826      298.981      -32.093       81.457      116.270       48.869     6635.263    13518.654     2388.174        5.667        1.127      299.637       34.441        0.013      338.181       10.654      866.611
01/05/2022  12:24:00       68.551      207.479       -7.358      105.928      101.217       59.684    11220.786    10244.916     3562.193        3.641        1.251      218.511       48.097        0.048      338.402       11.026      866.619
01/05/2022  12:25:00       76.110      297.953      -32.382      126.014      154.437       61.482    15879.433    23850.695     3780.018        6.956        2.176      307.520       66.989        0.047      338.177       10.648      866.613
01/05/2022  12:26:00       79.580      406.388      -35.827      127.775      112.907       65.171    16326.546    12748.073     4247.319       10.304        1.666      414.107       61.410        0.022      337.976       10.312      866.584
01/05/2022  12:27:00      225.461      536.280      -68.453       81.422      102.007       51.822     6629.584    10405.327     2685.539       18.141        0.986      581.746       37.801        0.004      337.817       10.045      866.554
01/05/2022  12:28:00      205.151      354.253      -55.767      110.240      156.272       76.032    12152.753    24421.044     5780.845       10.652        2.118      409.368       81.992        0.040      338.066       10.462      866.525
01/05/2022  12:29:00      136.042      346.147      -36.514      104.768      138.065       57.759    10976.416    19061.975     3336.105        8.651        1.669      371.920       54.953        0.022      338.166       10.628      866.517
01/05/2022  12:30:00       28.351      386.502      -47.027      146.552      105.972       68.330    21477.606    11229.967     4669.023        9.488        1.869      387.541       71.054        0.034      338.130       10.568      866.515
01/05/2022  12:31:00      107.574      294.372      -29.208      100.938      105.136       64.390    10188.577    11053.575     4146.040        6.223        1.269      313.412       63.711        0.041      338.323       10.892      866.513
01/05/2022  12:32:00      234.874      370.404      -62.204      105.089      143.240       64.678    11043.763    20517.736     4183.270       11.598        1.787      438.594       63.345        0.021      338.115       10.543      866.516
01/05/2022  12:33:00      130.949      264.816      -30.498       79.777      106.959       52.111     6364.402    11440.126     2715.597        5.436        1.026      295.423       37.755        0.016      338.166       10.629      866.507
01/05/2022  12:34:00       34.876      180.792      -23.677       61.373      127.090       46.887     3766.617    16151.811     2198.366        2.829        1.106      184.125       46.099        0.063      338.327       10.903      866.503
01/05/2022  12:35:00       90.200      152.113       -4.854      121.435      115.294       68.855    14746.380    13292.735     4741.050        3.203        1.639      176.845       73.016        0.170      338.412       11.045      866.491
01/05/2022  12:36:00      105.031      275.559      -25.092      101.853      111.907       51.298    10374.029    12523.199     2631.450        5.656        1.276      294.898       51.156        0.030      338.304       10.861      866.491
01/05/2022  12:37:00       74.955      355.414      -44.995      161.354      119.388       71.307    26035.001    14253.436     5084.749        8.966        2.269      363.231       40.571        0.012      338.201       10.687      866.485
01/05/2022  12:38:00       62.310      234.922      -36.682      117.627      126.256       63.995    13836.145    15940.516     4095.359        4.714        1.694      243.045       68.567        0.080      338.261       10.789      866.478
01/05/2022  12:39:00      -18.479      226.962      -31.609      114.614       88.476       51.496    13136.456     7827.915     2651.866        3.823        1.181      227.713       23.299        0.010      338.303       10.858      866.471
01/05/2022  12:40:00      124.365      329.026      -37.635       81.868       79.946       44.797     6702.421     6391.324     2006.757        7.012        0.755      351.745       43.622        0.015      338.164       10.624      866.479
01/05/2022  12:41:00       69.303      270.271      -34.441       75.948       68.431       42.903     5768.165     4682.820     1840.653        4.566        0.615      279.015       33.914        0.015      338.130       10.569      866.474
01/05/2022  12:42:00       -4.741       90.958      -17.164       63.060       76.568       36.378     3976.574     5862.687     1323.327        0.987        0.558       91.082       25.527        0.079      338.487       11.172      866.465
01/05/2022  12:43:00        2.563       39.744      -21.622       40.544       57.580       32.741     1643.782     3315.458     1071.995        0.404        0.302       39.826       23.798        0.357      338.706       11.539      866.456
01/05/2022  12:44:00      -28.998       97.644      -41.667      101.506      101.624       56.485    10303.508    10327.535     3190.568        1.796        1.191      101.859       18.716        0.034      338.465       11.134      866.445
01/05/2022  12:45:00       57.919      190.098      -22.162       87.357      108.189       43.658     7631.324    11704.773     1906.023        3.061        1.062      198.725       42.047        0.045      338.383       10.993      866.451
01/05/2022  12:46:00       64.662      163.734      -28.762       65.485       55.881       45.645     4288.315     3122.719     2083.474        2.065        0.475      176.040       21.888        0.015      338.425       11.066      866.430
01/05/2022  12:47:00       37.566      138.450      -13.951       60.966       61.610       43.077     3716.851     3795.852     1855.669        1.507        0.468      143.456       11.402        0.006      338.735       11.587      866.395
01/05/2022  12:48:00      -28.840      147.981      -18.596       61.098       78.965       34.752     3732.925     6235.445     1207.667        1.712        0.559      150.765       28.291        0.035      338.685       11.503      866.363
01/05/2022  12:49:00       14.203      162.701      -14.683       75.152       78.089       43.610     5647.783     6097.851     1901.801        2.027        0.682      163.320       38.320        0.055      338.583       11.332      866.345
01/05/2022  12:50:00       73.808      129.661       -7.370       88.562       88.888       50.728     7843.220     7901.046     2573.300        2.031        0.916      149.196       57.257        0.147      338.536       11.252      866.329
01/05/2022  12:51:00      115.499      126.936      -21.499       81.075       75.553       51.166     6573.161     5708.191     2617.917        2.240        0.745      171.618       42.677        0.062      338.439       11.088      866.312
01/05/2022  12:52:00      131.363       95.656      -39.220       74.101       65.861       38.663     5490.960     4337.654     1494.803        1.963        0.566      162.500        7.687        0.002      338.551       11.276      866.283
01/05/2022  12:53:00      146.955       75.187      -16.932       69.739       63.214       41.130     4863.485     3996.034     1691.708        1.904        0.528      165.072       28.118        0.029      338.725       11.571      866.253
01/05/2022  12:54:00      201.210       57.531       -2.822      177.867       92.524       57.414    31636.771     8560.687     3296.340        4.364        2.175      209.273       75.203        0.129      338.736       11.589      866.206
01/05/2022  12:55:00      208.210       49.942      -20.491      163.745      100.024       55.340    26812.485    10004.766     3062.535        4.307        1.994      214.116       63.991        0.089      338.685       11.503      866.154
01/05/2022  12:56:00      192.440       43.253      -30.313      119.933       93.406       60.266    14383.968     8724.656     3632.007        3.328        1.337      197.241       53.239        0.073      338.883       11.834      866.147
01/05/2022  12:57:00      194.232        8.966      -25.171       98.854       69.518       52.918     9772.063     4832.688     2800.285        2.792        0.870      194.439       39.984        0.042      338.907       11.876      866.160
01/05/2022  12:58:00      295.774      131.332      -30.901      139.367       97.296       65.149    19423.257     9466.523     4244.424        6.940        1.657      323.621       70.581        0.048      338.568       11.305      866.162
01/05/2022  12:59:00      243.504      103.411      -40.471      146.099      110.925       58.785    21344.979    12304.411     3455.632        5.436        1.855      264.553       52.604        0.040      338.618       11.389      866.126
01/05/2022  13:00:00      252.823       79.904      -33.861      131.802      111.801       56.504    17371.688    12499.561     3192.722        5.225        1.653      265.149       25.957        0.010      338.590       11.341      866.116
01/05/2022  13:01:00      248.805       83.553      -25.661      138.085      122.247       63.060    19067.438    14944.261     3976.621        5.376        1.899      262.459       48.206        0.034      338.615       11.384      866.100
01/05/2022  13:02:00      201.622      174.912      -28.763      126.764       86.393       54.754    16069.055     7463.816     2997.977        4.930        1.327      266.919       58.262        0.048      338.586       11.335      866.123
01/05/2022  13:03:00      207.999      123.610      -29.166       95.920       97.238       56.836     9200.652     9455.267     3230.377        4.064        1.094      241.957       45.020        0.035      338.637       11.421      866.125
01/05/2022  13:04:00      171.470       55.372      -29.057      148.678      121.817       63.793    22105.261    14839.438     4069.513        3.716        2.051      180.189       47.741        0.070      338.670       11.476      866.087
01/05/2022  13:05:00      222.542      289.484      -43.041       67.060      116.989       54.365     4497.039    13686.366     2955.562        7.815        1.057      365.139       48.829        0.018      338.273       10.807      866.126
01/05/2022  13:06:00      146.063      155.733      -24.594       69.911       86.306       49.475     4887.602     7448.676     2447.807        3.049        0.739      213.512       38.637        0.033      338.526       11.234      866.141
01/05/2022  13:07:00      164.716      160.872      -25.939       99.065       79.771       48.567     9813.782     6363.450     2358.801        3.611        0.927      230.242       48.505        0.044      338.484       11.163      866.134
01/05/2022  13:08:00      253.894      204.378      -44.929      116.913      115.951       63.537    13668.696    13444.536     4036.957        6.969        1.558      325.933       62.727        0.037      338.349       10.936      866.159
01/05/2022  13:09:00      221.211      349.338      -61.148      117.371      113.163       64.868    13775.969    12805.841     4207.881       10.274        1.539      413.487       56.973        0.019      338.203       10.692      866.173
01/05/2022  13:10:00      231.855      194.746      -33.851      103.355      128.032       54.808    10682.254    16392.099     3003.873        6.145        1.504      302.792       52.640        0.030      338.216       10.714      866.162
01/05/2022  13:11:00      121.616      148.447      -18.537       76.641      101.111       55.620     5873.855    10223.403     3093.554        2.818        0.960      191.903       49.500        0.067      338.288       10.834      866.132
01/05/2022  13:12:00      229.608      153.032      -40.846      112.200      105.937       57.154    12588.801    11222.548     3266.553        5.244        1.354      275.932       30.928        0.013      338.337       10.917      866.098
01/05/2022  13:13:00      237.478      187.363      -36.684      105.996       96.454       50.448    11235.121     9303.415     2544.985        5.796        1.154      302.491       43.478        0.021      338.409       11.037      866.076
01/05/2022  13:14:00      151.126       89.428      -21.440       88.451       71.110       41.704     7823.513     5056.599     1739.188        2.296        0.731      175.603       32.156        0.034      338.569       11.308      866.074
01/05/2022  13:15:00      141.856      180.027      -27.787       97.043       70.048       51.635     9417.318     4906.728     2666.201        3.514        0.850      229.200       44.455        0.038      338.692       11.512      866.091
01/05/2022  13:16:00      146.673      136.081      -24.469       82.021       71.512       42.499     6727.470     5113.960     1806.182        2.714        0.682      200.077       46.276        0.053      338.645       11.435      866.092
01/05/2022  13:17:00      109.959       32.158      -21.394       64.025       61.133       42.627     4099.190     3737.203     1817.050        1.162        0.483      114.565       22.998        0.040      338.772       11.650      866.084
01/05/2022  13:18:00      174.122      112.478      -29.945      105.964      123.096       65.653    11228.440    15152.686     4310.326        3.727        1.535      207.292       50.032        0.058      338.647       11.438      866.070
01/05/2022  13:19:00      253.908      207.481      -32.510      122.584       77.815       61.979    15026.932     6055.215     3841.447        6.674        1.246      327.899       49.738        0.023      338.399       11.018      866.090
01/05/2022  13:20:00      183.053      180.857      -22.160       98.389      153.774       70.711     9680.467    23646.348     5000.007        5.251        1.916      257.329       56.592        0.048      338.414       11.047      866.097
01/05/2022  13:21:00      129.279      459.273      -51.318       92.266       76.612       46.908     8512.940     5869.374     2200.347       12.343        0.829      477.122       35.302        0.005      338.335       10.914      866.118
01/05/2022  13:22:00      182.777      377.569      -48.532      126.243      118.382       58.094    15937.379    14014.265     3374.922       10.582        1.666      419.483       62.639        0.022      338.324       10.893      866.118
01/05/2022  13:23:00       55.537      198.046      -15.128       95.457       96.550       54.617     9112.000     9321.877     2983.071        3.197        1.071      205.686       45.604        0.049      338.538       11.254      866.140
01/05/2022  13:24:00      261.112      236.910      -50.349      133.981       87.620       57.145    17950.965     7677.193     3265.509        7.786        1.445      352.571       47.915        0.018      338.353       10.943      866.135
01/05/2022  13:25:00      249.213      201.194      -33.993      154.611       95.621       69.687    23904.590     9143.325     4856.306        7.082        1.895      320.291       56.685        0.031      338.427       11.067      866.125
01/05/2022  13:26:00      165.031      180.405      -26.279       90.107       86.146       49.674     8119.327     7421.057     2467.524        3.924        0.900      244.502       52.860        0.047      338.501       11.193      866.148
01/05/2022  13:27:00      189.460      203.955      -29.613      109.821      103.821       57.150    12060.623    10778.848     3266.137        5.223        1.305      278.375       48.954        0.031      338.459       11.120      866.173
01/05/2022  13:28:00      104.839      136.883       -8.245       76.401       90.660       53.001     5837.096     8219.222     2809.117        2.333        0.843      172.418       53.788        0.097      338.682       11.498      866.182
01/05/2022  13:29:00       75.442      256.532      -30.918       79.601      107.668       40.255     6336.284    11592.348     1620.456        4.600        0.977      267.395       52.665        0.039      338.691       11.512      866.203
01/05/2022  13:30:00      123.068      339.037      -40.150       77.340       93.323       51.378     5981.478     8709.103     2639.720        7.451        0.867      360.683       48.208        0.018      338.508       11.204      866.199
01/05/2022  13:31:00      127.208      279.543      -39.110       73.381      169.914       40.936     5384.795    28870.684     1675.751        6.589        1.797      307.126       52.291        0.029      338.548       11.271      866.181
01/05/2022  13:32:00       53.902      307.827      -41.356      125.398       93.037       51.657    15724.652     8655.795     2668.477        6.321        1.352      312.511       51.196        0.027      338.478       11.154      866.172
01/05/2022  13:33:00        1.014      253.959      -23.725       76.031       76.808       47.815     5780.679     5899.440     2286.282        3.951        0.698      253.961       41.091        0.026      338.519       11.224      866.164
01/05/2022  13:34:00     -104.826      265.042      -26.567       88.155      100.217       55.510     7771.336    10043.363     3081.379        5.141        1.045      285.019       37.526        0.017      338.765       11.635      866.147
01/05/2022  13:35:00        9.228      201.189      -13.738       64.891       75.206       49.237     4210.795     5656.016     2424.294        2.652        0.615      201.400       43.060        0.046      338.711       11.545      866.144
01/05/2022  13:36:00       66.515      313.488      -26.487       94.712      124.099       50.643     8970.423    15400.529     2564.678        6.516        1.347      320.467       54.611        0.029      338.545       11.266      866.151
01/05/2022  13:37:00       53.586      304.204      -38.895       79.527       80.221       40.753     6324.621     6435.488     1660.822        5.567        0.721      308.888       33.121        0.011      338.603       11.363      866.155
01/05/2022  13:38:00      121.710      278.581      -37.507       90.693       83.242       48.229     8225.130     6929.170     2326.083        5.565        0.874      304.007       48.150        0.025      338.598       11.354      866.150
01/05/2022  13:39:00      148.549      270.297      -46.543      101.647      107.712       51.840    10332.014    11601.838     2687.377        6.095        1.231      308.427       44.966        0.021      338.571       11.310      866.128
01/05/2022  13:40:00       77.349      177.096      -20.840       78.038       77.903       43.961     6089.867     6068.887     1932.610        2.593        0.705      193.250       35.895        0.035      338.736       11.586      866.113
01/05/2022  13:41:00       80.539      166.435      -19.125       82.657       65.779       40.929     6832.154     4326.874     1675.173        2.369        0.642      184.898       32.036        0.030      338.740       11.594      866.091
01/05/2022  13:42:00      -33.426      154.606      -21.994       62.109       92.350       44.454     3857.503     8528.443     1976.189        1.993        0.718      158.178       18.335        0.013      338.840       11.764      866.068
01/05/2022  13:43:00       21.830       86.717       -3.763       50.252       45.268       37.656     2525.257     2049.154     1417.987        0.700        0.300       89.423       27.313        0.093      339.009       12.047      866.068
01/05/2022  13:44:00       46.971      187.462      -10.953       80.030       86.316       47.824     6404.751     7450.487     2287.166        2.680        0.807      193.257       47.358        0.060      338.825       11.737      866.064
01/05/2022  13:45:00       83.305      192.186      -34.507       70.915       84.295       42.791     5028.965     7105.578     1831.038        2.951        0.698      209.464       29.400        0.020      338.878       11.825      866.041
01/05/2022  13:46:00      104.737      331.412      -37.083      100.598      120.180       60.028    10119.919    14443.346     3603.400        7.517        1.408      347.569       56.335        0.026      338.612       11.378      866.047
01/05/2022  13:47:00      200.808      309.126      -52.598      108.611      115.768       54.306    11796.402    13402.308     2949.124        8.339        1.407      368.622       43.340        0.014      338.558       11.287      866.050
01/05/2022  13:48:00      145.729      292.845      -37.846       88.171      118.931       63.752     7774.123    14144.662     4064.278        6.720        1.299      327.101       62.448        0.036      338.591       11.343      866.045
01/05/2022  13:49:00      189.184      264.626      -20.045      104.505      136.059       69.739    10921.228    18512.013     4863.562        7.025        1.715      325.296       69.486        0.046      338.580       11.323      866.042
01/05/2022  13:50:00      125.921      306.166      -37.551       85.110       72.862       44.291     7243.636     5308.857     1961.736        6.276        0.726      331.049       37.766        0.013      338.692       11.513      866.050
01/05/2022  13:51:00       32.062      160.423      -20.386      101.528       65.422       43.842    10307.874     4280.094     1922.154        2.184        0.826      163.596       30.084        0.034      338.854       11.786      866.050
01/05/2022  13:52:00       58.119      211.306      -15.828       73.432      114.469       40.239     5392.198    13103.138     1619.154        3.419        1.006      219.153       48.965        0.050      338.885       11.837      866.040
01/05/2022  13:53:00       90.235      267.403      -35.815       58.295       75.429       34.237     3398.355     5689.460     1172.174        4.559        0.513      282.218       33.478        0.014      338.770       11.643      866.032
01/05/2022  13:54:00        6.334      280.519      -27.015       59.083      101.761       38.461     3490.838    10355.249     1479.277        4.739        0.766      280.590       43.145        0.024      338.848       11.776      866.017
01/05/2022  13:55:00      -17.120      273.207      -30.969       73.874       80.383       36.511     5457.432     6461.369     1333.062        4.457        0.663      273.743       27.378        0.010      338.791       11.678      866.019
01/05/2022  13:56:00      -39.372      108.533        4.285       61.894       53.219       42.489     3830.817     2832.310     1805.335        1.091        0.423      115.453       29.600        0.066      339.087       12.180      866.029
01/05/2022  13:57:00       53.798      192.186      -26.107       49.163       75.251       26.672     2416.987     5662.646      711.417        2.465        0.440      199.574       15.667        0.006      338.784       11.668      866.018
01/05/2022  13:58:00      -12.632      138.617      -18.596       61.042       31.213       29.874     3726.097      974.236      892.452        1.266        0.280      139.191       26.234        0.036      338.968       11.979      866.005
01/05/2022  13:59:00       -5.489      222.711      -19.248       74.533       84.652       44.118     5555.147     7165.887     1946.371        3.233        0.733      222.778       32.530        0.021      339.076       12.160      866.013
01/05/2022  14:00:00        1.920      216.754      -14.615       75.834       61.605       40.795     5750.723     3795.144     1664.199        2.920        0.561      216.763       24.995        0.013      338.964       11.971      866.010
01/05/2022  14:01:00       39.097      204.341      -18.522       60.863       60.314       35.643     3704.341     3637.784     1270.397        2.612        0.431      208.048       31.823        0.023      338.976       11.991      866.025
01/05/2022  14:02:00       51.532      278.196      -22.451       90.850       98.223       45.852     8253.774     9647.829     2102.435        5.027        1.000      282.928       46.437        0.027      338.754       11.617      866.036
01/05/2022  14:03:00      129.720      323.171      -44.889       69.906       89.779       42.097     4886.822     8060.252     1772.138        6.900        0.736      348.234       30.258        0.008      338.626       11.400      866.037
01/05/2022  14:04:00       52.782      279.867      -36.669       87.059       69.711       37.580     7579.183     4859.583     1412.266        4.815        0.693      284.801       31.559        0.012      338.810       11.710      866.036
01/05/2022  14:05:00       -0.073      264.355      -26.069       64.380       83.221       49.877     4144.782     6925.814     2487.722        4.206        0.678      264.355       38.332        0.021      338.764       11.634      866.050
01/05/2022  14:06:00       -7.488      274.915      -16.398       77.126       81.483       54.904     5948.369     6639.451     3014.466        4.575        0.780      275.017       51.791        0.035      338.762       11.630      866.049
01/05/2022  14:07:00       -9.399      271.788      -21.610       68.013       87.386       40.638     4625.745     7636.241     1651.407        4.417        0.696      271.950       36.798        0.018      338.838       11.757      866.037
01/05/2022  14:08:00       48.292      245.575      -32.509       67.797       93.248       41.493     4596.378     8695.137     1721.696        3.935        0.751      250.278       42.150        0.028      338.820       11.728      866.035
01/05/2022  14:09:00      115.206      379.966      -43.579       71.647       96.696       35.818     5133.246     9350.128     1282.950        8.765        0.788      397.047       37.456        0.009      338.675       11.484      866.038
01/05/2022  14:10:00      143.204      359.619      -57.879       73.244       85.443       38.647     5364.681     7300.533     1493.587        8.367        0.708      387.083       34.363        0.008      338.685       11.501      866.050
01/05/2022  14:11:00       47.035      289.990      -25.354       75.916      103.496       46.643     5763.292    10711.505     2175.609        5.280        0.933      293.780       49.856        0.029      338.767       11.639      866.048
01/05/2022  14:12:00      147.844      346.605      -30.444      101.764       93.375       50.467    10355.999     8718.965     2546.955        8.227        1.081      376.820       48.373        0.016      338.650       11.441      866.043
01/05/2022  14:13:00       82.971      271.479      -34.095       92.509       77.894       46.797     8557.855     6067.419     2189.985        4.928        0.841      283.875       40.427        0.020      338.744       11.599      866.027
01/05/2022  14:14:00       54.793      298.368      -23.407      105.703      102.845       71.550    11173.079    10577.020     5119.467        5.972        1.343      303.357       50.459        0.028      338.798       11.690      866.015
01/05/2022  14:15:00       67.266      347.544      -26.885       91.995      102.257       50.094     8463.040    10456.491     2509.364        7.373        1.071      353.993       43.955        0.015      338.588       11.336      865.996
01/05/2022  14:16:00      -27.259      321.223      -29.443       89.151      116.949       55.145     7947.865    13677.119     3040.933        6.473        1.233      322.378       42.061        0.017      338.724       11.566      865.974
01/05/2022  14:17:00       40.759      317.677      -27.028      136.018       92.426       51.513    18500.977     8542.497     2653.589        6.650        1.485      320.281       43.377        0.018      338.607       11.370      865.975
01/05/2022  14:18:00       14.985      328.056      -31.549       89.433       99.402       54.780     7998.183     9880.676     3000.864        6.486        1.044      328.398       48.383        0.022      338.537       11.253      865.964
01/05/2022  14:19:00       37.089      351.833      -29.894      105.129      123.858       58.652    11052.148    15340.841     3440.070        7.794        1.492      353.783       63.049        0.032      338.483       11.160      865.938
01/05/2022  14:20:00       54.494      367.440      -38.666       79.915       92.407       65.315     6386.386     8539.128     4266.055        7.933        0.960      371.459       58.846        0.025      338.493       11.177      865.899
01/05/2022  14:21:00      -15.482      320.823      -30.383       97.349       85.844       55.244     9476.758     7369.185     3051.896        6.199        0.995      321.196       43.786        0.019      338.643       11.429      865.877
01/05/2022  14:22:00       -9.793      346.670      -38.496      138.815      134.345       63.187    19269.606    18048.482     3992.590        8.153        2.066      346.808       39.240        0.013      338.642       11.428      865.872
01/05/2022  14:23:00        9.472      317.193      -34.380       91.500       86.245       54.393     8372.233     7438.243     2958.640        6.032        0.938      317.335       41.313        0.017      338.567       11.301      865.871
01/05/2022  14:24:00      -23.652      285.643      -22.774       93.436       98.792       50.604     8730.240     9759.798     2560.717        5.186        1.053      286.621       41.188        0.021      338.611       11.376      865.854
01/05/2022  14:25:00       22.964      379.862      -39.722       88.795       88.273       50.292     7884.531     7792.035     2529.303        8.230        0.910      380.556       37.542        0.010      338.507       11.202      865.846
01/05/2022  14:26:00       -5.711      309.880      -31.874       71.238       80.675       39.186     5074.857     6508.479     1535.546        5.509        0.656      309.932       33.782        0.012      338.610       11.376      865.853
01/05/2022  14:27:00       48.752      293.367      -23.844       86.797      130.912       49.976     7533.638    17138.046     2497.588        5.808        1.358      297.390       59.060        0.039      338.607       11.371      865.847
01/05/2022  14:28:00       -0.329      215.510      -19.606       70.031      100.357       45.191     4904.399    10071.540     2042.265        3.192        0.851      215.511       22.317        0.011      338.686       11.503      865.829
01/05/2022  14:29:00      -77.923      220.092      -16.077       69.048       77.084       46.082     4767.592     5941.880     2123.582        3.380        0.642      233.479       19.360        0.007      338.702       11.530      865.806
01/05/2022  14:30:00        4.477      198.303      -18.937      111.088      100.198       50.116    12340.447    10039.613     2511.606        3.229        1.245      198.353       27.975        0.020      338.662       11.462      865.805
01/05/2022  14:31:00       -0.423      211.702      -19.845       88.572       62.791       37.720     7845.012     3942.702     1422.761        2.921        0.661      211.702       26.582        0.016      338.764       11.634      865.797
01/05/2022  14:32:00      -51.447      184.337      -21.688      112.249       98.715       41.005    12599.784     9744.581     1681.434        3.056        1.201      191.381       45.072        0.055      338.595       11.351      865.781
01/05/2022  14:33:00       67.155      203.994      -30.881       75.244      119.978       41.598     5661.683    14394.676     1730.359        3.443        1.089      214.764       38.413        0.032      338.642       11.430      865.763
01/05/2022  14:34:00      -10.840      215.720      -26.831      112.978       92.143       44.888    12764.127     8490.415     2014.907        3.532        1.163      215.992       31.131        0.021      338.730       11.579      865.755
01/05/2022  14:35:00      -69.682      194.850      -16.179       59.863       75.985       38.344     3583.591     5773.671     1470.236        2.695        0.541      206.935       11.068        0.003      338.726       11.569      865.762
01/05/2022  14:36:00       22.854      159.050      -21.577       52.568       82.031       31.806     2763.369     6729.049     1011.618        1.839        0.525      160.684       39.257        0.060      338.692       11.516      865.784
01/05/2022  14:37:00       15.283      267.285      -23.668       80.920       71.641       44.219     6547.990     5132.467     1955.317        4.293        0.682      267.721       39.511        0.022      338.511       11.206      865.789
01/05/2022  14:38:00       11.642      209.499      -26.469       77.010       81.813       46.425     5930.492     6693.439     2155.289        2.975        0.739      209.822       23.341        0.012      338.750       11.611      865.792
01/05/2022  14:39:00      -17.956      122.906      -14.757       48.982       72.001       32.823     2399.280     5184.171     1077.317        1.215        0.433      124.210       29.342        0.056      338.824       11.738      865.802
01/05/2022  14:40:00      -33.280      170.194      -25.316       39.876       58.001       29.104     1590.068     3364.094      847.047        1.826        0.290      173.417       25.715        0.022      338.939       11.929      865.798
01/05/2022  14:41:00       18.719      166.384      -25.321       73.065       47.133       28.838     5338.549     2221.491      831.607        1.853        0.420      167.434       17.728        0.011      338.882       11.834      865.792
01/05/2022  14:42:00      -13.848      131.328      -12.979       34.717       40.311       23.804     1205.277     1624.991      566.616        1.050        0.170      132.056       17.953        0.018      339.031       12.086      865.790
01/05/2022  14:43:00      -60.455       79.095      -29.764       51.562       66.723       37.952     2658.625     4451.955     1440.318        0.967        0.428       99.553       19.624        0.039      339.106       12.211      865.803
01/05/2022  14:44:00      -59.092       94.041       -7.391       56.787       54.370       27.860     3224.729     2956.081      776.201        0.967        0.348      111.066       19.064        0.029      339.367       12.651      865.814
01/05/2022  14:45:00      -76.117       75.047      -28.758       88.938       60.803       46.859     7909.913     3697.052     2195.788        1.303        0.690      106.892       33.747        0.100      339.219       12.401      865.820
01/05/2022  14:46:00       10.012       64.542      -16.632       32.974       56.139       22.229     1087.317     3151.635      494.142        0.464        0.237       65.314        9.663        0.022      339.202       12.373      865.810
01/05/2022  14:47:00      -52.567       -6.429        2.631       99.420       71.638       48.712     9884.252     5132.065     2372.890        1.010        0.869       52.958       42.603        0.647      339.217       12.399      865.793
01/05/2022  14:48:00      -47.069       -7.356        1.036       75.305       72.223       42.986     5670.911     5216.202     1847.772        0.750        0.637       47.641       39.833        0.699      339.154       12.294      865.790
01/05/2022  14:49:00      -10.738       98.572      -10.399       71.521      125.506       33.040     5115.195    15751.767     1091.620        1.595        1.098       99.155       14.956        0.023      339.174       12.325      865.792
01/05/2022  14:50:00      -93.083      202.619      -23.693       62.042       69.083       31.668     3849.235     4772.492     1002.892        2.995        0.481      222.977       21.601        0.009      338.929       11.913      865.811
01/05/2022  14:51:00       -9.013       80.043       -3.418       43.342       51.616       32.606     1878.564     2664.233     1063.150        0.605        0.280       80.549       29.682        0.136      339.117       12.231      865.810
01/05/2022  14:52:00      -55.492       84.774      -25.594       59.598       62.682       40.366     3551.948     3929.063     1629.454        1.001        0.456      101.321        7.701        0.006      339.195       12.362      865.819
01/05/2022  14:53:00      -78.208       54.154      -26.903       66.038       67.161       51.769     4360.971     4510.560     2680.060        1.066        0.578       95.127       40.139        0.178      339.193       12.359      865.818
01/05/2022  14:54:00      -35.509       37.308      -11.951       51.421       47.077       28.549     2644.167     2216.258      815.039        0.423        0.284       51.505       21.945        0.182      339.327       12.585      865.816
01/05/2022  14:55:00      -58.838       93.011      -10.546       53.927       71.757       34.544     2908.138     5149.058     1193.278        1.074        0.463      110.059       30.499        0.077      339.616       13.071      865.822
01/05/2022  14:56:00       -0.926      133.795      -16.918       52.800       68.168       32.089     2787.814     4646.932     1029.678        1.332        0.423      133.798       19.752        0.022      339.311       12.557      865.825
01/05/2022  14:57:00       31.153      105.668      -14.172       39.954       28.622       22.030     1596.311      819.213      485.315        0.762        0.145      110.165       18.887        0.029      339.126       12.246      865.818
01/05/2022  14:58:00      -36.590       81.074       -4.407       58.819       57.237       29.476     3459.628     3276.115      868.839        0.777        0.380       88.949       17.940        0.041      339.497       12.870      865.808
01/05/2022  14:59:00      -27.275      111.718        0.025       66.602       70.940       37.663     4435.881     5032.435     1418.478        1.205        0.544      115.000       30.509        0.070      339.320       12.571      865.797
01/05/2022  15:00:00      -22.871      148.205      -10.524       41.432       50.059       28.536     1716.638     2505.873      814.275        1.382        0.252      149.960       23.942        0.025      339.316       12.565      865.789
01/05/2022  15:01:00      -68.081      148.435      -12.026       44.411       69.932       26.597     1972.361     4890.488      707.398        1.719        0.379      163.303       26.191        0.026      339.254       12.460      865.784
01/05/2022  15:02:00      -67.467      161.478      -11.582       51.188       61.696       30.672     2620.256     3806.437      940.746        1.906        0.368      175.005       29.589        0.029      339.337       12.599      865.777
01/05/2022  15:03:00      -75.792       73.414      -18.802       80.510       74.454       40.089     6481.941     5543.358     1607.104        1.256        0.682      105.518       19.599        0.034      339.418       12.736      865.786
01/05/2022  15:04:00      -78.344       42.470      -36.919       84.249       46.735       37.319     7097.916     2184.136     1392.704        0.999        0.534       89.115       28.278        0.101      339.315       12.563      865.793
01/05/2022  15:05:00      -29.607       12.371      -19.058       36.648       62.006       24.269     1343.058     3844.709      589.002        0.358        0.289       32.087       25.212        0.617      339.328       12.586      865.792
01/05/2022  15:06:00      -35.605       63.409      -25.286       23.182       44.661       22.979      537.402     1994.594      528.025        0.449        0.153       72.721       11.922        0.027      339.326       12.582      865.785
01/05/2022  15:07:00      -33.260       80.280       -5.100       40.724       34.746       22.990     1658.461     1207.264      528.553        0.549        0.170       86.896        7.958        0.008      339.640       13.113      865.778
01/05/2022  15:08:00      -69.705       43.225      -34.267       60.168       73.374       40.901     3620.139     5383.767     1672.920        0.929        0.534       82.019       35.750        0.190      339.650       13.127      865.762
01/05/2022  15:09:00      -33.744       20.793      -17.238       45.364       54.206       38.140     2057.848     2938.345     1454.673        0.416        0.323       39.636       20.680        0.272      339.402       12.712      865.739
01/05/2022  15:10:00        3.475       18.152       -3.309       25.280       28.414       25.768      639.101      807.339      663.972        0.123        0.106       18.482       13.368        0.523      339.515       12.900      865.747
01/05/2022  15:11:00       15.111       -5.457       -1.503       47.161       52.433       48.999     2224.127     2749.191     2400.916        0.382        0.369       16.067       19.364        1.453      339.530       12.927      865.740
01/05/2022  15:12:00      -10.149      -17.212       -9.564       41.966       45.293       34.300     1761.142     2051.446     1176.460        0.274        0.249       19.982       19.419        0.944      339.527       12.923      865.733
01/05/2022  15:13:00       40.196      -11.515       -5.409       35.237       27.733       22.560     1241.618      769.136      508.942        0.215        0.126       41.813       17.930        0.184      339.528       12.923      865.738
01/05/2022  15:14:00      -36.130      -26.368      -33.693       61.336       60.209       38.503     3762.052     3625.106     1482.461        0.600        0.443       44.728       33.356        0.556      339.460       12.808      865.731
01/05/2022  15:15:00      -23.901       -6.498      -13.872       90.903       45.578       33.512     8263.333     2077.375     1123.069        0.613        0.573       24.768       28.555        1.329      339.490       12.857      865.728
01/05/2022  15:16:00      -85.170        9.243      -19.204       70.844       32.212       30.600     5018.821     1037.593      936.363        0.735        0.350       85.670       10.080        0.014      339.292       12.526      865.740
01/05/2022  15:17:00      -54.600      -12.835       -3.855       41.276       55.423       19.577     1703.712     3071.655      383.271        0.416        0.258       56.088       17.910        0.102      339.348       12.619      865.751
01/05/2022  15:18:00      -59.531       73.723       -6.638       76.626       76.471       35.367     5871.516     5847.837     1250.816        1.099        0.649       94.758       35.481        0.140      339.663       13.149      865.775
01/05/2022  15:19:00      -56.108      213.845      -21.396       79.666       65.707       55.716     6346.656     4317.434     3104.247        3.155        0.688      221.083       23.807        0.012      339.033       12.085      865.792
01/05/2022  15:20:00      -74.508      178.130      -19.666       82.623      104.740       50.954     6826.552    10970.460     2596.264        2.903        1.020      193.085       35.684        0.034      338.992       12.018      865.799
01/05/2022  15:21:00      -76.238      187.490      -18.879       81.992       68.922       43.395     6722.618     4750.202     1883.107        2.734        0.668      202.397       30.597        0.023      338.922       11.899      865.805
01/05/2022  15:22:00      -72.329      133.359      -42.743       90.072       86.527       51.327     8113.028     7486.912     2634.501        2.154        0.912      151.711       46.557        0.094      338.949       11.945      865.804
01/05/2022  15:23:00      -77.470      176.600      -16.021       59.598       42.557       34.977     3551.870     1811.102     1223.415        2.201        0.329      192.844       18.316        0.009      338.972       11.985      865.802
01/05/2022  15:24:00      -14.819      142.042       -5.154       46.833       76.391       41.832     2193.295     5835.511     1749.947        1.510        0.489      142.813       31.255        0.048      338.953       11.953      865.807
01/05/2022  15:25:00      -43.289       89.384      -20.308       81.261       74.780       42.656     6603.285     5592.050     1819.557        1.214        0.701       99.315       22.420        0.051      339.252       12.457      865.814
01/05/2022  15:26:00      -41.096      215.824      -28.474       94.225      102.274       63.984     8878.266    10460.056     4094.006        3.625        1.172      219.702       42.983        0.038      338.827       11.740      865.844
01/05/2022  15:27:00      -73.766      113.684      -21.072       65.919       95.584       42.759     4345.263     9136.367     1828.308        1.706        0.765      135.520       27.668        0.042      338.813       11.718      865.861
01/05/2022  15:28:00      -60.041       50.459      -29.102       74.341       58.974       52.971     5526.546     3477.968     2805.966        0.940        0.591       78.428       43.969        0.314      338.910       11.882      865.886
01/05/2022  15:29:00       -9.387       42.125      -36.601       62.560       75.384       39.908     3913.770     5682.767     1592.684        0.719        0.559       43.158        8.422        0.038      338.852       11.785      865.885
01/05/2022  15:30:00       12.367       52.462       -6.859       39.988       72.906       30.412     1599.039     5315.232      924.901        0.539        0.392       53.899       20.712        0.148      338.996       12.028      865.895
01/05/2022  15:31:00      -22.665       49.006       -9.669       38.688       80.075       38.501     1496.752     6411.973     1482.348        0.620        0.470       53.994       23.070        0.183      338.970       11.982      865.896
01/05/2022  15:32:00      -60.878       34.983      -15.877       71.040       91.995       42.180     5046.665     8463.051     1779.149        1.023        0.764       70.213       28.518        0.165      338.881       11.831      865.903
01/05/2022  15:33:00        4.377       63.007       -3.390       57.163       59.663       35.472     3267.594     3559.723     1258.290        0.604        0.404       63.158       18.300        0.084      338.879       11.830      865.907
01/05/2022  15:34:00      -38.668        6.355       -4.357       84.497       75.895       47.060     7139.720     5760.011     2214.601        0.833        0.756       39.187       37.617        0.922      338.875       11.824      865.892
01/05/2022  15:35:00      -46.505        4.520      -15.338       99.342       41.660       37.047     9868.813     1735.581     1372.472        0.770        0.649       46.724       36.588        0.613      338.732       11.584      865.893
01/05/2022  15:36:00      -70.102       37.303       -1.295       75.553       65.748       39.272     5708.247     4322.845     1542.303        0.894        0.579       79.409       33.286        0.176      338.610       11.378      865.905
01/05/2022  15:37:00      -71.339       52.651      -21.532       75.040      105.674       36.334     5631.027    11166.935     1320.174        1.322        0.906       88.664       17.865        0.041      338.656       11.454      865.897
01/05/2022  15:38:00      -56.065       96.835       -5.050       72.848       53.047       49.694     5306.828     2813.941     2469.499        1.157        0.530      111.894       27.657        0.061      338.670       11.478      865.899
01/05/2022  15:39:00      -31.934      158.949      -26.354       49.463       74.896       48.931     2446.540     5609.381     2394.241        1.871        0.523      162.125       36.249        0.050      338.592       11.347      865.900
01/05/2022  15:40:00      -43.385      100.484      -19.938       66.133       76.371       31.316     4373.638     5832.486      980.681        1.178        0.559      109.450       12.658        0.013      338.755       11.622      865.895
01/05/2022  15:41:00      -55.700       86.946      -19.823       63.792       59.079       37.859     4069.395     3490.371     1433.313        1.002        0.450      103.258       26.594        0.066      338.658       11.459      865.900
01/05/2022  15:42:00      -55.299      104.625      -25.323       62.536       55.855       39.326     3910.739     3119.823     1546.534        1.161        0.429      118.340       29.699        0.063      338.591       11.348      865.902
01/05/2022  15:43:00      -28.991       40.227      -19.096       66.021       39.038       32.783     4358.749     1523.935     1074.733        0.489        0.348       49.585       13.581        0.075      338.670       11.478      865.908
01/05/2022  15:44:00      -13.304      144.934      -17.737       45.347       69.834       33.679     2056.395     4876.762     1134.264        1.478        0.403      145.543       26.048        0.032      338.577       11.321      865.916
01/05/2022  15:45:00      -32.842      181.199      -15.243       44.549       78.586       40.507     1984.588     6175.774     1640.799        2.197        0.490      184.151       28.394        0.024      338.601       11.360      865.916
01/05/2022  15:46:00      -13.211      183.245      -15.117       60.309       71.594       37.617     3637.228     5125.767     1415.036        2.208        0.509      183.721       36.524        0.040      338.603       11.364      865.903
01/05/2022  15:47:00      -31.876      179.787      -26.291       55.238       76.182       37.648     3051.209     5803.725     1417.373        2.215        0.514      182.591       22.675        0.015      338.483       11.162      865.900
01/05/2022  15:48:00      -62.355      170.885      -21.466       60.376       68.065       42.698     3645.224     4632.905     1823.093        2.182        0.505      181.906       20.336        0.012      338.603       11.364      865.904
01/05/2022  15:49:00      -81.296      200.447      -24.513       70.140       77.964       46.152     4919.630     6078.330     2129.966        3.026        0.656      216.305       31.070        0.021      338.453       11.111      865.915
01/05/2022  15:50:00      -73.852      128.044       -5.473       73.879       64.793       39.815     5458.059     4198.189     1585.272        1.656        0.562      147.815       27.757        0.035      338.467       11.137      865.920
01/05/2022  15:51:00     -155.151      267.609      -36.462      100.977      103.242       47.275    10196.438    10658.996     2234.938        6.005        1.155      309.332       35.791        0.013      338.327       10.898      865.922
01/05/2022  15:52:00      -97.360      255.430      -34.711       66.814       87.493       51.241     4464.053     7654.947     2625.681        4.533        0.737      273.355       22.900        0.007      338.275       10.811      865.914
01/05/2022  15:53:00      -56.593      247.694      -13.546      118.788       96.522       43.448    14110.525     9316.426     1887.723        4.502        1.266      254.077       35.443        0.019      338.264       10.795      865.910
01/05/2022  15:54:00     -118.530      296.341      -32.206       85.886       91.614       53.552     7376.325     8393.039     2867.808        6.077        0.932      319.167       30.439        0.009      338.185       10.661      865.898
01/05/2022  15:55:00      -98.851      292.306      -25.890       83.101      112.871       50.448     6905.748    12739.905     2545.026        5.903        1.110      308.568       51.556        0.028      338.245       10.762      865.893
01/05/2022  15:56:00      -83.609      274.456      -39.459       71.676      127.444       52.785     5137.453    16241.930     2786.224        5.402        1.208      286.909       35.695        0.015      338.177       10.647      865.881
01/05/2022  15:57:00      -88.365      220.126      -35.419       83.857       90.882       51.359     7031.962     8259.616     2637.744        3.772        0.896      237.200       28.624        0.015      338.246       10.762      865.875
01/05/2022  15:58:00      -90.287      106.570      -33.789      101.464       73.398       42.072    10294.983     5387.333     1770.047        1.905        0.873      139.675       36.855        0.070      338.287       10.834      865.852
01/05/2022  15:59:00      -25.639       54.278       -8.490       60.063       85.131       41.350     3607.580     7247.349     1709.803        0.812        0.628       60.029       34.092        0.323      338.343       10.930      865.838
01/05/2022  16:00:00      -61.724       61.449      -35.916       76.666       62.028       47.259     5877.734     3847.442     2233.443        1.041        0.598       87.096       33.947        0.152      338.350       10.941      865.828
01/05/2022  16:01:00      -65.860       90.742      -20.537       69.258       86.742       44.692     4796.623     7524.186     1997.398        1.365        0.716      112.123       22.754        0.041      338.358       10.955      865.815
01/05/2022  16:02:00     -103.043       71.994      -36.714       76.555       69.912       52.532     5860.698     4887.728     2759.614        1.533        0.675      125.702       44.230        0.124      338.198       10.683      865.798
01/05/2022  16:03:00      -74.229       55.949      -16.131       98.701       75.327       69.146     9741.791     5674.184     4781.120        1.455        1.010       92.953       45.273        0.237      338.264       10.796      865.782
01/05/2022  16:04:00     -146.393       68.434      -46.398       79.895       56.091       48.604     6383.132     3146.146     2362.310        2.008        0.595      161.599       26.802        0.028      338.126       10.564      865.764
01/05/2022  16:05:00      -81.862       81.887      -22.877      110.613       67.125       43.652    12235.204     4505.723     1905.519        1.628        0.932      115.788       38.984        0.113      338.289       10.836      865.760
01/05/2022  16:06:00      -84.064       69.907       -7.640       81.539       61.542       43.437     6648.527     3787.366     1886.748        1.217        0.616      109.333       36.928        0.114      338.322       10.894      865.748
01/05/2022  16:07:00     -105.919       13.091       -8.258      122.652       66.597       51.184    15043.591     4435.166     2619.835        1.677        1.105      106.725       54.437        0.260      338.230       10.738      865.746
01/05/2022  16:08:00      -48.056       66.100        2.318       70.317       58.610       45.848     4944.469     3435.180     2102.013        0.858        0.524       81.723       29.305        0.129      338.404       11.033      865.760
01/05/2022  16:09:00       21.598       -2.606       -5.300       37.940       46.022       37.094     1439.408     2117.994     1375.939        0.272        0.247       21.755       11.390        0.274      338.346       10.935      865.751
01/05/2022  16:10:00      -40.457       -4.795        2.926       80.332       59.595       36.136     6453.298     3551.559     1305.832        0.649        0.566       40.740       24.793        0.370      338.241       10.759      865.748
01/05/2022  16:11:00      -63.888       19.248      -13.960      114.482       59.165       45.810    13106.169     3500.456     2098.513        1.167        0.935       66.724       19.554        0.086      338.138       10.584      865.766
01/05/2022  16:12:00      -61.670       -1.343      -26.953       71.438       66.076       45.640     5103.326     4366.059     2083.036        0.804        0.578       61.685       40.521        0.432      338.121       10.556      865.763
01/05/2022  16:13:00        9.327       -9.964        3.416       60.496       69.232       44.289     3659.775     4793.106     1961.530        0.530        0.521       13.649       34.021        6.213      338.150       10.606      865.750
01/05/2022  16:14:00     -200.415       33.237       -5.604      118.469       68.087       52.165    14034.921     4635.851     2721.152        3.134        1.070      203.152       54.347        0.072      338.062       10.455      865.750
01/05/2022  16:15:00     -199.172       86.374      -13.878       99.695       86.906       49.426     9938.994     7552.688     2442.972        3.362        0.997      217.094       47.417        0.048      338.128       10.566      865.748
01/05/2022  16:16:00     -153.322       70.004      -27.991       73.229       60.267       48.210     5362.491     3632.078     2324.201        2.025        0.566      168.547       26.152        0.024      338.080       10.487      865.755
01/05/2022  16:17:00     -208.043       29.779      -25.824       86.646       66.247       49.123     7507.591     4388.712     2413.044        2.957        0.715      210.164       31.813        0.023      338.064       10.460      865.749
01/05/2022  16:18:00      -80.982        5.038       -3.735       86.560       76.492       52.380     7492.589     5851.034     2743.697        1.134        0.804       81.139       43.841        0.292      338.081       10.492      865.752
01/05/2022  16:19:00     -113.304       41.947      -22.310       92.215       76.848       52.385     8503.594     5905.599     2744.237        1.612        0.858      120.820       34.499        0.082      338.062       10.457      865.766
01/05/2022  16:20:00     -171.699       46.223      -12.386      118.370       67.236       55.217    14011.554     4520.629     3048.943        2.667        1.079      177.812       62.430        0.123      338.040       10.420      865.775
01/05/2022  16:21:00     -222.687       57.650      -23.091       68.268       77.004       40.582     4660.505     5929.578     1646.929        3.284        0.612      230.029       32.663        0.020      337.992       10.339      865.789
01/05/2022  16:22:00     -253.510       89.821      -10.635       74.057       45.613       41.837     5484.376     2080.565     1750.358        4.088        0.466      268.952       36.703        0.019      337.987       10.329      865.810
01/05/2022  16:23:00     -247.517       41.800       -8.208      100.417       63.878       45.302    10083.600     4080.399     2052.249        3.964        0.811      251.021       40.750        0.026      338.040       10.419      865.835
01/05/2022  16:24:00     -209.669       48.813      -17.244       86.488       55.486       42.508     7480.150     3078.728     1806.902        2.950        0.618      215.276       33.009        0.024      338.141       10.587      865.849
01/05/2022  16:25:00     -152.059       22.183      -18.229       73.002       55.354       32.508     5329.361     3064.071     1056.792        1.670        0.473      153.668       17.794        0.013      338.228       10.735      865.877
01/05/2022  16:26:00     -194.843       81.650      -27.773       88.811       59.094       34.553     7887.326     3492.048     1193.895        2.899        0.629      211.260       41.722        0.039      338.293       10.843      865.879
01/05/2022  16:27:00     -201.376       69.088       -5.713       94.456       62.689       39.471     8921.871     3929.918     1557.992        2.988        0.720      212.898       40.185        0.036      338.324       10.895      865.885
01/05/2022  16:28:00     -153.051       78.744      -24.315       50.321       69.889       32.823     2532.203     4884.438     1077.370        1.935        0.425      172.120       25.031        0.021      338.365       10.965      865.879
01/05/2022  16:29:00      -99.997       51.498      -13.672       97.701       60.119       39.133     9545.497     3614.334     1531.379        1.376        0.735      112.479       41.868        0.139      338.409       11.041      865.896
01/05/2022  16:30:00      -88.809       47.056      -21.261       63.530       51.359       38.491     4036.010     2637.699     1481.522        0.935        0.408      100.506       30.373        0.091      338.416       11.051      865.903
01/05/2022  16:31:00      -98.384        1.925      -13.999       73.587       44.518       38.515     5415.119     1981.886     1483.393        0.938        0.444       98.402       27.635        0.079      338.350       10.942      865.917
01/05/2022  16:32:00     -122.748       37.175      -18.045       60.665       49.682       33.538     3680.200     2468.286     1124.828        1.202        0.364      128.254       33.524        0.068      338.362       10.963      865.933
01/05/2022  16:33:00     -115.597       43.156       -9.461       97.227       52.708       43.222     9453.062     2778.173     1868.123        1.470        0.705      123.391       53.234        0.186      338.440       11.091      865.932
01/05/2022  16:34:00     -147.796       25.120      -12.781       84.863       47.305       37.080     7201.742     2237.732     1374.925        1.672        0.541      149.916       35.459        0.056      338.489       11.173      865.923
01/05/2022  16:35:00     -199.896        2.974       -6.609       85.964       61.735       44.870     7389.770     3811.239     2013.305        2.661        0.661      199.918       35.081        0.031      338.596       11.351      865.919
01/05/2022  16:36:00     -228.850       67.958      -12.814      105.071       82.948       60.416    11039.964     6880.294     3650.109        3.936        1.079      238.727       56.197        0.055      338.751       11.613      865.921
01/05/2022  16:37:00     -270.985       41.023      -10.770      103.708       68.029       48.741    10755.322     4627.964     2375.669        4.649        0.888      274.073       48.667        0.032      338.707       11.537      865.934
01/05/2022  16:38:00     -201.158       10.202       -8.826      138.240       81.657       59.790    19110.363     6667.877     3574.892        3.499        1.468      201.417       61.026        0.092      338.751       11.612      865.952
01/05/2022  16:39:00     -167.402       45.769       -0.409       93.012       49.057       41.134     8651.146     2406.555     1692.036        2.143        0.637      173.546       29.776        0.029      338.754       11.617      865.966
01/05/2022  16:40:00     -123.414       15.549        4.287       92.075       44.192       37.909     8477.763     1952.949     1437.126        1.368        0.593      124.390       52.159        0.176      338.744       11.603      865.982
01/05/2022  16:41:00     -159.683       40.015       -7.207       63.139       45.072       37.745     3986.571     2031.441     1424.691        1.730        0.372      164.621       33.673        0.042      338.770       11.646      865.974
01/05/2022  16:42:00      -94.301       26.073       -5.771       60.390       43.159       29.136     3646.995     1862.737      848.905        0.798        0.318       97.839       26.452        0.073      338.717       11.558      865.978
01/05/2022  16:43:00      -85.001        6.345       -1.451       33.638       28.801       21.449     1131.526      829.499      460.076        0.484        0.121       85.238       19.278        0.051      338.738       11.593      865.973
01/05/2022  16:44:00      -90.283       -8.510       -7.360       46.101       25.685       20.191     2125.310      659.730      407.687        0.573        0.160       90.683       22.128        0.060      338.787       11.675      865.959
01/05/2022  16:45:00      -72.186        2.524        4.851       62.849       33.215       24.554     3949.962     1103.232      602.891        0.545        0.283       72.231       29.803        0.170      338.764       11.637      865.945
01/05/2022  16:46:00      -29.445      -16.783       -2.757       29.376       23.269       14.531      862.961      541.429      211.146        0.139        0.081       33.892       15.055        0.197      338.801       11.700      865.949
01/05/2022  16:47:00      -89.275     -100.850      -12.103       64.825       55.449       19.976     4202.223     3074.624      399.046        1.298        0.384      134.687       28.344        0.044      338.817       11.725      865.942
01/05/2022  16:48:00      -73.614      -50.843       -7.829       48.142       56.698       23.839     2317.619     3214.657      568.313        0.708        0.305       89.466       17.155        0.037      338.769       11.647      865.945
01/05/2022  16:49:00     -113.465      -29.278      -15.876       40.364       29.548       21.188     1629.242      873.106      448.949        0.847        0.148      117.182       14.983        0.016      338.754       11.621      865.958
01/05/2022  16:50:00     -109.475      -42.093       -6.723       44.291       42.636       24.091     1961.687     1817.804      580.361        0.908        0.218      117.288       18.860        0.026      338.765       11.639      865.949
01/05/2022  16:51:00      -57.265      -27.210      -16.960       37.767       31.171       22.315     1426.322      971.657      497.958        0.360        0.145       63.401        7.844        0.015      338.723       11.569      865.946
01/05/2022  16:52:00      -38.877      -22.472        0.899       30.300       31.113       26.363      918.068      968.026      695.016        0.230        0.129       44.905       20.762        0.214      338.744       11.606      865.923
01/05/2022  16:53:00      -55.995        5.389      -10.292       32.512       43.897       21.411     1057.051     1926.981      458.419        0.336        0.172       56.254       12.075        0.046      338.742       11.603      865.911
01/05/2022  16:54:00      -46.996      -16.420      -12.719       48.690       28.077       17.012     2370.684      788.293      289.409        0.304        0.172       49.782       16.931        0.116      338.616       11.390      865.900
01/05/2022  16:55:00       -4.414       -7.221       -7.367       13.096       16.588        7.564      171.501      275.147       57.213        0.031        0.025        8.463        5.802        0.470      338.217       10.718      865.899
01/05/2022  16:56:00       33.634       12.588       -4.261       15.097       14.470        6.049      227.912      209.385       36.586        0.089        0.024       35.913        5.174        0.021      338.054       10.446      865.903
01/05/2022  16:57:00       37.986       -5.750       -6.474       27.208       20.924       16.787      740.292      437.810      281.806        0.149        0.073       38.418        8.783        0.052      337.975       10.313      865.902
01/05/2022  16:58:00       19.066      -15.197       -5.397       28.644       44.421       19.856      820.468     1973.199      394.277        0.191        0.159       24.381       16.080        0.435      338.061       10.457      865.902
01/05/2022  16:59:00       28.461       10.538      -10.338       38.433       38.057       25.492     1477.090     1448.302      649.866        0.230        0.179       30.349       16.045        0.280      338.023       10.393      865.905
01/05/2022  17:00:00       41.960      -21.658       -7.875       51.707       30.962       23.582     2673.626      958.628      556.131        0.324        0.209       47.219       19.854        0.177      337.921       10.222      865.901
01/05/2022  17:01:00       18.213      -34.838       -3.735       34.047       34.957       21.483     1159.216     1221.996      461.526        0.220        0.142       39.312       12.618        0.103      337.982       10.324      865.913
01/05/2022  17:02:00       58.543      -11.181       -7.527       38.312       28.976       22.085     1467.789      839.599      487.732        0.320        0.140       59.602       16.416        0.076      337.886       10.164      865.923
01/05/2022  17:03:00       71.161      -49.008      -23.396       40.162       41.676       23.939     1612.959     1736.888      573.079        0.597        0.196       86.404       17.375        0.040      337.883       10.160      865.918
01/05/2022  17:04:00       53.897        2.088      -13.608       25.739       29.434       27.048      662.471      866.359      731.579        0.268        0.113       53.937       17.368        0.104      337.831       10.072      865.921
01/05/2022  17:05:00       33.106      -28.867      -14.549       25.713       24.438       16.997      661.155      597.233      288.895        0.184        0.077       43.924       12.702        0.084      337.799       10.017      865.927
01/05/2022  17:06:00       87.000      -41.755      -21.813       20.597       19.358       14.222      424.219      374.716      202.273        0.539        0.050       96.501        9.586        0.010      337.772        9.971      865.935
01/05/2022  17:07:00       69.494      -23.697      -16.989       34.899       25.058       21.494     1217.966      627.921      461.983        0.399        0.115       73.423       16.727        0.052      337.779        9.984      865.936
01/05/2022  17:08:00       44.576      -23.318       -4.311       45.646       29.248       26.552     2083.559      855.472      705.002        0.310        0.182       50.306       19.482        0.150      337.716        9.876      865.932
01/05/2022  17:09:00       25.058      -17.154       -4.758       42.526       33.071       24.543     1808.444     1093.668      602.380        0.222        0.175       30.367       24.928        0.674      337.699        9.849      865.929
01/05/2022  17:10:00       43.324       37.624      -11.631       43.836       45.713       26.338     1921.580     2089.677      693.668        0.407        0.235       57.380       22.351        0.152      337.775        9.977      865.934
01/05/2022  17:11:00       91.281       44.867      -16.764       37.867       37.704       21.526     1433.873     1421.567      463.359        0.697        0.166      101.712       11.544        0.013      337.661        9.785      865.927
01/05/2022  17:12:00       90.003        2.939      -14.412       41.779       35.699       25.883     1745.464     1274.430      669.910        0.600        0.184       90.051       18.499        0.042      337.604        9.691      865.904
01/05/2022  17:13:00       68.745       -7.679       -4.700       43.355       33.994       24.841     1879.697     1155.620      617.062        0.423        0.183       69.172       21.228        0.094      337.518        9.544      865.882
01/05/2022  17:14:00       56.682       -0.023        1.441       57.510       23.182       22.538     3307.424      537.391      507.980        0.378        0.218       56.682       28.343        0.250      337.471        9.466      865.881
01/05/2022  17:15:00      135.301       62.490       -6.784       33.733       28.883       22.822     1137.889      834.221      520.855        1.237        0.125      149.035       16.461        0.012      337.619        9.715      865.895
01/05/2022  17:16:00       91.221       68.233      -10.940       34.990       30.037       25.470     1224.284      902.232      648.711        0.794        0.139      113.916       20.305        0.032      337.655        9.776      865.909
01/05/2022  17:17:00       37.074       76.829      -16.333       37.963       30.293       22.593     1441.221      917.681      510.451        0.521        0.143       85.307       18.392        0.046      337.648        9.766      865.915
01/05/2022  17:18:00       56.722       94.502       -6.252       32.829       37.120       20.429     1077.751     1377.865      417.356        0.753        0.144      110.219       11.351        0.011      337.697        9.846      865.908
01/05/2022  17:19:00       56.194       61.690       -5.387       29.076       29.361       22.275      845.415      862.048      496.180        0.460        0.110       83.447       14.962        0.032      337.599        9.683      865.888
01/05/2022  17:20:00       50.632       16.247       -9.851       24.887       25.942       12.243      619.344      673.000      149.901        0.218        0.072       53.175        9.291        0.031      337.604        9.690      865.871
01/05/2022  17:21:00      -17.804        2.520      -14.885       24.873       13.887       10.889      618.645      192.839      118.580        0.074        0.047       17.981        7.158        0.158      337.619        9.714      865.885
01/05/2022  17:22:00      -85.601       45.759      -20.263       35.525       26.412       19.210     1262.030      697.579      369.035        0.608        0.116       97.064       10.532        0.012      337.615        9.706      865.905
01/05/2022  17:23:00      -58.967       42.986      -16.025       39.334       32.545       27.490     1547.144     1059.159      755.702        0.447        0.168       72.972       20.735        0.081      337.881       10.154      865.893
01/05/2022  17:24:00       -7.277       73.252       -7.734       18.437       41.283       20.671      339.920     1704.246      427.282        0.397        0.124       73.612       12.092        0.027      337.808       10.032      865.873
01/05/2022  17:25:00        6.186       43.291       -9.416       13.610       25.299       11.480      185.236      640.035      131.786        0.148        0.048       43.731        7.933        0.033      337.660        9.782      865.866
01/05/2022  17:26:00       22.090       20.859       -4.492       11.091        7.788        8.221      123.000       60.651       67.581        0.060        0.013       30.382        3.374        0.012      337.586        9.659      865.883
01/05/2022  17:27:00       31.362        2.624       -5.503       15.439       18.324        8.242      238.371      335.757       67.926        0.083        0.032       31.472        6.567        0.044      337.615        9.710      865.879
01/05/2022  17:28:00       35.407      -19.965      -28.709       27.186       28.740       15.550      739.087      825.985      241.790        0.214        0.090       40.648        9.820        0.058      337.356        9.275      865.870
01/05/2022  17:29:00       25.410        5.558      -32.122       22.310       27.931       19.690      497.729      780.154      387.685        0.169        0.083       26.011       16.582        0.406      337.316        9.208      865.861
01/05/2022  17:30:00       38.727      -25.292      -35.100       18.082       26.577       13.954      326.948      706.350      194.700        0.230        0.061       46.254        9.387        0.041      337.430        9.398      865.854
01/05/2022  17:31:00       42.217        8.173      -10.860       31.231       18.336        9.711      975.389      336.207       94.300        0.169        0.070       43.001        6.286        0.021      337.366        9.291      865.854
01/05/2022  17:32:00       68.194       10.961       -1.985       20.977       14.544       12.980      440.050      211.534      168.474        0.280        0.041       69.070        9.851        0.020      337.424        9.387      865.850
01/05/2022  17:33:00       41.695       18.457       -3.065       47.757       27.617       19.513     2280.714      762.680      380.752        0.276        0.171       45.597       23.293        0.261      337.348        9.262      865.844
01/05/2022  17:34:00      101.978       44.153      -27.311       32.848       26.824       23.747     1078.977      719.550      563.924        0.773        0.118      111.126        7.224        0.004      337.305        9.189      865.830
01/05/2022  17:35:00       73.350       54.617       -7.597       29.164       18.204       14.979      850.538      331.403      224.374        0.491        0.070       91.451        8.321        0.008      337.206        9.024      865.815
01/05/2022  17:36:00       67.281       32.674       -3.351       36.927       24.696       23.661     1363.596      609.913      559.855        0.407        0.127       74.795       16.207        0.047      337.129        8.895      865.811
01/05/2022  17:37:00      134.295       61.480      -12.287       35.931       31.504       18.224     1291.006      992.495      332.121        1.229        0.131      147.698        5.560        0.001      337.225        9.056      865.815
01/05/2022  17:38:00       96.399       30.719      -12.639       26.158       27.295       16.012      684.252      745.008      256.376        0.604        0.084      101.175        8.841        0.008      337.099        8.844      865.832
01/05/2022  17:39:00       81.765        9.680       -5.793       29.537       23.934       18.330      872.441      572.842      335.982        0.430        0.089       82.336       13.911        0.029      337.006        8.689      865.844
01/05/2022  17:40:00       75.390       10.114      -11.650       28.955       24.539        9.369      838.420      602.159       87.773        0.372        0.076       76.065        8.250        0.012      337.034        8.736      865.856
01/05/2022  17:41:00       82.232        5.757      -13.018       40.269       22.444       13.939     1621.622      503.718      194.289        0.464        0.116       82.433       11.386        0.019      337.032        8.732      865.873
01/05/2022  17:42:00       87.794       52.062      -19.058       31.525       23.184       12.412      993.802      537.493      154.048        0.623        0.084      102.070        5.562        0.003      337.047        8.757      865.886
01/05/2022  17:43:00       42.370       14.679       -5.547       42.274       18.425       19.147     1787.126      339.484      366.625        0.227        0.125       44.841       14.059        0.098      336.974        8.636      865.894
01/05/2022  17:44:00       56.112       39.209      -13.468       29.196       38.281       22.336      852.414     1465.466      498.918        0.384        0.141       68.454       14.936        0.048      336.919        8.544      865.907
01/05/2022  17:45:00       25.023       29.331      -10.707       28.604       21.801       15.884      818.214      475.282      252.314        0.157        0.077       38.555       16.665        0.187      336.887        8.490      865.910
01/05/2022  17:46:00       77.667       58.506      -16.429       27.515       30.787       21.825      757.062      947.820      476.323        0.595        0.109       97.238       14.627        0.023      336.854        8.435      865.910
01/05/2022  17:47:00       72.351       25.697      -14.240       35.268       43.776       14.760     1243.858     1916.366      217.857        0.474        0.169       76.779       13.137        0.029      336.808        8.356      865.911
01/05/2022  17:48:00       53.176       15.418       -3.046       26.620       30.630       13.213      708.615      938.195      174.584        0.245        0.091       55.366       13.118        0.056      336.752        8.264      865.908
01/05/2022  17:49:00       65.031       -2.813      -12.155       20.829       24.111       14.160      433.842      581.357      200.507        0.280        0.061       65.092        6.855        0.011      336.798        8.343      865.909
01/05/2022  17:50:00       34.552       15.876       -6.710       14.143       18.541        8.430      200.028      343.750       71.071        0.105        0.031       38.025        7.413        0.038      336.739        8.243      865.919
01/05/2022  17:51:00       64.759      131.209      -16.232       44.488       39.238       22.970     1979.194     1539.616      527.625        1.286        0.202      146.319        9.291        0.004      337.170        8.965      865.918
01/05/2022  17:52:00       41.908       89.329      -13.176       22.647       22.247       16.667      512.890      494.939      277.776        0.560        0.064       98.671        6.919        0.005      337.137        8.909      865.928
01/05/2022  17:53:00       28.994      112.540      -17.567       27.778       32.802       22.424      771.625     1075.958      502.854        0.808        0.118      116.215       18.436        0.025      337.273        9.137      865.936
01/05/2022  17:54:00       44.494       84.624      -12.544       23.403       21.832       21.930      547.703      476.645      480.945        0.540        0.075       95.608        8.724        0.008      337.307        9.194      865.941
01/05/2022  17:55:00       13.071       77.981      -18.798       20.198       20.444       11.666      407.973      417.953      136.101        0.378        0.048       79.069        8.809        0.012      337.217        9.043      865.955
01/05/2022  17:56:00       33.432       34.300       -7.403       17.992       26.739       12.926      323.728      714.984      167.076        0.178        0.060       47.898       10.721        0.050      337.022        8.715      865.959
01/05/2022  17:57:00       59.437       29.048      -10.914       12.153       16.274       10.038      147.686      264.844      100.754        0.250        0.026       66.156        6.841        0.011      336.937        8.573      865.963
01/05/2022  17:58:00       27.008       38.836      -20.899       23.349        9.502       15.625      545.162       90.282      244.126        0.178        0.044       47.304       15.501        0.107      336.945        8.587      865.967
01/05/2022  17:59:00       55.225       28.676      -12.427       19.193        8.742       13.814      368.372       76.416      190.831        0.233        0.032       62.226        6.364        0.010      336.965        8.620      865.970
01/05/2022  18:00:00       28.485       39.292       -8.192       22.306       27.314       16.704      497.545      746.044      279.031        0.197        0.076       48.531       11.374        0.055      336.959        8.610      865.968
01/05/2022  18:01:00       61.642        9.668       -9.648       13.743       13.589        9.194      188.870      184.653       84.533        0.222        0.023       62.396        4.386        0.005      336.854        8.434      865.967
01/05/2022  18:02:00       41.527      -14.344       -7.886       18.089       19.451       19.533      327.209      378.358      381.523        0.154        0.054       43.935       14.342        0.107      336.825        8.386      865.956
01/05/2022  18:03:00       61.708      -10.762       -5.823       24.363       25.060       19.367      593.534      627.998      375.098        0.278        0.080       62.640       13.304        0.045      336.777        8.307      865.956
01/05/2022  18:04:00       53.462        6.032       -3.336       28.169       20.547       16.458      793.466      422.173      270.875        0.220        0.074       53.801       15.923        0.088      336.767        8.290      865.954
01/05/2022  18:05:00       79.943       36.725      -11.985       26.656       33.412       16.864      710.531     1116.385      284.402        0.500        0.106       87.975        7.082        0.006      336.893        8.500      865.961
01/05/2022  18:06:00       16.574       11.252       -2.863       31.350       21.384       20.885      982.820      457.257      436.166        0.114        0.094       20.033       16.975        0.718      336.681        8.146      865.972
01/05/2022  18:07:00       -1.309       -5.564       -8.612       10.526        9.829        5.155      110.791       96.607       26.572        0.017        0.012        5.715        2.070        0.131      336.685        8.155      865.992
01/05/2022  18:08:00       46.883        3.823       -7.759       18.359       15.328       11.754      337.038      234.934      138.157        0.149        0.036       47.039        8.658        0.034      336.745        8.253      866.011
01/05/2022  18:09:00       14.412       12.488       -2.397       17.256       19.761       13.657      297.770      390.481      186.526        0.062        0.044       19.069        5.737        0.090      336.691        8.164      866.021
01/05/2022  18:10:00       27.382       32.126      -11.927       11.746       11.057       12.959      137.960      122.260      167.923        0.118        0.021       42.212        7.767        0.034      336.817        8.372      866.022
01/05/2022  18:11:00       26.171        2.580       -8.117       20.902       31.118       17.061      436.889      968.342      291.080        0.123        0.085       26.298       11.233        0.182      336.758        8.276      866.017
01/05/2022  18:12:00       43.856      -11.300       -5.042       16.948       16.444       11.148      287.251      270.410      124.271        0.138        0.034       45.288        4.069        0.008      336.682        8.148      866.022
01/05/2022  18:13:00       35.350      -14.361      -17.425       35.339       27.390       19.044     1248.843      750.205      362.673        0.206        0.118       38.155       13.470        0.125      336.623        8.050      866.029
01/05/2022  18:14:00       57.378      -18.213       -8.330       47.264       34.303       31.222     2233.843     1176.717      974.821        0.404        0.219       60.199       27.983        0.216      336.430        7.725      866.022
01/05/2022  18:15:00       76.659      -16.530       -8.756       63.375       29.104       31.894     4016.339      847.057     1017.196        0.605        0.294       78.421       33.770        0.185      336.408        7.689      866.032
01/05/2022  18:16:00      133.386       19.836      -21.937       36.055       25.433       19.140     1299.950      646.842      366.322        1.049        0.116      134.853       16.033        0.014      336.419        7.707      866.033
01/05/2022  18:17:00      141.610       44.781      -12.251       21.977       22.891       19.685      482.974      524.007      387.482        1.180        0.070      148.522        9.597        0.004      336.402        7.678      866.025
01/05/2022  18:18:00      125.840       44.645      -11.680       25.982       38.668       20.293      675.046     1495.240      411.807        1.027        0.129      133.524       14.214        0.011      336.387        7.654      866.022
01/05/2022  18:19:00       92.065       27.717      -13.993       27.009       22.716       11.629      729.479      516.014      135.226        0.541        0.069       96.147        7.083        0.005      336.335        7.568      866.030
01/05/2022  18:20:00       62.387       24.798      -17.311       19.375       16.926        8.833      375.377      286.483       78.014        0.277        0.037       67.135        2.968        0.002      336.332        7.561      866.044
01/05/2022  18:21:00       67.278       45.025      -21.477       25.552       16.157       19.186      652.891      261.035      368.116        0.415        0.064       80.954       12.355        0.023      336.384        7.649      866.046
01/05/2022  18:22:00       36.055       34.578      -15.745       19.774       13.212       12.080      391.018      174.567      145.937        0.173        0.036       49.956       12.015        0.058      336.387        7.652      866.047
01/05/2022  18:23:00       31.845       35.495      -14.653       12.210       12.354       11.071      149.080      152.624      122.564        0.146        0.021       47.686        5.603        0.014      336.390        7.658      866.050
01/05/2022  18:24:00       41.877       32.066       -8.136        9.563       18.639       15.238       91.449      347.399      232.185        0.176        0.034       52.744       11.134        0.045      336.399        7.675      866.047
01/05/2022  18:25:00       47.298       37.702      -11.113       15.501       16.501       16.179      240.273      272.269      261.768        0.228        0.039       60.485       14.619        0.058      336.461        7.779      866.030
01/05/2022  18:26:00       -0.991        5.436        3.059       17.483       17.241        9.129      305.651      297.246       83.340        0.036        0.034        5.526        6.228        1.270      336.428        7.721      866.010
01/05/2022  18:27:00      -43.112        5.293       -1.907       30.628       18.694       11.719      938.076      349.483      137.329        0.166        0.071       43.436       11.517        0.070      336.543        7.916      865.998
01/05/2022  18:28:00      -31.716       -5.182       -5.251       17.243       14.780        9.358      297.311      218.441       87.570        0.083        0.030       32.136        5.844        0.033      336.529        7.893      865.983
01/05/2022  18:29:00       -1.242        1.866       -2.492       16.165       10.041       10.010      261.295      100.816      100.202        0.024        0.023        2.242       10.824       23.314      336.530        7.895      865.979
01/05/2022  18:30:00      -13.430        1.819       -2.316        8.894       11.291        8.840       79.100      127.490       78.152        0.024        0.014       13.553        2.335        0.030      336.591        7.997      865.972
01/05/2022  18:31:00       -7.450       17.497       -8.798        6.828        5.645        5.451       46.618       31.865       29.716        0.027        0.005       19.017        2.938        0.024      336.668        8.125      865.974
01/05/2022  18:32:00        4.194       -3.816       -2.289        5.655        5.141        4.452       31.976       26.434       19.817        0.006        0.004        5.670        2.174        0.147      336.654        8.101      865.977
01/05/2022  18:33:00       -5.301       -4.881       -0.238       10.698        8.178        6.381      114.452       66.878       40.720        0.014        0.011        7.205        4.623        0.412      336.696        8.171      865.975
01/05/2022  18:34:00       11.901       12.013       -2.843       13.973       21.020        9.168      195.244      441.824       84.055        0.051        0.036       16.910        7.362        0.190      336.572        7.964      865.980
01/05/2022  18:35:00       25.065       38.030       -6.115       13.105       11.844       10.157      171.734      140.286      103.172        0.126        0.021       45.547        7.922        0.030      336.327        7.554      866.005
01/05/2022  18:36:00       16.100       56.141       -6.372       16.702       14.850       10.880      278.970      220.534      118.384        0.203        0.031       58.404        8.072        0.019      336.509        7.861      866.023
01/05/2022  18:37:00       42.874       62.440      -12.934       26.134       27.478       18.588      683.010      755.056      345.518        0.384        0.089       75.743       15.723        0.043      336.563        7.950      866.024
01/05/2022  18:38:00       70.885       71.979      -13.862       31.335       31.938       20.759      981.876     1020.023      430.933        0.641        0.122      101.023       17.150        0.029      336.454        7.766      866.020
01/05/2022  18:39:00       57.772       63.339        0.324       25.436       28.198       20.872      646.995      795.154      435.636        0.461        0.094       85.729       17.497        0.042      336.481        7.811      866.018
01/05/2022  18:40:00       69.681       86.805      -15.137       29.516       27.079       21.318      871.221      733.262      454.462        0.734        0.103      111.313       16.156        0.021      336.525        7.887      866.021
01/05/2022  18:41:00       58.444       84.318       -6.129       32.211       30.932       22.500     1037.553      956.780      506.234        0.653        0.125      102.593       15.385        0.022      336.536        7.905      866.018
01/05/2022  18:42:00       52.470      116.377      -13.960       30.377       32.833       22.333      922.782     1077.992      498.744        0.950        0.125      127.658        8.931        0.005      336.562        7.949      866.026
01/05/2022  18:43:00       26.461      138.070      -22.336       38.231       42.181       24.432     1461.579     1779.276      596.912        1.205        0.192      140.583       20.114        0.020      336.635        8.070      866.038
01/05/2022  18:44:00       11.874      111.483      -13.523       40.699       37.539       21.995     1656.425     1409.212      483.791        0.815        0.177      112.113       13.891        0.015      336.637        8.074      866.042
01/05/2022  18:45:00      -14.694       97.111      -12.630       34.701       40.545       21.673     1204.160     1643.887      469.712        0.656        0.166       98.216       15.769        0.026      336.595        8.005      866.029
01/05/2022  18:46:00       -4.503      128.641      -13.170       56.954       35.428       21.808     3243.762     1255.122      475.587        1.086        0.249      128.719       15.534        0.015      336.603        8.017      866.017
01/05/2022  18:47:00      -69.074       68.385      -13.435       40.120       64.570       22.231     1609.627     4169.321      494.234        0.795        0.314       97.200       17.870        0.034      336.775        8.304      866.011
01/05/2022  18:48:00        2.954       62.837       -2.793       24.833       63.508       15.864      616.702     4033.238      251.652        0.443        0.245       62.907       16.932        0.072      336.652        8.099      865.983
01/05/2022  18:49:00      -77.584       69.388      -28.254       61.673       48.531       31.685     3803.556     2355.262     1003.938        0.940        0.358      104.086       21.926        0.044      336.731        8.231      865.952
01/05/2022  18:50:00      -23.607       95.622       -5.729       59.824       38.051       31.278     3578.946     1447.842      978.330        0.787        0.300       98.493       18.756        0.036      336.704        8.185      865.921
01/05/2022  18:51:00      -37.578       31.741       -1.699       46.126       57.885       36.320     2127.569     3350.655     1319.168        0.461        0.340       49.190       30.089        0.374      336.797        8.341      865.888
01/05/2022  18:52:00      -31.015      -11.980       -8.077       35.716       46.439       30.462     1275.604     2156.554      927.904        0.276        0.218       33.248        8.337        0.063      336.551        7.929      865.863
01/05/2022  18:53:00      -49.850        6.534      -19.761       52.161       54.839       31.745     2720.737     3007.358     1007.732        0.483        0.337       50.277       30.928        0.378      336.581        7.980      865.850
01/05/2022  18:54:00      -80.109       42.219      -29.233       55.645       38.341       27.796     3096.372     1469.995      772.625        0.720        0.267       90.553       25.196        0.077      336.573        7.968      865.836
01/05/2022  18:55:00      -23.516        8.936       -9.284       51.781       23.497       24.234     2681.266      552.112      587.285        0.227        0.191       25.156       28.690        1.301      336.583        7.984      865.836
01/05/2022  18:56:00      -34.166      117.209      -15.262       49.425       47.472       28.303     2442.833     2253.587      801.060        1.032        0.275      122.087       21.909        0.032      336.685        8.153      865.848
01/05/2022  18:57:00      -12.374      108.152        2.357       34.453       44.443       28.654     1187.020     1975.200      821.077        0.792        0.199      108.858        5.127        0.002      336.873        8.466      865.865
01/05/2022  18:58:00       22.590      -23.261       -9.716       24.878       34.491       20.743      618.938     1189.611      430.280        0.169        0.112       32.425        9.848        0.092      336.746        8.256      865.879
01/05/2022  18:59:00      -74.448       23.362      -13.179       48.526       55.072       25.711     2354.742     3032.890      661.071        0.615        0.302       78.027       12.853        0.027      336.654        8.103      865.903
01/05/2022  19:00:00     -105.367       39.584      -16.532       76.286       56.410       27.075     5819.616     3182.095      733.059        1.134        0.487      112.557       24.618        0.048      336.593        8.001      865.918
01/05/2022  19:01:00      -16.017       -6.343       -4.910       26.491       31.607       18.941      701.766      999.023      358.749        0.119        0.103       17.228        8.279        0.231      336.603        8.018      865.917
01/05/2022  19:02:00       -5.248        3.304       -1.176       34.615       28.151       25.543     1198.202      792.498      652.424        0.134        0.132        6.201       17.201        7.694      336.586        7.988      865.925
01/05/2022  19:03:00      -60.379       32.430      -11.892       55.922       47.798       25.752     3127.227     2284.693      663.191        0.546        0.304       68.537       25.411        0.137      336.542        7.915      865.922
01/05/2022  19:04:00      -51.992       35.510      -11.721       49.878       49.708       30.747     2487.834     2470.912      945.407        0.500        0.295       62.961       32.652        0.269      336.653        8.101      865.928
01/05/2022  19:05:00      -74.100       66.578      -12.788       59.963       58.759       28.385     3595.586     3452.648      805.710        0.897        0.393       99.616       20.813        0.044      336.808        8.358      865.917
01/05/2022  19:06:00      -78.527       42.149      -14.014       67.295       43.637       25.896     4528.633     1904.150      670.617        0.762        0.355       89.123       24.880        0.078      336.644        8.085      865.923
01/05/2022  19:07:00        8.830       -1.214      -11.606       31.567       34.756       25.445      996.505     1207.971      647.455        0.153        0.143        8.913       10.836        1.478      336.642        8.082      865.936
01/05/2022  19:08:00      -34.558       26.632       -3.615       54.055       43.632       33.794     2921.951     1903.755     1142.038        0.394        0.298       43.629       26.477        0.368      336.595        8.003      865.946
01/05/2022  19:09:00      -32.513      130.298      -19.840       49.352       82.605       32.216     2435.639     6823.551     1037.858        1.436        0.515      134.294       28.037        0.044      336.749        8.260      865.958
01/05/2022  19:10:00      -37.108      166.481      -18.985       49.263       56.649       36.952     2426.826     3209.161     1365.485        1.823        0.350      170.567        6.018        0.001      336.816        8.370      865.963
01/05/2022  19:11:00      -77.575       41.874      -14.466       52.053       73.802       27.167     2709.477     5446.732      738.020        0.844        0.445       88.155       28.709        0.106      336.873        8.467      865.987
01/05/2022  19:12:00      -14.643        2.253      -13.874       51.194       49.191       31.818     2620.831     2419.763     1012.360        0.323        0.303       14.815       26.202        3.128      336.757        8.273      865.998
01/05/2022  19:13:00        5.151       -4.180        6.974       30.272       34.701       21.307      916.411     1204.152      453.974        0.133        0.129        6.634       11.964        3.252      336.706        8.188      865.997
01/05/2022  19:14:00      -84.003      -22.739      -20.835       80.568       25.398       21.671     6491.124      645.034      469.648        0.781        0.380       87.026        9.275        0.011      336.680        8.146      865.999
01/05/2022  19:15:00     -120.102       -1.843      -23.973       53.998       30.475       32.266     2915.744      928.722     1041.117        0.994        0.244      120.116       26.696        0.049      336.618        8.041      865.999
01/05/2022  19:16:00      -48.794        8.906       -0.923       67.528       36.081       25.059     4560.020     1301.855      627.957        0.447        0.324       49.600       23.514        0.225      336.614        8.036      866.007
01/05/2022  19:17:00     -100.952       14.133       -8.238       57.518       44.736       34.135     3308.369     2001.317     1165.196        0.847        0.324      101.937       27.414        0.072      336.614        8.036      866.009
01/05/2022  19:18:00      -84.165       -2.031      -10.162       44.842       30.269       23.069     2010.813      916.188      532.184        0.532        0.173       84.190        8.125        0.009      336.596        8.005      866.008
01/05/2022  19:19:00      -40.535        9.763        3.216       48.747       36.593       32.110     2376.288     1339.016     1031.034        0.325        0.237       41.694       25.324        0.369      336.614        8.035      866.008
01/05/2022  19:20:00      -91.120      -23.716       -2.688       61.498       42.017       37.787     3781.952     1765.450     1427.852        0.792        0.349       94.155       30.151        0.103      336.642        8.083      866.002
01/05/2022  19:21:00     -165.131      -37.517      -13.141       78.797       57.443       43.651     6208.919     3299.699     1905.428        2.013        0.571      169.339       42.133        0.062      336.602        8.015      865.985
01/05/2022  19:22:00     -136.438      -15.198       -5.472       80.646       38.719       42.727     6503.790     1499.140     1825.576        1.435        0.491      137.282       43.527        0.101      336.554        7.937      865.978
01/05/2022  19:23:00     -102.332      -19.792      -15.597       83.187       46.578       35.505     6920.036     2169.504     1260.627        1.073        0.518      104.229       36.455        0.122      336.611        8.031      865.959
01/05/2022  19:24:00     -120.617      -20.718       -4.871       56.485       40.976       33.603     3190.556     1679.028     1129.188        1.050        0.300      122.383       22.373        0.033      336.587        7.992      865.953
01/05/2022  19:25:00     -114.017       10.681       -7.486       64.222       33.739       29.185     4124.420     1138.333      851.781        0.964        0.306      114.516       25.338        0.049      336.566        7.956      865.958
01/05/2022  19:26:00      -10.557       -1.060        1.253       79.149       35.922       39.796     6264.500     1290.356     1583.687        0.462        0.457       10.610       40.877       14.844      336.582        7.981      865.965
01/05/2022  19:27:00     -106.278       17.872      -21.010       54.734       43.062       26.479     2995.788     1854.342      701.114        0.880        0.278      107.770       27.084        0.063      336.712        8.198      865.976
01/05/2022  19:28:00     -147.191       42.522       -7.918       39.885       30.896       25.146     1590.789      954.554      632.324        1.336        0.159      153.210       11.788        0.006      336.651        8.099      865.961
01/05/2022  19:29:00      -81.805        2.860       -4.485       41.643       24.965       24.495     1734.123      623.243      600.009        0.484        0.148       81.855       20.092        0.060      336.587        7.992      865.955
01/05/2022  19:30:00      -65.119      -10.698      -14.528       38.524       30.812       24.238     1484.089      949.361      587.478        0.379        0.151       65.992       16.443        0.062      336.688        8.159      865.950
01/05/2022  19:31:00      -81.341      -22.123        4.998       65.605       45.272       29.589     4304.062     2049.532      875.502        0.718        0.361       84.296       32.083        0.145      336.686        8.156      865.942
01/05/2022  19:32:00     -156.331      -19.482      -16.646       53.432       42.524       30.024     2854.965     1808.300      901.413        1.533        0.278      157.540       26.597        0.029      336.662        8.114      865.930
01/05/2022  19:33:00     -112.201      -11.679      -10.172       58.405       40.028       27.226     3411.163     1602.269      741.231        0.929        0.288      112.808       21.212        0.035      336.674        8.136      865.904
01/05/2022  19:34:00     -100.015       -7.020       -4.678       48.375       32.707       26.453     2340.098     1069.773      699.758        0.709        0.205      100.261       22.421        0.050      336.685        8.154      865.877
01/05/2022  19:35:00      -65.491        2.887       -6.770       43.498       38.219       24.323     1892.068     1460.671      591.605        0.414        0.197       65.555       19.811        0.091      336.714        8.202      865.844
01/05/2022  19:36:00      -44.815       -9.465        2.416       41.803       28.582       21.732     1747.505      816.921      472.265        0.257        0.152       45.804       20.197        0.194      336.736        8.240      865.833
01/05/2022  19:37:00      -69.806       26.629       -6.876       45.612       22.053       16.290     2080.490      486.322      265.378        0.423        0.142       74.713       19.524        0.068      336.726        8.223      865.836
01/05/2022  19:38:00      -29.588        1.712       -8.117       39.341       23.360       22.269     1547.748      545.685      495.905        0.177        0.129       29.637       17.782        0.360      336.803        8.352      865.842
01/05/2022  19:39:00      -59.847       -9.754       -3.463       43.638       27.945       21.546     1904.275      780.902      464.211        0.342        0.157       60.637       21.853        0.130      336.780        8.311      865.844
01/05/2022  19:40:00      -96.026      -13.274       -4.341       45.388       44.127       31.895     2060.051     1947.171     1017.293        0.722        0.251       96.939       20.425        0.044      336.718        8.208      865.844
01/05/2022  19:41:00      -85.128       -8.105       -9.134       36.198       20.562       23.205     1310.322      422.781      538.494        0.483        0.114       85.513       18.081        0.045      336.702        8.183      865.856
01/05/2022  19:42:00      -82.159       -6.227       -9.261       52.017       33.504       28.571     2705.778     1122.514      816.307        0.576        0.232       82.395       21.884        0.071      336.722        8.214      865.876
01/05/2022  19:43:00      -12.920       -5.627      -11.670       27.070       25.071       21.486      732.774      628.533      461.655        0.108        0.091       14.092        7.164        0.258      336.733        8.235      865.909
01/05/2022  19:44:00      -19.733       -7.040      -11.650       24.499       27.763       25.071      600.212      770.803      628.553        0.129        0.100       20.951       18.329        0.765      336.713        8.201      865.940
01/05/2022  19:45:00      -36.453      -34.722       -4.362       41.003       31.382       19.682     1681.237      984.846      387.400        0.280        0.153       50.343        8.135        0.026      336.703        8.184      865.983
01/05/2022  19:46:00      -59.931      -46.846      -16.461       36.148       25.819       22.678     1306.653      666.616      514.307        0.427        0.124       76.068       11.026        0.021      336.717        8.207      866.002
01/05/2022  19:47:00       16.125        0.870       -4.821       19.961       34.576       21.932      398.423     1195.532      481.002        0.118        0.104       16.148       19.567        1.468      336.708        8.193      866.028
01/05/2022  19:48:00       31.098       14.045       -7.107       35.890       32.234       28.124     1288.109     1039.061      790.955        0.217        0.156       34.123       16.211        0.226      336.715        8.207      866.045
01/05/2022  19:49:00        3.269       -2.712       -4.062       30.976       32.783       22.112      959.531     1074.732      488.920        0.128        0.126        4.247       14.789       12.125      336.695        8.169      866.069
01/05/2022  19:50:00       74.723       -8.931       -5.932       55.988       23.892       25.932     3134.703      570.822      672.456        0.504        0.219       75.255       21.197        0.079      336.644        8.087      866.086
01/05/2022  19:51:00      106.856       -8.453      -10.537       26.882       28.029       13.903      722.616      785.601      193.280        0.665        0.085      107.189        9.867        0.008      336.633        8.068      866.117
01/05/2022  19:52:00       72.947        5.200       -5.960       27.547       18.368       15.710      758.832      337.369      246.811        0.336        0.067       73.132        7.575        0.011      336.617        8.041      866.131
01/05/2022  19:53:00       69.588        2.318       -2.537       18.225       14.830       13.522      332.158      219.922      182.840        0.279        0.037       69.627        7.790        0.013      336.646        8.089      866.143
01/05/2022  19:54:00       47.789       -8.900       -7.709       14.394        8.244        5.924      207.188       67.958       35.088        0.137        0.016       48.611        4.094        0.007      336.639        8.080      866.141
01/05/2022  19:55:00       10.656        4.000       -6.250        8.809        8.456        6.348       77.601       71.503       40.299        0.018        0.009       11.382        7.084        0.387      336.628        8.060      866.126
01/05/2022  19:56:00      -11.421       20.740        1.900       11.626        7.318        4.578      135.164       53.554       20.957        0.039        0.010       23.677        5.233        0.049      336.638        8.079      866.090
01/05/2022  19:57:00      -15.986       -6.523      -12.835       15.288       23.809       16.351      233.730      566.856      267.359        0.077        0.053       17.265       11.395        0.436      336.711        8.197      866.053
01/05/2022  19:58:00      -18.051       -9.245        3.135       25.585       19.143       15.491      654.611      366.449      239.964        0.084        0.063       20.281       14.112        0.484      336.752        8.265      866.013
01/05/2022  19:59:00      -10.643        5.171        1.370       34.822       29.055       21.589     1212.562      844.193      466.074        0.133        0.126       11.833       19.158        2.621      336.710        8.195      865.995
01/05/2022  20:00:00      -71.584       -3.034       -1.676       56.161       34.392       20.977     3154.090     1182.840      440.020        0.496        0.239       71.649       21.467        0.090      336.787        8.323      865.987
01/05/2022  20:01:00      -68.258       -7.549        1.006       33.736       35.576       24.448     1138.139     1265.651      597.726        0.386        0.150       68.674       16.162        0.055      336.794        8.334      865.972
01/05/2022  20:02:00      -82.786      -10.261       -6.761       33.008       19.035       20.401     1089.502      362.315      416.209        0.444        0.093       83.420       17.627        0.045      336.804        8.351      865.935
01/05/2022  20:03:00      -50.636        8.142       -2.992       32.130       19.799       12.804     1032.337      391.990      163.938        0.211        0.079       51.286       14.966        0.085      336.764        8.286      865.898
01/05/2022  20:04:00       -9.521       -4.863        5.102       14.947       11.613       11.719      223.424      134.854      137.346        0.032        0.025       10.691       10.360        0.939      336.780        8.311      865.895
01/05/2022  20:05:00        9.597      -15.064        4.379       12.731       10.654       12.103      162.068      113.498      146.488        0.038        0.021       17.862        5.713        0.102      336.829        8.394      865.921
01/05/2022  20:06:00      -32.826      -26.404       -7.465       17.371       19.382        8.962      301.754      375.653       80.321        0.129        0.038       42.128        9.392        0.050      336.778        8.308      865.941
01/05/2022  20:07:00      -28.582      -29.642      -10.670       17.017       11.190        9.160      289.588      125.218       83.899        0.115        0.025       41.178        5.668        0.019      336.807        8.355      865.951
01/05/2022  20:08:00        3.327      -12.752       -6.369       17.059       33.427       18.629      290.992     1117.361      347.057        0.098        0.088       13.179       10.970        0.693      336.754        8.269      865.956
01/05/2022  20:09:00        6.186       11.352      -12.037       13.693       15.813       13.922      187.501      250.047      193.812        0.047        0.032       12.928        6.232        0.232      336.651        8.098      865.946
01/05/2022  20:10:00       56.781        7.671       -8.106       30.578       17.103       11.568      935.018      292.506      133.816        0.235        0.068       57.297       13.757        0.058      336.483        7.814      865.922
01/05/2022  20:11:00       84.457       18.149      -14.332       14.947       18.799       10.554      223.403      353.389      111.384        0.418        0.034       86.385        6.338        0.005      336.533        7.900      865.900
01/05/2022  20:12:00       39.927      -12.321       -9.073       28.063       15.466       14.207      787.543      239.197      201.843        0.153        0.061       41.785       14.765        0.125      336.477        7.806      865.881
01/05/2022  20:13:00       15.903        2.930        3.174       22.992       26.591       17.472      528.618      707.079      305.254        0.091        0.077       16.171       12.297        0.578      336.554        7.935      865.873
01/05/2022  20:14:00      -16.494      -25.257       -7.709       17.387       24.719       20.261      302.300      611.053      410.517        0.115        0.066       30.166       20.783        0.475      336.612        8.033      865.881
01/05/2022  20:15:00       -9.220       -4.071       -9.536       13.921       12.558       11.329      193.792      157.705      128.343        0.034        0.024       10.079        4.907        0.237      336.638        8.075      865.892
01/05/2022  20:16:00      -22.596        6.895       -9.240       14.189        7.893       10.321      201.342       62.299      106.515        0.051        0.019       23.625        6.128        0.067      336.649        8.093      865.895
01/05/2022  20:17:00      -19.622       19.123        2.196       31.245       18.619       11.315      976.250      346.657      128.019        0.110        0.073       27.400       14.168        0.267      336.619        8.043      865.894
01/05/2022  20:18:00      -11.335      -20.045        6.311       11.863       15.535        9.952      140.727      241.349       99.044        0.053        0.024       23.028        4.247        0.034      336.683        8.149      865.887
01/05/2022  20:19:00       14.136        8.333      -11.126       10.459       16.973       10.213      109.388      288.089      104.316        0.045        0.025       16.409        5.616        0.117      336.679        8.145      865.889
01/05/2022  20:20:00      -23.239      -17.757      -19.270       24.161       13.050        8.853      583.766      170.299       78.378        0.103        0.042       29.246        3.437        0.014      336.732        8.232      865.902
01/05/2022  20:21:00      -20.839      -13.116      -11.836       27.608       18.292       12.064      762.212      334.581      145.549        0.099        0.062       24.624       10.282        0.174      336.671        8.129      865.921
01/05/2022  20:22:00        5.148       20.931        8.045       16.303       14.646       14.917      265.796      214.495      222.503        0.062        0.035       21.555        8.407        0.152      336.666        8.124      865.941
01/05/2022  20:23:00       30.902       32.168        6.187       25.880       19.374       17.328      669.799      375.365      300.248        0.169        0.067       44.606       14.908        0.112      336.670        8.130      865.944
01/05/2022  20:24:00      -15.564       26.233       -7.056       29.383       17.828       13.789      863.388      317.825      190.131        0.118        0.069       30.503        7.249        0.056      336.712        8.196      865.945
01/05/2022  20:25:00      -45.329       30.845      -11.348       19.190       18.797       10.332      368.261      353.314      106.746        0.198        0.041       54.828        7.181        0.017      336.774        8.301      865.948
01/05/2022  20:26:00      -13.529       31.146       -3.959       15.967       14.149       12.960      254.937      200.196      167.964        0.090        0.031       33.958        4.166        0.015      336.735        8.236      865.951
01/05/2022  20:27:00      -61.977       18.262      -13.455       29.841       21.693       16.943      890.477      470.565      287.049        0.300        0.082       64.611       17.318        0.072      336.620        8.048      865.948
01/05/2022  20:28:00      -18.931        1.437       -6.558       17.225       16.235       12.769      296.706      263.576      163.042        0.056        0.036       18.986        4.654        0.060      336.593        8.000      865.945
01/05/2022  20:29:00      -40.605       14.155      -11.345       35.760       21.947       17.963     1278.793      481.672      322.686        0.203        0.104       43.002       20.349        0.224      336.550        7.927      865.949
01/05/2022  20:30:00       -8.543        0.149       -8.049       24.174       21.156       20.271      584.369      447.581      410.906        0.079        0.072        8.544       16.857        3.893      336.544        7.918      865.956
01/05/2022  20:31:00      -56.353        5.600       -1.185       42.299       29.277       18.245     1789.228      857.125      332.874        0.309        0.149       56.631       19.055        0.113      336.508        7.857      865.959
01/05/2022  20:32:00      -70.527      -10.240       -1.703       36.803       25.892       22.895     1354.474      670.375      524.174        0.381        0.127       71.266       18.436        0.067      336.541        7.913      865.950
01/05/2022  20:33:00      -78.938      -16.246      -10.601       81.841       33.288       27.734     6697.930     1108.070      769.162        0.759        0.429       80.592       35.305        0.192      336.572        7.962      865.949
01/05/2022  20:34:00     -139.197      -14.277      -16.274       60.951       34.813       28.069     3715.018     1211.938      787.854        1.278        0.286      139.928       24.612        0.031      336.567        7.957      865.937
01/05/2022  20:35:00     -161.680      -11.499       -7.875       62.436       44.042       31.637     3898.221     1939.719     1000.899        1.659        0.342      162.088       29.751        0.034      336.587        7.990      865.936
01/05/2022  20:36:00     -100.657       -4.589       -8.079       42.294       49.696       30.811     1788.770     2469.669      949.339        0.771        0.260      100.762       20.348        0.041      336.615        8.037      865.940
01/05/2022  20:37:00      -73.840       -9.563       -1.346       42.280       38.305       21.816     1787.597     1467.306      475.932        0.464        0.187       74.456       18.344        0.061      336.619        8.043      865.946
01/05/2022  20:38:00      -93.321       12.375       -9.445       33.553       31.349       24.744     1125.805      982.755      612.288        0.584        0.136       94.138       18.147        0.037      336.556        7.939      865.952
01/05/2022  20:39:00      -70.670       -2.465       -0.930       34.518       28.652       18.104     1191.459      820.924      327.744        0.367        0.117       70.713       15.774        0.050      336.578        7.975      865.961
01/05/2022  20:40:00      -31.616      -15.752       -0.032       36.030       27.310       20.715     1298.171      745.851      429.093        0.186        0.124       35.322       19.571        0.307      336.638        8.076      865.964
01/05/2022  20:41:00      -50.413       -0.494      -14.236       22.228       25.780       17.963      494.083      664.586      322.653        0.211        0.074       50.415       14.033        0.077      336.622        8.049      865.967
01/05/2022  20:42:00      -29.650       -8.844       -5.544       18.156       20.428       15.301      329.628      417.296      234.135        0.098        0.049       30.941        8.059        0.068      336.605        8.020      865.975
01/05/2022  20:43:00      -50.331        1.524      -11.161       22.586       17.302       13.724      510.108      299.368      188.335        0.183        0.050       50.354        9.831        0.038      336.614        8.036      865.975
01/05/2022  20:44:00       -9.840      -15.575        7.286       12.364       16.924        8.255      152.860      286.421       68.153        0.045        0.025       18.423        9.082        0.243      336.713        8.202      865.972
01/05/2022  20:45:00      -12.255       -7.793       -9.854       13.474       15.584       13.760      181.552      242.861      189.344        0.046        0.031       14.523       12.187        0.704      336.695        8.172      865.968
01/05/2022  20:46:00       29.067        7.029      -10.478       21.074       15.770       12.971      444.114      248.697      168.239        0.093        0.043       29.905       10.971        0.135      336.538        7.908      865.978
01/05/2022  20:47:00       13.306      -10.523      -17.538       14.009       15.273       13.714      196.253      233.275      188.064        0.061        0.031       16.964        8.922        0.277      336.375        7.635      865.990
01/05/2022  20:48:00       32.366       11.710       -1.117       23.995       22.365       17.060      575.779      500.211      291.042        0.128        0.068       34.419       10.839        0.099      336.240        7.409      865.993
01/05/2022  20:49:00      104.938       16.260       -6.933       34.576       19.767       22.067     1195.524      390.745      486.942        0.670        0.104      106.190       17.022        0.026      336.192        7.329      865.992
01/05/2022  20:50:00      101.415       28.260      -10.595       31.759       21.402       18.406     1008.649      458.041      338.786        0.650        0.090      105.279       13.440        0.016      336.190        7.325      865.998
01/05/2022  20:51:00       81.327       33.434       -8.569       20.622       20.768       14.962      425.280      431.310      223.853        0.444        0.054       87.932        6.703        0.006      336.158        7.270      866.016
01/05/2022  20:52:00       66.846       25.269       -2.577       20.379       24.161       17.008      415.303      583.763      289.285        0.320        0.064       71.463       11.173        0.024      336.156        7.267      866.026
01/05/2022  20:53:00       67.938       48.721      -12.072       15.707       19.173       14.388      246.706      367.588      207.008        0.398        0.041       83.602       11.025        0.017      336.143        7.246      866.043
01/05/2022  20:54:00       69.977       68.153      -18.284       24.591       34.017       19.480      604.703     1157.186      379.474        0.601        0.107       97.681       14.027        0.021      336.177        7.302      866.070
01/05/2022  20:55:00       73.110       77.104      -11.219       25.842       32.389       26.392      667.787     1049.070      696.556        0.691        0.121      106.255       16.214        0.023      336.136        7.233      866.076
01/05/2022  20:56:00       53.076       92.325       -3.626       31.790       30.261       23.572     1010.585      915.738      555.616        0.692        0.124      106.494       18.234        0.029      336.157        7.270      866.061
01/05/2022  20:57:00       55.654      122.725       -2.166       24.121       35.198       28.489      581.805     1238.865      811.617        1.040        0.132      134.755       20.330        0.023      336.317        7.538      866.053
01/05/2022  20:58:00       66.464      110.817       -2.185       32.086       30.943       24.085     1029.487      957.494      580.091        0.963        0.128      129.220       18.858        0.021      336.289        7.492      866.056
01/05/2022  20:59:00       53.596      121.573      -15.631       25.153       31.986       23.253      632.669     1023.099      540.717        1.005        0.110      132.863       18.394        0.019      336.403        7.681      866.073
01/05/2022  21:00:00       52.323      107.040      -13.239       24.254       28.039       20.262      588.239      786.160      410.543        0.808        0.089      119.144       13.206        0.012      336.420        7.709      866.075
01/05/2022  21:01:00       74.172       89.467      -14.153       25.871       28.808       19.027      669.311      829.913      362.032        0.778        0.093      116.215       13.818        0.014      336.280        7.477      866.071
01/05/2022  21:02:00       60.935       92.261       -9.085       28.170       28.839       22.701      793.570      831.711      515.347        0.722        0.107      110.567       15.508        0.020      336.328        7.555      866.069
01/05/2022  21:03:00       45.929      122.698      -16.589       24.768       31.640       23.449      613.440     1001.116      549.866        0.980        0.108      131.013       17.999        0.019      336.491        7.830      866.069
01/05/2022  21:04:00       42.760      102.667      -21.388       24.457       29.630       23.395      598.146      877.960      547.323        0.742        0.101      111.216       15.082        0.018      336.570        7.961      866.060
01/05/2022  21:05:00       37.502       67.424       -7.997       22.568       28.966       15.851      509.313      839.042      251.249        0.381        0.080       77.151       15.106        0.038      336.454        7.767      866.043
01/05/2022  21:06:00       52.380       81.345      -15.673       25.201       24.647       18.961      635.082      607.493      359.523        0.560        0.080       96.751       16.990        0.031      336.349        7.590      866.038
01/05/2022  21:07:00       35.125      108.493      -16.355       20.260       33.978       19.382      410.457     1154.496      375.669        0.761        0.097      114.037       12.720        0.012      336.445        7.752      866.061
01/05/2022  21:08:00       42.222      107.834      -22.014       24.794       22.453       22.406      614.719      504.124      502.016        0.776        0.081      115.806        5.831        0.003      336.507        7.856      866.087
01/05/2022  21:09:00       41.964       89.317      -10.583       20.701       35.903       24.465      428.542     1289.041      598.559        0.608        0.116       98.684       17.107        0.030      336.452        7.763      866.081
01/05/2022  21:10:00       66.838       69.622       -8.195       35.521       31.353       23.810     1261.764      983.015      566.900        0.610        0.141       96.512       18.876        0.038      336.240        7.408      866.061
01/05/2022  21:11:00       54.456       89.897      -10.347       29.246       23.414       19.484      855.319      548.231      379.623        0.647        0.089      105.104       13.610        0.017      336.273        7.463      866.061
01/05/2022  21:12:00       40.769      139.100      -29.243       20.125       22.318       19.087      405.033      498.101      364.306        1.157        0.063      144.952        7.586        0.003      336.450        7.759      866.080
01/05/2022  21:13:00       25.294      107.815      -26.896       29.607       25.237       17.729      876.579      636.898      314.329        0.741        0.091      110.743       11.902        0.012      336.471        7.796      866.097
01/05/2022  21:14:00       21.101       83.977      -18.791       22.059       26.879       19.347      486.621      722.485      374.320        0.472        0.079       86.588        9.365        0.012      336.462        7.780      866.105
01/05/2022  21:15:00      -16.896       36.649      -22.697       35.435       42.969       12.190     1255.640     1846.331      148.607        0.270        0.163       40.356       15.900        0.155      336.312        7.528      866.125
01/05/2022  21:16:00      -15.268       -5.037       -4.442       23.618       18.983       14.579      557.821      360.343      212.556        0.070        0.057       16.077       15.882        0.976      336.166        7.286      866.126
01/05/2022  21:17:00      -11.410        4.449       -1.273       26.608       19.138       14.429      707.997      366.247      208.193        0.072        0.064       12.247       16.194        1.748      336.217        7.370      866.099
01/05/2022  21:18:00       -0.501       -7.797       -3.629        9.969       11.155        8.095       99.381      124.424       65.535        0.018        0.014        7.813        4.336        0.308      336.224        7.381      866.060
01/05/2022  21:19:00       -6.200        0.259      -10.659        7.635        5.848        4.490       58.293       34.200       20.162        0.013        0.006        6.205        2.604        0.176      336.275        7.468      866.032
01/05/2022  21:20:00       -9.773      -14.586       -5.125       13.766        9.075        9.431      189.505       82.350       88.946        0.035        0.018       17.557        5.100        0.084      336.368        7.624      866.030
01/05/2022  21:21:00        4.453        0.076        2.399       11.554        9.480       10.356      133.500       89.873      107.254        0.018        0.017        4.453        2.690        0.365      336.383        7.647      866.038
01/05/2022  21:22:00        9.085       -8.255       -9.272       10.293        9.573        8.150      105.951       91.636       66.417        0.025        0.013       12.275        5.899        0.231      336.309        7.525      866.037
01/05/2022  21:23:00       27.168      -29.637       -9.461       11.031        8.343        7.467      121.686       69.609       55.762        0.098        0.012       40.205        5.013        0.016      336.478        7.807      866.018
01/05/2022  21:24:00        6.141      -30.735      -14.763       20.803        8.408        8.772      432.746       70.688       76.954        0.089        0.029       31.342        6.190        0.039      336.560        7.946      866.018
01/05/2022  21:25:00       13.030      -32.324      -17.927       18.663       11.665       11.411      348.317      136.067      130.212        0.108        0.031       34.852        7.347        0.044      336.621        8.047      866.036
01/05/2022  21:26:00       24.508        8.980      -17.817       16.338       20.051       13.313      266.924      402.050      177.241        0.092        0.042       26.101       11.226        0.185      336.523        7.881      866.048
01/05/2022  21:27:00       24.115        9.178      -14.504       24.409       24.945       11.647      595.810      622.257      135.641        0.111        0.068       25.803        7.058        0.075      336.379        7.641      866.077
01/05/2022  21:28:00       64.202      -21.672      -12.119       41.675       15.177       18.461     1736.780      230.343      340.801        0.352        0.115       67.761       16.756        0.061      336.460        7.777      866.081
01/05/2022  21:29:00       13.796       -3.999       -6.680       31.122       22.156       27.290      968.564      490.878      744.765        0.123        0.110       14.364       22.201        2.389      336.366        7.619      866.098
01/05/2022  21:30:00      -49.826       24.922      -17.709       42.841       18.031       16.269     1835.351      325.120      264.674        0.292        0.121       55.711       14.074        0.064      336.326        7.553      866.172
01/05/2022  21:31:00      -97.806       18.166       -6.921       29.251       24.098       19.827      855.628      580.731      393.104        0.589        0.091       99.478       16.620        0.028      336.098        7.172      866.222
01/05/2022  21:32:00      -20.262       24.605      -14.044       37.934       25.264       22.995     1438.968      638.258      528.780        0.191        0.130       31.874       15.788        0.245      336.449        7.758      866.228
01/05/2022  21:33:00     -108.738       36.330       -7.540       30.653       28.315       22.184      939.599      801.719      492.108        0.772        0.112      114.647       14.485        0.016      336.249        7.423      866.234
01/05/2022  21:34:00      -58.375       -4.333      -17.372       39.766       38.060       13.682     1581.374     1448.554      187.199        0.347        0.161       58.536       12.037        0.042      336.114        7.198      866.225
01/05/2022  21:35:00      -39.768      -11.313      -15.924       22.640       18.158       12.539      512.586      329.720      157.238        0.148        0.050       41.346        9.409        0.052      336.132        7.228      866.209
01/05/2022  21:36:00     -104.180       21.976      -13.061       72.391       44.523       23.855     5240.462     1982.316      569.073        0.965        0.390      106.472       29.270        0.076      336.083        7.147      866.195
01/05/2022  21:37:00     -119.374       37.235      -15.624       33.485       31.865       19.684     1121.212     1015.389      387.440        0.920        0.126      125.046       17.792        0.020      336.083        7.145      866.184
01/05/2022  21:38:00      -13.892        4.398       -0.960       26.844       29.010       21.543      720.617      841.590      464.104        0.112        0.101       14.572       16.762        1.323      336.044        7.081      866.166
01/05/2022  21:39:00      -25.767       11.018      -12.310       45.496       35.580       28.710     2069.919     1265.965      824.273        0.255        0.208       28.024       25.676        0.839      336.030        7.059      866.159
01/05/2022  21:40:00      -48.557        0.296      -29.733       44.169       29.974       33.084     1950.867      898.441     1094.542        0.359        0.197       48.558       30.447        0.393      336.061        7.110      866.144
01/05/2022  21:41:00      -43.536        6.664       -7.342       27.471       18.215       22.488      754.659      331.773      505.720        0.179        0.080       44.043       20.433        0.215      336.219        7.374      866.107
01/05/2022  21:42:00      -63.684        6.744       -6.894       41.156       27.751       14.332     1693.848      770.144      205.400        0.341        0.133       64.040       17.343        0.073      336.184        7.315      866.076
01/05/2022  21:43:00     -113.758       63.116      -12.321       39.868       23.672       18.749     1589.456      560.356      351.531        0.979        0.125      130.094       19.466        0.022      336.082        7.143      866.040
01/05/2022  21:44:00      -64.052       18.763      -12.721       41.004       32.703       18.090     1681.311     1069.456      327.254        0.385        0.154       66.743       20.066        0.090      336.242        7.412      866.023
01/05/2022  21:45:00       -8.618      -21.969        0.197        8.103       14.498       10.506       65.660      210.204      110.385        0.047        0.019       23.599        2.674        0.013      336.244        7.415      865.998
01/05/2022  21:46:00       -8.140      -28.591       -8.305       13.743        9.577       11.819      188.859       91.725      139.696        0.069        0.021       29.727        7.379        0.062      336.232        7.394      866.011
01/05/2022  21:47:00        2.326        3.223       -3.273        6.840       11.205        7.251       46.791      125.562       52.582        0.013        0.011        3.975        5.429        1.865      336.262        7.444      866.018
01/05/2022  21:48:00       -3.154       -7.891       -6.946       10.323        8.723        8.834      106.562       76.086       78.040        0.019        0.013        8.498        7.290        0.736      336.251        7.429      866.013
01/05/2022  21:49:00      -14.530      -13.421      -10.164        8.926       17.343        6.515       79.669      300.771       42.448        0.046        0.021       19.779        1.390        0.005      336.385        7.651      866.020
01/05/2022  21:50:00       -8.341      -18.359       -5.803        6.113       15.615       10.106       37.372      243.814      102.129        0.041        0.019       20.165       10.483        0.270      336.405        7.684      866.028
01/05/2022  21:51:00       -1.155       -7.306       -4.099        9.010       10.126        8.591       81.180      102.543       73.812        0.016        0.013        7.397        6.389        0.746      336.376        7.634      866.044
01/05/2022  21:52:00      -16.461      -16.635      -17.018       13.546       14.065       12.253      183.503      197.815      150.136        0.068        0.027       23.403        8.056        0.119      336.357        7.604      866.051
01/05/2022  21:53:00      -12.554        8.839       -1.902       37.552       18.857       15.601     1410.133      355.583      243.406        0.112        0.100       15.354       15.603        1.033      336.333        7.564      866.065
01/05/2022  21:54:00        1.032      -19.121      -10.227       25.990       21.050       18.023      675.501      443.102      324.836        0.096        0.072       19.149       14.836        0.600      336.296        7.504      866.063
01/05/2022  21:55:00      -16.753      -35.565      -19.819       31.159       26.976       24.013      970.909      727.724      576.636        0.211        0.114       39.314       14.992        0.145      336.276        7.469      866.057
01/05/2022  21:56:00      -37.264      -13.453      -20.151       31.215       23.959       18.451      974.392      574.046      340.435        0.193        0.094       39.618       14.167        0.128      336.249        7.422      866.060
01/05/2022  21:57:00      -25.415       -6.903       -6.131       33.175       22.201       17.090     1100.613      492.899      292.070        0.131        0.094       26.336       14.489        0.303      336.248        7.419      866.072
01/05/2022  21:58:00      -22.873        5.713       -2.947       30.602       30.915       21.073      936.459      955.723      444.071        0.145        0.117       23.576       12.495        0.281      336.225        7.383      866.071
01/05/2022  21:59:00      -60.872        9.161      -14.085       43.051       35.305       24.550     1853.346     1246.478      602.696        0.384        0.185       61.557       19.986        0.105      336.209        7.358      866.073
01/05/2022  22:00:00     -129.560       63.777      -13.087       34.279       22.874       25.586     1175.067      523.234      654.650        1.169        0.118      144.407       20.551        0.020      336.047        7.086      866.072
01/05/2022  22:01:00      -42.019       52.427      -10.120       40.333       21.617       19.823     1626.742      467.276      392.955        0.355        0.124       67.187       11.956        0.032      336.211        7.360      866.066
01/05/2022  22:02:00      -17.684        7.628      -10.439       21.808       22.628       13.668      475.595      512.049      186.825        0.083        0.059       19.259        8.768        0.207      336.193        7.328      866.058
01/05/2022  22:03:00      -41.400      -47.082      -16.680       14.068       18.666       11.545      197.902      348.423      133.297        0.244        0.034       62.695        7.751        0.015      336.073        7.130      866.030
01/05/2022  22:04:00      -15.826      -17.380      -11.417       29.236       26.251       25.940      854.754      689.092      672.892        0.145        0.111       23.506       21.174        0.811      336.057        7.104      866.008
01/05/2022  22:05:00       10.944      -12.921       11.747       24.980       23.472       19.257      623.978      550.956      370.847        0.098        0.077       16.933        9.406        0.309      336.052        7.096      865.999
01/05/2022  22:06:00      -54.515      -18.846       -7.710       37.046       31.962       24.609     1372.421     1021.571      605.581        0.319        0.150       57.681       22.585        0.153      336.098        7.172      865.993
01/05/2022  22:07:00      -15.113      -14.922       -9.244       26.426       13.274       10.981      698.309      176.200      120.581        0.077        0.050       21.239        6.980        0.108      336.129        7.221      865.999
01/05/2022  22:08:00      -11.782       -2.778       -9.955        9.862        9.671        5.997       97.262       93.525       35.962        0.024        0.011       12.105        3.583        0.088      336.105        7.182      866.008
01/05/2022  22:09:00       12.046        2.931      -10.619       12.537       22.277       11.195      157.169      496.272      125.325        0.052        0.039       12.397        6.758        0.297      336.089        7.157      866.011
01/05/2022  22:10:00       39.606       15.313       -9.624       35.199       26.732       16.337     1238.982      714.622      266.885        0.206        0.111       42.463       15.231        0.129      335.901        6.846      865.986
01/05/2022  22:11:00      -42.602      -25.470      -19.068       24.236       22.192       14.875      587.389      492.465      221.277        0.206        0.065       49.635        4.854        0.010      336.057        7.102      865.962
01/05/2022  22:12:00        8.581       -5.269       -3.642       25.728       15.945       15.378      661.914      254.239      236.479        0.063        0.058       10.069       14.105        1.962      336.012        7.028      865.955
01/05/2022  22:13:00      -13.126      -15.978       -4.431       34.827       30.499       28.901     1212.934      930.176      835.253        0.171        0.149       20.678       23.984        1.345      335.999        7.006      865.941
01/05/2022  22:14:00        3.704      -39.709       -0.220       27.336       33.230       20.260      747.238     1104.245      410.477        0.193        0.113       39.881       19.632        0.242      336.005        7.016      865.910
01/05/2022  22:15:00       57.499      -58.903      -26.915       33.794       47.408       27.323     1142.034     2247.520      746.552        0.582        0.207       82.315       25.173        0.094      336.046        7.084      865.826
01/05/2022  22:16:00      111.703     -182.207      -49.118       43.101       50.109       25.596     1857.706     2510.865      655.143        2.656        0.251      213.722       17.356        0.007      336.079        7.137      865.738
01/05/2022  22:17:00       73.425     -108.240      -39.947       40.064       68.345       28.309     1605.130     4670.996      801.377        1.289        0.354      130.794       18.558        0.020      335.994        7.000      865.721
01/05/2022  22:18:00      100.917     -150.810      -46.691       43.708       56.332       25.958     1910.358     3173.320      673.827        2.043        0.288      181.461       16.722        0.008      336.016        7.033      865.741
01/05/2022  22:19:00       45.340      -94.112      -25.924       49.582       61.291       30.461     2458.377     3756.536      927.853        0.936        0.357      104.465       29.101        0.078      335.997        7.004      865.775
01/05/2022  22:20:00        2.921      -31.614      -23.462       25.923       29.561       21.842      671.991      873.881      477.080        0.179        0.101       31.748        9.367        0.087      336.033        7.062      865.800
01/05/2022  22:21:00        1.433      -15.112       -9.359       41.223       36.294       22.954     1699.309     1317.289      526.884        0.193        0.177       15.180       17.334        1.304      336.027        7.052      865.818
01/05/2022  22:22:00       26.602      -70.468      -12.365       52.123       27.736       29.548     2716.813      769.291      873.063        0.509        0.218       75.322       27.411        0.132      336.035        7.067      865.842
01/05/2022  22:23:00       31.126      -55.047      -14.542       36.893       40.539       31.487     1361.076     1643.390      991.434        0.410        0.200       63.238       23.646        0.140      335.975        6.967      865.833
01/05/2022  22:24:00      -45.695      -16.811      -18.011       30.861       21.787       20.181      952.432      474.687      407.278        0.226        0.092       48.690       13.961        0.082      335.944        6.915      865.811
01/05/2022  22:25:00      -77.002      -42.367      -19.765       59.159       57.015       34.823     3499.806     3250.688     1212.648        0.804        0.398       87.888       29.682        0.114      335.952        6.929      865.797
01/05/2022  22:26:00      -55.599        0.637      -11.534       44.819       36.394       36.507     2008.764     1324.535     1332.789        0.394        0.233       55.603       21.560        0.150      335.941        6.910      865.791
01/05/2022  22:27:00      -51.871      -11.312       -3.524       48.122       23.011       22.971     2315.691      529.504      527.664        0.310        0.169       53.090       14.283        0.072      335.903        6.846      865.780
01/05/2022  22:28:00      -40.919      -15.239       -5.026       29.562       28.326       22.621      873.938      802.371      511.726        0.206        0.109       43.665       18.653        0.182      335.904        6.849      865.778
01/05/2022  22:29:00      -12.639       -9.903      -13.884       27.217       17.646       14.299      740.772      311.383      204.461        0.085        0.063       16.056       13.042        0.660      335.897        6.837      865.791
01/05/2022  22:30:00       -5.414       -8.915      -13.615       16.270       24.048       24.728      264.699      578.326      611.450        0.087        0.073       10.430       13.554        1.689      335.883        6.814      865.829
01/05/2022  22:31:00       22.798      -32.056      -17.295       27.873       49.853       35.969      776.913     2485.347     1293.798        0.320        0.228       39.337       26.002        0.437      335.942        6.913      865.857
01/05/2022  22:32:00       28.876      -25.833      -19.163       26.868       43.702       26.084      721.890     1909.892      680.381        0.259        0.166       38.745       17.612        0.207      335.863        6.782      865.854
01/05/2022  22:33:00       31.193      -57.751      -21.065       26.778       51.369       26.939      717.082     2638.758      725.719        0.442        0.204       65.637       22.525        0.118      335.817        6.704      865.835
01/05/2022  22:34:00       49.759      -84.153      -25.761       29.724       26.664       16.996      883.545      710.967      288.880        0.605        0.094       97.763       13.606        0.019      335.848        6.755      865.833
01/05/2022  22:35:00        8.498       12.999       -6.284       20.783       17.970       17.380      431.947      322.911      302.060        0.067        0.053       15.530        9.143        0.347      335.711        6.527      865.851
01/05/2022  22:36:00       31.815        9.768      -11.982       21.756       16.741       10.221      473.341      280.265      104.473        0.105        0.043       33.281        9.249        0.077      335.671        6.460      865.856
01/05/2022  22:37:00       30.375       -4.710      -10.331       19.678       21.741       12.216      387.213      472.673      149.232        0.103        0.050       30.738        9.365        0.093      335.756        6.601      865.833
01/05/2022  22:38:00       29.233       -6.437      -12.014       14.655       25.189       17.557      214.768      634.478      308.237        0.110        0.058       29.934        9.038        0.091      335.760        6.607      865.809
01/05/2022  22:39:00       32.320      -49.092      -15.021       28.536       37.556       32.810      814.289     1410.490     1076.511        0.349        0.165       58.776       18.162        0.095      335.897        6.838      865.802
01/05/2022  22:40:00       35.352       36.929       -5.452       23.601       17.150       21.322      556.998      294.119      454.642        0.197        0.065       51.123       19.531        0.146      335.864        6.783      865.800
01/05/2022  22:41:00       43.201       25.853       -5.234       14.800       13.790       13.418      219.040      190.153      180.042        0.158        0.029       50.346        8.804        0.031      335.801        6.676      865.814
01/05/2022  22:42:00       28.448       -2.341      -13.666       21.761       22.333       14.364      473.554      498.764      206.325        0.109        0.059       28.545        8.129        0.081      335.739        6.572      865.812
01/05/2022  22:43:00       16.586      -41.120      -28.864       31.364       35.438       16.556      983.722     1255.847      274.106        0.266        0.126       44.339       15.890        0.128      335.833        6.732      865.802
01/05/2022  22:44:00       -4.473      -30.628      -10.644       29.831       23.961       16.121      889.879      574.127      259.901        0.140        0.086       30.953       12.013        0.151      335.851        6.760      865.794
01/05/2022  22:45:00       30.383      -47.562       -6.576       31.795       18.130       19.844     1010.930      328.690      393.773        0.248        0.087       56.439       16.611        0.087      335.898        6.839      865.787
01/05/2022  22:46:00      -25.112       -6.052       -9.456       25.368       22.827       12.174      643.555      521.072      148.213        0.103        0.066       25.831       11.127        0.186      335.655        6.433      865.765
01/05/2022  22:47:00      -62.960       17.493       -9.411       31.632       27.010       16.924     1000.613      729.534      286.411        0.319        0.101       65.345       15.331        0.055      335.435        6.068      865.757
01/05/2022  22:48:00      -99.843       17.852      -15.438       32.104       31.621       23.010     1030.676      999.859      529.463        0.654        0.128      101.427       14.550        0.021      335.344        5.915      865.750
01/05/2022  22:49:00      -98.972       18.445      -15.687       57.415       37.578       20.953     3296.444     1412.102      439.048        0.776        0.257      100.677       20.817        0.043      335.346        5.920      865.748
01/05/2022  22:50:00      -86.313       31.363      -13.652       50.049       37.959       22.797     2504.924     1440.857      519.703        0.654        0.223       91.835       11.786        0.016      335.506        6.184      865.754
01/05/2022  22:51:00     -133.362       33.038        1.016       59.746       42.588       31.314     3569.596     1813.710      980.560        1.262        0.318      137.393       29.357        0.046      335.439        6.072      865.750
01/05/2022  22:52:00     -131.904       30.937       -6.782       60.625       44.107       35.916     3675.421     1945.437     1289.924        1.266        0.346      135.484       31.367        0.054      335.158        5.606      865.746
01/05/2022  22:53:00     -163.157       59.033      -26.556       59.321       41.119       36.409     3518.932     1690.812     1325.651        1.867        0.327      173.508       25.520        0.022      335.026        5.386      865.747
01/05/2022  22:54:00     -145.186       50.040      -12.911       63.115       44.287       33.088     3983.515     1961.329     1094.810        1.539        0.352      153.568       22.327        0.021      334.939        5.242      865.733
01/05/2022  22:55:00      -88.594       19.082      -11.915       43.295       44.906       28.028     1874.461     2016.505      785.588        0.651        0.234       90.626       16.819        0.034      334.944        5.251      865.734
01/05/2022  22:56:00     -136.074       54.201      -25.413       29.916       30.684       20.718      894.959      941.485      429.215        1.218        0.113      146.471       19.419        0.018      334.930        5.227      865.731
01/05/2022  22:57:00     -105.651       40.165      -15.620       48.604       38.310       29.045     2362.381     1467.643      843.589        0.885        0.234      113.028       25.717        0.052      334.975        5.303      865.736
01/05/2022  22:58:00     -125.059       52.088      -28.607       43.408       37.637       33.533     1884.213     1416.533     1124.488        1.180        0.221      135.473       21.592        0.025      335.020        5.377      865.729
01/05/2022  22:59:00      -55.200       22.831      -20.610       49.032       54.796       31.512     2404.093     3002.582      992.989        0.520        0.320       59.735       25.072        0.176      334.951        5.262      865.717
01/05/2022  23:00:00      -66.568       10.457      -37.174       35.787       39.571       40.673     1280.702     1565.877     1654.334        0.521        0.225       67.385       17.268        0.066      334.962        5.282      865.699
01/05/2022  23:01:00      -95.291       22.157      -23.991       50.346       22.310       31.014     2534.738      497.732      961.868        0.707        0.200       97.833       15.278        0.024      335.005        5.353      865.697
01/05/2022  23:02:00     -116.139       26.517      -16.784       45.253       26.747       16.947     2047.814      715.381      287.201        0.876        0.153      119.128       14.230        0.014      334.972        5.298      865.687
01/05/2022  23:03:00      -34.165       22.558      -16.363       68.714       43.136       25.593     4721.671     1860.695      654.978        0.459        0.362       40.940       25.242        0.380      334.921        5.215      865.679
01/05/2022  23:04:00     -146.503       31.113      -35.146       35.655       40.417       22.785     1271.244     1633.519      519.162        1.354        0.171      149.770       13.076        0.008      334.936        5.238      865.665
01/05/2022  23:05:00     -127.803       53.817      -24.595       35.393       34.842       24.427     1252.677     1213.963      596.700        1.145        0.153      138.672       16.510        0.014      334.928        5.224      865.630
01/05/2022  23:06:00     -133.003       58.833      -13.351       33.456       34.970       30.471     1119.322     1222.904      928.466        1.230        0.164      145.435       19.632        0.018      334.965        5.286      865.598
01/05/2022  23:07:00     -128.216       66.980      -12.741       40.359       37.043       29.295     1628.857     1372.192      858.180        1.247        0.193      144.657       24.820        0.029      335.129        5.557      865.571
01/05/2022  23:08:00     -125.791       54.574      -14.261       44.557       41.905       27.854     1985.312     1756.057      775.846        1.176        0.226      137.119       23.432        0.029      335.132        5.561      865.579
01/05/2022  23:09:00      -95.872        9.227       -2.410       47.928       35.453       27.943     2297.111     1256.889      780.812        0.681        0.217       96.315       24.038        0.062      335.178        5.639      865.598
01/05/2022  23:10:00      -86.610       12.268       -7.918       68.165       30.579       28.297     4646.411      935.067      800.743        0.705        0.319       87.474       31.952        0.133      335.124        5.551      865.610
01/05/2022  23:11:00        0.090       18.276        2.399       44.045       33.601       29.379     1939.994     1129.051      863.100        0.214        0.197       18.276       23.194        1.611      335.039        5.411      865.604
01/05/2022  23:12:00     -128.461       17.965      -16.796       45.028       39.597       27.155     2027.513     1567.893      737.420        1.072        0.217      129.712       19.136        0.022      335.035        5.402      865.589
01/05/2022  23:13:00     -102.872       14.284       -9.194       33.902       31.190       27.470     1149.357      972.842      754.605        0.687        0.144      103.859       22.597        0.047      334.983        5.316      865.570
01/05/2022  23:14:00     -110.591       14.930       -9.721       29.952       18.024       16.504      897.101      324.878      272.372        0.702        0.075      111.594       12.147        0.012      335.013        5.366      865.537
01/05/2022  23:15:00     -120.007       15.354       -1.907       32.073       27.091       20.816     1028.677      733.930      433.302        0.842        0.110      120.985       19.995        0.027      335.063        5.449      865.500
01/05/2022  23:16:00      -92.194       15.016       -5.142       47.990       27.697       22.501     2303.056      767.098      506.280        0.616        0.179       93.409       17.794        0.036      335.232        5.729      865.467
01/05/2022  23:17:00     -143.314       -4.625       -8.635       34.742       26.460       26.653     1207.023      700.144      710.388        1.163        0.131      143.388       22.662        0.025      335.529        6.222      865.448
01/05/2022  23:18:00     -140.306      -13.785        5.673       65.208       38.129       40.188     4252.090     1453.827     1615.075        1.361        0.366      140.981       36.348        0.066      335.656        6.435      865.446
01/05/2022  23:19:00     -130.897      -10.386        3.205       86.621       45.566       47.621     7503.263     2076.277     2267.714        1.455        0.592      131.309       51.087        0.151      335.782        6.645      865.452
01/05/2022  23:20:00     -153.238      -12.723        5.507       85.648       61.867       48.986     7335.633     3827.473     2399.672        1.862        0.678      153.765       47.522        0.096      335.852        6.760      865.457
01/05/2022  23:21:00     -180.564       -7.467       -7.971       79.752       56.142       42.292     6360.308     3151.875     1788.585        2.201        0.565      180.718       40.156        0.049      335.747        6.585      865.487
01/05/2022  23:22:00     -124.380        1.508        0.948       71.562       49.478       35.663     5121.063     2448.027     1271.826        1.216        0.442      124.389       32.503        0.068      335.585        6.317      865.513
01/05/2022  23:23:00     -136.416        9.159       -3.767       83.246       43.271       36.327     6929.895     1872.384     1319.648        1.441        0.506      136.724       40.406        0.087      335.536        6.235      865.531
01/05/2022  23:24:00      -66.757       20.911       -0.751       59.877       35.790       24.322     3585.281     1280.957      591.581        0.518        0.273       69.955       24.391        0.122      335.438        6.073      865.518
01/05/2022  23:25:00     -110.070       22.387       -6.170       53.310       46.487       32.481     2841.977     2161.084     1055.009        0.936        0.303      112.323       30.854        0.075      335.454        6.097      865.508
01/05/2022  23:26:00     -138.991       23.862       -1.023       48.528       37.342       29.033     2354.989     1394.448      842.932        1.224        0.230      141.024       27.769        0.039      335.191        5.661      865.515
01/05/2022  23:27:00     -112.277       13.508       -6.370       73.496       50.570       33.588     5401.607     2557.297     1128.183        1.096        0.454      113.086       21.345        0.036      335.014        5.366      865.534
01/05/2022  23:28:00     -148.972       42.191      -14.336       60.712       49.708       36.525     3685.919     2470.882     1334.089        1.583        0.375      154.832       31.632        0.042      334.883        5.151      865.534
01/05/2022  23:29:00     -147.367       35.033       -0.966       87.840       42.322       35.448     7715.825     1791.167     1256.583        1.685        0.538      151.474       38.539        0.065      334.806        5.022      865.512
01/05/2022  23:30:00      -93.708        3.675       -1.256       74.428       44.983       29.002     5539.501     2023.472      841.112        0.860        0.420       93.780       17.619        0.035      334.895        5.170      865.504
01/05/2022  23:31:00     -141.614       -8.169       -3.584       68.404       45.942       34.439     4679.154     2110.698     1186.023        1.405        0.399      141.849       31.918        0.051      335.010        5.360      865.494
01/05/2022  23:32:00     -123.233        3.585       -8.222       81.973       52.858       42.477     6719.513     2793.927     1804.326        1.329        0.566      123.286       43.122        0.122      334.968        5.291      865.498
01/05/2022  23:33:00     -130.907       22.883       -6.399       85.143       47.950       34.503     7249.342     2299.191     1190.433        1.422        0.537      132.892       35.256        0.070      334.876        5.138      865.498
01/05/2022  23:34:00      -78.601       10.925        3.662       84.939       53.221       35.145     7214.708     2832.441     1235.171        0.879        0.564       79.357       38.472        0.235      334.907        5.190      865.507
01/05/2022  23:35:00     -142.319      -12.529        1.620       85.621       60.240       44.205     7330.931     3628.902     1954.115        1.666        0.646      142.870       40.798        0.082      334.985        5.318      865.519
01/05/2022  23:36:00     -157.146       47.439        2.511       79.273       53.184       39.761     6284.180     2828.556     1580.911        1.882        0.535      164.150       40.034        0.059      334.920        5.210      865.530
01/05/2022  23:37:00     -168.363       20.434       -2.644       88.091       41.784       41.043     7760.005     1745.892     1684.513        1.998        0.560      169.598       48.323        0.081      334.909        5.191      865.528
01/05/2022  23:38:00     -238.992       25.759       -8.115       54.213       40.596       32.971     2939.056     1648.052     1087.114        3.176        0.284      240.376       28.431        0.014      335.010        5.358      865.513
01/05/2022  23:39:00     -193.554       13.014       -8.921       62.236       41.092       33.396     3873.316     1688.590     1115.291        2.219        0.334      193.991       31.409        0.026      334.991        5.327      865.504
01/05/2022  23:40:00     -130.566       52.795        3.382       50.131       29.684       29.866     2513.159      881.127      891.980        1.207        0.214      140.836       22.656        0.026      334.983        5.318      865.496
01/05/2022  23:41:00     -120.370       34.221       -3.529       59.964       36.622       24.879     3595.698     1341.180      618.944        1.061        0.278      125.140       20.814        0.028      334.964        5.284      865.494
01/05/2022  23:42:00      -81.864       15.271      -12.406       79.594       32.646       31.060     6335.224     1065.738      964.749        0.773        0.418       83.276       39.246        0.222      334.899        5.178      865.518
01/05/2022  23:43:00     -122.783       34.426       -9.402       60.557       36.551       31.865     3667.159     1335.998     1015.369        1.118        0.301      127.518       33.618        0.070      334.797        5.008      865.542
01/05/2022  23:44:00     -112.493       65.204       -8.233       51.616       36.888       28.593     2664.169     1360.719      817.534        1.091        0.242      130.024       30.612        0.055      334.743        4.917      865.554
01/05/2022  23:45:00     -123.398       67.133      -10.594       47.694       34.745       31.395     2274.683     1207.212      985.645        1.216        0.223      140.478       27.435        0.038      334.792        4.999      865.542
01/05/2022  23:46:00     -108.093       40.994       -3.884       49.139       27.136       21.373     2414.665      736.373      456.822        0.849        0.180      115.605       21.950        0.036      334.806        5.021      865.522
01/05/2022  23:47:00     -100.174       25.360       -3.576       37.458       33.534       23.974     1403.091     1124.552      574.761        0.690        0.155      103.334       19.064        0.034      334.870        5.127      865.513
01/05/2022  23:48:00      -64.877       37.259       -6.652       32.333       37.514       24.417     1045.451     1407.285      596.198        0.434        0.152       74.814       16.934        0.051      335.043        5.416      865.478
01/05/2022  23:49:00      -76.695       59.297      -11.865       39.771       43.686       22.669     1581.746     1908.483      513.892        0.677        0.200       96.945       19.572        0.041      335.021        5.379      865.460
01/05/2022  23:50:00      -72.681       18.370      -15.453       40.819       34.773       24.760     1666.190     1209.161      613.047        0.467        0.174       74.966       14.976        0.040      334.900        5.178      865.436
01/05/2022  23:51:00      -73.473       32.306       -6.991       33.238       25.988       21.520     1104.764      675.386      463.111        0.437        0.112       80.262       16.253        0.041      334.944        5.251      865.407
01/05/2022  23:52:00      -79.999       34.502       -9.040       41.282       36.131       24.468     1704.203     1305.443      598.664        0.564        0.180       87.122       15.212        0.030      335.003        5.350      865.383
01/05/2022  23:53:00      -72.400       32.804      -21.580       41.115       40.183       28.564     1690.480     1614.708      815.875        0.545        0.206       79.485        7.478        0.009      334.918        5.208      865.369
01/05/2022  23:54:00     -125.581       37.145      -22.090       45.459       43.898       27.215     2066.550     1927.078      740.654        1.119        0.237      130.959       19.024        0.021      334.879        5.145      865.349
01/05/2022  23:55:00      -89.388       47.030       -8.421       57.243       35.357       25.090     3276.776     1250.121      629.497        0.771        0.258      101.005       23.809        0.056      334.896        5.171      865.340
01/05/2022  23:56:00      -89.930        8.817      -16.018       53.652       35.816       27.414     2878.518     1282.790      751.513        0.667        0.246       90.361       20.908        0.054      334.880        5.145      865.338
01/05/2022  23:57:00      -32.054       -3.395      -14.745       58.236       34.622       30.826     3391.428     1198.664      950.224        0.340        0.277       32.233       16.059        0.248      334.812        5.032      865.311
01/05/2022  23:58:00      -76.176       21.374      -11.413       60.578       32.800       24.448     3669.713     1075.872      597.722        0.587        0.267       79.118        7.076        0.008      334.983        5.316      865.261
01/05/2022  23:59:00      -90.142       38.687      -12.341       36.097       17.464       16.418     1303.019      304.994      269.558        0.583        0.094       98.093       11.933        0.015      335.082        5.481      865.208
01/06/2022  00:00:00      -79.011       29.197      -11.298       29.043       19.460       15.322      843.476      378.688      234.761        0.434        0.073       84.234       10.623        0.016      335.128        5.556      865.175
01/06/2022  00:01:00      -70.993       16.452       -8.782       27.415       19.374       12.561      751.606      375.345      157.770        0.334        0.064       72.874       10.828        0.022      335.102        5.514      865.159
01/06/2022  00:02:00      -67.113       10.561       -5.520       26.711       21.382       16.696      713.500      457.189      278.769        0.305        0.072       67.938       11.585        0.029      335.037        5.406      865.170
01/06/2022  00:03:00       -5.661        5.479       -1.070       23.767        9.979       12.694      564.878       99.574      161.131        0.044        0.041        7.878        8.106        1.059      335.009        5.360      865.178
01/06/2022  00:04:00       13.202        8.760      -13.518        9.075       11.169       11.605       82.364      124.753      134.684        0.039        0.017       15.844        9.536        0.362      335.150        5.591      865.188
01/06/2022  00:05:00       -3.647       -7.224       -2.029        9.983        9.555        9.882       99.653       91.293       97.650        0.018        0.014        8.093        7.825        0.935      335.246        5.751      865.212
01/06/2022  00:06:00       21.855       20.595       -7.731       44.610       21.769       13.251     1990.015      473.887      175.591        0.180        0.132       30.030       18.674        0.387      335.122        5.548      865.240
01/06/2022  00:07:00      124.768       10.623      -17.872       30.050       27.440       17.382      902.984      752.943      302.143        0.898        0.098      125.220       11.306        0.008      334.864        5.118      865.249
01/06/2022  00:08:00      107.885       11.840      -15.244       34.996       31.639       21.664     1224.752     1001.026      469.315        0.735        0.135      108.532       15.131        0.019      334.523        4.551      865.259
01/06/2022  00:09:00      117.208       12.162      -11.850       25.995       23.911       18.987      675.765      571.726      360.507        0.782        0.080      117.837       12.463        0.011      334.581        4.646      865.256
01/06/2022  00:10:00       73.930        7.722       -5.269       35.209       21.536       16.960     1239.687      463.794      287.656        0.377        0.100       74.332       15.006        0.041      334.676        4.804      865.226
01/06/2022  00:11:00       81.475        9.387      -16.609       44.956       33.042       20.359     2021.076     1091.793      414.498        0.526        0.176       82.014       12.980        0.025      334.779        4.978      865.197
01/06/2022  00:12:00       36.801        9.065      -24.014       33.466       55.738       31.434     1119.964     3106.762      988.095        0.361        0.261       37.901        7.158        0.036      334.846        5.089      865.161
01/06/2022  00:13:00       49.286      -14.082      -38.269       36.733       60.427       26.483     1349.292     3651.407      701.343        0.490        0.285       51.258       17.513        0.117      334.869        5.127      865.153
01/06/2022  00:14:00       40.650       21.221      -31.517       32.440       41.102       30.186     1052.370     1689.341      911.187        0.337        0.183       45.856       11.792        0.066      334.760        4.946      865.165
01/06/2022  00:15:00       32.161       -2.518      -13.270       33.262       39.125       23.710     1106.367     1530.772      562.140        0.221        0.160       32.259       21.525        0.445      334.777        4.974      865.175
01/06/2022  00:16:00       62.941       43.500       -1.052       47.414       41.951       27.566     2248.072     1759.866      759.884        0.531        0.238       76.510       10.286        0.018      334.642        4.749      865.203
01/06/2022  00:17:00       41.839       18.973       -4.644       40.384       33.614       27.047     1630.839     1129.893      731.527        0.281        0.175       45.940       15.637        0.116      334.676        4.805      865.234
01/06/2022  00:18:00       77.766       18.134      -16.989       39.950       34.350       22.062     1596.037     1179.888      486.736        0.496        0.163       79.852       12.246        0.024      334.669        4.794      865.260
01/06/2022  00:19:00       32.469        1.899      -18.400       36.649       32.246       20.667     1343.160     1039.824      427.122        0.210        0.141       32.525       14.003        0.185      334.651        4.763      865.267
01/06/2022  00:20:00       69.000       37.652      -25.821       32.205       35.883       27.476     1037.138     1287.624      754.942        0.496        0.154       78.605       15.491        0.039      334.678        4.809      865.262
01/06/2022  00:21:00       68.999       46.501      -24.935       28.059       31.836       20.320      787.316     1013.499      412.907        0.488        0.111       83.205       14.606        0.031      334.760        4.945      865.271
01/06/2022  00:22:00       62.984        6.392      -20.334       39.134       19.018       16.703     1531.473      361.676      279.002        0.330        0.109       63.308       14.863        0.055      334.759        4.944      865.279
01/06/2022  00:23:00      101.591       12.249      -21.918       35.368       27.336       20.482     1250.890      747.265      419.499        0.668        0.121      102.327       16.130        0.025      334.746        4.923      865.281
01/06/2022  00:24:00       78.992       15.536      -20.793       35.632       28.331       22.881     1269.641      802.669      523.532        0.475        0.130       80.505       16.817        0.044      334.732        4.900      865.275
01/06/2022  00:25:00       56.536      -10.287      -19.919       48.674       36.454       21.806     2369.134     1328.916      475.503        0.394        0.209       57.464       19.814        0.119      334.681        4.813      865.269
01/06/2022  00:26:00       58.710       24.291      -26.126       43.106       48.491       25.881     1858.091     2351.403      669.804        0.480        0.244       63.537       17.123        0.073      334.695        4.836      865.279
01/06/2022  00:27:00       58.619        8.947      -37.132       31.633       42.910       22.933     1000.637     1841.240      525.939        0.413        0.168       59.298        7.620        0.017      334.742        4.916      865.285
01/06/2022  00:28:00       56.057       -7.572      -33.058       37.514       48.930       27.119     1407.309     2394.178      735.448        0.441        0.227       56.566       14.353        0.064      334.751        4.929      865.286
01/06/2022  00:29:00       57.911       -7.734      -45.910       36.474       46.007       23.641     1330.387     2116.677      558.918        0.476        0.200       58.425       14.259        0.060      334.756        4.940      865.286
01/06/2022  00:30:00       62.814       11.134      -22.968       25.926       42.207       22.051      672.147     1781.441      486.228        0.377        0.147       63.793       11.129        0.030      334.750        4.929      865.308
01/06/2022  00:31:00       99.821       43.259      -28.833       33.841       34.371       24.780     1145.221     1181.367      614.056        0.780        0.147      108.791       17.299        0.025      334.777        4.974      865.333
01/06/2022  00:32:00      117.144       13.684      -13.808       23.556       33.754       18.856      554.885     1139.361      355.541        0.807        0.102      117.941       12.394        0.011      334.630        4.729      865.343
01/06/2022  00:33:00      113.912       51.306       -9.725       22.424       22.678       12.922      502.855      514.284      166.980        0.844        0.059      124.933        3.265        0.001      334.591        4.663      865.356
01/06/2022  00:34:00      135.497       67.915      -16.013       24.333       21.881       14.069      592.099      478.798      197.949        1.225        0.063      151.565       11.046        0.005      334.645        4.754      865.362
01/06/2022  00:35:00      111.613       64.476       -4.005       30.904       22.620       22.616      955.062      511.651      511.467        0.930        0.099      128.897       15.040        0.014      334.638        4.743      865.381
01/06/2022  00:36:00      101.484       24.543      -10.486       22.739       20.676       16.567      517.072      427.494      274.471        0.611        0.061      104.410       10.721        0.011      334.678        4.807      865.393
01/06/2022  00:37:00       44.616      -18.469      -24.948       26.558       35.415       25.654      705.335     1254.198      658.120        0.279        0.131       48.288       18.495        0.147      334.751        4.930      865.389
01/06/2022  00:38:00       27.076      -67.907      -24.030       43.276       48.470       20.557     1872.841     2349.379      422.602        0.528        0.232       73.106       19.831        0.074      334.726        4.889      865.385
01/06/2022  00:39:00       83.674     -125.854      -34.506       34.788       36.209       24.598     1210.193     1311.058      605.058        1.358        0.156      151.131       19.688        0.017      334.656        4.772      865.387
01/06/2022  00:40:00       83.110      -80.106      -34.724       37.424       53.462       23.170     1400.583     2858.199      536.845        0.966        0.240      115.430       15.578        0.018      334.747        4.923      865.403
01/06/2022  00:41:00       45.246      -74.027      -28.118       24.699       32.449       16.539      610.026     1052.932      273.535        0.513        0.097       86.759        7.822        0.008      334.897        5.174      865.420
01/06/2022  00:42:00       31.959      -35.428      -14.644       32.901       40.023       29.425     1082.488     1601.837      865.824        0.302        0.178       47.713       18.388        0.149      334.896        5.171      865.415
01/06/2022  00:43:00       58.901      -48.810      -20.093       55.687       54.500       43.460     3101.080     2970.298     1888.752        0.711        0.398       76.497       36.432        0.227      334.840        5.079      865.411
01/06/2022  00:44:00       11.844      -16.971       -8.030       44.377       38.170       28.396     1969.306     1456.972      806.307        0.236        0.212       20.695       13.359        0.417      334.772        4.966      865.424
01/06/2022  00:45:00       51.741      -19.839      -14.799       46.492       40.433       24.798     2161.506     1634.863      614.941        0.385        0.221       55.414       19.544        0.124      334.753        4.934      865.449
01/06/2022  00:46:00       30.547      -24.326      -18.155       30.080       43.587       31.148      904.801     1899.822      970.205        0.281        0.189       39.049       15.077        0.149      334.785        4.986      865.452
01/06/2022  00:47:00       84.895        5.753      -19.018       41.651       45.568       28.513     1734.812     2076.426      812.980        0.611        0.231       85.090       16.381        0.037      334.654        4.768      865.444
01/06/2022  00:48:00       57.459       20.609       -9.003       44.363       46.440       33.505     1968.116     2156.700     1122.572        0.453        0.262       61.043       22.362        0.134      334.647        4.756      865.430
01/06/2022  00:49:00       55.075        1.171       -7.701       47.413       49.374       31.538     2247.988     2437.832      994.629        0.439        0.284       55.088       20.561        0.139      334.626        4.722      865.428
01/06/2022  00:50:00       77.947       -7.199      -30.175       33.642       61.020       25.965     1131.765     3723.443      674.187        0.628        0.276       78.278       18.514        0.056      334.652        4.765      865.427
01/06/2022  00:51:00       42.780      -40.476      -32.303       43.441       52.073       33.399     1887.139     2711.624     1115.482        0.511        0.286       58.893       24.138        0.168      334.868        5.125      865.419
01/06/2022  00:52:00       43.245      -66.537      -15.156       47.194       59.348       46.027     2227.294     3522.207     2118.475        0.720        0.393       79.355       32.762        0.170      334.917        5.205      865.413
01/06/2022  00:53:00       28.469      -11.302      -34.003       27.068       42.881       24.879      732.659     1838.815      618.945        0.264        0.160       30.630       12.860        0.176      334.718        4.875      865.407
01/06/2022  00:54:00       55.444       12.500      -25.621       30.404       42.355       29.884      924.401     1793.985      893.038        0.375        0.181       56.835       18.697        0.108      334.720        4.878      865.415
01/06/2022  00:55:00       70.763       21.970      -14.991       33.622       41.187       21.718     1130.411     1696.355      471.676        0.451        0.165       74.095       12.215        0.027      334.803        5.017      865.410
01/06/2022  00:56:00       75.530       49.695      -14.592       25.543       22.273       15.619      652.461      496.089      243.955        0.489        0.070       90.412        6.894        0.006      334.642        4.748      865.409
01/06/2022  00:57:00       97.919       19.240      -14.567       17.173       29.538       16.164      294.908      872.510      261.281        0.580        0.071       99.792       10.956        0.012      334.540        4.580      865.395
01/06/2022  00:58:00      108.774        8.388      -12.187       27.286       20.244       12.641      744.537      409.802      159.789        0.668        0.066      109.097        4.231        0.002      334.567        4.624      865.385
01/06/2022  00:59:00      118.315       26.454       -2.786       18.298       16.220       11.683      334.799      263.099      136.486        0.772        0.037      121.237        8.917        0.005      334.549        4.593      865.383
01/06/2022  01:00:00       81.641       38.491       -5.519       32.971       15.703       16.970     1087.096      246.594      287.970        0.490        0.081       90.260       12.050        0.018      334.561        4.613      865.391
01/06/2022  01:01:00       22.049       33.764       -3.001       26.161       15.579        9.066      684.408      242.714       82.187        0.132        0.050       40.326        9.952        0.061      334.582        4.648      865.398
01/06/2022  01:02:00      -25.777       30.739       -9.561       26.100       12.246       10.146      681.234      149.962      102.950        0.132        0.047       40.116       12.321        0.094      334.635        4.737      865.413
01/06/2022  01:03:00      -45.057       18.519      -10.536       13.629       11.020       12.352      185.737      121.438      152.561        0.147        0.023       48.714        8.769        0.032      334.433        4.403      865.437
01/06/2022  01:04:00      -54.973       22.456      -11.142       19.368        9.366        8.460      375.104       87.721       71.564        0.209        0.027       59.383        5.728        0.009      334.468        4.459      865.458
01/06/2022  01:05:00      -52.792       37.163       -5.913       18.779       16.703       11.990      352.633      278.984      143.767        0.249        0.039       64.561        5.874        0.008      334.552        4.599      865.467
01/06/2022  01:06:00      -62.538       41.168      -10.619       29.193       20.461       15.314      852.213      418.670      234.522        0.361        0.075       74.872       11.949        0.025      334.535        4.570      865.469
01/06/2022  01:07:00      -82.176       20.633      -21.258       32.148       22.623       15.649     1033.481      511.791      244.883        0.471        0.090       84.727       10.931        0.017      334.457        4.441      865.463
01/06/2022  01:08:00      -55.400        6.404      -11.334       46.765       25.005       18.358     2186.974      625.225      337.032        0.319        0.157       55.769       14.073        0.064      334.287        4.160      865.439
01/06/2022  01:09:00     -122.652       55.314      -12.977       47.139       41.504       26.093     2222.061     1722.607      680.856        1.145        0.231      134.548       12.391        0.008      334.214        4.038      865.425
01/06/2022  01:10:00     -148.416       75.468      -14.252       62.017       59.385       32.882     3846.070     3526.531     1081.205        1.819        0.423      166.501       37.858        0.052      334.075        3.806      865.417
01/06/2022  01:11:00     -177.212       94.980      -25.810       58.335       44.520       32.217     3402.959     1982.064     1037.950        2.376        0.321      201.060       28.194        0.020      333.970        3.633      865.414
01/06/2022  01:12:00     -163.692       74.622      -17.698       52.548       36.061       30.112     2761.248     1300.384      906.761        1.882        0.248      179.898       20.837        0.013      333.983        3.653      865.409
01/06/2022  01:13:00      -91.957       55.340      -15.823       31.963       21.951       24.730     1021.633      481.826      611.590        0.694        0.106      107.325       21.077        0.039      333.994        3.673      865.397
01/06/2022  01:14:00     -128.742       20.038      -21.603       55.161       38.964       32.294     3042.715     1518.157     1042.879        1.152        0.280      130.292       31.562        0.059      334.029        3.733      865.409
01/06/2022  01:15:00     -153.893       77.896      -15.877       50.687       52.208       35.147     2569.155     2725.688     1235.338        1.827        0.327      172.485       29.794        0.030      333.830        3.401      865.412
01/06/2022  01:16:00     -117.139       77.116      -21.640       55.596       52.736       27.973     3090.947     2781.090      782.462        1.339        0.333      140.244       18.100        0.017      333.853        3.441      865.407
01/06/2022  01:17:00     -113.801       58.488      -20.872       63.428       43.285       38.980     4023.066     1873.567     1519.477        1.211        0.371      127.951       36.418        0.081      334.008        3.697      865.401
01/06/2022  01:18:00     -115.167       36.298      -20.813       38.147       46.114       32.201     1455.184     2126.539     1036.873        0.982        0.231      120.752       22.080        0.033      334.062        3.788      865.393
01/06/2022  01:19:00      -76.870       13.901      -12.503       75.891       39.616       32.748     5759.448     1569.414     1072.448        0.733        0.420       78.117       33.306        0.182      333.972        3.638      865.395
01/06/2022  01:20:00     -139.933       27.010      -24.166       66.539       39.291       31.566     4427.438     1543.762      996.418        1.393        0.348      142.516       31.601        0.049      333.917        3.547      865.407
01/06/2022  01:21:00     -110.005       41.217      -16.924       45.436       32.774       33.659     2064.467     1074.138     1132.916        0.918        0.214      117.473       28.377        0.058      333.924        3.559      865.409
01/06/2022  01:22:00     -115.484       58.967       -2.397       44.522       29.811       24.582     1982.249      888.670      604.275        1.015        0.174      129.668       23.595        0.033      333.986        3.660      865.404
01/06/2022  01:23:00     -144.405       48.924       -7.663       46.619       33.954       22.589     2173.319     1152.890      510.262        1.357        0.192      152.467       18.456        0.015      333.972        3.638      865.392
01/06/2022  01:24:00     -115.748       42.732       -6.000       42.999       33.563       24.618     1848.916     1126.479      606.030        0.942        0.179      123.384       16.513        0.018      334.001        3.687      865.372
01/06/2022  01:25:00     -123.848       40.545       -8.940       52.876       38.248       32.239     2795.839     1462.887     1039.371        1.118        0.265      130.316       29.129        0.050      334.117        3.878      865.371
01/06/2022  01:26:00     -115.090       62.869      -23.143       46.014       36.642       21.311     2117.332     1342.646      454.145        1.082        0.196      131.142       13.536        0.011      334.208        4.027      865.371
01/06/2022  01:27:00      -41.438       23.576      -10.703       53.707       33.451       21.755     2884.429     1118.975      473.271        0.343        0.224       47.676       16.059        0.113      334.220        4.048      865.381
01/06/2022  01:28:00        0.055       29.820      -11.766       27.178       26.164       20.249      738.629      684.567      410.032        0.143        0.092       29.820       14.505        0.237      334.138        3.912      865.417
01/06/2022  01:29:00       -3.686        0.170       -6.747       30.412       22.775       19.472      924.891      518.695      379.156        0.094        0.091        3.690       10.937        8.787      334.078        3.815      865.454
01/06/2022  01:30:00      -95.084       24.712      -26.626       29.390       31.815       25.264      863.785     1012.182      638.258        0.644        0.126       98.243       17.031        0.030      334.041        3.753      865.498
01/06/2022  01:31:00      -68.381       17.365      -21.060       60.208       26.237       30.169     3625.032      688.379      910.166        0.532        0.261       70.552       37.787        0.287      333.943        3.590      865.526
01/06/2022  01:32:00      -64.502       12.162       -2.787       83.098       37.220       23.477     6905.271     1385.295      551.169        0.658        0.442       65.638       17.364        0.070      333.959        3.616      865.540
01/06/2022  01:33:00      -75.713       12.543        1.455       43.442       32.718       25.790     1887.235     1070.488      665.099        0.476        0.181       76.745       21.029        0.075      334.033        3.739      865.521
01/06/2022  01:34:00       -5.141        3.440       -2.729       21.117       25.716       13.313      445.931      661.297      177.231        0.066        0.064        6.186       14.678        5.630      334.076        3.811      865.519
01/06/2022  01:35:00        6.467      -19.439      -13.499       12.990        9.033       15.570      168.738       81.601      242.436        0.055        0.025       20.486        9.525        0.216      334.199        4.014      865.501
01/06/2022  01:36:00      -69.029       20.484      -15.737       17.733       11.805       13.898      314.445      139.354      193.159        0.304        0.032       72.004       11.272        0.025      334.151        3.934      865.488
01/06/2022  01:37:00      -40.542        0.773      -10.454       21.137       13.432       14.185      446.773      180.407      201.204        0.129        0.041       40.550       11.632        0.082      334.210        4.032      865.473
01/06/2022  01:38:00      -61.365        8.955      -10.163       38.380       26.371       16.563     1473.044      695.443      274.347        0.320        0.122       62.015       16.717        0.073      334.216        4.042      865.466
01/06/2022  01:39:00      -49.453       -6.954      -10.706       33.027       16.816       20.464     1090.812      282.768      418.782        0.220        0.090       49.940       21.729        0.189      334.177        3.977      865.457
01/06/2022  01:40:00      -96.142        5.291      -10.197       27.783       14.510       15.083      771.918      210.537      227.487        0.529        0.060       96.287        7.521        0.006      334.206        4.024      865.443
01/06/2022  01:41:00      -80.040        4.114       -2.455       29.439       20.272       14.090      866.665      410.964      198.535        0.395        0.074       80.145       14.005        0.031      334.213        4.037      865.433
01/06/2022  01:42:00      -48.457      -14.544       -6.402       25.736       18.826       13.366      662.332      354.418      178.645        0.190        0.060       50.592        8.289        0.027      334.307        4.193      865.411
01/06/2022  01:43:00      -25.971      -41.272      -13.054       13.478       11.044        8.092      181.669      121.962       65.474        0.146        0.018       48.763        6.669        0.019      334.518        4.544      865.391
01/06/2022  01:44:00      -44.384      -24.768       -3.891       19.762       14.776        9.604      390.537      218.326       92.230        0.165        0.035       50.827        3.053        0.004      334.692        4.830      865.367
01/06/2022  01:45:00      -88.104      -44.157       -8.546       41.793       40.871       27.229     1746.645     1670.457      741.410        0.697        0.208       98.551       21.167        0.046      334.696        4.838      865.345
01/06/2022  01:46:00     -135.707     -116.776      -20.460       67.742       49.970       28.827     4588.932     2497.007      830.973        2.019        0.396      179.033       20.735        0.013      334.384        4.318      865.335
01/06/2022  01:47:00      -87.896     -110.715      -28.209       52.657       55.850       29.220     2772.716     3119.263      853.821        1.376        0.337      141.363       11.376        0.006      334.469        4.463      865.317
01/06/2022  01:48:00      -78.455      -30.229      -21.550       46.862       34.456       31.409     2196.014     1187.191      986.550        0.595        0.218       84.077       13.351        0.025      334.458        4.443      865.290
01/06/2022  01:49:00      -10.856       -5.443      -12.322       26.392       23.600       17.626      696.511      556.978      310.674        0.093        0.078       12.144       11.418        0.884      334.399        4.346      865.260
01/06/2022  01:50:00      -38.884       12.272      -19.114       28.209       22.682       22.484      795.768      514.456      505.510        0.192        0.091       40.774       12.566        0.095      334.357        4.277      865.227
01/06/2022  01:51:00      -54.706      -17.922       -5.506       48.629       30.037       29.138     2364.754      902.198      849.006        0.373        0.206       57.567       10.239        0.032      334.283        4.152      865.241
01/06/2022  01:52:00      -70.079       -4.448       -1.796       65.376       48.166       41.377     4273.990     2319.971     1712.030        0.662        0.415       70.220       34.443        0.241      334.218        4.046      865.280
01/06/2022  01:53:00      -75.899       12.801        2.997       88.583       52.996       40.266     7846.939     2808.554     1621.389        0.910        0.614       76.971       23.309        0.092      334.126        3.891      865.305
01/06/2022  01:54:00      -35.805       25.511       10.223       59.124       54.625       28.127     3495.590     2983.880      791.110        0.465        0.364       43.964       17.165        0.152      334.019        3.715      865.296
01/06/2022  01:55:00     -101.678       17.114       -8.083       58.235       28.116       21.893     3391.311      790.509      479.295        0.768        0.233      103.108       28.615        0.077      333.895        3.511      865.270
01/06/2022  01:56:00      -86.667      -39.178      -10.051       36.843       47.658       19.794     1357.400     2271.270      391.806        0.658        0.201       95.111       12.475        0.017      334.120        3.882      865.248
01/06/2022  01:57:00      -43.113       -7.964        1.115       72.166       43.061       36.511     5207.960     1854.286     1333.074        0.516        0.420       43.842       29.748        0.460      334.015        3.709      865.249
01/06/2022  01:58:00     -151.577       28.418       -8.426       74.883       49.037       31.432     5607.469     2404.610      987.940        1.643        0.450      154.218       26.899        0.030      333.906        3.526      865.253
01/06/2022  01:59:00      -74.037       -1.301       -8.565       42.964       55.547       27.960     1845.890     3085.500      781.753        0.563        0.286       74.048       19.531        0.070      333.838        3.416      865.240
01/06/2022  02:00:00      -87.876       40.670      -10.830       36.449       27.764       22.109     1328.563      770.829      488.827        0.604        0.129       96.831       13.144        0.018      333.754        3.277      865.211
01/06/2022  02:01:00      -44.061       20.542       -9.515       19.732       20.829       13.699      389.351      433.840      187.674        0.173        0.051       48.614       10.068        0.043      333.810        3.370      865.183
01/06/2022  02:02:00        5.543       -6.549      -10.873       21.372       17.089        9.907      456.754      292.033       98.149        0.052        0.042        8.580       11.296        1.733      333.819        3.385      865.167
01/06/2022  02:03:00       -3.102       -5.466       -9.304       31.263       29.532       23.706      977.363      872.136      561.967        0.127        0.121        6.284       16.063        6.534      333.837        3.414      865.171
01/06/2022  02:04:00     -118.252      -17.321       -7.768       70.494       53.900       29.051     4969.469     2905.198      843.961        1.153        0.436      119.513       32.348        0.073      333.972        3.637      865.171
01/06/2022  02:05:00      -52.003      -12.908       -4.446       39.865       39.145       23.803     1589.234     1532.310      566.605        0.329        0.184       53.581       13.743        0.066      334.065        3.793      865.147
01/06/2022  02:06:00      -90.043       -3.166      -17.111       22.668       26.351       22.749      513.840      694.358      517.509        0.507        0.086       90.098       16.675        0.034      333.943        3.590      865.126
01/06/2022  02:07:00      -48.853        8.850      -10.422       25.049       11.895       13.339      627.467      141.503      177.917        0.176        0.047       49.648       13.828        0.078      333.966        3.630      865.112
01/06/2022  02:08:00      -11.281        3.601      -11.129       13.068        8.674        5.219      170.783       75.230       27.243        0.027        0.014       11.842        5.262        0.197      333.992        3.673      865.106
01/06/2022  02:09:00      -23.546       18.397       -7.120       19.791       12.207        9.051      391.665      149.015       81.924        0.078        0.031       29.880        9.027        0.091      333.985        3.661      865.095
01/06/2022  02:10:00      -40.708       13.985       -5.673       20.359       12.248       13.526      414.484      150.001      182.943        0.132        0.037       43.044       13.444        0.098      333.926        3.561      865.087
01/06/2022  02:11:00      -84.512       22.569       -7.320       32.713       23.512       19.262     1070.117      552.807      371.011        0.485        0.100       87.473       20.701        0.056      333.808        3.366      865.076
01/06/2022  02:12:00      -56.614       55.532       -6.059       24.474       18.359       15.881      598.986      337.067      252.206        0.376        0.059       79.303       15.183        0.037      333.703        3.192      865.061
01/06/2022  02:13:00      -46.041       26.396      -12.784       25.404       10.893       15.578      645.384      118.649      242.660        0.199        0.050       53.071       13.999        0.070      333.774        3.310      865.045
01/06/2022  02:14:00      -53.307        3.444      -16.133       35.373       22.502       15.893     1251.226      506.337      252.586        0.256        0.101       53.419       16.699        0.098      333.812        3.372      865.044
01/06/2022  02:15:00      -10.750        9.508       -0.062       26.118       25.175       18.080      682.163      633.763      326.885        0.092        0.082       14.351       14.166        0.974      333.824        3.392      865.042
01/06/2022  02:16:00      -62.946       15.887       -7.776       29.917       15.883       12.002      895.028      252.256      144.060        0.278        0.065       64.919       13.839        0.045      333.785        3.328      865.035
01/06/2022  02:17:00      -59.546       26.529       -3.094       18.264       11.962        8.537      333.560      143.098       72.885        0.240        0.027       65.188        7.726        0.014      333.771        3.304      865.021
01/06/2022  02:18:00      -48.377        9.936       -5.390       11.735       12.300        8.131      137.716      151.301       66.121        0.141        0.018       49.386        4.233        0.007      333.881        3.487      865.026
01/06/2022  02:19:00      -14.034       -9.160      -10.909       27.132       12.001        8.094      736.129      144.018       65.516        0.067        0.047       16.759        8.696        0.269      333.993        3.673      865.031
01/06/2022  02:20:00        0.377      -14.659      -10.509        9.300        9.775        7.685       86.495       95.543       59.055        0.028        0.012       14.663        5.132        0.123      334.142        3.919      865.042
01/06/2022  02:21:00      -19.622       17.191       -2.646       15.440       14.511        7.182      238.398      210.559       51.579        0.059        0.025       26.088        6.846        0.069      334.056        3.778      865.050
01/06/2022  02:22:00      -26.234       43.043       -8.300       13.669       11.289        6.267      186.844      127.430       39.281        0.148        0.018       50.408        3.399        0.005      333.838        3.417      865.054
01/06/2022  02:23:00      -16.692       43.842       -7.158       17.559       16.129        7.187      308.311      260.150       51.646        0.144        0.031       46.912        8.122        0.030      333.827        3.398      865.046
01/06/2022  02:24:00       23.870       24.943      -11.398       21.096        8.995        5.893      445.047       80.901       34.732        0.094        0.028       34.524        5.549        0.026      334.169        3.964      865.029
01/06/2022  02:25:00       57.601       15.950      -30.671       22.199       28.142       17.912      492.784      791.975      320.856        0.306        0.080       59.769       10.916        0.033      334.016        3.711      865.016
01/06/2022  02:26:00       56.469       12.504      -22.765       38.421       38.917       22.792     1476.146     1514.551      519.495        0.369        0.176       57.837       14.598        0.064      333.635        3.080      865.026
01/06/2022  02:27:00       87.003       41.452       -9.738       26.909       36.028       23.133      724.119     1298.035      535.123        0.597        0.128       96.373       13.836        0.021      333.708        3.202      865.058
01/06/2022  02:28:00       37.813       37.439       -6.214       32.610       21.959       15.077     1063.420      482.218      227.330        0.232        0.089       53.212       14.696        0.076      333.619        3.053      865.091
01/06/2022  02:29:00       56.695       38.848       -6.117        9.843        9.744        6.868       96.880       94.942       47.170        0.250        0.012       68.727        4.477        0.004      333.726        3.230      865.104
01/06/2022  02:30:00       46.789       42.630       -8.483        7.382        5.404        6.226       54.497       29.207       38.766        0.210        0.006       63.298        2.498        0.002      333.841        3.420      865.105
01/06/2022  02:31:00       50.805       34.640       -7.163        8.702        7.247        7.450       75.733       52.523       55.507        0.201        0.009       61.490        3.450        0.003      333.907        3.530      865.099
01/06/2022  02:32:00       30.329       34.405      -10.256        8.823        8.788        7.837       77.846       77.231       61.417        0.121        0.011       45.864        2.687        0.003      333.964        3.626      865.090
01/06/2022  02:33:00       -3.311       45.463       -6.348       16.833        6.727        5.408      283.351       45.251       29.251        0.124        0.018       45.584        5.385        0.014      334.053        3.773      865.081
01/06/2022  02:34:00      -34.241       32.849       -5.968       16.667       22.454       14.056      277.786      504.170      197.579        0.163        0.049       47.450        9.758        0.042      333.827        3.398      865.075
01/06/2022  02:35:00      -29.873        5.240       -8.779       23.621       15.896       12.632      557.950      252.678      159.572        0.098        0.049       30.329       10.671        0.124      333.625        3.065      865.065
01/06/2022  02:36:00      -30.300        4.745       -9.738       18.936       11.341       12.958      358.559      128.625      167.918        0.085        0.033       30.669       10.266        0.112      333.725        3.229      865.043
01/06/2022  02:37:00      -38.560        5.214      -19.234       20.652       20.436       15.529      426.515      417.632      241.139        0.148        0.054       38.911        7.554        0.038      333.748        3.267      865.018
01/06/2022  02:38:00      -60.514       17.500      -23.371       28.331       15.630       17.290      802.621      244.309      298.930        0.293        0.067       62.994       16.608        0.070      333.532        2.910      864.987
01/06/2022  02:39:00      -30.192       13.552      -13.903       24.528       10.397        7.704      601.612      108.108       59.355        0.103        0.038       33.094        1.761        0.003      333.391        2.674      864.962
01/06/2022  02:40:00       -3.206       -3.494       -0.373        9.404       17.141       10.285       88.440      293.829      105.787        0.026        0.024        4.742        5.165        1.186      333.428        2.739      864.960
01/06/2022  02:41:00       -1.312      -16.255      -10.170       16.840       14.742        8.990      283.600      217.327       80.821        0.048        0.029       16.307        7.478        0.210      333.534        2.913      864.975
01/06/2022  02:42:00      -10.154       19.446       -7.123       23.647       24.775       17.227      559.164      613.824      296.759        0.100        0.073       21.938       14.989        0.467      333.808        3.366      864.987
01/06/2022  02:43:00      -16.230       24.208       -7.838       21.659       17.138       13.998      469.117      293.698      195.934        0.093        0.048       29.145       12.499        0.184      333.688        3.167      865.003
01/06/2022  02:44:00      -30.126        9.844       -8.756       13.596       17.068        9.056      184.858      291.307       82.009        0.082        0.028       31.694        6.162        0.038      333.549        2.937      865.016
01/06/2022  02:45:00      -46.263       -0.944      -18.089       17.962       12.883       14.159      322.619      165.979      200.468        0.158        0.034       46.273        9.665        0.044      333.457        2.784      865.010
01/06/2022  02:46:00      -33.686        3.673       -8.847       22.318       26.879       19.388      498.105      722.457      375.882        0.141        0.080       33.886       20.048        0.350      333.471        2.808      864.995
01/06/2022  02:47:00      -81.029       26.538      -23.771       29.296       23.713       14.385      858.229      562.283      206.919        0.473        0.081       85.264        6.826        0.006      333.445        2.767      864.980
01/06/2022  02:48:00      -73.220       13.721      -18.873       23.554       25.575       16.988      554.795      654.066      288.602        0.370        0.075       74.494        7.400        0.010      333.401        2.691      864.961
01/06/2022  02:49:00      -41.867       -9.872      -15.554       27.328       22.278       21.637      746.831      496.303      468.142        0.190        0.086       43.015       15.723        0.134      333.336        2.586      864.964
01/06/2022  02:50:00       -3.804        0.642       -3.094       15.893       15.844       18.143      252.596      251.031      329.179        0.043        0.042        3.857        9.435        5.983      333.299        2.524      864.966
01/06/2022  02:51:00      -55.574       -1.039      -10.962       35.812       31.442       20.041     1282.474      988.591      401.630        0.294        0.134       55.584       19.205        0.119      333.358        2.621      864.966
01/06/2022  02:52:00      -91.103       -3.486       -7.343       33.796       24.273       20.600     1142.169      589.190      424.365        0.526        0.108       91.169       12.940        0.020      333.466        2.798      864.951
01/06/2022  02:53:00      -73.089       -1.718       -9.266       47.253       29.186       27.354     2232.842      851.836      748.238        0.463        0.192       73.109       18.314        0.063      333.558        2.952      864.917
01/06/2022  02:54:00      -89.030       -4.450       -4.278       39.602       25.445       31.259     1568.333      647.432      977.156        0.558        0.160       89.141       24.161        0.073      333.624        3.063      864.886
01/06/2022  02:55:00      -77.966       -9.089       -4.141       28.072       25.958       20.623      788.039      673.841      425.310        0.403        0.094       78.494       17.322        0.049      333.811        3.371      864.847
01/06/2022  02:56:00      -96.895      -12.378      -14.101       21.536       31.897       23.493      463.807     1017.390      551.900        0.589        0.102       97.683        4.348        0.002      333.866        3.463      864.812
01/06/2022  02:57:00      -76.282      -10.994       -6.463       33.916       27.882       17.125     1150.321      777.386      293.269        0.410        0.111       77.070       15.660        0.041      333.803        3.359      864.779
01/06/2022  02:58:00      -90.955       20.039       -6.110       49.455       20.811       19.665     2445.758      433.107      386.721        0.599        0.163       93.137       24.637        0.070      333.731        3.238      864.764
01/06/2022  02:59:00      -67.192        1.440       -8.064       36.523       25.970       21.528     1333.959      674.440      463.435        0.353        0.124       67.207       16.173        0.058      333.732        3.241      864.753
01/06/2022  03:00:00      -38.134        8.147       -0.876       41.729       24.435       16.796     1741.344      597.078      282.094        0.207        0.131       38.994       18.841        0.233      333.711        3.206      864.751
01/06/2022  03:01:00      -27.750       17.562       -2.422       43.016       24.432       18.729     1850.355      596.908      350.780        0.194        0.140       32.840       11.761        0.128      333.645        3.097      864.746
01/06/2022  03:02:00      -64.655       26.044       -0.572       41.404       20.004       18.182     1714.297      400.150      330.575        0.365        0.122       69.703       21.144        0.092      333.627        3.067      864.740
01/06/2022  03:03:00      -73.981       24.500       -5.924       45.179       33.263       24.816     2041.144     1106.444      615.818        0.494        0.188       77.932       20.686        0.070      333.730        3.237      864.728
01/06/2022  03:04:00      -82.473       50.225      -16.778       35.627       20.606       20.481     1269.271      424.627      419.453        0.586        0.106       96.563       16.480        0.029      333.755        3.278      864.711
01/06/2022  03:05:00      -75.401       26.316        0.739       48.580       24.197       19.383     2359.971      585.504      375.717        0.485        0.166       79.861       20.299        0.065      333.636        3.082      864.703
01/06/2022  03:06:00      -90.901       34.903      -15.506       16.885       24.007       19.725      285.113      576.341      389.076        0.549        0.063       97.371       12.725        0.017      333.615        3.047      864.689
01/06/2022  03:07:00      -69.915       41.469      -15.066       16.431       25.138       19.145      269.982      631.938      366.541        0.405        0.063       81.288       11.906        0.021      333.632        3.076      864.668
01/06/2022  03:08:00      -90.213       28.867      -13.627       20.510       14.804       12.074      420.647      219.163      145.789        0.497        0.039       94.719        6.096        0.004      333.663        3.127      864.655
01/06/2022  03:09:00      -78.486       15.060      -18.652       24.560       26.293       16.193      603.193      691.325      262.211        0.415        0.078       79.918        8.611        0.012      333.676        3.148      864.635
01/06/2022  03:10:00     -138.607       37.763      -14.657       17.191       18.665       13.201      295.514      348.371      174.253        1.084        0.041      143.659        6.403        0.002      333.617        3.050      864.608
01/06/2022  03:11:00     -128.731       27.452      -19.169       41.908       27.596       15.698     1756.258      761.554      246.414        1.023        0.138      131.626       11.967        0.008      333.584        2.995      864.576
01/06/2022  03:12:00      -92.420       10.971       -7.541       60.915       39.050       28.647     3710.695     1524.921      820.626        0.739        0.303       93.068       29.369        0.100      333.469        2.806      864.542
01/06/2022  03:13:00     -150.715       37.679      -18.427       53.910       30.815       33.168     2906.290      949.546     1100.106        1.471        0.248      155.353       29.555        0.036      333.432        2.744      864.527
01/06/2022  03:14:00     -164.566       46.035      -21.115       43.171       33.888       25.715     1863.777     1148.382      661.273        1.666        0.184      170.884       18.778        0.012      333.338        2.589      864.517
01/06/2022  03:15:00     -112.892       52.242      -10.007       39.756       38.072       22.794     1580.557     1449.494      519.548        0.956        0.177      124.394       11.290        0.008      333.374        2.647      864.502
01/06/2022  03:16:00     -104.752       49.585      -29.914       30.194       25.830       25.254      911.703      667.194      637.781        0.827        0.111      115.895       16.258        0.020      333.425        2.732      864.478
01/06/2022  03:17:00     -108.816       38.095      -33.024       27.921       25.496       22.480      779.586      650.066      505.356        0.816        0.097      115.292       11.897        0.011      333.501        2.856      864.463
01/06/2022  03:18:00      -88.208       19.129      -23.145       39.624       26.276       23.262     1570.077      690.436      541.123        0.574        0.140       90.259       14.373        0.025      333.478        2.818      864.457
01/06/2022  03:19:00     -138.339       32.149      -29.426       27.000       25.839       20.267      728.983      667.630      410.754        1.142        0.090      142.025       13.643        0.009      333.420        2.723      864.464
01/06/2022  03:20:00     -117.658       41.742      -16.622       24.928       20.497       23.762      621.400      420.118      564.650        0.873        0.080      124.843        9.197        0.005      333.459        2.789      864.465
01/06/2022  03:21:00     -134.024       55.600      -11.326       39.765       35.499       26.560     1581.276     1260.174      705.441        1.236        0.177      145.100       18.173        0.016      333.541        2.924      864.457
01/06/2022  03:22:00      -95.986       54.067      -30.337       29.655       26.341       24.009      879.415      693.840      576.430        0.760        0.107      110.166       14.468        0.017      333.543        2.927      864.436
01/06/2022  03:23:00      -84.300       47.965      -25.533       41.335       30.787       20.081     1708.553      947.840      403.228        0.656        0.153       96.990       19.531        0.041      333.476        2.816      864.404
01/06/2022  03:24:00      -92.742       32.493      -10.684       35.875       31.023       23.137     1286.982      962.429      535.312        0.628        0.139       98.269       18.643        0.036      333.422        2.727      864.381
01/06/2022  03:25:00      -85.452       36.503      -22.021       33.295       26.852       26.320     1108.550      721.015      692.768        0.582        0.126       92.922       16.579        0.032      333.404        2.697      864.357
01/06/2022  03:26:00      -85.121       16.984       -9.563       46.922       31.286       26.205     2201.714      978.785      686.691        0.575        0.193       86.799       17.981        0.043      333.421        2.726      864.326
01/06/2022  03:27:00      -80.144       26.258      -22.390       41.714       23.556       16.150     1740.077      554.902      260.825        0.508        0.128       84.336       14.353        0.029      333.527        2.900      864.314
01/06/2022  03:28:00      -54.300      -12.276      -12.052       31.497       24.211       19.951      992.032      586.167      398.058        0.261        0.099       55.670       12.946        0.054      333.519        2.886      864.299
01/06/2022  03:29:00      -87.734      -25.620       -6.429       44.857       22.285       24.817     2012.121      496.637      615.906        0.576        0.156       91.398       21.348        0.055      333.548        2.937      864.289
01/06/2022  03:30:00      -80.889       -0.847      -13.122       45.179       35.125       26.029     2041.156     1233.795      677.491        0.533        0.198       80.894       23.274        0.083      333.510        2.872      864.297
01/06/2022  03:31:00     -104.129        3.406      -10.121       32.884       33.573       18.348     1081.381     1127.121      336.645        0.675        0.127      104.184       12.926        0.015      333.573        2.976      864.312
01/06/2022  03:32:00      -94.808       -0.729       -8.011       39.312       33.631       17.373     1545.423     1131.037      301.805        0.602        0.149       94.811       18.081        0.036      333.739        3.252      864.340
01/06/2022  03:33:00     -131.922      -18.845      -12.097       29.025       32.713       28.119      842.456     1070.139      790.657        1.030        0.135      133.261       11.921        0.008      333.629        3.069      864.364
01/06/2022  03:34:00      -91.987       17.342       -5.018       29.609       31.182       22.577      876.699      972.326      509.737        0.557        0.118       93.607       17.634        0.035      333.560        2.955      864.384
01/06/2022  03:35:00      -86.585      -10.161       -2.411       47.250       34.772       24.667     2232.598     1209.104      608.478        0.583        0.203       87.179       25.217        0.084      333.479        2.821      864.397
01/06/2022  03:36:00      -48.245       -0.077       -4.505       28.491       29.674       25.009      811.730      880.526      625.462        0.233        0.116       48.245       18.677        0.150      333.483        2.827      864.397
01/06/2022  03:37:00     -100.262      -14.496      -13.823       37.955       28.963       25.210     1440.551      838.877      635.534        0.668        0.146      101.304       21.695        0.046      333.478        2.819      864.402
01/06/2022  03:38:00      -36.908        7.085       -5.851       26.069       22.562       16.490      679.609      509.059      271.922        0.145        0.073       37.582        7.835        0.043      333.529        2.904      864.402
01/06/2022  03:39:00      -17.670        6.522       -7.240       21.893        8.862        9.344      479.317       78.535       87.306        0.053        0.032       18.835        9.214        0.239      333.579        2.986      864.397
01/06/2022  03:40:00      -45.337       14.001       -9.459       11.999       10.838       10.200      143.983      117.460      104.035        0.135        0.018       47.449        4.767        0.010      333.603        3.027      864.395
01/06/2022  03:41:00      -33.683      -14.186       -8.921       24.486       19.207       16.986      599.579      368.913      288.516        0.134        0.063       36.548       12.487        0.117      333.703        3.193      864.402
01/06/2022  03:42:00      -39.361      -11.853       -9.696       25.957       30.854       20.626      673.763      951.959      425.444        0.192        0.103       41.107       12.742        0.096      333.594        3.012      864.414
01/06/2022  03:43:00      -75.380       -2.794       -2.854       30.904       24.983       17.153      955.072      624.147      294.220        0.379        0.094       75.432       14.733        0.038      333.618        3.052      864.419
01/06/2022  03:44:00      -55.728        2.072       -8.312       42.816       15.888       13.058     1833.213      252.433      170.514        0.272        0.113       55.767       15.903        0.081      333.634        3.079      864.433
01/06/2022  03:45:00      -76.336      -17.135      -10.368       35.711       17.926       13.043     1275.267      321.327      170.110        0.400        0.088       78.235       12.224        0.024      333.560        2.956      864.453
01/06/2022  03:46:00      -14.427        7.556       -9.172       21.226       34.859       11.397      450.543     1215.160      129.901        0.107        0.090       16.286       12.646        0.603      333.619        3.054      864.454
01/06/2022  03:47:00      -11.169       -0.160       -6.139       10.927       10.362       11.471      119.392      107.370      131.579        0.026        0.018       11.170        5.412        0.235      333.623        3.062      864.432
01/06/2022  03:48:00      -15.070       18.789       -1.647       12.150       10.599        4.768      147.621      112.344       22.734        0.043        0.014       24.086        4.020        0.028      333.654        3.112      864.410
01/06/2022  03:49:00      -23.550       20.127       -6.792       11.032        8.367        6.837      121.701       70.009       46.745        0.062        0.012       30.979        3.710        0.014      333.606        3.034      864.385
01/06/2022  03:50:00      -26.404       12.946       -8.406       12.732       10.763        6.699      162.096      115.834       44.880        0.063        0.016       29.407        2.375        0.007      333.645        3.097      864.368
01/06/2022  03:51:00      -18.899      -14.424       -9.078       16.953       13.560       11.741      287.395      183.880      137.844        0.063        0.030       23.775        4.506        0.036      333.664        3.129      864.356
01/06/2022  03:52:00       -5.387       -8.031      -11.381       16.669       15.537       14.331      277.868      241.414      205.369        0.047        0.036        9.670       10.070        1.084      333.588        3.001      864.330
01/06/2022  03:53:00        0.828       18.194      -13.569       17.262       30.647       18.802      297.974      939.208      353.533        0.105        0.080       18.212        7.401        0.165      333.586        2.999      864.297
01/06/2022  03:54:00       27.193       33.104       -3.345       35.210       24.417       20.310     1239.758      596.187      412.488        0.205        0.112       42.841       13.749        0.103      333.211        2.378      864.260
01/06/2022  03:55:00       21.489        4.729      -14.238       26.519       30.702       21.155      703.283      942.640      447.551        0.139        0.105       22.003       11.069        0.253      333.148        2.275      864.230
01/06/2022  03:56:00       -6.567       10.472       -0.341       21.755       18.141       13.274      473.259      329.104      176.201        0.057        0.049       12.361       11.031        0.796      333.112        2.214      864.193
01/06/2022  03:57:00      -11.901       10.496       -8.180       10.812        6.392        5.830      116.899       40.861       33.994        0.026        0.010       15.868        4.979        0.098      333.264        2.462      864.171
01/06/2022  03:58:00       19.234       33.366       -3.771       15.836       11.839       10.320      250.779      140.163      106.494        0.100        0.025       38.513        7.981        0.043      333.130        2.246      864.148
01/06/2022  03:59:00       64.392       40.966      -10.243       27.672        9.285       10.385      765.738       86.216      107.843        0.344        0.048       76.319        9.785        0.016      332.997        2.024      864.118
01/06/2022  04:00:00      105.531       19.468      -19.048       60.054       40.467       26.822     3606.541     1637.548      719.420        0.892        0.298      107.312       23.330        0.047      332.863        1.803      864.092
01/06/2022  04:01:00      143.972       27.949      -16.323       45.041       46.415       30.588     2028.717     2154.384      935.615        1.345        0.256      146.660       25.471        0.030      332.672        1.487      864.081
01/06/2022  04:02:00      122.767       42.999      -16.954       45.276       37.450       22.604     2049.918     1402.514      510.919        1.058        0.198      130.079       10.153        0.006      332.734        1.589      864.063
01/06/2022  04:03:00       90.460       51.649      -12.394       32.061       25.182       17.436     1027.905      634.145      304.029        0.648        0.098      104.166       15.966        0.023      332.632        1.421      864.047
01/06/2022  04:04:00       97.609       31.301      -10.233       22.180       13.136       13.339      491.958      172.558      177.917        0.573        0.042      102.505       12.455        0.015      332.611        1.387      864.033
01/06/2022  04:05:00      118.784       33.494      -15.799       18.111       14.279        9.260      328.005      203.892       85.739        0.805        0.031      123.416        3.778        0.001      332.628        1.415      864.032
01/06/2022  04:06:00      110.375        6.068      -12.549       35.041       24.448       14.727     1227.842      597.716      216.885        0.721        0.102      110.542        9.708        0.008      332.728        1.580      864.022
01/06/2022  04:07:00      122.529       37.047      -10.801       29.736       22.561       18.025      884.237      508.991      324.895        0.911        0.086      128.007       11.536        0.008      332.679        1.498      864.015
01/06/2022  04:08:00       69.289       45.685       -7.065       32.145       26.653       18.871     1033.329      710.380      356.102        0.452        0.105       82.994       17.001        0.042      332.653        1.457      864.028
01/06/2022  04:09:00       18.829       46.804       -4.214       30.272       16.194       14.912      916.387      262.261      222.360        0.198        0.070       50.450       13.947        0.076      332.712        1.553      864.064
01/06/2022  04:10:00      -20.102       33.945       -8.630       26.779       14.394       14.879      717.127      207.186      221.370        0.139        0.057       39.451       12.861        0.106      332.774        1.654      864.101
01/06/2022  04:11:00       -4.023       19.474      -11.137       20.391       12.501        9.600      415.805      156.265       92.156        0.059        0.033       19.885        8.317        0.175      332.737        1.593      864.115
01/06/2022  04:12:00       90.221       41.805      -13.514       19.675        9.600        8.797      387.123       92.163       77.381        0.531        0.028       99.436        8.605        0.007      332.977        1.991      864.097
01/06/2022  04:13:00      114.612       35.999      -15.554       35.975       36.063       24.737     1294.201     1300.510      611.904        0.894        0.160      120.132       15.035        0.016      333.146        2.272      864.070
01/06/2022  04:14:00       77.285       33.387      -12.532       24.321       31.787       17.503      591.503     1010.387      306.362        0.458        0.095       84.188       12.689        0.023      333.164        2.301      864.067
01/06/2022  04:15:00       -3.395       44.121       -7.655       32.061       11.628       10.062     1027.888      135.220      101.237        0.164        0.063       44.251        9.799        0.049      333.065        2.136      864.086
01/06/2022  04:16:00      -71.172       34.187      -16.786       15.854       19.958       15.415      251.360      398.318      237.612        0.370        0.044       78.957        9.243        0.014      332.857        1.794      864.098
01/06/2022  04:17:00      -30.688       37.559       -9.000       25.892       10.424        9.537      670.413      108.655       90.950        0.165        0.044       48.502        8.251        0.029      332.818        1.729      864.111
01/06/2022  04:18:00       18.039       40.800       -9.229       20.461       13.139       10.537      418.671      172.630      111.023        0.139        0.035       44.610        8.878        0.040      332.993        2.017      864.123
01/06/2022  04:19:00       33.991       76.937       -6.572       20.687       22.851       12.885      427.932      522.181      166.028        0.412        0.056       84.112       10.865        0.017      333.214        2.384      864.144
01/06/2022  04:20:00      -10.149       97.228       -9.166       30.050       23.151       17.513      903.022      535.978      306.691        0.569        0.087       97.756       14.285        0.021      333.188        2.341      864.174
01/06/2022  04:21:00      -12.702       93.316      -15.614       14.563       30.884       15.285      212.076      953.847      233.641        0.526        0.070       94.177       12.290        0.017      333.155        2.286      864.207
01/06/2022  04:22:00      -26.360       81.776       -9.255       20.593       30.717       17.847      424.067      943.508      318.528        0.458        0.084       85.920        9.152        0.011      333.206        2.369      864.231
01/06/2022  04:23:00      -28.319       45.611      -11.370       20.434       26.047       14.907      417.546      678.445      222.233        0.216        0.066       53.687        5.773        0.012      333.158        2.290      864.250
01/06/2022  04:24:00      -12.626       91.741      -17.014       29.370       38.273       19.153      862.596     1464.821      366.844        0.578        0.135       92.606       12.270        0.018      333.297        2.520      864.246
01/06/2022  04:25:00       14.508      118.598      -16.762       23.872       29.581       15.468      569.850      875.052      239.269        0.812        0.084      119.482       12.490        0.011      333.505        2.865      864.220
01/06/2022  04:26:00       36.520       73.748       -7.054       28.295       25.086       20.611      800.601      629.288      424.815        0.434        0.093       82.295       14.717        0.032      333.626        3.065      864.125
01/06/2022  04:27:00       29.123       83.369       -8.439       21.330       22.199       19.244      454.965      492.797      370.321        0.459        0.066       88.310       13.094        0.022      333.779        3.319      864.121
01/06/2022  04:28:00        2.945       82.010       -9.437       14.374       24.579       16.903      206.606      604.151      285.711        0.396        0.055       82.062       14.163        0.030      333.600        3.023      864.134
01/06/2022  04:29:00       19.165       80.163       -8.019       25.693       30.686       20.030      660.136      941.608      401.188        0.443        0.100       82.422       17.678        0.046      333.627        3.067      864.145
01/06/2022  04:30:00       61.029       71.568      -11.123       30.088       27.088       17.193      905.270      733.783      295.583        0.545        0.097       94.056       15.086        0.026      333.543        2.928      864.148
01/06/2022  04:31:00       60.531       52.831       -9.253       25.489       20.708       16.482      649.677      428.814      271.658        0.395        0.068       80.344       10.651        0.018      333.453        2.779      864.146
01/06/2022  04:32:00       52.763       82.140      -13.375       27.389       25.868       18.115      750.154      669.173      328.137        0.573        0.087       97.627       15.961        0.027      333.620        3.056      864.156
01/06/2022  04:33:00       31.262      104.655       -5.724       22.193       25.873       19.751      492.543      669.407      390.089        0.676        0.078      109.225       14.668        0.018      333.741        3.256      864.159
01/06/2022  04:34:00       24.414       96.437      -10.021       22.390       29.898       16.830      501.307      893.870      283.261        0.584        0.084       99.480       13.487        0.018      333.765        3.296      864.140
01/06/2022  04:35:00       37.062      119.901      -18.105       29.602       26.206       24.193      876.294      686.751      585.288        0.911        0.107      125.498       19.124        0.023      333.823        3.393      864.106
01/06/2022  04:36:00       46.989      109.582       -8.902       24.183       31.509       27.470      584.800      992.832      754.596        0.831        0.117      119.231       19.164        0.026      333.903        3.523      864.093
01/06/2022  04:37:00       39.763       95.004        0.682       25.675       44.239       26.635      659.202     1957.051      709.409        0.697        0.166      102.990       20.734        0.041      333.803        3.358      864.086
01/06/2022  04:38:00       54.396       63.390       -8.299       32.394       27.812       21.558     1049.393      773.503      464.766        0.467        0.114       83.530       14.060        0.028      333.737        3.248      864.085
01/06/2022  04:39:00       63.089       49.968       -7.878       26.495       18.123       13.063      702.010      328.438      170.646        0.387        0.060       80.480        8.424        0.011      333.676        3.148      864.091
01/06/2022  04:40:00       43.554       83.563       -3.901       30.493       39.423       18.859      929.823     1554.136      355.668        0.587        0.142       94.232       17.680        0.035      333.735        3.245      864.095
01/06/2022  04:41:00       57.421       89.094      -12.516       26.011       23.098       17.120      676.576      533.521      293.098        0.645        0.075      105.995        9.950        0.009      333.806        3.362      864.113
01/06/2022  04:42:00       51.460       82.277      -10.615       31.432       26.500       21.614      987.945      702.258      467.157        0.584        0.108       97.045       18.229        0.035      333.718        3.217      864.126
01/06/2022  04:43:00       67.404       95.711      -19.119       30.949       33.840       18.547      957.819     1145.135      344.008        0.826        0.122      117.064       17.192        0.022      333.745        3.263      864.137
01/06/2022  04:44:00       55.866      112.300       -6.229       34.154       42.357       30.828     1166.517     1794.113      950.382        0.984        0.196      125.428       23.199        0.034      333.880        3.486      864.154
01/06/2022  04:45:00       55.286      105.056       -8.948       30.954       37.190       31.853      958.141     1383.075     1014.598        0.876        0.168      118.715       13.127        0.012      333.906        3.528      864.163
01/06/2022  04:46:00       47.598       88.538      -13.431       28.339       29.527       26.362      803.095      871.854      694.943        0.633        0.118      100.522       18.819        0.035      333.961        3.620      864.197
01/06/2022  04:47:00       53.760       80.726       -9.418       17.365       22.981       13.380      301.559      528.129      179.012        0.525        0.050       96.989        9.421        0.009      334.052        3.770      864.225
01/06/2022  04:48:00       37.618       50.162       -4.707       24.146       21.722       15.951      583.048      471.837      254.442        0.263        0.065       62.700       17.280        0.076      333.973        3.639      864.208
01/06/2022  04:49:00       36.684       59.613       -9.480       15.348       10.586        9.000      235.575      112.058       80.993        0.271        0.021       69.996        7.643        0.012      334.078        3.814      864.187
01/06/2022  04:50:00       41.864       51.912       -5.825       23.379       16.859       10.231      546.601      284.229      104.681        0.271        0.047       66.689        6.751        0.010      334.035        3.742      864.184
01/06/2022  04:51:00       52.204       47.546       -6.969       15.170       10.389        6.636      230.126      107.927       44.032        0.271        0.019       70.611        5.996        0.007      334.052        3.773      864.167
01/06/2022  04:52:00       61.157       21.383       -3.507       26.126       21.622       14.412      682.588      467.493      207.700        0.278        0.068       64.788        6.116        0.009      334.059        3.782      864.146
01/06/2022  04:53:00       19.470       10.694       -6.926       18.905       17.177       16.150      357.398      295.046      260.821        0.073        0.046       22.213       10.218        0.212      333.956        3.612      864.126
01/06/2022  04:54:00       20.243        7.379      -10.487        9.497       10.828        6.267       90.198      117.255       39.276        0.041        0.012       21.546        4.794        0.050      333.922        3.556      864.098
01/06/2022  04:55:00       21.213        4.175       -8.958        9.872       12.575        9.607       97.449      158.128       92.299        0.045        0.017       21.620        7.165        0.110      333.978        3.647      864.069
01/06/2022  04:56:00       22.917        5.505      -23.270       19.093       28.719       11.930      364.553      824.764      142.317        0.121        0.067       23.569        8.523        0.131      333.817        3.382      864.039
01/06/2022  04:57:00       35.170       37.957      -18.579       28.156       27.094       27.182      792.755      734.085      738.864        0.264        0.113       51.747       12.850        0.062      333.731        3.239      864.014
01/06/2022  04:58:00       31.503       35.354      -14.456       23.179       27.582       22.951      537.289      760.759      526.728        0.214        0.091       47.354        8.725        0.034      333.755        3.278      863.985
01/06/2022  04:59:00      -33.745        5.459       -8.853       16.962       15.797       13.891      287.722      249.536      192.954        0.099        0.037       34.183       10.318        0.091      333.691        3.172      863.960
01/06/2022  05:00:00      -39.180       -9.031       -4.909       27.531       20.436       17.949      757.940      417.619      322.170        0.157        0.075       40.208       11.337        0.080      333.650        3.104      863.964
01/06/2022  05:01:00      -20.342       -1.133       -5.940       12.357       15.425        8.795      152.696      237.944       77.347        0.046        0.023       20.373        6.944        0.116      333.440        2.756      863.984
01/06/2022  05:02:00      -31.497      -10.718      -12.406       13.712       10.072       11.224      188.008      101.451      125.977        0.084        0.021       33.271        6.373        0.037      333.546        2.934      863.983
01/06/2022  05:03:00      -66.534       -0.076      -12.842       25.473       16.294       15.125      648.883      265.510      228.780        0.287        0.057       66.534       11.807        0.031      333.529        2.904      863.961
01/06/2022  05:04:00      -47.555       -3.155       -1.176       40.773       23.732       22.326     1662.407      563.226      498.442        0.250        0.136       47.659       19.998        0.176      333.388        2.671      863.954
01/06/2022  05:05:00      -30.857       -4.964        7.015       43.436       26.168       24.472     1886.684      684.784      598.858        0.210        0.159       31.254       24.276        0.603      333.445        2.764      863.967
01/06/2022  05:06:00      -68.275        1.206       -1.006       41.832       28.259       24.633     1749.919      798.547      606.795        0.391        0.158       68.285       14.706        0.046      333.471        2.807      863.982
01/06/2022  05:07:00      -29.363       -3.997       -1.967       30.198       24.057       24.453      911.919      578.722      597.944        0.148        0.104       29.633       19.490        0.433      333.408        2.703      863.988
01/06/2022  05:08:00      -18.485      -13.013        0.931       19.675       21.720       13.206      387.105      471.738      174.396        0.077        0.052       22.606        7.901        0.122      333.529        2.904      863.986
01/06/2022  05:09:00      -45.424       -3.285       -0.209       24.771       17.682       16.068      613.582      312.641      258.194        0.163        0.059       45.542       16.594        0.133      333.438        2.754      863.997
01/06/2022  05:10:00      -17.420        0.939       -7.074       22.042        9.340       10.214      485.836       87.228      104.317        0.052        0.034       17.445       10.036        0.331      333.410        2.709      864.007
01/06/2022  05:11:00       14.606      -33.088      -14.047       25.675       15.636       13.774      659.185      244.479      189.714        0.130        0.055       36.168        8.923        0.061      333.536        2.916      864.005
01/06/2022  05:12:00      -12.216      -89.542      -49.183       42.058       31.145       26.206     1768.860      970.009      686.733        0.701        0.171       90.372       19.027        0.044      333.486        2.834      863.989
01/06/2022  05:13:00      -36.210      -53.081      -41.029       45.352       42.384       28.218     2056.784     1796.365      796.235        0.523        0.232       64.256       23.044        0.129      333.521        2.890      863.990
01/06/2022  05:14:00      -57.388      -53.149      -24.232       54.390       41.588       22.547     2958.279     1729.526      508.357        0.595        0.260       78.219       10.897        0.019      333.537        2.917      863.976
01/06/2022  05:15:00      -84.404      -99.226      -30.767       38.816       43.892       31.649     1506.694     1926.503     1001.679        1.117        0.222      130.268        8.122        0.004      333.563        2.959      863.948
01/06/2022  05:16:00      -87.205      -24.331      -29.922       32.068       51.475       27.453     1028.358     2649.713      753.694        0.676        0.222       90.535       21.525        0.057      333.453        2.779      863.930
01/06/2022  05:17:00      -37.306       -2.341      -10.777       36.942       29.453       22.385     1364.717      867.507      501.096        0.212        0.137       37.380       16.005        0.183      333.268        2.472      863.931
01/06/2022  05:18:00       -8.902      -37.455      -14.704       24.637       24.113       24.402      606.979      581.457      595.472        0.174        0.089       38.498       12.791        0.110      333.318        2.555      863.925
01/06/2022  05:19:00      -20.176        1.888       -3.417       24.211       21.067       14.622      586.151      443.808      213.794        0.083        0.062       20.264        8.516        0.177      333.363        2.630      863.917
01/06/2022  05:20:00       21.390      -35.228      -20.414       29.133       54.730       28.041      848.717     2995.377      786.325        0.337        0.232       41.214       28.854        0.490      333.405        2.698      863.916
01/06/2022  05:21:00        5.610      -23.772      -15.865       15.097       27.070       17.649      227.910      732.793      311.502        0.106        0.064       24.425       10.147        0.173      333.462        2.793      863.939
01/06/2022  05:22:00      -10.064       -7.810       -9.863       20.404       22.709       15.338      416.317      515.682      235.240        0.071        0.058       12.739        3.841        0.091      333.387        2.669      863.965
01/06/2022  05:23:00      -12.097      -28.601      -15.379       30.650       31.248       16.547      939.441      976.435      273.809        0.169        0.109       31.054       14.752        0.226      333.272        2.479      863.963
01/06/2022  05:24:00       -1.059       -6.860       -4.201       21.033       23.757       18.263      442.373      564.404      333.522        0.070        0.067        6.941       14.829        4.564      333.295        2.519      863.964
01/06/2022  05:25:00       18.273        8.056      -10.047       29.802       17.838       17.317      888.155      318.179      299.863        0.100        0.075       19.970       13.603        0.464      333.062        2.132      863.982
01/06/2022  05:26:00       68.880       37.779      -10.098       27.202       21.273       17.512      739.951      452.546      306.685        0.389        0.075       78.560       10.194        0.017      332.803        1.704      864.013
01/06/2022  05:27:00       15.549       42.210       -3.673       17.220       25.359       14.039      296.537      643.057      197.104        0.159        0.057       44.983       13.258        0.087      332.889        1.846      864.030
01/06/2022  05:28:00        7.274       45.849       -5.241        8.722       14.676        8.286       76.078      215.374       68.652        0.127        0.018       46.422        4.911        0.011      333.065        2.139      864.041
01/06/2022  05:29:00      -43.803       37.230      -11.062       24.128       16.757       12.005      582.147      280.796      144.126        0.222        0.050       57.487        8.292        0.021      332.908        1.876      864.046
01/06/2022  05:30:00      -76.503       32.030      -21.658       22.264       27.399       17.853      495.685      750.696      318.742        0.446        0.078       82.938       12.746        0.024      332.864        1.805      864.032
01/06/2022  05:31:00      -42.778        7.422       -9.364       27.021       29.673       17.206      730.109      880.493      296.047        0.194        0.095       43.417       12.483        0.083      332.863        1.803      864.009
01/06/2022  05:32:00      -51.013       21.453      -15.795       15.174       17.462       11.268      230.256      304.907      126.962        0.199        0.033       55.340        8.596        0.024      332.894        1.855      863.995
01/06/2022  05:33:00      -95.118       34.189      -13.105       24.159       22.211       17.536      583.679      493.334      307.515        0.589        0.069      101.076       10.910        0.012      332.945        1.938      864.012
01/06/2022  05:34:00     -134.407       31.325       -6.527       53.114       29.938       27.986     2821.044      896.292      783.192        1.179        0.225      138.009       27.254        0.039      332.836        1.757      864.059
01/06/2022  05:35:00      -69.749        5.153       -0.885       77.855       39.761       28.123     6061.409     1580.901      790.926        0.666        0.422       69.939       33.036        0.223      332.831        1.750      864.089
01/06/2022  05:36:00      -48.149       13.197        0.783       52.750       24.266       20.886     2782.536      588.826      436.222        0.315        0.190       49.925       21.634        0.188      332.910        1.881      864.090
01/06/2022  05:37:00      -58.862       29.818        1.089       29.404       22.324       20.756      864.616      498.356      430.828        0.307        0.090       65.984       17.806        0.073      332.824        1.738      864.067
01/06/2022  05:38:00     -104.145       54.764      -24.188       27.944       25.954       15.748      780.870      673.625      247.990        0.807        0.085      117.666       12.438        0.011      332.885        1.840      864.053
01/06/2022  05:39:00      -79.780       62.567      -15.948       31.901       23.766       19.695     1017.645      564.830      387.889        0.625        0.099      101.388       16.721        0.027      332.903        1.869      864.036
01/06/2022  05:40:00      -89.314       34.127      -22.255       22.747       32.523       17.326      517.410     1057.739      300.194        0.576        0.094       95.612       11.517        0.015      332.903        1.871      864.014
01/06/2022  05:41:00      -33.286        6.376        3.968       40.141       28.838       27.434     1611.260      831.608      752.598        0.218        0.160       33.891       19.133        0.319      332.937        1.925      864.023
01/06/2022  05:42:00      -83.729       -7.565       -1.735       46.287       31.644       23.518     2142.510     1001.374      553.087        0.538        0.185       84.070       21.768        0.067      332.889        1.847      864.038
01/06/2022  05:43:00      -65.953       -3.315       -5.242       54.530       40.291       26.976     2973.510     1623.325      727.730        0.486        0.266       66.037       25.235        0.146      332.912        1.884      864.045
01/06/2022  05:44:00     -102.436       11.985       -3.370       51.860       57.818       24.979     2689.443     3342.874      623.955        0.865        0.333      103.135       19.899        0.037      332.956        1.956      864.033
01/06/2022  05:45:00     -110.770      -11.677       -2.920       48.265       37.096       35.357     2329.556     1376.105     1250.100        0.868        0.248      111.383       33.264        0.089      332.938        1.927      864.030
01/06/2022  05:46:00     -100.710      -13.458       -4.757       79.750       39.102       30.084     6360.109     1528.986      905.064        0.957        0.440      101.605       36.957        0.132      332.937        1.925      864.039
01/06/2022  05:47:00     -141.967       47.274      -14.879       46.011       51.153       30.435     2117.052     2616.648      926.273        1.413        0.283      149.631       23.290        0.024      332.975        1.988      864.036
01/06/2022  05:48:00     -132.200       21.387        0.869       75.593       43.521       33.765     5714.341     1894.043     1140.044        1.334        0.437      133.918       28.782        0.046      332.918        1.894      864.041
01/06/2022  05:49:00     -113.566       14.439       -0.969       72.318       42.841       27.503     5229.851     1835.369      756.417        1.046        0.391      114.480       25.784        0.051      332.960        1.962      864.037
01/06/2022  05:50:00      -56.803       14.615       -5.587       45.343       32.668       24.962     2055.944     1067.189      623.085        0.361        0.187       58.653       19.785        0.114      332.972        1.982      864.024
01/06/2022  05:51:00      -80.341       31.091       -6.419       33.120       24.004       16.397     1096.913      576.179      268.850        0.470        0.097       86.147       15.987        0.034      332.958        1.960      864.004
01/06/2022  05:52:00     -105.215       40.012       -3.468       36.050       20.221       18.538     1299.569      408.901      343.673        0.737        0.103      112.567       15.096        0.018      333.022        2.065      864.000
01/06/2022  05:53:00     -110.395       27.367      -20.284       43.105       26.911       20.906     1858.061      724.190      437.059        0.818        0.151      113.737       14.337        0.016      332.995        2.021      864.014
01/06/2022  05:54:00     -105.230       26.547      -28.119       64.858       40.033       26.119     4206.511     1602.622      682.208        0.953        0.325      108.527       17.097        0.025      332.736        1.593      864.036
01/06/2022  05:55:00      -51.871        6.228      -10.298       70.672       35.414       19.348     4994.569     1254.169      374.356        0.473        0.331       52.243       28.819        0.304      332.842        1.769      864.051
01/06/2022  05:56:00     -103.999       31.060      -10.584       47.009       37.758       28.647     2209.865     1425.648      820.653        0.817        0.223      108.538       22.098        0.041      332.845        1.775      864.051
01/06/2022  05:57:00     -129.734       52.480      -14.304       63.579       28.813       25.776     4042.251      830.214      664.386        1.266        0.277      139.946       23.694        0.029      332.741        1.601      864.038
01/06/2022  05:58:00     -130.196       59.147      -28.678       50.598       50.172       30.567     2560.197     2517.244      934.352        1.364        0.301      143.001       13.717        0.009      332.739        1.597      864.019
01/06/2022  05:59:00     -114.560       17.586       -8.369       36.740       31.324       23.218     1349.850      981.201      539.066        0.819        0.144      115.902       18.163        0.025      332.760        1.632      863.999
01/06/2022  06:00:00      -62.180       18.251       -9.280       33.076       25.005       15.505     1094.010      625.264      240.407        0.312        0.098       64.803       17.717        0.075      332.844        1.772      863.965
01/06/2022  06:01:00      -97.171       43.648      -11.542       20.463       19.902       13.460      418.729      396.081      181.170        0.624        0.050      106.524        7.327        0.005      332.849        1.780      863.931
01/06/2022  06:02:00     -144.870       81.997      -32.156       46.799       34.053       19.899     2190.141     1159.584      395.959        1.624        0.187      166.466       21.631        0.017      332.753        1.621      863.898
01/06/2022  06:03:00     -136.519       26.441      -10.169       42.897       39.242       29.876     1840.120     1539.942      892.573        1.186        0.214      139.056       19.961        0.021      332.743        1.604      863.874
01/06/2022  06:04:00      -23.607        8.759        8.422       66.806       33.581       28.729     4463.097     1127.697      825.352        0.356        0.321       25.179       34.101        1.834      332.679        1.497      863.888
01/06/2022  06:05:00     -101.485       38.827      -15.071       90.452       58.837       25.495     8181.547     3461.828      649.995        1.216        0.615      108.659       27.886        0.066      332.700        1.534      863.911
01/06/2022  06:06:00     -182.333       64.183       -7.549       73.530       49.194       43.178     5406.732     2420.050     1864.306        2.355        0.485      193.300       31.249        0.026      332.666        1.475      863.929
01/06/2022  06:07:00      -68.845       33.178       -8.995       40.633       57.153       24.173     1651.031     3266.417      584.345        0.571        0.275       76.423       21.238        0.077      332.666        1.478      863.919
01/06/2022  06:08:00      -61.517        7.536      -11.837       35.865       21.166       17.199     1286.309      448.015      295.801        0.301        0.102       61.977       17.891        0.083      332.755        1.624      863.901
01/06/2022  06:09:00     -126.691       37.507      -22.209       38.284       26.606       28.895     1465.639      707.905      834.944        1.048        0.150      132.126       22.184        0.028      332.806        1.709      863.890
01/06/2022  06:10:00     -165.437       40.088      -13.001       62.758       42.469       40.067     3938.563     1803.637     1605.335        1.825        0.367      170.224       34.966        0.042      332.645        1.442      863.882
01/06/2022  06:11:00     -110.547       57.745      -18.360       54.419       42.063       31.700     2961.478     1769.285     1004.865        1.081        0.287      124.720       20.764        0.028      332.670        1.484      863.860
01/06/2022  06:12:00     -112.651       60.345      -12.742       36.890       33.307       25.079     1360.896     1109.330      628.957        0.980        0.155      127.796       17.841        0.019      332.656        1.460      863.842
01/06/2022  06:13:00     -149.127      101.519      -24.414       47.848       32.965       26.663     2289.447     1086.694      710.919        1.861        0.204      180.402       22.494        0.016      332.710        1.548      863.835
01/06/2022  06:14:00     -108.238       41.668      -26.096       41.292       32.688       25.740     1705.061     1068.506      662.549        0.878        0.172      115.981       12.950        0.012      332.730        1.582      863.824
01/06/2022  06:15:00     -104.025       33.287      -21.712       43.002       45.538       29.039     1849.153     2073.717      843.239        0.858        0.238      109.221       19.825        0.033      332.763        1.639      863.825
01/06/2022  06:16:00      -20.857       17.138        3.862       71.245       36.530       29.005     5075.877     1334.455      841.317        0.400        0.363       26.994       26.444        0.960      332.714        1.558      863.816
01/06/2022  06:17:00     -118.223       49.136      -26.063       36.061       29.880       23.286     1300.372      892.843      542.222        0.990        0.137      128.028       19.574        0.023      332.730        1.585      863.798
01/06/2022  06:18:00      -84.136        8.134      -12.428       64.896       38.206       24.324     4211.426     1459.713      591.638        0.678        0.313       84.529       23.908        0.080      332.723        1.573      863.764
01/06/2022  06:19:00     -117.370       31.307       -6.396       84.596       40.649       32.205     7156.476     1652.375     1037.150        1.232        0.492      121.473       36.340        0.089      332.718        1.563      863.767
01/06/2022  06:20:00      -24.134      -13.262       -1.210       71.232       32.666       29.095     5074.015     1067.071      846.520        0.387        0.349       27.537       20.258        0.541      332.797        1.694      863.807
01/06/2022  06:21:00      -98.870      -16.356       -6.180       37.855       34.360       24.481     1432.963     1180.597      599.307        0.665        0.161      100.214       17.833        0.032      332.960        1.963      863.846
01/06/2022  06:22:00     -113.539      -23.922       -9.175       21.668       36.892       22.301      469.512     1361.000      497.337        0.794        0.116      116.032       15.325        0.017      333.107        2.206      863.863
01/06/2022  06:23:00      -57.515       14.166       -7.363       35.488       36.633       19.343     1259.376     1342.003      374.148        0.327        0.149       59.233       18.085        0.093      333.110        2.211      863.855
01/06/2022  06:24:00     -138.117      -14.173      -15.622       36.490       37.686       23.680     1331.512     1420.243      560.719        1.142        0.166      138.842       17.276        0.015      333.025        2.071      863.826
01/06/2022  06:25:00      -58.672      -38.300      -13.319       29.557       25.047       16.877      873.614      627.331      284.825        0.344        0.089       70.066       13.425        0.037      333.014        2.051      863.802
01/06/2022  06:26:00      -19.781        9.416       -7.243       15.234       17.323       12.912      232.082      300.100      166.714        0.062        0.035       21.908       10.874        0.246      333.027        2.074      863.808
01/06/2022  06:27:00      -49.051       18.744      -14.179       20.608       11.124       13.596      424.687      123.749      184.859        0.185        0.037       52.510        6.386        0.015      332.985        2.003      863.836
01/06/2022  06:28:00      -63.171       16.424       -5.158       21.405       15.819       13.742      458.161      250.237      188.856        0.259        0.045       65.271        7.367        0.013      332.991        2.013      863.855
01/06/2022  06:29:00      -61.480        6.081       -6.544       32.701       26.643       17.913     1069.356      709.846      320.887        0.298        0.105       61.780        9.528        0.024      332.916        1.890      863.866
01/06/2022  06:30:00     -106.624       20.348       -3.927       46.221       33.514       23.216     2136.408     1123.156      538.973        0.780        0.190      108.548       15.161        0.020      332.894        1.854      863.885
01/06/2022  06:31:00      -33.445       10.086        2.955       38.086       31.767       23.634     1450.535     1009.166      558.579        0.212        0.151       34.932       21.453        0.377      332.836        1.759      863.899
01/06/2022  06:32:00       10.569        7.947        1.119       45.609       21.514       24.635     2080.167      462.836      606.859        0.166        0.157       13.224        4.190        0.100      332.840        1.765      863.910
01/06/2022  06:33:00      -26.818       10.641       -3.799       48.386       27.243       27.837     2341.165      742.208      774.884        0.235        0.193       28.852       19.073        0.437      332.787        1.676      863.922
01/06/2022  06:34:00      -46.964       23.598       -8.686       69.316       31.457       26.491     4804.730      989.516      701.784        0.467        0.325       52.559       30.408        0.335      332.685        1.509      863.915
01/06/2022  06:35:00     -111.510       28.730      -10.054       34.841       21.567       14.885     1213.878      465.145      221.558        0.763        0.095      115.151       18.011        0.024      332.661        1.469      863.899
01/06/2022  06:36:00      -76.028       38.136       -6.852       46.784       38.327       20.757     2188.751     1468.993      430.872        0.568        0.204       85.056       20.727        0.059      332.686        1.509      863.874
01/06/2022  06:37:00     -121.061       41.960      -20.651       35.763       34.463       26.707     1278.972     1187.733      713.290        1.001        0.159      128.126       19.301        0.023      332.730        1.583      863.866
01/06/2022  06:38:00     -100.912       28.355      -18.951       47.742       32.532       26.482     2279.336     1058.340      701.281        0.769        0.202      104.820       26.836        0.066      332.776        1.659      863.879
01/06/2022  06:39:00      -65.502        5.294      -19.643       67.434       52.527       29.675     4547.332     2759.056      880.590        0.644        0.409       65.716       28.650        0.190      332.726        1.577      863.904
01/06/2022  06:40:00     -148.625       32.694      -26.126       44.589       37.150       33.059     1988.185     1380.140     1092.875        1.415        0.223      152.178       15.597        0.011      332.717        1.561      863.921
01/06/2022  06:41:00     -102.521       34.959      -18.597       58.591       50.504       31.430     3432.857     2550.677      987.851        0.952        0.349      108.317       20.891        0.037      332.681        1.503      863.906
01/06/2022  06:42:00      -52.561       13.663      -18.350       52.804       26.652       33.767     2788.227      710.324     1140.191        0.396        0.232       54.308       32.290        0.354      332.695        1.525      863.884
01/06/2022  06:43:00      -21.777       -4.130      -19.184       25.543       20.106       23.358      652.467      404.238      545.582        0.123        0.080       22.165       16.769        0.572      332.771        1.653      863.865
01/06/2022  06:44:00        5.082        3.393       -3.172       22.800       20.619       18.572      519.820      425.157      344.917        0.067        0.064        6.110       14.244        5.434      332.824        1.739      863.852
01/06/2022  06:45:00      -99.172       34.992      -18.289       87.596       35.667       33.324     7673.129     1272.138     1110.519        1.072        0.503      105.164       42.993        0.167      332.764        1.639      863.853
01/06/2022  06:46:00     -144.348       45.970      -28.990       61.676       41.298       36.207     3803.951     1705.488     1310.935        1.530        0.341      151.491       32.861        0.047      332.678        1.496      863.863
01/06/2022  06:47:00     -177.241       71.372      -28.894       30.221       34.337       24.136      913.314     1179.032      582.558        2.001        0.134      191.072        9.772        0.003      332.626        1.409      863.871
01/06/2022  06:48:00      -70.714       20.281      -13.211       45.794       28.573       24.092     2097.108      816.419      580.420        0.454        0.175       73.565       19.510        0.070      332.655        1.459      863.861
01/06/2022  06:49:00      -40.949       10.724      -18.007       27.450       26.992       20.442      753.494      728.583      417.864        0.201        0.095       42.330       12.734        0.090      332.692        1.522      863.849
01/06/2022  06:50:00      -76.803       26.756      -32.609       25.288       19.063       14.959      639.499      363.399      223.777        0.445        0.061       81.330       11.412        0.020      332.765        1.640      863.833
01/06/2022  06:51:00      -85.882        8.097      -16.844       47.433       25.024       31.308     2249.924      626.222      980.212        0.579        0.193       86.263       29.548        0.117      332.817        1.727      863.835
01/06/2022  06:52:00     -127.799       62.665      -15.089       47.941       33.018       23.519     2298.340     1090.201      553.125        1.221        0.197      142.336       18.980        0.018      332.747        1.611      863.845
01/06/2022  06:53:00      -46.611       15.283      -21.109       44.573       27.211       13.808     1986.755      740.460      190.666        0.288        0.146       49.052       12.143        0.061      332.808        1.712      863.853
01/06/2022  06:54:00       -0.399       -2.315       -0.976       28.194       18.161       15.858      794.907      329.829      251.468        0.069        0.069        2.349       10.134       18.607      332.861        1.800      863.870
01/06/2022  06:55:00        6.463        3.803      -19.480       27.315       23.607       13.642      746.106      557.308      186.115        0.096        0.074        7.499       14.581        3.781      332.767        1.644      863.905
01/06/2022  06:56:00        7.831       -3.513       -1.983       25.303       34.139       24.006      640.247     1165.491      576.296        0.123        0.119        8.582        7.780        0.822      332.720        1.568      863.926
01/06/2022  06:57:00      -16.111      -24.314       -6.222       17.659       32.477       17.868      311.842     1054.784      319.273        0.129        0.084       29.167       15.747        0.291      332.749        1.614      863.934
01/06/2022  06:58:00      -60.727       25.658      -13.081       46.979       37.292       19.635     2207.053     1390.718      385.533        0.425        0.199       65.925       12.212        0.034      332.785        1.675      863.933
01/06/2022  06:59:00     -108.571       44.208      -12.331       52.031       35.779       24.269     2707.214     1280.172      588.972        0.923        0.229      117.227       20.349        0.030      332.653        1.455      863.926
01/06/2022  07:00:00      -63.381       31.594      -17.730       51.749       23.663       23.149     2678.004      559.935      535.897        0.455        0.189       70.820       26.370        0.139      332.681        1.502      863.918
01/06/2022  07:01:00       -0.420        0.188      -13.216       16.485       27.335       12.705      271.749      747.191      161.421        0.068        0.059        0.460        8.188      317.292      332.738        1.598      863.927
01/06/2022  07:02:00      -10.224      -19.809      -18.051       17.528       18.962       11.263      307.237      359.566      126.864        0.081        0.040       22.292        8.544        0.147      333.066        2.139      863.947
01/06/2022  07:03:00      -54.485        3.259      -13.714       18.741       21.239       13.363      351.212      451.091      178.577        0.207        0.049       54.582        8.894        0.027      332.870        1.815      863.967
01/06/2022  07:04:00      -41.501        3.460       -8.982       17.109       20.635       12.897      292.713      425.803      166.327        0.135        0.044       41.645        8.719        0.044      332.890        1.847      863.963
01/06/2022  07:05:00       -8.320        7.907       -9.760       21.377       12.032       12.617      456.962      144.767      159.198        0.049        0.038       11.478        7.121        0.385      333.056        2.123      863.935
01/06/2022  07:06:00        9.832        2.431       -8.478       36.630       48.809       28.750     1341.760     2382.331      826.541        0.236        0.228       10.128       24.101        5.662      333.150        2.276      863.898
01/06/2022  07:07:00       35.315      -17.790      -18.512       38.018       48.750       26.510     1445.372     2376.575      702.789        0.321        0.226       39.542       18.202        0.212      333.287        2.504      863.881
01/06/2022  07:08:00        5.840      -23.126      -23.786       55.616       47.751       23.784     3093.089     2280.111      565.673        0.354        0.297       23.852        8.676        0.132      333.264        2.465      863.883
01/06/2022  07:09:00       44.823       18.051      -14.077       40.361       36.010       22.353     1629.004     1296.738      499.668        0.298        0.171       48.322       13.825        0.082      332.853        1.786      863.885
01/06/2022  07:10:00       -5.048        1.759       -3.637       21.695       15.294       16.300      470.680      233.908      265.688        0.051        0.049        5.346       10.244        3.672      332.839        1.764      863.874
01/06/2022  07:11:00        2.098       -0.099      -15.193       33.433       21.647       19.805     1117.740      468.585      392.254        0.111        0.099        2.101       12.794       37.097      332.796        1.692      863.870
01/06/2022  07:12:00       66.384       33.156       -8.496       22.122       17.047       13.094      489.381      290.610      171.447        0.326        0.048       74.203        3.954        0.003      332.616        1.394      863.878
01/06/2022  07:13:00       66.062       36.749      -19.158       27.809       23.996       14.091      773.355      575.793      198.558        0.381        0.077       75.596       12.936        0.029      332.564        1.308      863.877
01/06/2022  07:14:00       45.778       10.928      -19.626       32.179       38.404       21.063     1035.517     1474.893      443.630        0.278        0.148       47.064       19.252        0.167      332.557        1.296      863.861
01/06/2022  07:15:00       48.262       34.809      -10.251       23.543       25.864       19.459      554.289      668.966      378.670        0.262        0.080       59.505        8.541        0.021      332.498        1.200      863.859
01/06/2022  07:16:00       24.811       13.236      -24.271       20.125       22.587       12.966      405.027      510.161      168.109        0.123        0.054       28.120        8.456        0.090      332.530        1.253      863.853
01/06/2022  07:17:00       52.448       16.839      -17.308       40.412       52.611       27.442     1633.129     2767.948      753.037        0.424        0.258       55.085       18.423        0.112      332.429        1.085      863.832
01/06/2022  07:18:00       38.637       11.418       -1.657       66.794       53.913       46.992     4461.397     2906.603     2208.265        0.560        0.479       40.289       42.052        1.089      332.645        1.443      863.797
01/06/2022  07:19:00      134.306       -1.931      -25.829       45.490       45.699       30.848     2069.369     2088.415      951.578        1.191        0.255      134.320       25.613        0.036      332.582        1.338      863.800
01/06/2022  07:20:00      126.989       -1.379      -18.156       34.243       33.766       18.632     1172.604     1140.155      347.145        0.956        0.133      126.996       11.563        0.008      332.309        0.887      863.834
01/06/2022  07:21:00      136.552       31.411      -14.652       22.167       26.086       11.166      491.385      680.500      124.683        1.057        0.065      140.118        9.302        0.004      332.267        0.817      863.839
01/06/2022  07:22:00       17.961       -4.227      -13.331       53.379       65.624       26.922     2849.369     4306.518      724.819        0.420        0.394       18.452       18.605        1.017      332.522        1.241      863.777
01/06/2022  07:23:00       14.866      -57.500      -16.550       31.311       28.313       25.924      980.410      801.620      672.032        0.313        0.123       59.391       16.707        0.079      332.767        1.644      863.751
01/06/2022  07:24:00        1.792       -9.536       -9.238       32.506       43.323       19.580     1056.632     1876.919      383.380        0.175        0.166        9.703       19.499        4.039      332.549        1.284      863.726
01/06/2022  07:25:00       -0.556      -19.051       -6.034       19.458       21.791       26.263      378.624      474.828      689.758        0.097        0.077       19.059       12.754        0.448      332.460        1.136      863.719
01/06/2022  07:26:00       11.206       -8.235      -22.856       27.469       38.727       26.958      754.551     1499.771      726.720        0.185        0.149       13.907       17.448        1.574      332.472        1.157      863.722
01/06/2022  07:27:00       15.765      -75.877       -7.613       53.331       54.171       45.596     2844.205     2934.526     2079.011        0.696        0.393       77.498       27.827        0.129      332.725        1.575      863.718
01/06/2022  07:28:00        0.184      -46.888      -13.513       35.124       73.722       34.820     1233.673     5434.875     1212.438        0.513        0.394       46.888       19.504        0.173      332.632        1.421      863.702
01/06/2022  07:29:00       59.322       38.441      -15.034       49.258       39.580       25.843     2426.373     1566.575      667.854        0.494        0.233       70.688       16.496        0.054      332.236        0.766      863.685
01/06/2022  07:30:00       75.305       16.787       -7.172       21.036       15.728       10.172      442.502      247.361      103.464        0.340        0.040       77.153        7.382        0.009      332.069        0.492      863.672
01/06/2022  07:31:00       27.316       28.872       -7.193       18.891        8.448        8.914      356.864       71.365       79.458        0.107        0.025       39.746        4.850        0.015      332.102        0.543      863.663
01/06/2022  07:32:00       35.262       33.493       -8.387       13.841       10.678        9.030      191.564      114.024       81.540        0.141        0.019       48.633        5.950        0.015      332.158        0.639      863.677
01/06/2022  07:33:00       44.688       29.367       -6.275       14.081       10.772        8.609      198.272      116.027       74.107        0.164        0.019       53.474        4.008        0.006      332.201        0.710      863.699
01/06/2022  07:34:00        9.464        2.324       -5.514       22.721       20.235        9.791      516.239      409.445       95.856        0.057        0.051        9.745       13.040        1.791      332.299        0.869      863.731
01/06/2022  07:35:00      -24.449      -11.810      -10.575       12.585       13.425        8.997      158.393      180.224       80.953        0.063        0.021       27.152        2.003        0.005      332.419        1.067      863.730
01/06/2022  07:36:00       21.994       35.300       -5.563       27.480       12.123        9.785      755.155      146.958       95.745        0.138        0.050       41.591        9.362        0.051      332.320        0.906      863.712
01/06/2022  07:37:00       40.942       41.456       -7.018       24.399       15.744        9.525      595.325      247.862       90.729        0.219        0.047       58.265       10.504        0.033      332.287        0.850      863.698
01/06/2022  07:38:00      -17.753       11.358      -11.841       20.783       23.457       13.535      431.927      550.237      183.197        0.087        0.058       21.075       13.003        0.381      332.392        1.024      863.708
01/06/2022  07:39:00       -5.007        0.486        0.676       18.683       12.439       10.809      349.059      154.730      116.832        0.032        0.031        5.030        8.509        2.862      332.495        1.195      863.717
01/06/2022  07:40:00       11.390        4.924       -7.551       10.735        7.532        8.286      115.238       56.734       68.660        0.023        0.012       12.408        2.718        0.048      332.540        1.270      863.729
01/06/2022  07:41:00      -15.662       -4.957       -3.562       18.783       18.755       16.420      352.818      351.738      269.602        0.063        0.049       16.428        7.407        0.203      332.666        1.478      863.748
01/06/2022  07:42:00       -2.633        4.312       -0.346       17.719       21.866       13.717      313.965      478.113      188.151        0.050        0.049        5.052        8.266        2.677      332.713        1.556      863.769
01/06/2022  07:43:00      -56.894       -2.115       -4.414       33.055       22.013       20.604     1092.630      484.563      424.529        0.263        0.100       56.934       19.379        0.116      332.728        1.580      863.761
01/06/2022  07:44:00      -39.765       -0.877        5.047       28.195       28.712       12.750      794.982      824.372      162.570        0.169        0.089       39.774        8.947        0.051      332.673        1.488      863.729
01/06/2022  07:45:00      -44.877       22.062       -3.762       30.337       24.508       19.996      920.349      600.642      399.820        0.222        0.096       50.007       15.241        0.093      332.668        1.480      863.701
01/06/2022  07:46:00      -77.077       18.094        4.601       50.706       33.109       24.427     2571.118     1096.213      596.702        0.528        0.213       79.172       24.863        0.099      332.657        1.463      863.675
01/06/2022  07:47:00      -43.498       15.938       -6.118       25.775       20.505       12.318      664.349      420.466      151.740        0.171        0.062       46.326       10.373        0.050      332.781        1.668      863.639
01/06/2022  07:48:00      -18.205       59.014      -11.360       12.993       23.022       14.115      168.809      530.034      199.237        0.242        0.045       61.758        8.507        0.019      332.775        1.658      863.584
01/06/2022  07:49:00       13.065       33.626       -3.203       20.521       14.988       12.823      421.108      224.647      164.418        0.106        0.041       36.075        8.403        0.054      332.785        1.674      863.556
01/06/2022  07:50:00       12.072       31.329       -4.083       17.206       14.906       18.506      296.031      222.203      342.488        0.100        0.043       33.574       12.537        0.139      332.810        1.715      863.550
01/06/2022  07:51:00       13.936       28.160       -2.545       11.662       10.130       14.527      136.011      102.615      211.027        0.072        0.022       31.420       10.218        0.106      332.742        1.603      863.557
01/06/2022  07:52:00        7.626       16.877       -5.885       12.316       12.751       10.884      151.672      162.600      118.462        0.041        0.022       18.520        7.106        0.147      332.702        1.537      863.558
01/06/2022  07:53:00       15.423       20.452       -8.231       10.959       10.292        9.587      120.103      105.917       91.913        0.052        0.016       25.615        5.200        0.041      332.657        1.463      863.538
01/06/2022  07:54:00       44.476       52.728       -9.765       27.540       29.695       18.389      758.465      881.764      338.138        0.342        0.099       68.981       15.849        0.053      332.639        1.431      863.510
01/06/2022  07:55:00       45.318       24.133       -7.780       22.508       21.731       20.056      506.611      472.229      402.245        0.204        0.069       51.344       15.702        0.094      332.628        1.415      863.488
01/06/2022  07:56:00       37.283       11.767       -3.724       21.430       12.932       11.164      459.247      167.237      124.634        0.115        0.038       39.096        8.476        0.047      332.590        1.352      863.484
01/06/2022  07:57:00      -15.963        3.786      -14.711       19.868       13.882       14.792      394.733      192.696      218.789        0.065        0.040       16.406       10.193        0.386      332.845        1.773      863.500
01/06/2022  07:58:00       -6.261       -4.115        2.648       20.316       19.666       14.106      412.738      386.738      198.975        0.053        0.050        7.492       10.808        2.081      332.907        1.877      863.516
01/06/2022  07:59:00      -17.869        0.718      -12.659       20.222       16.210       12.723      408.928      262.759      161.885        0.066        0.042       17.883        8.916        0.249      332.888        1.845      863.530
01/06/2022  08:00:00      -47.110        6.080       -9.613       31.471       22.863       14.134      990.426      522.731      199.784        0.203        0.086       47.501        3.412        0.005      332.806        1.709      863.516
01/06/2022  08:01:00      -35.398       32.834       -2.791       18.576       18.708        9.442      345.078      349.979       89.147        0.156        0.039       48.281        8.964        0.034      332.756        1.625      863.491
01/06/2022  08:02:00      -49.270       28.890       -4.770       22.341       25.185       14.326      499.138      634.278      205.243        0.231        0.067       57.115        9.714        0.029      332.805        1.707      863.472
01/06/2022  08:03:00      -74.696       17.668       -7.604       19.144       18.178       14.144      366.485      330.445      200.053        0.342        0.045       76.757       12.462        0.026      332.778        1.664      863.461
01/06/2022  08:04:00      -58.515       14.946      -10.036       19.860       14.983       17.611      394.430      224.485      310.146        0.234        0.046       60.394        7.929        0.017      332.830        1.749      863.460
01/06/2022  08:05:00      -31.764       22.971       -7.462       23.309       21.074       10.156      543.310      444.101      103.153        0.134        0.055       39.200       11.236        0.082      332.879        1.829      863.454
01/06/2022  08:06:00      -42.089       22.085       -9.589       18.966       17.426       12.793      359.699      303.651      163.660        0.159        0.041       47.532        6.265        0.017      332.890        1.850      863.428
01/06/2022  08:07:00      -18.264       14.671       -3.673       18.080       13.685       11.648      326.901      187.291      135.687        0.061        0.032       23.427       10.410        0.197      332.975        1.987      863.396
01/06/2022  08:08:00      -26.907       20.519      -11.544       14.888       13.765       11.782      221.662      189.476      138.804        0.091        0.027       33.838        6.416        0.036      332.945        1.940      863.358
01/06/2022  08:09:00      -48.842       21.529      -11.581       22.500       19.806       16.702      506.242      392.259      278.961        0.208        0.059       53.376       14.871        0.078      332.920        1.898      863.328
01/06/2022  08:10:00      -50.824       20.083      -20.462       24.924       20.856       15.255      621.231      434.980      232.711        0.235        0.064       54.648        6.719        0.015      332.975        1.989      863.304
01/06/2022  08:11:00      -44.761       -6.172      -13.145       21.028       38.558       14.813      442.183     1486.712      219.416        0.218        0.107       45.185       12.599        0.078      333.054        2.119      863.301
01/06/2022  08:12:00      -12.805        4.651      -11.878       16.975       32.194       14.295      288.164     1036.445      204.353        0.093        0.076       13.624       13.732        1.016      333.135        2.251      863.305
01/06/2022  08:13:00      -33.461        0.519       -5.210       39.937       20.762       19.343     1594.931      431.081      374.153        0.177        0.120       33.465       19.286        0.332      333.073        2.150      863.295
01/06/2022  08:14:00      -31.654        4.469       -8.869       37.026       22.918       20.166     1370.928      525.228      406.683        0.170        0.115       31.968       18.548        0.337      333.067        2.140      863.282
01/06/2022  08:15:00      -53.428       22.204       -1.175       49.766       23.575       23.053     2476.640      555.760      531.439        0.346        0.178       57.858       26.783        0.214      333.068        2.142      863.263
01/06/2022  08:16:00      -36.459        8.650       -3.034       46.509       32.893       14.989     2163.050     1081.936      224.659        0.244        0.173       37.472       12.985        0.120      333.118        2.224      863.243
01/06/2022  08:17:00      -61.243       12.072       -2.613       72.906       25.309       23.272     5315.262      640.530      541.592        0.520        0.325       62.422       30.393        0.237      333.091        2.180      863.214
01/06/2022  08:18:00      -78.711       19.603       -4.533       30.680       16.297       14.731      941.243      265.593      216.996        0.401        0.071       81.116        9.846        0.015      333.042        2.099      863.175
01/06/2022  08:19:00      -25.790       -5.472       -6.629       31.268       13.313       12.476      977.712      177.234      155.646        0.102        0.066       26.364        3.672        0.019      333.185        2.337      863.156
01/06/2022  08:20:00       -2.301      -31.074       -7.976       20.553       21.225       18.275      422.413      450.493      333.963        0.112        0.060       31.159       10.422        0.112      333.317        2.553      863.165
01/06/2022  08:21:00       -7.450      -26.649       -9.304       23.345       32.075       20.459      544.996     1028.814      418.569        0.142        0.100       27.671       13.489        0.238      333.438        2.753      863.180
01/06/2022  08:22:00      -25.486      -20.606      -10.828       22.092       23.972       23.341      488.058      574.641      544.779        0.140        0.080       32.774       19.162        0.342      333.341        2.592      863.171
01/06/2022  08:23:00      -17.852       14.728       -6.428       19.179       26.545       15.659      367.823      704.650      245.209        0.095        0.066       23.143       14.306        0.382      333.328        2.571      863.149
01/06/2022  08:24:00      -21.075       13.308       -7.078       15.880       18.200       12.702      252.166      331.256      161.338        0.071        0.037       24.925        8.930        0.128      333.346        2.602      863.145
01/06/2022  08:25:00      -18.990      -20.873      -25.181       32.222       19.045       22.328     1038.279      362.700      498.528        0.166        0.095       28.219       20.831        0.545      333.319        2.556      863.184
01/06/2022  08:26:00      -42.732      -31.122       -4.037       42.707       30.146       27.465     1823.887      908.761      754.339        0.315        0.174       52.864       20.503        0.150      333.417        2.720      863.234
01/06/2022  08:27:00      -26.688        5.747       -7.671       45.880       26.727       21.311     2105.004      714.341      454.141        0.204        0.164       27.300       15.116        0.307      333.378        2.654      863.240
01/06/2022  08:28:00      -23.592       -9.023      -14.537       16.559       28.440       20.007      274.187      808.852      400.269        0.117        0.074       25.259        9.155        0.131      333.359        2.624      863.217
01/06/2022  08:29:00      -17.140      -17.041       -1.822       16.857       20.993       20.958      284.148      440.712      439.230        0.088        0.058       24.170       12.723        0.277      333.541        2.924      863.201
01/06/2022  08:30:00      -24.001      -17.104      -15.097       28.991       20.972       17.809      840.486      439.839      317.174        0.135        0.080       29.472       11.187        0.144      333.554        2.944      863.216
01/06/2022  08:31:00      -10.793      -17.939       -4.562       41.302       27.869       21.782     1705.843      776.696      474.466        0.171        0.148       20.936       10.404        0.247      333.680        3.153      863.238
01/06/2022  08:32:00        3.309      -14.781       -4.155       27.718       42.477       31.630      768.298     1804.254     1000.433        0.191        0.179       15.146       23.339        2.374      333.683        3.160      863.232
01/06/2022  08:33:00      -15.178       12.614       -2.535       19.244       15.000       14.956      370.331      225.002      223.672        0.061        0.041       19.735        5.836        0.087      333.662        3.124      863.200
01/06/2022  08:34:00      -18.536       13.036       -1.855       24.553       14.238       12.920      602.870      202.723      166.930        0.074        0.049       22.661        7.803        0.119      333.487        2.835      863.162
01/06/2022  08:35:00       -7.781       11.577      -11.711       19.708       11.429       11.175      388.391      130.616      124.888        0.049        0.032       13.949        7.253        0.270      333.565        2.963      863.161
01/06/2022  08:36:00       -4.324       -3.333      -17.663       12.283       14.369        7.581      150.867      206.482       57.467        0.038        0.021        5.460        6.064        1.234      333.641        3.088      863.191
01/06/2022  08:37:00      -14.433        2.616      -21.945       13.167       12.071        9.331      173.363      145.704       87.062        0.055        0.020       14.668        5.827        0.158      333.646        3.099      863.221
01/06/2022  08:38:00       -7.184       14.669       -9.005        9.569       23.959        9.808       91.570      574.034       96.205        0.055        0.038       16.334       12.842        0.618      333.622        3.058      863.228
01/06/2022  08:39:00        6.380       30.850       -3.388       20.303       17.398       15.467      412.219      302.685      239.220        0.098        0.048       31.502       10.121        0.103      333.657        3.117      863.217
01/06/2022  08:40:00       70.788       25.843      -13.304       43.760       28.612       19.180     1914.920      818.666      367.890        0.448        0.155       75.357       17.680        0.055      333.765        3.296      863.190
01/06/2022  08:41:00       83.387       45.291      -19.750       30.156       27.679       23.215      909.400      766.119      538.951        0.580        0.111       94.893       13.370        0.020      333.606        3.032      863.181
01/06/2022  08:42:00       81.952       32.831      -29.572       23.562       20.677       20.386      555.159      427.525      415.577        0.503        0.070       88.284       15.926        0.033      333.592        3.008      863.184
01/06/2022  08:43:00       32.048       47.273       -1.873       33.783       27.811       28.873     1141.259      773.425      833.671        0.301        0.137       57.112       26.304        0.212      333.848        3.434      863.180
01/06/2022  08:44:00       10.248       23.880       -8.513       20.636       22.001       18.042      425.852      484.027      325.524        0.099        0.062       25.986       10.071        0.150      333.890        3.503      863.155
01/06/2022  08:45:00       69.394       51.962       -3.608       29.410       25.670       21.508      864.947      658.932      462.611        0.476        0.099       86.692       13.322        0.024      333.756        3.280      863.140
01/06/2022  08:46:00       -6.801        4.691       -6.621       43.198       38.139       16.344     1866.100     1454.596      267.114        0.185        0.179        8.262       17.606        4.541      333.886        3.495      863.144
01/06/2022  08:47:00      -34.562        6.572      -29.792       19.061       15.346       12.567      363.310      235.489      157.927        0.144        0.038       35.182        3.282        0.009      333.819        3.385      863.154
01/06/2022  08:48:00       -8.137       11.268      -16.832       31.272       16.203       12.283      977.920      262.525      150.867        0.093        0.070       13.899       10.387        0.558      333.809        3.368      863.120
01/06/2022  08:49:00      105.845       22.127      -15.577       35.054       32.161       17.553     1228.752     1034.319      308.105        0.725        0.129      108.133       14.295        0.017      333.745        3.263      863.077
01/06/2022  08:50:00       98.579       34.833      -35.566       15.796       21.882       12.606      249.528      478.832      158.920        0.654        0.044      104.552        5.077        0.002      333.623        3.061      863.047
01/06/2022  08:51:00       90.171       46.779      -26.958       21.103       19.550       13.823      445.355      382.200      191.076        0.603        0.051      101.583        6.148        0.004      333.674        3.143      863.057
01/06/2022  08:52:00       59.267       33.396      -24.620       16.462       15.253       11.462      270.989      232.649      131.381        0.293        0.032       68.028        6.068        0.008      333.660        3.121      863.093
01/06/2022  08:53:00        0.511      -21.779      -23.748       28.815       31.869       22.937      830.316     1015.633      526.089        0.170        0.119       21.785       15.857        0.530      333.946        3.596      863.122
01/06/2022  08:54:00      -27.456        7.919      -16.024       25.137       34.572       20.079      631.856     1195.249      403.182        0.165        0.112       28.575       14.289        0.250      333.971        3.636      863.122
01/06/2022  08:55:00      -26.923       -5.242       -7.447       22.154       19.554       15.140      490.794      382.341      229.214        0.095        0.055       27.428        9.300        0.115      334.118        3.880      863.129
01/06/2022  08:56:00      -22.229       -2.341      -11.019       12.137       13.135       12.438      147.313      172.539      154.697        0.055        0.024       22.352        7.638        0.117      334.018        3.715      863.148
01/06/2022  08:57:00      -28.607      -15.940      -16.555       13.445       12.355       11.906      180.779      152.637      141.764        0.091        0.024       32.748        4.266        0.017      334.072        3.805      863.165
01/06/2022  08:58:00      -27.784      -13.491      -11.102       19.350       14.369       12.211      374.424      206.478      149.113        0.090        0.037       30.886        8.600        0.078      334.171        3.968      863.178
01/06/2022  08:59:00       -7.484      -58.198       -8.155       36.331       27.083       19.772     1319.913      733.485      390.949        0.298        0.122       58.678        8.463        0.021      334.178        3.979      863.188
01/06/2022  09:00:00       50.432      -96.669      -23.899       27.089       30.216       14.424      733.812      912.988      208.049        0.716        0.093      109.033       11.388        0.011      334.017        3.713      863.186
01/06/2022  09:01:00       56.992     -109.723      -24.484       24.081       30.891       23.776      579.913      954.244      565.291        0.899        0.105      123.641       17.143        0.019      334.031        3.736      863.201
01/06/2022  09:02:00       32.756      -95.225      -23.693       37.638       32.131       23.914     1416.611     1032.394      571.894        0.686        0.151      100.701       20.508        0.041      334.140        3.915      863.275
01/06/2022  09:03:00      -33.231      -42.850      -12.635       39.420       52.684       31.586     1553.963     2775.601      997.706        0.421        0.266       54.226       26.984        0.248      334.238        4.078      863.284
01/06/2022  09:04:00       -7.810       15.103       -3.111       12.490       24.143       12.426      156.003      582.893      154.399        0.060        0.045       17.003       11.989        0.497      334.361        4.283      863.258
01/06/2022  09:05:00       12.485       13.789       -6.296       29.593       22.392       16.066      875.719      501.391      258.107        0.101        0.082       18.601       13.949        0.562      334.416        4.375      863.228
01/06/2022  09:06:00      -47.178        6.760      -10.169       38.806       18.692       14.134     1505.888      349.396      199.778        0.221        0.103       47.660       14.049        0.087      334.225        4.057      863.230
01/06/2022  09:07:00      -27.798       15.748       -2.629       31.713       11.488        9.829     1005.691      131.976       96.601        0.113        0.062       31.948       12.281        0.148      334.221        4.051      863.248
01/06/2022  09:08:00      -23.616        9.293       -5.995       25.700       16.345        8.198      660.465      267.144       67.215        0.084        0.050       25.379        6.334        0.062      334.376        4.307      863.261
01/06/2022  09:09:00      -39.287       10.702       -3.932       16.160       22.090       12.472      261.146      487.952      155.558        0.129        0.045       40.718        9.734        0.057      334.312        4.201      863.262
01/06/2022  09:10:00      -48.888       19.262      -11.134       13.991       13.496       10.228      195.744      182.151      104.616        0.168        0.024       52.546        8.060        0.024      334.295        4.173      863.237
01/06/2022  09:11:00      -21.341      -13.284       -4.380       13.779       12.529       13.760      189.855      156.966      189.331        0.059        0.027       25.138        7.716        0.094      334.613        4.701      863.208
01/06/2022  09:12:00      -24.475      -21.031      -14.990       12.687       16.015       13.967      160.961      256.472      195.066        0.094        0.031       32.269        8.982        0.077      334.479        4.479      863.192
01/06/2022  09:13:00      -31.015      -27.920      -11.556       29.313       18.951       20.241      859.239      359.147      409.694        0.175        0.081       41.730       14.071        0.114      334.537        4.575      863.174
01/06/2022  09:14:00      -23.299       -2.975      -15.224       22.311       17.048       16.740      497.769      290.638      280.214        0.093        0.053       23.488        9.069        0.149      334.625        4.719      863.125
01/06/2022  09:15:00      -19.780       16.293       -8.912       10.936        9.818       13.354      119.590       96.398      178.326        0.057        0.020       25.627        7.655        0.089      334.580        4.642      863.075
01/06/2022  09:16:00      -28.752       10.596       -1.006       16.564       16.710       13.687      274.378      279.229      187.328        0.084        0.037       30.642        5.882        0.037      334.676        4.803      863.042
01/06/2022  09:17:00      -22.790       -9.813       -6.790       30.701       25.369       18.232      942.530      643.585      332.417        0.129        0.096       24.813       11.431        0.212      334.851        5.096      863.037
01/06/2022  09:18:00      -11.233       -9.663      -16.001       15.870       13.861       11.134      251.856      192.130      123.962        0.052        0.028       14.817        7.387        0.249      334.745        4.920      863.053
01/06/2022  09:19:00      -18.576       25.690        4.136       20.976       33.723       17.140      439.995     1137.246      293.770        0.145        0.094       31.703       12.464        0.155      334.831        5.065      863.045
01/06/2022  09:20:00      -50.427        6.808       -9.713       18.037       19.788       15.380      325.350      391.554      236.541        0.182        0.048       50.885        5.578        0.012      334.717        4.873      863.011
01/06/2022  09:21:00      -39.731      -22.845      -11.357       31.532       26.007       15.778      994.246      676.390      248.945        0.207        0.096       45.830       10.451        0.052      334.897        5.173      863.000
01/06/2022  09:22:00       32.078      -72.868      -26.850       32.678       33.712       23.590     1067.823     1136.513      556.490        0.491        0.138       79.616       11.994        0.023      334.939        5.243      863.014
01/06/2022  09:23:00       64.413      -60.568      -31.384       33.200       39.850       23.165     1102.240     1588.049      536.618        0.601        0.161       88.417       19.412        0.048      334.813        5.031      863.028
01/06/2022  09:24:00       79.572      -39.848      -21.090       19.994       23.843       19.942      399.771      568.474      397.677        0.486        0.068       88.992       10.026        0.013      334.809        5.027      863.033
01/06/2022  09:25:00       24.547      -62.862      -25.382       41.800       32.360       20.156     1747.241     1047.201      406.277        0.420        0.160       67.485       25.274        0.140      334.827        5.056      863.036
01/06/2022  09:26:00      -36.966      -16.065      -14.064       28.014       28.208       26.476      784.766      795.667      701.004        0.205        0.114       40.306       15.423        0.146      335.045        5.418      863.053
01/06/2022  09:27:00      -47.788       -1.971       -4.766       45.275       33.505       26.059     2049.832     1122.580      679.060        0.308        0.193       47.829       11.273        0.056      334.987        5.323      863.056
01/06/2022  09:28:00       16.661       -5.535      -11.120       40.557       68.674       24.128     1644.900     4716.155      582.165        0.369        0.347       17.556       20.228        1.328      335.005        5.353      863.066
01/06/2022  09:29:00       86.632        3.218       -7.570       42.184       54.926       28.353     1779.520     3016.839      803.895        0.659        0.280       86.692       22.151        0.065      334.852        5.098      863.086
01/06/2022  09:30:00       50.118       11.074      -16.145       39.667       56.782       28.995     1573.508     3224.154      840.705        0.427        0.282       51.327       26.187        0.260      334.924        5.217      863.111
01/06/2022  09:31:00       73.795       40.325       -8.989       40.872       40.297       26.540     1670.543     1623.883      704.359        0.558        0.200       84.095       16.573        0.039      334.949        5.259      863.140
01/06/2022  09:32:00      108.276       62.199      -17.686       45.761       39.141       24.060     2094.028     1532.025      578.880        1.005        0.210      124.870       20.055        0.026      334.899        5.177      863.154
01/06/2022  09:33:00      130.433       60.655      -34.185       58.230       55.354       31.289     3390.681     3064.087      979.004        1.465        0.372      143.847       16.028        0.012      334.932        5.231      863.155
01/06/2022  09:34:00      108.485       12.414      -13.182       58.053       49.681       30.581     3370.170     2468.216      935.179        0.943        0.339      109.193       23.584        0.047      334.798        5.009      863.156
01/06/2022  09:35:00      113.032       34.983      -17.906       36.105       39.771       23.600     1303.607     1581.711      556.971        0.888        0.172      118.322       12.956        0.012      334.706        4.857      863.176
01/06/2022  09:36:00       83.508       28.878      -15.595       47.873       51.275       36.866     2291.781     2629.175     1359.076        0.716        0.314       88.361       19.047        0.046      334.866        5.122      863.226
01/06/2022  09:37:00       42.117       41.656       -2.888       49.196       52.139       36.338     2420.282     2718.486     1320.459        0.499        0.323       59.237       38.532        0.423      334.926        5.222      863.275
01/06/2022  09:38:00      104.822       44.962      -27.955       36.913       67.467       27.629     1362.588     4551.843      763.351        1.023        0.334      114.058       28.866        0.064      334.737        4.907      863.300
01/06/2022  09:39:00       32.333       45.656      -10.917       38.364       41.501       27.913     1471.827     1722.366      779.132        0.361        0.199       55.945       25.844        0.213      335.059        5.442      863.319
01/06/2022  09:40:00      -41.873       20.444        1.367       40.084       42.916       26.600     1606.747     1841.777      707.567        0.316        0.208       46.597       19.051        0.167      335.013        5.366      863.320
01/06/2022  09:41:00       10.649       -4.616      -22.905       49.289       50.717       39.880     2429.388     2572.261     1590.383        0.362        0.330       11.606       38.799       11.175      335.176        5.636      863.326
01/06/2022  09:42:00      -29.608      -13.891      -18.831       48.807       28.655       24.232     2382.105      821.103      587.206        0.261        0.190       32.705       12.513        0.146      335.108        5.522      863.334
01/06/2022  09:43:00      -18.900      -15.772       -6.502       28.270       26.778       25.092      799.210      717.049      629.590        0.140        0.107       24.617       12.335        0.251      335.146        5.586      863.340
01/06/2022  09:44:00       20.012      -76.161       -7.071       33.793       40.116       29.311     1141.961     1609.327      859.113        0.493        0.181       78.746       25.262        0.103      335.163        5.614      863.343
01/06/2022  09:45:00       52.599     -111.727      -34.042       34.613       49.727       25.557     1198.043     2472.751      653.185        1.037        0.216      123.489       17.527        0.020      335.074        5.467      863.330
01/06/2022  09:46:00       29.856      -34.799      -30.580       40.292       62.836       29.520     1623.433     3948.404      871.421        0.474        0.322       45.851       29.788        0.422      335.285        5.816      863.306
01/06/2022  09:47:00        9.604      -58.081       -9.413       56.947       38.017       26.983     3242.974     1445.283      728.085        0.448        0.271       58.870       27.151        0.213      335.342        5.913      863.317
01/06/2022  09:48:00       33.392      -90.877      -20.964       44.164       39.074       31.647     1950.441     1526.813     1001.557        0.715        0.224       96.818       18.535        0.037      335.359        5.940      863.345
01/06/2022  09:49:00       53.709     -113.060      -30.428       35.840       30.171       25.076     1284.525      910.300      628.807        0.971        0.141      125.169       15.480        0.015      335.199        5.675      863.372
01/06/2022  09:50:00       60.064      -42.578      -37.930       54.390       73.940       39.025     2958.294     5467.134     1522.950        0.840        0.497       73.624       20.506        0.078      335.454        6.098      863.349
01/06/2022  09:51:00       73.318       36.937      -15.782       47.795       47.763       37.508     2284.334     2281.332     1406.845        0.648        0.299       82.097       23.120        0.079      335.455        6.100      863.297
01/06/2022  09:52:00       94.624       36.762      -23.124       46.063       52.971       31.794     2121.791     2805.895     1010.876        0.839        0.297      101.514       24.074        0.056      335.426        6.052      863.272
01/06/2022  09:53:00       57.759       34.580      -15.245       34.200       38.698       16.792     1169.606     1497.542      281.972        0.386        0.147       67.319       12.134        0.032      335.061        5.446      863.292
01/06/2022  09:54:00       72.601       15.143      -11.711       38.836       36.483       25.498     1508.232     1330.993      650.161        0.456        0.174       74.163       17.304        0.054      335.276        5.802      863.297
01/06/2022  09:55:00       97.527        6.246      -38.448       45.949       58.997       36.245     2111.290     3480.591     1313.723        0.897        0.345       97.727       21.321        0.048      335.357        5.938      863.269
01/06/2022  09:56:00       63.139      -23.828      -34.260       82.726       69.306       46.115     6843.556     4803.357     2126.564        0.975        0.689       67.486       36.246        0.288      335.432        6.062      863.245
01/06/2022  09:57:00      -36.054      -28.706       -8.066       40.445       66.945       27.839     1635.759     4481.610      774.989        0.454        0.345       46.086       22.059        0.229      335.426        6.051      863.280
01/06/2022  09:58:00       70.472       43.787      -14.381       54.013       63.347       30.594     2917.448     4012.799      936.001        0.748        0.393       82.968       29.397        0.126      335.320        5.874      863.325
01/06/2022  09:59:00      106.597      -26.610      -11.835       55.314       33.172       28.753     3059.606     1100.401      826.759        0.860        0.249      109.868       21.520        0.038      335.237        5.738      863.330
01/06/2022  10:00:00       65.060       59.679      -24.365       29.707       37.011       28.340      882.526     1369.805      803.160        0.572        0.153       88.286        5.535        0.004      335.314        5.865      863.336
01/06/2022  10:01:00       44.838        2.589      -17.733       54.075       88.723       48.552     2924.097     7871.769     2357.328        0.774        0.658       44.913       41.642        0.860      335.337        5.904      863.323
01/06/2022  10:02:00       47.303       31.212      -37.540       42.192       81.585       40.388     1780.151     6656.063     1631.193        0.734        0.503       56.672       31.323        0.305      335.525        6.216      863.258
01/06/2022  10:03:00       29.719        1.667      -44.261       62.375       71.879       44.871     3890.659     5166.609     2013.451        0.696        0.554       29.766       35.240        1.402      335.516        6.202      863.205
01/06/2022  10:04:00      -22.383      -57.976        0.996       58.760       48.221       36.525     3452.696     2325.288     1334.041        0.549        0.356       62.147       26.322        0.179      335.520        6.210      863.216
01/06/2022  10:05:00       17.429       18.042        7.133       38.648       59.488       31.836     1493.700     3538.842     1013.514        0.336        0.302       25.085       29.002        1.337      335.553        6.262      863.247
01/06/2022  10:06:00       43.648        2.918      -18.637       41.367       60.912       28.915     1711.238     3710.298      836.080        0.426        0.313       43.746       17.073        0.152      335.480        6.141      863.248
01/06/2022  10:07:00       26.704      -24.273      -26.559       28.041       58.461       27.441      786.307     3417.717      753.023        0.348        0.248       36.087       16.668        0.213      335.764        6.616      863.235
01/06/2022  10:08:00       -3.367       26.221       -9.010       26.145       30.483       20.324      683.549      929.222      413.053        0.140        0.101       26.436       16.910        0.409      335.690        6.491      863.222
01/06/2022  10:09:00       -5.027        0.129        0.067       23.945       23.846       19.293      573.362      568.611      372.212        0.077        0.076        5.028       10.595        4.439      335.797        6.668      863.221
01/06/2022  10:10:00       27.506       28.132        7.175       48.700       37.801       26.983     2371.648     1428.935      728.080        0.306        0.226       39.344       20.805        0.280      335.809        6.690      863.236
01/06/2022  10:11:00       35.515       39.271       -2.733       48.159       41.273       20.897     2319.289     1703.502      436.691        0.363        0.223       52.949       19.527        0.136      335.765        6.618      863.256
01/06/2022  10:12:00      -27.661       -5.776       -9.173       24.191       18.986       20.235      585.191      360.460      409.473        0.112        0.068       28.258        9.107        0.104      335.735        6.566      863.255
01/06/2022  10:13:00       22.648      -15.174       -8.311       33.455       61.612       38.649     1119.233     3796.070     1493.749        0.361        0.320       27.261       29.767        1.192      335.875        6.801      863.239
01/06/2022  10:14:00       14.447       42.913        3.954       37.596       38.448       33.741     1413.478     1478.217     1138.487        0.305        0.202       45.280       22.338        0.243      335.937        6.904      863.213
01/06/2022  10:15:00       24.199       37.529        2.450       34.228       51.916       31.761     1171.559     2695.267     1008.747        0.344        0.244       44.655       16.839        0.142      335.929        6.889      863.200
01/06/2022  10:16:00       82.585       40.261      -21.619       41.029       32.843       33.663     1683.391     1078.662     1133.193        0.640        0.195       91.876       23.552        0.066      335.750        6.591      863.220
01/06/2022  10:17:00       70.923       31.255      -15.897       50.345       57.392       36.880     2534.643     3293.891     1360.149        0.672        0.359       77.505       27.825        0.129      335.746        6.585      863.230
01/06/2022  10:18:00      115.962       74.668      -25.905       43.246       40.083       22.027     1870.180     1606.684      485.182        1.183        0.198      137.922       15.778        0.013      335.669        6.457      863.240
01/06/2022  10:19:00       61.076       60.414      -22.860       63.108       66.863       39.490     3982.575     4470.625     1559.471        0.896        0.501       85.908       25.989        0.092      335.990        6.992      863.219
01/06/2022  10:20:00      -17.098        3.135      -12.842       59.554       59.004       33.649     3546.733     3481.454     1132.281        0.431        0.408       17.383       27.810        2.560      335.972        6.962      863.215
01/06/2022  10:21:00      104.535       16.991      -38.889       78.466       69.319       30.143     6156.927     4805.122      908.594        1.230        0.594      105.907       16.599        0.025      335.757        6.602      863.195
01/06/2022  10:22:00      120.350       40.959      -33.085       38.025       44.745       22.282     1445.891     2002.071      496.476        1.060        0.197      127.129       17.703        0.019      335.561        6.276      863.185
01/06/2022  10:23:00      103.499       70.091      -13.786       40.965       24.555       16.312     1678.134      602.927      266.067        0.918        0.127      124.999       13.906        0.012      335.461        6.110      863.193
01/06/2022  10:24:00      104.822       51.267      -40.228       40.819       34.671       23.726     1666.178     1202.090      562.926        0.933        0.172      116.687       16.488        0.020      335.502        6.179      863.195
01/06/2022  10:25:00       79.904       46.667      -25.302       21.184       15.612       11.953      448.760      243.749      142.864        0.502        0.042       92.533        9.222        0.010      335.424        6.048      863.185
01/06/2022  10:26:00       69.953       32.223      -10.812       47.578       64.236       37.650     2263.672     4126.220     1417.539        0.693        0.390       77.018       22.296        0.084      336.054        7.099      863.154
01/06/2022  10:27:00       55.292       17.161      -31.617       49.346       57.916       35.105     2434.998     3354.287     1232.380        0.569        0.351       57.894       15.123        0.068      335.916        6.869      863.110
01/06/2022  10:28:00      108.093       29.000      -27.386       70.764       49.512       39.456     5007.592     2451.433     1556.775        1.114        0.451      111.915       29.451        0.069      335.811        6.694      863.074
01/06/2022  10:29:00       39.100       15.544       -7.914       75.446       39.084       23.843     5692.148     1527.579      568.468        0.481        0.389       42.076       19.024        0.204      335.898        6.838      863.109
01/06/2022  10:30:00       52.963       40.935      -20.683       57.087       38.186       36.897     3258.965     1458.137     1361.376        0.549        0.304       66.939       29.594        0.195      335.801        6.677      863.143
01/06/2022  10:31:00       41.572      -64.709      -11.354       50.791       80.137       43.357     2579.697     6421.953     1879.837        0.846        0.544       76.913       37.666        0.240      336.036        7.069      863.157
01/06/2022  10:32:00       58.645     -102.853      -33.168       39.642       98.435       37.687     1571.501     9689.370     1420.301        1.390        0.634      118.397       19.522        0.027      335.954        6.933      863.153
01/06/2022  10:33:00       97.394      -20.711      -34.360       74.679       93.676       48.615     5576.928     8775.167     2363.412        1.390        0.836       99.571       34.754        0.122      336.130        7.224      863.121
01/06/2022  10:34:00       46.822      -55.441      -26.011       48.542       99.793       36.805     2356.359     9958.580     1354.641        0.980        0.683       72.567       22.112        0.093      336.086        7.152      863.123
01/06/2022  10:35:00      122.752      -41.716      -38.175      101.320       75.344       47.102    10265.715     5676.663     2218.616        1.821        0.908      129.647       41.993        0.105      336.058        7.105      863.129
01/06/2022  10:36:00      110.914       11.601      -29.071       59.653       62.817       41.292     3558.489     3946.010     1705.068        1.124        0.460      111.519       26.503        0.056      336.214        7.365      863.128
01/06/2022  10:37:00       27.395      -33.963      -27.445       69.682      105.362       46.681     4855.627    11101.149     2179.087        1.039        0.907       43.635       27.166        0.388      336.178        7.306      863.091
01/06/2022  10:38:00       21.291      -61.435      -18.694       58.413       97.738       41.933     3412.071     9552.621     1758.394        0.965        0.736       65.020       39.405        0.367      336.238        7.405      863.061
01/06/2022  10:39:00       17.044      -19.049      -21.020       38.533       45.498       31.384     1484.775     2070.082      984.926        0.282        0.227       25.561       17.801        0.485      336.275        7.466      863.053
01/06/2022  10:40:00        4.533       -9.252      -16.216       40.291       29.891       31.010     1623.365      893.452      961.641        0.192        0.174       10.303       24.750        5.771      336.252        7.429      863.033
01/06/2022  10:41:00       59.443        6.919      -42.611       64.842       57.118       38.247     4204.518     3262.470     1462.845        0.716        0.446       59.845       21.457        0.129      336.138        7.239      863.016
01/06/2022  10:42:00       71.350     -132.218      -33.549       72.021       75.566       49.373     5186.974     5710.221     2437.699        1.851        0.667      150.241       36.445        0.059      336.057        7.103      863.017
01/06/2022  10:43:00       72.693     -153.643      -32.161       47.056       38.345       32.963     2214.242     1470.308     1086.535        1.735        0.239      169.972       23.104        0.018      335.910        6.857      863.019
01/06/2022  10:44:00       71.510      -93.805      -33.175       49.303       99.438       32.702     2430.796     9887.819     1069.432        1.420        0.669      117.954       33.505        0.081      336.069        7.123      863.009
01/06/2022  10:45:00       17.027        8.838      -15.380       31.647       66.288       25.805     1001.511     4394.138      665.917        0.333        0.303       19.184       17.507        0.833      336.199        7.340      862.999
01/06/2022  10:46:00       47.316       28.268       -8.644       54.693       55.691       36.226     2991.323     3101.494     1312.326        0.526        0.370       55.117       20.103        0.133      336.445        7.752      862.962
01/06/2022  10:47:00       38.529       26.426       -8.993       88.158       52.740       41.189     7771.801     2781.548     1696.529        0.725        0.612       46.721       35.485        0.577      336.411        7.694      862.918
01/06/2022  10:48:00      154.918       37.560      -33.667       53.488       53.690       34.027     2860.932     2882.568     1157.860        1.672        0.345      159.407       19.403        0.015      336.220        7.374      862.895
01/06/2022  10:49:00      104.511       70.843      -13.851       48.999       28.578       30.228     2400.927      816.707      913.759        1.013        0.207      126.259       21.597        0.029      335.966        6.952      862.900
01/06/2022  10:50:00        3.065       13.213      -23.237       73.688       44.142       38.070     5429.889     1948.554     1449.319        0.477        0.441       13.564       11.872        0.766      336.277        7.471      862.886
01/06/2022  10:51:00       97.683       10.548      -30.772       53.640       38.010       21.653     2877.223     1444.775      468.844        0.769        0.240       98.251        7.195        0.005      335.924        6.883      862.882
01/06/2022  10:52:00        2.284       22.022       -3.903       51.361       42.317       28.004     2637.972     1790.730      784.248        0.286        0.261       22.140       23.699        1.146      336.234        7.398      862.887
01/06/2022  10:53:00      -13.583      -15.809       -5.795       16.230       24.916       19.582      263.410      620.820      383.458        0.087        0.063       20.843        8.214        0.155      336.592        7.997      862.880
01/06/2022  10:54:00      -21.393      -52.672       -0.789       32.931       39.865       28.784     1084.450     1589.208      828.501        0.337        0.175       56.851       20.865        0.135      336.546        7.919      862.864
01/06/2022  10:55:00       37.063        6.280      -11.302       46.421       59.870       41.055     2154.954     3584.426     1685.551        0.448        0.371       37.591       31.448        0.700      336.532        7.897      862.856
01/06/2022  10:56:00       21.779      -69.690      -10.702       32.679       47.481       35.355     1067.934     2254.452     1249.970        0.501        0.229       73.014       17.185        0.055      336.421        7.712      862.850
01/06/2022  10:57:00      -17.568      -15.393      -18.451       52.588       56.362       33.839     2765.463     3176.647     1145.060        0.399        0.354       23.358       28.896        1.530      336.515        7.868      862.864
01/06/2022  10:58:00        7.433        2.447      -11.097       52.126       54.610       32.383     2717.120     2982.291     1048.648        0.346        0.337        7.825       18.142        5.375      336.380        7.643      862.889
01/06/2022  10:59:00       -4.853      -47.251      -12.863       58.403       60.276       33.262     3410.965     3633.205     1106.333        0.528        0.408       47.500       25.549        0.289      336.474        7.801      862.871
01/06/2022  11:00:00       -2.653       -6.978      -11.837       60.259       80.787       45.098     3631.154     6526.574     2033.815        0.619        0.610        7.465       38.969       27.250      336.655        8.105      862.830
01/06/2022  11:01:00       66.980      -68.847      -19.645       51.211       59.673       40.300     2622.585     3560.905     1624.055        0.871        0.390       96.053       24.509        0.065      336.511        7.863      862.780
01/06/2022  11:02:00       12.563      -33.642      -22.071       41.625       54.607       35.158     1732.623     2981.893     1236.106        0.386        0.298       35.912       26.818        0.558      336.664        8.118      862.760
01/06/2022  11:03:00       41.628      -86.927      -12.131       45.971       61.814       26.766     2113.354     3821.019      716.411        0.804        0.333       96.380       20.623        0.046      336.497        7.838      862.754
01/06/2022  11:04:00       75.790     -137.416      -31.376       52.199       65.561       38.353     2724.703     4298.230     1470.933        1.705        0.425      156.931       38.286        0.060      336.358        7.606      862.717
01/06/2022  11:05:00       33.961      -31.313      -12.630       42.684       91.337       48.625     1821.923     8342.509     2364.427        0.741        0.626       46.194       26.476        0.329      336.587        7.989      862.665
01/06/2022  11:06:00      -14.118      -13.873       -0.260       25.586       35.967       28.176      654.638     1293.644      793.868        0.157        0.137       19.793       16.316        0.680      336.856        8.437      862.638
01/06/2022  11:07:00       18.964      -61.908        0.692       52.277       67.343       47.133     2732.935     4535.127     2221.520        0.684        0.474       64.747       36.100        0.311      336.694        8.167      862.627
01/06/2022  11:08:00      100.131     -145.956      -40.503       48.020       58.092       45.002     2305.897     3374.688     2025.196        2.034        0.385      177.001       25.446        0.021      336.335        7.566      862.600
01/06/2022  11:09:00       17.668      -22.433      -22.850       54.363       69.385       28.723     2955.362     4814.224      825.003        0.496        0.430       28.555       17.851        0.391      336.573        7.966      862.572
01/06/2022  11:10:00       45.858      -84.505      -32.450       87.865       77.395       35.057     7720.231     5989.947     1229.025        1.262        0.747       96.146       41.919        0.190      336.469        7.791      862.547
01/06/2022  11:11:00       18.567      -58.042       -6.562       53.069       80.117       39.331     2816.338     6418.813     1546.891        0.727        0.539       60.940       31.844        0.273      336.573        7.965      862.552
01/06/2022  11:12:00      -10.322       -0.477       -7.487       30.146       31.574       26.073      908.768      996.910      679.791        0.137        0.129       10.333       12.251        1.406      336.864        8.452      862.550
01/06/2022  11:13:00       42.248        3.473      -29.583       59.836       89.658       44.739     3580.364     8038.502     2001.578        0.814        0.681       42.391       34.774        0.673      336.714        8.202      862.503
01/06/2022  11:14:00      -13.099       10.164      -11.818       65.718       57.511       46.661     4318.887     3307.537     2177.254        0.511        0.490       16.580       42.886        6.691      336.776        8.304      862.473
01/06/2022  11:15:00        2.931      -47.857       -4.391       51.125       64.483       48.541     2613.760     4158.118     2356.242        0.572        0.456       47.947       47.469        0.980      336.738        8.241      862.494
01/06/2022  11:16:00      -25.979       -5.849      -11.928       43.736       28.086       25.753     1912.867      788.839      663.219        0.211        0.168       26.630       11.959        0.202      336.841        8.415      862.519
01/06/2022  11:17:00      -33.375      -14.796        1.112       39.963       35.024       29.709     1597.004     1226.669      882.603        0.252        0.185       36.508       14.856        0.166      336.904        8.519      862.515
01/06/2022  11:18:00       91.710     -150.806      -36.940       50.873       61.883       30.029     2588.032     3829.535      901.736        1.992        0.366      176.502       31.689        0.032      336.636        8.069      862.476
01/06/2022  11:19:00      116.178     -208.230      -49.639       37.074       65.710       18.105     1374.487     4317.855      327.805        3.267        0.301      238.447       16.031        0.005      336.279        7.470      862.410
01/06/2022  11:20:00       82.832      -88.709      -28.985       74.008       87.899       49.827     5477.217     7726.211     2482.691        1.563        0.784      121.369       34.943        0.083      336.738        8.241      862.375
01/06/2022  11:21:00       54.606     -176.830      -28.437       45.129       59.661       41.875     2036.588     3559.390     1753.517        2.120        0.367      185.070       25.408        0.019      336.571        7.961      862.371
01/06/2022  11:22:00       77.937     -188.424      -38.822       40.870       45.804       27.419     1670.342     2098.050      751.793        2.380        0.226      203.906       24.792        0.015      336.405        7.681      862.377
01/06/2022  11:23:00      154.616     -182.153      -62.192       47.741       48.452       31.461     2279.244     2347.584      989.769        3.328        0.281      238.926       25.891        0.012      336.323        7.543      862.368
01/06/2022  11:24:00      125.007     -119.069      -37.095       61.776       83.734       42.705     3816.274     7011.374     1823.758        2.191        0.633      172.639       43.077        0.062      336.504        7.849      862.351
01/06/2022  11:25:00       68.556     -194.441      -37.703       26.671       39.163       21.802      711.317     1533.729      475.332        2.332        0.136      206.173        4.578        0.000      336.389        7.656      862.323
01/06/2022  11:26:00       91.383     -184.176      -45.228       54.969       46.402       30.975     3021.641     2153.119      959.434        2.522        0.307      205.601       26.173        0.016      336.624        8.047      862.299
01/06/2022  11:27:00       85.669     -153.707      -36.789       45.359       42.192       32.099     2057.410     1780.147     1030.326        1.859        0.243      175.969       25.427        0.021      336.558        7.940      862.265
01/06/2022  11:28:00       84.394     -143.763      -43.552       64.326       79.183       51.170     4137.819     6269.956     2618.356        2.135        0.651      166.704       43.279        0.067      336.709        8.190      862.221
01/06/2022  11:29:00       63.094     -156.590      -34.896       57.484       51.452       26.854     3304.388     2647.314      721.134        1.819        0.334      168.824       26.013        0.024      336.344        7.581      862.181
01/06/2022  11:30:00       13.681     -131.182      -24.530       27.834       47.891       34.553      774.712     2293.588     1193.906        1.113        0.213      131.893       12.744        0.009      336.503        7.849      862.160
01/06/2022  11:31:00       46.730      -77.285      -21.226       40.776       50.342       30.898     1662.713     2534.357      954.662        0.688        0.258       90.314       29.696        0.108      336.623        8.049      862.155
01/06/2022  11:32:00       96.063     -110.158      -41.322       52.026       40.437       27.319     2706.736     1635.120      746.326        1.408        0.254      146.160       19.583        0.018      336.669        8.126      862.145
01/06/2022  11:33:00       46.617     -163.891      -31.683       51.756       42.089       28.984     2678.658     1771.465      840.049        1.766        0.265      170.392       27.612        0.026      336.705        8.185      862.130
01/06/2022  11:34:00       65.589      -14.542      -67.549       50.977       66.954       35.732     2598.646     4482.772     1276.770        0.872        0.418       67.182       19.975        0.088      337.080        8.813      862.104
01/06/2022  11:35:00      119.705     -176.201      -59.028       57.831       52.960       35.142     3344.457     2804.800     1234.967        2.812        0.369      213.017       18.990        0.008      336.519        7.871      862.080
01/06/2022  11:36:00       41.603     -129.239      -23.911       44.818       35.508       39.214     2008.645     1260.840     1537.718        1.191        0.240      135.770       32.485        0.057      336.547        7.921      862.075
01/06/2022  11:37:00       71.869     -140.774      -42.488       53.729       46.041       35.019     2886.809     2119.766     1226.308        1.651        0.312      158.059       19.682        0.016      336.588        7.990      862.078
01/06/2022  11:38:00       44.182       -5.279      -25.981       42.298       67.059       30.528     1789.147     4496.865      931.943        0.494        0.361       44.496       17.024        0.146      336.848        8.424      862.078
01/06/2022  11:39:00       44.074        9.171      -19.707       36.647       48.094       23.079     1343.009     2313.027      532.652        0.330        0.209       45.018       17.913        0.158      336.744        8.252      862.065
01/06/2022  11:40:00       28.815       -8.735       -8.821       51.598       31.691       34.907     2662.366     1004.334     1218.488        0.293        0.244       30.110       19.331        0.412      337.005        8.687      862.031
01/06/2022  11:41:00        6.608      -79.260      -14.758       37.369       65.708       33.904     1396.423     4317.484     1149.447        0.670        0.343       79.535       31.853        0.160      336.879        8.477      862.020
01/06/2022  11:42:00       96.771     -122.553      -37.516       53.601       65.096       34.719     2873.086     4237.462     1205.434        1.705        0.416      156.153       15.761        0.010      336.743        8.250      861.996
01/06/2022  11:43:00       -0.616       17.572      -30.720       33.565       58.957       33.449     1126.630     3475.928     1118.827        0.349        0.286       17.583       13.511        0.590      337.259        9.113      861.960
01/06/2022  11:44:00       10.256       -7.724      -38.240       40.463       41.223       33.077     1637.224     1699.369     1094.081        0.303        0.222       12.840       16.940        1.741      337.157        8.943      861.933
01/06/2022  11:45:00       35.892      -75.622      -26.457       74.864       72.716       44.848     5604.628     5287.570     2011.361        1.030        0.645       83.707       45.398        0.294      336.886        8.489      861.925
01/06/2022  11:46:00       66.487     -115.822      -36.636       59.593       51.899       37.722     3551.365     2693.519     1422.941        1.342        0.383      133.549       26.587        0.040      336.746        8.255      861.905
01/06/2022  11:47:00       20.902     -115.059      -39.378       34.222       42.690       34.608     1171.165     1822.425     1197.687        0.971        0.210      116.942       18.422        0.025      336.679        8.143      861.893
01/06/2022  11:48:00       45.836     -108.168      -28.103       45.411       35.961       30.359     2062.197     1293.196      921.682        0.943        0.214      117.478       21.663        0.034      336.791        8.330      861.877
01/06/2022  11:49:00        4.713      -49.379      -17.322       40.095       57.216       35.177     1607.572     3273.714     1237.437        0.444        0.306       49.603       15.689        0.100      336.915        8.537      861.851
01/06/2022  11:50:00        8.852        4.131       -0.075       30.348       34.788       25.285      920.983     1210.224      639.325        0.143        0.139        9.768       12.426        1.618      337.382        9.318      861.830
01/06/2022  11:51:00       27.101       22.759       -9.609       46.823       41.872       20.763     2192.378     1753.263      431.121        0.286        0.219       35.390       13.406        0.144      337.297        9.177      861.783
01/06/2022  11:52:00       40.597      -88.094      -27.338       63.500       79.137       33.205     4032.225     6262.668     1102.575        1.077        0.570       96.998       32.343        0.111      337.074        8.803      861.762
01/06/2022  11:53:00       38.225      -98.542      -29.186       49.800       47.902       30.516     2480.052     2294.572      931.236        0.886        0.285      105.696       14.438        0.019      337.156        8.940      861.768
01/06/2022  11:54:00       11.695      -68.799      -25.535       43.064       44.324       33.132     1854.507     1964.636     1097.703        0.522        0.246       69.786       14.594        0.044      337.484        9.488      861.748
01/06/2022  11:55:00       82.640      -12.487      -26.551       17.874       49.307       16.908      319.486     2431.196      285.894        0.536        0.152       83.578       12.981        0.024      336.886        8.488      861.727
01/06/2022  11:56:00       30.215       -8.080      -19.840       54.458       26.802       21.350     2965.684      718.357      455.830        0.276        0.207       31.277       14.169        0.205      337.026        8.722      861.691
01/06/2022  11:57:00       42.433      -66.312      -25.409       64.551       57.214       35.425     4166.783     3273.386     1254.964        0.777        0.435       78.726       22.425        0.081      337.301        9.183      861.664
01/06/2022  11:58:00      -13.211      -11.726       -4.601       36.246       20.782       14.262     1313.798      431.911      203.414        0.114        0.097       17.664        7.541        0.182      337.499        9.515      861.656
01/06/2022  11:59:00      -26.106      -29.404      -13.898       47.881       36.447       35.507     2292.553     1328.375     1260.724        0.331        0.244       39.320       28.006        0.507      337.567        9.628      861.645
01/06/2022  12:00:00       58.714     -120.748      -31.407       49.123       62.882       31.309     2413.056     3954.099      980.237        1.318        0.367      134.267       28.194        0.044      337.107        8.857      861.602
01/06/2022  12:01:00       76.643     -129.529      -40.039       25.166       32.898       17.899      633.323     1082.294      320.390        1.315        0.102      150.506       15.129        0.010      336.841        8.414      861.555
01/06/2022  12:02:00       49.029      -91.721      -31.007       34.518       51.252       28.467     1191.509     2626.778      810.386        0.820        0.231      104.003       26.912        0.067      337.159        8.944      861.533
01/06/2022  12:03:00       33.995      -82.307      -11.202       42.610       41.951       28.123     1815.624     1759.908      790.918        0.621        0.218       89.051       22.295        0.063      337.189        8.996      861.530
01/06/2022  12:04:00       76.150      -50.425      -24.992       32.307       26.352       20.544     1043.771      694.408      422.043        0.556        0.108       91.332       16.941        0.034      336.962        8.615      861.503
01/06/2022  12:05:00       77.366       59.679      -27.275       33.775       67.484       25.221     1140.720     4554.095      636.122        0.831        0.317       97.709       16.518        0.029      337.010        8.696      861.442
01/06/2022  12:06:00       55.699       36.394      -24.340       29.517       25.679       27.351      871.237      659.407      748.071        0.365        0.114       66.535       19.578        0.087      337.093        8.836      861.415
01/06/2022  12:07:00      -57.219       36.586      -13.431       49.466       35.864       23.000     2446.908     1286.219      528.988        0.453        0.213       67.915       15.066        0.049      337.479        9.481      861.391
01/06/2022  12:08:00      -38.198        0.461      -14.223       46.820       35.872       26.594     2192.140     1286.795      707.246        0.292        0.209       38.201       12.424        0.106      337.406        9.357      861.370
01/06/2022  12:09:00       -1.316       -8.793       -4.917       31.072       25.550       24.847      965.454      652.781      617.358        0.117        0.112        8.891       17.007        3.659      337.669        9.799      861.343
01/06/2022  12:10:00      -39.853       -2.132      -13.575       29.005       21.473       15.641      841.265      461.097      244.630        0.166        0.077       39.910       11.195        0.079      337.509        9.532      861.285
01/06/2022  12:11:00      -20.992       -9.659        3.891       45.184       36.960       38.779     2041.592     1366.067     1503.841        0.273        0.246       23.108       19.716        0.728      337.755        9.942      861.239
01/06/2022  12:12:00       -0.278       33.531      -13.094       33.282       28.466       15.926     1107.666      810.316      253.628        0.173        0.109       33.532        6.306        0.035      337.615        9.710      861.221
01/06/2022  12:13:00      -54.498       35.209      -12.398       40.766       37.987       20.490     1661.870     1443.020      419.839        0.394        0.176       64.882       14.931        0.053      337.619        9.716      861.216
01/06/2022  12:14:00      -48.373       38.978      -21.798       43.706       24.295       18.538     1910.179      590.268      343.650        0.359        0.142       62.123       13.981        0.051      337.652        9.771      861.215
01/06/2022  12:15:00      -56.433       29.373      -21.216       40.403       30.526       22.740     1632.377      931.851      517.089        0.379        0.154       63.619       12.394        0.038      337.731        9.903      861.213
01/06/2022  12:16:00       31.680       27.835       -2.895       26.091       33.297       19.318      680.740     1108.673      373.168        0.197        0.108       42.171        9.587        0.052      337.912       10.207      861.211
01/06/2022  12:17:00       90.227       44.061      -15.117       54.981       47.047       19.211     3022.929     2213.395      369.066        0.796        0.280      100.410       14.640        0.021      337.738        9.916      861.185
01/06/2022  12:18:00      101.155       49.564      -26.858       66.731       41.620       31.272     4453.003     1732.218      977.956        1.029        0.358      112.645       14.422        0.016      337.792       10.005      861.130
01/06/2022  12:19:00       12.717       30.980      -19.820       55.304       67.534       46.534     3058.585     4560.903     2165.385        0.565        0.489       33.489       33.433        0.997      337.940       10.253      861.068
01/06/2022  12:20:00       50.066       38.121      -17.315       64.364       42.992       30.430     4142.788     1848.294      926.001        0.559        0.346       62.927       21.192        0.113      337.770        9.969      861.063
01/06/2022  12:21:00       82.214       69.874        3.893       48.071       39.573       25.214     2310.815     1566.055      635.752        0.808        0.226      107.896       17.458        0.026      337.866       10.129      861.066
01/06/2022  12:22:00       60.827       38.403      -10.606       43.647       35.909       23.603     1905.054     1289.447      557.087        0.452        0.188       71.935       13.511        0.035      338.022       10.391      861.062
01/06/2022  12:23:00      111.841       68.545      -21.989       56.896       32.033       21.325     3237.130     1026.120      454.736        1.120        0.236      131.175        5.812        0.002      337.621        9.719      861.058
01/06/2022  12:24:00       50.859       59.692      -13.967       30.510       33.850       25.093      930.844     1145.846      629.639        0.453        0.135       78.421       19.568        0.062      337.898       10.183      861.040
01/06/2022  12:25:00      161.286       17.441      -23.980       54.719       46.910       34.734     2994.199     2200.586     1206.432        1.665        0.320      162.226       10.544        0.004      337.794       10.008      861.024
01/06/2022  12:26:00      185.297       59.801      -30.518       46.816       55.243       35.282     2191.747     3051.814     1244.801        2.266        0.324      194.708       24.482        0.016      337.716        9.875      861.005
01/06/2022  12:27:00       92.725       87.953      -20.415       64.122       45.282       33.050     4111.567     2050.449     1092.330        1.200        0.363      127.803       25.352        0.039      337.806       10.029      860.996
01/06/2022  12:28:00       57.394       65.447       -8.583       42.787       45.328       33.007     1830.738     2054.623     1089.482        0.631        0.249       87.048       18.685        0.046      338.054       10.446      860.986
01/06/2022  12:29:00       41.169       37.975      -20.782       31.841       32.128       22.665     1013.842     1032.206      513.722        0.306        0.128       56.009       19.433        0.120      337.883       10.157      860.976
01/06/2022  12:30:00       58.826       24.686      -20.073       28.448       25.309       16.908      809.304      640.529      285.874        0.310        0.087       63.796        7.830        0.015      337.814       10.043      860.946
01/06/2022  12:31:00      122.738        9.464      -30.963       62.990       63.204       34.240     3967.696     3994.691     1172.399        1.262        0.457      123.102       23.629        0.037      338.086       10.498      860.875
01/06/2022  12:32:00       91.099       29.053      -34.665       78.806       96.520       37.085     6210.319     9316.100     1375.314        1.362        0.845       95.619       31.157        0.106      338.202       10.693      860.815
01/06/2022  12:33:00       27.902       -8.328      -39.832       56.385       67.803       54.475     3179.277     4597.282     2967.483        0.659        0.537       29.118       37.720        1.678      338.226       10.733      860.762
01/06/2022  12:34:00       65.234       26.097      -17.998       77.937       45.191       33.357     6074.235     2042.260     1112.669        0.724        0.461       70.260       30.396        0.187      338.234       10.746      860.737
01/06/2022  12:35:00       11.530       58.087       -6.256       37.981       52.349       25.263     1442.547     2740.447      638.244        0.418        0.241       59.220       20.871        0.124      338.290       10.840      860.727
01/06/2022  12:36:00       14.870       80.968      -17.031       29.092       27.794       23.255      846.348      772.484      540.775        0.461        0.108       82.323       14.179        0.030      338.151       10.607      860.741
01/06/2022  12:37:00       79.802       40.094      -14.880       36.094       24.460       17.952     1302.807      598.278      322.276        0.521        0.111       89.307        4.583        0.003      338.055       10.449      860.747
01/06/2022  12:38:00       70.788       55.315       -7.480       33.597       39.812       31.680     1128.775     1584.958     1003.653        0.592        0.186       89.837       20.222        0.051      338.149       10.603      860.722
01/06/2022  12:39:00      106.904     -131.522      -57.834       52.172       89.199       48.588     2721.872     7956.376     2360.801        2.255        0.652      169.489       40.993        0.058      337.935       10.244      860.664
01/06/2022  12:40:00       85.799      -77.129      -36.808       79.254      102.389       45.256     6281.267    10483.558     2048.148        1.674        0.941      115.371       46.269        0.161      338.099       10.518      860.629
01/06/2022  12:41:00       59.671     -144.634      -38.767       59.546       44.835       27.840     3545.753     2010.189      775.078        1.616        0.317      156.460       21.856        0.020      338.108       10.534      860.652
01/06/2022  12:42:00       -7.052      -72.947      -18.867       31.209       30.482       17.727      973.977      929.124      314.235        0.397        0.111       73.287        5.271        0.005      338.032       10.407      860.678
01/06/2022  12:43:00      -26.649      -30.857      -22.330       31.237       33.778       23.217      975.727     1140.928      539.019        0.241        0.133       40.772       16.357        0.161      338.398       11.023      860.699
01/06/2022  12:44:00       44.556      -37.926      -23.982       51.024       28.038       25.785     2603.439      786.139      664.858        0.403        0.203       58.512       19.417        0.110      338.296       10.851      860.688
01/06/2022  12:45:00       13.895       -1.533      -11.669       39.134       37.295       22.158     1531.499     1390.892      490.963        0.187        0.171       13.979       24.271        3.014      338.059       10.454      860.670
01/06/2022  12:46:00       16.039       43.867      -12.146       38.049       34.852       17.927     1447.730     1214.628      321.369        0.266        0.149       46.707       17.004        0.133      338.286       10.835      860.622
01/06/2022  12:47:00      -24.478       38.998        4.413       47.869       35.675       26.552     2291.403     1272.691      704.983        0.320        0.213       46.044       15.944        0.120      338.562       11.297      860.596
01/06/2022  12:48:00       -1.601       -9.853      -11.823       36.211       51.199       28.934     1311.255     2621.315      837.186        0.250        0.238        9.982        9.996        1.003      338.367       10.972      860.600
01/06/2022  12:49:00       35.830        2.476      -20.743       45.167       87.137       38.485     2040.056     7592.931     1481.107        0.642        0.556       35.915       28.394        0.625      338.292       10.844      860.590
01/06/2022  12:50:00       68.789       46.888      -22.585       60.534       77.850       34.304     3664.425     6060.616     1176.759        0.917        0.545       83.249       15.027        0.033      338.359       10.955      860.573
01/06/2022  12:51:00       89.611       43.491      -40.527       74.151       75.988       30.032     5498.397     5774.156      901.907        1.187        0.609       99.607       27.007        0.074      338.319       10.888      860.543
01/06/2022  12:52:00       37.238      -79.796      -28.982       45.936       87.580       33.019     2110.143     7670.236     1090.285        0.973        0.544       88.058       27.346        0.096      338.478       11.157      860.513
01/06/2022  12:53:00       83.936      -17.319      -19.662       82.188       52.197       40.080     6754.883     2724.530     1606.434        0.941        0.554       85.704       28.817        0.113      338.446       11.104      860.464
01/06/2022  12:54:00      122.919        0.683      -19.001      117.996       42.680       26.475    13922.985     1821.568      700.912        1.595        0.822      122.921       28.025        0.052      338.215       10.714      860.458
01/06/2022  12:55:00      -27.543       -9.420      -26.699       56.236       36.588       25.922     3162.440     1338.712      671.942        0.337        0.259       29.110       17.532        0.363      338.516       11.220      860.439
01/06/2022  12:56:00      100.578       -5.491      -37.241       72.781       52.331       32.068     5297.097     2738.495     1028.338        1.030        0.453      100.727       21.854        0.047      338.274       10.814      860.442
01/06/2022  12:57:00        7.681       -6.708       -6.805       46.494       40.313       29.468     2161.713     1625.127      868.350        0.240        0.233       10.198       16.473        2.609      338.568       11.307      860.455
01/06/2022  12:58:00       58.848     -126.334      -34.830       42.582       83.476       40.666     1813.222     6968.313     1653.686        1.553        0.522      139.368       35.627        0.065      338.529       11.241      860.461
01/06/2022  12:59:00       72.437     -193.130      -32.615       37.898       46.822       28.850     1436.242     2192.332      832.297        2.403        0.223      206.268       17.103        0.007      338.317       10.883      860.440
01/06/2022  13:00:00       52.598     -131.712      -24.507       52.745       45.595       36.180     2782.039     2078.886     1309.020        1.344        0.308      141.826       25.693        0.033      338.399       11.023      860.388
01/06/2022  13:01:00       84.716     -190.018      -33.339       31.595       35.914       27.491      998.261     1289.800      755.763        2.372        0.152      208.047       20.061        0.009      338.208       10.700      860.310
01/06/2022  13:02:00       31.132     -118.479      -26.301       40.889       35.739       25.598     1671.881     1277.286      655.242        0.965        0.180      122.501       17.454        0.020      338.589       11.342      860.267
01/06/2022  13:03:00      -46.230      -29.048       -5.855       46.723       47.627       21.759     2183.012     2268.360      473.459        0.397        0.246       54.598       16.901        0.096      338.715       11.555      860.251
01/06/2022  13:04:00       -4.041      -36.192       -6.295       20.001       42.560       24.227      400.049     1811.359      586.949        0.208        0.140       36.417        7.917        0.047      338.965       11.975      860.255
01/06/2022  13:05:00       31.692      -50.093      -27.168       36.389       36.981       24.338     1324.156     1367.570      592.352        0.377        0.164       59.276       12.915        0.047      338.780       11.665      860.220
01/06/2022  13:06:00       57.336      -33.774      -19.343       49.746       68.470       31.697     2474.646     4688.176     1004.731        0.648        0.408       66.544       26.890        0.163      338.480       11.161      860.166
01/06/2022  13:07:00       53.939       24.986      -11.161       64.258       67.864       39.167     4129.074     4605.503     1534.089        0.696        0.513       59.445       23.671        0.159      338.573       11.315      860.090
01/06/2022  13:08:00       22.368     -107.222      -23.712       63.223       86.663       35.818     3997.110     7510.556     1282.917        1.267        0.640      109.530       32.938        0.090      338.685       11.505      860.044
01/06/2022  13:09:00       36.514     -140.936      -36.183       34.799       38.012       26.115     1210.995     1444.891      681.986        1.292        0.167      145.589       16.110        0.012      338.398       11.022      860.037
01/06/2022  13:10:00       37.273      -93.452      -22.514       27.814       50.640       33.626      773.643     2564.419     1130.740        0.755        0.223      100.611       19.316        0.037      338.721       11.563      860.048
01/06/2022  13:11:00       -8.718      -34.939      -14.622       67.054       49.366       36.587     4496.205     2436.995     1338.582        0.489        0.414       36.010       22.815        0.401      338.920       11.899      860.045
01/06/2022  13:12:00       80.515     -200.727      -41.404       42.875       73.775       32.526     1838.261     5442.718     1057.917        2.841        0.417      216.273       21.334        0.010      338.611       11.377      860.030
01/06/2022  13:13:00       95.914     -150.147      -40.476       29.102       50.906       26.021      846.945     2591.380      677.070        1.875        0.206      178.168       19.934        0.013      338.420       11.058      860.004
01/06/2022  13:14:00       75.398     -145.841      -34.746       31.345       95.642       25.714      982.521     9147.452      661.210        1.947        0.540      164.178       29.360        0.032      338.302       10.858      859.979
01/06/2022  13:15:00      142.043     -195.140      -56.041       49.396       74.847       33.957     2439.969     5602.147     1153.079        3.529        0.460      241.363       27.602        0.013      338.317       10.880      859.920
01/06/2022  13:16:00       88.590     -192.105      -41.921       83.132      110.014       46.201     6910.913    12103.159     2134.556        3.383        1.057      211.548       47.949        0.051      338.477       11.152      859.878
01/06/2022  13:17:00       84.058     -216.224      -48.060       34.761       48.684       23.176     1208.330     2370.106      537.143        3.012        0.206      231.988       13.484        0.003      338.247       10.762      859.860
01/06/2022  13:18:00       70.210      -76.627      -31.686       44.558       79.960       40.775     1985.390     6393.587     1662.563        1.092        0.502      103.928       30.166        0.084      338.619       11.393      859.847
01/06/2022  13:19:00      -24.620      -37.844      -13.710       39.314       38.251       21.768     1545.621     1463.115      473.847        0.285        0.174       45.148       15.857        0.123      338.920       11.901      859.850
01/06/2022  13:20:00      -16.676      -73.367      -29.664       74.700       48.593       35.145     5580.065     2361.327     1235.190        0.786        0.459       75.238       29.904        0.158      338.866       11.808      859.850
01/06/2022  13:21:00       28.753     -122.647      -21.813       42.970       90.989       36.358     1846.384     8278.908     1321.884        1.389        0.572      125.972       34.293        0.074      338.810       11.712      859.835
01/06/2022  13:22:00       78.846     -169.423      -44.665       31.052       83.051       27.952      964.234     6897.545      781.291        2.278        0.432      186.871       18.765        0.010      338.639       11.425      859.809
01/06/2022  13:23:00       97.853     -163.460      -41.469       62.860       80.354       45.141     3951.396     6456.789     2037.674        2.523        0.622      190.511       34.661        0.033      338.701       11.530      859.778
01/06/2022  13:24:00      125.929     -193.197      -60.739       33.725       56.396       25.831     1137.342     3180.490      667.221        3.093        0.249      230.615       15.080        0.004      338.579       11.322      859.764
01/06/2022  13:25:00       46.298      -48.359      -35.164       51.601       54.390       33.858     2662.676     2958.255     1146.351        0.624        0.338       66.949       31.205        0.217      338.846       11.773      859.751
01/06/2022  13:26:00       40.539     -106.320      -31.161       63.627       70.939       30.915     4048.390     5032.390      955.717        1.198        0.502      113.787       30.940        0.074      338.640       11.430      859.762
01/06/2022  13:27:00      110.939      -83.886      -30.169       43.027       45.898       26.977     1851.350     2106.639      727.772        1.247        0.234      139.084       20.438        0.022      338.489       11.175      859.771
01/06/2022  13:28:00       31.445      -23.401       -6.904       65.001       37.888       37.062     4225.185     1435.502     1373.590        0.431        0.352       39.197       22.745        0.337      338.756       11.624      859.770
01/06/2022  13:29:00      -42.141      -55.605      -13.135       76.461       59.223       31.571     5846.261     3507.383      996.751        0.769        0.518       69.769       11.162        0.026      338.771       11.648      859.752
01/06/2022  13:30:00       29.561      -77.667      -30.651       60.486       61.381       42.851     3658.569     3767.607     1836.171        0.855        0.463       83.103       27.007        0.106      338.907       11.878      859.725
01/06/2022  13:31:00      -16.896      -36.577      -22.229       50.493       47.642       32.150     2549.575     2269.803     1033.651        0.398        0.293       40.291       23.187        0.331      339.076       12.161      859.724
01/06/2022  13:32:00       33.870      -99.371      -14.668       51.067       48.247       34.436     2607.819     2327.741     1185.843        0.868        0.306      104.984       22.750        0.047      339.143       12.275      859.736
01/06/2022  13:33:00       53.361     -168.863      -25.718       46.344       65.516       40.244     2147.733     4292.306     1619.573        2.004        0.403      177.093       37.779        0.046      338.759       11.626      859.735
01/06/2022  13:34:00       92.310     -163.633      -47.667       28.799       41.492       26.527      829.387     1721.610      703.661        2.041        0.163      187.875       17.133        0.008      338.565       11.302      859.728
01/06/2022  13:35:00      101.393      -53.482      -37.894       40.483       40.191       29.994     1638.895     1615.329      899.626        0.936        0.208      114.634       27.915        0.059      338.734       11.587      859.690
01/06/2022  13:36:00       72.067      -15.535      -23.877       33.673       32.714       24.952     1133.883     1070.196      622.624        0.442        0.141       73.723       20.072        0.074      338.746       11.606      859.635
01/06/2022  13:37:00       61.486       -9.401      -13.369       39.744       47.435       36.838     1579.601     2250.125     1357.007        0.462        0.259       62.200       25.267        0.165      338.956       11.959      859.584
01/06/2022  13:38:00       40.421       -6.707      -12.826       60.094       51.828       31.062     3611.303     2686.179      964.821        0.455        0.363       40.974       21.814        0.283      339.059       12.133      859.563
01/06/2022  13:39:00      111.504       -6.141       -3.172       70.889       41.317       34.510     5025.284     1707.089     1190.921        1.020        0.396      111.673       33.830        0.092      338.885       11.841      859.568
01/06/2022  13:40:00        5.114        3.213      -12.586       38.413       30.900       21.757     1475.560      954.841      473.354        0.155        0.145        6.040       14.429        5.707      339.232       12.423      859.578
01/06/2022  13:41:00       86.307        0.488      -14.347       41.605       33.057       28.629     1730.995     1092.749      819.613        0.565        0.182       86.309       18.607        0.046      339.037       12.095      859.572
01/06/2022  13:42:00       61.353        8.454      -18.790       58.304       57.738       37.415     3399.411     3333.705     1399.856        0.616        0.407       61.933       28.368        0.210      339.095       12.195      859.524
01/06/2022  13:43:00       21.920      -22.718      -15.351       55.193       58.405       28.778     3046.285     3411.172      828.177        0.426        0.364       31.569       17.576        0.310      339.140       12.269      859.480
01/06/2022  13:44:00       16.067      -20.805      -14.727       34.507       61.856       30.320     1190.716     3826.208      919.327        0.342        0.297       26.287       25.016        0.906      339.180       12.338      859.450
01/06/2022  13:45:00       31.776      -85.303      -21.970       36.111       47.026       27.183     1304.021     2211.446      738.920        0.651        0.213       91.030       19.817        0.047      339.173       12.326      859.418
01/06/2022  13:46:00       -7.675      -72.030      -12.478       67.337       87.011       38.063     4534.225     7570.836     1448.793        0.948        0.678       72.437       42.280        0.341      339.198       12.367      859.407
01/06/2022  13:47:00       72.348      -96.810      -29.601       33.047       65.178       25.953     1092.133     4248.205      673.573        1.075        0.301      120.857       15.121        0.016      338.835       11.756      859.402
01/06/2022  13:48:00       60.023      -94.058      -28.104       66.119       48.884       29.049     4371.776     2389.651      843.840        1.042        0.380      111.578       32.391        0.084      339.108       12.214      859.395
01/06/2022  13:49:00       48.297      -39.988      -18.975       52.343       38.394       25.343     2739.835     1474.135      642.242        0.457        0.243       62.703       17.057        0.074      338.977       11.995      859.389
01/06/2022  13:50:00        2.683      -50.968      -11.961       44.107       64.323       26.190     1945.439     4137.427      685.919        0.476        0.338       51.039       21.181        0.172      339.144       12.274      859.384
01/06/2022  13:51:00      -61.132      -35.491       -6.467       29.730       26.746       26.517      883.872      715.369      703.130        0.367        0.115       70.688       14.984        0.045      339.122       12.239      859.375
01/06/2022  13:52:00      -30.257      -15.342      -27.480       29.101       30.545       17.890      846.879      932.995      320.068        0.200        0.105       33.925       10.598        0.098      339.157       12.297      859.342
01/06/2022  13:53:00        9.578       28.289      -12.771       33.799       33.091       22.140     1142.347     1095.041      490.192        0.189        0.136       29.867       21.975        0.541      339.044       12.107      859.318
01/06/2022  13:54:00       47.065        8.449      -28.084       38.240       42.715       24.302     1462.334     1824.602      590.573        0.348        0.194       47.817       16.364        0.117      339.130       12.252      859.301
01/06/2022  13:55:00       36.094        4.919      -24.220       80.483       53.336       42.902     6477.507     2844.685     1840.599        0.654        0.558       36.427       36.572        1.008      339.337       12.601      859.269
01/06/2022  13:56:00       60.437       17.143      -15.549       51.126       59.841       36.930     2613.871     3580.971     1363.798        0.587        0.378       62.822       27.688        0.194      339.238       12.434      859.255
01/06/2022  13:57:00       73.565      -45.364      -26.320       53.331       80.878       40.869     2844.211     6541.186     1670.240        0.961        0.553       86.427       39.073        0.204      339.212       12.389      859.262
01/06/2022  13:58:00       86.498      -14.289      -20.276       68.451       61.912       50.449     4685.558     3833.094     2545.060        0.958        0.553       87.671       40.932        0.218      339.150       12.287      859.266
01/06/2022  13:59:00       55.540      -57.448      -31.143       31.727       68.984       28.512     1006.584     4758.841      812.943        0.697        0.329       79.906       18.370        0.053      339.125       12.244      859.280
01/06/2022  14:00:00       97.328       -1.650      -23.059       43.539       63.003       29.922     1895.634     3969.383      895.314        0.838        0.338       97.342       21.906        0.051      339.079       12.166      859.283
01/06/2022  14:01:00       47.648        7.790      -12.181       32.738       29.056       15.922     1071.771      844.255      253.515        0.232        0.108       48.281        6.680        0.019      338.985       12.007      859.290
01/06/2022  14:02:00      106.337       18.301      -19.989       34.740       24.963       16.685     1206.875      623.138      278.374        0.707        0.105      107.900       10.285        0.009      338.884       11.839      859.294
01/06/2022  14:03:00        9.745       53.252      -17.222       21.996       20.475       24.249      483.832      419.235      588.032        0.236        0.075       54.136       10.352        0.037      338.940       11.931      859.279
01/06/2022  14:04:00       42.453       22.375      -15.648       36.935       55.926       29.011     1364.231     3127.703      841.615        0.394        0.267       47.988       13.997        0.085      339.099       12.200      859.229
01/06/2022  14:05:00       36.673        7.073       -6.833       44.553       62.810       32.929     1984.926     3945.158     1084.304        0.423        0.351       37.349       18.684        0.250      339.321       12.573      859.180
01/06/2022  14:06:00       67.128        8.567      -13.000       51.634       49.275       30.373     2666.027     2428.051      922.527        0.538        0.301       67.672       18.747        0.077      339.222       12.407      859.164
01/06/2022  14:07:00      126.491        8.050      -15.856       37.999       38.646       24.715     1443.896     1493.488      610.843        0.993        0.177      126.747       14.273        0.013      339.012       12.053      859.164
01/06/2022  14:08:00      102.368       48.434      -15.785       22.662       20.891       17.982      513.553      436.424      323.363        0.717        0.064      113.248       11.453        0.010      338.976       11.991      859.155
01/06/2022  14:09:00       90.801       22.197      -15.371       52.574       49.359       23.188     2763.994     2436.326      537.684        0.735        0.287       93.474       18.361        0.039      339.141       12.271      859.141
01/06/2022  14:10:00       63.262      -58.183      -20.038       41.789       48.846       31.399     1746.310     2385.888      985.885        0.645        0.256       85.950       28.821        0.112      339.294       12.529      859.118
01/06/2022  14:11:00       45.025       53.425       -9.903       34.518       36.998       22.157     1191.468     1368.844      490.933        0.401        0.153       69.867       16.297        0.054      339.241       12.439      859.113
01/06/2022  14:12:00        8.639        7.355      -11.717       32.660       37.133       17.794     1066.654     1378.870      316.626        0.151        0.138       11.346       15.096        1.770      339.441       12.776      859.099
01/06/2022  14:13:00      -11.032      -32.915      -12.605       26.090       26.605       15.485      680.672      707.828      239.794        0.150        0.081       34.714       13.865        0.160      339.486       12.851      859.085
01/06/2022  14:14:00       21.962      -13.308      -10.445       37.972       20.783       14.929     1441.885      431.935      222.869        0.143        0.105       25.680       16.039        0.390      339.569       12.991      859.083
01/06/2022  14:15:00       37.111       -2.886      -10.250       39.024       30.177       24.324     1522.891      910.668      591.645        0.226        0.151       37.223        8.349        0.050      339.496       12.869      859.092
01/06/2022  14:16:00       74.392      -59.321      -22.339       41.009       46.699       31.706     1681.736     2180.814     1005.299        0.721        0.243       95.148       26.428        0.077      339.258       12.467      859.071
01/06/2022  14:17:00       31.952      -50.468       -7.955       28.366       30.234       20.497      804.635      914.087      420.120        0.288        0.107       59.732       21.636        0.131      339.392       12.693      859.070
01/06/2022  14:18:00       46.347      -36.564       -7.110       29.920       39.297       21.731      895.201     1544.280      472.224        0.322        0.146       59.034       22.188        0.141      339.457       12.805      859.070
01/06/2022  14:19:00       42.534       25.637       -7.343       25.323       38.014       24.004      641.260     1445.060      576.211        0.259        0.133       49.663       13.380        0.073      339.417       12.736      859.071
01/06/2022  14:20:00       33.123       39.905       -4.366       19.067       19.314       16.714      363.556      373.041      279.371        0.186        0.051       51.860        6.541        0.016      339.285       12.514      859.073
01/06/2022  14:21:00        0.174       -2.167      -18.868       25.980       30.665       25.983      674.985      940.344      675.095        0.133        0.115        2.174       16.329       56.427      339.605       13.053      859.059
01/06/2022  14:22:00       46.465        9.940      -16.882       45.303       58.147       35.977     2052.393     3381.073     1294.377        0.463        0.336       47.516       19.156        0.163      339.616       13.070      859.024
01/06/2022  14:23:00       71.963       -7.899      -12.857       59.183       53.516       46.859     3502.662     2864.000     2195.777        0.698        0.428       72.396       40.415        0.312      339.414       12.730      858.994
01/06/2022  14:24:00       50.051       -2.511      -10.651       30.660       22.285       16.652      940.038      496.609      277.285        0.217        0.086       50.114       12.370        0.061      339.265       12.478      858.998
01/06/2022  14:25:00       78.185      -18.413      -16.815       35.384       35.561       24.639     1252.033     1264.602      607.071        0.493        0.156       80.324       13.496        0.028      339.417       12.736      858.983
01/06/2022  14:26:00       99.742      -25.827      -12.749       54.598       34.646       42.270     2980.966     1200.340     1786.738        0.837        0.298      103.032       34.013        0.109      339.378       12.670      858.966
01/06/2022  14:27:00      102.938      -17.928      -17.503       25.888       33.507       17.460      670.208     1122.705      304.866        0.666        0.105      104.487       16.069        0.024      339.218       12.400      858.962
01/06/2022  14:28:00       48.699       -9.771      -13.222       57.042       59.324       41.562     3253.779     3519.342     1727.398        0.557        0.425       49.670       31.156        0.393      339.506       12.887      858.927
01/06/2022  14:29:00       55.456       21.054      -24.375       48.890       70.349       40.291     2390.237     4948.934     1623.343        0.654        0.448       59.318       18.266        0.095      339.471       12.827      858.925
01/06/2022  14:30:00      119.463       41.952       -2.579       42.384       42.382       32.039     1796.441     1796.275     1026.520        1.033        0.231      126.615       15.798        0.016      339.327       12.583      858.914
01/06/2022  14:31:00       66.416       15.959       -6.454       50.031       24.434       17.940     2503.150      596.996      321.854        0.406        0.171       68.306       21.155        0.096      339.354       12.630      858.890
01/06/2022  14:32:00       67.689        9.531      -10.908       43.604       31.320       17.165     1901.297      980.946      294.641        0.398        0.159       68.357        8.599        0.016      339.542       12.944      858.861
01/06/2022  14:33:00      131.133       47.352      -20.094       54.676       55.611       22.284     2989.430     3092.618      496.569        1.321        0.329      139.420       24.496        0.031      339.458       12.804      858.866
01/06/2022  14:34:00       94.069       31.392      -15.603       41.806       48.695       28.841     1747.781     2371.248      831.787        0.751        0.248       99.169       23.526        0.056      339.520       12.910      858.883
01/06/2022  14:35:00       90.360       54.806      -12.673       31.572       22.502       16.319      996.760      506.331      266.317        0.655        0.088      105.682       13.973        0.017      339.313       12.561      858.905
01/06/2022  14:36:00       60.244       69.152      -13.583       33.597       25.083       21.305     1128.749      629.171      453.906        0.540        0.111       91.713       18.333        0.040      339.371       12.656      858.912
01/06/2022  14:37:00       60.066       67.503      -17.456       19.015       13.472       18.274      361.589      181.493      333.930        0.467        0.044       90.359       12.656        0.020      339.337       12.602      858.905
01/06/2022  14:38:00       25.221       24.204       -9.123       30.421       22.156       16.968      925.428      490.903      287.921        0.150        0.085       34.956       22.190        0.403      339.493       12.862      858.900
01/06/2022  14:39:00       29.482       65.826      -11.792       29.285       21.884       16.873      857.597      478.893      284.694        0.348        0.081       72.127        9.160        0.016      339.458       12.806      858.906
01/06/2022  14:40:00       74.333       70.228      -15.528       29.500       30.884       19.972      870.221      953.849      398.894        0.646        0.111      102.261       13.888        0.018      339.419       12.738      858.892
01/06/2022  14:41:00      109.145      -25.074      -17.936       57.933       47.275       33.506     3356.189     2234.952     1122.656        0.979        0.336      111.988       27.590        0.061      339.504       12.881      858.849
01/06/2022  14:42:00       82.882      -54.724      -27.211       39.292       43.911       19.490     1543.863     1928.184      379.846        0.723        0.193       99.318       12.694        0.016      339.475       12.834      858.815
01/06/2022  14:43:00       61.174      -47.848       -6.533       26.278       40.672       29.339      690.519     1654.230      860.802        0.464        0.160       77.664       27.307        0.124      339.554       12.966      858.814
01/06/2022  14:44:00       58.253      -38.785      -15.277       37.872       37.038       25.822     1434.264     1371.817      666.787        0.430        0.174       69.984       19.347        0.076      339.805       13.388      858.804
01/06/2022  14:45:00       44.411      -96.053      -32.895       36.097       59.427       31.470     1303.007     3531.562      990.361        0.905        0.291      105.824       29.049        0.075      339.804       13.389      858.800
01/06/2022  14:46:00       30.867      -19.199      -12.808       32.327       35.951       23.744     1045.042     1292.439      563.759        0.219        0.145       36.351       19.557        0.289      339.908       13.562      858.802
01/06/2022  14:47:00       34.758      -30.337       -8.871       36.639       37.731       18.950     1342.386     1423.641      359.088        0.267        0.156       46.135       19.148        0.172      339.875       13.507      858.796
01/06/2022  14:48:00       85.309       -2.647      -12.587       24.457       35.023       20.549      598.158     1226.582      422.275        0.484        0.112       85.350       10.642        0.016      339.667       13.155      858.784
01/06/2022  14:49:00       39.635       -5.393      -23.144       35.333       31.094       25.640     1248.408      966.844      657.421        0.250        0.144       40.000       20.737        0.269      339.823       13.421      858.769
01/06/2022  14:50:00       67.576      -20.995      -28.500       57.246       51.498       35.407     3277.089     2652.023     1253.662        0.650        0.359       70.763       21.393        0.091      339.730       13.262      858.732
01/06/2022  14:51:00       89.770       27.685      -38.416       51.893       72.223       39.398     2692.854     5216.213     1552.185        0.988        0.473       93.942       39.399        0.176      339.748       13.294      858.691
01/06/2022  14:52:00      121.969       33.983      -26.365       86.699       47.247       34.060     7516.721     2232.280     1160.083        1.382        0.545      126.615       14.783        0.014      339.796       13.374      858.651
01/06/2022  14:53:00       90.972       11.767       -4.203       53.258       49.212       27.692     2836.374     2421.781      766.841        0.723        0.301       91.730       16.885        0.034      339.897       13.545      858.636
01/06/2022  14:54:00       61.816        0.977      -19.244       66.343       50.136       18.047     4401.427     2513.657      325.689        0.572        0.362       61.824       13.983        0.051      340.013       13.740      858.670
01/06/2022  14:55:00       23.199      -41.812       -5.672       33.574       29.289       19.111     1127.213      857.855      365.241        0.233        0.118       47.817       16.094        0.113      340.086       13.864      858.689
01/06/2022  14:56:00       11.705      -18.020       -9.750       36.325       27.776       27.181     1319.516      771.516      738.834        0.169        0.141       21.488       11.872        0.305      340.116       13.915      858.685
01/06/2022  14:57:00      -36.516      -32.589       -9.105       29.004       26.835       20.203      841.256      720.099      408.168        0.222        0.098       48.944        6.806        0.019      340.299       14.223      858.683
01/06/2022  14:58:00       47.923      -87.646      -33.889       49.795       54.767       36.627     2479.515     2999.435     1341.545        0.897        0.341       99.892       24.065        0.058      340.070       13.836      858.647
01/06/2022  14:59:00       82.203        9.687      -34.997       61.855       49.369       28.636     3825.993     2437.344      820.040        0.758        0.354       82.772       18.158        0.048      339.904       13.556      858.596
01/06/2022  15:00:00       52.886       57.975      -10.508       22.498       19.530       15.342      506.154      381.423      235.389        0.370        0.056       78.473        6.916        0.008      339.742       13.285      858.575
01/06/2022  15:01:00       29.613       68.644      -14.457       38.052       26.175       23.055     1447.950      685.143      531.516        0.423        0.133       74.760       17.619        0.056      339.831       13.435      858.575
01/06/2022  15:02:00       24.122       38.670       -8.551       22.635       21.147       15.316      512.356      447.209      234.566        0.167        0.060       45.577       12.141        0.071      339.869       13.497      858.584
01/06/2022  15:03:00        9.660        2.820        7.011       21.661       19.501        9.483      469.182      380.286       89.922        0.054        0.047       10.063        8.163        0.658      340.148       13.968      858.580
01/06/2022  15:04:00       39.591      -39.359      -18.424       27.399       32.149       22.297      750.732     1033.530      497.140        0.287        0.114       55.826       11.308        0.041      339.989       13.701      858.584
01/06/2022  15:05:00      117.941       14.759      -19.632       37.217       47.363       23.119     1385.134     2243.288      534.473        0.934        0.208      118.861        9.848        0.007      339.866       13.494      858.581
01/06/2022  15:06:00      125.233        4.715      -21.483       34.817       38.524       25.140     1212.233     1484.125      632.003        0.975        0.166      125.322        6.360        0.003      339.786       13.358      858.561
01/06/2022  15:07:00       39.703       -3.138       -8.391       62.236       34.388       35.470     3873.322     1182.510     1258.095        0.398        0.316       39.826       34.732        0.761      340.032       13.774      858.529
01/06/2022  15:08:00       24.085        5.753      -19.799       47.663       52.992       36.694     2271.738     2808.157     1346.467        0.371        0.321       24.763       12.927        0.273      340.101       13.889      858.491
01/06/2022  15:09:00      125.111      -33.312      -33.493       65.703       62.921       32.568     4316.889     3959.030     1060.665        1.361        0.467      129.470       28.589        0.049      339.893       13.538      858.483
01/06/2022  15:10:00      113.174      -37.025      -21.529       41.679       41.049       28.294     1737.114     1684.999      800.552        0.943        0.211      119.076       17.131        0.021      339.891       13.533      858.497
01/06/2022  15:11:00      118.526      -26.891      -27.172       36.957       45.050       27.972     1365.843     2029.526      782.426        0.984        0.209      121.538       21.740        0.032      339.962       13.654      858.515
01/06/2022  15:12:00       39.758      -12.470       -4.664       45.260       32.281       15.604     2048.472     1042.092      243.481        0.255        0.167       41.667       15.767        0.143      339.978       13.681      858.545
01/06/2022  15:13:00       11.062        3.745       -6.781       29.088       20.953       12.987      846.130      439.038      168.649        0.082        0.073       11.679       13.869        1.410      339.982       13.688      858.550
01/06/2022  15:14:00       39.732       27.904       -8.154       34.150       23.557       15.805     1166.231      554.952      249.787        0.220        0.099       48.551       10.325        0.045      339.911       13.569      858.549
01/06/2022  15:15:00       45.672       15.758       -4.386       42.636       14.385       24.262     1817.863      206.938      588.652        0.248        0.131       48.314       27.381        0.321      340.010       13.736      858.535
01/06/2022  15:16:00       26.441       -8.975        8.923       30.584       51.758       26.462      935.354     2678.876      700.262        0.259        0.216       27.923       18.869        0.457      340.283       14.196      858.543
01/06/2022  15:17:00       45.350      -16.347      -23.058       38.304       20.446       15.067     1467.226      418.059      227.027        0.248        0.106       48.207       16.321        0.115      340.076       13.844      858.537
01/06/2022  15:18:00       36.546      -11.760      -13.077       40.042       22.162       19.300     1603.398      491.169      372.480        0.206        0.123       38.392       11.275        0.086      340.136       13.949      858.514
01/06/2022  15:19:00       51.955      -10.717       -5.291       62.699       36.169       32.961     3931.151     1308.179     1086.408        0.458        0.316       53.048       30.964        0.341      340.117       13.915      858.499
01/06/2022  15:20:00       93.312      -39.562      -27.939       60.821       54.812       44.792     3699.160     3004.334     2006.285        0.988        0.435      101.352       29.835        0.087      340.057       13.814      858.497
01/06/2022  15:21:00       28.041        0.602       -8.731       49.558       36.910       35.735     2455.990     1362.336     1277.012        0.298        0.255       28.048       25.075        0.799      340.229       14.106      858.502
01/06/2022  15:22:00        9.168      -18.600      -18.172       29.691       31.423       23.079      881.582      987.412      532.652        0.158        0.120       20.737       15.705        0.574      340.195       14.047      858.511
01/06/2022  15:23:00        4.103      -12.072      -15.465       15.339       13.930       11.120      235.294      194.047      123.650        0.048        0.028       12.750        6.619        0.270      340.308       14.238      858.544
01/06/2022  15:24:00       45.998       30.550      -12.281       25.242       31.859       16.525      637.143     1015.001      273.076        0.256        0.096       55.218       11.335        0.042      340.031       13.772      858.536
01/06/2022  15:25:00       29.682      -18.386      -12.260       40.929       42.593       18.759     1675.203     1814.139      351.917        0.260        0.192       34.915        9.659        0.077      340.036       13.780      858.497
01/06/2022  15:26:00       34.912      -79.084      -27.875       39.679       45.497       28.178     1574.385     2069.975      793.987        0.634        0.222       86.447       17.871        0.043      340.263       14.162      858.468
01/06/2022  15:27:00       48.756      -81.026      -26.936       49.453       38.513       25.796     2445.580     1483.238      665.453        0.713        0.230       94.564       16.055        0.029      340.195       14.047      858.450
01/06/2022  15:28:00       54.700      -91.667      -26.944       60.589       65.800       30.046     3670.980     4329.667      902.739        1.051        0.445      106.747       30.755        0.083      340.190       14.038      858.457
01/06/2022  15:29:00       68.703      -73.208      -30.267       43.628       46.196       28.271     1903.389     2134.099      799.230        0.792        0.242      100.396       34.178        0.116      340.042       13.790      858.459
01/06/2022  15:30:00      -12.703       -4.506      -27.219       22.466       40.254       17.486      504.703     1620.368      305.754        0.168        0.122       13.479        8.644        0.411      340.175       14.014      858.438
01/06/2022  15:31:00       67.670      -51.693      -32.999       69.938       66.184       34.267     4891.267     4380.355     1174.251        0.939        0.522       85.155       40.441        0.226      340.242       14.126      858.393
01/06/2022  15:32:00       96.757      -98.382      -42.408       39.309       34.176       16.735     1545.206     1168.025      280.069        1.192        0.150      137.988       15.565        0.013      340.019       13.751      858.357
01/06/2022  15:33:00       48.216      -95.159      -19.192       37.430       48.825       26.021     1401.002     2383.891      677.093        0.810        0.223      106.677       22.195        0.043      340.156       13.982      858.340
01/06/2022  15:34:00      -25.152      -37.108      -39.457       46.255       30.493       24.986     2139.550      929.795      624.278        0.363        0.185       44.829        8.582        0.037      340.171       14.006      858.349
01/06/2022  15:35:00      -27.756      -27.735      -19.207       44.776       34.355       27.641     2004.867     1180.249      764.032        0.293        0.197       39.238       15.024        0.147      340.174       14.012      858.374
01/06/2022  15:36:00      -78.731      -10.158       -1.732       68.331       47.039       34.534     4669.098     2212.710     1192.622        0.719        0.404       79.383       28.552        0.129      340.247       14.135      858.371
01/06/2022  15:37:00      -25.053      -10.161       -1.697       29.335       34.744       20.183      860.524     1207.142      407.357        0.160        0.124       27.035       17.946        0.441      340.336       14.286      858.361
01/06/2022  15:38:00      -19.597        2.127       -9.864       29.725       21.434       18.528      883.600      459.401      343.294        0.109        0.084       19.712        6.633        0.113      340.312       14.245      858.328
01/06/2022  15:39:00        8.266       -4.712       -2.774       17.635       18.090       22.264      310.998      327.262      495.677        0.062        0.057        9.515       11.775        1.532      340.323       14.264      858.291
01/06/2022  15:40:00       27.646      -90.544      -37.502       55.973       67.292       42.057     3132.990     4528.168     1768.812        0.990        0.471       94.671       14.116        0.022      340.163       13.994      858.278
01/06/2022  15:41:00      -44.874      -51.628      -28.722       58.617       42.577       29.132     3435.956     1812.820      848.702        0.580        0.305       68.404       25.027        0.134      340.170       14.004      858.297
01/06/2022  15:42:00      -41.688      -32.013       -9.005       41.303       38.505       20.455     1705.897     1482.669      418.388        0.322        0.180       52.562       18.149        0.119      340.268       14.170      858.301
01/06/2022  15:43:00       38.912      -87.720      -33.325       84.765       48.555       35.049     7185.091     2357.562     1228.463        1.054        0.539       95.963       24.019        0.063      340.183       14.026      858.305
01/06/2022  15:44:00       92.271     -146.937      -38.255       26.100       58.711       23.685      681.211     3446.955      560.998        1.813        0.234      173.506       15.808        0.008      340.043       13.791      858.272
01/06/2022  15:45:00       42.908      -91.275      -13.825       26.264       41.767       28.717      689.780     1744.459      824.662        0.681        0.163      100.857       20.731        0.042      340.092       13.873      858.264
01/06/2022  15:46:00       31.978      -73.516      -16.335       37.957       39.995       24.315     1440.732     1599.598      591.202        0.516        0.182       80.170       17.538        0.048      340.133       13.942      858.273
01/06/2022  15:47:00       -6.225        0.191      -20.327       38.903       23.696       15.887     1513.448      561.514      252.402        0.139        0.116        6.227        9.693        2.423      340.160       13.988      858.263
01/06/2022  15:48:00      -12.958      -42.386      -10.946       30.122       57.760       19.365      907.357     3336.247      375.014        0.335        0.231       44.323       10.568        0.057      340.332       14.279      858.269
01/06/2022  15:49:00       30.294      -55.858       -4.334       29.585       54.307       25.755      875.278     2949.204      663.330        0.427        0.224       63.544       27.335        0.185      340.235       14.114      858.264
01/06/2022  15:50:00      -26.444      -22.284      -28.701       30.641       30.475       17.179      938.875      928.747      295.116        0.209        0.108       34.582       14.612        0.179      340.210       14.073      858.242
01/06/2022  15:51:00      -54.528       21.005      -10.955       26.108       32.311       17.654      681.607     1043.969      311.667        0.279        0.102       58.434       12.973        0.049      340.343       14.297      858.238
01/06/2022  15:52:00      -42.705        9.630       -3.399       29.139       46.648       24.783      849.102     2176.073      614.185        0.278        0.182       43.778        5.087        0.014      340.352       14.312      858.255
01/06/2022  15:53:00      -37.018        7.642       -1.128       35.606       27.264       23.799     1267.791      743.336      566.402        0.200        0.129       37.798       15.566        0.170      340.232       14.109      858.240
01/06/2022  15:54:00      -37.431       -0.284        1.240       49.167       27.547       18.354     2417.416      758.832      336.887        0.246        0.176       37.432        3.811        0.010      340.229       14.106      858.212
01/06/2022  15:55:00      -32.954       -2.888       -6.406       53.376       33.873       27.186     2848.977     1147.403      739.101        0.293        0.237       33.080       25.484        0.593      340.175       14.014      858.198
01/06/2022  15:56:00      -75.669      -20.950       -4.085       56.102       36.409       34.504     3147.456     1325.594     1190.495        0.592        0.283       78.516       31.498        0.161      340.109       13.903      858.169
01/06/2022  15:57:00      -36.119        6.904      -10.123       36.725       15.495       15.110     1348.700      240.101      228.320        0.164        0.091       36.773        4.002        0.012      340.117       13.916      858.155
01/06/2022  15:58:00       22.239      -53.936      -19.459       45.456       31.109       21.144     2066.253      967.742      447.050        0.363        0.174       58.341       15.693        0.072      340.208       14.070      858.129
01/06/2022  15:59:00       96.085      -26.704      -19.642       24.747       29.972       21.244      612.391      898.302      451.317        0.615        0.098       99.727        9.032        0.008      340.002       13.721      858.103
01/06/2022  16:00:00       -1.295      -21.737       -8.050       30.416       33.440       24.498      925.114     1118.246      600.130        0.159        0.132       21.775       18.487        0.721      340.131       13.939      858.079
01/06/2022  16:01:00      -60.059      -56.209      -15.146       44.521       37.309       29.916     1982.119     1391.991      894.987        0.563        0.213       82.259       14.954        0.033      340.178       14.018      858.085
01/06/2022  16:02:00      -26.747      -19.762      -18.632       40.825       22.398       19.134     1666.665      501.688      366.110        0.199        0.127       33.256       12.537        0.142      340.125       13.928      858.092
01/06/2022  16:03:00      -21.724       -8.475       -7.372       17.161       13.780       15.312      294.484      189.878      234.452        0.066        0.036       23.319       11.112        0.227      340.212       14.076      858.095
01/06/2022  16:04:00      -21.853      -36.472       -9.314       70.303       28.563       22.463     4942.473      815.858      504.587        0.408        0.313       42.518       13.451        0.100      340.115       13.912      858.077
01/06/2022  16:05:00       10.228      -75.716       -8.454       37.485       44.914       31.170     1405.142     2017.273      971.577        0.515        0.220       76.403       25.241        0.109      340.140       13.956      858.077
01/06/2022  16:06:00      -25.783       -7.508       -5.601       41.802       29.598       24.239     1747.385      876.031      587.518        0.198        0.161       26.854       10.221        0.145      340.074       13.843      858.106
01/06/2022  16:07:00      -56.390      -13.589       -1.485       39.750       34.522       25.734     1580.050     1191.789      662.233        0.340        0.172       58.004       15.253        0.069      340.089       13.868      858.101
01/06/2022  16:08:00      -13.104      -20.133       -3.948       27.451       27.062       18.959      753.570      732.367      359.442        0.122        0.092       24.023       17.859        0.553      340.154       13.977      858.091
01/06/2022  16:09:00      -20.792       -4.836       -4.642       25.015       21.175       15.259      625.750      448.365      232.839        0.089        0.065       21.347       12.875        0.364      340.218       14.087      858.097
01/06/2022  16:10:00      -39.450      -11.122      -10.982       26.985       33.270       20.540      728.215     1106.878      421.877        0.203        0.113       40.988        7.296        0.032      340.129       13.937      858.121
01/06/2022  16:11:00      -56.139      -12.724       -3.848       30.471       37.605       15.612      928.472     1414.123      243.729        0.296        0.129       57.563       12.224        0.045      340.093       13.875      858.132
01/06/2022  16:12:00      -83.234      -17.689       -5.151       48.996       31.071       25.451     2400.645      965.419      647.752        0.564        0.201       85.093       26.785        0.099      340.042       13.788      858.141
01/06/2022  16:13:00      -52.744      -37.812      -14.456       23.243       26.421       17.051      540.226      698.058      290.753        0.297        0.076       64.897        7.617        0.014      340.101       13.888      858.136
01/06/2022  16:14:00      -39.649      -20.163       -6.549       33.222       29.705       17.582     1103.704      882.378      309.116        0.216        0.115       44.481       13.840        0.097      340.098       13.884      858.121
01/06/2022  16:15:00        0.927      -42.742      -27.740       31.805       24.189       15.537     1011.542      585.103      241.397        0.222        0.092       42.752        9.826        0.053      340.009       13.734      858.098
01/06/2022  16:16:00        5.767       -9.354      -17.264        9.977       13.745       16.076       99.547      188.924      258.433        0.048        0.027       10.989        7.290        0.440      340.010       13.736      858.081
01/06/2022  16:17:00        0.014      -31.093      -19.834       27.742       20.298       15.636      769.597      412.015      244.477        0.139        0.071       31.093       11.763        0.143      340.027       13.763      858.069
01/06/2022  16:18:00      -25.664      -12.141       -1.784       32.281       17.539       16.576     1042.084      307.617      274.749        0.122        0.081       28.391       10.196        0.129      340.064       13.826      858.069
01/06/2022  16:19:00       88.326     -136.256      -32.037       36.639       46.351       24.426     1342.439     2148.450      596.638        1.574        0.204      162.380       22.369        0.019      339.952       13.636      858.051
01/06/2022  16:20:00       18.958      -91.527      -40.186       73.983       61.500       29.822     5473.433     3782.198      889.337        1.025        0.507       93.470       21.651        0.054      339.876       13.509      858.040
01/06/2022  16:21:00       -5.348      -36.566       -9.075       42.296       37.138       26.546     1788.920     1379.201      704.706        0.266        0.194       36.955       18.843        0.260      339.860       13.482      858.075
01/06/2022  16:22:00      -23.792       -4.614       -8.986       28.807       33.234       18.800      829.815     1104.526      353.450        0.148        0.114       24.235       12.334        0.259      339.869       13.497      858.049
01/06/2022  16:23:00        9.834      -27.701       -6.185       39.833       45.828       24.681     1586.689     2100.233      609.138        0.260        0.215       29.395       17.599        0.358      339.968       13.664      858.008
01/06/2022  16:24:00        3.549      -67.654      -14.659       33.396       42.598       24.634     1115.316     1814.548      606.844        0.417        0.177       67.747       23.084        0.116      339.939       13.617      858.033
01/06/2022  16:25:00      -36.314       -8.946       -3.614       58.319       28.621       22.029     3401.069      819.160      485.258        0.306        0.235       37.400       16.188        0.187      339.896       13.543      858.061
01/06/2022  16:26:00      -79.004      -40.327       -1.337       70.114       54.868       25.498     4915.952     3010.467      650.160        0.822        0.429       88.701       16.058        0.033      339.822       13.418      858.074
01/06/2022  16:27:00      -73.771     -106.676      -20.834       63.833       43.232       26.328     4074.673     1869.045      693.182        1.195        0.332      129.699       10.707        0.007      339.863       13.486      858.054
01/06/2022  16:28:00      -31.930      -24.758      -12.501       41.818       32.461       23.016     1748.765     1053.745      529.745        0.256        0.167       40.404        9.588        0.056      339.789       13.364      858.039
01/06/2022  16:29:00      -71.667      -27.837      -18.468       56.188       32.249       34.685     3157.106     1040.018     1203.021        0.583        0.270       76.884       14.771        0.037      339.855       13.475      858.055
01/06/2022  16:30:00      -65.729      -46.362       -2.835       61.897       46.142       24.537     3831.209     2129.102      602.063        0.652        0.328       80.434       17.486        0.047      339.784       13.355      858.065
01/06/2022  16:31:00      -35.375      -20.215        2.635       49.071       27.485       21.240     2407.966      755.416      451.128        0.264        0.181       40.743       20.899        0.263      339.750       13.297      858.069
01/06/2022  16:32:00     -135.805      -63.086      -22.095       53.730       55.054       25.910     2886.891     3030.949      671.330        1.475        0.329      149.743        5.582        0.001      339.679       13.177      858.076
01/06/2022  16:33:00     -121.733      -40.447      -23.085       60.013       40.314       28.783     3601.509     1625.194      828.487        1.152        0.303      128.277       22.871        0.032      339.644       13.119      858.075
01/06/2022  16:34:00      -81.573      -33.895      -23.927       48.479       35.405       29.820     2350.230     1253.499      889.203        0.643        0.225       88.335       16.254        0.034      339.601       13.046      858.055
01/06/2022  16:35:00      -52.828       -6.192      -21.461       30.366       30.566       26.911      922.093      934.265      724.218        0.293        0.129       53.190       14.904        0.079      339.665       13.153      858.054
01/06/2022  16:36:00      -33.955       -2.832       -1.325       47.145       36.406       25.259     2222.697     1325.382      638.027        0.267        0.209       34.073       25.116        0.543      339.579       13.008      858.048
01/06/2022  16:37:00      -27.757      -25.066       -2.622       39.676       24.891       30.505     1574.200      619.586      930.536        0.226        0.156       37.400       22.129        0.350      339.575       13.002      858.043
01/06/2022  16:38:00      -14.742      -15.150      -19.779       35.870       22.897       21.216     1286.676      524.273      450.104        0.155        0.113       21.139       15.618        0.546      339.487       12.853      858.024
01/06/2022  16:39:00      -34.689       11.801      -17.042       29.024       23.348       19.157      842.371      545.115      366.996        0.169        0.088       36.641       11.185        0.093      339.515       12.900      857.998
01/06/2022  16:40:00       31.690      -10.801       -8.033       45.985       35.719       23.722     2114.632     1275.843      562.749        0.257        0.198       33.481       19.760        0.348      339.448       12.789      857.984
01/06/2022  16:41:00      -15.935      -63.643      -34.797       46.619       49.621       21.724     2173.372     2462.225      471.913        0.531        0.255       65.608       15.389        0.055      339.464       12.814      857.998
01/06/2022  16:42:00       -6.350      -67.044      -31.918       45.992       37.824       22.551     2115.235     1430.690      508.565        0.480        0.203       67.344       24.315        0.130      339.564       12.984      858.017
01/06/2022  16:43:00       19.330      -68.645      -40.124       44.746       55.935       20.742     2002.197     3128.688      430.213        0.613        0.278       71.315       12.313        0.030      339.543       12.947      858.017
01/06/2022  16:44:00        6.013      -55.374      -15.355       48.208       52.161       34.072     2324.005     2720.811     1160.921        0.477        0.310       55.699       19.483        0.122      339.548       12.955      857.985
01/06/2022  16:45:00       -4.966      -22.366       -3.881       18.823       14.865       14.927      354.319      220.956      222.829        0.067        0.040       22.910        5.876        0.066      339.319       12.571      857.990
01/06/2022  16:46:00      -26.456        0.554       -4.700       22.841       18.435       12.859      521.733      339.843      165.350        0.087        0.051       26.462        6.697        0.064      339.474       12.832      857.986
01/06/2022  16:47:00       19.154      -44.514      -21.629       27.353       24.270       17.131      748.198      589.024      293.458        0.222        0.082       48.460       10.990        0.051      339.430       12.757      857.983
01/06/2022  16:48:00      -50.192      -42.271       -9.423       44.120       33.228       27.567     1946.596     1104.071      759.937        0.410        0.191       65.620       19.111        0.085      339.490       12.858      857.979
01/06/2022  16:49:00       30.769      -79.803       -8.285       46.511       71.254       33.717     2163.242     5077.114     1136.843        0.788        0.419       85.529       20.984        0.060      339.504       12.883      857.976
01/06/2022  16:50:00       31.991      -89.745      -29.156       54.728       61.587       21.431     2995.147     3792.899      459.267        0.859        0.362       95.276       11.148        0.014      339.475       12.834      857.982
01/06/2022  16:51:00       -2.970      -39.313       -6.468       68.444       41.047       31.202     4684.534     1684.881      973.551        0.447        0.367       39.425       32.423        0.676      339.429       12.755      857.995
01/06/2022  16:52:00      -13.542      -46.609       -3.947       60.397       70.683       19.792     3647.819     4996.025      391.741        0.570        0.452       48.536       21.864        0.203      339.518       12.906      857.980
01/06/2022  16:53:00     -105.816       -2.288      -16.750       32.475       35.018       24.132     1054.631     1226.244      582.350        0.717        0.143      105.841       14.143        0.018      339.249       12.453      858.024
01/06/2022  16:54:00        1.303        0.196       -1.310       17.992       16.667       16.796      323.711      277.785      282.109        0.044        0.044        1.318       13.912      111.450      339.086       12.179      858.033
01/06/2022  16:55:00      -45.634       10.520       -6.119       12.579       18.108       10.983      158.239      327.895      120.630        0.142        0.030       46.831        7.958        0.029      339.448       12.787      858.037
01/06/2022  16:56:00      -34.921      -23.182      -13.404       49.197       40.292       20.343     2420.373     1623.431      413.853        0.320        0.223       41.915       20.165        0.231      339.540       12.942      858.033
01/06/2022  16:57:00       30.525      -27.864      -35.138       40.095       42.362       31.870     1607.616     1794.560     1015.692        0.368        0.221       41.330       19.778        0.229      339.260       12.470      857.985
01/06/2022  16:58:00       -5.510       44.616      -11.355       57.075       36.972       16.841     3257.557     1366.930      283.626        0.353        0.245       44.954       14.554        0.105      339.505       12.884      858.012
01/06/2022  16:59:00       16.735      -11.012      -14.396       53.444       57.399       30.042     2856.282     3294.593      902.510        0.383        0.353       20.033       31.812        2.522      339.389       12.689      857.985
01/06/2022  17:00:00     -156.289      -30.373      -16.199      131.779       84.606       55.892    17365.696     7158.143     3123.900        2.662        1.382      159.214       52.357        0.108      339.634       13.098      857.967
01/06/2022  17:01:00     -116.733      -73.987      -10.433       81.556       99.063       31.517     6651.427     9813.456      993.306        1.833        0.873      138.205       21.656        0.025      339.687       13.190      857.945
01/06/2022  17:02:00      -71.128       42.615      -16.365       84.467       77.572       28.973     7134.752     6017.479      839.449        1.056        0.700       82.917       10.584        0.016      339.442       12.776      857.928
01/06/2022  17:03:00       10.926        1.611       -1.010       35.010       30.401       24.083     1225.678      924.194      579.987        0.143        0.136       11.044       11.670        1.117      339.301       12.540      857.918
01/06/2022  17:04:00     -125.419      -54.016      -43.171       84.066       76.941       48.367     7067.146     5919.955     2339.405        1.792        0.766      136.556       36.335        0.071      339.633       13.098      857.890
01/06/2022  17:05:00      -69.431       20.221       -5.987       49.032       75.812       26.055     2404.184     5747.481      678.874        0.705        0.442       72.316       15.221        0.044      339.512       12.895      857.896
01/06/2022  17:06:00     -138.340       53.965       -4.896       55.023       62.542       39.857     3027.514     3911.548     1588.619        1.530        0.426      148.493       30.413        0.042      339.524       12.916      857.889
01/06/2022  17:07:00     -153.914       -2.365      -13.050       93.754       64.469       38.291     8789.757     4156.200     1466.227        1.914        0.721      153.932       32.540        0.045      339.533       12.930      857.867
01/06/2022  17:08:00      -49.795       24.867        2.285       56.359       49.141       29.525     3176.331     2414.813      871.737        0.478        0.323       55.659       23.549        0.179      339.453       12.796      857.896
01/06/2022  17:09:00      -35.580      -13.861        3.713       36.239       33.570       17.587     1313.300     1126.951      309.313        0.211        0.137       38.185       13.945        0.133      339.321       12.575      857.916
01/06/2022  17:10:00      -62.844       45.745       -5.323       50.971       28.155       30.322     2598.061      792.687      919.453        0.519        0.216       77.730       21.041        0.073      339.416       12.734      857.911
01/06/2022  17:11:00     -120.355       17.047      -11.165       69.156       59.691       33.920     4782.575     3563.011     1150.600        1.220        0.475      121.557       10.819        0.008      339.402       12.710      857.879
01/06/2022  17:12:00       -9.595      -30.626       -4.410       70.277       30.274       21.396     4938.819      916.503      457.782        0.368        0.316       32.094       17.477        0.297      339.315       12.564      857.923
01/06/2022  17:13:00      -48.284       45.886      -20.894       53.715       25.412       11.909     2885.264      645.762      141.819        0.427        0.184       66.610        6.987        0.011      339.358       12.638      857.931
01/06/2022  17:14:00      -64.008      -33.060      -10.671       53.699       33.163       19.999     2883.589     1099.811      399.956        0.484        0.219       72.042       15.153        0.044      339.435       12.766      857.934
01/06/2022  17:15:00     -172.667      -28.217      -10.122       85.297       64.264       43.006     7275.574     4129.879     1849.547        2.198        0.663      174.958       40.607        0.054      339.409       12.722      857.921
01/06/2022  17:16:00        1.307       -1.207      -13.146       53.215       27.948       22.362     2831.887      781.063      500.054        0.214        0.206        1.779        7.414       17.369      339.355       12.629      857.920
01/06/2022  17:17:00       -7.459      -31.699      -19.743       29.179       46.390       19.771      851.426     2152.021      390.893        0.242        0.170       32.564        7.987        0.060      339.318       12.568      857.912
01/06/2022  17:18:00      -51.325      -93.476      -30.480       70.284       74.890       35.517     4939.773     5608.444     1261.450        1.205        0.590      106.640       23.852        0.050      339.470       12.823      857.910
01/06/2022  17:19:00     -115.438      -44.116      -16.243       61.756       62.104       31.824     3813.824     3856.867     1012.778        1.211        0.434      123.580       12.473        0.010      339.390       12.688      857.889
01/06/2022  17:20:00     -137.115      -15.033      -22.941       56.662       46.182       32.192     3210.542     2132.823     1036.297        1.297        0.319      137.937       25.076        0.033      339.408       12.719      857.907
01/06/2022  17:21:00        1.074      -51.338      -16.920       50.719       55.100       31.037     2572.465     3036.026      963.303        0.475        0.329       51.349       26.606        0.268      339.355       12.630      857.876
01/06/2022  17:22:00     -145.601      -74.435      -37.416       69.280       85.841       36.694     4799.719     7368.602     1346.421        2.082        0.676      163.524       17.892        0.012      339.379       12.670      857.852
01/06/2022  17:23:00      -99.264      -52.362      -20.761       49.323       59.638       38.810     2432.745     3556.675     1506.183        1.026        0.375      112.228       16.223        0.021      339.348       12.619      857.865
01/06/2022  17:24:00     -107.541     -107.739      -24.728       74.210       73.654       45.562     5507.122     5424.871     2075.917        1.839        0.650      152.226       30.374        0.040      339.334       12.594      857.872
01/06/2022  17:25:00     -139.840        2.613      -20.155       94.895       96.982       50.462     9004.974     9405.488     2546.381        2.046        1.048      139.864       24.087        0.030      339.295       12.529      857.871
01/06/2022  17:26:00     -239.755      -78.901      -45.568      112.110       95.639       46.395    12568.638     9146.795     2152.532        4.482        1.193      252.404       51.504        0.042      339.267       12.482      857.859
01/06/2022  17:27:00     -193.836       25.554       -3.512      154.480      107.921       70.925    23864.074    11646.841     5030.422        3.938        2.027      195.513       73.817        0.143      339.221       12.403      857.830
01/06/2022  17:28:00     -208.468        9.655      -25.424      109.691      108.003       64.780    12032.099    11664.578     4196.488        3.604        1.395      208.691       50.182        0.058      339.261       12.470      857.823
01/06/2022  17:29:00     -202.852      -48.443      -25.811      113.463       67.165       48.485    12873.747     4511.175     2350.757        3.195        0.987      208.556       52.910        0.064      339.294       12.527      857.842
01/06/2022  17:30:00     -236.151      -25.519      -20.840      106.803       76.960       69.523    11406.830     5922.828     4833.407        3.950        1.108      237.526       61.475        0.067      339.216       12.395      857.842
01/06/2022  17:31:00     -214.847      -29.899      -11.630      113.242       79.522       67.834    12823.830     6323.763     4601.511        3.546        1.187      216.918       62.556        0.083      339.215       12.393      857.823
01/06/2022  17:32:00     -150.542      -37.128      -16.764      117.180       98.896       66.282    13731.077     9780.336     4393.363        2.611        1.395      155.053       54.122        0.122      339.173       12.321      857.811
01/06/2022  17:33:00     -196.158      -27.914       -7.745      103.250       90.956       60.098    10660.581     8272.956     3611.821        3.093        1.127      198.134       49.332        0.062      339.230       12.420      857.801
01/06/2022  17:34:00     -217.358        6.995      -17.872      142.659      104.244       62.654    20351.532    10866.868     3925.488        4.137        1.757      217.471       44.807        0.042      339.243       12.441      857.777
01/06/2022  17:35:00     -197.074      -32.272       -2.655      134.318      110.007       55.314    18041.354    12101.641     3059.620        3.654        1.660      199.699       48.362        0.059      339.247       12.447      857.786
01/06/2022  17:36:00      -85.937      -58.047      -26.214       89.479       61.425       47.501     8006.556     3773.085     2256.359        1.274        0.702      103.704       16.280        0.025      339.287       12.518      857.814
01/06/2022  17:37:00     -151.943      -59.664      -24.468       80.861       72.078       48.014     6538.576     5195.182     2305.374        2.064        0.702      163.238       40.900        0.063      339.306       12.547      857.842
01/06/2022  17:38:00     -122.463      -76.978      -15.826       87.193       96.415       59.041     7602.704     9295.762     3485.839        2.077        1.019      144.647       43.806        0.092      339.334       12.594      857.858
01/06/2022  17:39:00      -68.508      -88.840      -24.975       65.378       67.164       34.888     4274.324     4511.041     1217.188        1.160        0.500      112.187       28.180        0.063      339.340       12.606      857.882
01/06/2022  17:40:00      -98.652     -160.873      -39.318      135.732      100.703       54.718    18423.156    10141.164     2994.104        3.435        1.578      188.712       51.676        0.075      339.316       12.563      857.847
01/06/2022  17:41:00       77.775     -130.816      -59.318       55.897       74.077       39.869     3124.526     5487.387     1589.515        1.844        0.510      152.190       28.522        0.035      338.963       11.970      857.878
01/06/2022  17:42:00       28.152     -129.848      -32.763       47.007       42.349       36.828     2209.691     1793.462     1356.272        1.204        0.268      132.865       23.577        0.031      339.158       12.300      857.887
01/06/2022  17:43:00       51.098      -88.553      -36.033       44.282       59.434       30.476     1960.909     3532.357      928.778        0.909        0.321      102.238       26.944        0.069      339.023       12.072      857.872
01/06/2022  17:44:00       -1.589      -42.274       -6.520       37.965       46.346       28.443     1441.347     2147.995      808.995        0.311        0.220       42.304        8.581        0.041      338.850       11.781      857.884
01/06/2022  17:45:00        7.389       42.418      -27.999       92.047       45.999       42.279     8472.723     2115.888     1787.532        0.750        0.619       43.056       32.399        0.566      339.229       12.419      857.876
01/06/2022  17:46:00        3.803       11.663       -5.805       67.165       58.703       55.398     4511.201     3446.028     3068.945        0.560        0.551       12.268       18.255        2.214      338.954       11.956      857.820
01/06/2022  17:47:00      -21.589      -35.879      -16.344       45.465       38.456       23.123     2067.060     1478.881      534.677        0.305        0.204       41.873       14.136        0.114      338.938       11.930      857.840
01/06/2022  17:48:00     -129.669      -90.725      -17.567      102.121      123.536       53.752    10428.736    15261.040     2889.251        2.696        1.429      158.256       39.512        0.062      339.247       12.446      857.820
01/06/2022  17:49:00     -215.209       16.672      -34.686      106.035       84.147       46.401    11243.431     7080.694     2153.020        3.413        1.024      215.854       43.540        0.041      339.329       12.585      857.795
01/06/2022  17:50:00      -63.500      -23.340       -8.244       39.527       80.945       35.808     1562.399     6552.061     1282.190        0.702        0.470       67.654       31.528        0.217      339.270       12.490      857.793
01/06/2022  17:51:00     -143.847      -74.127      -28.365       78.369       86.403       56.068     6141.696     7465.500     3143.639        2.187        0.838      161.823       53.475        0.109      339.321       12.572      857.778
01/06/2022  17:52:00      -70.905      -25.145      -16.361       98.146       79.100       46.791     9632.713     6256.768     2189.386        1.200        0.904       75.232       41.689        0.307      339.335       12.596      857.759
01/06/2022  17:53:00     -102.385      -47.022      -16.310       83.758       76.034       50.715     7015.337     5781.193     2572.053        1.416        0.768      112.666       43.331        0.148      339.324       12.578      857.777
01/06/2022  17:54:00     -140.422      -90.618      -28.442       75.910       92.002       48.479     5762.293     8464.332     2350.220        2.265        0.829      167.123       30.211        0.033      339.361       12.641      857.771
01/06/2022  17:55:00      -30.708      -54.008      -37.391       72.445       61.152       35.734     5248.340     3739.519     1276.895        0.776        0.513       62.128       22.819        0.135      338.950       11.950      857.777
01/06/2022  17:56:00     -112.401      -21.490       -6.191      145.042      119.344       69.323    21037.150    14242.881     4805.619        2.660        2.004      114.437       61.538        0.289      339.194       12.358      857.773
01/06/2022  17:57:00     -149.701       70.192      -13.016      142.309      134.543       52.919    20251.993    18101.886     2800.441        3.432        2.058      165.340       43.691        0.070      339.239       12.435      857.773
01/06/2022  17:58:00     -156.712       -6.918      -20.955       75.297       59.424       58.065     5669.693     3531.187     3371.590        1.881        0.629      156.864       44.585        0.081      339.198       12.365      857.744
01/06/2022  17:59:00       50.733      -78.368      -34.565       99.551       79.024       51.171     9910.431     6244.756     2618.472        1.434        0.939       93.356       39.859        0.182      338.611       11.379      857.723
01/06/2022  18:00:00       26.163      -42.770      -38.285       87.874       77.874       40.952     7721.921     6064.307     1677.049        0.972        0.773       50.138       30.449        0.369      338.759       11.629      857.719
01/06/2022  18:01:00     -131.217      -81.972      -17.949       68.813       87.741       41.006     4735.251     7698.559     1681.484        1.918        0.706      154.717       30.943        0.040      339.167       12.312      857.722
01/06/2022  18:02:00      -12.811      -26.834       -7.734       85.650      122.367       81.624     7335.898    14973.587     6662.514        1.495        1.449       29.735       64.875        4.760      339.188       12.350      857.717
01/06/2022  18:03:00       -7.185     -136.583      -30.121       74.645       75.186       44.941     5571.850     5652.884     2019.689        1.643        0.662      136.772       11.357        0.007      338.939       11.930      857.740
01/06/2022  18:04:00       14.829      -70.825      -31.863       58.823       46.784       36.894     3460.192     2188.723     1361.159        0.663        0.351       72.361       22.113        0.093      338.811       11.716      857.753
01/06/2022  18:05:00      -71.728     -104.530      -23.090       96.808       83.082       34.123     9371.885     6902.555     1164.405        1.702        0.872      126.773       27.118        0.046      339.072       12.153      857.771
01/06/2022  18:06:00       20.963      -66.760      -14.084       44.239       55.659       29.688     1957.069     3097.888      881.352        0.551        0.297       69.973       18.059        0.067      338.911       11.884      857.758
01/06/2022  18:07:00      -28.312       25.626        1.113       30.338       32.951       16.636      920.383     1085.780      276.771        0.187        0.114       38.187       14.284        0.140      338.843       11.769      857.757
01/06/2022  18:08:00       45.043      -15.036       -4.830       44.504       36.842       23.060     1980.586     1357.340      531.781        0.307        0.193       47.487       19.067        0.161      338.684       11.502      857.760
01/06/2022  18:09:00       33.572       10.424      -24.926       35.517       27.559       22.203     1261.451      759.490      492.986        0.219        0.126       35.153        9.634        0.075      338.756       11.623      857.739
01/06/2022  18:10:00       70.095       -5.790      -17.264       37.284       33.726       20.588     1390.088     1137.411      423.863        0.410        0.148       70.334       13.309        0.036      338.531       11.247      857.718
01/06/2022  18:11:00       89.353       17.336      -18.071       39.553       31.944       21.958     1564.417     1020.397      482.150        0.584        0.153       91.019        6.366        0.005      338.505       11.201      857.715
01/06/2022  18:12:00      172.044       69.250      -12.828       24.457       17.503       12.851      598.134      306.364      165.155        1.781        0.053      185.458        4.311        0.001      338.578       11.324      857.714
01/06/2022  18:13:00      106.841       22.744      -10.580       42.341       36.142       26.608     1792.723     1306.208      707.965        0.792        0.190      109.235       21.303        0.038      338.370       10.975      857.709
01/06/2022  18:14:00       79.108       17.331      -31.258       42.040       40.739       23.801     1767.348     1659.627      566.493        0.576        0.200       80.984       16.624        0.042      338.309       10.873      857.710
01/06/2022  18:15:00       -3.816        4.576      -37.624       65.996       54.226       32.452     4355.424     2940.464     1053.124        0.490        0.417        5.958       22.154       13.824      338.172       10.643      857.692
01/06/2022  18:16:00       -3.874       12.275       -6.870       27.052       25.941       18.078      731.833      672.941      326.797        0.097        0.087       12.872        8.191        0.405      338.097       10.516      857.687
01/06/2022  18:17:00       -4.948      -35.361      -15.076       47.960       46.701       29.751     2300.167     2180.982      885.119        0.343        0.268       35.706       27.943        0.612      338.050       10.438      857.692
01/06/2022  18:18:00       63.782      -87.462      -26.781       42.384       39.888       22.840     1796.368     1591.050      521.643        0.817        0.195      108.248       18.715        0.030      338.211       10.709      857.683
01/06/2022  18:19:00       21.627      -83.723      -14.237       31.729       30.758       23.596     1006.716      946.030      556.750        0.509        0.125       86.471       17.151        0.039      338.318       10.888      857.681
01/06/2022  18:20:00       54.523      -85.217      -22.574       30.488       32.965       20.968      929.516     1086.690      439.650        0.660        0.123      101.167        9.007        0.008      338.248       10.771      857.708
01/06/2022  18:21:00       11.890       -7.767      -13.433       21.169       24.425       16.188      448.108      596.600      262.049        0.084        0.065       14.203        2.862        0.041      338.220       10.724      857.722
01/06/2022  18:22:00        1.402       -9.346      -18.950       14.832       19.886       18.261      219.973      395.463      333.448        0.070        0.047        9.450        3.676        0.151      338.085       10.499      857.729
01/06/2022  18:23:00       50.983      -80.810      -25.035       30.463       35.298       25.737      927.981     1245.914      662.412        0.630        0.142       95.549       24.290        0.065      338.340       10.924      857.726
01/06/2022  18:24:00       23.781      -53.372      -14.351       17.743       46.807       15.758      314.805     2190.875      248.311        0.319        0.138       58.430       13.131        0.051      338.165       10.630      857.717
01/06/2022  18:25:00       51.550      -82.845      -21.278       27.324       41.047       20.891      746.585     1684.818      436.443        0.642        0.143       97.574        9.217        0.009      338.415       11.049      857.705
01/06/2022  18:26:00       27.824       45.539      -17.180       26.667       23.582       23.597      711.151      556.119      556.807        0.248        0.091       53.367        9.167        0.030      337.866       10.128      857.694
01/06/2022  18:27:00       29.862       49.700      -12.615       21.999       21.910       10.246      483.942      480.060      104.976        0.229        0.053       57.981       11.772        0.041      337.794       10.008      857.691
01/06/2022  18:28:00       55.149       33.091       -9.683       37.941       25.039       14.706     1439.521      626.944      216.281        0.326        0.114       64.315       14.698        0.052      337.864       10.126      857.654
01/06/2022  18:29:00       53.748       11.140      -16.234       29.678       32.200       23.318      880.768     1036.837      543.727        0.287        0.123       54.890       19.677        0.129      337.684        9.825      857.640
01/06/2022  18:30:00       27.962       13.711      -20.782       38.232       42.295       35.174     1461.686     1788.864     1237.205        0.294        0.224       31.143       18.820        0.365      337.475        9.473      857.629
01/06/2022  18:31:00      -44.449       -0.136      -11.938       23.542       24.180       17.818      554.225      584.667      317.477        0.179        0.073       44.449        9.227        0.043      337.633        9.737      857.612
01/06/2022  18:32:00      -82.437        8.814      -26.205       25.225       25.594       17.895      636.311      655.055      320.241        0.459        0.081       82.906       12.677        0.023      337.689        9.834      857.638
01/06/2022  18:33:00      -36.044       20.221      -16.010       22.124       16.639       23.742      489.474      276.849      563.676        0.165        0.066       41.329       10.313        0.062      337.786        9.994      857.634
01/06/2022  18:34:00        2.934       10.093       -3.291       25.908       13.602       10.680      671.202      185.018      114.061        0.055        0.049       10.511        6.984        0.442      337.732        9.905      857.609
01/06/2022  18:35:00       57.173       14.983      -17.565       21.802       25.533       16.103      475.346      651.919      259.313        0.259        0.069       59.104       14.547        0.061      337.953       10.276      857.589
01/06/2022  18:36:00       56.189        3.272      -21.550       35.248       37.027       30.733     1242.394     1371.005      944.523        0.359        0.178       56.285       23.328        0.172      337.858       10.116      857.528
01/06/2022  18:37:00      -39.388       19.528       -4.531       37.567       28.829       17.791     1411.256      831.102      316.503        0.226        0.128       43.963       15.081        0.118      337.838       10.083      857.509
01/06/2022  18:38:00      -30.526        3.597      -13.025       18.610       10.067       11.878      346.329      101.339      141.079        0.085        0.029       30.737        4.179        0.018      337.845       10.093      857.525
01/06/2022  18:39:00       -1.749       22.879       -6.226       13.662       19.290        8.468      186.648      372.096       71.711        0.060        0.032       22.945        5.118        0.050      337.816       10.045      857.544
01/06/2022  18:40:00       -2.446       25.071      -11.413       13.768       31.189       11.155      189.566      972.759      124.443        0.103        0.064       25.190        8.693        0.119      337.701        9.853      857.543
01/06/2022  18:41:00       17.515        9.544      -13.952       13.821       13.806       14.606      191.007      190.595      213.331        0.059        0.030       19.947        6.817        0.117      337.832       10.072      857.531
01/06/2022  18:42:00       40.711       29.157      -16.577       13.809       14.924       16.764      190.701      222.715      281.042        0.174        0.035       50.075        7.261        0.021      337.892       10.175      857.532
01/06/2022  18:43:00       39.029       39.566       -7.025       17.713       16.934       14.126      313.763      286.773      199.532        0.197        0.040       55.576        9.507        0.029      337.929       10.236      857.546
01/06/2022  18:44:00       37.561       51.058      -10.348       21.349       18.007       12.969      455.792      324.260      168.194        0.254        0.047       63.386        4.244        0.004      337.905       10.195      857.561
01/06/2022  18:45:00       65.067       42.706      -13.116       15.278       18.236       11.177      233.406      332.541      124.935        0.346        0.035       77.831       11.327        0.021      337.886       10.165      857.548
01/06/2022  18:46:00       56.399      -13.301      -16.395       21.194       25.471       15.197      449.175      648.797      230.943        0.248        0.066       57.946       12.594        0.047      337.635        9.743      857.533
01/06/2022  18:47:00       32.277      -21.126      -24.980       34.540       37.760       23.914     1193.036     1425.803      571.873        0.265        0.160       38.576       11.900        0.095      337.316        9.209      857.531
01/06/2022  18:48:00        6.625        7.776       -9.590       43.962       35.392       20.829     1932.664     1252.566      433.865        0.191        0.181       10.215       14.354        1.974      337.427        9.394      857.525
01/06/2022  18:49:00       59.401       38.043       -4.820       33.400       25.971       18.954     1115.575      674.487      359.247        0.357        0.107       70.539       12.447        0.031      337.660        9.783      857.523
01/06/2022  18:50:00      -17.479        6.721       -8.615       13.043       18.321       15.965      170.108      335.663      254.884        0.059        0.038       18.727        8.480        0.205      337.630        9.734      857.511
01/06/2022  18:51:00      -15.874       15.296        2.557       22.929       16.157       11.670      525.734      261.063      136.180        0.071        0.046       22.044        1.598        0.005      337.695        9.844      857.501
01/06/2022  18:52:00      -40.152       -3.406       -6.891       12.466       17.197       15.665      155.399      295.749      245.387        0.118        0.035       40.297        8.428        0.044      337.550        9.600      857.496
01/06/2022  18:53:00      -24.167       14.212       -5.784       14.612       13.149       11.975      213.496      172.908      143.404        0.067        0.026       28.036        7.795        0.077      337.485        9.489      857.489
01/06/2022  18:54:00       -9.410        1.822      -15.306       19.220       21.251       17.094      369.403      451.595      292.209        0.072        0.056        9.584       11.843        1.527      337.417        9.377      857.476
01/06/2022  18:55:00       16.134      -38.128      -21.808       16.532       37.922       24.963      273.315     1438.063      623.167        0.226        0.117       41.401       19.327        0.218      337.436        9.408      857.461
01/06/2022  18:56:00       36.020      -56.873      -20.550       17.042       23.417       17.219      290.442      548.374      296.494        0.304        0.057       67.320        7.350        0.012      337.701        9.853      857.465
01/06/2022  18:57:00       25.313      -60.583      -16.650       26.241       32.842       22.006      688.593     1078.587      484.279        0.342        0.113       65.658       16.829        0.066      337.794       10.009      857.438
01/06/2022  18:58:00        6.142      -46.399      -11.830       19.083       23.082       18.541      364.162      532.784      343.772        0.179        0.062       46.804        9.925        0.045      337.762        9.954      857.435
01/06/2022  18:59:00       64.908      -91.613      -26.113       24.717       34.667       20.140      610.918     1201.780      405.624        0.775        0.111      112.276       14.721        0.017      337.782        9.989      857.419
01/06/2022  19:00:00      -30.290      -38.196      -11.416       45.377       42.390       24.433     2059.042     1796.906      596.960        0.348        0.223       48.749        8.909        0.033      337.592        9.669      857.398
01/06/2022  19:01:00      -30.219        5.863       -8.348       17.247       15.474       14.020      297.443      239.449      196.565        0.088        0.037       30.782        9.894        0.103      337.273        9.136      857.403
01/06/2022  19:02:00       11.359        3.573       -5.865       13.738        8.080       10.044      188.731       65.293      100.878        0.027        0.018       11.908        7.898        0.440      337.519        9.547      857.385
01/06/2022  19:03:00       29.448       11.769       -7.665       21.405       17.130       10.695      458.163      293.434      114.390        0.097        0.043       31.713       10.580        0.111      337.568        9.628      857.367
01/06/2022  19:04:00      -26.985       34.773      -14.391       16.820       24.225       18.107      282.916      586.848      327.863        0.167        0.060       44.015       10.609        0.058      337.687        9.829      857.364
01/06/2022  19:05:00       13.479       -7.737      -11.166       35.743       18.220       17.958     1277.585      331.974      322.494        0.115        0.097       15.542       21.081        1.840      337.372        9.302      857.375
01/06/2022  19:06:00        4.321       14.625       -6.290       32.938       12.778       10.654     1084.930      163.273      113.502        0.082        0.068       15.250       10.829        0.504      337.561        9.617      857.368
01/06/2022  19:07:00      -37.233       11.150       -7.508       20.712       10.110        4.849      428.997      102.206       23.510        0.106        0.028       38.866        3.485        0.008      337.682        9.820      857.378
01/06/2022  19:08:00       19.287      -16.492       -1.297       20.393       17.142       10.527      415.877      293.835      110.810        0.073        0.041       25.377       10.499        0.171      337.587        9.662      857.383
01/06/2022  19:09:00      -11.680        3.772       -2.191       10.117        6.221        7.322      102.348       38.705       53.609        0.018        0.010       12.275        6.466        0.277      337.771        9.971      857.387
01/06/2022  19:10:00      -18.661       16.420       -4.105       12.764       11.663        8.123      162.918      136.017       65.989        0.050        0.018       24.856        7.233        0.085      337.457        9.445      857.359
01/06/2022  19:11:00       20.324       -9.123       -7.361       14.040       16.588        9.026      197.110      275.154       81.465        0.055        0.028       22.277        7.162        0.103      337.394        9.338      857.340
01/06/2022  19:12:00       24.759      -23.571      -22.258       22.411       27.724       13.774      502.242      768.602      189.716        0.156        0.073       34.185       11.956        0.122      337.430        9.398      857.314
01/06/2022  19:13:00       16.711       36.934       -6.276       17.944       23.784       14.558      321.976      565.672      211.935        0.139        0.055       40.538       11.055        0.074      337.359        9.279      857.263
01/06/2022  19:14:00      -10.052        2.914      -13.128       16.401       15.949        8.688      268.993      254.370       75.483        0.044        0.030       10.465        9.705        0.860      337.535        9.573      857.261
01/06/2022  19:15:00       32.466      -26.709       -6.331       40.632       27.437       17.648     1650.971      752.781      311.463        0.226        0.136       42.041       21.721        0.267      337.416        9.374      857.241
01/06/2022  19:16:00       26.962       16.775      -13.673       40.601       15.028       14.754     1648.478      225.852      217.682        0.164        0.105       31.755       13.183        0.172      337.175        8.972      857.211
01/06/2022  19:17:00      -20.599      -10.443       -6.171       16.223       15.117       10.257      263.173      228.525      105.199        0.058        0.030       23.095        6.564        0.081      337.492        9.502      857.227
01/06/2022  19:18:00       -8.239      -12.851      -13.545       13.832       18.773       12.691      191.317      352.442      161.052        0.056        0.035       15.266        9.755        0.408      337.766        9.963      857.238
01/06/2022  19:19:00       26.601      -21.907      -16.959       23.492       29.638       18.499      551.881      878.401      342.203        0.162        0.089       34.461       18.594        0.291      337.610        9.700      857.220
01/06/2022  19:20:00        6.837       -3.468      -15.274       43.157       19.816       12.860     1862.507      392.685      165.378        0.136        0.121        7.667        5.882        0.589      337.430        9.400      857.202
01/06/2022  19:21:00      -88.083      -37.989      -12.607       52.061       53.560       33.192     2710.297     2868.646     1101.719        0.802        0.334       95.926       30.531        0.101      338.031       10.406      857.212
01/06/2022  19:22:00      -20.347      -11.341      -25.839       43.916       31.983       21.125     1928.609     1022.901      446.280        0.230        0.170       23.294        9.672        0.172      338.163       10.628      857.173
01/06/2022  19:23:00       -6.193       -5.859       -2.800       21.599       24.227       20.617      466.532      586.959      425.068        0.078        0.074        8.525       13.075        2.352      337.754        9.943      857.168
01/06/2022  19:24:00      -39.063       20.102       -5.556       16.391       17.651       17.113      268.651      311.564      292.851        0.142        0.044       43.932        9.246        0.044      337.477        9.478      857.212
01/06/2022  19:25:00      -70.833      -29.897       -7.927       37.206       27.136       21.457     1384.297      736.387      460.414        0.428        0.129       76.884        9.416        0.015      337.911       10.205      857.200
01/06/2022  19:26:00       10.531       21.393      -12.177       43.815       25.301       11.637     1919.720      640.134      135.412        0.171        0.135       23.845        9.795        0.169      337.949       10.268      857.132
01/06/2022  19:27:00       17.351        9.877       -4.230       18.282       10.260       12.290      334.215      105.260      151.041        0.050        0.030       19.965        8.697        0.190      337.588        9.662      857.132
01/06/2022  19:28:00      -56.532      -32.079        1.002       38.256       40.266       18.978     1463.502     1621.389      360.173        0.383        0.172       65.000       17.478        0.072      337.924       10.225      857.158
01/06/2022  19:29:00      -80.916      -54.943      -19.909       44.426       41.855       28.634     1973.679     1751.869      819.880        0.725        0.227       97.807       23.607        0.058      338.120       10.556      857.125
01/06/2022  19:30:00      -75.058      -71.983      -16.067       44.735       35.529       20.169     2001.211     1262.338      406.808        0.737        0.184      103.996        7.033        0.005      338.229       10.739      857.095
01/06/2022  19:31:00      -84.652      -46.333      -15.756       41.132       42.382       19.656     1691.863     1796.240      386.361        0.672        0.194       96.503       20.162        0.044      338.025       10.396      857.145
01/06/2022  19:32:00      -39.033      -32.028      -10.176       34.073       25.898       24.173     1160.964      670.731      584.323        0.253        0.121       50.492       16.142        0.102      338.095       10.515      857.147
01/06/2022  19:33:00        4.339      -11.304      -10.149       12.476       22.109       27.281      155.659      488.824      744.263        0.082        0.069       12.108       13.042        1.160      337.874       10.143      857.127
01/06/2022  19:34:00      -81.000      -34.355      -18.157       39.167       51.113       19.678     1534.088     2612.497      387.237        0.630        0.227       87.985       18.657        0.045      338.225       10.731      857.147
01/06/2022  19:35:00      -28.967       -3.046       -6.098       40.492       35.838       23.551     1639.603     1284.331      554.662        0.218        0.174       29.127        7.993        0.075      338.177       10.651      857.163
01/06/2022  19:36:00      -28.185      -26.890        0.664       35.424       31.573       18.315     1254.860      996.832      335.446        0.205        0.129       38.954       15.368        0.156      338.174       10.648      857.129
01/06/2022  19:37:00       53.204       -6.640       -9.560       45.017       31.472       23.847     2026.501      990.467      568.700        0.328        0.179       53.617       12.726        0.056      337.631        9.737      857.110
01/06/2022  19:38:00       13.169       -5.975       -7.485       32.278       43.621       20.065     1041.856     1902.779      402.614        0.181        0.167       14.461       20.460        2.002      337.715        9.877      857.147
01/06/2022  19:39:00      -46.440      -18.873      -18.816       48.084       94.088       40.254     2312.033     8852.638     1620.363        0.782        0.639       50.128       39.298        0.615      338.255       10.782      857.182
01/06/2022  19:40:00       -2.414      -39.769       -7.958       38.193       43.662       24.288     1458.674     1906.394      589.919        0.280        0.198       39.842       22.733        0.326      337.836       10.080      857.160
01/06/2022  19:41:00       -8.577      -14.938      -13.713       36.362       49.585       24.925     1322.218     2458.652      621.259        0.244        0.220       17.225       18.022        1.095      338.052       10.442      857.118
01/06/2022  19:42:00     -113.019      -12.613        0.483       73.777       60.080       39.182     5443.073     3609.659     1535.240        1.176        0.529      113.721       30.558        0.072      337.877       10.147      857.132
01/06/2022  19:43:00     -144.641      -64.876      -21.624       60.671       49.753       36.814     3681.009     2475.387     1355.247        1.655        0.376      158.525       25.947        0.027      337.975       10.312      857.150
01/06/2022  19:44:00     -124.385      -31.120      -13.330       51.447       55.915       37.541     2646.789     3126.452     1409.295        1.190        0.359      128.219       20.460        0.025      337.941       10.255      857.108
01/06/2022  19:45:00     -175.939      -30.284       -6.754       89.966       75.864       45.704     8093.870     5755.367     2088.892        2.392        0.797      178.526       40.775        0.052      337.900       10.185      857.110
01/06/2022  19:46:00     -214.332     -111.224      -25.424       85.036      113.898       43.400     7231.116    12972.683     1883.530        4.052        1.104      241.472       35.373        0.021      337.973       10.307      857.147
01/06/2022  19:47:00     -187.494      -53.637      -27.705       87.553      116.915       49.430     7665.481    13669.220     2443.318        3.128        1.189      195.015       37.819        0.038      337.941       10.253      857.152
01/06/2022  19:48:00     -199.199      -20.401      -11.887       82.505      100.469       55.302     6807.000    10093.937     3058.318        3.009        0.998      200.241       51.952        0.067      337.941       10.252      857.122
01/06/2022  19:49:00     -172.703      -46.214      -10.423      105.001       81.517       49.977    11025.186     6645.021     2497.706        2.612        1.008      178.779       44.758        0.063      337.900       10.186      857.129
01/06/2022  19:50:00     -172.171      -51.939      -24.823       91.683      107.928       54.780     8405.815    11648.350     3000.814        2.800        1.153      179.835       41.342        0.053      337.909       10.201      857.125
01/06/2022  19:51:00     -289.792     -146.885      -47.443      116.823      148.893       62.323    13647.660    22169.112     3884.213        7.375        1.985      324.892       54.548        0.028      338.000       10.351      857.146
01/06/2022  19:52:00     -215.678     -118.281      -16.341      100.649      145.660       50.898    10130.189    21216.798     2590.560        4.735        1.697      245.982       38.239        0.024      338.064       10.457      857.117
01/06/2022  19:53:00     -297.221      -35.716      -26.148      117.743       95.943       58.604    13863.327     9205.114     3434.401        5.840        1.325      299.359       50.057        0.028      338.093       10.507      857.049
01/06/2022  19:54:00     -261.055      -15.045      -30.787      107.602      101.473       61.004    11578.200    10296.828     3721.430        4.746        1.280      261.488       42.842        0.027      338.042       10.421      857.030
01/06/2022  19:55:00     -362.399      -54.417      -38.503       85.638       95.128       47.518     7333.865     9049.274     2257.917        7.721        0.932      366.462       20.525        0.003      338.138       10.582      857.040
01/06/2022  19:56:00     -232.902      -90.178      -16.940      103.662      132.653       57.511    10745.710    17596.707     3307.563        4.715        1.582      249.751       42.138        0.028      338.157       10.615      857.083
01/06/2022  19:57:00     -271.840      -96.396      -18.581       92.963      123.472       57.325     8642.102    15245.235     3286.121        5.535        1.359      288.426       50.741        0.031      338.101       10.519      857.078
01/06/2022  19:58:00     -284.769      -14.336      -31.105       75.540       88.558       46.894     5706.228     7842.531     2199.027        4.900        0.787      285.130       36.601        0.016      338.041       10.419      857.023
01/06/2022  19:59:00     -192.914      -25.184      -17.094       80.128       78.479       41.625     6420.551     6158.987     1732.674        2.622        0.716      194.550       22.167        0.013      337.956       10.278      856.963
01/06/2022  20:00:00     -299.995      -42.381      -24.522       88.910       92.752       57.930     7905.001     8603.006     3355.915        5.613        0.993      302.974       38.729        0.016      338.056       10.443      856.954
01/06/2022  20:01:00     -295.749       14.291      -20.215      124.124       81.532       50.604    15406.884     6647.479     2560.776        5.634        1.231      296.094       51.527        0.030      337.971       10.302      857.019
01/06/2022  20:02:00     -268.664      -56.418      -35.519      115.849       94.076       67.174    13420.895     8850.367     4512.293        5.170        1.339      274.524       52.355        0.036      338.026       10.394      857.024
01/06/2022  20:03:00     -171.993      -40.389      -18.739       99.667       79.043       52.350     9933.497     6247.839     2740.549        2.524        0.946      176.671       43.277        0.060      337.990       10.336      857.020
01/06/2022  20:04:00     -236.945      -35.723      -19.774      111.292       74.927       50.071    12385.937     5614.053     2507.095        3.915        1.025      239.622       54.833        0.052      337.959       10.282      857.011
01/06/2022  20:05:00     -200.305       18.467      -26.138       89.219       79.024       46.182     7959.954     6244.768     2132.786        2.874        0.817      201.155       29.199        0.021      337.993       10.339      856.984
01/06/2022  20:06:00     -226.001      -17.589      -13.155      116.967       59.532       54.336    13681.255     3544.044     2952.449        3.586        1.009      226.684       62.859        0.077      337.982       10.321      857.014
01/06/2022  20:07:00     -272.844      -20.069      -15.038      120.367       91.277       57.910    14488.256     8331.486     3353.520        5.062        1.309      273.581       61.078        0.050      337.938       10.248      857.063
01/06/2022  20:08:00     -239.240      -29.947      -17.433       98.957       81.167       45.188     9792.531     6588.019     2041.915        3.843        0.921      241.107       38.399        0.025      338.049       10.433      857.063
01/06/2022  20:09:00     -152.687      -22.901       -6.687       96.668       66.504       42.916     9344.614     4422.772     1841.756        1.974        0.780      154.395       46.620        0.091      337.956       10.278      857.030
01/06/2022  20:10:00     -183.850      -52.780      -17.373       76.555       72.797       43.258     5860.741     5299.417     1871.231        2.496        0.652      191.276       35.199        0.034      338.126       10.562      857.037
01/06/2022  20:11:00     -153.792       -5.967       -8.069       84.434       64.504       45.487     7129.017     4160.790     2069.054        1.855        0.668      153.907       30.040        0.038      337.997       10.348      857.072
01/06/2022  20:12:00     -194.945       -2.966      -12.278      106.736       62.347       41.428    11392.535     3887.179     1716.310        2.758        0.850      194.967       43.585        0.050      337.946       10.262      857.062
01/06/2022  20:13:00     -130.543      -23.432       -5.277      113.584       51.918       40.854    12901.406     2695.445     1669.058        1.744        0.863      132.630       42.518        0.103      337.848       10.098      857.027
01/06/2022  20:14:00     -201.992       -9.701        0.373       98.838       56.138       51.432     9769.032     3151.505     2645.234        2.823        0.778      202.224       45.137        0.050      337.874       10.139      857.006
01/06/2022  20:15:00     -185.244      -43.146      -16.730       69.229       61.230       43.565     4792.708     3749.160     1897.896        2.345        0.522      190.203       38.399        0.041      337.827       10.061      857.001
01/06/2022  20:16:00     -173.509      -22.216      -22.333       58.477       50.327       29.437     3419.579     2532.843      866.536        1.896        0.341      174.925       11.580        0.004      337.758        9.946      856.991
01/06/2022  20:17:00     -157.344      -70.525      -13.075       54.062       77.939       31.733     2922.707     6074.491     1006.964        1.995        0.500      172.427       34.392        0.040      337.765        9.957      856.985
01/06/2022  20:18:00     -147.920      -53.193      -11.556       70.465       76.466       40.581     4965.372     5847.048     1646.838        1.865        0.623      157.194       39.763        0.064      337.691        9.834      856.967
01/06/2022  20:19:00     -122.902      -70.488      -15.067       55.556       82.731       43.143     3086.511     6844.486     1861.310        1.604        0.590      141.681       31.076        0.048      337.600        9.684      856.967
01/06/2022  20:20:00     -165.434      -26.545      -18.355       69.904       46.362       33.258     4886.528     2149.464     1106.108        1.827        0.407      167.550       29.334        0.031      337.534        9.572      856.980
01/06/2022  20:21:00     -180.240      -19.506      -21.315       50.228       40.128       28.283     2522.874     1610.279      799.943        1.913        0.247      181.292       20.779        0.013      337.501        9.515      856.978
01/06/2022  20:22:00     -146.045      -27.851      -13.522       82.679       57.071       31.272     6835.847     3257.153      977.927        1.668        0.554      148.676       30.385        0.042      337.542        9.586      856.965
01/06/2022  20:23:00     -145.114      -40.357      -15.114       60.001       50.374       29.637     3600.171     2537.531      878.342        1.496        0.351      150.621       26.046        0.030      337.451        9.431      856.951
01/06/2022  20:24:00     -175.788      -11.684      -10.884       58.668       56.249       35.247     3441.906     3163.962     1242.341        1.950        0.392      176.176       24.825        0.020      337.423        9.386      856.942
01/06/2022  20:25:00     -192.465      -24.172       -9.390       81.602       47.200       50.472     6658.849     2227.841     2547.460        2.457        0.572      193.977       47.743        0.061      337.367        9.290      856.932
01/06/2022  20:26:00     -231.318      -37.256      -22.056       79.748       61.030       45.686     6359.771     3724.690     2087.194        3.377        0.609      234.299       39.234        0.028      337.416        9.371      856.905
01/06/2022  20:27:00     -204.857      -29.616       -8.779       70.644       51.562       45.371     4990.617     2658.679     2058.556        2.631        0.485      206.986       36.999        0.032      337.428        9.392      856.874
01/06/2022  20:28:00     -164.387      -25.869      -13.208       75.461       57.135       42.914     5694.432     3264.448     1841.627        1.933        0.540      166.410       40.155        0.058      337.447        9.423      856.852
01/06/2022  20:29:00     -171.940      -28.406       -7.234       67.960       53.382       36.927     4618.502     2849.645     1363.606        1.963        0.442      174.271       30.891        0.031      337.471        9.467      856.846
01/06/2022  20:30:00     -189.030      -11.748      -10.259       67.908       47.372       37.569     4611.440     2244.135     1411.397        2.212        0.413      189.394       28.180        0.022      337.560        9.614      856.827
01/06/2022  20:31:00     -178.433       -5.666       -3.404       80.336       48.421       41.893     6453.873     2344.585     1754.997        2.122        0.528      178.523       36.403        0.042      337.517        9.543      856.835
01/06/2022  20:32:00     -196.905      -26.344      -19.387       71.079       55.179       42.098     5052.236     3044.742     1772.240        2.485        0.493      198.660       37.190        0.035      337.495        9.504      856.836
01/06/2022  20:33:00     -181.813      -60.530      -19.390       69.106       52.732       41.359     4775.667     2780.671     1710.597        2.318        0.463      191.624       40.674        0.045      337.570        9.631      856.816
01/06/2022  20:34:00     -135.246      -32.581      -10.647       78.415       61.990       41.585     6148.955     3842.753     1729.313        1.559        0.586      139.115       39.778        0.082      337.553        9.603      856.818
01/06/2022  20:35:00     -111.750      -82.083        1.174       65.452       80.804       42.115     4283.962     6529.225     1773.634        1.590        0.629      138.657       29.838        0.046      337.420        9.380      856.830
01/06/2022  20:36:00     -140.878      -59.746      -33.815       66.346       90.797       39.015     4401.753     8244.139     1522.195        1.936        0.708      153.024       36.963        0.058      337.315        9.204      856.799
01/06/2022  20:37:00     -122.041       -9.958       -3.710       82.919       53.472       37.987     6875.596     2859.299     1443.018        1.309        0.559      122.447       33.271        0.074      337.231        9.067      856.776
01/06/2022  20:38:00     -221.025      -24.163      -18.250       83.112       58.098       39.824     6907.528     3375.421     1585.967        3.082        0.593      222.342       37.017        0.028      337.395        9.338      856.772
01/06/2022  20:39:00     -307.961      -54.327      -29.979       90.240       76.819       51.038     8143.227     5901.209     2604.900        5.767        0.832      312.716       40.386        0.017      337.565        9.622      856.796
01/06/2022  20:40:00     -179.558      -13.860      -19.784       67.092       61.304       42.214     4501.309     3758.122     1781.982        2.143        0.502      180.092       28.451        0.025      337.511        9.532      856.826
01/06/2022  20:41:00     -138.409      -29.251      -13.217       69.542       81.352       34.733     4836.159     6618.134     1206.351        1.642        0.633      141.466       21.781        0.024      337.472        9.467      856.812
01/06/2022  20:42:00     -148.945      -33.252      -25.844       47.023       35.373       28.414     2211.185     1251.274      807.377        1.411        0.213      152.611       25.164        0.027      337.462        9.453      856.787
01/06/2022  20:43:00     -171.374      -42.102      -10.293       62.606       59.837       42.096     3919.449     3580.487     1772.102        2.026        0.464      176.470       33.750        0.037      337.477        9.474      856.795
01/06/2022  20:44:00     -176.297      -24.952      -20.806       52.038       37.714       30.903     2707.991     1422.322      955.010        1.861        0.254      178.054       19.921        0.013      337.570        9.632      856.803
01/06/2022  20:45:00     -216.421      -18.614      -19.919       65.934       58.574       30.484     4347.334     3430.968      929.285        2.814        0.435      217.220       24.505        0.013      337.621        9.716      856.791
01/06/2022  20:46:00     -156.074      -10.809        1.079       62.941       52.863       31.580     3961.513     2794.486      997.276        1.611        0.388      156.447       26.979        0.030      337.595        9.674      856.787
01/06/2022  20:47:00     -129.805      -17.317      -13.994       59.854       50.493       32.071     3582.535     2549.564     1028.578        1.225        0.358      130.955       26.025        0.039      337.753        9.939      856.791
01/06/2022  20:48:00      -75.852        3.470       -0.055       51.666       36.559       27.538     2669.369     1336.586      758.316        0.526        0.238       75.932       24.342        0.103      337.607        9.696      856.791
01/06/2022  20:49:00      -79.852      -18.501      -11.791       33.924       49.222       21.743     1150.823     2422.795      472.749        0.545        0.202       81.967        9.814        0.014      337.670        9.801      856.803
01/06/2022  20:50:00       10.108        9.217       -8.482       28.258       42.021       21.537      798.519     1765.757      463.862        0.164        0.151       13.679       22.066        2.602      337.590        9.667      856.784
01/06/2022  20:51:00        4.858      -33.865      -19.984       27.330       51.466       36.678      746.952     2648.706     1345.262        0.315        0.237       34.212       33.076        0.935      337.318        9.211      856.758
01/06/2022  20:52:00        2.613       -1.645       -9.899       21.611       32.737       17.246      467.019     1071.728      297.427        0.097        0.092        3.088       10.437       11.425      336.704        8.185      856.755
01/06/2022  20:53:00       10.200        6.799       -1.555       24.368       35.036       19.570      593.784     1227.526      382.996        0.118        0.110       12.258       16.262        1.760      336.463        7.782      856.746
01/06/2022  20:54:00      -16.803       -6.885       -8.669       22.888       15.414        9.695      523.872      237.578       93.984        0.063        0.043       18.159        7.692        0.179      336.745        8.254      856.743
01/06/2022  20:55:00     -109.293     -109.013      -19.470       22.400       33.035       19.367      501.751     1091.320      375.089        1.309        0.098      154.366        8.889        0.003      337.134        8.904      856.742
01/06/2022  20:56:00      -52.204      -39.634      -21.045       44.911       32.256       22.692     2016.988     1040.418      514.945        0.415        0.179       65.544       25.035        0.146      337.106        8.857      856.726
01/06/2022  20:57:00      -36.557       -5.411       -6.392       32.821       24.262       22.536     1077.198      588.641      507.864        0.179        0.109       36.955       18.662        0.255      336.975        8.636      856.712
01/06/2022  20:58:00      -38.053      -42.642        7.396       49.510       40.360       26.851     2451.243     1628.933      720.971        0.406        0.240       57.153       10.931        0.037      336.864        8.450      856.755
01/06/2022  20:59:00     -113.108      -80.120      -19.745       42.970       42.448       23.823     1846.394     1801.836      567.542        1.191        0.211      138.609       14.722        0.011      336.947        8.591      856.775
01/06/2022  21:00:00       -2.587      -43.175      -15.913       45.143       38.738       37.848     2037.857     1500.662     1432.465        0.355        0.249       43.252       25.648        0.352      336.902        8.516      856.771
01/06/2022  21:01:00        5.241      -28.574      -39.455       48.134       49.739       22.504     2316.924     2474.000      506.438        0.385        0.265       29.051       22.448        0.597      336.836        8.404      856.770
01/06/2022  21:02:00      -18.752      -24.251      -16.242       34.028       16.285       15.613     1157.885      265.198      243.759        0.143        0.083       30.655       18.244        0.354      336.869        8.460      856.774
01/06/2022  21:03:00      -42.623      -10.278       -9.794       29.842       37.041       24.071      890.535     1372.012      579.435        0.243        0.142       43.845       17.301        0.156      336.875        8.470      856.764
01/06/2022  21:04:00      -82.287      -29.770       -8.234       33.028       55.339       30.728     1090.844     3062.381      944.226        0.641        0.255       87.507       20.940        0.057      337.002        8.682      856.723
01/06/2022  21:05:00     -113.534      -30.968       -9.103       46.452       55.292       27.681     2157.773     3057.169      766.264        0.996        0.299      117.681       23.674        0.040      336.944        8.585      856.700
01/06/2022  21:06:00     -118.672      -69.744      -12.725       46.786       34.149       31.446     2188.922     1166.135      988.848        1.173        0.217      137.649       22.991        0.028      337.005        8.688      856.694
01/06/2022  21:07:00       38.418      -54.902      -37.358       56.294       49.038       29.278     3169.016     2404.727      857.204        0.616        0.322       67.008       28.714        0.184      336.669        8.128      856.711
01/06/2022  21:08:00       23.420       -7.373      -35.044       26.257       48.811       29.111      689.414     2382.476      847.451        0.287        0.196       24.554       20.487        0.696      336.560        7.944      856.673
01/06/2022  21:09:00        3.617      -15.426      -28.725       24.376       35.913       17.659      594.174     1289.715      311.842        0.164        0.110       15.844       13.772        0.756      336.674        8.134      856.641
01/06/2022  21:10:00      -45.310      -42.725      -12.883       44.198       51.466       25.971     1953.423     2648.738      674.491        0.466        0.264       62.277       13.228        0.045      336.965        8.620      856.626
01/06/2022  21:11:00     -109.803      -12.690      -20.962       74.012       51.060       40.371     5477.831     2607.081     1629.785        1.118        0.486      110.534       25.623        0.054      336.890        8.493      856.618
01/06/2022  21:12:00      -80.768      -13.438      -13.653       55.090       32.990       30.201     3034.875     1088.371      912.097        0.596        0.252       81.878       30.489        0.139      336.768        8.292      856.624
01/06/2022  21:13:00      -98.505      -82.839       -9.014       36.691       49.456       20.557     1346.243     2445.929      422.572        1.043        0.211      128.707       16.421        0.016      336.850        8.427      856.606
01/06/2022  21:14:00      -98.253      -44.299       -7.514       47.724       44.711       32.820     2277.566     1999.096     1077.133        0.851        0.268      107.778       23.281        0.047      336.855        8.437      856.610
01/06/2022  21:15:00     -161.045     -105.480      -23.873       61.028       79.157       38.356     3724.431     6265.775     1471.213        2.454        0.573      192.514       37.837        0.039      336.987        8.655      856.632
01/06/2022  21:16:00     -124.917      -44.498      -25.851       62.058       49.626       44.013     3851.199     2462.720     1937.153        1.325        0.413      132.606       34.846        0.069      337.023        8.718      856.626
01/06/2022  21:17:00      -47.275      -28.626       -6.672       81.391       44.381       37.195     6624.446     1969.663     1383.471        0.654        0.499       55.267       27.882        0.255      336.928        8.558      856.600
01/06/2022  21:18:00     -150.956      -29.805      -14.596       80.856       59.537       37.074     6537.656     3544.645     1374.471        1.767        0.573      153.870       36.265        0.056      337.021        8.713      856.631
01/06/2022  21:19:00     -113.994      -68.492      -17.071       54.027       55.988       27.769     2918.873     3134.667      771.106        1.240        0.341      132.988       22.331        0.028      337.071        8.799      856.643
01/06/2022  21:20:00      -79.656      -34.446      -12.075       35.524       91.633       26.086     1261.983     8396.691      680.492        0.901        0.517       86.785       25.381        0.086      337.243        9.086      856.568
01/06/2022  21:21:00     -101.841      -37.221      -12.342       50.190       47.113       33.045     2518.991     2219.640     1091.941        0.887        0.292      108.430       23.158        0.046      337.126        8.889      856.545
01/06/2022  21:22:00      -73.285      -33.801      -15.583       44.625       39.926       20.461     1991.428     1594.088      418.648        0.538        0.200       80.704       16.578        0.042      337.072        8.801      856.584
01/06/2022  21:23:00      -82.696      -60.566       -2.505       37.842       41.541       18.723     1432.044     1725.686      350.549        0.701        0.175      102.503       17.171        0.028      337.018        8.709      856.639
01/06/2022  21:24:00      -51.596       -6.292        3.680       38.562       34.558       19.844     1487.044     1194.274      393.784        0.289        0.154       51.978       14.880        0.082      336.970        8.629      856.647
01/06/2022  21:25:00      -96.318      -19.480      -14.062       55.156       34.788       31.875     3042.208     1210.222     1015.987        0.756        0.263       98.268       31.150        0.100      337.005        8.687      856.625
01/06/2022  21:26:00     -103.766       -6.058      -13.178       71.762       73.038       25.835     5149.755     5334.505      667.442        1.106        0.558      103.942       29.322        0.080      337.017        8.707      856.563
01/06/2022  21:27:00      -30.870        5.995       -7.254       38.680       28.821       24.474     1496.143      830.624      598.966        0.198        0.146       31.447       20.567        0.428      336.981        8.647      856.520
01/06/2022  21:28:00      -17.000       26.873        7.870       21.304       33.808       16.578      453.852     1142.992      274.820        0.147        0.094       31.798       12.651        0.158      337.101        8.849      856.533
01/06/2022  21:29:00      -29.997        1.562       -4.098       38.050       27.201       16.393     1447.767      739.871      268.739        0.169        0.123       30.038       19.525        0.423      336.706        8.188      856.579
01/06/2022  21:30:00      -86.709       -7.567      -12.276       57.448       32.579       24.955     3300.231     1061.423      622.756        0.635        0.249       87.039       15.412        0.031      336.650        8.095      856.596
01/06/2022  21:31:00      -84.300      -10.486      -20.001       29.937       29.600       20.681      896.199      876.186      427.717        0.491        0.110       84.950       14.303        0.028      336.767        8.290      856.550
01/06/2022  21:32:00      -86.084       35.362       -7.627       31.106       24.224       18.206      967.560      586.793      331.476        0.530        0.094       93.064       15.325        0.027      336.660        8.112      856.522
01/06/2022  21:33:00     -100.835       64.670      -11.594       35.400       21.721       19.203     1253.132      471.807      368.742        0.829        0.105      119.791       18.206        0.023      336.650        8.094      856.499
01/06/2022  21:34:00      -62.807       29.342       -7.984       28.905       23.675       21.806      835.518      560.514      475.497        0.337        0.094       69.323       13.371        0.037      336.780        8.311      856.457
01/06/2022  21:35:00      -43.335       19.457       -5.179       25.919       12.700        9.430      671.801      161.293       88.934        0.160        0.046       47.503        8.345        0.031      336.670        8.129      856.462
01/06/2022  21:36:00      -22.378       -7.276       -5.644       35.333       21.656       20.622     1248.389      468.962      425.259        0.136        0.107       23.531       20.879        0.787      336.441        7.745      856.531
01/06/2022  21:37:00      -29.063      -54.451       -7.009       45.071       44.057       15.458     2031.377     1941.040      238.946        0.403        0.211       61.722       14.759        0.057      336.357        7.605      856.567
01/06/2022  21:38:00      -65.751      -35.245       -5.471       27.537       44.296       17.046      758.307     1962.106      290.566        0.430        0.151       74.602       13.888        0.035      336.962        8.615      856.523
01/06/2022  21:39:00      -74.683      -13.305       -7.190       33.711       42.962       24.753     1136.465     1845.754      612.720        0.470        0.180       75.859       25.859        0.116      336.904        8.518      856.460
01/06/2022  21:40:00     -140.410     -101.077      -23.928       38.292       37.935       25.207     1466.253     1439.059      635.384        1.702        0.177      173.007       12.457        0.005      337.074        8.802      856.483
01/06/2022  21:41:00     -129.689     -110.722      -17.753       43.657       51.358       32.312     1905.911     2637.613     1044.071        1.749        0.279      170.525       20.586        0.015      337.049        8.760      856.491
01/06/2022  21:42:00     -130.425      -48.367      -28.919       64.129       59.920       38.670     4112.557     3590.464     1495.343        1.469        0.460      139.105       33.961        0.060      337.118        8.875      856.425
01/06/2022  21:43:00     -139.471       16.611      -13.866       52.886       34.888       24.395     2796.964     1217.157      595.133        1.226        0.230      140.457       19.891        0.020      337.051        8.764      856.375
01/06/2022  21:44:00     -151.964      -14.078       -7.731       74.517       45.266       36.284     5552.799     2048.994     1316.508        1.613        0.446      152.614       32.180        0.044      337.045        8.752      856.384
01/06/2022  21:45:00     -155.374      -48.139       -7.257       86.469       52.719       35.580     7476.886     2779.240     1265.918        1.901        0.576      162.660       40.158        0.061      337.200        9.010      856.381
01/06/2022  21:46:00     -165.162      -23.733      -23.395      100.610       51.206       46.346    10122.458     2622.045     2147.924        2.164        0.745      166.858       44.365        0.071      337.364        9.287      856.368
01/06/2022  21:47:00     -129.653      -54.344       -3.384       78.150       70.741       43.055     6107.476     5004.341     1853.771        1.637        0.648      140.582       41.042        0.085      337.285        9.157      856.369
01/06/2022  21:48:00     -170.585      -87.098      -28.714       73.613       79.822       52.472     5418.845     6371.526     2753.301        2.602        0.727      191.534       50.233        0.069      337.322        9.217      856.390
01/06/2022  21:49:00      -84.335      -76.848      -11.553       79.346       59.016       34.828     6295.717     3482.836     1212.994        1.207        0.550      114.097       25.852        0.051      337.264        9.120      856.357
01/06/2022  21:50:00      -14.047      -39.933      -18.236       49.609       41.598       43.515     2461.087     1730.413     1893.523        0.410        0.304       42.332       27.786        0.431      337.242        9.084      856.313
01/06/2022  21:51:00      -83.120        5.696        1.685       63.668       56.572       35.665     4053.613     3200.447     1271.964        0.773        0.426       83.315       23.608        0.080      337.165        8.955      856.291
01/06/2022  21:52:00     -139.627       -8.626       -0.840       62.794       45.282       31.693     3943.043     2050.455     1004.445        1.328        0.350      139.893       30.621        0.048      337.106        8.855      856.294
01/06/2022  21:53:00     -225.800       -5.727       -2.860       94.288       61.880       48.441     8890.236     3829.160     2346.483        3.304        0.753      225.872       46.701        0.043      337.324        9.217      856.285
01/06/2022  21:54:00     -142.935      -18.597       -5.088       95.587       62.303       55.719     9136.855     3881.639     3104.557        1.846        0.806      144.140       53.383        0.137      337.396        9.339      856.266
01/06/2022  21:55:00     -164.213       22.186      -14.113       64.792       45.130       36.111     4198.031     2036.732     1304.040        1.760        0.377      165.705       25.735        0.024      337.277        9.143      856.276
01/06/2022  21:56:00     -168.339        4.075       -6.712       70.636       48.706       35.768     4989.440     2372.318     1279.374        1.852        0.432      168.388       32.501        0.037      337.349        9.262      856.278
01/06/2022  21:57:00      -76.203      -25.333      -12.258       38.013       35.594       22.806     1444.983     1266.931      520.098        0.491        0.162       80.304       16.816        0.044      337.210        9.030      856.338
01/06/2022  21:58:00     -108.661      -90.531      -13.527       54.547       48.175       23.512     2975.387     2320.783      552.810        1.302        0.292      141.432       23.092        0.027      337.316        9.207      856.418
01/06/2022  21:59:00      -63.202      -14.088      -37.115       92.824       39.838       32.498     8616.370     1587.071     1056.105        0.841        0.563       64.753       23.316        0.130      337.153        8.934      856.404
01/06/2022  22:00:00        6.161       16.296       -7.758       13.771       20.629       13.398      189.652      425.555      179.517        0.058        0.040       17.422        6.017        0.119      336.888        8.491      856.301
01/06/2022  22:01:00       -5.102      -11.225        4.593       23.984       26.148       22.358      575.225      683.718      499.875        0.097        0.088       12.331        7.195        0.340      336.860        8.445      856.224
01/06/2022  22:02:00       10.553        8.263       -0.813       20.127       13.912       11.292      405.077      193.547      127.508        0.045        0.036       13.403        7.243        0.292      336.915        8.536      856.212
01/06/2022  22:03:00      -30.811       -8.521       -4.156       35.348       22.869       23.543     1249.457      523.004      554.266        0.168        0.116       31.968       24.897        0.607      336.945        8.587      856.273
01/06/2022  22:04:00      -81.443       -3.701       -0.784       86.121       42.669       40.034     7416.803     1820.672     1602.691        0.874        0.542       81.527       31.199        0.146      336.837        8.406      856.361
01/06/2022  22:05:00     -165.739       -1.862       -7.922       77.575       43.706       31.878     6017.914     1910.240     1016.198        1.824        0.447      165.750       28.241        0.029      337.137        8.908      856.366
01/06/2022  22:06:00     -139.569      -48.518      -22.464       60.105       55.137       33.541     3612.624     3040.072     1124.985        1.506        0.389      147.762       28.146        0.036      337.135        8.904      856.303
01/06/2022  22:07:00     -145.499       44.464       -9.783       56.237       66.239       38.519     3162.575     4387.667     1483.741        1.614        0.452      152.141       32.824        0.047      337.261        9.116      856.155
01/06/2022  22:08:00     -133.151       33.563       -8.548       71.672       43.231       32.303     5136.927     1868.959     1043.483        1.349        0.402      137.316       27.510        0.040      337.194        9.003      856.111
01/06/2022  22:09:00     -110.100      -22.428       -2.018       63.677       49.973       39.592     4054.812     2497.253     1567.566        1.037        0.406      112.361       35.476        0.100      337.028        8.725      856.217
01/06/2022  22:10:00     -193.898      -30.491      -11.478       68.367       62.299       39.959     4674.101     3881.202     1596.686        2.440        0.508      196.281       30.871        0.025      337.171        8.962      856.288
01/06/2022  22:11:00     -158.706      -69.901      -18.541       88.089       58.757       37.166     7759.608     3452.344     1381.287        2.150        0.630      173.418       41.626        0.058      337.216        9.039      856.267
01/06/2022  22:12:00      -99.890      -17.747       -2.747       55.298       28.566       27.255     3057.847      815.997      742.822        0.746        0.231      101.454       26.135        0.066      337.155        8.940      856.170
01/06/2022  22:13:00        4.013       18.483        5.832       56.517       27.834       21.143     3194.224      774.753      447.038        0.240        0.221       18.913       15.550        0.676      336.903        8.517      856.067
01/06/2022  22:14:00      -36.912      -12.670      -23.285       73.661       42.376       34.938     5425.953     1795.740     1220.638        0.525        0.422       39.026       34.635        0.788      336.875        8.470      856.130
01/06/2022  22:15:00     -230.943      -11.623        0.648       94.068       61.424       53.105     8848.771     3772.862     2820.103        3.445        0.772      231.235       53.081        0.053      336.982        8.643      856.252
01/06/2022  22:16:00     -193.324       -8.635       -7.812       93.609       66.748       49.470     8762.655     4455.274     2447.251        2.658        0.783      193.517       49.376        0.065      336.942        8.579      856.271
01/06/2022  22:17:00     -144.081        4.450      -20.583       78.086       53.667       44.421     6097.429     2880.179     1973.267        1.607        0.548      144.150       39.958        0.077      336.927        8.555      856.204
01/06/2022  22:18:00     -181.304       31.349      -21.886       79.008       64.640       39.216     6242.235     4178.391     1537.933        2.314        0.598      183.994       34.070        0.034      337.031        8.728      856.062
01/06/2022  22:19:00     -195.785       61.670      -18.902       47.369       40.795       30.522     2243.834     1664.259      931.575        2.366        0.242      205.268       27.156        0.018      336.946        8.586      856.018
01/06/2022  22:20:00      -77.031      -24.075      -23.158       74.743       53.552       33.112     5586.539     2867.869     1096.428        0.830        0.478       80.705       14.843        0.034      336.774        8.300      856.118
01/06/2022  22:21:00      -57.542       -1.980       -3.739       37.825       29.251       27.489     1430.753      855.635      755.645        0.318        0.152       57.576       23.541        0.167      336.799        8.344      856.175
01/06/2022  22:22:00      -55.649      -12.626      -10.268       45.870       25.197       20.379     2104.068      634.886      415.293        0.326        0.158       57.063       20.586        0.130      336.813        8.366      856.151
01/06/2022  22:23:00      -20.032       23.779       -5.979       13.728       12.802        6.627      188.450      163.902       43.922        0.070        0.020       31.093        5.682        0.033      336.890        8.496      856.087
01/06/2022  22:24:00      -29.251       33.973       -8.515       29.231       20.044       17.363      854.452      401.763      301.484        0.182        0.078       44.830       10.459        0.054      336.965        8.619      856.049
01/06/2022  22:25:00        2.007      -11.733       -3.104       48.014       36.679       27.200     2305.337     1345.375      739.856        0.227        0.220       11.904       20.886        3.079      336.686        8.153      856.133
01/06/2022  22:26:00     -106.802      -24.921       -1.492       95.869       44.416       41.055     9190.936     1972.765     1685.547        1.244        0.642      109.671       45.240        0.170      336.359        7.608      856.236
01/06/2022  22:27:00     -112.137       18.938       -6.044       50.055       32.538       23.248     2505.479     1058.734      540.471        0.854        0.205      113.725       23.408        0.042      336.604        8.017      856.206
01/06/2022  22:28:00      -13.323       -3.175       -8.952       32.184       22.494       22.417     1035.808      505.968      502.527        0.116        0.102       13.696        7.705        0.317      336.810        8.362      856.111
01/06/2022  22:29:00     -120.393       29.562      -16.542       50.892       25.951       21.388     2589.990      673.455      457.464        0.968        0.186      123.970       21.580        0.030      336.694        8.165      856.095
01/06/2022  22:30:00      -60.170       -1.416       -3.547       61.786       43.845       33.748     3817.529     1922.380     1138.948        0.526        0.344       60.187       24.853        0.171      336.186        7.318      856.192
01/06/2022  22:31:00     -146.933       29.324       -0.993       67.833       51.181       34.673     4601.295     2619.483     1202.225        1.544        0.421      149.831       32.590        0.047      336.430        7.726      856.231
01/06/2022  22:32:00      -82.237       38.828       -8.178       34.683       23.607       23.831     1202.878      557.308      567.935        0.533        0.116       90.943       19.650        0.047      336.566        7.953      856.129
01/06/2022  22:33:00     -109.235       34.727      -20.894       30.242       31.064       18.189      914.588      964.992      330.826        0.789        0.111      114.622       15.861        0.019      336.499        7.842      856.043
01/06/2022  22:34:00     -146.436       13.489      -14.979       84.088       42.363       34.911     7070.839     1794.613     1218.764        1.597        0.504      147.056       31.436        0.046      336.097        7.170      856.053
01/06/2022  22:35:00     -143.748       39.765       -2.786      106.634       46.138       35.938    11370.863     2128.694     1291.539        1.852        0.740      149.147       37.082        0.062      336.114        7.196      856.110
01/06/2022  22:36:00      -59.031       10.759      -11.374       85.428       44.647       33.814     7297.975     1993.379     1143.398        0.708        0.522       60.004       25.493        0.181      335.995        6.999      856.109
01/06/2022  22:37:00     -113.147       31.190       -9.233       69.493       32.577       28.380     4829.335     1061.249      805.433        1.028        0.335      117.367       21.746        0.034      335.997        7.004      856.066
01/06/2022  22:38:00      -56.707       32.881       -2.351       38.716       31.831       21.891     1498.943     1013.244      479.237        0.365        0.150       65.551       11.016        0.028      335.863        6.779      856.035
01/06/2022  22:39:00      -30.912       -4.237       -4.949       57.541       40.638       29.257     3310.997     1651.480      855.965        0.341        0.291       31.201       32.324        1.073      335.829        6.725      856.038
01/06/2022  22:40:00      -96.945       34.549      -14.334       43.175       28.617       21.783     1864.106      818.934      474.505        0.698        0.158      102.917       14.362        0.019      335.817        6.704      856.034
01/06/2022  22:41:00      -49.296        3.995       -7.807       42.422       34.586       26.957     1799.662     1196.203      726.675        0.311        0.186       49.457       17.700        0.128      335.747        6.585      856.022
01/06/2022  22:42:00      -89.613        9.940        3.052       96.410       28.948       36.235     9294.865      837.981     1313.010        0.979        0.572       90.162       43.489        0.233      335.765        6.617      856.041
01/06/2022  22:43:00      -79.471       -0.518       -9.378       70.393       31.392       34.408     4955.120      985.436     1183.934        0.676        0.356       79.473       24.968        0.099      335.957        6.938      856.038
01/06/2022  22:44:00      -92.859       34.779      -20.609       45.655       40.348       29.072     2084.386     1627.984      845.170        0.741        0.228       99.158       26.342        0.071      335.930        6.891      855.977
01/06/2022  22:45:00      -47.591       35.734       -8.497       27.601       34.822       20.189      761.823     1212.590      407.583        0.300        0.119       59.513       15.990        0.072      336.047        7.087      855.936
01/06/2022  22:46:00      -22.429      -21.536      -11.472       43.954       49.037       28.638     1931.944     2404.667      820.146        0.313        0.258       31.094       20.680        0.442      335.792        6.662      855.955
01/06/2022  22:47:00     -129.147       26.923      -16.674       87.298       75.392       33.758     7620.993     5683.913     1139.586        1.606        0.722      131.924       34.402        0.068      335.499        6.173      855.996
01/06/2022  22:48:00     -115.308       22.996      -12.720       81.209       50.712       47.097     6594.878     2571.756     2218.096        1.268        0.569      117.579       51.748        0.194      335.522        6.211      856.011
01/06/2022  22:49:00     -103.563       49.174       -7.181       53.826       48.286       28.840     2897.289     2331.560      831.769        0.963        0.303      114.644       29.067        0.064      335.787        6.653      855.975
01/06/2022  22:50:00      -79.408       27.087       -7.264       72.064       49.940       43.410     5193.152     2494.017     1884.399        0.833        0.479       83.901       31.806        0.144      335.691        6.493      855.985
01/06/2022  22:51:00     -156.905       53.437      -20.797       78.773       58.242       36.978     6205.213     3392.158     1367.386        1.943        0.548      165.755       33.892        0.042      335.594        6.330      855.977
01/06/2022  22:52:00     -156.800       72.096      -22.215       54.695       43.068       25.763     2991.491     1854.874      663.737        1.789        0.276      172.580       24.120        0.020      335.655        6.434      855.911
01/06/2022  22:53:00     -141.115       78.257      -13.663       62.869       48.837       30.140     3952.502     2385.049      908.448        1.673        0.362      161.361       31.019        0.037      335.902        6.844      855.899
01/06/2022  22:54:00     -207.167       45.539      -30.624       84.876       58.188       42.260     7203.923     3385.853     1785.882        2.915        0.619      212.113       34.572        0.027      335.556        6.265      855.901
01/06/2022  22:55:00      -81.488       29.752      -18.396       86.411       55.258       47.358     7466.892     3053.481     2242.767        1.031        0.638       86.750       40.884        0.222      335.638        6.405      855.908
01/06/2022  22:56:00      -82.035       42.270      -21.883       33.072       59.717       23.537     1093.728     3566.172      553.996        0.710        0.261       92.285       19.199        0.043      335.856        6.769      855.906
01/06/2022  22:57:00      -59.492       15.799      -20.874       28.951       22.496       24.771      838.181      506.054      613.587        0.309        0.098       61.554       18.666        0.092      335.630        6.392      855.870
01/06/2022  22:58:00     -107.511       29.724      -19.224       45.956       38.549       24.296     2111.942     1486.005      590.311        0.850        0.209      111.544       19.475        0.030      335.543        6.248      855.848
01/06/2022  22:59:00      -98.682       30.611      -17.777       58.510       33.796       27.761     3423.444     1142.199      770.646        0.816        0.267      103.321       14.839        0.021      335.480        6.142      855.841
01/06/2022  23:00:00      -76.471       28.732       -6.053       63.872       32.040       25.338     4079.636     1026.557      642.003        0.623        0.287       81.691       29.515        0.131      335.635        6.401      855.840
01/06/2022  23:01:00      -17.250      -33.644       -9.583       43.267       31.118       28.579     1872.017      968.337      816.748        0.259        0.183       37.809       22.608        0.358      335.660        6.442      855.826
01/06/2022  23:02:00      -26.912      -38.909      -15.438       19.766       20.723       14.950      390.678      429.432      223.516        0.176        0.052       47.309        6.138        0.017      335.467        6.123      855.817
01/06/2022  23:03:00      -47.899      -31.181      -17.090       19.032       13.986       10.384      362.212      195.617      107.837        0.211        0.033       57.153        8.703        0.023      335.681        6.477      855.827
01/06/2022  23:04:00     -104.387       -7.792       -9.411       76.189       56.418       47.185     5804.777     3182.986     2226.427        1.113        0.561      104.677       44.320        0.179      335.376        5.967      855.843
01/06/2022  23:05:00     -131.783       15.445       -5.447       90.805       44.613       35.263     8245.476     1990.336     1243.501        1.456        0.574      132.685       31.485        0.056      335.451        6.093      855.828
01/06/2022  23:06:00     -130.453       29.547      -15.721       38.003       28.166       24.869     1444.191      793.311      618.472        1.050        0.143      133.757       14.179        0.011      335.483        6.147      855.770
01/06/2022  23:07:00      -50.547       71.498       -5.865       36.047       49.496       27.962     1299.374     2449.817      781.872        0.612        0.227       87.561       23.109        0.070      336.159        7.272      855.718
01/06/2022  23:08:00     -122.459       41.259      -20.558       46.310       25.230       24.524     2144.612      636.561      601.428        1.025        0.169      129.222       11.215        0.008      336.025        7.050      855.707
01/06/2022  23:09:00       -5.578      -26.392        6.503       37.403       48.557       28.756     1398.967     2357.810      826.892        0.268        0.229       26.975       13.086        0.235      335.613        6.363      855.707
01/06/2022  23:10:00     -102.529       13.626        4.224       90.933       47.459       33.253     8268.755     2252.396     1105.783        1.117        0.581      103.431       29.772        0.083      335.467        6.120      855.727
01/06/2022  23:11:00     -126.630       48.050       -9.742       65.254       31.847       33.215     4258.139     1014.263     1103.214        1.241        0.319      135.440       35.542        0.069      335.529        6.224      855.741
01/06/2022  23:12:00     -123.987       38.419       -9.375       41.976       30.840       31.804     1761.943      951.096     1011.491        1.033        0.186      129.803       29.606        0.052      335.614        6.364      855.800
01/06/2022  23:13:00     -154.644       35.163      -11.355       36.572       30.537       18.290     1337.538      932.527      334.534        1.394        0.130      158.591       10.854        0.005      335.451        6.094      855.826
01/06/2022  23:14:00      -98.501       38.871       -9.807       31.728       37.865       19.848     1006.662     1433.730      393.925        0.707        0.142      105.894       14.469        0.019      335.508        6.189      855.774
01/06/2022  23:15:00     -124.297       47.611      -11.029       54.175       36.145       32.307     2934.930     1306.452     1043.763        1.156        0.264      133.104       20.867        0.025      335.693        6.497      855.700
01/06/2022  23:16:00      -63.650      -41.545      -24.056       41.382       43.804       27.274     1712.502     1918.756      743.893        0.536        0.219       76.009       21.980        0.084      335.636        6.401      855.724
01/06/2022  23:17:00      -75.304       -9.302      -19.842       67.381       34.383       28.797     4540.221     1182.192      829.274        0.635        0.328       75.877       22.455        0.088      335.677        6.469      855.778
01/06/2022  23:18:00     -111.313       24.528      -15.986       36.144       34.801       19.962     1306.383     1211.102      398.482        0.808        0.146      113.983       18.679        0.027      335.919        6.874      855.717
01/06/2022  23:19:00     -157.193       72.165      -19.347       58.746       37.073       30.838     3451.062     1374.376      950.978        1.803        0.289      172.967       33.112        0.037      335.923        6.879      855.636
01/06/2022  23:20:00     -157.851       87.836      -17.673       63.786       63.954       41.297     4068.668     4090.050     1705.407        2.140        0.493      180.643       34.584        0.037      336.277        7.469      855.624
01/06/2022  23:21:00     -179.126      113.742      -21.179       61.692       60.581       37.325     3805.846     3670.075     1393.182        2.717        0.443      212.187       36.479        0.030      335.761        6.606      855.643
01/06/2022  23:22:00     -156.366      151.126      -33.452       47.892       50.357       34.970     2293.688     2535.855     1222.875        2.723        0.303      217.461       25.114        0.013      336.003        7.012      855.580
01/06/2022  23:23:00     -105.748       46.538      -26.369       46.911       49.987       23.551     2200.687     2498.714      554.648        0.965        0.263      115.535       19.175        0.028      335.725        6.551      855.545
01/06/2022  23:24:00      -37.939       -4.503      -26.645       61.493       79.257       36.265     3781.441     6281.653     1315.132        0.677        0.569       38.206       20.807        0.297      335.425        6.051      855.559
01/06/2022  23:25:00     -105.008       23.439      -16.655       85.490       46.600       41.793     7308.577     2171.574     1746.660        1.154        0.561      107.593       31.714        0.087      335.627        6.386      855.590
01/06/2022  23:26:00     -158.113       85.028      -18.680       82.534       40.477       26.272     6811.800     1638.420      690.231        2.086        0.457      179.526       15.153        0.007      335.635        6.399      855.589
01/06/2022  23:27:00      -91.198       24.284      -14.558       53.997       40.942       30.542     2915.625     1676.276      932.829        0.732        0.276       94.376       18.416        0.038      335.549        6.259      855.536
01/06/2022  23:28:00      -98.311       12.393        4.511       74.453       62.235       49.621     5543.318     3873.237     2462.221        1.086        0.594       99.089       50.029        0.255      335.350        5.924      855.534
01/06/2022  23:29:00      -73.835       44.259       -1.721       63.897       32.417       26.231     4082.800     1050.854      688.065        0.662        0.291       86.084       27.200        0.100      335.433        6.064      855.534
01/06/2022  23:30:00      -31.133       -1.918      -10.182       27.763       12.242       14.273      770.766      149.857      203.724        0.110        0.056       31.192       10.803        0.120      335.837        6.736      855.472
01/06/2022  23:31:00     -108.211       -5.028      -22.592       53.635       35.352       37.188     2876.728     1249.768     1382.930        0.888        0.275      108.327       32.372        0.089      335.270        5.792      855.428
01/06/2022  23:32:00     -114.653      -11.972      -21.813       77.842       56.227       47.000     6059.307     3161.438     2208.994        1.259        0.571      115.276       48.175        0.175      335.058        5.439      855.442
01/06/2022  23:33:00      -74.935       43.697      -26.007       61.787       44.437       26.829     3817.685     1974.648      719.793        0.736        0.326       86.745       21.635        0.062      335.547        6.255      855.409
01/06/2022  23:34:00      -33.008       19.607       -2.189      107.212       55.749       44.721    11494.444     3107.959     2000.012        0.904        0.830       38.392       41.075        1.145      334.985        5.318      855.425
01/06/2022  23:35:00      -32.062      -11.577      -14.692       62.021       48.935       35.347     3846.608     2394.621     1249.390        0.443        0.375       34.088       21.527        0.399      335.063        5.450      855.416
01/06/2022  23:36:00      -99.507       49.121      -14.564       54.748       42.877       23.730     2997.355     1838.433      563.108        0.896        0.270      110.971       19.084        0.030      336.489        7.824      855.352
01/06/2022  23:37:00      -53.047       -1.379      -10.820       42.197       37.699       18.313     1780.557     1421.233      335.367        0.323        0.177       53.065       15.810        0.089      336.239        7.408      855.289
01/06/2022  23:38:00      -75.764       -8.528      -20.440       45.573       25.859       25.606     2076.856      668.682      655.642        0.482        0.170       76.242       25.054        0.108      335.436        6.070      855.303
01/06/2022  23:39:00      -98.327        5.689      -17.815       26.812       27.862       18.570      718.858      776.315      344.849        0.593        0.092       98.492       17.245        0.031      335.941        6.911      855.312
01/06/2022  23:40:00     -136.674       93.815      -24.114       62.555       35.985       19.300     3913.097     1294.896      372.499        1.682        0.279      165.774       22.682        0.019      335.872        6.793      855.276
01/06/2022  23:41:00     -139.656       64.169       -4.414      112.401       57.140       39.609    12633.976     3264.956     1568.859        2.055        0.873      153.692       42.968        0.078      335.989        6.988      855.285
01/06/2022  23:42:00      -76.926       25.457       -2.431       49.694       58.951       24.870     2469.476     3475.199      618.538        0.657        0.328       81.028       22.971        0.080      336.547        7.923      855.284
01/06/2022  23:43:00     -159.175      -56.384      -27.140       40.841       50.759       27.913     1668.018     2576.446      779.142        1.714        0.251      168.867       21.152        0.016      336.717        8.204      855.261
01/06/2022  23:44:00     -137.100       -4.574      -12.496       53.660       47.232       24.874     2879.355     2230.862      618.724        1.235        0.286      137.176       19.221        0.020      336.493        7.831      855.240
01/06/2022  23:45:00     -151.805       -3.641       -2.039       69.723       39.606       32.722     4861.289     1568.666     1070.700        1.528        0.375      151.848       33.417        0.048      336.456        7.769      855.244
01/06/2022  23:46:00     -119.276        0.045       -3.633       52.112       49.683       32.777     2715.649     2468.374     1074.344        1.025        0.313      119.276       21.601        0.033      336.267        7.455      855.263
01/06/2022  23:47:00      -76.291       39.413       -6.939       30.629       34.829       17.812      938.124     1213.074      317.278        0.494        0.123       85.870       13.653        0.025      336.008        7.021      855.253
01/06/2022  23:48:00      -64.806       17.662       -7.149       34.101       32.694       20.542     1162.900     1068.893      421.986        0.361        0.133       67.169       21.204        0.100      336.091        7.160      855.201
01/06/2022  23:49:00      -20.770      -18.641       -6.202       16.555       12.039        8.618      274.065      144.930       74.272        0.066        0.025       27.908        6.134        0.048      336.102        7.179      855.195
01/06/2022  23:50:00       -9.390      -65.747      -21.492       30.268       38.468       18.217      916.177     1479.761      331.849        0.380        0.136       66.414       24.008        0.131      336.616        8.037      855.202
01/06/2022  23:51:00       57.931      -80.385      -20.566       40.326       56.172       23.369     1626.216     3155.263      546.089        0.778        0.266       99.085       28.020        0.080      336.276        7.469      855.201
01/06/2022  23:52:00       -9.205        2.883       -2.761       24.827       16.126       23.415      616.384      260.037      548.274        0.076        0.071        9.646        6.577        0.465      336.439        7.741      855.144
01/06/2022  23:53:00       39.102       -5.822      -15.127       13.837       31.857       12.030      191.454     1014.876      144.733        0.157        0.068       39.533       14.556        0.136      336.560        7.944      855.100
01/06/2022  23:54:00      -28.947      -59.259      -17.305       56.555       25.151       18.357     3198.458      632.595      336.989        0.441        0.208       65.951       15.268        0.054      336.798        8.340      855.106
01/06/2022  23:55:00     -105.971       44.137      -15.488       43.065       39.062       25.378     1854.568     1525.852      644.029        0.872        0.201      114.796       23.605        0.042      335.839        6.742      855.112
01/06/2022  23:56:00      -75.784       40.142       -4.184       31.341       26.544       19.231      982.234      704.579      369.813        0.471        0.103       85.759       16.039        0.035      336.047        7.087      855.085
01/06/2022  23:57:00     -109.755       48.675       -2.726       39.376       35.214       24.835     1550.481     1240.047      616.754        0.891        0.170      120.064       20.681        0.030      335.963        6.946      855.076
01/06/2022  23:58:00      -35.079       48.339       -2.286       48.855       27.596       21.284     2386.782      761.564      453.025        0.359        0.180       59.726       11.411        0.037      336.328        7.556      855.078
01/06/2022  23:59:00       15.168      -23.284      -10.808       17.172       33.356       10.042      294.886     1112.632      100.833        0.120        0.075       27.789        7.988        0.083      336.485        7.819      855.062
01/07/2022  00:00:00      -62.146      -64.612      -18.229       38.937       42.417       27.935     1516.082     1799.211      780.381        0.623        0.205       89.649       24.310        0.074      336.845        8.421      855.086
01/07/2022  00:01:00       10.997      -55.802       -5.567       35.768       40.804       22.453     1279.318     1664.951      504.136        0.336        0.172       56.875       18.177        0.102      336.438        7.741      855.091
01/07/2022  00:02:00       -5.051       -4.464       -1.127       39.555       25.279       23.990     1564.590      639.034      575.526        0.141        0.139        6.741       15.742        5.454      336.256        7.435      855.023
01/07/2022  00:03:00      -18.193      -81.997      -18.599       79.409       49.351       38.343     6305.821     2435.517     1470.184        0.880        0.511       83.991       14.146        0.028      336.293        7.499      854.928
01/07/2022  00:04:00     -116.847       36.005       -0.231       67.609       41.986       31.884     4570.998     1762.809     1016.561        1.115        0.368      122.268       28.791        0.055      336.224        7.380      855.009
01/07/2022  00:05:00     -148.547      -18.233       -6.070       98.921       51.021       49.550     9785.414     2603.189     2455.203        1.864        0.742      149.662       53.987        0.130      336.287        7.486      855.030
01/07/2022  00:06:00     -176.059       40.989      -14.672       96.103       70.652       42.975     9235.750     4991.740     1846.844        2.448        0.804      180.768       39.307        0.047      336.560        7.942      854.992
01/07/2022  00:07:00      -87.882       33.541        5.191       52.368       32.464       30.445     2742.366     1053.940      926.889        0.680        0.236       94.065       23.905        0.065      336.377        7.637      854.910
01/07/2022  00:08:00      -30.198      -25.319      -10.528       35.452       28.645       16.848     1256.810      820.522      283.859        0.201        0.118       39.408       16.753        0.181      336.251        7.426      854.896
01/07/2022  00:09:00     -105.028      -73.910      -33.619       40.481       42.583       23.674     1638.751     1813.272      560.442        1.082        0.201      128.427       20.235        0.025      336.491        7.828      854.999
01/07/2022  00:10:00     -208.528      -17.439      -32.974       93.804       63.888       45.358     8799.232     4081.689     2057.314        2.990        0.747      209.256       35.667        0.029      336.641        8.076      854.986
01/07/2022  00:11:00     -240.441       -9.732      -17.570       90.391       98.111       47.447     8170.470     9625.859     2251.217        3.913        1.002      240.638       41.157        0.029      336.743        8.247      854.872
01/07/2022  00:12:00     -183.992       -7.764      -26.359       74.622       92.493       41.378     5568.477     8555.033     1712.163        2.522        0.792      184.156       39.336        0.046      336.685        8.151      854.746
01/07/2022  00:13:00     -203.262        3.314       -5.842       97.079       75.900       52.479     9424.254     5760.800     2754.094        2.965        0.897      203.289       37.464        0.034      336.856        8.436      854.823
01/07/2022  00:14:00     -182.437      -17.981       -7.690       75.677       57.864       44.159     5726.958     3348.216     1950.024        2.234        0.551      183.321       33.808        0.034      337.042        8.746      854.858
01/07/2022  00:15:00     -149.534      -45.731      -24.871       54.499       54.742       35.962     2970.115     2996.678     1293.259        1.616        0.363      156.371       29.435        0.035      337.077        8.806      854.781
01/07/2022  00:16:00     -123.306        9.243       -9.524       46.705       47.990       32.376     2181.320     2303.024     1048.217        1.046        0.277      123.652       18.843        0.023      337.071        8.798      854.714
01/07/2022  00:17:00     -111.335       11.258       -6.012       88.454       53.091       37.479     7824.112     2818.669     1404.667        1.230        0.602      111.903       27.791        0.062      336.888        8.490      854.738
01/07/2022  00:18:00     -214.778     -183.963      -40.648      113.218       88.590       44.691    12818.303     7848.115     1997.290        5.214        1.133      282.793       53.403        0.036      337.077        8.807      854.805
01/07/2022  00:19:00     -152.364      -73.440      -26.231       86.293       90.526       54.906     7446.517     8194.933     3014.698        2.397        0.933      169.140       44.748        0.070      336.916        8.537      854.855
01/07/2022  00:20:00      -94.499      -33.680       -6.657       65.762       76.470       38.869     4324.643     5847.618     1510.831        1.089        0.584      100.322       23.027        0.053      336.750        8.261      854.803
01/07/2022  00:21:00      -58.663      -26.115       -4.247       50.511       73.920       39.885     2551.327     5464.170     1590.839        0.687        0.480       64.214       31.399        0.239      337.182        8.983      854.721
01/07/2022  00:22:00     -283.555      -30.968      -25.994      112.837       96.397       56.653    12732.229     9292.363     3209.585        5.363        1.262      285.241       45.449        0.025      337.122        8.880      854.714
01/07/2022  00:23:00     -359.082      -52.878      -28.245      109.818       96.959       64.597    12060.097     9401.113     4172.761        7.908        1.282      362.955       46.996        0.017      337.361        9.279      854.748
01/07/2022  00:24:00     -254.489      -76.401      -19.044       97.122      118.597       61.967     9432.598    14065.136     3839.926        4.915        1.367      265.710       35.868        0.018      337.367        9.289      854.771
01/07/2022  00:25:00     -208.438      -62.776      -14.949      110.221       97.355       49.507    12148.759     9478.017     2450.943        3.584        1.204      217.686       38.050        0.031      337.421        9.381      854.759
01/07/2022  00:26:00     -232.111      -81.733      -22.453      126.946      100.115       70.255    16115.286    10022.953     4935.771        4.606        1.554      246.081       66.871        0.074      337.479        9.478      854.769
01/07/2022  00:27:00     -259.778      -14.895      -16.211      160.424      101.990       75.623    25735.897    10402.051     5718.849        5.491        2.093      260.205       78.994        0.092      337.387        9.324      854.770
01/07/2022  00:28:00     -397.820       21.294      -15.351      242.431      128.767       92.344    58772.744    16581.009     8527.379       12.140        4.194      398.390       98.951        0.062      337.485        9.489      854.800
01/07/2022  00:29:00     -410.671       25.400      -17.162      184.836      140.400       75.379    34164.288    19712.067     5682.006       11.456        2.978      411.456       67.986        0.027      337.470        9.462      854.755
01/07/2022  00:30:00     -372.736       65.843       -3.138      218.850      131.738       86.054    47895.221    17354.852     7405.227       10.795        3.633      378.507       72.437        0.037      337.459        9.444      854.759
01/07/2022  00:31:00     -388.512       -8.703      -38.433      184.263      130.981      104.900    33952.680    17155.965    11004.060       10.729        3.106      388.610       94.196        0.059      337.586        9.657      854.746
01/07/2022  00:32:00     -215.562      -56.019      -40.207       98.665       74.850       54.749     9734.880     5602.581     2997.402        3.477        0.917      222.722       51.282        0.053      337.625        9.723      854.754
01/07/2022  00:33:00     -186.922      -49.096      -16.572       65.288       71.277       42.860     4262.567     5080.436     1836.955        2.440        0.559      193.262       31.990        0.027      337.590        9.664      854.699
01/07/2022  00:34:00     -206.065      -96.982      -12.030      100.336      106.602       52.606    10067.288    11364.034     2767.371        3.810        1.210      227.747       42.153        0.034      337.568        9.629      854.698
01/07/2022  00:35:00     -232.644       -7.045      -50.260      136.886      104.924       61.020    18737.644    11009.070     3723.470        4.508        1.674      232.750       38.704        0.028      337.558        9.611      854.685
01/07/2022  00:36:00     -318.052      -38.001      -12.954      193.897      104.788       84.250    37596.216    10980.581     7098.082        7.921        2.784      320.314      102.052        0.102      337.590        9.664      854.695
01/07/2022  00:37:00     -328.797      -28.000      -24.006      186.349       97.816       88.878    34725.806     9567.980     7899.331        8.082        2.610      329.987       89.585        0.074      337.538        9.575      854.659
01/07/2022  00:38:00     -284.716       21.092      -27.667      237.084      152.319       97.646    56208.662    23200.992     9534.783        8.559        4.447      285.496       97.596        0.117      337.627        9.726      854.586
01/07/2022  00:39:00     -297.430      -35.492      -11.714      204.316      125.796       93.345    41745.037    15824.556     8713.208        7.806        3.314      299.541       90.413        0.091      337.600        9.680      854.596
01/07/2022  00:40:00     -344.265      -21.231      -11.537      160.386      121.780       80.284    25723.763    14830.256     6445.480        8.304        2.350      344.919       71.688        0.043      337.730        9.899      854.599
01/07/2022  00:41:00     -172.944      -70.607      -35.805       87.798      101.601       48.919     7708.510    10322.804     2393.113        2.830        1.021      186.802       36.293        0.038      337.643        9.753      854.588
01/07/2022  00:42:00      -88.738     -109.477      -15.269       65.566       79.356       37.171     4298.900     6297.359     1381.647        1.603        0.599      140.925       26.242        0.035      337.595        9.673      854.547
01/07/2022  00:43:00     -237.157     -137.966      -44.241      113.127       85.987       57.280    12797.751     7393.794     3281.015        5.035        1.174      274.368       42.462        0.024      337.525        9.556      854.575
01/07/2022  00:44:00     -251.794      -67.422      -36.384       88.349      102.874       46.861     7805.487    10583.127     2195.968        4.492        1.029      260.664       38.522        0.022      337.450        9.428      854.649
01/07/2022  00:45:00     -204.819     -129.578      -32.393       62.881      108.851       44.194     3954.081    11848.449     1953.088        3.877        0.888      242.366       22.360        0.009      337.400        9.345      854.663
01/07/2022  00:46:00     -192.040     -157.924      -28.286       87.058       98.347       55.890     7579.085     9672.089     3123.696        4.149        1.019      248.635       52.339        0.044      337.388        9.326      854.626
01/07/2022  00:47:00     -168.531      -80.373      -28.653       95.727       87.536       49.912     9163.667     7662.547     2491.170        2.750        0.966      186.716       40.534        0.047      337.326        9.224      854.610
01/07/2022  00:48:00     -194.834     -106.399      -43.783       88.268      126.546       55.825     7791.312    16013.924     3116.435        3.905        1.346      221.993       46.960        0.045      337.264        9.119      854.564
01/07/2022  00:49:00     -196.841      -37.271      -10.241      129.602       76.864       56.262    16796.732     5908.136     3165.383        3.305        1.294      200.338       32.927        0.027      337.275        9.138      854.559
01/07/2022  00:50:00     -314.555      -60.758      -37.907      112.948       79.862       48.943    12757.324     6377.921     2395.445        6.280        1.077      320.369       23.254        0.005      337.553        9.600      854.585
01/07/2022  00:51:00     -259.786      -96.641      -34.556      127.857      142.596       64.030    16347.475    20333.582     4099.855        5.939        2.039      277.179       59.396        0.046      337.446        9.423      854.598
01/07/2022  00:52:00     -236.175      -42.359      -29.337       99.090       75.301       62.827     9818.841     5670.250     3947.230        3.893        0.972      239.943       45.425        0.036      337.368        9.292      854.579
01/07/2022  00:53:00     -310.764      -21.370      -33.120      130.503       82.187       78.064    17031.065     6754.652     6093.957        6.400        1.494      311.498       66.682        0.046      337.410        9.362      854.530
01/07/2022  00:54:00     -308.233      -21.908      -24.290      187.435      146.071       72.806    35131.836    21336.686     5300.729        7.891        3.088      309.010       83.599        0.073      337.428        9.393      854.546
01/07/2022  00:55:00     -363.545      -51.142      -25.193      181.704      116.485       71.553    33016.209    13568.816     5119.854        9.355        2.585      367.125       91.329        0.062      337.536        9.573      854.510
01/07/2022  00:56:00     -285.003      -43.099      -14.491      150.900      115.997       84.284    22770.933    13455.311     7103.854        6.330        2.167      288.244       85.281        0.088      337.474        9.469      854.571
01/07/2022  00:57:00     -323.865      -79.863      -32.439      136.201      118.150       63.420    18550.742    13959.398     4022.117        7.442        1.827      333.567       57.642        0.030      337.448        9.425      854.616
01/07/2022  00:58:00     -180.382      -12.496      -21.095      157.655      114.911       55.448    24855.044    13204.584     3074.532        3.713        2.057      180.814       64.859        0.129      337.412        9.366      854.602
01/07/2022  00:59:00     -108.106      -11.556      -10.477      136.288       82.470       62.106    18574.441     6801.239     3857.190        2.058        1.462      108.722       41.165        0.143      337.416        9.375      854.557
01/07/2022  01:00:00     -339.357      -14.096       -9.447      167.729      106.549       83.034    28133.162    11352.749     6894.600        8.091        2.319      339.649       85.466        0.063      337.561        9.614      854.542
01/07/2022  01:01:00     -298.152      -32.206      -15.131      161.823       91.660       74.685    26186.692     8401.542     5577.831        6.516        2.008      299.886       75.575        0.064      337.665        9.789      854.586
01/07/2022  01:02:00     -205.094        8.036       -9.090      139.037       83.598       62.908    19331.301     6988.611     3957.469        3.624        1.514      205.251       61.340        0.089      337.499        9.512      854.660
01/07/2022  01:03:00     -287.114        5.241        4.220      212.780      119.078       87.622    45275.126    14179.653     7677.647        7.479        3.357      287.162      106.423        0.137      337.535        9.570      854.698
01/07/2022  01:04:00     -268.777       -7.876      -15.319      222.562      110.545       93.096    49533.789    12220.245     8666.874        7.147        3.521      268.892       93.586        0.121      337.566        9.624      854.676
01/07/2022  01:05:00     -321.728      -27.181       -3.643      164.909       99.738       80.207    27194.827     9947.752     6433.178        7.391        2.179      322.874       85.260        0.070      337.568        9.626      854.685
01/07/2022  01:06:00     -297.641       10.253      -27.016      110.695       71.631       61.030    12253.442     5130.978     3724.655        5.526        1.055      297.818       57.962        0.038      337.507        9.523      854.665
01/07/2022  01:07:00     -296.369        8.873       -0.783      166.705      106.228       74.116    27790.684    11284.326     5493.131        6.623        2.228      296.502       67.150        0.051      337.505        9.521      854.635
01/07/2022  01:08:00      -94.200       29.935        1.403      131.204       90.090       74.919    17214.559     8116.204     5612.888        2.035        1.547       98.842       51.808        0.275      337.628        9.728      854.620
01/07/2022  01:09:00     -234.311      -61.555      -12.749      183.351      114.857      110.484    33617.528    13192.154    12206.674        5.892        2.951      242.262      112.314        0.215      337.566        9.623      854.628
01/07/2022  01:10:00     -268.352       10.343      -13.055      201.385      120.620       76.780    40555.790    14549.250     5895.170        6.663        3.050      268.551       54.393        0.041      337.527        9.558      854.613
01/07/2022  01:11:00     -185.449      -16.297        1.296      194.247       84.753       84.908    37731.830     7183.078     7209.368        4.338        2.606      186.164       82.445        0.196      337.505        9.523      854.585
01/07/2022  01:12:00     -213.523      -14.925       -5.761      152.033       98.198       73.189    23113.947     9642.809     5356.646        4.197        1.906      214.044       65.955        0.095      337.495        9.504      854.569
01/07/2022  01:13:00     -294.552      -14.129      -25.083      163.358      101.037       76.314    26685.949    10208.418     5823.813        6.515        2.136      294.891       66.567        0.051      337.477        9.473      854.593
01/07/2022  01:14:00     -275.929       -1.540      -25.679      156.123      110.629       58.373    24374.452    12238.858     3407.402        5.840        2.001      275.933       59.951        0.047      337.484        9.487      854.595
01/07/2022  01:15:00     -191.609      -75.070      -21.873      110.103      104.272       53.105    12122.735    10872.584     2820.170        3.432        1.291      205.790       46.983        0.052      337.416        9.373      854.516
01/07/2022  01:16:00     -176.005      -56.826      -36.163       68.054       85.954       45.966     4631.349     7388.101     2112.848        2.482        0.707      184.952       34.718        0.035      337.387        9.325      854.431
01/07/2022  01:17:00     -233.112      -34.591      -22.895      136.689       85.509       57.512    18683.820     7311.761     3307.643        4.268        1.465      235.664       45.980        0.038      337.332        9.233      854.414
01/07/2022  01:18:00     -274.492      -34.532      -16.850      137.477       87.357       67.231    18899.810     7631.229     4519.993        5.393        1.553      276.656       59.760        0.047      337.347        9.256      854.452
01/07/2022  01:19:00     -280.931      -24.882      -22.088      101.158       84.877       55.838    10233.011     7204.055     3117.839        5.029        1.028      282.030       36.757        0.017      337.406        9.354      854.453
01/07/2022  01:20:00     -286.882      -27.266       -6.996      133.242       82.524       64.702    17753.474     6810.182     4186.332        5.592        1.437      288.175       55.552        0.037      337.404        9.352      854.482
01/07/2022  01:21:00     -160.420      -59.734       -3.705       96.021       95.224       56.655     9220.092     9067.555     3209.743        2.540        1.075      171.180       39.878        0.054      337.383        9.317      854.505
01/07/2022  01:22:00     -190.653     -158.791      -26.130       64.051      108.388       42.572     4102.532    11747.938     1812.383        3.995        0.883      248.119       36.048        0.021      337.405        9.354      854.482
01/07/2022  01:23:00     -187.869      -13.287      -12.291      117.754       77.132       53.418    13866.000     5949.287     2853.524        2.914        1.133      188.338       47.678        0.064      337.308        9.192      854.471
01/07/2022  01:24:00     -201.972      -44.400      -17.920      170.812       81.947       52.907    29176.847     6715.380     2799.137        4.088        1.935      206.795       71.057        0.118      337.295        9.173      854.417
01/07/2022  01:25:00     -337.124       38.995      -13.130      173.450       88.943       68.481    30084.862     7910.841     4689.686        7.901        2.134      339.372       90.627        0.071      337.374        9.302      854.378
01/07/2022  01:26:00     -349.013      -16.262      -34.911      133.297       96.665       67.675    17768.127     9344.121     4579.963        7.749        1.585      349.392       56.801        0.026      337.308        9.190      854.415
01/07/2022  01:27:00     -288.341       -8.709      -17.535      184.321      126.141       91.079    33974.271    15911.506     8295.344        7.084        2.909      288.473       92.798        0.103      337.281        9.148      854.440
01/07/2022  01:28:00     -284.974       28.301        3.399      206.662      110.811       81.325    42709.336    12279.186     6613.821        7.180        3.080      286.376       94.744        0.109      337.390        9.330      854.408
01/07/2022  01:29:00     -108.751       19.736       -9.830      194.081       98.315       81.484    37667.584     9665.906     6639.707        3.313        2.699      110.527       80.775        0.534      337.401        9.349      854.425
01/07/2022  01:30:00     -381.894      -14.291      -34.414      142.536      114.591       53.473    20316.540    13131.137     2859.315        9.176        1.815      382.161       50.362        0.017      337.478        9.475      854.479
01/07/2022  01:31:00     -407.108      -75.227      -29.926      151.084      100.564       71.384    22826.519    10113.119     5095.724       10.516        1.902      414.000       47.615        0.013      337.495        9.503      854.458
01/07/2022  01:32:00     -265.638      -49.167      -18.794      188.680       82.031       74.480    35600.317     6729.107     5547.282        6.060        2.394      270.150       78.986        0.085      337.406        9.356      854.378
01/07/2022  01:33:00     -168.141       -4.234       -9.621      136.745      106.378       83.720    18699.089    11316.382     7009.034        3.270        1.851      168.195       75.418        0.201      337.311        9.199      854.366
01/07/2022  01:34:00     -324.471      -34.043      -20.177      171.044      118.856       92.284    29256.029    14126.827     8516.287        7.936        2.595      326.252       85.502        0.069      337.358        9.275      854.399
01/07/2022  01:35:00     -333.328       -0.149      -26.530      130.976       96.158       59.743    17154.637     9246.322     3569.203        7.089        1.499      333.328       40.287        0.015      337.289        9.161      854.414
01/07/2022  01:36:00     -242.047       56.781       -8.052      142.771      125.546       86.592    20383.602    15761.778     7498.182        5.275        2.182      248.618       77.796        0.098      337.435        9.403      854.435
01/07/2022  01:37:00     -380.725        6.501      -32.128      173.647      154.295       98.829    30153.446    23806.855     9767.219       10.486        3.186      380.780       87.102        0.052      337.451        9.430      854.445
01/07/2022  01:38:00     -281.047      -39.677      -16.796      204.391      131.745      111.517    41775.751    17356.654    12436.143        7.619        3.578      283.834       95.363        0.113      337.338        9.242      854.398
01/07/2022  01:39:00     -210.826      -27.248       -9.757      167.022       89.533       82.689    27896.340     8016.206     6837.525        4.401        2.138      212.580       84.867        0.159      337.297        9.174      854.349
01/07/2022  01:40:00     -231.088      -11.998      -16.634      110.717       68.048       63.120    12258.147     4630.542     3984.159        3.734        1.044      231.399       56.560        0.060      337.282        9.150      854.377
01/07/2022  01:41:00     -186.884     -114.879      -18.875      100.714       90.732       57.618    10143.330     8232.251     3319.843        3.508        1.085      219.369       61.363        0.078      337.235        9.071      854.396
01/07/2022  01:42:00     -295.478      -32.093      -27.478      127.356       86.197       65.887    16219.648     7429.965     4341.054        5.854        1.400      297.216       67.557        0.052      337.180        8.978      854.377
01/07/2022  01:43:00     -367.879       -2.089      -28.367      161.609      111.624       61.045    26117.456    12459.930     3726.489        8.922        2.115      367.885       55.803        0.023      337.133        8.899      854.352
01/07/2022  01:44:00     -134.803      -15.584       -7.527      137.715       98.719       76.762    18965.371     9745.343     5892.464        2.653        1.730      135.700       71.234        0.276      337.164        8.953      854.347
01/07/2022  01:45:00     -242.426      -50.049      -29.293      152.875      103.838       68.020    23370.760    10782.315     4626.730        5.045        1.939      247.538       64.110        0.067      337.196        9.007      854.328
01/07/2022  01:46:00     -275.599      -35.010      -28.351      128.719       73.672       60.899    16568.576     5427.567     3708.630        5.184        1.285      277.814       46.474        0.028      337.189        8.993      854.312
01/07/2022  01:47:00     -217.027        8.835      -12.921       96.360       96.113       72.075     9285.158     9237.642     5194.841        3.553        1.186      217.207       51.536        0.056      337.124        8.883      854.299
01/07/2022  01:48:00     -127.796      -12.193      -22.153      128.656      100.605       78.846    16552.331    10121.380     6216.734        2.492        1.645      128.376       61.256        0.228      337.077        8.807      854.303
01/07/2022  01:49:00     -211.504      -34.329       -0.385      204.500      112.729       90.203    41820.395    12707.767     8136.607        5.428        3.133      214.272       69.786        0.106      337.220        9.045      854.297
01/07/2022  01:50:00     -292.564       20.527       -9.767      220.899      128.467       85.231    48796.235    16503.723     7264.317        7.932        3.628      293.283       92.361        0.099      337.194        9.002      854.291
01/07/2022  01:51:00     -113.176       53.128       -8.721      166.487      115.981       79.378    27717.926    13451.646     6300.934        3.158        2.374      125.026       66.361        0.282      337.234        9.070      854.263
01/07/2022  01:52:00     -211.761       -3.629      -25.050      150.261       86.238       76.505    22578.304     7436.964     5853.045        4.067        1.793      211.792       69.123        0.107      337.129        8.892      854.246
01/07/2022  01:53:00     -233.298       48.833       -7.709      152.179       93.570       66.760    23158.536     8755.371     4456.939        4.661        1.819      238.354       74.846        0.099      337.161        8.945      854.210
01/07/2022  01:54:00     -172.702       -1.829      -24.560       87.503      102.722       53.517     7656.855    10551.744     2864.045        2.575        1.054      172.712       36.157        0.044      337.084        8.816      854.187
01/07/2022  01:55:00      -96.887       28.150        8.121      130.732      112.092       78.378    17090.948    12564.614     6143.074        2.302        1.790      100.893       58.371        0.335      337.125        8.885      854.175
01/07/2022  01:56:00     -238.069       -3.478       -7.228      226.774      106.649       72.889    51426.605    11373.985     5312.863        6.241        3.406      238.095       91.071        0.146      337.189        8.993      854.197
01/07/2022  01:57:00     -285.820      -13.850      -24.646      238.145      142.386      113.840    56712.931    20273.734    12959.545        8.620        4.497      286.156      117.658        0.169      337.310        9.195      854.191
01/07/2022  01:58:00     -260.418      -34.425      -16.353      194.613      136.839       89.673    37874.068    18724.885     8041.171        6.694        3.232      262.683       96.385        0.135      337.342        9.249      854.174
01/07/2022  01:59:00     -192.607      -31.197       -2.337      183.174       71.510       71.867    33552.723     5113.652     5164.832        4.095        2.192      195.118       86.004        0.194      337.198        9.008      854.135
01/07/2022  02:00:00     -247.006     -102.416      -32.786       97.133       87.058       53.796     9434.735     7579.149     2894.014        4.624        0.995      267.397       32.424        0.015      337.224        9.051      854.081
01/07/2022  02:01:00     -219.412        2.058       -8.983      144.298       90.299       64.211    20821.811     8153.978     4123.081        4.066        1.655      219.422       67.234        0.094      337.168        8.959      854.061
01/07/2022  02:02:00     -230.923       -4.908      -12.040       72.941       65.611       48.780     5320.356     4304.859     2379.508        3.275        0.600      230.975       40.774        0.031      337.148        8.924      854.054
01/07/2022  02:03:00     -231.237       25.664       -0.020      175.625       87.224       67.826    30844.274     7608.022     4600.368        4.858        2.153      232.657       83.624        0.129      337.136        8.904      854.059
01/07/2022  02:04:00     -269.691        0.313      -29.619      131.415      121.227       68.837    17269.872    14695.922     4738.557        5.515        1.835      269.691       59.599        0.049      337.127        8.889      854.054
01/07/2022  02:05:00     -219.177      -17.950       -4.538      182.248      101.426       80.042    33214.344    10287.235     6406.685        4.914        2.495      219.911       81.261        0.137      337.154        8.933      854.040
01/07/2022  02:06:00     -246.143      -23.650      -14.924      127.849       74.816       66.325    16345.412     5597.395     4399.055        4.385        1.317      247.277       63.768        0.067      337.223        9.051      854.044
01/07/2022  02:07:00     -262.525      -46.000      -10.510      127.407      102.803       65.324    16232.519    10568.414     4267.239        5.110        1.553      266.524       62.906        0.056      337.227        9.056      854.044
01/07/2022  02:08:00     -250.052       17.538      -21.024      112.084       75.189       50.098    12562.899     5653.357     2509.855        4.200        1.036      250.666       52.541        0.044      337.170        8.961      854.004
01/07/2022  02:09:00     -115.341       -8.397        4.587      136.965       86.441       67.349    18759.511     7472.045     4535.870        2.208        1.538      115.647       56.648        0.240      337.094        8.835      853.966
01/07/2022  02:10:00     -117.344        9.340       -4.909       96.770       70.041       56.724     9364.498     4905.798     3217.595        1.568        0.874      117.715       50.260        0.182      337.032        8.731      853.937
01/07/2022  02:11:00      -42.593       -1.956        3.041      108.658       84.082       66.447    11806.504     7069.817     4415.251        1.256        1.165       42.638       54.646        1.643      336.987        8.657      853.973
01/07/2022  02:12:00     -280.630       16.754        7.642      182.842       99.647       66.422    33431.042     9929.440     4411.884        6.342        2.389      281.130       66.887        0.057      336.997        8.671      854.005
01/07/2022  02:13:00     -352.034       83.924       -1.171      146.909      114.295       68.848    21582.208    13063.330     4740.042        8.517        1.969      361.900       62.040        0.029      337.072        8.796      854.016
01/07/2022  02:14:00     -254.473       53.405        2.860      153.248      106.308       77.062    23484.853    11301.462     5938.609        5.416        2.036      260.016       71.337        0.075      337.135        8.903      854.042
01/07/2022  02:15:00     -342.139       42.048       -9.789      148.117      115.239       74.244    21938.630    13279.958     5512.128        7.982        2.037      344.713       79.011        0.053      336.959        8.608      854.077
01/07/2022  02:16:00     -243.457       55.049        0.799      136.448      116.062       73.376    18618.030    13470.501     5384.035        4.988        1.874      249.603       64.242        0.066      337.078        8.807      854.044
01/07/2022  02:17:00     -319.902      112.466       -5.804      146.615      100.459       74.558    21496.011    10092.075     5558.956        7.608        1.857      339.096       60.381        0.032      337.100        8.843      853.956
01/07/2022  02:18:00     -288.543       66.059      -12.774      124.816      101.145       56.621    15578.920    10230.299     3205.975        5.839        1.451      296.008       47.858        0.026      337.050        8.759      853.926
01/07/2022  02:19:00     -156.620       30.428      -22.227      116.206       63.511       57.845    13503.843     4033.616     3346.097        2.341        1.044      159.548       35.272        0.049      336.969        8.625      853.933
01/07/2022  02:20:00     -212.588      -26.338      -18.722      109.332       73.610       51.309    11953.499     5418.365     2632.632        3.312        1.000      214.213       48.962        0.052      337.064        8.783      853.989
01/07/2022  02:21:00     -214.627      -55.810      -28.560      135.897      136.802       52.595    18467.982    18714.893     2766.242        4.496        1.997      221.765       46.031        0.043      337.094        8.834      854.015
01/07/2022  02:22:00     -164.259      -92.034      -35.501       76.754       61.614       41.780     5891.196     3796.247     1745.579        2.407        0.572      188.285       34.412        0.033      337.009        8.692      854.029
01/07/2022  02:23:00     -188.918       82.833      -31.986       95.722       74.904       34.310     9162.619     5610.582     1177.159        2.976        0.798      206.279       22.967        0.012      337.054        8.768      853.988
01/07/2022  02:24:00     -203.329       10.451      -15.223      153.225       98.921       52.088    23478.015     9785.293     2713.165        3.882        1.799      203.597       58.300        0.082      337.070        8.793      853.959
01/07/2022  02:25:00       12.145       17.689      -14.829       65.061       51.352       46.854     4232.966     2637.057     2195.301        0.487        0.453       21.457       20.647        0.926      336.986        8.655      853.955
01/07/2022  02:26:00     -147.361      -28.542       -6.802      104.616       76.779       55.351    10944.554     5895.070     3063.693        2.124        0.995      150.100       45.839        0.093      337.020        8.709      853.962
01/07/2022  02:27:00     -123.278     -108.831      -12.481       63.576       48.452       31.024     4041.887     2347.621      962.497        1.727        0.368      164.444       18.459        0.013      337.122        8.882      853.957
01/07/2022  02:28:00     -208.861      -96.576      -23.635       81.607      100.009       51.349     6659.701    10001.821     2636.669        3.640        0.965      230.108       24.522        0.011      336.994        8.667      853.971
01/07/2022  02:29:00     -127.691      -49.141      -17.331       66.141       91.262       46.566     4374.659     8328.747     2168.372        1.694        0.744      136.820       39.842        0.085      337.052        8.765      853.951
01/07/2022  02:30:00      -71.729       -0.155      -19.606       68.869       52.515       36.892     4742.889     2757.790     1361.032        0.719        0.443       71.730       25.982        0.131      336.971        8.631      853.897
01/07/2022  02:31:00      -44.266      -83.062      -22.452       70.710       67.286       32.505     4999.921     4527.458     1056.589        0.997        0.529       94.122       24.246        0.066      337.034        8.736      853.868
01/07/2022  02:32:00       32.903      -78.796      -24.670       77.826       62.049       34.804     6056.832     3850.049     1211.291        0.951        0.556       85.390       41.612        0.237      337.027        8.724      853.841
01/07/2022  02:33:00     -168.011      -33.348      -29.976      150.294       69.934       43.727    22588.253     4890.801     1912.082        2.981        1.470      171.289       42.533        0.062      337.186        8.988      853.863
01/07/2022  02:34:00     -154.011       28.631       -1.260       96.516       50.747       48.004     9315.368     2575.217     2304.418        1.937        0.710      156.650       49.502        0.100      337.149        8.928      853.922
01/07/2022  02:35:00     -134.587      -23.810      -10.609       78.030       58.799       46.233     6088.716     3457.329     2137.474        1.524        0.584      136.677       43.021        0.099      337.051        8.763      853.948
01/07/2022  02:36:00     -142.547     -113.389      -10.846       72.914       73.232       47.687     5316.447     5362.947     2274.025        2.312        0.648      182.145       44.380        0.059      337.111        8.861      853.976
01/07/2022  02:37:00      -93.352      -51.595       -7.555       59.537       57.369       36.580     3544.653     3291.185     1338.092        0.980        0.409      106.661       28.292        0.070      337.080        8.814      853.951
01/07/2022  02:38:00     -108.080      -79.734      -25.207       57.471       75.543       31.486     3302.922     5706.696      991.391        1.434        0.500      134.309       12.418        0.009      337.086        8.823      853.935
01/07/2022  02:39:00     -117.371      -86.320      -27.725       68.420       59.212       41.727     4681.257     3506.119     1741.121        1.596        0.496      145.695       40.179        0.076      336.948        8.591      853.917
01/07/2022  02:40:00     -159.266      -14.113      -23.447       59.835       33.128       34.543     3580.233     1097.477     1193.226        1.599        0.294      159.890       27.234        0.029      337.026        8.721      853.951
01/07/2022  02:41:00     -132.749      -36.444      -15.269       61.393       65.453       36.632     3769.160     4284.085     1341.928        1.429        0.470      137.660       38.551        0.078      337.011        8.696      853.983
01/07/2022  02:42:00     -100.700      -40.618      -10.986       67.890       78.145       35.685     4608.998     6106.663     1273.418        1.195        0.599      108.583       32.315        0.089      336.977        8.641      854.005
01/07/2022  02:43:00     -167.571     -123.728      -21.803       51.243       97.362       27.451     2625.892     9479.340      753.556        2.836        0.643      208.299       20.800        0.010      337.037        8.737      854.034
01/07/2022  02:44:00      -95.484      -50.239      -12.865       62.005       68.182       37.574     3844.655     4648.733     1411.814        1.085        0.495      107.894       29.017        0.072      337.046        8.754      854.073
01/07/2022  02:45:00     -128.520        8.383      -15.010       42.402       54.641       32.758     1797.916     2985.666     1073.113        1.133        0.293      128.793       20.753        0.026      336.994        8.669      854.082
01/07/2022  02:46:00     -136.276      -19.995      -12.086      106.021       63.342       46.747    11240.371     4012.260     2185.295        1.827        0.872      137.735       43.942        0.102      336.924        8.550      854.057
01/07/2022  02:47:00     -166.708       22.239      -22.127       68.024       52.042       46.202     4627.217     2708.364     2134.655        1.912        0.474      168.184       32.543        0.037      336.835        8.402      854.039
01/07/2022  02:48:00     -186.441       -3.561      -14.922       91.293      108.370       46.398     8334.434    11744.030     2152.735        2.861        1.112      186.475       35.588        0.036      336.933        8.565      854.032
01/07/2022  02:49:00     -182.040      -49.850      -25.436       92.474       67.965       48.468     8551.515     4619.198     2349.169        2.589        0.776      188.742       49.116        0.068      336.859        8.440      854.043
01/07/2022  02:50:00     -163.170      -29.352      -15.360       89.295      100.360       53.802     7973.647    10072.091     2894.682        2.433        1.047      165.789       50.014        0.091      336.830        8.392      854.075
01/07/2022  02:51:00     -282.983       73.937      -32.715      153.012      117.566       63.908    23412.631    13821.679     4084.207        6.396        2.066      292.483       56.132        0.037      336.957        8.604      854.090
01/07/2022  02:52:00     -247.956      -13.484      -22.046      241.780      122.712       78.347    58457.387    15058.243     6138.201        7.089        3.983      248.322       51.224        0.043      336.938        8.573      854.096
01/07/2022  02:53:00     -186.451       86.561        8.409      176.080      122.854       91.725    31004.221    15092.995     8413.395        4.841        2.726      205.564       91.419        0.198      336.976        8.638      854.069
01/07/2022  02:54:00     -362.467       35.009      -11.464      216.509      132.384       98.737    46876.147    17525.565     9749.012       10.343        3.708      364.154       70.256        0.037      336.982        8.646      854.035
01/07/2022  02:55:00     -411.714      148.944      -14.208      182.355      125.628       75.305    33253.193    15782.466     5670.911       12.329        2.735      437.827       72.116        0.027      336.976        8.634      854.033
01/07/2022  02:56:00     -296.253       91.886      -30.516      178.440      133.739       77.169    31840.940    17886.048     5955.082        7.640        2.784      310.176       63.039        0.041      336.944        8.582      854.031
01/07/2022  02:57:00     -252.992       77.369      -12.388      117.728      121.545       70.088    13859.984    14773.289     4912.305        5.184        1.677      264.557       52.146        0.039      336.984        8.649      853.981
01/07/2022  02:58:00     -348.762       80.650       -7.021      172.442      136.065       98.297    29736.388    18513.561     9662.213        9.304        2.896      357.966       78.298        0.048      336.898        8.505      853.923
01/07/2022  02:59:00     -473.095      132.933      -12.461      237.414      113.345       89.356    56365.435    12847.108     7984.557       15.941        3.860      491.416       93.351        0.036      336.895        8.500      853.937
01/07/2022  03:00:00     -281.819      108.968       -5.604      246.240      157.120       90.198    60633.937    24686.777     8135.707        9.237        4.673      302.152      102.455        0.115      336.937        8.569      853.978
01/07/2022  03:01:00     -484.202       92.239       -5.931      167.235      102.149       79.955    27967.536    10434.444     6392.799       14.389        2.240      492.910       67.381        0.019      336.865        8.450      854.021
01/07/2022  03:02:00     -324.700       82.881       -1.054      217.983      121.370       84.759    47516.750    14730.655     7184.038        9.085        3.472      335.111       93.095        0.077      336.845        8.416      854.066
01/07/2022  03:03:00     -315.262       68.003       -4.951      145.439       82.979       62.359    21152.530     6885.535     3888.640        6.798        1.596      322.512       56.119        0.030      336.911        8.527      854.100
01/07/2022  03:04:00     -301.533      106.374      -22.380      166.621      136.556       79.717    27762.692    18647.581     6354.743        7.774        2.638      319.746       72.387        0.051      336.913        8.530      854.088
01/07/2022  03:05:00     -270.237       80.653       11.623      216.529      139.383       93.371    46884.801    19427.588     8718.114        7.734        3.752      282.016       89.176        0.100      336.807        8.354      854.107
01/07/2022  03:06:00     -380.853       68.515        9.928      255.990      161.287       92.610    65530.736    26013.600     8576.647       12.496        5.006      386.967       76.987        0.040      336.835        8.401      854.128
01/07/2022  03:07:00     -130.788        9.010       -3.002      170.173       99.401       92.296    28958.858     9880.598     8518.526        3.227        2.368      131.098       75.364        0.330      336.768        8.290      854.150
01/07/2022  03:08:00      -25.647       26.260       -9.790       97.088       97.887       66.110     9426.080     9581.910     4370.582        1.241        1.169       36.707       46.200        1.584      336.760        8.277      854.113
01/07/2022  03:09:00     -126.417       45.711       13.989      139.767      113.928       62.955    19534.685    12979.526     3963.299        2.737        1.824      134.427       41.320        0.094      336.759        8.275      854.027
01/07/2022  03:10:00     -289.108       44.242       -9.045      259.188      122.782       95.207    67178.672    15075.392     9064.398        8.845        4.566      292.473       51.451        0.031      336.787        8.321      853.989
01/07/2022  03:11:00     -328.307       84.654        3.516      215.630      122.605       88.611    46496.115    15031.908     7851.846        9.216        3.469      339.046       88.017        0.067      336.825        8.385      853.975
01/07/2022  03:12:00     -353.423      163.655       -8.620      153.099      160.838       88.626    23439.357    25868.988     7854.569       10.445        2.858      389.475       73.770        0.036      336.865        8.450      853.967
01/07/2022  03:13:00     -447.471      101.513      -26.153      147.084      133.632       76.615    21633.645    17857.641     5869.930       12.828        2.268      458.841       64.793        0.020      336.765        8.282      853.946
01/07/2022  03:14:00     -178.959       62.635       -1.701      166.532      127.133       84.890    27732.830    16162.804     7206.301        4.352        2.555      189.604       80.269        0.179      336.787        8.321      853.967
01/07/2022  03:15:00     -404.137      113.301       -4.276      142.961      132.509       66.919    20437.888    17558.692     4478.112       10.932        2.124      419.719       70.223        0.028      336.837        8.403      853.990
01/07/2022  03:16:00     -142.065       59.518      -24.959      138.699      103.892       61.844    19237.506    10793.634     3824.737        2.910        1.693      154.029       43.413        0.079      336.750        8.258      853.955
01/07/2022  03:17:00     -235.062       48.958      -12.523      207.143      128.391       81.009    42908.416    16484.343     6562.449        6.187        3.298      240.106       73.012        0.092      336.699        8.175      853.954
01/07/2022  03:18:00     -251.179       55.910       -3.121      251.202      107.552       85.810    63102.537    11567.439     7363.333        7.411        4.102      257.326      100.518        0.153      336.748        8.257      853.949
01/07/2022  03:19:00     -335.594       92.625        2.524      172.555      144.780       98.034    29775.099    20961.298     9610.632        9.077        3.017      348.142       84.402        0.059      336.859        8.441      854.005
01/07/2022  03:20:00     -316.854      140.307      -21.970      158.235      149.558       89.519    25038.378    22367.477     8013.661        8.798        2.771      346.529       78.832        0.052      336.867        8.453      854.030
01/07/2022  03:21:00     -231.884       74.166        0.663      145.671       94.268       69.031    21220.010     8886.399     4765.238        4.707        1.744      243.456       67.854        0.078      336.797        8.337      854.027
01/07/2022  03:22:00     -318.381       57.601      -28.796      188.912      118.234       72.320    35687.773    13979.311     5230.127        8.020        2.745      323.550       60.600        0.035      336.755        8.267      854.017
01/07/2022  03:23:00     -203.291       48.172        3.312      180.409      120.718       74.857    32547.419    14572.908     5603.545        4.818        2.636      208.920       63.459        0.092      336.721        8.210      853.989
01/07/2022  03:24:00     -345.275       44.295        0.461      170.021       93.823       72.076    28906.981     8802.742     5194.901        8.203        2.145      348.105       67.477        0.038      336.670        8.124      853.991
01/07/2022  03:25:00     -233.989       28.554      -10.081      162.231       81.586       73.267    26318.840     6656.201     5368.073        4.700        1.917      235.725       76.445        0.105      336.626        8.053      854.009
01/07/2022  03:26:00     -189.115       77.750       -8.883      177.139      117.832       66.093    31378.118    13884.311     4368.334        4.575        2.482      204.474       59.796        0.086      336.675        8.135      853.999
01/07/2022  03:27:00     -239.245       66.440        7.363      161.461      130.268       74.911    26069.647    16969.743     5611.712        5.517        2.433      248.299       73.702        0.088      336.668        8.121      853.979
01/07/2022  03:28:00     -347.580      152.736       -0.906      174.314      123.313       84.099    30385.226    15206.006     7072.686        9.839        2.633      379.658       86.496        0.052      336.724        8.213      853.971
01/07/2022  03:29:00     -332.073       66.126       -5.126      188.705      125.723       88.532    35609.562    15806.221     7837.845        8.695        2.963      338.593       77.240        0.052      336.690        8.159      853.934
01/07/2022  03:30:00     -332.232      151.740       -4.356      147.658      119.701       79.237    21802.877    14328.272     6278.462        8.791        2.120      365.243       56.206        0.024      336.817        8.369      853.937
01/07/2022  03:31:00     -340.201      115.096       -2.573      182.450       86.511       67.650    33287.840     7484.139     4576.552        8.716        2.267      359.143       77.133        0.046      336.736        8.235      853.941
01/07/2022  03:32:00     -361.547       89.225       -3.952      135.886      101.810       67.802    18465.108    10365.310     4597.142        8.605        1.671      372.395       71.457        0.037      336.730        8.224      853.969
01/07/2022  03:33:00     -311.873       88.360       -5.277      126.246      109.117       68.686    15938.053    11906.525     4717.742        6.883        1.628      324.148       53.804        0.028      336.872        8.461      854.001
01/07/2022  03:34:00     -235.752       46.792      -17.676      153.995      117.261       65.974    23714.467    13750.137     4352.569        4.994        2.091      240.351       51.837        0.047      336.722        8.213      854.006
01/07/2022  03:35:00     -363.805      168.501       -7.407      142.101       99.235       60.382    20192.570     9847.591     3646.001        9.724        1.684      400.932       61.619        0.024      336.892        8.494      854.021
01/07/2022  03:36:00     -254.167       67.822       -8.281      131.355      134.398       57.857    17254.070    18062.947     3347.486        5.396        1.933      263.060       53.038        0.041      336.767        8.287      854.029
01/07/2022  03:37:00     -295.335       78.795      -35.803      158.397      119.484       67.084    25089.628    14276.488     4500.230        6.928        2.193      305.666       62.808        0.042      336.680        8.141      854.052
01/07/2022  03:38:00     -314.339      124.859       11.663      201.255      188.155       95.628    40503.655    35402.305     9144.785        9.978        4.253      338.229      100.834        0.089      336.784        8.316      854.086
01/07/2022  03:39:00     -328.846      127.791        1.824      184.866      122.339       87.713    34175.472    14966.774     7693.509        9.064        2.842      352.804       79.755        0.051      336.809        8.356      854.107
01/07/2022  03:40:00     -160.264       18.830       -4.383      222.211      140.706      104.344    49377.802    19798.256    10887.615        5.305        4.003      161.367       90.056        0.311      336.834        8.399      854.125
01/07/2022  03:41:00     -334.187      136.226      -12.323      219.080      129.431       95.123    47995.969    16752.269     9048.302       10.208        3.690      360.885       99.913        0.077      336.854        8.433      854.107
01/07/2022  03:42:00     -425.122      120.738       -4.361      285.439      159.530       99.705    81475.189    25449.912     9941.010       15.607        5.843      441.935      110.160        0.062      336.860        8.442      854.093
01/07/2022  03:43:00     -213.975       95.399       -9.558      239.314      135.326      112.421    57271.427    18313.107    12638.473        7.158        4.411      234.278       89.959        0.147      336.859        8.441      854.147
01/07/2022  03:44:00     -408.653       96.926      -12.086      178.367      123.289       74.384    31814.690    15200.255     5532.958       11.453        2.627      419.991       62.420        0.022      336.859        8.440      854.149
01/07/2022  03:45:00     -252.755       85.118       -1.515      225.339      126.518       84.159    50777.793    16006.845     7082.819        7.249        3.693      266.703       76.208        0.082      336.811        8.361      854.142
01/07/2022  03:46:00     -256.891       74.318        5.272      183.757      105.043       74.853    33766.521    11034.074     5602.929        6.096        2.520      267.425       63.072        0.056      336.756        8.268      854.192
01/07/2022  03:47:00     -376.071       62.237       -9.867      146.272      130.835       76.722    21395.493    17117.708     5886.311        9.489        2.220      381.186       69.213        0.033      336.756        8.269      854.210
01/07/2022  03:48:00     -341.477      127.317       -5.652      182.551      118.924       77.369    33324.975    14142.887     5986.002        9.314        2.673      364.439       56.887        0.024      336.712        8.195      854.189
01/07/2022  03:49:00     -415.361      139.674      -10.531      184.714      126.664       68.063    34119.391    16043.720     4632.513       12.346        2.740      438.216       67.511        0.024      336.765        8.284      854.173
01/07/2022  03:50:00     -258.243       62.269      -16.266      155.761       98.579       77.784    24261.357     9717.900     6050.347        5.542        2.001      265.644       63.144        0.057      336.731        8.228      854.129
01/07/2022  03:51:00     -254.996       60.184      -26.511      178.695      120.276       72.312    31931.953    14466.361     5228.966        6.048        2.581      262.002       62.831        0.058      336.631        8.062      854.070
01/07/2022  03:52:00      -96.314       35.556       -8.138      146.526      121.318       77.122    21469.960    14718.148     5947.873        2.636        2.107      102.668       58.989        0.330      336.636        8.071      854.066
01/07/2022  03:53:00     -367.995      100.299        1.820      190.997      119.835       86.573    36479.865    14360.441     7494.811       10.190        2.917      381.418       92.719        0.059      336.708        8.188      854.076
01/07/2022  03:54:00     -287.004      113.719      -18.516      202.038      164.928       87.897    40819.322    27201.236     7725.801        8.568        3.787      308.712       81.481        0.070      336.713        8.197      854.072
01/07/2022  03:55:00     -199.966       85.725      -23.356      194.708      118.659       85.673    37911.068    14080.034     7339.937        5.359        2.967      217.567       30.534        0.020      336.723        8.215      854.072
01/07/2022  03:56:00     -222.356       81.753      -27.920      165.104      128.005       84.676    27259.422    16385.154     7170.089        5.385        2.541      236.908       69.300        0.086      336.725        8.217      854.064
01/07/2022  03:57:00     -348.074      104.343      -36.116      211.733      145.317       88.716    44830.928    21116.908     7870.521       10.357        3.691      363.377       85.111        0.055      336.606        8.019      854.045
01/07/2022  03:58:00     -306.489       40.436        0.867      223.703      142.327       90.116    50043.200    20257.089     8120.817        8.698        3.921      309.145       91.926        0.088      336.617        8.037      854.047
01/07/2022  03:59:00     -262.072       61.394       -2.237      234.356      126.630       97.093    54922.680    16035.104     9427.043        7.641        4.019      269.167      109.632        0.166      336.670        8.126      854.055
01/07/2022  04:00:00     -300.575       31.492       -9.371      156.239      116.638       79.351    24410.746    13604.414     6296.621        6.786        2.216      302.220       74.486        0.061      336.657        8.103      854.061
01/07/2022  04:01:00     -195.047       57.518       -0.681      148.393      138.275       64.952    22020.410    19119.934     4218.817        4.335        2.268      203.351       42.591        0.044      336.664        8.116      854.023
01/07/2022  04:02:00     -105.726       51.363       18.321      130.871       95.041       73.541    17127.288     9032.805     5408.241        2.285        1.578      117.542       67.303        0.328      336.639        8.076      853.979
01/07/2022  04:03:00     -226.291       36.547      -14.805      190.980      107.333       73.164    36473.498    11520.389     5352.943        5.304        2.667      229.223       66.158        0.083      336.582        7.981      853.938
01/07/2022  04:04:00     -197.323       67.217      -11.004      242.016      107.563       80.691    58571.715    11569.900     6510.990        6.010        3.833      208.457       91.675        0.193      336.578        7.973      853.891
01/07/2022  04:05:00     -242.348       52.566       21.332      197.639      115.805       82.813    39061.021    13410.690     6857.976        6.063        2.966      247.983       87.052        0.123      336.590        7.991      853.914
01/07/2022  04:06:00     -215.400       78.434       -6.880      172.631       94.811       79.929    29801.509     8989.049     6388.601        4.888        2.259      229.236       91.708        0.160      336.685        8.149      853.943
01/07/2022  04:07:00     -420.677      102.069      -14.481      242.911      143.538       80.506    59005.866    20603.041     6481.207       13.683        4.305      432.883       69.811        0.026      336.546        7.917      853.959
01/07/2022  04:08:00     -373.146      113.568      -23.575      229.393      114.231       74.266    52621.065    13048.626     5515.504       11.193        3.559      390.046       53.661        0.019      336.566        7.952      854.045
01/07/2022  04:09:00     -179.910       50.973       -4.409      155.991      102.491       72.102    24333.072    10504.352     5198.753        3.750        2.002      186.992       58.083        0.096      336.643        8.082      854.132
01/07/2022  04:10:00     -336.508      116.541      -12.969      215.565      139.523       75.382    46468.357    19466.744     5682.434        9.929        3.581      356.117       62.525        0.031      336.631        8.061      854.130
01/07/2022  04:11:00     -530.180      152.769        2.034      221.357      145.598       84.849    48998.994    21198.886     7199.405       19.090        3.870      551.751       95.987        0.030      336.665        8.117      854.109
01/07/2022  04:12:00     -247.020       62.705        6.399      159.255       93.653       70.055    25362.132     8770.826     4907.661        5.201        1.952      254.855       57.295        0.051      336.645        8.085      854.086
01/07/2022  04:13:00     -348.760       28.318      -12.390      198.944      122.045       84.173    39578.596    14894.872     7085.150        9.206        3.078      349.908       74.577        0.045      336.686        8.150      854.043
01/07/2022  04:14:00     -234.792       64.433        3.024      189.057      109.317       69.078    35742.715    11950.222     4771.811        5.587        2.623      243.473       63.662        0.068      336.594        8.001      854.036
01/07/2022  04:15:00     -253.224       24.424       -7.599      126.372       89.724       80.506    15969.917     8050.361     6481.268        4.763        1.525      254.399       75.637        0.088      336.673        8.130      854.058
01/07/2022  04:16:00     -237.080       77.513      -16.875       97.463       83.307       56.691     9498.993     6940.040     3213.887        4.107        0.983      249.430       44.480        0.032      336.617        8.036      854.054
01/07/2022  04:17:00     -144.065       46.583       -3.153      150.430       91.514       75.056    22629.118     8374.802     5633.337        2.978        1.832      151.409       75.860        0.251      336.564        7.949      854.038
01/07/2022  04:18:00     -306.907       92.128       -7.408      176.270      109.729       77.498    31070.939    12040.434     6005.933        7.592        2.456      320.437       89.321        0.078      336.594        7.999      853.967
01/07/2022  04:19:00     -236.925       39.421      -13.499      123.763       71.575       49.048    15317.259     5122.989     2405.672        4.035        1.142      240.182       39.958        0.028      336.652        8.096      853.889
01/07/2022  04:20:00     -227.627       67.367       -9.429      110.493       81.880       53.957    12208.683     6704.347     2911.359        3.913        1.091      237.387       39.162        0.027      336.681        8.144      853.828
01/07/2022  04:21:00     -332.744       52.619        4.089      161.260      104.150       69.896    26004.770    10847.209     4885.492        7.761        2.087      336.878       59.573        0.031      336.542        7.910      853.802
01/07/2022  04:22:00     -184.308       39.271      -14.094      142.842       96.944       59.638    20403.755     9398.230     3556.717        3.453        1.668      188.445       61.251        0.106      336.484        7.816      853.833
01/07/2022  04:23:00     -350.606       36.988      -10.534      139.837      103.913       70.490    19554.491    10797.982     4968.898        7.986        1.766      352.552       71.460        0.041      336.476        7.801      853.861
01/07/2022  04:24:00     -270.143       92.726       -5.122      146.394      103.151       69.232    21431.215    10640.095     4793.014        5.923        1.843      285.614       65.145        0.052      336.510        7.858      853.882
01/07/2022  04:25:00     -333.596      107.706       -0.189      140.574       97.211       73.364    19761.017     9449.899     5382.205        7.873        1.730      350.552       67.943        0.038      336.495        7.833      853.893
01/07/2022  04:26:00     -257.067      110.466       -4.100      116.405       98.230       61.863    13550.114     9649.046     3827.046        5.266        1.351      279.796       53.103        0.036      336.534        7.896      853.873
01/07/2022  04:27:00     -306.300      107.541       -7.285      119.637      101.670       63.464    14312.962    10336.691     4027.686        6.705        1.434      324.630       48.053        0.022      336.485        7.814      853.863
01/07/2022  04:28:00     -255.784       73.629       -3.939      174.541       99.553       75.306    30464.487     9910.888     5671.034        5.845        2.302      266.170       55.245        0.043      336.424        7.714      853.835
01/07/2022  04:29:00     -308.512       78.737      -19.080      171.581       97.105       75.212    29440.076     9429.478     5656.772        7.313        2.226      318.401       80.178        0.063      336.423        7.711      853.806
01/07/2022  04:30:00     -337.327       91.355      -30.291      152.661      106.274       78.164    23305.244    11294.154     6109.614        8.187        2.035      349.479       59.820        0.029      336.400        7.672      853.798
01/07/2022  04:31:00     -288.275      103.632        8.513      210.703      123.001       79.709    44395.915    15129.200     6353.499        7.988        3.294      306.337       87.299        0.081      336.399        7.669      853.787
01/07/2022  04:32:00     -310.634       85.933       19.041      234.630      125.717       88.325    55051.342    15804.723     7801.300        9.143        3.933      322.301       90.628        0.079      336.363        7.611      853.744
01/07/2022  04:33:00     -249.404      108.062       15.580      187.796       97.330       80.230    35267.208     9473.151     6436.931        6.264        2.559      271.809       92.347        0.115      336.407        7.685      853.713
01/07/2022  04:34:00     -259.509       85.165       -7.838      194.428       84.455       64.777    37802.242     7132.728     4196.024        6.189        2.457      273.126       83.298        0.093      336.407        7.684      853.680
01/07/2022  04:35:00     -292.001       78.326       -5.518      112.032       97.660       55.299    12551.078     9537.407     3058.014        5.828        1.257      302.324       52.279        0.030      336.356        7.598      853.629
01/07/2022  04:36:00     -171.278       56.099        2.993      184.261       89.380       54.254    33951.942     7988.706     2943.476        3.868        2.244      180.231       48.626        0.073      336.320        7.540      853.542
01/07/2022  04:37:00     -110.861      -12.556       12.423      132.719       87.137       61.212    17614.324     7592.789     3746.890        2.077        1.448      111.570       54.941        0.242      336.356        7.600      853.487
01/07/2022  04:38:00      -73.796       27.067        2.298      137.289       80.499       59.484    18848.288     6480.111     3538.355        1.752        1.443       78.604       59.936        0.581      336.312        7.528      853.482
01/07/2022  04:39:00     -313.271       25.833        0.237      217.183      138.135       85.571    47168.254    19081.145     7322.448        8.618        3.679      314.334       73.801        0.055      336.389        7.654      853.435
01/07/2022  04:40:00     -249.339       13.782       -8.272      168.303       99.909       91.937    28325.833     9981.740     8452.401        5.459        2.338      249.720       97.174        0.151      336.354        7.596      853.402
01/07/2022  04:41:00     -331.301       53.877       -3.594      172.496      107.884       78.128    29754.751    11638.890     6104.000        8.008        2.375      335.653       73.240        0.048      336.389        7.654      853.418
01/07/2022  04:42:00     -326.945       98.820        4.747      154.277      119.047       68.303    23801.284    14172.214     4665.328        7.965        2.132      341.553       64.715        0.036      336.565        7.951      853.467
01/07/2022  04:43:00     -195.559       50.637       -7.793       71.316       64.003       36.863     5085.942     4096.438     1358.865        2.570        0.527      202.009       32.397        0.026      336.520        7.876      853.480
01/07/2022  04:44:00     -154.091       18.399       -9.918       78.863       46.755       39.612     6219.383     2185.996     1569.147        1.708        0.499      155.185       41.426        0.071      336.467        7.786      853.445
01/07/2022  04:45:00      -64.136     -122.282      -22.584       44.591       90.749       32.307     1988.328     8235.441     1043.721        1.542        0.563      138.081       25.643        0.034      336.687        8.155      853.350
01/07/2022  04:46:00     -101.787      -64.194      -20.661       62.237       73.253       36.760     3873.500     5366.070     1351.297        1.275        0.530      120.339       29.677        0.061      336.662        8.115      853.271
01/07/2022  04:47:00      -38.369      -57.575      -35.301       74.835       76.736       36.092     5600.301     5888.407     1302.655        0.941        0.640       69.189       26.851        0.151      336.699        8.177      853.246
01/07/2022  04:48:00     -131.633        6.767       -0.744      118.405       79.523       57.710    14019.629     6323.855     3330.441        2.052        1.184      131.807       47.680        0.131      336.482        7.811      853.287
01/07/2022  04:49:00     -148.361       30.681      -13.724       76.637       56.816       40.821     5873.306     3228.019     1666.359        1.695        0.538      151.500       27.985        0.034      336.436        7.735      853.290
01/07/2022  04:50:00     -180.886       18.953       -8.508       50.517       43.076       32.146     2551.927     1855.534     1033.356        1.930        0.272      181.876       26.322        0.021      336.402        7.677      853.257
01/07/2022  04:51:00      -82.360       32.331       -9.837       76.916       48.030       32.150     5916.037     2306.883     1033.633        0.859        0.463       88.479       28.258        0.102      336.288        7.488      853.260
01/07/2022  04:52:00      -41.373       81.431      -34.112       64.018       41.266       28.920     4098.348     1702.846      836.342        0.807        0.332       91.338       18.494        0.041      336.438        7.739      853.253
01/07/2022  04:53:00      -86.578       83.432      -16.030       45.577       34.155       28.857     2077.230     1166.568      832.751        0.939        0.204      120.236       19.412        0.026      336.497        7.839      853.237
01/07/2022  04:54:00      -72.760      104.279      -13.652       37.033       42.036       22.193     1371.413     1767.064      492.510        0.999        0.182      127.153       12.463        0.010      336.451        7.763      853.266
01/07/2022  04:55:00      -27.563      107.926      -13.302       29.183       51.956       23.503      851.672     2699.402      552.377        0.834        0.205      111.390       21.994        0.039      336.509        7.859      853.303
01/07/2022  04:56:00       74.001      107.687      -18.901       39.779       67.104       31.414     1582.382     4502.906      986.831        1.225        0.354      130.663       32.399        0.061      336.530        7.893      853.323
01/07/2022  04:57:00       40.408      146.652      -13.844       44.973       54.644       35.780     2022.527     2985.997     1280.214        1.481        0.314      152.117       28.955        0.036      336.480        7.811      853.341
01/07/2022  04:58:00        2.412       66.158       -1.247       34.834       50.696       28.364     1213.400     2570.052      804.497        0.449        0.229       66.201       23.628        0.127      336.350        7.591      853.397
01/07/2022  04:59:00      -36.247      -26.179       -2.915       52.322       56.184       28.396     2737.606     3156.653      806.343        0.435        0.335       44.712       20.237        0.205      336.244        7.415      853.434
01/07/2022  05:00:00      -22.284      -37.940      -25.415      101.319       56.864       36.479    10265.589     3233.493     1330.737        0.870        0.741       44.000       31.871        0.525      336.249        7.422      853.404
01/07/2022  05:01:00     -111.768       42.990      -23.125       90.293       83.306       37.947     8152.777     6939.853     1439.939        1.570        0.827      119.750       32.904        0.075      336.475        7.800      853.396
01/07/2022  05:02:00     -126.875      -22.461      -19.627       62.067       53.343       30.708     3852.349     2845.427      942.975        1.231        0.382      128.848       27.227        0.045      336.441        7.743      853.474
01/07/2022  05:03:00     -131.491      -86.639      -18.203       68.953       93.489       29.098     4754.552     8740.223      846.714        1.973        0.717      157.468       34.856        0.049      336.578        7.972      853.531
01/07/2022  05:04:00      -11.276      -85.573      -33.667       35.664       27.636       26.955     1271.914      763.723      726.557        0.567        0.138       86.313       17.645        0.042      336.489        7.825      853.510
01/07/2022  05:05:00      -18.560      -68.520      -13.606       48.367       24.072       23.875     2339.353      579.466      569.996        0.436        0.174       70.990       16.155        0.052      336.500        7.844      853.481
01/07/2022  05:06:00      -38.301      -14.282       -9.201       29.628       24.731       26.992      877.819      611.603      728.574        0.199        0.111       40.877       20.659        0.255      336.644        8.083      853.448
01/07/2022  05:07:00       50.370        1.722      -14.050       71.294       25.249       18.277     5082.787      637.526      334.036        0.439        0.303       50.400       28.833        0.327      336.466        7.787      853.469
01/07/2022  05:08:00      146.720       -0.746      -12.462       43.777       36.351       26.182     1916.404     1321.410      685.518        1.280        0.196      146.721       14.758        0.010      336.224        7.382      853.471
01/07/2022  05:09:00       33.436        8.370      -13.290       29.954       41.845       23.790      897.268     1751.025      565.940        0.229        0.161       34.468       18.997        0.304      336.069        7.123      853.505
01/07/2022  05:10:00       39.933       57.235      -13.841       33.211       28.620       13.831     1102.968      819.126      191.291        0.359        0.106       69.789       10.460        0.022      336.121        7.211      853.548
01/07/2022  05:11:00       -5.978      205.404      -25.508       85.923       83.335       31.591     7382.704     6944.768      997.986        2.910        0.766      205.491       14.386        0.005      336.655        8.099      853.563
01/07/2022  05:12:00      -34.264      143.924      -15.908       41.340       65.600       32.333     1708.997     4303.333     1045.421        1.460        0.353      147.946       17.892        0.015      336.617        8.039      853.584
01/07/2022  05:13:00      -35.794      150.298      -15.011       46.427       65.515       31.768     2155.444     4292.203     1009.224        1.578        0.373      154.502        5.519        0.001      336.617        8.039      853.562
01/07/2022  05:14:00      -33.880      126.077       -8.709       40.379       66.994       31.635     1630.432     4488.166     1000.795        1.212        0.356      130.549       30.753        0.055      336.627        8.056      853.550
01/07/2022  05:15:00        0.191       99.236       -9.192       32.738       61.366       27.572     1071.759     3765.774      760.224        0.776        0.280       99.237       28.336        0.082      336.579        7.977      853.533
01/07/2022  05:16:00       -3.539      158.750      -22.156       75.463       84.542       33.881     5694.697     7147.334     1147.940        1.984        0.699      158.789       28.006        0.031      336.660        8.110      853.519
01/07/2022  05:17:00      -56.925       -3.713       -3.149       75.791       52.827       44.602     5744.236     2790.709     1989.354        0.689        0.526       57.046       38.762        0.462      336.345        7.583      853.577
01/07/2022  05:18:00      -87.782       26.789        0.647       61.393       51.988       34.745     3769.097     2702.776     1207.202        0.805        0.384       91.779       29.037        0.100      336.360        7.609      853.594
01/07/2022  05:19:00     -196.992       20.771       -0.269      135.126       94.675       62.589    18258.902     8963.265     3917.433        3.518        1.557      198.084       51.161        0.067      336.568        7.953      853.602
01/07/2022  05:20:00     -190.444       41.799       -6.820      117.130       90.628       60.694    13719.534     8213.460     3683.813        3.183        1.281      194.977       51.056        0.069      336.849        8.424      853.624
01/07/2022  05:21:00     -229.993      130.826      -23.915       97.072       72.835       51.186     9422.939     5304.896     2620.021        4.396        0.867      264.598       41.733        0.025      337.085        8.818      853.586
01/07/2022  05:22:00     -153.088       39.409      -20.646      125.343       80.071       43.460    15710.851     6411.330     1888.787        2.471        1.201      158.079       17.793        0.013      336.940        8.576      853.581
01/07/2022  05:23:00     -231.511       32.026       -2.942      122.197       63.549       54.071    14932.200     4038.487     2923.720        3.826        1.095      233.716       57.774        0.061      336.768        8.288      853.681
01/07/2022  05:24:00     -167.905       32.272      -33.061       77.958       91.231       56.432     6077.430     8323.036     3184.595        2.395        0.879      170.978       33.150        0.038      336.720        8.208      853.731
01/07/2022  05:25:00      -84.804       11.983      -18.123      140.715       78.005       64.187    19800.768     6084.851     4120.017        1.883        1.500       85.646       58.695        0.470      336.661        8.114      853.745
01/07/2022  05:26:00     -405.644      169.884      -12.438      178.772      139.363       79.884    31959.541    19421.938     6381.406       12.565        2.888      439.782       91.035        0.043      336.782        8.313      853.828
01/07/2022  05:27:00     -208.441       54.658       -7.156      117.447       82.903       51.803    13793.817     6872.894     2683.542        3.491        1.168      215.488       44.388        0.042      336.791        8.327      853.845
01/07/2022  05:28:00     -146.527       -5.661      -13.663      164.764       70.781       58.225    27147.192     5009.894     3390.128        2.861        1.777      146.636       58.709        0.160      336.724        8.216      853.855
01/07/2022  05:29:00     -135.172      -39.409      -11.057      106.869      108.732       49.204    11421.034    11822.620     2421.047        2.280        1.283      140.800       49.485        0.124      336.689        8.158      853.839
01/07/2022  05:30:00     -266.627        9.388      -17.263      171.054       80.283       74.203    29259.400     6445.308     5506.098        5.634        2.061      266.792       71.679        0.072      336.740        8.243      853.829
01/07/2022  05:31:00     -182.766       98.747      -30.413      123.099       40.519       40.647    15153.361     1641.771     1652.162        3.126        0.922      207.736       25.575        0.015      336.691        8.163      853.834
01/07/2022  05:32:00     -142.048       44.040      -15.749       77.789       40.727       41.204     6051.185     1658.653     1697.753        1.588        0.470      148.719       42.599        0.082      336.543        7.916      853.893
01/07/2022  05:33:00     -119.661       64.314       11.500      108.185       92.904       47.308    11704.091     8631.176     2238.089        2.058        1.129      135.849       35.454        0.068      336.503        7.847      853.927
01/07/2022  05:34:00     -195.985       51.888       -9.108       85.938       64.902       48.471     7385.267     4212.250     2349.476        2.756        0.697      202.737       32.059        0.025      336.447        7.755      853.934
01/07/2022  05:35:00     -117.374       50.029      -11.408      116.188       59.719       49.267    13499.673     3566.360     2427.243        1.795        0.975      127.592       44.551        0.122      336.378        7.638      853.956
01/07/2022  05:36:00     -140.235       41.972      -16.794      103.036       80.976       46.031    10616.346     6557.034     2118.823        2.050        0.965      146.381       39.908        0.074      336.399        7.672      853.987
01/07/2022  05:37:00     -182.056       23.174      -19.988      174.960      103.854       71.275    30611.133    10785.678     5080.122        4.027        2.324      183.525       56.796        0.096      336.446        7.751      854.006
01/07/2022  05:38:00     -280.694      109.160       -8.175      182.192      127.644       71.401    33193.868    16292.965     5098.111        7.267        2.729      301.173       72.701        0.058      336.432        7.724      853.990
01/07/2022  05:39:00     -385.096      205.628       -3.190      219.653      202.749       97.886    48247.560    41107.198     9581.721       14.475        4.947      436.557      113.938        0.068      336.506        7.849      853.966
01/07/2022  05:40:00     -494.692       80.631      -46.953      195.588      151.530       83.804    38254.623    22961.314     7023.177       16.082        3.412      501.221       72.581        0.021      336.568        7.954      853.920
01/07/2022  05:41:00     -325.917       53.050       -6.363      209.438      122.979       86.227    43864.369    15123.881     7435.079        8.774        3.321      330.206       99.886        0.092      336.476        7.802      853.988
01/07/2022  05:42:00     -286.555        5.697        4.766      211.130      151.943       81.776    44575.702    23086.623     6687.237        7.825        3.717      286.612       87.187        0.093      336.467        7.786      853.980
01/07/2022  05:43:00     -341.848      187.050      -23.050      152.339      185.656       79.237    23207.037    34468.010     6278.503       10.815        3.198      389.676       58.778        0.023      336.469        7.787      853.966
01/07/2022  05:44:00     -455.261       66.909      -29.147      197.854      152.292       80.835    39146.211    23192.957     6534.376       14.072        3.444      460.152       61.861        0.018      336.456        7.765      853.948
01/07/2022  05:45:00     -314.305       44.554      -31.321      262.747      164.628       90.902    69036.015    27102.417     8263.088       10.306        5.220      317.447       92.118        0.084      336.433        7.729      853.930
01/07/2022  05:46:00     -378.779       47.252      -14.183      267.628      184.149      109.043    71624.969    33910.909    11890.324       13.165        5.871      381.715       96.786        0.064      336.447        7.752      853.887
01/07/2022  05:47:00     -227.584       74.446      -13.940      180.014      119.296       84.656    32405.186    14231.627     7166.597        5.566        2.690      239.451       91.112        0.145      336.407        7.683      853.879
01/07/2022  05:48:00     -195.305        1.169        5.280      215.838      158.208      109.342    46585.864    25029.763    11955.662        6.086        4.179      195.308       96.118        0.242      336.401        7.674      853.880
01/07/2022  05:49:00     -300.048       57.700      -10.000      213.276      147.099       87.018    45486.792    21638.227     7572.128        8.406        3.735      305.546       87.815        0.083      336.392        7.659      853.870
01/07/2022  05:50:00     -320.609       10.312      -20.170      187.773      151.674       93.524    35258.622    23005.128     8746.801        8.514        3.351      320.774       62.131        0.038      336.372        7.625      853.878
01/07/2022  05:51:00     -297.890      -15.954      -17.329      255.634      170.957      108.543    65348.777    29226.367    11781.594        9.781        5.318      298.317      101.653        0.116      336.410        7.689      853.860
01/07/2022  05:52:00     -191.627       25.353       -8.085      186.097      161.148       85.957    34632.157    25968.834     7388.545        5.270        3.399      193.297       66.105        0.117      336.360        7.606      853.867
01/07/2022  05:53:00     -484.764       83.470      -13.823      340.047      167.414      111.664   115631.785    28027.604    12468.952       19.911        7.806      491.897      131.254        0.071      336.409        7.688      853.844
01/07/2022  05:54:00     -246.928        3.505       -5.768      215.716      149.621      102.719    46533.556    22386.310    10551.094        7.023        3.974      246.953      102.702        0.173      336.358        7.602      853.831
01/07/2022  05:55:00     -338.511       17.611        3.280      267.352      166.863      113.894    71476.890    27843.341    12971.861       11.358        5.615      338.969      111.279        0.108      336.369        7.620      853.811
01/07/2022  05:56:00     -360.899       -9.169       -6.767      249.973      172.821      112.706    62486.635    29866.957    12702.665       11.770        5.253      361.016      100.638        0.078      336.400        7.672      853.865
01/07/2022  05:57:00     -362.413      -34.382      -38.047      322.263      203.655      153.074   103853.578    41475.441    23431.679       15.134        8.438      364.041      148.636        0.167      336.407        7.682      853.904
01/07/2022  05:58:00     -198.925        7.309      -12.488      224.236      144.900      120.324    50281.742    20996.070    14477.809        6.275        4.288      199.060      109.607        0.303      336.332        7.561      853.960
01/07/2022  05:59:00     -347.768       20.065      -19.710      251.832      130.351      108.200    63419.108    16991.487    11707.319       10.691        4.606      348.347      116.517        0.112      336.341        7.576      853.989
01/07/2022  06:00:00     -324.713      -14.410       -5.852      219.567      138.905       95.032    48209.821    19294.573     9031.015        9.109        3.827      325.032       98.179        0.091      336.348        7.584      853.991
01/07/2022  06:01:00     -390.378       13.411      -12.180      276.870      164.865      131.428    76656.774    27180.433    17273.442       13.689        6.056      390.608      121.164        0.096      336.342        7.574      853.956
01/07/2022  06:02:00     -296.387       49.090      -17.160      300.208      174.884      112.754    90124.760    30584.421    12713.550       11.196        6.671      300.425       97.534        0.105      336.376        7.632      853.926
01/07/2022  06:03:00     -263.232       46.609      -10.262      257.773      123.164       93.966    66447.035    15169.257     8829.611        8.099        4.522      267.326      110.662        0.171      336.344        7.578      853.910
01/07/2022  06:04:00     -334.772       57.535      -25.327      168.886       95.719       75.123    28522.469     9162.196     5643.404        7.967        2.166      339.680       64.809        0.036      336.296        7.499      853.899
01/07/2022  06:05:00     -440.654       89.670      -11.509      246.288      193.073      113.900    60657.795    37277.104    12973.121       15.661        5.545      449.685      107.539        0.057      336.371        7.623      853.945
01/07/2022  06:06:00     -422.218       82.577      -28.757      180.832      127.391       74.119    32700.132    16228.594     5493.666       12.016        2.721      430.217       43.611        0.010      336.367        7.617      853.920
01/07/2022  06:07:00     -317.153      -65.277       -7.826      211.638      160.097      111.607    44790.790    25630.985    12456.066        9.388        4.144      323.801      109.088        0.114      336.359        7.604      853.870
01/07/2022  06:08:00     -173.511      -31.750      -16.367      257.320      171.371      126.802    66213.336    29368.155    16078.746        7.150        5.583      176.392      123.189        0.488      336.400        7.672      853.846
01/07/2022  06:09:00     -370.816      -23.122      -20.078      215.630      162.774      100.695    46496.317    26495.360    10139.578       11.077        4.157      371.537       99.813        0.072      336.393        7.660      853.906
01/07/2022  06:10:00     -198.515      -14.247        9.403      217.391      169.299      120.605    47258.690    28662.226    14545.660        6.507        4.523      199.026      114.126        0.329      336.380        7.640      853.978
01/07/2022  06:11:00     -507.176       25.527      -24.357      347.755      178.744      115.533   120933.540    31949.330    13347.787       21.232        8.312      507.818      135.808        0.072      336.437        7.735      853.950
01/07/2022  06:12:00     -464.871       -2.471      -20.337      236.145      151.267      109.627    55764.542    22881.605    12018.084       15.358        4.533      464.877      105.609        0.052      336.446        7.749      853.951
01/07/2022  06:13:00     -271.269       21.823        7.026      320.445      158.839      125.697   102684.756    25229.769    15799.796       10.889        7.186      272.146      128.195        0.222      336.438        7.737      853.915
01/07/2022  06:14:00     -520.580      -14.544      -32.755      233.985      169.321      115.874    54748.891    28669.493    13426.867       18.455        4.842      520.783      116.988        0.050      336.433        7.728      853.844
01/07/2022  06:15:00     -374.242       52.210       -4.890      314.924      174.168      106.787    99177.066    30334.566    11403.405       14.184        7.046      377.867      117.958        0.097      336.401        7.675      853.795
01/07/2022  06:16:00     -262.058      -30.988      -12.437      232.683      163.370       97.438    54141.542    26689.646     9494.163        8.004        4.516      263.884       91.031        0.119      336.421        7.706      853.752
01/07/2022  06:17:00     -259.661        7.082      -21.874      262.106      133.764      103.604    68699.385    17892.689    10733.769        8.262        4.866      259.758      112.946        0.189      336.410        7.691      853.757
01/07/2022  06:18:00     -445.740      150.883       -0.173      248.966      172.441      107.148    61984.115    29735.803    11480.676       16.231        5.160      470.584      106.797        0.052      336.417        7.700      853.766
01/07/2022  06:19:00     -333.907       45.410        4.465      237.142      227.135      121.491    56236.392    51590.175    14760.181       11.806        6.129      336.981      105.733        0.098      336.390        7.655      853.707
01/07/2022  06:20:00     -108.955       90.648        7.367      215.987      194.058      115.810    46650.321    37658.400    13412.001        5.891        4.886      141.734       79.928        0.318      336.369        7.621      853.698
01/07/2022  06:21:00     -405.646       23.516      -43.235      265.947      194.077      103.229    70727.547    37665.799    10656.284       14.299        5.952      406.327       83.121        0.042      336.387        7.650      853.659
01/07/2022  06:22:00     -468.929       26.403      -27.641      267.777      185.753      122.200    71704.564    34504.045    14932.950       17.123        6.057      469.672      120.356        0.066      336.363        7.610      853.653
01/07/2022  06:23:00     -392.726      -35.104       -7.766      375.291      194.641      144.511   140843.426    37885.186    20883.567       17.753        9.981      394.291      145.051        0.135      336.361        7.608      853.634
01/07/2022  06:24:00     -318.754        3.789      -20.229      311.612      156.276      135.249    97101.793    24422.195    18292.424       12.090        6.991      318.777      146.832        0.212      336.387        7.650      853.636
01/07/2022  06:25:00     -408.592       37.649      -14.518      260.993      148.815      111.340    68117.301    22145.820    12396.628       13.560        5.133      410.323      117.438        0.082      336.371        7.623      853.606
01/07/2022  06:26:00     -301.618       20.769      -33.384      372.592      148.390      131.245   138825.153    22019.577    17225.279       13.526        8.904      302.332      133.759        0.196      336.379        7.637      853.578
01/07/2022  06:27:00     -500.068       -0.134      -33.893      297.494      151.879      109.273    88502.875    23067.257    11940.597       18.734        6.176      500.068      109.864        0.048      336.402        7.674      853.566
01/07/2022  06:28:00     -321.929        2.289      -12.909      321.645      171.315      129.648   103455.573    29348.690    16808.535       12.668        7.481      321.937      119.912        0.139      336.418        7.702      853.545
01/07/2022  06:29:00     -420.602       26.540        2.388      388.127      174.928      136.738   150642.427    30599.774    18697.174       18.874        9.997      421.438      190.619        0.205      336.412        7.691      853.546
01/07/2022  06:30:00     -411.028      -63.374      -33.493      252.671      200.182      136.514    63842.550    40072.845    18636.177       14.829        6.128      415.885      114.519        0.076      336.396        7.665      853.540
01/07/2022  06:31:00     -432.450       94.016      -26.047      262.025      202.137      126.681    68656.844    40859.206    16048.103       16.102        6.278      442.552      113.862        0.066      336.411        7.691      853.578
01/07/2022  06:32:00     -475.219      -33.240      -20.587      377.059      210.931      170.114   142173.345    44491.966    28938.697       22.144       10.780      476.380      190.019        0.159      336.439        7.737      853.562
01/07/2022  06:33:00     -265.353       14.025       -4.120      313.908      230.909      142.654    98538.346    53319.084    20350.040       12.139        8.610      265.724      119.705        0.203      336.429        7.720      853.517
01/07/2022  06:34:00     -373.455       41.058      -31.099      342.796      184.591      142.854   117508.901    34073.946    20407.310       15.702        8.600      375.705      142.854        0.145      336.406        7.680      853.495
01/07/2022  06:35:00     -310.438       14.863        8.621      276.883      200.505      141.826    76664.462    40202.177    20114.611       11.680        6.849      310.794      146.808        0.223      336.408        7.687      853.476
01/07/2022  06:36:00     -468.056       80.854       13.183      306.287      201.748      142.499    93811.589    40702.179    20305.965       19.027        7.741      474.988      150.497        0.100      336.420        7.706      853.472
01/07/2022  06:37:00     -334.188      -22.891        6.191      305.899      206.335      135.239    93574.267    42574.242    18289.652       13.331        7.722      334.971      132.889        0.157      336.401        7.675      853.529
01/07/2022  06:38:00     -168.320       14.527       -0.240      235.889      146.886      111.372    55643.470    21575.523    12403.746        5.907        4.481      168.945      105.272        0.388      336.406        7.682      853.582
01/07/2022  06:39:00     -356.122      -27.951      -18.866      318.724      158.469      126.703   101584.833    25112.355    16053.705       13.533        7.138      357.218      122.197        0.117      336.422        7.708      853.635
01/07/2022  06:40:00     -184.438       -0.433       -8.752      286.639      200.058      155.053    82161.741    40023.401    24041.520        9.013        7.311      184.439      146.452        0.631      336.448        7.754      853.637
01/07/2022  06:41:00     -508.986      100.633      -22.158      307.589      182.478      125.940    94611.182    33298.246    15860.993       20.670        7.189      518.838      128.823        0.062      336.444        7.745      853.638
01/07/2022  06:42:00     -458.478      -31.532       -7.457      332.823      162.252      144.974   110771.160    26325.682    21017.567       18.465        7.906      459.561      159.694        0.121      336.411        7.690      853.645
01/07/2022  06:43:00     -488.428       -3.108      -31.319      400.059      231.851      151.707   160046.879    53754.986    23014.978       23.814       11.841      488.438      130.367        0.071      336.422        7.709      853.655
01/07/2022  06:44:00     -437.336       -5.045      -32.524      388.762      226.377      157.539   151135.739    51246.480    24818.518       20.973       11.360      437.365      175.940        0.162      336.418        7.701      853.639
01/07/2022  06:45:00     -339.530      -60.696      -19.904      339.780      178.212      147.931   115450.671    31759.432    21883.479       14.420        8.455      344.912      160.505        0.217      336.415        7.696      853.605
01/07/2022  06:46:00     -171.607       67.244        7.730      223.846      163.369      108.789    50107.097    26689.460    11834.949        6.131        4.432      184.311      116.822        0.402      336.401        7.673      853.607
01/07/2022  06:47:00     -429.710      -14.685      -27.114      356.673      174.944      126.732   127215.932    30605.571    16061.039       17.971        8.694      429.960      134.094        0.097      336.390        7.656      853.568
01/07/2022  06:48:00     -528.295       44.927      -35.190      399.104      202.552      128.196   159283.714    41027.341    16434.223       24.951       10.837      530.202      156.647        0.087      336.443        7.743      853.521
01/07/2022  06:49:00     -313.440      -38.331      -18.462      317.892      174.626      153.929   101055.084    30494.264    23694.165       12.762        7.762      315.775      167.594        0.282      336.430        7.722      853.488
01/07/2022  06:50:00     -343.700      -21.372      -38.314      289.437      191.683      157.985    83773.515    36742.525    24959.167       13.274        7.274      344.364      132.322        0.148      336.404        7.679      853.498
01/07/2022  06:51:00     -335.035      -47.869      -22.994      351.668      177.327      152.456   123670.155    31444.935    23242.864       14.668        8.918      338.437      159.274        0.221      336.395        7.664      853.525
01/07/2022  06:52:00     -311.965       36.225        0.016      392.614      171.901      190.744   154145.963    29550.072    36383.144       15.932       11.004      314.061      203.553        0.420      336.382        7.642      853.499
01/07/2022  06:53:00     -390.720       18.748      -37.613      352.897      192.220      130.246   124536.299    36948.707    16964.144       16.641        8.922      391.169      122.602        0.098      336.378        7.635      853.470
01/07/2022  06:54:00     -385.751       66.373      -19.489      315.116      192.432      139.251    99298.264    37030.002    19390.812       15.463        7.786      391.419      124.315        0.101      336.427        7.717      853.485
01/07/2022  06:55:00     -287.031       14.246        4.802      312.341      205.312      134.147    97556.648    42153.071    17995.296       12.013        7.885      287.385      115.400        0.161      336.418        7.702      853.531
01/07/2022  06:56:00     -639.184      -36.445      -20.037      316.524      195.424      167.632   100187.647    38190.534    28100.643       28.835        8.324      640.222      164.636        0.066      336.451        7.758      853.484
01/07/2022  06:57:00     -528.971       -2.621      -22.645      376.393      185.854      165.054   141671.337    34541.746    27242.845       24.186       10.173      528.978      163.105        0.095      336.447        7.750      853.431
01/07/2022  06:58:00     -346.597       28.764      -11.800      378.480      178.621      130.672   143247.066    31905.631    17075.181       15.663        9.611      347.788      134.818        0.150      336.448        7.752      853.477
01/07/2022  06:59:00     -475.944       29.446      -18.939      426.106      179.448      139.198   181566.647    32201.483    19376.211       23.040       11.657      476.854      143.651        0.091      336.410        7.688      853.542
01/07/2022  07:00:00     -474.123      -47.541      -17.805      346.091      209.647      158.361   119779.195    43951.708    25078.189       20.805        9.440      476.500      160.924        0.114      336.441        7.740      853.561
01/07/2022  07:01:00     -358.481      -18.665      -21.167      326.862      195.472      147.255   106838.715    38209.390    21684.053       14.799        8.337      358.967      126.450        0.124      336.455        7.763      853.596
01/07/2022  07:02:00     -437.941       26.798      -45.539      307.733      207.153      143.933    94699.509    42912.351    20716.654       17.643        7.916      438.760      148.874        0.115      336.474        7.796      853.591
01/07/2022  07:03:00     -521.691       -7.036       -1.388      357.945      209.048      139.866   128124.549    43700.912    19562.638       23.177        9.569      521.738      144.950        0.077      336.510        7.857      853.608
01/07/2022  07:04:00     -359.959       18.623        1.695      372.122      207.830      144.415   138474.785    43193.381    20855.603       16.619       10.126      360.441      160.738        0.199      336.524        7.881      853.617
01/07/2022  07:05:00     -561.445       71.711      -27.670      362.933      236.503      153.172   131720.478    55933.556    23461.772       26.608       10.556      566.007      119.636        0.045      336.482        7.810      853.602
01/07/2022  07:06:00     -358.101       24.678      -22.362      299.122      191.927      129.939    89473.883    36836.161    16884.159       13.624        7.160      358.950      112.994        0.099      336.441        7.740      853.564
01/07/2022  07:07:00     -614.410       64.984      -20.848      310.032      172.551      127.962    96119.610    29773.772    16374.395       26.219        7.113      617.837      152.924        0.061      336.482        7.809      853.467
01/07/2022  07:08:00     -389.596       17.821       -5.447      324.711      157.127      115.284   105437.109    24689.003    13290.296       14.775        7.171      390.003      123.065        0.100      336.505        7.849      853.458
01/07/2022  07:09:00     -372.069       79.895       -1.128      398.003      199.446      138.946   158406.537    39778.567    19306.091       18.112       10.875      380.550      144.994        0.145      336.529        7.890      853.402
01/07/2022  07:10:00     -489.767       16.743      -21.701      276.868      180.841      144.181    76655.895    32703.353    20788.282       18.536        6.507      490.053      141.057        0.083      336.511        7.859      853.335
01/07/2022  07:11:00     -239.450      -23.358        2.952      266.510      160.111      125.914    71027.561    25635.675    15854.211        8.518        5.626      240.586      136.223        0.321      336.479        7.805      853.261
01/07/2022  07:12:00     -511.307        8.683      -35.015      316.941      207.886      146.149   100451.586    43216.707    21359.563       21.385        8.251      511.381      147.618        0.083      336.438        7.736      853.233
01/07/2022  07:13:00     -512.910       -1.205      -48.995      329.557      283.022      132.835   108607.498    80101.459    17645.238       23.588       10.318      512.912      151.797        0.088      336.481        7.808      853.243
01/07/2022  07:14:00     -460.736      -49.061      -34.635      325.057      213.839      149.635   105662.011    45726.985    22390.732       19.480        8.689      463.341      149.424        0.104      336.514        7.863      853.183
01/07/2022  07:15:00     -502.070      -77.809      -31.733      345.373      178.925      157.777   119282.419    32014.035    24893.608       21.763        8.810      508.064      157.696        0.096      336.513        7.862      853.139
01/07/2022  07:16:00     -333.985       63.663      -22.558      354.189      233.712      156.743   125450.038    54621.101    24568.469       16.034       10.232      339.998      146.240        0.185      336.519        7.874      853.099
01/07/2022  07:17:00     -506.169      -28.396      -37.292      422.356      210.342      164.216   178384.294    44243.920    26966.935       25.395       12.480      506.965      169.430        0.112      336.532        7.895      853.100
01/07/2022  07:18:00     -463.509      -10.854      -17.256      336.138      191.795      126.714   112989.074    36785.210    16056.552       19.051        8.292      463.636      140.385        0.092      336.503        7.845      853.096
01/07/2022  07:19:00     -556.021       -4.653      -19.774      375.820      210.061      135.435   141240.501    44125.659    18342.656       25.660       10.185      556.040      129.998        0.055      336.490        7.824      853.095
01/07/2022  07:20:00     -372.269      -12.084       -9.888      298.742      190.245      123.290    89246.690    36193.269    15200.455       13.971        7.032      372.465      131.421        0.124      336.456        7.766      853.132
01/07/2022  07:21:00     -450.874      -11.419      -15.080      368.888      187.260      124.548   136078.505    35066.408    15512.128       19.512        9.333      451.019      125.633        0.078      336.454        7.761      853.110
01/07/2022  07:22:00     -620.510       33.931      -30.253      296.912      172.589      127.585    88156.578    29787.004    16277.897       26.064        6.711      621.437      145.531        0.055      336.420        7.705      853.124
01/07/2022  07:23:00     -447.378        6.536      -17.930      403.205      244.663      172.161   162574.102    59860.125    29639.281       22.625       12.604      447.425      186.328        0.173      336.505        7.849      853.067
01/07/2022  07:24:00     -525.471      -54.952      -40.944      411.991      219.174      159.926   169736.337    48037.443    25576.180       26.204       12.167      528.337      168.053        0.101      336.552        7.929      853.094
01/07/2022  07:25:00     -610.283       16.515      -18.369      415.450      205.636      162.195   172598.554    42286.258    26307.256       30.708       12.060      610.507      164.771        0.073      336.568        7.954      853.068
01/07/2022  07:26:00     -408.621      -24.136      -29.616      318.569      202.516      146.522   101486.031    41012.613    21468.643       16.617        8.198      409.334      141.605        0.120      336.508        7.853      853.069
01/07/2022  07:27:00     -330.352       19.333      -13.834      381.554      187.423      127.792   145583.641    35127.244    16330.773       15.333        9.852      330.917      142.732        0.186      336.479        7.805      853.051
01/07/2022  07:28:00     -611.001       28.596      -14.646      471.582      258.776      205.258   222389.839    66965.184    42130.846       35.286       16.574      611.670      207.659        0.115      336.513        7.860      852.946
01/07/2022  07:29:00     -216.385       40.271      -29.385      349.019      187.973      143.885   121814.515    35334.029    20702.840       11.355        8.893      220.101      154.525        0.493      336.536        7.902      852.943
01/07/2022  07:30:00     -307.169      103.355       -9.752      411.531      217.852      152.410   169357.547    47459.498    23228.751       17.254       12.002      324.091      132.385        0.167      336.520        7.874      852.953
01/07/2022  07:31:00     -572.952       85.116      -74.493      288.540      258.925      131.626    83255.353    67042.088    17325.451       25.431        8.381      579.240      113.082        0.038      336.535        7.898      852.950
01/07/2022  07:32:00     -295.179       41.545       -8.377      277.059      152.316      120.341    76761.557    23200.091    14481.885       10.166        5.722      298.089      131.886        0.196      336.502        7.843      852.957
01/07/2022  07:33:00     -429.318       85.231       -5.654      364.159      249.469      172.940   132611.541    62234.892    29908.321       20.814       11.238      437.696      137.285        0.098      336.517        7.869      852.953
01/07/2022  07:34:00     -498.442      -10.357      -16.150      412.463      254.448      177.279   170125.651    64743.941    31427.912       25.751       13.315      498.549      178.456        0.128      336.579        7.973      853.010
01/07/2022  07:35:00     -483.636       51.020      -18.606      390.137      195.272      138.245   152206.737    38131.160    19111.678       22.311       10.472      486.319      139.764        0.083      336.559        7.939      853.049
01/07/2022  07:36:00     -321.115       11.701      -11.094      338.838      201.066      144.490   114811.230    40427.718    20877.328       13.971        8.806      321.328      128.960        0.161      336.562        7.947      853.079
01/07/2022  07:37:00     -362.420      -23.614      -40.669      397.688      220.258      170.672   158156.096    48513.772    29128.828       18.464       11.790      363.189      170.893        0.221      336.561        7.943      853.060
01/07/2022  07:38:00     -509.947       20.447      -27.241      458.472      268.815      163.230   210196.541    72261.569    26643.960       28.510       15.455      510.357      182.860        0.128      336.573        7.964      853.098
01/07/2022  07:39:00     -521.924       80.877      -33.807      347.597      241.690      159.103   120823.651    58413.839    25313.643       24.228       10.228      528.153      136.476        0.067      336.564        7.947      853.135
01/07/2022  07:40:00     -291.430       65.706       -9.355      308.285      201.316      140.572    95039.737    40528.124    19760.513       12.230        7.766      298.745      122.030        0.167      336.535        7.900      853.149
01/07/2022  07:41:00     -363.897       77.929      -10.161      288.135      224.616      148.395    83021.543    50452.291    22021.012       14.702        7.775      372.148      157.363        0.179      336.510        7.857      853.145
01/07/2022  07:42:00     -588.707       66.827      -66.198      424.633      219.121      146.579   180313.485    48014.022    21485.303       30.257       12.491      592.487      146.703        0.061      336.493        7.828      853.116
01/07/2022  07:43:00     -399.064       27.561       11.267      391.912      282.265      195.190   153595.158    79673.621    38099.095       21.570       13.568      400.014      210.141        0.276      336.494        7.830      853.158
01/07/2022  07:44:00     -328.773       21.926      -28.553      350.890      232.293      145.533   123123.935    53959.848    21179.800       15.379        9.913      329.504      137.341        0.174      336.509        7.855      853.227
01/07/2022  07:45:00     -561.104       81.275        5.083      341.470      227.783      152.476   116601.564    51885.018    23248.924       25.657        9.587      566.960      155.135        0.075      336.475        7.798      853.260
01/07/2022  07:46:00     -498.557      115.914       -8.966      368.010      263.969      164.164   135431.495    69679.585    26949.854       24.703       11.603      511.855      148.974        0.085      336.487        7.818      853.256
01/07/2022  07:47:00     -539.960       60.234      -17.564      364.395      243.314      164.361   132783.939    59201.674    27014.569       25.721       10.950      543.309      175.837        0.105      336.487        7.818      853.253
01/07/2022  07:48:00     -570.546        9.523      -41.041      563.635      307.991      180.172   317684.321    94858.601    32461.790       38.607       22.250      570.625      201.887        0.125      336.499        7.837      853.273
01/07/2022  07:49:00     -559.941      128.840        5.733      430.529      302.491      200.671   185355.610    91500.642    40268.944       32.359       15.856      574.573      198.614        0.119      336.481        7.809      853.341
01/07/2022  07:50:00     -404.222      194.067      -15.471      439.362      241.570      141.005   193038.568    58356.287    19882.328       23.624       13.564      448.394      156.005        0.121      336.504        7.847      853.453
01/07/2022  07:51:00     -487.854       55.255      -30.174      452.465      254.206      164.702   204724.209    64620.659    27126.621       26.916       14.824      490.974      184.632        0.141      336.501        7.841      853.516
01/07/2022  07:52:00     -746.205      137.815      -23.599      419.843      276.572      148.154   176268.215    76492.268    21949.626       42.549       13.736      758.825      149.027        0.039      336.478        7.804      853.620
01/07/2022  07:53:00     -764.242      112.046      -17.012      470.780      267.019      168.861   221634.079    71299.306    28514.017       45.912       16.072      772.412      195.323        0.064      336.455        7.764      853.637
01/07/2022  07:54:00     -625.287      212.482      -34.693      417.783      305.130      169.312   174542.870    93104.225    28666.532       36.677       14.816      660.404      187.671        0.081      336.445        7.747      853.589
01/07/2022  07:55:00     -454.757      141.030       -2.498      370.181      220.412      140.738   137034.330    48581.302    19807.169       21.602       10.271      476.124      142.210        0.089      336.428        7.718      853.539
01/07/2022  07:56:00     -328.574       52.101      -27.828      310.037      271.790      141.924    96123.231    73869.956    20142.396       15.076        9.507      332.679      129.759        0.152      336.416        7.699      853.470
01/07/2022  07:57:00     -388.753       51.569       -7.632      289.737      224.703      122.012    83947.425    50491.360    14886.906       15.156        7.466      392.159      117.717        0.090      336.422        7.708      853.347
01/07/2022  07:58:00     -497.013       62.466      -13.333      393.202      215.205      136.317   154607.856    46313.386    18582.425       23.526       10.975      500.923      169.949        0.115      336.403        7.677      853.259
01/07/2022  07:59:00     -350.418       74.380      -13.449      371.589      204.540      154.124   138078.654    41836.646    23754.160       16.605       10.183      358.225      162.005        0.205      336.447        7.751      853.211
01/07/2022  08:00:00     -235.676       76.883       14.519      448.304      205.616      159.274   200976.804    42278.043    25368.119       16.509       13.431      247.900      174.208        0.494      336.436        7.733      853.245
01/07/2022  08:01:00     -543.849      104.652       -2.929      465.469      229.946      144.659   216661.565    52875.117    20926.085       29.854       14.523      553.827      166.592        0.090      336.405        7.680      853.224
01/07/2022  08:02:00     -366.068      112.191        9.337      344.652      208.063      147.921   118784.935    43290.301    21880.591       16.528        9.198      382.874      146.890        0.147      336.409        7.687      853.238
01/07/2022  08:03:00     -564.166       54.176       -9.975      406.437      247.508      155.595   165191.240    61260.076    24209.959       28.594       12.533      566.761      172.329        0.092      336.399        7.670      853.269
01/07/2022  08:04:00     -469.105      184.808      -17.263      365.266      233.844      130.421   133419.423    54682.880    17009.652       22.977       10.256      504.196      156.482        0.096      336.405        7.680      853.371
01/07/2022  08:05:00     -544.201      135.895      -26.309      320.851      237.699      124.134   102945.555    56500.661    15409.193       24.505        8.743      560.912      143.416        0.065      336.382        7.641      853.352
01/07/2022  08:06:00     -457.742      136.036      -12.205      422.408      300.377      164.677   178428.476    90226.500    27118.480       26.192       14.789      477.528      142.627        0.089      336.383        7.644      853.422
01/07/2022  08:07:00     -402.400       29.717      -23.011      464.616      236.528      182.913   215867.820    55945.372    33457.342       23.425       15.264      403.496      171.818        0.181      336.376        7.633      853.467
01/07/2022  08:08:00     -426.094      133.036      -15.698      377.271      212.405      149.554   142333.189    45115.823    22366.423       20.462       10.491      446.380      128.959        0.083      336.376        7.632      853.519
01/07/2022  08:09:00     -211.602       55.999       53.481      337.264      212.004      155.978   113747.101    44945.747    24329.228       11.686        9.151      218.886      168.249        0.591      336.381        7.641      853.523
01/07/2022  08:10:00     -387.686       77.410      -12.259      344.148      214.620      136.526   118437.696    46061.834    18639.266       16.976        9.157      395.339      155.767        0.155      336.405        7.681      853.547
01/07/2022  08:11:00     -328.707      137.909      -42.415      323.270      226.585      142.863   104503.443    51340.874    20409.739       15.253        8.813      356.465      115.268        0.105      336.428        7.719      853.506
01/07/2022  08:12:00     -751.657      201.824      -36.168      360.113      248.558      151.829   129681.492    61781.256    23051.966       41.073       10.726      778.281      143.369        0.034      336.337        7.566      853.544
01/07/2022  08:13:00     -369.464      168.869        6.200      336.454      222.387      125.255   113201.021    49455.779    15688.718       17.167        8.917      406.227      139.635        0.118      336.388        7.651      853.637
01/07/2022  08:14:00     -161.773       55.761      -10.409      243.645      186.775      114.483    59362.981    34885.045    13106.435        6.835        5.368      171.114       82.811        0.234      336.397        7.668      853.669
01/07/2022  08:15:00     -861.593      138.596      -39.908      470.999      308.306      150.235   221840.169    95052.412    22570.631       55.124       16.973      872.669      133.451        0.023      336.280        7.472      853.679
01/07/2022  08:16:00     -324.104       87.223       -8.624      319.606      246.979      145.674   102147.981    60998.538    21220.859       14.851        9.218      335.636      127.164        0.144      336.343        7.577      853.717
01/07/2022  08:17:00     -536.522      128.883      -18.064      399.759      267.199      152.567   159807.053    71395.552    23276.568       27.959       12.724      551.785      156.926        0.081      336.292        7.492      853.714
01/07/2022  08:18:00     -508.857      179.926      -19.306      291.819      260.639      153.016    85158.284    67932.720    23413.997       23.406        8.825      539.730      147.460        0.075      336.346        7.581      853.784
01/07/2022  08:19:00     -468.351       53.926       -9.408      371.073      274.738      161.538   137695.464    75480.976    26094.655       23.077       11.964      471.445      149.618        0.101      336.328        7.551      853.810
01/07/2022  08:20:00     -188.977       36.040        5.741      298.082      268.986      177.347    88853.124    72353.274    31452.070       11.482        9.633      192.383      156.917        0.665      336.319        7.536      853.878
01/07/2022  08:21:00     -222.844       27.023       -3.339      315.729      180.875      147.914    99684.927    32715.732    21878.537       10.231        7.714      224.476      154.707        0.475      336.305        7.514      853.923
01/07/2022  08:22:00     -336.420      111.225      -25.597      330.401      223.402      148.470   109165.105    49908.590    22043.250       15.363        9.056      354.330      126.494        0.127      336.253        7.426      853.921
01/07/2022  08:23:00     -389.676      151.185      -43.879      275.925      210.400      135.779    76134.382    44268.123    18435.950       15.771        6.942      417.976       81.968        0.038      336.231        7.390      853.877
01/07/2022  08:24:00     -456.164       78.720      -22.354      346.280      224.967      157.668   119910.055    50610.205    24859.133       20.504        9.769      462.906      136.099        0.086      336.225        7.381      853.902
01/07/2022  08:25:00     -438.060      125.620       -8.107      300.360      208.836      127.250    90215.957    43612.545    16192.633       17.885        7.501      455.716      152.101        0.111      336.238        7.403      853.889
01/07/2022  08:26:00     -136.104        3.021       18.593      268.875      179.795      127.176    72293.681    32326.196    16173.837        6.981        6.040      136.137      112.506        0.683      336.251        7.424      853.906
01/07/2022  08:27:00     -475.301        2.780      -19.597      370.856      217.871      148.749   137534.097    47467.963    22126.255       21.668       10.356      475.309      135.937        0.082      336.226        7.383      853.887
01/07/2022  08:28:00     -666.330       88.893      -12.951      387.166      282.349      159.128   149897.570    79721.106    25321.566       35.346       12.747      672.233      144.503        0.046      336.239        7.404      853.895
01/07/2022  08:29:00     -357.112      -21.345      -28.394      322.115      213.309      139.481   103758.166    45500.559    19454.909       14.872        8.436      357.749      139.248        0.152      336.259        7.437      853.919
01/07/2022  08:30:00     -561.307       28.325      -17.955      315.093      258.701      157.847    99283.328    66926.109    24915.697       25.362        9.556      562.021      155.789        0.077      336.228        7.385      853.955
01/07/2022  08:31:00     -294.485       71.241      -11.280      297.529      205.472      121.414    88523.379    42218.695    14741.442       11.868        7.274      302.979      119.836        0.156      336.278        7.470      853.965
01/07/2022  08:32:00     -300.293      -23.065      -16.219      326.353      196.522      146.836   106506.181    38620.988    21560.872       12.880        8.334      301.177      154.758        0.264      336.284        7.479      853.986
01/07/2022  08:33:00     -545.019      102.275      -49.946      322.623      233.296      149.176   104085.371    54427.214    22253.599       24.535        9.038      554.532      120.910        0.048      336.317        7.532      853.979
01/07/2022  08:34:00     -368.461       94.490        7.656      287.428      189.882      121.722    82614.861    36054.996    14816.270       13.909        6.674      380.384      114.828        0.091      336.345        7.581      854.003
01/07/2022  08:35:00     -462.879       62.741      -10.433      322.333      221.167      146.224   103898.269    48914.984    21381.382       19.622        8.710      467.112      163.554        0.123      336.345        7.580      854.044
01/07/2022  08:36:00     -447.419       18.686      -45.432      338.718      228.858      145.755   114730.131    52375.916    21244.438       19.544        9.418      447.809      142.207        0.101      336.368        7.620      854.017
01/07/2022  08:37:00     -621.839       81.066      -48.609      294.143      237.149      122.708    86520.386    56239.540    15057.283       27.669        7.891      627.101       96.069        0.023      336.331        7.557      854.028
01/07/2022  08:38:00     -315.396       18.653       -2.519      272.038      189.659      126.925    74004.494    35970.359    16109.958       11.293        6.304      315.947      139.091        0.194      336.440        7.740      854.024
01/07/2022  08:39:00     -445.813       73.125      -25.174      333.072      197.840      118.427   110936.912    39140.514    14025.069       18.439        8.205      451.770      111.573        0.061      336.385        7.646      853.949
01/07/2022  08:40:00     -490.115       30.146      -12.061      272.533      182.084      127.414    74274.050    33154.699    16234.313       18.244        6.183      491.041      125.541        0.065      336.411        7.690      853.922
01/07/2022  08:41:00     -521.373      111.063      -19.648      349.625      198.374      131.235   122237.337    39352.433    17222.746       23.165        8.941      533.072      113.295        0.045      336.432        7.725      853.899
01/07/2022  08:42:00     -184.401       30.691       26.106      306.680      201.504      140.828    94052.687    40603.750    19832.462        9.503        7.724      186.937      144.147        0.595      336.515        7.867      853.874
01/07/2022  08:43:00     -210.329       71.149       -4.898      293.346      143.426      112.419    86051.649    20571.108    12638.049        8.427        5.963      222.037      116.600        0.276      336.510        7.858      853.878
01/07/2022  08:44:00     -399.719      111.226      -31.501      308.610      211.801      133.957    95240.218    44859.722    17944.357       16.556        7.902      414.905      125.725        0.092      336.391        7.658      853.862
01/07/2022  08:45:00     -386.879      -14.251       -5.943      274.537      184.918      112.632    75370.440    34194.606    12685.945       13.606        6.113      387.142      123.473        0.102      336.446        7.750      853.868
01/07/2022  08:46:00     -158.350       46.556      -29.421      225.302      168.032      112.408    50760.860    28234.867    12635.658        5.985        4.582      165.052      101.528        0.378      336.475        7.799      853.895
01/07/2022  08:47:00     -480.465        6.887       -1.511      365.548      219.035      135.015   133625.002    47976.212    18228.967       21.533        9.992      480.515      165.676        0.119      336.416        7.699      853.904
01/07/2022  08:48:00     -379.857       55.095        1.059      295.625      152.615      119.935    87394.217    23291.328    14384.401       13.618        6.253      383.832      123.841        0.104      336.504        7.848      853.892
01/07/2022  08:49:00     -403.966        6.575      -11.286      328.820      171.746      131.409   108122.784    29496.633    17268.195       15.909        7.744      404.019      144.315        0.128      336.513        7.862      853.954
01/07/2022  08:50:00     -467.951       19.856      -11.697      266.301      207.854      143.901    70916.239    43203.309    20707.619       17.714        6.741      468.372      152.021        0.105      336.514        7.863      854.053
01/07/2022  08:51:00     -510.773      -47.720      -31.673      272.086      190.193      123.272    74031.050    36173.442    15195.911       19.476        6.270      512.997      120.042        0.055      336.532        7.895      854.089
01/07/2022  08:52:00     -218.999      -13.663       -7.447      265.396      161.687      114.438    70435.236    26142.572    13096.150        7.892        5.484      219.425      110.792        0.255      336.601        8.009      854.112
01/07/2022  08:53:00     -202.045       51.135        6.041      279.721      190.498      127.241    78244.013    36289.668    16190.223        8.707        6.536      208.415      128.832        0.382      336.619        8.039      854.115
01/07/2022  08:54:00     -295.012        5.488      -32.593      209.653      148.259      100.843    43954.574    21980.844    10169.213        8.210        3.805      295.063       91.013        0.095      336.634        8.063      854.141
01/07/2022  08:55:00     -319.545      121.124        0.602      357.844      222.639      116.937   128052.318    49568.226    13674.251       15.400        9.565      341.731      131.761        0.149      336.678        8.138      854.100
01/07/2022  08:56:00     -467.191      165.279       13.400      261.524      203.979      135.684    68395.023    41607.586    18410.154       18.706        6.421      495.565      100.812        0.041      336.556        7.934      854.048
01/07/2022  08:57:00     -427.016      165.066        1.434      333.844      197.545      121.252   111451.731    39023.994    14701.931       18.735        8.259      457.809      120.678        0.069      336.556        7.935      854.052
01/07/2022  08:58:00     -269.502      143.891       11.228      295.840      159.736       96.929    87521.311    25515.439     9395.156       10.792        6.122      305.509      102.443        0.112      336.690        8.160      854.111
01/07/2022  08:59:00     -289.093       94.345        2.089      263.055      185.045      110.061    69197.905    34241.706    12113.415       10.400        5.778      304.098      118.659        0.152      336.681        8.145      854.143
01/07/2022  09:00:00     -247.402       73.644        6.444      279.366      171.723      128.648    78045.108    29488.928    16550.282        9.536        6.204      258.131      112.616        0.190      336.709        8.191      854.191
01/07/2022  09:01:00     -487.614       99.122      -19.050      296.560      239.492      114.940    87947.964    57356.502    13211.250       20.321        7.926      497.586      119.758        0.058      336.575        7.967      854.210
01/07/2022  09:02:00     -449.514      203.064       -7.698      259.076      191.130      101.699    67120.395    36530.770    10342.707       17.865        5.700      493.252      119.054        0.058      336.686        8.151      854.272
01/07/2022  09:03:00     -592.164      129.220      -15.712      378.377      243.623      132.040   143169.081    59352.383    17434.613       29.374       10.998      606.099      143.437        0.056      336.623        8.045      854.295
01/07/2022  09:04:00     -545.612      162.403      -30.253      254.107      193.064      123.227    64570.439    37273.802    15184.951       22.098        5.851      569.269      106.362        0.035      336.626        8.052      854.277
01/07/2022  09:05:00     -299.603       53.419      -21.781      342.262      194.092      110.167   117143.141    37671.674    12136.867       12.999        8.348      304.328      109.224        0.129      336.695        8.167      854.287
01/07/2022  09:06:00     -338.976       24.258       -2.723      239.923      167.852      121.084    57562.877    28174.426    14661.254       10.793        5.020      339.843      115.506        0.116      336.734        8.233      854.345
01/07/2022  09:07:00     -172.019      108.461      -16.470      237.242      203.154      113.724    56283.715    41271.481    12933.078        7.604        5.524      203.358       78.261        0.148      336.839        8.408      854.376
01/07/2022  09:08:00     -412.199      101.638      -32.862      328.420      244.580      151.403   107859.951    59819.510    22923.014       18.593        9.530      424.545      152.556        0.129      336.762        8.278      854.381
01/07/2022  09:09:00     -313.356       94.507       -0.632      254.605      200.509      123.843    64823.792    40204.023    15337.062       11.372        6.018      327.297      124.080        0.144      336.788        8.322      854.376
01/07/2022  09:10:00     -127.838        9.250      -32.231      275.633      167.276      124.617    75973.525    27981.208    15529.460        6.845        5.974      128.172      102.809        0.643      336.817        8.372      854.405
01/07/2022  09:11:00     -244.946       27.921      -42.549      240.069      189.110      116.288    57633.000    35762.530    13522.840        8.473        5.346      246.532      102.832        0.174      336.833        8.398      854.372
01/07/2022  09:12:00     -329.862      -16.041      -34.072      235.958      177.424      120.723    55675.965    31479.266    14574.152       10.596        5.086      330.252       98.511        0.089      336.732        8.228      854.331
01/07/2022  09:13:00     -264.932       14.660       -0.817      250.040      171.897      148.232    62519.839    29548.690    21972.592        9.220        5.702      265.337      139.887        0.278      336.648        8.089      854.315
01/07/2022  09:14:00     -359.289       61.506       16.411      377.291      180.826      128.053   142348.343    32698.066    16397.580       16.226        9.572      364.516      129.440        0.126      336.614        8.032      854.348
01/07/2022  09:15:00     -337.642       17.288      -15.860      289.959      181.067      136.438    84076.330    32785.433    18615.309       12.499        6.774      338.084      135.366        0.160      336.593        7.997      854.334
01/07/2022  09:16:00     -395.971       53.637      -23.265      323.243      187.765      134.540   104485.764    35255.546    18101.054       15.900        7.892      399.587      108.803        0.074      336.641        8.076      854.398
01/07/2022  09:17:00     -494.520      -31.601      -38.728      322.820      165.348      129.615   104212.795    27340.062    16800.145       19.767        7.418      495.528      139.240        0.079      336.669        8.124      854.381
01/07/2022  09:18:00     -509.983      -40.488      -19.957      299.989      179.151      121.068    89993.290    32095.205    14657.456       19.941        6.837      511.588      142.032        0.077      336.705        8.184      854.348
01/07/2022  09:19:00     -309.874       32.272      -28.091      286.078      149.542      109.867    81840.709    22362.839    12070.738       10.704        5.814      311.550      123.686        0.158      336.769        8.290      854.394
01/07/2022  09:20:00     -362.620       35.852      -13.275      276.262      218.782      114.068    76320.530    47865.755    13011.451       13.505        6.860      364.388      129.533        0.126      336.730        8.225      854.412
01/07/2022  09:21:00     -578.239      -93.168      -19.604      327.826      186.413      159.548   107469.649    34749.774    25455.451       25.552        8.384      585.697      174.868        0.089      336.633        8.063      854.435
01/07/2022  09:22:00     -295.131       33.604       12.652      359.850      178.418      121.051   129491.705    31832.932    14653.245       13.215        8.799      297.038      133.856        0.203      336.654        8.099      854.481
01/07/2022  09:23:00     -500.444      -34.561       -7.025      264.323      172.401      125.372    69866.900    29722.252    15718.212       18.348        5.765      501.636      133.867        0.071      336.606        8.019      854.528
01/07/2022  09:24:00     -428.145      -34.691      -22.086      260.068      188.894      110.569    67635.245    35680.791    12225.546       15.025        5.777      429.548      108.195        0.063      336.646        8.086      854.543
01/07/2022  09:25:00     -433.306      -30.228       -6.556      243.193      141.401      124.422    59142.876    19994.268    15480.795       14.165        4.731      434.359      132.987        0.094      336.674        8.131      854.559
01/07/2022  09:26:00     -318.201      -35.909        2.050      275.766      145.680      114.601    76046.940    21222.777    13133.343       10.645        5.520      320.221      115.983        0.131      336.680        8.141      854.529
01/07/2022  09:27:00     -246.732      -28.859       -8.922      208.190      163.964       95.593    43343.165    26884.323     9138.063        7.056        3.968      248.414       89.570        0.130      336.720        8.208      854.539
01/07/2022  09:28:00     -628.484      -53.181      -49.618      303.066      193.848      131.441    91849.059    37577.043    17276.679       27.347        7.335      630.730      125.082        0.039      336.643        8.079      854.539
01/07/2022  09:29:00     -241.918       40.151      -30.417      245.033      195.805      129.191    60041.123    38339.505    16690.353        8.805        5.754      245.227      126.687        0.267      336.698        8.172      854.597
01/07/2022  09:30:00     -569.995       38.511      -30.395      297.133      209.120      125.373    88287.901    43730.990    15718.494       23.749        7.387      571.294      129.486        0.051      336.659        8.106      854.647
01/07/2022  09:31:00     -241.797       77.265       -3.588      322.155      127.159      122.694   103783.538    16169.448    15053.787        9.970        6.750      253.841      149.038        0.345      336.764        8.282      854.712
01/07/2022  09:32:00     -254.955        2.887       34.860      272.605      167.777      136.025    74313.341    28149.276    18502.903        9.357        6.048      254.972      141.325        0.307      336.689        8.157      854.670
01/07/2022  09:33:00     -196.933       21.853      -16.444      238.899      208.383      126.013    57072.761    43423.304    15879.227        7.793        5.819      198.141       85.553        0.186      336.667        8.120      854.681
01/07/2022  09:34:00     -327.092        1.583      -22.874      263.491      254.120      116.298    69427.384    64576.748    13525.283       12.750        7.376      327.096      102.138        0.098      336.647        8.088      854.695
01/07/2022  09:35:00     -421.877       34.518        1.710      360.811      213.169      125.569   130184.700    45440.908    15767.669       18.525        9.570      423.287      104.884        0.061      336.651        8.094      854.678
01/07/2022  09:36:00     -280.680      -50.016      -24.693      292.730      179.332      124.459    85690.984    32160.102    15489.957       10.759        6.667      285.102      109.854        0.148      336.638        8.074      854.655
01/07/2022  09:37:00     -432.816       48.351      -23.186      296.164      210.127      129.130    87713.392    44153.316    16674.631       16.935        7.427      435.508      135.693        0.097      336.636        8.068      854.601
01/07/2022  09:38:00     -414.784       43.814      -48.890      297.343      173.950      125.380    88412.930    30258.526    15720.055       15.535        6.720      417.092      108.488        0.068      336.580        7.976      854.636
01/07/2022  09:39:00     -498.135       21.765      -52.269      340.496      165.364      125.831   115937.446    27345.215    15833.492       20.520        7.956      498.610      118.695        0.057      336.518        7.870      854.655
01/07/2022  09:40:00     -239.602       90.134       -0.261      275.054      201.810      131.111    75654.436    40727.401    17190.179        9.953        6.679      255.995      112.033        0.192      336.576        7.967      854.644
01/07/2022  09:41:00     -422.004      -44.192      -22.239      362.027      179.959      117.988   131063.685    32385.123    13921.145       17.892        8.868      424.312      134.941        0.101      336.547        7.921      854.651
01/07/2022  09:42:00     -456.003       42.090       -0.998      349.080      177.331      135.713   121857.184    31446.114    18418.093       19.068        8.586      457.941      169.215        0.137      336.532        7.894      854.669
01/07/2022  09:43:00     -477.608       68.021      -31.720      297.236      201.156      120.882    88349.251    40463.542    14612.413       18.856        7.171      482.427      102.842        0.045      336.545        7.916      854.724
01/07/2022  09:44:00     -409.675      -11.641      -21.891      317.053      175.704      138.546   100522.752    30871.757    19194.936       15.949        7.529      409.840      146.946        0.129      336.554        7.932      854.772
01/07/2022  09:45:00     -364.011       43.167      -21.313      377.781      166.469      115.362   142718.279    27711.821    13308.496       15.925        9.187      366.562      112.393        0.094      336.553        7.931      854.791
01/07/2022  09:46:00     -459.719      -16.053      -43.096      316.504      194.657      138.013   100174.713    37891.501    19047.644       18.526        7.856      459.999      144.548        0.099      336.506        7.851      854.742
01/07/2022  09:47:00     -359.253       10.025      -19.004      256.082      158.374      133.282    65577.898    25082.335    17764.018       11.895        5.421      359.393      115.610        0.103      336.550        7.924      854.743
01/07/2022  09:48:00     -370.640       33.282      -40.091      404.628      214.011      158.913   163723.595    45800.615    25253.252       18.739       11.739      372.131      156.644        0.177      336.526        7.885      854.766
01/07/2022  09:49:00     -178.872       24.469        2.118      269.997      241.071      132.938    72898.309    58115.132    17672.504        9.061        7.434      180.537      109.377        0.367      336.570        7.958      854.794
01/07/2022  09:50:00     -284.516       26.844        6.708      379.220      188.691      129.770   143808.160    35604.457    16840.278       13.895        9.813      285.779      151.234        0.280      336.522        7.878      854.753
01/07/2022  09:51:00     -317.309      -33.672      -13.947      303.427      176.341      161.193    92067.911    31096.161    25983.311       12.555        7.457      319.090      166.160        0.271      336.503        7.846      854.708
01/07/2022  09:52:00     -457.546       84.293      -44.567      290.552      183.454      133.546    84420.192    33655.205    17834.551       17.715        6.795      465.246      148.303        0.102      336.549        7.923      854.721
01/07/2022  09:53:00     -232.686       33.458       26.957      358.280      188.875      146.463   128364.911    35673.909    21451.522       12.071        9.275      235.079      134.455        0.327      336.581        7.978      854.716
01/07/2022  09:54:00     -447.151       85.122      -20.504      282.694      207.112      113.489    79915.640    42895.586    12879.845       17.163        6.785      455.181      105.448        0.054      336.587        7.985      854.742
01/07/2022  09:55:00     -461.829       27.453      -12.143      258.090      174.126      123.009    66610.681    30320.009    15131.229       16.310        5.603      462.644      112.605        0.059      336.578        7.971      854.741
01/07/2022  09:56:00     -325.969       -6.139      -30.811      273.793      185.101      141.681    74962.356    34262.363    20073.610       11.825        6.465      326.027      137.252        0.177      336.545        7.918      854.715
01/07/2022  09:57:00     -329.770        4.952      -43.342      268.177      176.071      128.406    71918.709    31001.159    16488.159       11.501        5.970      329.808      102.175        0.096      336.578        7.971      854.750
01/07/2022  09:58:00     -263.892       -8.347       32.756      334.974      204.842      149.455   112207.401    41960.083    22336.860       12.361        8.825      264.024      137.426        0.271      336.501        7.842      854.782
01/07/2022  09:59:00     -177.743       12.187      -14.824      278.576      125.444      124.788    77604.456    15736.132    15572.106        7.042        5.446      178.160      137.295        0.594      336.546        7.920      854.770
01/07/2022  10:00:00     -324.500       -5.487       -9.520      246.561      170.011      113.639    60792.254    28903.784    12913.886       10.400        5.130      324.547       94.381        0.085      336.548        7.921      854.801
01/07/2022  10:01:00     -385.993       38.179      -20.493      286.073      154.018      120.062    81837.507    23721.441    14414.899       13.540        5.999      387.877      107.784        0.077      336.541        7.910      854.792
01/07/2022  10:02:00      -99.268       46.762        7.732      241.955      189.879      120.227    58542.375    36054.030    14454.512        6.056        5.453      109.731       68.256        0.387      336.616        8.037      854.849
01/07/2022  10:03:00     -220.407      104.084      -15.867      172.630      157.220       93.853    29800.990    24718.045     8808.348        6.148        3.166      243.747       74.655        0.094      336.689        8.158      854.843
01/07/2022  10:04:00     -330.353       62.089       -0.713      296.194      180.988      141.241    87730.791    32756.538    19949.037       12.669        7.022      336.137      149.720        0.198      336.607        8.020      854.796
01/07/2022  10:05:00     -222.761      110.711       20.527      244.416      203.378      124.304    59739.372    41362.628    15451.564        8.941        5.828      248.756       97.483        0.154      336.647        8.088      854.790
01/07/2022  10:06:00     -593.209      184.920      -21.338      341.118      232.199      127.453   116361.666    53916.459    16244.387       28.650        9.326      621.363      138.664        0.050      336.586        7.982      854.789
01/07/2022  10:07:00     -469.595      129.005      -27.559      368.394      245.956      139.612   135713.885    60494.302    19491.380       22.677       10.785      486.992      150.634        0.096      336.576        7.968      854.768
01/07/2022  10:08:00     -349.613       52.369       -9.150      222.604      168.716      107.691    49552.532    28465.096    11597.352       10.732        4.481      353.513       85.924        0.059      336.583        7.979      854.790
01/07/2022  10:09:00     -401.273      124.283      -15.296      278.616      211.264      131.893    77626.676    44632.606    17395.844       15.815        6.983      420.079      132.798        0.100      336.630        8.058      854.777
01/07/2022  10:10:00     -586.100      144.086      -16.599      264.621      208.258      121.126    70024.231    43371.571    14671.589       24.628        6.403      603.551       88.030        0.021      336.585        7.983      854.757
01/07/2022  10:11:00     -319.331      103.018        1.017      316.364      170.047      110.398   100086.289    28915.878    12187.700       12.686        7.059      335.537      144.814        0.186      336.639        8.074      854.704
01/07/2022  10:12:00     -417.346      -11.728      -16.696      317.473      147.985      128.413   100788.950    21899.543    16489.908       15.686        6.959      417.511      140.466        0.113      336.619        8.040      854.659
01/07/2022  10:13:00     -232.616       -5.227      -22.844      289.757      140.371      118.445    83959.252    19704.001    14029.188        8.615        5.885      232.675      108.837        0.219      336.643        8.082      854.650
01/07/2022  10:14:00     -462.173       71.161      -27.091      324.602      187.382      138.898   105366.308    35111.939    19292.564       18.956        7.989      467.619      128.230        0.075      336.648        8.089      854.642
01/07/2022  10:15:00     -511.986       99.758      -23.897      271.604      187.767      118.681    73768.964    35256.561    14085.070       19.786        6.156      521.614      123.412        0.056      336.647        8.086      854.617
01/07/2022  10:16:00     -573.168      130.572      -13.073      364.446      242.532      159.932   132820.865    58821.914    25578.101       28.144       10.861      587.853      163.776        0.078      336.547        7.920      854.589
01/07/2022  10:17:00     -281.141       89.797       18.979      313.242      190.810      137.492    98120.418    36408.295    18904.144       12.042        7.672      295.134      141.334        0.229      336.636        8.069      854.626
01/07/2022  10:18:00     -487.500      171.067        2.338      278.475      187.729      121.175    77548.082    35242.052    14683.306       19.718        6.374      516.643      125.960        0.059      336.610        8.024      854.654
01/07/2022  10:19:00     -504.619      125.693       -6.056      313.352      215.142      130.585    98189.684    46286.173    17052.384       21.597        8.076      520.037      101.748        0.038      336.533        7.897      854.656
01/07/2022  10:20:00     -511.915      121.344       -5.504      315.831      242.973      145.549    99749.289    59035.639    21184.540       22.836        8.998      526.100      129.701        0.061      336.565        7.949      854.654
01/07/2022  10:21:00     -557.231      225.414       -7.825      325.439      208.513      120.058   105910.259    43477.799    14414.003       26.256        8.190      601.097      107.858        0.032      336.505        7.848      854.660
01/07/2022  10:22:00     -383.911       27.478      -22.007      394.559      219.203      141.222   155676.803    48049.990    19943.701       18.611       11.184      384.893      153.726        0.160      336.540        7.908      854.655
01/07/2022  10:23:00     -450.766       68.434      -23.390      304.302      209.935      114.618    92599.663    44072.753    13137.253       17.909        7.490      455.931      127.013        0.078      336.555        7.933      854.620
01/07/2022  10:24:00     -419.220       67.815      -34.866      273.203      216.038      130.639    74639.769    46672.277    17066.479       15.994        6.919      424.670      111.437        0.069      336.567        7.954      854.618
01/07/2022  10:25:00     -225.085       36.499      -19.775      252.986      224.573      123.475    64002.005    50432.974    15246.109        9.101        6.484      228.025      129.761        0.324      336.651        8.094      854.647
01/07/2022  10:26:00     -378.734       92.322      -21.395      318.259      235.618      134.719   101289.016    55515.773    18149.314       16.366        8.748      389.824      132.758        0.116      336.630        8.058      854.656
01/07/2022  10:27:00     -448.667      -32.149      -31.278      335.031      201.272      159.949   112246.003    40510.593    25583.837       19.079        8.917      449.818      149.951        0.111      336.650        8.093      854.669
01/07/2022  10:28:00     -527.710      167.186      -42.853      304.447      215.190      151.830    92688.206    46306.830    23052.263       23.513        8.102      553.560      135.332        0.060      336.713        8.197      854.696
01/07/2022  10:29:00     -439.639       18.355      -14.214      275.403      175.271      124.720    75846.812    30719.955    15555.137       15.795        6.106      440.022      124.536        0.080      336.756        8.266      854.733
01/07/2022  10:30:00     -605.041      188.561      -24.182      276.768      179.368      122.460    76600.778    32173.006    14996.434       26.297        6.189      633.743      110.430        0.030      336.753        8.263      854.689
01/07/2022  10:31:00     -319.275       96.165       15.982      201.622      154.872       93.036    40651.361    23985.232     8655.654        9.235        3.665      333.443       99.059        0.088      336.896        8.503      854.721
01/07/2022  10:32:00     -492.591       18.188      -25.041      262.323      185.607      115.657    68813.401    34450.084    13376.444       18.010        5.832      492.927      106.966        0.047      336.768        8.287      854.789
01/07/2022  10:33:00     -344.833       81.202      -26.621      396.553      190.913      116.983   157254.367    36447.688    13685.054       16.676       10.369      354.265      106.600        0.091      336.827        8.387      854.834
01/07/2022  10:34:00     -275.834      -10.913      -26.748      314.870      164.108      128.803    99143.431    26931.575    16590.335       10.977        7.133      276.050       97.258        0.124      336.900        8.509      854.894
01/07/2022  10:35:00     -289.681      -18.162      -33.979      195.604      151.157       90.658    38260.970    22848.428     8218.840        7.735        3.466      290.249       83.746        0.083      336.873        8.463      854.929
01/07/2022  10:36:00     -252.425      -20.384       -5.455      185.791      141.700      102.802    34518.208    20079.013    10568.321        6.465        3.258      253.247       94.794        0.140      336.891        8.494      854.986
01/07/2022  10:37:00     -424.643       20.318      -18.718      214.493      165.515      106.581    46007.409    27395.099    11359.555       13.291        4.238      425.129       97.926        0.053      336.821        8.377      854.990
01/07/2022  10:38:00     -461.689       37.428      -32.554      247.673      205.285      116.867    61341.824    42142.020    13657.868       16.636        5.857      463.204      131.414        0.080      336.803        8.347      854.976
01/07/2022  10:39:00     -388.070       87.528       -9.028      229.865      205.575      122.330    52837.749    42260.962    14964.611       13.418        5.503      397.819      123.235        0.096      336.927        8.552      855.033
01/07/2022  10:40:00     -282.053      -29.614      -13.196      218.137      163.288      108.302    47583.967    26662.875    11729.334        8.327        4.299      283.603      118.309        0.174      336.903        8.513      854.988
01/07/2022  10:41:00     -169.346        9.129       -7.151      179.127      146.030      102.166    32086.473    21324.890    10437.791        4.632        3.192      169.592       50.465        0.089      337.030        8.727      854.984
01/07/2022  10:42:00     -212.581       24.325       -7.071      242.987      144.085      112.246    59042.704    20760.548    12599.243        6.910        4.620      213.968      110.965        0.269      336.995        8.668      855.008
01/07/2022  10:43:00     -573.150       75.627      -40.017      278.094      161.114       96.960    77336.457    25957.845     9401.329       22.424        5.635      578.118      110.721        0.037      336.883        8.480      855.015
01/07/2022  10:44:00     -497.485      129.406      -35.441      274.257      193.990      131.887    75216.880    37632.004    17394.308       19.784        6.512      514.040      138.028        0.072      336.882        8.477      854.995
01/07/2022  10:45:00     -307.790       48.254      -40.222      193.665      163.332       90.174    37506.088    26677.281     8131.397        8.548        3.616      311.550       55.787        0.032      336.887        8.487      855.018
01/07/2022  10:46:00     -398.417       99.283      -24.440      280.818      176.550       98.381    78858.570    31169.948     9678.832       14.443        5.985      410.601      108.784        0.070      336.879        8.475      854.977
01/07/2022  10:47:00     -429.601       22.844      -44.020      347.242      170.662      133.281   120577.189    29125.540    17763.828       17.721        8.373      430.208      141.169        0.108      336.780        8.310      854.994
01/07/2022  10:48:00     -398.114       36.757      -38.209      247.232      235.843      115.805    61123.676    55622.141    13410.907       14.571        6.508      399.808       93.135        0.054      336.750        8.258      854.955
01/07/2022  10:49:00     -399.728      141.396      -13.383      293.439      161.169       96.021    86106.336    25975.604     9219.990       15.061        6.065      423.999      115.793        0.075      336.855        8.434      854.944
01/07/2022  10:50:00     -318.907        4.880      -21.707      295.107      160.031      136.338    87088.161    25609.768    18588.061       11.672        6.564      318.944      134.143        0.177      336.772        8.295      854.928
01/07/2022  10:51:00     -436.354       89.230       -9.513      250.789      200.209      113.782    62894.904    40083.755    12946.293       15.717        5.796      445.383       86.171        0.037      336.774        8.300      854.935
01/07/2022  10:52:00     -301.869       92.627        7.823      247.772      176.146      118.111    61391.036    31027.247    13950.320       10.305        5.318      315.761      122.907        0.152      336.854        8.433      854.911
01/07/2022  10:53:00     -388.294      103.804      -16.868      366.748      181.566      131.303   134504.320    32966.063    17240.458       17.324        9.236      401.929      139.256        0.120      336.785        8.317      854.880
01/07/2022  10:54:00     -203.745       12.765      -15.858      167.665      109.246       90.305    28111.643    11934.679     8154.911        4.505        2.410      204.144       82.471        0.163      336.883        8.480      854.907
01/07/2022  10:55:00     -327.141       69.555       -7.481      335.512      192.050      129.832   112568.619    36883.384    16856.229       13.908        8.315      334.453      112.388        0.113      336.796        8.335      854.891
01/07/2022  10:56:00     -457.313      138.499      -17.947      275.821      199.639      111.939    76077.470    39855.686    12530.299       17.853        6.423      477.825      100.710        0.044      336.780        8.308      854.861
01/07/2022  10:57:00     -297.664       78.171        7.537      294.964      193.528      118.981    87003.723    37453.204    14156.399       11.667        6.931      307.757      127.240        0.171      336.818        8.373      854.889
01/07/2022  10:58:00     -381.527       11.408      -25.390      289.429      252.352      143.041    83769.295    63681.311    20460.718       15.709        8.396      381.698      143.490        0.141      336.739        8.240      854.885
01/07/2022  10:59:00     -435.277       20.628       -7.171      320.566      204.424      145.277   102762.674    41789.040    21105.397       17.777        8.283      435.766      144.499        0.110      336.843        8.413      854.839
01/07/2022  11:00:00     -650.509      144.932      -46.491      332.544      281.689      142.455   110585.207    79348.524    20293.479       32.824       10.511      666.459      140.912        0.045      336.743        8.248      854.775
01/07/2022  11:01:00     -433.117      149.553      -11.450      301.171      278.542      134.913    90704.176    77585.698    18201.607       19.826        9.325      458.210      154.713        0.114      336.846        8.419      854.740
01/07/2022  11:02:00     -403.739      116.189      -14.407      258.390      215.344      143.494    66765.136    46373.076    20590.449       15.520        6.686      420.125      150.648        0.129      336.805        8.351      854.756
01/07/2022  11:03:00     -373.037        5.498      -22.388      291.553      196.960      135.326    85002.902    38793.363    18313.081       14.087        7.105      373.078      139.133        0.139      336.774        8.298      854.740
01/07/2022  11:04:00     -433.026       97.225      -24.345      284.225      202.443      123.803    80783.834    40983.236    15327.270       16.730        6.855      443.806      119.341        0.072      336.808        8.354      854.747
01/07/2022  11:05:00     -436.658      125.732        1.652      244.559      206.466      117.829    59809.173    42628.118    13883.703       16.138        5.816      454.399      115.157        0.064      336.836        8.402      854.720
01/07/2022  11:06:00     -413.968       74.761      -21.502      269.345      201.858      101.865    72546.643    40746.673    10376.472       15.052        6.183      420.664       84.709        0.041      336.855        8.433      854.752
01/07/2022  11:07:00     -165.001       96.182      -22.548      187.596      164.274       98.582    35192.345    26985.817     9718.377        5.443        3.595      190.988       88.459        0.215      336.971        8.629      854.740
01/07/2022  11:08:00     -396.179      108.867      -29.861      312.249      212.707      142.820    97499.129    45244.201    20397.678       16.639        8.157      410.865      127.895        0.097      336.849        8.424      854.731
01/07/2022  11:09:00     -385.548       80.548        1.124      316.027      227.100      132.940    99873.370    51574.357    17672.946       16.210        8.456      393.872      134.565        0.117      336.838        8.405      854.713
01/07/2022  11:10:00     -270.491       92.858      -22.116      300.814      211.693      150.586    90489.152    44813.822    22676.099       12.010        7.899      285.986      122.069        0.182      336.851        8.428      854.684
01/07/2022  11:11:00     -458.702      136.743      -21.437      287.971      185.302      116.068    82927.273    34336.983    13471.707       18.013        6.537      478.650      133.524        0.078      336.881        8.477      854.695
01/07/2022  11:12:00     -465.165      164.012       -1.454      354.206      236.005      123.571   125461.966    55698.497    15269.833       21.982        9.822      493.232      136.561        0.077      336.822        8.379      854.689
01/07/2022  11:13:00     -378.454      187.468        5.668      339.217      171.261      142.764   115067.962    29330.500    20381.526       17.156        8.239      422.340      136.774        0.105      336.769        8.291      854.669
01/07/2022  11:14:00     -367.815      126.819       -0.595      311.946      223.175      118.651    97310.342    49807.143    14078.076       15.625        8.060      389.065      134.507        0.120      336.914        8.532      854.699
01/07/2022  11:15:00     -372.089       87.140      -21.932      288.163      210.680      132.555    83038.145    44385.892    17570.862       14.573        7.250      382.156      110.777        0.084      336.875        8.468      854.691
01/07/2022  11:16:00     -552.908      125.479      -35.825      232.531      185.670      127.126    54070.478    34473.516    16161.071       21.370        5.235      566.968       98.973        0.030      336.841        8.411      854.679
01/07/2022  11:17:00     -508.720      167.012       -0.691      218.233      162.201      108.196    47625.558    26309.181    11706.278       18.615        4.282      535.434       95.640        0.032      336.945        8.585      854.667
01/07/2022  11:18:00     -407.540       49.528        6.033      314.487      212.036      151.782    98901.823    44959.302    23037.627       16.771        8.345      410.538      150.489        0.134      336.944        8.583      854.633
01/07/2022  11:19:00     -360.304       74.173        4.004      234.496      196.252      113.991    54988.368    38514.761    12994.012       12.090        5.325      367.859      107.202        0.085      337.007        8.688      854.625
01/07/2022  11:20:00     -296.635      -29.313       -2.288      264.663      180.042      117.010    70046.242    32415.190    13691.390       10.248        5.808      298.080      139.358        0.219      336.998        8.672      854.559
01/07/2022  11:21:00     -340.550      136.871      -14.711      443.141      235.887      130.335   196373.946    55642.713    16987.271       20.191       13.450      367.026      124.784        0.116      337.037        8.738      854.544
01/07/2022  11:22:00     -490.613       61.170      -31.812      295.685      216.073      130.221    87429.908    46687.553    16957.390       19.824        7.554      494.412      106.210        0.046      336.980        8.642      854.522
01/07/2022  11:23:00     -246.972       70.311       14.880      204.721      148.814      107.175    41910.551    22145.717    11486.375        7.084        3.777      256.786      101.941        0.158      337.153        8.931      854.518
01/07/2022  11:24:00     -372.572       39.121       -5.633      336.833      193.644      121.280   113456.783    37498.142    14708.874       15.299        8.283      374.620      114.366        0.093      337.048        8.757      854.497
01/07/2022  11:25:00     -303.687       76.548      -18.577      291.447      171.670      133.001    84941.557    29470.575    17689.150       11.524        6.605      313.186      122.813        0.154      337.144        8.918      854.470
01/07/2022  11:26:00     -609.841       78.878      -28.761      299.282      234.993      159.953    89570.015    55221.622    25585.050       27.463        8.519      614.921      153.828        0.063      336.954        8.599      854.471
01/07/2022  11:27:00     -354.622       57.362      -16.572      310.241      212.490      137.557    96249.207    45152.175    18921.980       14.479        8.016      359.232      116.304        0.105      337.072        8.796      854.467
01/07/2022  11:28:00     -407.367       44.409        5.583      284.549      198.305      139.756    80967.898    39324.705    19531.861       15.386        6.991      409.780      145.348        0.126      336.987        8.655      854.463
01/07/2022  11:29:00     -417.052      110.007      -27.490      311.792      226.103      137.948    97214.233    51122.361    19029.601       17.705        8.368      431.316      130.050        0.091      337.016        8.703      854.464
01/07/2022  11:30:00     -399.315      113.004       -5.884      380.293      214.406      127.855   144622.438    45969.735    16346.825       18.956       10.347      414.997      115.250        0.077      337.028        8.723      854.462
01/07/2022  11:31:00     -212.626      -26.599      -26.546      317.107      178.391      139.863   100557.125    31823.173    19561.737        9.925        7.597      214.283      125.786        0.345      337.121        8.879      854.490
01/07/2022  11:32:00     -481.198      136.759       -8.267      302.403      210.946      146.225    91447.664    44498.368    21381.781       20.380        7.866      500.255      134.663        0.072      337.048        8.756      854.474
01/07/2022  11:33:00     -375.744       72.127      -26.062      312.098      194.193      144.350    97404.980    37710.826    20836.898       15.148        7.798      382.604      138.004        0.130      337.127        8.888      854.463
01/07/2022  11:34:00     -596.594       31.680      -12.163      378.537      200.882      163.216   143290.512    40353.570    26639.568       28.364       10.514      597.435      158.505        0.070      336.974        8.633      854.495
01/07/2022  11:35:00     -387.401       28.136      -24.535      353.507      214.998      167.456   124967.297    46223.925    28041.617       17.532        9.962      388.422      149.790        0.149      337.016        8.703      854.516
01/07/2022  11:36:00     -512.408      135.626      -21.790      321.919      231.702      129.954   103632.017    53685.715    16888.151       22.779        8.710      530.053      141.313        0.071      337.021        8.710      854.508
01/07/2022  11:37:00     -552.003       79.325      -19.796      370.853      232.427      156.886   137531.751    54022.166    24613.160       26.374       10.808      557.674      155.114        0.077      336.932        8.561      854.523
01/07/2022  11:38:00     -419.435      126.227      -22.727      320.427      250.483      135.938   102673.290    62741.497    18479.216       18.810        9.195      438.017      111.981        0.065      337.051        8.762      854.533
01/07/2022  11:39:00     -544.669      -52.621      -46.774      343.276      204.809      149.894   117838.126    41946.747    22468.356       24.190        9.113      547.205      142.563        0.068      336.896        8.502      854.484
01/07/2022  11:40:00     -327.223        9.361       -0.645      344.427      200.501      135.300   118629.985    40200.833    18306.192       14.212        8.857      327.357      132.586        0.164      337.110        8.859      854.489
01/07/2022  11:41:00     -505.171      116.773        3.566      282.317      243.655      125.467    79702.726    59367.868    15742.027       21.180        7.741      518.492      129.819        0.063      337.082        8.813      854.481
01/07/2022  11:42:00     -593.562       89.372      -27.021      367.277      248.822      139.184   134892.624    61912.271    19372.059       28.857       10.809      600.253      123.721        0.042      337.046        8.754      854.463
01/07/2022  11:43:00     -295.865       39.143      -16.358      245.059      174.626      124.771    60053.886    30494.120    15567.896        9.771        5.306      298.443      102.498        0.118      337.191        8.996      854.457
01/07/2022  11:44:00     -551.723      169.811      -29.579      411.596      210.798      159.008   169411.286    44435.828    25283.590       28.658       11.957      577.264      142.819        0.061      337.054        8.766      854.421
01/07/2022  11:45:00     -365.795       86.680       11.643      304.413      238.198      141.535    92667.429    56738.112    20032.120       15.542        8.472      375.925      131.547        0.122      337.142        8.913      854.394
01/07/2022  11:46:00     -525.974       52.924      -58.973      306.050      255.222      156.143    93666.533    65138.466    24380.631       23.302        9.159      528.630      163.630        0.096      337.079        8.807      854.387
01/07/2022  11:47:00     -326.145       31.477      -42.313      305.581      204.516      133.606    93379.807    41826.875    17850.640       13.108        7.653      327.660      117.383        0.128      337.140        8.910      854.384
01/07/2022  11:48:00     -504.866      210.765       -8.293      319.015      236.557      134.816   101770.804    55959.108    18175.489       23.761        8.795      547.094      129.178        0.056      337.121        8.878      854.356
01/07/2022  11:49:00     -646.130      141.007      -22.386      321.355      209.761      131.821   103269.046    43999.564    17376.799       30.123        8.232      661.337      139.805        0.045      337.019        8.707      854.318
01/07/2022  11:50:00     -262.727       24.523       25.040      415.355      273.565      185.878   172519.478    74837.554    34550.551       17.603       14.095      263.869      187.353        0.504      337.079        8.807      854.302
01/07/2022  11:51:00     -547.583       68.214      -19.250      432.270      273.599      159.956   186857.428    74856.258    25585.915       29.603       14.365      551.815      146.126        0.070      336.970        8.624      854.287
01/07/2022  11:52:00     -602.649       96.377      -43.500      315.145      233.726      128.795    99316.538    54627.943    16588.057       27.242        8.527      610.307      116.734        0.037      337.007        8.687      854.293
01/07/2022  11:53:00     -505.772       74.287      -25.822      328.449      231.194      137.684   107878.717    53450.681    18956.860       22.111        9.014      511.199      139.795        0.075      337.001        8.678      854.270
01/07/2022  11:54:00     -538.946      129.314      -10.969      293.998      191.799      121.797    86434.820    36786.681    14834.433       22.266        6.903      554.243      121.413        0.048      337.059        8.774      854.262
01/07/2022  11:55:00     -436.540       49.545       -6.784      329.516      262.386      148.703   108580.999    68846.294    22112.592       19.627        9.977      439.342      148.526        0.114      337.027        8.721      854.233
01/07/2022  11:56:00     -553.838      -28.552        8.695      475.307      229.914      184.909   225916.316    52860.391    34191.175       31.024       15.648      554.573      187.203        0.114      336.964        8.615      854.168
01/07/2022  11:57:00     -409.945       82.204      -18.350      356.726      233.054      148.749   127253.787    54313.954    22126.371       18.938       10.185      418.106      135.187        0.105      337.088        8.823      854.146
01/07/2022  11:58:00     -600.885       95.026      -35.502      386.500      234.367      143.751   149382.620    54927.711    20664.224       29.812       11.249      608.353      141.262        0.054      337.044        8.748      854.171
01/07/2022  11:59:00     -571.086      138.318       11.904      407.645      221.646      149.056   166174.267    49126.945    22217.662       29.142       11.876      587.598      176.934        0.091      337.058        8.773      854.134
01/07/2022  12:00:00     -500.833       55.086      -57.478      292.929      251.399      130.717    85807.508    63201.483    17087.035       21.160        8.305      503.854      128.771        0.065      337.140        8.910      854.138
01/07/2022  12:01:00     -433.504       58.420       -8.482      248.389      233.509      122.705    61696.866    54526.589    15056.415       16.132        6.564      437.422      100.637        0.053      337.190        8.993      854.114
01/07/2022  12:02:00     -376.948       77.347      -26.104      285.002      200.139      117.920    81225.931    40055.797    13905.189       14.195        6.759      384.801      121.763        0.100      337.225        9.053      854.127
01/07/2022  12:03:00     -495.546       20.958       17.025      340.758      226.759      154.552   116116.276    51419.538    23886.193       21.882        9.571      495.989      168.988        0.116      337.131        8.895      854.077
01/07/2022  12:04:00     -620.849      -13.040      -43.496      446.567      229.096      187.889   199421.822    52484.912    35302.313       33.731       14.360      620.986      231.959        0.140      336.977        8.638      854.005
01/07/2022  12:05:00     -429.802      -67.143       11.421      428.111      255.770      208.759   183278.816    65418.138    43580.380       24.077       14.614      435.015      221.008        0.258      337.016        8.704      854.009
01/07/2022  12:06:00     -639.830       -4.004      -46.074      441.601      305.974      177.596   195011.297    93620.292    31540.201       36.579       16.009      639.843      167.585        0.069      336.941        8.578      853.950
01/07/2022  12:07:00     -861.079      -34.627      -26.835      366.287      250.426      157.429   134166.181    62713.314    24783.853       48.248       11.083      861.775      158.385        0.034      336.990        8.658      853.968
01/07/2022  12:08:00     -410.413       -4.110      -20.555      319.539      155.109      130.485   102105.141    24058.949    17026.235       15.601        7.160      410.434      134.666        0.108      337.143        8.916      853.986
01/07/2022  12:09:00     -299.124       -1.179       11.110      330.732      188.351      157.384   109383.589    35476.267    24769.845       12.958        8.481      299.127      165.066        0.305      337.242        9.083      854.022
01/07/2022  12:10:00     -616.040        9.591      -28.455      445.314      286.671      218.995   198304.913    82180.419    47958.861       35.437       16.422      616.115      211.091        0.117      337.083        8.815      853.937
01/07/2022  12:11:00     -480.047       15.821      -32.210      394.950      173.888      153.899   155985.769    30237.183    23684.846       22.078       10.495      480.308      150.846        0.099      337.172        8.964      853.961
01/07/2022  12:12:00     -425.872      -18.089      -53.271      242.746      145.335      120.309    58925.389    21122.329    14474.360       13.951        4.726      426.256       89.815        0.044      337.281        9.148      853.993
01/07/2022  12:13:00     -589.601       97.687      -35.746      348.361      263.798      159.165   121355.645    69589.523    25333.610       28.732       10.814      597.639      162.211        0.074      337.207        9.022      853.952
01/07/2022  12:14:00     -473.724       23.074       -7.487      349.409      178.956      122.589   122086.897    32025.088    15027.948       19.704        8.457      474.285      128.393        0.073      337.327        9.224      853.914
01/07/2022  12:15:00     -736.503       13.248      -35.825      444.899      259.593      150.397   197934.737    67388.462    22619.125       41.587       14.397      736.622      171.115        0.054      337.276        9.137      853.900
01/07/2022  12:16:00     -608.326       -6.935      -34.660      405.621      284.759      168.182   164528.551    81087.613    28285.226       32.256       13.695      608.366      177.965        0.086      337.228        9.058      853.910
01/07/2022  12:17:00     -612.356       22.325      -31.155      393.364      240.494      156.905   154735.019    57837.517    24619.238       30.678       11.860      612.762      169.484        0.077      337.196        9.004      853.885
01/07/2022  12:18:00     -495.528      -45.501      -27.075      386.042      248.386      163.631   149028.565    61695.689    26774.946       24.288       11.875      497.612      175.602        0.125      337.234        9.067      853.914
01/07/2022  12:19:00     -731.214     -119.501      -58.976      413.174      232.722      179.066   170713.020    54159.709    32064.733       40.464       12.847      740.915      179.454        0.059      337.170        8.961      853.857
01/07/2022  12:20:00     -429.725        6.108      -16.240      361.847      211.282      162.253   130933.379    44639.879    26326.135       19.339       10.095      429.768      165.655        0.149      337.261        9.114      853.868
01/07/2022  12:21:00     -556.977        5.195      -72.392      430.059      275.024      168.765   184950.808    75638.183    28481.782       30.223       14.454      557.001      170.796        0.094      337.236        9.071      853.820
01/07/2022  12:22:00     -579.986       44.624      -37.749      375.161      278.985      186.557   140745.997    77832.708    34803.424       29.654       12.669      581.700      174.988        0.090      337.232        9.064      853.840
01/07/2022  12:23:00     -787.056       -7.389      -35.962      378.571      273.336      154.586   143316.012    74712.692    23896.798       43.132       12.096      787.091      159.601        0.041      337.129        8.890      853.823
01/07/2022  12:24:00     -532.055        8.259      -16.107      337.189      195.889      158.623   113696.620    38372.345    25161.268       23.029        8.862      532.120      157.827        0.088      337.178        8.974      853.837
01/07/2022  12:25:00     -593.187       20.989      -50.187      388.925      229.833      141.906   151263.034    52823.207    20137.423       28.949       11.211      593.558      173.357        0.085      337.144        8.917      853.826
01/07/2022  12:26:00     -661.774       36.412      -34.232      433.541      256.078      160.948   187957.888    65575.854    25904.180       35.989       13.972      662.775      175.521        0.070      337.125        8.884      853.772
01/07/2022  12:27:00     -469.876      -45.245      -24.182      382.811      258.775      178.387   146544.207    66964.312    31821.933       23.433       12.267      472.049      198.685        0.177      337.161        8.945      853.721
01/07/2022  12:28:00     -503.710       -5.979      -30.964      405.328      263.947      175.334   164290.895    69668.159    30741.852       25.966       13.235      503.745      169.801        0.114      337.161        8.944      853.732
01/07/2022  12:29:00     -497.466       39.419      -32.281      397.822      276.855      156.852   158262.370    76648.437    24602.498       25.474       12.976      499.026      155.507        0.097      337.102        8.846      853.739
01/07/2022  12:30:00     -591.329       12.277      -21.942      423.696      286.159      181.432   179518.164    81886.926    32917.431       32.226       14.716      591.456      205.009        0.120      337.076        8.802      853.721
01/07/2022  12:31:00     -647.936      -55.715      -11.224      496.334      280.560      202.543   246347.383    78714.103    41023.654       39.450       18.304      650.327      220.405        0.115      337.076        8.804      853.687
01/07/2022  12:32:00     -482.407      133.412        9.586      395.001      235.157      157.268   156026.108    55298.673    24733.223       24.329       11.803      500.515      189.746        0.144      337.199        9.009      853.690
01/07/2022  12:33:00     -512.051       -2.823       -3.851      408.702      274.332      166.398   167037.003    75258.127    27688.172       26.605       13.499      512.059      163.414        0.102      337.165        8.953      853.674
01/07/2022  12:34:00     -417.989       53.445        4.777      340.254      233.928      145.113   115773.057    54722.473    21057.783       18.454        9.578      421.392      154.564        0.135      337.218        9.042      853.662
01/07/2022  12:35:00     -466.676      -17.096      -33.156      319.552      192.456      145.058   102113.368    37039.489    21041.933       18.966        8.010      466.989      150.928        0.104      337.220        9.045      853.661
01/07/2022  12:36:00     -544.857       74.126       -9.380      378.356      297.686      176.084   143153.372    88617.094    31005.536       28.257       13.139      549.876      190.805        0.120      337.147        8.923      853.693
01/07/2022  12:37:00     -715.144      -41.912      -26.932      426.854      290.340      153.385   182204.036    84297.272    23526.991       40.192       14.501      716.371      164.537        0.053      337.106        8.854      853.709
01/07/2022  12:38:00     -815.016        1.676        5.072      406.866      289.532      189.630   165540.274    83828.659    35959.559       47.475       14.266      815.018      190.182        0.054      337.095        8.834      853.709
01/07/2022  12:39:00     -894.981       33.769       -6.809      451.492      308.585      187.004   203845.437    95224.663    34970.657       56.805       16.702      895.617      205.209        0.052      337.037        8.738      853.688
01/07/2022  12:40:00     -749.924       77.117      -21.362      469.307      291.935      187.853   220248.628    85226.222    35288.934       45.471       17.038      753.878      211.423        0.079      337.101        8.845      853.698
01/07/2022  12:41:00     -694.676       45.284      -53.102      402.516      241.581      161.665   162019.109    58361.412    26135.726       36.694       12.326      696.151      172.361        0.061      337.120        8.876      853.615
01/07/2022  12:42:00     -830.271       65.324      -50.826      368.630      276.329      168.879   135887.811    76357.892    28520.012       46.844       12.038      832.836      168.692        0.041      337.128        8.890      853.570
01/07/2022  12:43:00     -540.584      -15.227      -27.978      324.043      226.560      139.533   105004.070    51329.439    19469.416       23.449        8.790      540.798      167.941        0.096      337.244        9.084      853.612
01/07/2022  12:44:00     -716.089       16.820      -25.580      403.652      274.725      160.071   162935.135    75473.579    25622.845       38.883       13.202      716.286      179.376        0.063      337.183        8.984      853.624
01/07/2022  12:45:00     -637.136       30.931      -22.829      428.614      255.735      140.949   183710.246    65400.150    19866.692       33.815       13.449      637.887      149.762        0.055      337.151        8.928      853.656
01/07/2022  12:46:00     -555.926       -1.790        3.382      449.296      231.777      178.816   201866.656    53720.773    31975.104       29.826       14.378      555.929      192.978        0.120      337.175        8.969      853.621
01/07/2022  12:47:00     -827.219       84.611      -42.998      419.877      303.341      181.479   176296.324    92015.967    32934.806       49.722       15.062      831.534      165.553        0.040      337.096        8.837      853.623
01/07/2022  12:48:00     -567.003       48.175       -1.141      436.633      291.886      194.403   190648.518    85197.276    37792.635       31.867       15.682      569.045      195.267        0.118      337.110        8.860      853.557
01/07/2022  12:49:00     -711.052        1.360      -33.741      401.113      206.789      171.700   160891.256    42761.820    29481.042       36.989       11.657      711.053      182.158        0.066      337.119        8.875      853.554
01/07/2022  12:50:00     -545.910        9.672      -13.249      368.703      225.642      158.291   135942.240    50914.335    25055.994       25.506       10.596      545.996      158.575        0.084      337.247        9.090      853.582
01/07/2022  12:51:00     -775.757        0.891      -27.136      354.960      264.207      166.195   125996.502    69805.273    27620.785       41.294       11.171      775.758      185.471        0.057      337.126        8.888      853.582
01/07/2022  12:52:00     -695.973      -61.593      -40.089      461.807      263.574      183.920   213265.616    69471.112    33826.724       40.311       15.828      698.693      187.496        0.072      337.074        8.801      853.570
01/07/2022  12:53:00     -499.245      -44.672        3.227      502.167      217.542      183.047   252171.627    47324.611    33506.338       29.207       16.650      501.239      207.407        0.171      337.113        8.865      853.546
01/07/2022  12:54:00     -581.997       27.143      -40.354      417.668      259.134      149.407   174446.145    67150.310    22322.596       30.245       13.196      582.629      145.992        0.063      337.129        8.892      853.532
01/07/2022  12:55:00     -694.793      -15.738      -48.213      513.759      282.723      185.865   263947.942    79932.034    34545.708       43.180       18.921      694.972      155.644        0.050      337.121        8.879      853.516
01/07/2022  12:56:00     -618.613        4.896      -20.449      436.437      222.069      164.457   190477.439    49314.686    27046.209       32.493       13.342      618.632      150.826        0.059      337.122        8.880      853.489
01/07/2022  12:57:00     -560.509        3.148      -49.615      455.568      245.382      176.115   207541.834    60212.256    31016.488       30.765       14.939      560.518      186.678        0.111      337.157        8.937      853.503
01/07/2022  12:58:00     -694.358      -86.637      -15.550      497.607      305.785      198.821   247612.592    93504.259    39529.848       43.519       19.032      699.742      227.775        0.106      337.105        8.853      853.497
01/07/2022  12:59:00     -563.619       47.944      -21.451      394.973      176.386      128.465   156003.970    31112.112    16503.285       26.198       10.181      565.654      147.012        0.068      337.210        9.028      853.491
01/07/2022  13:00:00     -686.414        9.208      -29.208      395.754      264.952      176.195   156621.027    70199.336    31044.840       36.494       12.893      686.476      179.628        0.068      337.188        8.991      853.499
01/07/2022  13:01:00     -818.208      -11.431      -76.808      457.489      279.439      153.394   209295.855    78086.408    23529.662       49.315       15.546      818.288      156.557        0.037      337.170        8.960      853.443
01/07/2022  13:02:00     -527.911      -25.994      -48.198      455.981      215.665      161.974   207918.431    46511.462    26235.651       28.113       14.033      528.551      136.988        0.067      337.258        9.107      853.462
01/07/2022  13:03:00     -464.573       21.625      -19.315      410.419      244.888      165.961   168444.157    59970.316    27543.148       23.627       12.798      465.076      196.943        0.179      337.307        9.191      853.476
01/07/2022  13:04:00     -662.750       32.925      -55.722      502.118      241.746      176.650   252122.856    58440.892    31205.330       39.254       17.088      663.568      167.886        0.064      337.263        9.117      853.464
01/07/2022  13:05:00     -855.534       28.772      -31.359      442.644      227.692      170.222   195933.735    51843.582    28975.419       50.520       13.838      856.018      191.444        0.050      337.169        8.960      853.426
01/07/2022  13:06:00     -306.644       14.824      -23.870      278.017      172.598      120.234    77293.429    29790.164    14456.196       10.816        6.077      307.002      118.645        0.149      337.377        9.307      853.478
01/07/2022  13:07:00     -474.096       65.565        3.536      293.718      232.749      124.634    86270.404    54171.866    15533.710       19.250        7.799      478.608      123.874        0.067      337.400        9.344      853.452
01/07/2022  13:08:00     -460.646      132.476       -9.458      409.687      219.885      142.954   167843.687    48349.465    20435.987       23.319       11.831      479.317      152.059        0.101      337.376        9.305      853.413
01/07/2022  13:09:00     -658.872       63.801      -74.948      304.766      224.367      125.400    92882.118    50340.426    15725.205       30.134        7.947      661.954      112.891        0.029      337.350        9.261      853.436
01/07/2022  13:10:00     -805.957       10.078      -50.196      380.999      308.830      142.637   145160.058    95375.965    20345.368       45.649       13.044      806.020      155.541        0.037      337.248        9.091      853.417
01/07/2022  13:11:00     -690.014       29.153      -31.331      386.685      250.359      163.660   149525.375    62679.624    26784.458       35.843       11.949      690.630      174.171        0.064      337.287        9.156      853.433
01/07/2022  13:12:00     -559.737       11.817      -12.810      469.077      262.062      205.953   220033.295    68676.255    42416.647       32.231       16.556      559.862      212.045        0.143      337.274        9.135      853.403
01/07/2022  13:13:00     -642.226      118.309       -0.410      392.397      213.575      155.400   153975.789    45614.483    24149.188       32.505       11.187      653.032      188.076        0.083      337.338        9.242      853.421
01/07/2022  13:14:00     -739.500     -114.936      -60.998      414.636      361.232      179.135   171922.672   130488.231    32089.427       44.908       16.725      748.378      162.674        0.047      337.231        9.061      853.415
01/07/2022  13:15:00     -354.734      -45.521        7.988      316.296      201.393      140.681   100043.452    40559.162    19791.022       14.415        8.020      357.643      150.641        0.177      337.428        9.392      853.419
01/07/2022  13:16:00     -714.205      -19.825       -4.712      358.791      281.248      170.608   128730.630    79100.514    29107.002       37.368       11.847      714.480      160.378        0.050      337.241        9.079      853.376
01/07/2022  13:17:00     -676.670      -33.563      -33.635      443.193      236.824      187.391   196420.324    56085.532    35115.473       37.383       14.381      677.502      188.869        0.078      337.335        9.237      853.425
01/07/2022  13:18:00     -808.310       91.310      -36.433      362.644      280.071      148.655   131510.966    78440.007    22098.374       44.750       11.602      813.451      156.316        0.037      337.283        9.151      853.414
01/07/2022  13:19:00     -579.390       23.501      -18.548      424.340      231.826      165.168   180064.806    53743.473    27280.428       29.879       13.054      579.866      184.721        0.101      337.289        9.161      853.381
01/07/2022  13:20:00     -638.508      -45.315      -30.388      363.548      231.097      141.403   132167.397    53405.894    19994.923       30.808       10.278      640.115      136.338        0.045      337.318        9.208      853.365
01/07/2022  13:21:00     -665.328       31.798       -5.859      407.657      284.679      167.960   166184.027    81042.164    28210.426       35.952       13.772      666.087      168.369        0.064      337.246        9.086      853.361
01/07/2022  13:22:00     -587.607       68.856      -22.988      458.958      228.996      152.113   210642.050    52439.349    23138.489       31.833       14.311      591.628      178.570        0.091      337.303        9.183      853.369
01/07/2022  13:23:00     -529.201      -22.048        5.804      318.580      211.240      131.772   101493.405    44622.236    17363.912       22.200        8.174      529.660      141.921        0.072      337.331        9.229      853.386
01/07/2022  13:24:00     -805.108       15.789      -38.827      425.926      288.604      157.949   181413.382    83292.479    24947.882       46.975       14.483      805.263      178.888        0.049      337.228        9.056      853.385
01/07/2022  13:25:00     -570.168       93.419       -4.856      380.570      211.043      142.231   144833.185    44539.161    20229.540       27.168       10.480      577.770      125.210        0.047      337.311        9.195      853.386
01/07/2022  13:26:00     -532.490       56.280      -23.507      378.751      269.579      150.301   143452.652    72673.012    22590.356       26.295       11.936      535.456      162.367        0.092      337.336        9.238      853.384
01/07/2022  13:27:00     -642.322      -29.235      -46.699      283.196      217.492      146.709    80199.705    47302.554    21523.668       28.229        7.451      642.986      142.441        0.049      337.303        9.183      853.380
01/07/2022  13:28:00     -524.417       75.900       -9.022      480.799      260.927      151.462   231167.890    68082.967    22940.813       30.146       16.110      529.881      162.965        0.095      337.262        9.116      853.366
01/07/2022  13:29:00     -644.029       27.346      -51.790      407.745      264.452      174.810   166255.978    69934.911    30558.402       34.243       13.337      644.609      148.311        0.053      337.207        9.021      853.342
01/07/2022  13:30:00     -684.218      -26.690      -36.220      456.829      239.726      169.074   208692.479    57468.575    28586.132       38.241       14.737      684.738      185.024        0.073      337.226        9.055      853.359
01/07/2022  13:31:00     -742.669      -52.894      -63.671      415.202      257.818      156.024   172392.319    66469.919    24343.393       41.076       13.160      744.550      114.033        0.023      337.194        9.001      853.378
01/07/2022  13:32:00     -416.271      -29.243       -5.381      303.263      164.794      155.053    91968.460    27157.060    24041.580       15.864        7.158      417.297      155.163        0.138      337.333        9.234      853.386
01/07/2022  13:33:00     -309.575       29.419       -7.639      374.726      171.008      131.039   140419.775    29243.693    17171.238       14.176        9.342      310.970      152.844        0.242      337.448        9.425      853.398
01/07/2022  13:34:00     -741.711       15.992      -45.917      422.967      288.804      163.944   178900.889    83407.576    26877.674       42.079       14.459      741.883      162.382        0.048      337.212        9.030      853.338
01/07/2022  13:35:00     -727.285       15.283      -48.245      302.084      246.946      134.301    91254.886    60982.231    18036.643       35.086        8.514      727.446      110.150        0.023      337.198        9.007      853.344
01/07/2022  13:36:00     -626.069       15.204      -30.084      475.279      271.863      170.108   225890.283    73909.499    28936.671       36.086       16.437      626.254      188.471        0.091      337.181        8.979      853.313
01/07/2022  13:37:00     -472.406       30.240       -7.391      326.227      191.930      115.772   106424.214    36836.972    13403.119       19.037        7.833      473.373      117.917        0.062      337.327        9.223      853.331
01/07/2022  13:38:00     -494.543      -70.210      -31.629      402.047      263.540      147.621   161641.470    69453.342    21791.937       25.165       12.644      499.502      150.441        0.091      337.354        9.267      853.316
01/07/2022  13:39:00     -653.538      -44.108      -32.430      315.985      223.482      152.686    99846.587    49944.176    23312.865       30.157        8.655      655.024      128.945        0.039      337.260        9.112      853.340
01/07/2022  13:40:00     -464.676      -33.802      -26.787      312.734      256.316      149.205    97802.652    65697.881    22262.048       20.174        9.288      465.904      144.839        0.097      337.289        9.159      853.390
01/07/2022  13:41:00     -556.496       89.164      -39.394      306.790      213.994      151.670    94119.804    45793.631    23003.920       24.102        8.146      563.594      136.076        0.058      337.232        9.064      853.419
01/07/2022  13:42:00     -373.663      -53.181       11.807      327.323      197.851      144.497   107140.231    39144.828    20879.327       15.485        8.358      377.428      161.526        0.183      337.274        9.136      853.426
01/07/2022  13:43:00     -620.573       12.780       -9.268      460.629      281.311      185.965   212178.736    79136.054    34582.874       35.557       16.295      620.704      197.469        0.101      337.106        8.852      853.389
01/07/2022  13:44:00     -641.133       10.196        4.886      518.700      275.713      195.757   269049.889    76017.756    38320.937       39.721       19.169      641.214      223.754        0.122      337.058        8.771      853.380
01/07/2022  13:45:00     -658.866       -7.951      -23.600      468.744      297.672      162.529   219721.300    88608.727    26415.658       38.467       16.737      658.914      197.050        0.089      337.039        8.742      853.333
01/07/2022  13:46:00     -590.657        2.699       -7.825      387.804      240.043      162.622   150391.615    57620.665    26445.813       29.166       11.723      590.663      182.816        0.096      337.070        8.794      853.370
01/07/2022  13:47:00     -535.537       86.980      -10.361      405.193      330.316      140.020   164181.256   109108.965    19605.530       29.363       14.645      542.555      125.530        0.054      337.174        8.968      853.368
01/07/2022  13:48:00     -710.095      -15.702      -18.152      421.616      246.700      167.538   177760.339    60861.063    28068.947       38.570       13.335      710.269      197.511        0.077      337.064        8.783      853.355
01/07/2022  13:49:00     -685.782      -66.262      -35.357      442.419      251.906      187.436   195734.297    63456.390    35132.353       38.508       14.716      688.976      211.016        0.094      337.047        8.754      853.350
01/07/2022  13:50:00     -712.822      -75.489      -37.528      492.333      250.946      202.873   242391.797    62974.078    41157.499       43.081       17.326      716.808      214.405        0.089      337.010        8.693      853.358
01/07/2022  13:51:00     -632.018       23.327      -18.845      482.500      243.955      161.087   232806.697    59514.202    25949.015       35.925       15.913      632.448      185.835        0.086      337.067        8.788      853.344
01/07/2022  13:52:00     -443.700      -87.253      -20.620      333.597      204.532      164.463   111286.915    41833.490    27048.095       19.251        9.008      452.198      163.960        0.131      337.134        8.900      853.384
01/07/2022  13:53:00     -664.540       71.020      -17.414      356.721      265.182      163.925   127250.169    70321.510    26871.276       33.566       11.222      668.324      156.024        0.055      337.068        8.790      853.379
01/07/2022  13:54:00     -907.450      -70.743      -38.599      482.240      282.245      194.922   232555.785    79662.368    37994.715       59.002       17.511      910.203      218.920        0.058      336.929        8.558      853.353
01/07/2022  13:55:00     -692.891       11.496      -39.013      431.163      247.635      183.812   185901.937    61323.083    33786.730       38.133       14.051      692.986      165.364        0.057      337.012        8.698      853.370
01/07/2022  13:56:00     -416.874       70.086       -2.695      334.149      220.292      162.305   111655.371    48528.618    26342.994       18.258        9.326      422.724      160.467        0.144      337.105        8.851      853.415
01/07/2022  13:57:00     -720.636       98.118      -28.491      417.494      261.766      158.763   174301.173    68521.377    25205.590       39.884       13.401      727.285      139.138        0.037      336.952        8.596      853.359
01/07/2022  13:58:00     -702.309        7.328      -16.470      423.291      315.926      189.072   179174.940    99808.922    35748.345       40.409       15.737      702.348      209.440        0.089      336.968        8.621      853.326
01/07/2022  13:59:00     -453.675       -1.696      -27.764      358.732      243.243      156.156   128688.899    59167.021    24384.783       20.938       10.612      453.678      156.773        0.119      337.049        8.755      853.345
01/07/2022  14:00:00     -771.158       32.634      -38.168      376.657      282.054      167.644   141870.421    79554.297    28104.396       42.332       12.476      771.848      163.737        0.045      336.960        8.610      853.320
01/07/2022  14:01:00     -548.290       -5.897      -18.245      435.345      222.022      169.779   189525.051    49293.822    28824.889       28.427       13.382      548.322      188.137        0.118      337.045        8.752      853.360
01/07/2022  14:02:00     -596.002       71.721      -20.631      344.483      269.836      165.530   118668.849    72811.660    27400.267       28.979       10.944      600.302      139.614        0.054      336.988        8.655      853.329
01/07/2022  14:03:00     -649.339       30.390      -28.492      423.588      277.446      173.480   179427.049    76976.377    30095.433       35.489       14.325      650.050      187.164        0.083      336.921        8.545      853.347
01/07/2022  14:04:00     -593.011       76.037      -34.398      373.316      224.065      157.579   139365.190    50205.193    24831.158       28.647       10.720      597.866      176.341        0.087      337.016        8.703      853.348
01/07/2022  14:05:00     -731.749      -27.755      -15.975      469.283      293.193      187.297   220226.126    85962.399    35080.312       43.881       17.063      732.275      229.878        0.099      336.872        8.463      853.326
01/07/2022  14:06:00     -631.955       67.622      -25.976      386.772      265.677      167.665   149592.872    70584.055    28111.600       32.641       12.414      635.563      188.580        0.088      336.882        8.479      853.359
01/07/2022  14:07:00     -668.921       56.057      -26.111      415.884      247.567      138.666   172959.348    61289.593    19228.137       35.233       12.674      671.265      153.325        0.052      336.928        8.556      853.389
01/07/2022  14:08:00     -663.504      188.048       -5.938      320.055      226.890      134.905   102435.383    51479.116    18199.349       32.384        8.606      689.637      136.417        0.039      336.934        8.565      853.355
01/07/2022  14:09:00     -442.745       -5.344       -8.150      325.736      245.554      141.685   106103.851    60296.679    20074.659       19.126        9.324      442.777      134.493        0.092      337.024        8.716      853.297
01/07/2022  14:10:00     -592.087       40.515      -21.026      317.340      270.373      158.912   100704.720    73101.311    25253.139       27.582        9.953      593.472      158.389        0.071      336.995        8.667      853.313
01/07/2022  14:11:00     -622.317       27.066      -18.692      331.482      199.264      150.475   109880.454    39706.145    22642.628       28.026        8.611      622.905      153.851        0.061      336.986        8.651      853.348
01/07/2022  14:12:00     -634.185       49.648      -12.111      413.027      292.726      156.746   170591.468    85688.582    24569.412       34.277       14.042      636.126      167.499        0.069      336.888        8.490      853.335
01/07/2022  14:13:00     -797.250       11.642      -23.051      430.535      245.380      176.513   185360.308    60211.315    31156.807       45.645       13.836      797.335      203.131        0.065      336.815        8.367      853.350
01/07/2022  14:14:00     -707.058       64.499      -14.696      494.557      248.443      167.905   244586.997    61724.035    28192.220       41.934       16.725      709.994      209.226        0.087      336.849        8.422      853.321
01/07/2022  14:15:00     -788.400       32.657      -14.198      411.736      273.209      159.703   169526.766    74643.016    25505.154       44.621       13.484      789.076      175.037        0.049      336.816        8.369      853.320
01/07/2022  14:16:00     -566.972      142.020      -24.199      526.736      299.014      182.334   277450.666    89409.273    33245.647       37.109       20.005      584.489      208.157        0.127      336.936        8.569      853.302
01/07/2022  14:17:00     -773.586      -15.074      -26.054      465.996      268.353      169.082   217152.572    72013.525    28588.729       45.849       15.888      773.733      172.240        0.050      336.808        8.356      853.317
01/07/2022  14:18:00     -696.309       18.808      -37.557      427.001      360.117      183.493   182329.447   129684.540    33669.607       41.608       17.284      696.563      173.299        0.062      336.803        8.347      853.291
01/07/2022  14:19:00     -410.062      -86.923      -51.531      391.691      242.951      184.891   153422.199    59025.424    34184.529       21.245       12.332      419.173      202.331        0.233      336.932        8.562      853.318
01/07/2022  14:20:00     -766.007       24.235      -46.097      490.050      259.615      188.630   240149.266    67399.843    35581.345       46.624       17.157      766.390      200.573        0.068      336.821        8.377      853.297
01/07/2022  14:21:00     -626.667      -79.555      -35.540      348.151      251.380      157.655   121208.922    63191.911    24855.142       30.474       10.463      631.697      157.330        0.062      336.878        8.474      853.314
01/07/2022  14:22:00     -795.920      -59.673      -46.008      424.929      284.696      170.493   180564.949    81051.723    29067.929       46.487       14.534      798.154      162.119        0.041      336.789        8.323      853.328
01/07/2022  14:23:00     -464.768      -41.781      -33.891      417.229      225.486      158.335   174079.766    50844.031    25069.958       23.440       12.500      466.642      160.950        0.119      336.937        8.572      853.314
01/07/2022  14:24:00     -723.532       79.578      -27.573      394.980      265.365      169.453   156009.087    70418.498    28714.379       39.282       12.757      727.895      150.555        0.043      336.919        8.541      853.335
01/07/2022  14:25:00     -726.537       37.979      -37.263      495.209      232.057      147.368   245231.549    53850.369    21717.264       42.568       16.040      727.529      161.464        0.049      336.897        8.504      853.384
01/07/2022  14:26:00     -423.964       38.267      -17.783      256.301      187.634      125.013    65690.389    35206.628    15628.200       14.900        5.826      425.687      112.442        0.070      337.002        8.679      853.420
01/07/2022  14:27:00     -443.839       25.031       -0.752      296.379      204.409      138.227    87840.589    41783.019    19106.608       17.315        7.437      444.545      136.904        0.095      337.001        8.678      853.434
01/07/2022  14:28:00     -537.422      -34.685      -17.272      382.126      272.238      151.426   146020.061    74113.450    22929.779       26.665       12.153      538.540      155.315        0.083      336.894        8.498      853.394
01/07/2022  14:29:00     -522.347       54.707      -18.646      456.510      234.915      169.738   208401.623    55185.214    28811.067       28.424       14.620      525.204      172.155        0.107      336.845        8.418      853.402
01/07/2022  14:30:00     -597.855       87.950      -24.736      403.508      266.470      149.216   162818.965    71006.078    22265.443       31.089       12.805      604.289      167.303        0.077      336.866        8.451      853.406
01/07/2022  14:31:00     -323.054       81.022      -22.886      404.706      192.752      131.891   163787.272    37153.484    17395.184       16.485       10.917      333.059      124.068        0.139      337.008        8.691      853.413
01/07/2022  14:32:00     -614.851      -23.906      -47.866      359.148      240.199      145.617   128987.577    57695.695    21204.203       29.436       10.394      615.316      163.102        0.070      336.837        8.402      853.452
01/07/2022  14:33:00     -444.064       89.957       -0.069      306.386      205.915      144.736    93872.592    42400.840    20948.475       18.122        7.861      453.084      124.561        0.076      337.008        8.688      853.455
01/07/2022  14:34:00     -390.877        7.574       10.617      376.378      229.186      144.659   141660.218    52526.438    20926.320       18.399       10.756      390.950      151.436        0.150      336.910        8.526      853.440
01/07/2022  14:35:00     -549.004      -37.863      -32.559      388.012      208.881      154.872   150552.956    43631.312    23985.438       26.099       10.908      550.308      139.669        0.064      336.826        8.384      853.413
01/07/2022  14:36:00     -615.349       47.633      -22.334      352.932      195.457      137.131   124560.820    38203.584    18804.872       28.146        9.078      617.190      139.526        0.051      336.829        8.391      853.445
01/07/2022  14:37:00     -450.474       65.768        4.024      253.788      268.471      135.272    64408.477    72076.705    18298.644       18.100        7.739      455.250      120.070        0.070      336.924        8.548      853.483
01/07/2022  14:38:00     -609.593      -19.065      -25.177      416.702      295.068      159.104   173640.819    87064.911    25314.154       32.926       14.301      609.891      140.951        0.053      336.785        8.316      853.449
01/07/2022  14:39:00     -371.444      -12.940      -12.791      311.394      185.295      155.614    96966.109    34334.299    24215.656       14.688        7.776      371.669      139.929        0.142      336.898        8.505      853.468
01/07/2022  14:40:00     -605.500      -29.705      -13.125      288.283      233.711      146.694    83107.338    54620.747    21519.073       26.344        7.962      606.228      137.331        0.051      336.813        8.364      853.453
01/07/2022  14:41:00     -405.486       63.341      -12.322      359.769      202.828      166.817   129433.766    41139.052    27827.846       18.346        9.920      410.404      182.303        0.197      336.919        8.541      853.465
01/07/2022  14:42:00     -533.985        6.813      -11.208      334.713      235.659      161.659   112033.074    55535.367    26133.778       23.947        9.685      534.028      143.942        0.073      336.795        8.334      853.481
01/07/2022  14:43:00     -373.042       12.016      -36.891      265.905      196.842      120.455    70705.298    38746.859    14509.436       13.229        6.198      373.235      100.964        0.073      336.881        8.476      853.495
01/07/2022  14:44:00     -341.058       55.676        3.729      314.912      192.035      122.909    99169.835    36877.392    15106.549       13.527        7.558      345.573      119.521        0.120      336.872        8.462      853.538
01/07/2022  14:45:00     -612.153       14.594      -45.366      332.415      235.167      146.339   110499.434    55303.490    21415.043       28.208        9.361      612.327      139.769        0.052      336.737        8.238      853.464
01/07/2022  14:46:00     -675.041       79.711      -28.026      387.425      265.465      147.052   150097.993    70471.785    21624.327       35.246       12.110      679.731      112.291        0.027      336.758        8.271      853.501
01/07/2022  14:47:00     -454.295       11.614      -30.104      290.243      208.449      133.808    84241.266    43450.869    17904.513       17.648        7.280      454.443      134.631        0.088      336.880        8.475      853.522
01/07/2022  14:48:00     -597.064      -48.278      -17.231      388.647      222.161      172.562   151046.708    49355.636    29777.484       29.460       11.509      599.013      190.533        0.101      336.807        8.353      853.498
01/07/2022  14:49:00     -808.741       70.304      -46.034      332.152      253.269      134.658   110324.847    64144.991    18132.746       42.683        9.630      811.791      124.708        0.024      336.740        8.241      853.571
01/07/2022  14:50:00     -407.033      -12.813      -51.579      407.788      192.055      121.404   166291.220    36885.163    14738.987       19.317       10.896      407.234      140.522        0.119      336.785        8.318      853.552
01/07/2022  14:51:00     -597.167      -66.581      -29.018      433.149      229.757      216.768   187617.761    52788.197    46988.398       32.459       14.370      600.868      230.532        0.147      336.731        8.228      853.564
01/07/2022  14:52:00     -584.546       13.888      -23.022      401.763      278.668      175.407   161413.306    77656.123    30767.732       30.608       13.492      584.711      194.480        0.111      336.703        8.179      853.617
01/07/2022  14:53:00     -581.056      140.647      -13.520      353.080      238.658      147.729   124665.789    56957.475    21823.951       28.048       10.172      597.835      161.212        0.073      336.720        8.208      853.599
01/07/2022  14:54:00     -470.160       16.605       -8.028      350.963      238.883      141.702   123174.953    57065.230    20079.446       21.082       10.016      470.453      124.748        0.070      336.806        8.351      853.579
01/07/2022  14:55:00     -393.294      -62.447      -36.079      351.097      192.663      150.557   123269.238    37118.889    22667.536       17.143        9.153      398.221      152.662        0.147      336.800        8.343      853.577
01/07/2022  14:56:00     -512.441       84.312      -28.080      378.718      183.906      133.356   143427.276    33821.515    17783.722       23.273        9.752      519.330      149.317        0.083      336.786        8.318      853.591
01/07/2022  14:57:00     -788.510      -57.768      -42.676      375.059      266.079      174.642   140669.280    70798.026    30499.829       43.439       12.098      790.624      162.442        0.042      336.667        8.120      853.598
01/07/2022  14:58:00     -516.634      -96.464      -45.078      373.702      229.690      166.257   139653.531    52757.550    27641.475       24.911       11.003      525.563      174.672        0.110      336.743        8.246      853.574
01/07/2022  14:59:00     -408.109       63.669        6.509      364.603      208.013      139.536   132935.547    43269.294    19470.227       18.313        9.784      413.045      138.207        0.112      336.794        8.333      853.638
01/07/2022  15:00:00     -510.591      -52.576      -15.270      292.936      181.044      116.953    85811.542    32777.017    13677.893       19.796        6.613      513.291      117.094        0.052      336.782        8.312      853.685
01/07/2022  15:01:00     -340.730       32.967      -31.313      275.091      158.397      124.857    75674.820    25089.569    15589.228       11.724        5.818      342.321       91.353        0.071      336.845        8.418      853.673
01/07/2022  15:02:00     -457.131       45.940      -25.943      274.802      177.741      121.519    75516.103    31591.872    14766.748       16.679        6.094      459.433      141.081        0.094      336.857        8.438      853.728
01/07/2022  15:03:00     -371.433       17.430       -0.434      277.824      139.129      101.858    77186.167    19356.943    10375.077       12.257        5.346      371.842      115.895        0.097      336.918        8.538      853.739
01/07/2022  15:04:00     -346.065      101.311        9.372      283.429      170.521      124.093    80331.939    29077.423    15399.154       12.744        6.240      360.589       97.123        0.073      336.820        8.376      853.743
01/07/2022  15:05:00     -498.174       32.774      -28.230      247.463      140.466      103.746    61238.154    19730.675    10763.201       17.087        4.587      499.251      114.896        0.053      336.752        8.262      853.780
01/07/2022  15:06:00     -404.675        3.130      -29.909      249.168      165.179      112.561    62084.700    27284.220    12670.033       13.333        5.102      404.687      116.160        0.082      336.745        8.251      853.779
01/07/2022  15:07:00     -417.575       -2.811       -3.476      266.176      179.363      111.912    70849.479    32170.998    12524.184       14.495        5.777      417.585      120.306        0.083      336.784        8.316      853.840
01/07/2022  15:08:00     -351.457       30.442      -19.086      180.008      131.411       94.434    32402.990    17268.841     8917.791        9.169        2.929      352.773       83.180        0.056      336.808        8.354      853.804
01/07/2022  15:09:00     -430.302       89.100      -26.773      333.564      202.535      127.237   111264.782    41020.595    16189.213       18.111        8.424      439.430      140.107        0.102      336.750        8.257      853.809
01/07/2022  15:10:00     -305.102      108.337        8.324      257.652      171.110      114.519    66384.473    29278.474    13114.575       10.682        5.439      323.766      111.869        0.119      336.798        8.338      853.832
01/07/2022  15:11:00     -404.534       95.894       -6.292      263.510      161.206      102.002    69437.572    25987.525    10404.416       13.934        5.291      415.744       99.035        0.057      336.714        8.198      853.859
01/07/2022  15:12:00     -439.490       54.348      -36.232      302.018      222.597      118.975    91215.102    49549.632    14155.159       17.614        7.746      442.837       97.923        0.049      336.565        7.950      853.839
01/07/2022  15:13:00     -500.343       70.121      -14.519      295.199      196.624      116.084    87142.587    38661.111    13475.462       19.735        6.964      505.233      108.951        0.047      336.568        7.956      853.910
01/07/2022  15:14:00     -688.802      -23.520       -9.491      364.265      176.386      144.013   132688.811    31111.882    20739.730       32.978        9.227      689.203      173.309        0.063      336.492        7.827      853.910
01/07/2022  15:15:00     -471.783       35.115      -37.261      268.001      188.885      107.729    71824.791    35677.425    11605.609       17.213        5.955      473.088      101.758        0.046      336.563        7.946      853.918
01/07/2022  15:16:00     -546.977       26.142      -31.816      354.829      232.150      101.723   125903.650    53893.638    10347.516       24.548        9.507      547.601      117.027        0.046      336.543        7.913      853.911
01/07/2022  15:17:00     -571.281      -46.353      -14.123      383.895      246.861      176.494   147375.133    60940.508    31150.272       28.404       11.973      573.158      182.755        0.102      336.492        7.825      853.866
01/07/2022  15:18:00     -661.343      -94.573      -32.385      308.608      232.231      144.082    95238.892    53931.237    20759.697       30.862        8.496      668.070      150.104        0.050      336.393        7.660      853.831
01/07/2022  15:19:00     -323.891      -19.994      -28.746      308.324      153.587       97.121    95063.901    23588.934     9432.463       11.708        6.404      324.507      114.003        0.123      336.630        8.059      853.885
01/07/2022  15:20:00     -362.942      166.541      -38.005      223.250      217.014      101.359    49840.350    47095.084    10273.654       13.404        5.360      399.328       94.993        0.057      336.659        8.106      853.910
01/07/2022  15:21:00     -384.251      129.263      -12.744      273.726      183.951      118.552    74925.668    33838.041    14054.554       14.365        6.141      405.411      109.571        0.073      336.560        7.942      853.924
01/07/2022  15:22:00     -509.934       24.745        1.374      270.407      170.277      111.979    73119.930    28994.288    12539.238       18.763        5.733      510.534      120.546        0.056      336.424        7.712      853.932
01/07/2022  15:23:00     -403.046      129.538        1.780      243.373      198.688      109.077    59230.592    39476.758    11897.728       14.490        5.530      423.351      108.219        0.065      336.474        7.797      853.956
01/07/2022  15:24:00     -450.978       -0.375      -27.357      240.002      136.888      100.005    57601.102    18738.230    10000.997       14.522        4.317      450.978       76.210        0.029      336.430        7.722      854.002
01/07/2022  15:25:00     -181.070       34.194       -9.569      240.097      125.640       93.106    57646.397    15785.396     8668.717        5.806        4.105      184.270       94.819        0.265      336.567        7.955      853.992
01/07/2022  15:26:00     -401.498      144.513      -42.409      285.083      202.609      107.084    81272.314    41050.439    11466.904       15.881        6.689      426.714       99.854        0.055      336.551        7.927      854.009
01/07/2022  15:27:00     -492.508       49.728      -22.569      229.097      152.361      108.864    52485.322    23213.775    11851.345       16.653        4.378      495.012      110.880        0.050      336.500        7.840      854.047
01/07/2022  15:28:00     -577.046      115.323       -1.372      248.221      155.713      110.016    61613.772    24246.564    12103.567       22.211        4.898      588.457       78.569        0.018      336.409        7.686      854.051
01/07/2022  15:29:00     -414.991       82.855       13.110      227.405      192.037      103.166    51713.200    36878.286    10643.173       13.923        4.962      423.182       88.072        0.043      336.551        7.924      854.082
01/07/2022  15:30:00     -347.872      103.858        7.554      290.961      179.934      113.783    84658.224    32376.219    12946.474       13.090        6.499      363.044       74.553        0.042      336.475        7.799      854.076
01/07/2022  15:31:00     -396.454       87.641       -2.829      251.340      183.355      117.138    63171.740    33619.205    13721.225       13.767        5.526      406.026      120.385        0.088      336.435        7.731      854.129
01/07/2022  15:32:00     -362.544       60.964      -23.832      323.129      189.660      134.479   104412.592    35971.072    18084.597       14.707        7.923      367.634      146.703        0.159      336.456        7.765      854.186
01/07/2022  15:33:00     -508.695       90.193       16.059      374.816      255.642      170.953   140487.225    65352.779    29225.098       25.107       11.753      516.629      175.747        0.116      336.299        7.503      854.101
01/07/2022  15:34:00     -473.528       50.860      -14.918      335.566      188.111      117.293   112604.316    35385.678    13757.585       19.436        8.087      476.252      122.268        0.066      336.326        7.549      854.115
01/07/2022  15:35:00     -472.785      -13.073      -16.068      273.774      185.087      129.802    74952.288    34257.134    16848.439       17.498        6.303      472.966      119.385        0.064      336.308        7.518      854.186
01/07/2022  15:36:00     -583.384      -25.418      -14.358      285.993      179.039      137.607    81791.814    32055.094    18935.678       23.696        6.639      583.937      145.806        0.062      336.281        7.475      854.209
01/07/2022  15:37:00     -281.454       -9.890       12.187      274.388      145.473      115.960    75288.534    21162.490    13446.768        9.466        5.495      281.627      126.571        0.202      336.433        7.728      854.200
01/07/2022  15:38:00     -613.082       11.062      -24.256      304.318      166.861      114.843    92609.614    27842.675    13189.028       25.509        6.682      613.182      132.567        0.047      336.285        7.479      854.242
01/07/2022  15:39:00     -179.539       45.699      -21.514      185.892      129.105       91.816    34555.893    16668.040     8430.229        4.721        2.983      185.264       92.762        0.251      336.513        7.863      854.270
01/07/2022  15:40:00     -233.364      -44.086      -10.704      171.298      108.922       96.641    29343.114    11863.974     9339.408        5.352        2.527      237.492       97.889        0.170      336.456        7.767      854.254
01/07/2022  15:41:00     -233.650       -5.754       -2.415      219.877      128.822      100.532    48345.681    16595.022    10106.611        6.483        3.752      233.721       96.931        0.172      336.534        7.898      854.276
01/07/2022  15:42:00     -390.366      -32.096      -14.767      286.809      185.505      120.384    82259.169    34411.950    14492.228       14.237        6.558      391.684      141.003        0.130      336.348        7.586      854.274
01/07/2022  15:43:00     -212.262      -28.426       10.127      269.558      144.620      125.888    72661.691    20914.827    15847.766        7.767        5.471      214.157      130.035        0.369      336.414        7.697      854.287
01/07/2022  15:44:00     -370.200       29.462      -19.337      247.461      150.932      106.195    61236.740    22780.414    11277.391       11.677        4.765      371.370      104.226        0.079      336.355        7.600      854.319
01/07/2022  15:45:00     -636.888      -39.770       -6.839      405.612      208.697      154.517   164521.151    43554.575    23875.611       31.956       11.598      638.129      173.073        0.074      336.209        7.353      854.283
01/07/2022  15:46:00     -401.253      -23.144      -24.280      406.332      202.611      166.044   165105.576    41051.159    27570.608       19.789       11.686      401.920      179.210        0.199      336.212        7.358      854.283
01/07/2022  15:47:00     -420.807      -32.187      -32.242      352.705      209.747      152.438   124401.144    43993.866    23237.440       18.536        9.582      422.036      148.510        0.124      336.203        7.343      854.303
01/07/2022  15:48:00     -404.974      -20.777       -8.648      300.394      188.515      129.245    90236.290    35537.786    16704.349       15.347        7.124      405.507      138.366        0.116      336.226        7.383      854.318
01/07/2022  15:49:00     -592.967       24.069      -31.630      246.113      187.596      102.133    60571.694    35192.373    10431.116       22.967        5.310      593.455       84.470        0.020      336.165        7.280      854.334
01/07/2022  15:50:00     -423.978       39.046      -10.542      285.824      161.308      111.452    81695.509    26020.411    12421.575       15.074        6.007      425.772       96.802        0.052      336.202        7.343      854.336
01/07/2022  15:51:00     -615.174       39.650      -28.055      292.621      133.202       91.259    85626.880    17742.762     8328.247       24.623        5.585      616.451       90.253        0.021      336.125        7.214      854.361
01/07/2022  15:52:00     -472.942        7.917      -27.426      179.189      146.547       93.891    32108.823    21476.105     8815.446       14.343        3.120      473.009       79.988        0.029      336.157        7.267      854.369
01/07/2022  15:53:00     -342.331       37.859        1.791      280.255      195.190      127.206    78542.685    38098.995    16181.317       12.570        6.641      344.419      128.781        0.140      336.143        7.245      854.401
01/07/2022  15:54:00     -428.526        1.167      -11.997      263.791      183.507      120.010    69585.603    33674.911    14402.432       15.070        5.883      428.527      130.047        0.092      336.090        7.155      854.415
01/07/2022  15:55:00     -458.219      -39.938      -28.583      279.488      170.122      135.653    78113.566    28941.665    18401.662       16.889        6.273      459.956      123.561        0.072      336.075        7.129      854.427
01/07/2022  15:56:00     -525.434       -0.641       -7.437      276.228      151.753      134.903    76301.777    23029.046    18198.721       19.681        5.876      525.435      140.330        0.071      336.037        7.066      854.443
01/07/2022  15:57:00     -563.751       11.702      -22.184      260.817      195.288      123.607    68025.323    38137.319    15278.783       21.992        6.072      563.872      129.410        0.053      336.015        7.031      854.467
01/07/2022  15:58:00     -279.768       17.924       -3.143      318.060      153.946      124.683   101162.241    23699.490    15545.762       10.948        7.020      280.341      103.342        0.136      336.134        7.229      854.505
01/07/2022  15:59:00     -396.293       44.816        0.069      247.732      170.789      113.615    61370.932    29168.903    12908.405       13.123        5.172      398.819      112.625        0.080      336.051        7.091      854.504
01/07/2022  16:00:00     -419.636       29.972      -13.581      172.017      118.259       98.444    29589.976    13985.081     9691.139       11.521        2.663      420.705       68.922        0.027      335.999        7.003      854.523
01/07/2022  16:01:00     -339.838      -70.078       -6.344      277.324      127.790      112.233    76908.528    16330.359    12596.210       11.312        5.292      346.988      120.755        0.121      335.986        6.981      854.539
01/07/2022  16:02:00     -381.261       25.025      -18.278      238.108      149.838       99.662    56695.267    22451.491     9932.457       11.768        4.454      382.082       99.303        0.068      336.006        7.017      854.593
01/07/2022  16:03:00     -306.702       -8.600      -15.024      239.614      125.559       99.910    57414.982    15765.009     9982.078        8.875        4.158      306.822      101.128        0.109      335.953        6.927      854.593
01/07/2022  16:04:00     -225.175       38.842       14.412      243.856      198.680      121.109    59465.588    39473.709    14667.358        8.299        5.680      228.500      106.221        0.216      335.909        6.855      854.624
01/07/2022  16:05:00     -495.274       10.082      -20.523      264.681      188.143      114.476    70056.144    35397.666    13104.841       18.217        5.928      495.377      116.667        0.055      335.803        6.678      854.573
01/07/2022  16:06:00     -462.323       -6.908      -18.334      208.120      150.382      113.338    43313.980    22614.603    12845.541       14.644        3.939      462.374       91.217        0.039      335.776        6.630      854.632
01/07/2022  16:07:00     -482.316      -18.325      -22.929      292.470      210.904      127.148    85538.775    44480.582    16166.642       18.981        7.309      482.664      116.948        0.059      335.677        6.467      854.599
01/07/2022  16:08:00     -326.629      -44.552        4.335      325.839      176.778      141.006   106170.805    31250.499    19882.593       13.297        7.865      329.654      146.959        0.199      335.666        6.448      854.598
01/07/2022  16:09:00     -536.196       53.439      -40.558      289.348      256.764      135.021    83721.998    65927.612    18230.695       22.991        8.394      538.853      128.827        0.057      335.584        6.311      854.599
01/07/2022  16:10:00     -414.201      -16.349        6.686      364.914      212.622      139.686   133161.999    45208.145    19512.143       18.484        9.894      414.524      161.853        0.152      335.538        6.236      854.597
01/07/2022  16:11:00     -426.487       52.888      -18.534      287.486      182.658      125.029    82648.376    33364.102    15632.159       15.831        6.582      429.754      132.259        0.095      335.520        6.205      854.600
01/07/2022  16:12:00     -458.319        7.892      -11.699      324.798      185.146      142.907   105493.710    34278.866    20422.329       18.520        8.010      458.387      148.604        0.105      335.465        6.113      854.553
01/07/2022  16:13:00     -370.499      -22.436      -16.653      363.111      194.262      157.097   131849.431    37737.850    24679.569       16.612        9.713      371.178      157.758        0.181      335.455        6.096      854.521
01/07/2022  16:14:00     -506.543       55.724      -25.783      343.680      199.075      123.009   118116.082    39630.868    15131.314       21.659        8.644      509.599      121.357        0.057      335.448        6.086      854.534
01/07/2022  16:15:00     -628.434      -61.858      -21.386      439.436      232.999      188.443   193103.767    54288.329    35510.879       34.101       14.145      631.471      224.704        0.127      335.420        6.039      854.519
01/07/2022  16:16:00     -676.891      -41.638      -28.705      353.193      210.367      168.711   124745.292    44254.333    28463.289       32.906        9.873      678.171      159.961        0.056      335.409        6.021      854.517
01/07/2022  16:17:00     -606.781       -5.900      -49.451      304.334      209.336      127.005    92619.041    43821.625    16130.318       26.159        7.629      606.809      112.736        0.035      335.437        6.067      854.509
01/07/2022  16:18:00     -405.501       19.829       18.003      378.204      193.589      137.464   143038.600    37476.561    18896.305       18.224        9.971      405.986      156.179        0.148      335.455        6.098      854.534
01/07/2022  16:19:00     -903.740      -17.650      -27.969      340.693      221.045      153.137   116071.469    48861.102    23450.796       50.308        9.419      903.912      159.383        0.031      335.360        5.939      854.514
01/07/2022  16:20:00     -452.299      -50.288       -7.181      346.397      165.228      128.228   119990.987    27300.358    16442.311       18.541        8.187      455.086      124.898        0.075      335.411        6.023      854.548
01/07/2022  16:21:00     -572.826      -33.710      -39.356      372.340      178.617      142.671   138637.128    31904.174    20354.998       26.082        9.545      573.817      147.765        0.066      335.384        5.978      854.522
01/07/2022  16:22:00     -723.747       -3.421      -44.368      372.456      208.543      149.657   138723.474    43490.250    22397.072       36.516       10.231      723.755      134.848        0.035      335.351        5.925      854.547
01/07/2022  16:23:00     -634.481       -3.738      -31.730      299.145      203.478      105.629    89488.022    41403.354    11157.543       27.279        7.102      634.492      101.104        0.025      335.356        5.931      854.556
01/07/2022  16:24:00     -604.140      -11.256      -13.677      344.807      214.047      139.186   118891.840    45816.206    19372.681       27.466        9.204      604.244      158.470        0.069      335.345        5.914      854.547
01/07/2022  16:25:00     -474.895      -16.921      -17.798      288.112      210.451      129.098    83008.316    44289.552    16666.292       18.502        7.198      475.196      133.833        0.079      335.348        5.918      854.583
01/07/2022  16:26:00     -428.978       45.577      -18.285      342.120      203.111      143.825   117045.966    41254.018    20685.756       18.268        8.949      431.392      143.051        0.110      335.322        5.875      854.566
01/07/2022  16:27:00     -604.022      -43.709      -48.504      397.670      225.603      140.922   158141.245    50896.657    19859.027       29.896       11.445      605.601      130.888        0.047      335.284        5.813      854.551
01/07/2022  16:28:00     -758.809      -14.349      -23.078      351.099      271.316      166.161   123270.434    73612.508    27609.434       40.047       11.225      758.944      157.715        0.043      335.231        5.725      854.530
01/07/2022  16:29:00     -644.535       18.600      -23.811      356.449      240.040      142.319   127055.959    57619.002    20254.790       31.060       10.246      644.803      148.466        0.053      335.222        5.710      854.524
01/07/2022  16:30:00     -458.307       20.762        1.080      352.136      228.175      160.331   123999.467    52063.990    25706.156       20.609       10.088      458.777      179.300        0.153      335.236        5.732      854.516
01/07/2022  16:31:00     -745.150       34.471      -20.515      318.986      201.762      139.219   101751.891    40707.792    19381.922       35.932        8.092      745.947      137.276        0.034      335.186        5.650      854.517
01/07/2022  16:32:00     -741.183      -34.696      -20.909      433.934      239.029      179.933   188298.964    57134.785    32375.897       41.435       13.890      741.995      215.463        0.084      335.163        5.613      854.510
01/07/2022  16:33:00     -492.539       22.177      -29.873      401.558      227.520      154.092   161248.860    51765.576    23744.318       24.033       11.838      493.038      175.959        0.127      335.185        5.648      854.522
01/07/2022  16:34:00     -567.889        1.343      -14.538      444.761      233.859      169.723   197812.638    54689.901    28805.872       30.196       14.065      567.891      188.988        0.111      335.153        5.596      854.491
01/07/2022  16:35:00     -620.572      -21.905      -27.601      484.356      224.768      173.961   234600.770    50520.629    30262.430       35.081       15.769      620.958      215.958        0.121      335.102        5.512      854.451
01/07/2022  16:36:00     -523.299       68.396       -7.593      369.545      190.930      138.607   136563.378    36454.172    19211.864       23.537        9.611      527.750      144.373        0.075      335.107        5.520      854.461
01/07/2022  16:37:00     -498.915       18.422      -19.797      347.861      222.608      143.438   121007.255    49554.101    20574.495       22.036        9.557      499.255      152.110        0.093      335.088        5.489      854.463
01/07/2022  16:38:00     -471.895      -17.053      -25.325      348.151      198.893      145.093   121208.965    39558.540    21051.928       20.268        9.091      472.203      139.837        0.088      335.078        5.473      854.419
01/07/2022  16:39:00     -512.271        6.245      -11.611      297.713      194.808      126.398    88633.118    37950.275    15976.497       20.255        7.128      512.309      130.298        0.065      335.051        5.426      854.401
01/07/2022  16:40:00     -400.126      -30.089       -8.866      330.868      192.723      151.204   109473.306    37142.346    22862.613       16.525        8.474      401.256      165.082        0.169      335.025        5.384      854.367
01/07/2022  16:41:00     -468.442       14.278      -39.331      399.916      195.699      164.184   159932.915    38297.967    26956.432       22.315       11.259      468.659      171.394        0.134      334.991        5.326      854.403
01/07/2022  16:42:00     -444.265       -4.975      -12.136      438.263      203.521      163.935   192074.818    41420.874    26874.621       22.891       13.019      444.292      187.473        0.178      334.994        5.332      854.392
01/07/2022  16:43:00     -482.322       13.722      -12.526      433.227      209.402      144.987   187685.653    43849.143    21021.241       24.272       12.628      482.517      167.493        0.120      334.996        5.335      854.419
01/07/2022  16:44:00     -773.940       -9.884      -59.839      323.112      243.549      142.399   104401.216    59316.333    20277.398       39.329        9.200      774.003      142.692        0.034      334.979        5.305      854.399
01/07/2022  16:45:00     -594.909       35.002      -26.864      316.785      201.141      127.768   100352.865    40457.821    16324.675       25.647        7.857      595.938      150.778        0.064      335.025        5.383      854.401
01/07/2022  16:46:00     -796.652      -49.624      -36.566      308.084      247.962      137.376    94915.523    61485.396    18872.038       40.683        8.764      798.196      117.680        0.022      335.030        5.392      854.348
01/07/2022  16:47:00     -811.184        0.921      -48.285      361.344      193.986      127.533   130569.815    37630.435    16264.710       42.237        9.223      811.185      136.422        0.028      335.004        5.348      854.351
01/07/2022  16:48:00     -545.201      -14.501      -29.554      365.168      201.255      138.972   133347.523    40503.665    19313.163       24.571        9.658      545.394      157.694        0.084      335.017        5.369      854.324
01/07/2022  16:49:00     -559.732      -40.068      -40.034      332.250      215.154      136.952   110390.394    46291.055    18755.841       24.594        8.772      561.164      125.053        0.050      335.047        5.420      854.291
01/07/2022  16:50:00     -647.060       39.216      -29.142      260.217      198.123      127.894    67712.798    39252.547    16356.812       27.218        6.166      648.248      118.620        0.033      335.030        5.392      854.264
01/07/2022  16:51:00     -693.456       52.950       -0.643      339.738      210.963      141.144   115421.638    44505.196    19921.636       33.173        8.992      695.475      123.624        0.032      335.000        5.342      854.233
01/07/2022  16:52:00     -706.432      -44.370      -49.247      275.780      212.900      125.400    76054.713    45326.423    15725.250       32.025        6.855      707.824      110.359        0.024      334.996        5.334      854.220
01/07/2022  16:53:00     -633.807        8.559      -40.942      231.503      200.224      125.533    53593.492    40089.614    15758.465       25.643        5.472      633.864      116.932        0.034      334.971        5.294      854.228
01/07/2022  16:54:00     -614.454        9.922      -22.538      314.259      201.470      135.697    98758.456    40590.213    18413.742       26.793        7.888      614.534      118.619        0.037      334.943        5.247      854.190
01/07/2022  16:55:00     -276.164      -31.295      -17.053      285.371      201.085      111.402    81436.527    40435.274    12410.500       10.589        6.714      277.932      112.620        0.164      334.973        5.297      854.201
01/07/2022  16:56:00     -676.995       -3.207      -37.477      412.206      224.512      151.672   169913.987    50405.706    23004.516       35.149       12.166      677.003      162.353        0.058      334.966        5.286      854.210
01/07/2022  16:57:00     -632.788      -29.830      -35.631      315.968      222.718      144.632    99835.866    49603.234    20918.360       28.644        8.518      633.491      138.764        0.048      334.988        5.322      854.238
01/07/2022  16:58:00     -363.516      -42.113      -24.774      369.169      214.585      147.249   136285.647    46046.563    21682.241       16.924       10.201      365.947      148.659        0.165      335.018        5.372      854.263
01/07/2022  16:59:00     -513.168       92.754      -23.319      311.161      229.521      155.419    96821.234    52679.794    24155.130       22.304        8.683      521.483      123.910        0.056      335.045        5.417      854.267
01/07/2022  17:00:00     -649.044      -47.702      -39.829      378.133      243.548      164.728   142984.902    59315.802    27135.362       32.724       11.472      650.794      144.483        0.049      335.013        5.363      854.281
01/07/2022  17:01:00     -815.481      -22.384      -41.361      382.038      223.400      174.484   145953.224    49907.434    30444.725       44.672       11.315      815.788      182.352        0.050      334.997        5.335      854.293
01/07/2022  17:02:00     -449.425       -7.235        1.547      419.279      194.735      119.969   175794.646    37921.666    14392.617       21.503       11.405      449.483      139.575        0.096      335.028        5.389      854.323
01/07/2022  17:03:00     -368.598       -1.170      -10.084      281.603      196.065      122.522    79300.408    38441.334    15011.705       13.434        6.638      368.600      134.835        0.134      335.016        5.369      854.392
01/07/2022  17:04:00     -455.456      117.055       -5.356      313.759      189.098      116.953    98444.922    35758.228    13677.988       18.450        7.394      470.258      132.634        0.080      335.032        5.395      854.413
01/07/2022  17:05:00     -442.510       23.058      -34.361      262.061      224.266      140.422    68676.069    50295.120    19718.220       16.808        6.934      443.111      138.117        0.097      335.050        5.426      854.456
01/07/2022  17:06:00     -465.525       21.669        0.998      318.437      172.106      151.339   101401.858    29620.493    22903.543       18.553        7.696      466.030      154.465        0.110      335.049        5.423      854.511
01/07/2022  17:07:00     -593.354      -17.367      -46.583      241.324      159.398      116.945    58237.414    25407.841    13676.152       22.591        4.866      593.608      119.069        0.040      335.042        5.410      854.577
01/07/2022  17:08:00     -332.436      -56.705      -27.317      294.705      153.846      137.404    86850.869    23668.449    18879.910       12.191        6.470      337.237      148.145        0.193      335.062        5.445      854.585
01/07/2022  17:09:00     -421.644      -32.586      -20.358      333.644      184.258      131.816   111318.097    33950.885    17375.402       17.092        8.132      422.901      138.373        0.107      335.044        5.414      854.567
01/07/2022  17:10:00     -512.753      115.232      -29.909      290.981      194.675      104.102    84669.782    37898.202    10837.264       20.522        6.670      525.542      106.938        0.041      335.066        5.451      854.549
01/07/2022  17:11:00     -453.276      141.514        9.558      275.388      223.515      134.498    75838.441    49959.146    18089.603       18.471        7.194      474.853      124.567        0.069      335.083        5.480      854.589
01/07/2022  17:12:00     -730.082       43.100      -26.139      430.413      229.455      124.402   185255.576    52649.409    15475.959       39.442       12.669      731.353      137.693        0.035      335.097        5.504      854.621
01/07/2022  17:13:00     -398.173      162.136       -4.667      307.961      202.749      115.770    94839.759    41106.991    13402.776       16.707        7.467      429.919      125.526        0.085      335.134        5.565      854.620
01/07/2022  17:14:00     -495.599      114.647      -35.994      241.987      182.093      104.965    58557.879    33157.944    11017.691       18.138        5.137      508.686       82.203        0.026      335.121        5.543      854.648
01/07/2022  17:15:00     -356.045      124.997       -6.818      309.788      202.711      102.474    95968.659    41091.715    10500.831       14.497        7.378      377.349      117.842        0.098      335.088        5.487      854.650
01/07/2022  17:16:00     -416.224       48.429       -6.237      357.727      213.146      145.407   127968.319    45431.362    21143.097       18.505        9.727      419.032      137.519        0.108      335.072        5.463      854.642
01/07/2022  17:17:00     -427.633      110.736      -30.543      223.068      215.774      117.414    49759.129    46558.391    13786.127       15.306        5.505      441.738       91.449        0.043      335.061        5.445      854.650
01/07/2022  17:18:00     -117.088        4.885        8.144      248.463      153.001       96.164    61733.623    23409.253     9247.604        5.408        4.720      117.190      107.490        0.841      335.074        5.466      854.621
01/07/2022  17:19:00     -388.289       59.166      -12.804      261.527      187.609      115.262    68396.127    35197.139    13285.265       13.563        5.844      392.771       99.856        0.065      335.065        5.450      854.608
01/07/2022  17:20:00     -428.710       59.774       -0.366      394.670      200.212      141.978   155764.362    40084.681    20157.838       20.165       10.800      432.857      156.103        0.130      335.033        5.397      854.590
01/07/2022  17:21:00     -411.869       74.179      -19.489      338.205      193.885      131.612   114382.516    37591.448    17321.783       17.238        8.465      418.496      123.381        0.087      335.060        5.441      854.608
01/07/2022  17:22:00     -331.824      -37.424      -38.285      351.297      202.320      138.080   123409.686    40933.334    19066.122       14.816        9.170      333.928      154.600        0.214      335.035        5.401      854.606
01/07/2022  17:23:00     -153.620       36.121       17.800      254.808      166.579      122.032    64926.938    27748.610    14891.863        6.637        5.378      157.809      118.415        0.563      335.033        5.396      854.635
01/07/2022  17:24:00     -490.627       -1.368      -56.131      305.094      152.155      121.572    93082.230    23151.119    14779.794       18.742        6.551      490.629      137.753        0.079      334.995        5.334      854.637
01/07/2022  17:25:00     -451.916       61.272        3.548      408.033      215.506      145.882   166490.736    46442.721    21281.669       22.106       11.711      456.051      172.401        0.143      334.954        5.266      854.580
01/07/2022  17:26:00     -464.097       52.006       -1.382      382.752      218.457      155.576   146499.270    47723.405    24203.979       21.822       10.921      467.002      151.859        0.106      334.923        5.214      854.577
01/07/2022  17:27:00     -531.016       22.837      -27.731      345.568      218.251      131.500   119417.429    47633.705    17292.376       23.377        9.217      531.507      134.201        0.064      334.930        5.226      854.555
01/07/2022  17:28:00     -421.008       56.903      -25.041      324.702      230.995      144.088   105431.273    53358.824    20761.478       18.030        8.978      424.836      152.487        0.129      334.928        5.222      854.536
01/07/2022  17:29:00     -439.889       24.764        5.124      285.118      228.392      137.739    81292.212    52162.711    18972.115       17.326        7.621      440.585      141.839        0.104      334.931        5.227      854.553
01/07/2022  17:30:00     -840.409      -69.548      -42.543      395.308      262.555      189.000   156268.211    68935.148    35720.903       48.688       13.046      843.282      201.508        0.057      334.878        5.138      854.538
01/07/2022  17:31:00     -670.411      -24.108      -38.812      378.904      230.608      186.648   143568.568    53180.197    34837.390       34.152       11.579      670.844      171.185        0.065      334.918        5.205      854.594
01/07/2022  17:32:00     -685.790     -102.366      -47.943      328.282      204.090      161.216   107768.877    41652.763    25990.591       32.922        8.771      693.387      191.584        0.076      334.935        5.234      854.615
01/07/2022  17:33:00     -487.628       86.372        8.786      411.725      237.693      173.613   169517.530    56498.054    30141.335       25.069       12.808      495.218      187.483        0.143      334.928        5.221      854.689
01/07/2022  17:34:00     -454.011       48.819      -40.001      284.543      198.745      131.631    80964.633    39499.632    17326.661       17.392        6.890      456.628      112.339        0.061      334.949        5.255      854.743
01/07/2022  17:35:00     -332.289       43.445      -14.391      286.383      172.917      112.976    82015.202    29900.430    12763.533       11.857        6.234      335.117      130.884        0.153      334.920        5.209      854.772
01/07/2022  17:36:00     -450.234      -59.668      -43.977      314.582      197.120      130.184    98961.822    38856.301    16947.914       18.146        7.738      454.170      120.204        0.070      334.911        5.194      854.776
01/07/2022  17:37:00     -585.186      -14.584      -15.589      347.350      188.150      137.683   120651.835    35400.453    18956.640       25.892        8.750      585.367      157.261        0.072      334.897        5.169      854.756
01/07/2022  17:38:00     -656.784      170.226      -16.130      344.865      225.466      150.205   118931.666    50834.935    22561.491       32.643        9.616      678.485      160.202        0.056      334.903        5.181      854.752
01/07/2022  17:39:00     -426.960       24.900      -27.344      324.444      258.561      149.304   105264.171    66853.771    22291.634       18.900        9.720      427.686      154.847        0.131      334.950        5.259      854.724
01/07/2022  17:40:00     -368.012      -44.995      -20.566      328.929      170.662      156.331   108194.044    29125.351    24439.391       14.979        8.088      370.752      162.853        0.193      334.919        5.207      854.703
01/07/2022  17:41:00     -403.942      -35.920      -18.974      273.447      177.953      128.857    74773.482    31667.424    16604.030       14.391        6.152      405.536      140.310        0.120      334.907        5.187      854.687
01/07/2022  17:42:00     -414.001       14.041      -23.453      372.382      225.052      164.791   138668.204    50648.258    27156.228       19.427       10.824      414.239      173.367        0.175      334.894        5.165      854.662
01/07/2022  17:43:00     -431.859        4.356        1.957      387.936      185.452      118.851   150494.200    34392.358    14125.570       19.273        9.951      431.880      134.798        0.097      334.909        5.189      854.646
01/07/2022  17:44:00     -539.775       -4.267      -50.403      305.185      189.327      128.420    93137.717    35844.898    16491.744       21.967        7.274      539.792      124.387        0.053      334.961        5.276      854.644
01/07/2022  17:45:00     -564.454       22.917       -2.153      373.854      175.251      143.826   139766.971    30712.798    20685.955       25.512        9.558      564.919      138.872        0.060      334.961        5.278      854.619
01/07/2022  17:46:00     -386.930      -33.048      -14.629      361.607      176.486      153.340   130759.564    31147.445    23513.204       16.819        9.271      388.339      154.200        0.158      334.958        5.272      854.667
01/07/2022  17:47:00     -386.096       22.854      -13.367      310.847      188.448      135.816    96626.077    35512.528    18445.908       15.015        7.529      386.772      150.552        0.152      334.970        5.292      854.699
01/07/2022  17:48:00     -311.156       72.979       -0.356      376.734      184.793      130.176   141928.497    34148.453    16945.716       14.755        9.651      319.600      133.901        0.176      334.971        5.294      854.723
01/07/2022  17:49:00      -89.192       15.602       -0.895      200.433      131.709      118.550    40173.534    17347.230    14054.063        3.987        3.579       90.547       90.891        1.008      334.967        5.286      854.768
01/07/2022  17:50:00     -283.637       46.666      -30.790      221.624      147.741       89.284    49117.377    21827.487     7971.644        8.123        3.946      287.450       62.198        0.047      335.006        5.351      854.807
01/07/2022  17:51:00     -223.758       12.251      -16.809      225.353      127.091       88.810    50784.178    16151.997     7887.284        6.265        3.741      224.093       92.991        0.172      335.011        5.362      854.858
01/07/2022  17:52:00     -275.342       -3.400      -15.123      230.293      147.725       90.337    53034.862    21822.619     8160.701        7.952        4.151      275.363       90.658        0.108      334.998        5.339      854.951
01/07/2022  17:53:00      -60.341       49.780        9.709       87.544       92.842       52.938     7663.876     8619.704     2802.420        1.265        0.954       78.224       32.839        0.176      335.042        5.415      855.064
01/07/2022  17:54:00     -171.392       45.746      -26.668      195.045      113.610       74.595    38042.646    12907.345     5564.425        4.434        2.826      177.392       67.834        0.146      335.038        5.407      855.197
01/07/2022  17:55:00     -273.779      -11.801      -18.573      291.240      156.442       79.509    84820.806    24474.171     6321.759        9.551        5.781      274.033      103.150        0.142      334.995        5.335      855.276
01/07/2022  17:56:00      -24.967      -14.489        3.653       65.140       68.657       30.985     4243.215     4713.735      960.060        0.538        0.496       28.867       15.017        0.271      334.992        5.332      855.417
01/07/2022  17:57:00     -200.195       81.753       -8.994      118.386      106.480       67.341    14015.345    11337.991     4534.772        3.836        1.494      216.244       48.330        0.050      334.981        5.309      855.523
01/07/2022  17:58:00     -203.963       -0.132      -21.355      120.318      106.927       59.475    14476.510    11433.452     3537.279        3.575        1.472      203.963       49.084        0.058      335.002        5.345      855.558
01/07/2022  17:59:00      -42.265       55.101      -22.135       66.980       41.982       44.961     4486.291     1762.520     2021.500        0.679        0.414       69.444       33.184        0.228      334.975        5.303      855.586
01/07/2022  18:00:00       40.749       44.720       -8.978       56.759       46.774       30.686     3221.603     2187.774      941.623        0.504        0.318       60.501       19.448        0.103      334.937        5.239      855.624
01/07/2022  18:01:00       71.065      112.031      -12.486       77.204       61.274       30.080     5960.506     3754.551      904.792        1.419        0.531      132.670       22.134        0.028      334.932        5.231      855.667
01/07/2022  18:02:00      -33.829       62.750      -21.271       82.006       57.065       32.758     6725.060     3256.438     1073.063        0.829        0.553       71.288       25.479        0.128      334.983        5.316      855.678
01/07/2022  18:03:00      -79.234        1.593      -25.609       48.919       55.158       38.188     2393.051     3042.436     1458.318        0.691        0.345       79.250       15.598        0.039      334.957        5.273      855.753
01/07/2022  18:04:00      -68.574       12.724      -29.977      153.273      102.934       61.755    23492.509    10595.492     3813.734        2.183        1.895       69.744       70.196        1.013      334.992        5.330      855.784
01/07/2022  18:05:00     -363.546       50.768       -6.543      197.199      123.980       77.769    38887.505    15370.952     6048.084        9.754        3.015      367.074       85.206        0.054      334.957        5.271      855.760
01/07/2022  18:06:00     -275.051       64.463       -8.427      107.985       62.571       52.269    11660.848     3915.152     2732.082        4.909        0.915      282.504       34.128        0.015      334.982        5.314      855.802
01/07/2022  18:07:00     -113.366       41.104       -1.596       83.314       53.102       44.850     6941.205     2819.841     2011.491        1.316        0.589      120.588       41.491        0.118      334.980        5.310      855.848
01/07/2022  18:08:00     -118.610       13.086      -10.716      115.067      101.469       67.384    13240.495    10295.879     4540.592        2.121        1.404      119.329       66.204        0.308      334.962        5.278      855.855
01/07/2022  18:09:00     -272.816        5.922      -21.427      173.844       98.604       84.407    30221.835     9722.689     7124.461        6.099        2.353      272.880       88.951        0.106      334.950        5.257      855.876
01/07/2022  18:10:00     -316.679       18.417      -19.263      184.967      110.444       59.289    34212.950    12197.833     3515.201        7.545        2.496      317.214       67.399        0.045      334.949        5.256      855.896
01/07/2022  18:11:00     -194.605      -24.001      -20.569      123.951      107.278       69.771    15363.919    11508.567     4867.995        3.530        1.587      196.080       72.230        0.136      334.975        5.300      855.875
01/07/2022  18:12:00     -175.387       53.188      -20.311      230.157      116.234       79.474    52972.354    13510.392     6316.050        5.339        3.640      183.275       54.912        0.090      334.968        5.289      855.894
01/07/2022  18:13:00     -179.438      102.654      -28.068      115.761       75.010       60.793    13400.666     5626.468     3695.751        3.312        1.136      206.726       60.770        0.086      334.960        5.276      855.947
01/07/2022  18:14:00     -129.561       37.663       -1.193       71.915       78.076       47.502     5171.822     6095.881     2256.471        1.586        0.676      134.924       45.125        0.112      334.946        5.254      855.970
01/07/2022  18:15:00     -181.909      104.866       -7.281      146.516      101.670       61.319    21466.851    10336.776     3760.056        3.985        1.778      209.971       71.467        0.116      334.943        5.248      855.995
01/07/2022  18:16:00     -232.983      149.225      -35.652      105.782      202.060       77.895    11189.775    40828.204     6067.619        6.794        2.904      276.676       66.380        0.058      334.928        5.222      855.994
01/07/2022  18:17:00     -126.211       11.291        9.881      112.821       70.835       51.175    12728.659     5017.663     2618.899        1.826        1.018      126.715       44.868        0.125      334.922        5.212      856.025
01/07/2022  18:18:00     -313.492      110.334      -16.925      127.297      125.647       68.113    16204.526    15787.206     4639.373        7.368        1.832      332.341       69.156        0.043      334.902        5.178      856.045
01/07/2022  18:19:00     -214.911       72.932        1.897      145.205      115.903       71.799    21084.427    13433.578     5155.141        4.558        1.984      226.949       70.258        0.096      334.930        5.225      856.065
01/07/2022  18:20:00     -248.534       96.227      -18.883      161.835      141.068       79.600    26190.576    19900.270     6336.081        6.190        2.621      266.512       69.720        0.068      334.931        5.228      856.067
01/07/2022  18:21:00      -97.653        6.727      -19.866      128.865      123.928       80.568    16606.065    15358.154     6491.166        2.421        1.923       97.884       74.535        0.580      334.968        5.289      856.050
01/07/2022  18:22:00     -204.070       43.086      -27.618      103.947       90.290       52.535    10805.014     8152.280     2759.958        3.299        1.086      208.569       38.020        0.033      334.942        5.248      856.073
01/07/2022  18:23:00      -94.336       33.085      -11.556      137.737      113.351       65.862    18971.540    12848.435     4337.850        2.314        1.808       99.969       64.808        0.420      334.947        5.255      856.076
01/07/2022  18:24:00     -186.964        4.743        4.175      194.441       85.942       61.186    37807.224     7385.950     3743.749        4.196        2.447      187.024       60.395        0.104      334.956        5.270      856.093
01/07/2022  18:25:00     -183.632       43.671      -19.156      114.882       91.342       49.075    13197.915     8343.304     2408.341        2.997        1.197      188.753       33.841        0.032      334.926        5.218      856.108
01/07/2022  18:26:00     -297.165       99.351       -2.680      146.717      129.280       75.038    21525.896    16713.444     5630.755        7.102        2.194      313.333       58.561        0.035      334.931        5.228      856.117
01/07/2022  18:27:00     -390.391      143.789      -41.088      116.430      106.509       57.262    13555.867    11344.199     3278.882       10.147        1.409      416.030       51.156        0.015      334.918        5.206      856.145
01/07/2022  18:28:00     -229.049       81.621      -14.978      128.854       71.742       59.840    16603.393     5146.901     3580.780        4.234        1.267      243.157       38.820        0.025      334.903        5.180      856.171
01/07/2022  18:29:00     -143.385       17.139        6.416      182.492       79.614       74.126    33303.382     6338.335     5494.622        3.301        2.257      144.406       69.266        0.230      334.917        5.205      856.199
01/07/2022  18:30:00      -41.325       62.163      -29.813       68.177       69.938       31.130     4648.053     4891.319      969.097        0.848        0.525       74.645       33.113        0.197      334.998        5.342      856.242
01/07/2022  18:31:00     -182.034       56.832      -18.635      119.447      122.186       69.164    14267.646    14929.313     4783.673        3.534        1.699      190.700       59.362        0.097      334.899        5.174      856.277
01/07/2022  18:32:00      -71.189       50.582      -26.480      117.265      122.476       53.785    13751.025    15000.359     2892.803        1.998        1.582       87.330       43.707        0.250      334.954        5.267      856.297
01/07/2022  18:33:00      -71.358      163.845      -31.380       85.561       99.701       55.041     7320.671     9940.321     3029.512        2.660        1.015      178.710       46.605        0.068      334.927        5.220      856.332
01/07/2022  18:34:00     -242.123      210.828      -28.074      252.293      111.690       60.196    63651.962    12474.733     3623.588        9.179        3.988      321.048       35.448        0.012      334.892        5.161      856.326
01/07/2022  18:35:00     -245.742       76.354      -32.828      170.255      129.912       64.220    28986.766    16877.197     4124.171        5.863        2.499      257.331       62.419        0.059      334.855        5.101      856.353
01/07/2022  18:36:00     -188.167      101.473      -14.153      136.052      115.396       67.335    18510.234    13316.251     4533.994        4.113        1.818      213.784       66.510        0.097      334.905        5.183      856.369
01/07/2022  18:37:00     -311.608      137.544      -16.975      152.946      103.198       75.836    23392.584    10649.737     5751.110        7.804        1.990      340.614       60.366        0.031      334.895        5.166      856.380
01/07/2022  18:38:00     -192.836       60.304      -36.737      178.269      137.290       75.584    31780.004    18848.535     5712.966        4.925        2.817      202.045       64.787        0.103      334.879        5.141      856.370
01/07/2022  18:39:00     -160.215       67.153      -28.780      175.778      105.037       83.207    30897.769    11032.795     6923.341        3.992        2.443      173.719       74.961        0.186      334.855        5.101      856.380
01/07/2022  18:40:00     -157.108       50.862      -17.001      188.440      115.484       65.542    35509.513    13336.532     4295.706        4.034        2.657      165.136       67.702        0.168      334.864        5.116      856.380
01/07/2022  18:41:00      -14.357       28.791      -13.669       82.969       74.261       61.263     6883.910     5514.634     3753.132        0.868        0.808       32.173       60.168        3.497      334.867        5.124      856.425
01/07/2022  18:42:00      -93.931      131.716      -15.422       96.125       88.630       50.036     9239.932     7855.230     2503.637        2.300        0.980      161.778       37.353        0.053      334.828        5.058      856.434
01/07/2022  18:43:00      -71.872      233.913      -16.016       57.752       92.878       44.859     3335.345     8626.347     2012.292        3.705        0.699      244.705       30.945        0.016      334.915        5.200      856.483
01/07/2022  18:44:00     -115.479      136.861      -17.184       93.863      101.243       52.632     8810.337    10250.216     2770.142        2.709        1.092      179.071       21.652        0.015      334.899        5.175      856.531
01/07/2022  18:45:00      -43.398      192.096      -19.236       67.680       83.344       48.356     4580.598     6946.228     2338.348        2.651        0.693      196.937       25.898        0.017      334.849        5.091      856.550
01/07/2022  18:46:00     -101.419      178.505      -20.781       69.478       63.653       37.342     4827.250     4051.694     1394.437        2.643        0.514      205.304       21.235        0.011      334.938        5.238      856.579
01/07/2022  18:47:00      -94.558      174.039      -19.203       91.437      100.753       59.191     8360.673    10151.140     3503.537        3.080        1.101      198.067       42.528        0.046      334.877        5.136      856.603
01/07/2022  18:48:00     -162.132      100.034       -9.479       98.123       63.249       47.071     9628.188     4000.426     2215.696        2.611        0.792      190.509       49.029        0.066      334.817        5.040      856.626
01/07/2022  18:49:00     -125.596      145.745      -20.182       78.418       74.585       44.496     6149.359     5562.902     1979.864        2.556        0.685      192.395       33.223        0.030      334.842        5.078      856.640
01/07/2022  18:50:00      -95.619       85.367      -17.555       56.506       76.692       44.200     3192.982     5881.662     1953.630        1.388        0.551      128.181       31.729        0.061      334.848        5.092      856.627
01/07/2022  18:51:00     -149.139       61.941      -25.440      114.451       68.706       53.245    13099.115     4720.477     2835.009        2.369        1.033      161.490       51.730        0.103      334.838        5.072      856.623
01/07/2022  18:52:00     -365.991       76.033       -7.420      253.482      124.666       88.121    64253.207    15541.517     7765.328       11.366        4.378      373.805       88.942        0.057      334.845        5.085      856.605
01/07/2022  18:53:00      -90.420        2.280      -17.582      134.657       93.457       61.492    18132.541     8734.236     3781.280        1.956        1.532       90.448       44.917        0.247      334.777        4.973      856.624
01/07/2022  18:54:00     -173.806       22.831      -15.402      193.341      116.890       89.717    37380.656    13663.299     8049.226        4.502        2.955      175.300       89.655        0.262      334.858        5.105      856.619
01/07/2022  18:55:00     -316.883       64.135       -0.869      159.618      110.672       75.473    25477.927    12248.401     5696.116        7.397        2.171      323.308       83.931        0.067      334.850        5.092      856.642
01/07/2022  18:56:00     -284.454       98.322      -39.510      186.270      167.201       71.694    34696.495    27956.225     5139.960        7.996        3.390      300.968       81.179        0.073      334.902        5.178      856.643
01/07/2022  18:57:00     -336.152       85.365      -20.408      185.568      146.315       81.474    34435.346    21408.039     6638.039        9.158        3.124      346.822       85.050        0.060      334.924        5.216      856.634
01/07/2022  18:58:00     -297.364      104.789        1.034      148.310      111.003       67.349    21995.881    12321.613     4535.939        6.912        1.943      315.287       63.325        0.040      334.927        5.221      856.634
01/07/2022  18:59:00     -413.452      145.398      -35.559      191.378      161.235       92.544    36625.515    25996.716     8564.394       13.225        3.559      438.273       95.739        0.048      334.973        5.297      856.622
01/07/2022  19:00:00     -365.181      114.469       -0.096      143.323      102.329       67.376    20541.408    10471.305     4539.567        9.100        1.778      382.701       64.175        0.028      334.927        5.220      856.642
01/07/2022  19:01:00     -382.859       41.054      -22.242      227.504      120.571       87.108    51757.959    14537.319     7587.890       11.131        3.694      385.054       83.038        0.047      334.939        5.242      856.658
01/07/2022  19:02:00     -112.610       79.986       -4.437      159.305      123.498       92.597    25378.008    15251.748     8574.114        3.414        2.460      138.126       86.512        0.392      334.965        5.284      856.696
01/07/2022  19:03:00      -73.863      127.249      -31.298       66.898       47.814       45.097     4475.344     2286.141     2033.721        1.571        0.440      147.133       12.911        0.008      334.921        5.212      856.697
01/07/2022  19:04:00     -213.955      151.873      -40.991      138.115       85.185       60.197    19075.789     7256.459     3623.655        5.023        1.498      262.378       51.432        0.038      334.961        5.275      856.700
01/07/2022  19:05:00      -74.972      119.202      -27.097      105.173      142.912       50.035    11061.363    20423.734     2503.519        2.727        1.699      140.819       51.965        0.136      334.840        5.076      856.706
01/07/2022  19:06:00      -59.926      243.488      -22.060       73.011       95.367       51.216     5330.614     9094.960     2623.048        4.020        0.852      250.754       36.420        0.021      334.864        5.115      856.709
01/07/2022  19:07:00      -95.167      164.329      -17.691       93.015       59.169       39.274     8651.714     3500.952     1542.470        2.503        0.685      189.897       18.819        0.010      334.936        5.235      856.715
01/07/2022  19:08:00      -99.141      195.175      -19.635       88.108       76.535       40.674     7762.962     5857.570     1654.371        3.179        0.764      218.911       22.534        0.011      334.923        5.215      856.722
01/07/2022  19:09:00     -110.810       94.028      -20.856       82.196       83.522       46.628     6756.159     6975.953     2174.169        1.873        0.795      145.328       33.892        0.054      334.879        5.143      856.750
01/07/2022  19:10:00      -94.285      268.133      -28.209      116.442      121.732       63.971    13558.638    14818.565     4092.338        5.702        1.623      284.227       50.895        0.032      334.923        5.212      856.777
01/07/2022  19:11:00      -47.432      119.212      -16.531       64.553       74.948       44.761     4167.090     5617.143     2003.542        1.426        0.589      128.302       20.131        0.025      334.944        5.250      856.830
01/07/2022  19:12:00      -76.906      213.131      -10.329      100.616      128.355       59.350    10123.508    16474.990     3522.465        4.078        1.506      226.582       41.329        0.033      334.918        5.205      856.864
01/07/2022  19:13:00      -59.408      196.192      -27.492       90.267      165.089       69.463     8148.063    27254.336     4825.111        4.149        2.011      204.989       37.789        0.034      334.942        5.244      856.873
01/07/2022  19:14:00      -64.605       92.695       -4.600       94.968      121.472       62.511     9018.830    14755.489     3907.654        2.023        1.384      112.988       52.774        0.218      334.916        5.203      856.896
01/07/2022  19:15:00       -2.990       12.540        5.346       55.267       66.420       48.996     3054.459     4411.561     2400.640        0.503        0.493       12.891       35.577        7.616      334.899        5.177      856.901
01/07/2022  19:16:00        2.419       10.489        1.892      101.988       65.587       46.124    10401.595     4301.676     2127.408        0.847        0.842       10.764       37.527       12.153      334.846        5.091      856.915
01/07/2022  19:17:00     -312.236      102.485      -25.651      100.297       92.798       57.817    10059.480     8611.390     3342.755        6.533        1.101      328.625       50.590        0.024      334.802        5.012      856.930
01/07/2022  19:18:00     -155.291       52.848      -11.897       95.640       41.879       43.651     9146.916     1753.838     1905.403        1.993        0.640      164.037       36.633        0.050      334.781        4.978      856.948
01/07/2022  19:19:00     -157.488       22.645      -10.797      136.614       89.250       72.041    18663.306     7965.627     5189.862        2.862        1.591      159.108       73.728        0.215      334.831        5.063      856.947
01/07/2022  19:20:00     -246.882       72.326      -27.217       69.725       79.618       46.640     4861.614     6338.973     2175.243        4.015        0.669      257.258       26.647        0.011      334.817        5.035      856.955
01/07/2022  19:21:00     -332.686      162.245      -13.238      160.092      115.758       76.358    25629.354    13399.904     5830.587        9.101        2.243      370.140       75.105        0.041      334.905        5.183      856.937
01/07/2022  19:22:00     -230.003        5.335       -6.724      170.997      105.338       76.416    29240.120    11096.093     5839.477        4.957        2.309      230.064       73.054        0.101      334.886        5.153      856.942
01/07/2022  19:23:00     -252.269       84.719       -8.852      164.934      103.457       69.643    27203.209    10703.330     4850.172        5.682        2.138      266.115       69.603        0.068      334.909        5.190      856.953
01/07/2022  19:24:00      -57.274       31.801       -3.580      134.048       84.829       56.690    17968.956     7195.945     3213.737        1.634        1.419       65.511       45.635        0.485      334.965        5.285      856.951
01/07/2022  19:25:00     -175.416       21.987      -11.584      170.425       69.180       67.218    29044.818     4785.839     4518.261        3.486        1.917      176.789       65.729        0.138      334.888        5.157      856.942
01/07/2022  19:26:00      -84.667       77.544      -16.796      152.549      123.271       78.843    23271.130    15195.663     6216.278        2.907        2.234      114.811       49.955        0.189      334.907        5.189      856.930
01/07/2022  19:27:00     -220.735      106.064       -0.610      154.057      117.456       75.215    23733.559    13796.012     5657.335        5.157        2.159      244.895       66.319        0.073      334.927        5.221      856.917
01/07/2022  19:28:00     -309.662       85.274        0.320      130.649       83.619       63.102    17069.113     6992.176     3981.846        6.560        1.402      321.189       51.155        0.025      334.857        5.103      856.898
01/07/2022  19:29:00     -314.543      124.717      -15.946      116.950      100.341       69.487    13677.382    10068.403     4828.510        7.165        1.429      338.367       66.697        0.039      334.835        5.067      856.860
01/07/2022  19:30:00     -250.304       45.604       -1.450      172.818      104.425       69.737    29866.231    10904.540     4863.253        5.518        2.282      254.424       72.375        0.081      334.860        5.108      856.825
01/07/2022  19:31:00     -236.056       54.379       -9.524      127.241       89.405       71.407    16190.287     7993.331     5098.892        4.402        1.464      242.239       66.281        0.075      334.863        5.114      856.802
01/07/2022  19:32:00     -269.622       64.507       -9.121      144.846      108.640       67.904    20980.388    11802.551     4610.902        5.716        1.870      277.231       66.176        0.057      334.878        5.137      856.797
01/07/2022  19:33:00     -251.253       97.543       -2.719      144.891       86.791       64.491    20993.355     7532.638     4159.135        5.266        1.634      269.523       64.948        0.058      334.840        5.076      856.811
01/07/2022  19:34:00     -245.474      119.200       -2.271      126.735       91.683       66.840    16061.742     8405.717     4467.630        5.170        1.447      272.885       60.257        0.049      334.803        5.015      856.797
01/07/2022  19:35:00     -275.558       86.219      -17.839      127.238       88.112       51.162    16189.513     7763.800     2617.516        5.512        1.329      288.731       44.509        0.024      334.812        5.027      856.776
01/07/2022  19:36:00     -292.647       75.795      -21.569      115.969       77.346       54.008    13448.843     5982.445     2916.884        5.710        1.117      302.303       44.530        0.022      334.777        4.971      856.741
01/07/2022  19:37:00     -284.840      109.822       -2.787      130.083       84.479       49.919    16921.650     7136.729     2491.886        5.987        1.328      305.278       51.350        0.028      334.778        4.973      856.686
01/07/2022  19:38:00      -83.764       -7.914       -2.837      146.718       81.264       70.002    21526.278     6603.812     4900.347        2.005        1.652       84.137       56.075        0.444      334.762        4.946      856.649
01/07/2022  19:39:00     -193.046       25.581      -13.244      132.843      117.756       66.912    17647.393    13866.380     4477.176        3.704        1.800      194.734       54.221        0.078      334.745        4.918      856.596
01/07/2022  19:40:00     -363.383       72.388        0.042      208.769      126.358       70.429    43584.622    15966.377     4960.202       10.089        3.226      370.523       87.346        0.056      334.736        4.902      856.548
01/07/2022  19:41:00     -263.103       70.395      -24.370      179.694      158.216       91.842    32289.885    25032.160     8434.901        7.025        3.288      272.358       67.712        0.062      334.749        4.925      856.489
01/07/2022  19:42:00     -215.086       29.925        7.537      205.238      111.065       75.196    42122.456    12335.461     5654.459        5.365        3.006      217.158       78.870        0.132      334.737        4.906      856.430
01/07/2022  19:43:00      -34.095       15.132       19.344      151.300       85.861       74.988    22891.592     7372.121     5623.247        1.882        1.794       37.302       60.845        2.661      334.738        4.907      856.378
01/07/2022  19:44:00     -109.917       12.112      -18.291      187.651      109.890       70.764    35213.018    12075.773     5007.606        3.242        2.615      110.583       48.503        0.192      334.735        4.901      856.319
01/07/2022  19:45:00     -222.886       28.811       -2.779      159.888      136.368       85.587    25564.312    18596.199     7325.075        5.099        2.574      224.740       78.462        0.122      334.704        4.851      856.286
01/07/2022  19:46:00     -211.429       38.292      -22.235      191.195      133.635      103.288    36555.583    17858.303    10668.413        5.586        3.254      214.868       94.119        0.192      334.674        4.801      856.250
01/07/2022  19:47:00     -196.705       16.156        3.834      240.593      138.345       93.900    57884.953    19139.391     8817.282        6.239        4.292      197.367       90.387        0.210      334.686        4.819      856.228
01/07/2022  19:48:00     -240.790        2.340      -30.597      207.906      145.019       86.982    43224.956    21030.442     7565.872        6.536        3.591      240.801       87.730        0.133      334.703        4.849      856.210
01/07/2022  19:49:00     -215.600       36.261       -9.599      176.101      136.247       85.777    31011.478    18563.215     7357.723        5.240        2.847      218.628       77.059        0.124      334.706        4.853      856.228
01/07/2022  19:50:00     -314.957       66.100       -3.765      238.286      154.348       89.480    56780.402    23823.191     8006.682        9.608        4.431      321.818      110.372        0.118      334.685        4.818      856.253
01/07/2022  19:51:00     -282.376       91.944      -21.350      177.711      119.756       86.957    31581.370    14341.429     7561.531        7.106        2.674      296.968       74.388        0.063      334.665        4.785      856.278
01/07/2022  19:52:00     -295.665       80.492       -9.874      161.240      101.068       66.933    25998.427    10214.671     4479.964        6.734        2.035      306.426       60.707        0.039      334.662        4.779      856.301
01/07/2022  19:53:00     -219.928       94.379       -5.649       98.448       72.930       57.022     9692.060     5318.805     3251.461        3.778        0.913      239.324       44.309        0.034      334.665        4.785      856.321
01/07/2022  19:54:00     -341.210      131.753      -10.514      189.982      124.678       80.476    36093.007    15544.625     6476.449        9.599        2.906      365.763       91.261        0.062      334.680        4.809      856.350
01/07/2022  19:55:00     -254.322       88.193       -5.902      126.385      142.356       78.677    15973.165    20265.242     6190.024        5.745        2.121      269.180       60.894        0.051      334.675        4.801      856.396
01/07/2022  19:56:00     -235.508       36.697      -28.087      194.824      115.835       82.755    37956.279    13417.861     6848.410        5.790        2.911      238.350       83.705        0.123      334.666        4.786      856.451
01/07/2022  19:57:00     -254.756       47.971      -19.999      117.341      120.441       59.321    13769.002    14506.128     3518.933        4.969        1.590      259.233       55.694        0.046      334.663        4.781      856.487
01/07/2022  19:58:00     -225.534       50.413       13.550      179.378      106.795       73.689    32176.646    11405.172     5430.110        5.129        2.451      231.100       78.145        0.114      334.633        4.731      856.555
01/07/2022  19:59:00     -228.184       32.457      -24.593      126.860      144.276       65.176    16093.343    20815.455     4247.917        4.743        2.058      230.481       38.415        0.028      334.646        4.754      856.592
01/07/2022  20:00:00     -238.357       73.293        5.855      154.824      134.841       70.962    23970.523    18182.165     5035.588        5.470        2.359      249.372       70.190        0.079      334.678        4.806      856.616
01/07/2022  20:01:00     -327.026      138.903      -16.465      234.039      141.082       74.612    54774.218    19904.222     5566.973       10.336        4.012      355.303       65.425        0.034      334.662        4.778      856.656
01/07/2022  20:02:00     -384.596      110.742      -20.652      244.090      184.883       93.066    59579.902    34181.631     8661.202       13.149        5.121      400.223      109.687        0.075      334.682        4.813      856.668
01/07/2022  20:03:00     -326.547       78.631      -21.097      235.498      138.190       87.120    55459.264    19096.552     7589.837        9.769        4.107      335.880       93.221        0.077      334.669        4.791      856.673
01/07/2022  20:04:00     -216.060       21.278       -8.364      161.399      139.829       82.198    26049.528    19552.277     6756.491        4.977        2.618      217.105       60.879        0.079      334.663        4.781      856.681
01/07/2022  20:05:00     -183.620       78.552       -5.235      129.891      129.693       62.629    16871.570    16820.386     3922.432        3.876        1.881      199.717       63.486        0.101      334.710        4.860      856.731
01/07/2022  20:06:00     -271.332      118.070      -26.720      129.988       88.925       56.558    16896.924     7907.569     3198.772        5.813        1.400      295.908       50.567        0.029      334.684        4.815      856.765
01/07/2022  20:07:00     -359.489      131.528      -14.202      163.184      131.623       72.942    26628.859    17324.537     5320.583        9.799        2.464      382.795       72.075        0.035      334.599        4.675      856.782
01/07/2022  20:08:00     -210.195       43.290       -3.683      147.114      101.679       68.208    21642.626    10338.626     4652.351        4.134        1.832      214.607       53.712        0.063      334.565        4.618      856.796
01/07/2022  20:09:00     -253.361      110.687      -12.521      134.160      124.844       61.770    17999.036    15585.970     3815.563        5.699        1.870      276.483       53.496        0.037      334.605        4.682      856.811
01/07/2022  20:10:00     -221.721       98.215      -14.052      206.038       94.756       71.720    42451.494     8978.674     5143.718        5.778        2.829      242.501       76.344        0.099      334.589        4.659      856.813
01/07/2022  20:11:00     -322.697       99.661        2.877      160.398      135.088       68.840    25727.484    18248.880     4738.953        8.139        2.436      337.736       72.899        0.047      334.584        4.648      856.814
01/07/2022  20:12:00     -193.702       26.175       -8.572      167.847      127.359       75.569    28172.594    16220.300     5710.734        4.418        2.505      195.463       62.245        0.101      334.581        4.645      856.797
01/07/2022  20:13:00     -211.591       69.590        1.421      125.113       83.119       64.107    15653.252     6908.774     4109.753        3.814        1.334      222.740       54.747        0.060      334.560        4.610      856.772
01/07/2022  20:14:00     -210.092       45.181       -8.024      132.371      105.766       63.908    17522.062    11186.549     4084.210        3.951        1.640      214.896       43.595        0.041      334.590        4.660      856.753
01/07/2022  20:15:00     -266.835       94.749       -2.580      224.385      131.499       86.388    50348.778    17292.016     7462.844        7.763        3.755      283.158       86.641        0.094      334.552        4.596      856.751
01/07/2022  20:16:00     -362.547       98.481      -12.764      127.421      122.230       70.898    16236.215    14940.087     5026.508        8.875        1.810      375.684       62.979        0.028      334.561        4.609      856.763
01/07/2022  20:17:00     -302.197      126.872       -6.729      144.424       81.857       66.393    20858.433     6700.557     4407.991        6.971        1.598      327.749       54.888        0.028      334.585        4.650      856.795
01/07/2022  20:18:00     -249.527       94.507      -13.105      149.857      117.694       87.440    22457.193    13851.951     7645.808        5.765        2.198      266.825       67.794        0.065      334.525        4.551      856.840
01/07/2022  20:19:00     -287.752       70.251      -21.543      138.446       92.675       56.154    19167.310     8588.705     3153.296        5.955        1.545      296.204       51.529        0.030      334.513        4.530      856.874
01/07/2022  20:20:00     -235.761       27.466       -6.894      187.314      100.967       67.637    35086.447    10194.359     4574.806        5.311        2.493      237.356       54.250        0.052      334.492        4.497      856.888
01/07/2022  20:21:00      -82.581       26.763      -18.804      135.048      111.275       71.737    18238.014    12382.114     5146.175        2.182        1.788       86.809       64.309        0.549      334.486        4.487      856.886
01/07/2022  20:22:00      -71.575       29.762        2.983      152.766       99.526       63.963    23337.599     9905.326     4091.219        2.167        1.867       77.516       61.917        0.638      334.494        4.502      856.886
01/07/2022  20:23:00      -78.494       38.822      -14.772       75.501       64.237       56.079     5700.439     4126.369     3144.838        1.043        0.649       87.569       40.016        0.209      334.490        4.494      856.867
01/07/2022  20:24:00      -96.662       57.652      -16.053      127.757       94.852       54.024    16321.752     8996.867     2918.584        2.058        1.412      112.549       30.831        0.075      334.545        4.586      856.867
01/07/2022  20:25:00     -183.192       69.954      -13.877      215.701      116.156       79.978    46526.853    13492.138     6396.533        5.252        3.321      196.094       85.672        0.191      334.529        4.558      856.879
01/07/2022  20:26:00     -292.111      108.571      -16.626      118.076       90.927       62.148    13941.932     8267.692     3862.429        6.173        1.304      311.636       50.607        0.026      334.542        4.578      856.914
01/07/2022  20:27:00     -256.567      103.233       -8.124      138.424      116.579       65.172    19161.178    13590.647     4247.407        5.677        1.850      276.557       59.468        0.046      334.566        4.618      856.935
01/07/2022  20:28:00     -239.886       33.309      -23.075      160.197       84.250       66.285    25663.062     7098.033     4393.679        4.816        1.858      242.188       60.828        0.063      334.591        4.661      856.957
01/07/2022  20:29:00     -152.578        5.188       -0.647      171.597       93.185       74.650    29445.587     8683.525     5572.566        3.350        2.185      152.666       71.860        0.222      334.566        4.622      856.995
01/07/2022  20:30:00      -20.474       23.567      -13.465      117.902       78.277       56.791    13900.958     6127.348     3225.255        1.220        1.163       31.218       38.948        1.557      334.590        4.662      857.045
01/07/2022  20:31:00     -149.824        7.981      -32.035      195.284      130.181       70.987    38135.832    16947.019     5039.179        4.182        3.006      150.037       44.089        0.086      334.619        4.707      857.101
01/07/2022  20:32:00     -310.824      102.676       -7.944      136.545      107.372       75.412    18644.567    11528.698     5686.989        7.153        1.793      327.344       76.337        0.054      334.634        4.732      857.139
01/07/2022  20:33:00     -211.192        8.978        0.401      173.086      114.806       87.792    29958.765    13180.422     7707.348        4.776        2.542      211.383       74.354        0.124      334.669        4.792      857.153
01/07/2022  20:34:00     -201.296      125.555      -30.114      125.086       88.740       61.993    15646.510     7874.699     3843.180        4.227        1.368      237.243       40.084        0.029      334.670        4.792      857.188
01/07/2022  20:35:00      -54.051      108.664      -11.981       73.560       86.608       31.323     5411.021     7500.884      981.121        1.438        0.695      121.364       26.899        0.049      334.661        4.779      857.199
01/07/2022  20:36:00      -68.796      155.392      -16.657       79.630       56.244       31.979     6340.889     3163.422     1022.646        1.984        0.526      169.939       38.943        0.053      334.769        4.959      857.205
01/07/2022  20:37:00      -64.777      236.826      -26.727       66.003       95.464       28.861     4356.335     9113.283      832.984        3.765        0.715      245.525       18.539        0.006      334.707        4.855      857.233
01/07/2022  20:38:00      -36.498      253.091      -23.889       64.675       75.495       40.966     4182.799     5699.570     1678.230        3.876        0.578      255.709       31.792        0.015      334.656        4.769      857.263
01/07/2022  20:39:00     -102.708      184.935      -30.958       77.800       71.551       38.835     6052.813     5119.604     1508.174        2.919        0.634      211.542       27.609        0.017      334.767        4.953      857.316
01/07/2022  20:40:00      -28.649      223.071      -25.464       57.930       65.254       48.674     3355.859     4258.049     2369.152        3.060        0.499      224.903       40.775        0.033      334.639        4.741      857.338
01/07/2022  20:41:00      -30.605      151.858      -11.994       80.558      114.989       38.762     6489.527    13222.575     1502.467        2.267        1.061      154.912       48.482        0.098      334.682        4.815      857.364
01/07/2022  20:42:00      -52.939      153.750      -27.754       71.938       54.729       50.522     5175.066     2995.261     2552.507        1.897        0.536      162.609       20.880        0.016      334.701        4.847      857.376
01/07/2022  20:43:00      -24.275      158.666      -18.531       60.568       66.694       34.117     3668.478     4448.102     1163.990        1.769        0.464      160.513       21.619        0.018      334.695        4.835      857.369
01/07/2022  20:44:00      -51.902      241.481      -13.671       78.136      103.246       45.739     6105.276    10659.635     2092.062        4.002        0.943      246.996       39.032        0.025      334.628        4.722      857.374
01/07/2022  20:45:00      -92.868      202.152      -16.358       79.494       78.037       39.329     6319.304     6089.833     1546.731        3.185        0.698      222.463       34.926        0.025      334.669        4.790      857.374
01/07/2022  20:46:00      -85.548       83.168      -28.015       84.518       69.337       63.757     7143.298     4807.598     4064.970        1.552        0.801      119.312       42.516        0.127      334.679        4.809      857.364
01/07/2022  20:47:00     -111.551       91.683      -23.305       72.264       84.450       49.473     5222.020     7131.843     2447.617        1.809        0.740      144.393       35.184        0.059      334.651        4.762      857.354
01/07/2022  20:48:00      -89.428       99.815      -23.279       65.591       71.359       43.481     4302.225     5092.100     1890.608        1.489        0.564      134.016       27.280        0.041      334.644        4.752      857.316
01/07/2022  20:49:00      -78.239       46.340      -11.138       67.154       98.011       49.093     4509.622     9606.146     2410.150        1.246        0.826       90.933       18.698        0.042      334.586        4.654      857.295
01/07/2022  20:50:00      -38.542       86.238       -6.081       52.511       61.397       46.939     2757.387     3769.627     2203.242        0.884        0.437       94.459       28.791        0.093      334.664        4.785      857.295
01/07/2022  20:51:00      -48.508      134.979      -26.204       81.441       70.014       38.506     6632.701     4901.981     1482.747        1.714        0.651      143.431       37.725        0.069      334.637        4.738      857.271
01/07/2022  20:52:00     -119.758       43.776      -27.619       81.538       97.882       48.690     6648.436     9580.858     2370.697        1.781        0.930      127.508       28.955        0.052      334.558        4.608      857.275
01/07/2022  20:53:00     -198.485       89.653      -25.471      128.114       66.986       56.779    16413.110     4487.082     3223.883        3.610        1.206      217.793       61.447        0.080      334.565        4.618      857.284
01/07/2022  20:54:00      -24.678        6.317      -16.227       73.222       52.914       50.663     5361.524     2799.842     2566.735        0.582        0.536       25.474       33.523        1.732      334.482        4.482      857.276
01/07/2022  20:55:00      -53.949        6.563      -25.127       77.195       62.851       38.701     5959.028     3950.215     1497.800        0.749        0.570       54.347       19.761        0.132      334.473        4.468      857.257
01/07/2022  20:56:00      -65.513        8.031       -9.878       90.213       62.826       42.012     8138.326     3947.147     1765.014        0.915        0.693       66.003       35.190        0.284      334.411        4.367      857.230
01/07/2022  20:57:00      -72.135       -9.242        8.557      114.487       72.963       55.637    13107.194     5323.634     3095.440        1.344        1.076       72.725       53.184        0.535      334.412        4.367      857.209
01/07/2022  20:58:00     -101.590       60.784       -0.337      130.614       75.863       48.542    17059.999     5755.145     2356.364        1.959        1.259      118.386       57.927        0.239      334.393        4.335      857.193
01/07/2022  20:59:00     -118.801       21.392      -21.168      127.080       91.038       54.259    16149.327     8287.997     2944.005        2.120        1.369      120.712       44.753        0.137      334.384        4.321      857.166
01/07/2022  21:00:00      -10.810       12.460        8.527      125.590       72.320       44.467    15772.862     5230.204     1977.291        1.166        1.149       16.496       36.383        4.865      334.400        4.348      857.141
01/07/2022  21:01:00     -164.270       30.492      -14.200      108.731       82.948       58.765    11822.444     6880.303     3453.377        2.513        1.108      167.076       50.817        0.093      334.403        4.351      857.146
01/07/2022  21:02:00     -156.301       16.297       -3.174      137.704       78.875       63.417    18962.359     6221.298     4021.720        2.695        1.460      157.148       46.629        0.088      334.348        4.261      857.142
01/07/2022  21:03:00     -245.626       57.245      -15.764      175.025       80.386       48.413    30633.786     6461.944     2343.836        5.164        1.972      252.208       46.004        0.033      334.396        4.338      857.150
01/07/2022  21:04:00     -232.554       44.369      -15.636      110.859       60.603       51.110    12289.793     3672.717     2612.222        3.743        0.929      236.749       45.097        0.036      334.386        4.322      857.179
01/07/2022  21:05:00     -164.518       33.288        5.451       88.329       77.735       52.371     7802.091     6042.746     2742.710        2.239        0.829      167.852       45.605        0.074      334.311        4.198      857.222
01/07/2022  21:06:00     -185.581       54.351       -7.574      106.637       57.569       48.335    11371.415     3314.214     2336.318        2.723        0.851      193.376       39.260        0.041      334.343        4.250      857.282
01/07/2022  21:07:00     -227.841      106.615        3.575      108.287       60.593       60.982    11726.059     3671.540     3718.772        4.120        0.956      251.552       51.434        0.042      334.295        4.170      857.351
01/07/2022  21:08:00     -244.759       66.247        2.046      106.962       92.271       53.523    11440.938     8513.849     2864.704        4.356        1.141      253.566       41.561        0.027      334.430        4.394      857.404
01/07/2022  21:09:00     -113.007       71.779      -25.614       78.951       59.844       46.166     6233.286     3581.345     2131.317        1.526        0.597      133.876       26.432        0.039      334.437        4.408      857.462
01/07/2022  21:10:00      -65.001       29.892      -30.693       49.294       44.912       31.302     2429.933     2017.054      979.788        0.574        0.271       71.545       16.873        0.056      334.409        4.361      857.512
01/07/2022  21:11:00       -5.022       -1.408      -17.531       32.766       38.349       21.952     1073.613     1470.674      481.911        0.168        0.151        5.215       18.541       12.638      334.372        4.303      857.529
01/07/2022  21:12:00      -39.196       37.723      -13.130       51.282       42.390       28.184     2629.792     1796.942      794.361        0.418        0.261       54.400       21.560        0.157      334.410        4.364      857.566
01/07/2022  21:13:00      -61.294       62.529      -27.615       76.797       61.829       42.535     5897.845     3822.843     1809.254        0.998        0.576       87.560       17.382        0.039      334.372        4.300      857.603
01/07/2022  21:14:00      -43.077       33.502       -2.113       52.571       59.906       45.609     2763.689     3588.740     2080.150        0.571        0.422       54.571       31.134        0.325      334.451        4.432      857.629
01/07/2022  21:15:00      -39.399       73.917      -11.373       81.336       84.277       57.499     6615.605     7102.672     3306.090        1.208        0.851       83.762       49.001        0.342      334.519        4.544      857.663
01/07/2022  21:16:00      -33.010       38.857      -10.721       66.943       68.309       38.499     4481.347     4666.067     1482.142        0.667        0.531       50.986       26.776        0.276      334.580        4.644      857.658
01/07/2022  21:17:00     -105.444       65.310      -25.408      116.044       58.298       39.685    13466.150     3398.689     1574.865        1.723        0.922      124.031       40.013        0.104      334.560        4.614      857.660
01/07/2022  21:18:00     -153.469       43.412      -19.533       84.389       97.367       60.243     7121.488     9480.322     3629.206        2.302        1.012      159.491       35.173        0.049      334.436        4.406      857.656
01/07/2022  21:19:00       22.558       15.833      -12.345       51.273       45.383       33.290     2628.969     2059.601     1108.229        0.335        0.290       27.560       21.365        0.601      334.464        4.453      857.647
01/07/2022  21:20:00     -198.131       49.509      -32.414      134.444       79.666       53.438    18075.206     6346.683     2855.633        3.501        1.364      204.223       36.715        0.032      334.407        4.357      857.648
01/07/2022  21:21:00     -133.387       40.468      -10.198      139.326       96.375       74.271    19411.750     9288.086     5516.181        2.687        1.711      139.391       50.110        0.129      334.388        4.325      857.645
01/07/2022  21:22:00      -83.632       46.675      -29.634      107.847       89.871       57.896    11630.919     8076.733     3351.892        1.655        1.153       95.775       55.402        0.335      334.331        4.232      857.644
01/07/2022  21:23:00      -73.550       13.435       -9.068      151.794       70.484       62.660    23041.351     4968.036     3926.273        1.880        1.597       74.767       72.421        0.938      334.307        4.190      857.656
01/07/2022  21:24:00     -131.553       22.040      -23.820      148.244       80.399       57.052    21976.239     6464.051     3254.978        2.502        1.585      133.386       53.179        0.159      334.322        4.216      857.675
01/07/2022  21:25:00     -211.028       89.469       -4.277      120.306       84.619       59.809    14473.541     7160.432     3577.164        3.888        1.261      229.211       63.742        0.077      334.402        4.348      857.696
01/07/2022  21:26:00     -227.672       65.868      -24.249      165.015      113.753       70.109    27229.989    12939.848     4915.304        5.091        2.254      237.009       78.143        0.109      334.410        4.363      857.696
01/07/2022  21:27:00     -187.765       51.190      -23.662      171.629       85.876       51.905    29456.532     7374.739     2694.143        3.897        1.976      194.618       42.914        0.049      334.456        4.439      857.711
01/07/2022  21:28:00      -34.501       26.440      -17.274       84.330       54.859       40.154     7111.532     3009.550     1612.352        0.696        0.587       43.467       36.857        0.719      334.418        4.377      857.719
01/07/2022  21:29:00       -8.082       55.585       -4.024       59.548       47.381       46.662     3545.999     2244.946     2177.343        0.557        0.398       56.170       30.927        0.303      334.434        4.402      857.710
01/07/2022  21:30:00       -1.290       22.935      -18.003       43.409       41.502       38.500     1884.338     1722.430     1482.215        0.297        0.254       22.972       22.395        0.950      334.414        4.370      857.712
01/07/2022  21:31:00      -95.850       32.000       -6.671      119.540       54.854       41.330    14289.792     3008.937     1708.209        1.463        0.950      101.050       49.824        0.243      334.405        4.355      857.733
01/07/2022  21:32:00      -71.257       24.257       -9.012      106.495       57.543       47.297    11341.256     3311.155     2237.036        1.132        0.844       75.272       49.593        0.434      334.390        4.330      857.756
01/07/2022  21:33:00     -150.033      127.897      -34.154       85.977      107.698       57.989     7392.130    11598.949     3362.690        3.119        1.118      197.148       44.692        0.051      334.540        4.576      857.749
01/07/2022  21:34:00     -186.363       98.381      -46.153      147.648      107.733       56.307    21800.078    11606.438     3170.465        4.155        1.829      210.736       50.555        0.058      334.473        4.466      857.745
01/07/2022  21:35:00     -249.456       39.766       -3.288      139.013       87.827       59.674    19324.478     7713.504     3561.015        4.720        1.530      252.606       56.912        0.051      334.451        4.430      857.728
01/07/2022  21:36:00     -146.554       47.517       10.349      162.297       90.859       60.950    26340.340     8255.440     3714.884        3.107        1.916      154.065       51.956        0.114      334.442        4.416      857.714
01/07/2022  21:37:00      -42.110       33.241       10.693       88.974       79.071       59.278     7916.323     6252.285     3513.837        1.033        0.884       53.649       51.538        0.923      334.400        4.346      857.720
01/07/2022  21:38:00      -74.615       93.310      -46.331       94.629       75.689       66.502     8954.620     5728.876     4422.473        1.776        0.955      119.474       55.807        0.218      334.545        4.585      857.710
01/07/2022  21:39:00      -13.427       11.069        2.142       72.805       62.199       56.217     5300.524     3868.697     3160.389        0.632        0.616       17.402       48.874        7.888      334.392        4.332      857.713
01/07/2022  21:40:00     -144.180       29.122      -34.054       93.834       81.273       55.050     8804.838     6605.286     3030.464        2.061        0.922      147.092       26.525        0.033      334.337        4.241      857.701
01/07/2022  21:41:00     -181.052       68.305      -47.442      107.510       98.822       58.981    11558.414     9765.776     3478.751        3.225        1.240      193.509       54.611        0.080      334.342        4.249      857.688
01/07/2022  21:42:00     -214.932       52.087       -6.708      148.745       79.667       51.518    22125.158     6346.819     2654.066        4.003        1.556      221.153       48.702        0.048      334.277        4.140      857.708
01/07/2022  21:43:00      -71.141       10.371      -17.527      162.553       58.139       58.899    26423.438     3380.096     3469.035        1.937        1.664       71.893       57.792        0.646      334.227        4.057      857.725
01/07/2022  21:44:00     -191.321        7.929       -5.904      141.336       80.978       57.813    19975.801     6557.356     3342.395        3.328        1.494      191.485       47.948        0.063      334.184        3.986      857.747
01/07/2022  21:45:00     -128.488       65.843      -30.089       94.146       79.225       54.052     8863.473     6276.551     2921.580        1.990        0.903      144.377       37.587        0.068      334.201        4.014      857.766
01/07/2022  21:46:00      -58.117       19.732      -11.397       94.728       73.528       48.610     8973.454     5406.353     2362.948        1.032        0.837       61.376       38.350        0.390      334.248        4.093      857.802
01/07/2022  21:47:00     -122.892       25.214      -17.988       88.687       75.497       56.269     7865.367     5699.725     3166.206        1.639        0.837      125.452       48.821        0.151      334.211        4.033      857.832
01/07/2022  21:48:00     -169.040       31.226      -33.269       99.821       65.103       51.238     9964.193     4238.451     2625.308        2.374        0.841      171.899       42.513        0.061      334.131        3.897      857.856
01/07/2022  21:49:00      -31.320       59.800      -14.634       64.507       89.750       39.326     4161.160     8054.974     1546.530        0.926        0.688       67.505       25.576        0.144      334.134        3.906      857.874
01/07/2022  21:50:00      -94.976      174.391      -18.097       77.373       95.606       44.463     5986.581     9140.425     1976.969        2.843        0.855      198.577       32.877        0.027      334.196        4.007      857.889
01/07/2022  21:51:00      -75.852      153.270      -23.581      103.447       79.816       41.949    10701.345     6370.637     1759.682        2.431        0.942      171.013       35.346        0.043      334.150        3.930      857.880
01/07/2022  21:52:00      -48.048      197.039      -13.653       49.776       65.087       36.704     2477.612     4236.313     1347.171        2.469        0.403      202.813        5.621        0.001      334.271        4.130      857.884
01/07/2022  21:53:00      -93.653      103.761      -26.265       77.374       70.871       39.840     5986.781     5022.674     1587.232        1.641        0.630      139.776       28.395        0.041      334.267        4.125      857.896
01/07/2022  21:54:00      -23.685       82.804      -21.133       48.660       69.095       26.432     2367.835     4774.124      698.665        0.785        0.392       86.125       21.525        0.062      334.269        4.129      857.908
01/07/2022  21:55:00      -54.001      176.407      -22.187       69.707       88.324       51.419     4859.126     7801.124     2643.955        2.491        0.765      184.488       46.926        0.065      334.302        4.183      857.908
01/07/2022  21:56:00      -76.282      102.028      -24.443       64.199       66.465       45.064     4121.489     4417.585     2030.730        1.370        0.528      127.391       27.617        0.047      334.379        4.311      857.924
01/07/2022  21:57:00      -59.320      163.200      -13.965       52.658       66.109       42.993     2772.893     4370.362     1848.386        1.967        0.450      173.646       24.609        0.020      334.348        4.259      857.946
01/07/2022  21:58:00      -75.946      129.691      -12.850       56.901       53.522       36.078     3237.710     2864.573     1301.631        1.508        0.370      150.291       19.618        0.017      334.376        4.307      857.977
01/07/2022  21:59:00      -75.288      180.313      -24.677       48.673       63.909       31.898     2369.059     4084.357     1017.462        2.313        0.374      195.400       21.267        0.012      334.430        4.396      858.014
01/07/2022  22:00:00      -76.750       49.332      -12.131       54.070       45.224       26.687     2923.596     2045.200      712.177        0.708        0.284       91.237       27.184        0.089      334.342        4.250      858.031
01/07/2022  22:01:00      -36.941      113.547       -8.761       50.546       82.478       31.733     2554.947     6802.699     1006.974        1.235        0.518      119.405       27.122        0.052      334.409        4.362      858.041
01/07/2022  22:02:00      -25.182      171.739      -15.374       34.023       45.498       26.443     1157.595     2070.093      699.230        1.715        0.196      173.576       18.272        0.011      334.282        4.149      858.019
01/07/2022  22:03:00      -63.307       88.120      -12.556       56.699       51.716       26.277     3214.824     2674.569      690.503        0.925        0.329      108.503       21.694        0.040      334.386        4.323      858.033
01/07/2022  22:04:00      -99.802       44.518      -27.207       67.341       49.859       40.656     4534.754     2485.962     1652.944        1.068        0.434      109.281       26.811        0.060      334.204        4.022      858.050
01/07/2022  22:05:00      -34.831       12.839       -8.548       72.013       48.174       30.886     5185.847     2320.742      953.958        0.495        0.423       37.122       10.240        0.076      334.110        3.867      858.048
01/07/2022  22:06:00        1.210       16.782        8.712       71.225       34.307       36.722     5073.051     1176.962     1348.502        0.398        0.380       16.825       34.669        4.246      334.080        3.816      858.047
01/07/2022  22:07:00      -36.158       51.598      -12.987       45.579       59.629       35.287     2077.430     3555.633     1245.207        0.551        0.344       63.006       27.245        0.187      334.136        3.911      858.054
01/07/2022  22:08:00      -32.406       67.327      -10.343       39.965       29.747       29.981     1597.232      884.873      898.843        0.453        0.169       74.720       14.588        0.038      334.092        3.836      858.047
01/07/2022  22:09:00      -11.864       22.375      -11.980       30.362       31.545       17.252      921.878      995.075      297.639        0.150        0.111       25.326       12.761        0.254      333.993        3.674      858.040
01/07/2022  22:10:00     -145.103       35.308      -26.995       52.931       40.541       28.689     2801.675     1643.551      823.042        1.415        0.263      149.337       13.264        0.008      334.071        3.801      858.034
01/07/2022  22:11:00      -24.195       -2.191       -4.785       60.675       44.906       30.576     3681.442     2016.565      934.866        0.362        0.332       24.294       15.628        0.414      334.037        3.745      858.038
01/07/2022  22:12:00      -35.866      -31.267       -4.652      104.892       54.793       48.852    11002.302     3002.227     2386.476        0.934        0.820       47.581       46.547        0.957      334.026        3.728      858.040
01/07/2022  22:13:00       -8.223      -13.029      -12.394       65.126       50.147       40.550     4241.361     2514.763     1644.327        0.439        0.420       15.408       33.419        4.705      333.971        3.637      858.028
01/07/2022  22:14:00     -147.118       39.299      -30.627      102.798       68.274       48.514    10567.451     4661.289     2353.570        2.085        0.879      152.276       37.263        0.060      334.045        3.757      858.019
01/07/2022  22:15:00     -270.195       93.459      -13.552      129.307       77.629       57.090    16720.309     6026.276     3259.305        5.396        1.300      285.902       58.261        0.042      334.214        4.036      857.991
01/07/2022  22:16:00     -215.324      103.953      -21.880       93.569       67.942       58.754     8755.223     4616.089     3451.986        3.723        0.841      239.104       46.138        0.037      334.120        3.878      857.994
01/07/2022  22:17:00     -157.770       46.193      -29.093      101.538       64.177       50.352    10310.027     4118.658     2535.345        2.241        0.848      164.393       34.410        0.044      334.083        3.817      857.998
01/07/2022  22:18:00      -76.306       37.622      -31.073      126.071       91.137       58.201    15893.860     8305.972     3387.403        1.789        1.379       85.076       45.699        0.289      334.047        3.761      858.021
01/07/2022  22:19:00     -216.337       76.536      -15.139      151.963      133.905       62.014    23092.671    17930.632     3845.685        4.887        2.243      229.476       76.650        0.112      334.188        3.992      858.008
01/07/2022  22:20:00     -277.665       61.140       -5.117      101.418       81.256       57.829    10285.649     6602.493     3344.144        5.054        1.012      284.317       51.360        0.033      334.015        3.705      858.003
01/07/2022  22:21:00     -230.499       25.480       -8.567      131.075       98.547       67.894    17180.758     9711.558     4609.571        4.267        1.575      231.903       60.631        0.068      333.993        3.669      857.987
01/07/2022  22:22:00     -352.522      111.878       -4.788      146.449      125.111       73.691    21447.269    15652.728     5430.417        8.966        2.127      369.849       68.424        0.034      334.328        4.225      857.975
01/07/2022  22:23:00     -215.410       26.632       -5.846       90.695       76.341       51.303     8225.620     5827.961     2631.982        3.191        0.834      217.050       46.720        0.046      334.163        3.951      857.963
01/07/2022  22:24:00     -152.752       32.084      -13.204      140.498       92.144       66.911    19739.759     8490.492     4477.115        2.862        1.635      156.085       58.373        0.140      334.174        3.970      857.960
01/07/2022  22:25:00     -224.471       79.833      -16.212      129.674      101.559       65.525    16815.336    10314.182     4293.579        4.422        1.571      238.245       57.710        0.059      334.191        3.998      857.971
01/07/2022  22:26:00     -251.883       58.164      -21.898      130.722       79.437       62.359    17088.306     6310.181     3888.643        4.729        1.364      258.511       70.970        0.075      334.157        3.940      857.990
01/07/2022  22:27:00     -284.333       40.654      -13.497      140.215       89.368       73.764    19660.168     7986.591     5441.121        5.788        1.654      287.225       59.701        0.043      334.204        4.019      858.016
01/07/2022  22:28:00     -211.671       67.340      -10.376      108.053      120.557       64.307    11675.465    14533.939     4135.444        3.989        1.517      222.125       55.046        0.061      334.123        3.884      858.050
01/07/2022  22:29:00      -47.558        5.281       -9.598       99.140       77.941       64.240     9828.711     6074.796     4126.780        1.120        1.002       47.851       48.010        1.007      334.122        3.886      858.067
01/07/2022  22:30:00      -98.931       20.240      -15.437      103.706       58.782       51.117    10754.915     3455.362     2612.900        1.363        0.841      100.980       39.303        0.151      334.059        3.779      858.086
01/07/2022  22:31:00     -113.588       47.539      -13.795       86.120       59.161       46.736     7416.669     3500.019     2184.210        1.422        0.655      123.135       30.128        0.060      334.002        3.687      858.093
01/07/2022  22:32:00     -153.390       47.782      -32.133       99.709       83.216       55.629     9941.808     6924.878     3094.604        2.340        0.998      160.660       36.942        0.053      334.011        3.700      858.081
01/07/2022  22:33:00      -47.820       43.088      -37.994       61.285       53.507       44.400     3755.841     2862.959     1971.373        0.709        0.430       64.369       28.374        0.194      333.980        3.651      858.065
01/07/2022  22:34:00      -53.160       22.015      -27.992       87.887       70.881       51.771     7724.096     5024.167     2680.206        0.976        0.771       57.538       41.088        0.510      333.972        3.637      858.048
01/07/2022  22:35:00      -74.930       40.116      -19.521       65.255       64.171       49.623     4258.150     4117.937     2462.446        0.922        0.542       84.993       28.438        0.112      333.959        3.616      858.039
01/07/2022  22:36:00     -187.623       96.393      -11.312       86.449       76.659       45.865     7473.416     5876.558     2103.610        3.003        0.773      210.936       38.313        0.033      334.023        3.718      858.042
01/07/2022  22:37:00     -160.915       48.481      -22.536       97.213       66.884       55.084     9450.433     4473.403     3034.241        2.285        0.848      168.059       35.855        0.046      334.111        3.865      858.063
01/07/2022  22:38:00     -236.398       67.767      -17.680      136.441       87.593       57.757    18616.240     7672.562     3335.878        4.520        1.481      245.920       67.916        0.076      334.083        3.819      858.102
01/07/2022  22:39:00     -231.269      123.576      -22.597      130.722       77.095       50.817    17088.154     5943.624     2582.415        4.744        1.281      262.214       48.552        0.034      334.120        3.879      858.131
01/07/2022  22:40:00     -323.081       93.527      -15.104      122.992       86.573       54.698    15127.119     7494.839     2991.899        6.948        1.281      336.346       47.990        0.020      334.184        3.985      858.149
01/07/2022  22:41:00     -257.283       92.252      -23.736      163.587      110.092       56.125    26760.705    12120.319     3150.070        5.864        2.102      273.322       62.349        0.052      334.208        4.027      858.167
01/07/2022  22:42:00     -203.848       33.883        6.310      117.169       80.155       59.502    13728.558     6424.810     3540.458        3.321        1.185      206.644       58.147        0.079      334.236        4.072      858.168
01/07/2022  22:43:00      -78.838      120.545      -34.066       95.270      112.097       67.310     9076.296    12565.689     4530.651        2.403        1.309      144.036       43.121        0.090      334.341        4.247      858.169
01/07/2022  22:44:00     -300.546      125.765      -12.657      132.709       81.021       65.931    17611.725     6564.374     4346.889        6.741        1.426      325.799       50.005        0.024      334.410        4.361      858.185
01/07/2022  22:45:00     -245.285       79.384      -37.994       94.791       82.021       65.778     8985.257     6727.485     4326.751        4.397        1.002      257.811       53.277        0.043      334.377        4.305      858.202
01/07/2022  22:46:00     -245.077      100.810      -10.799       92.864       73.022       54.556     8623.789     5332.247     2976.327        4.363        0.847      265.001       43.594        0.027      334.300        4.177      858.223
01/07/2022  22:47:00     -106.567       17.516      -19.031       78.322       67.975       49.797     6134.335     4620.589     2479.704        1.263        0.662      107.997       41.806        0.150      334.287        4.159      858.218
01/07/2022  22:48:00      -47.565       93.720      -26.097       73.829      111.656       47.312     5450.649    12467.037     2238.399        1.594        1.008      105.099       29.592        0.079      334.290        4.163      858.223
01/07/2022  22:49:00     -140.244       19.023      -41.379      111.328       84.319       53.576    12394.024     7109.740     2870.349        2.205        1.119      141.528       36.579        0.067      334.254        4.103      858.252
01/07/2022  22:50:00      -91.949       11.608        3.663      122.617       73.238       64.742    15035.043     5363.743     4191.565        1.659        1.230       92.679       64.103        0.478      334.254        4.104      858.261
01/07/2022  22:51:00     -301.811       70.950      -17.963      125.750       93.525       69.176    15812.982     8746.853     4785.284        6.289        1.467      310.038       59.059        0.036      334.318        4.208      858.290
01/07/2022  22:52:00      -83.966       22.449       -6.152      140.337      102.490       69.212    19694.427    10504.265     4790.238        2.128        1.749       86.916       46.766        0.290      334.371        4.299      858.287
01/07/2022  22:53:00     -198.386       54.079       -7.617      154.963       90.044       60.175    24013.586     8107.954     3620.991        3.903        1.787      205.625       66.930        0.106      334.390        4.330      858.298
01/07/2022  22:54:00     -258.857       74.198      -27.373      124.372      105.671       61.634    15468.348    11166.460     3798.735        5.184        1.522      269.281       54.065        0.040      334.380        4.313      858.305
01/07/2022  22:55:00     -108.154       12.523      -13.239      177.508       86.425       70.908    31508.957     7469.196     5027.916        2.801        2.200      108.877       63.618        0.341      334.363        4.286      858.305
01/07/2022  22:56:00     -166.630       64.099      -21.026      166.011      100.763       76.872    27559.675    10153.276     5909.249        3.796        2.181      178.534       75.447        0.179      334.294        4.171      858.312
01/07/2022  22:57:00     -250.312       63.890      -27.011      168.793      119.618       68.917    28490.996    14308.371     4749.606        5.750        2.377      258.337       62.454        0.058      334.368        4.293      858.325
01/07/2022  22:58:00     -288.737       64.027       -3.984      204.226      117.542       73.263    41708.337    13816.172     5367.531        7.418        3.045      295.751       70.551        0.057      334.508        4.524      858.324
01/07/2022  22:59:00      -89.295       35.446      -20.483      141.670       63.990       51.073    20070.267     4094.692     2608.431        1.821        1.339       96.073       44.092        0.211      334.391        4.333      858.344
01/07/2022  23:00:00     -341.897      125.881      -27.081      120.085       89.242       64.927    14420.502     7964.121     4215.479        8.003        1.330      364.335       37.162        0.010      334.501        4.513      858.347
01/07/2022  23:01:00     -112.183       59.845      -33.672       81.495       82.667       54.493     6641.412     6833.885     2969.525        1.687        0.822      127.147       38.309        0.091      334.508        4.524      858.343
01/07/2022  23:02:00     -274.584       80.809      -43.291      166.024      107.740       79.499    27563.811    11607.944     6320.043        6.464        2.275      286.228       53.668        0.035      334.478        4.474      858.356
01/07/2022  23:03:00     -154.023       66.870      -12.227      168.712       87.948       62.695    28463.898     7734.807     3930.649        3.423        2.006      167.912       70.039        0.174      334.471        4.465      858.360
01/07/2022  23:04:00     -191.716       72.600      -12.313      121.416       99.134       73.052    14741.855     9827.541     5336.668        3.604        1.495      205.002       76.457        0.139      334.480        4.476      858.370
01/07/2022  23:05:00        6.657       19.861      -14.493      115.326       77.874       58.158    13300.115     6064.291     3382.401        1.169        1.137       20.947       43.169        4.247      334.449        4.429      858.381
01/07/2022  23:06:00     -170.561       31.298      -14.858      103.675       77.186       46.866    10748.513     5957.709     2196.392        2.459        0.945      173.409       41.972        0.059      334.412        4.366      858.410
01/07/2022  23:07:00      -43.028       33.298       -8.463      127.627       99.224       64.169    16288.572     9845.442     4117.718        1.664        1.513       54.407       59.687        1.204      334.469        4.461      858.401
01/07/2022  23:08:00      -50.595       42.853       -6.936       68.343       75.751       39.981     4670.827     5738.170     1598.445        0.822        0.600       66.304       31.307        0.223      334.391        4.333      858.441
01/07/2022  23:09:00     -128.055       46.850       -7.877      109.606       66.458       47.524    12013.421     4416.639     2258.529        1.867        0.934      136.356       45.398        0.111      334.316        4.206      858.474
01/07/2022  23:10:00      -92.708       76.091       -7.068       83.633       96.075       54.116     6994.517     9230.400     2928.499        1.679        0.958      119.936       44.856        0.140      334.380        4.313      858.464
01/07/2022  23:11:00      -52.647       37.685      -17.866       94.939       90.788       49.172     9013.380     8242.375     2417.925        1.209        0.984       64.745       38.930        0.362      334.357        4.274      858.458
01/07/2022  23:12:00     -144.895       30.540      -15.219      113.374       79.602       46.688    12853.713     6336.454     2179.732        2.176        1.068      148.079       40.947        0.076      334.402        4.350      858.480
01/07/2022  23:13:00     -211.800       62.361      -13.774       95.854       75.440       46.175     9187.916     5691.148     2132.106        3.297        0.851      220.790       31.411        0.020      334.409        4.360      858.500
01/07/2022  23:14:00      -66.867        6.703      -21.413       44.838       60.966       24.209     2010.406     3716.876      586.060        0.564        0.316       67.202       15.126        0.051      334.390        4.332      858.517
01/07/2022  23:15:00      -24.039       32.002      -26.954       72.900       63.673       38.277     5314.392     4054.293     1465.096        0.658        0.542       40.025       17.298        0.187      334.366        4.289      858.518
01/07/2022  23:16:00       -9.251      176.389      -17.272       65.771       95.838       41.987     4325.809     9184.902     1762.881        2.338        0.764      176.631       33.104        0.035      334.409        4.361      858.516
01/07/2022  23:17:00     -134.587      104.344      -14.329       69.779       69.939       37.787     4869.098     4891.476     1427.879        2.020        0.559      170.298       30.546        0.032      334.349        4.260      858.533
01/07/2022  23:18:00      -68.588       44.198       -7.232       57.810       55.425       32.597     3341.963     3071.951     1062.595        0.709        0.374       81.596       27.912        0.117      334.224        4.055      858.534
01/07/2022  23:19:00      -33.480       30.349       -0.958       42.128       35.337       16.327     1774.774     1248.692      266.562        0.267        0.165       45.188       14.860        0.108      334.229        4.063      858.523
01/07/2022  23:20:00      -67.055      114.834      -16.404       46.013       63.935       33.241     2117.192     4087.727     1104.986        1.263        0.365      132.978       13.303        0.010      334.299        4.179      858.547
01/07/2022  23:21:00      -52.987      107.228      -12.900       41.230       59.099       26.572     1699.928     3492.728      706.049        1.018        0.295      119.606       19.769        0.027      334.220        4.048      858.562
01/07/2022  23:22:00      -33.910      114.844       -8.632       54.975       41.986       39.885     3022.210     1762.864     1590.789        1.039        0.319      119.746       26.203        0.048      334.191        4.001      858.579
01/07/2022  23:23:00      -46.023       19.357      -13.050       48.101       35.006       30.696     2313.666     1225.426      942.247        0.357        0.224       49.928       22.227        0.198      334.109        3.863      858.602
01/07/2022  23:24:00      -26.134       12.210       -8.476       43.707       31.805       32.278     1910.343     1011.579     1041.841        0.243        0.198       28.846       28.053        0.946      334.114        3.874      858.610
01/07/2022  23:25:00      -33.903       95.069      -16.187       67.512       58.120       30.710     4557.895     3377.930      943.124        0.966        0.444      100.933       28.027        0.077      334.133        3.904      858.622
01/07/2022  23:26:00      -70.457      104.652       -5.767       60.307       58.664       44.395     3636.945     3441.514     1970.948        1.250        0.452      126.159       31.477        0.062      334.039        3.746      858.668
01/07/2022  23:27:00      -48.009      104.408      -14.147       60.337       75.416       43.767     3640.584     5687.576     1915.542        1.232        0.562      114.917       36.568        0.101      333.956        3.609      858.707
01/07/2022  23:28:00      -56.344       61.515       -8.329       82.840       69.018       43.141     6862.481     4763.457     1861.177        1.026        0.674       83.419       21.352        0.066      333.843        3.425      858.739
01/07/2022  23:29:00      -61.162      202.759      -19.603      101.124       89.543       55.324    10225.995     8018.025     3060.699        3.327        1.065      211.783       42.442        0.040      333.706        3.195      858.742
01/07/2022  23:30:00     -123.903      260.449      -32.371       84.319       92.262       46.257     7109.742     8512.208     2139.745        5.099        0.888      288.419       17.105        0.004      333.651        3.101      858.739
01/07/2022  23:31:00     -101.766      221.805      -20.563       64.757       96.090       43.050     4193.512     9233.358     1853.325        3.763        0.764      244.037       33.987        0.019      333.609        3.034      858.748
01/07/2022  23:32:00      -86.657      194.900      -15.279       72.791       56.147       53.001     5298.598     3152.441     2809.108        2.849        0.563      213.296       39.048        0.034      333.629        3.066      858.748
01/07/2022  23:33:00      -57.613      184.352      -29.055       59.304      114.463       42.365     3516.990    13101.776     1794.825        2.828        0.921      193.145       30.347        0.025      333.617        3.048      858.740
01/07/2022  23:34:00     -143.634       61.839      -30.527       59.150       51.288       41.616     3498.719     2630.499     1731.923        1.662        0.393      156.381       28.087        0.032      333.614        3.045      858.730
01/07/2022  23:35:00     -111.231       62.896      -35.363       83.804       61.733       43.220     7023.159     3811.009     1867.995        1.514        0.635      127.782       29.195        0.052      333.614        3.045      858.738
01/07/2022  23:36:00      -99.712       63.055      -20.014      123.941       80.369       50.063    15361.442     6459.216     2506.326        1.932        1.216      117.976       29.926        0.064      333.602        3.024      858.776
01/07/2022  23:37:00      -54.045      101.880      -12.244       76.168       96.441       40.917     5801.615     9300.843     1674.226        1.511        0.839      115.327       40.088        0.121      333.597        3.017      858.755
01/07/2022  23:38:00      -85.296      273.578      -24.517       70.903      120.338       46.751     5027.279    14481.263     2185.650        5.220        1.085      286.566       37.143        0.017      333.631        3.069      858.761
01/07/2022  23:39:00      -54.822      244.027      -19.841       69.469       74.978       37.331     4825.987     5621.767     1393.597        3.739        0.592      250.109       33.579        0.018      333.630        3.069      858.739
01/07/2022  23:40:00      -76.726      238.337      -12.979       59.011       59.264       35.692     3482.245     3512.195     1273.916        3.556        0.413      250.382       27.653        0.012      333.705        3.191      858.736
01/07/2022  23:41:00      -72.772      148.977      -23.008       54.430       65.297       37.656     2962.592     4263.720     1417.939        1.833        0.432      165.801       20.920        0.016      333.664        3.126      858.735
01/07/2022  23:42:00     -110.181      215.976      -22.859       77.776       78.736       47.322     6049.131     6199.332     2239.359        3.690        0.724      242.457       25.820        0.011      333.687        3.162      858.746
01/07/2022  23:43:00      -65.073      150.665      -18.384       70.708       65.668       44.032     4999.557     4312.334     1938.799        1.926        0.563      164.117       20.763        0.016      333.662        3.124      858.737
01/07/2022  23:44:00      -84.299      145.285      -16.480       48.417       82.414       41.975     2344.170     6792.044     1761.903        1.969        0.545      167.970       21.944        0.017      333.663        3.125      858.762
01/07/2022  23:45:00     -113.475      143.080      -24.272       62.120       67.227       43.825     3858.888     4519.404     1920.596        2.212        0.515      182.615       27.853        0.023      333.628        3.068      858.767
01/07/2022  23:46:00     -116.738      116.521      -14.500       74.846       64.917       41.201     5601.921     4214.222     1697.509        1.946        0.576      164.939       33.335        0.041      333.605        3.028      858.758
01/07/2022  23:47:00     -107.292      200.786      -25.869       77.050       65.032       44.619     5936.755     4229.123     1990.880        3.232        0.608      227.654       40.662        0.032      333.646        3.095      858.757
01/07/2022  23:48:00      -97.018       75.030      -45.378       62.291       74.235       51.902     3880.190     5510.769     2693.789        1.459        0.604      122.645       35.628        0.084      333.556        2.947      858.752
01/07/2022  23:49:00      -30.932       -9.430       -8.828       88.501       74.460       52.247     7832.401     5544.226     2729.782        0.861        0.805       32.337       34.565        1.143      333.561        2.957      858.737
01/07/2022  23:50:00      -48.895       45.839      -35.257       79.962       67.179       53.578     6393.900     4513.043     2870.570        0.975        0.689       67.022       22.641        0.114      333.586        2.997      858.719
01/07/2022  23:51:00      -68.472       47.484      -22.009       72.459       59.983       49.065     5250.255     3597.954     2407.356        0.934        0.563       83.325       38.842        0.217      333.592        3.009      858.710
01/07/2022  23:52:00     -197.546       48.029      -25.329      140.213       71.533       53.245    19659.632     5116.999     2835.015        3.479        1.381      203.300       40.010        0.039      333.621        3.056      858.731
01/07/2022  23:53:00     -106.377       53.901      -21.614       96.084       75.067       54.460     9232.075     5635.067     2965.868        1.626        0.892      119.254       24.210        0.041      333.613        3.043      858.740
01/07/2022  23:54:00     -161.061      156.620      -44.367      132.436      157.182       86.410    17539.322    24706.073     7466.689        5.107        2.486      224.656       72.182        0.103      333.793        3.339      858.712
01/07/2022  23:55:00      -51.670       97.633      -25.351      113.313      116.948       71.813    12839.806    13676.777     5157.169        2.225        1.584      110.463       26.366        0.057      333.928        3.562      858.657
01/07/2022  23:56:00      -50.776       34.329        6.007      165.079      104.694       66.080    27251.095    10960.901     4366.522        2.318        2.129       61.291       74.134        1.463      333.887        3.496      858.697
01/07/2022  23:57:00     -244.278       74.894      -37.766      186.537      103.710       79.858    34795.995    10755.812     6377.328        5.931        2.596      255.501       59.449        0.054      333.789        3.330      858.694
01/07/2022  23:58:00       -9.348       10.450      -13.414       68.855       80.859       59.247     4740.957     6538.146     3510.200        0.758        0.739       14.020       43.364        9.566      333.756        3.279      858.689
01/07/2022  23:59:00      -62.778       39.796      -15.184       87.145      102.947       54.390     7594.203    10598.157     2958.299        1.345        1.058       74.329       51.276        0.476      333.698        3.183      858.693
01/08/2022  00:00:00       33.231      -20.785        7.395       43.938       82.881       50.163     1930.522     6869.333     2516.304        0.645        0.566       39.196       15.477        0.156      333.636        3.082      858.676
01/08/2022  00:01:00     -247.234       60.449      -31.047      139.251       84.951       60.787    19390.776     7216.657     3695.011        4.802        1.515      254.516       32.246        0.016      333.667        3.131      858.684
01/08/2022  00:02:00     -252.496       54.893      -10.248      120.497       70.875       54.914    14519.532     5023.207     3015.519        4.471        1.128      258.394       53.352        0.043      333.617        3.046      858.697
01/08/2022  00:03:00     -230.162       68.149      -26.379      153.293      101.464       59.032    23498.839    10294.862     3484.754        4.779        1.864      240.039       61.345        0.065      333.645        3.094      858.706
01/08/2022  00:04:00     -289.465      108.970       -7.593       97.746       98.076       57.374     9554.294     9618.892     3291.773        5.909        1.123      309.297       56.255        0.033      333.692        3.172      858.712
01/08/2022  00:05:00     -230.588       37.414      -19.802      124.704       65.435       58.611    15551.143     4281.773     3435.225        3.911        1.163      233.603       60.493        0.067      333.664        3.125      858.725
01/08/2022  00:06:00     -221.149       30.608      -28.363      110.507       87.530       56.224    12211.782     7661.563     3161.104        3.684        1.152      223.257       45.847        0.042      333.690        3.168      858.741
01/08/2022  00:07:00      -58.298       40.265       -3.972      116.541       71.036       57.501    13581.854     5046.057     3306.409        1.348        1.097       70.851       52.368        0.546      333.743        3.256      858.754
01/08/2022  00:08:00     -154.607       34.817      -15.159       97.008       59.941       45.319     9410.642     3592.964     2053.852        2.020        0.753      158.479       28.448        0.032      333.688        3.166      858.774
01/08/2022  00:09:00     -294.127      121.854      -44.846       85.632       80.286       38.421     7332.899     6445.899     1476.210        5.931        0.763      318.369       33.506        0.011      333.838        3.411      858.795
01/08/2022  00:10:00     -169.449       75.953      -31.643      131.607       91.695       53.402    17320.523     8408.021     2851.767        3.203        1.429      185.693       56.349        0.092      333.785        3.324      858.802
01/08/2022  00:11:00     -143.412       77.945      -23.904       77.171       86.832       55.894     5955.326     7539.714     3124.111        2.191        0.831      163.225       37.398        0.052      333.910        3.533      858.817
01/08/2022  00:12:00     -206.031       51.713      -16.213      100.417       59.059       46.521    10083.487     3488.015     2164.223        3.056        0.787      212.422       41.003        0.037      333.849        3.429      858.838
01/08/2022  00:13:00      -80.450       29.523      -18.679      111.589       95.334       55.761    12452.081     9088.603     3109.316        1.617        1.232       85.696       46.522        0.295      333.929        3.565      858.855
01/08/2022  00:14:00     -160.909       40.244      -15.602       92.151       93.357       58.254     8491.751     8715.549     3393.503        2.417        1.030      165.865       44.210        0.071      333.960        3.615      858.877
01/08/2022  00:15:00     -191.704       61.251       -7.364       75.110       43.994       35.321     5641.445     1935.510     1247.590        2.469        0.441      201.251       31.651        0.025      333.930        3.565      858.899
01/08/2022  00:16:00     -197.423       56.234      -24.560       72.074       65.579       34.839     5194.709     4300.600     1213.787        2.672        0.535      205.275       23.084        0.013      334.018        3.710      858.910
01/08/2022  00:17:00     -199.426       50.591      -14.634       55.947       57.282       30.768     3130.025     3281.250      946.645        2.495        0.368      205.743       26.329        0.016      333.973        3.637      858.918
01/08/2022  00:18:00     -137.938       90.793      -22.904       41.603       43.700       25.545     1730.816     1909.651      652.570        1.604        0.215      165.138       18.131        0.012      334.064        3.789      858.936
01/08/2022  00:19:00     -118.917       54.758      -31.170       36.699       42.661       25.542     1346.784     1819.928      652.412        1.096        0.191      130.919       17.251        0.017      334.002        3.686      858.952
01/08/2022  00:20:00      -60.937       76.533      -26.975       37.758       32.353       19.764     1425.684     1046.719      390.608        0.658        0.143       97.830       10.629        0.012      333.910        3.536      858.959
01/08/2022  00:21:00      -94.532       81.600      -22.043       49.073       32.136       27.211     2408.191     1032.719      740.416        1.013        0.209      124.880       20.450        0.027      333.814        3.375      858.990
01/08/2022  00:22:00      -57.519      142.937      -14.528       40.984       68.136       29.443     1679.681     4642.552      866.879        1.557        0.359      154.076       25.783        0.028      333.781        3.320      859.006
01/08/2022  00:23:00      -77.800      119.607      -22.341       46.164       46.549       28.399     2131.128     2166.793      806.499        1.298        0.255      142.684       15.360        0.012      333.876        3.478      859.013
01/08/2022  00:24:00      -38.775       67.242      -14.705       34.601       21.489       19.799     1197.217      461.771      392.013        0.415        0.103       77.620        9.561        0.015      334.039        3.749      859.026
01/08/2022  00:25:00        3.318      107.048      -22.195       24.188       36.213       16.968      585.059     1311.402      287.903        0.707        0.109      107.099        7.857        0.005      334.011        3.703      859.029
01/08/2022  00:26:00      -35.676      101.036      -12.172       42.405       40.767       30.302     1798.159     1661.908      918.202        0.800        0.219      107.150       22.963        0.046      333.954        3.607      859.047
01/08/2022  00:27:00      -84.620      115.813      -24.781       99.547       79.065       33.739     9909.643     6251.293     1138.322        1.924        0.865      143.433       33.973        0.056      333.809        3.366      859.063
01/08/2022  00:28:00      -45.144      -17.770       -5.745       75.663       59.059       39.243     5724.828     3487.910     1539.979        0.657        0.538       48.516       31.808        0.430      333.668        3.135      859.081
01/08/2022  00:29:00     -115.049        9.077       -7.082       65.048       54.172       33.195     4231.303     2934.649     1101.941        1.082        0.413      115.406       24.404        0.045      334.070        3.800      859.053
01/08/2022  00:30:00      -95.087       77.740      -15.184       38.216       50.745       27.139     1460.438     2575.037      736.512        1.004        0.239      122.821       23.492        0.037      334.155        3.940      859.050
01/08/2022  00:31:00       54.681       61.335      -12.959       67.851       45.600       24.805     4603.747     2079.339      615.308        0.711        0.365       82.171       19.066        0.054      333.949        3.599      859.002
01/08/2022  00:32:00      -38.140      136.989      -22.827       82.730       56.556       28.226     6844.214     3198.558      796.725        1.579        0.542      142.199       17.508        0.015      333.864        3.458      858.982
01/08/2022  00:33:00      -84.343      138.600      -10.452       44.497       54.951       25.094     1979.992     3019.629      629.710        1.603        0.281      162.246       23.326        0.021      333.781        3.319      859.036
01/08/2022  00:34:00      -44.329      135.993      -14.071       32.442       41.152       22.716     1052.461     1693.520      516.028        1.196        0.163      143.036       16.570        0.013      333.816        3.378      859.020
01/08/2022  00:35:00      -72.684       93.392      -22.244       47.251       41.640       22.998     2232.614     1733.923      528.917        0.950        0.225      118.343       13.995        0.014      333.745        3.261      859.004
01/08/2022  00:36:00      -40.889       87.980      -10.623       38.259       48.972       28.269     1463.737     2398.221      799.135        0.709        0.233       97.018       19.541        0.041      333.666        3.132      859.009
01/08/2022  00:37:00        7.820      103.838      -14.069       35.045       35.764       23.385     1228.133     1279.056      546.854        0.705        0.153      104.132       16.653        0.026      333.714        3.212      859.004
01/08/2022  00:38:00       59.160      135.313      -21.205       36.861       49.502       28.244     1358.733     2450.441      797.739        1.343        0.230      147.680       29.055        0.039      333.694        3.177      859.003
01/08/2022  00:39:00       60.384      103.599      -12.640       41.346       44.402       30.094     1709.474     1971.527      905.631        0.956        0.229      119.913       29.212        0.059      333.581        2.990      859.036
01/08/2022  00:40:00        7.307       92.948       -7.010       45.687       49.493       32.334     2087.333     2449.568     1045.476        0.716        0.279       93.235       20.608        0.049      333.585        2.997      859.071
01/08/2022  00:41:00       52.149      114.819      -17.346       28.170       41.575       25.044      793.535     1728.477      627.182        0.968        0.157      126.107       20.988        0.028      333.609        3.038      859.088
01/08/2022  00:42:00       66.355       81.412       -3.081       38.013       41.806       23.244     1444.968     1747.716      540.294        0.739        0.187      105.028       16.286        0.024      333.442        2.761      859.100
01/08/2022  00:43:00       46.874      119.264       -6.400       39.570       40.291       29.438     1565.749     1623.382      866.612        1.026        0.203      128.145       23.058        0.032      333.490        2.840      859.106
01/08/2022  00:44:00       88.987       60.701      -18.883       28.050       25.138       21.975      786.815      631.921      482.904        0.693        0.095      107.719       13.141        0.015      333.318        2.556      859.109
01/08/2022  00:45:00       54.974       41.878      -14.023       27.030       37.853       16.024      730.611     1432.826      256.755        0.370        0.121       69.108        8.528        0.015      333.277        2.488      859.124
01/08/2022  00:46:00       40.141       51.628      -10.541       41.906       45.916       24.107     1756.090     2108.277      581.134        0.442        0.222       65.397       23.526        0.129      333.301        2.526      859.141
01/08/2022  00:47:00       89.275      114.281      -20.244       44.056       64.569       28.243     1940.917     4169.205      797.676        1.417        0.345      145.017       22.861        0.025      333.363        2.628      859.150
01/08/2022  00:48:00       22.580       88.309       -0.155       53.977       41.751       33.220     2913.467     1743.139     1103.540        0.703        0.288       91.150       28.905        0.101      333.378        2.656      859.162
01/08/2022  00:49:00       35.883      127.351      -16.203       45.452       35.940       27.261     2065.873     1291.653      743.135        1.093        0.205      132.309       19.591        0.022      333.423        2.729      859.165
01/08/2022  00:50:00       25.596      112.265       -5.380       35.936       39.327       23.945     1291.381     1546.584      573.364        0.835        0.171      115.146       19.777        0.030      333.397        2.687      859.161
01/08/2022  00:51:00        8.840      117.521      -18.324       43.550       33.048       30.508     1896.639     1092.200      930.730        0.907        0.196      117.853        7.681        0.004      333.457        2.785      859.169
01/08/2022  00:52:00      -35.158      108.337       -7.453       60.141       47.490       34.010     3616.909     2255.265     1156.685        1.003        0.351      113.899       16.195        0.020      333.359        2.624      859.175
01/08/2022  00:53:00      -36.398      107.717      -20.668       47.491       50.372       23.071     2255.366     2537.298      532.290        0.934        0.266      113.700       16.269        0.020      333.442        2.760      859.173
01/08/2022  00:54:00      -31.157      144.159      -16.039       32.512       66.753       26.008     1057.026     4455.989      676.442        1.410        0.309      147.488       30.876        0.044      333.391        2.675      859.177
01/08/2022  00:55:00      -67.373       92.847       -6.718       52.766       62.929       27.268     2784.199     3960.076      743.564        1.034        0.374      114.716       15.224        0.018      333.323        2.564      859.173
01/08/2022  00:56:00        3.453      176.175      -19.254       34.116       57.295       33.115     1163.925     3282.771     1096.622        1.848        0.277      176.209       28.589        0.026      333.325        2.567      859.166
01/08/2022  00:57:00      -77.913      109.540      -14.055       49.149       48.661       27.127     2415.648     2367.902      735.898        1.189        0.276      134.423       22.654        0.028      333.373        2.645      859.163
01/08/2022  00:58:00      -72.794      132.176      -12.355       37.229       38.266       26.673     1386.010     1464.262      711.450        1.324        0.178      150.896       16.553        0.012      333.433        2.745      859.155
01/08/2022  00:59:00      -48.802       22.887      -12.159       38.925       73.822       31.373     1515.167     5449.626      984.257        0.550        0.397       53.902       19.704        0.134      333.327        2.571      859.161
01/08/2022  01:00:00      -76.353      127.097      -25.227       65.728       86.431       26.278     4320.215     7470.390      690.526        1.755        0.624      148.268       24.537        0.027      333.333        2.580      859.171
01/08/2022  01:01:00      -85.189      161.773       -8.854       50.598       45.651       30.723     2560.130     2084.016      943.878        1.955        0.279      182.832       12.330        0.005      333.309        2.539      859.172
01/08/2022  01:02:00      -89.201      147.153      -27.345       71.119       53.373       27.073     5057.842     2848.718      732.925        1.950        0.432      172.078       18.322        0.011      333.308        2.535      859.184
01/08/2022  01:03:00      -89.987      113.602      -16.827       59.347       58.341       37.156     3522.061     3403.706     1380.598        1.479        0.415      144.924       11.953        0.007      333.291        2.511      859.165
01/08/2022  01:04:00     -117.764      192.618      -24.280       72.827       74.305       36.347     5303.750     5521.198     1321.073        3.185        0.607      225.765       20.867        0.009      333.226        2.399      859.174
01/08/2022  01:05:00     -120.746      172.018      -26.291       73.622       62.283       35.132     5420.250     3879.163     1234.274        2.770        0.527      210.166       23.755        0.013      333.224        2.398      859.181
01/08/2022  01:06:00     -103.982      221.287      -19.937       74.099       54.972       41.092     5490.697     3021.969     1688.579        3.519        0.510      244.500        8.025        0.001      333.235        2.414      859.185
01/08/2022  01:07:00      -76.074      255.747      -23.602       79.227       77.532       38.773     6276.870     6011.232     1503.352        4.277        0.690      266.822       10.933        0.002      333.269        2.470      859.175
01/08/2022  01:08:00      -87.510      252.388      -17.659      112.199      103.608       60.959    12588.636    10734.662     3716.057        4.935        1.352      267.129       61.719        0.053      333.247        2.434      859.157
01/08/2022  01:09:00      -41.213      187.900      -13.834       77.026      107.903       52.426     5932.971    11643.131     2748.497        2.876        1.016      192.367       34.849        0.033      333.301        2.524      859.177
01/08/2022  01:10:00      -85.787      304.532      -26.701       87.027       68.833       45.222     7573.674     4737.970     2044.998        5.758        0.718      316.385       27.839        0.008      333.287        2.499      859.198
01/08/2022  01:11:00     -109.153      202.268      -14.117       93.268       72.823       44.291     8698.850     5303.203     1961.729        3.449        0.798      229.840       24.645        0.011      333.215        2.381      859.215
01/08/2022  01:12:00      -66.834      204.293      -23.209       64.415       68.765       34.094     4149.351     4728.605     1162.424        2.839        0.502      214.948       18.183        0.007      333.207        2.368      859.230
01/08/2022  01:13:00      -75.571      216.939      -29.492       53.584       88.466       38.298     2871.259     7826.207     1466.747        3.290        0.608      229.725       15.745        0.005      333.160        2.291      859.246
01/08/2022  01:14:00      -76.824      163.365      -22.101      101.380       73.515       49.667    10277.808     5404.493     2466.844        2.561        0.907      180.527       32.077        0.032      333.090        2.177      859.256
01/08/2022  01:15:00      -71.514      144.601      -29.251       88.937       87.101       51.361     7909.710     7586.642     2637.991        2.250        0.907      161.318       19.682        0.015      333.004        2.034      859.232
01/08/2022  01:16:00      -58.327      172.197      -23.777       67.944       80.925       46.234     4616.337     6548.794     2137.622        2.346        0.665      181.807       32.203        0.031      333.003        2.031      859.216
01/08/2022  01:17:00      -54.228      187.890      -20.318       66.605       71.924       38.082     4436.255     5173.071     1450.264        2.486        0.553      195.559       31.267        0.026      332.996        2.021      859.216
01/08/2022  01:18:00      -75.158       83.697      -10.497       71.670       67.415       45.948     5136.622     4544.845     2111.254        1.228        0.590      112.489       36.014        0.103      332.925        1.905      859.228
01/08/2022  01:19:00      -72.179       79.447      -16.663       80.867       68.412       43.802     6539.476     4680.209     1918.627        1.247        0.657      107.339       53.663        0.250      332.900        1.862      859.256
01/08/2022  01:20:00       -8.283       27.897        4.282       43.201       55.275       32.758     1866.294     3055.319     1073.086        0.343        0.300       29.100       25.136        0.746      332.934        1.922      859.264
01/08/2022  01:21:00     -129.629       10.428      -28.630       58.022       30.925       25.630     3366.522      956.353      656.918        1.136        0.249      130.048       25.088        0.037      332.929        1.911      859.264
01/08/2022  01:22:00      -61.553      105.101       -6.908       40.141       53.867       26.087     1611.340     2901.648      680.531        1.004        0.260      121.799       18.531        0.023      332.936        1.923      859.306
01/08/2022  01:23:00      -55.006      146.175      -27.841       70.972       92.284       45.948     5037.044     8516.308     2111.176        2.041        0.783      156.182       21.220        0.018      333.013        2.048      859.326
01/08/2022  01:24:00      -31.261       39.096      -13.575       42.791       53.343       29.230     1831.102     2845.467      854.390        0.411        0.277       50.057       26.392        0.278      333.035        2.087      859.347
01/08/2022  01:25:00        0.481       65.229      -31.385       57.947       41.753       37.503     3357.814     1743.331     1406.510        0.587        0.325       65.231       31.296        0.230      333.098        2.191      859.355
01/08/2022  01:26:00       21.154       21.917      -18.701       28.064       48.204       27.900      787.581     2323.602      778.388        0.258        0.194       30.461       18.687        0.376      333.122        2.231      859.371
01/08/2022  01:27:00      -24.593      -24.520      -11.629       37.399       33.157       37.486     1398.689     1099.365     1405.201        0.262        0.195       34.729       11.151        0.103      333.160        2.295      859.398
01/08/2022  01:28:00      -78.658       -0.264       -6.987       55.433       37.634       32.203     3072.825     1416.341     1037.023        0.588        0.276       78.658       29.813        0.144      333.129        2.241      859.426
01/08/2022  01:29:00     -119.864      -19.689      -13.294       70.793       44.996       32.955     5011.673     2024.679     1086.041        1.153        0.406      121.470       29.629        0.059      333.120        2.226      859.465
01/08/2022  01:30:00      -75.311       -0.495       -2.141       77.455       50.589       32.515     5999.349     2559.242     1057.251        0.764        0.481       75.313       26.311        0.122      333.146        2.270      859.506
01/08/2022  01:31:00      -83.705      -12.345        7.671       84.700       58.334       52.903     7174.072     3402.859     2798.699        1.029        0.669       84.611       53.413        0.399      333.265        2.468      859.540
01/08/2022  01:32:00     -165.140      -12.914      -10.474       96.341       58.639       49.957     9281.638     3438.480     2495.672        2.138        0.761      165.645       43.421        0.069      333.290        2.507      859.582
01/08/2022  01:33:00     -105.219      -56.426      -13.898       51.047       70.605       34.323     2605.770     4985.084     1178.071        1.161        0.438      119.394       20.577        0.030      333.356        2.618      859.622
01/08/2022  01:34:00      -86.611      -32.650      -16.356       45.086       48.868       27.849     2032.738     2388.130      775.594        0.701        0.260       92.561       17.406        0.035      333.392        2.679      859.648
01/08/2022  01:35:00     -167.844      -85.484      -32.301       73.088       55.432       36.513     5341.919     3072.712     1333.166        2.313        0.487      188.359       19.124        0.010      333.368        2.637      859.672
01/08/2022  01:36:00     -151.876      -42.799      -22.213       86.329       46.878       38.727     7452.637     2197.531     1499.792        1.827        0.557      157.792       38.869        0.061      333.427        2.732      859.679
01/08/2022  01:37:00      -59.880       -5.578      -10.639       36.412       29.375       22.746     1325.817      862.909      517.384        0.322        0.135       60.139       16.796        0.078      333.430        2.741      859.687
01/08/2022  01:38:00      -71.035      -33.571      -11.095       61.761       41.170       25.830     3814.448     1694.965      667.165        0.624        0.309       78.569       21.621        0.076      333.410        2.706      859.697
01/08/2022  01:39:00      -69.798       54.790      -14.015       39.940       31.721       21.188     1595.181     1006.237      448.938        0.556        0.153       88.734       21.865        0.061      333.368        2.641      859.711
01/08/2022  01:40:00      -34.790       72.710        2.068       29.166       45.577       15.716      850.634     2077.237      246.992        0.484        0.159       80.605       11.986        0.022      333.310        2.543      859.732
01/08/2022  01:41:00      -65.515      156.174      -19.281       56.065       53.426       21.668     3143.242     2854.335      469.515        1.776        0.323      169.359       20.023        0.014      333.367        2.636      859.757
01/08/2022  01:42:00      -19.472      176.776      -25.090       47.713       77.428       33.752     2276.495     5995.097     1139.219        2.083        0.471      177.845       24.844        0.020      333.423        2.727      859.772
01/08/2022  01:43:00     -118.963       56.828      -30.143       66.281       65.986       44.998     4393.157     4354.140     2024.832        1.453        0.539      131.839       32.843        0.062      333.338        2.587      859.793
01/08/2022  01:44:00      -74.199      148.404      -30.360       77.064       81.529       34.592     5938.859     6646.994     1196.598        2.111        0.689      165.920       13.638        0.007      333.368        2.638      859.804
01/08/2022  01:45:00      -66.265      105.106       -8.186       75.159       98.972       42.170     5648.857     9795.375     1778.311        1.636        0.861      124.251       39.305        0.100      333.351        2.609      859.807
01/08/2022  01:46:00      -95.802       21.154       -5.706       64.916       52.679       43.507     4214.136     2775.095     1892.875        0.927        0.444       98.110       26.131        0.071      333.337        2.588      859.817
01/08/2022  01:47:00     -171.018       71.096      -35.546       74.821       64.233       41.146     5598.248     4125.858     1693.029        2.349        0.571      185.208       23.891        0.017      333.338        2.586      859.820
01/08/2022  01:48:00     -151.689       46.335      -25.557      101.899       68.485       64.848    10383.333     4690.192     4205.305        2.254        0.964      158.608       50.971        0.103      333.349        2.607      859.840
01/08/2022  01:49:00     -182.266       83.893      -28.160       67.729       56.625       37.851     4587.177     3206.377     1432.725        2.514        0.461      200.646       38.511        0.037      333.266        2.467      859.856
01/08/2022  01:50:00      -62.793       17.844      -25.452       54.811       42.895       39.563     3004.291     1839.940     1565.224        0.566        0.320       65.279       13.332        0.042      333.229        2.407      859.846
01/08/2022  01:51:00       30.022      151.405      -19.255       70.732       90.739       36.088     5003.086     8233.483     1302.353        1.936        0.727      154.353       37.120        0.058      333.287        2.502      859.830
01/08/2022  01:52:00      -42.915      270.105      -25.946       71.253       65.195       48.731     5077.009     4250.420     2374.686        4.358        0.585      273.493       25.877        0.009      333.285        2.497      859.819
01/08/2022  01:53:00      -80.519      163.908      -26.001       84.751       65.482       49.669     7182.777     4287.880     2467.018        2.398        0.697      182.617       41.160        0.051      333.295        2.514      859.823
01/08/2022  01:54:00     -102.735      157.871      -37.041       82.453       85.584       55.867     6798.435     7324.683     3121.142        2.704        0.862      188.355       36.930        0.038      333.348        2.603      859.835
01/08/2022  01:55:00      -22.497      200.478      -19.475       48.482       65.469       34.764     2350.495     4286.251     1208.569        2.446        0.392      201.736       21.357        0.011      333.306        2.532      859.834
01/08/2022  01:56:00      -56.439      121.575      -16.470       48.656       68.797       23.939     2367.395     4733.086      573.095        1.295        0.384      134.036       23.679        0.031      333.281        2.493      859.836
01/08/2022  01:57:00      -71.534      102.923      -14.443       42.796       46.496       27.994     1831.469     2161.914      783.669        1.035        0.239      125.341       19.184        0.023      333.343        2.597      859.860
01/08/2022  01:58:00      -75.882      194.319      -14.643       45.186       54.882       26.764     2041.760     3012.060      716.324        2.475        0.289      208.609       15.456        0.005      333.443        2.759      859.893
01/08/2022  01:59:00      -77.941       56.350      -16.359       45.887       50.778       33.079     2105.584     2578.431     1094.198        0.765        0.289       96.177       26.737        0.077      333.380        2.659      859.911
01/08/2022  02:00:00      -77.357       49.046      -15.327       66.711       41.903       34.865     4450.422     1755.893     1215.562        0.802        0.371       91.595       15.085        0.027      333.349        2.608      859.922
01/08/2022  02:01:00      -31.520      137.654      -17.875       56.498       49.178       24.980     3192.071     2418.491      623.986        1.325        0.312      141.217        6.705        0.002      333.347        2.603      859.931
01/08/2022  02:02:00      -39.171       67.377      -10.925       44.824       61.022       29.150     2009.220     3723.742      849.714        0.639        0.329       77.936       24.008        0.095      333.386        2.667      859.945
01/08/2022  02:03:00      -25.247       59.152      -10.851       32.097       41.944       20.726     1030.236     1759.268      429.560        0.374        0.161       64.315       13.186        0.042      333.337        2.588      859.966
01/08/2022  02:04:00      -17.922      127.046      -16.418       39.778       42.515       21.909     1582.319     1807.503      479.983        1.030        0.193      128.304        8.010        0.004      333.415        2.714      859.984
01/08/2022  02:05:00      -35.882       99.868       -7.909       41.728       43.403       26.265     1741.210     1883.804      689.840        0.782        0.216      106.118       16.785        0.025      333.491        2.841      859.993
01/08/2022  02:06:00       15.482       90.547      -26.509       48.069       75.798       31.822     2310.651     5745.412     1012.618        0.910        0.453       91.862       31.879        0.120      333.525        2.897      860.011
01/08/2022  02:07:00       -7.653       48.682      -19.693       25.908       33.857       26.575      671.240     1146.266      706.215        0.267        0.126       49.280       14.191        0.083      333.418        2.719      860.032
01/08/2022  02:08:00       -1.415      -23.139      -13.987       17.290       25.251       18.874      298.957      637.623      356.214        0.101        0.065       23.182       20.534        0.785      333.355        2.617      860.053
01/08/2022  02:09:00      -51.769      -41.326      -25.330       32.446       23.647       24.635     1052.762      559.200      606.883        0.362        0.111       66.241       11.439        0.030      333.364        2.633      860.086
01/08/2022  02:10:00       58.113     -107.489      -40.186       60.241       45.046       29.450     3628.930     2029.100      867.306        1.153        0.326      122.193       30.940        0.064      333.248        2.438      860.113
01/08/2022  02:11:00       72.359      -65.405      -26.165       53.347       71.331       39.662     2845.880     5088.078     1573.071        0.985        0.475       97.538       33.030        0.115      333.308        2.539      860.136
01/08/2022  02:12:00        3.567     -101.236      -41.420       53.729       39.763       31.583     2886.834     1581.087      997.474        0.872        0.273      101.299       32.237        0.101      333.244        2.432      860.170
01/08/2022  02:13:00      -41.151       -8.181       -6.832       40.343       27.184       23.480     1627.567      738.948      551.322        0.236        0.146       41.956       13.614        0.105      333.232        2.412      860.213
01/08/2022  02:14:00       20.673      -11.517       -7.362       17.708       20.515       13.527      313.571      420.874      182.979        0.077        0.046       23.664        6.165        0.068      333.234        2.415      860.245
01/08/2022  02:15:00       -2.511       -8.970       -6.866       16.223       25.746       14.874      263.200      662.866      221.223        0.064        0.057        9.315        9.374        1.013      333.260        2.456      860.256
01/08/2022  02:16:00       19.943      -54.018      -36.280       40.687       59.273       35.041     1655.393     3513.249     1227.875        0.551        0.320       57.582       31.331        0.296      333.268        2.472      860.244
01/08/2022  02:17:00       61.938      -45.815      -20.777       44.064       56.742       36.117     1941.607     3219.640     1304.449        0.642        0.323       77.041       24.548        0.102      333.183        2.330      860.250
01/08/2022  02:18:00       22.833      -86.082      -23.118       37.110       48.054       26.510     1377.135     2309.159      702.795        0.643        0.219       89.059       22.663        0.065      333.201        2.362      860.266
01/08/2022  02:19:00       -8.758      -38.212      -19.608       25.332       52.262       20.633      641.700     2731.283      425.704        0.286        0.190       39.203       17.537        0.200      333.173        2.314      860.304
01/08/2022  02:20:00      -49.971      -14.024      -13.497       33.085       27.836       22.520     1094.607      774.865      507.158        0.263        0.119       51.901        7.495        0.021      333.310        2.541      860.329
01/08/2022  02:21:00      -21.176      -10.628      -10.779       28.470       17.257       22.302      810.550      297.803      497.365        0.114        0.080       23.693       13.679        0.333      333.187        2.338      860.326
01/08/2022  02:22:00      -27.331       10.257      -17.613       25.559       22.372       17.954      653.278      500.522      322.329        0.132        0.074       29.192       14.332        0.241      333.242        2.428      860.317
01/08/2022  02:23:00      -18.003       11.205      -12.501       14.091       23.971       11.506      198.546      574.619      132.378        0.076        0.045       21.205        4.559        0.046      333.060        2.129      860.310
01/08/2022  02:24:00      -39.748       -8.014       -0.431       23.271       22.605       18.671      541.556      511.002      348.615        0.152        0.070       40.548       12.198        0.090      333.137        2.255      860.302
01/08/2022  02:25:00      -41.569        7.816      -12.202       42.996       31.490       19.341     1848.638      991.632      374.073        0.258        0.161       42.298        9.537        0.051      333.119        2.225      860.284
01/08/2022  02:26:00      -57.944      -15.154        6.784       59.950       36.149       25.075     3593.983     1306.753      628.749        0.458        0.276       59.893       26.319        0.193      333.099        2.192      860.273
01/08/2022  02:27:00      -94.683       -0.689        5.440       43.757       38.590       26.926     1914.692     1489.214      725.017        0.656        0.206       94.686       24.208        0.065      333.080        2.162      860.265
01/08/2022  02:28:00      -54.484      -10.978        8.933       48.024       33.709       29.808     2306.349     1136.321      888.509        0.375        0.217       55.579       22.925        0.170      333.095        2.187      860.280
01/08/2022  02:29:00     -101.396       24.497       -4.552       66.099       41.126       26.760     4369.142     1691.325      716.076        0.884        0.339      104.313       12.098        0.013      333.050        2.111      860.318
01/08/2022  02:30:00      -59.315        6.007        8.185       55.169       37.232       29.413     3043.654     1386.249      865.145        0.446        0.265       59.618       22.163        0.138      332.966        1.973      860.332
01/08/2022  02:31:00     -116.137       24.757       -6.954       29.431       26.587       20.735      866.205      706.846      429.945        0.808        0.100      118.746       16.891        0.020      332.904        1.868      860.319
01/08/2022  02:32:00      -38.006       14.809       -0.476       35.777       15.208       13.122     1279.993      231.279      172.195        0.167        0.084       40.789       14.870        0.133      332.892        1.852      860.305
01/08/2022  02:33:00      -24.668       18.798        0.150       41.980       15.774       18.905     1762.280      248.815      357.397        0.166        0.118       31.014       21.474        0.479      332.902        1.870      860.337
01/08/2022  02:34:00     -163.980       39.417      -17.670       64.795       50.458       34.636     4198.333     2546.050     1199.659        1.835        0.397      168.651       22.283        0.017      332.849        1.778      860.389
01/08/2022  02:35:00      -65.307       11.755      -24.061      112.785       56.343       44.926    12720.404     3174.589     2018.356        1.144        0.896       66.356       31.359        0.223      332.729        1.581      860.436
01/08/2022  02:36:00     -143.368      106.874      -22.687      114.050       66.050       42.841    13007.434     4362.569     1835.320        2.584        0.960      178.820       30.836        0.030      333.073        2.149      860.465
01/08/2022  02:37:00      -85.267       37.137      -14.523       38.226       56.802       31.671     1461.194     3226.441     1003.058        0.727        0.285       93.003       18.589        0.040      333.279        2.490      860.499
01/08/2022  02:38:00     -138.856       23.019       -6.293       38.938       42.001       23.024     1516.178     1764.092      530.121        1.183        0.191      140.751       16.396        0.014      333.193        2.349      860.537
01/08/2022  02:39:00      -82.917       -5.839       -4.672       51.188       28.890       23.711     2620.191      834.634      562.203        0.547        0.201       83.122       22.800        0.075      333.081        2.162      860.576
01/08/2022  02:40:00     -118.655        7.529       -5.309       43.666       36.402       24.942     1906.708     1325.135      622.087        0.901        0.193      118.894       17.041        0.021      333.011        2.049      860.596
01/08/2022  02:41:00      -74.037       -7.331        2.329       52.726       39.763       26.848     2780.021     1581.056      720.821        0.531        0.254       74.399       24.489        0.108      332.980        1.997      860.612
01/08/2022  02:42:00     -123.501      -21.662      -14.332       57.359       27.435       23.589     3290.092      752.672      556.446        1.026        0.230      125.386       28.352        0.051      332.924        1.904      860.618
01/08/2022  02:43:00      -92.684       41.185      -12.400       29.511       23.898       20.558      870.906      571.114      422.619        0.615        0.093      101.422       12.515        0.015      332.909        1.878      860.616
01/08/2022  02:44:00      -74.924       36.897      -13.706       22.865       25.016       14.564      522.821      625.823      212.107        0.426        0.068       83.516        6.774        0.007      332.872        1.819      860.617
01/08/2022  02:45:00     -133.672       40.800       -7.475       50.786       33.767       22.597     2579.171     1140.232      510.637        1.191        0.212      139.760       17.638        0.016      332.808        1.712      860.627
01/08/2022  02:46:00     -104.835       57.606      -18.050       36.938       30.250       21.383     1364.426      915.051      457.238        0.869        0.137      119.620       20.407        0.029      332.729        1.580      860.641
01/08/2022  02:47:00      -50.926       17.069       -7.184       35.068       22.766       19.097     1229.765      518.302      364.685        0.252        0.106       53.711       20.564        0.147      332.716        1.561      860.641
01/08/2022  02:48:00      -17.910       39.082       -6.312       21.278       19.064       11.628      452.752      363.431      135.221        0.142        0.048       42.991        7.252        0.028      332.727        1.579      860.643
01/08/2022  02:49:00        1.133        1.092      -10.244        5.516        5.946        7.839       30.429       35.357       61.448        0.012        0.006        1.574        4.435        7.944      332.727        1.578      860.655
01/08/2022  02:50:00       28.755       34.798      -10.353       25.204       45.402       26.569      635.265     2061.302      705.917        0.277        0.170       45.142       17.437        0.149      332.838        1.763      860.669
01/08/2022  02:51:00       79.534       -2.601      -20.292       73.041       70.509       44.777     5335.017     4971.560     2005.019        0.953        0.616       79.577       38.169        0.230      332.920        1.896      860.677
01/08/2022  02:52:00      123.317      -41.542      -17.942       57.599       48.876       44.386     3317.685     2388.888     1970.088        1.246        0.384      130.126       32.550        0.063      332.891        1.850      860.684
01/08/2022  02:53:00       95.356       -8.273      -37.272       50.598       59.183       35.605     2560.130     3502.619     1267.687        0.894        0.367       95.714       14.214        0.022      332.983        2.001      860.667
01/08/2022  02:54:00       72.093      -25.197      -36.101       50.757       52.084       33.871     2576.241     2712.764     1147.263        0.678        0.322       76.369       21.763        0.081      332.917        1.892      860.654
01/08/2022  02:55:00      109.015      -30.267      -44.404       55.881       57.970       29.637     3122.683     3360.495      878.335        1.107        0.368      113.139       13.268        0.014      332.896        1.856      860.656
01/08/2022  02:56:00       56.895      -52.751      -28.251       64.946       66.326       30.918     4218.001     4399.126      955.892        0.819        0.479       77.587       33.689        0.189      332.823        1.737      860.684
01/08/2022  02:57:00       48.953      -22.330      -22.969       43.739       57.274       35.450     1913.090     3280.258     1256.682        0.494        0.323       53.806       20.734        0.148      332.904        1.870      860.711
01/08/2022  02:58:00       -9.837      -30.592      -19.558       49.570       35.743       26.451     2457.151     1277.539      699.643        0.292        0.222       32.135       24.599        0.586      332.873        1.818      860.723
01/08/2022  02:59:00       29.811      -80.940      -17.698       33.891       38.715       25.117     1148.618     1498.820      630.852        0.552        0.164       86.255       15.268        0.031      332.845        1.774      860.751
01/08/2022  03:00:00       27.072        6.930      -10.430       19.836       28.060       18.458      393.482      787.346      340.694        0.121        0.076       27.945        6.553        0.055      332.682        1.503      860.782
01/08/2022  03:01:00       24.547       17.686      -14.370       14.761       23.929       11.455      217.889      572.603      131.206        0.102        0.046       30.255        7.766        0.066      332.573        1.323      860.813
01/08/2022  03:02:00       33.907       29.053       -8.381       17.502       23.191       15.115      306.316      537.840      228.466        0.157        0.054       44.652       12.068        0.073      332.392        1.024      860.837
01/08/2022  03:03:00       34.444       51.478      -11.451       22.654       21.669       15.735      513.215      469.539      247.599        0.260        0.062       61.938        6.620        0.011      332.293        0.860      860.849
01/08/2022  03:04:00       25.921       34.079       -5.364       16.905       14.934       11.790      285.788      223.031      139.000        0.125        0.032       42.816       11.113        0.067      332.359        0.969      860.854
01/08/2022  03:05:00       37.992       21.590      -13.185       19.736       22.455       15.174      389.501      504.232      230.265        0.160        0.056       43.698        4.575        0.011      332.425        1.079      860.868
01/08/2022  03:06:00       61.470       42.299       -9.796       12.417       15.478       10.372      154.171      239.571      107.571        0.308        0.025       74.618        7.183        0.009      332.419        1.069      860.862
01/08/2022  03:07:00       76.197       26.321       -9.605       11.498       10.116       10.249      132.211      102.338      105.051        0.347        0.017       80.615        7.428        0.008      332.414        1.059      860.865
01/08/2022  03:08:00       88.426       16.350      -13.630       15.935       13.352        9.891      253.909      178.271       97.823        0.440        0.027       89.925        7.876        0.008      332.450        1.118      860.866
01/08/2022  03:09:00      116.132       28.703      -10.794       16.969       18.591       13.490      287.956      345.635      181.988        0.762        0.041      119.626        8.344        0.005      332.469        1.151      860.874
01/08/2022  03:10:00      103.417       18.096       -6.597       23.239       29.075       16.474      540.073      845.333      271.391        0.636        0.083      104.988       13.483        0.016      332.453        1.124      860.875
01/08/2022  03:11:00      111.576       36.155      -17.148       53.890       42.273       25.693     2904.124     1787.009      660.110        0.970        0.268      117.287       23.750        0.041      332.447        1.114      860.823
01/08/2022  03:12:00      136.291       49.183      -30.552       43.004       40.552       23.579     1849.310     1644.432      555.954        1.299        0.202      144.894       16.087        0.012      332.367        0.983      860.776
01/08/2022  03:13:00      141.464       13.059      -17.151       37.185       32.535       20.403     1382.706     1058.506      416.277        1.167        0.143      142.066       15.043        0.011      332.371        0.991      860.767
01/08/2022  03:14:00      138.367       18.472       -9.206       39.337       26.792       22.654     1547.420      717.816      513.190        1.117        0.139      139.595       19.087        0.019      332.275        0.833      860.762
01/08/2022  03:15:00      106.488       11.644       -0.800       36.150       24.398       22.583     1306.849      595.250      510.003        0.694        0.121      107.123       21.661        0.041      332.183        0.679      860.759
01/08/2022  03:16:00       91.640        0.708      -10.355       44.640       27.043       23.370     1992.694      731.305      546.164        0.589        0.164       91.643       10.681        0.014      332.232        0.759      860.768
01/08/2022  03:17:00      135.076        5.600      -14.974       41.089       28.134       27.645     1688.304      791.498      764.251        1.087        0.162      135.192       16.493        0.015      332.561        1.305      860.784
01/08/2022  03:18:00       67.575       -0.531      -14.256       56.599       35.003       27.461     3203.483     1225.185      754.103        0.498        0.259       67.577       17.996        0.071      332.450        1.120      860.812
01/08/2022  03:19:00       64.161       -9.782       -4.873       51.675       31.097       30.059     2670.283      967.029      903.530        0.439        0.227       64.902       23.262        0.128      332.329        0.920      860.841
01/08/2022  03:20:00      101.264       -8.109        0.314       51.342       33.411       29.906     2635.984     1116.309      894.389        0.748        0.232      101.588       22.458        0.049      332.325        0.915      860.855
01/08/2022  03:21:00      136.243       -2.627       -4.501       42.064       29.350       22.556     1769.365      861.428      508.769        1.086        0.157      136.268       13.981        0.011      332.342        0.941      860.867
01/08/2022  03:22:00       15.049      -25.149       -1.752       50.832       40.048       29.440     2583.853     1603.841      866.686        0.296        0.253       29.308       23.768        0.658      332.711        1.552      860.876
01/08/2022  03:23:00       26.803      -57.935      -10.005       25.601       51.024       30.021      655.421     2603.495      901.232        0.417        0.208       63.835       24.667        0.149      332.820        1.733      860.891
01/08/2022  03:24:00       19.227      -12.653       -8.532       18.486       35.649       27.010      341.729     1270.843      729.513        0.147        0.117       23.017       12.425        0.291      332.734        1.591      860.916
01/08/2022  03:25:00       23.159      -15.790      -11.248       24.043       31.439       21.658      578.086      988.394      469.083        0.147        0.102       28.029       11.051        0.155      332.760        1.634      860.933
01/08/2022  03:26:00       13.683       -5.326      -16.781       16.036       21.711       22.893      257.144      471.382      524.084        0.087        0.063       14.684       13.529        0.849      332.695        1.524      860.941
01/08/2022  03:27:00       37.086        8.070      -21.220       31.570       28.266       13.583      996.668      798.980      184.490        0.194        0.099       37.954       10.349        0.074      332.711        1.552      860.934
01/08/2022  03:28:00       39.991       -1.965       -9.079       30.758       17.603       14.918      946.025      309.883      222.537        0.158        0.074       40.039       11.051        0.076      332.751        1.618      860.923
01/08/2022  03:29:00        3.901       15.409       -8.933       27.168       21.401       22.350      738.103      458.022      499.527        0.101        0.085       15.895       19.027        1.433      332.692        1.522      860.897
01/08/2022  03:30:00       -1.062      -16.128       -5.347       24.296       23.354       14.284      590.273      545.429      204.039        0.081        0.067       16.163       14.475        0.802      332.678        1.497      860.865
01/08/2022  03:31:00      -23.506      -16.954      -12.771       25.836       34.582       20.332      667.515     1195.921      413.394        0.164        0.114       28.982       11.701        0.163      332.637        1.429      860.817
01/08/2022  03:32:00      -22.741      -39.481       -1.675       14.090       23.047       15.006      198.529      531.152      225.195        0.152        0.048       45.562        8.086        0.031      332.727        1.578      860.777
01/08/2022  03:33:00      -44.907      -49.725      -10.276       27.146       24.059       17.538      736.910      578.847      307.598        0.311        0.081       67.002       10.789        0.026      333.106        2.204      860.742
01/08/2022  03:34:00       -5.207      -36.621       -9.620       34.286       25.474       26.171     1175.555      648.946      684.936        0.198        0.125       36.989       23.577        0.406      333.071        2.148      860.733
01/08/2022  03:35:00      -40.186      -22.198      -17.796       25.506       16.529       21.260      650.577      273.192      451.996        0.190        0.069       45.909       12.548        0.075      333.037        2.090      860.731
01/08/2022  03:36:00      -25.348      -13.319      -18.920       25.715       13.156       14.182      661.251      173.082      201.126        0.111        0.052       28.634       11.525        0.162      333.017        2.057      860.729
01/08/2022  03:37:00        9.439       -8.868      -11.142       11.830       16.416       13.215      139.943      269.485      174.623        0.044        0.029       12.952        9.140        0.498      333.016        2.056      860.714
01/08/2022  03:38:00       29.756       29.785       -7.011       22.380       20.580       11.947      500.878      423.551      142.731        0.144        0.053       42.102       13.540        0.103      332.795        1.692      860.699
01/08/2022  03:39:00       23.787       31.097       -4.766       27.067       22.684       17.847      732.607      514.569      318.519        0.156        0.078       39.152        7.702        0.039      332.836        1.759      860.693
01/08/2022  03:40:00        5.275        1.384       -8.668       22.799       39.704       14.751      519.801     1576.446      217.593        0.121        0.116        5.454       17.611       10.428      332.739        1.598      860.680
01/08/2022  03:41:00       47.994     -128.642      -23.278       28.766       44.007       25.744      827.475     1936.591      662.744        1.141        0.171      137.303       24.688        0.032      332.840        1.764      860.664
01/08/2022  03:42:00       50.205     -118.017      -31.864       35.813       32.748       23.219     1282.602     1072.440      539.129        1.018        0.145      128.251       14.443        0.013      332.757        1.629      860.659
01/08/2022  03:43:00       -8.753      -30.411       -6.046       41.112       42.904       32.650     1690.160     1840.716     1066.004        0.282        0.230       31.646       13.950        0.194      332.799        1.698      860.665
01/08/2022  03:44:00       61.023      -67.126      -24.966       46.871       51.102       30.387     2196.898     2611.378      923.351        0.729        0.287       90.718       31.015        0.117      332.813        1.720      860.683
01/08/2022  03:45:00       33.595      -69.793      -32.189       44.239       50.641       41.305     1957.115     2564.535     1706.128        0.663        0.311       77.458       27.531        0.126      332.856        1.791      860.692
01/08/2022  03:46:00       65.259     -103.833      -34.063       38.448       44.729       33.903     1478.251     2000.710     1149.439        1.041        0.231      122.638       22.005        0.032      332.735        1.591      860.699
01/08/2022  03:47:00       83.338     -114.605      -32.899       48.255       32.407       27.831     2328.575     1050.227      774.570        1.266        0.208      141.702       28.929        0.042      332.671        1.487      860.711
01/08/2022  03:48:00       73.230     -126.862      -26.222       32.969       34.587       25.321     1086.936     1196.293      641.174        1.253        0.146      146.481       21.346        0.021      332.720        1.565      860.725
01/08/2022  03:49:00       33.648      -51.035      -17.712       35.634       53.327       34.957     1269.797     2843.817     1221.999        0.469        0.267       61.129       25.398        0.173      332.844        1.771      860.740
01/08/2022  03:50:00       27.727      -40.042       -6.313       36.848       61.351       27.930     1357.758     3763.901      780.092        0.416        0.295       48.705       24.690        0.257      332.729        1.581      860.770
01/08/2022  03:51:00       76.406       24.856      -34.643       36.701       45.493       23.241     1346.954     2069.642      540.148        0.581        0.198       80.347       21.958        0.075      332.580        1.335      860.801
01/08/2022  03:52:00      104.081       25.987      -18.312       49.220       39.645       24.754     2422.577     1571.730      612.758        0.822        0.230      107.276       16.803        0.025      332.565        1.311      860.839
01/08/2022  03:53:00        5.320        7.974       -0.189       41.475       46.200       22.980     1720.212     2134.417      528.091        0.224        0.219        9.585       16.271        2.881      332.680        1.500      860.866
01/08/2022  03:54:00       32.152        9.915       -9.516       34.753       18.912       14.718     1207.765      357.674      216.628        0.150        0.089       33.646       10.191        0.092      332.377        0.999      860.873
01/08/2022  03:55:00       53.949       12.207      -11.996       28.738       28.475       16.801      825.875      810.847      282.259        0.256        0.096       55.313        7.977        0.021      332.526        1.245      860.868
01/08/2022  03:56:00        7.672       26.303      -14.616       36.904       24.170       17.332     1361.894      584.181      300.391        0.160        0.112       27.399       17.345        0.401      332.439        1.101      860.860
01/08/2022  03:57:00      -18.203      -12.107       -3.408        7.368       11.695        9.377       54.295      136.766       87.933        0.038        0.014       21.862        4.957        0.051      332.528        1.248      860.853
01/08/2022  03:58:00      -50.866        5.944       -7.989       21.738       20.374        9.454      472.526      415.114       89.371        0.183        0.049       51.212        7.319        0.020      332.477        1.166      860.839
01/08/2022  03:59:00      -29.690        5.476       -5.666       29.811       16.383       13.649      888.720      268.403      186.288        0.114        0.067       30.191       11.925        0.156      332.427        1.081      860.826
01/08/2022  04:00:00      -61.796        7.269       -4.258       42.416       20.044       19.029     1799.147      401.760      362.104        0.323        0.128       62.222       11.425        0.034      332.509        1.218      860.813
01/08/2022  04:01:00      -84.707        7.246       -7.005       29.709       20.612       18.605      882.615      424.850      346.145        0.446        0.083       85.017       14.277        0.028      332.558        1.299      860.785
01/08/2022  04:02:00      -62.865        9.667       -6.512       50.512       25.364       16.200     2551.510      643.342      262.442        0.377        0.173       63.604        8.126        0.016      332.641        1.437      860.754
01/08/2022  04:03:00      -69.385        2.235       -1.769       41.288       25.230       23.322     1704.724      636.560      543.895        0.385        0.144       69.421       22.370        0.104      332.603        1.374      860.731
01/08/2022  04:04:00      -80.324       -2.717       -7.695       28.853       23.258       19.389      832.511      540.943      375.917        0.413        0.087       80.370       13.178        0.027      332.651        1.453      860.704
01/08/2022  04:05:00      -57.457        1.975       -6.951       32.451       19.984       14.604     1053.057      399.368      213.286        0.251        0.083       57.491       15.611        0.074      332.649        1.449      860.689
01/08/2022  04:06:00      -11.576        5.568        5.904       17.348       20.851       14.784      300.967      434.764      218.579        0.058        0.048       12.846       12.112        0.889      332.593        1.356      860.673
01/08/2022  04:07:00       -5.495      -12.397       -6.413       39.139       21.932       14.564     1531.843      481.031      212.104        0.122        0.111       13.560        6.479        0.228      332.612        1.387      860.667
01/08/2022  04:08:00      -14.456       -5.359       -0.319       25.821       20.088       19.393      666.703      403.523      376.087        0.084        0.072       15.418       11.800        0.586      332.606        1.378      860.658
01/08/2022  04:09:00      -20.112      -19.661      -17.515       17.794       35.316       28.826      316.640     1247.212      830.944        0.175        0.120       28.125       14.887        0.280      332.548        1.282      860.662
01/08/2022  04:10:00       -7.300      -18.590       -5.724       22.112       34.102       29.410      488.932     1162.957      864.956        0.147        0.126       19.972       12.432        0.387      332.496        1.195      860.673
01/08/2022  04:11:00       -5.445       45.818       -6.563       27.619       16.738       14.811      762.822      280.171      219.359        0.172        0.063       46.140       10.111        0.048      332.486        1.179      860.689
01/08/2022  04:12:00       13.667       27.683       -3.062       24.174       16.121       13.341      584.404      259.875      177.981        0.099        0.051       30.873       16.026        0.269      332.223        0.744      860.715
01/08/2022  04:13:00       37.311       42.229      -12.195       15.315       12.705       11.709      234.540      161.420      137.110        0.193        0.027       56.351        3.763        0.004      331.969        0.327      860.751
01/08/2022  04:14:00        9.039       20.927       -5.902       24.847       12.677        8.310      617.359      160.717       69.060        0.070        0.042       22.796        8.359        0.134      331.942        0.283      860.778
01/08/2022  04:15:00      -54.291       31.244      -17.789       26.674       17.672       13.211      711.503      312.295      174.540        0.272        0.060       62.639       11.558        0.034      332.080        0.511      860.788
01/08/2022  04:16:00      -79.508        8.671      -16.233       37.812       25.756       16.574     1429.728      663.388      274.708        0.451        0.118       79.980       10.395        0.017      332.136        0.600      860.786
01/08/2022  04:17:00      -35.740       13.615       -5.909       41.072       30.192       19.333     1686.932      911.537      373.770        0.223        0.149       38.245        8.899        0.054      332.107        0.552      860.774
01/08/2022  04:18:00      -86.128       17.108       -2.989       50.954       30.307       23.198     2596.350      918.521      538.132        0.589        0.203       87.810       22.476        0.066      332.090        0.526      860.763
01/08/2022  04:19:00     -104.296       35.325       -7.098       30.339       27.450       17.244      920.427      753.508      297.341        0.707        0.099      110.116        9.381        0.007      332.128        0.588      860.762
01/08/2022  04:20:00      -58.399        4.720        1.342       33.749       19.332       17.265     1138.984      373.725      298.067        0.262        0.091       58.589       18.831        0.103      332.114        0.566      860.758
01/08/2022  04:21:00      -21.429       23.015        0.333       14.705       17.310       10.189      216.244      299.620      103.815        0.080        0.031       31.447        6.922        0.048      332.055        0.469      860.769
01/08/2022  04:22:00       -0.702       36.975       -2.824       15.706       21.849       12.653      246.689      477.362      160.105        0.113        0.044       36.982        8.563        0.054      332.144        0.614      860.789
01/08/2022  04:23:00       36.003       16.289      -12.628       15.811       19.399       12.146      249.981      376.330      147.534        0.125        0.039       39.516        7.737        0.038      332.242        0.777      860.814
01/08/2022  04:24:00       38.930       49.353       -0.034       26.346       31.039       25.170      694.134      963.416      633.530        0.312        0.115       62.859       15.376        0.060      332.162        0.645      860.858
01/08/2022  04:25:00       33.985       -7.124      -11.939       49.750       30.832       22.810     2475.110      950.588      520.278        0.265        0.197       34.724       17.146        0.244      331.967        0.322      860.901
01/08/2022  04:26:00       72.182      -17.385      -21.616       35.134       27.756       19.950     1234.383      770.374      398.004        0.419        0.120       74.246       16.399        0.049      331.844        0.122      860.939
01/08/2022  04:27:00       72.072       11.174      -13.957       19.713       15.289       13.018      388.586      233.760      169.473        0.315        0.040       72.933        9.675        0.018      331.953        0.300      860.977
01/08/2022  04:28:00       44.549       -0.014       -4.496       22.299        6.173        6.037      497.256       38.102       36.448        0.129        0.029       44.549        7.645        0.029      332.092        0.532      860.996
01/08/2022  04:29:00       31.513        9.174       -3.880        5.463        2.860        3.279       29.848        8.177       10.754        0.057        0.002       32.822        2.189        0.004      332.166        0.653      860.988
01/08/2022  04:30:00        1.720        9.977       -5.100       13.657        5.759        3.374      186.521       33.168       11.382        0.018        0.012       10.124        2.475        0.060      332.202        0.708      860.979
01/08/2022  04:31:00      -41.587        5.588      -15.499       14.199       17.489        8.135      201.611      305.880       66.174        0.129        0.029       41.961        7.974        0.036      332.075        0.502      860.968
01/08/2022  04:32:00       -2.765       -2.211       -5.276       16.766       12.696       14.347      281.112      161.194      205.837        0.034        0.032        3.541       11.871       11.240      332.043        0.448      860.965
01/08/2022  04:33:00      -16.750       -4.485      -11.669       39.585       17.098       14.376     1567.005      292.327      206.676        0.125        0.103       17.340       12.522        0.522      332.041        0.447      860.967
01/08/2022  04:34:00     -102.132       -4.713       -6.750       31.845       29.835       17.373     1014.096      890.127      301.816        0.635        0.110      102.241       15.003        0.022      332.123        0.581      860.979
01/08/2022  04:35:00     -129.932       44.501       -2.226       40.202       26.187       18.486     1616.207      685.768      341.735        1.076        0.132      137.341       16.360        0.014      332.099        0.541      860.998
01/08/2022  04:36:00     -145.117       23.843       -3.580       41.905       35.141       21.641     1756.032     1234.892      468.335        1.255        0.173      147.062       20.678        0.020      332.098        0.540      861.021
01/08/2022  04:37:00     -147.227       37.518       -0.667       46.965       36.538       28.828     2205.745     1335.038      831.045        1.373        0.219      151.932       26.103        0.030      332.082        0.513      861.047
01/08/2022  04:38:00     -100.355        1.720       -3.044       57.349       40.867       29.900     3288.915     1670.148      894.009        0.797        0.293      100.369       26.170        0.068      332.093        0.530      861.067
01/08/2022  04:39:00     -122.571       78.827      -26.449       62.297       32.966       28.091     3880.913     1086.733      789.129        1.385        0.288      145.730       29.591        0.041      332.131        0.593      861.094
01/08/2022  04:40:00     -148.551       53.822      -19.764       37.219       28.359       22.067     1385.273      804.239      486.970        1.402        0.134      158.001       19.604        0.015      332.128        0.588      861.119
01/08/2022  04:41:00     -113.862       23.188      -16.974       30.836       31.894       21.810      950.863     1017.239      475.687        0.812        0.122      116.199       14.497        0.016      332.124        0.581      861.130
01/08/2022  04:42:00      -35.072        6.937      -18.767       69.174       23.030       27.370     4785.079      530.375      749.111        0.385        0.303       35.752       29.245        0.669      332.188        0.686      861.143
01/08/2022  04:43:00      -97.881        9.867       -8.189       60.765       37.774       44.856     3692.365     1426.890     2012.102        0.844        0.357       98.377       39.920        0.165      332.128        0.587      861.155
01/08/2022  04:44:00     -186.239       69.006      -14.081       73.238       59.081       28.539     5363.784     3490.534      814.451        2.466        0.483      198.612       18.595        0.009      332.013        0.398      861.166
01/08/2022  04:45:00     -188.828       77.978      -28.946       55.734       53.658       31.406     3106.278     2879.127      986.310        2.477        0.349      204.295       20.599        0.010      331.966        0.320      861.158
01/08/2022  04:46:00      -53.592       18.267      -22.473       54.760       47.060       47.638     2998.711     2214.660     2269.342        0.560        0.374       56.619       34.591        0.373      331.996        0.371      861.133
01/08/2022  04:47:00      -38.774       -6.445       -6.813       62.467       57.665       41.583     3902.107     3325.295     1729.130        0.527        0.448       39.306       37.698        0.920      331.965        0.320      861.120
01/08/2022  04:48:00      -44.045       18.186       -7.365       49.773       56.833       26.819     2477.381     3229.982      719.254        0.437        0.321       47.652       17.910        0.141      331.942        0.282      861.100
01/08/2022  04:49:00      -79.526       30.148      -32.873       74.271       58.300       36.749     5516.214     3398.864     1350.493        0.929        0.513       85.048       33.862        0.159      331.893        0.203      861.081
01/08/2022  04:50:00      -46.667       15.936      -17.343       49.406       62.355       34.208     2440.950     3888.120     1170.179        0.511        0.375       49.313       29.897        0.368      331.894        0.206      861.063
01/08/2022  04:51:00      -26.593       -9.876       -5.349       80.683       41.172       30.446     6509.695     1695.105      926.979        0.498        0.457       28.368       23.467        0.684      331.940        0.281      861.057
01/08/2022  04:52:00     -128.095        7.998       -2.546       59.281       38.528       33.195     3514.260     1484.425     1101.930        1.129        0.305      128.345       29.932        0.054      331.989        0.359      861.060
01/08/2022  04:53:00     -100.882       13.846       -6.158       34.008       26.519       19.269     1156.557      703.237      371.299        0.632        0.112      101.827       13.829        0.018      332.005        0.385      861.069
01/08/2022  04:54:00      -69.097       -6.852        0.095       53.896       44.835       29.408     2904.829     2010.179      864.814        0.530        0.289       69.436       27.172        0.153      332.138        0.605      861.083
01/08/2022  04:55:00     -128.848      -13.276      -19.134       56.023       41.088       35.643     3138.571     1688.237     1270.447        1.162        0.305      129.530       19.259        0.022      332.215        0.732      861.113
01/08/2022  04:56:00      -96.397       -4.509       -7.806       72.317       35.633       34.805     5229.795     1269.730     1211.364        0.854        0.386       96.503       32.662        0.115      332.196        0.699      861.146
01/08/2022  04:57:00     -135.438      -20.575      -12.548       64.509       41.878       36.133     4161.450     1753.799     1305.614        1.307        0.361      136.992       34.916        0.065      332.193        0.695      861.177
01/08/2022  04:58:00     -142.543       -4.089       -6.311       68.120       47.773       38.129     4640.303     2282.281     1453.853        1.437        0.419      142.601       33.059        0.054      332.275        0.831      861.198
01/08/2022  04:59:00     -128.974       -5.962       -5.735       45.911       39.630       30.108     2107.840     1570.505      906.477        1.064        0.229      129.112       26.639        0.043      332.300        0.872      861.200
01/08/2022  05:00:00     -111.260      -11.137      -11.045       57.090       28.762       23.047     3259.287      827.229      531.155        0.862        0.231      111.815       24.735        0.049      332.344        0.946      861.194
01/08/2022  05:01:00     -162.373      -17.110       -5.340       55.773       45.798       31.438     3110.574     2097.492      988.353        1.644        0.310      163.272       24.913        0.023      332.509        1.217      861.178
01/08/2022  05:02:00     -138.947        0.089      -13.144       42.521       43.232       26.668     1808.009     1869.014      711.158        1.193        0.219      138.947       17.239        0.015      332.590        1.353      861.173
01/08/2022  05:03:00      -78.941      -11.962       -2.122       42.571       38.222       24.007     1812.319     1460.901      576.360        0.511        0.192       79.842       19.788        0.061      332.539        1.268      861.179
01/08/2022  05:04:00      -30.601      -10.741       -8.945       35.774       32.550       24.211     1279.802     1059.492      586.169        0.203        0.146       32.431       14.919        0.212      332.576        1.329      861.196
01/08/2022  05:05:00      -16.866       27.599       -6.580       22.591       25.379       11.633      510.336      644.096      135.330        0.119        0.064       32.344        9.762        0.091      332.595        1.361      861.230
01/08/2022  05:06:00       25.939       23.531       -9.940       20.600       23.609       12.030      424.370      557.384      144.719        0.123        0.056       35.022        9.258        0.070      332.426        1.081      861.266
01/08/2022  05:07:00       45.979       25.430      -17.657       23.024       16.506       12.056      530.089      272.450      145.354        0.201        0.047       52.543        8.863        0.028      332.174        0.665      861.304
01/08/2022  05:08:00       45.498       18.395      -12.894       15.285       15.296        9.789      233.642      233.958       95.815        0.157        0.028       49.076        4.151        0.007      332.125        0.582      861.346
01/08/2022  05:09:00       79.601       48.493      -22.376       21.476       15.664       17.148      461.208      245.347      294.061        0.509        0.050       93.209        7.054        0.006      332.108        0.556      861.394
01/08/2022  05:10:00       99.659       31.560      -22.352       35.120       31.327       24.520     1233.436      981.408      601.232        0.712        0.141      104.537        9.758        0.009      332.096        0.537      861.456
01/08/2022  05:11:00      113.194       27.355      -18.520       44.614       34.824       24.532     1990.433     1212.692      601.825        0.885        0.190      116.453       12.419        0.011      331.900        0.215      861.530
01/08/2022  05:12:00      104.481       45.786      -14.999       54.874       36.584       23.181     3011.104     1338.356      537.365        0.906        0.244      114.072       20.422        0.032      331.740       -0.050      861.609
01/08/2022  05:13:00      151.152       37.943      -21.709       39.149       46.293       23.508     1532.654     2143.072      552.603        1.449        0.211      155.842       11.308        0.005      331.715       -0.091      861.682
01/08/2022  05:14:00      199.402       67.016       -9.631       41.133       43.717       22.473     1691.903     1911.157      505.026        2.423        0.205      210.362       13.473        0.004      331.589       -0.301      861.724
01/08/2022  05:15:00      117.585       21.611      -10.229       46.266       30.324       20.829     2140.567      919.520      433.844        0.895        0.175      119.554       15.546        0.017      331.565       -0.339      861.750
01/08/2022  05:16:00      113.911       24.989       -8.860       25.995       22.993       14.492      675.747      528.677      210.020        0.755        0.071      116.620       11.472        0.010      331.638       -0.219      861.756
01/08/2022  05:17:00       95.580       34.601       -9.585       11.154       13.452        9.959      124.401      180.960       99.185        0.541        0.020      101.650        3.307        0.001      331.721       -0.080      861.751
01/08/2022  05:18:00       86.176       28.460      -13.187       14.582       15.820        9.268      212.634      250.277       85.902        0.448        0.027       90.754        8.047        0.008      331.792        0.035      861.736
01/08/2022  05:19:00      102.739       19.155      -16.275       10.903       11.173        9.274      118.865      124.844       86.004        0.576        0.016      104.509        6.902        0.004      331.801        0.052      861.729
01/08/2022  05:20:00      100.856       21.675      -22.934       27.417       28.111       18.337      751.694      790.215      336.236        0.652        0.094      103.158       12.487        0.015      332.003        0.382      861.717
01/08/2022  05:21:00        3.214       30.382      -13.015       51.094       35.527       21.418     2610.570     1262.199      458.729        0.272        0.217       30.552       19.398        0.403      331.902        0.216      861.715
01/08/2022  05:22:00      -32.483        9.067       -0.469       29.151       36.655       23.457      849.781     1343.578      550.234        0.194        0.137       33.725       12.899        0.146      331.961        0.314      861.703
01/08/2022  05:23:00       13.737      -42.011       -9.970       25.511       32.275       21.162      650.789     1041.687      447.811        0.210        0.107       44.200       17.311        0.153      332.011        0.399      861.701
01/08/2022  05:24:00        9.160      -31.250      -13.380        9.445        9.798        7.531       89.215       96.002       56.710        0.074        0.012       32.565        5.339        0.027      331.984        0.355      861.710
01/08/2022  05:25:00      -13.397       -7.500       -5.474       13.484        9.651       10.733      181.831       93.151      115.194        0.033        0.020       15.354        4.355        0.080      332.047        0.455      861.730
01/08/2022  05:26:00       -6.280       -7.311       -3.397        6.345        9.975        9.916       40.259       99.491       98.325        0.017        0.012        9.638        5.586        0.336      332.038        0.441      861.764
01/08/2022  05:27:00       22.227       -2.659       -0.926       28.753       29.517       10.179      826.742      871.224      103.607        0.115        0.090       22.386       11.962        0.286      331.890        0.197      861.817
01/08/2022  05:28:00       42.714        8.777      -10.938       32.337       29.841       13.617     1045.688      890.481      185.426        0.207        0.106       43.607       11.079        0.065      331.726       -0.072      861.868
01/08/2022  05:29:00       91.848      -19.688      -23.536       45.050       30.067       22.501     2029.482      904.034      506.310        0.641        0.172       93.935       20.789        0.049      331.794        0.039      861.918
01/08/2022  05:30:00       43.784        1.098        4.553       56.597       38.917       36.643     3203.268     1514.540     1342.711        0.400        0.303       43.797       33.362        0.580      331.707       -0.102      861.955
01/08/2022  05:31:00       44.466        4.518        4.945       60.641       56.004       45.855     3677.378     3136.464     2102.675        0.547        0.446       44.695       38.924        0.758      331.827        0.093      861.962
01/08/2022  05:32:00       53.275       -4.082      -22.173       62.197       61.291       49.193     3868.421     3756.527     2419.990        0.669        0.502       53.431       38.072        0.508      331.891        0.200      861.974
01/08/2022  05:33:00       66.469      -58.260      -22.773       66.331       71.014       37.945     4399.807     5042.996     1439.821        0.960        0.544       88.388       26.887        0.093      331.966        0.323      861.985
01/08/2022  05:34:00       77.583      -83.484      -36.511       39.714       69.847       26.614     1577.231     4878.618      708.325        1.074        0.358      113.968       12.858        0.013      331.951        0.298      861.993
01/08/2022  05:35:00      106.059     -103.844      -32.548       64.183       59.383       36.946     4119.495     3526.294     1365.018        1.605        0.451      148.432       28.502        0.037      332.356        0.963      862.007
01/08/2022  05:36:00       73.492     -103.830      -26.676       80.898       67.661       33.684     6544.431     4578.040     1134.620        1.457        0.613      127.207       43.163        0.115      332.422        1.073      862.022
01/08/2022  05:37:00       -7.413        2.721      -16.649       36.844       35.804       27.361     1357.507     1281.928      748.608        0.186        0.169        7.896       16.584        4.411      332.229        0.755      862.053
01/08/2022  05:38:00       42.743       53.491       -1.379       57.518       40.676       26.921     3308.306     1654.505      724.725        0.519        0.284       68.471       21.844        0.102      331.973        0.333      862.075
01/08/2022  05:39:00       96.580       13.740      -18.918       34.719       41.486       23.563     1205.405     1721.114      555.208        0.668        0.174       97.552       14.755        0.023      332.050        0.460      862.094
01/08/2022  05:40:00       75.950       18.669      -16.489       29.902       29.776       21.691      894.116      886.637      470.489        0.432        0.113       78.210       12.350        0.025      331.919        0.245      862.112
01/08/2022  05:41:00       86.424        7.042      -19.557       12.844       14.828        9.003      164.959      219.875       81.062        0.418        0.023       86.710        5.577        0.004      331.792        0.035      862.117
01/08/2022  05:42:00       89.104       16.666      -16.736       16.409       21.828       15.160      269.246      476.448      229.827        0.474        0.049       90.649        9.404        0.011      332.001        0.380      862.108
01/08/2022  05:43:00       62.337       24.942       -9.069        8.526       13.995        8.423       72.685      195.860       70.952        0.246        0.017       67.141        5.785        0.007      331.790        0.034      862.104
01/08/2022  05:44:00       49.672       47.435       -7.455       14.287        8.497        8.957      204.122       72.205       80.231        0.256        0.018       68.683        5.344        0.006      331.831        0.098      862.109
01/08/2022  05:45:00       53.739       54.550      -13.733       14.980       13.851       12.689      224.398      191.848      161.009        0.331        0.029       76.574        9.630        0.016      331.896        0.206      862.119
01/08/2022  05:46:00       69.617       37.084       -6.998       19.184       12.541       11.405      368.043      157.271      130.084        0.346        0.033       78.878        9.165        0.014      332.184        0.680      862.126
01/08/2022  05:47:00       74.705       27.691      -10.987       14.554       15.616       15.218      211.805      243.844      231.586        0.358        0.034       79.672        8.914        0.013      332.110        0.558      862.130
01/08/2022  05:48:00       72.530       24.650       -6.910       13.126       12.158        6.567      172.284      147.818       43.127        0.314        0.018       76.604        5.105        0.004      332.269        0.822      862.145
01/08/2022  05:49:00       45.859       33.470       -0.203       17.730       13.397        7.822      314.343      179.469       61.182        0.189        0.028       56.774        8.130        0.021      332.155        0.635      862.177
01/08/2022  05:50:00       42.188       20.405       -4.856       11.868        8.409        5.920      140.854       70.709       35.043        0.123        0.012       46.863        4.184        0.008      332.171        0.659      862.217
01/08/2022  05:51:00      -15.827       15.244       -8.993       17.016        9.920       10.296      289.540       98.405      106.002        0.053        0.025       21.974        7.613        0.120      332.025        0.420      862.256
01/08/2022  05:52:00      -17.711       10.217       -8.414       22.800       15.046       12.468      519.833      226.370      155.452        0.070        0.045       20.447        9.641        0.222      331.929        0.260      862.282
01/08/2022  05:53:00     -100.216       24.560      -10.902       26.775       23.924       16.684      716.888      572.352      278.348        0.617        0.078      103.181        7.335        0.005      331.809        0.065      862.289
01/08/2022  05:54:00      -60.529       21.976       -3.480       50.899       20.216       19.689     2590.674      408.683      387.676        0.377        0.169       64.395       20.217        0.099      331.738       -0.054      862.286
01/08/2022  05:55:00      -62.924        6.961       -6.842       39.116       26.556       17.921     1530.053      705.205      321.179        0.331        0.128       63.308       13.454        0.045      331.747       -0.038      862.264
01/08/2022  05:56:00      -62.007        8.793       -5.665       45.098       35.419       23.589     2033.838     1254.470      556.464        0.390        0.192       62.627       18.056        0.083      331.819        0.081      862.227
01/08/2022  05:57:00      -39.401       -6.280        5.978       40.002       36.696       29.274     1600.136     1346.630      856.994        0.271        0.190       39.898       26.426        0.439      331.803        0.055      862.189
01/08/2022  05:58:00      -44.917      -15.533        2.890       53.265       33.600       27.805     2837.166     1128.978      773.126        0.350        0.237       47.527       25.354        0.285      331.815        0.075      862.158
01/08/2022  05:59:00     -116.428       -5.315      -12.954       73.890       46.336       36.984     5459.711     2147.069     1367.837        1.136        0.449      116.549       30.282        0.068      331.642       -0.212      862.147
01/08/2022  06:00:00     -143.022      -13.709       -2.593       72.627       39.943       40.023     5274.711     1595.439     1601.807        1.456        0.424      143.678       42.144        0.086      331.651       -0.198      862.146
01/08/2022  06:01:00      -83.963      -13.944        3.482       69.398       39.390       33.404     4816.052     1551.575     1115.839        0.737        0.374       85.113       26.641        0.098      331.752       -0.030      862.160
01/08/2022  06:02:00     -163.395        3.394      -13.704       56.287       52.266       34.200     3168.241     2731.712     1169.630        1.698        0.353      163.430       25.449        0.024      331.637       -0.220      862.192
01/08/2022  06:03:00      -87.971       -0.401       -6.991       38.637       42.896       24.692     1492.798     1840.042      609.686        0.586        0.197       87.972       23.227        0.070      331.599       -0.281      862.231
01/08/2022  06:04:00     -112.612       -1.762      -14.025       43.155       28.698       20.390     1862.346      823.575      415.756        0.799        0.155      112.626        9.302        0.007      331.616       -0.253      862.271
01/08/2022  06:05:00      -52.449       -2.561       -3.908       59.012       17.490       18.598     3482.391      305.891      345.893        0.345        0.207       52.511       14.142        0.073      331.632       -0.227      862.316
01/08/2022  06:06:00      -55.040        5.960       -6.365       38.075       22.920       18.985     1449.689      525.337      360.436        0.272        0.117       55.362       13.786        0.062      331.639       -0.215      862.352
01/08/2022  06:07:00     -100.434       -5.358       -7.695       35.550       26.599       22.994     1263.829      707.528      528.704        0.634        0.125      100.577       16.672        0.027      331.616       -0.254      862.382
01/08/2022  06:08:00      -88.127       14.377      -11.679       35.350       23.862       16.136     1249.589      569.375      260.384        0.509        0.104       89.292       14.740        0.027      331.639       -0.215      862.420
01/08/2022  06:09:00      -70.676       17.530        2.261       36.921       27.978       18.089     1363.185      782.774      327.226        0.389        0.124       72.818       18.250        0.063      331.571       -0.328      862.445
01/08/2022  06:10:00      -66.035       16.514        0.028       35.639       23.593       21.994     1270.145      556.623      483.715        0.347        0.116       68.069       22.877        0.113      331.591       -0.296      862.479
01/08/2022  06:11:00      -59.370       11.046       -5.493       31.165       25.467       16.321      971.235      648.561      266.391        0.278        0.094       60.389       14.695        0.059      331.727       -0.069      862.502
01/08/2022  06:12:00      -48.285       -1.341       -8.033       21.031       25.417       14.908      442.295      646.032      222.248        0.185        0.066       48.303        7.767        0.026      331.747       -0.037      862.525
01/08/2022  06:13:00      -58.127       21.243       -6.540       20.551       14.345       13.656      422.335      205.779      186.489        0.234        0.041       61.887        9.197        0.022      331.513       -0.425      862.536
01/08/2022  06:14:00      -49.531       21.052       -6.716       20.016       15.741       12.315      400.653      247.793      151.649        0.187        0.040       53.819        8.215        0.023      331.422       -0.574      862.539
01/08/2022  06:15:00      -23.752       -0.406        2.990       15.402       16.785       11.736      237.214      281.733      137.735        0.061        0.033       23.755        8.280        0.121      331.414       -0.588      862.534
01/08/2022  06:16:00      -17.486       -5.418       -8.278       17.681       21.824       13.260      312.612      476.268      175.819        0.068        0.048       18.306       10.695        0.341      331.615       -0.256      862.528
01/08/2022  06:17:00      -31.788       -0.990      -14.635       25.887       20.126       14.525      670.148      405.054      210.977        0.126        0.064       31.803        2.890        0.008      331.582       -0.310      862.530
01/08/2022  06:18:00      -35.980       16.064       -1.764       25.455       19.022       12.139      647.934      361.828      147.366        0.136        0.058       39.403       12.334        0.098      331.453       -0.523      862.549
01/08/2022  06:19:00      -19.572       64.026       -6.490       18.291       23.343        7.743      334.558      544.901       59.958        0.273        0.047       66.951        8.897        0.018      331.466       -0.503      862.572
01/08/2022  06:20:00       -0.232       95.570       -7.966       15.502       20.875       16.897      240.321      435.784      285.513        0.508        0.048       95.571       11.686        0.015      331.544       -0.373      862.603
01/08/2022  06:21:00       -7.345       99.501      -11.954       10.888       19.227        9.114      118.540      369.660       83.068        0.533        0.029       99.772        8.211        0.007      331.834        0.106      862.629
01/08/2022  06:22:00       18.915       43.057      -15.987       21.096       20.525       16.686      445.045      421.266      278.435        0.181        0.057       47.028        8.348        0.032      331.550       -0.363      862.665
01/08/2022  06:23:00       31.979       19.636      -13.741       23.574       21.417       14.088      555.740      458.680      198.475        0.140        0.061       37.527        6.461        0.030      331.285       -0.798      862.701
01/08/2022  06:24:00       22.897       36.514      -12.716       20.666       20.955       16.032      427.077      439.126      257.016        0.157        0.056       43.100       13.401        0.097      331.308       -0.759      862.743
01/08/2022  06:25:00        1.713       31.847       -0.187       24.290        9.063        6.309      589.980       82.132       39.805        0.086        0.036       31.893        6.454        0.041      331.460       -0.511      862.775
01/08/2022  06:26:00      -24.467       25.371      -11.974       19.108       17.657       11.063      365.101      311.773      122.390        0.109        0.040       35.247        9.124        0.067      331.369       -0.660      862.805
01/08/2022  06:27:00      -37.425       17.258       -8.831       14.471       16.831       12.891      209.409      283.294      166.183        0.122        0.033       41.212        8.400        0.042      331.289       -0.790      862.830
01/08/2022  06:28:00       -8.668       12.997       -6.296       12.497       22.608       11.132      156.164      511.131      123.916        0.054        0.040       15.622        6.136        0.154      331.314       -0.751      862.843
01/08/2022  06:29:00       38.132       94.819      -10.890       32.605       27.925       18.936     1063.083      779.802      358.588        0.638        0.110      102.199        9.303        0.008      331.678       -0.150      862.859
01/08/2022  06:30:00       91.778       83.855      -13.885       38.058       30.513       22.479     1448.393      931.071      505.287        0.927        0.144      124.317       17.065        0.019      331.570       -0.331      862.879
01/08/2022  06:31:00      111.062       70.133      -30.638       19.329       17.374       16.003      373.616      301.864      256.089        0.956        0.047      131.352        7.807        0.004      331.441       -0.543      862.896
01/08/2022  06:32:00       89.596       36.549      -26.570       23.531       19.255       18.360      553.707      370.744      337.097        0.567        0.063       96.764        9.530        0.010      331.523       -0.407      862.907
01/08/2022  06:33:00       52.804       11.727       -8.914       21.237       16.596       12.092      451.003      275.429      146.215        0.194        0.044       54.091        7.724        0.020      331.478       -0.482      862.915
01/08/2022  06:34:00       14.456       -1.017       -3.583       13.937       16.467       10.830      194.231      271.175      117.281        0.040        0.029       14.491        5.313        0.134      331.542       -0.376      862.920
01/08/2022  06:35:00        1.856        9.266       -6.813        9.607       12.420        8.221       92.297      154.266       67.580        0.022        0.016        9.450        5.589        0.350      331.460       -0.511      862.917
01/08/2022  06:36:00       24.789       25.043       -1.785       17.934       21.185        6.592      321.616      448.800       43.458        0.103        0.041       35.237        7.657        0.047      331.388       -0.629      862.916
01/08/2022  06:37:00       61.647       46.278       -6.230       10.719       11.163        7.600      114.905      124.620       57.767        0.314        0.015       77.084        7.056        0.008      331.513       -0.425      862.912
01/08/2022  06:38:00       90.686       35.062      -10.851       16.599       18.716       12.249      275.518      350.287      150.049        0.517        0.039       97.228        9.486        0.010      331.459       -0.513      862.902
01/08/2022  06:39:00       50.689       23.809      -12.982       19.170       15.086        9.130      367.504      227.597       83.351        0.199        0.034       56.002        5.261        0.009      331.416       -0.584      862.893
01/08/2022  06:40:00       -7.278       16.799      -10.137       19.493        8.523        7.241      379.986       72.639       52.427        0.047        0.025       18.308        3.466        0.036      331.432       -0.557      862.880
01/08/2022  06:41:00      -97.511       28.909      -15.206       23.607       21.036       13.852      557.278      442.516      191.873        0.588        0.060      101.706       11.061        0.012      331.315       -0.749      862.876
01/08/2022  06:42:00     -100.011       44.697       -9.418       40.215       26.652       26.493     1617.227      710.350      701.876        0.756        0.151      109.545       21.843        0.040      331.314       -0.751      862.879
01/08/2022  06:43:00      -88.908       23.774       -7.548       31.473       20.306       17.294      990.575      412.316      299.096        0.511        0.085       92.032       15.581        0.029      331.401       -0.608      862.889
01/08/2022  06:44:00      -27.176        1.589      -13.410       24.243       14.128       14.243      587.732      199.605      202.857        0.096        0.050       27.222       12.405        0.208      331.430       -0.561      862.904
01/08/2022  06:45:00      -49.022       28.852       -6.620       30.195       32.210       13.711      911.745     1037.498      187.990        0.271        0.107       56.883       15.238        0.072      331.462       -0.508      862.925
01/08/2022  06:46:00     -111.404       54.592      -16.069       21.601       18.690       13.140      466.598      349.319      172.661        0.832        0.049      124.061        8.115        0.004      331.439       -0.546      862.956
01/08/2022  06:47:00     -102.246       30.097      -10.250       29.905       23.416       17.192      894.310      548.320      295.577        0.660        0.087      106.583       14.552        0.019      331.353       -0.687      862.989
01/08/2022  06:48:00      -99.162       33.527      -12.334       24.625       21.609       17.600      606.408      466.940      309.772        0.625        0.069      104.676       13.015        0.015      331.344       -0.701      863.011
01/08/2022  06:49:00     -100.132       32.941      -11.969       24.348       21.120       18.650      592.835      446.037      347.830        0.632        0.069      105.411       15.532        0.022      331.407       -0.597      863.017
01/08/2022  06:50:00      -68.711       16.147       -7.961       38.711       25.081       15.820     1498.552      629.076      250.274        0.371        0.119       70.582       17.196        0.059      331.423       -0.572      863.005
01/08/2022  06:51:00      -70.961       27.931       -3.473       36.053       23.007       13.830     1299.821      529.321      191.259        0.392        0.101       76.260        7.614        0.010      331.478       -0.481      862.992
01/08/2022  06:52:00     -129.775       63.382      -16.428       29.807       21.702       20.980      888.470      470.980      440.171        1.146        0.090      144.426       19.625        0.018      331.333       -0.719      862.966
01/08/2022  06:53:00     -115.219       59.228      -11.760       37.045       29.438       23.608     1372.299      866.610      557.331        0.986        0.140      129.551       22.731        0.031      331.277       -0.811      862.954
01/08/2022  06:54:00     -105.540       35.759      -21.862       36.567       26.649       17.900     1337.129      710.187      320.398        0.763        0.118      111.434       20.973        0.035      331.376       -0.650      862.931
01/08/2022  06:55:00      -88.030       47.363      -17.094       36.983       28.922       20.626     1367.708      836.482      425.441        0.646        0.131       99.963       14.194        0.020      331.349       -0.693      862.912
01/08/2022  06:56:00      -52.954       10.177      -10.414       71.101       27.595       23.948     5055.282      761.480      573.489        0.470        0.320       53.923       21.148        0.154      331.233       -0.883      862.902
01/08/2022  06:57:00      -60.510       -1.073       -2.018       46.524       44.016       26.739     2164.477     1937.415      714.993        0.424        0.241       60.519       12.221        0.041      331.192       -0.951      862.906
01/08/2022  06:58:00      -85.451       10.227       -6.836       64.714       36.781       26.632     4187.928     1352.838      709.248        0.685        0.313       86.060       19.272        0.050      331.199       -0.939      862.904
01/08/2022  06:59:00     -125.501        3.837      -10.230       61.440       34.481       28.956     3774.930     1188.940      838.421        1.084        0.290      125.560       31.154        0.062      331.241       -0.870      862.912
01/08/2022  07:00:00      -70.802       42.221      -11.678       56.798       52.876       30.627     3225.972     2795.843      938.012        0.694        0.348       82.435       18.288        0.049      331.219       -0.906      862.928
01/08/2022  07:01:00     -124.475       88.953      -23.336       35.246       42.914       21.397     1242.290     1841.648      457.816        1.375        0.177      152.992       12.440        0.007      331.177       -0.977      862.944
01/08/2022  07:02:00      -63.184       37.088       -8.287       45.681       46.882       36.185     2086.786     2197.902     1309.354        0.551        0.280       73.265       22.417        0.094      331.178       -0.974      862.966
01/08/2022  07:03:00     -108.677       35.297      -32.747       23.326       34.268       22.205      544.084     1174.290      493.057        0.817        0.111      114.266       15.362        0.018      331.209       -0.923      862.987
01/08/2022  07:04:00      -90.926       21.988      -21.298       24.997       24.271       17.323      624.848      589.105      300.103        0.536        0.076       93.547       10.161        0.012      331.213       -0.916      863.005
01/08/2022  07:05:00     -118.658       72.756       -8.605       31.225       23.142       15.508      975.011      535.563      240.485        1.060        0.088      139.187       14.760        0.011      331.202       -0.934      863.022
01/08/2022  07:06:00     -104.661       54.379      -11.900       33.450       22.871       22.510     1118.924      523.083      506.686        0.810        0.107      117.945       16.813        0.020      331.198       -0.942      863.041
01/08/2022  07:07:00     -111.989       50.062      -18.434       27.288       32.419       23.484      744.613     1051.009      551.505        0.887        0.117      122.670       12.823        0.011      331.197       -0.941      863.058
01/08/2022  07:08:00     -118.408       39.195      -17.189       39.024       26.274       25.559     1522.854      690.312      653.237        0.936        0.143      124.726       24.671        0.039      331.145       -1.029      863.080
01/08/2022  07:09:00     -119.625       54.869      -21.561       40.129       26.440       23.902     1610.359      699.058      571.298        1.033        0.144      131.608       12.618        0.009      331.201       -0.936      863.099
01/08/2022  07:10:00      -76.045        1.298       -6.786       63.186       41.622       34.010     3992.410     1732.390     1156.702        0.635        0.344       76.056       35.340        0.216      331.179       -0.972      863.116
01/08/2022  07:11:00      -54.762       33.537       -5.182       61.233       43.883       30.236     3749.464     1925.718      914.189        0.537        0.329       64.215       29.622        0.213      331.164       -0.997      863.125
01/08/2022  07:12:00      -88.120        5.649      -15.114       59.503       38.319       30.003     3540.598     1468.310      900.202        0.697        0.295       88.301       20.435        0.054      331.186       -0.962      863.130
01/08/2022  07:13:00      -83.614        6.709       -3.052       67.701       43.465       32.032     4583.401     1889.174     1026.045        0.727        0.375       83.882       29.773        0.126      331.150       -1.021      863.134
01/08/2022  07:14:00      -47.129        6.699        0.067       56.382       33.163       27.361     3178.922     1099.813      748.635        0.365        0.251       47.603       19.829        0.174      331.192       -0.951      863.135
01/08/2022  07:15:00     -109.200        5.513       -7.920       49.837       31.013       25.820     2483.687      961.830      666.651        0.806        0.206      109.340       20.244        0.034      331.210       -0.921      863.144
01/08/2022  07:16:00      -89.072       14.416       -8.779       31.471       21.383       20.362      990.427      457.236      414.596        0.504        0.093       90.231       18.269        0.041      331.196       -0.945      863.163
01/08/2022  07:17:00      -68.682       -1.226       -8.555       34.905       24.630       22.789     1218.363      606.651      519.331        0.357        0.117       68.693       22.666        0.109      331.261       -0.837      863.186
01/08/2022  07:18:00      -56.545        1.949       -6.053       54.832       37.896       29.866     3006.543     1436.069      891.987        0.429        0.267       56.578       33.894        0.359      331.190       -0.954      863.217
01/08/2022  07:19:00     -117.368      -12.597      -12.997       34.233       28.250       20.904     1171.908      798.064      436.976        0.825        0.120      118.042       18.615        0.025      331.084       -1.129      863.254
01/08/2022  07:20:00      -91.097        2.173       -9.049       41.709       20.833       21.341     1739.626      434.003      455.421        0.551        0.131       91.123       21.514        0.056      331.059       -1.171      863.291
01/08/2022  07:21:00      -43.945      -13.587       -4.510       30.271       21.930       13.838      916.305      480.920      191.499        0.186        0.079       45.997        8.348        0.033      331.092       -1.115      863.325
01/08/2022  07:22:00        3.724       -3.991       -5.065       25.519       17.782        9.854      651.224      316.197       97.104        0.056        0.053        5.459        7.782        2.032      331.139       -1.038      863.354
01/08/2022  07:23:00      -41.248       10.270      -11.503       25.437       18.932       10.828      647.031      358.410      117.238        0.153        0.056       42.507        4.615        0.012      331.139       -1.040      863.375
01/08/2022  07:24:00      -28.633        5.105       -3.514       25.787       17.537       12.341      664.978      307.530      152.310        0.099        0.056       29.085        6.136        0.045      331.276       -0.813      863.388
01/08/2022  07:25:00       -5.592       -8.702       -5.579       19.743       11.756       15.134      389.772      138.200      229.048        0.045        0.038       10.344       13.265        1.644      331.241       -0.870      863.399
01/08/2022  07:26:00        7.620        1.047       -1.277        9.514        7.572        8.341       90.519       57.337       69.570        0.014        0.011        7.691        7.764        1.019      331.179       -0.973      863.407
01/08/2022  07:27:00      -25.482       13.864       -7.570       13.611        6.945        8.541      185.272       48.237       72.950        0.060        0.015       29.009        4.577        0.025      331.201       -0.935      863.423
01/08/2022  07:28:00      -17.860        4.590       -8.271       10.694        7.216        7.831      114.356       52.072       61.323        0.032        0.011       18.440        5.524        0.090      331.282       -0.804      863.437
01/08/2022  07:29:00       33.424       33.070      -14.980       23.749       22.024       14.105      564.030      485.056      198.946        0.184        0.062       47.019        8.878        0.036      331.186       -0.961      863.456
01/08/2022  07:30:00       27.971       49.373      -17.901       15.186       12.918       11.603      230.614      166.864      134.618        0.204        0.027       56.745       10.693        0.036      330.960       -1.333      863.484
01/08/2022  07:31:00       49.904       44.809      -10.103       15.095       10.132       11.666      227.862      102.667      136.091        0.253        0.023       67.069        3.334        0.002      330.916       -1.406      863.496
01/08/2022  07:32:00       64.309       24.916      -20.310        9.669       10.328        6.162       93.486      106.664       37.975        0.270        0.012       68.967        2.155        0.001      330.871       -1.479      863.519
01/08/2022  07:33:00       54.253       16.086      -17.075       12.661       16.635        9.705      160.308      276.730       94.181        0.201        0.027       56.588        7.743        0.019      330.896       -1.437      863.549
01/08/2022  07:34:00       44.192       -7.106       -0.768       37.430       22.783       21.924     1401.034      519.078      480.672        0.220        0.120       44.759       22.498        0.253      331.055       -1.176      863.574
01/08/2022  07:35:00      152.002        7.098      -20.900       29.655       24.639       27.651      879.440      607.089      764.552        1.292        0.113      152.168       16.060        0.011      331.009       -1.252      863.591
01/08/2022  07:36:00       66.271        2.481      -14.605       50.325       42.595       33.417     2532.571     1814.337     1116.694        0.504        0.273       66.317       20.199        0.093      331.001       -1.266      863.614
01/08/2022  07:37:00      176.956      -31.788      -25.598       52.887       44.203       29.478     2796.995     1953.910      868.964        1.930        0.281      179.788       21.245        0.014      331.059       -1.171      863.630
01/08/2022  07:38:00      130.436       -6.103      -29.789       74.019       63.874       36.477     5478.793     4079.901     1330.547        1.441        0.544      130.578       17.066        0.017      330.857       -1.502      863.641
01/08/2022  07:39:00      112.785       60.242      -30.019       45.980       58.814       30.154     2114.125     3459.056      909.292        1.187        0.324      127.865       15.031        0.014      330.835       -1.538      863.634
01/08/2022  07:40:00       24.897       18.803      -15.696       40.142       35.607       29.202     1611.356     1267.824      852.747        0.248        0.187       31.200       22.886        0.538      330.999       -1.269      863.613
01/08/2022  07:41:00      -25.509      -46.677       12.693       39.960       38.814       31.928     1596.762     1506.517     1019.377        0.356        0.206       53.193       21.451        0.163      331.357       -0.680      863.588
01/08/2022  07:42:00      -17.874      -82.487       -9.781       45.284       35.249       30.199     2050.623     1242.468      911.989        0.571        0.210       84.401       19.625        0.054      331.676       -0.153      863.570
01/08/2022  07:43:00      -16.226      -16.846      -15.397       19.597       24.470       12.620      384.040      598.766      159.252        0.096        0.057       23.389        7.028        0.090      331.141       -1.035      863.563
01/08/2022  07:44:00       -6.046        9.244       -9.008        5.869        9.269        5.853       34.447       85.918       34.256        0.018        0.008       11.046        3.699        0.112      331.132       -1.050      863.565
01/08/2022  07:45:00        0.802        8.077       -5.954        8.836       10.230        8.112       78.078      104.652       65.805        0.017        0.012        8.117        5.873        0.524      331.262       -0.834      863.577
01/08/2022  07:46:00       -3.467        5.663        0.628        7.982       18.299        8.672       63.710      334.841       75.206        0.026        0.024        6.640        9.925        2.234      331.470       -0.495      863.588
01/08/2022  07:47:00       -8.971      -19.302      -10.251       18.681       12.213       16.322      348.988      149.149      266.406        0.066        0.038       21.285        8.560        0.162      331.444       -0.538      863.595
01/08/2022  07:48:00      -16.738      -19.185       13.996       24.469       24.585       31.318      598.708      604.434      980.830        0.151        0.109       25.461       21.213        0.694      331.627       -0.235      863.605
01/08/2022  07:49:00      -17.328        2.102        0.443       15.873       22.244       12.681      251.947      494.800      160.805        0.061        0.045       17.455        4.132        0.056      331.522       -0.409      863.626
01/08/2022  07:50:00      -11.432        8.432       -3.462       27.611       17.058        9.607      762.345      290.986       92.290        0.068        0.057       14.205        8.963        0.398      331.479       -0.480      863.656
01/08/2022  07:51:00       11.617        9.998       -7.734       31.272       32.168       19.262      977.930     1034.752      371.010        0.134        0.119       15.327       13.952        0.829      331.521       -0.411      863.681
01/08/2022  07:52:00       -1.774      -39.357       -6.344       28.300       63.389       28.638      800.913     4018.126      820.139        0.361        0.282       39.397       19.705        0.250      331.703       -0.111      863.705
01/08/2022  07:53:00       12.023      -81.990       -7.349       41.985       49.132       35.544     1762.753     2413.938     1263.400        0.618        0.272       82.867       30.299        0.134      331.916        0.240      863.726
01/08/2022  07:54:00       21.100      -76.778      -13.620       25.019       24.510       22.609      625.933      600.737      511.173        0.413        0.087       79.624       12.481        0.025      331.764       -0.010      863.747
01/08/2022  07:55:00       -7.510      -10.783       -5.886       10.716       13.988        9.416      114.825      195.657       88.659        0.030        0.020       13.141        6.404        0.238      331.500       -0.445      863.764
01/08/2022  07:56:00       -8.451        7.590       -2.257       32.116       18.942       21.993     1031.428      358.788      483.683        0.100        0.094       11.359       19.819        3.044      331.330       -0.724      863.781
01/08/2022  07:57:00      -10.711       -0.230       -2.659       29.312       22.932       21.180      859.167      525.894      448.576        0.098        0.092       10.714       14.997        1.960      331.290       -0.791      863.786
01/08/2022  07:58:00     -110.699        6.634        0.130       71.685       40.072       29.558     5138.668     1605.766      873.674        0.996        0.381      110.898       25.172        0.052      331.391       -0.624      863.780
01/08/2022  07:59:00     -177.715       -9.994       -9.111       71.971       42.206       38.336     5179.894     1781.380     1469.671        2.010        0.422      177.996       34.813        0.038      331.424       -0.571      863.789
01/08/2022  08:00:00     -163.699      -22.360      -14.985       56.223       37.143       31.146     3161.025     1379.596      970.090        1.652        0.276      165.219       28.441        0.030      331.409       -0.595      863.804
01/08/2022  08:01:00      -85.993       22.918        1.836       59.887       45.358       30.855     3586.507     2057.329      952.017        0.726        0.330       88.994       29.641        0.111      331.345       -0.700      863.805
01/08/2022  08:02:00     -144.263       34.300        8.506       56.326       49.131       30.024     3172.620     2413.856      901.424        1.427        0.324      148.284       28.715        0.037      331.212       -0.919      863.828
01/08/2022  08:03:00     -160.167       13.748       -9.641       51.640       42.743       34.638     2666.697     1826.974     1199.816        1.581        0.285      160.756       34.886        0.047      331.200       -0.939      863.852
01/08/2022  08:04:00     -132.960      -10.379      -17.172       32.085       34.586       21.858     1029.449     1196.173      477.771        1.039        0.135      133.364       13.624        0.010      331.227       -0.894      863.865
01/08/2022  08:05:00     -111.045        5.889      -12.356       49.770       33.507       24.794     2477.050     1122.694      614.754        0.837        0.211      111.201       13.193        0.014      331.271       -0.822      863.883
01/08/2022  08:06:00     -122.940        7.272        0.500       48.748       39.875       34.073     2376.388     1590.035     1161.002        1.015        0.256      123.155       22.944        0.035      331.222       -0.901      863.911
01/08/2022  08:07:00     -151.302       16.109      -11.260       53.612       46.856       26.887     2874.282     2195.460      722.891        1.453        0.290      152.157       20.095        0.017      331.194       -0.947      863.941
01/08/2022  08:08:00     -147.645       19.283       -6.102       37.174       38.014       25.955     1381.920     1445.091      673.666        1.285        0.175      148.899       17.259        0.013      331.183       -0.967      863.975
01/08/2022  08:09:00      -73.572       23.676       -1.646       50.028       30.989       26.278     2502.828      960.343      690.555        0.506        0.208       77.288       23.776        0.095      331.213       -0.917      864.000
01/08/2022  08:10:00      -98.953       33.662       -0.982       30.907       29.562       19.613      955.263      873.936      384.675        0.657        0.111      104.522       16.910        0.026      331.266       -0.829      864.014
01/08/2022  08:11:00      -33.580       -7.317       -2.817       28.393       23.665       18.705      806.180      560.049      349.878        0.145        0.086       34.368       19.910        0.336      331.435       -0.552      864.038
01/08/2022  08:12:00      -60.398       19.128      -11.029       19.886       33.958       13.703      395.434     1153.146      187.766        0.294        0.087       63.355       10.057        0.025      331.433       -0.556      864.057
01/08/2022  08:13:00      -41.529       11.800       -4.290       28.907       27.687       10.184      835.620      766.567      103.723        0.179        0.085       43.173        8.055        0.035      331.502       -0.442      864.068
01/08/2022  08:14:00      -21.616      -12.276        0.923       35.263       22.312       18.764     1243.497      497.840      352.087        0.136        0.105       24.859       21.167        0.725      331.651       -0.196      864.084
01/08/2022  08:15:00       -4.068      -15.180       -9.068       14.787       18.468       13.372      218.641      341.071      178.807        0.053        0.037       15.716        9.128        0.337      331.768       -0.002      864.090
01/08/2022  08:16:00      -18.178      -23.044      -10.392       23.975       34.886       19.818      574.788     1217.044      392.757        0.158        0.109       29.351       12.883        0.193      331.709       -0.098      864.103
01/08/2022  08:17:00      -75.183        0.445        0.461       38.985       30.905       23.402     1519.808      955.105      547.666        0.434        0.151       75.184       22.779        0.092      331.597       -0.286      864.105
01/08/2022  08:18:00      -57.810        2.744       -4.698       39.905       29.479       21.396     1592.433      868.993      457.790        0.314        0.146       57.875       12.940        0.050      331.592       -0.294      864.117
01/08/2022  08:19:00      -53.632        1.018       -8.068       29.099       23.691       17.193      846.780      561.248      295.587        0.232        0.085       53.641        9.090        0.029      331.652       -0.194      864.129
01/08/2022  08:20:00      -26.396      -21.773       -6.982       26.102       26.535       23.186      681.292      704.104      537.586        0.157        0.096       34.217       16.909        0.244      331.662       -0.178      864.144
01/08/2022  08:21:00      -51.214      -51.905      -10.728       34.710       36.345       25.977     1204.809     1320.942      674.787        0.432        0.160       72.917       22.324        0.094      331.655       -0.191      864.160
01/08/2022  08:22:00      -48.685      -62.386      -20.392       36.660       41.596       27.812     1343.976     1730.223      773.513        0.526        0.192       79.134       23.805        0.090      331.662       -0.178      864.177
01/08/2022  08:23:00      -38.531        3.708       -3.218       35.095       37.719       25.635     1231.646     1422.743      657.168        0.241        0.166       38.709       13.474        0.121      331.706       -0.105      864.206
01/08/2022  08:24:00      -24.847       17.568       -9.347       31.364       23.250       24.299      983.695      540.547      590.457        0.156        0.106       30.431       19.347        0.404      331.699       -0.116      864.239
01/08/2022  08:25:00      -23.410       -0.835      -11.190       33.365       29.219       26.530     1113.211      853.730      703.862        0.167        0.134       23.425       17.390        0.551      331.762       -0.012      864.278
01/08/2022  08:26:00      -37.197      -14.465        2.765       26.864       20.619       20.596      721.667      425.132      424.208        0.159        0.079       39.910       13.330        0.112      331.858        0.144      864.309
01/08/2022  08:27:00      -27.411      -45.059       -8.999       34.941       28.636       21.972     1220.874      820.020      482.787        0.269        0.126       52.741       13.010        0.061      331.914        0.237      864.339
01/08/2022  08:28:00       30.293      -89.223      -22.353       66.404       51.416       33.277     4409.535     2643.624     1107.389        0.877        0.408       94.226       34.994        0.138      331.775        0.009      864.373
01/08/2022  08:29:00       33.062      -77.123      -29.422       69.696       62.497       33.680     4857.598     3905.931     1134.317        0.890        0.495       83.911       38.083        0.206      331.766       -0.007      864.400
01/08/2022  08:30:00      -38.901       13.564      -19.135       32.307       21.069       20.596     1043.771      443.886      424.207        0.199        0.096       41.197        8.770        0.045      331.824        0.087      864.438
01/08/2022  08:31:00      -17.598       -5.395      -12.468       30.999       21.475       22.928      960.961      461.167      525.675        0.122        0.097       18.406       14.327        0.606      331.984        0.351      864.468
01/08/2022  08:32:00      -36.440       17.877       -7.255       20.650       20.321       20.658      426.420      412.951      426.745        0.148        0.063       40.589       10.072        0.062      331.845        0.123      864.498
01/08/2022  08:33:00       34.264      -23.826       -4.578       35.477       34.718       27.709     1258.593     1205.363      767.769        0.250        0.162       41.734       29.071        0.485      331.927        0.258      864.525
01/08/2022  08:34:00       23.979       -8.536      -16.503       30.521       35.024       26.170      931.519     1226.708      684.895        0.188        0.142       25.453       18.730        0.542      332.007        0.390      864.561
01/08/2022  08:35:00       94.904       35.127      -22.652       48.615       46.218       27.989     2363.450     2136.110      783.385        0.802        0.264      101.196       15.027        0.022      331.890        0.197      864.604
01/08/2022  08:36:00       67.948       35.199      -23.344       46.431       53.828       29.732     2155.831     2897.470      884.008        0.617        0.297       76.524       15.454        0.041      331.924        0.255      864.650
01/08/2022  08:37:00       84.402       47.480      -32.775       56.394       70.178       37.689     3180.229     4924.957     1420.473        0.999        0.476       96.841       23.969        0.061      332.003        0.384      864.683
01/08/2022  08:38:00       67.385      -19.475      -25.989       54.636       61.100       33.242     2985.043     3733.168     1105.043        0.671        0.391       70.143       20.594        0.086      332.136        0.602      864.711
01/08/2022  08:39:00      103.291       23.445      -23.262       49.759       42.542       26.722     2476.005     1809.780      714.054        0.838        0.250      105.918       20.114        0.036      331.977        0.341      864.712
01/08/2022  08:40:00       41.640       74.803        1.176       42.106       41.015       28.766     1772.953     1682.241      827.503        0.581        0.214       85.612       27.403        0.102      331.853        0.137      864.702
01/08/2022  08:41:00       36.206       39.026       -1.576       23.375       25.440       18.806      546.379      647.212      353.681        0.219        0.077       53.235       14.106        0.070      332.048        0.457      864.689
01/08/2022  08:42:00       -1.285       16.575       -5.458       16.547        9.581       12.994      273.797       91.788      168.836        0.042        0.027       16.625        6.570        0.156      332.038        0.440      864.677
01/08/2022  08:43:00       -5.453        4.358        8.708       10.030        9.821       10.514      100.609       96.447      110.544        0.022        0.015        6.981        6.591        0.891      332.288        0.853      864.679
01/08/2022  08:44:00      -14.295       22.416        0.145       18.517       19.133       13.059      342.892      366.073      170.542        0.079        0.044       26.586        7.803        0.086      332.037        0.440      864.685
01/08/2022  08:45:00       -2.414        8.388       -4.690       13.281        7.734        9.082      176.385       59.812       82.477        0.021        0.016        8.728        5.733        0.431      332.170        0.657      864.695
01/08/2022  08:46:00       62.369       31.943      -16.152       22.116       13.217       12.353      489.097      174.702      152.600        0.299        0.041       70.073        7.815        0.012      331.961        0.313      864.711
01/08/2022  08:47:00       59.090        5.968       -9.216       24.792       28.154       23.112      614.646      792.676      534.142        0.278        0.097       59.391       17.262        0.084      332.088        0.523      864.721
01/08/2022  08:48:00       70.337       17.986      -12.065       29.630       37.121       25.078      877.917     1377.946      628.890        0.415        0.144       72.600       13.019        0.032      332.228        0.753      864.727
01/08/2022  08:49:00       92.002       11.715      -13.765       32.226       52.738       21.399     1038.547     2781.341      457.919        0.653        0.214       92.745       18.810        0.041      332.089        0.525      864.736
01/08/2022  08:50:00      105.408       35.887      -28.233       24.006       29.013       16.540      576.303      841.759      273.571        0.744        0.085      111.350       11.331        0.010      332.026        0.422      864.745
01/08/2022  08:51:00       67.914       38.643      -16.243       35.006       31.066       17.747     1225.445      965.121      314.944        0.444        0.125       78.138       16.986        0.047      332.110        0.560      864.754
01/08/2022  08:52:00       68.627       71.419      -19.410       24.829       22.718       17.975      616.456      516.097      323.106        0.582        0.073       99.047       13.638        0.019      332.006        0.388      864.764
01/08/2022  08:53:00       20.114       26.555       -8.929       20.861       20.280       16.314      435.187      411.278      266.137        0.115        0.056       33.312        9.805        0.087      332.192        0.694      864.763
01/08/2022  08:54:00      -47.529       34.146      -10.059       27.973       22.023       17.913      782.497      485.009      320.874        0.256        0.079       58.523       16.724        0.082      332.110        0.559      864.758
01/08/2022  08:55:00      -55.683        2.492      -20.611       11.004       31.453       12.537      121.092      989.272      157.175        0.240        0.063       55.738       10.068        0.033      332.050        0.458      864.761
01/08/2022  08:56:00      -33.576       -9.646       -6.147       29.679       22.638       19.365      880.822      512.457      375.020        0.151        0.088       34.935       17.393        0.248      332.243        0.779      864.768
01/08/2022  08:57:00      -84.474        2.701       -3.515       42.731       30.076       22.957     1825.967      904.572      527.017        0.521        0.163       84.517       10.695        0.016      332.230        0.756      864.777
01/08/2022  08:58:00      -58.559       -5.629       -6.309       21.528       19.485       15.830      463.472      379.670      250.589        0.230        0.055       58.829       12.408        0.044      332.224        0.748      864.805
01/08/2022  08:59:00      -45.832        1.222      -16.849       20.771       22.282       14.793      431.449      496.497      218.819        0.177        0.057       45.848       13.878        0.092      332.239        0.772      864.823
01/08/2022  09:00:00      -18.857      -14.159       -3.363       18.455       16.915       12.908      340.600      286.109      166.625        0.068        0.040       23.581        7.292        0.096      332.366        0.982      864.843
01/08/2022  09:01:00      -33.785      -12.446       -4.223       20.229       15.190       11.577      409.232      230.749      134.037        0.104        0.039       36.005        8.973        0.062      332.431        1.088      864.851
01/08/2022  09:02:00      -42.477        3.712       -5.939       26.045       32.216       21.446      678.351     1037.848      459.952        0.201        0.109       42.639       15.200        0.127      332.499        1.202      864.869
01/08/2022  09:03:00      -55.578      -31.218       -4.938       53.464       32.105       25.830     2858.421     1030.727      667.182        0.432        0.228       63.745       27.502        0.186      332.450        1.119      864.886
01/08/2022  09:04:00      -43.698       -6.860       -8.432       57.672       44.948       25.945     3326.041     2020.357      673.149        0.402        0.301       44.233       14.779        0.112      332.429        1.085      864.905
01/08/2022  09:05:00     -172.093      -13.460      -16.962       36.844       31.190       26.837     1357.472      972.839      720.248        1.657        0.153      172.618       22.133        0.016      332.213        0.727      864.921
01/08/2022  09:06:00     -129.117      -11.229       -1.298       49.065       39.416       25.502     2407.338     1553.628      650.353        1.070        0.231      129.604       23.534        0.033      332.310        0.889      864.930
01/08/2022  09:07:00     -162.910      -15.357      -19.521       41.458       35.802       30.588     1718.777     1281.781      935.619        1.555        0.197      163.632       21.582        0.017      332.296        0.864      864.931
01/08/2022  09:08:00     -123.101      -27.586      -17.809       39.722       42.970       21.827     1577.850     1846.381      476.406        1.007        0.195      126.154       13.793        0.012      332.340        0.938      864.929
01/08/2022  09:09:00      -95.418       -5.957        0.516       59.016       41.071       33.601     3482.915     1686.816     1128.995        0.772        0.315       95.604       27.571        0.083      332.475        1.162      864.936
01/08/2022  09:10:00     -134.766       -4.300       -7.013       38.660       46.443       25.205     1494.626     2156.955      635.311        1.126        0.214      134.834       22.352        0.027      332.443        1.109      864.949
01/08/2022  09:11:00     -127.128      -16.073      -17.153       34.574       28.977       19.920     1195.362      839.694      396.790        0.957        0.122      128.140       10.570        0.007      332.458        1.133      864.969
01/08/2022  09:12:00     -106.004      -22.431      -18.678       37.756       33.509       20.625     1425.543     1122.833      425.371        0.753        0.149      108.351       11.310        0.011      332.497        1.198      864.999
01/08/2022  09:13:00      -58.379        7.779      -10.832       38.086       26.565       23.075     1450.517      705.694      532.446        0.314        0.134       58.895       22.369        0.144      332.499        1.203      865.023
01/08/2022  09:14:00        1.861       -5.370       -0.911       14.278       18.537       11.901      203.873      343.610      141.630        0.036        0.034        5.683        7.427        1.708      332.694        1.524      865.038
01/08/2022  09:15:00      -65.972      -28.003      -11.984       27.804       17.668       19.312      773.076      312.146      372.951        0.337        0.073       71.669       12.825        0.032      332.587        1.347      865.039
01/08/2022  09:16:00      -92.135      -59.497      -28.534       35.550       16.546       24.022     1263.810      273.782      577.045        0.748        0.106      109.676       11.188        0.010      332.614        1.391      865.031
01/08/2022  09:17:00      -30.196      -20.481       -7.070       24.038       35.384       27.877      577.826     1252.024      777.150        0.199        0.130       36.486       15.531        0.181      332.697        1.529      865.022
01/08/2022  09:18:00      -49.584      -22.725      -13.798       25.754       37.190       22.432      663.276     1383.073      503.204        0.286        0.127       54.543       15.754        0.083      332.706        1.542      865.012
01/08/2022  09:19:00      -35.833        6.320       -9.660       20.824       20.353       12.278      433.646      414.239      150.744        0.121        0.050       36.386        8.820        0.059      332.727        1.578      865.000
01/08/2022  09:20:00      -46.925       -1.360       -3.863       30.630       29.898       19.554      938.167      893.864      382.348        0.222        0.111       46.945       19.979        0.181      332.780        1.666      864.996
01/08/2022  09:21:00      -63.976       18.957      -11.193       23.481       22.084       16.009      551.348      487.720      256.274        0.294        0.065       66.726       10.241        0.024      332.623        1.407      864.993
01/08/2022  09:22:00      -72.087       34.195        1.090       32.055       18.375       16.912     1027.502      337.637      286.004        0.401        0.083       79.787       16.231        0.041      332.704        1.540      864.990
01/08/2022  09:23:00      -75.917       -0.422       -0.662       32.659       25.261       17.332     1066.621      638.121      300.391        0.388        0.100       75.918       15.885        0.044      332.692        1.522      864.999
01/08/2022  09:24:00      -26.218       13.089       -6.259       25.562       17.635       19.611      653.436      311.006      384.575        0.112        0.067       29.304       14.727        0.253      332.765        1.640      865.010
01/08/2022  09:25:00       -1.081        2.857       -3.654        7.534       10.472        9.933       56.768      109.653       98.664        0.014        0.013        3.055        5.576        3.332      333.168        2.307      865.013
01/08/2022  09:26:00      -12.203       -1.819       -4.867       14.721       20.031       17.073      216.699      401.233      291.471        0.054        0.045       12.338       10.690        0.751      333.054        2.119      865.019
01/08/2022  09:27:00      -43.845       19.141       -9.271       22.092       18.660       13.765      488.048      348.186      189.473        0.170        0.051       47.841        4.031        0.007      332.810        1.715      865.032
01/08/2022  09:28:00      -49.469       -9.972       -8.389       22.091       16.172       14.794      488.025      261.520      218.859        0.179        0.048       50.464        9.976        0.039      332.851        1.784      865.036
01/08/2022  09:29:00      -31.007      -11.759      -10.078       34.065       21.953       16.610     1160.404      481.918      275.909        0.156        0.096       33.161       15.976        0.232      332.949        1.946      865.042
01/08/2022  09:30:00      -33.902       -9.515      -11.099       23.609       14.010       16.699      557.367      196.278      278.852        0.120        0.052       35.212       12.778        0.132      332.934        1.922      865.058
01/08/2022  09:31:00      -30.454       -8.066      -14.728       29.519       23.718       15.942      871.384      562.564      254.151        0.145        0.084       31.504       18.029        0.327      332.940        1.929      865.066
01/08/2022  09:32:00      -24.729       18.286       -9.828       11.847        9.526       12.253      140.347       90.743      150.131        0.071        0.019       30.756        5.270        0.029      332.923        1.902      865.090
01/08/2022  09:33:00      -22.187       29.681       -1.708       19.211       11.440       10.176      369.046      130.868      103.550        0.099        0.030       37.058        9.608        0.067      332.960        1.963      865.106
01/08/2022  09:34:00       -7.902       18.987       -7.450       17.983       15.198       13.284      323.398      230.986      176.468        0.060        0.037       20.566        6.963        0.115      333.045        2.104      865.115
01/08/2022  09:35:00      -16.216       12.918      -10.191       15.996       13.126       15.390      255.866      172.290      236.856        0.060        0.033       20.732        6.493        0.098      333.151        2.278      865.126
01/08/2022  09:36:00      -21.967       -7.113      -12.632       16.635       19.987       11.970      276.733      399.497      143.292        0.076        0.041       23.090        4.733        0.042      333.192        2.348      865.138
01/08/2022  09:37:00       -5.634       11.493      -10.447       29.721       22.288       17.035      883.356      496.777      290.180        0.097        0.084       12.800       12.568        0.964      333.272        2.479      865.151
01/08/2022  09:38:00      -75.852       -9.102       -2.303       46.742       43.975       34.598     2184.797     1933.786     1197.000        0.558        0.266       76.396       27.697        0.131      333.047        2.108      865.154
01/08/2022  09:39:00     -118.703      -23.989      -18.352       64.421       45.228       36.549     4150.067     2045.563     1335.803        1.127        0.377      121.103       23.713        0.038      333.044        2.103      865.162
01/08/2022  09:40:00     -127.078        8.952        3.628       54.695       30.060       30.643     2991.577      903.626      939.011        1.054        0.242      127.393       28.493        0.050      333.017        2.058      865.179
01/08/2022  09:41:00     -105.331      -15.469       -1.614       47.874       40.667       33.700     2291.889     1653.772     1135.702        0.821        0.254      106.461       31.022        0.085      333.194        2.350      865.189
01/08/2022  09:42:00     -115.760       -1.221      -10.911       31.851       43.388       26.921     1014.465     1882.476      724.751        0.857        0.181      115.767       18.038        0.024      333.145        2.269      865.206
01/08/2022  09:43:00      -79.802       21.740       -6.642       31.088       34.775       16.208      966.469     1209.330      262.713        0.466        0.122       82.710       12.691        0.024      333.133        2.248      865.233
01/08/2022  09:44:00      -74.452       18.627      -11.270       67.033       34.905       27.278     4493.442     1218.324      744.101        0.624        0.323       76.747       30.382        0.157      333.182        2.328      865.252
01/08/2022  09:45:00      -41.711      -14.785        3.503       61.252       40.786       35.090     3751.785     1663.504     1231.291        0.431        0.332       44.254       30.362        0.471      333.265        2.468      865.278
01/08/2022  09:46:00      -84.841       35.254       -3.548       63.397       26.343       21.370     4019.145      693.971      456.665        0.681        0.258       91.874       25.427        0.077      333.079        2.160      865.311
01/08/2022  09:47:00      -83.557       28.323       -2.853       44.598       42.368       26.563     1988.968     1795.043      705.600        0.614        0.224       88.227       22.212        0.063      333.166        2.303      865.334
01/08/2022  09:48:00      -63.839       -2.395       -0.496       45.367       36.134       28.684     2058.138     1305.670      822.751        0.413        0.209       63.884       26.736        0.175      333.286        2.501      865.347
01/08/2022  09:49:00      -74.774      -31.007      -14.493       49.703       45.609       25.765     2470.371     2080.145      663.860        0.599        0.261       80.948       20.012        0.061      333.231        2.412      865.355
01/08/2022  09:50:00      -90.144      -92.421      -12.831       40.198       32.106       32.019     1615.855     1030.811     1025.244        1.025        0.184      129.103       25.685        0.040      333.027        2.074      865.362
01/08/2022  09:51:00      -34.851      -11.141       -1.174       36.269       33.715       18.891     1315.470     1136.732      356.872        0.207        0.140       36.589       23.036        0.396      333.214        2.382      865.368
01/08/2022  09:52:00      -49.966      -15.369       -7.213       45.925       48.229       28.999     2109.074     2326.061      840.968        0.403        0.264       52.276       16.774        0.103      333.338        2.587      865.371
01/08/2022  09:53:00      -43.705      -22.829      -15.528       46.768       40.026       31.287     2187.274     1602.065      978.880        0.372        0.238       49.308       19.006        0.149      333.270        2.476      865.392
01/08/2022  09:54:00      -38.692      -21.097       -8.369       37.523       41.467       22.411     1408.003     1719.537      502.254        0.282        0.181       44.070       19.539        0.197      333.381        2.660      865.418
01/08/2022  09:55:00      -53.153       -2.506      -13.828       38.888       24.406       22.230     1512.287      595.658      494.183        0.281        0.130       53.212       12.459        0.055      333.390        2.674      865.447
01/08/2022  09:56:00        5.957      -59.217      -23.737       60.667       51.481       31.044     3680.543     2650.290      963.734        0.570        0.365       59.516       26.444        0.197      333.539        2.921      865.477
01/08/2022  09:57:00      -14.676      -23.745      -31.177       60.303       47.948       23.975     3636.482     2298.991      574.817        0.413        0.326       27.915       25.892        0.860      333.515        2.881      865.500
01/08/2022  09:58:00      -28.341       -5.289       -8.556       30.797       21.098       16.977      948.457      445.107      288.225        0.129        0.084       28.830        6.374        0.049      333.449        2.773      865.516
01/08/2022  09:59:00      -81.526      -19.090       -5.104       49.206       23.723       18.785     2421.187      562.763      352.890        0.519        0.167       83.732       20.495        0.060      333.410        2.706      865.524
01/08/2022  10:00:00      -84.551       -4.790       -3.355       53.007       35.062       21.061     2809.773     1229.359      443.578        0.583        0.224       84.687       18.214        0.046      333.476        2.816      865.512
01/08/2022  10:01:00      -47.253       -7.820       -6.822       44.653       37.695       35.774     1993.935     1420.941     1279.774        0.352        0.235       47.896       25.959        0.294      333.593        3.010      865.495
01/08/2022  10:02:00      -60.958      -24.564      -18.585       49.280       38.529       29.372     2428.560     1484.502      862.736        0.472        0.239       65.721       27.530        0.175      333.587        3.000      865.468
01/08/2022  10:03:00      -49.635      -23.518      -25.630       39.407       33.380       28.479     1552.932     1114.208      811.073        0.358        0.174       54.925       24.709        0.202      333.500        2.856      865.444
01/08/2022  10:04:00      -43.029        2.055        0.716       36.201       27.411       27.319     1310.508      751.373      746.344        0.233        0.140       43.078       19.229        0.199      333.679        3.153      865.437
01/08/2022  10:05:00      -65.427      -12.008       -6.061       36.944       29.619       23.241     1364.826      877.295      540.142        0.362        0.139       66.519       17.666        0.071      333.565        2.963      865.433
01/08/2022  10:06:00      -77.163       23.360       -6.523       72.416       35.424       32.399     5244.067     1254.893     1049.725        0.704        0.377       80.621       22.456        0.078      333.587        3.001      865.438
01/08/2022  10:07:00      -15.800        3.938       -3.771       37.970       33.359       27.475     1441.695     1112.817      754.903        0.179        0.165       16.283       10.575        0.422      333.639        3.087      865.448
01/08/2022  10:08:00      -21.272        4.264       -8.567       38.739       40.503       24.948     1500.726     1640.483      622.423        0.215        0.188       21.695       14.386        0.440      333.629        3.069      865.471
01/08/2022  10:09:00      -20.149       -6.808      -12.373       29.879       23.899       16.272      892.751      571.163      264.773        0.117        0.086       21.268        7.501        0.124      333.680        3.154      865.495
01/08/2022  10:10:00      -41.575        7.755      -10.568       24.199       24.093       32.587      585.578      580.491     1061.892        0.206        0.111       42.293       22.263        0.277      333.513        2.879      865.521
01/08/2022  10:11:00       -6.893       -1.124       -5.752       26.702       32.822       22.126      712.973     1077.254      489.546        0.118        0.114        6.984       16.179        5.367      333.774        3.309      865.551
01/08/2022  10:12:00       -3.578      -88.576      -18.460       63.941       50.568       31.303     4088.430     2557.110      979.862        0.791        0.381       88.648       28.354        0.102      333.760        3.286      865.592
01/08/2022  10:13:00       18.523      -77.321      -27.367       69.560       58.150       38.887     4838.641     3381.423     1512.215        0.840        0.487       79.509       37.865        0.227      333.704        3.193      865.618
01/08/2022  10:14:00       78.662     -164.188      -44.831       50.891       38.228       21.642     2589.855     1461.360      468.392        1.984        0.226      182.059       12.606        0.005      333.565        2.962      865.643
01/08/2022  10:15:00       77.662     -137.184      -40.396       41.430       57.110       30.921     1716.457     3261.564      956.128        1.621        0.297      157.642       16.347        0.011      333.665        3.130      865.655
01/08/2022  10:16:00       19.428      -37.280      -16.240       38.074       56.930       36.446     1449.641     3240.983     1328.290        0.402        0.301       42.039       22.969        0.299      334.027        3.731      865.675
01/08/2022  10:17:00       30.979      -42.725      -21.861       63.199       84.390       46.118     3994.168     7121.624     2126.853        0.825        0.662       52.774       30.938        0.344      334.164        3.955      865.689
01/08/2022  10:18:00       67.405      -76.550      -43.388       64.638       86.434       45.553     4178.116     7470.883     2075.062        1.300        0.686      101.997       32.163        0.099      334.117        3.878      865.700
01/08/2022  10:19:00       64.566      -60.926      -26.935       58.058       83.555       45.525     3370.697     6981.486     2072.560        1.051        0.621       88.773       31.528        0.126      333.994        3.674      865.700
01/08/2022  10:20:00      106.488      -41.422      -25.926      106.762       68.246       42.434    11398.122     4657.581     1800.665        1.579        0.893      114.261       36.915        0.104      334.134        3.906      865.688
01/08/2022  10:21:00       83.031      -57.379      -24.956       74.128       66.036       46.585     5494.957     4360.725     2170.187        1.142        0.601      100.928       30.326        0.090      334.048        3.763      865.667
01/08/2022  10:22:00       74.110        7.291       -4.642       68.688       75.964       50.068     4718.054     5770.516     2506.819        0.928        0.650       74.468       41.828        0.315      333.994        3.673      865.654
01/08/2022  10:23:00       74.246     -138.997      -40.670       58.697       93.375       36.188     3445.279     8718.928     1309.588        1.998        0.674      157.584       32.269        0.042      333.922        3.553      865.688
01/08/2022  10:24:00      114.334     -197.518      -49.854       30.001       35.546       17.065      900.082     1263.488      291.201        2.851        0.123      228.222       13.144        0.003      333.225        2.398      865.659
01/08/2022  10:25:00      105.121     -121.691      -37.927       18.065       31.687       17.017      326.350     1004.087      289.592        1.446        0.081      160.808       14.980        0.009      333.242        2.429      865.637
01/08/2022  10:26:00       83.759      -75.114      -20.804       44.964       67.882       33.133     2021.729     4608.004     1097.781        1.041        0.386      112.506       25.759        0.052      333.813        3.374      865.622
01/08/2022  10:27:00       85.530      -99.811      -34.157       59.014      102.957       42.457     3482.648    10600.242     1802.569        1.716        0.794      131.444       35.664        0.074      334.004        3.688      865.619
01/08/2022  10:28:00       82.976     -194.746      -42.505       27.061       40.539       27.310      732.285     1643.374      745.829        2.487        0.156      211.687        5.693        0.001      333.407        2.700      865.626
01/08/2022  10:29:00       95.406     -128.048      -45.145       41.999       59.193       35.918     1763.934     3503.815     1290.095        1.705        0.328      159.683       22.035        0.019      333.782        3.324      865.636
01/08/2022  10:30:00      141.888     -184.794      -58.308       35.757       80.949       31.579     1278.587     6552.734      997.208        3.325        0.441      232.983       26.589        0.013      333.520        2.886      865.631
01/08/2022  10:31:00      129.353     -204.598      -51.921       50.514       49.756       34.077     2551.632     2475.618     1161.270        3.374        0.309      242.059       29.800        0.015      333.439        2.749      865.636
01/08/2022  10:32:00       64.820     -157.634      -33.215       59.212       41.683       41.413     3506.070     1737.432     1715.054        1.855        0.348      170.441       32.095        0.035      333.656        3.114      865.641
01/08/2022  10:33:00      108.330     -220.224      -53.561       82.805       56.267       39.119     6856.594     3165.930     1530.320        3.733        0.578      245.427       32.362        0.017      333.595        3.008      865.627
01/08/2022  10:34:00      107.323     -236.135      -51.621       40.647       50.369       27.268     1652.150     2537.059      743.568        3.744        0.247      259.380       20.672        0.006      333.516        2.877      865.617
01/08/2022  10:35:00       95.179     -114.217      -49.321       35.055       68.458       21.671     1228.826     4686.535      469.646        1.546        0.319      148.676       15.001        0.010      333.677        3.148      865.617
01/08/2022  10:36:00       43.397     -156.457      -26.835       43.908       57.514       28.302     1927.935     3307.908      800.989        1.656        0.302      162.364       16.620        0.010      334.041        3.751      865.601
01/08/2022  10:37:00      -50.141      -48.486      -14.794       49.056       49.761       32.093     2406.487     2476.112     1029.964        0.550        0.296       69.750       22.427        0.103      334.141        3.917      865.588
01/08/2022  10:38:00        4.788       14.955        5.635       36.451       39.393       25.850     1328.656     1551.832      668.244        0.191        0.177       15.703       18.994        1.463      334.241        4.084      865.574
01/08/2022  10:39:00       46.709      -67.986      -20.667       50.472      102.768       38.665     2547.401    10561.267     1494.990        1.091        0.730       82.486       31.999        0.150      334.248        4.095      865.565
01/08/2022  10:40:00      134.312     -201.438      -52.015       50.449       57.168       35.694     2545.081     3268.160     1274.072        3.420        0.354      242.110       27.069        0.013      333.511        2.870      865.557
01/08/2022  10:41:00      123.274     -111.903      -48.283       26.388       45.755       20.742      696.349     2093.548      430.215        1.663        0.161      166.489       20.970        0.016      333.513        2.877      865.569
01/08/2022  10:42:00       67.581     -115.191      -30.593       34.595       32.415       22.378     1196.846     1050.725      500.790        1.076        0.137      133.552       17.975        0.018      333.584        2.995      865.579
01/08/2022  10:43:00       66.246      -75.338      -31.888       34.284       44.782       22.785     1175.366     2005.410      519.148        0.739        0.185      100.321       20.463        0.042      333.766        3.296      865.597
01/08/2022  10:44:00       98.883      -84.814      -31.276       38.672       67.710       35.856     1495.498     4584.623     1285.617        1.266        0.368      130.274       28.698        0.049      333.953        3.605      865.617
01/08/2022  10:45:00       44.859      -10.676      -18.726       72.006       66.134       38.119     5184.885     4373.657     1453.066        0.674        0.551       46.112       23.403        0.258      334.003        3.691      865.647
01/08/2022  10:46:00       53.600       15.913       -9.698       58.806       70.266       47.017     3458.163     4937.362     2210.636        0.691        0.530       55.912       34.935        0.390      334.287        4.161      865.656
01/08/2022  10:47:00       32.999        7.315      -16.816       60.703       48.614       33.973     3684.818     2363.275     1154.161        0.431        0.360       33.799       17.500        0.268      334.072        3.803      865.664
01/08/2022  10:48:00        4.533       13.107      -18.578       50.994       45.053       37.130     2600.393     2029.729     1378.603        0.327        0.300       13.869       12.553        0.819      334.144        3.923      865.674
01/08/2022  10:49:00       59.233      -12.909      -19.728       55.288       66.914       42.603     3056.712     4477.502     1815.013        0.671        0.467       60.623       23.742        0.153      334.248        4.095      865.677
01/08/2022  10:50:00       30.331       38.380      -22.526       80.534       51.537       37.156     6485.725     2656.033     1380.574        0.671        0.526       48.918       29.331        0.360      334.301        4.184      865.684
01/08/2022  10:51:00      -53.963      -27.871      -25.182       42.374       50.072       33.132     1795.554     2507.184     1097.761        0.486        0.270       60.736       17.790        0.086      334.179        3.981      865.685
01/08/2022  10:52:00       58.267     -119.026      -29.845       73.598       87.937       32.630     5416.617     7732.983     1064.744        1.633        0.711      132.522       37.876        0.082      333.952        3.604      865.691
01/08/2022  10:53:00       36.614      -83.927       -7.128       70.110       87.259       42.413     4915.345     7614.190     1798.868        1.138        0.716       91.566       52.460        0.328      334.345        4.254      865.681
01/08/2022  10:54:00       35.337      -88.302      -32.347       49.198       53.977       30.478     2420.426     2913.524      928.921        0.818        0.313       95.110       20.938        0.048      334.451        4.432      865.673
01/08/2022  10:55:00       -5.806      -74.467      -24.119       65.142       64.387       31.719     4243.441     4145.668     1006.066        0.778        0.470       74.693       33.040        0.196      334.317        4.209      865.673
01/08/2022  10:56:00       53.068     -136.826      -42.021       67.545       78.350       41.203     4562.350     6138.702     1697.695        1.785        0.620      146.756       29.188        0.040      334.279        4.144      865.665
01/08/2022  10:57:00       78.843     -188.883      -58.392      127.632      104.680       54.867    16289.974    10957.807     3010.367        3.777        1.513      204.678       53.374        0.068      334.060        3.781      865.658
01/08/2022  10:58:00       92.529     -124.848      -43.865       15.436       51.747       16.345      238.269     2677.801      267.167        1.463        0.159      155.398       20.183        0.017      333.623        3.059      865.677
01/08/2022  10:59:00       60.164        5.203      -36.393       25.318       24.049       24.747      641.024      578.358      612.423        0.340        0.092       60.389       19.395        0.103      333.671        3.139      865.669
01/08/2022  11:00:00       42.681      -59.327      -18.480       49.730       58.923       27.554     2473.077     3471.915      759.207        0.619        0.335       73.085       29.985        0.168      334.153        3.936      865.664
01/08/2022  11:01:00      108.563     -157.117      -37.730       41.081       49.488       23.409     1687.680     2449.075      547.982        2.129        0.234      190.975       16.732        0.008      333.898        3.513      865.671
01/08/2022  11:02:00      143.813     -159.374      -49.845       54.494       71.070       32.794     2969.551     5050.964     1075.430        2.883        0.455      214.668       26.684        0.015      334.060        3.780      865.680
01/08/2022  11:03:00      132.027      -98.980      -50.069       49.324       63.714       30.625     2432.901     4059.479      937.865        1.858        0.372      165.010       21.723        0.017      334.046        3.760      865.705
01/08/2022  11:04:00       50.981     -176.132      -36.141       54.152       60.747       27.829     2932.487     3690.173      774.472        2.116        0.370      183.362       21.168        0.013      333.951        3.599      865.718
01/08/2022  11:05:00       98.909     -179.413      -44.519       31.556       34.028       22.832      995.792     1157.880      521.297        2.331        0.134      204.871       21.515        0.011      333.720        3.219      865.726
01/08/2022  11:06:00      117.859     -167.748      -50.129       39.513       86.894       23.516     1561.279     7550.481      552.995        2.710        0.483      205.012       21.051        0.011      333.817        3.379      865.728
01/08/2022  11:07:00       62.233     -119.410      -45.019       86.015      107.641       24.868     7398.579    11586.653      618.428        1.988        0.980      134.654       15.821        0.014      333.993        3.671      865.729
01/08/2022  11:08:00      -29.987      -15.520        3.403       41.357       27.215       21.803     1710.384      740.635      475.376        0.204        0.146       33.765       18.620        0.304      334.510        4.531      865.717
01/08/2022  11:09:00        7.519      -38.986      -14.113       20.549       37.865       21.285      422.261     1433.754      453.046        0.204        0.115       39.704       16.230        0.167      334.723        4.884      865.698
01/08/2022  11:10:00       36.202      -43.149      -11.072       46.715       69.156       38.078     2182.337     4782.586     1449.971        0.585        0.421       56.324       25.380        0.203      334.636        4.740      865.689
01/08/2022  11:11:00       19.532      -32.742        0.565       66.161       41.065       30.422     4377.284     1686.328      925.508        0.422        0.349       38.125       11.365        0.089      334.659        4.778      865.672
01/08/2022  11:12:00      -24.526       -4.001      -19.672       56.282       45.452       28.986     3167.615     2065.843      840.182        0.354        0.304       24.850       23.323        0.881      334.583        4.650      865.645
01/08/2022  11:13:00       39.026     -103.774      -18.978       50.458       79.757       31.248     2546.029     6361.236      976.464        1.127        0.494      110.870       38.997        0.124      334.422        4.383      865.632
01/08/2022  11:14:00       52.852     -119.787      -39.369       75.207       73.783       41.565     5656.123     5443.895     1727.633        1.576        0.641      130.929       41.049        0.098      334.324        4.221      865.614
01/08/2022  11:15:00       60.342      -94.585      -35.159       56.102       89.106       43.823     3147.489     7939.793     1920.477        1.341        0.650      112.194       39.255        0.122      334.292        4.168      865.604
01/08/2022  11:16:00      -26.774      -17.290      -23.436       87.423       47.248       39.033     7642.753     2232.362     1523.595        0.648        0.570       31.871       48.746        2.339      334.552        4.598      865.602
01/08/2022  11:17:00       28.615     -113.799      -23.221       60.459       47.208       35.885     3655.281     2228.579     1287.768        1.074        0.359      117.342       29.010        0.061      334.228        4.063      865.605
01/08/2022  11:18:00       15.867      -40.643      -18.686       35.747       42.996       30.527     1277.868     1848.655      931.918        0.315        0.203       43.630       18.309        0.176      334.442        4.417      865.606
01/08/2022  11:19:00       14.840      -28.659      -19.019       44.051       59.879       28.124     1940.459     3585.467      790.978        0.386        0.316       32.274       19.614        0.369      334.338        4.245      865.613
01/08/2022  11:20:00       -8.725      -54.498       -1.784       39.442       48.647       32.486     1555.646     2366.540     1055.338        0.401        0.249       55.192       24.967        0.205      334.499        4.511      865.617
01/08/2022  11:21:00      109.459     -215.178      -50.958       43.312       43.913       24.042     1875.910     1928.374      578.030        3.263        0.219      241.418       12.752        0.003      333.972        3.632      865.615
01/08/2022  11:22:00      100.624     -160.026      -42.076       31.420       57.138       27.063      987.238     3264.749      732.396        2.124        0.249      189.033       19.820        0.011      334.023        3.720      865.619
01/08/2022  11:23:00       35.495      -22.440      -21.902       34.861       44.084       31.778     1215.314     1943.375     1009.833        0.321        0.208       41.994       16.707        0.158      334.466        4.457      865.635
01/08/2022  11:24:00        9.661      -49.590      -19.935       49.894       64.008       42.392     2489.432     4097.036     1797.065        0.567        0.419       50.522       33.795        0.447      334.846        5.087      865.652
01/08/2022  11:25:00       23.459      -78.937      -36.162       42.659       45.429       37.552     1819.795     2063.765     1410.154        0.669        0.265       82.349       21.540        0.068      334.484        4.487      865.676
01/08/2022  11:26:00       83.619      -91.291      -53.366       56.676       67.944       34.066     3212.177     4616.399     1160.505        1.358        0.449      123.799       22.706        0.034      334.442        4.418      865.684
01/08/2022  11:27:00      120.120       -8.383      -24.541       70.283       73.753       51.760     4939.740     5439.554     2679.149        1.408        0.653      120.412       45.414        0.142      334.326        4.223      865.676
01/08/2022  11:28:00       95.591        9.886      -17.653       50.365       58.778       34.082     2536.593     3454.804     1161.578        0.835        0.358       96.101       22.720        0.056      334.345        4.257      865.662
01/08/2022  11:29:00      101.303      -20.118      -23.850       82.276       74.491       52.227     6769.367     5548.950     2727.671        1.314        0.752      103.281       45.270        0.192      334.450        4.429      865.640
01/08/2022  11:30:00      112.345      -16.966      -12.778      108.657       59.627       38.483    11806.239     3555.350     1480.909        1.495        0.842      113.619       28.700        0.064      334.455        4.438      865.624
01/08/2022  11:31:00        1.774      -31.452      -25.227       52.228       44.965       36.376     2727.780     2021.894     1323.242        0.385        0.304       31.502       23.815        0.572      334.922        5.215      865.626
01/08/2022  11:32:00       36.537      -50.801      -20.010       33.197      100.788       29.601     1102.025    10158.138      876.241        0.822        0.607       62.576       25.656        0.168      334.678        4.809      865.623
01/08/2022  11:33:00      105.703     -186.113      -49.090       43.572       33.397       22.254     1898.512     1115.392      495.260        2.586        0.175      214.035       17.751        0.007      334.240        4.079      865.618
01/08/2022  11:34:00       -2.753      -21.889      -16.162       59.297       71.731       43.648     3516.151     5145.397     1905.109        0.566        0.528       22.062       19.631        0.792      334.755        4.937      865.613
01/08/2022  11:35:00       17.512      -10.242      -35.408       91.761       75.096       37.846     8420.029     5639.342     1432.311        0.858        0.775       20.287       22.680        1.250      334.816        5.039      865.605
01/08/2022  11:36:00      -25.715        8.499       -9.425       35.113       29.249       34.452     1232.942      855.514     1186.935        0.205        0.164       27.083       19.888        0.539      334.880        5.145      865.603
01/08/2022  11:37:00        9.848        1.149      -21.393       33.552       51.528       24.799     1125.727     2655.143      614.999        0.248        0.220        9.914       22.377        5.094      334.850        5.095      865.584
01/08/2022  11:38:00       68.074      -77.616      -28.763       68.326       74.148       39.237     4668.455     5497.923     1539.570        1.159        0.585      103.239       39.751        0.148      334.555        4.604      865.570
01/08/2022  11:39:00       -2.356      -26.837      -33.877       58.936       54.049       26.757     3473.495     2921.255      715.942        0.449        0.356       26.940       18.150        0.454      334.698        4.843      865.555
01/08/2022  11:40:00       53.252      -84.496      -19.619       80.840       69.230       46.887     6535.154     4792.746     2198.372        1.194        0.676       99.877       29.774        0.089      334.593        4.666      865.542
01/08/2022  11:41:00       66.248      -13.759      -20.175       70.940       70.969       34.453     5032.528     5036.596     1187.001        0.812        0.563       67.662       20.497        0.092      334.714        4.869      865.521
01/08/2022  11:42:00       39.686     -103.995      -19.750       64.781      139.017       39.953     4196.540    19325.767     1596.221        1.894        1.256      111.310       26.583        0.057      334.452        4.431      865.500
01/08/2022  11:43:00      115.702     -232.406      -48.459       56.344       54.900       27.288     3174.656     3013.970      744.629        3.834        0.347      259.614       26.990        0.011      334.183        3.982      865.477
01/08/2022  11:44:00      108.951     -147.471      -40.062       46.787       37.102       26.440     2189.033     1376.556      699.058        1.974        0.213      183.352       22.481        0.015      334.031        3.732      865.455
01/08/2022  11:45:00       70.489      -38.302      -33.410       53.493       81.805       40.087     2861.474     6692.057     1606.956        0.935        0.558       80.223       31.083        0.150      334.549        4.594      865.412
01/08/2022  11:46:00      108.543      -44.983      -14.166       91.708       63.840       51.933     8410.385     4075.489     2697.022        1.459        0.759      117.494       44.090        0.141      334.832        5.062      865.367
01/08/2022  11:47:00      139.214       -0.504      -18.407       91.998       65.199       47.117     8463.620     4250.891     2220.036        1.732        0.747      139.215       53.823        0.149      334.569        4.627      865.342
01/08/2022  11:48:00      145.847       43.107      -28.529       72.092       65.127       37.986     5197.289     4241.475     1442.908        1.741        0.544      152.084       31.217        0.042      334.431        4.398      865.334
01/08/2022  11:49:00      100.861       79.838      -30.041       46.477       48.161       34.293     2160.068     2319.500     1176.034        1.155        0.283      128.635       15.876        0.015      334.568        4.626      865.321
01/08/2022  11:50:00       27.740       -5.097      -21.880       40.149       44.425       24.955     1611.949     1973.570      622.734        0.274        0.210       28.204       21.587        0.586      334.839        5.077      865.316
01/08/2022  11:51:00       73.063       30.864      -23.106       30.362       57.565       23.449      921.827     3313.688      549.866        0.580        0.239       79.315       25.001        0.099      334.699        4.842      865.302
01/08/2022  11:52:00        7.082      -15.596      -10.776       28.605       40.999       24.998      818.264     1680.928      624.905        0.177        0.156       17.129       25.781        2.265      335.237        5.737      865.295
01/08/2022  11:53:00       46.795       55.450       -8.291       45.877       36.081       17.826     2104.704     1301.861      317.753        0.453        0.186       72.556       12.436        0.029      334.888        5.158      865.303
01/08/2022  11:54:00       45.616      -76.874      -14.703       46.263       88.983       38.738     2140.303     7918.055     1500.667        0.988        0.578       89.389       28.916        0.105      334.748        4.925      865.298
01/08/2022  11:55:00       42.463      -68.183      -30.256       53.798       56.764       39.572     2894.173     3222.191     1565.934        0.752        0.384       80.325       21.165        0.069      334.776        4.971      865.299
01/08/2022  11:56:00        2.263      -66.913      -27.892       51.596       48.535       41.383     2662.129     2355.611     1712.553        0.599        0.337       66.951       24.190        0.131      335.037        5.404      865.302
01/08/2022  11:57:00       77.306      -72.941      -18.522       88.510       92.476       46.093     7834.040     8551.860     2124.537        1.507        0.926      106.285       41.709        0.154      334.947        5.256      865.299
01/08/2022  11:58:00      106.037      -16.609      -14.274       77.368       81.305       48.230     5985.752     6610.513     2326.102        1.332        0.746      107.330       37.538        0.122      334.897        5.173      865.288
01/08/2022  11:59:00      106.170       -3.183      -15.585       96.962       80.335       46.782     9401.653     6453.672     2188.526        1.478        0.902      106.217       40.111        0.143      334.796        5.005      865.274
01/08/2022  12:00:00      160.949      -12.043      -15.227       83.764       61.732       38.311     7016.486     3810.791     1467.706        1.929        0.615      161.399       33.684        0.044      334.683        4.815      865.249
01/08/2022  12:01:00       82.795       -5.603      -29.257       88.972       84.108       49.911     7916.101     7074.086     2491.060        1.261        0.874       82.984       34.682        0.175      334.987        5.322      865.223
01/08/2022  12:02:00       43.037      -70.545      -23.257       45.967       61.127       39.278     2112.978     3736.541     1542.748        0.738        0.370       82.637       23.724        0.082      335.130        5.560      865.203
01/08/2022  12:03:00      115.683       -3.524      -30.762       76.648       70.326       42.364     5874.921     4945.705     1794.686        1.348        0.631      115.737       26.554        0.053      334.870        5.125      865.182
01/08/2022  12:04:00      105.916     -121.422      -41.555       74.567       88.757       58.496     5560.220     7877.891     3421.774        2.227        0.843      161.126       46.997        0.085      334.961        5.277      865.167
01/08/2022  12:05:00       80.335        2.914      -21.958       59.763       68.736       52.336     3571.569     4724.649     2739.038        0.899        0.552       80.388       37.351        0.216      334.996        5.337      865.185
01/08/2022  12:06:00      121.749      -57.872      -49.327       96.270       72.634       34.906     9267.898     5275.747     1218.436        1.818        0.788      134.803       31.833        0.056      334.815        5.035      865.204
01/08/2022  12:07:00      127.506      -81.357      -41.188       70.641       77.643       41.017     4990.116     6028.389     1682.414        1.863        0.635      151.251       31.106        0.042      334.747        4.923      865.241
01/08/2022  12:08:00      110.076       -4.374      -19.815       82.596       75.356       43.560     6822.106     5678.588     1897.456        1.346        0.720      110.162       26.173        0.056      334.879        5.141      865.256
01/08/2022  12:09:00       85.907       18.963      -17.583       62.680       62.143       42.669     3928.824     3861.721     1820.676        0.883        0.481       87.974       12.866        0.021      334.809        5.027      865.274
01/08/2022  12:10:00      123.326       52.391      -31.401       59.736       75.950       28.912     3568.334     5768.338      835.896        1.455        0.509      133.992       12.939        0.009      334.605        4.687      865.287
01/08/2022  12:11:00      128.402       53.381      -14.902       41.172       34.818       20.304     1695.161     1212.285      412.255        1.144        0.166      139.056       20.686        0.022      334.589        4.661      865.289
01/08/2022  12:12:00      107.591       73.297      -21.522       18.404       21.211       17.461      338.711      449.904      304.874        0.925        0.055      130.185        8.913        0.005      334.407        4.358      865.279
01/08/2022  12:13:00       34.585       58.576      -13.981       46.017       31.700       20.721     2117.521     1004.895      429.368        0.419        0.178       68.024       23.247        0.117      334.657        4.773      865.268
01/08/2022  12:14:00      -33.609       22.847      -12.152       28.927       28.291       20.823      836.749      800.385      433.593        0.193        0.104       40.639       12.184        0.090      335.172        5.630      865.261
01/08/2022  12:15:00       41.974        9.031      -22.060       44.027       43.141       32.059     1938.369     1861.143     1027.755        0.358        0.241       42.934       21.313        0.246      335.192        5.663      865.262
01/08/2022  12:16:00       94.805       28.774      -10.712       64.984       55.474       35.779     4222.981     3077.343     1280.123        0.925        0.429       99.075       23.612        0.057      334.976        5.303      865.265
01/08/2022  12:17:00      183.702       60.583      -15.525       46.984       47.279       38.494     2207.517     2235.343     1481.770        2.179        0.296      193.434       20.861        0.012      334.533        4.565      865.260
01/08/2022  12:18:00      179.297       44.284      -33.406       58.979       56.288       29.331     3478.466     3168.307      860.318        2.136        0.375      184.685       16.234        0.008      334.568        4.624      865.250
01/08/2022  12:19:00       99.138       14.700      -18.795       61.747       51.158       28.395     3812.635     2617.115      806.290        0.882        0.362      100.222       36.105        0.130      334.826        5.055      865.241
01/08/2022  12:20:00       66.737       39.612       -2.325       60.686       50.382       25.276     3682.810     2538.394      638.854        0.644        0.343       77.608       18.247        0.055      334.926        5.222      865.228
01/08/2022  12:21:00      107.438       67.718      -30.640       21.649       26.859       23.566      468.697      721.405      555.348        0.941        0.087      126.998        8.133        0.004      334.530        4.562      865.221
01/08/2022  12:22:00       46.582       37.458      -10.039       42.148       39.112       22.315     1776.420     1529.759      497.978        0.374        0.190       59.774       12.734        0.045      334.821        5.047      865.212
01/08/2022  12:23:00       51.815       34.636      -10.671       71.035       56.951       21.030     5046.034     3243.461      442.247        0.636        0.437       62.326       16.918        0.074      334.992        5.330      865.192
01/08/2022  12:24:00       99.758     -179.036      -32.388       43.413       39.247       32.011     1884.651     1540.322     1024.673        2.375        0.222      204.953       30.534        0.022      334.646        4.755      865.150
01/08/2022  12:25:00       68.959      -70.674      -37.386       35.091       55.788       19.418     1231.401     3112.262      377.063        0.793        0.236       98.743        9.198        0.009      334.590        4.662      865.114
01/08/2022  12:26:00        4.910       26.726       -0.872       20.087       25.374       25.983      403.497      643.850      675.135        0.123        0.086       27.173       16.076        0.350      335.251        5.762      865.061
01/08/2022  12:27:00        9.967      -17.379       -8.692       47.430       67.301       31.014     2249.621     4529.406      961.889        0.411        0.387       20.034       26.617        1.765      335.249        5.758      865.016
01/08/2022  12:28:00       46.780       10.997       -2.082       49.271       54.815       34.194     2427.654     3004.665     1169.213        0.446        0.330       48.055       22.545        0.220      335.107        5.523      864.995
01/08/2022  12:29:00       41.006       -9.966       -8.050       74.055       57.400       39.201     5484.171     3294.797     1536.731        0.608        0.516       42.199       27.985        0.440      335.309        5.856      864.984
01/08/2022  12:30:00       39.402       11.977      -12.908       48.618       44.797       29.560     2363.710     2006.760      873.817        0.355        0.262       41.182       14.831        0.130      335.439        6.073      864.975
01/08/2022  12:31:00       92.893       11.526      -25.952       43.002       47.844       27.573     1849.183     2289.050      760.247        0.717        0.245       93.605       13.846        0.022      335.187        5.655      864.956
01/08/2022  12:32:00      117.232       65.706      -18.347       54.116       43.138       25.225     2928.569     1860.930      636.280        1.191        0.271      134.390       17.408        0.017      334.998        5.341      864.936
01/08/2022  12:33:00       99.547      -16.247      -12.620       92.565       66.722       52.638     8568.265     4451.862     2770.714        1.306        0.790      100.864       49.667        0.242      335.243        5.748      864.918
01/08/2022  12:34:00       77.738       -0.275       -2.910       62.438       55.387       47.527     3898.510     3067.690     2258.855        0.764        0.461       77.739       37.496        0.233      335.202        5.680      864.916
01/08/2022  12:35:00       44.272      -28.528       -4.300       80.719       75.944       40.543     6515.491     5767.423     1643.743        0.836        0.696       52.667       30.820        0.342      335.454        6.097      864.909
01/08/2022  12:36:00       78.659        6.290      -15.380       36.609       39.061       26.320     1340.203     1525.764      692.768        0.501        0.178       78.911       13.738        0.030      335.029        5.393      864.917
01/08/2022  12:37:00       45.923       15.612      -16.351       88.991       65.532       47.401     7919.316     4294.410     2246.888        0.854        0.723       48.504       51.458        1.126      335.429        6.057      864.914
01/08/2022  12:38:00       83.891       31.339      -32.408       49.910       61.032       33.649     2491.055     3724.939     1132.252        0.821        0.367       89.554       25.788        0.083      335.068        5.457      864.928
01/08/2022  12:39:00       99.282       67.413      -15.085       34.128       36.463       25.604     1164.734     1329.547      655.541        0.889        0.157      120.006       11.032        0.008      334.824        5.051      864.942
01/08/2022  12:40:00       90.512       16.975      -21.727       39.949       49.804       30.160     1595.893     2480.421      909.638        0.697        0.249       92.090       20.818        0.051      335.008        5.357      864.924
01/08/2022  12:41:00      109.873       28.372      -23.780       50.973       41.480       23.062     2598.226     1720.580      531.878        0.915        0.243      113.477       23.799        0.044      334.956        5.270      864.870
01/08/2022  12:42:00      175.881       14.184      -23.812       47.614       41.648       29.050     2267.072     1734.522      843.925        1.827        0.242      176.452       21.715        0.015      334.732        4.897      864.810
01/08/2022  12:43:00      136.283       19.717      -19.282       59.330       58.903       28.260     3520.103     3469.587      798.651        1.356        0.389      137.702       14.952        0.012      334.990        5.327      864.766
01/08/2022  12:44:00       75.874       66.091       -8.960       51.267       43.802       30.676     2628.297     1918.586      941.017        0.785        0.274      100.623       26.605        0.070      335.198        5.672      864.752
01/08/2022  12:45:00       42.653      -22.835      -25.633       39.996       47.597       29.048     1599.669     2265.464      843.769        0.385        0.235       48.381       23.158        0.229      335.633        6.396      864.764
01/08/2022  12:46:00       39.453       27.084       -7.256       73.379       50.205       31.566     5384.532     2520.517      996.429        0.562        0.445       47.855       30.144        0.397      335.516        6.201      864.796
01/08/2022  12:47:00      127.854       58.746      -10.373       66.489       37.004       28.720     4420.753     1369.283      824.843        1.326        0.331      140.704       17.404        0.015      335.033        5.398      864.818
01/08/2022  12:48:00       86.925       63.269      -15.229       54.393       25.922       26.745     2958.554      671.975      715.277        0.807        0.217      107.512       25.178        0.055      334.895        5.169      864.837
01/08/2022  12:49:00       68.351       70.723      -11.306       39.646       29.460       24.066     1571.844      867.907      579.171        0.641        0.151       98.354       18.374        0.035      335.017        5.371      864.842
01/08/2022  12:50:00      109.186      100.227      -15.264       56.751       44.092       36.739     3220.704     1944.112     1349.763        1.436        0.326      148.213       30.020        0.041      335.038        5.406      864.850
01/08/2022  12:51:00       67.244       50.699      -13.184       45.289       33.572       29.424     2051.061     1127.047      865.768        0.565        0.202       84.215       25.830        0.094      334.982        5.315      864.858
01/08/2022  12:52:00       45.631       67.390       -2.925       38.532       39.669       23.261     1484.695     1573.604      541.084        0.512        0.180       81.385       17.580        0.047      335.039        5.409      864.852
01/08/2022  12:53:00       86.881       17.003       -6.148       73.120       46.011       31.484     5346.566     2116.984      991.212        0.816        0.423       88.530       26.333        0.088      335.113        5.531      864.819
01/08/2022  12:54:00       94.318      -16.726       -9.026       59.068       43.017       31.856     3489.017     1850.449     1014.835        0.780        0.318       95.790       24.422        0.065      335.267        5.786      864.780
01/08/2022  12:55:00       98.025       47.989      -27.212       57.299       52.265       36.546     3283.213     2731.617     1335.587        1.000        0.368      109.142       35.760        0.107      335.065        5.452      864.763
01/08/2022  12:56:00       43.982      -14.390      -26.909       56.955       66.257       37.132     3243.817     4389.935     1378.800        0.594        0.451       46.276       41.053        0.787      335.386        5.985      864.754
01/08/2022  12:57:00       36.626       36.231        0.193       45.221       48.034       32.094     2044.896     2307.270     1030.014        0.402        0.269       51.519       26.757        0.270      335.382        5.979      864.773
01/08/2022  12:58:00       -3.482       33.550      -30.767       55.906       34.124       26.678     3125.511     1164.454      711.726        0.354        0.250       33.731       25.041        0.551      334.928        5.224      864.796
01/08/2022  12:59:00      -19.662      -27.846      -10.740       38.683       30.549       28.104     1496.346      933.237      789.829        0.225        0.161       34.088       21.372        0.393      335.201        5.678      864.806
01/08/2022  13:00:00       34.582       29.869      -13.846       33.166       23.753       20.471     1100.009      564.185      419.054        0.218        0.104       45.695       13.094        0.082      335.292        5.829      864.810
01/08/2022  13:01:00       23.654       51.768      -13.230       40.311       26.861       19.370     1625.008      721.535      375.194        0.307        0.136       56.916       14.981        0.069      334.989        5.327      864.788
01/08/2022  13:02:00       65.415       39.085      -17.223       54.792       23.818       15.653     3002.216      567.297      245.026        0.496        0.191       76.202       18.676        0.060      335.061        5.446      864.764
01/08/2022  13:03:00      138.332       39.219      -21.315       77.400       58.837       25.342     5990.747     3461.738      642.200        1.561        0.505      143.784       20.323        0.020      335.154        5.598      864.733
01/08/2022  13:04:00       99.806       45.326      -27.631       66.229       40.915       29.840     4386.325     1674.021      890.426        0.986        0.348      109.616       23.709        0.047      335.254        5.767      864.722
01/08/2022  13:05:00      159.035       45.585      -27.452       53.365       40.446       27.922     2847.819     1635.903      779.620        1.669        0.263      165.440       14.470        0.008      335.114        5.531      864.720
01/08/2022  13:06:00      159.836       61.779      -34.483       42.899       35.929       22.338     1840.309     1290.896      498.993        1.709        0.182      171.360       17.193        0.010      335.065        5.451      864.731
01/08/2022  13:07:00      103.382       82.100      -26.167       57.931       42.370       18.773     3356.032     1795.223      352.417        1.181        0.275      132.016       19.589        0.022      334.970        5.295      864.738
01/08/2022  13:08:00        0.212       35.077       -5.597       34.844       44.532       31.044     1214.105     1983.133      963.727        0.271        0.208       35.077       25.612        0.533      335.240        5.744      864.730
01/08/2022  13:09:00       16.854       70.339        3.321       80.125       51.067       37.767     6420.002     2607.881     1426.367        0.785        0.523       72.330       28.417        0.154      335.785        6.651      864.738
01/08/2022  13:10:00      140.726       80.011      -27.397       42.674       48.152       22.636     1821.053     2318.644      512.376        1.580        0.233      161.881       20.209        0.016      335.066        5.453      864.763
01/08/2022  13:11:00       58.125       71.852      -17.486       43.069       35.496       20.855     1854.929     1259.941      434.917        0.620        0.177       92.418       14.834        0.026      335.046        5.420      864.781
01/08/2022  13:12:00       -2.471       64.955      -14.227       32.521       45.910       31.375     1057.621     2107.708      984.393        0.429        0.207       65.002       19.711        0.092      335.457        6.105      864.785
01/08/2022  13:13:00        5.105      -37.831      -16.038       20.176       31.091       27.614      407.073      966.669      762.517        0.192        0.107       38.174       16.406        0.185      335.540        6.242      864.769
01/08/2022  13:14:00        8.571       -9.946      -11.465       32.933       59.790       21.669     1084.571     3574.866      469.548        0.272        0.256       13.129       28.013        4.552      335.478        6.138      864.740
01/08/2022  13:15:00       80.118       26.438      -29.633       68.777       79.705       36.848     4730.306     6352.820     1357.761        1.022        0.622       84.367       26.209        0.097      335.434        6.064      864.713
01/08/2022  13:16:00      153.493      -66.330      -55.224       84.258       93.235       43.533     7099.491     8692.713     1895.145        2.435        0.884      167.212       38.341        0.053      335.396        6.001      864.702
01/08/2022  13:17:00       68.169      -40.770      -26.977       61.809       77.666       33.187     3820.301     6032.081     1101.398        0.899        0.548       79.431       26.223        0.109      335.475        6.135      864.713
01/08/2022  13:18:00       65.787      -41.820      -29.437       41.068       54.916       39.764     1686.601     3015.761     1581.178        0.661        0.314       77.954       15.372        0.039      335.506        6.185      864.719
01/08/2022  13:19:00      110.677       38.283      -26.339       47.296       60.648       24.815     2236.880     3678.183      615.798        1.047        0.327      117.111       13.908        0.014      335.175        5.636      864.713
01/08/2022  13:20:00       65.296       28.715      -22.944       45.918       27.086       18.790     2108.418      733.673      353.077        0.440        0.160       71.331       19.508        0.075      335.141        5.577      864.690
01/08/2022  13:21:00       -2.888       13.403      -17.588       25.951       16.299       19.664      673.429      265.650      386.685        0.091        0.066       13.710       11.270        0.676      335.236        5.736      864.664
01/08/2022  13:22:00       42.556       62.425       -8.649       28.972       24.046       21.004      839.371      578.207      441.172        0.382        0.093       75.550       16.149        0.046      335.207        5.687      864.647
01/08/2022  13:23:00       45.918       93.772      -20.979       23.223       45.217       18.732      539.303     2044.549      350.893        0.714        0.147      104.411       12.410        0.014      335.139        5.575      864.640
01/08/2022  13:24:00       33.790       41.517       -9.148       31.910       17.896       22.047     1018.267      320.255      486.065        0.239        0.091       53.530       18.078        0.114      335.271        5.794      864.616
01/08/2022  13:25:00      -32.322      120.022      -10.243       22.371       28.326       22.336      500.478      802.369      498.919        0.868        0.090      124.298       12.771        0.011      335.409        6.024      864.595
01/08/2022  13:26:00     -101.814       69.191      -38.205       43.323       34.604       24.816     1876.911     1197.440      615.833        1.015        0.185      123.099       24.738        0.040      335.305        5.853      864.571
01/08/2022  13:27:00       -9.949       -8.841      -16.161       28.261       33.018       22.327      798.680     1090.161      498.515        0.141        0.119       13.310       15.939        1.434      335.424        6.049      864.553
01/08/2022  13:28:00      -23.827      -42.039      -17.425       23.173       38.790       21.616      536.977     1504.668      467.270        0.257        0.125       48.322        6.075        0.016      335.574        6.300      864.539
01/08/2022  13:29:00      -12.448       -5.872      -13.431       35.573       25.875       13.348     1265.461      669.533      178.180        0.124        0.106       13.763       11.159        0.657      335.774        6.632      864.533
01/08/2022  13:30:00        4.274      -85.141      -13.250       39.209       65.143       32.748     1537.323     4243.589     1072.431        0.715        0.343       85.248       22.921        0.072      335.939        6.906      864.531
01/08/2022  13:31:00       45.632      -64.984      -19.872       43.268       65.669       26.923     1872.088     4312.357      724.869        0.680        0.345       79.405       22.038        0.077      335.600        6.342      864.544
01/08/2022  13:32:00      -10.645      -22.392      -19.231       58.512       57.824       27.573     3423.648     3343.575      760.271        0.425        0.376       24.793       11.308        0.208      335.784        6.649      864.555
01/08/2022  13:33:00       13.226      -48.292       -8.652       47.210       48.770       47.392     2228.780     2378.532     2246.022        0.472        0.343       50.070       29.863        0.356      335.853        6.763      864.568
01/08/2022  13:34:00       51.014      -80.314      -20.000       43.051       58.253       31.347     1853.406     3393.421      982.661        0.784        0.311       95.146       27.521        0.084      335.880        6.809      864.570
01/08/2022  13:35:00       81.209     -126.699      -42.688       67.049       87.655       40.646     4495.635     7683.436     1652.095        1.915        0.692      150.492       42.773        0.081      335.699        6.505      864.572
01/08/2022  13:36:00       19.392      -10.231      -12.797       80.304       56.484       45.831     6448.756     3190.465     2100.505        0.619        0.587       21.925       27.960        1.626      335.864        6.781      864.565
01/08/2022  13:37:00       93.509       26.219      -32.706       84.117       84.532       46.276     7075.705     7145.712     2141.466        1.343        0.818       97.115       37.064        0.146      335.752        6.594      864.574
01/08/2022  13:38:00       89.479      -45.209      -41.578       70.452       83.824       60.597     4963.516     7026.475     3671.980        1.372        0.783      100.251       47.070        0.220      335.819        6.706      864.595
01/08/2022  13:39:00       85.002      -65.614      -35.779       51.426      108.623       34.243     2644.652    11798.848     1172.615        1.421        0.781      107.380       29.996        0.078      335.587        6.320      864.627
01/08/2022  13:40:00       80.585      -51.473      -46.354       54.024       63.628       33.947     2918.619     4048.494     1152.417        0.970        0.406       95.622       14.342        0.022      335.463        6.113      864.654
01/08/2022  13:41:00       -1.774       85.987      -34.512       33.900       36.654       36.895     1149.183     1343.529     1361.258        0.622        0.193       86.005       30.449        0.125      335.368        5.956      864.679
01/08/2022  13:42:00      -61.790       34.868      -11.157       44.317       47.123       31.041     1964.004     2220.574      963.529        0.515        0.257       70.950       14.510        0.042      335.525        6.217      864.694
01/08/2022  13:43:00      -54.112       38.235       -3.263       42.951       31.875       30.893     1844.754     1016.046      954.396        0.411        0.191       66.257       26.673        0.162      335.831        6.727      864.714
01/08/2022  13:44:00        2.682       28.843        8.585       32.266       23.403       25.419     1041.107      547.689      646.111        0.157        0.112       28.967       11.591        0.160      335.956        6.935      864.735
01/08/2022  13:45:00       -5.604       -1.017       -1.817       31.443       35.892       24.026      988.635     1288.251      577.265        0.144        0.143        5.696       17.276        9.199      336.092        7.163      864.735
01/08/2022  13:46:00      -16.568       26.143       -5.923       31.269       31.174       20.013      977.780      971.815      400.508        0.167        0.118       30.951       16.239        0.275      335.962        6.945      864.747
01/08/2022  13:47:00       57.018       73.662      -13.611       42.445       53.933       27.784     1801.538     2908.771      771.938        0.717        0.274       93.151       22.073        0.056      335.555        6.267      864.751
01/08/2022  13:48:00       62.621       38.549       -9.640       39.356       45.299       22.290     1548.929     2052.034      496.859        0.480        0.205       73.535       14.928        0.041      335.558        6.273      864.749
01/08/2022  13:49:00      139.621       92.495      -12.691       52.337       33.203       26.116     2739.123     1102.432      682.045        1.637        0.226      167.480       21.978        0.017      335.388        5.989      864.733
01/08/2022  13:50:00      163.444       19.900      -19.868       87.423       52.632       33.876     7642.750     2770.156     1147.568        1.953        0.578      164.651       37.912        0.053      335.601        6.341      864.708
01/08/2022  13:51:00      227.935       50.763      -27.575      103.572       89.068       43.779    10727.124     7933.053     1916.606        3.793        1.029      233.520       28.449        0.015      335.581        6.307      864.692
01/08/2022  13:52:00      133.288      -28.693      -36.532       61.177       65.609       41.358     3742.594     4304.528     1710.491        1.484        0.488      136.342       23.542        0.030      335.794        6.666      864.705
01/08/2022  13:53:00      116.443       -4.341      -50.197       93.525      108.461       49.354     8746.931    11763.864     2435.853        1.952        1.147      116.524       39.885        0.117      335.806        6.683      864.728
01/08/2022  13:54:00      113.899      -12.140      -30.057       82.389       90.914       50.461     6787.899     8265.285     2546.343        1.581        0.880      114.544       41.272        0.130      335.645        6.416      864.745
01/08/2022  13:55:00       82.158        8.641      -30.117       77.859       61.277       37.172     6061.986     3754.905     1381.726        0.946        0.560       82.611       39.025        0.223      335.601        6.344      864.778
01/08/2022  13:56:00      -12.026      -26.449        3.225       38.743       48.234       37.711     1501.022     2326.508     1422.083        0.305        0.262       29.055       28.947        0.993      335.971        6.960      864.784
01/08/2022  13:57:00       34.402      -62.148      -21.319       36.583       53.322       29.934     1338.306     2843.199      896.039        0.529        0.254       71.035       17.815        0.063      335.570        6.291      864.799
01/08/2022  13:58:00      105.805       40.626      -10.552       74.708       36.239       29.069     5581.345     1313.269      844.993        1.035        0.387      113.336       32.821        0.084      335.700        6.508      864.806
01/08/2022  13:59:00      150.838       41.990      -19.153       40.979       25.359       18.156     1679.248      643.072      329.654        1.377        0.133      156.573        7.980        0.003      335.335        5.900      864.814
01/08/2022  14:00:00      105.742       54.668      -22.529       26.611       33.154       20.752      708.167     1099.203      430.645        0.846        0.112      119.037       11.132        0.009      335.408        6.022      864.816
01/08/2022  14:01:00      208.405       45.985      -17.466       68.803       68.299       37.420     4733.835     4664.717     1400.278        2.832        0.540      213.418       34.104        0.026      335.551        6.257      864.800
01/08/2022  14:02:00      135.985       16.094      -29.029       61.687       49.201       27.056     3805.269     2420.787      732.026        1.327        0.348      136.934       18.941        0.019      335.643        6.414      864.809
01/08/2022  14:03:00       84.435       73.796      -12.043       36.793       34.248       20.924     1353.714     1172.902      437.819        0.784        0.148      112.138       19.502        0.030      335.544        6.249      864.806
01/08/2022  14:04:00      -25.009       -2.253      -18.061       51.649       46.079       27.146     2667.638     2123.263      736.900        0.324        0.276       25.110       21.078        0.705      336.043        7.079      864.797
01/08/2022  14:05:00       33.888       48.563        9.263       38.198       26.986       28.376     1459.119      728.227      805.223        0.329        0.150       59.218       22.047        0.139      335.790        6.658      864.788
01/08/2022  14:06:00      118.319       31.702      -11.004       67.825       67.447       31.840     4600.270     4549.146     1013.813        1.264        0.508      122.492       37.559        0.094      335.750        6.592      864.763
01/08/2022  14:07:00       84.893      -95.463      -33.977       57.697      115.195       38.781     3328.938    13269.779     1503.984        1.779        0.905      127.750       50.907        0.159      335.857        6.768      864.735
01/08/2022  14:08:00       80.496     -180.208      -41.949       40.994       49.845       26.010     1680.506     2484.563      676.517        2.278        0.242      197.369       17.881        0.008      335.526        6.216      864.708
01/08/2022  14:09:00       56.020     -139.125      -27.828       43.488       57.490       41.452     1891.240     3305.121     1718.268        1.509        0.346      149.980       28.415        0.036      336.040        7.076      864.707
01/08/2022  14:10:00       37.309     -130.217      -21.464       52.888       84.631       47.981     2797.130     7162.370     2302.203        1.553        0.613      135.457       35.933        0.070      335.973        6.962      864.708
01/08/2022  14:11:00       89.637      -68.761      -47.943       52.776       79.010       46.560     2785.261     6242.517     2167.851        1.313        0.560      112.973       20.985        0.035      335.761        6.610      864.723
01/08/2022  14:12:00       36.406      -22.600      -21.081       61.420       58.253       33.472     3772.378     3393.439     1120.384        0.528        0.414       42.850       29.328        0.468      335.925        6.884      864.723
01/08/2022  14:13:00       45.335      -40.477      -17.954       93.022       58.791       30.565     8653.129     3456.427      934.240        0.853        0.652       60.776       37.571        0.382      336.019        7.039      864.744
01/08/2022  14:14:00       47.989      -38.909      -32.762       43.792       62.218       34.812     1917.758     3871.026     1211.874        0.594        0.350       61.780       22.448        0.132      336.045        7.083      864.751
01/08/2022  14:15:00       48.745      -91.243      -20.996       78.011       54.434       44.894     6085.745     2963.036     2015.453        1.110        0.553      103.448       48.390        0.219      335.949        6.922      864.767
01/08/2022  14:16:00       69.406     -153.023      -41.549       38.107       37.374       28.878     1452.118     1396.830      833.934        1.682        0.184      168.027       18.171        0.012      335.613        6.363      864.777
01/08/2022  14:17:00       51.210     -115.973      -29.893       41.739       47.610       29.903     1742.179     2266.756      894.217        1.093        0.245      126.776       14.632        0.013      335.788        6.655      864.791
01/08/2022  14:18:00       32.068      -41.612      -41.689       37.825       63.888       36.789     1430.766     4081.688     1353.444        0.568        0.343       52.535       30.057        0.327      335.654        6.431      864.802
01/08/2022  14:19:00        1.523      -19.779      -10.764       30.184       38.193       23.049      911.071     1458.681      531.261        0.170        0.145       19.837        8.938        0.203      336.032        7.061      864.811
01/08/2022  14:20:00        4.215      -13.165      -17.026       26.436       26.260       14.962      698.836      689.604      223.874        0.105        0.081       13.823       12.963        0.879      336.075        7.132      864.820
01/08/2022  14:21:00       87.544     -109.301      -34.711       48.478       57.300       32.928     2350.069     3283.256     1084.227        1.377        0.336      140.038       29.431        0.044      335.830        6.725      864.824
01/08/2022  14:22:00       53.486     -108.790      -30.217       29.081       50.689       14.641      845.730     2569.412      214.360        0.962        0.181      121.227       12.415        0.010      335.591        6.326      864.829
01/08/2022  14:23:00       44.338       -7.599      -12.484       33.756       29.945       18.382     1139.436      896.719      337.881        0.228        0.119       44.985       15.444        0.118      335.858        6.771      864.845
01/08/2022  14:24:00       34.868       71.861      -11.716       64.859       23.820       21.298     4206.719      567.414      453.618        0.587        0.261       79.873       21.815        0.075      335.829        6.724      864.848
01/08/2022  14:25:00      195.204       75.639      -17.361       62.905       42.526       34.477     3957.051     1808.493     1188.673        2.554        0.348      209.347       24.281        0.013      335.734        6.562      864.844
01/08/2022  14:26:00      199.661       60.429      -24.758       71.836       51.881       31.676     5160.430     2691.624     1003.391        2.649        0.443      208.605       22.419        0.012      335.703        6.510      864.844
01/08/2022  14:27:00      182.231       74.707      -20.760       48.384       38.719       27.062     2340.993     1499.164      732.376        2.190        0.229      196.950       11.515        0.003      335.570        6.290      864.844
01/08/2022  14:28:00      150.744       67.577      -26.586       41.561       36.014       22.055     1727.302     1297.034      486.415        1.575        0.176      165.198       11.083        0.005      335.610        6.357      864.841
01/08/2022  14:29:00       74.561       39.709      -14.864       37.798       33.664       22.716     1428.661     1133.277      516.008        0.522        0.154       84.476       16.593        0.039      335.688        6.489      864.818
01/08/2022  14:30:00      126.053       18.790      -21.762       57.966       44.653       24.908     3360.052     1993.910      620.397        1.134        0.299      127.446        9.506        0.006      335.852        6.762      864.801
01/08/2022  14:31:00       66.752       -5.928      -16.236       76.732       45.298       23.989     5887.796     2051.932      575.474        0.663        0.426       67.015       24.280        0.131      335.721        6.544      864.786
01/08/2022  14:32:00       21.226       60.444      -21.215       57.272       41.369       28.606     3280.026     1711.360      818.330        0.518        0.290       64.063       23.293        0.132      335.951        6.926      864.766
01/08/2022  14:33:00      114.282       84.567      -16.255       54.157       40.394       21.993     2933.025     1631.656      483.687        1.276        0.252      142.169       15.761        0.012      335.737        6.571      864.757
01/08/2022  14:34:00      136.337      112.366      -19.271       81.631       43.492       36.480     6663.652     1891.593     1330.808        2.073        0.494      176.674       30.752        0.030      335.843        6.745      864.755
01/08/2022  14:35:00      119.614      101.061      -11.424       77.869       44.882       33.965     6063.566     2014.380     1153.620        1.694        0.462      156.591       30.561        0.038      335.821        6.708      864.754
01/08/2022  14:36:00      227.025       64.343      -31.460       54.496       56.308       30.083     2969.805     3170.556      905.008        3.186        0.352      235.967       17.789        0.006      335.689        6.485      864.745
01/08/2022  14:37:00       91.455       44.787      -18.460       76.088       38.256       25.391     5789.333     1463.513      644.720        0.930        0.395      101.832       17.640        0.030      335.871        6.792      864.733
01/08/2022  14:38:00       67.754      -15.888      -21.373       65.788       35.362       20.991     4328.089     1250.437      440.631        0.566        0.301       69.592       16.736        0.058      335.937        6.903      864.719
01/08/2022  14:39:00       35.656       12.667       -7.909       54.040       84.602       40.394     2920.294     7157.450     1631.679        0.660        0.585       37.839       32.248        0.726      336.144        7.249      864.706
01/08/2022  14:40:00        8.157      -12.313       -2.075       30.269       51.986       24.831      916.211     2702.516      616.603        0.223        0.212       14.770       16.132        1.193      336.247        7.421      864.693
01/08/2022  14:41:00       -5.281       28.078        6.464       25.407       23.390       15.628      645.523      547.072      244.247        0.115        0.072       28.570       14.416        0.255      336.362        7.611      864.675
01/08/2022  14:42:00       87.005       -5.155      -14.922       71.686       63.596       32.793     5138.875     4044.448     1075.373        0.904        0.513       87.158       19.631        0.051      336.049        7.088      864.671
01/08/2022  14:43:00      181.797       23.202      -20.764       79.999       72.546       45.172     6399.791     5262.871     2040.521        2.386        0.685      183.271       32.384        0.031      335.781        6.640      864.670
01/08/2022  14:44:00      158.200       61.526      -11.767       78.143       63.818       39.066     6106.256     4072.688     1526.139        2.033        0.585      169.743       40.537        0.057      335.699        6.505      864.687
01/08/2022  14:45:00       93.420       74.004      -11.730       56.245       45.126       32.017     3163.527     2036.384     1025.072        1.028        0.311      119.180       23.350        0.038      335.710        6.523      864.714
01/08/2022  14:46:00      181.937       10.123      -24.126       61.834       36.184       31.226     3823.439     1309.306      975.048        1.995        0.305      182.218       20.200        0.012      335.787        6.652      864.738
01/08/2022  14:47:00      111.696       20.602      -11.823       58.573       59.941       42.716     3430.855     3592.955     1824.693        1.094        0.442      113.580       28.609        0.063      336.012        7.029      864.760
01/08/2022  14:48:00      154.152        6.488      -17.285       75.275       75.682       44.233     5666.284     5727.743     1956.544        1.872        0.668      154.288       34.718        0.051      336.038        7.070      864.772
01/08/2022  14:49:00      114.561        7.447      -31.989       59.317       50.938       29.374     3518.526     2594.708      862.805        1.059        0.349      114.803       19.919        0.030      335.915        6.866      864.781
01/08/2022  14:50:00       89.106       39.456      -20.137       31.721       35.385       20.981     1006.193     1252.068      440.193        0.630        0.135       97.451       11.755        0.015      335.807        6.686      864.789
01/08/2022  14:51:00       25.585       33.310       -3.951       33.448       19.569       23.200     1118.758      382.945      538.239        0.191        0.102       42.002       10.684        0.065      336.016        7.036      864.788
01/08/2022  14:52:00       54.911       24.950      -17.389       37.669       25.780       25.707     1418.967      664.586      660.874        0.334        0.137       60.313       20.439        0.115      335.962        6.945      864.786
01/08/2022  14:53:00      100.057       37.323      -12.055       36.749       20.893       17.764     1350.462      436.516      315.555        0.683        0.105      106.792       16.650        0.024      335.870        6.793      864.797
01/08/2022  14:54:00       48.961       72.674       -3.636       47.151       40.012       26.362     2223.231     1600.948      694.960        0.610        0.226       87.628       22.075        0.063      335.936        6.904      864.805
01/08/2022  14:55:00       43.036       70.148       -5.420       39.964       38.738       23.932     1597.087     1500.659      572.735        0.524        0.184       82.297       21.185        0.066      335.941        6.911      864.809
01/08/2022  14:56:00       68.643       62.171        2.237       41.615       37.884       31.011     1731.798     1435.177      961.661        0.635        0.206       92.612       29.823        0.104      335.950        6.925      864.815
01/08/2022  14:57:00       56.095       25.203      -22.638       39.503       41.058       15.566     1560.524     1685.780      242.293        0.389        0.174       61.497       12.832        0.044      335.940        6.908      864.813
01/08/2022  14:58:00       98.467       47.615      -34.667       44.288       51.075       28.554     1961.471     2608.703      815.345        0.927        0.269      109.375       17.793        0.026      336.082        7.145      864.804
01/08/2022  14:59:00      156.223       17.734      -27.367       75.964       56.198       40.555     5770.455     3158.222     1644.694        1.802        0.529      157.226       30.918        0.039      336.064        7.114      864.806
01/08/2022  15:00:00       89.133       16.509      -18.493       57.040       43.720       25.549     3253.512     1911.448      652.772        0.719        0.291       90.649       23.724        0.068      335.996        7.001      864.822
01/08/2022  15:01:00      113.398       51.215      -22.196       40.646       20.864       16.571     1652.116      435.286      274.607        0.917        0.118      124.427       10.605        0.007      335.789        6.655      864.829
01/08/2022  15:02:00       78.449       52.248      -23.660       30.033       25.936       21.730      902.006      672.656      472.208        0.574        0.102       94.255       10.671        0.013      335.889        6.823      864.832
01/08/2022  15:03:00       18.390       37.169       -9.531       25.455       15.496       10.511      647.961      240.134      110.477        0.140        0.050       41.469        9.076        0.048      335.876        6.801      864.842
01/08/2022  15:04:00       44.664       49.182       -8.568       20.522       17.941       15.873      421.147      321.889      251.941        0.274        0.050       66.436        6.930        0.011      335.830        6.725      864.850
01/08/2022  15:05:00       -4.779       31.880      -16.113       26.252       26.682       14.406      689.142      711.910      207.539        0.145        0.080       32.236       13.686        0.180      335.915        6.867      864.853
01/08/2022  15:06:00       48.956       37.600      -10.244       41.794       26.685       20.718     1746.778      712.106      429.218        0.340        0.144       61.729       16.405        0.071      336.003        7.014      864.849
01/08/2022  15:07:00       49.450       51.914      -22.283       30.309       20.894       16.186      918.625      436.566      262.000        0.363        0.081       71.696       14.588        0.041      335.845        6.750      864.854
01/08/2022  15:08:00       38.938       20.180       -4.404       34.084       40.889       17.146     1161.742     1671.893      294.002        0.253        0.156       43.857       12.627        0.083      336.010        7.025      864.850
01/08/2022  15:09:00       90.955       42.864      -13.437       44.081       49.855       31.008     1943.155     2485.480      961.472        0.784        0.270      100.550       18.747        0.035      335.956        6.936      864.847
01/08/2022  15:10:00       62.641       51.205      -23.965       43.184       46.305       38.336     1864.890     2144.174     1469.620        0.630        0.274       80.906       23.049        0.081      335.957        6.938      864.851
01/08/2022  15:11:00       85.925       64.856      -35.239       44.635       38.959       30.778     1992.293     1517.842      947.315        0.864        0.223      107.654       23.190        0.046      335.921        6.877      864.854
01/08/2022  15:12:00       17.186       44.617      -13.768       31.194       35.145       24.582      973.060     1235.154      604.257        0.264        0.141       47.812        8.168        0.029      336.043        7.080      864.864
01/08/2022  15:13:00       34.967       54.808      -15.527       39.343       20.588       19.503     1547.911      423.858      380.361        0.341        0.118       65.012       18.342        0.080      335.921        6.877      864.869
01/08/2022  15:14:00       67.146       72.311      -14.869       40.330       25.654       22.886     1626.481      658.136      523.777        0.638        0.140       98.678       14.771        0.022      335.885        6.817      864.875
01/08/2022  15:15:00       87.707       59.368       -5.209       23.140       21.588       17.171      535.458      466.023      294.846        0.627        0.065      105.911        5.636        0.003      335.931        6.893      864.880
01/08/2022  15:16:00       67.192       -8.018       -4.419       42.298       38.511       31.605     1789.107     1483.093      998.893        0.443        0.214       67.668       22.112        0.107      336.080        7.142      864.882
01/08/2022  15:17:00      -13.522       -0.029      -20.651       47.694       29.675       26.412     2274.685      880.606      697.577        0.223        0.193       13.522       17.981        1.768      336.322        7.545      864.892
01/08/2022  15:18:00       12.297      -37.850       -7.609       26.668       57.236       25.433      711.184     3276.010      646.831        0.314        0.232       39.798       26.722        0.451      336.346        7.587      864.901
01/08/2022  15:19:00       -9.509       13.585       -4.092       23.999       23.792       18.493      575.954      566.062      341.976        0.089        0.074       16.583       11.173        0.454      336.594        8.002      864.914
01/08/2022  15:20:00        6.367      -51.229       -9.223       25.021       55.748       27.494      626.039     3107.878      755.924        0.362        0.224       51.623       25.904        0.252      336.461        7.779      864.917
01/08/2022  15:21:00       37.050      -51.616      -22.806       21.132       41.519       24.237      446.570     1723.798      587.449        0.366        0.138       63.537       21.962        0.119      336.348        7.589      864.924
01/08/2022  15:22:00      -10.699      -50.812      -19.856       29.452       34.043       21.500      867.403     1158.956      462.233        0.279        0.124       51.927       17.891        0.119      336.423        7.715      864.943
01/08/2022  15:23:00        3.010      -27.585      -25.490       29.582       37.701       16.326      875.104     1421.333      266.540        0.199        0.128       27.748       13.475        0.236      336.399        7.674      864.974
01/08/2022  15:24:00       18.964        9.571       -9.000       32.282       36.351       24.325     1042.140     1321.429      591.726        0.174        0.148       21.243       18.446        0.754      336.410        7.694      865.001
01/08/2022  15:25:00        0.263       11.727       -9.062       11.323       27.948       10.807      128.211      781.105      116.786        0.062        0.051       11.730        5.886        0.252      336.365        7.618      865.015
01/08/2022  15:26:00        4.635      -21.130      -14.363       23.569       40.134       14.533      555.509     1610.748      211.194        0.153        0.119       21.632        7.360        0.116      336.576        7.970      865.020
01/08/2022  15:27:00       22.425      -79.598      -27.123       39.133       28.412       22.712     1531.383      807.266      515.853        0.521        0.143       82.697        6.061        0.005      336.247        7.421      865.027
01/08/2022  15:28:00       -8.759      -11.296        9.246       27.757       49.567       20.779      770.452     2456.914      431.774        0.197        0.183       14.294       24.724        2.992      336.178        7.305      865.035
01/08/2022  15:29:00       10.900       19.229        0.629       27.929       30.200       13.976      780.043      912.032      195.323        0.119        0.094       22.104        9.191        0.173      336.365        7.618      865.046
01/08/2022  15:30:00      -25.805       40.103      -14.358       28.023       24.384       17.484      785.310      594.570      305.677        0.208        0.084       47.688       14.312        0.090      336.517        7.873      865.062
01/08/2022  15:31:00       23.760       38.278       -7.498       15.477       17.289       18.102      239.549      298.914      327.674        0.148        0.043       45.053       10.677        0.056      336.219        7.373      865.089
01/08/2022  15:32:00       -3.475        2.157       -2.642       27.044       32.275       18.582      731.375     1041.704      345.284        0.107        0.106        4.090        8.913        4.749      336.422        7.712      865.116
01/08/2022  15:33:00       39.121      -84.514      -34.301       45.749       45.592       25.785     2092.947     2078.595      664.873        0.734        0.242       93.130       24.133        0.067      336.308        7.522      865.141
01/08/2022  15:34:00       13.204      -43.899       -6.012       46.626       67.329       38.804     2173.968     4533.204     1505.769        0.517        0.411       45.841       32.741        0.510      336.406        7.687      865.170
01/08/2022  15:35:00       34.001       17.334       -5.227       44.407       50.023       33.510     1972.004     2502.255     1122.924        0.354        0.280       38.165       22.406        0.345      336.276        7.468      865.186
01/08/2022  15:36:00       26.372       30.609      -13.978       32.817       39.437       20.961     1076.988     1555.259      439.348        0.245        0.154       40.403       18.200        0.203      336.167        7.287      865.193
01/08/2022  15:37:00       53.940       59.307      -19.174       88.888       74.184       31.321     7901.057     5503.286      980.991        1.059        0.719       80.168       28.244        0.124      336.265        7.453      865.184
01/08/2022  15:38:00       88.552       36.480      -18.961       30.452       33.746       23.471      927.324     1138.761      550.903        0.607        0.131       95.772       13.952        0.021      335.998        7.006      865.175
01/08/2022  15:39:00       64.748       16.221      -22.832       35.622       26.963       13.868     1268.923      727.014      192.325        0.358        0.109       66.749       15.425        0.053      335.973        6.965      865.160
01/08/2022  15:40:00       25.877       20.812       -6.830       33.088       43.309       21.249     1094.840     1875.697      451.509        0.229        0.171       33.208       18.521        0.311      336.117        7.204      865.142
01/08/2022  15:41:00      -10.372        7.682       -1.608       27.236       28.371       17.640      741.820      804.912      311.165        0.101        0.093       12.907       14.601        1.280      336.284        7.483      865.123
01/08/2022  15:42:00       37.180       24.010       -9.313       31.104       30.015       26.745      967.465      900.880      715.275        0.231        0.129       44.259       10.192        0.053      336.167        7.286      865.107
01/08/2022  15:43:00       99.151       50.207      -23.769       31.055       19.433       20.968      964.426      377.651      439.652        0.735        0.089      111.138       14.164        0.016      336.050        7.092      865.114
01/08/2022  15:44:00       99.990       37.060      -22.722       36.687       29.602       21.167     1345.908      876.282      448.024        0.728        0.134      106.637       14.912        0.020      336.031        7.059      865.126
01/08/2022  15:45:00      111.628       48.850      -11.972       30.243       23.852       18.749      914.620      568.914      351.525        0.841        0.092      121.849       11.875        0.009      335.981        6.977      865.147
01/08/2022  15:46:00      128.182       66.670      -11.278       33.843       24.139       18.449     1145.324      582.683      340.360        1.154        0.103      144.483       11.297        0.006      335.992        6.996      865.163
01/08/2022  15:47:00      130.622       75.264      -15.481       39.556       30.404       21.929     1564.671      924.417      480.869        1.297        0.148      150.754       18.894        0.016      336.031        7.060      865.177
01/08/2022  15:48:00      123.998       56.611      -21.677       43.908       30.513       26.037     1927.876      931.065      677.905        1.129        0.177      136.309       19.743        0.021      336.031        7.060      865.179
01/08/2022  15:49:00       76.613       75.275      -15.012       34.653       29.309       21.075     1200.833      859.010      444.171        0.713        0.125      107.405       18.969        0.031      335.961        6.945      865.176
01/08/2022  15:50:00       42.418       57.769      -14.454       21.641       22.733       20.988      468.316      516.805      440.477        0.339        0.071       71.670       13.434        0.035      336.056        7.101      865.169
01/08/2022  15:51:00       40.438       32.144      -14.385       19.920       21.168       14.020      396.809      448.074      196.553        0.196        0.052       51.657        6.819        0.017      336.011        7.028      865.160
01/08/2022  15:52:00       97.463       53.455      -15.064       28.282       19.288       17.803      799.871      372.034      316.938        0.704        0.074      111.160       16.016        0.021      336.005        7.017      865.152
01/08/2022  15:53:00       59.956       15.455      -13.287       21.172       18.393       16.546      448.257      338.287      273.782        0.254        0.053       61.916       14.496        0.055      336.060        7.109      865.142
01/08/2022  15:54:00      104.318       50.962      -12.476       39.780       23.999       21.254     1582.481      575.971      451.728        0.812        0.131      116.100       14.758        0.016      336.076        7.135      865.147
01/08/2022  15:55:00       50.428       59.213        2.322       49.914       36.194       25.304     2491.388     1310.017      640.276        0.525        0.222       77.777       25.223        0.105      336.088        7.156      865.165
01/08/2022  15:56:00       95.186       67.952      -15.138       38.718       46.822       31.490     1499.105     2192.261      991.629        0.929        0.234      116.953       30.205        0.067      336.027        7.053      865.189
01/08/2022  15:57:00       13.766       80.209      -12.440       98.580       67.986       34.537     9718.030     4622.099     1192.773        1.115        0.777       81.382       30.251        0.138      336.243        7.414      865.204
01/08/2022  15:58:00      114.019       18.014      -11.803       65.911       47.280       28.795     4344.222     2235.351      829.158        1.044        0.370      115.433       24.468        0.045      336.022        7.045      865.220
01/08/2022  15:59:00      199.934       38.773      -25.441       84.393       53.817       40.371     7122.212     2896.266     1629.856        2.688        0.582      203.659       31.837        0.024      336.053        7.094      865.226
01/08/2022  16:00:00      213.223       69.001      -21.786       95.174       55.928       37.065     9058.040     3127.932     1373.838        3.213        0.678      224.110       27.484        0.015      335.939        6.904      865.229
01/08/2022  16:01:00      173.786       54.953      -30.462       66.288       50.373       32.781     4394.138     2537.450     1074.625        2.108        0.400      182.267       16.018        0.008      335.908        6.853      865.223
01/08/2022  16:02:00      123.274       74.696      -26.569       32.457       40.394       24.101     1053.486     1631.662      580.859        1.237        0.163      144.139       16.673        0.013      335.916        6.871      865.223
01/08/2022  16:03:00       63.454       32.875      -18.307       55.131       37.547       29.292     3039.480     1409.761      858.033        0.537        0.265       71.465       16.744        0.055      336.000        7.009      865.214
01/08/2022  16:04:00      115.201       56.219      -21.608       60.479       50.129       25.795     3657.660     2512.943      665.375        1.187        0.342      128.187       25.124        0.038      335.975        6.966      865.217
01/08/2022  16:05:00       57.172       68.444       -6.703       36.377       29.491       19.847     1323.254      869.717      393.904        0.529        0.129       89.181       16.265        0.033      336.005        7.017      865.235
01/08/2022  16:06:00      101.146       64.925      -17.458       34.330       38.337       24.674     1178.548     1469.695      608.827        0.900        0.163      120.191       19.260        0.026      335.978        6.971      865.256
01/08/2022  16:07:00       96.319       40.535      -22.251       49.226       54.707       24.965     2423.178     2992.820      623.252        0.873        0.302      104.501       18.171        0.030      335.981        6.978      865.274
01/08/2022  16:08:00       66.826      -15.788      -14.744       51.291       40.176       26.639     2630.741     1614.077      709.629        0.494        0.248       68.665       15.256        0.049      336.045        7.082      865.275
01/08/2022  16:09:00       98.603       49.036      -12.225       39.166       33.618       21.142     1533.959     1130.190      446.972        0.769        0.156      110.123       18.297        0.028      335.946        6.917      865.285
01/08/2022  16:10:00       70.845       49.119      -18.103       23.482       20.199       19.539      551.421      407.994      381.773        0.455        0.067       86.207        7.112        0.007      335.955        6.934      865.286
01/08/2022  16:11:00      148.006       48.704      -21.767       52.883       36.990       19.439     2796.565     1368.272      377.885        1.465        0.227      155.814       13.774        0.008      335.985        6.982      865.286
01/08/2022  16:12:00       98.084       69.446      -16.475       49.285       47.596       34.197     2429.021     2265.372     1169.429        1.029        0.293      120.179       24.177        0.040      335.920        6.876      865.291
01/08/2022  16:13:00      121.159       82.280      -19.269       65.874       32.476       29.939     4339.351     1054.679      896.316        1.405        0.315      146.457       28.432        0.038      335.874        6.798      865.294
01/08/2022  16:14:00       82.724      100.504      -10.166       55.541       46.726       38.240     3084.793     2183.328     1462.322        1.189        0.337      130.170       33.978        0.068      335.919        6.873      865.304
01/08/2022  16:15:00       71.537       67.603      -17.146       40.389       37.549       28.524     1631.273     1409.901      813.636        0.692        0.193       98.426       23.961        0.059      335.864        6.782      865.313
01/08/2022  16:16:00       79.935      110.041      -14.637       47.454       52.126       30.512     2251.869     2717.090      930.967        1.231        0.295      136.010       11.722        0.007      335.901        6.843      865.319
01/08/2022  16:17:00      -12.928      130.544       -3.290       46.825       69.002       37.947     2192.552     4761.220     1439.983        1.281        0.420      131.183       33.883        0.067      336.005        7.017      865.302
01/08/2022  16:18:00       62.197      112.739      -10.996       50.351       41.393       26.011     2535.195     1713.396      676.572        1.081        0.246      128.758       21.789        0.029      335.887        6.820      865.293
01/08/2022  16:19:00       52.475       93.056       -7.037       54.297       37.166       25.552     2948.168     1381.310      652.885        0.822        0.249      106.831       21.530        0.041      335.903        6.847      865.270
01/08/2022  16:20:00       88.345      100.390      -18.817       37.070       59.922       22.437     1374.176     3590.605      503.398        1.185        0.273      133.727       18.958        0.020      335.846        6.752      865.256
01/08/2022  16:21:00       92.654       35.373      -17.608       31.018       37.633       15.658      962.135     1416.211      245.162        0.638        0.131       99.176       12.514        0.016      335.800        6.674      865.254
01/08/2022  16:22:00      149.469       82.788      -15.205       61.733       45.026       26.018     3810.977     2027.325      676.919        1.797        0.326      170.865       33.095        0.038      335.822        6.710      865.262
01/08/2022  16:23:00      159.812       78.528      -19.767       70.944       50.108       36.418     5033.001     2510.825     1326.256        2.048        0.444      178.064       28.312        0.025      335.842        6.743      865.273
01/08/2022  16:24:00      193.288       54.868       -9.411       60.364       63.098       44.524     3643.821     3981.356     1982.407        2.503        0.480      200.925       34.734        0.030      335.794        6.663      865.286
01/08/2022  16:25:00      122.216       32.822      -27.082       58.606       55.572       34.415     3434.661     3088.193     1184.396        1.223        0.385      126.547       20.572        0.026      335.778        6.639      865.304
01/08/2022  16:26:00      128.507       24.154      -13.934       39.189       30.015       23.596     1535.792      900.900      556.783        1.014        0.150      130.757       14.244        0.012      335.728        6.554      865.333
01/08/2022  16:27:00      171.964       64.398      -20.165       25.161       30.683       17.797      633.097      941.445      316.723        1.801        0.095      183.627       10.911        0.004      335.771        6.628      865.353
01/08/2022  16:28:00      102.759       26.887       -6.053       62.430       37.269       27.195     3897.470     1388.977      739.585        0.867        0.301      106.219       32.269        0.092      335.739        6.571      865.366
01/08/2022  16:29:00      203.366       85.720      -20.150       47.791       55.774       38.857     2283.985     3110.736     1509.859        2.801        0.345      220.693       26.300        0.014      335.753        6.593      865.373
01/08/2022  16:30:00      154.965       45.359      -12.913       40.241       41.594       30.624     1619.301     1730.047      937.831        1.526        0.214      161.467       16.548        0.011      335.713        6.527      865.380
01/08/2022  16:31:00      162.531       92.570      -23.726       47.520       32.089       21.792     2258.169     1029.709      474.881        1.965        0.188      187.045       17.045        0.008      335.734        6.563      865.403
01/08/2022  16:32:00      129.750       51.444      -14.537       33.667       32.600       19.245     1133.478     1062.761      370.387        1.113        0.128      139.576       14.762        0.011      335.720        6.540      865.434
01/08/2022  16:33:00      110.911       54.411      -11.214       41.111       24.935       23.781     1690.091      621.774      565.550        0.913        0.144      123.539       14.450        0.014      335.696        6.501      865.459
01/08/2022  16:34:00      110.972       46.085      -29.883       34.902       42.883       21.848     1218.183     1838.985      477.326        0.943        0.177      120.160       10.232        0.007      335.746        6.584      865.477
01/08/2022  16:35:00      146.338       24.459      -20.472       71.412       47.884       30.797     5099.712     2292.910      948.471        1.539        0.417      148.368       23.046        0.024      335.792        6.660      865.484
01/08/2022  16:36:00      139.820       43.222      -22.617       62.462       46.069       29.896     3901.548     2122.326      893.760        1.442        0.346      146.348       15.635        0.011      335.669        6.455      865.495
01/08/2022  16:37:00      151.830       37.514      -15.916       50.311       58.026       30.853     2531.207     3367.016      951.927        1.578        0.343      156.396       25.979        0.028      335.704        6.513      865.498
01/08/2022  16:38:00      195.524       41.718      -20.641       73.583       44.086       31.873     5414.449     1943.571     1015.887        2.438        0.419      199.925       21.793        0.012      335.725        6.547      865.498
01/08/2022  16:39:00      137.615       39.190      -19.809       50.364       37.001       24.632     2536.514     1369.078      606.751        1.269        0.226      143.086       17.353        0.015      335.634        6.399      865.512
01/08/2022  16:40:00      118.239       67.373      -16.742       30.873       27.431       22.017      953.133      752.451      484.766        1.049        0.110      136.087        9.427        0.005      335.646        6.418      865.524
01/08/2022  16:41:00       77.242       86.026       -9.508       35.849       45.696       21.219     1285.144     2088.170      450.238        0.864        0.191      115.615       18.095        0.024      335.680        6.476      865.539
01/08/2022  16:42:00       72.022       75.105      -10.434       29.266       30.025       20.835      856.508      901.527      434.118        0.656        0.110      104.057       15.705        0.023      335.694        6.497      865.554
01/08/2022  16:43:00       89.634       56.231       -2.191       46.426       33.431       25.969     2155.358     1117.638      674.411        0.757        0.197      105.812       20.486        0.037      335.616        6.368      865.564
01/08/2022  16:44:00       50.335       64.818        3.345       36.909       45.184       22.233     1362.301     2041.611      494.303        0.532        0.195       82.067       17.773        0.047      335.624        6.381      865.578
01/08/2022  16:45:00       73.850       77.342      -11.735       31.058       36.971       21.376      964.608     1366.858      456.934        0.718        0.139      106.937       19.269        0.032      335.662        6.445      865.594
01/08/2022  16:46:00       84.070       99.837      -20.025       32.013       31.060       24.444     1024.815      964.737      597.530        1.001        0.129      130.519       17.726        0.018      335.631        6.391      865.603
01/08/2022  16:47:00       80.424       69.821      -11.656       28.398       21.675       18.771      806.457      469.787      352.350        0.655        0.081      106.503       12.370        0.013      335.579        6.305      865.604
01/08/2022  16:48:00       70.493       58.418       -3.100       32.089       25.338       18.495     1029.686      642.033      342.050        0.520        0.101       91.553       13.078        0.020      335.563        6.281      865.614
01/08/2022  16:49:00       89.531       91.647      -14.612       53.626       32.707       24.303     2875.781     1069.739      590.638        1.058        0.227      128.121       19.384        0.023      335.531        6.226      865.614
01/08/2022  16:50:00      179.050      104.149      -16.410       55.119       60.223       44.383     3038.158     3626.842     1969.881        2.590        0.432      207.138       32.218        0.024      335.474        6.129      865.618
01/08/2022  16:51:00      189.442       55.738      -19.563       70.641       80.542       33.885     4990.169     6486.966     1148.217        2.600        0.631      197.471       30.057        0.023      335.453        6.095      865.621
01/08/2022  16:52:00      172.259       82.556      -30.837       94.251       87.190       44.275     8883.190     7602.041     1960.306        2.794        0.922      191.020       43.781        0.053      335.421        6.042      865.633
01/08/2022  16:53:00      258.051       63.592      -28.797       91.677       78.840       43.301     8404.695     6215.739     1874.934        4.398        0.825      265.771       24.950        0.009      335.443        6.077      865.629
01/08/2022  16:54:00      302.911      145.980      -30.982      116.412       52.728       33.131    13551.759     2780.269     1097.648        6.572        0.871      336.252       20.459        0.004      335.473        6.126      865.648
01/08/2022  16:55:00      185.369       57.495      -14.310      101.416       66.804       44.238    10285.170     4462.731     1957.032        2.729        0.835      194.081       51.209        0.070      335.432        6.058      865.663
01/08/2022  16:56:00      231.448       70.604      -14.034       83.367       65.698       39.015     6950.079     4316.186     1522.183        3.577        0.639      241.977       39.802        0.027      335.403        6.011      865.684
01/08/2022  16:57:00      263.823       34.781      -19.603       79.431       67.532       48.432     6309.353     4560.631     2345.694        4.220        0.661      266.106       30.495        0.013      335.436        6.064      865.695
01/08/2022  16:58:00      233.372       38.055      -16.163       68.271       63.030       41.524     4660.876     3972.790     1724.276        3.326        0.518      236.455       25.928        0.012      335.443        6.076      865.691
01/08/2022  16:59:00      234.249       47.510      -21.305       66.814       56.853       39.523     4464.084     3232.280     1562.037        3.342        0.463      239.019       26.268        0.012      335.409        6.020      865.682
01/08/2022  17:00:00      153.981       44.464      -16.383       79.382       65.415       42.209     6301.433     4279.076     1781.578        1.916        0.618      160.272       28.702        0.032      335.325        5.881      865.685
01/08/2022  17:01:00      245.574      100.377      -21.780       75.771       60.622       43.614     5741.232     3674.968     1902.183        4.109        0.566      265.296       20.039        0.006      335.352        5.924      865.683
01/08/2022  17:02:00      229.097        9.154      -13.735       87.210       67.411       34.874     7605.587     4544.274     1216.207        3.306        0.668      229.279       25.963        0.013      335.380        5.974      865.700
01/08/2022  17:03:00      158.432       47.042      -10.642       78.428       67.933       40.604     6150.940     4614.828     1648.688        1.992        0.621      165.268       19.020        0.013      335.297        5.835      865.713
01/08/2022  17:04:00      198.759       23.254      -22.923       69.298       62.942       34.946     4802.151     3961.740     1221.215        2.528        0.499      200.114       16.133        0.006      335.326        5.881      865.727
01/08/2022  17:05:00      241.082       37.851      -11.722       53.611       55.771       33.376     2874.114     3110.427     1113.966        3.339        0.355      244.036       24.638        0.010      335.309        5.853      865.741
01/08/2022  17:06:00      116.287        9.587      -16.394       48.809       47.377       29.917     2382.344     2244.561      895.011        0.970        0.276      116.682       20.923        0.032      335.265        5.782      865.748
01/08/2022  17:07:00      190.666       52.410      -16.703       54.905       49.423       31.357     3014.597     2442.651      983.265        2.291        0.322      197.738       21.914        0.012      335.255        5.765      865.744
01/08/2022  17:08:00      227.842       88.702      -17.680       86.497       60.280       41.059     7481.791     3633.717     1685.835        3.644        0.640      244.500       23.855        0.010      335.287        5.819      865.744
01/08/2022  17:09:00      219.509       78.149       -8.877       95.490       77.407       42.705     9118.276     5991.893     1823.719        3.565        0.847      233.005       47.195        0.041      335.311        5.857      865.746
01/08/2022  17:10:00      185.313       54.213      -12.968       85.589       57.531       35.799     7325.397     3309.786     1281.568        2.468        0.596      193.080       36.326        0.035      335.280        5.805      865.755
01/08/2022  17:11:00      300.535      123.358      -20.462       59.224       64.583       34.281     3507.518     4170.962     1175.211        5.740        0.443      324.866       28.260        0.008      335.215        5.696      865.758
01/08/2022  17:12:00      230.244       44.127      -12.874       97.966       69.541       48.380     9597.358     4835.950     2340.597        3.595        0.839      234.434       33.354        0.020      335.145        5.583      865.754
01/08/2022  17:13:00      153.585       47.541      -14.825       63.634       48.138       36.934     4049.223     2317.300     1364.157        1.690        0.387      160.775       25.069        0.024      335.067        5.455      865.781
01/08/2022  17:14:00      190.472      103.364      -24.402       99.516       62.968       36.318     9903.373     3965.005     1318.998        3.137        0.759      216.711       42.550        0.039      335.049        5.422      865.791
01/08/2022  17:15:00      174.644       33.761      -16.254       99.249       62.780       32.681     9850.454     3941.337     1068.044        2.338        0.743      177.878       32.704        0.034      335.006        5.352      865.813
01/08/2022  17:16:00      261.215      101.114      -24.204       68.045       64.374       42.440     4630.128     4144.047     1801.189        4.481        0.529      280.102       27.484        0.010      334.936        5.235      865.824
01/08/2022  17:17:00      157.983       91.931      -10.833       75.367       44.229       35.970     5680.185     1956.174     1293.809        2.123        0.447      182.784       19.290        0.011      334.897        5.171      865.854
01/08/2022  17:18:00      142.262      134.681      -28.270       60.367       59.167       36.904     3644.226     3500.745     1361.918        2.384        0.425      195.902       11.666        0.004      334.907        5.189      865.877
01/08/2022  17:19:00      214.872       92.610      -17.304       79.374       56.967       49.234     6300.178     3245.291     2424.014        3.351        0.598      233.980       37.375        0.026      334.860        5.107      865.892
01/08/2022  17:20:00      164.118       71.278      -24.827       72.015       53.693       27.933     5186.113     2882.914      780.228        2.074        0.442      178.928       22.380        0.016      334.899        5.174      865.902
01/08/2022  17:21:00      159.212      113.140      -16.522       73.260       43.017       35.862     5366.975     1850.420     1286.067        2.346        0.425      195.317       24.592        0.016      334.832        5.063      865.906
01/08/2022  17:22:00      157.794      112.440      -26.733       83.371       54.476       37.836     6950.805     2967.650     1431.527        2.480        0.567      193.757       37.774        0.038      334.843        5.082      865.904
01/08/2022  17:23:00      142.999      113.819      -23.426       62.840       57.789       32.784     3948.877     3339.608     1074.819        2.116        0.418      182.767       23.291        0.016      334.834        5.066      865.907
01/08/2022  17:24:00      117.738      110.958      -18.075       60.564       69.204       34.576     3668.002     4789.233     1195.511        1.807        0.483      161.783       19.337        0.014      334.866        5.120      865.912
01/08/2022  17:25:00      179.836       73.945      -21.702      107.470       51.480       30.343    11549.894     2650.171      920.706        2.670        0.756      194.445       25.857        0.018      334.839        5.076      865.917
01/08/2022  17:26:00      184.150      149.220      -41.874       93.894       74.817       54.080     8816.032     5597.638     2924.617        3.763        0.867      237.018       27.604        0.014      334.876        5.134      865.935
01/08/2022  17:27:00      168.727      113.427      -27.901       91.441       56.603       45.717     8361.471     3203.864     2090.060        2.788        0.683      203.309       37.291        0.034      334.817        5.037      865.951
01/08/2022  17:28:00      215.669      117.834      -28.697       86.082       61.845       41.516     7410.060     3824.800     1723.580        3.709        0.648      245.760       32.736        0.018      334.845        5.082      865.965
01/08/2022  17:29:00      190.820      108.034      -27.590       86.056       58.831       42.509     7405.652     3461.035     1807.043        3.076        0.634      219.280       30.018        0.019      334.875        5.133      865.977
01/08/2022  17:30:00      163.670       44.271      -17.307       85.007       81.013       44.862     7226.198     6563.054     2012.622        2.242        0.790      169.551       34.685        0.042      334.879        5.141      865.990
01/08/2022  17:31:00      190.336       69.579      -17.547       99.216       69.621       43.492     9843.881     4847.075     1891.571        2.898        0.829      202.655       26.327        0.017      334.932        5.230      866.000
01/08/2022  17:32:00      252.878      108.280      -22.182      107.167       80.185       51.643    11484.688     6429.648     2667.004        4.837        1.029      275.085       34.439        0.016      335.027        5.386      866.006
01/08/2022  17:33:00      108.516       67.430      -11.200       54.468       43.714       31.585     2966.772     1910.931      997.612        1.116        0.294      127.760       17.009        0.018      334.896        5.171      866.047
01/08/2022  17:34:00      115.530       72.171      -25.507       38.067       23.065       22.128     1449.064      532.004      489.657        1.084        0.124      136.219       10.730        0.006      334.649        4.760      866.096
01/08/2022  17:35:00      131.052       67.300      -11.736       35.046       37.875       24.583     1228.237     1434.527      604.313        1.255        0.163      147.322       16.644        0.013      334.603        4.683      866.136
01/08/2022  17:36:00       91.260       26.014       -7.543       50.843       35.023       20.219     2584.999     1226.634      408.827        0.664        0.211       94.896       18.761        0.039      334.586        4.655      866.164
01/08/2022  17:37:00      117.818       33.947       -9.520       49.073       47.529       23.398     2408.178     2259.019      547.485        1.017        0.261      122.611        6.115        0.002      334.663        4.785      866.191
01/08/2022  17:38:00      112.084       51.433       -7.892       43.645       37.745       22.769     1904.843     1424.704      518.410        0.956        0.192      123.322       14.046        0.013      334.652        4.763      866.187
01/08/2022  17:39:00      146.063       64.393      -16.126       51.691       41.947       23.581     2671.999     1759.558      556.056        1.536        0.249      159.627       15.732        0.010      334.737        4.907      866.185
01/08/2022  17:40:00       62.762       68.692      -10.621       47.959       50.682       27.147     2300.048     2568.685      736.962        0.719        0.280       93.047       26.758        0.083      334.712        4.865      866.189
01/08/2022  17:41:00      117.157      139.100      -20.816       61.939       49.184       40.075     3836.494     2419.051     1605.985        2.068        0.393      181.864       32.126        0.031      334.677        4.804      866.207
01/08/2022  17:42:00       86.078       81.291      -10.777       43.934       47.199       26.516     1930.219     2227.766      703.101        0.950        0.243      118.396       26.145        0.049      334.552        4.597      866.246
01/08/2022  17:43:00       84.402       86.548      -16.061       41.815       33.266       29.105     1748.493     1106.596      847.128        0.929        0.185      120.889       22.413        0.034      334.546        4.588      866.277
01/08/2022  17:44:00       98.947       96.765      -15.892       50.272       40.345       40.416     2527.254     1627.742     1633.439        1.260        0.289      138.398       28.710        0.043      334.517        4.540      866.304
01/08/2022  17:45:00      100.016      112.341      -12.349       56.198       47.135       33.801     3158.259     2221.685     1142.481        1.465        0.326      150.411       30.656        0.042      334.559        4.610      866.324
01/08/2022  17:46:00      118.952      119.820      -21.885       62.300       46.764       42.122     3881.246     2186.914     1774.228        1.841        0.392      168.838       29.653        0.031      334.528        4.558      866.343
01/08/2022  17:47:00      119.652      112.529      -21.066       50.342       43.153       29.951     2534.360     1862.188      897.073        1.636        0.265      164.254       22.311        0.018      334.451        4.433      866.368
01/08/2022  17:48:00      133.935       97.036      -26.553       39.430       39.197       35.162     1554.721     1536.376     1236.352        1.619        0.216      165.392       25.366        0.024      334.444        4.420      866.396
01/08/2022  17:49:00       89.368       54.787      -11.649       40.699       30.717       21.870     1656.391      943.555      478.311        0.710        0.154      104.825        7.494        0.005      334.444        4.421      866.419
01/08/2022  17:50:00      108.613       61.441      -15.080       43.062       49.582       28.711     1854.356     2458.330      824.298        1.047        0.257      124.787       27.514        0.049      334.460        4.447      866.442
01/08/2022  17:51:00      108.461       63.497      -11.149       35.376       24.583       22.966     1251.485      604.323      527.428        0.915        0.119      125.681       16.925        0.018      334.466        4.456      866.462
01/08/2022  17:52:00       91.054       36.371      -10.359       37.793       39.793       21.320     1428.276     1583.516      454.535        0.659        0.173       98.049       17.488        0.032      334.443        4.420      866.479
01/08/2022  17:53:00       90.750       40.981      -17.211       23.962       40.048       21.110      574.168     1603.811      445.645        0.642        0.131       99.574       13.930        0.020      334.474        4.469      866.494
01/08/2022  17:54:00       70.331       20.608      -13.517       33.556       28.963       23.959     1126.000      838.857      574.050        0.405        0.127       73.288       19.894        0.074      334.423        4.387      866.505
01/08/2022  17:55:00       67.239       50.144      -13.590       33.628       22.636       15.928     1130.857      512.391      253.708        0.456        0.095       83.878       13.475        0.026      334.405        4.354      866.518
01/08/2022  17:56:00       57.793       97.797       -6.830       35.624       44.822       23.300     1269.082     2009.023      542.904        0.839        0.191      113.597       21.309        0.035      334.563        4.616      866.520
01/08/2022  17:57:00       85.266      116.299      -15.321       46.450       44.052       33.382     2157.586     1940.621     1114.363        1.312        0.261      144.208       30.395        0.044      334.608        4.692      866.530
01/08/2022  17:58:00       79.037      122.477      -13.485       38.042       36.615       23.741     1447.214     1340.684      563.623        1.239        0.168      145.765       15.709        0.012      334.567        4.624      866.547
01/08/2022  17:59:00       78.358      123.061      -14.439       37.396       44.041       23.901     1398.476     1939.609      571.276        1.270        0.195      145.891       15.310        0.011      334.489        4.494      866.557
01/08/2022  18:00:00       69.368      135.435      -15.904       34.379       35.945       23.075     1181.934     1292.074      532.458        1.321        0.150      152.166       19.043        0.016      334.599        4.677      866.563
01/08/2022  18:01:00       64.830      130.289       -9.544       40.296       41.947       28.654     1623.792     1759.585      821.035        1.274        0.210      145.527       25.662        0.031      334.562        4.616      866.574
01/08/2022  18:02:00       77.325       91.310      -12.433       43.599       34.189       25.337     1900.881     1168.913      641.948        0.909        0.186      119.652       21.358        0.032      334.468        4.460      866.595
01/08/2022  18:03:00       63.554       99.387      -18.571       36.115       45.687       26.731     1304.300     2087.268      714.566        0.918        0.205      117.970       22.590        0.037      334.494        4.502      866.599
01/08/2022  18:04:00       54.340       66.491       -7.125       31.384       32.034       20.992      984.973     1026.195      440.644        0.494        0.123       85.871        8.821        0.011      334.395        4.338      866.605
01/08/2022  18:05:00       52.459       76.900      -11.443       31.920       40.942       26.097     1018.903     1676.283      681.052        0.609        0.169       93.088       16.362        0.031      334.461        4.448      866.611
01/08/2022  18:06:00       64.335       88.550      -13.385       40.800       29.271       23.653     1664.646      856.775      559.486        0.762        0.154      109.454       21.298        0.038      334.455        4.437      866.625
01/08/2022  18:07:00       54.838      103.995      -12.335       39.517       44.458       33.940     1561.603     1976.547     1151.949        0.933        0.235      117.567       26.958        0.053      334.443        4.417      866.634
01/08/2022  18:08:00       60.860      125.946      -15.917       37.330       45.368       25.114     1393.539     2058.264      630.695        1.195        0.204      139.879       11.854        0.007      334.555        4.602      866.637
01/08/2022  18:09:00       83.274      110.397      -15.530       41.914       41.915       32.297     1756.812     1756.889     1043.098        1.196        0.228      138.283       20.740        0.022      334.461        4.449      866.650
01/08/2022  18:10:00       74.919       80.143      -12.224       44.912       37.444       27.887     2017.081     1402.020      777.662        0.819        0.210      109.708       21.580        0.039      334.417        4.375      866.666
01/08/2022  18:11:00       49.847       52.520      -10.859       32.501       29.506       18.861     1056.325      870.618      355.731        0.382        0.114       72.409        9.678        0.018      334.387        4.325      866.698
01/08/2022  18:12:00       70.851      108.827      -18.276       54.862       44.648       27.300     3009.853     1993.452      745.306        1.147        0.287      129.859       14.608        0.013      334.475        4.472      866.734
01/08/2022  18:13:00       62.123       74.527       -7.043       35.576       35.878       21.781     1265.680     1287.254      474.414        0.624        0.151       97.024       13.932        0.021      334.380        4.313      866.766
01/08/2022  18:14:00       70.567       61.236      -11.123       45.403       25.275       23.333     2061.427      638.846      544.422        0.605        0.162       93.432       13.492        0.021      334.331        4.232      866.787
01/08/2022  18:15:00       72.674       65.491       -8.757       40.823       37.367       31.469     1666.480     1396.275      990.303        0.685        0.203       97.829       20.855        0.045      334.333        4.235      866.790
01/08/2022  18:16:00       74.839       99.907      -13.797       46.013       38.944       33.123     2117.194     1516.663     1097.132        1.025        0.237      124.829       26.019        0.043      334.470        4.463      866.792
01/08/2022  18:17:00      106.952      117.303      -32.644       40.830       41.202       33.685     1667.076     1697.628     1134.682        1.538        0.225      158.741       20.065        0.016      334.383        4.318      866.793
01/08/2022  18:18:00       86.383       69.085      -13.761       29.396       30.021       28.360      864.144      901.232      804.278        0.750        0.128      110.611       18.464        0.028      334.336        4.241      866.800
01/08/2022  18:19:00       69.362       87.782      -13.500       49.537       42.658       24.369     2453.930     1819.744      593.851        0.878        0.243      111.878       14.568        0.017      334.404        4.353      866.796
01/08/2022  18:20:00       68.005      116.846      -19.897       39.054       43.769       27.024     1525.192     1915.720      730.308        1.142        0.209      135.195       19.287        0.020      334.388        4.328      866.794
01/08/2022  18:21:00       62.402      157.554      -30.360       28.868       37.420       25.623      833.387     1400.245      656.549        1.626        0.145      169.462       22.139        0.017      334.468        4.459      866.791
01/08/2022  18:22:00       61.439      154.139      -31.055       21.913       29.855       19.075      480.169      891.303      363.840        1.512        0.087      165.932       10.846        0.004      334.486        4.489      866.795
01/08/2022  18:23:00       64.460      126.992      -12.107       30.850       56.941       25.311      951.721     3242.257      640.635        1.263        0.242      142.415       26.302        0.034      334.502        4.515      866.804
01/08/2022  18:24:00       76.012      105.743      -12.369       47.823       35.333       22.826     2287.030     1248.421      521.004        1.058        0.203      130.229       17.855        0.019      334.412        4.367      866.811
01/08/2022  18:25:00       44.361      106.021       -7.702       26.149       30.697       21.294      683.791      942.336      453.454        0.767        0.104      114.928       12.157        0.011      334.465        4.454      866.821
01/08/2022  18:26:00       50.142       91.125       -2.933       27.537       35.030       23.041      758.299     1227.119      530.879        0.667        0.126      104.010       13.127        0.016      334.471        4.465      866.823
01/08/2022  18:27:00       50.288      110.513      -18.270       28.013       26.687       22.518      784.741      712.169      507.078        0.854        0.100      121.416       10.789        0.008      334.488        4.492      866.827
01/08/2022  18:28:00       38.173       78.596       -4.109       31.064       35.338       22.507      964.960     1248.781      506.555        0.519        0.136       87.376       13.151        0.023      334.378        4.312      866.833
01/08/2022  18:29:00       51.712       67.981       -8.775       28.943       25.180       23.269      837.698      634.015      541.447        0.469        0.101       85.414       19.405        0.052      334.412        4.367      866.847
01/08/2022  18:30:00       50.431       45.509      -12.424       28.085       26.087       13.138      788.781      680.529      172.616        0.321        0.082       67.929       10.877        0.026      334.264        4.122      866.864
01/08/2022  18:31:00       56.129       61.246       -8.242       31.606       24.693       18.843      998.944      609.736      355.073        0.447        0.098       83.076       14.209        0.029      334.247        4.092      866.869
01/08/2022  18:32:00       62.997       96.572       -8.549       27.079       28.574       16.367      733.259      816.488      267.875        0.759        0.091      115.303       11.213        0.009      334.367        4.293      866.879
01/08/2022  18:33:00       55.929       98.213      -16.273       29.083       33.496       23.174      845.839     1121.957      537.041        0.777        0.125      113.021       16.538        0.021      334.305        4.189      866.886
01/08/2022  18:34:00       90.031       75.244      -15.049       28.098       23.360       20.531      789.525      545.675      421.525        0.787        0.088      117.334       12.492        0.011      334.179        3.979      866.903
01/08/2022  18:35:00       58.160       64.650       -5.761       25.362       25.440       18.018      643.234      647.171      324.647        0.460        0.081       86.961       13.147        0.023      334.185        3.991      866.911
01/08/2022  18:36:00       63.278       79.611      -11.559       28.185       25.377       16.455      794.394      644.006      270.763        0.609        0.085      101.696       14.803        0.021      334.193        4.004      866.927
01/08/2022  18:37:00       85.847      100.510      -14.973       36.589       33.241       28.652     1338.743     1104.976      820.932        1.048        0.163      132.182       23.214        0.031      334.210        4.031      866.941
01/08/2022  18:38:00       88.034      107.097      -15.867       45.721       34.031       22.706     2090.422     1158.133      515.570        1.162        0.188      138.636       23.455        0.029      334.281        4.149      866.960
01/08/2022  18:39:00       80.288       90.294      -15.301       34.497       34.273       25.780     1190.056     1174.612      664.588        0.893        0.151      120.827       21.648        0.032      334.202        4.018      866.986
01/08/2022  18:40:00       76.636      102.505      -17.627       40.525       34.709       22.950     1642.240     1204.684      526.703        1.003        0.169      127.986       19.320        0.023      334.216        4.040      867.007
01/08/2022  18:41:00       68.674       88.528       -6.518       33.699       34.523       23.336     1135.642     1191.819      544.576        0.773        0.144      112.042       17.139        0.023      334.181        3.983      867.032
01/08/2022  18:42:00       61.780       98.131       -5.235       36.797       38.197       28.389     1354.024     1458.993      805.948        0.855        0.181      115.959       20.963        0.033      334.173        3.970      867.055
01/08/2022  18:43:00       76.653      122.439      -11.809       32.062       38.636       28.488     1027.976     1492.771      811.555        1.217        0.167      144.454       19.984        0.019      334.330        4.230      867.076
01/08/2022  18:44:00       72.605      111.438       -7.424       44.763       41.084       31.008     2003.745     1687.881      961.490        1.120        0.233      133.003       26.658        0.040      334.308        4.195      867.083
01/08/2022  18:45:00       76.714      117.994      -16.117       42.342       42.847       27.759     1792.809     1835.867      770.558        1.223        0.220      140.740       23.171        0.027      334.243        4.086      867.086
01/08/2022  18:46:00       84.085      109.034      -22.199       39.361       37.418       22.901     1549.312     1400.135      524.472        1.146        0.174      137.691       22.641        0.027      334.127        3.894      867.085
01/08/2022  18:47:00       80.946      100.814      -11.779       36.992       40.071       29.108     1368.380     1605.707      847.257        1.034        0.191      129.289       22.594        0.031      334.088        3.829      867.080
01/08/2022  18:48:00       86.567       92.375      -19.146       36.723       38.358       20.580     1348.609     1471.358      423.554        0.982        0.162      126.598       19.341        0.023      334.062        3.788      867.069
01/08/2022  18:49:00       83.764       86.542      -13.349       39.677       31.920       25.989     1574.291     1018.884      675.450        0.898        0.163      120.440       15.855        0.017      334.125        3.891      867.064
01/08/2022  18:50:00       91.149       92.763      -15.402       41.132       36.967       30.420     1691.815     1366.559      925.349        1.057        0.199      130.051       16.228        0.016      334.111        3.868      867.065
01/08/2022  18:51:00      103.594       87.453      -15.834       62.097       38.694       26.380     3856.013     1497.237      695.924        1.234        0.302      135.572       21.823        0.026      334.129        3.897      867.078
01/08/2022  18:52:00      115.232       84.352      -20.085       51.789       33.204       23.658     2682.110     1102.530      559.699        1.257        0.217      142.807       16.787        0.014      334.079        3.814      867.096
01/08/2022  18:53:00      155.130       89.845      -13.642       37.771       36.001       23.915     1426.641     1296.082      571.946        1.781        0.165      179.269       16.736        0.009      334.091        3.832      867.097
01/08/2022  18:54:00      156.802       72.689      -14.366       48.497       31.454       22.642     2351.936      989.380      512.646        1.696        0.193      172.831       22.257        0.017      334.042        3.753      867.099
01/08/2022  18:55:00      159.744       72.503      -14.233       47.798       39.026       27.133     2284.684     1523.009      736.204        1.776        0.227      175.428       20.733        0.014      334.011        3.699      867.100
01/08/2022  18:56:00      141.513       64.424      -12.915       62.416       48.576       29.649     3895.713     2359.599      879.060        1.574        0.357      155.488       36.776        0.056      334.033        3.737      867.091
01/08/2022  18:57:00      174.146       81.728      -23.733       36.106       34.904       23.456     1303.611     1218.319      550.203        2.032        0.154      192.371       15.465        0.006      334.146        3.924      867.107
01/08/2022  18:58:00      116.165       35.199      -31.615       43.512       43.009       24.304     1893.296     1849.735      590.707        1.003        0.217      121.380       16.410        0.018      334.112        3.870      867.127
01/08/2022  18:59:00      123.387       12.953      -23.329       46.202       32.940       18.322     2134.637     1085.071      335.702        0.975        0.178      124.065       15.373        0.015      334.055        3.775      867.153
01/08/2022  19:00:00      115.931       23.096      -14.375       30.674       30.950       19.660      940.867      957.933      386.524        0.823        0.114      118.209       12.943        0.012      334.047        3.762      867.164
01/08/2022  19:01:00      109.237       11.842      -13.084       36.646       34.814       19.981     1342.964     1211.982      399.248        0.760        0.148      109.877       14.402        0.017      334.055        3.776      867.170
01/08/2022  19:02:00      106.636       23.736      -11.945       48.361       41.778       30.094     2338.748     1745.427      905.629        0.853        0.249      109.246       27.084        0.061      334.052        3.771      867.171
01/08/2022  19:03:00      137.360       42.169      -20.901       32.151       32.267       17.519     1033.716     1041.141      306.909        1.173        0.119      143.687       12.951        0.008      334.052        3.770      867.180
01/08/2022  19:04:00       99.035       28.037      -12.273       40.311       30.667       23.629     1624.979      940.466      558.335        0.693        0.156      102.927       21.249        0.043      333.995        3.676      867.199
01/08/2022  19:05:00      139.931       24.042      -14.408       32.948       37.715       23.329     1085.601     1422.394      544.250        1.171        0.153      141.981       13.163        0.009      334.017        3.712      867.220
01/08/2022  19:06:00      132.231       -2.613       -8.808       38.895       45.578       22.596     1512.808     2077.335      510.601        1.083        0.205      132.257       18.332        0.019      334.135        3.907      867.240
01/08/2022  19:07:00      121.755       14.616      -13.909       39.442       27.207       26.312     1555.651      740.235      692.316        0.911        0.149      122.629       21.898        0.032      334.025        3.725      867.253
01/08/2022  19:08:00       65.771       21.935        4.528       61.063       42.185       20.787     3728.633     1779.598      432.110        0.538        0.297       69.332       18.022        0.068      333.962        3.621      867.261
01/08/2022  19:09:00       90.099       30.187      -21.916       41.478       44.445       21.811     1720.455     1975.341      475.730        0.684        0.209       95.021       17.905        0.036      334.019        3.717      867.284
01/08/2022  19:10:00      105.514       15.814      -20.463       37.047       32.017       22.729     1372.483     1025.104      516.619        0.736        0.146      106.693       11.277        0.011      333.960        3.618      867.310
01/08/2022  19:11:00      123.663       14.219      -15.044       21.799       19.849       15.049      475.177      393.983      226.484        0.841        0.055      124.478        4.951        0.002      333.871        3.471      867.350
01/08/2022  19:12:00      177.806       31.893      -11.130       31.796       20.140       19.241     1011.003      405.629      370.235        1.727        0.089      180.643       10.679        0.003      334.039        3.748      867.378
01/08/2022  19:13:00      118.948       22.963      -15.320       30.088       28.766       18.122      905.292      827.479      328.409        0.849        0.103      121.144       14.596        0.015      333.929        3.566      867.395
01/08/2022  19:14:00      108.343       30.999      -13.480       29.072       17.662       16.894      845.172      311.952      285.405        0.716        0.072      112.690        9.753        0.007      333.912        3.540      867.406
01/08/2022  19:15:00      127.842       63.286      -17.012       29.791       20.502       15.869      887.529      420.336      251.830        1.110        0.078      142.649       10.607        0.006      333.988        3.664      867.409
01/08/2022  19:16:00      107.105       28.340      -13.877       20.468       22.730       11.762      418.953      516.645      138.335        0.677        0.054      110.791        7.181        0.004      334.009        3.700      867.416
01/08/2022  19:17:00      124.187       46.770      -14.189       29.789       24.885       21.704      887.356      619.254      471.067        0.989        0.099      132.702       16.748        0.016      333.971        3.637      867.424
01/08/2022  19:18:00      125.227       48.078      -11.047       32.706       21.659       19.147     1069.701      469.111      366.618        1.001        0.095      134.139       11.832        0.008      333.940        3.584      867.439
01/08/2022  19:19:00       83.376       42.614       -6.806       37.461       20.614       15.228     1403.352      424.934      231.896        0.544        0.103       93.635        6.048        0.004      333.928        3.565      867.430
01/08/2022  19:20:00      101.712       66.801      -17.832       29.626       22.202       17.355      877.671      492.931      301.203        0.840        0.084      121.687       11.090        0.008      334.023        3.723      867.426
01/08/2022  19:21:00      126.396       74.695      -18.984       32.791       26.365       23.453     1075.250      695.101      550.045        1.212        0.116      146.817       15.441        0.011      334.067        3.794      867.426
01/08/2022  19:22:00      122.412       67.251      -15.711       36.265       31.081       23.524     1315.161      966.045      553.374        1.129        0.142      139.669       17.303        0.015      334.042        3.754      867.429
01/08/2022  19:23:00      115.422       46.945       -8.736       47.644       35.142       24.474     2269.947     1234.991      598.956        0.985        0.205      124.604       17.357        0.019      334.006        3.694      867.429
01/08/2022  19:24:00      123.436       72.593      -13.490       37.923       23.905       23.736     1438.151      571.457      563.407        1.163        0.129      143.199       15.777        0.012      334.040        3.750      867.426
01/08/2022  19:25:00      123.309       51.395       -6.822       34.107       28.234       22.562     1163.306      797.161      509.025        1.018        0.123      133.591       18.049        0.018      333.940        3.584      867.418
01/08/2022  19:26:00      151.831       64.031      -12.234       26.028       27.689       18.755      677.475      766.696      351.765        1.455        0.090      164.781        3.451        0.000      333.966        3.627      867.422
01/08/2022  19:27:00      142.516       66.776      -15.134       45.761       25.141       22.223     2094.087      632.066      493.841        1.411        0.161      157.384       20.202        0.016      333.976        3.645      867.419
01/08/2022  19:28:00      112.653       28.790      -21.555       34.072       28.580       18.624     1160.927      816.817      346.865        0.815        0.116      116.273       12.823        0.012      333.894        3.509      867.432
01/08/2022  19:29:00      154.122       48.094      -14.478       36.358       41.289       18.704     1321.932     1704.761      349.837        1.483        0.169      161.452       17.068        0.011      333.913        3.541      867.454
01/08/2022  19:30:00      154.918       49.362      -12.057       26.619       28.109       15.452      708.546      790.139      238.759        1.416        0.087      162.592        7.973        0.002      333.803        3.357      867.471
01/08/2022  19:31:00      194.663       65.048      -21.052       46.668       45.256       21.347     2177.857     2048.111      455.710        2.362        0.234      205.244       18.885        0.008      333.866        3.459      867.478
01/08/2022  19:32:00      180.482       19.621      -25.599       42.168       51.892       33.321     1778.100     2692.807     1110.299        1.960        0.279      181.545       14.859        0.007      333.799        3.350      867.475
01/08/2022  19:33:00       92.150       19.156      -20.320       52.760       69.243       38.476     2783.649     4794.552     1480.366        0.916        0.453       94.120       24.038        0.065      333.893        3.507      867.464
01/08/2022  19:34:00       52.738       20.844      -21.628       39.104       69.261       34.823     1529.112     4797.075     1212.673        0.561        0.377       56.708       26.069        0.211      333.971        3.635      867.440
01/08/2022  19:35:00       92.148       22.918       -6.780       63.002       62.022       38.007     3969.209     3846.679     1444.517        0.916        0.463       94.955       32.117        0.114      333.850        3.436      867.435
01/08/2022  19:36:00      155.150       16.534      -25.369       61.072       41.559       35.128     3729.732     1727.130     1233.972        1.584        0.335      156.029       22.636        0.021      333.802        3.356      867.431
01/08/2022  19:37:00      141.644       20.532      -15.462       52.360       61.231       31.031     2741.593     3749.230      962.934        1.409        0.373      143.124       17.342        0.015      333.835        3.410      867.435
01/08/2022  19:38:00      119.078       11.463      -17.697       79.218       49.468       33.261     6275.564     2447.047     1106.272        1.222        0.491      119.628       34.446        0.083      333.788        3.332      867.437
01/08/2022  19:39:00      128.752       -0.832      -26.019       84.705       59.435       37.020     7174.903     3532.500     1370.475        1.466        0.604      128.755       15.854        0.015      333.842        3.421      867.431
01/08/2022  19:40:00      125.116        8.275      -14.286       85.612       60.789       43.544     7329.457     3695.359     1896.104        1.442        0.646      125.389       27.132        0.047      333.767        3.298      867.428
01/08/2022  19:41:00      114.148      -33.072      -20.230       76.798       61.797       45.464     5897.967     3818.883     2067.016        1.316        0.589      118.842       42.119        0.126      334.001        3.686      867.416
01/08/2022  19:42:00       86.727      -32.740      -20.192       65.096       60.247       35.664     4237.444     3629.752     1271.943        0.907        0.457       92.701       28.357        0.094      333.962        3.620      867.413
01/08/2022  19:43:00       67.035      -20.985      -28.956       50.217       66.333       32.297     2521.710     4400.001     1043.072        0.687        0.398       70.242       15.222        0.047      333.978        3.648      867.415
01/08/2022  19:44:00      101.247      -41.257      -29.103      105.244       59.164       33.051    11076.326     3500.333     1092.387        1.423        0.783      109.331       13.263        0.015      334.102        3.852      867.412
01/08/2022  19:45:00      121.508      -39.889      -30.022       73.610       68.389       41.281     5418.391     4677.022     1704.115        1.453        0.590      127.888       19.337        0.023      334.271        4.132      867.421
01/08/2022  19:46:00      108.138      -79.914      -23.799       51.140       67.655       39.458     2615.252     4577.260     1556.941        1.370        0.437      134.462       37.536        0.078      334.334        4.236      867.442
01/08/2022  19:47:00       32.161       -7.783       -3.968       49.471       41.433       33.661     2447.411     1716.693     1133.095        0.320        0.265       33.090       24.978        0.570      334.213        4.036      867.451
01/08/2022  19:48:00       70.901       -9.783      -18.565       49.265       46.753       21.980     2427.081     2185.798      483.103        0.528        0.255       71.573       10.400        0.021      334.165        3.958      867.466
01/08/2022  19:49:00      124.375      -32.708      -25.743       52.763       48.662       26.598     2783.974     2368.002      707.451        1.153        0.293      128.604       10.389        0.007      334.046        3.761      867.489
01/08/2022  19:50:00      106.655      -15.360       -8.963       57.745       44.676       36.222     3334.485     1995.981     1312.054        0.917        0.332      107.755       32.607        0.092      333.994        3.674      867.511
01/08/2022  19:51:00       94.156        0.567      -22.015       43.245       53.019       31.586     1870.093     2811.045      997.653        0.751        0.284       94.158       16.297        0.030      333.938        3.582      867.536
01/08/2022  19:52:00      122.881       -0.152      -25.898       61.739       44.321       29.518     3811.736     1964.391      871.342        1.121        0.332      122.881       15.612        0.016      334.009        3.699      867.541
01/08/2022  19:53:00      122.209       18.525       -7.937       60.060       36.582       29.798     3607.217     1338.241      887.937        1.059        0.292      123.605       27.610        0.050      333.850        3.436      867.548
01/08/2022  19:54:00      131.949       11.162       -8.204       55.001       43.411       24.966     3025.082     1884.501      623.302        1.157        0.277      132.420       23.186        0.031      333.789        3.336      867.553
01/08/2022  19:55:00      139.659       24.971      -12.965       22.228       32.437       16.761      494.103     1052.184      280.925        1.106        0.091      141.874       12.121        0.007      333.838        3.418      867.568
01/08/2022  19:56:00      100.508       19.847      -14.569       36.563       44.009       31.886     1336.819     1936.759     1016.696        0.750        0.215      102.449       18.632        0.033      333.850        3.435      867.586
01/08/2022  19:57:00       92.051       27.869      -12.018       44.170       26.222       24.831     1951.001      687.592      616.603        0.632        0.163       96.177       16.864        0.031      333.803        3.356      867.599
01/08/2022  19:58:00      121.870       46.425      -12.787       29.787       26.496       12.506      887.259      702.020      156.408        0.946        0.087      130.414        7.386        0.003      333.787        3.332      867.610
01/08/2022  19:59:00      141.101       59.687      -14.264       26.614       25.307       18.026      708.330      640.456      324.940        1.267        0.084      153.206       12.836        0.007      333.739        3.252      867.603
01/08/2022  20:00:00      121.517       38.817      -13.330       39.943       29.080       24.978     1595.410      845.633      623.919        0.976        0.153      127.566       22.147        0.030      333.673        3.142      867.617
01/08/2022  20:01:00      127.031        9.471      -13.550       52.595       49.063       28.183     2766.191     2407.220      794.259        1.119        0.298      127.384       23.330        0.034      333.673        3.142      867.634
01/08/2022  20:02:00      129.939       21.194      -13.288       35.786       25.263       18.698     1280.631      638.207      349.631        0.989        0.113      131.656       15.115        0.013      333.596        3.017      867.654
01/08/2022  20:03:00      125.861       19.477      -15.367       18.371       24.982       18.369      337.500      624.091      337.426        0.888        0.065      127.359        9.609        0.006      333.591        3.009      867.667
01/08/2022  20:04:00       95.157       -0.571      -10.130       40.509       34.044       24.289     1640.974     1158.982      589.943        0.627        0.169       95.158       24.056        0.064      333.583        2.995      867.676
01/08/2022  20:05:00      109.437       31.300      -13.163       21.010       20.640       15.995      441.421      425.994      255.840        0.713        0.056      113.825        9.428        0.007      333.545        2.931      867.675
01/08/2022  20:06:00      102.778       37.820      -10.280       27.187       24.006       16.421      739.134      576.311      269.660        0.684        0.079      109.516       14.019        0.016      333.564        2.963      867.671
01/08/2022  20:07:00       87.721       51.927      -16.085       24.472       33.037       17.166      598.878     1091.415      294.659        0.632        0.099      101.938       17.608        0.030      333.655        3.113      867.666
01/08/2022  20:08:00       88.004       39.490      -12.427       35.795       43.802       20.877     1281.291     1918.618      435.838        0.655        0.182       96.458       13.682        0.020      333.721        3.222      867.666
01/08/2022  20:09:00      135.248       63.633      -30.752       43.321       27.437       22.004     1876.715      752.790      484.179        1.320        0.156      149.470       18.989        0.016      333.753        3.274      867.664
01/08/2022  20:10:00      132.848       42.726      -20.826       37.763       36.571       19.791     1426.074     1337.426      391.694        1.153        0.158      139.550       13.737        0.010      333.727        3.231      867.668
01/08/2022  20:11:00      137.308       35.879       -8.755       43.522       38.740       25.419     1894.197     1500.767      646.122        1.213        0.202      141.918       22.173        0.024      333.651        3.107      867.672
01/08/2022  20:12:00      156.731       16.165      -10.931       32.786       26.072       19.945     1074.922      679.772      397.801        1.355        0.108      157.562       13.578        0.007      333.714        3.209      867.679
01/08/2022  20:13:00      102.864       16.340      -15.421       31.752       29.799       17.678     1008.221      887.975      312.502        0.665        0.110      104.154        5.820        0.003      333.693        3.175      867.686
01/08/2022  20:14:00       83.319       20.815       -5.606       64.571       34.866       19.566     4169.447     1215.623      382.831        0.659        0.288       85.879       23.653        0.076      333.672        3.140      867.700
01/08/2022  20:15:00      121.135       -5.793      -16.334       35.836       26.052       21.412     1284.250      678.697      458.475        0.870        0.121      121.273       19.919        0.027      333.635        3.080      867.726
01/08/2022  20:16:00      129.652       11.118      -19.766       25.414       26.825       17.967      645.866      719.572      322.816        0.951        0.084      130.128       13.991        0.012      333.783        3.326      867.742
01/08/2022  20:17:00      119.091       27.360       -6.849       32.267       27.335       18.945     1041.162      747.204      358.921        0.856        0.107      122.194       12.887        0.011      333.655        3.112      867.751
01/08/2022  20:18:00      114.695       13.828      -15.579       36.851       32.176       19.471     1357.963     1035.289      379.127        0.818        0.139      115.525       12.743        0.012      333.746        3.263      867.775
01/08/2022  20:19:00      107.795       11.415      -13.438       25.130       27.307       19.559      631.511      745.694      382.553        0.684        0.088      108.397        9.451        0.008      333.638        3.085      867.794
01/08/2022  20:20:00      132.593       47.990      -12.605       24.816       19.463       17.111      615.836      378.811      292.788        1.066        0.064      141.011       12.567        0.008      333.703        3.193      867.799
01/08/2022  20:21:00      112.411       34.863      -22.524       32.134       36.772       18.458     1032.578     1352.211      340.713        0.854        0.136      117.693        9.463        0.006      333.825        3.395      867.793
01/08/2022  20:22:00       72.511       34.055       -0.823       45.102       25.815       21.735     2034.154      666.389      472.424        0.480        0.159       80.110       24.188        0.091      333.706        3.197      867.792
01/08/2022  20:23:00      109.745       10.099      -15.373       36.869       35.998       18.705     1359.315     1295.832      349.892        0.769        0.150      110.209       10.394        0.009      333.626        3.065      867.778
01/08/2022  20:24:00      122.073        1.644      -18.974       40.196       31.083       17.398     1615.706      966.175      302.707        0.907        0.144      122.084       15.362        0.016      333.646        3.099      867.770
01/08/2022  20:25:00       86.501       -8.404       -8.139       44.504       23.861       21.340     1980.600      569.367      455.398        0.531        0.150       86.909       20.771        0.057      333.653        3.109      867.776
01/08/2022  20:26:00      109.048        2.171      -16.054       14.726       29.744       14.776      216.863      884.682      218.331        0.674        0.066      109.070        5.975        0.003      333.732        3.240      867.786
01/08/2022  20:27:00       91.353       17.489       -9.930       13.349       16.012       12.384      178.198      256.377      153.361        0.467        0.029       93.012        4.491        0.002      333.713        3.210      867.799
01/08/2022  20:28:00       97.378       20.058      -12.147       22.705       18.219       11.985      515.523      331.943      143.648        0.551        0.050       99.423        8.471        0.007      333.728        3.233      867.811
01/08/2022  20:29:00       85.546       24.688       -9.368       20.887       13.243        9.808      436.278      175.383       96.194        0.436        0.035       89.037        6.292        0.005      333.706        3.197      867.809
01/08/2022  20:30:00       88.362       18.104       -9.697       33.834       28.354       16.998     1144.754      803.973      288.927        0.523        0.112       90.197       17.061        0.036      333.670        3.140      867.812
01/08/2022  20:31:00      105.091       14.333       -6.991       22.928       23.177       13.655      525.715      537.177      186.459        0.627        0.062      106.064        8.005        0.006      333.588        3.003      867.822
01/08/2022  20:32:00      157.720       50.840      -19.288       14.645       20.201        9.579      214.463      408.062       91.762        1.427        0.036      165.712        7.729        0.002      333.659        3.121      867.819
01/08/2022  20:33:00      142.549       43.436      -17.922       17.218       17.346       11.974      296.456      300.899      143.376        1.163        0.037      149.020        7.159        0.002      333.632        3.075      867.807
01/08/2022  20:34:00      155.779       38.247      -22.998       18.533       17.776       12.742      343.476      315.973      162.352        1.354        0.041      160.406        7.631        0.002      333.611        3.040      867.803
01/08/2022  20:35:00      126.998       53.603      -15.999       25.827       16.865       12.963      667.033      284.423      168.031        1.019        0.056      137.847        9.588        0.005      333.541        2.923      867.803
01/08/2022  20:36:00      147.359       48.346      -14.759       22.174       18.836       17.412      491.677      354.798      303.182        1.271        0.057      155.087        9.290        0.004      333.552        2.941      867.807
01/08/2022  20:37:00      170.343       32.359      -13.758       24.390       25.697       21.917      594.854      660.352      480.342        1.599        0.087      173.389       17.779        0.011      333.614        3.045      867.817
01/08/2022  20:38:00      120.457       33.314      -14.306       28.741       19.780       17.030      826.021      391.259      290.021        0.867        0.075      124.978       11.488        0.008      333.494        2.846      867.839
01/08/2022  20:39:00      122.466       37.872      -17.361       29.642       30.994       22.974      878.666      960.612      527.789        0.955        0.118      128.188       21.282        0.028      333.517        2.884      867.849
01/08/2022  20:40:00      104.512       42.640      -20.733       30.260       27.923       16.330      915.685      779.672      266.678        0.757        0.098      112.876        9.352        0.007      333.517        2.884      867.848
01/08/2022  20:41:00      106.658       40.596      -13.486       38.728       26.447       17.952     1499.869      699.419      322.275        0.786        0.126      114.123       16.848        0.022      333.524        2.895      867.853
01/08/2022  20:42:00      110.131       20.938      -13.705       34.953       29.981       20.363     1221.738      898.873      414.660        0.764        0.127      112.103       14.851        0.018      333.538        2.918      867.856
01/08/2022  20:43:00      105.918       37.557      -21.421       30.849       36.299       19.961      951.638     1317.645      398.432        0.788        0.133      112.380       11.952        0.011      333.582        2.992      867.857
01/08/2022  20:44:00       88.800       22.119       -8.776       27.207       25.896       13.211      740.200      670.583      174.530        0.502        0.079       91.514       11.302        0.015      333.511        2.873      867.874
01/08/2022  20:45:00       82.008       34.503      -25.376       28.519       26.801       17.027      813.310      718.280      289.925        0.519        0.091       88.971        5.676        0.004      333.428        2.737      867.883
01/08/2022  20:46:00      108.897       61.311      -11.136       41.513       41.599       20.560     1723.317     1730.446      422.695        0.981        0.194      124.971       18.363        0.022      333.509        2.872      867.894
01/08/2022  20:47:00      112.641       25.553      -16.297       35.305       35.346       19.852     1246.430     1249.352      394.091        0.825        0.144      115.503        9.942        0.007      333.619        3.053      867.921
01/08/2022  20:48:00       72.225       10.305       -9.806       37.793       34.496       18.203     1428.289     1189.959      331.332        0.418        0.147       72.956       11.385        0.024      333.497        2.851      867.933
01/08/2022  20:49:00       90.880       18.602      -10.076       26.413       29.257       17.350      697.624      855.971      301.013        0.528        0.093       92.764       14.042        0.023      333.580        2.990      867.945
01/08/2022  20:50:00      108.493       14.000      -18.268       25.763       33.506       19.928      663.710     1122.661      397.122        0.724        0.109      109.393       12.186        0.012      333.606        3.033      867.948
01/08/2022  20:51:00      113.634       41.372       -8.509       18.807       36.470       14.679      353.713     1330.070      215.466        0.830        0.095      120.931       14.901        0.015      333.526        2.898      867.951
01/08/2022  20:52:00      110.284       17.421      -15.935       35.414       23.373       13.100     1254.163      546.313      171.617        0.735        0.099      111.651       14.465        0.017      333.602        3.025      867.953
01/08/2022  20:53:00      105.780       12.683      -11.744       41.264       32.690       18.364     1702.726     1068.644      337.236        0.730        0.155      106.537       15.760        0.022      333.625        3.063      867.955
01/08/2022  20:54:00      129.044       30.723      -20.130       19.696       20.671       13.200      387.931      427.277      174.238        0.950        0.049      132.651        5.450        0.002      333.501        2.857      867.971
01/08/2022  20:55:00      133.633        1.112      -15.608       20.644       18.644       18.317      426.160      347.605      335.513        0.961        0.055      133.638       13.841        0.011      333.435        2.748      867.976
01/08/2022  20:56:00      136.007       12.462      -14.107       13.847       14.311       10.867      191.728      204.805      118.085        0.968        0.026      136.577        7.823        0.003      333.456        2.782      867.969
01/08/2022  20:57:00       89.617       14.961      -20.296       36.393       36.816       23.834     1324.470     1355.447      568.080        0.596        0.162       90.858       12.997        0.020      333.521        2.892      867.958
01/08/2022  20:58:00      112.093       38.801      -21.878       19.142       29.477       15.325      366.433      868.884      234.853        0.801        0.074      118.618       11.252        0.009      333.496        2.850      867.940
01/08/2022  20:59:00      131.903       36.145      -14.512       26.112       22.919       18.819      681.821      525.286      354.171        1.024        0.078      136.766        9.645        0.005      333.384        2.664      867.942
01/08/2022  21:00:00      152.592       28.522       -9.744       41.745       29.568       17.710     1742.679      874.261      313.647        1.356        0.147      155.234       13.901        0.008      333.339        2.591      867.958
01/08/2022  21:01:00      139.000       24.936       -9.166       36.846       27.498       20.909     1357.635      756.155      437.174        1.129        0.128      141.219       16.787        0.014      333.269        2.474      867.992
01/08/2022  21:02:00      105.826       16.354       -7.915       35.287       29.486       25.836     1245.163      869.407      667.499        0.716        0.139      107.082       17.453        0.027      333.205        2.368      868.001
01/08/2022  21:03:00      126.012       22.306       -9.241       47.294       28.446       17.195     2236.767      809.167      295.668        0.990        0.167      127.971       12.047        0.009      333.227        2.406      868.015
01/08/2022  21:04:00      117.338       18.188       -6.720       31.599       30.479       15.996      998.497      928.977      255.862        0.816        0.109      118.740       12.647        0.011      333.209        2.374      868.011
01/08/2022  21:05:00      123.854       36.787      -17.044       23.503       23.606       16.299      552.378      557.221      265.648        0.918        0.069      129.202        6.274        0.002      333.227        2.404      868.016
01/08/2022  21:06:00      124.281       35.902      -18.610       18.559       29.917       14.980      344.444      895.013      224.403        0.927        0.073      129.362        6.493        0.003      333.172        2.315      868.021
01/08/2022  21:07:00      139.524       -0.078      -13.475       28.685       26.032       18.754      822.830      677.649      351.719        1.075        0.093      139.524       11.912        0.007      333.199        2.358      868.029
01/08/2022  21:08:00      148.190       22.494      -12.835       30.686       36.135       22.878      941.644     1305.719      523.399        1.270        0.139      149.888       18.868        0.016      333.142        2.265      868.038
01/08/2022  21:09:00       74.860       -8.474      -10.013       70.502       48.704       31.953     4970.534     2372.099     1021.005        0.707        0.418       75.338       34.367        0.208      333.237        2.422      868.049
01/08/2022  21:10:00      115.699       19.157       -8.357       46.852       44.209       28.502     2195.080     1954.439      812.346        0.939        0.248      117.274       21.422        0.033      333.220        2.394      868.053
01/08/2022  21:11:00      102.457       27.800       -2.921       30.276       25.235       15.064      916.619      636.782      226.917        0.653        0.089      106.161       13.708        0.017      333.144        2.268      868.066
01/08/2022  21:12:00      104.100       45.875       -7.365       17.782       19.048       11.943      316.184      362.823      142.633        0.691        0.041      113.760        8.935        0.006      333.180        2.327      868.088
01/08/2022  21:13:00       90.727       30.293      -13.536       28.230       20.342       12.225      796.945      413.791      149.445        0.535        0.068       95.650       10.459        0.012      333.158        2.291      868.116
01/08/2022  21:14:00       77.243       21.532       -7.323       18.443       18.056       13.903      340.130      326.023      193.307        0.367        0.043       80.188        3.643        0.002      333.137        2.256      868.155
01/08/2022  21:15:00       83.971       38.038       -8.062       17.059       15.790       12.331      291.006      249.315      152.060        0.463        0.035       92.184        7.771        0.007      333.155        2.284      868.175
01/08/2022  21:16:00       72.494       31.518       -7.377       25.254       26.457       14.379      637.747      699.995      206.761        0.392        0.077       79.049       12.052        0.023      333.142        2.263      868.193
01/08/2022  21:17:00       90.606       54.913       -9.697       18.189       20.425       13.255      330.825      417.162      175.690        0.612        0.046      105.948        9.303        0.008      333.181        2.329      868.196
01/08/2022  21:18:00       74.204       39.973      -12.825       24.692       14.429       12.332      609.681      208.197      152.073        0.412        0.048       84.286       11.399        0.018      333.155        2.287      868.189
01/08/2022  21:19:00       47.475       21.460       -8.667       28.065       18.723        9.956      787.658      350.535       99.116        0.201        0.062       52.100        9.886        0.036      333.164        2.301      868.185
01/08/2022  21:20:00       43.270       27.394       -7.193       20.633       23.564       10.917      425.716      555.267      119.176        0.189        0.055       51.212       10.151        0.039      333.211        2.378      868.186
01/08/2022  21:21:00       36.879       49.212      -12.225       14.982       15.499       10.185      224.453      240.224      103.734        0.225        0.028       61.497        8.768        0.020      333.238        2.423      868.194
01/08/2022  21:22:00       37.857       40.396       -4.350       16.938       15.576       15.044      286.897      242.621      226.327        0.192        0.038       55.363       12.096        0.048      333.163        2.299      868.189
01/08/2022  21:23:00       16.136        6.894       -4.597       14.213        6.397        4.974      202.001       40.922       24.744        0.030        0.013       17.547        3.583        0.042      333.138        2.256      868.137
01/08/2022  21:24:00       21.226       24.455       -7.614       12.501       13.014        8.907      156.275      169.354       79.337        0.076        0.020       32.382        4.310        0.018      333.173        2.315      868.142
01/08/2022  21:25:00       49.037       19.885       -7.278       11.965       13.701        7.842      143.151      187.725       61.502        0.162        0.020       52.915        4.981        0.009      333.193        2.346      868.161
01/08/2022  21:26:00       51.544       26.720       -6.107       12.458       12.117        6.581      155.197      146.827       43.311        0.188        0.017       58.058        5.115        0.008      333.213        2.379      868.187
01/08/2022  21:27:00       55.684       20.595       -6.089       19.326       13.390       10.156      373.475      179.304      103.136        0.211        0.033       59.370       11.008        0.034      333.147        2.272      868.201
01/08/2022  21:28:00       54.074       24.505       -7.086       14.686       11.808        9.866      215.681      139.432       97.334        0.201        0.023       59.368        2.861        0.002      333.106        2.205      868.216
01/08/2022  21:29:00       55.961       28.528       -6.826       13.506       11.539        9.388      182.414      133.139       88.139        0.220        0.020       62.813        5.899        0.009      333.123        2.232      868.225
01/08/2022  21:30:00       48.942       19.846       -2.312       16.696       15.418       11.717      278.741      237.705      137.287        0.172        0.033       52.812        9.883        0.035      333.081        2.163      868.227
01/08/2022  21:31:00       32.388       24.081      -10.922       19.251       17.082       13.666      370.607      291.790      186.754        0.130        0.042       40.359       10.252        0.065      333.117        2.222      868.228
01/08/2022  21:32:00       15.462       22.142       -4.444       14.172       15.359       12.307      200.847      235.904      151.471        0.067        0.029       27.007        9.363        0.120      333.067        2.141      868.238
01/08/2022  21:33:00       48.768       38.096       -2.901       24.268       12.728       11.766      588.934      162.008      138.429        0.236        0.044       61.884        8.359        0.018      333.103        2.200      868.251
01/08/2022  21:34:00       72.031       36.635       -8.067       12.660       13.057       10.606      160.272      170.490      112.496        0.352        0.022       80.812        8.213        0.010      333.113        2.214      868.260
01/08/2022  21:35:00       57.161       27.427       -5.589       12.387       11.633        6.323      153.440      135.329       39.985        0.219        0.016       63.400        5.288        0.007      333.065        2.136      868.255
01/08/2022  21:36:00       61.749       30.017       -2.927       19.855       15.010       10.310      394.228      225.314      106.300        0.272        0.036       68.659        9.084        0.018      333.080        2.161      868.263
01/08/2022  21:37:00       56.624       42.819       -9.318       21.119       13.423       11.210      446.031      180.172      125.660        0.294        0.038       70.991        6.961        0.010      333.128        2.240      868.264
01/08/2022  21:38:00       57.829       43.064       -9.761       24.296       13.827        8.955      590.316      191.199       80.188        0.308        0.043       72.102        2.440        0.001      333.133        2.251      868.269
01/08/2022  21:39:00       21.767       60.992       -8.207       16.689       22.688       13.713      278.531      514.749      188.047        0.262        0.049       64.760        9.107        0.020      333.112        2.216      868.282
01/08/2022  21:40:00       34.448       36.302       -1.471       18.165       17.712       13.233      329.973      313.700      175.117        0.166        0.041       50.045        5.651        0.013      333.169        2.307      868.302
01/08/2022  21:41:00       74.915       26.258       -4.962       12.449       14.673       10.420      154.980      215.299      108.567        0.340        0.024       79.383        7.998        0.010      333.108        2.209      868.333
01/08/2022  21:42:00       27.501        5.191       -6.049       20.747       14.260       13.400      430.455      203.335      179.548        0.082        0.041       27.987        7.700        0.076      332.856        1.791      868.360
01/08/2022  21:43:00       27.527       40.333       -8.116       18.777       13.446       10.391      352.574      180.788      107.983        0.155        0.032       48.831        7.483        0.023      333.001        2.032      868.371
01/08/2022  21:44:00       67.067       49.970      -12.405       23.525       19.514       15.544      553.422      380.813      241.605        0.416        0.059       83.636        6.110        0.005      333.064        2.134      868.374
01/08/2022  21:45:00      103.087       55.369      -19.113       22.353       19.008       15.488      499.658      361.310      239.880        0.758        0.055      117.016        8.311        0.005      333.106        2.203      868.377
01/08/2022  21:46:00       67.945       41.956       -9.243       21.393       12.308        9.658      457.666      151.477       93.274        0.358        0.035       79.855        2.968        0.001      333.049        2.109      868.380
01/08/2022  21:47:00       38.546       49.204       -7.832       17.118       20.557       13.859      293.024      422.604      192.078        0.244        0.045       62.504       10.651        0.029      332.995        2.021      868.363
01/08/2022  21:48:00       58.762       58.058      -14.585       24.462       22.456       20.020      598.404      504.273      400.792        0.427        0.075       82.606       11.469        0.019      332.967        1.973      868.359
01/08/2022  21:49:00       52.514       53.120       -5.961       24.718       22.637       23.643      610.972      512.429      558.978        0.365        0.084       74.696       13.978        0.035      332.909        1.880      868.368
01/08/2022  21:50:00       65.767       65.610       -7.193       32.229       26.423       16.347     1038.701      698.153      267.232        0.534        0.100       92.897       10.009        0.012      332.937        1.925      868.373
01/08/2022  21:51:00       79.354       66.085      -13.227       28.807       26.454       20.126      829.824      699.841      405.075        0.639        0.097      103.268       16.808        0.026      332.914        1.888      868.378
01/08/2022  21:52:00       63.681       51.727      -10.790       35.629       25.553       23.676     1269.423      652.938      560.546        0.466        0.124       82.042       15.981        0.038      332.935        1.922      868.381
01/08/2022  21:53:00       63.846       71.558      -13.498       26.390       23.444       16.548      696.458      549.639      273.851        0.545        0.076       95.900       11.821        0.015      332.909        1.879      868.382
01/08/2022  21:54:00       91.896       61.509      -16.619       29.574       21.527       20.636      874.612      463.425      425.856        0.713        0.088      110.581       10.819        0.010      332.928        1.911      868.387
01/08/2022  21:55:00       78.701       55.049       -7.276       41.762       26.491       17.364     1744.087      701.756      301.523        0.601        0.137       96.043       20.025        0.043      332.894        1.852      868.385
01/08/2022  21:56:00       61.795       53.161      -12.751       27.874       23.428       15.973      776.949      548.868      255.129        0.419        0.079       81.515       14.996        0.034      332.900        1.866      868.383
01/08/2022  21:57:00       37.044       40.620       -3.122       17.881       19.072       13.725      319.733      363.744      188.369        0.195        0.044       54.975       10.895        0.039      332.871        1.818      868.390
01/08/2022  21:58:00       45.171       56.644       -7.806       22.704       23.901       15.368      515.489      571.271      236.161        0.332        0.066       72.450       14.762        0.042      332.912        1.885      868.391
01/08/2022  21:59:00       51.212       68.398      -14.983       19.988       23.488       18.269      399.526      551.694      333.741        0.440        0.064       85.446       12.124        0.020      332.967        1.975      868.399
01/08/2022  22:00:00       84.896       50.743      -14.602       21.778       17.517       14.094      474.279      306.857      198.651        0.549        0.049       98.905        9.477        0.009      332.900        1.865      868.425
01/08/2022  22:01:00       53.632       43.969       -8.994       20.221       15.276       15.037      408.891      233.352      226.111        0.288        0.043       69.351        8.511        0.015      332.867        1.810      868.432
01/08/2022  22:02:00       45.754       38.640       -6.787       17.145       17.076       11.516      293.935      291.585      132.613        0.218        0.036       59.887        8.114        0.018      332.908        1.878      868.445
01/08/2022  22:03:00       43.189       29.229       -9.555       13.033       13.737        9.650      169.868      188.692       93.118        0.163        0.023       52.150        7.551        0.021      332.872        1.821      868.455
01/08/2022  22:04:00       37.150       25.368       -7.941       16.084       10.966        8.377      258.702      120.244       70.181        0.127        0.022       44.985        5.374        0.014      332.875        1.823      868.445
01/08/2022  22:05:00       60.724       37.760      -10.753       14.298       12.207        8.589      204.446      149.015       73.771        0.283        0.021       71.506        5.497        0.006      332.867        1.813      868.449
01/08/2022  22:06:00       69.937       32.543       -9.325       22.354       14.357        9.635      499.686      206.126       92.839        0.342        0.040       77.137       10.694        0.019      332.873        1.822      868.443
01/08/2022  22:07:00       59.917       41.155      -10.125       21.450       12.274       12.601      460.116      150.643      158.797        0.308        0.038       72.690        7.742        0.011      332.819        1.731      868.435
01/08/2022  22:08:00       77.213       51.385      -11.456       24.937       17.355       17.212      621.855      301.207      296.249        0.498        0.061       92.748       13.142        0.020      332.859        1.798      868.437
01/08/2022  22:09:00       97.869       46.723      -19.339       21.590       20.331       17.984      466.125      413.345      323.408        0.667        0.060      108.450       11.612        0.011      332.866        1.810      868.451
01/08/2022  22:10:00       67.435       28.542       -7.105       26.166       16.544       15.439      684.681      273.714      238.364        0.330        0.060       73.227       15.268        0.043      332.814        1.722      868.454
01/08/2022  22:11:00       67.814       41.972       -7.772       26.250       14.701       17.030      689.041      216.117      290.015        0.381        0.060       79.752       13.886        0.030      332.843        1.770      868.451
01/08/2022  22:12:00       63.309       32.099       -6.771       22.485       17.742       16.013      505.567      314.774      256.411        0.308        0.054       70.981       11.375        0.026      332.826        1.742      868.449
01/08/2022  22:13:00       68.183       40.153       -7.310       24.208       16.094       14.058      586.035      259.029      197.639        0.368        0.052       79.128       10.150        0.016      332.810        1.716      868.456
01/08/2022  22:14:00       92.841       50.191      -10.649       19.759       17.112       10.417      390.435      292.826      108.506        0.602        0.040      105.539        7.974        0.006      332.790        1.682      868.466
01/08/2022  22:15:00       74.877       54.465       -5.006       35.714       20.928       16.696     1275.513      437.987      278.749        0.529        0.100       92.591       16.905        0.033      332.806        1.709      868.479
01/08/2022  22:16:00       81.879       39.054       -9.879       22.718       14.741       10.841      516.103      217.305      117.530        0.459        0.043       90.716        7.541        0.007      332.763        1.638      868.487
01/08/2022  22:17:00       99.286       41.956       -8.678       20.610       19.458       12.609      424.760      378.622      158.993        0.633        0.048      107.787        6.366        0.003      332.808        1.712      868.488
01/08/2022  22:18:00       84.729       28.351      -13.445       18.178       19.766       14.653      330.445      390.689      214.722        0.455        0.047       89.347        7.825        0.008      332.783        1.671      868.492
01/08/2022  22:19:00      108.614       43.910      -23.813       48.503       22.678       23.464     2352.550      514.281      550.543        0.885        0.171      117.154       18.679        0.025      332.883        1.837      868.493
01/08/2022  22:20:00      105.973       55.851      -16.502       21.852       22.504       18.516      477.495      506.422      342.826        0.797        0.066      119.789       10.901        0.008      332.783        1.672      868.491
01/08/2022  22:21:00      103.924       44.821      -21.076       23.424       21.142       23.475      548.682      446.996      551.083        0.740        0.077      113.177       17.415        0.024      332.851        1.784      868.506
01/08/2022  22:22:00       71.997       41.882      -14.198       34.347       21.697       13.916     1179.704      470.762      193.642        0.449        0.092       83.293       16.358        0.039      332.789        1.682      868.519
01/08/2022  22:23:00      109.088       34.737       -8.005       25.405       15.567       14.096      645.404      242.328      198.699        0.713        0.054      114.485        5.400        0.002      332.823        1.737      868.539
01/08/2022  22:24:00       97.529       43.367       -9.901       26.438       15.475        9.539      698.977      239.475       90.989        0.626        0.051      106.736        6.388        0.004      332.791        1.683      868.555
01/08/2022  22:25:00      104.697       31.565       -9.613       17.045       15.416        9.765      290.530      237.649       95.348        0.634        0.031      109.352        6.145        0.003      332.761        1.634      868.562
01/08/2022  22:26:00      102.574       42.496      -16.827       20.152       15.499       13.330      406.089      240.217      177.682        0.672        0.041      111.028       11.971        0.012      332.793        1.688      868.565
01/08/2022  22:27:00       51.123       39.515      -11.189       27.417       19.271       12.648      751.690      371.354      159.979        0.279        0.064       64.614        8.093        0.016      332.757        1.628      868.566
01/08/2022  22:28:00       47.201       34.427       -5.413       31.396       14.213       10.853      985.722      201.999      117.782        0.237        0.065       58.422        6.031        0.011      332.731        1.586      868.573
01/08/2022  22:29:00       78.938       25.983       -8.460       27.979       16.075        9.845      782.851      258.416       96.924        0.406        0.057       83.105        9.180        0.012      332.826        1.742      868.594
01/08/2022  22:30:00       45.919       22.853       -3.090       25.039       15.100       15.077      626.932      228.012      227.306        0.186        0.054       51.292       11.863        0.053      332.748        1.613      868.613
01/08/2022  22:31:00       52.542       24.156      -10.838       17.796       15.308       10.381      316.708      234.334      107.759        0.206        0.033       57.829        6.940        0.014      332.758        1.629      868.621
01/08/2022  22:32:00       41.609       18.302       -3.078       28.590       15.271       14.034      817.407      233.190      196.950        0.166        0.062       45.456       13.471        0.088      332.694        1.524      868.623
01/08/2022  22:33:00       54.985       42.091      -12.057       26.834       25.151       18.246      720.056      632.576      332.905        0.331        0.084       69.246       13.279        0.037      332.842        1.770      868.609
01/08/2022  22:34:00       60.534       40.535      -15.910       17.572       16.815       18.138      308.785      282.728      328.993        0.324        0.046       72.852        9.029        0.015      332.874        1.822      868.600
01/08/2022  22:35:00       84.598       39.683      -12.203       20.674       14.145       10.565      427.419      200.077      111.624        0.481        0.037       93.442        2.631        0.001      332.810        1.716      868.602
01/08/2022  22:36:00       53.046       30.548       -9.253       16.414       16.313       12.614      269.406      266.120      159.123        0.226        0.035       61.213        7.761        0.016      332.772        1.652      868.599
01/08/2022  22:37:00       79.231       45.361       -7.877       21.752       16.879       11.291      473.148      284.890      127.489        0.464        0.044       91.297        7.582        0.007      332.776        1.659      868.610
01/08/2022  22:38:00       86.122       52.246      -10.785       15.949       15.151       15.243      254.386      229.542      232.350        0.549        0.036      100.730        8.938        0.008      332.787        1.677      868.619
01/08/2022  22:39:00       59.670       50.240       -3.829       28.661       18.494       10.593      821.457      342.013      112.218        0.369        0.064       78.004        7.364        0.009      332.812        1.719      868.617
01/08/2022  22:40:00       11.074       20.427        0.477       14.765       22.443        8.994      218.015      503.695       80.900        0.067        0.040       23.235        8.229        0.125      332.772        1.654      868.622
01/08/2022  22:41:00       -4.517       12.205       -4.044        7.036        6.943        5.503       49.505       48.205       30.285        0.016        0.006       13.014        3.603        0.077      332.790        1.684      868.629
01/08/2022  22:42:00       14.387       30.207       -9.244        8.730        7.942        9.034       76.213       63.080       81.607        0.071        0.011       33.459        2.227        0.004      332.862        1.802      868.627
01/08/2022  22:43:00        6.321       39.020       -0.749       12.131       10.516        9.694      147.161      110.584       93.970        0.096        0.018       39.528        7.711        0.038      332.871        1.818      868.622
01/08/2022  22:44:00      -17.066        3.440       -5.027       23.971        6.860        7.914      574.615       47.066       62.634        0.051        0.034       17.409        6.166        0.125      332.535        1.260      868.626
01/08/2022  22:45:00      -23.898       21.841      -11.729       16.855       12.955        9.577      284.086      167.826       91.728        0.086        0.027       32.375        7.065        0.048      332.411        1.058      868.623
01/08/2022  22:46:00      -50.099       28.388      -16.082       17.070        7.316        9.831      291.380       53.518       96.646        0.201        0.022       57.583        2.679        0.002      332.200        0.707      868.619
01/08/2022  22:47:00      -39.190       26.378      -21.197       18.206       15.910       12.254      331.444      253.138      150.170        0.171        0.037       47.240        2.575        0.003      332.251        0.791      868.623
01/08/2022  22:48:00      -49.725       23.430      -14.095        9.715       10.886       11.049       94.389      118.510      122.089        0.178        0.017       54.968        6.108        0.012      332.305        0.882      868.625
01/08/2022  22:49:00      -37.718        3.789      -20.635       16.196       13.524       15.361      262.298      182.892      235.972        0.127        0.034       37.908        6.550        0.030      332.308        0.885      868.640
01/08/2022  22:50:00      -45.790       19.024      -10.426       22.298       12.360       13.303      497.222      152.768      176.967        0.170        0.041       49.585       12.880        0.067      332.067        0.489      868.663
01/08/2022  22:51:00      -81.674       42.234      -15.143       13.188       17.825        7.701      173.920      317.714       59.308        0.462        0.028       91.947        5.350        0.003      332.009        0.392      868.680
01/08/2022  22:52:00      -68.839       40.780      -13.917       16.004       11.402       12.242      256.124      130.015      149.867        0.357        0.027       80.012        9.599        0.014      332.153        0.630      868.702
01/08/2022  22:53:00      -75.327       16.280      -19.456       19.621       25.222       13.100      384.988      636.132      171.610        0.375        0.060       77.066        5.600        0.005      332.051        0.463      868.707
01/08/2022  22:54:00      -82.222       11.580      -15.351       15.469       12.949       10.283      239.303      167.687      105.742        0.382        0.026       83.034        2.592        0.001      332.007        0.389      868.706
01/08/2022  22:55:00      -72.038       35.999      -15.706       13.270       10.410        6.424      176.101      108.362       41.272        0.353        0.016       80.532        2.693        0.001      332.030        0.428      868.698
01/08/2022  22:56:00      -61.172       50.971      -11.377       23.888        8.599        7.839      570.627       73.945       61.444        0.359        0.035       79.624       10.045        0.016      332.314        0.896      868.687
01/08/2022  22:57:00      -31.149       58.382       -3.619       15.960       11.507       10.948      254.707      132.422      119.853        0.245        0.025       66.172        5.754        0.008      332.356        0.966      868.673
01/08/2022  22:58:00      -33.206       48.242       -3.354       13.980       19.551       15.995      195.433      382.232      255.848        0.214        0.042       58.565        7.734        0.017      332.328        0.918      868.649
01/08/2022  22:59:00      -38.567        7.405      -17.909       14.668       15.112       14.184      215.153      228.367      201.173        0.125        0.032       39.271        8.279        0.044      332.026        0.422      868.647
01/08/2022  23:00:00      -28.555        2.589      -13.017       23.479       24.286       17.567      551.256      589.814      308.616        0.122        0.072       28.672       12.484        0.190      331.791        0.035      868.658
01/08/2022  23:01:00      -28.449       -6.084       -6.186       46.426       30.528       33.647     2155.363      931.931     1132.096        0.255        0.211       29.092       30.712        1.115      331.727       -0.071      868.670
01/08/2022  23:02:00      -56.618        0.804      -13.054       38.291       26.034       30.528     1466.178      677.764      931.968        0.323        0.154       56.624       28.753        0.258      331.694       -0.126      868.683
01/08/2022  23:03:00      -82.097       25.707      -11.204       35.525       40.620       20.160     1262.050     1649.987      406.439        0.542        0.166       86.028       19.054        0.049      331.748       -0.037      868.684
01/08/2022  23:04:00      -78.554       34.420       -8.872       43.288       25.108       17.660     1873.878      630.399      311.881        0.512        0.141       85.764       16.355        0.036      331.772        0.003      868.674
01/08/2022  23:05:00      -64.390       20.295      -17.242       30.789       24.535       19.212      947.991      601.977      369.101        0.339        0.096       67.513        9.315        0.019      331.870        0.165      868.652
01/08/2022  23:06:00      -44.244       10.006      -16.805       20.675       17.063       15.532      427.475      291.152      241.256        0.165        0.048       45.362       13.601        0.090      331.909        0.229      868.638
01/08/2022  23:07:00      -28.515       12.478      -12.058       18.551       17.431       14.475      344.154      303.850      209.522        0.099        0.043       31.125       12.318        0.157      332.076        0.504      868.630
01/08/2022  23:08:00      -10.168       -1.842       -7.633       12.364       13.935       13.139      152.867      194.189      172.642        0.034        0.026       10.334        6.157        0.355      331.981        0.347      868.628
01/08/2022  23:09:00      -23.555      -16.962      -19.350       12.817       10.800       10.782      164.268      116.639      116.243        0.081        0.020       29.026        3.797        0.017      331.974        0.336      868.627
01/08/2022  23:10:00      -28.574       -3.942      -16.923       16.112       15.807       12.455      259.602      249.848      155.117        0.089        0.033       28.845       10.490        0.132      331.939        0.278      868.623
01/08/2022  23:11:00      -34.830        2.248      -15.820       19.107       11.867       12.038      365.095      140.828      144.905        0.106        0.033       34.903        9.385        0.072      331.975        0.337      868.623
01/08/2022  23:12:00      -21.005        6.083       -5.114       12.932       14.382        9.581      167.228      206.851       91.788        0.049        0.023       21.868        8.357        0.146      331.879        0.179      868.617
01/08/2022  23:13:00      -14.729        1.929      -11.411       12.364       10.041        9.190      152.872      100.812       84.454        0.034        0.017       14.855        5.844        0.155      332.007        0.389      868.608
01/08/2022  23:14:00       -3.091       -1.392       -8.119       10.140        9.941       10.808      102.824       98.832      116.820        0.020        0.016        3.390        7.239        4.559      332.090        0.526      868.621
01/08/2022  23:15:00      -32.113      -10.918      -14.250       14.413       13.714       12.758      207.735      188.063      162.775        0.096        0.028       33.919        9.935        0.086      331.869        0.164      868.632
01/08/2022  23:16:00       -3.059       18.030      -17.833       12.713       12.898       10.713      161.631      166.365      114.769        0.055        0.022       18.287        5.791        0.100      332.676        1.495      868.654
01/08/2022  23:17:00      -19.429       27.220       -5.452       14.618       20.476        7.277      213.698      419.249       52.957        0.092        0.034       33.443        5.551        0.028      332.790        1.682      868.651
01/08/2022  23:18:00      -42.965      -21.855      -11.367       15.829        9.232       11.586      250.545       85.230      134.225        0.146        0.024       48.205        8.337        0.030      331.881        0.181      868.651
01/08/2022  23:19:00      -38.312      -23.460       -9.895       15.203       13.967       11.792      231.133      195.070      139.059        0.134        0.028       44.924        4.193        0.009      332.279        0.839      868.654
01/08/2022  23:20:00        7.786       22.535      -10.602       30.430       23.405        8.070      925.998      547.816       65.127        0.111        0.077       23.842        8.844        0.138      332.569        1.316      868.648
01/08/2022  23:21:00       49.100       55.730       -7.979       14.976       14.654       11.318      224.294      214.745      128.090        0.307        0.028       74.274        7.943        0.011      332.950        1.948      868.646
01/08/2022  23:22:00       39.322       72.560       -4.949       17.407       16.920       13.718      303.004      286.299      188.185        0.381        0.039       82.530        9.247        0.013      333.098        2.190      868.647
01/08/2022  23:23:00       50.728       59.177       -4.671       13.161       19.653       11.814      173.208      386.223      139.560        0.340        0.035       77.944        6.300        0.007      332.979        1.996      868.644
01/08/2022  23:24:00       36.108       53.400       -5.012       15.002       22.360       10.627      225.059      499.985      112.927        0.251        0.042       64.462       11.208        0.030      332.988        2.010      868.639
01/08/2022  23:25:00       49.753       61.731      -11.653       16.221       17.830       11.138      263.119      317.925      124.054        0.356        0.035       79.285        8.030        0.010      333.096        2.188      868.638
01/08/2022  23:26:00       24.366       27.356       -9.096       11.602       17.912       11.792      134.604      320.841      139.044        0.101        0.030       36.634        6.233        0.029      332.793        1.686      868.644
01/08/2022  23:27:00       31.083       23.774      -12.997       17.555       13.571       12.702      308.176      184.170      161.343        0.118        0.033       39.133        7.771        0.039      332.817        1.728      868.655
01/08/2022  23:28:00       42.978       19.380       -4.025       17.042       21.072       13.700      290.441      444.029      187.677        0.158        0.046       47.145        7.216        0.023      333.002        2.034      868.667
01/08/2022  23:29:00      -14.406        6.018       -6.924       16.906       21.724       10.110      285.826      471.920      102.207        0.058        0.043       15.612       10.466        0.449      332.603        1.373      868.670
01/08/2022  23:30:00      -18.527       -0.164       -6.073       21.135       14.276       11.473      446.704      203.811      131.632        0.058        0.039       18.527        7.367        0.158      332.112        0.564      868.683
01/08/2022  23:31:00       36.569       23.984        2.785       30.362       14.082       10.277      921.838      198.308      105.616        0.157        0.061       43.732       12.413        0.081      332.548        1.284      868.677
01/08/2022  23:32:00       39.157       34.463       -5.253       34.032       19.550       10.980     1158.211      382.208      120.567        0.220        0.083       52.163        9.293        0.032      332.957        1.958      868.672
01/08/2022  23:33:00        4.244       10.656       -6.527       28.878       24.563       15.751      833.957      603.353      248.088        0.093        0.084       11.470       10.365        0.817      332.522        1.240      868.671
01/08/2022  23:34:00      -38.811        4.182      -13.602       20.763       13.025        8.088      431.092      169.663       65.422        0.119        0.033       39.035        5.829        0.022      332.011        0.396      868.680
01/08/2022  23:35:00      -31.809       25.118       -8.770       14.265       16.453        8.160      203.477      270.701       66.585        0.113        0.027       40.530        4.248        0.011      332.035        0.435      868.694
01/08/2022  23:36:00      -18.036        0.261      -10.416       14.328       12.786        9.640      205.286      163.474       92.925        0.045        0.023       18.038        3.024        0.028      332.125        0.584      868.691
01/08/2022  23:37:00       17.910        3.115       -8.738       17.213       10.663        6.607      296.289      113.695       43.649        0.043        0.023       18.179        7.038        0.150      332.454        1.127      868.700
01/08/2022  23:38:00       62.849       38.034       -4.043       10.059       14.874        7.979      101.184      221.230       63.669        0.290        0.019       73.461        2.546        0.001      332.535        1.261      868.685
01/08/2022  23:39:00       73.028       72.540       -8.422       13.079       14.531        8.843      171.055      211.164       78.191        0.556        0.023      102.933        4.450        0.002      332.867        1.811      868.658
01/08/2022  23:40:00       68.456       80.618       -8.494       19.430       17.104       13.083      377.530      292.556      171.163        0.605        0.042      105.761        8.154        0.006      332.793        1.686      868.649
01/08/2022  23:41:00       45.211       73.468       -3.085       18.157       19.812       10.792      329.687      392.525      116.468        0.414        0.042       86.265        6.442        0.006      333.042        2.098      868.636
01/08/2022  23:42:00        8.944       16.609        0.445       20.896       18.052       13.979      436.661      325.870      195.412        0.066        0.048       18.865        9.567        0.257      332.697        1.528      868.630
01/08/2022  23:43:00       -9.623        4.927      -11.290       18.755       10.224        8.972      351.758      104.538       80.496        0.039        0.027       10.811        7.280        0.453      332.238        0.770      868.627
01/08/2022  23:44:00       14.618       18.874       -9.108       12.425       16.568       10.501      154.385      274.504      110.266        0.060        0.027       23.873        7.743        0.105      332.624        1.408      868.629
01/08/2022  23:45:00      -49.561        5.148       -9.394       20.379       21.231       13.697      415.285      450.773      187.599        0.181        0.053       49.827        9.366        0.035      331.787        0.027      868.637
01/08/2022  23:46:00      -67.695       25.477      -15.809       13.920       16.662        9.977      193.754      277.616       99.537        0.303        0.029       72.330        6.064        0.007      331.657       -0.185      868.641
01/08/2022  23:47:00      -47.421       36.880       -9.801       15.420        9.764        9.708      237.782       95.335       94.246        0.207        0.021       60.074        4.362        0.005      331.601       -0.279      868.654
01/08/2022  23:48:00      -66.415       47.770      -17.860       20.701       15.621       12.732      428.525      244.005      162.113        0.392        0.042       81.810        9.230        0.013      331.943        0.284      868.678
01/08/2022  23:49:00       25.922       59.874       -3.558       44.254       27.784       20.374     1958.441      771.937      415.091        0.371        0.157       65.244       15.534        0.057      332.756        1.628      868.681
01/08/2022  23:50:00       52.264       37.127      -12.935       27.660       23.501       19.962      765.073      552.275      398.473        0.300        0.086       64.109        7.482        0.014      333.208        2.372      868.667
01/08/2022  23:51:00       42.242       35.204      -16.594       30.374       42.924       18.102      922.592     1842.459      327.669        0.320        0.155       54.988       11.356        0.043      332.703        1.540      868.682
01/08/2022  23:52:00       41.983       88.085        0.747       37.601       33.016       20.004     1413.865     1090.035      400.149        0.621        0.145       97.578       12.193        0.016      333.204        2.367      868.691
01/08/2022  23:53:00      -18.151      -31.730      -12.897       19.364       26.422       18.563      374.975      698.148      344.599        0.146        0.071       36.555       15.370        0.177      331.999        0.377      868.714
01/08/2022  23:54:00      -27.801      -14.283       -6.458       16.654       14.235        9.118      277.343      202.633       83.137        0.079        0.028       31.256        5.979        0.037      331.872        0.168      868.728
01/08/2022  23:55:00      -11.661        9.571       -5.255       10.379        8.157        7.740      107.728       66.542       59.906        0.024        0.012       15.086        6.342        0.177      332.427        1.083      868.733
01/08/2022  23:56:00        6.250       19.403        3.808       23.387       13.473       12.981      546.942      181.511      168.507        0.066        0.045       20.385       12.856        0.398      332.388        1.018      868.716
01/08/2022  23:57:00      -13.946       25.411       -1.480       17.925        7.678        8.770      321.304       58.950       76.918        0.065        0.023       28.986        5.514        0.036      332.142        0.613      868.716
01/08/2022  23:58:00       29.913       34.696       -1.275       15.539       13.328       10.017      241.463      177.646      100.338        0.131        0.026       45.811        4.193        0.008      332.982        1.999      868.705
01/08/2022  23:59:00       31.404       43.917       -2.899       22.053       12.371       11.270      486.339      153.051      127.010        0.184        0.038       53.989        9.552        0.031      332.772        1.652      868.707
01/09/2022  00:00:00       -5.969       22.201        1.504       17.375       32.715       18.000      301.886     1070.283      324.009        0.111        0.085       22.990       11.884        0.267      332.602        1.372      868.728
01/09/2022  00:01:00        1.485       -2.270       -4.344        5.580        7.098       10.085       31.134       50.386      101.708        0.010        0.009        2.713        6.951        6.566      332.504        1.209      868.725
01/09/2022  00:02:00       -0.622       -4.457       -6.865       15.032       16.130        7.408      225.961      260.178       54.876        0.030        0.027        4.500        3.737        0.690      332.428        1.083      868.726
01/09/2022  00:03:00       38.282        5.713      -11.678       13.329       13.179        9.562      177.671      173.693       91.429        0.104        0.022       38.705        7.543        0.038      332.634        1.425      868.727
01/09/2022  00:04:00       34.583       32.778       -3.552       19.326       26.635        8.514      373.488      709.433       72.495        0.172        0.058       47.649       10.047        0.044      332.682        1.504      868.730
01/09/2022  00:05:00       61.088       30.669       -5.883       25.266       22.332       17.525      638.393      498.734      307.119        0.308        0.072       68.355        6.469        0.009      332.637        1.429      868.732
01/09/2022  00:06:00       21.373       51.747       -5.776       22.172       39.914       12.809      491.617     1593.156      164.083        0.271        0.112       55.987        6.459        0.013      332.616        1.395      868.730
01/09/2022  00:07:00       52.475       66.238       -9.298       28.219       25.785       14.601      796.334      664.879      213.178        0.445        0.084       84.505       14.065        0.028      332.899        1.863      868.729
01/09/2022  00:08:00       42.045       30.135       -7.641       21.059       26.258       11.097      443.490      689.470      123.134        0.199        0.063       51.729        7.621        0.022      332.643        1.438      868.730
01/09/2022  00:09:00       13.992       17.808       -7.600       15.568       26.630       14.603      242.356      709.131      213.237        0.087        0.058       22.647       14.762        0.425      332.579        1.334      868.713
01/09/2022  00:10:00       56.678       74.840      -14.389       22.655       15.044       11.793      513.268      226.329      139.087        0.495        0.044       93.880       10.503        0.013      332.771        1.653      868.689
01/09/2022  00:11:00       37.137       60.049      -11.544       28.968       14.834       15.097      839.124      220.059      227.923        0.320        0.064       70.605       15.078        0.046      332.784        1.672      868.681
01/09/2022  00:12:00       38.628       65.606        6.744       20.136       40.694       22.333      405.464     1656.027      498.757        0.420        0.128       76.133       18.242        0.057      332.664        1.474      868.680
01/09/2022  00:13:00       50.820       28.295       -5.930       18.450       20.347       15.181      340.420      414.005      230.477        0.220        0.049       58.167        9.671        0.028      332.500        1.202      868.693
01/09/2022  00:14:00       13.323       28.021      -11.363       21.891       14.804       13.386      479.197      219.149      179.184        0.098        0.044       31.027       13.519        0.190      332.490        1.187      868.701
01/09/2022  00:15:00       28.922        0.031       -7.441       11.447       13.427        8.107      131.026      180.293       65.717        0.063        0.019       28.922        4.829        0.028      332.417        1.065      868.720
01/09/2022  00:16:00       73.473       28.022      -10.831       15.577       24.341       14.960      242.654      592.496      223.794        0.368        0.053       78.636        4.039        0.003      332.637        1.430      868.724
01/09/2022  00:17:00       98.446       40.802       -6.915       24.325       23.532       13.754      591.701      553.774      189.170        0.637        0.067      106.567        8.770        0.007      332.695        1.527      868.718
01/09/2022  00:18:00       45.037       12.717       -6.654       28.351       13.438       12.905      803.788      180.579      166.550        0.169        0.058       46.798       10.154        0.047      332.463        1.142      868.724
01/09/2022  00:19:00       74.938       14.689       -8.294       13.958       16.803       11.072      194.815      282.347      122.582        0.325        0.030       76.364        6.214        0.007      332.656        1.461      868.722
01/09/2022  00:20:00       67.832       25.045       -8.689       18.973       16.644       13.752      359.970      277.011      189.122        0.306        0.041       72.308        8.301        0.013      332.472        1.157      868.713
01/09/2022  00:21:00       47.475        6.112       -6.597       17.109       18.467       13.138      292.702      341.035      172.601        0.157        0.040       47.867        8.923        0.035      332.560        1.302      868.703
01/09/2022  00:22:00       50.001       23.408      -11.221       16.913       21.879       11.683      286.063      478.700      136.494        0.204        0.045       55.209       12.389        0.050      332.582        1.339      868.698
01/09/2022  00:23:00       66.825       37.564      -10.000       33.343       20.364       13.798     1111.768      414.678      190.397        0.385        0.086       76.660       11.293        0.022      332.635        1.425      868.700
01/09/2022  00:24:00      107.901       34.851      -17.403       21.873       25.133       16.371      478.430      631.652      268.012        0.727        0.069      113.390       10.657        0.009      332.673        1.489      868.709
01/09/2022  00:25:00       25.732       -0.485       -6.169       23.732       19.550       10.714      563.220      382.185      114.784        0.088        0.053       25.737       10.257        0.159      332.508        1.216      868.729
01/09/2022  00:26:00       41.362       28.830       -2.460       52.279       23.559        8.638     2733.125      555.045       74.619        0.295        0.168       50.418       11.718        0.054      332.530        1.253      868.734
01/09/2022  00:27:00       90.767       41.435      -11.811       28.041       16.663       11.448      786.279      277.654      131.061        0.564        0.060       99.777        7.727        0.006      332.614        1.391      868.740
01/09/2022  00:28:00       31.616       23.062       -4.310       17.325       24.530       12.706      300.146      601.738      161.454        0.131        0.053       39.134       11.550        0.087      332.537        1.264      868.745
01/09/2022  00:29:00       67.874       53.121      -11.361       28.857       19.688       15.057      832.752      387.618      226.703        0.450        0.072       86.190       12.711        0.022      332.586        1.346      868.764
01/09/2022  00:30:00       75.404       49.752       -9.367       26.902       19.510       18.351      723.714      380.640      336.752        0.484        0.072       90.338       13.525        0.022      332.542        1.272      868.769
01/09/2022  00:31:00       38.892       20.871        1.036       33.750       15.539       13.119     1139.039      241.457      172.098        0.175        0.078       44.138       13.681        0.096      332.385        1.012      868.772
01/09/2022  00:32:00       59.843       34.527       -6.323       28.299       15.046       13.942      800.809      226.386      194.385        0.302        0.061       69.089       13.531        0.038      332.504        1.211      868.760
01/09/2022  00:33:00       22.044       31.483       -8.974       24.682       14.219       13.306      609.216      202.179      177.047        0.127        0.049       38.434       11.008        0.082      332.428        1.084      868.750
01/09/2022  00:34:00       32.267       39.216       -5.357       18.858       23.467       14.111      355.641      550.692      199.115        0.186        0.055       50.784       10.149        0.040      332.544        1.275      868.744
01/09/2022  00:35:00       50.984       39.862       -9.668       15.151       11.569       12.236      229.561      133.843      149.720        0.240        0.026       64.717        5.677        0.008      332.535        1.260      868.745
01/09/2022  00:36:00       35.070       63.132       -6.997       11.772       15.742       10.457      138.570      247.807      109.358        0.288        0.025       72.218        5.831        0.007      332.574        1.325      868.753
01/09/2022  00:37:00       31.838       44.213       -7.566       15.390       18.087       14.877      236.839      327.127      221.323        0.191        0.039       54.483        9.102        0.028      332.445        1.112      868.763
01/09/2022  00:38:00       28.966       54.095       -4.876       16.236       14.896        9.591      263.599      221.890       91.996        0.218        0.029       61.362        6.333        0.011      332.564        1.309      868.766
01/09/2022  00:39:00        5.714       32.828      -10.592       18.661       28.863       18.377      348.218      833.076      337.730        0.137        0.076       33.322       17.790        0.285      332.331        0.924      868.754
01/09/2022  00:40:00       -3.557       -2.869       -3.958       22.704       20.844       14.063      515.486      434.481      197.773        0.059        0.057        4.570       12.681        7.701      331.966        0.322      868.746
01/09/2022  00:41:00        8.555       33.806        4.620       27.763       24.968       18.209      770.796      623.390      331.577        0.148        0.086       34.871        7.322        0.044      332.112        0.563      868.744
01/09/2022  00:42:00       -1.591       61.088       -9.336       37.506       25.832       14.546     1406.689      667.287      211.599        0.305        0.114       61.109        7.480        0.015      331.924        0.252      868.746
01/09/2022  00:43:00       52.492       82.545       -8.429       26.207       32.363       17.219      686.827     1047.349      296.492        0.584        0.102       97.822       17.329        0.031      332.407        1.050      868.756
01/09/2022  00:44:00       50.756       93.500       -6.222       25.383       29.938       18.741      644.304      896.281      351.240        0.662        0.095      106.388       17.659        0.028      332.423        1.076      868.769
01/09/2022  00:45:00       52.892       77.958       -8.974       24.044       19.316       15.118      578.135      373.089      228.557        0.507        0.059       94.207       13.495        0.021      332.302        0.878      868.768
01/09/2022  00:46:00       46.956       76.101       -8.843       20.302       20.265       12.483      412.153      410.661      155.817        0.453        0.049       89.421       11.170        0.016      332.251        0.793      868.765
01/09/2022  00:47:00       47.755       64.350       -7.354       24.147       25.059       17.507      583.100      627.977      306.511        0.400        0.076       80.134       15.104        0.036      332.163        0.645      868.758
01/09/2022  00:48:00       53.200       76.510       -8.532       24.673       21.340       17.316      608.751      455.413      299.837        0.506        0.068       93.188       13.368        0.021      332.214        0.730      868.762
01/09/2022  00:49:00       57.729       56.084       -4.408       38.067       21.986       22.113     1449.101      483.366      488.998        0.446        0.121       80.486       20.335        0.064      332.322        0.909      868.765
01/09/2022  00:50:00       67.661       55.382      -12.455       31.486       16.468       17.527      991.359      271.191      307.203        0.468        0.078       87.437        7.282        0.007      332.304        0.879      868.787
01/09/2022  00:51:00       18.165       56.840       -6.915       20.621       27.733       12.124      425.228      769.095      146.999        0.247        0.067       59.672       12.699        0.045      332.329        0.921      868.798
01/09/2022  00:52:00       24.952       42.561       -7.457       18.467       20.350       13.984      341.020      414.135      195.545        0.172        0.048       49.336        7.814        0.025      332.371        0.989      868.814
01/09/2022  00:53:00       13.683       36.661       -3.506       24.451       14.016       12.757      597.832      196.451      162.752        0.125        0.048       39.131        8.837        0.051      332.167        0.653      868.831
01/09/2022  00:54:00       26.526       42.453      -11.384       14.167       20.112       15.809      200.706      404.493      249.935        0.175        0.043       50.059        8.023        0.026      332.380        1.004      868.848
01/09/2022  00:55:00      -34.148       13.920      -15.766       36.997       20.829       15.718     1368.793      433.827      247.063        0.183        0.102       36.876       14.511        0.155      332.003        0.383      868.867
01/09/2022  00:56:00      -65.649       26.219      -16.956       11.518       11.499        7.652      132.663      132.230       58.554        0.280        0.016       70.691        5.159        0.005      331.499       -0.446      868.872
01/09/2022  00:57:00      -91.367       50.774      -16.567       12.001       17.324       11.052      144.015      300.113      122.136        0.588        0.028      104.527        4.943        0.002      331.486       -0.468      868.873
01/09/2022  00:58:00      -84.990       47.477      -23.651       16.669       13.389       11.455      277.856      179.278      131.227        0.531        0.029       97.351        9.008        0.009      331.529       -0.397      868.876
01/09/2022  00:59:00      -61.804       28.845      -19.090       23.600       16.932       12.806      556.941      286.679      164.004        0.301        0.050       68.203       10.593        0.024      331.451       -0.524      868.891
01/09/2022  01:00:00      -54.296       28.163      -26.905       16.910       13.701       14.591      285.934      187.729      212.897        0.258        0.034       61.165        7.610        0.015      331.441       -0.543      868.900
01/09/2022  01:01:00      -40.289       20.436      -10.076       11.712        8.549        8.613      137.178       73.087       74.180        0.121        0.014       45.175        2.904        0.004      331.568       -0.333      868.910
01/09/2022  01:02:00      -39.983       22.429      -12.325       10.969       13.215       10.265      120.319      174.631      105.369        0.133        0.020       45.844        7.528        0.027      331.726       -0.072      868.917
01/09/2022  01:03:00      -24.113       21.267        1.032       17.191       12.625       15.618      295.538      159.378      243.932        0.087        0.035       32.152       14.198        0.195      331.945        0.288      868.926
01/09/2022  01:04:00      -28.344        8.825      -11.612        9.721        8.628        7.961       94.500       74.447       63.375        0.062        0.012       29.686        6.411        0.047      331.750       -0.034      868.934
01/09/2022  01:05:00      -31.636       -6.547       -2.620       13.808       12.722       10.147      190.673      161.849      102.955        0.075        0.023       32.307        6.338        0.038      331.867        0.160      868.929
01/09/2022  01:06:00      -31.886       -7.437      -11.802       19.822       18.947       15.977      392.903      359.004      255.268        0.111        0.050       32.742        8.412        0.066      331.408       -0.596      868.923
01/09/2022  01:07:00      -75.822        9.882      -15.731       28.779       17.192       12.931      828.223      295.573      167.208        0.369        0.065       76.463        6.921        0.008      331.296       -0.779      868.933
01/09/2022  01:08:00      -76.459       30.164      -23.895       14.671       14.880        8.565      215.235      221.403       73.353        0.392        0.025       82.194        4.812        0.003      331.274       -0.817      868.932
01/09/2022  01:09:00      -81.515       32.189      -22.415       14.773       18.734       11.464      218.233      350.971      131.429        0.444        0.035       87.640        5.595        0.004      331.206       -0.927      868.934
01/09/2022  01:10:00      -54.916       14.927      -21.835       16.993       15.030       15.147      288.760      225.916      229.426        0.223        0.037       56.908       10.772        0.036      331.178       -0.973      868.942
01/09/2022  01:11:00      -43.261       17.352      -19.300       11.220        8.803        8.473      125.883       77.500       71.789        0.141        0.014       46.611        5.411        0.013      331.317       -0.745      868.952
01/09/2022  01:12:00      -39.945       25.153      -11.126       17.427       10.585        9.195      303.698      112.044       84.548        0.143        0.025       47.205        8.715        0.034      331.677       -0.153      868.959
01/09/2022  01:13:00      -10.997       26.752       -2.581       27.651       20.522       15.748      764.574      421.163      248.004        0.114        0.072       28.924       13.330        0.212      331.776        0.010      868.961
01/09/2022  01:14:00       -0.997       30.262       -3.037       22.152       20.519       17.176      490.720      421.025      295.027        0.107        0.060       30.278       11.598        0.147      331.873        0.168      868.955
01/09/2022  01:15:00       16.524       34.017       -5.581       26.153       23.885       16.027      683.969      570.475      256.857        0.149        0.076       37.818       12.403        0.108      332.055        0.469      868.946
01/09/2022  01:16:00       28.499       61.393      -10.451       25.989       24.465       12.963      675.445      598.541      168.035        0.307        0.072       67.685        8.554        0.016      332.264        0.814      868.937
01/09/2022  01:17:00       29.121       63.064       -9.443       19.244       18.245       11.095      370.329      332.879      123.110        0.287        0.041       69.463        8.733        0.016      332.392        1.023      868.936
01/09/2022  01:18:00        9.322       33.891       -4.983       18.948       19.749       13.961      359.031      390.006      194.916        0.110        0.047       35.150        9.515        0.073      332.149        0.625      868.942
01/09/2022  01:19:00       -2.643       35.474      -10.180       23.391       17.018       15.895      547.127      289.602      252.656        0.123        0.054       35.573       12.509        0.124      332.105        0.550      868.937
01/09/2022  01:20:00      -33.225       15.162      -14.252       22.577       14.942       16.312      509.723      223.271      266.080        0.127        0.050       36.521        8.329        0.052      331.630       -0.229      868.933
01/09/2022  01:21:00      -54.576        0.011      -11.506       14.309        9.067       10.966      204.741       82.207      120.243        0.176        0.020       54.576        4.396        0.006      331.390       -0.625      868.929
01/09/2022  01:22:00      -50.171        8.586      -18.393       20.554       15.167       12.673      422.463      230.029      160.603        0.187        0.041       50.901        6.350        0.016      331.271       -0.821      868.911
01/09/2022  01:23:00      -52.966       25.803      -12.020       18.025       12.669       11.386      324.892      160.507      129.636        0.212        0.031       58.917        7.364        0.016      331.352       -0.688      868.910
01/09/2022  01:24:00       13.373       39.709       -4.178       26.144       12.196       11.447      683.495      148.746      131.035        0.137        0.048       41.900        8.599        0.042      332.038        0.440      868.913
01/09/2022  01:25:00       -5.783       10.511      -13.044       14.147       13.267        8.646      200.143      176.015       74.752        0.038        0.023       11.997        5.693        0.225      332.011        0.396      868.915
01/09/2022  01:26:00       -1.783       26.060       -3.633       15.193       22.556       10.569      230.823      508.754      111.699        0.077        0.043       26.121        4.319        0.027      331.887        0.191      868.906
01/09/2022  01:27:00        3.376       16.599       -2.466       13.898       21.938       13.707      193.141      481.259      187.874        0.058        0.043       16.939       14.252        0.708      331.856        0.141      868.892
01/09/2022  01:28:00      -29.819        3.402      -10.780       19.959       11.647       11.835      398.365      135.646      140.077        0.085        0.034       30.012       12.178        0.165      331.668       -0.168      868.872
01/09/2022  01:29:00      -19.827        8.131       -7.590       15.805       11.268       13.001      249.783      126.970      169.019        0.053        0.027       21.430        5.486        0.066      331.710       -0.099      868.866
01/09/2022  01:30:00       -7.297       13.993       -5.434       22.979       17.818       15.272      528.036      317.490      233.223        0.068        0.054       15.782       15.743        0.995      331.555       -0.354      868.874
01/09/2022  01:31:00        1.636       19.311      -10.668       12.954       12.136       10.592      167.809      147.272      112.191        0.046        0.021       19.380        8.716        0.202      332.054        0.467      868.895
01/09/2022  01:32:00       -4.339        8.243       -9.075       11.821       11.615       15.761      139.742      134.904      248.425        0.035        0.026        9.316        7.789        0.699      331.763       -0.011      868.912
01/09/2022  01:33:00       -1.064       15.231       -5.131       21.658       17.433       20.007      469.054      303.913      400.289        0.072        0.059       15.268       11.973        0.615      331.818        0.078      868.924
01/09/2022  01:34:00       12.560       36.128       -3.041       20.632       24.323       11.250      425.685      591.599      126.566        0.131        0.057       38.249        8.055        0.044      332.081        0.511      868.933
01/09/2022  01:35:00      -54.357       17.310      -21.146       23.238       14.570       15.833      539.984      212.296      250.693        0.235        0.050       57.047        4.466        0.006      331.477       -0.482      868.928
01/09/2022  01:36:00      -56.351       23.522      -17.141       21.927       13.742        8.486      480.780      188.845       72.018        0.238        0.037       61.063        3.960        0.004      331.457       -0.515      868.919
01/09/2022  01:37:00      -52.426       14.253      -15.516       15.499       13.040        9.796      240.206      170.030       95.952        0.185        0.025       54.329        5.427        0.010      331.381       -0.641      868.920
01/09/2022  01:38:00      -34.959        4.229      -19.398       19.143       13.353       10.241      366.437      178.305      104.878        0.113        0.032       35.214        7.648        0.047      331.310       -0.757      868.930
01/09/2022  01:39:00      -22.679       -3.507       -7.804       17.351       15.352       14.580      301.047      235.692      212.566        0.067        0.037       22.948        6.919        0.091      331.126       -1.061      868.942
01/09/2022  01:40:00      -49.342        6.233      -14.492       26.560       17.583       14.871      705.454      309.147      221.151        0.196        0.062       49.734       12.550        0.064      331.061       -1.169      868.951
01/09/2022  01:41:00      -88.441       33.761      -19.903       16.051       20.787       16.577      257.637      432.116      274.793        0.516        0.048       94.666       12.338        0.017      331.006       -1.256      868.960
01/09/2022  01:42:00      -96.906       39.212      -23.024       24.705       19.335       18.074      610.360      373.845      326.661        0.638        0.066      104.539       10.091        0.009      331.008       -1.254      868.962
01/09/2022  01:43:00     -108.560       29.948      -28.580       37.082       28.165       19.327     1375.063      793.245      373.516        0.802        0.127      112.615       12.848        0.013      330.877       -1.468      868.975
01/09/2022  01:44:00     -109.501       31.188      -19.745       63.776       44.194       22.033     4067.438     1953.093      485.468        0.993        0.325      113.856       20.865        0.034      330.850       -1.513      868.985
01/09/2022  01:45:00     -161.300       48.883      -19.320       26.171       31.500       21.209      684.909      992.232      449.837        1.545        0.106      168.544       12.801        0.006      330.819       -1.564      868.995
01/09/2022  01:46:00     -117.546       35.659       -3.814       58.530       32.678       25.383     3425.729     1067.881      644.281        1.012        0.257      122.836       29.746        0.059      330.838       -1.533      869.006
01/09/2022  01:47:00     -126.046       54.448      -14.587       40.212       27.976       19.597     1616.970      782.638      384.048        1.092        0.139      137.303       10.465        0.006      330.849       -1.514      869.012
01/09/2022  01:48:00     -107.346       42.401      -15.231       31.361       24.103       16.149      983.486      580.943      260.806        0.769        0.091      115.417        9.857        0.007      330.919       -1.399      869.008
01/09/2022  01:49:00      -84.161       27.615      -21.476       29.078       29.557       21.549      845.552      873.597      464.341        0.524        0.109       88.576       11.217        0.016      330.977       -1.306      869.012
01/09/2022  01:50:00      -50.637       25.797      -33.605       19.998       21.267       19.572      399.912      452.268      383.069        0.280        0.062       56.830        7.405        0.017      331.189       -0.956      869.012
01/09/2022  01:51:00      -27.571       27.536      -21.937       18.496       11.169       10.893      342.090      124.743      118.662        0.129        0.029       38.967        5.769        0.022      331.470       -0.494      869.014
01/09/2022  01:52:00       -9.675       21.470      -10.769       19.720       14.536       10.730      388.859      211.297      115.123        0.069        0.036       23.549        7.571        0.103      331.594       -0.289      869.016
01/09/2022  01:53:00      -13.795       14.068        3.065       23.385       18.514       14.801      546.842      342.786      219.070        0.075        0.055       19.703       10.397        0.278      331.640       -0.214      869.028
01/09/2022  01:54:00      -10.543        5.980       -3.661       24.604       14.830       12.146      605.368      219.922      147.531        0.057        0.049       12.121        8.776        0.524      331.518       -0.416      869.020
01/09/2022  01:55:00      -24.990        5.072      -11.612       17.110       13.491       11.281      292.737      182.018      127.272        0.069        0.030       25.500        8.853        0.121      331.302       -0.770      869.018
01/09/2022  01:56:00      -34.154       -7.526       -8.506       14.686       14.394       15.283      215.688      207.185      233.573        0.098        0.033       34.973        7.992        0.052      330.970       -1.317      869.009
01/09/2022  01:57:00      -70.590      -16.670      -21.218       24.626       19.105       19.805      606.428      365.007      392.226        0.354        0.068       72.532       16.363        0.051      330.908       -1.417      869.001
01/09/2022  01:58:00      -54.813       -4.651      -11.243       34.414       21.745       20.878     1184.315      472.837      435.891        0.262        0.105       55.010       21.986        0.160      330.893       -1.443      868.987
01/09/2022  01:59:00      -51.047       -6.478       -7.086       36.673       28.401       20.988     1344.879      806.605      440.477        0.264        0.130       51.456       18.497        0.129      330.852       -1.509      868.977
01/09/2022  02:00:00      -36.196       -8.657      -11.014       28.764       24.452       17.095      827.341      597.916      292.228        0.161        0.086       37.216       15.577        0.175      330.908       -1.419      868.977
01/09/2022  02:01:00      -44.593       -1.425      -15.516       24.713       21.947       22.310      610.733      481.662      497.741        0.191        0.080       44.615       15.021        0.113      330.973       -1.311      868.982
01/09/2022  02:02:00      -59.945        4.348      -23.549       14.497       22.318       17.259      210.152      498.087      297.859        0.259        0.050       60.102        3.086        0.003      331.010       -1.250      868.982
01/09/2022  02:03:00      -42.333       -5.406      -18.577       16.696       16.918       18.240      278.772      286.202      332.695        0.153        0.045       42.677       11.452        0.072      331.056       -1.175      868.977
01/09/2022  02:04:00      -74.244       14.089      -25.311       18.311       15.445       13.180      335.302      238.540      173.701        0.355        0.037       75.569        7.978        0.011      330.990       -1.283      868.969
01/09/2022  02:05:00      -75.791       25.291      -24.256       16.291        6.842        8.054      265.391       46.813       64.863        0.367        0.019       79.899        3.596        0.002      330.978       -1.303      868.959
01/09/2022  02:06:00      -63.174       16.443      -26.389       12.551       14.174        9.445      157.538      200.889       89.204        0.270        0.022       65.279        1.397        0.000      331.189       -0.956      868.953
01/09/2022  02:07:00      -62.000       25.938      -22.639       12.352        9.426        9.882      152.562       88.853       97.648        0.268        0.017       67.207        5.141        0.006      331.217       -0.909      868.946
01/09/2022  02:08:00      -59.051       15.027      -24.775       11.613       11.456       10.461      134.866      131.238      109.425        0.235        0.019       60.933        4.597        0.006      331.161       -1.002      868.946
01/09/2022  02:09:00      -71.260       22.463      -31.043       16.506       16.142       15.591      272.460      260.572      243.084        0.366        0.039       74.717        8.660        0.013      331.002       -1.264      868.945
01/09/2022  02:10:00      -64.976       22.242      -25.314       20.006       22.015       15.638      400.231      484.676      244.552        0.324        0.056       68.677        8.311        0.015      330.917       -1.403      868.942
01/09/2022  02:11:00      -66.477       29.372      -20.274       22.940       20.787       19.335      526.250      432.095      373.846        0.351        0.067       72.677        9.772        0.018      330.884       -1.458      868.944
01/09/2022  02:12:00      -78.033       37.261      -24.372       21.357       16.813       17.612      456.115      282.668      310.185        0.456        0.052       86.473       10.241        0.014      330.859       -1.499      868.958
01/09/2022  02:13:00      -60.367       24.831      -25.547       23.526       23.941       21.428      553.481      573.160      459.169        0.325        0.079       65.275       15.504        0.056      330.917       -1.404      868.969
01/09/2022  02:14:00      -56.113       13.409      -17.484       26.341       19.517       18.282      693.838      380.930      334.247        0.252        0.070       57.693        5.649        0.010      330.947       -1.354      868.973
01/09/2022  02:15:00      -31.818        0.779       -9.245       27.124       31.197       18.060      735.697      973.245      326.165        0.157        0.102       31.827       11.248        0.125      330.817       -1.566      868.968
01/09/2022  02:16:00      -82.861       -8.829      -24.185       20.147       25.033       25.434      405.919      626.635      646.907        0.460        0.084       83.331       18.291        0.048      330.836       -1.537      868.971
01/09/2022  02:17:00      -65.305        9.949      -25.565       29.687       20.738       19.815      881.301      430.078      392.622        0.336        0.085       66.059       11.627        0.031      330.849       -1.515      868.976
01/09/2022  02:18:00      -79.206       -1.193      -27.592       31.349       26.103       22.237      982.748      681.351      494.476        0.460        0.108       79.215       13.860        0.031      330.864       -1.489      868.983
01/09/2022  02:19:00      -55.394        7.604      -14.480       44.111       27.112       29.140     1945.814      735.062      849.130        0.343        0.177       55.913       28.676        0.263      330.830       -1.545      868.995
01/09/2022  02:20:00      -38.302      -12.772      -17.720       26.279       29.443       21.402      690.594      866.863      458.040        0.198        0.101       40.376       13.692        0.115      330.786       -1.618      869.010
01/09/2022  02:21:00      -63.801        6.359      -21.218       46.704       32.484       31.409     2181.236     1055.180      986.510        0.439        0.211       64.117       29.565        0.213      330.855       -1.505      869.021
01/09/2022  02:22:00      -49.439       21.518      -21.164       40.526       24.014       21.372     1642.348      576.655      456.765        0.301        0.134       53.919        9.914        0.034      330.842       -1.527      869.025
01/09/2022  02:23:00      -53.665       13.170      -21.604       35.554       23.246       20.809     1264.114      540.381      432.998        0.288        0.112       55.257       16.127        0.085      330.838       -1.533      869.033
01/09/2022  02:24:00      -96.190       34.318      -20.205       33.327       19.483       19.413     1110.692      379.596      376.848        0.635        0.093      102.128       11.064        0.012      330.768       -1.647      869.030
01/09/2022  02:25:00      -36.478        6.623      -16.724       47.607       31.617       22.913     2266.395      999.607      525.015        0.272        0.190       37.074       20.063        0.293      330.812       -1.575      869.027
01/09/2022  02:26:00       30.433        2.417        3.316       23.972       42.258       20.723      574.672     1785.699      429.435        0.187        0.139       30.529       18.182        0.355      330.746       -1.681      869.027
01/09/2022  02:27:00       24.281       -4.205       -7.064       19.286       31.475       21.441      371.945      990.664      459.719        0.124        0.091       24.642        8.306        0.114      330.796       -1.601      869.030
01/09/2022  02:28:00      -31.551      -11.469       -7.367       60.998       44.645       29.249     3720.769     1993.202      855.507        0.387        0.328       33.571       29.319        0.763      330.919       -1.401      869.034
01/09/2022  02:29:00     -158.712       41.574       -9.107       61.077       39.429       32.257     3730.381     1554.639     1040.515        1.666        0.316      164.067       33.554        0.042      330.774       -1.638      869.035
01/09/2022  02:30:00      -95.673       29.472       -2.722       62.941       39.857       28.082     3961.507     1588.554      788.621        0.818        0.317      100.110       26.867        0.072      330.702       -1.755      869.034
01/09/2022  02:31:00      -70.961       13.980        0.712       61.066       37.660       31.025     3729.015     1418.288      962.574        0.567        0.305       72.325       29.334        0.164      330.737       -1.698      869.036
01/09/2022  02:32:00     -107.649       31.569       -0.996       51.735       36.423       31.826     2676.516     1326.633     1012.923        0.880        0.251      112.183       29.443        0.069      330.864       -1.491      869.038
01/09/2022  02:33:00     -119.627       29.671      -24.865       40.061       34.500       29.188     1604.877     1190.278      851.944        0.973        0.182      123.251       18.453        0.022      330.955       -1.342      869.041
01/09/2022  02:34:00      -72.580       27.768      -17.308       48.938       31.952       26.737     2394.881     1020.941      714.841        0.523        0.207       77.710       15.697        0.041      330.866       -1.486      869.041
01/09/2022  02:35:00      -23.218       18.486       -8.153       48.055       22.523       18.931     2309.274      507.299      358.393        0.206        0.159       29.679       15.753        0.282      330.850       -1.512      869.044
01/09/2022  02:36:00      -40.219       14.989      -15.917       40.103       31.808       24.487     1608.224     1011.730      599.604        0.266        0.161       42.921       12.172        0.080      330.837       -1.534      869.043
01/09/2022  02:37:00      -45.165       18.547      -15.669       50.641       30.060       25.037     2564.495      903.626      626.837        0.336        0.205       48.825       16.338        0.112      330.810       -1.577      869.042
01/09/2022  02:38:00      -15.835      -20.402      -16.840       32.004       41.281       17.706     1024.261     1704.158      313.494        0.200        0.152       25.826       10.770        0.174      330.811       -1.576      869.045
01/09/2022  02:39:00        8.850        3.547       -6.788       21.575       29.983       13.552      465.478      898.955      183.653        0.084        0.077        9.535       10.357        1.180      330.828       -1.549      869.045
01/09/2022  02:40:00       12.584        6.472        2.071       13.579       17.212       13.456      184.391      296.266      181.058        0.043        0.033       14.151        9.180        0.421      330.727       -1.715      869.048
01/09/2022  02:41:00       -1.647       -9.102      -13.824       25.054       26.886       18.337      627.715      722.873      336.232        0.098        0.084        9.250       12.967        1.965      330.864       -1.488      869.058
01/09/2022  02:42:00      -23.557       13.161      -14.234       18.864       19.017       11.887      355.837      361.647      141.303        0.089        0.043       26.984        4.258        0.025      331.064       -1.161      869.075
01/09/2022  02:43:00      -57.539       11.643      -30.223       17.935       17.065       14.408      321.669      291.223      207.590        0.259        0.041       58.705        1.517        0.001      331.574       -0.324      869.083
01/09/2022  02:44:00      -41.381        3.572      -19.255       29.325       24.899       23.872      859.950      619.961      569.890        0.207        0.102       41.535       14.355        0.119      330.950       -1.348      869.088
01/09/2022  02:45:00      -74.354       24.018      -10.144       44.028       20.463       16.868     1938.426      418.732      284.524        0.442        0.132       78.137       15.787        0.041      330.857       -1.501      869.095
01/09/2022  02:46:00      -88.602       34.181      -19.724       19.639       15.176       12.999      385.691      230.319      168.979        0.510        0.039       94.967        7.514        0.006      330.883       -1.460      869.085
01/09/2022  02:47:00      -88.436       19.218      -22.634       21.430       13.882       16.821      459.236      192.704      282.930        0.482        0.047       90.500        7.912        0.008      330.902       -1.428      869.082
01/09/2022  02:48:00      -69.396       23.735      -12.915       43.222       23.334       18.226     1868.145      544.466      332.185        0.414        0.137       73.342        3.921        0.003      330.861       -1.495      869.084
01/09/2022  02:49:00      -63.279        5.660      -12.356       30.856       23.097       21.798      952.074      533.472      475.134        0.307        0.098       63.531       21.183        0.111      330.879       -1.465      869.085
01/09/2022  02:50:00      -58.851        5.185      -13.845       34.899       21.360       14.689     1217.907      456.269      215.774        0.279        0.094       59.079        8.393        0.020      330.889       -1.449      869.077
01/09/2022  02:51:00      -47.858        1.039      -14.881       36.787       28.783       21.861     1353.289      828.439      477.907        0.259        0.133       47.869       14.542        0.092      330.808       -1.581      869.065
01/09/2022  02:52:00      -92.476      -12.946      -24.360       47.190       31.911       29.687     2226.885     1018.324      881.289        0.672        0.206       93.378       29.466        0.100      330.845       -1.521      869.057
01/09/2022  02:53:00     -112.033        4.309       -9.616       37.600       31.642       24.607     1413.737     1001.193      605.506        0.784        0.151      112.116       17.854        0.025      330.737       -1.698      869.052
01/09/2022  02:54:00      -63.046       -1.875      -14.243       43.733       24.176       24.143     1912.567      584.456      582.884        0.363        0.154       63.074       25.774        0.167      330.778       -1.631      869.055
01/09/2022  02:55:00      -59.052       -1.519      -12.515       47.197       39.963       37.799     2227.594     1597.015     1428.762        0.445        0.263       59.071       28.933        0.240      330.723       -1.721      869.070
01/09/2022  02:56:00      -75.223       10.884      -28.579       53.025       27.664       28.283     2811.669      765.280      799.923        0.548        0.219       76.006       29.475        0.150      330.716       -1.732      869.073
01/09/2022  02:57:00     -108.285       42.959      -11.166       17.224       26.094       13.372      296.680      680.873      178.822        0.743        0.058      116.495        5.388        0.002      330.602       -1.920      869.078
01/09/2022  02:58:00      -54.218       10.434      -18.964       29.724       27.162       15.774      883.532      737.750      248.830        0.264        0.094       55.213       10.626        0.037      330.671       -1.807      869.091
01/09/2022  02:59:00      -62.339        3.125      -23.907       27.511       29.905       18.952      756.851      894.331      359.171        0.324        0.101       62.417       10.294        0.027      330.647       -1.847      869.103
01/09/2022  03:00:00      -47.918       -4.949      -24.335       24.149       24.195       26.171      583.170      585.400      684.935        0.238        0.093       48.173       17.635        0.134      330.681       -1.790      869.111
01/09/2022  03:01:00       -3.203        8.324       10.065       26.910       19.281       26.125      724.170      371.764      682.523        0.098        0.089        8.919       19.050        4.562      330.557       -1.995      869.124
01/09/2022  03:02:00      -69.632      -14.239      -17.092       40.248       25.555       22.069     1619.918      653.066      487.051        0.405        0.138       71.073       13.826        0.038      330.665       -1.816      869.124
01/09/2022  03:03:00      -42.318      -25.438      -15.519       29.580       33.460       20.473      875.002     1119.554      419.155        0.255        0.121       49.375       11.014        0.050      330.624       -1.882      869.123
01/09/2022  03:04:00      -17.352       16.441       -3.912       29.312       21.197       26.445      859.218      449.312      699.344        0.130        0.100       23.904       20.190        0.713      330.622       -1.887      869.129
01/09/2022  03:05:00      -58.733        2.959      -17.292       26.711       28.053       17.325      713.455      786.967      300.173        0.278        0.090       58.808       11.254        0.037      330.736       -1.699      869.134
01/09/2022  03:06:00      -60.012        2.371      -18.735       23.598       19.884       20.010      556.866      395.373      400.389        0.266        0.068       60.059       10.725        0.032      330.811       -1.578      869.139
01/09/2022  03:07:00      -21.751       -7.733       -5.404       24.826       15.970       16.507      616.343      255.032      272.467        0.085        0.057       23.085       15.794        0.468      330.709       -1.745      869.148
01/09/2022  03:08:00      -58.877       -5.068      -12.245       17.032       25.883       19.513      290.092      669.942      380.753        0.249        0.067       59.095       10.890        0.034      330.819       -1.564      869.155
01/09/2022  03:09:00      -14.922        0.022       -8.964       29.393       16.239       18.435      863.969      263.714      339.864        0.089        0.073       14.922       15.431        1.069      330.767       -1.649      869.158
01/09/2022  03:10:00      -47.061       -8.245      -13.253       29.590       22.833       16.465      875.589      521.345      271.093        0.206        0.083       47.777       12.654        0.070      330.694       -1.769      869.157
01/09/2022  03:11:00      -41.481        2.438      -13.293       24.762       27.373       23.770      613.168      749.269      565.016        0.192        0.096       41.552       19.236        0.214      330.710       -1.743      869.163
01/09/2022  03:12:00      -87.580       10.511      -26.193       25.316       29.406       19.619      640.899      864.719      384.889        0.518        0.095       88.208       13.011        0.022      330.708       -1.746      869.162
01/09/2022  03:13:00      -87.499       49.911      -19.689       16.005       16.237       14.535      256.175      263.650      211.270        0.563        0.037      100.733        7.189        0.005      330.849       -1.513      869.149
01/09/2022  03:14:00      -93.709       25.713      -30.301       13.588       18.234       13.916      184.625      332.464      193.645        0.554        0.036       97.173        2.012        0.000      330.716       -1.732      869.142
01/09/2022  03:15:00      -47.742       -0.858      -20.013       33.661       19.557       14.825     1133.078      382.471      219.780        0.221        0.087       47.750       16.564        0.120      330.719       -1.728      869.137
01/09/2022  03:16:00      -33.471       -7.762      -22.992       14.201       17.832       19.870      201.671      317.988      394.809        0.131        0.046       34.359       13.474        0.154      330.860       -1.497      869.143
01/09/2022  03:17:00       -5.970        2.106        6.796       14.745       15.028       11.661      217.415      225.850      135.974        0.033        0.029        6.331        6.726        1.129      330.626       -1.882      869.150
01/09/2022  03:18:00      -49.240      -46.098      -23.244       16.567       20.889       15.722      274.465      436.347      247.183        0.302        0.048       67.451        7.496        0.012      330.674       -1.802      869.158
01/09/2022  03:19:00      -79.124       12.208      -15.022       21.788       26.614       12.806      474.700      708.320      164.001        0.399        0.067       80.061       12.445        0.024      330.843       -1.524      869.165
01/09/2022  03:20:00     -115.557       31.177      -15.615       25.565       18.922       13.796      653.574      358.039      190.341        0.789        0.060      119.689        4.699        0.002      330.956       -1.341      869.162
01/09/2022  03:21:00     -101.405       21.555       -9.020       35.563       22.775       16.114     1264.729      518.697      259.674        0.644        0.102      103.671       18.655        0.032      330.883       -1.458      869.162
01/09/2022  03:22:00      -55.210       -4.131       -6.259       59.210       26.550       24.362     3505.842      704.886      593.515        0.395        0.240       55.364       22.313        0.162      330.854       -1.508      869.169
01/09/2022  03:23:00     -148.158        4.296      -13.902       44.844       37.754       31.798     2010.979     1425.339     1011.124        1.330        0.222      148.220       26.760        0.033      330.843       -1.526      869.180
01/09/2022  03:24:00      -64.597      -11.784      -14.711       56.706       41.033       23.123     3215.519     1683.735      534.665        0.498        0.272       65.663       19.532        0.088      330.835       -1.537      869.191
01/09/2022  03:25:00     -110.653      -12.458      -13.366       36.713       37.981       22.662     1347.843     1442.530      513.567        0.794        0.165      111.352       19.519        0.031      330.835       -1.537      869.209
01/09/2022  03:26:00     -157.691       12.946      -16.276       33.118       28.818       20.972     1096.790      830.452      439.839        1.383        0.118      158.221       19.592        0.015      330.818       -1.565      869.217
01/09/2022  03:27:00      -48.867      -10.634       -2.438       50.451       30.369       20.200     2545.282      922.306      408.059        0.319        0.194       50.011       21.681        0.188      330.835       -1.538      869.226
01/09/2022  03:28:00      -68.131        3.207       -1.495       56.073       38.260       27.913     3144.187     1463.854      779.135        0.502        0.269       68.207       22.076        0.105      330.804       -1.589      869.253
01/09/2022  03:29:00     -123.862        6.359       -1.870       58.867       53.081       30.251     3465.327     2817.567      915.127        1.129        0.360      124.025       28.983        0.055      330.737       -1.699      869.283
01/09/2022  03:30:00      -60.947      -13.388        2.000       63.434       30.669       25.312     4023.911      940.610      640.679        0.475        0.280       62.400       15.175        0.059      330.731       -1.707      869.298
01/09/2022  03:31:00      -89.790       17.597       -3.940       42.346       33.680       24.103     1793.150     1134.318      580.973        0.595        0.175       91.498       18.358        0.040      330.730       -1.711      869.318
01/09/2022  03:32:00     -121.877       21.082       -8.729       43.276       40.727       29.376     1872.819     1658.709      862.945        0.988        0.220      123.687       19.968        0.026      330.732       -1.707      869.335
01/09/2022  03:33:00      -93.504        5.234       -6.087       43.925       38.050       27.077     1929.445     1447.819      733.164        0.646        0.206       93.651       16.367        0.031      330.749       -1.679      869.337
01/09/2022  03:34:00      -77.411        0.459       -4.985       50.183       30.197       29.101     2518.300      911.859      846.868        0.515        0.214       77.413       28.775        0.138      330.789       -1.611      869.343
01/09/2022  03:35:00      -83.930       10.540        3.423       50.913       34.357       23.607     2592.087     1180.393      557.300        0.575        0.216       84.589       25.490        0.091      330.799       -1.596      869.336
01/09/2022  03:36:00     -136.866       16.338       -8.594       36.874       28.260       20.135     1359.691      798.609      405.409        1.082        0.128      137.838       15.740        0.013      330.768       -1.647      869.326
01/09/2022  03:37:00     -127.305       10.203       -5.510       31.853       29.337       23.784     1014.593      860.673      565.672        0.939        0.122      127.714       16.713        0.017      330.664       -1.818      869.319
01/09/2022  03:38:00      -50.171        1.478       -4.955       57.095       24.161       20.901     3259.853      583.768      436.846        0.341        0.214       50.193       16.409        0.107      330.623       -1.886      869.308
01/09/2022  03:39:00      -61.880       17.792       -7.721       42.453       32.646       19.836     1802.264     1065.769      393.486        0.373        0.163       64.387       15.718        0.060      330.499       -2.090      869.313
01/09/2022  03:40:00      -81.401       15.695      -18.163       36.275       19.454       17.599     1315.874      378.455      309.724        0.460        0.100       82.900       12.968        0.024      330.487       -2.110      869.326
01/09/2022  03:41:00     -127.554       32.025      -13.878       25.839       21.369       19.016      667.630      456.634      361.601        0.949        0.074      131.513       15.533        0.014      330.472       -2.132      869.341
01/09/2022  03:42:00      -61.477       -8.579       -2.834       46.089       29.345       19.061     2124.156      861.131      363.327        0.360        0.167       62.072       20.434        0.108      330.504       -2.081      869.356
01/09/2022  03:43:00     -121.978       14.986      -14.361       38.832       28.738       19.536     1507.942      825.860      381.640        0.901        0.136      122.895       16.253        0.017      330.486       -2.111      869.356
01/09/2022  03:44:00     -109.621        8.011      -13.759       43.221       40.416       25.567     1868.088     1633.456      653.691        0.821        0.208      109.913       26.024        0.056      330.523       -2.051      869.346
01/09/2022  03:45:00      -92.235        6.679      -14.363       42.101       30.386       18.785     1772.474      923.305      352.891        0.590        0.152       92.476        8.464        0.008      330.522       -2.052      869.334
01/09/2022  03:46:00      -66.591        8.132      -19.530       27.785       22.363       18.257      772.024      500.096      333.330        0.324        0.080       67.086       16.004        0.057      330.501       -2.088      869.321
01/09/2022  03:47:00      -76.524       12.581      -14.154       15.341       14.818       15.865      235.351      219.573      251.690        0.346        0.035       77.551       10.744        0.019      330.514       -2.066      869.317
01/09/2022  03:48:00      -67.543       -1.540      -17.149       21.959       20.855       13.610      482.190      434.939      185.242        0.298        0.055       67.560       11.133        0.027      330.571       -1.971      869.309
01/09/2022  03:49:00      -67.235       19.297      -15.700       22.212       21.739       15.122      493.364      472.583      228.666        0.317        0.060       69.949        9.801        0.020      330.534       -2.032      869.312
01/09/2022  03:50:00      -71.063       29.573       -8.315       19.033       15.842       17.752      362.258      250.961      315.125        0.346        0.046       76.971       13.428        0.030      330.457       -2.157      869.305
01/09/2022  03:51:00      -83.110       32.108      -17.740       12.258       13.685       12.745      150.267      187.291      162.437        0.438        0.025       89.097        6.229        0.005      330.547       -2.012      869.305
01/09/2022  03:52:00      -83.781       31.660      -14.391       13.633       10.788       10.908      185.860      116.391      118.974        0.432        0.021       89.564        6.972        0.006      330.533       -2.035      869.313
01/09/2022  03:53:00     -102.893       24.253      -14.655       12.122       10.886        8.512      146.940      118.506       72.455        0.586        0.017      105.713        4.248        0.002      330.542       -2.018      869.323
01/09/2022  03:54:00      -90.127       22.779      -16.010       13.930       11.085       10.083      194.043      122.876      101.663        0.466        0.021       92.961        6.054        0.004      330.522       -2.052      869.348
01/09/2022  03:55:00      -89.657       25.182      -11.932       12.566       12.522       10.843      157.906      156.793      117.579        0.462        0.022       93.126        6.129        0.004      330.556       -1.997      869.368
01/09/2022  03:56:00      -95.630       21.889      -16.425       17.489       13.938       13.614      305.866      194.278      185.340        0.529        0.034       98.103        9.095        0.009      330.522       -2.052      869.383
01/09/2022  03:57:00      -88.578       15.449      -11.231       35.907       24.765       15.855     1289.292      613.288      251.385        0.518        0.108       89.916       15.027        0.028      330.510       -2.072      869.398
01/09/2022  03:58:00      -56.569        6.947       -7.937       23.598       17.586       13.611      556.871      309.261      185.247        0.218        0.053       56.994       11.842        0.043      330.530       -2.040      869.409
01/09/2022  03:59:00      -64.581        9.798      -11.428       30.803       20.403       14.728      948.831      416.269      216.905        0.299        0.079       65.320       11.231        0.030      330.482       -2.118      869.422
01/09/2022  04:00:00      -61.808        6.875      -10.632       34.045       20.977       14.796     1159.080      440.014      218.927        0.290        0.091       62.189       15.725        0.064      330.506       -2.076      869.430
01/09/2022  04:01:00      -87.233       21.577      -12.279       20.958       13.511       15.293      439.257      182.550      233.881        0.454        0.043       89.862       11.949        0.018      330.449       -2.171      869.421
01/09/2022  04:02:00      -54.766        9.491       -8.447       46.033       24.694       13.827     2119.082      609.809      191.184        0.304        0.146       55.583        8.385        0.023      330.487       -2.108      869.425
01/09/2022  04:03:00     -107.113       19.886      -13.719       21.213       19.927       11.857      450.004      397.089      140.584        0.652        0.049      108.943        9.231        0.007      330.474       -2.131      869.427
01/09/2022  04:04:00      -85.080        6.424      -10.164       16.943       18.811       16.194      287.054      353.838      262.238        0.414        0.045       85.323       10.582        0.015      330.492       -2.102      869.434
01/09/2022  04:05:00      -81.931       12.787       -7.376       36.418       14.832       15.589     1326.264      220.000      243.029        0.436        0.089       82.922       16.254        0.038      330.499       -2.089      869.444
01/09/2022  04:06:00      -41.179       -5.130        3.560       32.956       19.829       17.389     1086.086      393.175      302.382        0.176        0.089       41.497       16.079        0.150      330.503       -2.082      869.459
01/09/2022  04:07:00      -46.440       -0.748       -2.921       23.020       19.517       13.695      529.935      380.913      187.552        0.163        0.055       46.446       12.460        0.072      330.544       -2.017      869.472
01/09/2022  04:08:00      -46.921        2.210        0.867       30.932       23.791       17.968      956.767      566.000      322.853        0.203        0.092       46.973       16.872        0.129      330.464       -2.147      869.478
01/09/2022  04:09:00      -88.981        2.735       -4.167       33.813       21.911       16.192     1143.300      480.113      262.166        0.491        0.094       89.023       10.706        0.014      330.404       -2.244      869.476
01/09/2022  04:10:00      -57.521        2.295      -14.708       23.614       18.560       16.894      557.639      344.482      285.415        0.236        0.059       57.567       12.022        0.044      330.437       -2.191      869.470
01/09/2022  04:11:00      -18.524       -3.692       -4.105       33.943       21.029       15.862     1152.131      442.222      251.592        0.111        0.092       18.888       13.348        0.499      330.484       -2.115      869.472
01/09/2022  04:12:00      -80.837      -17.029       -5.521       38.863       26.899       25.099     1510.330      723.529      629.942        0.486        0.143       82.611       21.976        0.071      330.371       -2.299      869.488
01/09/2022  04:13:00      -76.176       -8.723       -6.124       40.504       27.674       24.896     1640.561      765.832      619.835        0.447        0.151       76.674       19.957        0.068      330.351       -2.331      869.508
01/09/2022  04:14:00      -96.764        4.200      -10.108       31.729       23.168       17.731     1006.730      536.770      314.405        0.567        0.093       96.855       16.783        0.030      330.431       -2.201      869.524
01/09/2022  04:15:00      -61.901        5.248       -9.627       41.974       29.021       22.250     1761.858      842.198      495.080        0.353        0.155       62.124       16.411        0.070      330.447       -2.175      869.533
01/09/2022  04:16:00     -118.802       19.839      -17.345       16.549       22.005       15.053      273.877      484.214      226.607        0.790        0.049      120.447        3.776        0.001      330.387       -2.271      869.534
01/09/2022  04:17:00      -72.360       17.393        1.066       36.063       28.463       19.524     1300.549      810.148      381.182        0.402        0.125       74.421        9.991        0.018      330.395       -2.261      869.536
01/09/2022  04:18:00      -28.244       -6.834       -2.586       35.218       26.402       24.113     1240.282      697.085      581.461        0.168        0.126       29.059       19.874        0.468      330.422       -2.215      869.536
01/09/2022  04:19:00     -102.487      -20.604      -10.021       40.565       32.827       24.457     1645.482     1077.611      598.141        0.717        0.166      104.538       22.355        0.046      330.401       -2.248      869.533
01/09/2022  04:20:00      -75.359       -0.708       -1.408       56.067       29.096       29.441     3143.482      846.563      866.767        0.527        0.243       75.363       33.087        0.193      330.384       -2.277      869.523
01/09/2022  04:21:00      -34.381       -3.200       -0.996       55.798       30.763       22.062     3113.372      946.342      486.729        0.287        0.227       34.530       20.369        0.348      330.410       -2.235      869.518
01/09/2022  04:22:00      -47.519       -3.206        2.501       53.781       32.093       27.909     2892.394     1029.950      778.889        0.349        0.235       47.627       21.413        0.202      330.449       -2.171      869.525
01/09/2022  04:23:00     -110.706        3.940       -0.978       52.798       28.479       22.162     2787.642      811.076      491.134        0.818        0.204      110.776       23.085        0.043      330.444       -2.180      869.545
01/09/2022  04:24:00     -100.400        0.127       -7.280       36.140       42.608       23.941     1306.116     1815.451      573.175        0.691        0.185      100.400       13.748        0.019      330.414       -2.228      869.564
01/09/2022  04:25:00      -74.039      -10.810       -1.639       71.287       28.185       31.060     5081.861      794.402      964.701        0.622        0.342       74.824       31.541        0.178      330.334       -2.360      869.586
01/09/2022  04:26:00      -69.686       -8.072       -6.178       63.823       31.607       35.107     4073.318      999.004     1232.534        0.563        0.315       70.152       38.151        0.296      330.312       -2.395      869.602
01/09/2022  04:27:00      -43.846        1.426       -0.094       42.329       27.110       20.675     1791.715      734.943      427.460        0.244        0.148       43.869       20.750        0.224      330.331       -2.366      869.612
01/09/2022  04:28:00      -93.950      -16.661       -6.909       62.521       39.809       28.004     3908.830     1584.749      784.209        0.771        0.314       95.415       24.190        0.064      330.322       -2.379      869.622
01/09/2022  04:29:00      -80.604       -0.983       -0.893       46.722       35.392       26.789     2182.990     1252.597      717.654        0.533        0.208       80.610       20.385        0.064      330.298       -2.418      869.624
01/09/2022  04:30:00     -138.716        8.204      -11.138       34.602       35.358       20.761     1197.314     1250.210      430.999        1.116        0.144      138.958       17.120        0.015      330.365       -2.309      869.623
01/09/2022  04:31:00      -84.758        8.625       -3.686       58.357       32.943       23.075     3405.557     1085.245      532.472        0.615        0.251       85.196       23.260        0.075      330.401       -2.249      869.625
01/09/2022  04:32:00      -83.663       -6.678       -4.369       41.902       36.890       27.938     1755.764     1360.908      780.520        0.548        0.195       83.929       23.591        0.079      330.427       -2.206      869.611
01/09/2022  04:33:00     -112.858       -4.948       -4.622       55.540       30.355       32.004     3084.707      921.417     1024.263        0.891        0.252      112.967       34.097        0.091      330.342       -2.346      869.593
01/09/2022  04:34:00     -136.105       -6.900       -4.957       44.203       24.024       28.696     1953.945      577.159      823.450        1.098        0.168      136.280       24.998        0.034      330.358       -2.319      869.586
01/09/2022  04:35:00      -93.633       -4.135       -4.914       37.529       23.179       22.023     1408.424      537.265      485.014        0.562        0.122       93.724       21.112        0.051      330.363       -2.311      869.585
01/09/2022  04:36:00      -54.806       -6.530      -14.910       33.461       25.536       23.019     1119.614      652.081      529.891        0.278        0.115       55.193       16.514        0.090      330.432       -2.199      869.595
01/09/2022  04:37:00      -34.173       -2.481       -6.892       50.717       25.553       21.859     2572.249      652.970      477.819        0.246        0.185       34.263       17.338        0.256      330.474       -2.131      869.614
01/09/2022  04:38:00      -97.335       10.777        0.066       43.657       30.133       21.048     1905.960      907.992      443.019        0.642        0.163       97.929       19.413        0.039      330.488       -2.107      869.637
01/09/2022  04:39:00     -124.845       11.497       -5.542       34.318       25.416       17.841     1177.751      645.983      318.298        0.895        0.107      125.373        7.902        0.004      330.486       -2.110      869.648
01/09/2022  04:40:00     -118.447        4.695       -6.842       27.183       28.487       17.244      738.895      811.482      297.367        0.797        0.092      118.540       13.580        0.013      330.467       -2.141      869.655
01/09/2022  04:41:00     -100.419        1.774       -5.862       31.438       30.715       20.688      988.336      943.400      428.012        0.624        0.118      100.435       12.316        0.015      330.473       -2.131      869.662
01/09/2022  04:42:00     -103.965        0.101       -4.815       45.309       29.209       16.878     2052.949      853.147      284.861        0.701        0.160      103.965       18.441        0.031      330.437       -2.191      869.666
01/09/2022  04:43:00     -112.542        0.988       -3.355       35.934       29.894       19.762     1291.284      893.636      390.547        0.763        0.129      112.546       15.878        0.020      330.417       -2.222      869.670
01/09/2022  04:44:00      -63.003       -2.045       -4.320       38.052       28.530       26.706     1447.966      813.965      713.195        0.348        0.149       63.036       24.040        0.145      330.335       -2.359      869.670
01/09/2022  04:45:00      -56.581       -9.113       -4.695       39.956       28.908       26.752     1596.442      835.690      715.685        0.323        0.157       57.310       21.586        0.142      330.295       -2.424      869.664
01/09/2022  04:46:00      -63.777      -13.236       -6.068       45.347       30.388       24.532     2056.357      923.414      601.803        0.393        0.179       65.136       27.108        0.173      330.291       -2.430      869.650
01/09/2022  04:47:00      -80.373      -11.332       -9.943       37.194       27.912       21.755     1383.384      779.090      473.287        0.466        0.132       81.168       19.306        0.057      330.302       -2.411      869.647
01/09/2022  04:48:00      -74.920        1.081      -11.050       49.876       29.149       23.105     2487.619      849.665      533.858        0.480        0.194       74.927       14.350        0.037      330.262       -2.479      869.642
01/09/2022  04:49:00      -57.629       -6.107       -4.714       38.681       33.813       24.868     1496.239     1143.315      618.437        0.332        0.163       57.952       24.513        0.179      330.222       -2.543      869.635
01/09/2022  04:50:00      -56.551       24.935       -6.905       54.365       44.275       32.112     2955.553     1960.244     1031.208        0.491        0.297       61.804       28.709        0.216      330.202       -2.577      869.640
01/09/2022  04:51:00      -56.057       14.427       -6.478       46.515       37.948       25.482     2163.652     1440.024      649.338        0.382        0.213       57.884       18.028        0.097      330.227       -2.536      869.647
01/09/2022  04:52:00      -52.269        4.750      -11.563       42.155       36.009       23.876     1777.038     1296.670      570.075        0.327        0.182       52.484       15.209        0.084      330.206       -2.570      869.653
01/09/2022  04:53:00      -79.016       14.581      -17.714       40.671       39.229       32.917     1654.133     1538.909     1083.520        0.552        0.214       80.350       22.194        0.076      330.221       -2.545      869.672
01/09/2022  04:54:00     -113.216        4.075      -18.206       29.887       24.885       19.354      893.228      619.261      374.574        0.753        0.094      113.289       12.243        0.012      330.242       -2.511      869.677
01/09/2022  04:55:00     -133.984       27.346      -16.674       19.526       17.426       18.010      381.255      303.665      324.363        0.999        0.050      136.746       12.326        0.008      330.246       -2.504      869.687
01/09/2022  04:56:00      -81.920       11.675       -7.627       28.285       30.404       21.933      800.015      924.398      481.053        0.456        0.110       82.748        8.993        0.012      330.327       -2.373      869.696
01/09/2022  04:57:00     -110.464       19.322       -9.891       32.361       25.542       19.153     1047.242      652.402      366.845        0.737        0.103      112.142       13.281        0.014      330.295       -2.425      869.708
01/09/2022  04:58:00     -110.880        8.674      -12.330       28.716       24.998       20.443      824.616      624.909      417.926        0.719        0.093      111.219       17.964        0.026      330.253       -2.493      869.716
01/09/2022  04:59:00      -87.806        5.368       -9.552       36.983       27.495       18.565     1367.758      755.999      344.647        0.515        0.123       87.970       16.755        0.036      330.251       -2.496      869.725
01/09/2022  05:00:00      -81.606        2.868       -1.160       65.627       23.551       23.952     4306.888      554.633      573.682        0.605        0.272       81.657       30.370        0.138      330.177       -2.618      869.734
01/09/2022  05:01:00      -52.814       -2.506      -12.619       34.723       31.336       21.993     1205.718      981.971      483.690        0.281        0.134       52.873       20.222        0.146      330.169       -2.632      869.733
01/09/2022  05:02:00      -85.152       -5.010       -2.709       47.901       23.434       25.820     2294.523      549.137      666.649        0.540        0.176       85.299       24.563        0.083      330.136       -2.685      869.745
01/09/2022  05:03:00      -44.652       -0.298       -7.850       28.988       22.771       17.096      840.317      518.496      292.279        0.185        0.083       44.653       12.621        0.080      330.178       -2.615      869.756
01/09/2022  05:04:00      -64.872       13.541      -11.541       38.184       23.106       16.267     1457.990      533.908      264.609        0.339        0.113       66.271       14.681        0.049      330.139       -2.682      869.765
01/09/2022  05:05:00      -72.419       12.349      -19.099       19.439       13.391       16.367      377.874      179.317      267.863        0.329        0.041       73.464       11.718        0.025      330.149       -2.664      869.759
01/09/2022  05:06:00      -86.299       29.525      -17.644       19.243       14.523       14.251      370.286      210.927      203.105        0.471        0.039       91.210        9.730        0.011      330.157       -2.652      869.754
01/09/2022  05:07:00      -92.410       28.376      -16.423       13.052       13.372       10.573      170.359      178.821      111.779        0.504        0.023       96.668        5.569        0.003      330.172       -2.627      869.747
01/09/2022  05:08:00      -60.965       -2.441       -8.785       41.073       28.195       21.048     1686.990      794.941      443.019        0.336        0.146       61.014       18.488        0.092      330.284       -2.441      869.749
01/09/2022  05:09:00      -54.781       -5.993       -5.795       38.831       28.005       20.106     1507.826      784.273      404.261        0.288        0.135       55.108       20.534        0.139      330.258       -2.485      869.755
01/09/2022  05:10:00      -84.321       -6.639      -17.427       42.247       22.804       23.087     1784.787      520.024      533.008        0.515        0.142       84.582       24.535        0.084      330.241       -2.512      869.757
01/09/2022  05:11:00      -42.535        5.538      -13.004       45.666       27.567       25.931     2085.368      759.940      672.415        0.276        0.176       42.895       21.213        0.245      330.229       -2.533      869.750
01/09/2022  05:12:00      -22.336       -6.312        3.025       32.617       15.493       24.546     1063.838      240.045      602.483        0.123        0.095       23.211       23.047        0.986      330.143       -2.675      869.735
01/09/2022  05:13:00      -51.064        2.077      -12.847       50.330       26.400       23.607     2533.158      696.970      557.296        0.328        0.189       51.106       25.113        0.241      330.140       -2.679      869.725
01/09/2022  05:14:00      -57.549       -5.244       -7.557       37.145       32.947       25.538     1379.726     1085.480      652.213        0.326        0.156       57.787       20.182        0.122      330.220       -2.548      869.723
01/09/2022  05:15:00      -21.074        7.735        1.074       22.349       20.021       17.144      499.468      400.856      293.925        0.085        0.060       22.448       10.109        0.203      330.218       -2.550      869.723
01/09/2022  05:16:00      -44.068       -4.717       -1.613       34.352       22.678       17.385     1180.054      514.313      302.241        0.198        0.100       44.320       13.898        0.098      330.259       -2.483      869.737
01/09/2022  05:17:00      -70.336       -0.586       -6.496       29.121       27.742       17.685      848.061      769.621      312.761        0.346        0.097       70.339       15.449        0.048      330.288       -2.434      869.763
01/09/2022  05:18:00      -87.358       -8.973       -8.603       40.656       22.806       20.245     1652.906      520.091      409.861        0.518        0.129       87.817       14.816        0.028      330.278       -2.451      869.796
01/09/2022  05:19:00      -75.134        1.522       -8.642       46.818       34.359       27.396     2191.940     1180.536      750.514        0.492        0.206       75.149       23.392        0.097      330.220       -2.546      869.829
01/09/2022  05:20:00      -57.048        8.220        0.846       51.934       38.937       40.120     2697.185     1516.125     1609.636        0.457        0.291       57.637       29.590        0.264      329.992       -2.919      869.856
01/09/2022  05:21:00     -101.223       17.231       -6.350       56.549       43.181       36.340     3197.755     1864.610     1320.602        0.848        0.319      102.679       20.812        0.041      330.019       -2.876      869.869
01/09/2022  05:22:00     -161.041      -10.371      -10.830       41.861       33.113       30.624     1752.326     1096.488      937.857        1.497        0.189      161.374       22.042        0.019      329.943       -3.001      869.876
01/09/2022  05:23:00     -157.025      -15.742      -14.993       36.088       31.800       26.550     1302.328     1011.255      704.908        1.407        0.151      157.812       18.245        0.013      330.035       -2.850      869.901
01/09/2022  05:24:00      -92.076        0.829       -1.178       82.249       33.947       31.914     6764.885     1152.384     1018.517        0.871        0.447       92.079       24.052        0.068      330.094       -2.754      869.929
01/09/2022  05:25:00      -62.376      -25.986       -9.252       49.165       54.587       32.551     2417.223     2979.705     1059.552        0.555        0.323       67.573       28.369        0.176      330.064       -2.802      869.944
01/09/2022  05:26:00     -102.054        3.359       -1.436       56.135       78.758       42.092     3151.171     6202.839     1771.755        1.078        0.556      102.110       28.371        0.077      329.961       -2.970      869.961
01/09/2022  05:27:00      -64.683       -1.916        2.546       54.345       49.344       41.103     2953.328     2434.836     1689.480        0.563        0.354       64.711       29.892        0.213      329.981       -2.938      869.973
01/09/2022  05:28:00     -120.557        3.342       11.264       76.853       42.682       37.776     5906.347     1821.740     1427.049        1.191        0.458      120.603       22.923        0.036      329.950       -2.990      869.984
01/09/2022  05:29:00     -140.457       -4.158       -9.497       84.490       46.161       31.121     7138.568     2130.819      968.517        1.503        0.512      140.518       35.705        0.065      329.866       -3.128      869.988
01/09/2022  05:30:00     -166.970       11.239      -17.006       42.262       42.308       30.866     1786.053     1789.999      952.699        1.641        0.226      167.348       15.143        0.008      329.901       -3.070      869.994
01/09/2022  05:31:00      -76.638       -7.059      -13.922       69.440       33.855       29.174     4821.948     1146.156      851.128        0.647        0.341       76.963       31.000        0.162      329.920       -3.037      870.003
01/09/2022  05:32:00     -111.885       -4.379       -6.615       36.941       37.014       27.593     1364.639     1370.005      761.394        0.804        0.175      111.971       21.793        0.038      329.907       -3.059      870.017
01/09/2022  05:33:00      -75.761       -7.516       -7.920       29.130       31.134       19.634      848.544      969.345      385.484        0.403        0.110       76.133       16.068        0.045      329.940       -3.006      870.033
01/09/2022  05:34:00      -73.394       -6.761       -8.857       51.561       34.332       27.690     2658.533     1178.717      766.753        0.506        0.230       73.705       26.441        0.129      329.954       -2.982      870.043
01/09/2022  05:35:00      -80.211       -4.263      -11.553       55.085       38.238       23.861     3034.345     1462.107      569.369        0.582        0.253       80.324       20.414        0.065      329.931       -3.020      870.062
01/09/2022  05:36:00      -32.328        2.867       -5.831       36.147       26.397       24.433     1306.628      696.802      596.974        0.184        0.130       32.455       18.755        0.334      329.927       -3.026      870.081
01/09/2022  05:37:00      -22.671      -12.195        6.729       33.782       25.480       17.663     1141.244      649.240      311.966        0.140        0.105       25.743        5.933        0.053      329.904       -3.064      870.086
01/09/2022  05:38:00      -22.585       -5.330        6.761       26.242       22.125       17.086      688.640      489.520      291.928        0.103        0.074       23.205       13.679        0.347      329.901       -3.068      870.094
01/09/2022  05:39:00        0.810        1.033       -0.936       38.023       20.427       21.016     1445.756      417.246      441.652        0.115        0.115        1.313       21.428      266.470      329.940       -3.005      870.104
01/09/2022  05:40:00       -8.422       -9.780        1.118       18.573       13.397       11.168      344.950      179.487      124.720        0.041        0.032       12.907        6.533        0.256      329.937       -3.010      870.113
01/09/2022  05:41:00      -31.870       25.663        6.164       27.000       16.504       18.239      729.011      272.376      332.649        0.152        0.067       40.918       17.112        0.175      329.761       -3.299      870.134
01/09/2022  05:42:00      -75.438        7.231       -2.394       32.768       25.123       15.208     1073.759      631.188      231.291        0.384        0.097       75.784       14.443        0.036      329.802       -3.233      870.150
01/09/2022  05:43:00      -61.894       18.697      -11.775       25.632       24.981       17.023      657.003      624.048      289.799        0.294        0.079       64.657       11.632        0.032      329.772       -3.281      870.176
01/09/2022  05:44:00      -69.934       14.993       -6.896       32.473       25.377       16.285     1054.478      643.990      265.209        0.356        0.098       71.523       11.881        0.028      329.694       -3.408      870.194
01/09/2022  05:45:00      -35.401       15.597        4.883       39.640       21.910       22.636     1571.353      480.030      512.397        0.204        0.128       38.684       19.009        0.241      329.626       -3.518      870.209
01/09/2022  05:46:00     -106.322       14.043       -7.329       40.592       31.396       20.002     1647.718      985.680      400.089        0.729        0.152      107.246        6.568        0.004      329.765       -3.293      870.215
01/09/2022  05:47:00      -75.870       -4.290        0.702       49.037       41.118       23.888     2404.623     1690.655      570.624        0.522        0.233       75.992       18.011        0.056      329.845       -3.161      870.211
01/09/2022  05:48:00      -83.882      -10.108       -0.289       39.935       32.461       27.691     1594.824     1053.691      766.813        0.528        0.171       84.489       21.567        0.065      329.787       -3.256      870.228
01/09/2022  05:49:00      -47.860       -2.984       -1.541       58.978       43.599       32.394     3478.353     1900.854     1049.346        0.436        0.321       47.953       30.402        0.402      329.730       -3.350      870.246
01/09/2022  05:50:00      -87.786      -14.312        1.309       35.585       31.401       26.393     1266.317      986.046      696.599        0.543        0.147       88.945       19.227        0.047      329.691       -3.412      870.259
01/09/2022  05:51:00      -57.442        0.807       -6.124       44.384       34.429       27.452     1969.901     1185.367      753.615        0.362        0.195       57.448       14.603        0.065      329.735       -3.340      870.263
01/09/2022  05:52:00      -25.461      -12.632        6.917       43.660       29.791       23.495     1906.209      887.481      552.019        0.210        0.167       28.422       21.610        0.578      329.756       -3.308      870.271
01/09/2022  05:53:00      -53.221       -3.822       -3.668       54.072       26.547       25.753     2923.791      704.743      663.206        0.358        0.215       53.358       23.097        0.187      329.827       -3.193      870.270
01/09/2022  05:54:00        2.985       -6.579       -1.130       46.482       24.549       20.732     2160.572      602.671      429.816        0.162        0.160        7.225       10.445        2.090      329.878       -3.107      870.272
01/09/2022  05:55:00       -7.189       -2.548       -7.990       33.027       22.156       15.704     1090.771      490.894      246.620        0.097        0.091        7.627       15.269        4.008      329.838       -3.172      870.293
01/09/2022  05:56:00      -97.414       34.483       -6.116       27.807       14.665       16.806      773.235      215.048      282.447        0.599        0.064      103.337       12.202        0.014      329.739       -3.334      870.314
01/09/2022  05:57:00      -80.760       23.260       -8.918       25.421       23.130       14.524      646.236      534.976      210.951        0.427        0.070       84.043        9.445        0.013      329.787       -3.257      870.328
01/09/2022  05:58:00     -121.269       35.719       -6.480       45.915       35.454       26.522     2108.193     1256.953      703.442        1.005        0.203      126.420       21.654        0.029      329.796       -3.240      870.340
01/09/2022  05:59:00      -12.644        2.197        0.282       32.175       22.242       20.781     1035.237      494.688      431.855        0.106        0.098       12.833        9.798        0.583      329.871       -3.118      870.342
01/09/2022  06:00:00       13.081      -12.486       -5.783       33.883       23.921       25.435     1148.089      572.213      646.946        0.136        0.118       18.084       22.429        1.538      329.870       -3.119      870.356
01/09/2022  06:01:00       19.973       -5.574      -14.450       12.821       23.770       17.771      164.368      565.034      315.791        0.084        0.052       20.736        8.307        0.160      329.861       -3.134      870.371
01/09/2022  06:02:00      -50.003        7.137       -2.801       48.456       25.756       18.022     2347.969      663.368      324.791        0.295        0.167       50.510       22.939        0.206      329.879       -3.105      870.386
01/09/2022  06:03:00       11.105        0.635        4.644       17.606       23.503       14.768      309.961      552.368      218.079        0.061        0.054       11.123        5.043        0.206      329.857       -3.141      870.398
01/09/2022  06:04:00       -9.337      -16.221       -4.331       27.482       21.515       19.474      755.276      462.886      379.220        0.098        0.080       18.716       13.481        0.519      329.894       -3.081      870.418
01/09/2022  06:05:00      -17.603       -4.920       -8.820       21.374       35.831       15.147      456.862     1283.860      229.426        0.119        0.099       18.278        9.378        0.263      329.938       -3.007      870.443
01/09/2022  06:06:00      -55.811      -25.420      -18.309       27.536       29.068       18.987      758.225      844.964      360.488        0.303        0.098       61.327       16.984        0.077      329.907       -3.060      870.463
01/09/2022  06:07:00      -36.318       -1.208       -1.291       31.102       28.397       24.906      967.360      806.370      620.326        0.186        0.120       36.338       23.474        0.417      329.912       -3.051      870.482
01/09/2022  06:08:00      -31.499       -0.476       -4.451       42.850       23.133       23.795     1836.114      535.127      566.196        0.197        0.147       31.503       24.310        0.595      329.881       -3.103      870.498
01/09/2022  06:09:00      -39.739      -20.632       -0.210       38.460       35.773       21.646     1479.190     1279.741      468.562        0.262        0.161       44.776       19.891        0.197      329.946       -2.996      870.514
01/09/2022  06:10:00      -83.240      -15.384       -6.813       44.813       32.916       19.373     2008.206     1083.469      375.330        0.534        0.173       84.650       16.400        0.038      329.860       -3.137      870.535
01/09/2022  06:11:00      -79.212      -10.955       -9.352       30.987       29.659       20.817      960.182      879.676      433.352        0.438        0.114       79.966       18.728        0.055      329.854       -3.147      870.552
01/09/2022  06:12:00     -130.510      -26.380      -17.901       37.420       25.058       20.751     1400.294      627.918      430.586        1.025        0.123      133.149       19.161        0.021      329.796       -3.242      870.561
01/09/2022  06:13:00      -97.952      -16.297      -10.399       36.440       34.640       24.234     1327.866     1199.927      587.282        0.654        0.156       99.298       13.991        0.020      329.809       -3.219      870.570
01/09/2022  06:14:00     -158.869       -8.021      -30.934       31.745       26.699       21.676     1007.750      712.835      469.864        1.423        0.110      159.071       14.422        0.008      329.748       -3.320      870.571
01/09/2022  06:15:00     -111.660       -9.379       -9.269       50.004       34.584       25.627     2500.444     1196.030      656.727        0.850        0.218      112.053       22.528        0.040      329.751       -3.316      870.579
01/09/2022  06:16:00      -68.601      -10.450       -2.220       57.895       30.690       25.742     3351.776      941.901      662.626        0.489        0.248       69.393       21.256        0.094      329.777       -3.272      870.591
01/09/2022  06:17:00      -98.356       -1.408       -9.450       67.551       38.890       34.578     4563.074     1512.442     1195.670        0.852        0.364       98.366       23.069        0.055      329.718       -3.369      870.606
01/09/2022  06:18:00      -54.210      -21.739       -5.566       50.149       38.826       32.874     2514.941     1507.434     1080.681        0.427        0.255       58.407       25.913        0.197      329.687       -3.420      870.616
01/09/2022  06:19:00      -16.552      -12.474       -7.131       39.569       37.239       23.700     1565.698     1386.732      561.678        0.200        0.176       20.726       19.374        0.874      329.690       -3.414      870.623
01/09/2022  06:20:00      -56.674        1.491        5.036       53.471       47.729       26.826     2859.158     2278.026      719.631        0.455        0.293       56.693       17.054        0.090      329.641       -3.494      870.624
01/09/2022  06:21:00      -36.920       -8.658        4.634       52.519       38.246       34.808     2758.284     1462.735     1211.630        0.345        0.272       37.922       25.321        0.446      329.609       -3.546      870.628
01/09/2022  06:22:00     -113.196        7.274       -9.755       83.344       38.802       31.022     6946.277     1505.591      962.377        1.119        0.471      113.429       13.982        0.015      329.495       -3.733      870.638
01/09/2022  06:23:00     -162.325       10.618       -7.862       36.167       33.737       27.738     1308.067     1138.176      769.421        1.487        0.161      162.672       18.547        0.013      329.497       -3.731      870.661
01/09/2022  06:24:00      -62.549       -9.985       -5.995       52.594       52.467       43.653     2766.139     2752.743     1905.583        0.573        0.371       63.341       34.201        0.292      329.519       -3.694      870.695
01/09/2022  06:25:00      -58.372       -1.343        1.462       70.858       44.038       31.141     5020.829     1939.333      969.770        0.567        0.396       58.387       20.968        0.129      329.510       -3.709      870.723
01/09/2022  06:26:00     -163.637      -16.639      -10.162       50.776       47.498       33.685     2578.225     2256.016     1134.668        1.656        0.298      164.481       19.725        0.014      329.454       -3.802      870.739
01/09/2022  06:27:00     -155.046       -7.546      -10.032       61.628       50.759       42.861     3797.983     2576.511     1837.092        1.620        0.411      155.230       43.207        0.077      329.384       -3.916      870.746
01/09/2022  06:28:00     -148.624        7.146       -0.386       50.867       53.173       34.002     2587.425     2827.403     1156.132        1.435        0.329      148.796       22.565        0.023      329.439       -3.826      870.752
01/09/2022  06:29:00     -141.632      -10.444       -8.143       76.293       39.532       31.852     5820.563     1562.807     1014.525        1.431        0.420      142.016       32.646        0.053      329.435       -3.832      870.746
01/09/2022  06:30:00     -115.247      -16.722       -7.458       56.666       43.598       32.887     3211.009     1900.796     1081.577        0.990        0.310      116.454       33.770        0.084      329.467       -3.780      870.771
01/09/2022  06:31:00      -86.815      -27.762       -5.681       45.871       35.339       26.463     2104.141     1248.816      700.288        0.620        0.203       91.146       28.020        0.095      329.471       -3.774      870.800
01/09/2022  06:32:00      -51.353        6.020       -4.433       42.875       34.600       21.986     1838.227     1197.133      483.368        0.311        0.176       51.705       20.488        0.157      329.473       -3.772      870.824
01/09/2022  06:33:00     -118.220      -16.564      -12.198       31.847       38.381       26.207     1014.247     1473.071      686.808        0.879        0.159      119.375       19.197        0.026      329.451       -3.808      870.840
01/09/2022  06:34:00      -70.477      -12.790       -5.332       42.794       39.348       27.421     1831.365     1548.256      751.922        0.464        0.207       71.628       22.843        0.102      329.550       -3.644      870.858
01/09/2022  06:35:00      -38.599        0.712        1.766       31.906       31.470       21.918     1017.974      990.335      480.415        0.199        0.124       38.605       16.172        0.175      329.484       -3.753      870.865
01/09/2022  06:36:00      -41.483      -10.944       -4.627       41.819       28.300       22.102     1748.863      800.869      488.499        0.245        0.152       42.902       21.988        0.263      329.461       -3.789      870.864
01/09/2022  06:37:00      -29.162       -0.476       -3.792       43.181       34.285       27.516     1864.603     1175.436      757.157        0.233        0.190       29.166       17.117        0.344      329.464       -3.786      870.875
01/09/2022  06:38:00      -59.326       18.883        1.572       48.937       39.622       21.735     2394.833     1569.886      472.418        0.416        0.222       62.259       22.058        0.126      329.406       -3.879      870.881
01/09/2022  06:39:00      -78.931       17.902       -0.283       48.266       34.697       23.912     2329.647     1203.883      571.780        0.533        0.205       80.936       21.109        0.068      329.362       -3.951      870.882
01/09/2022  06:40:00      -92.334       24.949       -4.441       58.743       38.200       23.607     3450.721     1459.255      557.301        0.732        0.273       95.645       23.846        0.062      329.303       -4.047      870.893
01/09/2022  06:41:00     -112.066       22.579       -4.902       45.926       35.309       28.406     2109.242     1246.755      806.895        0.863        0.208      114.318       25.491        0.050      329.271       -4.100      870.899
01/09/2022  06:42:00      -89.255       13.802        6.288       65.052       38.750       25.886     4231.736     1501.541      670.079        0.730        0.320       90.316       13.187        0.021      329.338       -3.990      870.915
01/09/2022  06:43:00      -48.569       -0.773       -7.852       61.801       33.430       24.754     3819.318     1117.587      612.752        0.398        0.277       48.575       29.240        0.362      329.415       -3.865      870.928
01/09/2022  06:44:00     -124.200       -0.332       -9.160       50.519       32.701       24.580     2552.127     1069.378      604.167        0.987        0.211      124.201       23.007        0.034      329.366       -3.944      870.942
01/09/2022  06:45:00      -95.483       12.909       -4.352       65.820       28.295       24.641     4332.283      800.604      607.188        0.752        0.287       96.351       28.773        0.089      329.335       -3.994      870.947
01/09/2022  06:46:00      -92.442       21.663        3.319       44.528       39.233       25.887     1982.782     1539.262      670.114        0.661        0.210       94.947       22.659        0.057      329.337       -3.992      870.936
01/09/2022  06:47:00      -79.275       24.527        6.639       53.687       33.270       24.071     2882.246     1106.879      579.419        0.575        0.228       82.983       17.904        0.047      329.334       -3.996      870.927
01/09/2022  06:48:00      -48.408        7.407       -2.339       68.161       39.459       30.343     4645.941     1556.993      920.669        0.476        0.356       48.971       23.444        0.229      329.335       -3.995      870.914
01/09/2022  06:49:00      -80.198       -2.441        0.163       52.230       47.121       33.755     2727.922     2220.368     1139.406        0.626        0.304       80.235       31.564        0.155      329.376       -3.929      870.912
01/09/2022  06:50:00     -124.367       13.360      -14.867       58.135       39.266       31.821     3379.710     1541.854     1012.566        1.090        0.297      125.083       20.948        0.028      329.357       -3.959      870.903
01/09/2022  06:51:00      -84.933       11.971      -13.011       53.627       32.786       22.575     2875.894     1074.910      509.648        0.599        0.223       85.773       20.669        0.058      329.327       -4.008      870.900
01/09/2022  06:52:00      -59.440       15.643       -3.739       46.394       35.210       22.228     2152.381     1239.717      494.099        0.384        0.194       61.464       14.774        0.058      329.318       -4.022      870.905
01/09/2022  06:53:00      -57.982       23.661       -6.119       35.177       35.398       17.117     1237.393     1252.998      292.984        0.337        0.139       62.624       11.105        0.031      329.192       -4.229      870.920
01/09/2022  06:54:00      -78.283       17.749       -9.108       48.353       35.200       22.178     2338.019     1239.049      491.882        0.530        0.203       80.270       20.728        0.067      329.300       -4.053      870.928
01/09/2022  06:55:00      -67.935      -13.156       -5.888       31.594       29.610       24.582      998.207      876.734      604.268        0.365        0.124       69.197       20.348        0.086      329.397       -3.894      870.946
01/09/2022  06:56:00      -29.048       -3.560       -9.819       45.145       28.436       24.319     2038.112      808.611      591.431        0.219        0.172       29.265       22.996        0.617      329.439       -3.827      870.960
01/09/2022  06:57:00      -22.719       -3.734       -5.338       36.303       31.257       23.079     1317.931      977.022      532.660        0.169        0.141       23.024       11.844        0.265      329.471       -3.774      870.978
01/09/2022  06:58:00      -42.789       13.948       -1.248       43.670       26.846       20.626     1907.041      720.695      425.450        0.254        0.153       45.005       21.323        0.224      329.401       -3.889      870.998
01/09/2022  06:59:00      -52.785      -12.402       -1.768       42.081       31.726       34.371     1770.813     1006.552     1181.351        0.345        0.198       54.222       29.554        0.297      329.363       -3.949      871.012
01/09/2022  07:00:00      -31.631       -4.040        6.103       57.327       33.310       33.569     3286.429     1109.562     1126.904        0.329        0.276       31.888       31.316        0.964      329.435       -3.834      871.016
01/09/2022  07:01:00      -46.905        9.667       -3.292       56.673       29.633       31.039     3211.802      878.127      963.396        0.368        0.253       47.891       32.498        0.460      329.504       -3.719      871.027
01/09/2022  07:02:00     -110.948      -20.199      -14.353       40.340       28.550       25.493     1627.313      815.115      649.874        0.801        0.155      112.771       17.224        0.023      329.402       -3.885      871.039
01/09/2022  07:03:00      -79.692       -2.911       -9.211       43.548       28.233       21.750     1896.458      797.111      473.058        0.480        0.158       79.745       19.697        0.061      329.443       -3.818      871.038
01/09/2022  07:04:00      -38.301       -3.067       -7.480       37.987       28.989       17.351     1443.027      840.386      301.043        0.206        0.129       38.424       10.098        0.069      329.495       -3.733      871.046
01/09/2022  07:05:00      -38.981       17.402       -3.248       49.008       36.304       19.061     2401.797     1317.992      363.324        0.296        0.204       42.689       13.791        0.104      329.391       -3.903      871.057
01/09/2022  07:06:00      -85.469       16.929       -7.241       36.743       25.671       23.070     1350.069      658.993      532.210        0.509        0.127       87.130       18.819        0.047      329.389       -3.906      871.069
01/09/2022  07:07:00      -84.274        5.242        0.869       54.131       26.116       25.414     2930.146      682.039      645.896        0.569        0.213       84.437       21.873        0.067      329.360       -3.954      871.076
01/09/2022  07:08:00       -2.538       -3.678       -6.831       55.508       34.450       24.865     3081.125     1186.769      618.264        0.248        0.244        4.468       21.558       23.277      329.322       -4.015      871.090
01/09/2022  07:09:00      -24.168       13.048       -9.432       44.743       24.145       17.520     2001.972      582.997      306.964        0.187        0.145       27.465       15.951        0.337      329.327       -4.009      871.094
01/09/2022  07:10:00      -33.038        7.254       -5.247       28.778       24.730       16.091      828.183      611.549      258.932        0.143        0.085       33.825       12.984        0.147      329.325       -4.012      871.091
01/09/2022  07:11:00      -41.843        7.256       -6.603       32.828       22.994       19.966     1077.657      528.734      398.634        0.193        0.100       42.468       18.535        0.190      329.374       -3.931      871.086
01/09/2022  07:12:00      -59.142       11.712      -16.020       22.351       15.152       15.606      499.585      229.598      243.535        0.243        0.049       60.291        9.238        0.023      329.433       -3.836      871.085
01/09/2022  07:13:00      -72.622       -4.760      -22.010       40.475       27.475       16.862     1638.208      754.885      284.316        0.423        0.134       72.778       17.361        0.057      329.471       -3.773      871.093
01/09/2022  07:14:00      -47.224       -0.946       -6.504       46.012       28.142       22.132     2117.091      791.995      489.807        0.284        0.170       47.233       25.706        0.296      329.459       -3.792      871.097
01/09/2022  07:15:00      -19.535        0.874       -1.485       43.885       24.448       27.846     1925.926      597.704      775.394        0.184        0.165       19.555       27.101        1.921      329.430       -3.840      871.106
01/09/2022  07:16:00      -21.680       -7.369        0.118       31.569       30.932       23.826      996.604      956.766      567.691        0.152        0.126       22.898       15.224        0.442      329.501       -3.724      871.114
01/09/2022  07:17:00      -28.164       -3.448       -9.871       29.869       23.496       16.938      892.129      552.040      286.889        0.132        0.087       28.375        8.951        0.100      329.488       -3.745      871.127
01/09/2022  07:18:00      -26.785      -10.292       -7.569       32.166       21.472       17.662     1034.672      461.027      311.946        0.134        0.090       28.694       16.942        0.349      329.479       -3.761      871.155
01/09/2022  07:19:00      -70.588       11.492      -16.038       20.974       18.405       21.457      439.916      338.747      460.401        0.331        0.062       71.517       14.286        0.040      329.469       -3.775      871.179
01/09/2022  07:20:00      -48.760       10.284       -0.346       50.809       21.579       17.811     2581.592      465.635      317.240        0.292        0.168       49.832       18.904        0.144      329.435       -3.832      871.188
01/09/2022  07:21:00       -0.646      -24.266       -2.801       25.684       25.121       26.815      659.684      631.089      719.047        0.130        0.100       24.274        9.273        0.146      329.592       -3.575      871.193
01/09/2022  07:22:00      -73.721       -7.179       -9.037       26.988       17.761       16.358      728.328      315.454      267.590        0.344        0.066       74.070       12.383        0.028      329.512       -3.705      871.194
01/09/2022  07:23:00      -35.831      -14.196       -7.766       28.314       22.882       21.293      801.686      523.590      453.378        0.166        0.089       38.540       18.199        0.223      329.474       -3.768      871.197
01/09/2022  07:24:00      -31.155        3.062       -1.876       37.389       28.518       17.881     1397.970      813.256      319.740        0.176        0.127       31.305        8.603        0.076      329.537       -3.666      871.210
01/09/2022  07:25:00      -26.789      -10.989       -3.636       28.867       22.534       15.918      833.286      507.778      253.369        0.122        0.080       28.956        8.753        0.091      329.543       -3.654      871.232
01/09/2022  07:26:00      -35.653       -9.397        3.741       43.643       22.451       20.039     1904.753      504.029      401.580        0.209        0.141       36.870       20.017        0.295      329.489       -3.744      871.254
01/09/2022  07:27:00      -61.119       -1.456      -14.298       19.691       22.354       16.183      387.728      499.687      261.875        0.255        0.057       61.137       11.103        0.033      329.450       -3.808      871.272
01/09/2022  07:28:00      -51.923        4.043       -1.849       28.065       21.141       17.677      787.616      446.945      312.488        0.213        0.077       52.080       14.422        0.077      329.392       -3.902      871.267
01/09/2022  07:29:00      -35.522        5.805        2.778       24.315       30.806       21.113      591.225      949.007      445.773        0.164        0.099       35.994       14.114        0.154      329.353       -3.965      871.263
01/09/2022  07:30:00      -31.987       -0.624       -3.436       46.365       26.925       25.535     2149.692      724.972      652.040        0.228        0.176       31.994       25.855        0.653      329.307       -4.040      871.258
01/09/2022  07:31:00      -85.525       -9.460      -11.712       29.508       23.803       25.977      870.707      566.586      674.798        0.483        0.106       86.046       22.311        0.067      329.363       -3.949      871.253
01/09/2022  07:32:00      -63.783       13.077        1.624       44.975       32.356       25.200     2022.730     1046.938      635.052        0.397        0.185       65.110       22.093        0.115      329.450       -3.808      871.256
01/09/2022  07:33:00      -69.729        4.552        2.390       50.374       34.796       21.831     2537.576     1210.755      476.577        0.456        0.211       69.877       19.779        0.080      329.477       -3.763      871.268
01/09/2022  07:34:00      -44.208        2.059       -3.751       34.876       29.081       18.786     1216.329      845.685      352.923        0.219        0.121       44.256       11.573        0.068      329.536       -3.666      871.294
01/09/2022  07:35:00      -46.382      -13.600       -9.612       40.332       34.749       23.882     1626.682     1207.460      570.346        0.292        0.170       48.335       14.710        0.093      329.497       -3.729      871.302
01/09/2022  07:36:00      -53.274       -5.177       -6.040       46.307       23.007       19.854     2144.297      529.307      394.200        0.298        0.153       53.525       15.314        0.082      329.462       -3.787      871.304
01/09/2022  07:37:00      -52.403       10.506        6.839       43.571       34.447       23.175     1898.449     1186.581      537.095        0.326        0.181       53.445       22.873        0.183      329.448       -3.812      871.302
01/09/2022  07:38:00      -32.273        0.585        4.117       33.561       27.369       19.183     1126.344      749.083      368.002        0.165        0.112       32.279       20.274        0.395      329.491       -3.741      871.308
01/09/2022  07:39:00      -82.109       20.405       -9.659       41.686       25.622       19.433     1737.693      656.491      377.644        0.501        0.139       84.606       16.363        0.037      329.431       -3.839      871.314
01/09/2022  07:40:00      -49.758        6.424        0.004       22.761       20.765       19.319      518.059      431.196      373.210        0.192        0.066       50.171       11.660        0.054      329.510       -3.711      871.329
01/09/2022  07:41:00      -32.546        0.254       -4.381       32.253       23.039       17.832     1040.252      530.815      317.964        0.148        0.094       32.547        8.361        0.066      329.611       -3.543      871.339
01/09/2022  07:42:00      -63.546        0.131       -7.049       37.260       24.233       18.172     1388.290      587.225      330.215        0.320        0.115       63.546       18.716        0.087      329.537       -3.666      871.341
01/09/2022  07:43:00      -72.140       -2.461       -4.119       31.040       23.769       17.749      963.465      564.964      315.021        0.354        0.092       72.182       18.238        0.064      329.525       -3.685      871.346
01/09/2022  07:44:00      -62.034       14.688       -5.527       36.829       26.132       16.807     1356.400      682.855      282.459        0.321        0.116       63.749       16.216        0.065      329.569       -3.612      871.338
01/09/2022  07:45:00      -64.938       12.435      -16.273       42.815       24.887       16.193     1833.145      619.366      262.219        0.368        0.136       66.118       21.413        0.105      329.566       -3.618      871.337
01/09/2022  07:46:00      -33.371        0.635       -4.688       34.164       19.462       17.902     1167.147      378.752      320.466        0.150        0.093       33.377       17.761        0.283      329.562       -3.623      871.341
01/09/2022  07:47:00      -29.718       -3.382       -9.317       33.975       28.884       23.343     1154.276      834.303      544.899        0.176        0.127       29.910       18.253        0.372      329.582       -3.590      871.354
01/09/2022  07:48:00      -41.512      -17.826        0.727       42.449       23.302       16.529     1801.930      542.971      273.199        0.233        0.131       45.178       17.950        0.158      329.589       -3.580      871.379
01/09/2022  07:49:00      -48.024        5.411       -3.948       33.350       25.485       19.118     1112.197      649.482      365.509        0.224        0.106       48.328       16.752        0.120      329.541       -3.658      871.392
01/09/2022  07:50:00       10.845       -4.079       -2.758       28.660       22.590       24.854      821.408      510.299      617.740        0.105        0.097       11.587       15.187        1.718      329.520       -3.692      871.406
01/09/2022  07:51:00      -62.025       -7.833      -17.615       42.029       21.796       24.721     1766.472      475.086      611.123        0.354        0.143       62.518       24.137        0.149      329.461       -3.790      871.420
01/09/2022  07:52:00      -30.613       -3.066       -4.015       24.968       24.027       24.996      623.414      577.311      624.821        0.139        0.091       30.766       16.753        0.297      329.585       -3.588      871.445
01/09/2022  07:53:00      -65.764       -4.961       -7.249       21.426       18.209       13.520      459.093      331.551      182.789        0.269        0.049       65.950       10.680        0.026      329.535       -3.668      871.474
01/09/2022  07:54:00      -34.315        5.140        2.605       23.169       16.624       15.456      536.786      276.355      238.902        0.113        0.053       34.698        6.116        0.031      329.654       -3.473      871.504
01/09/2022  07:55:00       -1.793       -1.558       -2.892       19.161       11.266       17.434      367.150      126.932      303.927        0.041        0.040        2.375        9.335       15.449      329.738       -3.336      871.533
01/09/2022  07:56:00        1.114        2.921        4.282       13.872        9.976       10.276      192.443       99.516      105.591        0.021        0.020        3.127        4.602        2.166      329.739       -3.334      871.560
01/09/2022  07:57:00      -47.983       10.298       -3.179       33.310       16.547       18.340     1109.558      273.814      336.361        0.207        0.086       49.075       14.219        0.084      329.631       -3.512      871.580
01/09/2022  07:58:00      -24.955      -11.948       -3.834       33.356       19.050       19.009     1112.626      362.893      361.351        0.131        0.092       27.668       15.845        0.328      329.712       -3.379      871.594
01/09/2022  07:59:00      -36.077      -27.680      -17.481       29.202       20.295       13.778      852.764      411.876      189.832        0.191        0.073       45.473        8.008        0.031      329.725       -3.355      871.613
01/09/2022  08:00:00      -58.600        9.642        3.499       40.038       26.020       21.953     1603.074      677.036      481.940        0.315        0.138       59.388       22.265        0.141      329.700       -3.398      871.637
01/09/2022  08:01:00      -67.174        2.756       -2.523       25.351       17.448       15.424      642.657      304.449      237.886        0.286        0.059       67.230       13.074        0.038      329.668       -3.450      871.670
01/09/2022  08:02:00      -66.119        7.121      -10.910       45.519       32.645       26.497     2071.995     1065.720      702.071        0.419        0.192       66.502       13.867        0.043      329.684       -3.424      871.707
01/09/2022  08:03:00     -100.019       -9.572       -3.490       42.172       23.778       22.648     1778.505      565.377      512.934        0.648        0.143      100.476       19.929        0.039      329.688       -3.419      871.729
01/09/2022  08:04:00      -65.164      -21.561       -0.312       58.954       23.713       20.207     3475.586      562.327      408.328        0.458        0.222       68.638       16.665        0.059      329.798       -3.236      871.761
01/09/2022  08:05:00     -103.679      -19.304      -20.265       48.646       30.187       23.590     2366.399      911.242      556.483        0.768        0.192      105.461       25.854        0.060      329.663       -3.460      871.778
01/09/2022  08:06:00     -129.378       -8.293      -11.091       48.212       31.313       31.629     2324.381      980.474     1000.369        1.062        0.215      129.644       30.586        0.056      329.661       -3.462      871.790
01/09/2022  08:07:00     -106.850       -5.911       -7.664       42.161       29.604       22.523     1777.579      876.369      507.263        0.734        0.158      107.013       18.791        0.031      329.643       -3.490      871.809
01/09/2022  08:08:00     -107.563       -3.017       -6.604       34.955       24.678       25.328     1221.818      608.994      641.495        0.705        0.124      107.605       23.505        0.048      329.647       -3.486      871.826
01/09/2022  08:09:00      -72.237      -16.037       -3.960       33.028       23.422       21.188     1090.827      548.598      448.935        0.379        0.104       73.996       18.452        0.062      329.712       -3.379      871.839
01/09/2022  08:10:00      -98.844        6.703       -9.804       52.822       28.830       17.202     2790.132      831.140      295.911        0.691        0.196       99.071       11.070        0.012      329.659       -3.466      871.847
01/09/2022  08:11:00      -44.167        3.605        1.502       48.328       31.386       24.415     2335.554      985.084      596.108        0.294        0.196       44.314       19.469        0.193      329.750       -3.316      871.864
01/09/2022  08:12:00      -70.235        9.477       -1.170       39.739       35.171       28.785     1579.180     1237.025      828.563        0.433        0.182       70.872       21.878        0.095      329.595       -3.570      871.879
01/09/2022  08:13:00      -51.313       26.610       -3.368       37.704       23.679       23.427     1421.570      560.699      548.834        0.294        0.127       57.803       19.299        0.111      329.572       -3.608      871.885
01/09/2022  08:14:00      -90.346       29.572       -7.780       36.951       36.490       19.911     1365.357     1331.520      396.440        0.609        0.155       95.063       15.504        0.027      329.558       -3.631      871.893
01/09/2022  08:15:00      -75.414       31.120       -4.869       42.965       33.411       21.334     1846.032     1116.292      455.152        0.505        0.171       81.583       23.336        0.082      329.577       -3.599      871.897
01/09/2022  08:16:00      -67.673       -2.814       -5.001       36.952       31.420       20.208     1365.481      987.197      408.352        0.369        0.138       67.731       12.222        0.033      329.659       -3.464      871.896
01/09/2022  08:17:00     -118.682       35.611       -4.943       40.104       27.559       16.357     1608.338      759.482      267.550        0.901        0.132      123.909       13.680        0.012      329.713       -3.376      871.888
01/09/2022  08:18:00      -80.898       20.374       -2.898       48.830       27.270       20.280     2384.388      743.648      411.260        0.525        0.177       83.424       20.941        0.063      329.867       -3.125      871.886
01/09/2022  08:19:00      -86.748       14.945        1.496       40.723       22.658       22.405     1658.373      513.372      502.004        0.521        0.134       88.026       20.005        0.052      329.787       -3.256      871.898
01/09/2022  08:20:00      -67.251        5.937       -6.236       50.463       33.254       21.795     2546.473     1105.799      475.032        0.436        0.206       67.513       25.159        0.139      329.881       -3.103      871.926
01/09/2022  08:21:00       -7.725        0.111        1.293       18.086       13.567       12.519      327.114      184.068      156.725        0.036        0.033        7.726        9.837        1.621      330.176       -2.620      871.955
01/09/2022  08:22:00      -53.346        1.768      -14.674       22.816       17.075       14.071      520.559      291.552      197.994        0.204        0.051       53.376       12.622        0.056      330.025       -2.866      871.992
01/09/2022  08:23:00      -36.459       -2.589      -11.073       27.973       13.574       15.221      782.476      184.243      231.680        0.133        0.060       36.551       13.697        0.140      330.206       -2.572      872.005
01/09/2022  08:24:00       -8.569        7.211        1.701       14.777       22.248       14.610      218.359      494.979      213.451        0.053        0.046       11.200       10.485        0.877      330.208       -2.566      872.018
01/09/2022  08:25:00      -11.468       -2.141       -7.838       19.602       18.659       19.322      384.229      348.141      373.333        0.065        0.055       11.666       15.060        1.666      330.226       -2.538      872.021
01/09/2022  08:26:00      -18.277       -2.030       -3.143       28.070       26.892       20.806      787.925      723.170      432.875        0.115        0.097       18.390       17.003        0.855      330.325       -2.375      872.024
01/09/2022  08:27:00       -8.422        9.258        0.452       23.705       14.194       18.691      561.930      201.456      349.343        0.063        0.056       12.515        9.327        0.555      330.407       -2.239      872.035
01/09/2022  08:28:00      -21.412       -4.942       -9.335       28.014       12.652       14.697      784.768      160.065      215.991        0.087        0.058       21.975       11.143        0.257      330.325       -2.373      872.047
01/09/2022  08:29:00      -17.315       -9.035      -11.069       27.197       15.468       11.901      739.683      239.254      141.646        0.081        0.056       19.530       10.594        0.294      330.448       -2.174      872.064
01/09/2022  08:30:00      -28.488      -17.138      -12.181       13.482       10.236        9.528      181.778      104.772       90.777        0.082        0.019       33.245        5.419        0.027      330.532       -2.035      872.084
01/09/2022  08:31:00      -15.174      -18.319       -6.073       15.880       17.508       12.486      252.182      306.517      155.891        0.066        0.036       23.787       11.323        0.227      330.724       -1.720      872.093
01/09/2022  08:32:00      -20.839       -7.003       -5.845       15.878        9.447       15.159      252.116       89.254      229.798        0.054        0.029       21.984        6.892        0.098      330.844       -1.523      872.096
01/09/2022  08:33:00      -21.379       -9.489      -14.181       11.725       11.807        9.493      137.470      139.396       90.111        0.056        0.018       23.390        6.334        0.073      330.651       -1.840      872.102
01/09/2022  08:34:00       -4.666        1.035       -9.425       12.858       11.626       10.024      165.321      135.161      100.479        0.026        0.020        4.779        7.360        2.371      330.794       -1.605      872.101
01/09/2022  08:35:00      -15.051       -4.257      -10.524       18.948       12.448       15.157      359.032      154.953      229.737        0.055        0.037       15.641       13.058        0.697      330.765       -1.651      872.114
01/09/2022  08:36:00      -28.695      -16.207      -13.895       18.447       19.897       14.987      340.301      395.872      224.597        0.112        0.048       32.956        9.281        0.079      330.752       -1.674      872.130
01/09/2022  08:37:00      -45.166      -19.281      -11.189       22.193       17.543       18.376      492.512      307.754      337.668        0.184        0.057       49.110       10.433        0.045      330.844       -1.523      872.148
01/09/2022  08:38:00      -19.492       -2.090       -6.915       21.196       21.840       13.857      449.255      476.992      192.027        0.077        0.056       19.603        7.236        0.136      330.839       -1.529      872.162
01/09/2022  08:39:00      -44.300       25.790       -4.080       30.896       31.438       13.547      954.548      988.363      183.533        0.238        0.106       51.260       14.098        0.076      330.660       -1.824      872.175
01/09/2022  08:40:00      -22.078        2.505       -8.957       14.868       11.238       12.486      221.066      126.288      155.890        0.054        0.025       22.220        5.466        0.061      330.763       -1.654      872.180
01/09/2022  08:41:00      -24.333       -4.053      -12.435       12.309       17.861       14.123      151.504      319.019      199.467        0.072        0.033       24.668        7.797        0.100      330.808       -1.582      872.191
01/09/2022  08:42:00      -17.857       -2.154       -7.094        9.894       12.664        9.600       97.895      160.370       92.164        0.036        0.018       17.986        4.752        0.070      330.836       -1.536      872.200
01/09/2022  08:43:00      -50.058       -3.062       -9.173       29.997       19.828       16.383      899.821      393.150      268.406        0.208        0.078       50.152        9.551        0.036      330.738       -1.696      872.213
01/09/2022  08:44:00      -62.545      -20.109      -14.204       30.986       25.152       12.075      960.102      632.606      145.798        0.313        0.087       65.698       13.528        0.042      330.674       -1.801      872.220
01/09/2022  08:45:00       -5.520        3.335        6.750       31.603       18.988       15.610      998.773      360.528      243.674        0.084        0.080        6.449       14.407        4.991      330.925       -1.389      872.225
01/09/2022  08:46:00      -37.537       -7.861       -6.669       35.194       23.346       16.210     1238.636      545.058      262.768        0.178        0.102       38.351       12.670        0.109      330.918       -1.403      872.234
01/09/2022  08:47:00      -82.828      -19.817        0.559       49.593       26.648       25.673     2459.424      710.093      659.110        0.554        0.191       85.166       25.064        0.087      330.921       -1.397      872.234
01/09/2022  08:48:00     -128.562      -17.816      -12.576       31.778       34.477       24.795     1009.826     1188.680      614.790        0.991        0.141      129.790        9.969        0.006      330.665       -1.817      872.240
01/09/2022  08:49:00      -96.725        0.895      -11.400       35.250       30.645       22.260     1242.562      939.116      495.495        0.608        0.134       96.730       14.069        0.021      330.668       -1.813      872.260
01/09/2022  08:50:00      -74.482       12.237       -2.089       24.075       16.374       17.385      579.593      268.103      302.236        0.343        0.057       75.480       11.550        0.023      330.756       -1.667      872.287
01/09/2022  08:51:00      -63.578       -2.923       -8.321       20.461       21.192       13.492      418.633      449.099      182.031        0.258        0.052       63.645       11.118        0.031      330.812       -1.574      872.299
01/09/2022  08:52:00      -53.589        6.059       -5.412       33.179       23.040       15.292     1100.836      530.831      233.833        0.240        0.093       53.931       13.087        0.059      330.869       -1.481      872.300
01/09/2022  08:53:00      -74.158      -21.304      -18.501       28.183       22.816       16.445      794.281      520.587      270.443        0.394        0.079       77.158       16.776        0.047      330.924       -1.391      872.304
01/09/2022  08:54:00      -65.609        0.377      -10.294       43.949       17.937       16.811     1931.497      321.751      282.621        0.347        0.127       65.610       14.796        0.051      330.924       -1.392      872.301
01/09/2022  08:55:00      -52.189       -4.529       -2.617       32.571       22.317       17.848     1060.853      498.055      318.536        0.231        0.094       52.385       17.772        0.115      330.931       -1.382      872.318
01/09/2022  08:56:00      -38.149       14.942       -6.830       21.284       19.770       15.337      452.995      390.843      235.238        0.140        0.054       40.971        9.807        0.057      330.985       -1.293      872.343
01/09/2022  08:57:00      -20.776       11.322       -3.380       17.768       14.675       12.117      315.699      215.362      146.830        0.062        0.034       23.661       10.357        0.192      330.973       -1.313      872.349
01/09/2022  08:58:00      -27.429        1.468       -7.901       11.881       13.762        8.922      141.148      189.389       79.599        0.061        0.021       27.468        6.108        0.049      331.042       -1.199      872.365
01/09/2022  08:59:00      -29.403      -10.132      -17.033       13.914       13.644        9.899      193.610      186.158       97.988        0.087        0.024       31.100        5.760        0.034      331.126       -1.060      872.365
01/09/2022  09:00:00      -32.031      -22.213      -20.858       18.095       20.494       14.770      327.446      419.986      218.163        0.146        0.048       38.980        8.760        0.051      331.174       -0.982      872.375
01/09/2022  09:01:00      -46.005      -25.325      -12.976       22.067       21.801       17.491      486.931      475.264      305.940        0.210        0.063       52.515        5.923        0.013      331.175       -0.978      872.383
01/09/2022  09:02:00      -30.294       -5.848       -3.005       27.989       15.828       13.659      783.370      250.529      186.558        0.109        0.061       30.854       11.252        0.133      331.436       -0.550      872.393
01/09/2022  09:03:00      -27.388        0.709       -5.051       16.416       12.217       11.758      269.483      149.249      138.256        0.067        0.028       27.397        7.325        0.071      331.279       -0.809      872.401
01/09/2022  09:04:00      -11.352       -1.523       -4.342       12.268       10.185       10.391      150.500      103.732      107.974        0.026        0.018       11.454        3.353        0.086      331.579       -0.314      872.414
01/09/2022  09:05:00      -29.536        2.605       -7.840       11.992        9.235       10.352      143.812       85.279      107.167        0.064        0.017       29.651        6.828        0.053      331.338       -0.711      872.437
01/09/2022  09:06:00      -31.309        2.989      -15.700       17.932       13.201       10.573      321.546      174.258      111.782        0.092        0.030       31.451        5.061        0.026      331.337       -0.713      872.451
01/09/2022  09:07:00      -51.634       24.279       -2.738       24.184       17.007       16.544      584.867      289.246      273.703        0.221        0.057       57.057       13.662        0.057      331.257       -0.843      872.469
01/09/2022  09:08:00      -14.574       -1.597       -1.581       14.748       23.796       17.123      217.517      566.230      293.192        0.065        0.054       14.662       10.960        0.559      331.441       -0.543      872.488
01/09/2022  09:09:00       -8.136        9.268       -9.158       14.321       18.070       10.956      205.085      326.531      120.036        0.044        0.033       12.333        9.224        0.559      331.473       -0.489      872.502
01/09/2022  09:10:00      -59.407       -9.182      -15.387       31.365       34.238       15.737      983.752     1172.221      247.658        0.313        0.120       60.112        8.603        0.020      331.400       -0.608      872.517
01/09/2022  09:11:00      -78.272      -15.741       -5.298       41.871       24.383       23.560     1753.212      594.526      555.059        0.465        0.145       79.839       23.710        0.088      331.433       -0.554      872.532
01/09/2022  09:12:00      -55.905      -13.561       -7.455       20.274       24.915       20.368      411.024      620.772      414.843        0.241        0.072       57.526        7.047        0.015      331.465       -0.504      872.552
01/09/2022  09:13:00      -46.574      -14.142      -15.848       32.980       37.231       20.251     1087.652     1386.114      410.106        0.275        0.144       48.673       10.157        0.044      331.513       -0.423      872.557
01/09/2022  09:14:00      -22.447       -6.788       -3.792       17.058       26.902       21.970      290.965      723.694      482.695        0.103        0.075       23.451       12.812        0.298      331.576       -0.320      872.563
01/09/2022  09:15:00      -27.645        1.856       -1.246       16.505       15.162       15.046      272.412      229.897      226.376        0.075        0.036       27.707        8.350        0.091      331.627       -0.236      872.569
01/09/2022  09:16:00      -41.806       -2.458       -8.317       11.441        8.024        8.732      130.889       64.387       76.245        0.105        0.014       41.879        1.699        0.002      331.420       -0.576      872.565
01/09/2022  09:17:00      -39.934      -10.373       -7.335       17.360       13.730        9.272      301.375      188.510       85.969        0.117        0.029       41.259        4.123        0.010      331.527       -0.401      872.565
01/09/2022  09:18:00      -39.978       -3.413       -5.539       25.655       19.412       14.701      658.166      376.840      216.108        0.145        0.063       40.123        8.986        0.050      331.629       -0.232      872.561
01/09/2022  09:19:00      -40.690      -15.030      -11.710       23.954       23.531       13.785      573.809      553.728      190.038        0.167        0.066       43.377       13.817        0.101      331.617       -0.253      872.561
01/09/2022  09:20:00      -29.655      -11.822      -12.456       16.992       13.768       11.602      288.727      189.567      134.617        0.089        0.031       31.924       10.990        0.118      331.787        0.029      872.565
01/09/2022  09:21:00      -41.923       -9.171      -10.176       14.334       11.402       12.475      205.476      129.995      155.628        0.122        0.025       42.914        6.142        0.020      331.652       -0.195      872.578
01/09/2022  09:22:00      -16.251       -2.162       -7.059       17.020       14.844        9.946      289.670      220.357       98.931        0.046        0.030       16.394        5.002        0.093      331.892        0.201      872.586
01/09/2022  09:23:00      -40.226        4.557       -7.273       16.903       12.695       11.342      285.700      161.162      128.638        0.113        0.029       40.483        7.502        0.034      331.676       -0.155      872.593
01/09/2022  09:24:00      -27.247        9.763       -9.673       19.250       11.422       10.665      370.552      130.455      113.750        0.077        0.031       28.943       10.835        0.140      331.747       -0.038      872.605
01/09/2022  09:25:00       -0.975       10.438       -2.594       12.855       15.831       16.311      165.248      250.609      266.040        0.040        0.034       10.484        4.171        0.158      332.042        0.448      872.611
01/09/2022  09:26:00        5.879      -20.081       -9.592       26.648       17.427       16.986      710.120      303.700      288.524        0.092        0.065       20.923       15.955        0.581      332.102        0.547      872.639
01/09/2022  09:27:00       46.181      -44.124       -7.953       31.088       31.950       17.904      966.489     1020.815      320.541        0.322        0.115       63.872        7.697        0.015      332.024        0.418      872.653
01/09/2022  09:28:00        4.969       -9.139       -5.704       29.600       30.947       17.714      876.189      957.699      313.795        0.114        0.107       10.403       13.435        1.668      332.358        0.968      872.665
01/09/2022  09:29:00       15.996       10.117       -4.300       24.259       27.710       17.832      588.492      767.824      317.983        0.103        0.084       18.927       10.576        0.312      332.119        0.573      872.680
01/09/2022  09:30:00       -1.554        1.579       -9.043       14.722        9.270       12.968      216.727       85.930      168.179        0.028        0.024        2.216        7.741       12.206      332.254        0.796      872.690
01/09/2022  09:31:00      -13.578        5.711       -7.067        8.808        7.663       10.449       77.582       58.725      109.189        0.026        0.012       14.730        4.043        0.075      332.091        0.529      872.698
01/09/2022  09:32:00      -14.324       -7.129       -8.894       21.209       16.012       15.672      449.801      256.379      245.605        0.064        0.048       16.000        6.895        0.186      332.086        0.521      872.711
01/09/2022  09:33:00       19.812       -2.658      -13.357       33.586       19.112       20.263     1128.052      365.279      410.600        0.124        0.095       19.990       12.844        0.413      332.125        0.584      872.717
01/09/2022  09:34:00       92.033      -15.537      -19.138       31.772       42.469       26.933     1009.432     1803.613      725.376        0.631        0.177       93.335       18.352        0.039      331.986        0.354      872.734
01/09/2022  09:35:00       12.553       -7.323       -2.965       36.879       60.108       38.667     1360.097     3612.928     1495.129        0.334        0.323       14.533       31.616        4.733      332.360        0.972      872.742
01/09/2022  09:36:00       48.989      -19.643      -34.254       55.732       45.435       36.189     3106.111     2064.352     1309.678        0.522        0.324       52.780       29.466        0.312      332.414        1.061      872.738
01/09/2022  09:37:00       75.700      -21.948      -41.218       41.139       52.416       35.641     1692.414     2747.471     1270.278        0.681        0.286       78.818       15.746        0.040      332.263        0.812      872.745
01/09/2022  09:38:00       77.653       -7.632      -17.194       63.680       51.288       40.040     4055.143     2630.476     1603.223        0.733        0.414       78.027       34.327        0.194      332.177        0.669      872.739
01/09/2022  09:39:00       74.724      -18.399      -11.394       58.302       48.722       40.734     3399.140     2373.822     1659.284        0.674        0.372       76.955       38.615        0.252      332.101        0.546      872.736
01/09/2022  09:40:00       80.176      -15.548      -27.158       44.718       54.989       36.628     1999.663     3023.836     1341.589        0.689        0.318       81.669       23.312        0.081      332.201        0.708      872.746
01/09/2022  09:41:00       48.105       -0.663      -14.624       37.971       56.189       33.290     1441.783     3157.254     1108.224        0.412        0.285       48.110       28.825        0.359      332.388        1.020      872.749
01/09/2022  09:42:00       12.482       -5.154        3.822       25.741       44.275       29.924      662.594     1960.307      895.455        0.186        0.176       13.504       25.331        3.518      332.582        1.339      872.764
01/09/2022  09:43:00       73.229       18.003       -9.934       51.178       51.708       32.552     2619.186     2673.759     1059.605        0.607        0.318       75.409       18.764        0.062      332.400        1.038      872.779
01/09/2022  09:44:00       34.117      -10.066      -14.504       55.807       70.571       33.472     3114.368     4980.331     1120.359        0.534        0.461       35.571       20.329        0.327      332.479        1.167      872.789
01/09/2022  09:45:00       75.844       32.047      -15.014       83.996       49.868       29.697     7055.410     2486.788      881.890        0.871        0.521       82.337       26.708        0.105      332.392        1.026      872.804
01/09/2022  09:46:00       57.585        9.071      -25.190       42.650       54.350       28.327     1819.063     2953.957      802.444        0.480        0.279       58.295       27.358        0.220      332.511        1.221      872.832
01/09/2022  09:47:00      139.116       75.132      -17.226       31.018       31.634       19.887      962.115     1000.726      395.493        1.383        0.118      158.108       15.485        0.010      332.027        0.422      872.859
01/09/2022  09:48:00      105.729       59.211      -21.243       27.616       29.152       19.274      762.669      849.848      371.481        0.856        0.099      121.180        9.425        0.006      332.107        0.553      872.891
01/09/2022  09:49:00       59.255       25.334       -2.312       68.012       59.189       35.071     4625.680     3503.394     1229.987        0.676        0.468       64.443       24.505        0.145      332.556        1.297      872.915
01/09/2022  09:50:00       51.278      -63.251      -33.184       36.848       61.328       39.446     1357.794     3761.130     1556.004        0.720        0.334       81.425       21.474        0.070      332.704        1.541      872.938
01/09/2022  09:51:00      106.826      -61.259      -39.761       46.184       58.417       36.131     2132.923     3412.489     1305.420        1.180        0.343      123.144       27.396        0.049      332.276        0.833      872.963
01/09/2022  09:52:00      101.822      -66.193      -20.649       58.583       62.050       48.370     3431.996     3850.200     2339.656        1.240        0.481      121.446       43.206        0.127      332.311        0.891      872.983
01/09/2022  09:53:00      112.773       -1.846      -19.888       55.759       55.809       27.070     3109.043     3114.595      732.782        1.004        0.348      112.788       12.149        0.012      332.265        0.815      873.004
01/09/2022  09:54:00       34.320        7.812        1.124       58.226       59.326       35.984     3390.299     3519.596     1294.879        0.472        0.410       35.198       31.063        0.779      332.682        1.504      873.011
01/09/2022  09:55:00        0.753      -43.333       -6.849       49.931       48.149       39.238     2493.144     2318.369     1539.628        0.414        0.318       43.339       26.540        0.375      332.729        1.582      873.012
01/09/2022  09:56:00       41.070      -41.367      -18.944       45.884       56.027       38.785     2105.298     3138.999     1504.245        0.525        0.337       58.293       25.384        0.190      332.641        1.436      873.019
01/09/2022  09:57:00       55.602      -18.771      -19.704       54.915       44.043       32.267     3015.663     1939.798     1041.177        0.491        0.300       58.685       28.114        0.230      332.442        1.107      873.028
01/09/2022  09:58:00       74.777      -54.869      -32.863       48.022       43.989       28.181     2306.073     1935.021      794.155        0.736        0.252       92.748        5.907        0.004      332.508        1.217      873.031
01/09/2022  09:59:00      106.538       40.669      -16.182       49.544       40.339       20.139     2454.610     1627.227      405.569        0.888        0.224      114.036        7.351        0.004      332.215        0.731      873.037
01/09/2022  10:00:00       84.230        9.002      -42.129       64.600       68.224       40.552     4173.135     4654.462     1644.486        0.971        0.524       84.710       22.279        0.069      332.614        1.391      873.029
01/09/2022  10:01:00       54.463        0.028      -12.083       50.774       50.579       43.917     2577.989     2558.192     1928.686        0.509        0.353       54.463       38.069        0.489      332.586        1.347      873.033
01/09/2022  10:02:00      104.785       56.737      -23.316       28.165       34.864       21.070      793.278     1215.468      443.939        0.860        0.123      119.160        6.739        0.003      332.223        0.746      873.030
01/09/2022  10:03:00      110.938       14.479      -29.424       34.966       70.079       19.984     1222.608     4911.086      399.358        0.996        0.327      111.879       13.512        0.015      332.186        0.685      873.035
01/09/2022  10:04:00       75.071      -30.022      -21.265       52.195       46.092       39.404     2724.356     2124.436     1552.678        0.669        0.320       80.852       31.046        0.147      332.498        1.201      873.028
01/09/2022  10:05:00       88.882      -26.312      -23.534       54.502       34.802       31.652     2970.494     1211.164     1001.845        0.716        0.259       92.695       25.480        0.076      332.430        1.087      873.035
01/09/2022  10:06:00       49.751       12.003      -20.133       36.090       51.608       37.010     1302.494     2663.415     1369.749        0.418        0.267       51.179       24.727        0.233      332.670        1.485      873.045
01/09/2022  10:07:00       59.295       24.224      -12.009       56.705       41.277       26.707     3215.464     1703.783      713.286        0.494        0.282       64.053       28.874        0.203      332.517        1.231      873.056
01/09/2022  10:08:00       52.641       10.671       -6.979       53.289       59.907       30.267     2839.767     3588.838      916.072        0.514        0.367       53.712       20.504        0.146      332.776        1.660      873.059
01/09/2022  10:09:00       95.703       68.182      -25.610       40.773       38.451       23.988     1662.411     1478.475      575.438        0.909        0.186      117.507       15.574        0.018      332.492        1.191      873.082
01/09/2022  10:10:00       14.718       -3.033      -19.363       35.892       49.808       30.994     1288.232     2480.873      960.651        0.266        0.236       15.027       25.435        2.865      332.754        1.624      873.082
01/09/2022  10:11:00       63.971      -46.527      -25.733       39.521       33.101       32.148     1561.934     1095.666     1033.507        0.530        0.185       79.102       23.000        0.085      332.587        1.346      873.087
01/09/2022  10:12:00       43.152      -65.076      -20.320       53.065       40.471       27.718     2815.875     1637.870      768.283        0.587        0.261       78.083       32.138        0.169      332.373        0.993      873.094
01/09/2022  10:13:00      145.461       80.997      -31.744       64.718       52.322       37.776     4188.458     2737.613     1427.018        1.854        0.418      166.491       32.217        0.037      332.524        1.242      873.102
01/09/2022  10:14:00      137.944       49.918      -25.275       45.784       51.733       24.867     2096.206     2676.314      618.383        1.377        0.270      146.698       18.430        0.016      332.538        1.266      873.100
01/09/2022  10:15:00       56.858      -14.929      -26.719       58.579       54.056       31.709     3431.444     2922.046     1005.447        0.576        0.368       58.785       21.315        0.131      332.774        1.656      873.107
01/09/2022  10:16:00      -14.976      -27.906      -28.084       72.999       33.471       30.151     5328.827     1120.300      909.075        0.457        0.368       31.671       30.132        0.905      332.947        1.942      873.120
01/09/2022  10:17:00       50.703      -44.023      -24.016       77.793       36.976       32.245     6051.800     1367.237     1039.720        0.677        0.423       67.147       39.356        0.344      332.699        1.533      873.147
01/09/2022  10:18:00       59.631       17.592      -22.284       38.823       46.665       26.470     1507.191     2177.621      700.666        0.437        0.219       62.172       15.699        0.064      332.791        1.683      873.161
01/09/2022  10:19:00       41.430        6.370      -19.799       39.317       48.087       37.778     1545.828     2312.398     1427.154        0.372        0.264       41.917       23.095        0.304      332.862        1.802      873.155
01/09/2022  10:20:00       -0.792        1.736        2.109       30.201       27.710       22.445      912.073      767.818      503.799        0.110        0.109        1.908       16.123       71.428      332.905        1.872      873.145
01/09/2022  10:21:00      -17.675      -21.030      -16.256       26.655       20.569       10.347      710.464      423.069      107.058        0.113        0.062       27.471        6.034        0.048      332.897        1.859      873.144
01/09/2022  10:22:00       -2.581        4.160      -19.572       14.249       31.337       16.210      203.033      981.986      262.777        0.093        0.072        4.895       18.677       14.558      332.906        1.875      873.140
01/09/2022  10:23:00       16.792       -0.929       -7.286       23.589       38.836       20.011      556.419     1508.216      400.420        0.140        0.123       16.817       23.490        1.951      333.093        2.185      873.131
01/09/2022  10:24:00       17.245       72.834       -8.704       22.720       37.052       22.933      516.178     1372.825      525.933        0.405        0.121       74.847        4.967        0.004      332.953        1.953      873.126
01/09/2022  10:25:00        5.224       31.971      -11.467       46.211       37.263       22.348     2135.432     1388.532      499.415        0.260        0.201       32.395       16.510        0.260      332.793        1.688      873.127
01/09/2022  10:26:00       31.885      -34.515      -16.996       69.770       48.146       27.776     4867.910     2318.074      771.490        0.523        0.398       46.989       21.168        0.203      332.754        1.624      873.116
01/09/2022  10:27:00       42.723       -9.024      -14.833       23.122       41.526       30.022      534.634     1724.447      901.333        0.264        0.158       43.666       19.860        0.207      332.682        1.503      873.121
01/09/2022  10:28:00       20.818      -10.785       -4.898       19.439       31.736       22.345      377.876     1007.190      499.278        0.123        0.094       23.446       12.468        0.283      333.141        2.262      873.115
01/09/2022  10:29:00       20.389      -45.554      -22.894       27.933       27.620       26.878      780.244      762.881      722.452        0.264        0.113       49.909       18.717        0.141      333.071        2.147      873.108
01/09/2022  10:30:00       45.872      -47.531      -35.878       18.221       45.447       22.938      331.998     2065.446      526.151        0.429        0.146       66.056       20.716        0.098      332.781        1.667      873.113
01/09/2022  10:31:00       27.474      -81.525      -38.288       46.329       54.646       32.851     2146.398     2986.238     1079.165        0.754        0.311       86.029       16.648        0.037      333.059        2.127      873.108
01/09/2022  10:32:00       67.148      -34.436      -35.963       23.167       22.528       12.956      536.699      507.530      167.850        0.410        0.061       75.463        8.358        0.012      332.529        1.251      873.109
01/09/2022  10:33:00       49.558       12.134      -24.552       20.099       45.584       21.486      403.986     2077.918      461.627        0.307        0.147       51.022       10.355        0.041      332.656        1.460      873.104
01/09/2022  10:34:00        8.624       17.640        7.466       25.189       44.297       19.194      634.462     1962.247      368.410        0.170        0.148       19.635       18.654        0.903      333.064        2.136      873.098
01/09/2022  10:35:00       43.999      -54.881      -32.388       26.947       28.987       18.690      726.137      840.246      349.300        0.396        0.096       70.341       11.396        0.026      333.322        2.561      873.086
01/09/2022  10:36:00      -18.419      -46.992      -27.234       42.504       27.437       21.334     1806.566      752.765      455.139        0.315        0.151       50.473       16.514        0.107      333.190        2.344      873.082
01/09/2022  10:37:00       30.587      -58.355      -31.355       31.652       48.919       28.260     1001.866     2393.090      798.619        0.476        0.210       65.885       24.716        0.141      333.295        2.518      873.087
01/09/2022  10:38:00       36.662        0.050      -36.105       47.489       43.066       33.057     2255.246     1854.656     1092.794        0.392        0.260       36.662       23.698        0.418      333.602        3.025      873.094
01/09/2022  10:39:00       64.780      -49.534      -49.226       47.073       33.320       27.999     2215.821     1110.219      783.948        0.659        0.205       81.548       21.699        0.071      332.968        1.979      873.111
01/09/2022  10:40:00       51.917        4.866      -14.861       25.421       30.600       17.221      646.210      936.367      296.548        0.241        0.094       52.145        8.484        0.026      333.017        2.057      873.116
01/09/2022  10:41:00      112.143       31.779      -25.332       42.416       56.271       27.864     1799.140     3166.396      776.417        0.998        0.287      116.558       16.554        0.020      333.135        2.253      873.114
01/09/2022  10:42:00       70.692      -37.721      -17.745       64.269       48.358       38.088     4130.479     2338.501     1450.726        0.733        0.396       80.126       25.039        0.098      333.189        2.340      873.099
01/09/2022  10:43:00      129.261      -78.531      -24.879       92.733       60.931       41.282     8599.340     3712.630     1704.168        1.875        0.701      151.247       32.740        0.047      333.154        2.283      873.086
01/09/2022  10:44:00       52.367      -74.318      -36.835       40.353       85.534       22.249     1628.346     7316.104      495.019        0.953        0.472       90.914       13.657        0.023      333.201        2.361      873.086
01/09/2022  10:45:00       74.221     -120.063      -26.893       40.732       51.206       21.921     1659.086     2622.097      480.540        1.270        0.238      141.152       16.640        0.014      333.019        2.060      873.090
01/09/2022  10:46:00       49.551       -2.490      -21.047       56.305       53.594       44.180     3170.272     2872.308     1951.900        0.545        0.400       49.614       24.656        0.247      333.327        2.570      873.076
01/09/2022  10:47:00       52.753       -4.246      -16.209       58.682       71.968       42.764     3443.559     5179.449     1828.802        0.676        0.523       52.924       20.235        0.146      333.278        2.489      873.078
01/09/2022  10:48:00       63.360      -23.423      -21.962       35.730       46.961       44.035     1276.656     2205.291     1939.120        0.523        0.271       67.551       16.178        0.057      333.131        2.247      873.090
01/09/2022  10:49:00       88.328       45.283      -24.403       63.801       50.413       30.822     4070.594     2541.484      950.014        0.900        0.378       99.259       19.965        0.040      333.181        2.329      873.075
01/09/2022  10:50:00       59.764        3.772      -14.886       40.987       50.007       28.987     1679.941     2500.695      840.241        0.441        0.251       59.883       18.391        0.094      333.344        2.598      873.061
01/09/2022  10:51:00       -1.606      -39.241      -26.370       46.019       44.647       34.010     2117.729     1993.324     1156.669        0.375        0.263       39.274       27.708        0.498      333.683        3.158      873.055
01/09/2022  10:52:00        8.339      -25.646      -12.900       38.409       37.795       24.880     1475.264     1428.437      619.003        0.221        0.176       26.968       24.430        0.821      333.454        2.780      873.039
01/09/2022  10:53:00       -1.742       27.023      -18.702       45.722       33.384       16.193     2090.525     1114.509      262.200        0.227        0.173       27.079        9.349        0.119      333.290        2.509      873.030
01/09/2022  10:54:00      -37.021      -23.464      -17.273       32.773       29.800       22.886     1074.047      888.057      523.769        0.235        0.124       43.831       14.175        0.105      333.378        2.656      873.022
01/09/2022  10:55:00      -49.457       -9.454      -11.015       52.969       31.373       21.313     2805.755      984.266      454.232        0.345        0.212       50.353       24.382        0.234      333.405        2.700      873.012
01/09/2022  10:56:00       -3.511      -10.865      -21.049       23.491       26.299       26.484      551.816      691.636      701.412        0.126        0.097       11.418       14.356        1.581      333.492        2.843      872.995
01/09/2022  10:57:00       -0.692      -10.048       -6.948       19.631       25.996       19.429      385.367      675.772      377.494        0.079        0.072       10.071       12.707        1.592      333.605        3.030      872.977
01/09/2022  10:58:00      -32.720        6.066       -6.205       55.045       35.365       20.919     3030.003     1250.691      437.623        0.293        0.236       33.277       17.939        0.291      333.396        2.683      872.957
01/09/2022  10:59:00      -53.725      -13.707        4.634       54.296       37.337       28.266     2948.083     1394.037      798.993        0.412        0.257       55.446       29.416        0.281      333.371        2.643      872.936
01/09/2022  11:00:00      -53.965       -8.997       -0.605       43.911       42.338       31.898     1928.191     1792.502     1017.509        0.386        0.237       54.710       23.471        0.184      333.170        2.310      872.914
01/09/2022  11:01:00      -42.589       -3.663        1.435       59.053       21.137       17.042     3487.219      446.769      290.432        0.303        0.211       42.746       13.961        0.107      333.413        2.712      872.905
01/09/2022  11:02:00      -52.989       -2.204      -12.409       36.761       38.283       20.919     1351.355     1465.550      437.604        0.311        0.163       53.035       12.807        0.058      333.419        2.722      872.878
01/09/2022  11:03:00      -39.066       18.668       -7.062       24.101       22.052       18.857      580.837      486.311      355.582        0.167        0.071       43.297       14.205        0.108      333.253        2.445      872.855
01/09/2022  11:04:00        6.800       28.093        4.894       37.137       22.416       19.808     1379.181      502.469      392.342        0.157        0.114       28.904       13.780        0.227      333.396        2.685      872.826
01/09/2022  11:05:00      134.603       30.614      -26.997       45.786       38.759       29.625     2096.395     1502.285      877.646        1.213        0.224      138.040       11.529        0.007      333.343        2.597      872.796
01/09/2022  11:06:00       24.641       10.870      -32.018       70.216       50.298       35.525     4930.246     2529.870     1262.044        0.523        0.436       26.932       30.919        1.318      333.741        3.255      872.769
01/09/2022  11:07:00       36.716      -15.308      -17.292       61.858       51.845       45.593     3826.461     2687.910     2078.736        0.524        0.430       39.780       34.861        0.768      333.798        3.350      872.757
01/09/2022  11:08:00       16.599       -4.780      -13.933       54.067       44.179       38.477     2923.282     1951.753     1480.500        0.342        0.318       17.273       20.871        1.460      333.629        3.069      872.741
01/09/2022  11:09:00       55.917       22.969      -18.368       81.100       33.317       21.953     6577.206     1110.007      481.937        0.608        0.408       60.451       20.849        0.119      333.708        3.201      872.735
01/09/2022  11:10:00      128.971       61.353      -23.678       47.539       36.685       26.601     2259.956     1345.772      707.596        1.264        0.216      142.821       16.912        0.014      333.438        2.753      872.726
01/09/2022  11:11:00      111.385       55.011       -8.055       69.709       60.202       33.899     4859.396     3624.248     1149.142        1.256        0.482      124.229       34.703        0.078      333.763        3.291      872.717
01/09/2022  11:12:00       78.585       32.215       -5.765       73.659       61.560       35.317     5425.667     3789.649     1247.259        0.885        0.523       84.932       30.265        0.127      333.699        3.185      872.717
01/09/2022  11:13:00       79.720       44.569      -23.888       45.438       35.469       20.340     2064.578     1258.030      413.713        0.632        0.187       91.333       10.920        0.014      333.512        2.876      872.710
01/09/2022  11:14:00        3.047       27.950       -5.559       33.582       27.257       24.071     1127.733      742.954      579.423        0.164        0.123       28.115        9.792        0.121      333.805        3.362      872.680
01/09/2022  11:15:00       65.864        5.813       -7.034       72.690       56.474       35.628     5283.764     3189.349     1269.342        0.708        0.487       66.120       15.035        0.052      333.857        3.446      872.651
01/09/2022  11:16:00       67.753       -4.079      -21.952       53.847       54.367       37.809     2899.516     2955.753     1429.525        0.619        0.364       67.876       26.544        0.153      333.733        3.242      872.619
01/09/2022  11:17:00       83.406       17.088      -15.029       43.021       49.951       28.907     1850.830     2495.073      835.635        0.633        0.259       85.139       20.828        0.060      333.754        3.277      872.580
01/09/2022  11:18:00       73.723        6.328      -13.685       45.847       57.232       29.279     2101.939     3275.551      857.249        0.595        0.312       73.994       23.165        0.098      333.847        3.431      872.579
01/09/2022  11:19:00       80.045       37.274      -21.148       41.139       65.294       28.788     1692.414     4263.261      828.754        0.751        0.339       88.298       23.255        0.069      333.787        3.331      872.593
01/09/2022  11:20:00       62.612      -34.412      -49.307       46.968       54.936       29.727     2206.001     3017.991      883.693        0.682        0.305       71.445       30.452        0.182      333.749        3.269      872.577
01/09/2022  11:21:00       35.761       15.433      -15.009       42.509       72.919       29.712     1807.050     5317.117      882.813        0.487        0.400       38.948       19.670        0.255      333.875        3.477      872.568
01/09/2022  11:22:00        5.250      -61.130      -20.655       67.191       59.026       34.683     4514.634     3484.020     1202.929        0.669        0.460       61.355       40.389        0.433      334.036        3.743      872.565
01/09/2022  11:23:00      -18.310      -73.811      -17.379       24.109       37.667       25.456      581.265     1418.811      648.019        0.437        0.132       76.048       12.327        0.026      333.381        2.659      872.568
01/09/2022  11:24:00        8.348       43.641       -5.385       17.975       27.936       16.740      323.112      780.401      280.241        0.169        0.069       44.433       10.775        0.059      333.492        2.844      872.566
01/09/2022  11:25:00       20.180      -11.419      -10.907       16.804       28.270       21.143      282.376      799.211      447.042        0.109        0.076       23.187        6.757        0.085      333.720        3.221      872.547
01/09/2022  11:26:00        9.871      -55.541      -41.619       25.058       28.683       37.868      627.901      822.716     1433.998        0.390        0.144       56.412       22.538        0.160      333.630        3.073      872.536
01/09/2022  11:27:00        7.995       27.497       -7.544       51.519       41.299       20.822     2654.238     1705.597      433.563        0.283        0.240       28.636       23.904        0.697      333.807        3.365      872.539
01/09/2022  11:28:00      123.040       23.199      -24.719       47.062       43.183       29.885     2214.788     1864.762      893.099        1.063        0.249      125.208       18.336        0.021      333.847        3.430      872.527
01/09/2022  11:29:00      119.124       87.702      -24.955       47.972       45.677       25.656     2301.351     2086.405      658.232        1.377        0.252      147.927       14.871        0.010      333.840        3.418      872.526
01/09/2022  11:30:00       81.905       60.692      -21.763       45.376       38.986       22.983     2058.977     1519.885      528.205        0.749        0.205      101.941       13.698        0.018      333.952        3.605      872.521
01/09/2022  11:31:00       22.017      -21.915       -5.470       51.369       78.190       34.971     2638.737     6113.718     1223.002        0.548        0.499       31.065       21.737        0.490      334.380        4.314      872.504
01/09/2022  11:32:00       67.802      -20.324      -19.522       49.817       39.131       23.720     2481.779     1531.254      562.633        0.498        0.229       70.783       12.331        0.030      333.897        3.515      872.490
01/09/2022  11:33:00       43.097      -33.031       -9.885       49.566       73.082       47.255     2456.787     5340.989     2233.039        0.654        0.502       54.299       32.919        0.368      334.120        3.883      872.466
01/09/2022  11:34:00       79.287       29.779       -5.710       82.168       64.203       36.722     6751.634     4122.002     1348.492        0.971        0.611       84.695       43.635        0.265      334.036        3.743      872.452
01/09/2022  11:35:00       39.602      -51.578      -20.131       73.057       54.855       36.684     5337.280     3009.042     1345.683        0.716        0.485       65.027       20.989        0.104      333.883        3.491      872.443
01/09/2022  11:36:00       47.381       49.554       -3.241       68.532       54.011       38.012     4696.584     2917.208     1444.901        0.688        0.453       68.561       24.499        0.128      333.891        3.505      872.433
01/09/2022  11:37:00       17.620       16.100       -4.738       23.642       21.292       25.534      558.950      453.335      651.967        0.113        0.083       23.868       19.092        0.640      334.113        3.872      872.417
01/09/2022  11:38:00      101.289       75.591      -19.056       56.011       61.302       39.987     3137.277     3757.951     1598.935        1.241        0.425      126.386       19.186        0.023      334.037        3.746      872.400
01/09/2022  11:39:00      130.518      107.824      -28.739       27.679       38.048       19.755      766.115     1447.632      390.264        1.604        0.130      169.295       13.188        0.006      333.568        2.969      872.391
01/09/2022  11:40:00       94.390       69.588      -20.457       42.992       20.449       22.051     1848.279      418.168      486.267        0.846        0.138      117.269       25.831        0.049      333.551        2.942      872.372
01/09/2022  11:41:00       58.107       73.743       -6.799       50.401       33.476       30.488     2540.264     1120.630      929.491        0.672        0.230       93.886       15.562        0.027      334.154        3.939      872.350
01/09/2022  11:42:00       -1.178       67.222       -2.862       28.252       44.186       26.668      798.169     1952.377      711.192        0.399        0.173       67.232       13.049        0.038      333.891        3.504      872.337
01/09/2022  11:43:00      -37.053        6.793        2.890       27.538       36.946       21.698      758.351     1364.989      470.813        0.201        0.130       37.671       23.735        0.397      334.224        4.055      872.329
01/09/2022  11:44:00       14.862       43.103       -7.271       15.617       18.390       13.585      243.901      338.182      184.544        0.145        0.038       45.594        6.029        0.017      334.359        4.277      872.340
01/09/2022  11:45:00      -16.979      -31.845       -2.990       51.564       49.974       30.654     2658.887     2497.387      939.667        0.370        0.305       36.089       20.264        0.315      334.461        4.448      872.336
01/09/2022  11:46:00       43.830      -67.593      -16.178       62.169       74.458       36.779     3864.955     5543.941     1352.691        0.875        0.538       80.559       41.385        0.264      333.938        3.581      872.340
01/09/2022  11:47:00        4.308      -65.145      -35.042       67.990       81.058       40.848     4622.706     6570.394     1668.560        0.917        0.643       65.287       29.932        0.210      334.141        3.917      872.340
01/09/2022  11:48:00      -58.625      -32.566      -15.357       68.802       41.836       27.422     4733.709     1750.279      751.980        0.598        0.362       67.063       21.473        0.103      333.955        3.610      872.345
01/09/2022  11:49:00        3.539        5.286      -18.761       17.821       30.639       21.526      317.600      938.763      463.376        0.106        0.086        6.361        7.358        1.338      334.251        4.100      872.341
01/09/2022  11:50:00       81.726     -117.496      -23.506       55.934      126.518       34.669     3128.635    16006.890     1201.958        2.068        1.017      143.124       38.941        0.074      334.026        3.725      872.329
01/09/2022  11:51:00       94.110      -55.922      -34.080       51.687       61.363       36.678     2671.562     3765.424     1345.290        1.046        0.389      109.471       27.020        0.061      333.937        3.580      872.317
01/09/2022  11:52:00       15.385      -27.330      -15.193       35.058       55.312       30.890     1229.042     3059.363      954.186        0.323        0.262       31.363       30.532        0.948      334.438        4.410      872.295
01/09/2022  11:53:00      -22.885      -36.740      -16.309       56.751       61.929       31.472     3220.633     3835.198      990.508        0.509        0.402       43.285       27.559        0.405      334.279        4.145      872.277
01/09/2022  11:54:00       81.325     -185.909      -46.652       31.098       34.176       22.368      967.093     1167.973      500.331        2.299        0.132      202.918       11.055        0.003      333.669        3.133      872.276
01/09/2022  11:55:00       95.828     -120.563      -40.836       21.570       41.548       17.620      465.247     1726.206      310.469        1.394        0.125      154.008        8.804        0.003      333.734        3.243      872.284
01/09/2022  11:56:00       97.302     -112.072      -36.099       45.092       42.468       30.506     2033.318     1803.543      930.628        1.405        0.238      148.418       26.038        0.031      334.018        3.712      872.291
01/09/2022  11:57:00       64.111      -64.624      -20.846       28.283       31.121       22.272      799.922      968.490      496.055        0.549        0.113       91.030       21.701        0.057      333.860        3.454      872.292
01/09/2022  11:58:00       68.185      -33.247      -13.599       30.755       33.582       27.503      945.885     1127.739      756.394        0.438        0.142       75.859       24.890        0.108      334.029        3.734      872.298
01/09/2022  11:59:00       69.966      -23.645      -17.103       12.545       29.591       19.687      157.384      875.610      387.582        0.358        0.071       73.853       12.548        0.029      333.878        3.482      872.294
01/09/2022  12:00:00       50.835       -2.758       -9.886       43.502       46.498       26.687     1892.405     2162.093      712.219        0.373        0.238       50.909       18.004        0.125      334.264        4.122      872.283
01/09/2022  12:01:00       58.448       17.142      -20.151       27.023       27.927       22.756      730.253      779.893      517.814        0.307        0.101       60.910       10.631        0.030      334.190        3.999      872.269
01/09/2022  12:02:00      -15.825      -20.284      -25.392       51.463       32.790       16.939     2648.430     1075.208      286.921        0.266        0.201       25.727       18.047        0.492      334.238        4.078      872.270
01/09/2022  12:03:00       -5.058      -96.321      -40.010       66.067       58.667       30.332     4364.869     3441.863      920.052        0.981        0.436       96.454       23.383        0.059      334.343        4.251      872.263
01/09/2022  12:04:00       -9.889        5.224      -13.366       47.697       34.839       30.016     2275.017     1213.747      900.950        0.235        0.219       11.184       25.612        5.244      334.541        4.580      872.257
01/09/2022  12:05:00      -48.127       -3.899       -7.848       36.624       34.958       23.253     1341.282     1222.036      540.722        0.275        0.155       48.284       23.783        0.243      334.530        4.562      872.247
01/09/2022  12:06:00        8.907       15.761       -6.288       22.931       29.772       23.066      525.820      886.356      532.051        0.116        0.097       18.104       13.762        0.578      334.610        4.694      872.234
01/09/2022  12:07:00      -16.962      -25.371      -11.500       38.409       29.692       24.192     1475.239      881.625      585.253        0.200        0.147       30.519       11.562        0.144      334.706        4.855      872.210
01/09/2022  12:08:00       15.858      -28.983       -7.704       41.854       27.012       23.981     1751.755      729.649      575.066        0.210        0.153       33.037       16.109        0.238      334.530        4.564      872.177
01/09/2022  12:09:00       77.856       45.961       -9.125       57.518       28.650       23.603     3308.287      820.825      557.106        0.647        0.234       90.410       24.144        0.071      334.140        3.916      872.151
01/09/2022  12:10:00      144.801       59.529      -29.442       72.227       51.558       26.736     5216.670     2658.270      714.789        1.698        0.429      156.560       23.267        0.022      333.995        3.674      872.112
01/09/2022  12:11:00      136.531       88.526      -19.976       41.823       46.288       22.286     1749.197     2142.546      496.675        1.563        0.219      162.719       16.646        0.010      333.977        3.646      872.089
01/09/2022  12:12:00       58.397       44.842      -13.964       24.605       30.902       23.913      605.395      954.962      571.817        0.387        0.107       73.627       21.036        0.082      334.265        4.122      872.073
01/09/2022  12:13:00       76.343       47.307      -27.851       40.084       38.702       25.771     1606.708     1497.863      664.161        0.630        0.188       89.813       15.323        0.029      334.181        3.984      872.063
01/09/2022  12:14:00       56.462        8.046      -25.249       54.834       60.667       30.598     3006.794     3680.502      936.256        0.576        0.381       57.033       21.912        0.148      334.462        4.451      872.049
01/09/2022  12:15:00       44.209       32.782       -4.949       41.278       45.384       39.046     1703.856     2059.741     1524.577        0.417        0.264       55.037       28.536        0.269      334.654        4.768      872.049
01/09/2022  12:16:00       22.498      -25.591      -19.557       31.771       48.352       28.381     1009.370     2337.964      805.489        0.285        0.208       34.075       17.561        0.266      334.630        4.729      872.046
01/09/2022  12:17:00      -33.304      -47.124      -11.329       23.628       29.226       18.924      558.285      854.137      358.118        0.261        0.089       57.705        9.619        0.028      334.535        4.573      872.049
01/09/2022  12:18:00       -9.222      -41.598      -33.524       21.939       15.468       18.196      481.333      239.270      331.092        0.200        0.053       42.608        8.401        0.039      334.177        3.978      872.048
01/09/2022  12:19:00       42.827      -21.349      -12.945       30.264       18.829       19.290      915.883      354.548      372.115        0.205        0.082       47.854       16.800        0.123      334.570        4.630      872.054
01/09/2022  12:20:00       36.288      -86.025      -17.234       45.389       72.736       35.935     2060.148     5290.552     1291.313        0.883        0.432       93.366       29.345        0.099      334.506        4.522      872.047
01/09/2022  12:21:00       20.080     -101.191      -18.745       21.887       35.210       23.696      479.060     1239.737      561.478        0.664        0.114      103.164        6.420        0.004      334.328        4.228      872.030
01/09/2022  12:22:00       22.540      -52.385      -21.790       40.146       46.279       25.238     1611.678     2141.750      636.967        0.406        0.220       57.029       27.069        0.225      334.760        4.946      872.013
01/09/2022  12:23:00       48.126      -35.639       -5.496       51.786       32.200       23.286     2681.739     1036.821      542.239        0.394        0.213       59.885       10.751        0.032      334.854        5.102      871.999
01/09/2022  12:24:00       31.113       21.874       -0.114       29.358       33.241       21.958      861.895     1104.955      482.144        0.195        0.122       38.033       19.319        0.258      335.165        5.619      871.981
01/09/2022  12:25:00       12.705      -42.391      -13.772       40.513       33.415       22.486     1641.287     1116.548      505.603        0.271        0.163       44.254       17.442        0.155      335.030        5.394      871.962
01/09/2022  12:26:00       81.165     -100.346      -41.612       37.563       47.143       25.311     1411.008     2222.462      640.627        1.133        0.214      129.063       20.124        0.024      334.468        4.459      871.952
01/09/2022  12:27:00        9.533       -0.870      -23.925       52.441       39.599       25.674     2750.033     1568.047      659.147        0.282        0.249        9.573       22.024        5.293      334.775        4.969      871.941
01/09/2022  12:28:00      -16.451       31.641      -23.582       29.323       27.946       22.086      859.853      780.965      487.795        0.198        0.106       35.663       13.062        0.134      334.968        5.290      871.952
01/09/2022  12:29:00      -13.890        5.326      -27.561       29.847       30.892       25.032      890.868      954.287      626.599        0.173        0.124       14.876       20.335        1.869      334.952        5.264      871.947
01/09/2022  12:30:00      -11.232       34.421       -8.159       35.417       39.209       25.862     1254.365     1537.378      668.865        0.242        0.173       36.207       20.298        0.314      334.793        5.000      871.940
01/09/2022  12:31:00       -7.640       69.781       -4.531       36.944       33.541       26.226     1364.831     1125.002      687.783        0.406        0.159       70.198       21.230        0.091      334.666        4.788      871.928
01/09/2022  12:32:00      -11.848       44.226       11.208       18.678       21.533       24.365      348.882      463.662      593.650        0.181        0.070       45.785       14.862        0.105      334.902        5.181      871.918
01/09/2022  12:33:00       12.480       70.203       -0.019       30.590       30.163       25.282      935.753      909.819      639.186        0.378        0.124       71.304       20.528        0.083      334.674        4.803      871.906
01/09/2022  12:34:00       39.365       73.796       -8.536       38.776       35.213       31.367     1503.582     1239.949      983.875        0.540        0.186       83.639       15.966        0.036      334.691        4.831      871.913
01/09/2022  12:35:00        6.167        9.218       -5.465       13.142       25.970       22.713      172.716      674.437      515.863        0.076        0.068       11.091       17.896        2.604      334.821        5.047      871.918
01/09/2022  12:36:00       10.695       34.090      -12.192       25.952       36.962       21.472      673.515     1366.223      461.046        0.196        0.125       35.728       15.134        0.179      334.785        4.986      871.928
01/09/2022  12:37:00      -10.322       46.898      -14.142       30.377       31.283       25.108      922.768      978.628      630.418        0.252        0.127       48.021       18.142        0.143      334.744        4.920      871.939
01/09/2022  12:38:00       32.747       18.165      -19.091       49.068       38.868       25.159     2407.641     1510.683      632.959        0.316        0.228       37.448       19.549        0.273      334.845        5.087      871.942
01/09/2022  12:39:00       53.366      -19.432      -29.236       82.559       61.559       32.872     6816.062     3789.472     1080.544        0.788        0.584       56.793       22.754        0.161      334.878        5.142      871.932
01/09/2022  12:40:00       66.481       32.778       -2.691       81.319       72.906       33.976     6612.787     5315.320     1154.364        0.929        0.654       74.123       21.724        0.086      334.771        4.963      871.921
01/09/2022  12:41:00       59.379       55.639        2.788       84.377       56.382       42.859     7119.514     3178.897     1836.923        0.938        0.607       81.372       36.933        0.206      335.106        5.520      871.918
01/09/2022  12:42:00       28.640       18.437       -8.076       62.196       56.530       44.884     3868.400     3195.662     2014.557        0.515        0.454       34.061       42.430        1.552      335.098        5.507      871.919
01/09/2022  12:43:00      132.307      103.910      -23.782       42.226       52.503       25.105     1783.004     2756.543      630.283        1.702        0.258      168.233       11.319        0.005      334.310        4.196      871.934
01/09/2022  12:44:00       69.606       35.546       -4.400       69.507       53.086       31.548     4831.248     2818.139      995.299        0.738        0.432       78.157       28.578        0.134      334.842        5.081      871.917
01/09/2022  12:45:00      140.127       23.759      -21.871       78.610       66.973       32.274     6179.555     4485.392     1041.603        1.619        0.585      142.127       28.619        0.041      334.664        4.784      871.902
01/09/2022  12:46:00       77.932      -19.101      -23.306       50.731       50.215       32.881     2573.605     2521.550     1081.192        0.658        0.309       80.239       26.518        0.109      334.617        4.709      871.888
01/09/2022  12:47:00       33.302       22.081      -10.873       52.247       40.923       24.824     2729.755     1674.731      616.232        0.337        0.251       39.957       27.259        0.465      334.923        5.216      871.869
01/09/2022  12:48:00       66.782       37.334      -24.378       36.518       36.537       21.292     1333.583     1334.918      453.340        0.478        0.156       76.509       16.307        0.045      334.535        4.572      871.849
01/09/2022  12:49:00       37.041       36.456      -15.321       39.226       61.280       38.402     1538.643     3755.243     1474.747        0.485        0.338       51.972       11.822        0.052      335.120        5.545      871.811
01/09/2022  12:50:00       50.756        8.460      -17.477       85.142       72.594       47.859     7249.079     5269.910     2290.478        0.888        0.740       51.456       31.206        0.368      335.202        5.679      871.785
01/09/2022  12:51:00      129.018      -17.971      -12.181       82.211       51.883       44.306     6758.692     2691.880     1962.979        1.426        0.571      130.264       50.791        0.152      334.678        4.809      871.772
01/09/2022  12:52:00      197.484       30.115      -13.133       94.060       53.824       50.595     8847.353     2897.023     2559.823        2.719        0.715      199.767       37.418        0.035      334.691        4.828      871.765
01/09/2022  12:53:00      135.755       23.138      -23.629       80.102       77.467       34.238     6416.250     6001.062     1172.230        1.655        0.679      137.713       31.476        0.052      334.961        5.276      871.760
01/09/2022  12:54:00       66.000      -40.692      -23.944       57.987       40.980       35.558     3362.541     1679.351     1264.368        0.644        0.315       77.536       29.831        0.148      334.932        5.231      871.762
01/09/2022  12:55:00       -5.723      -18.390      -14.692       28.189       47.373       22.853      794.613     2244.174      522.277        0.207        0.178       19.260       13.070        0.461      335.015        5.369      871.767
01/09/2022  12:56:00       26.589      -61.074      -13.054       32.209       71.106       21.636     1037.405     5056.076      468.133        0.558        0.328       66.611       25.571        0.147      334.869        5.126      871.774
01/09/2022  12:57:00       24.872      -39.625      -25.297       35.520       34.162       25.857     1261.697     1167.040      668.593        0.296        0.155       46.784       12.438        0.071      334.703        4.849      871.763
01/09/2022  12:58:00       35.027      -13.953      -11.488       67.385       45.060       36.642     4540.778     2030.436     1342.635        0.473        0.396       37.704       34.800        0.852      334.998        5.340      871.757
01/09/2022  12:59:00       87.265      -75.895      -21.076       70.610       67.899       52.939     4985.766     4610.267     2802.539        1.311        0.620      115.652       39.870        0.119      334.992        5.330      871.736
01/09/2022  13:00:00      121.977       23.748      -27.979       68.155       50.520       35.492     4645.161     2552.307     1259.655        1.234        0.423      124.267       27.838        0.050      335.023        5.382      871.724
01/09/2022  13:01:00      135.293       91.582      -20.787       49.847       30.101       29.035     2484.709      906.073      843.031        1.568        0.212      163.376        9.878        0.004      334.595        4.670      871.708
01/09/2022  13:02:00      117.646       51.166      -14.450       38.982       33.619       20.809     1519.611     1130.248      433.022        0.987        0.154      128.291       15.139        0.014      334.708        4.858      871.684
01/09/2022  13:03:00       64.740       23.357       -8.582       53.653       75.182       33.411     2878.672     5652.332     1116.320        0.723        0.482       68.824       23.113        0.113      335.003        5.350      871.662
01/09/2022  13:04:00      124.977      -31.487      -44.994       60.814       46.676       33.700     3698.386     2178.630     1135.704        1.282        0.351      128.882       23.062        0.032      334.858        5.107      871.643
01/09/2022  13:05:00        7.292      -31.119      -16.168       41.485       35.583       28.850     1721.041     1266.177      832.316        0.255        0.191       31.962       18.715        0.343      335.362        5.947      871.641
01/09/2022  13:06:00       46.707        2.892      -29.017       34.633       40.965       21.906     1199.466     1678.158      479.877        0.319        0.168       46.797       11.460        0.060      334.956        5.272      871.627
01/09/2022  13:07:00       93.471       34.075      -21.953       39.542       21.415       16.080     1563.590      458.584      258.552        0.633        0.114       99.489        6.009        0.004      334.580        4.644      871.606
01/09/2022  13:08:00       41.239       26.315      -20.190       28.634       22.028       20.698      819.915      485.241      428.406        0.227        0.087       48.920       12.507        0.065      334.684        4.817      871.593
01/09/2022  13:09:00       62.600       36.041       -9.820       22.354       16.385       13.564      499.718      268.473      183.978        0.313        0.048       72.233        4.681        0.004      334.666        4.788      871.588
01/09/2022  13:10:00       53.349       33.769      -14.629       24.207       22.181       19.138      586.002      492.016      366.279        0.282        0.072       63.138       11.917        0.036      334.937        5.239      871.589
01/09/2022  13:11:00       61.192       31.117      -22.775       13.677       19.399       14.416      187.069      376.332      207.819        0.300        0.039       68.649        9.344        0.019      334.659        4.775      871.593
01/09/2022  13:12:00       47.081       -4.336      -17.373       27.647       38.630       15.798      764.375     1492.244      249.564        0.252        0.125       47.280       16.015        0.115      334.779        4.977      871.588
01/09/2022  13:13:00       52.879      -63.190      -18.098       62.861       61.003       44.168     3951.559     3721.392     1950.827        0.837        0.481       82.396       35.904        0.190      335.187        5.653      871.567
01/09/2022  13:14:00       34.682      -67.108      -24.116       47.591       94.260       37.710     2264.876     8884.862     1422.012        0.943        0.629       75.540       49.166        0.424      334.868        5.123      871.569
01/09/2022  13:15:00      -35.127      -61.329      -20.370       69.642       54.944       34.209     4850.037     3018.811     1170.273        0.722        0.452       70.676       24.198        0.117      335.259        5.774      871.548
01/09/2022  13:16:00       35.069      -74.854      -32.284       62.793       49.428       40.266     3943.018     2443.108     1621.334        0.794        0.400       82.662       35.256        0.182      335.271        5.794      871.537
01/09/2022  13:17:00       60.868      -43.143      -13.666       78.492       57.909       52.166     6161.057     3353.467     2721.334        0.899        0.612       74.607       21.912        0.086      335.407        6.020      871.526
01/09/2022  13:18:00      156.966      -16.143      -25.564       75.521       48.220       34.847     5703.372     2325.158     1214.289        1.740        0.462      157.793       30.433        0.037      334.753        4.932      871.532
01/09/2022  13:19:00       40.686      -89.060      -33.647       39.412       77.790       34.074     1553.326     6051.230     1161.049        0.974        0.438       97.914       23.833        0.059      335.009        5.358      871.527
01/09/2022  13:20:00       14.614      -50.649      -18.601       43.995       32.158       28.916     1935.587     1034.145      836.113        0.346        0.190       52.715       21.178        0.161      335.383        5.981      871.513
01/09/2022  13:21:00        9.602      -17.557      -20.488       41.625       37.351       25.011     1732.605     1395.067      625.531        0.229        0.188       20.011       16.350        0.668      335.336        5.903      871.493
01/09/2022  13:22:00      -19.554      -76.472      -26.597       48.629       49.500       35.270     2364.817     2450.286     1243.974        0.650        0.303       78.932       18.690        0.056      335.407        6.020      871.484
01/09/2022  13:23:00       41.866      -78.473      -27.014       39.025       51.816       34.640     1522.961     2684.909     1199.935        0.702        0.270       88.943       17.763        0.040      335.021        5.379      871.475
01/09/2022  13:24:00       93.277      -18.861      -19.523       79.137       58.070       33.050     6262.634     3372.097     1092.280        1.008        0.536       95.165       26.712        0.079      335.234        5.731      871.490
01/09/2022  13:25:00       42.037        2.462       -3.123       89.019       59.125       38.036     7924.298     3495.771     1446.717        0.732        0.643       42.109       46.592        1.224      335.343        5.915      871.499
01/09/2022  13:26:00      -45.294      -52.225      -29.545       30.391       48.277       25.298      923.632     2330.689      640.013        0.477        0.195       69.130       20.586        0.089      335.434        6.064      871.510
01/09/2022  13:27:00       12.983      -10.334      -10.879       25.034       30.542       22.456      626.722      932.819      504.260        0.123        0.103       16.594       13.664        0.678      335.458        6.105      871.536
01/09/2022  13:28:00       19.419        7.108      -13.261       72.803       39.387       25.300     5300.229     1551.375      640.087        0.405        0.375       20.679       25.135        1.477      335.445        6.085      871.561
01/09/2022  13:29:00       12.670        9.344        2.292       34.466       36.617       26.237     1187.898     1340.825      688.370        0.173        0.161       15.743       16.121        1.049      335.724        6.550      871.567
01/09/2022  13:30:00      -12.216      -40.847      -20.766       30.611       35.907       30.959      937.054     1289.318      958.441        0.272        0.159       42.634       25.327        0.353      335.683        6.481      871.577
01/09/2022  13:31:00      -52.369      -45.225      -35.552       41.755       45.422       26.165     1743.458     2063.168      684.609        0.527        0.225       69.194       14.879        0.046      335.518        6.204      871.585
01/09/2022  13:32:00      -45.685      -14.360       -9.034       45.843       48.761       32.264     2101.550     2377.629     1040.937        0.395        0.276       47.888       32.812        0.469      335.615        6.368      871.586
01/09/2022  13:33:00        0.277       -3.644       -5.810       28.139       27.695       22.624      791.794      767.002      511.828        0.106        0.104        3.655        8.840        5.850      335.896        6.836      871.586
01/09/2022  13:34:00       70.397        6.035      -21.183       46.123       49.632       22.918     2127.339     2463.352      525.219        0.528        0.256       70.655       25.680        0.132      335.079        5.475      871.582
01/09/2022  13:35:00       56.320      -81.827      -18.896       42.585       92.970       38.022     1813.479     8643.422     1445.680        1.106        0.595       99.336       51.928        0.273      335.220        5.708      871.599
01/09/2022  13:36:00       97.294     -177.417      -40.845       25.900       44.350       27.381      670.829     1966.922      749.720        2.300        0.169      202.343       21.983        0.012      334.880        5.143      871.612
01/09/2022  13:37:00       45.298     -128.466      -21.620       40.930       56.373       35.601     1675.272     3177.969     1267.397        1.257        0.306      136.219       28.722        0.044      335.064        5.449      871.608
01/09/2022  13:38:00       31.633      -99.912      -33.616       61.303       90.523       30.107     3758.096     8194.332      906.448        1.248        0.643      104.800       26.125        0.062      335.453        6.097      871.610
01/09/2022  13:39:00       92.601     -180.431      -51.740       49.852       53.953       35.421     2485.212     2910.917     1254.672        2.523        0.333      202.806       24.732        0.015      335.000        5.343      871.609
01/09/2022  13:40:00      -11.041      -27.118       -5.554       54.716       46.621       32.198     2993.865     2173.511     1036.717        0.354        0.310       29.279       22.573        0.594      335.586        6.319      871.592
01/09/2022  13:41:00      -41.028       -3.439        3.793       36.694       44.161       18.883     1346.419     1950.212      356.574        0.268        0.183       41.172       11.626        0.080      335.603        6.347      871.574
01/09/2022  13:42:00       58.340      -26.835      -22.862       99.655       94.697       60.697     9931.201     8967.568     3684.142        1.361        1.129       64.216       46.041        0.514      335.548        6.255      871.569
01/09/2022  13:43:00      137.486      -19.468      -19.842      108.792       88.888       66.221    11835.794     7901.108     4385.257        2.189        1.206      138.857       62.173        0.200      335.356        5.933      871.567
01/09/2022  13:44:00       86.023      -23.029      -39.718       67.095       48.470       31.969     4501.798     2349.383     1022.026        0.869        0.394       89.052       31.696        0.127      334.992        5.330      871.597
01/09/2022  13:45:00       85.051      -97.303      -38.793       51.100       57.189       30.517     2611.236     3270.582      931.258        1.251        0.341      129.235       18.784        0.021      335.124        5.550      871.586
01/09/2022  13:46:00      -43.936      -15.326      -13.615       39.668       32.239       25.473     1573.529     1039.378      648.849        0.281        0.163       46.532       13.155        0.080      335.193        5.664      871.584
01/09/2022  13:47:00        3.309      -42.581      -17.785       33.196       50.769       29.246     1101.995     2577.479      855.321        0.334        0.227       42.710       22.625        0.281      335.575        6.300      871.568
01/09/2022  13:48:00        9.230      -16.151       -3.092       26.431       33.458       16.290      698.599     1119.442      265.373        0.122        0.104       18.603        9.487        0.260      335.614        6.367      871.543
01/09/2022  13:49:00       -7.990      -33.849       -5.217       26.171       23.020       19.088      684.920      529.898      364.346        0.141        0.079       34.779        8.917        0.066      335.642        6.412      871.523
01/09/2022  13:50:00       47.309      -55.840      -15.107       49.617       56.248       29.730     2461.876     3163.785      883.876        0.605        0.325       73.186       24.562        0.113      335.732        6.564      871.500
01/09/2022  13:51:00       87.533       -4.774      -26.039       77.502       72.595       45.491     6006.542     5270.005     2069.448        1.085        0.667       87.663       39.682        0.205      335.551        6.259      871.479
01/09/2022  13:52:00       46.005      -47.310      -22.765       73.517       56.075       37.628     5404.682     3144.378     1415.889        0.742        0.498       65.990       17.843        0.073      335.769        6.623      871.466
01/09/2022  13:53:00       12.261     -123.269      -27.561       77.636       74.632       56.103     6027.345     5569.864     3147.517        1.542        0.737      123.877       54.514        0.194      335.502        6.177      871.453
01/09/2022  13:54:00       83.436      -67.374      -33.991       57.213       91.833       34.941     3273.336     8433.373     1220.889        1.279        0.646      107.242       28.744        0.072      335.290        5.826      871.456
01/09/2022  13:55:00       70.986     -122.362      -35.848       56.003       64.935       41.494     3136.305     4216.606     1721.751        1.518        0.454      141.462       37.925        0.072      335.363        5.947      871.457
01/09/2022  13:56:00       44.476     -193.986      -23.788       51.475       74.752       37.849     2649.670     5587.836     1432.565        2.492        0.484      199.020       36.799        0.034      335.438        6.070      871.460
01/09/2022  13:57:00       63.536     -149.000      -24.939       57.568       87.635       41.949     3314.054     7679.850     1759.724        1.980        0.638      161.981       36.538        0.051      335.691        6.492      871.463
01/09/2022  13:58:00      105.160       22.145      -34.945       77.579       77.886       39.283     6018.562     6066.264     1543.151        1.320        0.681      107.467       13.763        0.016      335.594        6.333      871.476
01/09/2022  13:59:00      -15.438      -20.418      -17.860       62.821       71.155       41.160     3946.484     5063.104     1694.131        0.584        0.535       25.598       37.721        2.172      335.649        6.424      871.494
01/09/2022  14:00:00       61.158      -63.622      -24.286       77.319       56.055       41.333     5978.269     3142.188     1708.419        0.960        0.541       88.250       28.944        0.108      335.572        6.295      871.505
01/09/2022  14:01:00       19.853      -86.443      -23.725       59.113       58.377       37.095     3494.356     3407.826     1376.016        0.835        0.414       88.693       32.543        0.135      335.646        6.419      871.524
01/09/2022  14:02:00       34.923      -90.985      -34.894       57.651       53.082       30.679     3323.670     2817.646      941.178        0.890        0.354       97.457       15.651        0.026      335.462        6.112      871.542
01/09/2022  14:03:00      -11.837      -81.080      -32.772       47.930       60.698       32.022     2297.325     3684.252     1025.383        0.740        0.350       81.940       29.958        0.134      335.748        6.588      871.552
01/09/2022  14:04:00       94.183     -168.075      -34.141       51.202       81.939       36.246     2621.620     6713.933     1313.785        2.447        0.532      192.665       37.331        0.038      335.269        5.789      871.567
01/09/2022  14:05:00       77.925     -212.655      -33.514       60.117       86.845       42.949     3614.011     7542.072     1844.591        3.271        0.650      226.483       48.795        0.046      335.397        6.001      871.590
01/09/2022  14:06:00       57.370     -222.716      -40.277       40.469       43.846       31.962     1637.772     1922.492     1021.562        2.955        0.229      229.986       18.067        0.006      335.145        5.584      871.585
01/09/2022  14:07:00       42.710      -96.381      -26.512       38.576       92.349       23.574     1488.109     8528.372      555.757        1.119        0.529      105.420       28.260        0.072      335.384        5.982      871.598
01/09/2022  14:08:00       -6.681      -26.836       -2.417       69.463       53.650       29.928     4825.121     2878.326      895.707        0.468        0.430       27.655       30.130        1.187      335.878        6.806      871.601
01/09/2022  14:09:00       -0.460     -190.178      -25.196       58.510       49.214       33.242     3423.434     2422.042     1105.046        2.188        0.348      190.178       20.684        0.012      335.608        6.352      871.600
01/09/2022  14:10:00       90.035     -100.039      -26.131       52.821       57.868       26.366     2790.108     3348.657      695.162        1.281        0.342      134.589       27.800        0.043      335.422        6.046      871.612
01/09/2022  14:11:00      132.960       11.965      -15.366       53.230       55.868       33.643     2833.442     3121.182     1131.855        1.257        0.354      133.497       24.404        0.033      335.408        6.022      871.635
01/09/2022  14:12:00      123.605       -7.911      -20.696       84.763       73.125       47.930     7184.794     5347.197     2297.295        1.530        0.741      123.858       43.702        0.124      335.583        6.313      871.638
01/09/2022  14:13:00      138.180      -10.636      -21.313       86.423       50.192       39.784     7468.944     2519.217     1582.745        1.561        0.579      138.588       44.379        0.103      335.381        5.977      871.656
01/09/2022  14:14:00      117.563       28.629      -25.566       55.687       56.169       25.086     3100.993     3154.952      629.308        1.109        0.344      120.999       14.438        0.014      335.595        6.332      871.672
01/09/2022  14:15:00       86.544       -3.285       -8.749       61.562       72.539       38.162     3789.850     5261.936     1456.316        0.904        0.525       86.606       34.394        0.158      335.806        6.684      871.667
01/09/2022  14:16:00      171.636       -3.768      -24.218       84.033       84.077       49.235     7061.595     7068.933     2424.058        2.330        0.828      171.677       38.916        0.051      335.543        6.246      871.668
01/09/2022  14:17:00      154.868       30.062      -13.838       63.425       66.743       39.371     4022.698     4454.620     1550.066        1.755        0.501      157.759       27.048        0.029      335.467        6.120      871.682
01/09/2022  14:18:00       65.566      -40.605      -17.316       54.762       56.815       41.294     2998.891     3227.914     1705.222        0.709        0.397       77.121       29.803        0.149      335.714        6.531      871.683
01/09/2022  14:19:00      143.566      -28.836       -5.838      107.726       86.331       66.381    11604.852     7453.052     4406.399        2.247        1.173      146.433       62.982        0.185      335.356        5.935      871.664
01/09/2022  14:20:00       76.859      -33.476       -3.450       71.274       46.699       39.751     5079.945     2180.803     1580.140        0.794        0.442       83.833       40.266        0.231      335.514        6.198      871.676
01/09/2022  14:21:00       24.924        9.510       -6.772       29.340       27.366       20.530      860.832      748.901      421.475        0.139        0.102       26.677       16.998        0.406      335.404        6.013      871.681
01/09/2022  14:22:00       25.285       19.242      -11.938       48.864       46.349       39.324     2387.724     2148.242     1546.344        0.362        0.304       31.775       23.306        0.538      335.628        6.388      871.683
01/09/2022  14:23:00       71.783      -37.144      -15.225       80.199       53.958       48.450     6431.811     2911.421     2347.401        0.923        0.585       80.824       36.648        0.206      335.737        6.571      871.662
01/09/2022  14:24:00       73.724      -49.960       -7.659       86.072       62.897       52.424     7408.329     3956.056     2748.320        1.105        0.706       89.058       46.566        0.273      335.801        6.675      871.670
01/09/2022  14:25:00      105.217      -24.692      -32.260       89.165       74.862       62.251     7950.342     5604.292     3875.183        1.507        0.871      108.075       46.163        0.182      335.671        6.459      871.679
01/09/2022  14:26:00      100.531      -21.724      -18.399       89.519       63.343       47.395     8013.681     4012.350     2246.274        1.259        0.714      102.851       46.277        0.202      335.582        6.310      871.707
01/09/2022  14:27:00       55.177        3.402      -18.414       47.557       46.971       33.201     2261.629     2206.290     1102.317        0.448        0.279       55.282       29.288        0.281      335.607        6.353      871.720
01/09/2022  14:28:00       82.585       14.120      -13.992       34.410       51.277       28.519     1184.071     2629.320      813.355        0.592        0.231       83.783       12.448        0.022      335.445        6.083      871.727
01/09/2022  14:29:00      146.960       10.215      -15.563       57.365       55.821       37.572     3290.704     3116.004     1411.623        1.488        0.391      147.314       22.813        0.024      335.487        6.152      871.730
01/09/2022  14:30:00       49.826       -6.493      -10.717      109.960       65.740       41.868    12091.113     4321.739     1752.894        1.040        0.908       50.247       26.720        0.283      335.703        6.513      871.727
01/09/2022  14:31:00       30.407       -4.660      -14.126       44.563       49.029       30.985     1985.888     2403.852      960.043        0.325        0.267       30.762       23.334        0.575      335.877        6.804      871.729
01/09/2022  14:32:00       69.524       -1.251      -11.979       53.229       54.484       33.349     2833.369     2968.476     1112.145        0.595        0.346       69.535       23.913        0.118      335.773        6.630      871.721
01/09/2022  14:33:00      120.359      -56.487      -34.909       82.267       71.255       44.859     6767.941     5077.313     2012.356        1.637        0.693      132.955       38.325        0.083      335.727        6.552      871.706
01/09/2022  14:34:00      130.470      -16.783      -28.084       83.292       84.221       62.414     6937.599     7093.234     3895.512        1.801        0.896      131.545       41.707        0.101      335.599        6.339      871.700
01/09/2022  14:35:00       81.611        2.609       -6.978       83.997       49.788       41.846     7055.442     2478.847     1751.107        0.900        0.564       81.653       30.513        0.140      335.588        6.322      871.718
01/09/2022  14:36:00       81.076       69.337      -17.105       35.077       23.068       21.559     1230.382      532.110      464.801        0.695        0.111      106.681       17.056        0.026      335.297        5.837      871.706
01/09/2022  14:37:00       64.480       47.113      -17.048       14.181       12.026       13.745      201.103      144.617      188.936        0.360        0.027       79.858        6.259        0.006      335.254        5.764      871.696
01/09/2022  14:38:00       87.123       42.830      -16.645       19.590       18.156       12.938      383.756      329.646      167.390        0.529        0.044       97.081        6.868        0.005      335.275        5.799      871.680
01/09/2022  14:39:00      101.471       15.404      -21.338       63.747       54.564       25.237     4063.713     2977.241      636.910        0.933        0.384      102.633       18.127        0.031      335.723        6.547      871.663
01/09/2022  14:40:00       14.025       31.630       -8.859       46.115       40.381       31.997     2126.555     1630.659     1023.799        0.303        0.239       34.599       22.831        0.435      335.797        6.669      871.648
01/09/2022  14:41:00       -1.417      -54.823      -21.793       65.701       58.648       35.668     4316.612     3439.591     1272.172        0.625        0.451       54.841       37.215        0.461      335.811        6.693      871.623
01/09/2022  14:42:00       47.674      -46.774      -25.426       55.319       70.777       35.191     3060.174     5009.317     1238.396        0.721        0.465       66.788       19.622        0.086      335.777        6.636      871.603
01/09/2022  14:43:00       36.420       24.354       -7.538       39.881       64.648       32.507     1590.460     4179.349     1056.720        0.440        0.341       43.812       19.577        0.200      335.842        6.746      871.585
01/09/2022  14:44:00      102.841       31.183      -12.438       63.481       54.485       36.358     4029.813     2968.623     1321.909        1.001        0.416      107.465       24.790        0.053      335.710        6.524      871.573
01/09/2022  14:45:00      131.126       -8.210      -18.189       86.234      109.823       49.635     7436.341    12061.099     2463.680        1.977        1.098      131.383       36.288        0.076      335.793        6.660      871.560
01/09/2022  14:46:00      223.318       58.891      -20.236       82.799       66.891       38.360     6855.632     4474.450     1471.455        3.327        0.640      230.952       33.171        0.021      335.519        6.202      871.553
01/09/2022  14:47:00      163.127       68.749      -26.610       98.239       67.377       37.471     9650.833     4539.648     1404.065        2.382        0.780      177.022       19.225        0.012      335.602        6.342      871.552
01/09/2022  14:48:00      165.151       21.266       -4.179      119.920       74.184       50.761    14380.764     5503.241     2576.693        2.510        1.123      166.514       55.595        0.111      335.732        6.559      871.553
01/09/2022  14:49:00      171.995       49.495      -10.906       73.101       54.764       41.519     5343.714     2999.043     1723.818        2.111        0.503      178.975       31.223        0.030      335.438        6.071      871.549
01/09/2022  14:50:00      129.040      -27.091      -15.059       63.646       62.546       29.404     4050.770     3911.974      864.621        1.322        0.441      131.853       20.977        0.025      335.590        6.325      871.551
01/09/2022  14:51:00       58.567        1.806      -12.829       64.506       36.525       34.116     4161.072     1334.109     1163.922        0.513        0.333       58.595       11.929        0.041      335.702        6.511      871.555
01/09/2022  14:52:00      109.239       27.638      -15.637       74.455       64.175       39.571     5543.502     4118.446     1565.902        1.208        0.561      112.681       32.184        0.082      335.745        6.582      871.557
01/09/2022  14:53:00      139.274       17.318      -12.077       72.693       68.538       41.866     5284.206     4697.437     1752.730        1.579        0.587      140.346       29.958        0.046      335.598        6.336      871.557
01/09/2022  14:54:00      202.110       56.974      -32.449      118.157       69.312       45.231    13960.971     4804.156     2045.876        3.298        1.041      209.987       30.631        0.021      335.591        6.324      871.555
01/09/2022  14:55:00      157.942        7.593      -16.074       83.650       67.969       37.131     6997.280     4619.848     1378.697        1.913        0.650      158.124       31.230        0.039      335.674        6.463      871.555
01/09/2022  14:56:00      189.084       44.367      -22.348       59.881       64.745       46.687     3585.758     4191.938     2179.686        2.409        0.498      194.220       11.725        0.004      335.746        6.584      871.546
01/09/2022  14:57:00      226.718       23.822      -12.726      109.088       68.540       53.625    11900.291     4697.777     2875.667        3.580        0.974      227.966       56.682        0.062      335.655        6.431      871.544
01/09/2022  14:58:00      198.288        7.953      -17.405       86.128       64.632       45.864     7418.024     4177.250     2103.500        2.669        0.685      198.448       34.729        0.031      335.656        6.431      871.549
01/09/2022  14:59:00      185.109        2.683      -17.139       53.424       48.445       33.203     2854.176     2346.949     1102.446        2.043        0.315      185.129       23.612        0.016      335.644        6.413      871.574
01/09/2022  15:00:00      138.485       20.585      -13.996       52.423       65.754       25.587     2748.186     4323.646      654.679        1.376        0.386      140.006       16.211        0.013      335.524        6.214      871.587
01/09/2022  15:01:00      121.309       35.587       -5.370       49.353       33.242       28.170     2435.676     1105.021      793.532        1.017        0.217      126.421       25.126        0.040      335.503        6.181      871.591
01/09/2022  15:02:00      164.879       44.194      -13.831       48.280       29.802       24.212     2331.002      888.162      586.199        1.657        0.190      170.699       26.049        0.023      335.471        6.127      871.588
01/09/2022  15:03:00      150.954       75.197      -15.911       28.636       26.414       16.833      820.012      697.690      283.337        1.525        0.090      168.646       12.900        0.006      335.569        6.291      871.583
01/09/2022  15:04:00      107.272       33.678      -11.464       33.909       39.270       27.244     1149.833     1542.124      742.229        0.810        0.172      112.434        9.637        0.007      335.566        6.285      871.590
01/09/2022  15:05:00      171.217       80.198      -13.316       44.250       43.592       33.446     1958.055     1900.250     1118.639        2.045        0.249      189.068       22.543        0.014      335.444        6.081      871.596
01/09/2022  15:06:00      101.920       67.321      -14.225       65.828       37.289       31.199     4333.277     1390.474      973.383        1.091        0.335      122.147       16.957        0.019      335.551        6.261      871.611
01/09/2022  15:07:00      167.543       55.933      -22.668       51.923       46.373       29.162     2696.016     2150.409      850.397        1.870        0.285      176.633       12.406        0.005      335.663        6.447      871.625
01/09/2022  15:08:00      110.114      -25.201      -15.717       55.813       55.181       42.650     3115.097     3044.936     1819.065        1.049        0.399      112.961       32.310        0.082      335.716        6.535      871.633
01/09/2022  15:09:00       94.057      -33.898      -19.551       49.492       57.339       27.504     2449.468     3287.792      756.454        0.843        0.325       99.979       20.865        0.044      335.757        6.604      871.646
01/09/2022  15:10:00       78.837      -76.885      -38.618       30.585       32.535       19.954      935.465     1058.555      398.143        0.800        0.120      110.121       11.731        0.011      335.708        6.521      871.647
01/09/2022  15:11:00       50.176      -48.846      -17.453       32.386       45.587       32.220     1048.849     2078.155     1038.109        0.469        0.208       70.025       15.625        0.050      335.771        6.625      871.635
01/09/2022  15:12:00       59.199     -100.418      -24.380       49.241       67.346       36.871     2424.631     4535.457     1359.488        1.125        0.416      116.569       38.522        0.109      335.773        6.632      871.616
01/09/2022  15:13:00       85.979     -112.421      -34.861       43.369       45.579       29.762     1880.862     2077.429      885.767        1.304        0.242      141.531       25.218        0.032      335.691        6.493      871.593
01/09/2022  15:14:00       71.980      -23.779      -30.954       52.144       61.799       33.892     2718.961     3819.064     1148.694        0.719        0.384       75.806       18.006        0.056      335.765        6.615      871.564
01/09/2022  15:15:00      101.901       21.761      -11.013       31.922       27.442       18.170     1019.017      753.081      330.167        0.654        0.105      104.198       14.817        0.020      335.576        6.303      871.561
01/09/2022  15:16:00       26.061      -22.290        2.887       19.995       23.967       20.025      399.797      574.423      400.988        0.128        0.069       34.293       15.978        0.217      335.817        6.703      871.565
01/09/2022  15:17:00        2.792       -9.983      -14.939       16.945       16.817       15.219      287.135      282.800      231.612        0.057        0.040       10.366        3.859        0.139      335.873        6.797      871.574
01/09/2022  15:18:00        0.667      -14.453      -26.286       25.471       24.170       27.502      648.794      584.189      756.380        0.144        0.099       14.469       14.622        1.021      335.862        6.778      871.592
01/09/2022  15:19:00      -12.647      -12.396      -10.289       13.262       18.978       16.862      175.872      360.152      284.315        0.062        0.041       17.709        5.167        0.085      336.045        7.085      871.634
01/09/2022  15:20:00       11.638       39.064       -9.114       30.229       32.196       17.751      913.821     1036.554      315.105        0.200        0.113       40.761       12.023        0.087      335.861        6.776      871.666
01/09/2022  15:21:00        9.538       11.316       -6.107       19.532       21.991       13.750      381.497      483.597      189.049        0.066        0.053       14.800        6.536        0.195      335.832        6.727      871.677
01/09/2022  15:22:00       23.797       -6.017      -13.982       15.651       11.681        9.685      244.963      136.449       93.795        0.064        0.024       24.546        8.580        0.122      335.774        6.631      871.672
01/09/2022  15:23:00       18.572       -8.511       -1.040       21.097       25.389       14.080      445.086      644.605      198.260        0.085        0.064       20.429        9.932        0.236      335.987        6.986      871.650
01/09/2022  15:24:00       17.740      -10.173      -13.697       19.453       20.452       15.791      378.437      418.296      249.371        0.083        0.052       20.449       14.348        0.492      335.990        6.991      871.629
01/09/2022  15:25:00       33.862       -7.673      -22.786       37.512       47.489       23.663     1407.139     2255.244      559.960        0.297        0.211       34.721       16.625        0.229      335.920        6.875      871.614
01/09/2022  15:26:00       56.745      -60.847      -23.592       39.867       40.728       26.359     1589.356     1658.808      694.803        0.571        0.197       83.201       15.649        0.035      335.882        6.811      871.611
01/09/2022  15:27:00       -8.300      -28.795      -16.329       45.978       51.129       26.341     2113.943     2614.204      693.827        0.329        0.271       29.967       22.241        0.551      336.124        7.215      871.633
01/09/2022  15:28:00       39.492      -80.551      -13.788       25.961       52.280       25.445      673.988     2733.249      647.465        0.615        0.203       89.711       25.759        0.082      335.982        6.978      871.668
01/09/2022  15:29:00       32.113      -76.272      -13.878       27.784       42.230       25.556      771.967     1783.411      653.135        0.512        0.160       82.757       23.480        0.081      336.064        7.115      871.697
01/09/2022  15:30:00       76.238       -5.821       -1.341       63.134       66.075       46.748     3985.879     4365.910     2185.344        0.819        0.527       76.460       35.384        0.214      335.962        6.945      871.724
01/09/2022  15:31:00       85.801      -69.994      -22.266       69.767      103.273       40.652     4867.392    10665.332     1652.610        1.497        0.859      110.730       26.790        0.059      335.857        6.770      871.763
01/09/2022  15:32:00       73.896     -233.074      -49.158       47.797       45.167       33.450     2284.523     2040.042     1118.876        3.382        0.272      244.508       16.982        0.005      335.720        6.535      871.798
01/09/2022  15:33:00       73.568     -174.369      -46.280       38.220       61.539       34.531     1460.806     3787.103     1192.364        2.220        0.322      189.253       11.419        0.004      335.769        6.622      871.836
01/09/2022  15:34:00       36.965      -42.412      -22.620       36.131       56.054       25.755     1305.428     3142.096      663.335        0.439        0.256       56.260       17.561        0.097      335.853        6.764      871.868
01/09/2022  15:35:00       -4.443      -62.059      -14.325       46.715       49.526       30.898     2182.284     2452.862      954.707        0.483        0.279       62.217       23.914        0.148      336.027        7.054      871.884
01/09/2022  15:36:00      -18.300      -27.915       -7.063       41.891       39.151       28.323     1754.853     1532.773      802.167        0.263        0.204       33.379       18.464        0.306      336.218        7.371      871.890
01/09/2022  15:37:00       -3.964      -35.787      -26.731       38.959       30.315       19.414     1517.796      918.981      376.919        0.241        0.141       36.006       12.910        0.129      336.116        7.201      871.894
01/09/2022  15:38:00       51.230     -118.546      -26.979       33.317       26.345       24.227     1110.023      694.053      586.936        0.990        0.120      129.142       12.695        0.010      335.834        6.731      871.908
01/09/2022  15:39:00       35.165      -13.254      -14.883       43.101       26.079       10.742     1857.669      680.093      115.393        0.214        0.133       37.580        8.314        0.049      335.893        6.830      871.923
01/09/2022  15:40:00       16.250      -12.592       -8.795       18.677       23.472       14.661      348.844      550.931      214.940        0.081        0.056       20.558        7.850        0.146      336.082        7.146      871.950
01/09/2022  15:41:00       17.843       26.546      -10.187       22.642       16.937       12.760      512.650      286.872      162.823        0.104        0.048       31.986       10.091        0.100      335.917        6.871      871.977
01/09/2022  15:42:00       26.508        2.215       -3.341       31.515       43.160       20.988      993.213     1862.772      440.514        0.201        0.165       26.600        8.890        0.112      335.947        6.921      871.986
01/09/2022  15:43:00       45.283      -37.959      -30.868       30.213       32.991       25.118      912.819     1088.410      630.932        0.354        0.132       59.089       20.728        0.123      335.903        6.847      871.983
01/09/2022  15:44:00       28.523      -31.344      -34.837       31.523       42.788       20.835      993.699     1830.783      434.115        0.313        0.163       42.379       11.500        0.074      336.092        7.162      871.984
01/09/2022  15:45:00       44.195       -6.187       -0.699       42.739       24.100       25.906     1826.637      580.815      671.113        0.253        0.154       44.626       16.587        0.138      336.033        7.064      871.973
01/09/2022  15:46:00       61.541      -36.933       -9.533       41.021       37.555       35.183     1682.700     1410.369     1237.836        0.479        0.217       71.773       28.323        0.156      335.937        6.904      871.954
01/09/2022  15:47:00       57.756      -15.027       -9.939       33.215       26.177       19.820     1103.267      685.244      392.821        0.292        0.109       59.679       16.212        0.074      335.865        6.783      871.933
01/09/2022  15:48:00       58.143      -13.183      -15.828       39.381       32.470       19.315     1550.888     1054.295      373.088        0.339        0.149       59.618       19.524        0.107      335.934        6.897      871.919
01/09/2022  15:49:00       94.243      -12.321      -14.578       61.357       24.453       19.546     3764.739      597.926      382.048        0.699        0.237       95.045        8.790        0.009      335.842        6.745      871.909
01/09/2022  15:50:00       54.015      -51.247      -17.361       31.689       29.512       18.032     1004.220      870.968      325.155        0.402        0.110       74.457       15.397        0.043      335.844        6.749      871.916
01/09/2022  15:51:00       34.351      -78.557      -15.758       19.039       27.059       14.043      362.496      732.216      197.216        0.445        0.065       85.739       12.038        0.020      335.810        6.690      871.938
01/09/2022  15:52:00       25.772      -16.552      -13.089       22.346       37.952       24.146      499.365     1440.346      583.030        0.182        0.126       30.630       16.275        0.282      336.065        7.118      871.965
01/09/2022  15:53:00       25.072      -40.981      -18.642       31.356       47.431       30.679      983.204     2249.703      941.188        0.341        0.209       48.042       22.368        0.217      336.035        7.067      871.985
01/09/2022  15:54:00       77.736     -104.520      -31.348       51.249       43.765       30.379     2626.430     1915.363      922.910        1.171        0.273      130.259       29.198        0.050      335.976        6.968      872.000
01/09/2022  15:55:00      136.493     -156.011      -50.883       71.186       74.436       48.341     5067.398     5540.734     2336.865        2.925        0.647      207.292       46.664        0.051      335.873        6.793      871.991
01/09/2022  15:56:00      158.992     -197.392      -49.986       65.340       75.052       42.416     4269.259     5632.850     1799.086        3.922        0.585      253.461       35.256        0.019      335.811        6.689      871.964
01/09/2022  15:57:00      169.274      -41.834      -21.992       98.503       85.620       52.602     9702.916     7330.864     2766.919        2.534        0.990      174.367       51.800        0.088      335.833        6.728      871.944
01/09/2022  15:58:00      161.749      -30.189      -40.398      104.525       90.124       59.702    10925.432     8122.334     3564.312        2.565        1.131      164.542       46.176        0.079      335.830        6.723      871.917
01/09/2022  15:59:00      102.967        8.383      -30.367       97.610       86.780       53.392     9527.617     7530.725     2850.742        1.575        0.995      103.308       49.832        0.233      335.785        6.648      871.920
01/09/2022  16:00:00      107.126      -36.039       -6.588       67.461       55.520       49.667     4550.999     3082.517     2466.822        1.146        0.505      113.025       41.834        0.137      335.808        6.688      871.936
01/09/2022  16:01:00       37.322       -3.653        1.766       63.031       60.446       42.885     3972.894     3653.663     1839.113        0.544        0.473       37.501       34.606        0.852      335.865        6.784      871.954
01/09/2022  16:02:00       69.792      -14.837       -9.990       69.427       49.012       31.035     4820.050     2402.175      963.173        0.669        0.409       71.352       30.614        0.184      335.804        6.682      871.963
01/09/2022  16:03:00       81.419      -11.614      -11.343       66.900       62.819       48.142     4475.613     3946.192     2317.700        0.881        0.537       82.243       36.883        0.201      335.788        6.655      871.968
01/09/2022  16:04:00      155.988      -45.189      -15.001       76.832       67.850       46.556     5903.202     4603.644     2167.432        1.963        0.634      162.402       39.038        0.058      335.659        6.437      871.970
01/09/2022  16:05:00       50.083      -18.568       -6.698       81.331       63.005       50.426     6614.725     3969.641     2542.780        0.801        0.656       53.415       46.003        0.742      335.733        6.561      871.970
01/09/2022  16:06:00       54.713      -18.259      -16.619      107.792       61.118       40.612    11619.086     3735.431     1649.331        1.030        0.850       57.679       48.759        0.715      335.844        6.747      871.975
01/09/2022  16:07:00       89.280     -150.458      -34.764       88.302      142.323       38.034     7797.233    20255.826     1446.614        3.065        1.475      174.952       53.208        0.092      335.753        6.592      871.983
01/09/2022  16:08:00      138.661     -244.029      -51.042       80.519       83.877       47.082     6483.385     7035.427     2216.746        4.856        0.787      280.672       40.115        0.020      335.706        6.515      871.970
01/09/2022  16:09:00      100.302     -322.033      -47.398       50.330       74.856       39.733     2533.157     5603.436     1578.686        6.286        0.486      337.292       31.349        0.009      335.686        6.480      871.960
01/09/2022  16:10:00      156.438     -290.550      -58.430       57.718       68.986       36.545     3331.333     4759.051     1335.531        6.086        0.471      329.988       30.638        0.009      335.642        6.407      871.955
01/09/2022  16:11:00       99.087     -278.123      -36.138       34.105       60.156       37.587     1163.118     3618.773     1412.788        4.733        0.310      295.247       24.440        0.007      335.641        6.404      871.975
01/09/2022  16:12:00      143.053     -132.569      -46.736       72.453       71.116       39.031     5249.413     5057.491     1523.409        2.602        0.592      195.035       43.869        0.051      335.703        6.510      871.999
01/09/2022  16:13:00      149.391      -94.174      -36.024       78.450       73.767       52.235     6154.390     5441.578     2728.447        2.340        0.716      176.597       48.884        0.077      335.693        6.493      872.029
01/09/2022  16:14:00      119.048      -32.211      -20.977       85.206       81.153       52.284     7260.136     6585.862     2733.588        1.611        0.829      123.329       42.151        0.117      335.623        6.378      872.052
01/09/2022  16:15:00      106.662      -18.319      -13.102       87.138       73.075       50.565     7593.039     5339.907     2556.784        1.368        0.774      108.223       30.486        0.079      335.599        6.339      872.073
01/09/2022  16:16:00      137.284     -110.225      -34.078       91.494      113.594       41.692     8371.166    12903.498     1738.226        2.758        1.151      176.058       16.039        0.008      335.553        6.260      872.066
01/09/2022  16:17:00      117.557      -87.341      -38.436       67.126       74.207       51.254     4505.885     5506.650     2626.954        1.778        0.632      146.452       40.786        0.078      335.601        6.341      872.064
01/09/2022  16:18:00       73.991       -9.013      -23.367       63.121       51.168       39.914     3984.249     2618.127     1593.094        0.715        0.410       74.538       18.725        0.063      335.578        6.305      872.064
01/09/2022  16:19:00      189.180      -56.457      -16.936      105.988       68.801       55.837    11233.493     4733.543     3117.752        2.917        0.954      197.424       47.161        0.057      335.523        6.211      872.048
01/09/2022  16:20:00      101.161      -14.622      -21.549      105.649       88.569       67.378    11161.744     7844.476     4539.811        1.722        1.177      102.212       59.944        0.344      335.543        6.245      872.037
01/09/2022  16:21:00       42.674      -39.243      -23.214       71.684       47.560       37.248     5138.620     2261.940     1387.393        0.634        0.439       57.975       33.217        0.328      335.642        6.410      872.054
01/09/2022  16:22:00       59.446      -83.718      -31.495       55.640       55.012       43.733     3095.772     3026.286     1912.604        0.978        0.402      102.677       31.086        0.092      335.655        6.432      872.073
01/09/2022  16:23:00      156.827      -51.693      -20.719      117.013       61.216       60.212    13691.952     3747.457     3625.543        2.438        1.053      165.126       64.558        0.153      335.518        6.203      872.079
01/09/2022  16:24:00      203.478     -152.815      -37.465      103.403      102.226       61.363    10692.152    10450.159     3765.471        4.553        1.245      254.471       55.124        0.047      335.512        6.192      872.086
01/09/2022  16:25:00      112.623      -48.658      -14.210       99.579       85.682       69.619     9916.075     7341.320     4846.826        1.867        1.105      122.685       38.432        0.098      335.466        6.119      872.120
01/09/2022  16:26:00      141.103      -24.386      -15.068      115.427      103.230       75.054    13323.451    10656.469     5633.050        2.517        1.481      143.194       64.180        0.201      335.422        6.046      872.117
01/09/2022  16:27:00      169.526      -57.502      -19.189      125.109       90.562       75.444    15652.328     8201.516     5691.731        3.097        1.477      179.013       65.993        0.136      335.404        6.012      872.114
01/09/2022  16:28:00      110.388      -17.894       -4.489      106.984       79.277       67.202    11445.587     6284.828     4516.050        1.738        1.112      111.829       56.275        0.253      335.404        6.014      872.109
01/09/2022  16:29:00       93.003      -20.688      -10.067      101.075       74.560       57.963    10216.088     5559.258     3359.737        1.415        0.957       95.276       48.413        0.258      335.362        5.944      872.119
01/09/2022  16:30:00       81.873      -19.064      -11.407       93.630       68.217       55.420     8766.554     4653.574     3071.352        1.184        0.825       84.064       44.301        0.278      335.317        5.869      872.120
01/09/2022  16:31:00      179.925      -78.175      -19.070       79.486       71.379       49.279     6318.041     5094.906     2428.407        2.634        0.692      196.175       35.336        0.032      335.359        5.936      872.128
01/09/2022  16:32:00      103.025      -43.630      -24.831       51.018       87.093       37.420     2602.805     7585.199     1400.228        1.236        0.579      111.883       30.845        0.076      335.436        6.069      872.151
01/09/2022  16:33:00      104.832      -38.153      -16.885       57.281       54.376       46.860     3281.109     2956.705     2195.818        1.058        0.422      111.558       40.163        0.130      335.389        5.989      872.161
01/09/2022  16:34:00      120.756      -41.456      -16.043       66.673       61.049       42.993     4445.322     3727.001     1848.400        1.329        0.501      127.674       29.190        0.052      335.300        5.840      872.181
01/09/2022  16:35:00      133.420      -45.914       -2.024      106.834       66.674       49.322    11413.489     4445.387     2432.684        1.910        0.915      141.099       50.531        0.128      335.297        5.835      872.183
01/09/2022  16:36:00      170.274      -64.404      -15.838      107.010       90.107       63.592    11451.078     8119.228     4043.915        2.850        1.181      182.046       58.910        0.105      335.311        5.858      872.188
01/09/2022  16:37:00      142.732      -82.778      -43.887       79.098       90.462       49.845     6256.474     8183.396     2484.478        2.303        0.846      164.999       33.335        0.041      335.354        5.928      872.189
01/09/2022  16:38:00       94.752      -17.205      -15.377       77.749       66.045       41.582     6044.951     4361.934     1729.062        1.082        0.607       96.302       28.147        0.085      335.362        5.945      872.196
01/09/2022  16:39:00       90.145      -27.929      -33.482       65.601       86.095       42.385     4303.453     7412.388     1796.529        1.177        0.676       94.373       17.838        0.036      335.306        5.851      872.209
01/09/2022  16:40:00      121.310      -34.178      -30.313       86.906       61.328       48.266     7552.695     3761.173     2329.565        1.522        0.682      126.033       44.449        0.124      335.264        5.781      872.205
01/09/2022  16:41:00      116.507      -43.514      -11.771       54.413       56.144       40.415     2960.824     3152.137     1633.406        1.167        0.387      124.368       35.380        0.081      335.159        5.609      872.221
01/09/2022  16:42:00      118.994      -19.035        0.552       61.785       47.482       30.516     3817.377     2254.539      931.248        1.076        0.350      120.507       30.210        0.063      335.137        5.572      872.243
01/09/2022  16:43:00      162.291      -22.056      -13.339       47.776       43.016       31.215     2282.547     1850.361      974.371        1.605        0.255      163.783       25.366        0.024      335.129        5.558      872.242
01/09/2022  16:44:00      112.487      -39.092      -10.553       68.400       61.403       38.020     4678.535     3770.351     1445.518        1.209        0.495      119.086       33.512        0.079      335.156        5.603      872.248
01/09/2022  16:45:00      109.808       -6.157      -12.322       73.623       84.366       46.549     5420.361     7117.667     2166.835        1.347        0.735      109.980       28.162        0.066      335.174        5.632      872.246
01/09/2022  16:46:00      150.833      -35.600       -7.184       63.305       65.679       45.919     4007.520     4313.737     2108.566        1.725        0.521      154.978       20.017        0.017      335.069        5.458      872.229
01/09/2022  16:47:00      105.465       -8.838      -12.258       56.210       57.963       38.184     3159.527     3359.739     1457.985        0.966        0.399      105.835       27.549        0.068      335.042        5.413      872.224
01/09/2022  16:48:00       82.616        3.129        9.693       79.712       68.509       47.603     6354.022     4693.519     2266.082        1.012        0.666       82.676       36.153        0.191      335.050        5.427      872.216
01/09/2022  16:49:00      148.968      -36.190       -2.929       82.635       53.027       44.202     6828.538     2811.814     1953.798        1.755        0.580      153.301       40.312        0.069      335.045        5.419      872.225
01/09/2022  16:50:00      111.699      -22.620       -8.257       84.484       50.244       46.436     7137.547     2524.501     2156.332        1.244        0.591      113.966       47.432        0.173      335.018        5.375      872.241
01/09/2022  16:51:00      167.008      -45.976      -10.472       66.432       64.054       38.516     4413.257     4102.854     1483.509        2.006        0.500      173.221       25.945        0.022      335.026        5.386      872.261
01/09/2022  16:52:00       68.675       -6.732        1.769       77.986       55.136       39.907     6081.867     3039.978     1592.532        0.774        0.536       69.004       39.989        0.336      334.988        5.324      872.280
01/09/2022  16:53:00       91.485      -37.541       -4.608       59.294       43.181       39.452     3515.727     1864.577     1556.488        0.837        0.347       98.887       34.978        0.125      335.006        5.356      872.306
01/09/2022  16:54:00       39.274      -14.478      -13.012       38.140       52.107       29.603     1454.646     2715.099      876.361        0.348        0.252       41.857       15.280        0.133      335.013        5.366      872.330
01/09/2022  16:55:00      112.295      -17.398      -14.762       46.892       45.422       31.508     2198.827     2063.135      992.751        0.919        0.263      113.635       22.474        0.039      335.004        5.352      872.347
01/09/2022  16:56:00      180.615       -5.932      -21.430       67.940       81.800       50.439     4615.817     6691.269     2544.104        2.348        0.693      180.713       38.195        0.045      335.089        5.489      872.362
01/09/2022  16:57:00      130.662      -21.902      -12.405       76.076       47.725       46.160     5787.623     2277.667     2130.710        1.395        0.510      132.485       36.463        0.076      335.075        5.469      872.363
01/09/2022  16:58:00      125.144      -44.651      -14.146       74.146       79.518       47.814     5497.582     6323.164     2286.212        1.598        0.705      132.871       35.940        0.073      335.083        5.482      872.371
01/09/2022  16:59:00      146.475      -61.632      -19.318      104.521       90.306       51.932    10924.690     8155.139     2696.889        2.370        1.089      158.913       45.013        0.080      335.014        5.367      872.352
01/09/2022  17:00:00       76.553     -122.908      -35.115       65.333       88.805       49.936     4268.432     7886.289     2493.554        1.842        0.732      144.799       36.890        0.065      334.991        5.329      872.356
01/09/2022  17:01:00      136.139     -124.140      -19.328      100.927       74.497       54.555    10186.181     5549.780     2976.264        2.651        0.936      184.240       47.086        0.065      335.096        5.503      872.365
01/09/2022  17:02:00       69.824      -44.610      -26.944       67.039       75.454       43.948     4494.265     5693.287     1931.437        0.985        0.606       82.858       31.491        0.144      335.056        5.437      872.382
01/09/2022  17:03:00       99.536      -41.028      -23.558       73.584       88.257       41.307     5414.635     7789.259     1706.309        1.353        0.746      107.660       18.022        0.028      335.009        5.359      872.400
01/09/2022  17:04:00       82.949      -86.648      -24.124       54.488       48.911       37.386     2968.952     2392.282     1397.750        1.086        0.338      119.952       23.932        0.040      335.095        5.502      872.442
01/09/2022  17:05:00       71.525      -30.852      -28.352       50.966       63.477       36.224     2597.571     4029.344     1312.149        0.740        0.397       77.895        8.419        0.012      335.083        5.484      872.455
01/09/2022  17:06:00      101.902      -37.056       -8.958       86.537       78.255       42.399     7488.663     6123.769     1797.689        1.362        0.771      108.430       42.132        0.151      335.027        5.389      872.456
01/09/2022  17:07:00       50.549      -27.070      -13.015       71.907       67.796       45.745     5170.682     4596.365     2092.620        0.766        0.593       57.341       36.802        0.412      334.974        5.300      872.455
01/09/2022  17:08:00       54.668      -44.042       -9.707       54.997       60.591       48.865     3024.638     3671.239     2387.748        0.705        0.454       70.202       35.666        0.258      335.005        5.353      872.448
01/09/2022  17:09:00       83.176      -39.141      -34.871       45.445       59.615       39.689     2065.287     3554.002     1575.183        0.843        0.360       91.925       27.149        0.087      334.984        5.318      872.450
01/09/2022  17:10:00      112.416      -30.805      -28.317       74.958       71.204       32.338     5618.644     5070.030     1045.733        1.306        0.587      116.560       21.243        0.033      335.023        5.382      872.445
01/09/2022  17:11:00       77.592       -6.796       -9.395       73.328       56.996       34.861     5377.069     3248.498     1215.298        0.800        0.492       77.889       24.947        0.103      334.929        5.226      872.435
01/09/2022  17:12:00       53.940      -17.085      -12.161       57.010       37.996       29.334     3250.195     1443.682      860.474        0.445        0.278       56.581       22.988        0.165      334.874        5.135      872.433
01/09/2022  17:13:00       84.827      -74.683      -34.121       59.031       57.823       37.805     3484.686     3343.471     1429.200        1.110        0.413      113.018       33.248        0.087      334.892        5.164      872.435
01/09/2022  17:14:00       95.081     -141.383      -36.909       42.395       60.992       28.984     1797.374     3720.016      840.084        1.837        0.318      170.380       17.821        0.011      335.004        5.350      872.450
01/09/2022  17:15:00       66.440      -50.535      -30.028       55.829       43.218       29.067     3116.886     1867.755      844.881        0.685        0.291       83.475       25.887        0.096      334.996        5.339      872.488
01/09/2022  17:16:00       19.061      -59.085      -19.094       42.596       42.973       29.751     1814.420     1846.709      885.152        0.438        0.227       62.084        6.006        0.009      335.072        5.464      872.517
01/09/2022  17:17:00       70.443     -113.088      -26.585       41.010       49.327       26.590     1681.834     2433.195      707.020        1.164        0.241      133.233       20.166        0.023      335.028        5.390      872.529
01/09/2022  17:18:00       44.890      -82.815      -19.252       36.250       47.703       26.781     1314.078     2275.583      717.197        0.677        0.215       94.199       17.174        0.033      335.017        5.372      872.532
01/09/2022  17:19:00       85.690      -96.568      -20.387       66.258       63.068       36.648     4390.118     3977.618     1343.101        1.340        0.486      129.105       41.300        0.102      334.976        5.305      872.542
01/09/2022  17:20:00       30.369      -45.550      -30.308       33.779       34.599       30.946     1141.009     1197.059      957.672        0.361        0.165       54.746       25.673        0.220      334.989        5.326      872.550
01/09/2022  17:21:00       38.296      -34.466      -16.488       33.642       33.543       24.108     1131.756     1125.109      581.212        0.288        0.142       51.522       14.444        0.079      334.961        5.281      872.562
01/09/2022  17:22:00       51.929     -109.659      -21.010       44.780       42.792       33.425     2005.208     1831.138     1117.242        1.006        0.248      121.333       25.549        0.044      335.056        5.436      872.569
01/09/2022  17:23:00       85.457     -114.413      -36.341       30.721       38.735       20.657      943.784     1500.434      426.697        1.229        0.144      142.804       19.759        0.019      335.025        5.384      872.574
01/09/2022  17:24:00       71.787      -99.384      -26.324       36.157       57.688       29.331     1307.325     3327.900      860.304        1.061        0.275      122.599       30.052        0.060      335.030        5.394      872.581
01/09/2022  17:25:00       50.857      -83.020      -19.586       34.755       46.062       28.809     1207.934     2121.714      829.930        0.701        0.208       97.359       22.269        0.052      334.974        5.301      872.585
01/09/2022  17:26:00       80.856     -138.682      -29.090       32.587       49.552       30.418     1061.912     2455.393      925.279        1.553        0.222      160.531       25.185        0.025      334.959        5.275      872.591
01/09/2022  17:27:00       79.653      -69.198      -37.598       30.491       38.184       19.797      929.727     1458.005      391.924        0.766        0.139      105.513       16.015        0.023      334.890        5.163      872.597
01/09/2022  17:28:00       64.634     -126.540      -35.278       29.475       34.965       19.042      868.763     1222.521      362.612        1.194        0.123      142.091       12.423        0.008      334.909        5.193      872.594
01/09/2022  17:29:00       70.201     -123.893      -25.254       32.539       44.119       25.903     1058.808     1946.505      670.952        1.230        0.184      142.400       16.092        0.013      334.848        5.093      872.586
01/09/2022  17:30:00       59.028      -31.063      -30.141       31.653       53.938       29.005     1001.930     2909.297      841.273        0.505        0.238       66.703       18.896        0.080      334.733        4.900      872.570
01/09/2022  17:31:00       34.240       -0.811      -11.537       37.943       36.013       33.109     1439.645     1296.943     1096.176        0.257        0.192       34.250       22.142        0.418      334.694        4.835      872.562
01/09/2022  17:32:00       63.704      -16.672      -20.722       63.252       46.089       35.318     4000.828     2124.233     1247.396        0.607        0.369       65.849       30.764        0.218      334.697        4.839      872.555
01/09/2022  17:33:00       71.295      -20.042      -28.564       42.646       51.323       29.479     1818.707     2634.036      869.001        0.581        0.266       74.058       25.842        0.122      334.642        4.749      872.558
01/09/2022  17:34:00       60.163       -4.528      -15.405       55.644       57.185       35.191     3096.242     3270.092     1238.384        0.574        0.380       60.333       25.380        0.177      334.682        4.817      872.565
01/09/2022  17:35:00       93.421      -15.181      -24.102       65.342       61.818       42.077     4269.621     3821.489     1770.456        0.970        0.493       94.646       28.444        0.090      334.698        4.842      872.577
01/09/2022  17:36:00       49.891        7.054       -4.497       52.541       33.554       36.248     2760.555     1125.892     1313.929        0.388        0.260       50.388       29.722        0.348      334.551        4.597      872.582
01/09/2022  17:37:00       45.852        1.414      -14.266       37.743       44.629       32.349     1424.499     1991.717     1046.437        0.338        0.223       45.874       20.921        0.208      334.607        4.689      872.586
01/09/2022  17:38:00       69.970      -21.527      -12.373       67.165       36.993       37.835     4511.112     1368.496     1431.454        0.641        0.366       73.207       36.774        0.252      334.576        4.637      872.600
01/09/2022  17:39:00       20.031        1.507       -1.805       38.711       40.658       32.072     1498.572     1653.065     1028.622        0.229        0.209       20.088       19.436        0.936      334.625        4.719      872.591
01/09/2022  17:40:00      101.898      -74.399      -26.059       33.421       37.322       28.217     1116.963     1392.944      796.205        0.995        0.165      126.169       24.063        0.036      334.689        4.827      872.584
01/09/2022  17:41:00       42.897      -40.906      -12.624       36.378       48.287       21.144     1323.369     2331.651      447.067        0.389        0.205       59.275       25.721        0.188      334.614        4.702      872.579
01/09/2022  17:42:00       71.894      -79.055      -27.001       30.946       34.773       15.739      957.637     1209.191      247.731        0.728        0.121      106.857       11.813        0.012      334.675        4.805      872.570
01/09/2022  17:43:00       57.311      -46.346      -25.217       28.152       38.886       20.185      792.538     1512.134      407.440        0.439        0.136       73.705       10.067        0.019      334.632        4.730      872.573
01/09/2022  17:44:00       64.809      -55.899      -20.576       21.643       35.921       23.776      468.435     1290.290      565.283        0.504        0.116       85.586       22.136        0.067      334.651        4.764      872.585
01/09/2022  17:45:00       70.327      -73.153      -28.493       34.259       56.633       23.325     1173.649     3207.341      544.067        0.802        0.246      101.476       16.473        0.026      334.663        4.782      872.607
01/09/2022  17:46:00       50.335      -98.330      -15.719       33.462       53.266       28.778     1119.695     2837.286      828.180        0.862        0.239      110.465       28.217        0.065      334.768        4.958      872.617
01/09/2022  17:47:00       67.204     -109.655      -27.013       39.775       45.592       25.723     1582.067     2078.596      661.681        1.080        0.216      128.611       26.549        0.043      334.728        4.894      872.621
01/09/2022  17:48:00       16.137      -46.012       -4.900       41.642       52.364       36.918     1734.033     2741.991     1362.938        0.412        0.292       48.760       30.745        0.398      334.748        4.926      872.628
01/09/2022  17:49:00       44.074      -79.660      -18.167       45.449       55.189       36.638     2065.656     3045.786     1342.367        0.753        0.323       91.040       28.746        0.100      334.816        5.039      872.633
01/09/2022  17:50:00       -0.112        2.378       -1.532       24.168       15.937       20.676      584.081      253.972      427.481        0.064        0.063        2.381       14.256       35.859      334.655        4.769      872.638
01/09/2022  17:51:00       19.823      -51.595      -29.060       30.250       40.880       24.678      915.092     1671.173      609.009        0.355        0.160       55.272       11.311        0.042      334.765        4.953      872.649
01/09/2022  17:52:00       14.307      -14.006       -9.031       34.168       56.815       27.586     1167.452     3227.939      760.971        0.282        0.258       20.022       23.012        1.321      334.581        4.648      872.666
01/09/2022  17:53:00       49.849      -91.746      -14.807       45.294       63.803       29.142     2051.511     4070.868      849.253        0.905        0.349      104.414       30.139        0.083      334.611        4.697      872.689
01/09/2022  17:54:00       25.295      -31.917        1.375       30.932       43.641       28.373      956.778     1904.573      805.038        0.266        0.183       40.725       15.030        0.136      334.573        4.634      872.700
01/09/2022  17:55:00       67.571     -135.118      -25.412       37.520       43.967       28.181     1407.731     1933.070      794.172        1.380        0.207      151.072       20.936        0.019      334.670        4.795      872.710
01/09/2022  17:56:00       85.114      -88.985      -30.214       30.572       58.822       26.826      934.639     3460.064      719.627        1.059        0.256      123.137       27.315        0.049      334.537        4.574      872.719
01/09/2022  17:57:00       49.226      -35.644      -16.129       37.250       41.796       25.990     1387.553     1746.913      675.484        0.388        0.190       60.776       23.328        0.147      334.445        4.422      872.729
01/09/2022  17:58:00       76.198     -100.869      -24.259       49.971       40.475       28.501     2497.087     1638.242      812.332        1.076        0.247      126.415       26.009        0.042      334.535        4.569      872.737
01/09/2022  17:59:00       43.074      -58.356      -25.693       32.855       32.360       24.484     1079.476     1047.175      599.463        0.432        0.136       72.531       15.528        0.046      334.548        4.592      872.748
01/09/2022  18:00:00        8.856        0.255        6.130       32.061       31.453       21.209     1027.921      989.310      449.819        0.129        0.123        8.859       13.295        2.252      334.421        4.382      872.753
01/09/2022  18:01:00       76.421      -85.623      -21.426       45.462       49.567       24.683     2066.794     2456.876      609.254        0.938        0.257      114.767       28.947        0.064      334.443        4.418      872.765
01/09/2022  18:02:00       80.641     -128.230      -28.298       31.639       42.538       25.946     1001.047     1809.462      673.195        1.361        0.174      151.479       14.274        0.009      334.540        4.578      872.763
01/09/2022  18:03:00       90.874     -120.822      -27.648       36.649       59.892       31.273     1343.138     3587.046      978.027        1.476        0.295      151.182       26.053        0.030      334.485        4.486      872.757
01/09/2022  18:04:00       72.240      -60.011      -19.689       29.764       38.592       20.780      885.907     1489.342      431.799        0.601        0.140       93.914       18.754        0.040      334.453        4.435      872.746
01/09/2022  18:05:00       67.397      -82.433      -22.536       31.236       37.263       22.016      975.701     1388.562      484.711        0.735        0.142      106.478       12.059        0.013      334.482        4.485      872.725
01/09/2022  18:06:00       82.112      -92.713      -31.517       32.194       46.751       25.103     1036.432     2185.661      630.139        1.009        0.193      123.847       21.183        0.029      334.474        4.470      872.717
01/09/2022  18:07:00       83.177      -52.154      -17.907       33.004       35.900       27.175     1089.276     1288.791      738.501        0.654        0.156       98.176       18.780        0.037      334.351        4.266      872.728
01/09/2022  18:08:00       89.564      -51.427      -18.285       43.268       37.869       21.309     1872.115     1434.065      454.059        0.738        0.188      103.278       17.076        0.027      334.400        4.347      872.752
01/09/2022  18:09:00       80.110      -74.822      -25.880       33.312       58.028       28.690     1109.685     3367.279      823.138        0.899        0.265      109.617       31.697        0.084      334.398        4.345      872.793
01/09/2022  18:10:00       34.659      -40.471      -27.536       28.144       38.477       24.652      792.100     1480.444      607.734        0.324        0.144       53.283       19.301        0.131      334.434        4.404      872.827
01/09/2022  18:11:00       56.907      -88.138      -24.148       23.892       46.828       21.708      570.807     2192.859      471.247        0.741        0.162      104.913       20.501        0.038      334.497        4.508      872.857
01/09/2022  18:12:00       56.422      -33.683      -13.557       29.308       30.358       20.236      858.936      921.611      409.483        0.335        0.110       65.712       16.929        0.066      334.242        4.085      872.872
01/09/2022  18:13:00       46.094       -1.045      -10.947       16.642       23.791       14.814      276.958      566.001      219.445        0.165        0.053       46.105        5.017        0.012      334.174        3.972      872.871
01/09/2022  18:14:00       73.482       27.844       -4.701       20.407       18.188       10.729      416.455      330.812      115.104        0.353        0.043       78.581        8.926        0.013      334.039        3.749      872.866
01/09/2022  18:15:00       86.038       28.427       -8.142       19.582       21.702       11.254      383.453      470.997      126.656        0.463        0.049       90.613        6.775        0.006      334.043        3.755      872.858
01/09/2022  18:16:00       93.548       12.149       -3.803       19.933       24.468       13.559      397.308      598.674      183.853        0.505        0.059       94.334        8.104        0.007      334.070        3.800      872.855
01/09/2022  18:17:00      108.064       23.774      -10.456       22.910       17.731       17.470      524.880      314.394      305.199        0.675        0.057      110.648       11.171        0.010      334.088        3.831      872.858
01/09/2022  18:18:00       79.538       31.890       -9.190       29.413       27.221       15.595      865.113      741.008      243.198        0.464        0.092       85.693       12.221        0.020      334.027        3.730      872.877
01/09/2022  18:19:00       82.664       31.786       -3.959       27.635       18.053       13.625      763.672      325.905      185.628        0.457        0.064       88.565       13.981        0.025      334.054        3.773      872.897
01/09/2022  18:20:00       53.735       21.376       -8.483       22.830       14.196        8.552      521.202      201.517       73.135        0.211        0.040       57.831        5.860        0.010      334.050        3.767      872.921
01/09/2022  18:21:00       21.226        3.699       -6.936        9.373       13.912        7.043       87.847      193.557       49.605        0.042        0.017       21.546        5.456        0.064      334.054        3.774      872.946
01/09/2022  18:22:00       49.045       41.210       -6.989       10.123       12.435       10.567      102.467      154.620      111.663        0.226        0.018       64.060        6.533        0.010      334.108        3.863      872.957
01/09/2022  18:23:00       60.222       44.654       -4.052       13.568       17.864        9.056      184.096      319.135       82.006        0.311        0.029       74.971        4.302        0.003      334.064        3.791      872.967
01/09/2022  18:24:00       34.199       -0.543        2.861       31.429       17.623       16.384      987.771      310.582      268.432        0.137        0.078       34.203       19.460        0.324      334.012        3.703      872.955
01/09/2022  18:25:00       24.330       13.039       -0.371       15.308       12.143        9.444      234.338      147.445       89.190        0.062        0.024       27.604        5.118        0.034      333.947        3.596      872.960
01/09/2022  18:26:00       50.342       -1.669      -11.509       17.848       17.385        8.759      318.536      302.232       76.723        0.168        0.035       50.370        4.150        0.007      334.017        3.711      872.980
01/09/2022  18:27:00       22.651        1.737        0.064       28.791       14.731       15.587      828.902      217.008      242.956        0.090        0.064       22.717       12.136        0.285      333.867        3.464      873.005
01/09/2022  18:28:00       13.300        8.942        0.605       17.317       14.912       12.650      299.881      222.360      160.025        0.047        0.034       16.027        6.544        0.167      333.808        3.366      873.030
01/09/2022  18:29:00       31.815        7.408       -3.734       20.862       22.077       12.086      435.227      487.388      146.065        0.107        0.053       32.666        7.067        0.047      333.816        3.379      873.058
01/09/2022  18:30:00       48.992       15.096       -3.414       25.134       23.306       13.995      631.702      543.190      195.869        0.201        0.069       51.265        9.914        0.037      333.839        3.419      873.084
01/09/2022  18:31:00       52.547       16.035       -4.424       25.881       24.235       10.338      669.851      587.358      106.866        0.220        0.068       54.939        6.046        0.012      333.821        3.389      873.107
01/09/2022  18:32:00       62.544       13.085       -5.773       22.054       20.293       11.973      486.401      411.786      143.345        0.258        0.052       63.898        7.950        0.015      333.785        3.328      873.115
01/09/2022  18:33:00       53.079       21.140       -2.283       21.321       20.287       15.987      454.579      411.582      255.594        0.220        0.056       57.133       11.547        0.041      333.843        3.423      873.124
01/09/2022  18:34:00        5.664      -24.553      -12.026       17.258       34.045       17.319      297.848     1159.052      299.947        0.127        0.088       25.198       11.341        0.203      333.903        3.524      873.134
01/09/2022  18:35:00       12.799        2.871      -14.390       18.102       19.361       16.252      327.690      374.856      264.138        0.067        0.048       13.117        8.823        0.452      333.859        3.451      873.140
01/09/2022  18:36:00       34.894       -4.827       -4.173       25.866       24.208       19.043      669.044      586.051      362.625        0.144        0.081       35.226       17.016        0.233      333.810        3.369      873.154
01/09/2022  18:37:00       54.885      -14.992       -4.058       30.010       16.558       17.480      900.608      274.175      305.566        0.237        0.074       56.896        7.026        0.015      333.777        3.315      873.163
01/09/2022  18:38:00       42.270       -3.844       -4.014       30.142       18.132       13.628      908.558      328.758      185.728        0.162        0.071       42.444       12.078        0.081      333.726        3.231      873.172
01/09/2022  18:39:00       40.248       12.714        3.150       44.775       28.287       13.664     2004.780      800.139      186.699        0.239        0.150       42.209       17.265        0.167      333.689        3.169      873.184
01/09/2022  18:40:00       64.481       18.066       -3.198       33.629       17.723       16.679     1130.909      314.096      278.191        0.311        0.086       66.964       17.066        0.065      333.600        3.022      873.204
01/09/2022  18:41:00       61.665       17.722       -7.089       19.825       13.818       12.975      393.025      190.929      168.347        0.246        0.038       64.161        6.340        0.010      333.673        3.143      873.232
01/09/2022  18:42:00       32.132      -12.374      -12.742       26.475       29.123       15.854      700.938      848.133      251.336        0.157        0.090       34.432        5.388        0.024      333.688        3.168      873.257
01/09/2022  18:43:00      -12.724      -11.299      -10.563       17.525        9.748        8.184      307.111       95.017       66.976        0.044        0.023       17.017        4.091        0.058      333.568        2.969      873.281
01/09/2022  18:44:00      -31.313       15.057      -12.486       10.863        6.961        8.586      118.007       48.456       73.714        0.080        0.012       34.746        4.725        0.018      333.447        2.768      873.298
01/09/2022  18:45:00       -4.878       17.159       -2.399       12.528       10.669        8.224      156.945      113.830       67.637        0.033        0.017       17.839        8.505        0.227      333.453        2.778      873.324
01/09/2022  18:46:00       46.284       30.070        2.419       33.067       21.331       14.339     1093.434      455.010      205.619        0.240        0.088       55.195       13.768        0.062      333.674        3.145      873.330
01/09/2022  18:47:00       83.073       37.735      -13.868       25.797       23.750       13.836      665.488      564.043      191.444        0.497        0.071       91.242        8.879        0.009      333.742        3.257      873.333
01/09/2022  18:48:00       83.442       27.993       -6.025       20.465       16.568       12.251      418.834      274.513      150.098        0.431        0.042       88.013        6.524        0.005      333.712        3.207      873.344
01/09/2022  18:49:00       63.230       11.735       -8.345       25.604       14.752       10.156      655.554      217.624      103.142        0.259        0.049       64.310        7.503        0.014      333.725        3.228      873.356
01/09/2022  18:50:00       19.851      -11.400      -11.954       12.008       24.470       19.959      144.188      598.767      398.357        0.090        0.057       22.892       14.911        0.424      333.670        3.138      873.393
01/09/2022  18:51:00       44.694        4.194       -5.247       15.829       14.874       10.036      250.566      221.250      100.727        0.131        0.029       44.891        7.731        0.030      333.680        3.154      873.419
01/09/2022  18:52:00       39.743       18.373       -1.917       23.436       19.967       10.921      549.264      398.691      119.260        0.149        0.053       43.784        7.434        0.029      333.782        3.323      873.436
01/09/2022  18:53:00       28.999        3.149       -9.142       22.225       16.357       13.037      493.961      267.562      169.957        0.093        0.047       29.169        4.828        0.027      333.573        2.979      873.451
01/09/2022  18:54:00       75.144       43.170       -7.243       33.534       20.730       14.467     1124.540      429.726      209.287        0.466        0.088       86.662       18.581        0.046      333.614        3.045      873.461
01/09/2022  18:55:00       85.791       25.979        1.581       34.649       23.335       19.479     1200.557      544.540      379.427        0.508        0.106       89.638       18.261        0.042      333.650        3.104      873.469
01/09/2022  18:56:00      107.081       26.274       -7.256       25.389       19.662       12.147      644.611      386.604      147.542        0.669        0.059      110.258        9.955        0.008      333.626        3.066      873.473
01/09/2022  18:57:00      115.038       32.700      -18.143       47.558       34.750       20.861     2261.743     1207.548      435.185        0.927        0.195      119.595        7.952        0.004      333.666        3.133      873.496
01/09/2022  18:58:00       93.648       26.376      -10.498       38.669       31.446       23.957     1495.282      988.859      573.921        0.632        0.153       97.292       15.251        0.025      333.683        3.159      873.525
01/09/2022  18:59:00      103.629       10.248      -16.299       29.142       24.961       13.869      849.275      623.045      192.356        0.639        0.083      104.134        8.706        0.007      333.620        3.055      873.546
01/09/2022  19:00:00       48.657       -2.236       -0.110       50.887       17.429       12.179     2589.471      303.784      148.333        0.271        0.152       48.708       17.172        0.124      333.637        3.084      873.568
01/09/2022  19:01:00       42.930        1.234       -0.561       19.541       22.575       16.129      381.859      509.615      260.136        0.150        0.058       42.947       11.372        0.070      333.565        2.964      873.590
01/09/2022  19:02:00      100.079       13.465       -7.868       18.848       21.312       16.049      355.254      454.208      257.575        0.566        0.053      100.981        8.938        0.008      333.783        3.325      873.590
01/09/2022  19:03:00       42.535        0.019       -4.161       16.540       21.249       16.713      273.560      451.527      279.332        0.142        0.050       42.535        9.075        0.046      333.715        3.211      873.592
01/09/2022  19:04:00       56.104       -5.352       -4.828       27.652       24.333       12.639      764.638      592.119      159.742        0.236        0.076       56.359        6.571        0.014      333.670        3.140      873.591
01/09/2022  19:05:00       76.613      -14.635       -3.326       36.067       20.711       22.547     1300.807      428.963      508.369        0.417        0.112       77.999       22.861        0.086      333.648        3.101      873.601
01/09/2022  19:06:00       48.687       -9.758       -3.380       27.041       22.439       17.200      731.212      503.506      295.857        0.200        0.077       49.655       10.471        0.044      333.555        2.947      873.628
01/09/2022  19:07:00       60.614      -13.209       -0.083       32.812       23.587       19.961     1076.652      556.347      398.430        0.294        0.102       62.037       17.249        0.077      333.574        2.979      873.648
01/09/2022  19:08:00       67.642      -16.426       -2.292       30.269       21.787       19.114      916.218      474.687      365.356        0.330        0.088       69.607       16.880        0.059      333.538        2.918      873.666
01/09/2022  19:09:00       33.844        6.291       -4.960       32.262       40.117       22.818     1040.859     1609.394      520.671        0.219        0.159       34.423       14.708        0.183      333.634        3.078      873.679
01/09/2022  19:10:00       49.159      -10.397      -22.835       34.361       32.704       24.817     1180.676     1069.523      615.870        0.296        0.143       50.247        6.910        0.019      333.666        3.131      873.690
01/09/2022  19:11:00       79.784      -15.320       -2.377       29.488       19.713       15.252      869.570      388.617      232.635        0.405        0.075       81.242       14.734        0.033      333.712        3.207      873.694
01/09/2022  19:12:00       41.084        0.161       -3.122       25.729       21.133       12.708      661.972      446.611      161.504        0.148        0.064       41.084        9.584        0.054      333.628        3.068      873.706
01/09/2022  19:13:00       43.175       -6.583       -3.513       23.450       18.610       12.952      549.907      346.329      167.746        0.149        0.053       43.674       10.944        0.063      333.589        3.004      873.713
01/09/2022  19:14:00       27.374      -12.343       -2.027       22.830        9.962       11.642      521.209       99.243      135.531        0.083        0.038       30.028       11.142        0.138      333.608        3.035      873.734
01/09/2022  19:15:00      -42.269       15.962      -15.868       14.284       12.208       16.429      204.040      149.043      269.914        0.146        0.031       45.183       13.760        0.093      332.967        1.975      873.758
01/09/2022  19:16:00      -49.396       25.039      -11.025       24.850       11.499       14.264      617.547      132.231      203.467        0.207        0.048       55.380       12.824        0.054      333.021        2.063      873.771
01/09/2022  19:17:00      -74.803       54.242      -12.913       11.337       12.096       14.505      128.537      146.321      210.404        0.459        0.024       92.400        5.168        0.003      332.904        1.871      873.775
01/09/2022  19:18:00      -55.287       29.581      -14.012       17.617       15.910       16.233      310.357      253.124      263.524        0.248        0.041       62.703        8.878        0.020      332.868        1.811      873.779
01/09/2022  19:19:00      -48.992       18.896      -16.036       23.223       16.260       15.831      539.320      264.393      250.616        0.203        0.053       52.510       15.109        0.083      332.806        1.711      873.791
01/09/2022  19:20:00      -66.247       24.106      -15.420       21.082       20.538       13.496      444.465      421.825      182.154        0.313        0.052       70.497        6.553        0.009      332.652        1.454      873.807
01/09/2022  19:21:00      -72.107       24.432      -22.148       17.855       19.721       12.843      318.792      388.912      164.950        0.358        0.044       76.133        9.323        0.015      332.595        1.362      873.820
01/09/2022  19:22:00      -47.089       12.882      -11.969       25.104       18.495       16.292      630.194      342.051      265.420        0.188        0.062       48.820       11.055        0.051      332.557        1.299      873.844
01/09/2022  19:23:00      -49.868       14.170      -23.402       14.440       14.601       12.556      208.502      213.178      157.659        0.191        0.029       51.842        8.395        0.026      332.657        1.463      873.855
01/09/2022  19:24:00      -45.896        8.504      -18.879       16.805       13.043       18.024      282.414      170.130      324.864        0.166        0.039       46.677       10.634        0.052      332.684        1.506      873.847
01/09/2022  19:25:00      -25.361        8.286       -9.145       21.916       16.613       11.244      480.292      276.006      126.427        0.084        0.044       26.681       13.136        0.242      332.710        1.550      873.836
01/09/2022  19:26:00      -29.728       11.785      -24.867       14.994       10.360        8.596      224.834      107.332       73.894        0.102        0.020       31.979        6.392        0.040      332.808        1.712      873.833
01/09/2022  19:27:00      -30.449       -3.222      -17.301       14.975       12.229       12.481      224.260      149.557      155.785        0.088        0.026       30.619        7.966        0.068      332.840        1.766      873.837
01/09/2022  19:28:00      -32.246        3.033      -13.268       11.875       11.030       13.569      141.018      121.668      184.123        0.084        0.022       32.388        6.242        0.037      332.876        1.825      873.845
01/09/2022  19:29:00      -31.855      -10.608       -6.550       10.483       12.070        8.738      109.891      145.693       76.356        0.075        0.017       33.574        2.793        0.007      332.778        1.662      873.857
01/09/2022  19:30:00      -22.730        4.745       -4.844       12.864       11.399       10.088      165.486      129.936      101.777        0.048        0.020       23.220        4.564        0.039      332.694        1.525      873.883
01/09/2022  19:31:00      -21.857       10.396       -5.922       17.026       13.865       13.038      289.875      192.244      169.993        0.064        0.033       24.203        7.150        0.087      332.696        1.526      873.910
01/09/2022  19:32:00      -18.929       -3.398       -8.200       15.028       11.709       11.594      225.838      137.095      134.418        0.047        0.025       19.232        8.933        0.216      332.754        1.624      873.924
01/09/2022  19:33:00      -29.775        5.744      -19.849       17.718       14.123       10.361      313.939      199.446      107.340        0.097        0.031       30.324        7.399        0.060      332.721        1.569      873.941
01/09/2022  19:34:00      -37.234       14.917      -10.826       13.239       11.779       10.178      175.277      138.738      103.586        0.107        0.021       40.111        9.865        0.060      332.779        1.665      873.944
01/09/2022  19:35:00      -20.318       10.981       -8.219       11.192       10.687        7.071      125.259      114.203       49.995        0.045        0.014       23.096        3.384        0.021      332.744        1.607      873.939
01/09/2022  19:36:00      -21.594       16.424       -7.362        7.506        7.100        6.987       56.337       50.410       48.813        0.047        0.008       27.130        2.729        0.010      332.838        1.762      873.927
01/09/2022  19:37:00      -15.869        5.483       -8.746        9.062        6.315        4.866       82.116       39.884       23.683        0.025        0.007       16.790        2.770        0.027      332.903        1.868      873.920
01/09/2022  19:38:00      -22.199       14.521       -9.742       11.562        7.668        6.054      133.680       58.804       36.651        0.051        0.011       26.527        4.933        0.035      332.899        1.861      873.913
01/09/2022  19:39:00      -37.108       25.218      -10.214        8.590        7.073        7.037       73.785       50.031       49.517        0.115        0.009       44.866        4.538        0.010      332.762        1.636      873.902
01/09/2022  19:40:00      -74.009       28.710      -10.522       15.217        8.272        7.735      231.557       68.428       59.824        0.339        0.018       79.383        4.986        0.004      332.682        1.504      873.891
01/09/2022  19:41:00      -66.545       12.952       -9.386       29.492       22.330       14.213      869.790      498.649      202.022        0.313        0.079       67.794       12.332        0.033      332.604        1.375      873.889
01/09/2022  19:42:00      -23.112        2.618      -10.836       12.455       12.129       13.456      155.126      147.104      181.077        0.057        0.024       23.260        7.103        0.093      332.587        1.348      873.901
01/09/2022  19:43:00      -34.605       12.986      -17.324       10.280        8.481        9.378      105.682       71.924       87.954        0.097        0.013       36.961        5.660        0.023      332.597        1.365      873.926
01/09/2022  19:44:00      -18.604       24.996      -16.740       32.740       18.346       10.692     1071.931      336.569      114.329        0.139        0.076       31.159        8.611        0.076      332.734        1.591      873.937
01/09/2022  19:45:00       22.987       58.948       -8.409       13.309       11.921       12.124      177.142      142.108      146.982        0.227        0.023       63.272        7.388        0.014      333.116        2.221      873.934
01/09/2022  19:46:00       43.435       55.049      -12.664       14.618       21.908       13.213      213.689      479.950      174.592        0.297        0.043       70.121       11.333        0.026      333.143        2.266      873.927
01/09/2022  19:47:00       18.613       58.691       -7.637       16.640       24.718       12.644      276.893      610.985      159.875        0.245        0.052       61.572        7.651        0.015      333.209        2.376      873.926
01/09/2022  19:48:00       -1.640       35.096       -7.125       24.802       25.549       15.667      615.128      652.775      245.447        0.140        0.076       35.134       13.584        0.149      332.926        1.908      873.917
01/09/2022  19:49:00      -40.255       17.142      -13.990       15.654       12.507       12.721      245.055      156.432      161.831        0.134        0.028       43.753        7.619        0.030      332.352        0.958      873.922
01/09/2022  19:50:00      -33.756        5.620      -15.826       14.588       10.221       11.408      212.797      104.470      130.134        0.093        0.022       34.220        8.438        0.061      332.490        1.186      873.921
01/09/2022  19:51:00      -21.113       17.771      -15.248       20.459       17.241       13.285      418.579      297.249      176.493        0.094        0.045       27.596        7.148        0.067      332.647        1.446      873.916
01/09/2022  19:52:00      -32.937        2.927      -11.425       12.045       14.811       11.693      145.085      219.379      136.725        0.086        0.025       33.067        6.210        0.035      332.540        1.269      873.879
01/09/2022  19:53:00      -56.139       21.805      -17.792       14.462       10.681        7.627      209.161      114.076       58.171        0.216        0.019       60.225        6.349        0.011      332.397        1.033      873.892
01/09/2022  19:54:00      -63.769        3.781      -17.643       18.516       25.774       17.849      342.843      664.288      318.584        0.286        0.066       63.881       12.716        0.040      332.284        0.846      873.902
01/09/2022  19:55:00      -63.417       14.293      -16.999       25.803       18.286       22.741      665.769      334.360      517.147        0.302        0.076       65.008       19.185        0.087      332.273        0.827      873.920
01/09/2022  19:56:00      -96.437       34.944      -18.932       20.906       22.809       16.152      437.055      520.244      260.887        0.605        0.061      102.572        7.892        0.006      332.139        0.608      873.924
01/09/2022  19:57:00     -100.032       59.190      -19.131       23.203       18.046       13.394      538.385      325.665      179.409        0.746        0.052      116.232        9.589        0.007      332.131        0.592      873.920
01/09/2022  19:58:00      -84.907       56.639      -18.851       15.959       21.641       10.596      254.693      468.340      112.271        0.580        0.042      102.065        5.788        0.003      332.196        0.700      873.914
01/09/2022  19:59:00      -74.191       43.548      -19.896       20.905       15.224       14.557      437.030      231.781      211.918        0.434        0.044       86.028        5.869        0.005      332.168        0.655      873.919
01/09/2022  20:00:00      -81.757       37.793      -13.507       24.900       25.001       14.497      619.991      625.059      210.155        0.487        0.073       90.069       10.549        0.014      332.181        0.675      873.918
01/09/2022  20:01:00      -73.156       26.760      -21.522       29.662       23.730       15.902      879.829      563.110      252.864        0.411        0.085       77.897        7.833        0.010      332.209        0.724      873.914
01/09/2022  20:02:00      -48.880       20.714      -13.495       20.447       21.024       14.816      418.066      442.023      219.518        0.204        0.054       53.088        8.562        0.026      332.244        0.779      873.903
01/09/2022  20:03:00      -13.347       -1.511      -11.530       19.422       15.649       11.478      377.223      244.900      131.743        0.053        0.038       13.432       12.227        0.829      332.224        0.746      873.887
01/09/2022  20:04:00       -9.130       14.514       -9.952       11.947       13.111       11.557      142.739      171.892      133.561        0.042        0.022       17.146        6.249        0.133      332.723        1.572      873.869
01/09/2022  20:05:00      -28.949       14.109      -20.366       23.722       20.920       12.898      562.751      437.630      166.366        0.131        0.058       32.205       14.460        0.202      332.808        1.713      873.858
01/09/2022  20:06:00      -36.618      -13.102      -11.439       13.954       13.991        9.645      194.718      195.743       93.034        0.106        0.024       38.891        6.250        0.026      332.407        1.049      873.854
01/09/2022  20:07:00      -30.515        2.055      -13.765       12.387       17.745       12.628      153.439      314.890      159.474        0.088        0.031       30.584        5.458        0.032      332.364        0.977      873.842
01/09/2022  20:08:00      -40.215        7.820       -9.312       12.199       18.987       14.389      148.821      360.499      207.032        0.124        0.036       40.969        7.144        0.030      332.526        1.246      873.833
01/09/2022  20:09:00      -28.027       16.014      -13.177       17.410       14.234        9.998      303.109      202.615       99.969        0.091        0.030       32.279        6.253        0.038      332.476        1.163      873.826
01/09/2022  20:10:00      -34.511        8.928      -14.052       14.787       14.913       12.851      218.641      222.396      165.159        0.104        0.030       35.647        8.928        0.063      332.390        1.020      873.821
01/09/2022  20:11:00      -33.028        4.858       -5.480       12.185       25.248       14.590      148.476      637.482      212.876        0.107        0.050       33.383        8.897        0.071      332.243        0.779      873.806
01/09/2022  20:12:00      -30.058        2.952      -13.606       19.071       17.561       14.097      363.711      308.395      198.726        0.098        0.044       30.202        9.199        0.093      332.119        0.573      873.792
01/09/2022  20:13:00      -55.593       16.883      -18.269       22.348       17.595       13.845      499.431      309.574      191.679        0.235        0.050       58.100        9.472        0.027      332.082        0.512      873.775
01/09/2022  20:14:00      -51.747       23.080      -23.288       15.058        8.761       10.211      226.757       76.748      104.271        0.208        0.020       56.661        4.140        0.005      331.989        0.361      873.762
01/09/2022  20:15:00      -49.189       23.958      -21.361       22.077       13.949        9.631      487.413      194.576       92.756        0.211        0.039       54.714        2.913        0.003      332.034        0.434      873.765
01/09/2022  20:16:00      -46.812       21.276      -16.058       17.553       17.581       15.047      308.096      309.085      226.425        0.187        0.042       51.420        7.871        0.023      332.036        0.438      873.771
01/09/2022  20:17:00      -35.914       24.561      -15.290       14.782       14.452       14.413      218.500      208.854      207.733        0.138        0.032       43.509        8.034        0.034      332.081        0.511      873.791
01/09/2022  20:18:00      -19.632       32.154      -13.848       17.725       18.661       14.262      314.175      348.219      203.393        0.124        0.043       37.673       10.257        0.074      332.481        1.172      873.803
01/09/2022  20:19:00       -5.916       69.662       -6.258       26.287       29.242       18.612      691.015      855.123      346.403        0.341        0.095       69.913       12.461        0.032      332.802        1.702      873.805
01/09/2022  20:20:00       25.890       79.097       -5.458       28.995       34.788       16.569      840.719     1210.179      274.518        0.464        0.116       83.226       17.496        0.044      333.094        2.186      873.801
01/09/2022  20:21:00       45.143       77.146       -7.968       20.771       25.596       17.526      431.444      655.170      307.157        0.472        0.070       89.383       11.622        0.017      333.088        2.175      873.790
01/09/2022  20:22:00       42.580       55.635       -6.673       23.629       25.024       19.735      558.327      626.219      389.466        0.326        0.079       70.060       16.742        0.057      333.035        2.087      873.772
01/09/2022  20:23:00       29.580       34.806       -3.427       15.986       15.678       10.413      255.538      245.787      108.436        0.135        0.030       45.678        6.857        0.023      332.925        1.906      873.746
01/09/2022  20:24:00       26.982       35.577       -3.196       15.864       20.960       16.652      251.660      439.325      277.274        0.149        0.048       44.652       12.271        0.076      332.909        1.878      873.728
01/09/2022  20:25:00       41.888       62.069      -11.174       16.903       19.514       13.508      285.696      380.781      182.469        0.329        0.042       74.881       11.759        0.025      332.998        2.026      873.713
01/09/2022  20:26:00       34.194       39.463      -10.028       17.386       26.864       12.234      302.262      721.687      149.676        0.200        0.059       52.216       10.284        0.039      332.938        1.928      873.713
01/09/2022  20:27:00       13.004       23.312      -10.083       19.707       13.079       12.803      388.354      171.067      163.910        0.077        0.036       26.694        8.574        0.103      332.929        1.911      873.725
01/09/2022  20:28:00       11.192       38.084       -5.911       11.511       10.416        7.361      132.505      108.493       54.186        0.095        0.015       39.694        5.077        0.016      333.055        2.120      873.728
01/09/2022  20:29:00        3.325       27.584       -0.683       11.833        8.386        8.346      140.017       70.318       69.657        0.053        0.014       27.783        5.140        0.034      332.793        1.687      873.726
01/09/2022  20:30:00        4.049       38.445        4.231       12.772       17.601        9.017      163.113      309.794       81.300        0.103        0.028       38.658        7.736        0.040      333.059        2.127      873.716
01/09/2022  20:31:00      -24.531       19.490       -0.265       20.290       16.811       10.390      411.703      282.613      107.960        0.089        0.040       31.330       10.726        0.117      332.573        1.323      873.707
01/09/2022  20:32:00      -58.183       17.810      -15.000       12.376       12.623        9.770      153.154      159.348       95.444        0.217        0.020       60.847        4.391        0.005      332.244        0.779      873.709
01/09/2022  20:33:00      -51.946       18.776       -3.538       17.656       12.617       11.301      311.748      159.182      127.718        0.183        0.030       55.235        9.413        0.029      332.253        0.794      873.717
01/09/2022  20:34:00      -53.714       12.550      -16.018       13.025        8.895       10.548      169.641       79.128      111.258        0.183        0.018       55.161        6.814        0.015      332.314        0.896      873.717
01/09/2022  20:35:00      -57.532       16.473      -17.519        7.865       10.575        8.375       61.862      111.827       70.145        0.207        0.012       59.844        4.375        0.005      332.210        0.724      873.715
01/09/2022  20:36:00      -49.365       17.487      -20.118       14.654       10.268        9.593      214.742      105.430       92.022        0.178        0.021       52.371        7.147        0.019      332.163        0.646      873.713
01/09/2022  20:37:00      -24.336        4.170      -10.383       15.137       11.874        9.674      229.143      141.001       93.594        0.059        0.023       24.690        8.491        0.118      332.216        0.733      873.717
01/09/2022  20:38:00      -34.187        3.719       -0.116       28.568       17.676       14.839      816.108      312.452      220.196        0.127        0.067       34.389       12.858        0.140      332.102        0.545      873.730
01/09/2022  20:39:00      -45.507       10.544      -20.366       16.673       11.035       15.748      277.981      121.779      247.999        0.162        0.032       46.712        5.793        0.015      332.125        0.583      873.740
01/09/2022  20:40:00      -66.296       14.502      -17.227       17.116       10.502        8.787      292.942      110.288       77.218        0.269        0.024       67.863        5.310        0.006      332.124        0.581      873.744
01/09/2022  20:41:00      -91.084       39.743      -15.775       18.248       12.251       15.061      333.001      150.091      226.847        0.542        0.035       99.377       13.793        0.019      332.061        0.478      873.739
01/09/2022  20:42:00      -85.214       31.296      -12.724       21.178       15.592       17.559      448.505      243.117      308.324        0.470        0.050       90.779       13.997        0.024      332.047        0.456      873.733
01/09/2022  20:43:00      -83.622       19.508       -6.405       18.654       12.393       15.121      347.989      153.593      228.634        0.407        0.037       85.867       11.467        0.018      332.010        0.395      873.733
01/09/2022  20:44:00      -77.521       13.703      -10.325       18.781       14.738       11.692      352.744      217.205      136.705        0.351        0.035       78.723        7.842        0.010      332.065        0.485      873.739
01/09/2022  20:45:00     -101.763       16.850      -22.506       13.988       12.326        7.789      195.665      151.939       60.673        0.578        0.020      103.148        3.180        0.001      332.000        0.378      873.743
01/09/2022  20:46:00      -32.425        5.354       -1.374       33.385       19.456       18.854     1114.529      378.539      355.476        0.146        0.092       32.864       15.648        0.227      331.922        0.250      873.748
01/09/2022  20:47:00     -103.443       25.588      -15.783       19.179       14.078       13.273      367.850      198.195      176.177        0.617        0.037      106.560        5.196        0.002      331.915        0.238      873.745
01/09/2022  20:48:00      -97.664       18.672       -6.117       22.416       18.739       18.097      502.462      351.135      327.504        0.555        0.059       99.433       16.092        0.026      331.884        0.187      873.740
01/09/2022  20:49:00      -67.813        4.933       -6.841       39.703       22.593       14.306     1576.338      510.441      204.670        0.348        0.115       67.993       14.404        0.045      331.886        0.190      873.741
01/09/2022  20:50:00      -44.975       11.658      -12.329       34.581       16.189       11.969     1195.827      262.073      143.267        0.196        0.080       46.462        7.480        0.026      331.892        0.201      873.738
01/09/2022  20:51:00      -92.654       23.777      -15.454       20.573       19.385       11.722      423.249      375.784      137.414        0.516        0.047       95.656        6.241        0.004      331.919        0.244      873.745
01/09/2022  20:52:00     -104.171       19.703      -11.434       17.576       13.678       12.258      308.928      187.097      150.268        0.601        0.032      106.018        8.064        0.006      331.923        0.251      873.747
01/09/2022  20:53:00      -75.187       11.283      -12.604       29.141       15.142       11.334      849.211      229.271      128.450        0.357        0.060       76.029        3.399        0.002      331.933        0.268      873.750
01/09/2022  20:54:00      -74.020       12.901      -16.883       25.054       16.106       16.029      627.709      259.395      256.925        0.354        0.057       75.136        7.411        0.010      331.964        0.319      873.764
01/09/2022  20:55:00      -46.389        2.302      -11.731       20.858       25.172       16.338      435.065      633.617      266.926        0.181        0.067       46.446       11.592        0.062      331.866        0.158      873.776
01/09/2022  20:56:00      -74.368       15.154      -22.760       24.352       18.352       12.994      593.037      336.796      168.852        0.369        0.055       75.897        9.174        0.015      331.852        0.135      873.783
01/09/2022  20:57:00     -100.578       30.732      -25.174       11.386       14.362       11.870      129.647      206.257      140.890        0.609        0.024      105.168        7.022        0.004      331.715       -0.091      873.793
01/09/2022  20:58:00     -108.871       14.264      -22.066       23.252       29.059       17.466      540.635      844.431      305.073        0.712        0.085      109.801        7.414        0.005      331.723       -0.078      873.817
01/09/2022  20:59:00      -95.098       14.763      -12.037       35.476       27.576       21.141     1258.516      760.417      446.938        0.594        0.123       96.238       15.345        0.025      331.725       -0.073      873.851
01/09/2022  21:00:00      -76.270       25.228      -15.499       25.804       22.570       17.743      665.834      509.417      314.825        0.409        0.075       80.334       11.865        0.022      331.792        0.036      873.855
01/09/2022  21:01:00     -113.960       28.138      -23.350       16.322       14.651       11.185      266.400      214.652      125.106        0.746        0.030      117.382        5.767        0.002      331.762       -0.012      873.880
01/09/2022  21:02:00      -79.435        6.492      -14.118       32.484       18.833       16.931     1055.186      354.666      286.643        0.412        0.085       79.700       15.760        0.039      331.791        0.035      873.904
01/09/2022  21:03:00     -112.723       12.929      -19.167       24.597       15.522       14.905      605.034      240.928      222.144        0.715        0.053      113.462       11.349        0.010      331.781        0.018      873.923
01/09/2022  21:04:00     -102.140       10.444       -1.611       34.194       22.487       17.289     1169.208      505.664      298.917        0.626        0.099      102.672       13.534        0.017      331.786        0.026      873.935
01/09/2022  21:05:00      -96.793       13.105       -6.455       29.432       23.524       16.900      866.257      553.385      285.615        0.564        0.085       97.676       13.911        0.020      331.783        0.021      873.924
01/09/2022  21:06:00      -88.249       11.243       -8.879       33.629       22.294       16.087     1130.922      497.017      258.790        0.494        0.094       88.963       12.944        0.021      331.847        0.127      873.927
01/09/2022  21:07:00      -91.812       15.571       -4.167       30.182       19.868       17.923      910.936      394.729      321.240        0.516        0.081       93.123       15.513        0.028      331.832        0.103      873.921
01/09/2022  21:08:00      -70.674        5.212       -2.910       44.223       24.964       18.973     1955.672      623.219      359.969        0.398        0.147       70.866       19.993        0.080      331.844        0.122      873.905
01/09/2022  21:09:00      -86.217        7.075       -5.121       34.209       20.816       15.240     1170.222      433.293      232.252        0.467        0.092       86.507       14.281        0.027      331.918        0.245      873.886
01/09/2022  21:10:00      -83.917       14.279       -4.534       27.281       22.687       20.528      744.262      514.708      421.419        0.447        0.084       85.123       13.662        0.026      331.891        0.199      873.891
01/09/2022  21:11:00      -74.868       16.885        0.703       29.336       23.970       19.660      860.617      574.582      386.505        0.386        0.091       76.748       16.612        0.047      331.836        0.108      873.885
01/09/2022  21:12:00      -87.051        9.600       -2.879       40.977       22.449       17.603     1679.135      503.961      309.872        0.509        0.125       87.578       19.430        0.049      331.764       -0.010      873.897
01/09/2022  21:13:00      -49.327       11.931       -2.768       40.793       22.413       17.397     1664.099      502.334      302.666        0.253        0.123       50.749       18.906        0.139      331.750       -0.033      873.914
01/09/2022  21:14:00      -47.323        9.826       -1.377       36.540       24.012       21.789     1335.158      576.576      474.769        0.236        0.119       48.332       14.998        0.096      331.748       -0.036      873.929
01/09/2022  21:15:00      -58.131        6.247       -3.258       52.533       28.629       20.081     2759.706      819.633      403.239        0.370        0.199       58.465       12.891        0.049      331.730       -0.065      873.926
01/09/2022  21:16:00      -86.902        8.691       -0.998       41.481       27.968       23.270     1720.702      782.236      541.512        0.534        0.152       87.336       19.428        0.049      331.720       -0.083      873.923
01/09/2022  21:17:00      -70.313       -2.424       -0.744       39.410       29.142       21.908     1553.109      849.230      479.976        0.392        0.144       70.355       20.197        0.082      331.619       -0.250      873.910
01/09/2022  21:18:00      -64.565       -0.047       -0.953       44.818       28.353       25.327     2008.668      803.881      641.467        0.381        0.173       64.565       22.081        0.117      331.591       -0.295      873.897
01/09/2022  21:19:00     -131.613       19.128       -7.107       36.950       26.483       18.784     1365.280      701.363      352.836        1.008        0.121      132.995       15.731        0.014      331.623       -0.243      873.893
01/09/2022  21:20:00      -85.456       11.456      -11.810       57.801       26.798       22.964     3340.939      718.156      527.352        0.608        0.229       86.221       14.259        0.027      331.654       -0.191      873.893
01/09/2022  21:21:00      -62.444       11.494       -1.903       47.941       33.858       18.749     2298.385     1146.364      351.519        0.391        0.190       63.493       11.003        0.030      331.660       -0.180      873.909
01/09/2022  21:22:00      -84.994      -22.425       -8.486       45.120       31.044       22.698     2035.820      963.748      515.193        0.566        0.176       87.903       23.166        0.069      331.578       -0.317      873.919
01/09/2022  21:23:00      -93.776       -0.983       -2.776       37.018       28.510       17.529     1370.358      812.800      307.281        0.565        0.125       93.781       15.053        0.026      331.611       -0.262      873.928
01/09/2022  21:24:00     -106.524       13.987       -7.130       33.774       24.658       20.539     1140.694      608.023      421.847        0.688        0.109      107.438       16.930        0.025      331.665       -0.172      873.946
01/09/2022  21:25:00      -70.896      -13.645       -9.830       31.821       31.950       18.877     1012.544     1020.797      356.336        0.385        0.119       72.197       12.119        0.028      331.714       -0.092      873.974
01/09/2022  21:26:00      -89.505      -13.411      -14.740       39.181       28.972       19.654     1535.162      839.364      386.279        0.558        0.138       90.504       14.903        0.027      331.698       -0.118      873.996
01/09/2022  21:27:00     -106.352       -9.564       -9.210       55.055       26.448       21.812     3031.047      699.504      475.745        0.785        0.210      106.781       21.598        0.041      331.637       -0.219      873.995
01/09/2022  21:28:00     -162.356       -0.606      -13.748       37.638       34.540       23.512     1416.586     1192.997      552.808        1.486        0.158      162.358       15.190        0.009      331.633       -0.226      873.985
01/09/2022  21:29:00     -100.224      -10.170       -5.568       34.709       32.569       26.333     1204.745     1060.759      693.446        0.657        0.148      100.739       20.792        0.043      331.596       -0.288      873.971
01/09/2022  21:30:00      -46.856       17.337       -9.272       52.229       29.062       28.230     2727.909      844.615      796.959        0.347        0.218       49.960       30.874        0.382      331.570       -0.330      873.985
01/09/2022  21:31:00      -98.804       14.723        3.387       68.387       35.847       22.596     4676.749     1285.013      510.579        0.823        0.324       99.895       27.868        0.078      331.543       -0.373      874.005
01/09/2022  21:32:00     -121.262       -7.952       -5.915       56.073       35.913       29.409     3144.153     1289.767      864.891        1.005        0.265      121.522       27.234        0.050      331.564       -0.340      874.030
01/09/2022  21:33:00     -124.083       -5.009       -4.472       70.824       38.841       32.709     5016.105     1508.662     1069.878        1.152        0.380      124.184       26.850        0.047      331.598       -0.284      874.053
01/09/2022  21:34:00      -88.439        8.094       -7.170       64.414       39.315       28.245     4149.118     1545.650      797.756        0.721        0.325       88.808       32.323        0.132      331.603       -0.275      874.073
01/09/2022  21:35:00      -19.058       -9.778       -3.674       53.887       23.140       27.195     2903.791      535.478      739.575        0.232        0.209       21.420       22.207        1.075      331.574       -0.324      874.095
01/09/2022  21:36:00     -118.037        5.800       -6.092       53.506       34.065       29.165     2862.850     1160.425      850.625        0.944        0.244      118.180       31.616        0.072      331.599       -0.282      874.110
01/09/2022  21:37:00      -94.370       30.358       -9.773       54.538       28.699       24.228     2974.435      823.642      587.018        0.715        0.219       99.133       30.457        0.094      331.636       -0.221      874.122
01/09/2022  21:38:00     -155.307       45.480       -8.144       34.932       27.277       25.804     1220.258      744.051      665.866        1.444        0.132      161.829       17.507        0.012      331.624       -0.242      874.120
01/09/2022  21:39:00     -162.762       37.680      -21.623       24.070       19.510       19.649      579.382      380.656      386.072        1.486        0.067      167.066       12.889        0.006      331.580       -0.312      874.108
01/09/2022  21:40:00     -127.550       36.868      -10.937       35.720       31.007       27.781     1275.937      961.404      771.770        1.038        0.150      132.771       19.743        0.022      331.602       -0.276      874.098
01/09/2022  21:41:00     -118.080       21.832      -11.930       30.705       32.941       22.552      942.795     1085.092      508.575        0.855        0.127      120.081       13.799        0.013      331.556       -0.353      874.110
01/09/2022  21:42:00      -66.714       20.043        6.482       51.674       35.710       21.544     2670.229     1275.219      464.151        0.465        0.220       69.659       20.471        0.086      331.515       -0.420      874.132
01/09/2022  21:43:00     -152.425       27.021      -16.336       39.996       26.368       21.170     1599.689      695.255      448.169        1.349        0.137      154.802       13.246        0.007      331.580       -0.313      874.152
01/09/2022  21:44:00      -89.730        9.641       -5.648       51.814       29.099       31.354     2684.652      846.728      983.072        0.634        0.226       90.247       33.831        0.141      331.586       -0.302      874.164
01/09/2022  21:45:00     -113.080       -3.509      -16.332       43.584       29.134       22.243     1899.584      848.786      494.762        0.815        0.162      113.134       14.223        0.016      331.520       -0.413      874.161
01/09/2022  21:46:00     -149.254       38.419      -12.298       46.890       38.427       18.128     2198.666     1476.662      328.640        1.395        0.200      154.119       12.919        0.007      331.565       -0.338      874.160
01/09/2022  21:47:00      -92.526       26.549        3.330       49.099       32.547       24.096     2410.708     1059.336      580.594        0.666        0.203       96.260       25.409        0.070      331.602       -0.277      874.162
01/09/2022  21:48:00      -61.431        1.380       -1.424       53.557       20.181       19.489     2868.299      407.285      379.838        0.372        0.183       61.447       18.713        0.093      331.739       -0.051      874.163
01/09/2022  21:49:00      -15.172       -3.833       -1.992       34.506       20.087       13.902     1190.649      403.476      193.259        0.102        0.089       15.649       13.446        0.738      331.727       -0.070      874.177
01/09/2022  21:50:00      -62.920      -23.550      -12.062       21.636       18.761       19.658      468.112      351.987      386.434        0.293        0.060       67.183       14.443        0.046      331.824        0.088      874.192
01/09/2022  21:51:00      -58.210      -18.259      -13.812       47.987       41.181       25.391     2302.705     1695.867      644.726        0.428        0.232       61.007       25.182        0.170      331.698       -0.118      874.211
01/09/2022  21:52:00      -95.675      -14.739      -15.603       62.240       44.997       29.588     3873.819     2024.767      875.449        0.819        0.339       96.804       23.639        0.060      331.632       -0.228      874.226
01/09/2022  21:53:00      -39.910       -6.013        2.695       48.275       36.819       24.068     2330.461     1355.642      579.262        0.295        0.213       40.361       18.312        0.206      331.684       -0.141      874.230
01/09/2022  21:54:00      -31.459       -3.041       -3.838       33.421       28.036       19.685     1116.956      786.001      387.515        0.165        0.115       31.606       12.960        0.168      331.647       -0.203      874.229
01/09/2022  21:55:00      -50.265        8.213      -10.688       20.708       25.544       19.650      428.819      652.480      386.114        0.209        0.073       50.932       13.676        0.072      331.521       -0.410      874.228
01/09/2022  21:56:00      -41.573       -7.855       -7.704       30.978       22.193       17.414      959.623      492.527      303.247        0.180        0.088       42.309       15.148        0.128      331.649       -0.199      874.228
01/09/2022  21:57:00      -13.100        0.906       -7.415       13.876        9.262        9.268      192.537       85.781       85.895        0.030        0.018       13.131        6.756        0.265      331.673       -0.158      874.233
01/09/2022  21:58:00      -13.168       -4.057       -6.113       15.054        9.281       10.610      226.610       86.138      112.563        0.033        0.021       13.778        8.613        0.391      331.802        0.053      874.234
01/09/2022  21:59:00       -2.477       -5.022        4.857       14.083       13.771        7.881      198.332      189.639       62.115        0.025        0.023        5.600        6.146        1.205      331.754       -0.028      874.245
01/09/2022  22:00:00       -0.973      -12.010        9.290       17.469       25.497       16.679      305.158      650.111      278.202        0.073        0.062       12.050       10.176        0.713      331.711       -0.097      874.250
01/09/2022  22:01:00      -80.969      -18.458       -7.036       37.058       24.471       18.186     1373.292      598.812      330.718        0.462        0.115       83.046       15.494        0.035      331.684       -0.141      874.259
01/09/2022  22:02:00      -70.887      -14.321      -10.281       44.632       33.987       28.039     1991.986     1155.143      786.181        0.463        0.197       72.319       25.653        0.126      331.612       -0.261      874.285
01/09/2022  22:03:00      -66.451        6.592       -6.574       38.778       39.924       23.310     1503.728     1593.913      543.378        0.407        0.182       66.777       15.039        0.051      331.491       -0.460      874.308
01/09/2022  22:04:00     -117.466       -9.329       -8.744       47.901       35.126       26.933     2294.515     1233.860      725.401        0.911        0.213      117.836       29.713        0.064      331.432       -0.558      874.327
01/09/2022  22:05:00      -65.402       11.225      -10.418       46.364       35.144       19.510     2149.606     1235.121      380.625        0.414        0.188       66.358       14.647        0.049      331.428       -0.564      874.326
01/09/2022  22:06:00      -62.705        6.932      -15.613       47.180       45.662       20.255     2225.984     2085.051      410.249        0.447        0.236       63.087       13.265        0.044      331.476       -0.486      874.322
01/09/2022  22:07:00      -78.460       14.518      -11.248       25.716       25.650       16.954      661.322      657.929      287.445        0.405        0.080       79.791        8.125        0.010      331.545       -0.372      874.308
01/09/2022  22:08:00      -81.825       26.287       -0.320       31.662       21.758       19.169     1002.503      473.420      367.452        0.461        0.092       85.944       17.777        0.043      331.436       -0.553      874.292
01/09/2022  22:09:00      -68.147        6.784        0.474       53.959       29.281       19.928     2911.617      857.370      397.127        0.443        0.208       68.484       21.997        0.103      331.514       -0.421      874.290
01/09/2022  22:10:00      -56.185       -7.443       -5.256       39.259       26.487       20.191     1541.265      701.553      407.691        0.294        0.133       56.675        6.277        0.012      331.605       -0.273      874.294
01/09/2022  22:11:00      -84.085       11.666        4.992       52.892       30.901       23.691     2797.541      954.893      561.249        0.577        0.216       84.891       27.383        0.104      331.496       -0.453      874.292
01/09/2022  22:12:00     -129.668       12.861       -4.176       47.040       34.409       22.072     2212.793     1183.972      487.189        1.044        0.194      130.304       13.113        0.010      331.481       -0.476      874.293
01/09/2022  22:13:00      -53.930        4.571       -6.001       53.019       40.965       25.509     2811.004     1678.102      650.725        0.405        0.257       54.123       24.776        0.210      331.392       -0.623      874.291
01/09/2022  22:14:00      -42.191       -3.404       -4.818       51.802       28.779       33.436     2683.419      828.240     1117.940        0.322        0.231       42.328       25.091        0.351      331.387       -0.631      874.301
01/09/2022  22:15:00      -81.830       10.636       -1.459       54.062       31.875       26.233     2922.741     1015.988      688.158        0.572        0.231       82.519       25.820        0.098      331.362       -0.673      874.323
01/09/2022  22:16:00      -76.131       20.131       -4.056       49.310       34.898       20.231     2431.457     1217.902      409.287        0.514        0.203       78.748       19.207        0.059      331.383       -0.638      874.331
01/09/2022  22:17:00      -18.655       18.393       -0.720       30.533       29.415       21.305      932.247      865.268      453.920        0.147        0.113       26.198       14.051        0.288      331.335       -0.717      874.334
01/09/2022  22:18:00      -28.788       -3.527       -7.789       27.479       22.040       16.217      755.110      485.742      263.005        0.120        0.075       29.003        3.986        0.019      331.396       -0.616      874.340
01/09/2022  22:19:00      -49.144       21.020      -14.246       34.155       19.972       16.855     1166.533      398.874      284.105        0.245        0.092       53.451       22.050        0.170      331.272       -0.817      874.348
01/09/2022  22:20:00      -58.364       31.105       -0.755       35.156       22.847       18.992     1235.930      521.969      360.714        0.325        0.106       66.136       17.764        0.072      331.235       -0.880      874.347
01/09/2022  22:21:00      -20.460        1.368        4.959       18.997       20.589       12.846      360.884      423.925      165.012        0.070        0.047       20.506        9.652        0.222      331.349       -0.693      874.331
01/09/2022  22:22:00      -49.710       18.643      -12.356       20.482       13.123       13.845      419.493      172.200      191.685        0.188        0.039       53.091       11.483        0.047      331.321       -0.737      874.312
01/09/2022  22:23:00      -30.766       11.401      -11.916       10.539        6.167        7.825      111.077       38.026       61.238        0.071        0.011       32.810        6.212        0.036      331.299       -0.776      874.287
01/09/2022  22:24:00      -17.353        5.169      -12.086        9.062        5.397        6.542       82.127       29.126       42.799        0.031        0.008       18.106        3.604        0.040      331.348       -0.694      874.261
01/09/2022  22:25:00       -9.427        4.952      -10.072        6.037        9.861        5.053       36.439       97.248       25.528        0.019        0.008       10.649        2.069        0.038      331.454       -0.521      874.241
01/09/2022  22:26:00       -6.659       -2.879       -6.891       15.418       16.811       10.366      237.705      282.619      107.445        0.036        0.031        7.255        3.980        0.301      331.442       -0.541      874.234
01/09/2022  22:27:00       -2.329        2.292       -2.285       10.032       16.483       13.041      100.641      271.694      170.074        0.028        0.027        3.268        8.378        6.572      331.316       -0.747      874.241
01/09/2022  22:28:00      -40.445        2.317      -10.056       22.768       18.793       10.554      518.377      353.177      111.386        0.136        0.049       40.511       10.137        0.063      331.330       -0.725      874.243
01/09/2022  22:29:00      -42.197      -11.149       -1.927       23.416       19.514       16.224      548.312      380.787      263.224        0.155        0.060       43.645       10.011        0.053      331.276       -0.812      874.246
01/09/2022  22:30:00      -58.129       -5.187       -4.574       33.702       27.518       21.185     1135.819      757.224      448.786        0.288        0.117       58.360       20.478        0.123      331.244       -0.865      874.245
01/09/2022  22:31:00      -50.962       -6.541       -2.841       33.211       27.281       22.076     1102.939      744.239      487.342        0.249        0.117       51.380       16.109        0.098      331.208       -0.925      874.256
01/09/2022  22:32:00     -108.818       19.673       -6.656       35.565       26.763       16.850     1264.852      716.279      283.912        0.727        0.113      110.582       14.187        0.016      331.173       -0.982      874.277
01/09/2022  22:33:00      -85.184        8.603       -0.931       44.497       27.218       23.671     1979.973      740.816      560.297        0.531        0.164       85.617       24.407        0.081      331.255       -0.846      874.303
01/09/2022  22:34:00      -94.951       29.921       -7.296       26.710       20.099       13.481      713.408      403.979      181.731        0.563        0.065       99.554       12.334        0.015      331.165       -0.996      874.317
01/09/2022  22:35:00      -54.822       19.702       -7.095       17.249       16.654       14.714      297.530      277.354      216.491        0.212        0.040       58.255       10.555        0.033      331.172       -0.983      874.323
01/09/2022  22:36:00      -58.197       14.815       -8.251        7.404       10.236        9.129       54.823      104.786       83.338        0.196        0.012       60.053        4.857        0.007      331.304       -0.767      874.301
01/09/2022  22:37:00      -37.498       12.734       -3.737       17.486       14.958       10.157      305.749      223.737      103.173        0.111        0.032       39.601        9.629        0.059      331.321       -0.738      874.283
01/09/2022  22:38:00      -13.627        4.789       -7.683       11.771        7.560        7.510      138.553       57.161       56.404        0.026        0.013       14.444        8.369        0.336      331.345       -0.700      874.269
01/09/2022  22:39:00      -34.134       14.452       -6.972        9.848        6.409        9.134       96.980       41.078       83.432        0.082        0.011       37.067        5.008        0.018      331.338       -0.711      874.253
01/09/2022  22:40:00      -30.681        7.706      -11.668       10.958       10.707        6.700      120.070      114.632       44.892        0.071        0.014       31.634        1.990        0.004      331.352       -0.690      874.245
01/09/2022  22:41:00      -32.668       17.582      -10.375        7.982       10.825        6.805       63.709      117.185       46.311        0.086        0.011       37.099        1.779        0.002      331.343       -0.702      874.257
01/09/2022  22:42:00       -3.997      -10.608       -3.657       10.741       12.183        5.186      115.363      148.432       26.896        0.022        0.015       11.336        4.828        0.181      331.322       -0.738      874.274
01/09/2022  22:43:00       -4.936       -7.439        0.246        7.113       15.765        7.265       50.590      248.546       52.778        0.022        0.018        8.928        5.526        0.383      331.255       -0.849      874.306
01/09/2022  22:44:00      -28.968        3.432       -6.181       22.425       15.522       10.710      502.902      240.940      114.703        0.087        0.043       29.171        9.755        0.112      331.219       -0.906      874.336
01/09/2022  22:45:00      -17.391       -9.361       -1.607       21.482       15.959       13.201      461.456      254.702      174.263        0.064        0.045       19.750       11.640        0.347      331.192       -0.952      874.357
01/09/2022  22:46:00      -65.241        2.571       -6.594       29.102       26.730       18.981      846.921      714.493      360.262        0.311        0.096       65.292       14.706        0.051      331.165       -0.995      874.376
01/09/2022  22:47:00      -39.187        0.952       -5.335       37.414       23.083       16.751     1399.820      532.833      280.599        0.189        0.111       39.199       14.988        0.146      331.210       -0.922      874.388
01/09/2022  22:48:00      -43.968        4.582       -1.896       35.174       23.057       18.343     1237.223      531.641      336.460        0.203        0.105       44.206       16.136        0.133      331.327       -0.729      874.378
01/09/2022  22:49:00      -43.792      -11.453       -3.647       23.352       24.810       17.855      545.302      615.540      318.784        0.177        0.074       45.265       10.198        0.051      331.337       -0.712      874.361
01/09/2022  22:50:00      -25.760      -19.590      -15.413       19.856       22.979       13.819      394.279      528.046      190.960        0.120        0.056       32.362       11.296        0.122      331.371       -0.657      874.357
01/09/2022  22:51:00      -54.419      -24.404       -8.620       32.439       17.297       13.089     1052.318      299.198      171.312        0.258        0.076       59.640       13.894        0.054      331.297       -0.778      874.364
01/09/2022  22:52:00      -16.705       -4.421       -5.768       29.495       21.970       13.243      869.939      482.664      175.365        0.093        0.076       17.280       10.681        0.382      331.268       -0.826      874.368
01/09/2022  22:53:00      -71.913      -16.982       -6.925       42.239       30.671       18.982     1784.120      940.712      360.310        0.430        0.154       73.891       21.629        0.086      331.248       -0.859      874.374
01/09/2022  22:54:00     -117.119      -39.179      -21.106       29.657       24.084       15.601      879.523      580.052      243.404        0.870        0.085      123.498        9.469        0.006      331.185       -0.961      874.381
01/09/2022  22:55:00      -70.563       -3.767      -10.260       39.668       37.402       30.027     1573.520     1398.892      901.631        0.449        0.194       70.664       11.383        0.026      331.135       -1.043      874.377
01/09/2022  22:56:00      -67.176      -20.384      -14.281       38.312       43.826       32.699     1467.795     1920.698     1069.194        0.479        0.223       70.201       22.014        0.098      331.129       -1.055      874.368
01/09/2022  22:57:00      -58.581       12.933       -7.039       42.022       39.011       30.542     1765.819     1521.840      932.803        0.393        0.211       59.992       17.717        0.087      331.085       -1.128      874.365
01/09/2022  22:58:00      -42.390       -6.891       -3.171       34.603       40.788       23.937     1197.397     1663.654      572.991        0.264        0.172       42.947       17.848        0.173      331.103       -1.098      874.368
01/09/2022  22:59:00      -46.326        4.311        3.371       56.142       32.124       28.900     3151.898     1031.928      835.211        0.360        0.251       46.526       26.024        0.313      331.097       -1.107      874.384
01/09/2022  23:00:00      -81.854      -23.642       -7.586       46.836       31.761       22.113     2193.630     1008.740      488.986        0.550        0.185       85.200       24.910        0.085      331.071       -1.151      874.416
01/09/2022  23:01:00      -38.979       -8.367       -5.420       51.300       25.792       18.877     2631.714      665.249      356.356        0.264        0.183       39.867       18.527        0.216      331.096       -1.109      874.441
01/09/2022  23:02:00     -125.271      -37.733      -19.605       40.503       20.318       22.239     1640.512      412.811      494.572        1.002        0.127      130.830       24.574        0.035      330.995       -1.275      874.439
01/09/2022  23:03:00     -131.636      -33.168      -29.039       21.872       18.216       17.523      478.374      331.826      307.070        1.019        0.056      135.750        9.419        0.005      330.987       -1.288      874.411
01/09/2022  23:04:00      -95.787      -13.846      -11.442       31.702       26.810       22.299     1004.986      718.784      497.225        0.586        0.111       96.782       16.237        0.028      331.050       -1.185      874.372
01/09/2022  23:05:00      -60.488      -11.990       -4.590       50.490       29.863       20.435     2549.239      891.796      417.598        0.384        0.193       61.665       20.205        0.107      331.054       -1.177      874.357
01/09/2022  23:06:00     -138.157      -28.395      -20.490       35.501       29.613       20.958     1260.313      876.945      439.231        1.144        0.129      141.045       16.338        0.013      330.911       -1.412      874.349
01/09/2022  23:07:00      -90.705       -0.896      -12.463       46.314       32.602       22.988     2145.003     1062.915      528.427        0.606        0.187       90.709       22.074        0.059      331.000       -1.268      874.358
01/09/2022  23:08:00      -66.895       -1.647       -5.757       46.988       22.439       22.516     2207.879      503.517      506.959        0.386        0.161       66.915       23.023        0.118      330.930       -1.383      874.344
01/09/2022  23:09:00      -42.312       -5.846       -0.285       40.486       25.140       22.103     1639.112      632.036      488.547        0.229        0.138       42.714       19.127        0.201      330.971       -1.314      874.325
01/09/2022  23:10:00      -19.673        5.076        0.239       25.512       27.495       16.829      650.885      755.998      283.226        0.105        0.085       20.317       15.683        0.596      330.939       -1.367      874.315
01/09/2022  23:11:00      -42.278        0.176       -6.458       27.701       26.441       19.077      767.367      699.103      363.917        0.183        0.092       42.278       17.194        0.165      330.952       -1.346      874.325
01/09/2022  23:12:00      -29.089      -12.373       -6.479       31.964       20.566       16.949     1021.666      422.948      287.254        0.139        0.087       31.610       10.660        0.114      330.993       -1.279      874.354
01/09/2022  23:13:00      -89.553      -10.758       -1.267       58.740       36.585       29.866     3450.425     1338.468      891.995        0.691        0.284       90.197       31.511        0.122      330.953       -1.343      874.373
01/09/2022  23:14:00      -85.099      -10.695      -14.073       64.078       29.778       27.722     4106.007      886.715      768.504        0.666        0.288       85.768       26.986        0.099      330.918       -1.404      874.382
01/09/2022  23:15:00      -55.389       -8.326      -10.726       45.463       42.460       26.506     2066.870     1802.830      702.588        0.391        0.229       56.012       20.970        0.140      330.823       -1.557      874.385
01/09/2022  23:16:00      -78.847       26.873       -3.002       39.487       28.413       20.461     1559.217      807.312      418.666        0.487        0.139       83.301       20.434        0.060      330.712       -1.739      874.405
01/09/2022  23:17:00      -27.913        2.390       -6.871       28.289       19.550       16.811      800.258      382.192      282.608        0.115        0.073       28.015       13.698        0.239      330.809       -1.578      874.426
01/09/2022  23:18:00      -90.440      -15.329      -10.867       25.967       34.643       17.500      674.307     1200.127      306.247        0.536        0.109       91.730       11.864        0.017      330.846       -1.520      874.446
01/09/2022  23:19:00      -44.456        5.271       -7.532       45.946       37.666       16.722     2111.040     1418.706      279.636        0.293        0.190       44.767       16.721        0.140      330.810       -1.578      874.456
01/09/2022  23:20:00      -50.345       -2.567       -3.144       39.822       36.390       20.744     1585.809     1324.254      430.330        0.295        0.167       50.410       18.596        0.136      330.834       -1.540      874.466
01/09/2022  23:21:00      -71.498       -9.035      -19.840       37.232       21.517       21.136     1386.212      462.988      446.723        0.394        0.115       72.067       15.607        0.047      330.856       -1.503      874.480
01/09/2022  23:22:00      -61.043       -6.333      -15.298       40.634       24.892       16.888     1651.125      619.606      285.196        0.328        0.128       61.371       15.111        0.061      330.833       -1.540      874.464
01/09/2022  23:23:00      -60.634       26.649      -11.962       24.553       19.730       13.911      602.847      389.269      193.523        0.286        0.059       66.232        7.272        0.012      330.810       -1.578      874.434
01/09/2022  23:24:00      -37.183       -2.558       -6.981       35.295       21.219       14.939     1245.753      450.255      223.163        0.168        0.096       37.270       13.201        0.125      330.893       -1.443      874.415
01/09/2022  23:25:00      -35.018        6.330       -0.516       19.900       26.980       18.705      396.024      727.931      349.892        0.137        0.074       35.586       10.136        0.081      330.880       -1.464      874.402
01/09/2022  23:26:00      -24.325        3.759       -1.474       31.114       21.085       18.057      968.112      444.564      326.069        0.117        0.087       24.613       16.805        0.466      330.929       -1.383      874.399
01/09/2022  23:27:00      -22.370        2.784       -4.909       24.466       11.603       11.979      598.609      134.641      143.504        0.070        0.044       22.543       10.409        0.213      330.923       -1.393      874.385
01/09/2022  23:28:00      -48.036        9.941      -11.931       14.897        7.208        6.828      221.911       51.952       46.619        0.143        0.016       49.054        5.175        0.011      330.898       -1.434      874.375
01/09/2022  23:29:00       -4.705      -12.200      -19.862        9.226        9.802        8.792       85.113       96.073       77.298        0.041        0.013       13.076        6.677        0.261      330.927       -1.387      874.374
01/09/2022  23:30:00       -8.522       -6.656      -17.388       14.258       16.598        9.772      203.303      275.501       95.497        0.050        0.029       10.813       10.609        0.963      331.152       -1.018      874.387
01/09/2022  23:31:00        4.369      -22.076      -12.324       17.308       16.607       11.898      299.551      275.790      141.569        0.069        0.036       22.504        7.367        0.107      331.148       -1.022      874.405
01/09/2022  23:32:00       16.029      -23.277      -13.357       18.017       24.910       11.354      324.598      620.484      128.904        0.103        0.054       28.262       10.961        0.150      330.998       -1.270      874.427
01/09/2022  23:33:00       27.811       17.486       -3.419       16.003        8.980        7.649      256.089       80.648       58.515        0.074        0.020       32.852        4.626        0.020      330.842       -1.525      874.444
01/09/2022  23:34:00       -6.843       28.536       -2.855       11.079        9.404        5.863      122.751       88.432       34.371        0.056        0.012       29.345        3.927        0.018      330.970       -1.316      874.447
01/09/2022  23:35:00        1.085       15.633       -7.234        4.928        6.942        7.448       24.288       48.194       55.475        0.021        0.006       15.671        4.680        0.089      330.953       -1.346      874.452
01/09/2022  23:36:00        6.725        2.885       -1.130        8.159        2.983        3.811       66.576        8.897       14.527        0.007        0.004        7.317        3.332        0.207      330.910       -1.416      874.470
01/09/2022  23:37:00      -24.829      -20.590      -13.379       16.469       11.323       10.021      271.235      128.210      100.412        0.086        0.025       32.255        2.129        0.004      331.025       -1.225      874.463
01/09/2022  23:38:00      -19.293      -25.082      -21.690       15.408       12.862        9.902      237.421      165.427       98.045        0.099        0.025       31.643        6.807        0.046      331.000       -1.268      874.443
01/09/2022  23:39:00      -16.746       -1.250      -13.328       13.865       21.413       11.285      192.245      458.506      127.356        0.062        0.039       16.793        9.938        0.350      330.940       -1.366      874.415
01/09/2022  23:40:00      -22.621        2.708       -8.496       16.895        9.882        8.713      285.439       97.653       75.924        0.053        0.023       22.782        2.565        0.013      330.933       -1.377      874.393
01/09/2022  23:41:00      -12.074       -2.091       -9.692       10.443       14.675        8.934      109.061      215.350       79.812        0.032        0.020       12.254        7.644        0.389      331.029       -1.220      874.384
01/09/2022  23:42:00      -11.223      -25.006       -8.982       24.369       12.292       15.768      593.837      151.092      248.637        0.091        0.050       27.409       12.043        0.193      331.064       -1.163      874.394
01/09/2022  23:43:00       -4.260      -22.474      -10.690       18.809       24.656       12.994      353.762      607.905      168.845        0.088        0.057       22.875        7.704        0.113      330.995       -1.275      874.401
01/09/2022  23:44:00      -29.774       12.300       -7.549       15.897       10.235        9.919      252.706      104.749       98.390        0.078        0.023       32.215        7.529        0.055      331.037       -1.206      874.396
01/09/2022  23:45:00      -64.610        3.379      -12.471       16.390       21.853       10.464      268.621      477.565      109.501        0.260        0.043       64.698        5.394        0.007      331.056       -1.175      874.400
01/09/2022  23:46:00      -44.494       -6.811       -4.987       48.185       19.962       24.245     2321.754      398.462      587.807        0.268        0.165       45.012       26.662        0.351      330.960       -1.334      874.426
01/09/2022  23:47:00      -71.621       10.404        0.531       46.811       30.709       24.912     2191.227      943.059      620.595        0.450        0.188       72.373       22.069        0.093      331.043       -1.196      874.437
01/09/2022  23:48:00     -110.874      -18.049      -16.733       33.345       39.581       22.072     1111.899     1566.667      487.187        0.803        0.158      112.334       13.645        0.015      330.983       -1.295      874.449
01/09/2022  23:49:00      -86.932       -6.866      -12.173       47.838       33.833       25.142     2288.516     1144.692      632.128        0.591        0.203       87.203       24.103        0.076      330.968       -1.321      874.459
01/09/2022  23:50:00      -93.138       -7.439       -4.988       34.807       29.745       26.822     1211.532      884.778      719.446        0.578        0.141       93.434       17.465        0.035      330.913       -1.409      874.480
01/09/2022  23:51:00      -48.343       -9.319        1.649       36.395       36.226       18.772     1324.568     1312.341      352.402        0.271        0.149       49.233       16.162        0.108      330.905       -1.422      874.475
01/09/2022  23:52:00      -40.962        4.677        4.316       31.798       30.338       20.482     1011.081      920.408      419.503        0.203        0.118       41.228       17.435        0.179      330.915       -1.407      874.466
01/09/2022  23:53:00      -66.351        5.907       -2.827       27.887       20.648       18.156      777.657      426.343      329.648        0.299        0.077       66.614       10.327        0.024      330.999       -1.269      874.464
01/09/2022  23:54:00      -69.672       13.817      -12.086       23.625       19.787       17.940      558.118      391.533      321.843        0.323        0.064       71.029       13.977        0.039      330.855       -1.504      874.470
01/09/2022  23:55:00      -84.736      -24.760       -3.808       27.854       23.379       18.835      775.829      546.597      354.755        0.474        0.084       88.280       12.014        0.019      330.924       -1.393      874.478
01/09/2022  23:56:00      -30.479        3.290       -1.093       26.684       21.831       14.864      712.021      476.587      220.938        0.118        0.070       30.656        6.179        0.041      330.967       -1.321      874.486
01/09/2022  23:57:00      -15.803       -5.463       -8.534       29.269       26.646       13.117      856.697      710.005      172.059        0.105        0.087       16.720       11.869        0.504      330.996       -1.273      874.475
01/09/2022  23:58:00      -70.077       26.548       -9.753       21.723       17.969       20.927      471.875      322.869      437.941        0.347        0.062       74.937       14.914        0.040      330.941       -1.365      874.447
01/09/2022  23:59:00      -11.932       12.019       -7.432       18.329       16.056       10.326      335.954      257.791      106.623        0.052        0.035       16.936        8.212        0.235      330.968       -1.320      874.417
01/10/2022  00:00:00        0.234        0.214       -7.613       12.098       12.993       11.355      146.370      168.819      128.945        0.025        0.022        0.317        8.275      680.366      330.944       -1.360      874.403
01/10/2022  00:01:00        3.898        4.403        3.685        8.040       12.998        7.407       64.634      168.956       54.864        0.017        0.014        5.881        1.791        0.093      330.887       -1.453      874.399
01/10/2022  00:02:00        1.494       -7.073       -4.005       11.958       13.303       12.129      143.000      176.970      147.102        0.027        0.023        7.229        7.509        1.079      330.905       -1.423      874.390
01/10/2022  00:03:00       -4.325       -0.847       -8.808       19.028       16.316       14.601      362.077      266.221      213.189        0.047        0.042        4.407       10.365        5.533      330.979       -1.303      874.376
01/10/2022  00:04:00      -24.226      -21.154      -12.868       22.836       25.520       17.093      521.476      651.287      292.174        0.133        0.073       32.162        9.562        0.088      330.980       -1.300      874.354
01/10/2022  00:05:00      -16.615        6.910       -6.217       24.244       21.727       12.149      587.784      472.047      147.594        0.078        0.060       17.994        7.922        0.194      330.922       -1.394      874.333
01/10/2022  00:06:00       -4.219        5.356       -2.856       10.978       17.731       10.513      120.522      314.384      110.533        0.030        0.027        6.818        7.774        1.300      330.816       -1.568      874.329
01/10/2022  00:07:00      -54.205       -0.021       -1.309       47.524       14.110       13.936     2258.547      199.103      194.225        0.280        0.133       54.205       15.889        0.086      330.828       -1.550      874.341
01/10/2022  00:08:00      -37.322       -4.094       -7.114       33.726       18.310       14.825     1137.467      335.246      219.787        0.158        0.085       37.545       17.168        0.209      330.884       -1.458      874.359
01/10/2022  00:09:00        2.525      -18.829      -10.953       14.182       19.195       10.967      201.138      368.443      120.275        0.059        0.034       18.997        5.641        0.088      330.885       -1.456      874.365
01/10/2022  00:10:00      -11.724      -14.111       -8.880       14.077       20.078       13.122      198.174      403.109      172.178        0.059        0.039       18.346        7.699        0.176      330.888       -1.449      874.373
01/10/2022  00:11:00       -1.335      -10.783       -7.770       16.284       11.556       10.341      265.178      133.549      106.943        0.034        0.025       10.865        8.038        0.547      330.876       -1.470      874.371
01/10/2022  00:12:00        6.507       -5.514        4.734       14.039       11.788        8.774      197.080      138.963       76.977        0.025        0.021        8.529        3.241        0.144      330.891       -1.445      874.370
01/10/2022  00:13:00       -8.884       -7.370       -0.590       16.010       15.678       14.291      256.323      245.805      204.229        0.042        0.035       11.543       11.004        0.909      330.921       -1.398      874.365
01/10/2022  00:14:00       -2.092       -9.537       -9.202        8.909        8.969        9.864       79.374       80.439       97.307        0.022        0.013        9.763        4.348        0.198      330.892       -1.445      874.353
01/10/2022  00:15:00       -2.978       -1.389       -7.214       10.736        7.213        6.384      115.272       52.030       40.752        0.014        0.010        3.286        3.891        1.401      330.863       -1.492      874.339
01/10/2022  00:16:00      -19.066       15.184       -3.967       17.640       18.911       12.083      311.164      357.611      145.996        0.071        0.041       24.374       11.212        0.212      330.841       -1.526      874.313
01/10/2022  00:17:00        4.754       -6.430        1.444        5.434        8.436        6.944       29.528       71.164       48.223        0.011        0.007        7.997        5.393        0.455      330.785       -1.619      874.287
01/10/2022  00:18:00       11.792        8.476       -3.998        7.087        5.524        6.457       50.229       30.511       41.687        0.017        0.006       14.522        4.015        0.076      330.798       -1.599      874.279
01/10/2022  00:19:00        8.270       15.524       -3.662        7.065        7.400        5.096       49.913       54.758       25.967        0.023        0.007       17.590        1.776        0.010      330.828       -1.548      874.281
01/10/2022  00:20:00       -8.297       -6.490       -6.341       13.644       12.508       10.358      186.145      156.451      107.291        0.030        0.022       10.534        8.603        0.667      330.808       -1.582      874.291
01/10/2022  00:21:00       -9.409        1.850       -0.841       13.952       10.036        6.993      194.645      100.731       48.907        0.022        0.017        9.589        3.463        0.130      330.714       -1.737      874.308
01/10/2022  00:22:00      -56.619       14.408       -8.931       21.716       11.624       12.599      471.592      135.107      158.728        0.213        0.038       58.423        9.754        0.028      330.669       -1.810      874.321
01/10/2022  00:23:00      -47.004        5.460       -6.452       30.714       19.874       12.534      943.359      394.963      157.100        0.189        0.075       47.320        5.332        0.013      330.728       -1.713      874.324
01/10/2022  00:24:00        3.161      -20.775       -6.842       13.471       20.204       12.942      181.478      408.184      167.484        0.062        0.038       21.014        6.031        0.082      330.766       -1.650      874.317
01/10/2022  00:25:00      -19.648      -30.593      -13.600       17.659       16.518       12.148      311.850      272.837      147.581        0.112        0.037       36.359        4.387        0.015      330.753       -1.672      874.307
01/10/2022  00:26:00       -0.158      -13.224       -8.966        9.246        9.712       11.097       85.496       94.317      123.148        0.028        0.015       13.225        5.266        0.159      330.763       -1.655      874.302
01/10/2022  00:27:00        4.341       -4.615       -5.928        9.528        8.928        9.316       90.774       79.702       86.791        0.017        0.013        6.336        4.122        0.423      330.859       -1.498      874.316
01/10/2022  00:28:00       -7.577       -2.027       -0.335       19.235       15.863       16.358      369.968      251.630      267.578        0.048        0.044        7.844       10.172        1.682      330.808       -1.581      874.347
01/10/2022  00:29:00      -59.552      -16.804       -4.040       60.364       34.286       26.779     3643.781     1175.560      717.122        0.469        0.277       61.878       19.494        0.099      330.843       -1.525      874.387
01/10/2022  00:30:00      -75.581      -15.727       -0.745       68.937       33.938       27.718     4752.370     1151.817      768.310        0.632        0.334       77.200       29.128        0.142      330.842       -1.527      874.410
01/10/2022  00:31:00      -48.806      -31.500       -2.009       43.080       33.919       27.364     1855.886     1150.472      748.810        0.357        0.188       58.089       18.861        0.105      330.881       -1.462      874.412
01/10/2022  00:32:00      -41.537      -36.258      -13.066       31.060       37.029       17.624      964.748     1371.160      310.612        0.293        0.132       55.136       17.154        0.097      330.867       -1.486      874.413
01/10/2022  00:33:00     -108.361       -4.275      -10.043       39.054       24.905       21.882     1525.229      620.266      478.836        0.724        0.131      108.445       13.837        0.016      330.737       -1.698      874.401
01/10/2022  00:34:00      -28.437       11.088        5.140       36.120       31.160       20.270     1304.662      970.946      410.864        0.182        0.134       30.522       12.708        0.173      330.734       -1.702      874.379
01/10/2022  00:35:00      -62.068      -12.875       -8.827       41.279       18.790       18.127     1703.927      353.069      328.598        0.324        0.119       63.389       18.705        0.087      330.727       -1.714      874.359
01/10/2022  00:36:00      -17.913      -18.246       -9.186       35.680       15.704       19.057     1273.092      246.626      363.169        0.131        0.094       25.569       20.416        0.638      330.727       -1.715      874.355
01/10/2022  00:37:00      -21.997      -31.757      -11.007       33.093       26.834       16.169     1095.134      720.038      261.434        0.184        0.104       38.631        9.259        0.057      330.810       -1.577      874.353
01/10/2022  00:38:00      -30.377      -18.823      -18.177       20.114       14.867       14.862      404.576      221.019      220.864        0.123        0.042       35.736        7.436        0.043      330.751       -1.675      874.355
01/10/2022  00:39:00      -44.131      -14.130      -18.477       24.443       22.646       21.788      597.473      512.838      474.723        0.204        0.079       46.338       18.328        0.156      330.686       -1.782      874.358
01/10/2022  00:40:00        1.046       -3.047       -4.255       12.398       18.047       13.444      153.713      325.693      180.729        0.034        0.033        3.221        3.582        1.236      330.642       -1.855      874.349
01/10/2022  00:41:00       -3.975       -3.738       -7.477       23.157       14.525       12.781      536.250      210.986      163.363        0.050        0.046        5.456        6.139        1.266      330.764       -1.654      874.356
01/10/2022  00:42:00      -33.404        8.078       -6.916       30.585       17.966       10.254      935.471      322.769      105.140        0.130        0.068       34.367        8.142        0.056      330.608       -1.911      874.374
01/10/2022  00:43:00      -43.980       19.479       -3.148       24.242       16.528       15.042      587.661      273.184      226.262        0.171        0.054       48.101       10.520        0.048      330.396       -2.257      874.391
01/10/2022  00:44:00      -37.103        4.628       -4.917       22.300       14.620       12.649      497.303      213.742      160.003        0.115        0.044       37.390        8.415        0.051      330.437       -2.190      874.394
01/10/2022  00:45:00      -16.612        1.720       -6.891       11.853       10.078        8.681      140.487      101.570       75.354        0.032        0.016       16.701        7.129        0.182      330.633       -1.868      874.391
01/10/2022  00:46:00      -13.721        6.029       -5.664       13.930       17.594        8.831      194.048      309.534       77.986        0.042        0.029       14.987        4.833        0.104      330.717       -1.731      874.381
01/10/2022  00:47:00      -29.887       24.923       -7.306       13.018        6.811        6.548      169.461       46.392       42.881        0.091        0.013       38.915        4.834        0.015      330.582       -1.953      874.374
01/10/2022  00:48:00      -21.684       24.357       -6.640        6.308        5.380        5.616       39.788       28.946       31.535        0.060        0.005       32.611        2.077        0.004      330.698       -1.761      874.370
01/10/2022  00:49:00      -25.784       33.365       -7.388       10.458        9.317        6.712      109.365       86.808       45.050        0.104        0.012       42.167        4.102        0.009      330.707       -1.747      874.382
01/10/2022  00:50:00      -41.692       28.307      -13.324        9.873       10.209        9.978       97.472      104.227       99.567        0.151        0.015       50.393        6.014        0.014      330.627       -1.880      874.399
01/10/2022  00:51:00      -55.902       12.411      -17.756       20.211       24.416       12.944      408.492      596.130      167.553        0.238        0.059       57.263       10.981        0.037      330.563       -1.986      874.416
01/10/2022  00:52:00      -24.364        5.285      -10.261       32.879       20.816       15.640     1081.012      433.286      244.595        0.124        0.088       24.931        2.793        0.013      330.522       -2.051      874.438
01/10/2022  00:53:00      -27.031        1.643       -0.478       32.154       29.553       24.808     1033.874      873.408      615.440        0.163        0.126       27.081       18.714        0.478      330.448       -2.173      874.461
01/10/2022  00:54:00     -102.834        5.653       -5.947       45.179       30.635       22.873     2041.141      938.525      523.173        0.707        0.175      102.989       14.000        0.018      330.459       -2.156      874.470
01/10/2022  00:55:00      -56.349        5.169        0.648       49.430       33.150       25.013     2443.345     1098.925      625.668        0.368        0.208       56.585       17.805        0.099      330.491       -2.102      874.473
01/10/2022  00:56:00      -20.932        7.957       -0.580       50.063       21.477       20.153     2506.255      461.271      406.139        0.194        0.169       22.393       21.820        0.949      330.526       -2.046      874.475
01/10/2022  00:57:00      -29.090       -3.945       -4.065       37.698       13.907       19.376     1421.107      193.399      375.428        0.143        0.099       29.356       17.755        0.366      330.488       -2.108      874.477
01/10/2022  00:58:00      -31.680       -7.970        3.690       34.103       22.723       17.713     1163.021      516.331      313.755        0.154        0.100       32.667       18.940        0.336      330.591       -1.937      874.472
01/10/2022  00:59:00      -39.921       -3.811       -4.048       33.640       25.295       17.153     1131.661      639.847      294.225        0.184        0.103       40.102       12.840        0.103      330.617       -1.895      874.484
01/10/2022  01:00:00      -57.280      -13.987       -4.095       47.206       27.356       22.655     2228.425      748.361      513.245        0.349        0.175       58.963       19.183        0.106      330.611       -1.905      874.487
01/10/2022  01:01:00     -153.470      -15.209       -7.815       40.036       36.043       29.188     1602.865     1299.107      851.932        1.380        0.188      154.222       26.721        0.030      330.444       -2.179      874.508
01/10/2022  01:02:00     -118.063      -16.214       -4.049       58.908       37.405       34.044     3470.135     1399.126     1158.974        1.012        0.301      119.171       32.945        0.076      330.283       -2.444      874.529
01/10/2022  01:03:00      -26.118        6.206       -2.282       34.715       31.596       27.049     1205.126      998.306      731.628        0.183        0.147       26.846       17.102        0.406      330.413       -2.231      874.540
01/10/2022  01:04:00      -43.184       -0.695        3.586       48.596       29.400       20.978     2361.608      864.334      440.081        0.277        0.183       43.190       25.030        0.336      330.425       -2.212      874.535
01/10/2022  01:05:00      -44.034       16.862       -3.340       41.377       23.184       18.833     1712.067      537.512      354.672        0.242        0.130       47.152       15.764        0.112      330.388       -2.272      874.502
01/10/2022  01:06:00      -49.791        1.305       -5.905       25.735       19.672       15.637      662.293      387.002      244.526        0.190        0.065       49.808        7.885        0.025      330.487       -2.110      874.466
01/10/2022  01:07:00      -67.604       -7.454      -14.753       18.030       22.991       17.838      325.076      528.596      318.206        0.301        0.059       68.014       10.725        0.025      330.541       -2.020      874.442
01/10/2022  01:08:00      -50.950       23.598      -11.272       12.501       10.648        9.994      156.268      113.377       99.876        0.182        0.018       56.150        5.830        0.011      330.556       -1.997      874.451
01/10/2022  01:09:00      -59.581       13.145      -10.560       16.493       21.340       11.674      272.024      455.404      136.277        0.235        0.043       61.014        7.243        0.014      330.584       -1.951      874.480
01/10/2022  01:10:00      -69.503        4.362      -11.791       26.761       26.705       19.870      716.128      713.139      394.826        0.341        0.091       69.640       11.989        0.030      330.566       -1.981      874.508
01/10/2022  01:11:00      -62.883       -6.725       -4.625       53.876       25.310       19.196     2902.616      640.592      368.472        0.397        0.196       63.241       21.971        0.121      330.539       -2.022      874.513
01/10/2022  01:12:00      -77.474       -0.014       -8.066       37.649       29.113       16.880     1417.479      847.590      284.927        0.431        0.127       77.474       14.424        0.035      330.459       -2.154      874.499
01/10/2022  01:13:00     -102.281       35.309      -15.499       14.952       12.342       12.797      223.569      152.333      163.754        0.624        0.027      108.204        7.832        0.005      330.496       -2.096      874.495
01/10/2022  01:14:00      -71.096        7.849       -6.747       41.389       23.538       19.213     1713.023      554.050      369.157        0.390        0.132       71.528       20.846        0.085      330.577       -1.962      874.513
01/10/2022  01:15:00      -60.261        2.147      -10.782       42.749       26.562       25.403     1827.513      705.565      645.334        0.346        0.159       60.299       19.951        0.109      330.482       -2.116      874.517
01/10/2022  01:16:00     -128.620      -21.034       -5.560       36.693       37.892       22.334     1346.371     1435.812      498.819        1.015        0.164      130.329       17.851        0.019      330.504       -2.082      874.500
01/10/2022  01:17:00     -139.908        5.322      -21.084       42.860       31.776       30.147     1836.941     1009.707      908.841        1.190        0.188      140.009       17.106        0.015      330.444       -2.180      874.480
01/10/2022  01:18:00     -118.479       -4.601       -5.721       59.934       39.306       29.560     3592.131     1544.956      873.794        1.005        0.301      118.568       31.057        0.069      330.431       -2.200      874.481
01/10/2022  01:19:00     -133.269       -7.399      -21.091       34.238       29.688       24.321     1172.268      881.401      591.513        1.045        0.132      133.474       13.751        0.011      330.381       -2.283      874.495
01/10/2022  01:20:00      -58.097       -0.223       -9.843       55.115       20.796       20.326     3037.660      432.464      413.156        0.368        0.194       58.097       20.036        0.119      330.430       -2.203      874.508
01/10/2022  01:21:00      -43.317       -0.659      -12.253       25.306       22.107       16.054      640.379      488.738      257.744        0.171        0.069       43.322       13.879        0.103      330.451       -2.169      874.514
01/10/2022  01:22:00      -61.930       37.957      -16.417       19.494       19.688       15.442      380.000      387.617      238.466        0.328        0.050       72.637       16.734        0.053      330.348       -2.334      874.530
01/10/2022  01:23:00      -58.708       16.859      -16.965       23.002       20.453       13.800      529.097      418.339      190.444        0.258        0.057       61.081       11.471        0.035      330.360       -2.316      874.546
01/10/2022  01:24:00      -47.676        4.896       -2.839       29.210       23.730       17.949      853.227      563.094      322.184        0.202        0.087       47.927       12.232        0.065      330.335       -2.358      874.557
01/10/2022  01:25:00      -31.220        1.463       -5.849       28.925       20.938       17.445      836.668      438.389      304.339        0.129        0.079       31.254       13.445        0.185      330.308       -2.402      874.563
01/10/2022  01:26:00      -52.393       14.945       -1.856       37.772       19.934       21.253     1426.711      397.370      451.682        0.262        0.114       54.482       15.458        0.081      330.299       -2.418      874.564
01/10/2022  01:27:00      -73.665       36.362       -8.597       16.422       23.566       13.467      269.691      555.359      181.360        0.391        0.050       82.151        6.941        0.007      330.238       -2.517      874.558
01/10/2022  01:28:00      -65.927       38.223       -5.911       32.281       20.274       18.765     1042.049      411.050      352.128        0.382        0.090       76.206       17.061        0.050      330.178       -2.616      874.550
01/10/2022  01:29:00      -40.642       -6.416      -13.111       41.944       25.363       14.883     1759.277      643.295      221.494        0.224        0.131       41.145       16.478        0.160      330.307       -2.404      874.557
01/10/2022  01:30:00      -67.975       17.586      -11.112       14.595       15.567       12.894      213.023      242.320      166.265        0.284        0.031       70.213       10.342        0.022      330.297       -2.420      874.571
01/10/2022  01:31:00      -39.201      -10.240       -1.244       36.817       25.602       17.015     1355.514      655.441      289.517        0.197        0.115       40.517       15.421        0.145      330.378       -2.286      874.591
01/10/2022  01:32:00      -42.291        5.725       -0.705       35.222       23.180       17.116     1240.607      537.311      292.952        0.195        0.104       42.677       13.948        0.107      330.353       -2.328      874.602
01/10/2022  01:33:00      -71.507       26.744       -7.167       23.696       18.245       13.482      561.519      332.884      181.759        0.348        0.054       76.344       12.280        0.026      330.369       -2.302      874.590
01/10/2022  01:34:00      -63.516       27.708       -9.843       24.256       16.986       14.932      588.368      288.510      222.955        0.300        0.055       69.297       14.623        0.045      330.341       -2.346      874.576
01/10/2022  01:35:00     -107.649       28.227      -13.756       22.009       17.003       17.949      484.413      289.114      322.152        0.683        0.055      111.288        9.947        0.008      330.295       -2.423      874.588
01/10/2022  01:36:00     -114.374       13.259      -14.806       47.377       33.923       25.652     2244.535     1150.756      658.003        0.876        0.203      115.140        3.933        0.001      330.324       -2.376      874.622
01/10/2022  01:37:00     -148.449       24.773       -8.026       45.446       30.675       23.013     2065.320      940.981      529.587        1.312        0.177      150.502       17.430        0.013      330.315       -2.391      874.644
01/10/2022  01:38:00     -122.658       35.199       -4.253       39.070       30.105       20.486     1526.457      906.321      419.680        0.958        0.143      127.609       19.250        0.023      330.284       -2.441      874.657
01/10/2022  01:39:00     -111.234       60.009      -19.960       31.380       31.210       20.704      984.717      974.078      428.669        0.938        0.119      126.389       12.325        0.010      330.245       -2.506      874.653
01/10/2022  01:40:00     -116.627       63.637      -20.725       34.630       35.733       21.912     1199.266     1276.871      480.136        1.052        0.148      132.859       14.783        0.012      330.232       -2.526      874.642
01/10/2022  01:41:00     -105.288       35.986      -16.612       36.051       30.535       21.319     1299.684      932.356      454.505        0.767        0.134      111.268       15.801        0.020      330.210       -2.564      874.628
01/10/2022  01:42:00     -135.946       48.621      -21.994       22.814       25.875       16.317      520.496      669.537      266.250        1.139        0.073      144.379        9.911        0.005      330.180       -2.613      874.618
01/10/2022  01:43:00      -74.807       -9.639       -3.259       48.459       30.597       23.998     2348.261      936.179      575.908        0.478        0.193       75.426       26.066        0.119      330.236       -2.521      874.607
01/10/2022  01:44:00        9.338       -1.868        9.641       19.228       14.875       21.411      369.701      221.262      458.436        0.062        0.052        9.523       11.400        1.433      330.234       -2.523      874.595
01/10/2022  01:45:00      -29.226        5.391      -13.838       25.230       15.663       16.493      636.573      245.338      272.027        0.111        0.058       29.719       15.366        0.267      330.319       -2.384      874.592
01/10/2022  01:46:00      -29.047        9.523       -7.527       21.447       15.509        8.427      459.963      240.541       71.012        0.088        0.039       30.569        4.550        0.022      330.310       -2.399      874.585
01/10/2022  01:47:00       -1.760       -1.871      -13.254        6.862       13.643        7.614       47.091      186.140       57.977        0.024        0.015        2.569        7.172        7.794      330.378       -2.287      874.574
01/10/2022  01:48:00      -20.339      -38.018      -20.659       20.863       19.771       15.781      435.268      390.877      249.039        0.168        0.054       43.117       14.105        0.107      330.453       -2.164      874.553
01/10/2022  01:49:00      -42.489        0.170      -14.486       18.692       18.639       14.071      349.394      347.406      197.992        0.145        0.045       42.489        7.515        0.031      330.469       -2.138      874.535
01/10/2022  01:50:00      -74.634       15.703      -10.523       30.955       24.337       11.544      958.215      592.274      133.272        0.381        0.084       76.268       13.847        0.033      330.377       -2.288      874.514
01/10/2022  01:51:00      -94.785       17.462       -9.003       21.959       21.440       16.614      482.196      459.677      276.041        0.529        0.061       96.380       11.241        0.014      330.411       -2.234      874.520
01/10/2022  01:52:00      -80.443       12.667       -9.972       30.808       23.926       17.487      949.143      572.463      305.797        0.428        0.091       81.434       14.472        0.032      330.363       -2.311      874.524
01/10/2022  01:53:00      -70.679       12.847       -8.177       23.574       13.699       14.539      555.753      187.674      211.395        0.309        0.048       71.837       13.915        0.038      330.374       -2.294      874.518
01/10/2022  01:54:00      -31.353       -3.039        0.170       25.447       14.227       12.691      647.572      202.400      161.055        0.100        0.051       31.500       15.529        0.243      330.337       -2.354      874.506
01/10/2022  01:55:00      -56.628        9.228      -16.409       15.221       10.183       11.894      231.689      103.696      141.464        0.202        0.024       57.375        7.859        0.019      330.453       -2.165      874.509
01/10/2022  01:56:00      -49.786       12.135      -13.092       16.257       11.144       10.854      264.290      124.192      117.812        0.165        0.025       51.244        6.885        0.018      330.543       -2.018      874.515
01/10/2022  01:57:00      -66.590       23.968      -19.930       14.131       11.031        8.741      199.689      121.692       76.408        0.290        0.020       70.773        2.844        0.002      330.549       -2.009      874.516
01/10/2022  01:58:00      -24.022        5.217       -9.097       31.065       13.264       16.869      965.043      175.926      284.553        0.106        0.071       24.582       16.646        0.459      330.430       -2.204      874.520
01/10/2022  01:59:00      -15.015       -9.937        3.403       21.341       12.939       11.176      455.427      167.422      124.914        0.054        0.037       18.005       10.972        0.371      330.530       -2.040      874.540
01/10/2022  02:00:00      -35.660       -7.342       -4.101       31.174       20.786       12.856      971.842      432.047      165.267        0.146        0.078       36.408       13.730        0.142      330.540       -2.022      874.558
01/10/2022  02:01:00      -45.373       10.784       -5.003       29.286       16.808       12.312      857.674      282.495      151.590        0.175        0.065       46.636       15.124        0.105      330.497       -2.093      874.578
01/10/2022  02:02:00      -24.032       -4.287       -3.021       19.645       12.518        9.573      385.933      156.694       91.642        0.062        0.032       24.411        5.673        0.054      330.446       -2.177      874.587
01/10/2022  02:03:00       -9.836       -4.639       -1.649       13.313       19.733        6.365      177.226      389.393       40.516        0.036        0.030       10.875        4.451        0.168      330.547       -2.010      874.570
01/10/2022  02:04:00      -25.203       12.055       -7.785       11.700       10.872        9.200      136.887      118.197       84.646        0.059        0.017       27.938        3.951        0.020      330.464       -2.146      874.568
01/10/2022  02:05:00      -32.807       27.577       -8.763       13.873       12.235       11.065      192.474      149.690      122.444        0.119        0.023       42.858        6.366        0.022      330.398       -2.255      874.570
01/10/2022  02:06:00      -60.500       32.454      -18.021       17.718       15.458       11.036      313.920      238.945      121.784        0.286        0.034       68.655        9.790        0.020      330.410       -2.235      874.567
01/10/2022  02:07:00      -62.372       43.940      -16.282       16.203       16.267       15.677      262.551      264.613      245.759        0.343        0.039       76.295       10.676        0.020      330.362       -2.313      874.555
01/10/2022  02:08:00      -19.180       21.876       -3.689       28.268       15.515       12.335      799.065      240.726      152.144        0.103        0.060       29.093       15.069        0.268      330.259       -2.482      874.549
01/10/2022  02:09:00      -14.911       48.380      -11.624       15.748       18.223       11.846      247.985      332.077      140.319        0.171        0.036       50.626        4.790        0.009      330.249       -2.500      874.536
01/10/2022  02:10:00      -12.860       66.984      -14.222       12.726       23.124       17.702      161.953      534.729      313.356        0.293        0.051       68.207       15.351        0.051      330.278       -2.452      874.512
01/10/2022  02:11:00       32.956       -3.046      -14.473       22.390       18.382       16.668      501.306      337.904      277.820        0.121        0.056       33.097       14.230        0.185      330.129       -2.697      874.496
01/10/2022  02:12:00       37.586       11.773      -21.889       30.835       34.454       20.510      950.802     1187.072      420.653        0.229        0.128       39.386        9.721        0.061      330.278       -2.452      874.500
01/10/2022  02:13:00       11.464        9.083      -12.851       21.721       21.574       13.700      471.797      465.448      187.683        0.075        0.056       14.626        8.899        0.370      330.099       -2.746      874.514
01/10/2022  02:14:00        5.724       -4.610      -16.124       17.327       20.981       15.067      300.210      440.200      227.012        0.064        0.048        7.350       12.497        2.891      330.135       -2.687      874.523
01/10/2022  02:15:00       21.969       -0.810      -11.023       22.737       26.159       20.247      516.994      684.281      409.933        0.111        0.081       21.984       12.668        0.332      330.147       -2.667      874.523
01/10/2022  02:16:00        8.365      -50.072      -13.578       22.428       31.117       26.753      503.036      968.264      715.749        0.247        0.109       50.766       12.317        0.059      330.365       -2.308      874.540
01/10/2022  02:17:00      -36.928      -12.917      -19.580       36.999       34.112       18.473     1368.902     1163.626      341.254        0.239        0.144       39.122       15.972        0.167      330.284       -2.440      874.570
01/10/2022  02:18:00      -57.499        5.775       -7.099       25.092       22.772       10.629      629.624      518.556      112.986        0.233        0.063       57.788        9.379        0.026      330.233       -2.526      874.600
01/10/2022  02:19:00       -7.141        1.546       -9.922       11.957        9.978       11.543      142.975       99.554      133.240        0.026        0.019        7.307        3.886        0.283      330.203       -2.576      874.601
01/10/2022  02:20:00       22.793       29.475        5.109       30.999       25.119       24.419      960.910      630.970      596.301        0.180        0.109       37.260       23.349        0.393      330.227       -2.536      874.586
01/10/2022  02:21:00       -3.219       20.517       -1.527       15.772       14.770        9.438      248.757      218.161       89.085        0.049        0.028       20.768       10.645        0.263      330.149       -2.665      874.587
01/10/2022  02:22:00      -24.693       34.216       -6.444       12.700       14.439        8.938      161.280      208.484       79.881        0.114        0.022       42.195        8.561        0.041      330.223       -2.543      874.589
01/10/2022  02:23:00      -12.049       17.682        2.143       16.304        9.411       10.674      265.822       88.575      113.943        0.047        0.023       21.397        4.568        0.046      330.133       -2.691      874.589
01/10/2022  02:24:00       12.806       35.083        0.083       13.649       17.664        7.819      186.294      312.003       61.133        0.098        0.028       37.347        6.121        0.027      330.144       -2.672      874.581
01/10/2022  02:25:00       -2.741       52.806       -6.843       13.978       11.849        5.859      195.394      140.405       34.326        0.161        0.019       52.877        4.415        0.007      330.225       -2.538      874.586
01/10/2022  02:26:00      -57.258       36.206      -14.944       32.915       22.881       20.622     1083.367      523.521      425.272        0.342        0.102       67.745       17.970        0.070      330.225       -2.539      874.612
01/10/2022  02:27:00      -79.992       39.842      -21.077       24.020       27.614       19.339      576.945      762.535      374.006        0.507        0.086       89.365       14.044        0.025      330.197       -2.584      874.653
01/10/2022  02:28:00      -70.587       12.062      -25.741       41.061       24.398       22.176     1686.006      595.269      491.773        0.428        0.139       71.610       21.314        0.089      330.098       -2.747      874.688
01/10/2022  02:29:00      -65.026       27.552      -17.999       21.198       27.358       18.505      449.366      748.461      342.422        0.343        0.077       70.622       12.158        0.030      330.125       -2.703      874.697
01/10/2022  02:30:00      -52.859       22.630      -12.534       21.851       21.848       13.228      477.477      477.342      174.975        0.230        0.056       57.499       11.329        0.039      330.114       -2.721      874.689
01/10/2022  02:31:00      -62.646       30.391      -13.791       22.158       20.405       14.219      490.982      416.356      202.168        0.307        0.055       69.629       16.589        0.057      330.162       -2.643      874.674
01/10/2022  02:32:00      -37.425       10.988       -6.791       28.475       16.132       13.133      810.825      260.225      172.484        0.141        0.062       39.005       15.128        0.150      330.252       -2.493      874.676
01/10/2022  02:33:00        7.035        2.250       -4.979       23.888       18.301       13.917      570.615      334.923      193.691        0.059        0.055        7.386        7.002        0.899      330.246       -2.504      874.680
01/10/2022  02:34:00      -14.591        0.755       -3.281       36.825       24.811       14.794     1356.116      615.562      218.861        0.121        0.110       14.611       10.169        0.484      330.231       -2.528      874.683
01/10/2022  02:35:00      -17.804       -5.272       -8.927       16.448       18.721       13.668      270.529      350.467      186.827        0.062        0.040       18.568        1.874        0.010      330.263       -2.475      874.694
01/10/2022  02:36:00      -34.806       -0.062       -9.373       35.745       16.874       13.396     1277.700      284.739      179.463        0.152        0.087       34.806        9.579        0.076      330.273       -2.460      874.708
01/10/2022  02:37:00      -17.968        7.297       -8.013       30.315       18.376       14.801      918.999      337.670      219.075        0.096        0.074       19.393        7.030        0.131      330.377       -2.288      874.737
01/10/2022  02:38:00      -53.992        9.273       -6.697       33.073       19.424       16.002     1093.806      377.300      256.052        0.239        0.086       54.782       13.532        0.061      330.290       -2.430      874.773
01/10/2022  02:39:00      -71.741        7.413       -7.007       34.549       22.946       15.648     1193.602      526.521      244.862        0.361        0.098       72.123        7.976        0.012      330.236       -2.519      874.800
01/10/2022  02:40:00     -101.124       30.727      -12.961       20.263       16.188       14.545      410.605      262.038      211.556        0.611        0.044      105.689        9.857        0.009      330.204       -2.573      874.802
01/10/2022  02:41:00      -92.159       16.852      -11.815       21.879       20.656       12.087      478.702      426.667      146.091        0.498        0.053       93.687        9.874        0.011      330.222       -2.544      874.780
01/10/2022  02:42:00      -70.806       25.793       -7.708       16.826       15.861       14.702      283.111      251.575      216.151        0.324        0.038       75.358       13.249        0.031      330.229       -2.532      874.747
01/10/2022  02:43:00      -77.296       27.677      -10.018       21.319       14.230       14.602      454.501      202.502      213.213        0.386        0.044       82.102       13.580        0.027      330.188       -2.599      874.709
01/10/2022  02:44:00      -48.500        7.157       -6.620       15.505       10.928        7.663      240.396      119.424       58.725        0.143        0.021       49.025        7.474        0.023      330.230       -2.529      874.692
01/10/2022  02:45:00      -31.660        3.898       -8.051       13.325       17.326        8.871      177.566      300.189       78.693        0.082        0.028       31.899        6.418        0.040      330.342       -2.347      874.693
01/10/2022  02:46:00      -22.377       -1.560       -6.602       13.974       15.687        7.946      195.280      246.079       63.137        0.053        0.025       22.431        3.629        0.026      330.401       -2.249      874.704
01/10/2022  02:47:00      -20.862        1.594       -4.813       18.000       15.300       11.210      324.008      234.083      125.658        0.057        0.034       20.923        4.904        0.055      330.397       -2.258      874.727
01/10/2022  02:48:00        3.597       -6.098       -2.634        6.369       11.728        8.053       40.563      137.541       64.858        0.015        0.012        7.080        5.626        0.631      330.396       -2.258      874.750
01/10/2022  02:49:00       -0.776       -1.249       -0.681       15.122       12.657       15.299      228.688      160.197      234.047        0.031        0.031        1.471       10.106       47.222      330.303       -2.411      874.754
01/10/2022  02:50:00      -28.242       13.790       -9.850       12.962       10.237       11.171      168.024      104.791      124.782        0.074        0.020       31.429        5.288        0.028      330.297       -2.419      874.746
01/10/2022  02:51:00      -30.745        0.992       -6.038       11.500        9.339        9.117      132.252       87.226       83.121        0.064        0.015       30.761        7.369        0.057      330.381       -2.282      874.723
01/10/2022  02:52:00      -27.444        6.600       -7.086       14.446       15.527       10.563      208.698      241.079      111.580        0.070        0.028       28.227        5.318        0.035      330.397       -2.257      874.696
01/10/2022  02:53:00      -11.575        9.571       -7.965       10.257        9.679       11.148      105.211       93.678      124.278        0.031        0.016       15.019        5.173        0.119      330.282       -2.444      874.693
01/10/2022  02:54:00      -26.003       23.167       -7.087        8.665        6.114        6.127       75.079       37.376       37.536        0.071        0.007       34.826        4.187        0.014      330.286       -2.438      874.685
01/10/2022  02:55:00      -19.659       14.929      -10.371        9.078        6.855        8.589       82.404       46.987       73.766        0.046        0.010       24.685        3.687        0.022      330.360       -2.317      874.683
01/10/2022  02:56:00      -31.362        5.828       -6.203       16.008       11.385        9.662      256.253      129.614       93.346        0.077        0.024       31.899        6.212        0.038      330.373       -2.296      874.678
01/10/2022  02:57:00      -11.040      -13.719      -10.204       13.604       17.013        7.967      185.058      289.452       63.481        0.048        0.027       17.609        5.152        0.086      330.396       -2.258      874.676
01/10/2022  02:58:00        4.757       -0.180        0.470       24.748       11.745       15.474      612.472      137.935      239.430        0.051        0.049        4.760       16.393       11.860      330.272       -2.462      874.700
01/10/2022  02:59:00      -94.741       24.905       -7.195       36.380       23.099       18.200     1323.518      533.587      331.247        0.592        0.109       97.960       16.341        0.028      330.200       -2.580      874.730
01/10/2022  03:00:00      -90.263       12.726       -8.813       47.209       26.788       19.417     2228.695      717.600      377.038        0.585        0.166       91.156       12.302        0.018      330.122       -2.708      874.761
01/10/2022  03:01:00      -73.993       -1.752       -4.877       41.568       30.894       23.435     1727.905      954.468      549.203        0.437        0.162       74.013       19.868        0.072      330.140       -2.678      874.778
01/10/2022  03:02:00     -113.736       34.562      -10.465       28.902       22.001       20.889      835.321      484.066      436.335        0.800        0.088      118.871       12.490        0.011      330.176       -2.618      874.773
01/10/2022  03:03:00      -63.535        3.788        4.982       42.649       24.561       21.985     1818.978      603.220      483.330        0.349        0.145       63.648       17.105        0.072      330.144       -2.672      874.763
01/10/2022  03:04:00      -37.666      -12.548        3.519       50.260       29.903       21.492     2526.065      894.166      461.903        0.273        0.194       39.701       24.249        0.373      330.211       -2.561      874.764
01/10/2022  03:05:00      -24.983       10.337       -1.887       42.071       30.485       20.316     1769.970      929.313      412.739        0.192        0.156       27.037       13.007        0.231      330.198       -2.582      874.769
01/10/2022  03:06:00      -46.366      -11.033       -3.640       39.927       26.663       20.370     1594.155      710.934      414.957        0.250        0.136       47.661       21.316        0.200      330.171       -2.628      874.748
01/10/2022  03:07:00      -31.379       -1.284       -9.304       27.852       25.657       13.989      775.742      658.302      195.700        0.135        0.081       31.405        8.145        0.067      330.236       -2.520      874.715
01/10/2022  03:08:00      -19.548       17.798       -0.023       16.513       26.571       10.675      272.675      705.997      113.956        0.090        0.055       26.437        6.128        0.054      330.175       -2.622      874.714
01/10/2022  03:09:00      -21.011       17.954       -0.350       32.259       18.869       13.573     1040.661      356.053      184.236        0.117        0.079       27.637        4.555        0.027      330.113       -2.724      874.731
01/10/2022  03:10:00      -24.996        4.634       -1.740       22.152       20.739       18.475      490.727      430.090      341.337        0.096        0.063       25.422       14.015        0.304      330.176       -2.620      874.760
01/10/2022  03:11:00      -10.615       -1.761       -0.894       28.198       26.478       21.062      795.109      701.103      443.597        0.103        0.097       10.760       13.159        1.496      330.232       -2.527      874.800
01/10/2022  03:12:00       -4.621        1.280        0.333       27.442       19.370       20.547      753.059      375.213      422.171        0.079        0.078        4.795       12.104        6.373      330.220       -2.545      874.819
01/10/2022  03:13:00        3.770       -7.299       -9.855       21.123       23.667       12.773      446.179      560.118      163.159        0.067        0.058        8.215        9.623        1.372      330.239       -2.515      874.814
01/10/2022  03:14:00        7.822        1.154        1.268       13.912       22.047       13.365      193.530      486.050      178.619        0.046        0.043        7.907        7.126        0.812      330.225       -2.539      874.779
01/10/2022  03:15:00        1.319       19.756       -8.935       10.434        9.729        7.784      108.862       94.644       60.590        0.037        0.013       19.800        5.343        0.073      330.182       -2.610      874.728
01/10/2022  03:16:00       49.918       28.939       -9.200       25.667       18.222       11.836      658.771      332.045      140.087        0.227        0.057       57.700        8.520        0.022      330.216       -2.553      874.689
01/10/2022  03:17:00       52.585       47.957      -22.618       22.160       23.753       16.207      491.072      564.214      262.682        0.345        0.066       71.169       11.086        0.024      330.024       -2.868      874.677
01/10/2022  03:18:00       26.045       42.745      -13.009       15.090       21.392       13.444      227.705      457.610      180.742        0.177        0.043       50.055       13.282        0.070      329.941       -3.003      874.706
01/10/2022  03:19:00       26.364       17.708       -9.755        9.064        5.728        6.509       82.155       32.814       42.370        0.063        0.008       31.759        2.184        0.005      329.826       -3.194      874.751
01/10/2022  03:20:00       30.361       22.970      -10.106        4.648        5.595        5.974       21.607       31.299       35.692        0.082        0.004       38.072        3.717        0.010      329.884       -3.096      874.778
01/10/2022  03:21:00       34.751       26.999      -12.872        6.673        7.740        6.962       44.522       59.907       48.473        0.113        0.008       44.007        4.933        0.013      329.975       -2.950      874.796
01/10/2022  03:22:00       25.761        7.825       -9.997        7.313        7.392        7.458       53.487       54.643       55.615        0.049        0.008       26.923        5.460        0.041      329.969       -2.961      874.806
01/10/2022  03:23:00        8.353        6.793       -5.952        9.003       14.518        6.546       81.055      210.780       42.849        0.024        0.017       10.766        5.112        0.225      330.045       -2.834      874.796
01/10/2022  03:24:00        7.630       30.715       -1.655       10.125        7.901        4.029      102.521       62.428       16.236        0.059        0.009       31.649        2.670        0.007      329.997       -2.911      874.789
01/10/2022  03:25:00      -33.234       28.232      -10.568       13.744        6.923        7.316      188.889       47.933       53.526        0.115        0.015       43.607        5.165        0.014      330.106       -2.733      874.781
01/10/2022  03:26:00      -74.415       25.268      -16.139       13.974       12.033       10.024      195.259      144.782      100.482        0.344        0.022       78.588        4.983        0.004      330.136       -2.685      874.790
01/10/2022  03:27:00      -89.482       14.419      -12.199       20.494       14.906       14.291      420.011      222.180      204.219        0.460        0.042       90.636       10.434        0.013      330.088       -2.764      874.821
01/10/2022  03:28:00      -87.079       13.308      -16.391       27.803       24.643       14.393      772.996      607.280      207.144        0.481        0.079       88.090        7.133        0.007      330.079       -2.778      874.865
01/10/2022  03:29:00      -57.205       -0.888       -4.593       28.948       21.943       18.121      838.012      481.489      328.373        0.247        0.082       57.212       11.608        0.041      330.186       -2.604      874.877
01/10/2022  03:30:00      -46.260        1.053       -9.467       27.729       21.662       11.708      768.896      469.232      137.079        0.180        0.069       46.272       10.614        0.053      330.225       -2.538      874.870
01/10/2022  03:31:00      -50.589       29.738       -9.020       15.019       11.851        8.887      225.573      140.443       78.971        0.198        0.022       58.682        6.031        0.011      330.194       -2.591      874.861
01/10/2022  03:32:00      -41.184       40.118       -8.953       15.745       14.803        9.483      247.914      219.137       89.919        0.197        0.028       57.494        6.291        0.012      330.147       -2.668      874.856
01/10/2022  03:33:00       -5.374       16.362       -5.227        7.469        7.632        5.264       55.786       58.252       27.714        0.023        0.007       17.222        3.199        0.035      330.216       -2.554      874.836
01/10/2022  03:34:00       23.647       34.298       -4.390       17.156       11.994        7.204      294.313      143.864       51.901        0.112        0.025       41.660        6.534        0.025      330.282       -2.446      874.811
01/10/2022  03:35:00       39.825       38.378       -8.292       14.818       16.612       10.707      219.586      275.943      114.640        0.187        0.031       55.308        7.362        0.018      330.189       -2.597      874.777
01/10/2022  03:36:00       21.641       70.847       -9.614       20.212       27.489       14.696      408.538      755.650      215.963        0.348        0.069       74.079       12.841        0.030      330.420       -2.219      874.748
01/10/2022  03:37:00      -19.082       28.338       -2.044       20.064       25.460       14.692      402.576      648.235      215.863        0.122        0.063       34.164        5.728        0.028      330.323       -2.378      874.737
01/10/2022  03:38:00       -4.590      -14.108       -2.606       12.126       15.817       10.160      147.044      250.191      103.231        0.036        0.025       14.836        7.055        0.226      330.323       -2.377      874.750
01/10/2022  03:39:00      -29.655        1.744       -6.360       18.014       11.743       11.607      324.510      137.906      134.718        0.076        0.030       29.706        4.296        0.021      330.295       -2.424      874.780
01/10/2022  03:40:00      -32.275        6.113      -10.937       11.797        8.869        9.559      139.174       78.664       91.370        0.075        0.015       32.848        7.507        0.052      330.303       -2.411      874.811
01/10/2022  03:41:00      -12.323        3.667       -8.187        9.839        6.884        5.748       96.807       47.391       33.045        0.020        0.009       12.857        3.146        0.060      330.351       -2.331      874.818
01/10/2022  03:42:00       -3.120        5.598       -3.745        3.958        5.802        6.642       15.665       33.661       44.118        0.007        0.005        6.409        3.935        0.377      330.317       -2.387      874.807
01/10/2022  03:43:00       -2.635       11.269       -3.876        7.735       11.308        6.910       59.830      127.860       47.746        0.019        0.012       11.572        3.365        0.085      330.415       -2.228      874.802
01/10/2022  03:44:00      -12.483       -1.399      -11.962       14.162       19.071        8.475      200.553      363.716       71.826        0.047        0.032       12.561        2.824        0.051      330.462       -2.151      874.793
01/10/2022  03:45:00        2.911      -13.372       -5.486        9.918       12.924        7.924       98.365      167.037       62.796        0.027        0.016       13.685        5.620        0.169      330.479       -2.122      874.787
01/10/2022  03:46:00        4.758        3.615       -6.529       12.384       18.766        7.696      153.369      352.162       59.232        0.032        0.028        5.975        2.570        0.185      330.465       -2.145      874.771
01/10/2022  03:47:00       17.714       -1.322      -14.355       25.374       24.013       14.214      643.862      576.627      202.037        0.097        0.071       17.763       13.092        0.543      330.383       -2.279      874.767
01/10/2022  03:48:00       31.596      -12.197      -17.575       29.252       30.761       18.457      855.658      946.243      340.655        0.180        0.107       33.869       13.283        0.154      330.440       -2.187      874.763
01/10/2022  03:49:00      -24.669      -22.950       -1.941       19.060       15.818       16.543      363.300      250.219      273.656        0.101        0.044       33.694       10.298        0.093      330.487       -2.110      874.783
01/10/2022  03:50:00       -9.828      -35.443       -4.981       20.712       20.725       13.851      428.983      429.545      191.863        0.121        0.053       36.780        9.252        0.063      330.422       -2.215      874.776
01/10/2022  03:51:00        4.080      -23.740       -2.959       14.010       12.179       20.703      196.291      148.338      428.608        0.068        0.039       24.088       11.036        0.210      330.373       -2.297      874.751
01/10/2022  03:52:00      -10.588      -18.921      -12.092       21.715       28.912       12.940      471.522      835.912      167.449        0.105        0.074       21.682       11.840        0.298      330.407       -2.239      874.735
01/10/2022  03:53:00      -36.885        9.227      -12.163        9.558        9.006        8.868       91.362       81.117       78.634        0.092        0.013       38.021        4.743        0.016      330.334       -2.359      874.743
01/10/2022  03:54:00      -13.644       -6.294       -3.816       16.030       13.422        9.921      256.957      180.158       98.428        0.039        0.027       15.026        7.589        0.255      330.370       -2.300      874.766
01/10/2022  03:55:00      -27.190      -10.940       -8.934       29.883       13.880       12.321      893.016      192.659      151.808        0.109        0.062       29.308        9.924        0.115      330.473       -2.133      874.783
01/10/2022  03:56:00      -11.939       -5.482       -5.105       17.206       15.959       12.705      296.052      254.701      161.423        0.046        0.036       13.137        7.760        0.349      330.315       -2.392      874.769
01/10/2022  03:57:00        0.152       -0.311       -2.311       10.822       12.657        7.883      117.113      160.192       62.141        0.017        0.017        0.347        7.435      460.061      330.277       -2.453      874.743
01/10/2022  03:58:00       -9.363       17.928       -3.288       23.466       16.111        7.914      550.656      259.564       62.628        0.065        0.044       20.226        4.874        0.058      330.214       -2.558      874.734
01/10/2022  03:59:00       -8.218        3.880       -1.604       24.139       23.735       16.280      582.673      563.351      265.053        0.075        0.071        9.088        6.276        0.477      330.265       -2.473      874.756
01/10/2022  04:00:00      -10.589      -13.938       -9.542       21.142       17.112       12.454      446.975      292.816      155.099        0.065        0.045       17.504        4.418        0.064      330.397       -2.257      874.787
01/10/2022  04:01:00       10.604       -8.988       -2.146       20.995       26.926       15.638      440.796      725.004      244.542        0.080        0.071       13.900       10.323        0.551      330.454       -2.163      874.796
01/10/2022  04:02:00      -16.225       -4.459       -2.204       28.145       17.359       13.973      792.139      301.334      195.238        0.079        0.064       16.826       12.779        0.577      330.444       -2.179      874.786
01/10/2022  04:03:00        0.835      -11.551      -11.005       28.262       27.890       19.785      798.739      777.832      391.447        0.111        0.098       11.581       14.910        1.658      330.404       -2.245      874.767
01/10/2022  04:04:00      -34.866       -8.393        5.607       46.315       32.276       17.804     2145.059     1041.744      316.979        0.241        0.175       35.862       19.627        0.300      330.390       -2.267      874.762
01/10/2022  04:05:00      -78.113        2.128       -5.959       46.341       23.349       17.819     2147.507      545.192      317.523        0.458        0.151       78.142       21.104        0.073      330.274       -2.458      874.776
01/10/2022  04:06:00      -30.897       -8.783       -0.502       40.212       20.520       15.054     1617.035      421.058      226.618        0.165        0.113       32.121       10.021        0.097      330.365       -2.310      874.788
01/10/2022  04:07:00        4.970      -13.319      -10.494       18.615       24.892       15.329      346.510      619.598      234.967        0.076        0.060       14.216       13.470        0.898      330.340       -2.350      874.794
01/10/2022  04:08:00      -54.084      -17.400      -10.834       47.802       55.236       28.005     2285.027     3051.007      784.260        0.473        0.306       56.814       21.408        0.142      330.286       -2.437      874.795
01/10/2022  04:09:00      -74.280      -23.936      -22.211       37.650       53.682       33.524     1417.496     2881.777     1123.850        0.600        0.271       78.042       13.591        0.030      330.259       -2.482      874.791
01/10/2022  04:10:00      -54.202       -9.021      -11.768       38.420       39.506       31.428     1476.078     1560.734      987.734        0.359        0.201       54.948       21.123        0.148      330.276       -2.456      874.807
01/10/2022  04:11:00      -58.381      -27.323      -16.892       51.826       68.964       32.994     2685.938     4756.088     1088.608        0.648        0.427       64.459       23.894        0.137      330.232       -2.527      874.810
01/10/2022  04:12:00      -46.482        1.212      -11.259       38.487       45.963       21.577     1481.273     2112.592      465.585        0.317        0.203       46.498       10.453        0.051      330.128       -2.698      874.801
01/10/2022  04:13:00      -49.984      -37.161      -11.472       42.529       36.185       23.979     1808.713     1309.334      575.009        0.385        0.185       62.284       16.749        0.072      330.118       -2.714      874.789
01/10/2022  04:14:00      -48.977      -22.989      -15.109       30.293       39.645       23.963      917.682     1571.698      574.238        0.311        0.153       54.104        6.055        0.013      330.158       -2.650      874.787
01/10/2022  04:15:00      -43.630       13.017        2.717       53.895       35.047       26.391     2904.685     1228.274      696.511        0.345        0.241       45.530       20.476        0.202      330.130       -2.694      874.786
01/10/2022  04:16:00     -105.919      -11.324      -10.687       45.645       35.098       21.440     2083.470     1231.873      459.659        0.762        0.189      106.523       17.863        0.028      330.128       -2.697      874.773
01/10/2022  04:17:00     -136.931       -3.795      -10.517       32.955       18.695       19.226     1086.063      349.510      369.628        1.034        0.090      136.984       16.634        0.015      330.080       -2.777      874.762
01/10/2022  04:18:00     -107.980       17.812       -6.725       39.242       26.353       22.902     1539.935      694.482      524.493        0.739        0.138      109.439       17.622        0.026      330.088       -2.762      874.748
01/10/2022  04:19:00     -101.789      -10.332      -23.653       22.964       20.955       20.460      527.359      439.102      418.599        0.621        0.069      102.312       10.117        0.010      330.129       -2.697      874.740
01/10/2022  04:20:00      -61.295       -6.083      -10.932       39.984       23.039       18.444     1598.730      530.798      340.166        0.319        0.123       61.596       16.575        0.072      330.172       -2.625      874.748
01/10/2022  04:21:00      -68.995      -15.059       -1.706       54.147       25.728       23.568     2931.928      661.933      555.460        0.457        0.207       70.619       28.145        0.159      330.161       -2.644      874.761
01/10/2022  04:22:00      -74.556       -7.949       -7.480       34.772       20.893       19.459     1209.063      436.506      378.663        0.385        0.101       74.978       19.081        0.065      330.190       -2.596      874.756
01/10/2022  04:23:00      -62.726      -33.200      -15.007       27.775       41.426       22.192      771.458     1716.094      492.476        0.412        0.149       70.970       12.970        0.033      330.166       -2.636      874.744
01/10/2022  04:24:00      -44.541        0.346       -7.662       32.015       27.571       19.663     1024.964      760.165      386.647        0.211        0.109       44.543       13.343        0.090      330.174       -2.623      874.749
01/10/2022  04:25:00       -3.592      -28.969      -22.881       19.741       23.624       18.039      389.713      558.109      325.403        0.132        0.064       29.191       13.617        0.218      330.270       -2.464      874.764
01/10/2022  04:26:00      -19.359      -28.502      -18.844       21.477       31.537       26.824      461.251      994.603      719.505        0.186        0.109       34.455       14.003        0.165      330.247       -2.503      874.789
01/10/2022  04:27:00      -54.667        2.264       -7.920       39.170       28.930       24.252     1534.325      836.952      588.183        0.301        0.148       54.714       20.058        0.134      330.144       -2.672      874.798
01/10/2022  04:28:00       -2.858      -10.167       -8.210       20.855       15.942       15.221      434.949      254.156      231.690        0.055        0.046       10.561        6.006        0.323      330.218       -2.550      874.792
01/10/2022  04:29:00       -9.057      -18.305       -4.986       20.215       28.082       21.911      408.653      788.604      480.109        0.106        0.084       20.423       13.319        0.425      330.244       -2.507      874.794
01/10/2022  04:30:00      -39.176       -6.749      -11.300       29.210       28.997       28.286      853.246      840.802      800.080        0.210        0.125       39.753        5.658        0.020      330.124       -2.706      874.790
01/10/2022  04:31:00      -84.375      -16.986       -3.580       35.847       26.632       21.305     1284.989      709.265      453.922        0.493        0.122       86.068       19.171        0.050      330.081       -2.774      874.784
01/10/2022  04:32:00      -31.967      -18.194       -0.538       39.322       25.479       18.585     1546.217      649.159      345.387        0.195        0.127       36.782       19.924        0.293      330.140       -2.677      874.788
01/10/2022  04:33:00       -8.905       -3.685       -5.332       20.210       21.472       15.104      408.460      461.039      228.129        0.061        0.055        9.637        9.285        0.928      330.199       -2.583      874.798
01/10/2022  04:34:00        2.838       10.734        3.872       17.467       15.863       11.748      305.079      251.644      138.005        0.042        0.035       11.103        9.310        0.703      330.109       -2.732      874.802
01/10/2022  04:35:00      -37.061       -7.787       -9.407       33.857       13.949       11.925     1146.293      194.563      142.214        0.150        0.074       37.870        9.247        0.060      330.163       -2.642      874.797
01/10/2022  04:36:00        5.952       -6.892      -13.422       12.832       14.063       14.381      164.650      197.774      206.821        0.042        0.028        9.107        9.927        1.188      330.134       -2.688      874.785
01/10/2022  04:37:00       -2.445      -12.183       -4.353       13.516       11.745       11.720      182.682      137.951      137.360        0.032        0.023       12.426        5.042        0.165      330.248       -2.500      874.780
01/10/2022  04:38:00       -8.681        1.783        0.360       10.727       10.930        7.150      115.062      119.471       51.122        0.018        0.014        8.862        4.865        0.301      330.251       -2.495      874.787
01/10/2022  04:39:00      -25.692       -4.678       -7.464       12.053       23.927       13.627      145.270      572.482      185.696        0.082        0.045       26.114       10.589        0.164      330.210       -2.564      874.799
01/10/2022  04:40:00      -44.868      -17.843      -24.859       16.125       15.953       13.622      260.004      254.497      185.568        0.182        0.035       48.285        3.371        0.005      330.205       -2.572      874.807
01/10/2022  04:41:00      -39.782      -19.266      -12.274       36.161       23.756       17.722     1307.625      564.343      314.056        0.214        0.109       44.201        7.763        0.031      330.198       -2.583      874.813
01/10/2022  04:42:00      -87.388      -33.636      -12.799       42.379       31.571       22.344     1795.938      996.700      499.267        0.611        0.165       93.638       21.586        0.053      330.143       -2.674      874.816
01/10/2022  04:43:00     -103.613       -1.837      -14.470       45.037       40.636       17.076     2028.340     1651.289      291.586        0.746        0.199      103.629       24.231        0.055      330.050       -2.825      874.818
01/10/2022  04:44:00      -51.096      -14.438       -5.103       47.068       27.320       28.664     2215.384      746.405      821.646        0.331        0.189       53.097       25.256        0.226      330.114       -2.722      874.817
01/10/2022  04:45:00      -62.876       13.578       -6.944       37.117       26.384       15.370     1377.679      696.108      236.252        0.325        0.116       64.326       13.346        0.043      330.106       -2.735      874.797
01/10/2022  04:46:00      -69.118       14.258      -12.524       24.055       18.860       11.326      578.648      355.685      128.267        0.310        0.053       70.573        9.457        0.018      330.116       -2.717      874.779
01/10/2022  04:47:00      -40.216        9.531      -11.350       21.464       30.025       11.875      460.724      901.476      141.011        0.167        0.075       41.330       10.106        0.060      330.190       -2.596      874.778
01/10/2022  04:48:00      -72.222       40.229      -16.527       20.851       17.380       14.712      434.756      302.051      216.457        0.403        0.048       82.670       11.638        0.020      330.081       -2.776      874.778
01/10/2022  04:49:00      -89.120       17.439      -10.736       27.817       18.766       17.498      773.793      352.181      306.195        0.490        0.072       90.810       12.905        0.020      330.055       -2.817      874.787
01/10/2022  04:50:00      -99.654       17.710      -13.365       24.373       18.347       15.298      594.028      336.614      234.014        0.579        0.058      101.215       11.945        0.014      330.176       -2.619      874.798
01/10/2022  04:51:00      -62.493       14.249        2.723       41.612       19.722       18.478     1731.539      388.942      341.427        0.329        0.123       64.097       17.580        0.075      330.147       -2.668      874.801
01/10/2022  04:52:00      -46.197        3.458       -2.785       27.314       21.983       18.550      746.063      483.264      344.117        0.186        0.079       46.326       15.539        0.113      330.247       -2.501      874.801
01/10/2022  04:53:00      -64.776       -0.114      -15.362       19.198       19.092       14.596      368.559      364.509      213.029        0.269        0.047       64.776        3.981        0.004      330.298       -2.420      874.794
01/10/2022  04:54:00      -37.573       -1.176      -12.396       19.988       20.214       13.036      399.518      408.612      169.928        0.127        0.049       37.591        7.212        0.037      330.302       -2.412      874.799
01/10/2022  04:55:00      -22.698        2.856       -4.531       25.779       15.058       10.271      664.532      226.755      105.489        0.077        0.050       22.877        6.116        0.071      330.288       -2.434      874.799
01/10/2022  04:56:00      -14.911       17.193       -1.170       23.568       18.212       14.365      555.456      331.662      206.341        0.081        0.055       22.758       10.102        0.197      330.194       -2.589      874.799
01/10/2022  04:57:00      -15.363       16.393        2.728       15.280       16.766       10.919      233.488      281.093      119.234        0.057        0.032       22.467        7.188        0.102      330.086       -2.768      874.786
01/10/2022  04:58:00      -16.759       15.380      -13.434       13.346       15.714       11.253      178.127      246.938      126.624        0.062        0.028       22.747        4.813        0.045      330.149       -2.664      874.765
01/10/2022  04:59:00      -11.378        4.145       -5.994       24.809       13.473       13.484      615.478      181.519      181.830        0.058        0.049       12.110        7.281        0.362      330.211       -2.562      874.762
01/10/2022  05:00:00      -45.092       -7.134       -9.836       49.315       24.850       29.326     2431.964      617.547      860.028        0.304        0.195       45.652       28.960        0.402      330.247       -2.501      874.794
01/10/2022  05:01:00      -31.889      -20.808        0.746       54.463       31.199       27.004     2966.182      973.352      729.223        0.306        0.233       38.077       27.389        0.517      330.307       -2.402      874.843
01/10/2022  05:02:00      -29.410        2.724       -6.236       39.300       41.200       29.140     1544.504     1697.462      849.119        0.250        0.205       29.536       18.635        0.398      330.309       -2.401      874.879
01/10/2022  05:03:00      -66.888       -2.561        2.669       47.704       28.052       28.566     2275.693      786.899      816.044        0.418        0.194       66.937       28.684        0.184      330.298       -2.420      874.885
01/10/2022  05:04:00      -57.401      -12.755       -4.152       30.517       26.958       19.255      931.317      726.707      370.771        0.275        0.101       58.801       16.930        0.083      330.273       -2.459      874.886
01/10/2022  05:05:00       -0.275      -15.041       -3.188       26.201       21.179       15.213      686.482      448.547      231.442        0.080        0.068       15.044       10.181        0.458      330.286       -2.439      874.871
01/10/2022  05:06:00      -46.418      -26.081      -10.847       23.459       28.862       11.773      550.341      833.035      138.603        0.224        0.076       53.243        9.153        0.030      330.277       -2.452      874.862
01/10/2022  05:07:00      -10.996      -19.562       -7.513       15.004       24.215       17.367      225.127      586.368      301.605        0.084        0.056       22.441       11.172        0.248      330.289       -2.433      874.853
01/10/2022  05:08:00       -2.899      -43.641      -23.759       22.580       27.371       20.187      509.868      749.199      407.512        0.207        0.083       43.737       11.434        0.068      330.321       -2.380      874.843
01/10/2022  05:09:00      -20.367      -19.122       -2.319       23.569       35.679       18.178      555.505     1273.005      330.449        0.147        0.108       27.937        7.638        0.075      330.301       -2.413      874.848
01/10/2022  05:10:00      -28.601        0.611       -1.542       36.805       21.793       17.169     1354.595      474.917      294.764        0.147        0.106       28.608       14.451        0.255      330.270       -2.463      874.867
01/10/2022  05:11:00      -31.740      -14.871       -3.437       30.350       24.301       19.968      921.127      590.523      398.706        0.158        0.096       35.051       12.022        0.118      330.281       -2.446      874.893
01/10/2022  05:12:00      -15.619      -11.630       -6.190       29.187       30.900       19.923      851.869      954.807      396.937        0.131        0.110       19.474       14.502        0.555      330.302       -2.410      874.921
01/10/2022  05:13:00      -26.289      -10.587       -6.287       41.339       25.498       18.140     1708.891      650.161      329.060        0.176        0.134       28.341       17.596        0.385      330.295       -2.423      874.936
01/10/2022  05:14:00      -45.239       -7.617        1.817       44.911       49.526       29.599     2017.028     2452.862      876.121        0.373        0.267       45.876       28.389        0.383      330.286       -2.438      874.934
01/10/2022  05:15:00      -26.446      -34.224       -2.468       29.163       35.685       29.129      850.509     1273.395      848.505        0.242        0.149       43.251       20.701        0.229      330.327       -2.371      874.919
01/10/2022  05:16:00      -31.986       -0.158       11.939       42.127       36.191       25.007     1774.718     1309.821      625.350        0.244        0.185       31.986       16.862        0.278      330.244       -2.507      874.910
01/10/2022  05:17:00      -11.610        3.328        1.160       25.542       25.843       17.070      652.410      667.863      291.401        0.088        0.081       12.078       11.210        0.861      330.232       -2.527      874.912
01/10/2022  05:18:00      -56.182        1.706       -4.179       47.459       26.996       25.950     2252.371      728.805      673.391        0.342        0.183       56.208       12.200        0.047      330.215       -2.555      874.908
01/10/2022  05:19:00      -63.078       14.310       -1.071       46.101       26.835       17.179     2125.257      720.092      295.106        0.366        0.157       64.681       18.079        0.078      330.032       -2.856      874.906
01/10/2022  05:20:00      -57.424       16.862       -3.396       40.440       22.872       18.560     1635.380      523.136      344.492        0.305        0.125       59.849       20.985        0.123      330.046       -2.833      874.903
01/10/2022  05:21:00      -33.038       16.920       -4.900       23.331       19.209       13.361      544.330      368.986      178.528        0.125        0.055       37.119       10.432        0.079      330.075       -2.784      874.900
01/10/2022  05:22:00      -44.397      -24.302      -14.720       22.506       23.351       18.038      506.525      545.284      325.352        0.208        0.069       50.613        9.369        0.034      330.244       -2.508      874.917
01/10/2022  05:23:00       -5.104      -23.101      -10.898       30.054       25.822       18.559      903.216      666.757      344.449        0.130        0.096       23.658       10.841        0.210      330.219       -2.549      874.931
01/10/2022  05:24:00       -5.662        7.921       -9.819       27.679       27.650       14.750      766.133      764.514      217.553        0.097        0.087        9.736       12.723        1.708      330.299       -2.416      874.936
01/10/2022  05:25:00      -27.639      -19.207       -5.552       24.192       20.185       12.537      585.241      407.426      157.177        0.116        0.057       33.658        8.474        0.063      330.294       -2.424      874.952
01/10/2022  05:26:00      -66.799      -25.765       -9.938       34.458       35.637       21.944     1187.324     1270.008      481.536        0.408        0.147       71.596       16.410        0.053      330.227       -2.536      874.964
01/10/2022  05:27:00      -16.325      -13.217       -2.934       43.283       26.949       22.060     1873.442      726.227      486.632        0.177        0.154       21.004       15.732        0.561      330.265       -2.473      874.978
01/10/2022  05:28:00      -99.031        0.755       -4.028       42.734       23.288       21.309     1826.202      542.317      454.078        0.632        0.141       99.034       22.144        0.050      330.224       -2.538      874.983
01/10/2022  05:29:00      -25.935      -26.055      -12.714       26.954       16.547       23.148      726.524      273.819      535.816        0.152        0.077       36.762       10.064        0.075      330.373       -2.294      874.968
01/10/2022  05:30:00      -24.031      -19.888       -7.211       19.556       33.120       10.911      382.424     1096.948      119.046        0.131        0.080       31.194        6.066        0.038      330.260       -2.479      874.960
01/10/2022  05:31:00      -12.832       -7.744       -9.389       19.552       13.608       11.666      382.275      185.176      136.094        0.051        0.035       14.987        8.452        0.318      330.286       -2.438      874.977
01/10/2022  05:32:00       -4.995      -23.707       -5.472       22.524       23.116       17.571      507.333      534.347      308.730        0.098        0.068       24.227        9.041        0.139      330.386       -2.275      874.996
01/10/2022  05:33:00      -12.674      -43.082       -2.795       28.746       30.687       22.361      826.352      941.709      500.014        0.215        0.113       44.908       19.100        0.181      330.342       -2.346      875.009
01/10/2022  05:34:00      -28.284      -15.784       -6.364       32.766       24.922       18.214     1073.607      621.129      331.743        0.156        0.101       32.390       11.262        0.121      330.331       -2.365      875.009
01/10/2022  05:35:00      -26.620      -11.208       -3.535       28.161       33.664       18.997      793.017     1133.298      360.891        0.157        0.114       28.883        6.845        0.056      330.348       -2.336      875.002
01/10/2022  05:36:00      -27.289       12.782        5.201       33.034       21.624       20.687     1091.241      467.602      427.971        0.146        0.099       30.134       14.794        0.241      330.354       -2.326      875.012
01/10/2022  05:37:00      -44.523        4.881        0.618       44.129       31.042       24.591     1947.407      963.635      604.700        0.276        0.176       44.790       23.141        0.267      330.279       -2.448      875.043
01/10/2022  05:38:00      -50.412       22.327        0.429       35.936       30.583       22.397     1291.361      935.315      501.647        0.288        0.136       55.135       13.258        0.058      330.185       -2.606      875.069
01/10/2022  05:39:00      -74.670       16.761      -15.709       23.083       15.850       14.604      532.821      251.235      213.289        0.355        0.050       76.529        7.976        0.011      330.210       -2.564      875.066
01/10/2022  05:40:00      -59.309       38.089       -2.921       32.151       19.215       19.337     1033.683      369.211      373.906        0.338        0.089       70.486       16.511        0.055      330.020       -2.875      875.031
01/10/2022  05:41:00      -46.492       21.816      -11.431       22.304       19.054       18.422      497.477      363.041      339.361        0.198        0.060       51.356       12.969        0.064      330.132       -2.691      874.980
01/10/2022  05:42:00       -9.495      -11.737       -5.341       24.886       11.790       18.602      619.296      138.997      346.045        0.068        0.055       15.097       12.122        0.645      330.183       -2.608      874.956
01/10/2022  05:43:00       -5.523      -10.456      -10.027       18.950       21.534       12.836      359.095      463.707      164.767        0.061        0.049       11.825        9.727        0.677      330.167       -2.635      874.964
01/10/2022  05:44:00      -25.686        7.685       -9.043       16.158       15.145       13.404      261.077      229.370      179.667        0.074        0.034       26.811       11.707        0.191      330.202       -2.577      874.969
01/10/2022  05:45:00      -41.822       21.712      -10.783       24.339       18.501       10.779      592.401      342.290      116.194        0.169        0.053       47.122        9.753        0.043      330.221       -2.546      874.995
01/10/2022  05:46:00      -20.671       -2.607       -7.330       22.392        9.781       11.108      501.382       95.666      123.386        0.060        0.036       20.835        8.460        0.165      330.256       -2.486      875.017
01/10/2022  05:47:00      -14.185       -8.350       -7.141       14.040       22.209       14.916      197.126      493.255      222.490        0.062        0.046       16.460        7.157        0.189      330.277       -2.453      875.029
01/10/2022  05:48:00      -10.362        9.738       -2.282       12.049       15.136       13.353      145.169      229.099      178.294        0.038        0.028       14.220       10.408        0.536      330.279       -2.450      875.041
01/10/2022  05:49:00        3.355       23.716        0.371       13.597       12.973       10.557      184.881      168.305      111.452        0.052        0.023       23.952        5.512        0.053      330.116       -2.718      875.054
01/10/2022  05:50:00       13.068       39.630        4.808       22.916       13.354       12.283      525.165      178.333      150.871        0.131        0.043       41.730       10.656        0.065      330.007       -2.895      875.036
01/10/2022  05:51:00       -2.313       43.128       -3.553       13.812       21.798       14.920      190.784      475.154      222.599        0.138        0.044       43.190       15.153        0.123      330.122       -2.709      875.002
01/10/2022  05:52:00        9.385       51.364      -13.336       17.111       13.844       13.850      292.780      191.661      191.824        0.179        0.034       52.215       11.547        0.049      330.226       -2.537      874.997
01/10/2022  05:53:00        8.071       23.781        0.543       12.014       15.242       13.350      144.328      232.314      178.218        0.059        0.028       25.113        8.253        0.108      330.223       -2.541      875.000
01/10/2022  05:54:00       -2.216       31.617       -3.471       15.044       16.864       10.550      226.325      284.401      111.307        0.082        0.031       31.695       10.241        0.104      330.153       -2.656      874.991
01/10/2022  05:55:00       10.654       25.946      -13.858       15.086       12.311       16.021      227.580      151.557      256.662        0.081        0.032       28.048       10.199        0.132      330.086       -2.764      874.983
01/10/2022  05:56:00        3.604       36.972       -9.187       12.469        8.834       11.298      155.472       78.034      127.645        0.091        0.018       37.147        8.119        0.048      330.075       -2.784      874.995
01/10/2022  05:57:00      -23.638       19.139      -11.835       20.302       15.807       13.092      412.161      249.871      171.400        0.095        0.042       30.415       10.610        0.122      330.217       -2.551      875.022
01/10/2022  05:58:00      -39.120       33.282       -4.242       15.759       12.705       10.907      248.341      161.425      118.967        0.159        0.026       51.362        6.811        0.018      330.244       -2.506      875.046
01/10/2022  05:59:00      -44.047       12.151      -12.107       19.730       24.282       13.186      389.291      589.608      173.859        0.169        0.058       45.693        4.348        0.009      330.192       -2.593      875.068
01/10/2022  06:00:00      -30.680       -8.458       -7.441       19.653       18.744       11.202      386.234      351.331      125.476        0.097        0.043       31.824        5.657        0.032      330.329       -2.367      875.091
01/10/2022  06:01:00      -30.342      -33.694      -22.295       18.399       14.682       11.673      338.509      215.554      136.252        0.162        0.035       45.342        8.628        0.036      330.277       -2.453      875.095
01/10/2022  06:02:00      -17.134       -2.839       -7.362       14.874       19.256       14.514      221.245      370.789      210.655        0.058        0.040       17.367        6.764        0.152      330.358       -2.320      875.104
01/10/2022  06:03:00      -11.467      -16.234       -2.334       17.027       16.645       12.451      289.920      277.040      155.031        0.056        0.036       19.875        9.125        0.211      330.381       -2.281      875.094
01/10/2022  06:04:00      -15.480       -3.257       -9.906       14.049        9.593        8.174      197.361       92.017       66.817        0.035        0.018       15.819        5.125        0.105      330.318       -2.386      875.110
01/10/2022  06:05:00       -2.465       14.790       -9.073       26.480       21.763       14.012      701.173      473.622      196.337        0.084        0.069       14.994        7.566        0.255      330.234       -2.523      875.124
01/10/2022  06:06:00       59.853       27.200      -17.683       17.534       19.550       10.503      307.448      382.187      110.305        0.272        0.040       65.743        8.654        0.017      330.146       -2.669      875.139
01/10/2022  06:07:00       53.137       20.818      -15.877       21.342       11.562       12.583      455.466      133.688      158.334        0.213        0.037       57.069        6.848        0.014      330.057       -2.814      875.158
01/10/2022  06:08:00       35.187       32.170       -5.867       12.124       17.635       12.966      146.989      311.003      168.110        0.147        0.031       47.677       10.129        0.045      330.076       -2.783      875.174
01/10/2022  06:09:00       14.740       47.617      -12.456       13.383       14.495        9.384      179.102      210.107       88.060        0.156        0.024       49.846        8.106        0.026      330.154       -2.656      875.186
01/10/2022  06:10:00      -10.287       47.399      -13.809       19.623       15.411       13.258      385.071      237.496      175.763        0.167        0.040       48.502       10.519        0.047      330.331       -2.363      875.203
01/10/2022  06:11:00      -33.656       39.342      -16.516       17.168       13.029       14.034      294.739      169.743      196.967        0.181        0.033       51.774        8.494        0.027      330.179       -2.615      875.219
01/10/2022  06:12:00      -32.807       13.910      -14.786       14.165       22.245        9.993      200.633      494.845       99.868        0.114        0.040       35.634        4.141        0.014      330.261       -2.477      875.240
01/10/2022  06:13:00      -28.205       12.289      -10.295       13.961       12.910       11.270      194.923      166.673      127.011        0.077        0.024       30.766        6.828        0.049      330.277       -2.451      875.255
01/10/2022  06:14:00      -37.986       16.207      -12.480       18.946       20.477       16.070      358.945      419.322      258.233        0.145        0.052       41.299       14.200        0.118      330.344       -2.342      875.244
01/10/2022  06:15:00      -55.259       28.132      -13.684       15.330       17.918       12.031      235.008      321.064      144.737        0.237        0.035       62.008        9.633        0.024      330.244       -2.506      875.223
01/10/2022  06:16:00      -34.582       34.743       -6.382       16.736       17.081        7.672      280.104      291.769       58.858        0.154        0.032       49.020        5.448        0.012      330.231       -2.529      875.199
01/10/2022  06:17:00       15.456       26.353       -7.299       26.442       18.820        7.171      699.160      354.198       51.423        0.105        0.055       30.551        5.990        0.038      330.195       -2.589      875.150
01/10/2022  06:18:00       41.299       10.191      -11.700       18.035       24.394       18.806      325.248      595.051      353.681        0.161        0.064       42.538        8.964        0.044      330.243       -2.509      875.095
01/10/2022  06:19:00       93.809        7.536      -16.688       35.377       32.636       18.008     1251.508     1065.103      324.294        0.589        0.132       94.111       14.519        0.024      330.091       -2.758      875.076
01/10/2022  06:20:00       59.959       26.913      -14.532       20.567       15.308       17.555      422.996      234.334      308.186        0.275        0.048       65.722        7.737        0.014      329.974       -2.950      875.096
01/10/2022  06:21:00       90.640       23.736      -16.812       21.022       22.344       16.915      441.931      499.244      286.114        0.514        0.061       93.696       11.879        0.016      329.892       -3.084      875.143
01/10/2022  06:22:00       98.295       40.708      -27.022       20.924       14.011        8.275      437.813      196.300       68.477        0.638        0.035      106.391        6.069        0.003      329.951       -2.986      875.185
01/10/2022  06:23:00       51.963       33.775      -16.173       25.451       29.804       19.474      647.730      888.251      379.241        0.301        0.096       61.975       13.658        0.049      330.053       -2.819      875.220
01/10/2022  06:24:00       47.250       38.484      -10.941       14.575       14.767       12.054      212.440      218.065      145.305        0.220        0.029       60.939        8.449        0.019      330.090       -2.764      875.235
01/10/2022  06:25:00       24.716       34.720       -7.009        8.063        7.225        7.137       65.014       52.197       50.943        0.102        0.008       42.619        4.303        0.010      330.043       -2.839      875.230
01/10/2022  06:26:00       13.792       51.443       -4.767       13.056       17.945        7.341      170.457      322.010       53.888        0.170        0.027       53.260        5.012        0.009      330.161       -2.645      875.218
01/10/2022  06:27:00       -0.345       51.402       -0.160       18.296       21.472       16.592      334.727      461.040      275.283        0.186        0.054       51.403       15.075        0.086      330.161       -2.644      875.190
01/10/2022  06:28:00       24.855       58.746       -4.700       19.528       26.886       13.154      381.352      722.873      173.022        0.268        0.064       63.788       10.169        0.025      330.139       -2.679      875.157
01/10/2022  06:29:00       30.996       44.972       -0.239       19.240       21.860       16.882      370.164      477.857      285.003        0.206        0.057       54.619        8.372        0.023      330.120       -2.711      875.138
01/10/2022  06:30:00       25.490       66.113       -5.341       18.701       30.740       15.930      349.732      944.966      253.779        0.330        0.077       70.857       11.637        0.027      330.159       -2.647      875.143
01/10/2022  06:31:00       -5.109       71.218       -8.196       35.090       29.874       19.012     1231.338      892.483      361.463        0.382        0.124       71.401       10.041        0.020      330.290       -2.433      875.169
01/10/2022  06:32:00      -43.812       32.230       -6.201       30.205       25.517       16.748      912.354      651.099      280.487        0.242        0.092       54.390       15.658        0.083      330.180       -2.612      875.222
01/10/2022  06:33:00      -47.271       29.514      -23.440       12.300       16.551       16.783      151.286      273.935      281.675        0.218        0.035       55.728        8.148        0.021      330.189       -2.598      875.258
01/10/2022  06:34:00      -11.667        5.047      -11.897       14.176       10.509       13.014      200.955      110.435      169.367        0.039        0.024       12.712        6.010        0.224      330.236       -2.522      875.272
01/10/2022  06:35:00      -34.758      -33.424      -15.806       15.612       18.221       13.261      243.731      331.993      175.863        0.166        0.038       48.222        6.895        0.020      330.375       -2.293      875.269
01/10/2022  06:36:00      -25.885       -0.084      -10.063       16.099       26.898       16.500      259.189      723.525      272.258        0.101        0.063       25.885       13.310        0.264      330.441       -2.184      875.259
01/10/2022  06:37:00      -23.788       18.383       -6.636       14.624        8.372        9.765      213.850       70.097       95.347        0.066        0.019       30.063        7.359        0.060      330.306       -2.405      875.264
01/10/2022  06:38:00      -22.981       37.668       -5.852       12.658       13.777        8.641      160.216      189.804       74.669        0.120        0.021       44.125        7.179        0.026      330.351       -2.332      875.279
01/10/2022  06:39:00      -38.488       39.123       -6.252       16.592       15.248        7.546      275.307      232.493       56.946        0.181        0.028       54.881        8.051        0.022      330.347       -2.338      875.287
01/10/2022  06:40:00      -53.532       22.253      -13.392       17.288       17.747       14.945      298.891      314.952      223.339        0.219        0.042       57.973       10.320        0.032      330.332       -2.363      875.299
01/10/2022  06:41:00      -48.761       22.277      -10.586       20.345       11.129       12.673      413.900      123.864      160.599        0.184        0.035       53.609       12.387        0.053      330.382       -2.280      875.318
01/10/2022  06:42:00      -23.608       17.156      -15.827       12.092        6.073        6.063      146.214       36.882       36.756        0.066        0.011       29.183        6.759        0.054      330.317       -2.386      875.339
01/10/2022  06:43:00        6.881       11.386       -8.069       10.601        7.502        6.716      112.382       56.278       45.108        0.023        0.011       13.304        4.833        0.132      330.343       -2.344      875.371
01/10/2022  06:44:00       22.303       20.278      -13.244        7.444        6.137        7.993       55.416       37.664       63.891        0.062        0.008       30.143        4.105        0.019      330.266       -2.473      875.408
01/10/2022  06:45:00      -16.109       27.675       -2.605       21.388       14.971        9.490      457.438      224.142       90.058        0.090        0.039       32.022        8.863        0.077      330.362       -2.313      875.428
01/10/2022  06:46:00      -42.332       33.600      -11.634       20.792       16.051        9.624      432.298      257.650       92.613        0.192        0.039       54.045       11.464        0.045      330.343       -2.345      875.442
01/10/2022  06:47:00      -43.733       28.993      -11.175       13.867       10.614        8.175      192.283      112.663       66.838        0.162        0.019       52.470        4.906        0.009      330.348       -2.335      875.436
01/10/2022  06:48:00      -35.388       23.887      -11.149       13.201       11.763       10.003      174.267      138.374      100.058        0.118        0.021       42.696        6.302        0.022      330.382       -2.282      875.416
01/10/2022  06:49:00      -46.784       25.096       -8.098       14.990       15.146       14.706      224.701      229.403      216.261        0.178        0.034       53.090        9.465        0.032      330.468       -2.140      875.395
01/10/2022  06:50:00      -52.560       11.774      -14.489       29.072       21.167       16.649      845.206      448.056      277.199        0.234        0.079       53.863       13.352        0.061      330.456       -2.159      875.392
01/10/2022  06:51:00      -57.610        9.099       -4.881       36.722       31.404       19.875     1348.501      986.198      395.030        0.308        0.136       58.325       16.910        0.084      330.460       -2.154      875.407
01/10/2022  06:52:00      -64.686      -17.419       -8.034       36.763       21.449       19.522     1351.500      460.073      381.116        0.337        0.110       66.991       15.512        0.054      330.449       -2.170      875.418
01/10/2022  06:53:00      -39.464        1.117      -13.158       28.830       21.608       13.469      831.175      466.917      181.401        0.161        0.074       39.480       12.437        0.099      330.470       -2.135      875.430
01/10/2022  06:54:00      -10.893        0.373       -6.893       20.910       13.629       10.678      437.249      185.739      114.014        0.045        0.037       10.900        6.263        0.330      330.513       -2.068      875.435
01/10/2022  06:55:00      -23.260       13.423      -12.563       10.107        6.957        5.823      102.143       48.398       33.907        0.053        0.009       26.855        2.067        0.006      330.438       -2.188      875.424
01/10/2022  06:56:00       -0.870       24.149       -7.126       15.616       16.376        6.028      243.858      268.159       36.333        0.059        0.027       24.165        7.916        0.107      330.487       -2.109      875.405
01/10/2022  06:57:00      -27.329       13.623       -1.508       23.482       21.687       17.406      551.415      470.316      302.959        0.113        0.066       30.536        7.133        0.055      330.502       -2.085      875.401
01/10/2022  06:58:00      -70.997      -14.086       17.484       23.550       15.822       18.696      554.608      250.323      349.530        0.335        0.058       72.381       10.531        0.021      330.641       -1.855      875.420
01/10/2022  06:59:00      -34.686      -34.964        2.577       30.589       25.339       18.769      935.710      642.066      352.274        0.218        0.097       49.251       16.898        0.118      330.729       -1.711      875.438
01/10/2022  07:00:00      -25.509      -49.408      -31.760       31.745       22.938       19.622     1007.749      526.150      385.004        0.301        0.096       55.605       21.313        0.147      330.663       -1.820      875.452
01/10/2022  07:01:00      -31.953      -14.401      -19.591       27.656       34.908       14.834      764.867     1218.563      220.055        0.191        0.110       35.048       14.555        0.172      330.558       -1.992      875.452
01/10/2022  07:02:00       26.366      -20.913      -19.944       30.236       41.313       25.641      914.242     1706.744      657.458        0.240        0.164       33.653       23.598        0.492      330.594       -1.933      875.434
01/10/2022  07:03:00       39.073      -20.182      -15.273       30.035       45.317       25.440      902.125     2053.602      647.174        0.288        0.180       43.977       25.129        0.327      330.547       -2.012      875.410
01/10/2022  07:04:00       -0.737       -9.164       -4.595       24.744       45.532       16.221      612.276     2073.203      263.137        0.153        0.147        9.194       17.286        3.535      330.496       -2.093      875.373
01/10/2022  07:05:00       33.744      -87.393       -9.528       32.427       34.852       25.434     1051.542     1214.639      646.895        0.589        0.146       93.682       23.283        0.062      330.675       -1.800      875.358
01/10/2022  07:06:00       29.514      -84.418      -15.523       37.546       39.058       19.894     1409.693     1525.519      395.779        0.578        0.167       89.429       18.696        0.044      330.636       -1.865      875.370
01/10/2022  07:07:00       65.836     -100.962      -29.261       30.568       34.443       24.388      934.391     1186.349      594.754        0.905        0.136      120.531       19.325        0.026      330.666       -1.814      875.387
01/10/2022  07:08:00       -9.726      -24.728       -5.932       36.687       33.621       26.566     1345.945     1130.403      705.746        0.196        0.159       26.572       20.040        0.569      330.723       -1.722      875.386
01/10/2022  07:09:00      -31.092       -8.294        1.704       22.304       20.443       17.141      497.482      417.899      293.798        0.112        0.060       32.179        7.286        0.051      330.706       -1.748      875.370
01/10/2022  07:10:00       35.429      -70.021      -16.591       36.481       52.115       34.921     1330.837     2715.924     1219.510        0.585        0.263       78.474       28.257        0.130      330.778       -1.631      875.367
01/10/2022  07:11:00       23.804      -70.053      -14.429       42.995       43.666       25.847     1848.584     1906.754      668.067        0.505        0.221       73.987       24.459        0.109      330.707       -1.747      875.387
01/10/2022  07:12:00      -43.752       16.348       -1.943       25.999       24.800       16.210      675.969      615.063      262.762        0.187        0.078       46.707       11.371        0.059      330.605       -1.915      875.437
01/10/2022  07:13:00      -45.892        2.357       -7.206       35.364       30.460       17.643     1250.618      927.783      311.259        0.233        0.124       45.953       14.039        0.093      330.599       -1.926      875.486
01/10/2022  07:14:00      -81.348        5.924       -5.447       55.914       31.931       20.799     3126.351     1019.592      432.587        0.563        0.229       81.564       19.028        0.054      330.614       -1.900      875.526
01/10/2022  07:15:00     -120.949       12.166       -3.876       39.986       40.799       20.882     1598.888     1664.533      436.071        0.924        0.185      121.559       17.183        0.020      330.657       -1.830      875.542
01/10/2022  07:16:00     -110.472       19.423      -10.960       59.613       29.236       26.149     3553.691      854.745      683.789        0.890        0.255      112.167       26.965        0.058      330.521       -2.053      875.518
01/10/2022  07:17:00     -102.771       21.662       -7.195       43.607       39.564       27.757     1901.554     1565.304      770.450        0.766        0.212      105.029       17.361        0.027      330.481       -2.120      875.488
01/10/2022  07:18:00      -99.033       41.773       -3.390       62.533       43.216       29.850     3910.421     1867.655      891.031        0.912        0.333      107.482       32.110        0.089      330.376       -2.291      875.469
01/10/2022  07:19:00     -119.693       45.120      -16.363       42.541       39.340       28.666     1809.767     1547.662      821.748        1.040        0.209      127.915       20.639        0.026      330.265       -2.473      875.443
01/10/2022  07:20:00     -177.178       94.976      -29.935       38.490       35.238       28.747     1481.499     1241.733      826.400        2.243        0.177      201.028       22.731        0.013      330.185       -2.607      875.409
01/10/2022  07:21:00     -109.410       85.961      -22.411       34.599       34.669       27.524     1197.074     1201.907      757.585        1.151        0.158      139.139       18.417        0.018      330.203       -2.574      875.379
01/10/2022  07:22:00      -68.725       74.222      -18.633       46.113       39.292       41.631     2126.450     1543.830     1733.114        0.799        0.270      101.153       25.327        0.063      330.296       -2.420      875.382
01/10/2022  07:23:00      -17.191        2.400      -12.608       41.601       34.419       29.032     1730.616     1184.668      842.881        0.211        0.188       17.357       11.394        0.431      330.320       -2.381      875.413
01/10/2022  07:24:00      -14.268      -38.437      -16.493       34.479       34.433       22.131     1188.831     1185.640      489.785        0.241        0.143       40.999       12.005        0.086      330.401       -2.249      875.459
01/10/2022  07:25:00      -26.677        2.999      -12.886       22.000       24.083       19.345      483.991      579.971      374.239        0.116        0.072       26.845       11.671        0.189      330.414       -2.228      875.487
01/10/2022  07:26:00      -31.181       16.252       -7.734       13.958       11.200        9.731      194.833      125.450       94.685        0.086        0.021       35.162        4.169        0.014      330.355       -2.327      875.484
01/10/2022  07:27:00      -41.217        8.156      -10.035       17.815       13.733        7.759      317.376      188.605       60.207        0.122        0.028       42.016        4.118        0.010      330.468       -2.140      875.481
01/10/2022  07:28:00      -24.765        0.342       -5.092       29.813       10.623       15.371      888.826      112.843      236.280        0.094        0.062       24.767       13.201        0.284      330.503       -2.083      875.466
01/10/2022  07:29:00       -4.964        0.906       -2.611       19.897       16.163       13.061      395.878      261.255      170.592        0.043        0.041        5.046       12.116        5.766      330.551       -2.004      875.413
01/10/2022  07:30:00      -42.387       22.876       -5.266       22.371       12.137       13.267      500.440      147.309      176.024        0.159        0.041       48.166       13.298        0.076      330.531       -2.037      875.380
01/10/2022  07:31:00      -65.742       15.835      -17.173       19.526       15.085       14.950      381.276      227.566      223.514        0.285        0.042       67.622       10.230        0.023      330.589       -1.942      875.388
01/10/2022  07:32:00      -33.390      -12.817       -6.692       32.062       25.167       22.200     1027.981      633.376      492.819        0.174        0.108       35.766       17.183        0.231      330.619       -1.893      875.430
01/10/2022  07:33:00      -25.110       -2.222       -3.294       22.794       18.703       13.291      519.569      349.801      176.643        0.085        0.052       25.209        3.011        0.014      330.675       -1.801      875.454
01/10/2022  07:34:00       -8.161       -0.770      -12.796       11.461        4.581        9.349      131.360       20.990       87.406        0.024        0.012        8.197        6.020        0.539      330.549       -2.009      875.461
01/10/2022  07:35:00      -16.920        4.914       -6.482       12.683       15.479       11.993      160.864      239.598      143.843        0.045        0.027       17.619        6.909        0.154      330.646       -1.847      875.465
01/10/2022  07:36:00      -23.127      -37.920       -6.724       27.565       36.414       24.572      759.837     1325.999      603.795        0.235        0.134       44.416       24.151        0.296      330.759       -1.661      875.479
01/10/2022  07:37:00       -9.636      -61.680      -25.365       20.949       28.400       16.388      438.868      806.537      268.572        0.303        0.076       62.428        9.998        0.026      330.709       -1.744      875.498
01/10/2022  07:38:00      -22.935       -0.243      -12.988       19.707       19.222       11.857      388.378      369.466      140.582        0.080        0.045       22.936        5.190        0.051      330.708       -1.746      875.514
01/10/2022  07:39:00       -8.019       25.609       -6.731       20.637       15.551       10.618      425.885      241.835      112.731        0.077        0.039       26.835        7.029        0.069      330.631       -1.874      875.510
01/10/2022  07:40:00        5.676       39.462       -8.659       13.319        9.822        9.096      177.394       96.462       82.731        0.101        0.018       39.868        7.675        0.037      330.577       -1.962      875.517
01/10/2022  07:41:00       28.693       33.362       -4.533       17.463       12.994        9.092      304.962      168.848       82.673        0.126        0.028       44.003        7.583        0.030      330.542       -2.020      875.536
01/10/2022  07:42:00       36.712       36.627       -8.465       11.245       11.184        8.489      126.441      125.087       72.068        0.154        0.016       51.859        7.001        0.018      330.523       -2.052      875.553
01/10/2022  07:43:00       43.802       30.724       -6.858       21.724       11.785       11.895      471.923      138.888      141.481        0.183        0.038       53.503        8.216        0.024      330.511       -2.072      875.554
01/10/2022  07:44:00       46.187       32.878       -0.134       24.663       18.529       15.792      608.273      343.336      249.393        0.221        0.060       56.694       14.849        0.069      330.537       -2.028      875.549
01/10/2022  07:45:00       47.064       28.959      -12.828       22.524       23.328       23.069      507.326      544.189      532.187        0.240        0.079       55.260       13.538        0.060      330.617       -1.895      875.536
01/10/2022  07:46:00       59.587       24.934      -17.895       31.617       35.145       20.425      999.614     1235.202      417.172        0.357        0.133       64.593       16.186        0.063      330.633       -1.869      875.526
01/10/2022  07:47:00       66.330       40.379      -12.263       30.305       18.455       12.463      918.373      340.575      155.328        0.380        0.071       77.654       11.677        0.023      330.411       -2.233      875.530
01/10/2022  07:48:00       79.267       41.388      -12.841       13.606       16.368       11.840      185.122      267.901      140.175        0.438        0.030       89.421        7.010        0.006      330.366       -2.309      875.567
01/10/2022  07:49:00       47.917       24.999       -9.197       30.701       23.801       14.949      942.557      566.496      223.473        0.237        0.087       54.046       11.909        0.049      330.412       -2.232      875.611
01/10/2022  07:50:00       26.932       34.221        1.803       24.432       21.203       14.672      596.901      449.554      215.261        0.158        0.063       43.548       11.037        0.064      330.381       -2.284      875.643
01/10/2022  07:51:00       10.949       17.744       -2.566       18.316       24.456       26.927      335.492      598.120      725.047        0.105        0.083       20.850       13.566        0.423      330.452       -2.166      875.657
01/10/2022  07:52:00       -0.118       -2.843      -18.032       21.218       20.115       14.749      450.190      404.613      217.529        0.070        0.054        2.845        6.694        5.535      330.691       -1.773      875.670
01/10/2022  07:53:00      -19.189       -6.889       -6.526       22.127       23.657       22.244      489.582      559.636      494.796        0.100        0.077       20.388       15.232        0.558      330.685       -1.783      875.685
01/10/2022  07:54:00      -31.475      -44.194        4.906       42.042       54.744       29.978     1767.519     2996.880      898.665        0.431        0.283       54.256       32.420        0.357      330.822       -1.559      875.710
01/10/2022  07:55:00       20.641     -104.557      -23.549       37.300       45.010       22.760     1391.298     2025.908      518.020        0.792        0.197      106.575       25.734        0.058      330.834       -1.539      875.711
01/10/2022  07:56:00       31.612      -95.271      -12.734       28.767       26.304       23.905      827.553      691.910      571.437        0.616        0.105      100.378       19.210        0.037      330.769       -1.646      875.703
01/10/2022  07:57:00       20.334      -72.194      -11.105       25.068       30.131       18.863      628.387      907.884      355.809        0.382        0.095       75.003        9.197        0.015      330.852       -1.512      875.677
01/10/2022  07:58:00      -31.144        5.772        0.871       25.349       28.395       14.943      642.596      806.292      223.279        0.134        0.084       31.674       13.704        0.187      330.784       -1.620      875.665
01/10/2022  07:59:00      -56.738       25.422       -5.721       27.294       20.291       21.889      744.939      411.720      479.149        0.277        0.082       62.173       16.661        0.072      330.643       -1.853      875.657
01/10/2022  08:00:00      -34.830       19.006       -7.308       26.791       24.589       16.773      717.777      604.602      281.346        0.162        0.080       39.678       16.006        0.163      330.673       -1.802      875.673
01/10/2022  08:01:00      -12.376      -18.179        7.138       18.059       19.761       16.733      326.122      390.495      280.004        0.077        0.050       21.992        6.211        0.080      330.903       -1.425      875.697
01/10/2022  08:02:00        0.117       -2.429      -12.308       15.864       17.850       14.785      251.666      318.623      218.611        0.047        0.039        2.432        8.925       13.467      330.877       -1.469      875.716
01/10/2022  08:03:00       66.102       48.553      -13.188       19.843       17.796       14.285      393.752      316.704      204.056        0.391        0.046       82.017        9.648        0.014      330.663       -1.819      875.734
01/10/2022  08:04:00       48.089       24.099      -12.172       21.840       25.150       13.837      476.993      632.544      191.468        0.217        0.065       53.789       10.094        0.035      330.667       -1.813      875.752
01/10/2022  08:05:00       -0.395        9.754       -3.326       12.234        9.480       10.294      149.678       89.874      105.970        0.023        0.017        9.762        5.892        0.364      330.619       -1.893      875.776
01/10/2022  08:06:00       22.548       22.141       -6.884       12.387       13.315        8.553      153.447      177.288       73.162        0.072        0.020       31.601        8.026        0.064      330.594       -1.933      875.788
01/10/2022  08:07:00       59.855       21.598      -11.593       20.416       18.178        9.835      416.829      330.445       96.729        0.251        0.042       63.633        5.319        0.007      330.619       -1.892      875.799
01/10/2022  08:08:00       53.461       10.618      -17.044       34.848       27.996       22.363     1214.379      783.761      500.113        0.288        0.125       54.505       16.368        0.090      330.749       -1.678      875.791
01/10/2022  08:09:00      105.718       32.048      -18.068       38.350       33.218       21.825     1470.688     1103.462      476.333        0.779        0.153      110.469       11.861        0.012      330.665       -1.815      875.784
01/10/2022  08:10:00       57.579       24.758       -8.928       42.954       28.912       18.070     1845.064      835.929      326.526        0.351        0.150       62.676       21.397        0.117      330.577       -1.963      875.792
01/10/2022  08:11:00       60.703       57.111      -22.166       25.296       23.841       18.837      639.896      568.411      354.823        0.450        0.078       83.346       10.467        0.016      330.484       -2.114      875.810
01/10/2022  08:12:00       39.162       29.592       -5.160       24.747       14.281       16.466      612.420      203.961      271.135        0.176        0.054       49.085       10.313        0.044      330.613       -1.903      875.825
01/10/2022  08:13:00       61.001       45.079      -15.397       16.648       16.873       11.699      277.140      284.691      136.872        0.334        0.035       75.850        5.433        0.005      330.518       -2.059      875.845
01/10/2022  08:14:00       80.776       46.222      -18.942       23.334       21.850       13.638      544.452      477.408      186.004        0.511        0.060       93.066       12.029        0.017      330.520       -2.055      875.852
01/10/2022  08:15:00       90.780       26.836      -28.667       47.883       39.611       26.363     2292.753     1569.015      695.001        0.717        0.228       94.663        8.982        0.009      330.643       -1.852      875.846
01/10/2022  08:16:00      114.989       38.212      -24.322       23.313       23.804       18.065      543.511      566.618      326.335        0.836        0.072      121.172       13.367        0.012      330.517       -2.058      875.831
01/10/2022  08:17:00       68.635       10.776      -10.749       43.563       21.604       14.713     1897.775      466.737      216.486        0.376        0.129       69.476       18.492        0.071      330.462       -2.150      875.818
01/10/2022  08:18:00       37.197        8.015      -12.286       26.901       17.633       17.584      723.686      310.919      309.191        0.147        0.067       38.051       15.685        0.170      330.528       -2.042      875.808
01/10/2022  08:19:00       85.579       26.553      -17.341       15.443       17.891       12.463      238.492      320.089      155.321        0.452        0.036       89.604        5.075        0.003      330.426       -2.208      875.792
01/10/2022  08:20:00       88.837       12.357      -15.504       32.892       27.416       18.329     1081.907      751.651      335.954        0.523        0.108       89.692       14.233        0.025      330.515       -2.064      875.770
01/10/2022  08:21:00      128.919       14.358       -9.997       53.646       35.886       23.236     2877.890     1287.832      539.934        1.082        0.235      129.716       20.735        0.026      330.507       -2.076      875.739
01/10/2022  08:22:00      139.828       29.605      -18.491       48.523       39.012       24.885     2354.462     1521.928      619.274        1.263        0.225      142.928       13.608        0.009      330.522       -2.051      875.711
01/10/2022  08:23:00      105.907       29.724      -24.881       45.411       42.714       28.128     2062.140     1824.528      791.197        0.870        0.234      109.999        9.886        0.008      330.486       -2.110      875.703
01/10/2022  08:24:00       54.457       -6.475        2.924       50.527       36.451       33.907     2553.018     1328.701     1149.709        0.402        0.252       54.840       30.843        0.316      330.521       -2.054      875.720
01/10/2022  08:25:00        4.327       16.304      -10.270       46.820       37.195       26.038     2192.088     1383.465      677.978        0.232        0.213       16.868       11.506        0.465      330.582       -1.952      875.762
01/10/2022  08:26:00      -13.397      -15.227      -11.142       23.821       29.760       30.405      567.449      885.686      924.465        0.146        0.119       20.281        6.172        0.093      330.726       -1.717      875.808
01/10/2022  08:27:00       30.345      -58.075      -21.262       30.647       31.176       28.331      939.251      971.938      802.639        0.373        0.136       65.525       20.279        0.096      330.673       -1.803      875.848
01/10/2022  08:28:00      -27.812        1.658       -1.604       30.621       29.718       18.379      937.633      883.168      337.787        0.147        0.108       27.861       15.055        0.292      330.793       -1.607      875.896
01/10/2022  08:29:00       84.801       23.526      -20.932       19.898       16.246       13.242      395.921      263.921      175.354        0.451        0.042       88.004        8.270        0.009      330.498       -2.090      875.936
01/10/2022  08:30:00      113.643       13.285      -22.998       18.810       25.169       16.837      353.824      633.471      283.472        0.745        0.064      114.417        9.280        0.007      330.571       -1.972      875.958
01/10/2022  08:31:00       92.542        7.371      -10.172       27.659       28.181       17.019      765.011      794.172      289.636        0.529        0.092       92.835        9.888        0.011      330.590       -1.939      875.951
01/10/2022  08:32:00       55.386        6.131       -6.312       27.528       25.417       19.486      757.817      646.015      379.686        0.246        0.089       55.724        9.951        0.032      330.658       -1.829      875.931
01/10/2022  08:33:00       65.133       20.673      -20.937       25.492       20.901       10.760      649.825      436.846      115.779        0.316        0.060       68.335        8.854        0.017      330.555       -1.999      875.913
01/10/2022  08:34:00       90.163       38.950      -23.095       25.480       29.090       20.410      649.208      846.202      416.559        0.605        0.096       98.216       10.265        0.011      330.651       -1.839      875.902
01/10/2022  08:35:00       82.670       25.017      -21.560       33.916       46.791       26.041     1150.291     2189.398      678.121        0.597        0.201       86.373       19.876        0.053      330.660       -1.824      875.900
01/10/2022  08:36:00       54.614       29.095      -16.173       33.712       35.533       24.012     1136.466     1262.569      576.580        0.353        0.149       61.880       13.148        0.045      330.728       -1.713      875.918
01/10/2022  08:37:00       41.484        7.141      -13.076       31.546       38.486       22.925      995.161     1481.173      525.576        0.247        0.150       42.094       13.181        0.098      330.729       -1.711      875.947
01/10/2022  08:38:00       33.618       12.277      -23.469       27.018       40.201       19.448      729.988     1616.152      378.242        0.228        0.136       35.790       12.069        0.114      330.848       -1.516      875.959
01/10/2022  08:39:00       24.339       38.335      -17.226       35.856       32.616       20.688     1285.684     1063.789      427.987        0.257        0.139       45.409       10.952        0.058      330.751       -1.675      875.952
01/10/2022  08:40:00       40.369       23.620       -6.532       24.673       39.564       23.670      608.771     1565.271      560.266        0.248        0.137       46.771       19.771        0.179      330.725       -1.719      875.943
01/10/2022  08:41:00       63.713        8.227      -14.199       33.213       41.704       15.880     1103.111     1739.238      252.161        0.371        0.155       64.242       14.934        0.054      330.805       -1.587      875.948
01/10/2022  08:42:00       48.878        9.378      -13.245       34.688       37.248       19.316     1203.233     1387.405      373.121        0.281        0.148       49.769       11.459        0.053      330.841       -1.527      875.963
01/10/2022  08:43:00       21.427       16.169      -13.615       26.557       33.646       18.129      705.263     1132.077      328.678        0.154        0.108       26.843        6.442        0.058      330.824       -1.555      875.988
01/10/2022  08:44:00       20.682      -25.482       -9.330       27.487       35.280       30.119      755.549     1244.653      907.155        0.204        0.145       32.819       26.685        0.661      330.884       -1.457      876.021
01/10/2022  08:45:00       -5.467      -24.330       -7.359       20.089       34.142       17.099      403.579     1165.710      292.377        0.127        0.093       24.937        6.345        0.065      330.974       -1.308      876.048
01/10/2022  08:46:00      -12.925      -20.764       -6.891       26.600       36.088       23.759      707.565     1302.309      564.481        0.161        0.129       24.458       15.407        0.397      331.075       -1.143      876.080
01/10/2022  08:47:00      -20.536      -20.268        4.326       28.592       30.290       20.681      817.512      917.499      427.714        0.151        0.108       28.854       16.609        0.331      331.017       -1.239      876.119
01/10/2022  08:48:00      -35.374       10.744        5.889       35.128       30.970       18.815     1233.942      959.118      354.009        0.197        0.127       36.969       17.122        0.214      331.038       -1.204      876.146
01/10/2022  08:49:00      -89.661        3.095       -6.484       59.138       27.785       22.373     3497.343      771.995      500.564        0.643        0.238       89.714       26.334        0.086      331.003       -1.263      876.168
01/10/2022  08:50:00      -43.213       -9.265       -3.623       26.930       35.988       18.131      725.208     1295.151      328.744        0.216        0.117       44.195       12.887        0.085      331.124       -1.062      876.182
01/10/2022  08:51:00      -58.676       -6.281      -22.696       39.464       34.865       22.965     1557.446     1215.560      527.389        0.365        0.165       59.011       17.366        0.087      331.089       -1.120      876.198
01/10/2022  08:52:00      -35.716       -5.659       -7.934       48.463       23.885       23.807     2348.665      570.507      566.782        0.243        0.174       36.161       18.761        0.269      331.155       -1.011      876.221
01/10/2022  08:53:00      -15.075      -12.321      -10.608       25.191       22.255       19.497      634.580      495.304      380.147        0.100        0.076       19.470        4.843        0.062      331.220       -0.905      876.239
01/10/2022  08:54:00      -47.944       -7.332       -3.259       40.274       29.846       21.963     1622.010      890.783      482.392        0.268        0.150       48.502       20.730        0.183      331.195       -0.946      876.244
01/10/2022  08:55:00     -123.493      -20.549      -15.515       32.517       26.018       21.206     1057.359      676.913      449.701        0.905        0.109      125.191       17.378        0.019      330.965       -1.324      876.237
01/10/2022  08:56:00      -72.961        0.657       -8.482       49.226       26.268       25.797     2423.217      690.028      665.469        0.459        0.189       72.964       23.415        0.103      331.111       -1.084      876.226
01/10/2022  08:57:00      -60.802       18.352       -6.238       38.954       23.404       13.067     1517.380      547.751      170.748        0.315        0.112       63.511       10.509        0.027      331.065       -1.161      876.223
01/10/2022  08:58:00      -32.355       -4.479       -1.704       27.672       23.413       17.849      765.723      548.191      318.588        0.135        0.082       32.663       17.615        0.291      331.173       -0.984      876.222
01/10/2022  08:59:00       20.120      -29.975       -1.072       25.021       26.351       24.458      626.061      694.364      598.181        0.161        0.096       36.101       13.455        0.139      331.262       -0.835      876.229
01/10/2022  09:00:00        7.779       -3.610        1.889       24.069       17.239       19.602      579.323      297.173      384.255        0.067        0.063        8.576       10.754        1.573      331.294       -0.784      876.250
01/10/2022  09:01:00      -27.807       38.719      -19.997       55.328       30.272       18.740     3061.198      916.412      351.195        0.350        0.216       47.670       15.343        0.104      331.172       -0.983      876.273
01/10/2022  09:02:00      -89.558       36.787      -15.256       27.133       18.627       13.877      736.218      346.960      192.560        0.544        0.064       96.820       10.411        0.012      331.059       -1.170      876.282
01/10/2022  09:03:00      -66.374       29.629      -11.765       34.825       27.131       18.604     1212.786      736.114      346.124        0.386        0.115       72.687       15.063        0.043      331.123       -1.062      876.277
01/10/2022  09:04:00       -9.084       -3.582       -3.696       28.068       34.821       18.946      787.821     1212.523      358.943        0.123        0.118        9.765        9.040        0.857      331.227       -0.893      876.265
01/10/2022  09:05:00      -27.509      -18.036       -6.438       41.790       36.951       23.495     1746.427     1365.386      552.009        0.239        0.183       32.894       21.564        0.430      331.177       -0.976      876.247
01/10/2022  09:06:00      -34.042      -63.109       -7.244       24.108       22.874       19.832      581.182      523.233      393.322        0.335        0.075       71.705       12.046        0.028      331.118       -1.071      876.239
01/10/2022  09:07:00      -19.164      -41.465      -13.678       15.779       25.216       16.963      248.973      635.844      287.729        0.172        0.059       45.679        9.062        0.039      331.181       -0.969      876.234
01/10/2022  09:08:00       -1.502        4.965        0.375        9.647        8.379       12.951       93.070       70.211      167.729        0.018        0.017        5.187        7.142        1.896      331.184       -0.962      876.228
01/10/2022  09:09:00       11.495       11.934       -5.516       18.367       13.491       13.545      337.349      181.997      183.478        0.050        0.035       16.569       10.130        0.374      331.099       -1.104      876.223
01/10/2022  09:10:00       -4.472       18.208       -2.517       15.438       10.168       11.932      238.337      103.383      142.381        0.042        0.024       18.749        6.706        0.128      331.138       -1.039      876.210
01/10/2022  09:11:00      -31.784       41.443       -8.358       18.187       12.677       10.708      330.779      160.699      114.669        0.170        0.030       52.228        5.225        0.010      331.222       -0.900      876.218
01/10/2022  09:12:00      -94.200       29.429      -31.218       27.246       20.678       18.011      742.321      427.584      324.381        0.610        0.075       98.690        7.045        0.005      331.265       -0.832      876.243
01/10/2022  09:13:00     -125.755       60.981      -17.180       21.573       21.022       13.610      465.388      441.931      185.232        1.046        0.055      139.760        9.130        0.004      331.126       -1.061      876.259
01/10/2022  09:14:00     -102.346       43.438      -12.411       29.995       27.017       21.891      899.681      729.934      479.220        0.731        0.105      111.182       15.713        0.020      331.138       -1.039      876.285
01/10/2022  09:15:00      -90.177       30.905      -22.146       33.769       21.564       19.282     1140.338      465.027      371.813        0.578        0.099       95.326       16.157        0.029      331.218       -0.910      876.297
01/10/2022  09:16:00      -22.980       51.296       -9.633       21.542       25.493       14.558      464.055      649.891      211.945        0.229        0.066       56.208       11.258        0.040      331.222       -0.901      876.305
01/10/2022  09:17:00      -47.867       72.925      -10.583       19.302       20.339       11.168      372.571      413.681      124.720        0.432        0.046       87.231        8.975        0.011      331.179       -0.972      876.299
01/10/2022  09:18:00      -59.816       20.474      -14.692       21.453       16.932       15.853      460.241      286.700      251.330        0.261        0.050       63.223        7.990        0.016      331.210       -0.919      876.314
01/10/2022  09:19:00      -34.357       42.516      -18.611       37.243       26.589       17.269     1387.016      706.971      298.207        0.286        0.120       54.663        8.834        0.026      331.300       -0.773      876.313
01/10/2022  09:20:00       -1.375       50.433       -0.183       18.862       22.088       12.350      355.780      487.901      152.516        0.177        0.050       50.452       10.438        0.043      331.360       -0.674      876.329
01/10/2022  09:21:00       -0.496       61.095      -11.189       11.263       16.169       13.748      126.845      261.441      188.999        0.222        0.029       61.097       10.112        0.027      331.303       -0.769      876.352
01/10/2022  09:22:00       27.343       14.838       -1.413       17.876       21.662       12.750      319.535      469.258      162.561        0.096        0.048       31.109       13.258        0.182      331.375       -0.650      876.385
01/10/2022  09:23:00      -24.610       14.823       -3.696       16.540       21.475       11.234      273.569      461.177      126.206        0.085        0.043       28.729        6.846        0.057      331.415       -0.584      876.423
01/10/2022  09:24:00       17.305       11.010       -2.180       15.889       14.536        9.259      252.461      211.300       85.724        0.049        0.027       20.511        5.113        0.062      331.376       -0.648      876.458
01/10/2022  09:25:00       25.166       29.305      -15.597       11.544       13.682       11.222      133.273      187.200      125.929        0.109        0.022       38.627        8.730        0.051      331.340       -0.708      876.459
01/10/2022  09:26:00       32.721       13.083      -14.716       37.382       18.957       18.603     1397.383      359.359      346.075        0.178        0.105       35.239        6.944        0.039      331.399       -0.611      876.446
01/10/2022  09:27:00       65.191       29.996      -16.635       35.209       33.730       27.231     1239.676     1137.729      741.544        0.427        0.156       71.761       14.281        0.040      331.299       -0.774      876.426
01/10/2022  09:28:00       51.838       21.527      -15.669       43.486       37.510       32.629     1890.998     1406.970     1064.627        0.388        0.218       56.131       17.580        0.098      331.327       -0.730      876.421
01/10/2022  09:29:00       44.462       25.662      -36.114       30.225       36.940       24.675      913.578     1364.568      608.877        0.341        0.144       51.336       12.117        0.056      331.391       -0.623      876.447
01/10/2022  09:30:00       36.502       32.361      -26.295       34.046       56.735       28.016     1159.159     3218.857      784.913        0.412        0.258       48.781       17.965        0.136      331.435       -0.552      876.478
01/10/2022  09:31:00       34.554      -16.364      -22.348       32.706       44.985       27.437     1069.669     2023.638      752.772        0.290        0.192       38.234       15.468        0.164      331.414       -0.587      876.506
01/10/2022  09:32:00       57.467       -6.163      -15.383       39.777       33.309       28.887     1582.177     1109.485      834.431        0.355        0.176       57.797       20.673        0.128      331.434       -0.554      876.532
01/10/2022  09:33:00       84.656       40.161      -15.557       49.336       44.503       17.561     2434.061     1980.522      308.371        0.687        0.236       93.700        9.555        0.010      331.335       -0.715      876.553
01/10/2022  09:34:00       37.570      -10.903      -15.784       27.732       47.991       23.275      769.054     2303.175      541.747        0.270        0.181       39.120       14.353        0.135      331.616       -0.255      876.565
01/10/2022  09:35:00       24.274       13.747      -20.840       41.894       42.307       16.662     1755.139     1789.877      277.629        0.252        0.191       27.896       17.091        0.375      331.520       -0.413      876.584
01/10/2022  09:36:00       93.818        1.534      -13.445       23.264       38.057       18.912      541.220     1448.321      357.667        0.567        0.117       93.830        6.470        0.005      331.345       -0.700      876.581
01/10/2022  09:37:00      113.669       42.210      -16.947       26.909       13.837       11.119      724.092      191.453      123.636        0.801        0.052      121.254        5.745        0.002      331.210       -0.919      876.570
01/10/2022  09:38:00      116.744       26.916      -20.851       23.718       25.115       16.341      562.534      630.771      267.019        0.812        0.073      119.807       11.636        0.009      331.223       -0.899      876.562
01/10/2022  09:39:00       93.628       28.851      -16.981       19.714       11.474       13.147      388.661      131.651      172.841        0.529        0.035       97.972        8.128        0.007      331.208       -0.925      876.572
01/10/2022  09:40:00       59.034       26.072      -17.354       18.413       12.167       10.974      339.039      148.032      120.427        0.254        0.030       64.535        4.998        0.006      331.275       -0.814      876.582
01/10/2022  09:41:00       12.153       21.159       -8.175       17.270       16.976       19.471      298.269      288.198      379.106        0.081        0.048       24.401       11.976        0.241      331.449       -0.529      876.594
01/10/2022  09:42:00       13.326       29.557       -7.363       19.122       14.205        9.465      365.655      201.789       89.583        0.088        0.033       32.422        5.624        0.030      331.291       -0.789      876.605
01/10/2022  09:43:00        6.276       37.264      -13.047       14.903       14.001       12.706      222.089      196.030      161.448        0.109        0.029       37.789        8.053        0.045      331.319       -0.741      876.600
01/10/2022  09:44:00       20.179       31.979       -6.450       15.386       12.737        7.261      236.735      162.239       52.718        0.096        0.023       37.813        4.749        0.016      331.339       -0.710      876.587
01/10/2022  09:45:00       51.273       36.398      -12.844       14.908       18.170       12.898      222.237      330.156      166.357        0.242        0.036       62.879        5.150        0.007      331.328       -0.727      876.572
01/10/2022  09:46:00       73.693       18.636       -9.347       28.453       21.649       16.084      809.548      468.680      258.693        0.370        0.077       76.013       11.137        0.021      331.393       -0.620      876.584
01/10/2022  09:47:00      116.359       31.992      -20.885       32.834       23.605       17.429     1078.084      557.183      303.775        0.847        0.097      120.677        8.945        0.005      331.415       -0.585      876.592
01/10/2022  09:48:00       60.707       18.867      -19.162       42.046       42.517       19.448     1767.860     1807.714      378.227        0.418        0.198       63.571       15.894        0.063      331.502       -0.441      876.612
01/10/2022  09:49:00       72.455       28.653      -16.976       37.226       41.432       28.289     1385.795     1716.569      800.258        0.513        0.195       77.914       21.287        0.075      331.510       -0.430      876.628
01/10/2022  09:50:00       66.000       35.507      -25.713       43.626       53.936       33.483     1903.243     2909.144     1121.112        0.610        0.297       74.945       14.784        0.039      331.584       -0.307      876.638
01/10/2022  09:51:00       73.691      -34.780      -54.485       43.543       66.783       28.062     1895.987     4459.983      787.465        0.837        0.357       81.486       11.573        0.020      331.866        0.157      876.637
01/10/2022  09:52:00       85.197       81.290      -26.812       49.328       54.415       33.915     2433.212     2961.028     1150.194        1.056        0.327      117.756       21.721        0.034      331.577       -0.317      876.627
01/10/2022  09:53:00      -14.418      -26.110      -12.272       42.597       57.076       33.850     1814.528     3257.716     1145.843        0.363        0.311       29.826       24.340        0.666      331.716       -0.088      876.625
01/10/2022  09:54:00       46.941      -69.597      -32.378       51.716       73.286       29.050     2674.494     5370.887      843.895        0.849        0.444       83.948       32.677        0.152      331.964        0.320      876.641
01/10/2022  09:55:00       85.303       65.918      -19.702       30.778       29.600       20.649      947.306      876.181      426.372        0.713        0.112      107.804        4.576        0.002      331.478       -0.480      876.668
01/10/2022  09:56:00       67.997        8.630      -28.764       53.844       61.186       30.401     2899.193     3743.673      924.212        0.654        0.378       68.542       11.217        0.027      331.649       -0.200      876.677
01/10/2022  09:57:00       93.550        7.490      -20.887       45.786       50.934       31.177     2096.337     2594.318      972.015        0.745        0.283       93.849       18.389        0.038      331.773        0.003      876.682
01/10/2022  09:58:00      102.066        4.130      -27.461       71.387       48.375       33.027     5096.042     2340.166     1090.753        0.986        0.426      102.149       28.791        0.079      331.707       -0.103      876.669
01/10/2022  09:59:00       67.363      -28.144      -38.400       55.679       61.986       48.448     3100.141     3842.220     2347.231        0.805        0.464       73.006       27.910        0.146      332.135        0.600      876.639
01/10/2022  10:00:00       76.711      -10.123      -28.093       49.819       54.695       43.256     2481.903     2991.546     1871.062        0.706        0.367       77.376       24.029        0.096      331.963        0.318      876.617
01/10/2022  10:01:00      103.761       -2.779       -6.600       68.704       44.703       47.976     4720.233     1998.384     2301.666        0.992        0.451      103.798       41.941        0.163      331.773        0.005      876.618
01/10/2022  10:02:00      129.316       -4.249       -5.480       56.629       36.009       38.913     3206.823     1296.616     1514.206        1.139        0.301      129.385       33.552        0.067      331.636       -0.220      876.645
01/10/2022  10:03:00       81.437        1.995       -6.699       51.663       35.276       31.012     2669.019     1244.389      961.725        0.578        0.244       81.461       28.762        0.125      331.713       -0.093      876.682
01/10/2022  10:04:00       88.443       34.167      -23.913       41.564       53.087       24.933     1727.553     2818.254      621.652        0.736        0.258       94.813       20.499        0.047      331.540       -0.379      876.719
01/10/2022  10:05:00       80.101       35.046      -16.096       28.135       42.336       24.837      791.585     1792.329      616.886        0.555        0.160       87.432       10.206        0.014      331.550       -0.363      876.755
01/10/2022  10:06:00       68.204       42.914      -16.979       32.144       30.723       23.138     1033.253      943.914      535.370        0.465        0.126       80.582       12.275        0.023      331.590       -0.298      876.779
01/10/2022  10:07:00       74.095       34.655      -12.795       36.201       48.684       23.788     1310.515     2370.106      565.889        0.555        0.212       81.798       12.464        0.023      331.636       -0.222      876.796
01/10/2022  10:08:00       63.521        1.214      -24.495       26.995       29.121       28.873      728.745      848.042      833.639        0.352        0.121       63.532       15.684        0.061      331.668       -0.168      876.823
01/10/2022  10:09:00       66.679       43.934      -25.724       34.433       35.078       20.741     1185.647     1230.441      430.209        0.494        0.142       79.851       18.391        0.053      331.620       -0.246      876.835
01/10/2022  10:10:00       99.517       48.313      -17.308       31.961       26.676       22.066     1021.522      711.619      486.911        0.738        0.111      110.625       16.370        0.022      331.539       -0.380      876.836
01/10/2022  10:11:00       88.214        8.947      -12.797       29.671       33.809       21.346      880.352     1143.017      455.644        0.525        0.124       88.667       18.020        0.041      331.581       -0.311      876.847
01/10/2022  10:12:00       86.481       -4.965      -14.391       41.671       39.769       26.083     1736.508     1581.536      680.305        0.585        0.200       86.623       21.022        0.059      331.660       -0.181      876.850
01/10/2022  10:13:00      101.685       25.856      -21.162       26.448       33.806       20.224      699.500     1142.832      409.005        0.685        0.113      104.921       10.317        0.010      331.635       -0.222      876.853
01/10/2022  10:14:00       63.296       31.544      -16.066       30.854       32.386       15.836      951.943     1048.843      250.787        0.376        0.113       70.720       10.771        0.023      331.692       -0.129      876.864
01/10/2022  10:15:00      106.194       39.564      -20.871       26.299       29.208       17.712      691.648      853.081      313.705        0.757        0.093      113.325        7.509        0.004      331.511       -0.427      876.880
01/10/2022  10:16:00       56.982       29.803      -25.196       23.354       36.087       31.692      545.427     1302.283     1004.410        0.381        0.143       64.305       13.238        0.042      331.739       -0.051      876.886
01/10/2022  10:17:00        3.128       17.017      -13.603       20.792       23.403       19.695      432.289      547.695      387.908        0.093        0.068       17.302       10.539        0.371      331.712       -0.095      876.877
01/10/2022  10:18:00      -10.079       -8.532       -8.434       33.467       36.351       22.108     1120.040     1321.402      488.752        0.159        0.147       13.206        9.781        0.549      331.852        0.135      876.856
01/10/2022  10:19:00      -11.159      -14.115      -11.863       56.875       25.676       30.063     3234.713      659.251      903.787        0.263        0.240       17.993        8.468        0.222      332.050        0.460      876.836
01/10/2022  10:20:00       66.362       -8.905      -23.799       44.276       44.963       30.657     1960.381     2021.633      939.880        0.498        0.246       66.957       17.009        0.065      332.133        0.596      876.826
01/10/2022  10:21:00       79.449       -2.905      -22.165       41.825       55.679       34.347     1749.299     3100.096     1179.751        0.642        0.301       79.502       20.348        0.066      332.051        0.461      876.817
01/10/2022  10:22:00       69.425      -12.203      -21.611       39.506       36.526       27.700     1560.730     1334.134      767.281        0.455        0.183       70.490       19.306        0.075      331.795        0.041      876.816
01/10/2022  10:23:00       84.923       45.959      -26.842       31.109       31.307       21.957      967.773      980.149      482.107        0.624        0.122       96.562       11.553        0.014      331.794        0.038      876.809
01/10/2022  10:24:00       19.508       13.905      -17.155       55.651       37.634       26.164     3097.018     1416.332      684.531        0.303        0.260       23.956       21.280        0.789      331.840        0.115      876.797
01/10/2022  10:25:00       -6.365      -29.919      -12.704       45.454       49.500       38.606     2066.085     2450.259     1490.431        0.355        0.300       30.589       22.665        0.549      332.049        0.459      876.786
01/10/2022  10:26:00       51.106       34.072      -25.594       37.176       38.815       22.178     1382.035     1506.595      491.864        0.390        0.169       61.423       11.585        0.036      331.862        0.151      876.779
01/10/2022  10:27:00      114.889      -11.096      -16.373       45.950       52.687       26.149     2111.409     2775.960      683.786        0.958        0.279      115.424       12.448        0.012      331.691       -0.131      876.781
01/10/2022  10:28:00       97.792        4.762      -21.835       24.289       24.684       19.652      589.965      609.296      386.183        0.582        0.079       97.908       11.042        0.013      331.595       -0.289      876.781
01/10/2022  10:29:00       46.777       33.941       -9.536       26.447       20.729       11.450      699.451      429.684      131.095        0.235        0.063       57.794        9.709        0.028      331.562       -0.341      876.787
01/10/2022  10:30:00      117.746       48.849      -22.021       28.147       30.880       17.181      792.264      953.563      295.186        0.939        0.102      127.476        9.772        0.006      331.657       -0.187      876.776
01/10/2022  10:31:00       71.950       24.332      -15.604       64.183       55.810       30.567     4119.399     3114.708      934.326        0.709        0.408       75.953       27.322        0.129      331.813        0.070      876.766
01/10/2022  10:32:00       64.535       15.247      -14.755       61.062       39.196       25.630     3728.610     1536.340      656.907        0.527        0.296       66.312       27.543        0.173      331.819        0.080      876.763
01/10/2022  10:33:00       99.764       22.946      -19.462       39.481       20.531       16.147     1558.777      421.539      260.719        0.655        0.112      102.369        9.541        0.009      331.652       -0.194      876.760
01/10/2022  10:34:00       85.417       24.578      -22.523       33.161       37.638       21.248     1099.674     1416.605      451.473        0.569        0.148       88.883       12.720        0.020      331.749       -0.035      876.742
01/10/2022  10:35:00       75.755       17.646      -11.302       64.450       33.603       29.753     4153.741     1129.144      885.250        0.617        0.308       77.782       27.285        0.123      331.841        0.116      876.732
01/10/2022  10:36:00      116.190       36.742      -17.493       47.683       48.928       20.267     2273.654     2393.928      410.753        1.012        0.254      121.860        7.605        0.004      331.741       -0.048      876.725
01/10/2022  10:37:00      106.404       25.964      -24.743       62.067       70.314       24.431     3852.302     4944.092      596.851        1.100        0.470      109.526       20.847        0.036      331.811        0.067      876.728
01/10/2022  10:38:00       29.674       24.213       -8.807       43.953       60.291       42.341     1931.873     3635.059     1792.749        0.445        0.368       38.299       28.928        0.571      331.988        0.359      876.723
01/10/2022  10:39:00       95.420       70.251      -22.199       32.067       29.801       23.321     1028.293      888.091      543.887        0.850        0.123      118.492       13.803        0.014      331.778        0.012      876.705
01/10/2022  10:40:00       43.632       43.867       -0.411       40.434       48.135       30.486     1634.919     2316.938      929.376        0.435        0.244       61.871       27.278        0.194      332.003        0.383      876.683
01/10/2022  10:41:00       61.125       60.791       -4.851       27.904       33.700       15.043      778.610     1135.699      226.295        0.480        0.107       86.208        4.896        0.003      331.777        0.013      876.666
01/10/2022  10:42:00       55.953       37.323      -24.507       19.375       22.046       17.685      375.389      486.011      312.761        0.315        0.059       67.259       10.510        0.024      331.707       -0.103      876.656
01/10/2022  10:43:00       79.321       73.954       -4.435       36.151       34.444       23.466     1306.874     1186.411      550.675        0.741        0.152      108.448       24.644        0.052      331.826        0.093      876.651
01/10/2022  10:44:00       65.418       63.191       -9.958       19.335       19.804       23.839      373.841      392.196      568.304        0.485        0.067       90.955        9.864        0.012      331.750       -0.032      876.661
01/10/2022  10:45:00       29.832       37.884       -7.230       28.802       17.402       16.440      829.548      302.814      270.278        0.189        0.070       48.219       15.014        0.097      331.972        0.331      876.672
01/10/2022  10:46:00       63.080       25.708      -13.340       40.356       30.347       23.620     1628.572      920.947      557.920        0.396        0.155       68.118       15.035        0.049      332.064        0.484      876.672
01/10/2022  10:47:00       50.306       41.111      -20.192       16.211       23.928       18.278      262.781      572.557      334.089        0.290        0.058       64.968        9.864        0.023      331.846        0.123      876.670
01/10/2022  10:48:00        7.030       17.665      -17.591       13.295       15.974       15.896      176.744      255.160      252.682        0.068        0.034       19.012        8.370        0.194      331.891        0.199      876.640
01/10/2022  10:49:00        3.338       29.438       -3.645       21.036       19.427       19.449      442.532      377.422      378.250        0.104        0.060       29.627       13.458        0.206      331.945        0.287      876.615
01/10/2022  10:50:00      -14.758        4.220      -24.475       33.246       25.906       21.283     1105.325      671.097      452.966        0.153        0.111       15.349       17.156        1.249      332.086        0.519      876.570
01/10/2022  10:51:00       38.931       28.537      -11.132       27.850       47.546       27.707      775.629     2260.662      767.658        0.313        0.190       48.270       14.526        0.091      332.053        0.466      876.543
01/10/2022  10:52:00       65.704       20.999      -12.303       32.742       29.425       17.633     1072.064      865.858      310.913        0.358        0.112       68.978       12.640        0.034      332.025        0.418      876.518
01/10/2022  10:53:00       83.120       43.129      -13.026       23.252       20.176       14.972      540.661      407.066      224.164        0.506        0.059       93.643       10.880        0.014      331.903        0.219      876.508
01/10/2022  10:54:00       61.613       29.446      -20.077       11.740       14.197       15.458      137.823      201.542      238.939        0.282        0.029       68.288        7.374        0.012      331.852        0.134      876.487
01/10/2022  10:55:00       30.876       32.931       -6.540       31.672       23.375       21.159     1003.109      546.410      447.709        0.204        0.100       45.141       19.010        0.177      332.150        0.625      876.465
01/10/2022  10:56:00       47.613       29.352      -13.342       40.912       40.392       20.534     1673.774     1631.546      421.639        0.352        0.186       55.933       10.923        0.038      332.243        0.777      876.445
01/10/2022  10:57:00       92.116       38.218      -21.686       19.142       16.802       13.040      366.408      282.322      170.038        0.562        0.041       99.729        5.653        0.003      331.904        0.219      876.427
01/10/2022  10:58:00       32.123       38.495      -20.723       12.049        9.171       11.881      145.182       84.107      141.164        0.166        0.019       50.137        8.051        0.026      331.883        0.187      876.419
01/10/2022  10:59:00      -11.165       11.553      -20.356       15.710       12.559       13.132      246.804      157.739      172.438        0.062        0.029       16.066        6.416        0.159      332.046        0.453      876.423
01/10/2022  11:00:00       25.157       30.958       -9.795       19.569       18.640       14.944      382.955      347.448      223.318        0.132        0.048       39.891       10.587        0.070      332.079        0.508      876.442
01/10/2022  11:01:00        6.359       16.804      -12.475       10.575       18.451       14.964      111.826      340.421      223.910        0.058        0.034       17.967        7.630        0.180      332.193        0.697      876.449
01/10/2022  11:02:00        8.341        6.192       -9.475        9.970        6.548        6.879       99.396       42.876       47.322        0.019        0.009       10.388        5.479        0.278      332.195        0.698      876.447
01/10/2022  11:03:00      -29.243       38.042      -14.738       24.101       19.105       11.181      580.871      364.990      125.009        0.180        0.054       47.983        8.148        0.029      332.403        1.043      876.433
01/10/2022  11:04:00       12.084       12.213      -11.281       10.922       14.079       11.596      119.290      198.227      134.462        0.044        0.023       17.181        8.128        0.224      332.388        1.017      876.413
01/10/2022  11:05:00       18.841       26.975      -11.664       30.047       13.779       18.919      902.826      189.871      357.942        0.133        0.073       32.903       13.394        0.166      332.461        1.138      876.393
01/10/2022  11:06:00       -5.310       13.310       -5.529       17.608       19.410       14.599      310.032      376.764      213.126        0.057        0.045       14.329        5.315        0.138      332.676        1.494      876.386
01/10/2022  11:07:00      -19.945       30.855       -6.303       20.554       16.471       15.380      422.467      271.298      236.549        0.116        0.047       36.740        6.244        0.029      332.492        1.188      876.374
01/10/2022  11:08:00       -7.436       11.176      -11.109       21.556       21.203       18.306      464.677      449.571      335.111        0.078        0.062       13.424        9.826        0.536      332.673        1.490      876.357
01/10/2022  11:09:00      -58.227       39.225      -14.370       30.693       22.448       16.322      942.081      503.927      266.408        0.342        0.086       70.207       13.359        0.036      332.368        0.985      876.346
01/10/2022  11:10:00      -67.712       34.201      -23.870       24.795       18.369       18.134      614.792      337.432      328.856        0.380        0.064       75.860       12.160        0.026      332.323        0.909      876.328
01/10/2022  11:11:00      -51.254       37.833      -14.139       21.669       21.761       14.142      469.563      473.535      200.004        0.270        0.057       63.705        9.821        0.024      332.444        1.109      876.308
01/10/2022  11:12:00      -59.114       42.439      -12.984       34.006       18.767       23.970     1156.379      352.219      574.559        0.377        0.104       72.771       16.324        0.050      332.572        1.323      876.287
01/10/2022  11:13:00        6.211       22.040       -7.294       23.054       13.404       18.578      531.493      179.667      345.145        0.082        0.053       22.899       12.295        0.288      332.742        1.603      876.259
01/10/2022  11:14:00       45.760       43.532       -8.932       42.144       31.567       24.779     1776.137      996.448      614.013        0.373        0.169       63.158       16.763        0.070      332.704        1.540      876.231
01/10/2022  11:15:00      -19.866      -12.433      -22.721       59.514       45.202       30.062     3541.884     2043.236      903.715        0.378        0.324       23.435       26.840        1.312      332.885        1.840      876.204
01/10/2022  11:16:00       16.596       15.836       -3.478       44.047       37.549       29.969     1940.182     1409.919      898.152        0.239        0.212       22.939       16.515        0.518      332.832        1.751      876.178
01/10/2022  11:17:00      101.914       47.713      -14.085       49.015       45.062       30.144     2402.510     2030.626      908.686        0.910        0.267      112.530       22.166        0.039      332.581        1.335      876.163
01/10/2022  11:18:00       89.779       -4.239      -13.339       47.567       43.414       26.706     2262.617     1884.775      713.184        0.656        0.243       89.879       15.525        0.030      332.641        1.436      876.135
01/10/2022  11:19:00       94.651       -9.265       -3.211       76.504       48.754       37.355     5852.870     2376.951     1395.431        0.934        0.481       95.104       42.523        0.200      332.723        1.571      876.115
01/10/2022  11:20:00      131.726       36.951      -19.251       48.763       45.906       29.875     2377.813     2107.360      892.502        1.223        0.269      136.811       21.697        0.025      332.567        1.314      876.089
01/10/2022  11:21:00       62.228       -4.292      -16.362       71.933       61.587       39.814     5174.304     3793.008     1585.166        0.735        0.528       62.376       26.303        0.178      332.797        1.694      876.055
01/10/2022  11:22:00       33.327      -57.991      -16.996       73.956       71.119       45.951     5469.492     5057.940     2111.457        0.870        0.632       66.885       39.571        0.350      333.103        2.200      876.031
01/10/2022  11:23:00      104.771     -119.818      -43.205       64.430       57.937       35.098     4151.211     3356.712     1231.861        1.797        0.437      159.164       31.918        0.040      332.682        1.504      876.006
01/10/2022  11:24:00       72.150      -34.472      -30.691       70.310       66.093       40.786     4943.437     4368.286     1663.510        0.915        0.549       79.963       23.701        0.088      332.975        1.989      876.000
01/10/2022  11:25:00       67.094      -68.545      -36.448       45.659       64.225       34.534     2084.714     4124.852     1192.627        0.896        0.370       95.917       18.371        0.037      333.066        2.139      876.010
01/10/2022  11:26:00      120.181       33.352      -31.228       83.544       65.540       30.872     6979.610     4295.443      953.050        1.438        0.611      124.723       34.549        0.077      332.888        1.844      876.072
01/10/2022  11:27:00      169.194      -25.124      -15.727       66.820       59.596       46.722     4464.941     3551.689     2182.974        1.985        0.510      171.049       29.649        0.030      332.699        1.530      876.040
01/10/2022  11:28:00      113.438       24.660      -16.977       53.359       63.698       39.943     2847.182     4057.419     1595.475        1.113        0.425      116.087       31.903        0.076      332.683        1.505      876.003
01/10/2022  11:29:00      151.216      -27.134      -22.555       52.750       56.301       42.958     2782.556     3169.769     1845.398        1.595        0.390      153.631       35.253        0.053      332.826        1.741      875.960
01/10/2022  11:30:00      108.013      -70.911      -10.027       67.572       77.445       47.767     4565.912     5997.653     2281.686        1.482        0.642      129.210       37.856        0.086      332.998        2.025      875.914
01/10/2022  11:31:00      128.648       -4.077      -25.233       69.121       78.263       36.302     4777.680     6125.133     1317.844        1.471        0.611      128.712       16.227        0.016      332.889        1.845      875.886
01/10/2022  11:32:00       78.828      -54.865      -36.214       77.700       73.839       40.926     6037.262     5452.257     1674.908        1.185        0.658       96.042       39.002        0.165      332.840        1.764      875.864
01/10/2022  11:33:00       87.085      -30.607      -14.841       61.594       52.052       39.896     3793.796     2709.404     1591.710        0.842        0.405       92.307       32.096        0.121      332.960        1.964      875.845
01/10/2022  11:34:00       64.130       25.332      -10.535       49.513       39.880       35.028     2451.512     1590.386     1226.934        0.507        0.263       68.952       31.771        0.212      332.837        1.761      875.820
01/10/2022  11:35:00       23.192       -6.819        1.678       45.655       78.754       48.663     2084.349     6202.224     2368.058        0.562        0.533       24.174       31.685        1.718      333.036        2.090      875.775
01/10/2022  11:36:00       60.030      -38.459      -32.525       58.602       67.196       36.008     3434.224     4515.268     1296.596        0.769        0.462       71.293       28.548        0.160      333.130        2.244      875.741
01/10/2022  11:37:00      114.546        1.799      -25.379       82.753       54.037       34.252     6848.067     2919.995     1173.219        1.235        0.547      114.560       36.972        0.104      333.126        2.237      875.726
01/10/2022  11:38:00       67.539       38.223      -11.873       48.953       55.330       27.253     2396.419     3061.409      742.714        0.618        0.310       77.604       25.552        0.108      333.268        2.472      875.721
01/10/2022  11:39:00       29.612       21.053       -5.007       27.358       41.250       22.894      748.458     1701.552      524.150        0.216        0.149       36.333        7.569        0.043      333.594        3.012      875.702
01/10/2022  11:40:00       72.481       40.985       -2.619       53.952       43.607       36.019     2910.850     1901.590     1297.344        0.652        0.305       83.266       23.232        0.078      333.275        2.484      875.685
01/10/2022  11:41:00      118.574        4.389      -31.667       57.897       65.045       30.326     3352.070     4230.847      919.674        1.179        0.425      118.655       17.818        0.023      333.140        2.261      875.666
01/10/2022  11:42:00      130.239        2.541      -29.060       41.355       36.896       29.661     1710.226     1361.323      879.789        1.088        0.198      130.264        7.706        0.003      332.779        1.664      875.642
01/10/2022  11:43:00      124.893       16.034      -28.899       47.913       27.508       25.803     2295.658      756.699      665.811        1.020        0.186      125.918       18.764        0.022      332.839        1.762      875.611
01/10/2022  11:44:00      102.446       28.827      -21.707       36.953       31.095       26.401     1365.559      966.894      697.028        0.741        0.151      106.425       10.298        0.009      332.945        1.937      875.590
01/10/2022  11:45:00      115.259       57.670      -26.874       33.041       21.941       15.982     1091.715      481.401      255.426        0.958        0.091      128.881       11.847        0.008      332.811        1.716      875.564
01/10/2022  11:46:00       94.099       48.849      -26.318       30.890       19.329       15.571      954.198      373.603      242.451        0.675        0.079      106.023       13.067        0.015      332.833        1.754      875.540
01/10/2022  11:47:00       62.054       60.658      -22.797       43.016       34.065       24.610     1850.398     1160.404      605.648        0.583        0.181       86.777       14.006        0.026      333.034        2.086      875.520
01/10/2022  11:48:00       66.949       51.594      -13.649       42.515       21.702       16.855     1807.551      470.964      284.078        0.495        0.128       84.523       14.986        0.031      333.085        2.170      875.503
01/10/2022  11:49:00      -26.939       28.910       11.362       15.826       17.151       16.724      250.454      294.159      279.708        0.126        0.041       39.515        7.738        0.038      333.328        2.572      875.500
01/10/2022  11:50:00      -14.317       51.176      -18.478       25.063       22.542       15.389      628.161      508.162      236.835        0.227        0.069       53.141       14.252        0.072      333.014        2.053      875.492
01/10/2022  11:51:00       14.918       -3.318      -23.554       19.264       39.832       21.644      371.113     1586.558      468.461        0.161        0.121       15.283        8.176        0.286      333.404        2.696      875.492
01/10/2022  11:52:00       -0.128      -33.005      -28.065       20.232       31.910       19.007      409.330     1018.235      361.256        0.183        0.089       33.005        7.898        0.057      333.300        2.526      875.474
01/10/2022  11:53:00       -6.187       17.187       -7.265       24.515       30.497       18.657      600.994      930.042      348.102        0.113        0.094       18.266       11.883        0.423      333.654        3.112      875.459
01/10/2022  11:54:00      -32.109       27.889       -8.495       28.744       20.945       17.969      826.199      438.678      322.893        0.173        0.079       42.530        7.942        0.035      333.576        2.983      875.453
01/10/2022  11:55:00        5.847       43.544       -4.436       23.415       33.809       20.882      548.242     1143.043      436.041        0.204        0.106       43.935        7.736        0.031      333.777        3.315      875.438
01/10/2022  11:56:00       39.647       52.008       -4.827       26.994       21.837       21.454      728.661      476.875      460.286        0.298        0.083       65.397       18.311        0.078      333.632        3.074      875.427
01/10/2022  11:57:00       -0.225       41.476        0.288       35.441       33.487       20.051     1256.062     1121.362      402.030        0.225        0.139       41.477       16.260        0.154      333.530        2.907      875.423
01/10/2022  11:58:00      -10.171       76.446      -13.654       23.955       25.406       19.800      573.830      645.473      392.021        0.387        0.081       77.120       12.902        0.028      333.366        2.635      875.415
01/10/2022  11:59:00       -7.615       31.386      -27.209       28.774       32.297       17.130      827.928     1043.065      293.421        0.197        0.108       32.297        9.307        0.083      333.338        2.589      875.404
01/10/2022  12:00:00       10.473       53.445      -11.391       22.243       31.968       22.793      494.761     1021.980      519.529        0.257        0.102       54.461       15.560        0.082      333.421        2.726      875.386
01/10/2022  12:01:00       -8.013       51.046       -9.247       17.334       40.077       26.036      300.483     1606.128      677.870        0.267        0.129       51.671       23.592        0.208      333.596        3.017      875.344
01/10/2022  12:02:00      -12.399       74.103      -12.917       33.392       29.303       26.101     1115.003      858.678      681.248        0.423        0.133       75.133       19.046        0.064      333.546        2.933      875.302
01/10/2022  12:03:00      -24.122       55.479       -9.796       17.985       20.085       18.782      323.458      403.405      352.774        0.242        0.054       60.496        9.454        0.024      333.681        3.156      875.264
01/10/2022  12:04:00       11.557       13.899       -2.548       20.929       21.731       17.075      438.026      472.229      291.549        0.077        0.060       18.076       11.099        0.377      334.082        3.821      875.238
01/10/2022  12:05:00       24.048       30.633       -3.921       21.063       23.666       16.561      443.653      560.087      274.271        0.140        0.064       38.944        9.009        0.054      333.960        3.617      875.217
01/10/2022  12:06:00       18.865       55.487       -2.795       25.821       24.508       18.570      666.722      600.640      344.853        0.253        0.081       58.606       10.108        0.030      333.977        3.646      875.221
01/10/2022  12:07:00        2.284       61.302       -3.004       23.945       33.329       24.803      573.343     1110.843      615.207        0.304        0.115       61.345       21.706        0.125      333.991        3.670      875.219
01/10/2022  12:08:00        7.238        4.238      -14.864       16.274       24.473       17.512      264.850      598.932      306.680        0.073        0.059        8.388        8.577        1.046      334.163        3.955      875.230
01/10/2022  12:09:00        8.069       39.609      -11.018       21.026       25.361       16.289      442.089      643.190      265.339        0.155        0.068       40.422       11.680        0.083      334.153        3.937      875.230
01/10/2022  12:10:00      -48.814       -2.819      -18.352       30.762       34.275       13.924      946.328     1174.806      193.882        0.252        0.116       48.896       10.481        0.046      334.372        4.300      875.220
01/10/2022  12:11:00       55.996     -106.689      -34.060       48.495       48.996       35.865     2351.738     2400.585     1286.282        1.086        0.302      120.491       27.689        0.053      334.009        3.699      875.203
01/10/2022  12:12:00       61.200      -72.270      -38.720       40.915       53.741       35.307     1674.078     2888.053     1246.554        0.814        0.290       94.702       25.618        0.073      334.071        3.801      875.182
01/10/2022  12:13:00       74.126      -88.603      -33.023       47.011       55.110       32.091     2210.010     3037.148     1029.853        1.036        0.314      115.521       23.143        0.040      334.177        3.978      875.163
01/10/2022  12:14:00       69.812      -67.744      -15.458       54.576       81.823       45.047     2978.579     6694.968     2029.192        1.070        0.585       97.278       37.082        0.145      333.922        3.556      875.121
01/10/2022  12:15:00       77.204      -28.131      -46.643       53.504       70.287       34.352     2862.708     4940.263     1180.033        0.895        0.449       82.170       21.470        0.068      334.248        4.094      875.103
01/10/2022  12:16:00       40.971      -65.319      -12.339       50.027       55.595       35.190     2502.678     3090.786     1238.329        0.646        0.342       77.105       26.101        0.115      334.306        4.191      875.098
01/10/2022  12:17:00       34.024       -7.975      -12.813       39.261       36.031       30.111     1541.452     1298.240      906.647        0.257        0.187       34.946       25.516        0.533      334.311        4.201      875.095
01/10/2022  12:18:00       29.103       44.999        6.992       24.781       33.713       24.141      614.098     1136.565      582.799        0.263        0.117       53.590        7.261        0.018      334.397        4.342      875.085
01/10/2022  12:19:00       22.180       65.577       -6.088       42.316       37.044       31.288     1790.610     1372.262      978.938        0.448        0.207       69.227       25.515        0.136      334.249        4.097      875.080
01/10/2022  12:20:00      -14.660       65.406        0.204       33.292       32.438       29.295     1108.390     1052.207      858.197        0.376        0.151       67.029       18.421        0.076      334.073        3.806      875.074
01/10/2022  12:21:00        6.066       26.953       11.050       51.477       25.239       27.692     2649.900      637.031      766.827        0.247        0.203       27.627       26.305        0.907      334.121        3.884      875.081
01/10/2022  12:22:00       57.088       53.708      -20.809       34.275       31.556       23.694     1174.767      995.764      561.388        0.465        0.137       78.381       21.381        0.074      334.031        3.736      875.075
01/10/2022  12:23:00      141.017       65.147      -18.637       66.731       56.413       36.724     4453.053     3182.448     1348.651        1.673        0.449      155.338       39.019        0.063      333.871        3.471      875.075
01/10/2022  12:24:00      113.161        5.122      -23.397       55.945       56.235       26.456     3129.891     3162.373      699.928        1.018        0.350      113.277       21.158        0.035      333.874        3.475      875.068
01/10/2022  12:25:00      120.991       24.890      -20.827       38.933       43.997       23.420     1515.758     1935.734      548.487        0.985        0.200      123.524       17.358        0.020      333.833        3.407      875.052
01/10/2022  12:26:00      139.338       59.399      -24.500       44.490       44.273       24.088     1979.322     1960.105      580.254        1.403        0.226      151.471       10.193        0.005      333.937        3.578      875.028
01/10/2022  12:27:00       77.767       16.861       -8.997       51.944       42.095       22.124     2698.192     1772.031      489.463        0.569        0.248       79.574       12.386        0.024      334.061        3.786      874.999
01/10/2022  12:28:00       73.545       41.107      -22.289       41.181       46.650       24.970     1695.915     2176.266      623.503        0.604        0.225       84.254       18.720        0.049      334.024        3.724      874.959
01/10/2022  12:29:00       34.720       -7.162      -11.675       42.461       37.156       26.145     1802.977     1380.538      683.587        0.263        0.193       35.451       14.442        0.166      334.315        4.207      874.918
01/10/2022  12:30:00       50.601       24.654      -20.318       35.495       36.244       24.678     1259.861     1313.663      609.023        0.338        0.159       56.287       22.598        0.161      334.021        3.719      874.896
01/10/2022  12:31:00        6.403        6.459        9.665       23.379       40.903       19.702      546.579     1673.085      388.185        0.139        0.130        9.095       13.324        2.146      334.345        4.255      874.870
01/10/2022  12:32:00      -39.019       44.983      -11.115       28.894       40.608       19.662      834.890     1648.971      386.603        0.327        0.144       59.548       11.199        0.035      334.274        4.138      874.850
01/10/2022  12:33:00        0.673      -19.354      -10.718       20.766       21.336       17.308      431.223      455.208      299.551        0.084        0.059       19.366       12.377        0.408      334.708        4.858      874.851
01/10/2022  12:34:00       41.878       16.506      -14.625       46.328       33.019       18.957     2146.284     1090.239      359.372        0.292        0.180       45.013       15.435        0.118      334.584        4.654      874.856
01/10/2022  12:35:00       30.131        0.964      -10.346       34.303       52.089       23.632     1176.666     2713.272      558.453        0.273        0.222       30.147       18.159        0.363      334.316        4.207      874.857
01/10/2022  12:36:00      125.123       68.684      -21.856       43.881       32.777       27.063     1925.566     1074.328      732.407        1.229        0.187      142.735       22.386        0.025      334.127        3.893      874.849
01/10/2022  12:37:00      100.880       66.577      -24.286       43.628       35.230       24.018     1903.418     1241.145      576.870        0.946        0.186      120.868       19.491        0.026      334.155        3.941      874.829
01/10/2022  12:38:00       61.088       42.898      -21.176       33.722       29.944       22.849     1137.155      896.657      522.084        0.429        0.128       74.646       18.591        0.062      334.227        4.060      874.813
01/10/2022  12:39:00        0.351      -36.673      -12.099       22.241       34.165       24.835      494.645     1167.280      616.790        0.188        0.114       36.674       10.512        0.082      334.582        4.649      874.797
01/10/2022  12:40:00        0.324      -30.523      -19.815       24.730       35.469       18.059      611.560     1258.063      326.120        0.176        0.110       30.524       15.394        0.254      334.860        5.112      874.781
01/10/2022  12:41:00       17.458       17.787       -4.948       26.451       28.978       26.702      699.649      839.707      712.975        0.145        0.113       24.923       11.422        0.210      334.789        4.991      874.769
01/10/2022  12:42:00        6.485       22.998      -13.759       63.208       46.274       30.310     3995.238     2141.314      918.691        0.391        0.353       23.895       19.348        0.656      334.807        5.023      874.741
01/10/2022  12:43:00      155.762       74.404      -19.134       51.307       54.936       27.407     2632.409     3017.930      751.132        1.828        0.320      172.620        5.081        0.001      334.173        3.968      874.715
01/10/2022  12:44:00      162.466       75.500      -25.187       36.763       33.374       29.924     1351.529     1113.822      895.474        1.804        0.168      179.152       22.194        0.015      334.049        3.764      874.679
01/10/2022  12:45:00      110.390       83.246      -23.090       42.087       23.639       22.491     1771.318      558.807      505.864        1.124        0.142      138.260       15.185        0.012      334.006        3.695      874.626
01/10/2022  12:46:00       87.362       66.126      -21.513       33.000       26.801       24.873     1089.026      718.271      618.673        0.745        0.121      109.566       13.318        0.015      334.076        3.811      874.555
01/10/2022  12:47:00       68.746       79.660      -27.192       58.224       56.787       32.129     3390.069     3224.762     1032.241        0.973        0.382      105.222       17.740        0.028      334.311        4.199      874.508
01/10/2022  12:48:00       18.139      -79.319      -21.738       88.907       98.007       41.112     7904.386     9605.467     1690.205        1.314        0.960       81.367       34.407        0.179      334.490        4.497      874.480
01/10/2022  12:49:00       50.559      -64.225      -27.303       64.504       70.008       38.322     4160.801     4901.060     1468.578        0.898        0.527       81.738       39.416        0.233      334.432        4.400      874.480
01/10/2022  12:50:00       53.532      -42.484      -14.184       60.057       62.807       30.700     3606.865     3944.700      942.491        0.668        0.425       68.342       31.157        0.208      334.519        4.546      874.496
01/10/2022  12:51:00      154.286       -7.277      -18.967       69.176       50.777       28.238     4785.339     2578.262      797.389        1.619        0.408      154.458       19.269        0.016      334.228        4.060      874.510
01/10/2022  12:52:00      146.960       27.312      -30.591       38.037       41.660       34.897     1446.779     1735.569     1217.791        1.384        0.220      149.476       16.989        0.013      334.196        4.007      874.521
01/10/2022  12:53:00      174.825        5.308      -20.603       45.037       43.658       27.041     2028.297     1906.057      731.205        1.784        0.233      174.906       15.264        0.008      334.243        4.086      874.513
01/10/2022  12:54:00       84.560      -19.791      -21.325       65.630       37.587       25.594     4307.361     1412.784      655.070        0.718        0.319       86.845       18.866        0.047      334.448        4.427      874.494
01/10/2022  12:55:00      114.032      -12.135      -21.623       35.563       29.289       24.033     1264.714      857.825      577.565        0.816        0.135      114.676       17.140        0.022      334.209        4.030      874.468
01/10/2022  12:56:00       92.317       29.959      -26.779       54.931       66.040       28.608     3017.440     4361.296      818.405        0.917        0.410       97.057       25.843        0.071      334.510        4.530      874.435
01/10/2022  12:57:00       97.892       -2.794      -30.928       27.155       57.241       24.838      737.403     3276.541      616.903        0.759        0.232       97.932       24.845        0.064      334.346        4.257      874.402
01/10/2022  12:58:00       58.831       38.378      -20.534       55.455       52.606       34.963     3075.302     2767.443     1222.409        0.621        0.353       70.243       25.167        0.128      334.653        4.766      874.374
01/10/2022  12:59:00       59.662      -48.224      -25.969       63.196       72.410       38.371     3993.747     5243.175     1472.322        0.863        0.535       76.714       32.320        0.177      334.735        4.903      874.342
01/10/2022  13:00:00       52.940      -69.993      -36.674       29.830       50.067       21.075      889.816     2506.738      444.159        0.644        0.192       87.759       10.919        0.015      334.482        4.484      874.312
01/10/2022  13:01:00       -6.764      -53.389      -17.957       27.903       20.210       22.344      778.567      408.435      499.272        0.245        0.084       53.816       13.250        0.061      334.310        4.196      874.279
01/10/2022  13:02:00       52.126       23.123      -20.796       39.898       58.967       35.500     1591.878     3477.113     1260.216        0.501        0.316       57.025       21.450        0.141      334.818        5.042      874.248
01/10/2022  13:03:00       88.137       33.929      -11.042       38.550       33.547       17.897     1486.130     1125.390      320.319        0.599        0.147       94.442       10.817        0.013      334.647        4.756      874.229
01/10/2022  13:04:00       61.824       55.020      -10.553       24.686       47.853       20.927      609.395     2289.947      437.939        0.515        0.167       82.761       11.918        0.021      334.790        4.995      874.203
01/10/2022  13:05:00       40.474        6.886      -20.694       36.125       74.630       24.923     1305.009     5569.686      621.162        0.480        0.375       41.056       24.390        0.353      335.116        5.537      874.164
01/10/2022  13:06:00       43.633       11.001      -19.504       38.719       27.206       27.138     1499.147      740.154      736.450        0.269        0.149       44.998       10.695        0.056      335.037        5.405      874.138
01/10/2022  13:07:00       12.308       16.958        0.101       39.053       46.837       23.613     1525.159     2193.747      557.597        0.236        0.214       20.954       17.048        0.662      334.894        5.167      874.101
01/10/2022  13:08:00       55.747       -6.098      -11.437       65.244       30.211       20.548     4256.788      912.682      422.234        0.443        0.280       56.079       17.223        0.094      334.834        5.068      874.071
01/10/2022  13:09:00       83.519      -21.325      -17.171       56.933       80.719       40.797     3241.345     6515.633     1664.361        0.957        0.571       86.198       21.455        0.062      334.984        5.317      874.045
01/10/2022  13:10:00       85.977      -42.463      -20.397       57.552       68.880       29.352     3312.259     4744.391      861.520        0.926        0.446       95.891       22.704        0.056      334.865        5.119      874.029
01/10/2022  13:11:00      108.279        8.846      -29.443       66.169       63.898       30.107     4378.311     4082.926      906.425        1.102        0.468      108.640       16.567        0.023      334.857        5.106      874.034
01/10/2022  13:12:00       41.360      -66.490      -34.106       41.517       56.219       30.434     1723.631     3160.527      926.234        0.655        0.291       78.305       19.511        0.062      335.301        5.843      874.036
01/10/2022  13:13:00       39.199     -149.097      -32.959       39.051       60.888       29.068     1524.984     3707.356      844.926        1.546        0.304      154.163       19.917        0.017      334.919        5.210      874.024
01/10/2022  13:14:00       20.952     -158.523      -26.395       39.848       35.994       26.565     1587.901     1295.562      705.708        1.493        0.179      159.902       21.046        0.017      334.534        4.570      874.006
01/10/2022  13:15:00       45.530      -34.816      -24.609       45.611       96.563       40.894     2080.386     9324.405     1672.334        0.848        0.654       57.316       35.889        0.392      335.031        5.395      873.984
01/10/2022  13:16:00       69.968       -4.017      -18.745       57.569       64.607       43.065     3314.161     4174.089     1854.565        0.730        0.467       70.083       26.691        0.145      335.073        5.465      873.962
01/10/2022  13:17:00       89.652       11.621      -20.735       64.511       62.724       47.466     4161.689     3934.251     2252.995        0.947        0.517       90.402       35.090        0.151      335.082        5.480      873.953
01/10/2022  13:18:00       70.902       28.618      -21.112       52.023       62.298       31.271     2706.415     3880.993      977.890        0.693        0.378       76.459       21.035        0.076      335.159        5.608      873.941
01/10/2022  13:19:00      152.042       14.090      -20.462       61.762       44.429       34.091     3814.598     1973.975     1162.204        1.534        0.348      152.693       13.059        0.007      334.938        5.240      873.940
01/10/2022  13:20:00      161.302       95.922      -28.698       35.697       36.380       24.771     1274.281     1323.538      613.614        1.963        0.161      187.669       13.445        0.005      334.622        4.715      873.968
01/10/2022  13:21:00      118.301       51.383      -18.269       52.030       29.964       20.130     2707.162      897.851      405.219        1.049        0.201      128.978       21.203        0.027      334.670        4.794      873.967
01/10/2022  13:22:00       85.021       -3.017      -17.191       72.711       38.198       35.012     5286.895     1459.097     1225.828        0.775        0.399       85.074       39.470        0.215      334.904        5.184      873.958
01/10/2022  13:23:00       -2.184       65.984       -2.086       32.435       36.632       24.073     1052.035     1341.896      579.491        0.367        0.149       66.020       14.992        0.052      335.183        5.647      873.943
01/10/2022  13:24:00       18.368       38.211      -11.622       18.450       21.269       21.851      340.399      452.376      477.481        0.160        0.064       42.396        9.282        0.048      335.107        5.521      873.908
01/10/2022  13:25:00       57.966      -64.128      -40.343       58.502       71.330       47.158     3422.500     5088.008     2223.838        0.992        0.537       86.444       33.971        0.154      335.214        5.700      873.864
01/10/2022  13:26:00       75.116     -143.623      -36.511       38.904       46.729       38.699     1513.512     2183.615     1497.597        1.640        0.260      162.080       28.332        0.031      334.947        5.256      873.836
01/10/2022  13:27:00       32.300      -19.914       -2.782       58.443       51.012       36.396     3415.618     2602.179     1324.664        0.439        0.367       37.945       17.673        0.217      335.257        5.770      873.791
01/10/2022  13:28:00      121.995       73.375      -19.932       42.946       47.740       31.327     1844.336     2279.119      981.412        1.288        0.255      142.361       21.139        0.022      334.771        4.963      873.754
01/10/2022  13:29:00       39.140       47.113       -5.886       28.147       24.676       26.236      792.229      608.916      688.316        0.294        0.104       61.250       13.602        0.049      334.876        5.138      873.715
01/10/2022  13:30:00       69.247        5.074      -20.173       62.817       95.703       43.590     3945.991     9159.034     1900.119        1.011        0.750       69.433       53.820        0.601      335.102        5.513      873.674
01/10/2022  13:31:00      131.155      -86.041      -46.195       78.463       78.188       50.412     6156.444     6113.440     2541.411        2.077        0.741      156.858       22.103        0.020      335.111        5.526      873.640
01/10/2022  13:32:00       77.346       16.738      -29.791       67.137       57.788       33.659     4507.362     3339.469     1132.924        0.806        0.449       79.136       28.680        0.131      335.045        5.419      873.653
01/10/2022  13:33:00       79.671       58.455       -9.095       48.350       47.259       33.720     2337.681     2233.385     1137.038        0.778        0.285       98.815       23.855        0.058      335.092        5.497      873.666
01/10/2022  13:34:00       34.887       -6.143      -22.190       50.089       64.889       30.998     2508.873     4210.580      960.906        0.471        0.384       35.423       21.685        0.375      335.184        5.650      873.687
01/10/2022  13:35:00      156.604       35.146      -17.102       60.030       49.295       28.777     3603.609     2429.979      828.110        1.646        0.343      160.499        8.621        0.003      334.898        5.173      873.712
01/10/2022  13:36:00       95.494       39.016      -17.407       38.497       14.146       12.164     1482.057      200.116      147.969        0.639        0.092      103.157        5.649        0.003      334.655        4.770      873.739
01/10/2022  13:37:00       50.904       32.454      -10.619       30.208       15.864       13.460      912.540      251.675      181.163        0.255        0.067       60.370       12.204        0.041      334.796        5.004      873.759
01/10/2022  13:38:00       25.117      -61.830      -14.067       43.703       48.498       23.837     1909.949     2352.077      568.203        0.474        0.242       66.737       25.479        0.146      335.007        5.356      873.780
01/10/2022  13:39:00       21.750       48.179       -8.193       29.333       47.725       23.592      860.417     2277.646      556.598        0.328        0.185       52.861       11.610        0.048      335.164        5.618      873.811
01/10/2022  13:40:00       25.117       48.865        5.701       33.654       26.676       16.669     1132.601      711.620      277.841        0.259        0.106       54.942       13.842        0.063      335.039        5.408      873.867
01/10/2022  13:41:00      -28.500       86.238      -11.883       40.121       29.258       23.473     1609.722      856.027      550.993        0.570        0.151       90.825        8.127        0.008      335.409        6.024      873.912
01/10/2022  13:42:00       27.678       52.729      -18.668       27.011       29.013       16.142      729.584      841.780      260.565        0.286        0.092       59.552        8.589        0.021      335.193        5.664      873.953
01/10/2022  13:43:00       54.895       95.765      -15.757       46.703       45.059       29.843     2181.207     2030.343      890.632        0.877        0.255      110.383       28.139        0.065      335.173        5.631      873.984
01/10/2022  13:44:00       51.835       99.198      -27.968       35.680       42.987       24.158     1273.095     1847.874      583.633        0.851        0.185      111.925       20.977        0.035      335.117        5.538      873.993
01/10/2022  13:45:00       41.164       66.198       -9.524       28.441       30.680       21.689      808.877      941.287      470.415        0.419        0.111       77.953        9.198        0.014      335.125        5.551      873.984
01/10/2022  13:46:00      -18.160      104.443       -9.031       41.015       42.224       21.246     1682.262     1782.845      451.380        0.762        0.196      106.010        7.855        0.005      335.342        5.912      873.972
01/10/2022  13:47:00       28.745       84.561      -12.304       30.860       51.427       24.077      952.318     2644.751      579.699        0.615        0.209       89.313       28.548        0.102      335.334        5.899      873.954
01/10/2022  13:48:00       48.156       63.164      -21.677       37.076       40.953       22.215     1374.595     1677.112      493.528        0.516        0.177       79.428       10.229        0.017      335.354        5.931      873.955
01/10/2022  13:49:00       70.270       50.823      -24.229       49.355       39.031       23.005     2435.925     1523.458      529.215        0.630        0.224       86.723       13.821        0.025      335.240        5.743      873.961
01/10/2022  13:50:00       23.906       72.213       -6.410       38.976       42.238       25.426     1519.103     1784.036      646.461        0.489        0.197       76.067       13.394        0.031      335.256        5.768      873.962
01/10/2022  13:51:00       67.497       33.055      -21.350       23.383       39.625       25.228      546.758     1570.131      636.472        0.443        0.138       75.157       21.672        0.083      335.075        5.469      873.970
01/10/2022  13:52:00        4.600      144.190      -17.157       27.613       53.705       24.677      762.461     2884.182      608.970        1.268        0.213      144.264       27.938        0.038      335.180        5.643      873.973
01/10/2022  13:53:00      -42.185       86.446       -6.153       36.100       45.873       30.405     1303.212     2104.365      924.472        0.681        0.217       96.190       17.462        0.033      335.580        6.308      873.986
01/10/2022  13:54:00      -10.397      104.829      -12.017       32.323       31.942       28.600     1044.756     1020.268      817.956        0.706        0.144      105.343       20.282        0.037      335.587        6.320      873.977
01/10/2022  13:55:00      -32.344       48.747        4.771       54.922       61.721       44.884     3016.433     3809.435     2014.561        0.614        0.442       58.501       29.915        0.261      335.753        6.596      873.987
01/10/2022  13:56:00        4.360       11.500       16.874       30.364       44.912       32.100      921.967     2017.101     1030.434        0.220        0.198       12.299       16.131        1.720      335.986        6.986      873.996
01/10/2022  13:57:00       -5.084       50.413       -3.043       37.671       61.439       28.474     1419.105     3774.691      810.777        0.429        0.300       50.669       13.547        0.071      335.707        6.521      874.017
01/10/2022  13:58:00       27.098       17.112        2.417       35.853       39.734       33.492     1285.457     1578.770     1121.696        0.251        0.199       32.049       25.823        0.649      335.772        6.627      874.025
01/10/2022  13:59:00      -40.568      -28.971      -30.246       36.108       27.432       22.029     1303.796      752.510      485.271        0.297        0.127       49.851       15.205        0.093      335.508        6.188      874.019
01/10/2022  14:00:00      -59.388      -16.730      -13.617       40.870       46.190       26.438     1670.342     2133.502      698.943        0.425        0.225       61.700       10.057        0.027      335.530        6.225      874.019
01/10/2022  14:01:00      -58.074      -26.150      -33.844       40.415       29.415       14.028     1633.381      865.253      196.785        0.395        0.135       63.690       13.408        0.044      335.233        5.729      874.026
01/10/2022  14:02:00       19.189        4.904       -7.460       16.732       13.630       20.666      279.970      185.779      427.082        0.067        0.045       19.806       13.482        0.463      335.441        6.077      874.027
01/10/2022  14:03:00      -13.465       -1.123      -15.366       22.742       32.048       14.199      517.213     1027.098      201.625        0.108        0.087       13.512        7.415        0.301      335.594        6.332      874.022
01/10/2022  14:04:00        8.039      -16.843       -4.438       17.138       27.836       20.650      293.710      774.817      426.436        0.093        0.075       18.663       11.124        0.355      335.880        6.808      874.020
01/10/2022  14:05:00       12.107       66.087      -11.093       29.213       17.519       19.550      853.372      306.927      382.205        0.309        0.077       67.187        9.060        0.018      335.666        6.452      874.015
01/10/2022  14:06:00      -21.819       72.271      -11.812       36.414       25.368       14.926     1326.008      643.527      222.794        0.402        0.110       75.493        6.685        0.008      335.712        6.527      873.988
01/10/2022  14:07:00       19.748       46.143       -7.964       27.056       26.334       17.452      732.050      693.491      304.579        0.216        0.087       50.191        9.727        0.038      335.794        6.664      873.952
01/10/2022  14:08:00       -2.873       89.321      -12.275       35.503       46.632       24.261     1260.451     2174.590      588.593        0.608        0.201       89.367        8.423        0.009      335.828        6.722      873.923
01/10/2022  14:09:00       -8.688       50.840        4.262       24.895       37.251       24.177      619.755     1387.639      584.538        0.263        0.130       51.577        3.669        0.005      336.050        7.092      873.894
01/10/2022  14:10:00       29.762       51.073       -7.690       31.456       41.206       16.813      989.496     1697.945      282.668        0.326        0.149       59.112       16.224        0.075      335.639        6.407      873.883
01/10/2022  14:11:00       30.885       31.512      -10.198       39.161       37.311       14.119     1533.586     1392.136      199.353        0.259        0.156       44.123       10.791        0.060      335.783        6.648      873.890
01/10/2022  14:12:00       31.224       48.889       -0.871       61.820       30.733       26.359     3821.671      944.542      694.823        0.441        0.273       58.009       22.410        0.149      335.749        6.591      873.906
01/10/2022  14:13:00       73.905       31.706      -14.201       79.170       60.279       35.457     6267.842     3633.521     1257.227        0.891        0.558       80.419       13.139        0.027      335.744        6.581      873.932
01/10/2022  14:14:00       92.304      -14.339      -22.947       61.509       54.004       41.412     3783.389     2916.473     1714.980        0.883        0.421       93.411       28.575        0.094      335.786        6.653      873.951
01/10/2022  14:15:00      135.683       19.537      -22.577       52.702       58.778       31.566     2777.534     3454.872      996.392        1.326        0.361      137.082       20.398        0.022      335.575        6.301      873.962
01/10/2022  14:16:00      152.656        9.839      -25.119       91.401       59.566       36.350     8354.207     3548.155     1321.336        1.863        0.661      152.973       32.385        0.045      335.650        6.423      873.955
01/10/2022  14:17:00       58.288       30.526      -39.266       63.198       67.925       33.301     3994.012     4613.861     1108.950        0.779        0.486       65.797       35.418        0.290      335.746        6.583      873.952
01/10/2022  14:18:00       59.176      -40.826      -24.737       55.543       70.579       54.227     3085.043     4981.403     2940.599        0.839        0.550       71.893       34.656        0.232      335.791        6.659      873.924
01/10/2022  14:19:00       86.819      -16.386      -28.900       55.119       74.888       40.429     3038.056     5608.247     1634.518        0.946        0.514       88.352       20.490        0.054      335.751        6.592      873.892
01/10/2022  14:20:00       65.928       13.442      -18.261       46.919       60.613       38.753     2201.364     3673.926     1501.818        0.612        0.369       67.284       26.459        0.155      335.708        6.522      873.873
01/10/2022  14:21:00      100.568      -17.457      -17.749       69.406       58.750       39.637     4817.222     3451.535     1571.067        1.028        0.492      102.071       31.799        0.097      335.656        6.434      873.859
01/10/2022  14:22:00       78.839      -95.379      -40.256       63.831       76.651       38.846     4074.433     5875.304     1509.025        1.419        0.573      123.745       26.046        0.044      335.654        6.431      873.841
01/10/2022  14:23:00       93.033      -20.915      -37.116       71.618       74.611       43.380     5129.156     5566.865     1881.813        1.152        0.629       95.355       27.297        0.082      335.698        6.504      873.833
01/10/2022  14:24:00      111.348        4.000      -21.775       67.506       65.258       43.973     4557.077     4258.584     1933.664        1.182        0.537      111.420       25.543        0.053      335.636        6.400      873.831
01/10/2022  14:25:00       73.093       -5.223       -4.383       67.526       52.446       40.277     4559.724     2750.569     1622.264        0.716        0.447       73.280       31.835        0.189      335.676        6.467      873.833
01/10/2022  14:26:00       88.743      -24.337      -48.338       45.384       67.360       39.254     2059.705     4537.353     1540.863        0.947        0.407       92.020       24.276        0.070      335.609        6.356      873.862
01/10/2022  14:27:00       35.794      -74.578      -24.098       37.712       70.118       27.397     1422.227     4916.576      750.590        0.726        0.354       82.723       18.949        0.052      335.684        6.481      873.904
01/10/2022  14:28:00       25.652       48.891       -9.675       46.658       47.809       30.776     2176.970     2285.725      947.181        0.427        0.270       55.212       19.971        0.131      335.609        6.355      873.949
01/10/2022  14:29:00       98.890       61.077      -14.156       42.703       32.917       23.154     1823.568     1083.541      536.128        0.858        0.172      116.231        6.192        0.003      335.558        6.273      874.001
01/10/2022  14:30:00       95.466       42.021      -14.643       48.414       32.149       25.537     2343.940     1033.554      652.163        0.756        0.201      104.305       26.057        0.062      335.554        6.265      874.034
01/10/2022  14:31:00       89.292       44.372      -12.522       31.848       31.290       26.492     1014.271      979.064      701.800        0.640        0.135       99.709       21.202        0.045      335.537        6.239      874.056
01/10/2022  14:32:00       45.101       36.272      -19.152       40.583       36.534       19.141     1646.945     1334.698      366.368        0.353        0.167       57.878       14.731        0.065      335.652        6.428      874.053
01/10/2022  14:33:00       27.801      -25.902      -18.243       39.670       52.843       30.865     1573.678     2792.409      952.673        0.355        0.266       37.998       14.314        0.142      335.798        6.672      874.031
01/10/2022  14:34:00       58.401      -24.664      -33.557       63.463       70.634       47.786     4027.614     4989.196     2283.496        0.822        0.565       63.396       28.170        0.197      335.773        6.629      873.995
01/10/2022  14:35:00      108.519      -85.320      -46.225       60.482       78.000       43.300     3658.059     6084.006     1874.895        1.640        0.581      138.043       23.124        0.028      335.776        6.634      873.960
01/10/2022  14:36:00      100.354      -40.850      -24.937       60.567       82.625       39.403     3668.411     6826.894     1552.627        1.220        0.602      108.349       41.402        0.146      335.736        6.566      873.951
01/10/2022  14:37:00      100.597      -27.808      -22.929       56.425       93.926       42.897     3183.728     8822.080     1840.137        1.263        0.692      104.370       24.373        0.055      335.750        6.591      873.941
01/10/2022  14:38:00       88.276      -30.055      -13.729       86.726       62.582       40.017     7521.406     3916.530     1601.347        1.096        0.652       93.252       36.814        0.156      335.754        6.597      873.946
01/10/2022  14:39:00       67.592      -20.324      -25.256       55.055       58.408       38.772     3031.079     3411.550     1503.266        0.678        0.397       70.581       14.218        0.041      335.776        6.635      873.953
01/10/2022  14:40:00      111.926      -30.920      -17.951       83.329       85.356       49.300     6943.645     7285.605     2430.489        1.523        0.833      116.118       40.019        0.119      335.743        6.578      873.972
01/10/2022  14:41:00      110.400       28.071      -50.045       66.330       60.501       39.528     4399.730     3660.333     1562.468        1.255        0.481      113.913       17.062        0.022      335.669        6.455      873.989
01/10/2022  14:42:00       44.727      -23.045      -30.242       43.919       61.453       37.930     1928.908     3776.493     1438.699        0.529        0.357       50.315       23.963        0.227      335.834        6.733      873.999
01/10/2022  14:43:00       13.562       10.466      -19.469       40.401       67.334       38.691     1632.248     4533.810     1496.965        0.417        0.383       17.131       35.178        4.217      335.949        6.923      874.014
01/10/2022  14:44:00        4.302      -12.262      -22.481       51.310       46.618       32.120     2632.676     2173.218     1031.717        0.325        0.292       12.995       17.220        1.756      335.944        6.916      874.033
01/10/2022  14:45:00       74.123      -49.032      -15.604       64.566       62.069       50.306     4168.705     3852.539     2530.679        0.934        0.528       88.872       42.287        0.226      335.795        6.667      874.044
01/10/2022  14:46:00       54.862      -12.654      -16.843       64.635       66.089       35.714     4177.661     4367.798     1275.482        0.664        0.491       56.302       28.327        0.253      335.855        6.765      874.045
01/10/2022  14:47:00       80.691      -34.890      -28.704       48.957       50.450       36.522     2396.791     2545.177     1333.845        0.741        0.314       87.911       24.958        0.081      335.801        6.676      874.035
01/10/2022  14:48:00       79.169       29.872      -28.836       50.222       58.660       33.066     2522.249     3440.969     1093.344        0.752        0.353       84.617       18.826        0.049      335.728        6.553      874.019
01/10/2022  14:49:00       83.669       -3.086      -33.393       64.167       65.810       33.060     4117.436     4330.915     1092.996        0.883        0.477       83.726       18.240        0.047      335.774        6.632      874.008
01/10/2022  14:50:00       33.141      -28.045      -19.030       43.990       56.462       37.260     1935.117     3187.929     1388.285        0.438        0.326       43.415       31.477        0.526      335.978        6.971      873.999
01/10/2022  14:51:00       56.686      -54.768      -10.850       58.190       67.422       42.783     3386.051     4545.730     1830.414        0.804        0.488       78.821       39.724        0.254      335.952        6.928      873.989
01/10/2022  14:52:00       38.007      -28.849      -19.208       59.988       75.964       42.162     3598.542     5770.522     1777.608        0.689        0.557       47.716       33.927        0.506      335.933        6.898      873.983
01/10/2022  14:53:00       50.374      -19.486       -4.017       56.345       65.740       41.591     3174.749     4321.809     1729.844        0.608        0.461       54.012       23.315        0.186      335.931        6.894      873.987
01/10/2022  14:54:00       38.881      -20.963       -4.598       52.658       61.465       45.274     2772.889     3777.974     2049.714        0.528        0.430       44.172       32.033        0.526      335.945        6.917      874.002
01/10/2022  14:55:00       24.217      -15.486      -14.697       45.047       41.645       37.139     2029.233     1734.285     1379.272        0.309        0.257       28.745       29.572        1.058      336.094        7.164      874.022
01/10/2022  14:56:00       40.435      -44.604      -27.558       43.814       54.442       33.863     1919.654     2963.940     1146.735        0.521        0.302       60.204       15.975        0.070      335.959        6.939      874.043
01/10/2022  14:57:00       66.368      -51.019      -25.405       69.914       56.357       38.279     4887.979     3176.112     1465.266        0.859        0.476       83.712       23.592        0.079      335.836        6.735      874.057
01/10/2022  14:58:00       38.709      -12.727      -10.253       47.323       36.128       27.572     2239.496     1305.212      760.216        0.303        0.215       40.747       25.722        0.398      335.985        6.982      874.070
01/10/2022  14:59:00       75.971       29.594      -23.161       42.043       45.893       31.617     1767.609     2106.165      999.633        0.603        0.244       81.532       17.426        0.046      335.807        6.686      874.082
01/10/2022  15:00:00       75.268       39.940      -16.433       38.071       23.425       20.171     1449.402      548.737      406.876        0.497        0.120       85.208       22.190        0.068      335.671        6.460      874.112
01/10/2022  15:01:00       28.441       46.505       -9.935       26.693       32.071       17.579      712.502     1028.538      309.017        0.256        0.103       54.513       16.963        0.097      335.794        6.665      874.136
01/10/2022  15:02:00       19.896       60.894      -10.934       29.417       28.781       17.350      865.373      828.323      301.026        0.311        0.100       64.062       15.375        0.058      335.943        6.914      874.171
01/10/2022  15:03:00        8.058       67.806       -2.151       25.024       33.735       27.062      626.219     1138.069      732.368        0.358        0.125       68.283       18.422        0.073      336.106        7.185      874.185
01/10/2022  15:04:00       36.483       35.644       -9.524       37.709       34.672       25.512     1421.947     1202.141      650.856        0.298        0.164       51.006       21.187        0.173      336.066        7.119      874.209
01/10/2022  15:05:00       -0.615        0.209      -16.091       33.991       37.735       25.453     1155.387     1423.901      647.835        0.174        0.161        0.650       13.323      420.734      336.188        7.322      874.209
01/10/2022  15:06:00        6.469      -54.055      -35.322       60.311       55.432       32.928     3637.418     3072.711     1084.225        0.600        0.390       54.441       22.948        0.178      336.082        7.145      874.217
01/10/2022  15:07:00       29.710      -15.456      -21.031       35.440       61.488       34.676     1256.014     3780.723     1202.402        0.390        0.312       33.490       21.510        0.413      335.913        6.863      874.221
01/10/2022  15:08:00       37.450       14.730      -20.604       39.960       56.351       32.407     1596.798     3175.390     1050.202        0.393        0.291       40.242       27.587        0.470      336.033        7.062      874.209
01/10/2022  15:09:00       33.593       -6.613      -35.399       38.380       63.854       38.698     1473.044     4077.278     1497.505        0.474        0.352       34.238       18.765        0.300      336.037        7.070      874.181
01/10/2022  15:10:00       28.987      -28.879      -15.822       41.614       75.656       38.908     1731.747     5723.842     1513.803        0.545        0.448       40.917       37.689        0.848      335.988        6.989      874.135
01/10/2022  15:11:00      102.684      -48.799      -32.718       67.545       84.694       46.745     4562.332     7173.152     2185.136        1.396        0.696      113.689       20.554        0.033      335.915        6.866      874.096
01/10/2022  15:12:00      106.497      -71.500      -32.865       52.934       61.065       31.575     2801.995     3728.959      996.986        1.253        0.376      128.273       30.146        0.055      335.904        6.849      874.074
01/10/2022  15:13:00       67.142      -17.555      -11.681       51.096       77.400       26.815     2610.828     5990.836      719.056        0.713        0.466       69.399       17.895        0.066      335.980        6.976      874.075
01/10/2022  15:14:00       48.778       40.014      -14.679       29.656       32.500       23.750      879.475     1056.226      564.072        0.335        0.125       63.090       15.569        0.061      336.001        7.011      874.089
01/10/2022  15:15:00       51.303       21.286      -20.639       25.420       32.383       19.330      646.189     1048.683      373.631        0.279        0.103       55.543       12.258        0.049      336.008        7.020      874.108
01/10/2022  15:16:00      136.590       52.393      -14.204       71.409       34.807       27.011     5099.177     1211.515      729.598        1.432        0.352      146.293       28.176        0.037      335.872        6.795      874.128
01/10/2022  15:17:00      178.478       43.883      -18.633       31.127       23.618       13.968      968.901      557.798      195.100        1.792        0.086      183.794        8.188        0.002      335.676        6.466      874.135
01/10/2022  15:18:00      157.152       33.154      -23.982       30.420       27.631       19.207      925.359      763.480      368.906        1.421        0.103      160.611       16.810        0.011      335.712        6.527      874.142
01/10/2022  15:19:00      114.642       43.696      -18.842       29.184       20.759       17.174      851.727      430.932      294.932        0.849        0.079      122.687       11.403        0.009      335.759        6.606      874.138
01/10/2022  15:20:00       76.831       46.439       -5.236       61.838       41.455       26.220     3823.935     1718.533      687.465        0.716        0.311       89.775       29.862        0.111      335.920        6.876      874.139
01/10/2022  15:21:00      201.827       96.427      -22.628       34.107       33.841       19.767     1163.269     1145.243      390.730        2.662        0.135      223.679        9.178        0.002      335.787        6.650      874.152
01/10/2022  15:22:00      142.453       11.760      -28.052       57.066       43.503       31.693     3256.583     1892.542     1004.439        1.368        0.308      142.938       17.672        0.015      335.917        6.871      874.165
01/10/2022  15:23:00       81.467       39.057      -17.236       62.549       39.451       28.931     3912.435     1556.359      836.996        0.738        0.315       90.345       18.920        0.044      335.886        6.819      874.169
01/10/2022  15:24:00       -7.474      -19.432       -4.597       31.562       26.593       20.947      996.129      707.196      438.787        0.130        0.107       20.819       14.656        0.496      336.299        7.507      874.149
01/10/2022  15:25:00       36.536      -39.371      -10.391       45.673       71.927       24.162     2086.006     5173.517      583.792        0.542        0.392       53.712       24.821        0.214      336.036        7.068      874.121
01/10/2022  15:26:00       72.338       66.294      -10.712       30.183       31.031       29.827      911.043      962.946      889.627        0.625        0.138       98.121       17.412        0.031      335.932        6.896      874.088
01/10/2022  15:27:00       53.397       33.679      -21.954       45.012       53.171       30.100     2026.055     2827.176      906.021        0.511        0.288       63.131       17.039        0.073      336.012        7.029      874.060
01/10/2022  15:28:00      151.241       22.967      -25.637       49.484       59.738       29.340     2448.709     3568.663      860.831        1.547        0.344      152.975       21.301        0.019      335.916        6.867      874.046
01/10/2022  15:29:00      139.789       46.793      -28.919       57.288       45.821       31.110     3281.895     2099.585      967.811        1.446        0.317      147.413       19.312        0.017      335.860        6.774      874.048
01/10/2022  15:30:00      211.150       21.490      -13.713       62.208       54.518       36.325     3869.895     2972.230     1319.472        2.670        0.408      212.241       29.135        0.019      335.891        6.824      874.054
01/10/2022  15:31:00      129.254       -5.882        6.728       92.465       52.904       39.571     8549.696     2798.794     1565.893        1.485        0.646      129.388       45.426        0.123      336.046        7.085      874.065
01/10/2022  15:32:00      131.990       44.264      -18.745       54.524       54.322       32.713     2972.899     2950.845     1070.152        1.336        0.350      139.215       19.366        0.019      336.003        7.012      874.060
01/10/2022  15:33:00       87.677       -0.594      -13.714       71.690       68.473       33.560     5139.485     4688.533     1126.299        0.941        0.548       87.679       29.222        0.111      336.076        7.135      874.033
01/10/2022  15:34:00      171.944       -7.569       -8.779       86.942       66.454       44.400     7558.831     4416.167     1971.329        2.182        0.697      172.110       38.489        0.050      336.019        7.039      873.996
01/10/2022  15:35:00      199.195       74.961      -31.595       63.021       46.800       29.467     3971.654     2190.236      868.280        2.666        0.352      212.833       10.218        0.002      335.850        6.755      873.975
01/10/2022  15:36:00       97.480       22.758      -18.863       79.392       67.439       30.066     6303.135     4548.068      903.948        1.106        0.588      100.102       23.474        0.055      335.994        6.999      873.945
01/10/2022  15:37:00      120.682       17.193      -24.648       58.947       54.307       36.816     3474.718     2949.293     1355.400        1.162        0.389      121.900       21.469        0.031      335.951        6.926      873.932
01/10/2022  15:38:00       62.652      -42.816      -35.258       60.029       77.850       42.801     3603.428     6060.690     1831.909        0.925        0.575       75.885       35.607        0.220      336.033        7.063      873.935
01/10/2022  15:39:00       75.032      -45.594      -62.046       50.478       77.886       36.307     2548.066     6066.188     1318.193        1.074        0.497       87.798       21.139        0.058      336.066        7.118      873.935
01/10/2022  15:40:00      -11.319      -31.662      -14.833       45.430       59.761       31.204     2063.927     3571.330      973.698        0.398        0.330       33.624       21.525        0.410      336.235        7.400      873.934
01/10/2022  15:41:00       30.013        4.642      -18.401       40.899       26.669       27.835     1672.691      711.236      774.806        0.221        0.158       30.370        9.558        0.099      336.132        7.229      873.936
01/10/2022  15:42:00      196.930       49.637      -20.583       49.072       31.590       31.227     2408.082      997.910      975.119        2.302        0.219      203.090       21.471        0.011      335.937        6.903      873.920
01/10/2022  15:43:00      175.010       19.298      -14.373       63.093       57.630       30.077     3980.675     3321.165      904.631        1.971        0.410      176.070       24.973        0.020      335.932        6.895      873.925
01/10/2022  15:44:00      166.394        7.884       -6.594       56.549       58.368       35.555     3197.846     3406.824     1264.124        1.783        0.393      166.581       26.001        0.024      335.944        6.914      873.930
01/10/2022  15:45:00      142.789       26.176      -25.091       61.812       52.470       34.884     3820.713     2753.056     1216.883        1.475        0.390      145.168       17.075        0.014      335.979        6.974      873.941
01/10/2022  15:46:00       82.872       35.836      -18.537       53.508       69.873       28.259     2863.111     4882.238      798.558        0.852        0.427       90.288       15.748        0.030      336.022        7.045      873.933
01/10/2022  15:47:00       24.988       43.883      -25.882       51.887       39.560       31.290     2692.299     1564.957      979.043        0.423        0.262       50.499       18.227        0.130      336.068        7.120      873.932
01/10/2022  15:48:00       15.255       20.503      -22.222       38.085       58.444       34.772     1450.467     3415.686     1209.122        0.361        0.304       25.555       26.563        1.080      336.197        7.336      873.935
01/10/2022  15:49:00      100.124       42.169      -15.205       60.174       45.715       31.809     3620.898     2089.835     1011.841        0.938        0.336      108.642       24.515        0.051      335.977        6.971      873.955
01/10/2022  15:50:00      148.915       21.659      -13.362       55.028       32.973       27.025     3028.125     1087.203      730.367        1.383        0.242      150.482       25.894        0.030      335.954        6.932      873.993
01/10/2022  15:51:00      110.806       18.089      -25.559       34.294       35.080       29.159     1176.069     1230.603      850.269        0.826        0.163      112.273       11.921        0.011      336.024        7.049      874.026
01/10/2022  15:52:00      108.255       57.794      -24.082       34.087       31.422       25.069     1161.900      987.355      628.451        0.921        0.139      122.716        9.099        0.005      335.961        6.943      874.051
01/10/2022  15:53:00       49.887       -2.715      -16.692       38.040       49.406       31.545     1447.023     2440.963      995.111        0.383        0.244       49.961       23.950        0.230      336.045        7.083      874.041
01/10/2022  15:54:00      108.077        7.956      -15.611       49.814       38.402       22.959     2481.395     1474.718      527.113        0.823        0.224      108.369       18.444        0.029      335.996        7.003      874.027
01/10/2022  15:55:00       73.935       -3.006      -22.224       49.883       52.301       30.896     2488.282     2735.373      954.563        0.607        0.309       73.996       17.366        0.055      336.077        7.137      874.018
01/10/2022  15:56:00       31.218        2.318      -21.517       37.439       47.239       29.958     1401.646     2231.554      897.508        0.299        0.227       31.304       14.693        0.220      336.140        7.241      874.020
01/10/2022  15:57:00        4.340      -33.105       -6.756       27.461       48.607       26.716      754.087     2362.606      713.745        0.249        0.192       33.388       14.718        0.194      336.311        7.527      874.034
01/10/2022  15:58:00       22.007        9.007        5.602       48.879       43.090       27.187     2389.177     1856.766      739.136        0.279        0.249       23.779       18.759        0.622      336.247        7.420      874.049
01/10/2022  15:59:00       67.553       29.479      -11.284       47.605       46.150       26.925     2266.268     2129.844      724.963        0.534        0.256       73.705       16.452        0.050      336.061        7.111      874.062
01/10/2022  16:00:00      137.333       29.835      -18.352       31.566       31.201       22.767      996.387      973.476      518.358        1.129        0.124      140.536       10.293        0.005      335.987        6.987      874.068
01/10/2022  16:01:00      131.701       45.054      -27.808       49.335       40.367       28.259     2433.975     1629.470      798.586        1.250        0.243      139.194       15.544        0.012      335.984        6.981      874.063
01/10/2022  16:02:00      171.751       60.840      -16.623       33.025       48.973       22.150     1090.683     2398.390      490.644        1.873        0.199      182.209        9.633        0.003      335.946        6.918      874.065
01/10/2022  16:03:00      143.008        9.755      -40.393       52.847       70.055       34.289     2792.756     4907.706     1175.702        1.553        0.444      143.340       28.585        0.040      335.959        6.940      874.057
01/10/2022  16:04:00       74.921        4.377      -30.896       63.360       60.760       37.850     4014.452     3691.772     1432.621        0.786        0.457       75.048       29.780        0.157      335.983        6.981      874.044
01/10/2022  16:05:00      162.700       51.374      -16.294       49.300       33.973       21.863     2430.454     1154.169      477.971        1.672        0.203      170.619       14.032        0.007      335.842        6.745      874.028
01/10/2022  16:06:00      162.464       62.339      -16.309       41.741       46.831       23.208     1742.348     2193.126      538.619        1.751        0.224      174.014       11.202        0.004      335.866        6.785      874.003
01/10/2022  16:07:00      145.314       29.967      -15.125       50.049       36.806       26.637     2504.935     1354.681      709.508        1.341        0.228      148.372       10.667        0.005      335.837        6.737      873.981
01/10/2022  16:08:00      147.002       33.785      -18.606       35.307       50.139       22.222     1246.594     2513.926      493.797        1.367        0.213      150.834       16.876        0.013      335.870        6.792      873.972
01/10/2022  16:09:00      126.399       48.591      -34.794       37.562       40.345       27.007     1410.873     1627.748      729.357        1.166        0.188      135.417        9.184        0.005      335.905        6.850      873.951
01/10/2022  16:10:00      104.993       54.557       -8.933       41.259       34.608       27.281     1702.308     1197.682      744.273        0.886        0.182      118.322       20.507        0.030      335.883        6.814      873.925
01/10/2022  16:11:00      140.692       73.590      -20.352       27.418       34.606       19.363      751.728     1197.548      374.908        1.397        0.116      158.776       17.078        0.012      335.843        6.746      873.908
01/10/2022  16:12:00      100.255       38.140      -31.649       37.593       40.150       24.442     1413.218     1612.061      597.422        0.806        0.181      107.264        8.413        0.006      335.872        6.796      873.900
01/10/2022  16:13:00       32.338        4.848      -31.170       35.368       40.434       29.906     1250.893     1634.870      894.343        0.291        0.189       32.699        9.936        0.092      335.902        6.846      873.916
01/10/2022  16:14:00       83.925       25.850      -15.803       58.060       56.880       24.192     3370.965     3235.368      585.234        0.758        0.360       87.815       18.054        0.042      335.829        6.724      873.930
01/10/2022  16:15:00       65.124       21.940      -24.141       40.606       39.470       23.511     1648.816     1557.862      552.790        0.453        0.188       68.720       22.692        0.109      335.837        6.738      873.950
01/10/2022  16:16:00       88.641       33.616      -15.995       30.729       28.563       16.634      944.296      815.817      276.682        0.564        0.102       94.801       13.388        0.020      335.834        6.731      873.970
01/10/2022  16:17:00       34.103       41.411      -15.420       33.074       40.251       30.266     1093.859     1620.174      916.026        0.337        0.182       53.646       21.297        0.158      335.800        6.675      873.984
01/10/2022  16:18:00       48.148       23.343      -11.143       25.817       39.358       18.395      666.497     1549.090      338.362        0.277        0.128       53.508        8.258        0.024      335.842        6.745      873.992
01/10/2022  16:19:00       43.370       12.717       -8.108       30.044       40.385       25.794      902.624     1630.958      665.344        0.265        0.160       45.196       19.638        0.189      335.822        6.713      873.996
01/10/2022  16:20:00       45.221       16.632      -13.049       26.027       26.776       14.394      677.422      716.948      207.183        0.205        0.080       48.183       12.396        0.066      335.857        6.769      874.002
01/10/2022  16:21:00       81.725       20.682      -19.000       27.561       21.695       16.494      759.612      470.676      272.053        0.448        0.075       84.301       14.981        0.032      335.809        6.691      874.009
01/10/2022  16:22:00       69.812       47.198       -7.948       29.857       22.124       22.161      891.440      489.469      491.104        0.452        0.094       84.270       14.971        0.032      335.811        6.694      874.016
01/10/2022  16:23:00       95.301       26.815      -23.117       24.840       20.607       14.218      617.038      424.633      202.164        0.579        0.062       99.001        8.325        0.007      335.868        6.788      874.050
01/10/2022  16:24:00       74.732       33.350      -17.554       24.770       13.092       11.683      613.537      171.394      136.499        0.396        0.046       81.836        8.271        0.010      335.792        6.663      874.096
01/10/2022  16:25:00       56.300       34.831      -23.907       16.155       15.078       14.301      260.989      227.348      204.519        0.282        0.035       66.203       10.477        0.025      335.842        6.747      874.135
01/10/2022  16:26:00       70.012       51.366      -12.838       17.679        8.019        8.423      312.542       64.300       70.951        0.408        0.022       86.834        6.272        0.005      335.806        6.686      874.175
01/10/2022  16:27:00       82.937       35.023       -9.952       17.367       13.150       10.151      301.597      172.924      103.047        0.439        0.029       90.029        5.637        0.004      335.811        6.694      874.200
01/10/2022  16:28:00       74.725       24.636      -16.261       22.657       25.115       17.849      513.333      630.784      318.595        0.396        0.073       78.681       10.503        0.018      335.806        6.688      874.224
01/10/2022  16:29:00       41.508       49.523      -10.024       25.361       20.772       14.444      643.184      431.459      208.631        0.278        0.064       64.617       11.116        0.030      335.775        6.634      874.250
01/10/2022  16:30:00       46.964       60.262       -3.798       22.032       22.421       18.018      485.423      502.685      324.653        0.358        0.066       76.401       12.373        0.026      335.785        6.651      874.271
01/10/2022  16:31:00       55.065       78.452       -8.440       22.965       22.450       16.263      527.371      503.986      264.470        0.528        0.065       95.848       12.498        0.017      335.785        6.648      874.286
01/10/2022  16:32:00       59.018       90.637       -6.772       24.257       24.361       19.371      588.416      593.444      375.233        0.665        0.078      108.158       15.144        0.020      335.798        6.671      874.299
01/10/2022  16:33:00       46.817       58.202       -3.046       24.117       24.798       15.502      581.624      614.935      240.302        0.351        0.072       74.695       14.200        0.036      335.701        6.509      874.313
01/10/2022  16:34:00       72.352       60.260      -10.806       24.934       16.266       19.360      621.699      264.570      374.805        0.512        0.063       94.160       13.942        0.022      335.706        6.516      874.308
01/10/2022  16:35:00       79.105       50.898      -11.135       23.723       15.167       11.755      562.794      230.035      138.172        0.495        0.047       94.065        7.188        0.006      335.709        6.522      874.287
01/10/2022  16:36:00      106.837       62.682      -14.324       18.592       16.999        9.343      345.680      288.979       87.297        0.814        0.036      123.868        4.716        0.001      335.736        6.568      874.250
01/10/2022  16:37:00      110.684       32.806      -12.250       15.218       12.622       13.419      231.586      159.313      180.077        0.702        0.029      115.443        7.098        0.004      335.757        6.602      874.209
01/10/2022  16:38:00      103.700       42.323      -15.489       15.618       10.548        8.537      243.936      111.262       72.886        0.661        0.021      112.004        2.973        0.001      335.721        6.542      874.177
01/10/2022  16:39:00       98.010       35.826      -13.573       13.244       10.080        7.900      175.401      101.599       62.404        0.571        0.017      104.353        4.243        0.002      335.721        6.545      874.162
01/10/2022  16:40:00      113.813       45.034      -12.380       18.183       15.799       11.134      330.627      249.598      123.955        0.792        0.035      122.399        3.199        0.001      335.714        6.530      874.183
01/10/2022  16:41:00       88.905       52.467       -8.615       28.428       18.008       14.974      808.145      324.299      224.213        0.604        0.068      103.233        8.349        0.007      335.654        6.429      874.229
01/10/2022  16:42:00       79.486       63.914      -10.478       38.524       19.271       14.726     1484.096      371.370      216.864        0.629        0.104      101.995       15.428        0.023      335.644        6.414      874.280
01/10/2022  16:43:00       49.764       88.788       -4.329       23.771       24.870       18.354      565.047      618.523      336.874        0.595        0.076      101.783       14.322        0.020      335.658        6.438      874.332
01/10/2022  16:44:00       62.019       84.720      -10.089       17.676       19.987       12.937      312.435      399.487      167.362        0.600        0.044      104.995        9.812        0.009      335.695        6.500      874.367
01/10/2022  16:45:00       60.830       60.478      -14.561       16.446       19.682       12.183      270.467      387.395      148.420        0.419        0.040       85.778        6.804        0.006      335.670        6.457      874.378
01/10/2022  16:46:00       59.399       56.069       -9.161       19.062       16.999       14.702      363.347      288.953      216.146        0.381        0.043       81.682       11.553        0.020      335.654        6.430      874.374
01/10/2022  16:47:00       55.019       56.216      -18.581       21.092       16.579       10.868      444.852      274.870      118.124        0.369        0.042       78.659        8.685        0.012      335.642        6.410      874.356
01/10/2022  16:48:00       57.932       44.906       -9.900       14.806       16.956       12.448      219.207      287.518      154.964        0.307        0.033       73.299       10.673        0.021      335.578        6.303      874.337
01/10/2022  16:49:00       65.670       41.825       -8.665       17.951       12.410       11.551      322.254      153.998      133.427        0.337        0.030       77.858        9.267        0.014      335.601        6.342      874.310
01/10/2022  16:50:00       78.826       36.474      -13.059       12.341       16.217        8.156      152.289      262.979       66.513        0.410        0.024       86.855        7.865        0.008      335.612        6.362      874.285
01/10/2022  16:51:00       90.619       37.996      -12.727       16.016       11.620        7.694      256.522      135.023       59.197        0.513        0.023       98.263        2.220        0.001      335.614        6.363      874.270
01/10/2022  16:52:00       69.963       35.883       -9.379       17.322       15.808       12.136      300.046      249.906      147.274        0.348        0.035       78.628        7.361        0.009      335.527        6.221      874.253
01/10/2022  16:53:00       69.517       51.815       -9.895       12.283       12.362       12.418      150.880      152.817      154.199        0.404        0.023       86.703        5.030        0.003      335.576        6.302      874.232
01/10/2022  16:54:00       70.927       54.181      -18.060       21.389       13.602       12.878      457.485      185.007      165.851        0.455        0.040       89.253       10.552        0.014      335.618        6.373      874.199
01/10/2022  16:55:00       81.892       45.318      -12.305       14.887       14.699       10.449      221.621      216.061      109.172        0.473        0.027       93.595        5.439        0.003      335.580        6.311      874.160
01/10/2022  16:56:00      109.544       26.937      -14.434       17.637       11.193       11.630      311.061      125.289      135.249        0.675        0.029      112.808        9.272        0.007      335.562        6.280      874.127
01/10/2022  16:57:00      122.711       40.457      -10.931       12.579       14.187        8.605      158.226      201.284       74.051        0.862        0.022      129.208        6.915        0.003      335.547        6.254      874.109
01/10/2022  16:58:00      118.807       37.735      -13.954       11.630        8.626        8.843      135.256       74.414       78.206        0.801        0.014      124.656        6.521        0.003      335.544        6.250      874.111
01/10/2022  16:59:00      115.157       41.116      -17.004       17.298       16.182        9.500      299.238      261.856       90.247        0.795        0.033      122.277        7.453        0.004      335.502        6.178      874.118
01/10/2022  17:00:00      111.127       50.444      -13.576       34.873       20.972       15.856     1216.100      439.810      251.425        0.849        0.095      122.041       10.998        0.008      335.511        6.194      874.121
01/10/2022  17:01:00       87.259       43.338      -10.623       26.362       19.405       15.642      694.981      376.536      244.683        0.546        0.066       97.428       10.398        0.011      335.471        6.127      874.124
01/10/2022  17:02:00       73.693       40.824      -11.692       23.302       17.176       13.510      543.000      295.005      182.520        0.413        0.051       84.245        9.411        0.012      335.469        6.124      874.122
01/10/2022  17:03:00       57.178       39.151       -5.644       18.392       14.245       12.970      338.283      202.913      168.211        0.277        0.035       69.297        9.588        0.019      335.530        6.225      874.118
01/10/2022  17:04:00       57.104       52.532      -16.370       18.897       21.049       16.231      357.105      443.058      263.439        0.368        0.053       77.591       14.436        0.035      335.584        6.315      874.121
01/10/2022  17:05:00       43.206       32.370       -7.727       15.448       13.432       13.398      238.652      180.414      179.502        0.179        0.030       53.987       10.356        0.037      335.585        6.317      874.128
01/10/2022  17:06:00       24.389       35.326       -1.261       21.633       16.397        8.552      467.977      268.857       73.134        0.133        0.040       42.928        7.806        0.033      335.559        6.273      874.138
01/10/2022  17:07:00       19.490       36.588       -6.759       23.175       14.992        9.974      537.081      224.762       99.483        0.131        0.043       41.455        8.852        0.046      335.525        6.216      874.149
01/10/2022  17:08:00       36.303       69.983       -6.211       23.308       22.178       12.624      543.284      491.846      159.367        0.372        0.060       78.839        4.731        0.004      335.653        6.430      874.164
01/10/2022  17:09:00       26.854       78.356      -11.219       25.699       21.470       13.257      660.414      460.977      175.748        0.414        0.065       82.830        6.290        0.006      335.662        6.446      874.178
01/10/2022  17:10:00       14.265       59.996       -9.131       15.897       16.440       13.092      252.724      270.289      171.390        0.229        0.035       61.668        7.892        0.016      335.619        6.374      874.187
01/10/2022  17:11:00       31.430       40.991       -4.464       16.017       13.971       13.835      256.536      195.202      191.413        0.167        0.032       51.654        6.594        0.016      335.599        6.341      874.182
01/10/2022  17:12:00       32.526       38.894      -10.948       17.603       16.829       12.780      309.880      283.210      163.335        0.172        0.038       50.702        6.642        0.017      335.654        6.432      874.169
01/10/2022  17:13:00       16.482       20.518       -7.910       14.827       10.679       10.897      219.852      114.033      118.752        0.060        0.023       26.318        3.878        0.022      335.512        6.195      874.160
01/10/2022  17:14:00      -17.707       28.995       -6.573       30.298       12.799       11.515      917.990      163.820      132.605        0.121        0.061       33.974        6.742        0.039      335.335        5.899      874.156
01/10/2022  17:15:00      -63.332       40.998      -18.192       26.563       19.627       11.269      705.599      385.235      126.988        0.362        0.061       75.444        8.518        0.013      335.139        5.575      874.167
01/10/2022  17:16:00      -63.693       14.414      -13.243       25.009       21.363       16.743      625.450      456.376      280.327        0.290        0.068       65.304       11.021        0.028      334.927        5.224      874.163
01/10/2022  17:17:00      -56.424       16.564       -8.630       40.324       27.345       21.394     1626.018      747.775      457.716        0.318        0.142       58.805       19.831        0.114      334.836        5.072      874.175
01/10/2022  17:18:00     -112.457       29.074      -16.633       19.812       31.057       22.687      392.513      964.530      514.682        0.782        0.094      116.154        6.814        0.003      334.811        5.030      874.190
01/10/2022  17:19:00     -114.461       48.408      -16.276       23.957       17.261       15.368      573.952      297.941      236.189        0.841        0.055      124.277       13.442        0.012      334.679        4.809      874.203
01/10/2022  17:20:00     -120.093       35.254      -21.011       17.157       22.696       16.711      294.370      515.131      279.252        0.860        0.054      125.161        8.916        0.005      334.622        4.716      874.227
01/10/2022  17:21:00      -99.957       14.386      -18.810       43.399       36.290       21.287     1883.459     1316.960      453.124        0.710        0.183      100.987       14.199        0.020      334.599        4.676      874.244
01/10/2022  17:22:00      -83.871       30.032      -19.207       43.489       38.738       35.383     1891.316     1500.602     1251.992        0.647        0.232       89.086       23.375        0.069      334.529        4.561      874.261
01/10/2022  17:23:00      -55.641        5.396      -29.870       43.664       35.493       27.641     1906.529     1259.744      764.021        0.397        0.197       55.902       13.391        0.057      334.620        4.712      874.281
01/10/2022  17:24:00      -33.568        8.708      -16.317       50.255       28.184       26.587     2525.530      794.362      706.858        0.275        0.201       34.679        8.465        0.060      334.547        4.590      874.298
01/10/2022  17:25:00      -27.331        0.882       -4.666       68.646       30.437       28.837     4712.274      926.420      831.595        0.362        0.324       27.345       28.957        1.121      334.481        4.479      874.307
01/10/2022  17:26:00      -99.495        2.921      -10.192       59.162       47.571       28.223     3500.103     2262.999      796.518        0.828        0.328       99.538       20.654        0.043      334.500        4.512      874.303
01/10/2022  17:27:00      -99.636        8.145       -6.417       54.565       30.045       22.396     2977.292      902.679      501.572        0.721        0.219       99.969       23.284        0.054      334.536        4.572      874.287
01/10/2022  17:28:00     -137.869       26.822      -17.945       23.330       24.027       15.992      544.285      577.294      255.732        1.071        0.069      140.453       12.006        0.007      334.606        4.689      874.273
01/10/2022  17:29:00      -95.393       35.689      -12.502       28.760       27.517       18.985      827.135      757.202      360.427        0.624        0.097      101.851       16.921        0.028      334.672        4.799      874.256
01/10/2022  17:30:00     -105.886       27.435       -9.937       35.611       25.047       22.953     1268.169      627.358      526.860        0.724        0.121      109.382       12.432        0.013      334.802        5.016      874.254
01/10/2022  17:31:00      -88.332       24.001       -5.074       27.596       23.115       20.144      761.563      534.298      405.766        0.505        0.085       91.535       17.656        0.037      334.848        5.093      874.256
01/10/2022  17:32:00      -10.629       -1.049       -0.815       28.689       20.711       12.971      823.039      428.957      168.256        0.077        0.071       10.681        6.626        0.385      334.790        4.996      874.264
01/10/2022  17:33:00      -25.059        2.477       -8.870       25.740       20.026       13.592      662.550      401.050      184.749        0.098        0.062       25.181        5.035        0.040      334.832        5.064      874.258
01/10/2022  17:34:00      -55.766       -1.796      -11.735       30.935       16.279       15.447      956.973      265.005      238.598        0.236        0.073       55.795       14.533        0.068      334.742        4.917      874.240
01/10/2022  17:35:00      -46.985       17.047       -8.724       20.956       21.008       15.343      439.142      441.349      235.417        0.184        0.056       49.981       12.745        0.065      334.644        4.753      874.228
01/10/2022  17:36:00      -63.857       29.950       -4.003       27.497       21.336       21.758      756.089      455.209      473.413        0.334        0.084       70.531       19.235        0.074      334.688        4.825      874.217
01/10/2022  17:37:00      -78.178       33.001      -20.653       22.436       20.617       15.976      503.364      425.072      255.243        0.441        0.059       84.858        5.930        0.005      334.619        4.710      874.208
01/10/2022  17:38:00      -64.563        6.190      -13.757       30.171       26.477       19.818      910.298      701.033      392.747        0.320        0.100       64.859       18.039        0.077      334.523        4.550      874.208
01/10/2022  17:39:00      -77.650       24.047       -8.628       21.575       18.361       13.182      465.501      337.118      173.765        0.383        0.049       81.289       11.415        0.020      334.440        4.412      874.218
01/10/2022  17:40:00      -69.075       19.860      -17.343       25.169       15.479       11.968      633.455      239.585      143.232        0.324        0.051       71.873        9.547        0.018      334.445        4.423      874.230
01/10/2022  17:41:00      -86.528       30.809      -21.845       29.497       26.558       22.515      870.095      705.301      506.913        0.550        0.104       91.849       14.727        0.026      334.388        4.326      874.257
01/10/2022  17:42:00     -107.241       47.114      -15.819       23.973       19.280       19.596      574.721      371.705      384.002        0.765        0.067      117.134       11.734        0.010      334.293        4.169      874.290
01/10/2022  17:43:00      -95.634       29.362      -10.164       34.895       27.751       24.432     1217.660      770.107      596.916        0.635        0.129      100.040       21.189        0.045      334.298        4.177      874.319
01/10/2022  17:44:00      -77.084       15.618      -10.797       24.706       22.194       18.607      610.398      492.591      346.228        0.388        0.072       78.651       12.730        0.026      334.283        4.153      874.340
01/10/2022  17:45:00      -92.281       28.176      -19.239       33.832       26.177       16.861     1144.599      685.218      284.290        0.590        0.106       96.486       10.975        0.013      334.209        4.029      874.346
01/10/2022  17:46:00      -79.457       14.894      -18.490       20.540       21.625       17.645      421.908      467.634      311.343        0.404        0.060       80.841        9.723        0.014      334.277        4.144      874.353
01/10/2022  17:47:00      -43.434        5.821      -10.500       26.241       25.233       14.792      688.613      636.717      218.799        0.179        0.077       43.823        8.004        0.033      334.197        4.009      874.369
01/10/2022  17:48:00      -63.817       25.655      -18.359       21.272       17.019       12.029      452.481      289.637      144.707        0.298        0.044       68.781        5.161        0.006      334.130        3.900      874.393
01/10/2022  17:49:00      -45.985       25.884      -15.314       20.523       18.497       12.719      421.187      342.140      161.771        0.197        0.046       52.769        3.725        0.005      334.102        3.853      874.431
01/10/2022  17:50:00      -11.130        7.864       -7.483       21.576       19.513       10.659      465.541      380.765      113.616        0.060        0.048       13.628        7.943        0.340      334.087        3.827      874.452
01/10/2022  17:51:00      -33.234      -11.298      -16.925       28.347       18.045       17.334      803.547      325.615      300.481        0.147        0.071       35.102       17.874        0.259      333.980        3.650      874.468
01/10/2022  17:52:00      -71.499       18.149      -20.816       30.028       23.478       15.164      901.674      551.194      229.944        0.378        0.084       73.766       10.557        0.020      333.975        3.642      874.471
01/10/2022  17:53:00      -91.794       17.764      -22.410       22.162       29.654       17.465      491.169      879.331      305.038        0.546        0.084       93.497       16.226        0.030      333.912        3.538      874.472
01/10/2022  17:54:00      -37.642      -10.867       -5.573       34.862       25.992       25.870     1215.392      675.608      669.264        0.206        0.128       39.179       25.100        0.410      333.879        3.483      874.476
01/10/2022  17:55:00      -58.213       11.518      -15.634       38.726       36.236       22.584     1499.712     1313.027      510.040        0.354        0.166       59.341       16.866        0.081      333.931        3.570      874.489
01/10/2022  17:56:00      -52.432       16.686      -15.568       37.780       27.289       21.873     1427.295      744.710      478.447        0.296        0.133       55.023       16.307        0.088      333.895        3.511      874.493
01/10/2022  17:57:00      -81.652       21.877      -24.594       27.557       24.128       19.188      759.413      582.144      368.192        0.473        0.085       84.532       18.005        0.045      333.835        3.410      874.502
01/10/2022  17:58:00      -88.289       31.468      -19.767       17.531       19.168       17.437      307.341      367.431      304.053        0.508        0.049       93.729        9.483        0.010      333.724        3.225      874.509
01/10/2022  17:59:00      -78.952       27.314      -22.275       19.981       28.035       16.595      399.246      785.981      275.403        0.447        0.073       83.543        9.295        0.012      333.751        3.273      874.525
01/10/2022  18:00:00      -73.375       16.053      -22.846       23.377       31.512       21.301      546.491      993.013      453.719        0.408        0.100       75.111       12.528        0.028      333.741        3.256      874.544
01/10/2022  18:01:00      -41.620       16.491      -13.475       39.396       18.234       19.389     1552.009      332.496      375.948        0.222        0.113       44.768       12.750        0.081      333.660        3.122      874.559
01/10/2022  18:02:00      -36.137       15.414      -16.986       24.883       20.384       15.886      619.171      415.521      252.359        0.156        0.064       39.287       13.679        0.121      333.729        3.235      874.569
01/10/2022  18:03:00      -41.608        8.841      -12.791       23.042       19.700       17.463      530.914      388.074      304.973        0.160        0.061       42.536       13.806        0.105      333.737        3.249      874.564
01/10/2022  18:04:00      -34.112        0.856      -17.899       18.619       16.837       18.712      346.681      283.498      350.139        0.123        0.049       34.123       15.055        0.195      333.664        3.128      874.559
01/10/2022  18:05:00      -27.375       -8.074      -20.053       19.806       14.440       12.915      392.294      208.520      166.803        0.099        0.038       28.541       12.112        0.180      333.638        3.085      874.546
01/10/2022  18:06:00      -27.786       17.077       -3.944       16.452       16.850       18.107      270.661      283.907      327.881        0.098        0.044       32.614       13.775        0.178      333.623        3.061      874.539
01/10/2022  18:07:00      -32.654       18.587      -15.560       14.195       12.747       16.118      201.489      162.480      259.794        0.114        0.031       37.573        9.552        0.065      333.656        3.116      874.532
01/10/2022  18:08:00      -47.524       24.489      -15.953       13.833       12.356        8.434      191.341      152.667       71.124        0.176        0.021       53.463        5.355        0.010      333.631        3.073      874.524
01/10/2022  18:09:00      -51.119       14.191      -12.543       18.198       19.188       13.179      331.175      368.164      173.687        0.192        0.044       53.052        8.132        0.023      333.709        3.202      874.529
01/10/2022  18:10:00      -44.842       23.017      -15.314       24.740       17.967       15.156      612.075      322.826      229.714        0.197        0.058       50.404       13.661        0.073      333.686        3.164      874.532
01/10/2022  18:11:00      -44.291        9.581      -15.962       26.451       18.004       16.961      699.670      324.161      287.676        0.181        0.066       45.315       10.237        0.051      333.679        3.154      874.547
01/10/2022  18:12:00      -77.828       -2.867      -28.199       20.109       16.047       18.790      404.387      257.501      353.058        0.394        0.051       77.880       10.806        0.019      333.570        2.973      874.559
01/10/2022  18:13:00      -68.837        5.084      -18.905       34.189       22.162       21.969     1168.907      491.139      482.651        0.363        0.107       69.025       16.017        0.054      333.624        3.061      874.578
01/10/2022  18:14:00      -20.634        0.635       -5.925       29.364       28.473       18.214      862.257      810.697      331.744        0.123        0.100       20.644       11.455        0.308      333.581        2.990      874.590
01/10/2022  18:15:00      -13.967        7.627       -4.938       19.287       18.024       21.000      371.985      324.854      440.981        0.071        0.057       15.914       14.411        0.820      333.539        2.920      874.607
01/10/2022  18:16:00      -42.996       20.297      -20.747       30.175       29.377       25.208      910.539      862.981      635.456        0.255        0.120       47.546       21.599        0.206      333.584        2.994      874.619
01/10/2022  18:17:00      -48.288       21.310      -17.787       38.606       19.490       16.397     1490.399      379.851      268.875        0.262        0.107       52.781       14.321        0.074      333.638        3.086      874.627
01/10/2022  18:18:00      -63.815        8.992      -28.055       27.075       18.327       18.563      733.061      335.877      344.591        0.318        0.071       64.446       12.578        0.038      333.591        3.007      874.631
01/10/2022  18:19:00      -61.099       12.534      -20.228       25.261       22.313       21.152      638.111      497.864      447.405        0.294        0.079       62.372       17.815        0.082      333.552        2.943      874.637
01/10/2022  18:20:00      -74.784       12.386      -23.295       21.471       22.236       17.451      461.018      494.419      304.542        0.377        0.063       75.803        4.701        0.004      333.537        2.917      874.651
01/10/2022  18:21:00      -68.855       16.644      -22.122       29.850       23.406       17.589      891.011      547.855      309.359        0.363        0.087       70.838       11.782        0.028      333.528        2.902      874.682
01/10/2022  18:22:00      -70.581       24.919      -19.376       21.635       18.701       15.677      468.093      349.714      245.774        0.352        0.053       74.851        1.263        0.000      333.501        2.857      874.723
01/10/2022  18:23:00     -102.523       22.997      -26.595       30.740       29.577       18.644      944.927      874.802      347.584        0.696        0.108      105.071        6.222        0.004      333.398        2.689      874.745
01/10/2022  18:24:00      -77.430       15.964      -15.136       38.454       29.066       21.271     1478.731      844.832      452.449        0.463        0.139       79.058       23.075        0.085      333.395        2.684      874.768
01/10/2022  18:25:00      -31.280       14.713      -10.446       28.618       20.846       19.038      818.983      434.539      362.430        0.146        0.081       34.568       14.426        0.174      333.394        2.680      874.774
01/10/2022  18:26:00      -66.470       23.953      -13.861       22.972       17.498       11.943      527.725      306.193      142.626        0.308        0.049       70.654        4.087        0.003      333.390        2.675      874.782
01/10/2022  18:27:00      -48.925       19.915      -17.628       18.406       18.213       14.680      338.798      331.706      215.510        0.199        0.044       52.823        5.066        0.009      333.450        2.775      874.786
01/10/2022  18:28:00      -51.781       21.037      -15.622       17.582       20.097       13.581      309.127      403.893      184.448        0.213        0.045       55.891        6.462        0.013      333.485        2.831      874.795
01/10/2022  18:29:00      -36.052        6.955      -18.497       18.965       15.393       14.809      359.658      236.956      219.303        0.125        0.041       36.716       10.746        0.086      333.533        2.910      874.802
01/10/2022  18:30:00      -27.839       16.519      -24.997       17.862       16.514       13.808      319.059      272.711      190.649        0.123        0.039       32.371        6.413        0.039      333.654        3.110      874.809
01/10/2022  18:31:00      -23.276       10.324      -11.532       28.188       19.724       15.348      794.588      389.053      235.563        0.110        0.071       25.463       14.902        0.342      333.877        3.482      874.806
01/10/2022  18:32:00      -50.489       13.813      -24.054       16.587       12.411       11.353      275.128      154.044      128.884        0.194        0.028       52.344        3.854        0.005      333.618        3.052      874.801
01/10/2022  18:33:00      -52.090       21.087      -20.063       18.394       17.584       13.402      338.328      309.200      179.609        0.219        0.041       56.196        7.074        0.016      333.593        3.009      874.802
01/10/2022  18:34:00      -48.835       30.044      -17.586       20.752       18.283       13.847      430.638      334.270      191.749        0.228        0.048       57.337        4.544        0.006      333.645        3.096      874.798
01/10/2022  18:35:00      -30.307       26.546      -24.924       31.108       12.107       10.719      967.694      146.580      114.897        0.174        0.061       40.289       11.916        0.087      333.734        3.243      874.800
01/10/2022  18:36:00      -30.494       22.975      -14.015       13.992       17.732       12.067      195.763      314.430      145.617        0.115        0.033       38.180        5.107        0.018      333.638        3.083      874.798
01/10/2022  18:37:00      -25.935       25.234      -11.618       18.660       13.021       12.413      348.209      169.534      154.086        0.106        0.034       36.185        2.343        0.004      333.714        3.212      874.812
01/10/2022  18:38:00       -1.339       32.039       -8.061       24.104       14.770       13.285      580.984      218.163      176.488        0.103        0.049       32.067        8.264        0.066      333.874        3.475      874.824
01/10/2022  18:39:00       25.603       53.620        0.280       15.204       21.772        9.848      231.158      474.030       96.992        0.217        0.040       59.419        9.814        0.027      334.121        3.883      874.839
01/10/2022  18:40:00       48.579       51.263       -2.921       15.747       22.064       15.416      247.975      486.826      237.659        0.298        0.049       70.624       13.631        0.037      334.168        3.963      874.856
01/10/2022  18:41:00       51.292       68.911       -4.640       23.652       24.554       12.267      559.427      602.894      150.485        0.436        0.066       85.905       10.364        0.015      334.214        4.038      874.871
01/10/2022  18:42:00       35.804       72.248      -11.668       27.558       26.695       15.136      759.456      712.646      229.085        0.417        0.085       80.633       13.855        0.030      334.140        3.917      874.883
01/10/2022  18:43:00       30.947       48.622       -3.661       26.404       20.157       20.365      697.183      406.302      414.715        0.243        0.076       57.635       17.119        0.088      334.068        3.798      874.894
01/10/2022  18:44:00       -3.157       28.474      -10.054       15.325       31.604       17.984      234.862      998.812      323.423        0.124        0.078       28.649       18.859        0.433      333.781        3.322      874.902
01/10/2022  18:45:00      -48.274       37.764      -18.128       26.151       12.168       14.878      683.894      148.058      221.354        0.257        0.053       61.290       13.400        0.048      333.426        2.733      874.913
01/10/2022  18:46:00      -53.860       31.922      -14.260       19.407       13.448       12.849      376.634      180.849      165.088        0.242        0.036       62.609        8.308        0.018      333.243        2.431      874.931
01/10/2022  18:47:00      -60.090       33.592      -18.774       16.503       16.857       15.269      272.347      284.150      233.138        0.294        0.039       68.842        8.839        0.016      333.226        2.402      874.943
01/10/2022  18:48:00      -53.062        3.025      -29.816       22.175       17.379       21.855      491.741      302.038      477.619        0.249        0.064       53.148       16.944        0.102      333.238        2.423      874.948
01/10/2022  18:49:00      -68.600       30.230      -19.355       17.891       17.360       15.811      320.105      301.387      249.973        0.343        0.044       74.965       10.372        0.019      333.255        2.451      874.945
01/10/2022  18:50:00      -37.141       23.989      -25.951       28.981       21.085       23.128      839.909      444.588      534.897        0.222        0.091       44.214       21.497        0.236      333.281        2.495      874.928
01/10/2022  18:51:00      -47.048       22.310      -34.838       20.257       13.344       12.248      410.341      178.070      150.015        0.233        0.037       52.069        7.672        0.022      333.372        2.645      874.919
01/10/2022  18:52:00      -45.797       28.358      -22.567       15.191       16.643       10.137      230.751      276.984      102.759        0.201        0.031       53.866        5.730        0.011      333.315        2.549      874.915
01/10/2022  18:53:00      -37.044       23.200      -11.281       21.378       19.854       10.955      457.019      394.200      120.009        0.150        0.049       43.709        5.283        0.015      333.239        2.425      874.913
01/10/2022  18:54:00      -48.158       20.038      -21.035       15.926       16.555       11.281      253.641      274.072      127.254        0.191        0.033       52.161        7.529        0.021      333.273        2.480      874.908
01/10/2022  18:55:00      -55.916        5.044      -16.867       19.681       21.848       14.155      387.341      477.336      200.371        0.225        0.053       56.143       10.271        0.033      333.363        2.629      874.909
01/10/2022  18:56:00      -30.774       -7.723       -9.279       27.178       12.949       14.611      738.623      167.668      213.489        0.111        0.056       31.728       13.515        0.181      333.301        2.527      874.906
01/10/2022  18:57:00      -21.444        0.389       -5.414       17.281       16.007       10.114      298.643      256.224      102.289        0.057        0.033       21.448        7.331        0.117      333.266        2.469      874.908
01/10/2022  18:58:00      -40.115       12.713      -11.352       23.756       17.403       12.600      564.360      302.857      158.757        0.146        0.051       42.081        7.690        0.033      333.252        2.446      874.902
01/10/2022  18:59:00      -42.116       -3.963      -11.556       21.240       19.459       12.810      451.155      378.638      164.086        0.146        0.050       42.302        6.355        0.023      333.213        2.382      874.903
01/10/2022  19:00:00      -54.125        9.214      -11.227       19.880       18.155       13.813      395.210      329.601      190.802        0.203        0.046       54.904        5.456        0.010      333.237        2.419      874.911
01/10/2022  19:01:00      -57.903       -5.189      -17.589       18.873       17.013       19.060      356.174      289.433      363.279        0.235        0.050       58.135        7.449        0.016      333.156        2.286      874.933
01/10/2022  19:02:00      -71.077        9.305      -19.761       44.776       17.187       19.108     2004.881      295.407      365.099        0.410        0.133       71.683       19.905        0.077      333.140        2.260      874.953
01/10/2022  19:03:00      -80.509        9.621       -7.289       59.673       31.127       18.095     3560.808      968.915      327.415        0.574        0.243       81.082       21.942        0.073      333.157        2.289      874.984
01/10/2022  19:04:00      -25.354       11.825        1.470       37.687       26.116       22.717     1420.275      682.057      516.044        0.170        0.131       27.976       22.892        0.670      333.074        2.152      875.017
01/10/2022  19:05:00      -71.736       11.928      -15.935       37.700       15.079       20.554     1421.296      227.369      422.473        0.381        0.104       72.721       17.885        0.060      333.089        2.177      875.041
01/10/2022  19:06:00     -100.703       34.268      -13.831       27.458       23.841       22.499      753.916      568.415      506.199        0.667        0.091      106.374       13.774        0.017      333.040        2.097      875.064
01/10/2022  19:07:00      -93.129       17.099      -16.446       41.680       24.715       27.569     1737.253      610.845      760.061        0.617        0.155       94.686       27.712        0.086      332.965        1.971      875.082
01/10/2022  19:08:00      -81.250       23.849       -3.292       44.203       34.402       26.296     1953.899     1183.527      691.488        0.550        0.191       84.678       24.809        0.086      332.955        1.954      875.101
01/10/2022  19:09:00     -103.678       46.851      -10.732       33.350       36.660       22.166     1112.208     1343.938      491.339        0.800        0.147      113.773       17.028        0.022      332.911        1.882      875.120
01/10/2022  19:10:00     -127.706       55.336       -4.078       32.450       28.984       17.285     1052.985      840.066      298.770        1.079        0.110      139.180       14.062        0.010      332.969        1.979      875.120
01/10/2022  19:11:00      -98.264       24.010       -2.605       51.953       39.226       22.961     2699.144     1538.646      527.223        0.750        0.238      101.155       19.034        0.035      333.049        2.110      875.106
01/10/2022  19:12:00      -59.534       17.140      -14.650       51.601       26.829       21.171     2662.675      719.775      448.193        0.394        0.192       61.952       16.727        0.073      332.973        1.986      875.095
01/10/2022  19:13:00      -73.806       35.306       -8.553       46.553       34.797       23.078     2167.162     1210.826      532.593        0.534        0.196       81.816       17.186        0.044      332.869        1.812      875.088
01/10/2022  19:14:00      -23.622        0.316       -4.295       25.738       25.022       16.068      662.439      626.110      258.190        0.106        0.077       23.624       17.596        0.555      332.884        1.838      875.092
01/10/2022  19:15:00      -24.782       24.139      -10.690       19.784       20.486       19.022      391.409      419.672      361.840        0.124        0.059       34.595        9.618        0.077      332.929        1.913      875.082
01/10/2022  19:16:00      -11.410       21.524      -13.597       12.267       13.722        9.540      150.475      188.304       91.004        0.060        0.021       24.361        2.985        0.015      333.335        2.584      875.071
01/10/2022  19:17:00      -18.975       -4.568       -6.490       15.605       13.058       10.801      243.516      170.507      116.651        0.048        0.027       19.517        9.682        0.246      333.200        2.360      875.061
01/10/2022  19:18:00      -36.471       -6.120      -13.138       14.926       16.229       13.831      222.787      263.378      191.298        0.111        0.034       36.981        9.325        0.064      333.093        2.183      875.063
01/10/2022  19:19:00      -27.922        0.348       -6.441       17.228       19.797        8.995      296.796      391.941       80.904        0.080        0.038       27.924        9.662        0.120      332.902        1.868      875.079
01/10/2022  19:20:00      -16.801       -8.076       -2.953       12.136       13.179       13.053      147.288      173.697      170.384        0.042        0.025       18.642        7.700        0.171      332.958        1.959      875.115
01/10/2022  19:21:00      -19.904       -3.684       -5.743       14.008       19.981       11.507      196.223      399.226      132.412        0.059        0.036       20.242       11.317        0.313      332.902        1.868      875.155
01/10/2022  19:22:00      -50.118       13.483      -13.317       19.251       16.766       13.597      370.598      281.090      184.872        0.185        0.042       51.900        4.402        0.007      332.975        1.987      875.184
01/10/2022  19:23:00      -41.518       -0.397       -8.806       17.708       18.250       20.119      313.570      333.044      404.768        0.143        0.053       41.520       10.923        0.069      332.913        1.885      875.205
01/10/2022  19:24:00        6.100        3.736        1.650       20.158       14.006       13.258      406.351      196.159      175.780        0.042        0.039        7.153       10.036        1.969      332.877        1.827      875.221
01/10/2022  19:25:00      -53.145       15.354      -12.477       26.671       20.692       14.896      711.335      428.148      221.893        0.229        0.068       55.319       12.658        0.052      332.902        1.868      875.238
01/10/2022  19:26:00      -64.615       10.451      -21.130       29.787       24.539       18.447      887.278      602.164      340.274        0.328        0.091       65.455       16.547        0.064      332.875        1.824      875.241
01/10/2022  19:27:00      -76.250       29.070      -21.529       28.666       23.377       17.015      821.737      546.476      289.520        0.439        0.083       81.604       12.405        0.023      332.884        1.837      875.252
01/10/2022  19:28:00      -82.608       25.479      -19.404       11.182        9.196        7.838      125.032       84.563       61.436        0.406        0.014       86.448        4.247        0.002      332.897        1.859      875.247
01/10/2022  19:29:00      -89.949       28.652      -18.783       13.170        8.738       11.312      173.448       76.354      127.955        0.482        0.019       94.402        3.427        0.001      332.944        1.936      875.245
01/10/2022  19:30:00      -56.471       16.936      -16.086       21.890       22.144       16.806      479.188      490.376      282.450        0.249        0.063       58.955        9.388        0.025      332.956        1.956      875.260
01/10/2022  19:31:00      -63.695        7.860      -24.712       20.104       12.049       15.185      404.160      145.189      230.581        0.275        0.039       64.179        9.579        0.022      332.955        1.957      875.289
01/10/2022  19:32:00      -64.513        9.907      -14.651       31.872       26.165       20.549     1015.842      684.632      422.264        0.330        0.106       65.269       13.952        0.046      332.912        1.883      875.329
01/10/2022  19:33:00      -68.220       -0.620      -14.411       38.578       33.484       26.626     1488.240     1121.193      708.940        0.409        0.166       68.222       26.684        0.153      332.776        1.660      875.372
01/10/2022  19:34:00      -56.436       -8.860      -11.576       37.254       20.661       34.585     1387.848      426.897     1196.138        0.320        0.151       57.127       29.636        0.269      332.740        1.601      875.398
01/10/2022  19:35:00       -7.509        9.170       -4.322       33.413       30.569       24.353     1116.411      934.464      593.072        0.140        0.132       11.852       13.556        1.308      332.763        1.639      875.427
01/10/2022  19:36:00       -9.148        3.604       -1.103       26.292       24.425       22.194      691.251      596.579      492.565        0.094        0.089        9.832       19.055        3.756      332.689        1.515      875.456
01/10/2022  19:37:00      -38.554       11.431      -10.365       53.979       29.866       26.403     2913.761      891.972      697.128        0.311        0.225       40.213       29.105        0.524      332.635        1.427      875.481
01/10/2022  19:38:00      -43.263        9.700       -1.295       33.927       31.350       24.560     1151.067      982.830      603.191        0.235        0.137       44.337       20.506        0.214      332.658        1.464      875.492
01/10/2022  19:39:00      -61.515        7.345      -11.049       28.975       21.893       17.929      839.551      479.286      321.447        0.280        0.082       61.952       15.009        0.059      332.679        1.499      875.502
01/10/2022  19:40:00      -87.718       23.986      -13.783       19.358       18.405       17.969      374.747      338.733      322.887        0.475        0.052       90.938        6.693        0.005      332.624        1.408      875.499
01/10/2022  19:41:00      -47.040        7.196       -2.870       38.316       27.506       17.467     1468.120      756.588      305.110        0.240        0.126       47.587       17.852        0.141      332.650        1.452      875.499
01/10/2022  19:42:00       -7.315       10.269       -5.251       18.127       17.917       16.535      328.598      321.027      273.396        0.055        0.046       12.608       13.592        1.162      332.567        1.314      875.486
01/10/2022  19:43:00      -46.706        9.954      -18.138       51.900       27.113       19.195     2693.611      735.114      368.460        0.320        0.190       47.755       18.454        0.149      332.624        1.408      875.463
01/10/2022  19:44:00     -101.432       22.634      -14.730       25.910       17.173       15.268      671.332      294.899      233.112        0.611        0.060      103.927       12.493        0.014      332.602        1.372      875.434
01/10/2022  19:45:00      -97.147       16.747      -12.339       26.427       17.713       12.848      698.370      313.753      165.063        0.552        0.059       98.580       12.538        0.016      332.662        1.471      875.411
01/10/2022  19:46:00      -46.507        3.984       -3.837       30.430       29.908       19.864      926.002      894.515      394.578        0.220        0.111       46.677       13.628        0.085      332.688        1.514      875.410
01/10/2022  19:47:00      -31.695        2.324      -11.499       18.399       17.093       13.491      338.526      292.170      181.999        0.098        0.041       31.781       10.465        0.108      332.663        1.472      875.412
01/10/2022  19:48:00      -81.830       29.058      -10.050       18.444       17.826       12.211      340.192      317.771      149.119        0.422        0.040       86.836        7.116        0.007      332.598        1.366      875.412
01/10/2022  19:49:00      -78.711       17.134      -12.325       17.389       17.375       15.101      302.363      301.896      228.045        0.374        0.042       80.554        6.542        0.007      332.607        1.380      875.400
01/10/2022  19:50:00      -39.116       12.415       -7.868       27.012       24.263       13.631      729.651      588.674      185.811        0.162        0.075       41.039       12.055        0.086      332.496        1.196      875.380
01/10/2022  19:51:00       -1.771       15.728      -11.130       14.407       17.061       12.747      207.566      291.061      162.486        0.052        0.033       15.828        7.025        0.197      332.483        1.175      875.350
01/10/2022  19:52:00        0.006       -3.720       -9.645        7.859       13.352       10.803       61.769      178.273      116.703        0.023        0.018        3.720        4.422        1.413      332.472        1.155      875.327
01/10/2022  19:53:00      -15.004       19.589       -9.548       13.846       24.893       19.016      191.700      619.638      361.625        0.094        0.059       24.675       15.911        0.416      332.505        1.212      875.317
01/10/2022  19:54:00      -21.807      -12.681       -7.275       26.366       15.783       17.584      695.165      249.112      309.205        0.097        0.063       25.226       18.039        0.511      332.477        1.163      875.316
01/10/2022  19:55:00      -26.735        3.639       -9.476       18.095       16.774       14.583      327.432      281.355      212.668        0.082        0.041       26.982       11.330        0.176      332.531        1.253      875.333
01/10/2022  19:56:00      -17.655       11.679       -7.484       17.401       16.588       13.221      302.811      275.162      174.790        0.063        0.038       21.169       10.121        0.229      332.539        1.268      875.351
01/10/2022  19:57:00      -45.304        4.072      -10.775       30.525       22.504       16.926      931.756      506.414      286.478        0.195        0.086       45.487       11.398        0.063      332.557        1.296      875.386
01/10/2022  19:58:00      -86.463       19.481      -20.075       29.839       22.771       17.600      890.369      518.538      309.758        0.499        0.086       88.630       12.009        0.018      332.549        1.284      875.429
01/10/2022  19:59:00      -77.311       11.472       -9.733       34.125       30.218       24.156     1164.517      913.151      583.492        0.443        0.133       78.158       22.539        0.083      332.482        1.173      875.490
01/10/2022  20:00:00     -119.109       40.685      -16.506       45.934       26.182       21.486     2109.893      685.522      461.666        0.969        0.163      125.866       15.228        0.015      332.410        1.055      875.555
01/10/2022  20:01:00     -159.384       60.578       -6.960       60.037       41.498       26.681     3604.418     1722.079      711.872        1.758        0.302      170.508       18.496        0.012      332.459        1.134      875.622
01/10/2022  20:02:00     -118.909       51.171       -3.598       49.583       35.198       28.468     2458.507     1238.865      810.431        1.064        0.225      129.452       20.065        0.024      332.456        1.130      875.677
01/10/2022  20:03:00     -105.299       30.062       -4.769       41.100       31.769       21.950     1689.179     1009.283      481.781        0.760        0.159      109.506       21.393        0.038      332.391        1.023      875.717
01/10/2022  20:04:00      -77.952        7.214        2.373       35.081       26.085       21.398     1230.694      680.443      457.875        0.425        0.118       78.285       17.371        0.049      332.368        0.985      875.727
01/10/2022  20:05:00      -90.464       16.330       -9.730       37.726       22.029       18.995     1423.230      485.267      360.796        0.541        0.113       91.926       19.202        0.044      332.421        1.072      875.707
01/10/2022  20:06:00      -91.198       23.267       -9.369       21.367       19.182       16.778      456.530      367.948      281.510        0.503        0.055       94.119       13.331        0.020      332.404        1.045      875.678
01/10/2022  20:07:00      -83.381       21.529       -5.799       23.661       23.256       17.486      559.832      540.826      305.774        0.443        0.070       86.116       13.820        0.026      332.412        1.057      875.650
01/10/2022  20:08:00      -89.950       18.069      -13.616       47.312       23.735       18.545     2238.400      563.368      343.902        0.587        0.157       91.747       21.701        0.056      332.426        1.080      875.640
01/10/2022  20:09:00     -100.760       32.699      -14.053       23.896       30.124       17.973      571.043      907.477      323.022        0.661        0.090      105.933        9.835        0.009      332.391        1.022      875.649
01/10/2022  20:10:00      -68.732        0.148      -16.663       42.266       31.961       19.752     1786.389     1021.492      390.134        0.410        0.160       68.732       14.212        0.043      332.443        1.109      875.660
01/10/2022  20:11:00      -52.608       25.798       -6.930       49.807       32.285       23.846     2480.741     1042.315      568.619        0.379        0.205       58.593       24.925        0.181      332.332        0.925      875.671
01/10/2022  20:12:00      -72.151        2.123       -3.350       49.550       30.651       24.590     2455.231      939.480      604.651        0.461        0.200       72.182       18.193        0.064      332.378        1.000      875.666
01/10/2022  20:13:00     -114.950       16.907       -9.103       32.408       23.835       18.748     1050.310      568.092      351.475        0.778        0.098      116.187       16.847        0.021      332.485        1.179      875.621
01/10/2022  20:14:00      -45.971       -3.636        2.716       43.423       30.107       22.040     1885.574      906.423      485.763        0.271        0.164       46.115       18.910        0.168      332.438        1.100      875.558
01/10/2022  20:15:00      -23.389        4.399        0.849       29.155       24.255       23.957      850.029      588.288      573.929        0.129        0.101       23.799       19.792        0.692      332.424        1.077      875.527
01/10/2022  20:16:00      -19.910        1.646       -0.724       28.198       18.943       18.936      795.115      358.820      358.566        0.096        0.076       19.978       18.434        0.851      332.454        1.127      875.499
01/10/2022  20:17:00      -23.343      -10.547       -0.538       28.203       21.715       17.514      795.397      471.535      306.724        0.111        0.079       25.615       15.167        0.351      332.615        1.393      875.476
01/10/2022  20:18:00        0.735       -2.061       -2.472       19.686        8.822       10.879      387.538       77.826      118.352        0.030        0.029        2.188        8.588       15.401      332.646        1.447      875.466
01/10/2022  20:19:00      -13.124       -6.740        1.772       25.672       15.996       12.734      659.057      255.862      162.158        0.065        0.054       14.754       12.088        0.671      332.569        1.317      875.455
01/10/2022  20:20:00      -36.612        3.914       -0.594       29.204       23.081       14.725      852.871      532.754      216.840        0.148        0.080       36.821        7.723        0.044      332.583        1.341      875.454
01/10/2022  20:21:00      -23.512        0.051       -4.673       25.859       24.788       14.205      668.699      614.467      201.780        0.103        0.074       23.512       11.300        0.231      332.500        1.203      875.450
01/10/2022  20:22:00      -64.837      -18.169       -1.913       30.929       26.618       20.555      956.610      708.516      422.493        0.331        0.104       67.335       15.966        0.056      332.473        1.159      875.451
01/10/2022  20:23:00      -27.040       15.690       -0.652       27.050       24.570       19.566      731.714      603.673      382.835        0.135        0.086       31.263       11.771        0.142      332.452        1.124      875.453
01/10/2022  20:24:00      -70.854       11.964        1.715       36.627       27.693       18.830     1341.508      766.906      354.561        0.381        0.123       71.857       14.595        0.041      332.430        1.087      875.454
01/10/2022  20:25:00      -32.868       -4.671        1.054       40.605       34.369       21.360     1648.805     1181.262      456.266        0.219        0.164       33.199       15.122        0.207      332.519        1.234      875.457
01/10/2022  20:26:00      -69.578       -3.908       -3.646       47.646       30.306       23.181     2270.099      918.472      537.376        0.430        0.186       69.688        8.479        0.015      332.544        1.275      875.454
01/10/2022  20:27:00      -82.271        4.585        0.205       52.770       28.696       21.409     2784.680      823.452      458.331        0.543        0.203       82.399       20.358        0.061      332.466        1.145      875.451
01/10/2022  20:28:00      -90.015       19.527        2.052       36.421       31.285       25.555     1326.506      978.725      653.071        0.572        0.148       92.108       19.498        0.045      332.430        1.088      875.450
01/10/2022  20:29:00      -67.645       12.823       -0.076       32.892       27.620       22.148     1081.867      762.850      490.538        0.354        0.117       68.849       13.034        0.036      332.332        0.926      875.445
01/10/2022  20:30:00      -73.171       -7.485       -2.555       40.093       33.583       24.429     1607.484     1127.836      596.777        0.437        0.167       73.553       10.111        0.019      332.398        1.034      875.448
01/10/2022  20:31:00      -69.835        8.832       -0.415       50.191       23.638       21.657     2519.163      558.770      469.012        0.425        0.177       70.391       21.010        0.089      332.499        1.201      875.454
01/10/2022  20:32:00      -53.748       -5.491        1.663       53.252       27.714       27.308     2835.758      768.067      745.701        0.363        0.217       54.027       28.480        0.278      332.367        0.983      875.459
01/10/2022  20:33:00      -58.051        4.811        1.095       55.713       26.137       26.629     3103.982      683.154      709.111        0.394        0.225       58.250       30.151        0.268      332.411        1.054      875.471
01/10/2022  20:34:00      -86.770        4.815       -5.514       46.395       34.811       28.776     2152.524     1211.820      828.065        0.589        0.210       86.903       27.771        0.102      332.424        1.077      875.466
01/10/2022  20:35:00     -104.563      -29.949       -4.559       52.072       27.311       27.888     2711.504      745.916      777.762        0.804        0.212      108.768       24.190        0.049      332.406        1.046      875.462
01/10/2022  20:36:00      -87.819      -19.792        1.022       55.892       31.724       27.733     3123.901     1006.415      769.104        0.650        0.245       90.022       28.524        0.100      332.376        0.999      875.455
01/10/2022  20:37:00      -26.475       13.251        7.019       43.200       25.692       20.345     1866.258      660.066      413.909        0.193        0.147       29.606       18.986        0.411      332.400        1.038      875.453
01/10/2022  20:38:00      -68.349        0.010       -9.631       38.076       32.881       20.372     1449.780     1081.193      415.032        0.385        0.147       68.349       17.625        0.066      332.410        1.054      875.454
01/10/2022  20:39:00      -69.659       -8.924       -8.099       40.703       30.348       23.194     1656.705      920.980      537.969        0.406        0.156       70.229       17.854        0.065      332.359        0.970      875.446
01/10/2022  20:40:00       -7.958        0.691        2.502       27.698       28.827       20.501      767.196      831.015      420.282        0.104        0.101        7.988       13.095        2.688      332.334        0.929      875.441
01/10/2022  20:41:00      -54.121       13.495       -4.386       60.339       28.162       20.359     3640.816      793.118      414.477        0.399        0.242       55.778        8.040        0.021      332.374        0.996      875.442
01/10/2022  20:42:00      -87.400       18.188        3.556       52.324       37.432       20.281     2737.796     1401.179      411.322        0.627        0.228       89.273       24.814        0.077      332.385        1.012      875.428
01/10/2022  20:43:00      -99.928        6.170       -7.237       52.489       26.659       27.340     2755.134      710.710      747.469        0.714        0.211      100.118       17.928        0.032      332.360        0.971      875.397
01/10/2022  20:44:00      -76.727        3.220       -6.996       40.769       21.296       19.781     1662.131      453.537      391.278        0.423        0.125       76.794       20.246        0.070      332.256        0.799      875.364
01/10/2022  20:45:00      -58.281       -6.443      -19.954       31.048       16.653       13.403      964.003      277.313      179.643        0.263        0.071       58.636        9.663        0.027      332.304        0.880      875.324
01/10/2022  20:46:00      -22.509        6.613      -13.095       11.748       14.375       12.099      138.024      206.639      146.381        0.061        0.025       23.460        6.567        0.078      332.241        0.775      875.279
01/10/2022  20:47:00      -43.566       10.756      -14.610       10.103        7.977        8.697      102.066       63.629       75.631        0.123        0.012       44.874        0.890        0.000      332.250        0.791      875.237
01/10/2022  20:48:00      -75.329       15.092      -17.745       15.702        9.187        9.433      246.541       84.409       88.981        0.332        0.021       76.826        5.166        0.005      332.308        0.886      875.211
01/10/2022  20:49:00      -59.210       17.587      -11.211       14.676       16.363       13.956      215.394      267.734      194.777        0.231        0.034       61.767        7.403        0.014      332.328        0.918      875.191
01/10/2022  20:50:00      -71.936       17.432       -9.833       15.678       14.084       10.877      245.788      198.363      118.299        0.307        0.028       74.018        7.157        0.009      332.348        0.951      875.194
01/10/2022  20:51:00      -74.723       17.151       -7.755       14.295       15.547       11.335      204.346      241.701      128.489        0.326        0.029       76.666        7.749        0.010      332.297        0.869      875.220
01/10/2022  20:52:00      -92.928       30.493      -15.806       20.246       17.209       10.276      409.914      296.162      105.589        0.531        0.041       97.803        6.629        0.005      332.242        0.777      875.259
01/10/2022  20:53:00     -114.276       40.693      -17.112       22.031       14.375       13.980      485.364      206.631      195.453        0.795        0.044      121.306       13.063        0.012      332.103        0.548      875.316
01/10/2022  20:54:00     -103.144       17.699      -20.203       27.516       20.277       12.610      757.107      411.149      159.000        0.634        0.066      104.652        7.848        0.006      332.087        0.522      875.363
01/10/2022  20:55:00      -95.002       18.705       -3.249       45.193       25.373       26.299     2042.410      643.789      691.631        0.638        0.169       96.826       19.773        0.042      332.016        0.404      875.402
01/10/2022  20:56:00      -75.370       10.191       -7.783       53.888       24.775       22.381     2903.913      613.790      500.897        0.493        0.201       76.055       22.882        0.091      332.029        0.425      875.413
01/10/2022  20:57:00      -70.256        2.746      -19.596       22.468       23.979       17.560      504.831      575.004      308.357        0.336        0.069       70.310        9.493        0.018      331.915        0.237      875.412
01/10/2022  20:58:00      -98.349       10.345      -17.410       26.135       17.476       14.378      683.030      305.424      206.728        0.564        0.060       98.891       11.626        0.014      332.026        0.419      875.392
01/10/2022  20:59:00      -95.702       24.271      -14.038       23.707       16.123       16.900      562.017      259.955      285.626        0.553        0.055       98.731       13.227        0.018      331.959        0.311      875.382
01/10/2022  21:00:00     -105.429       17.218      -14.333       29.225       26.016       16.662      854.116      676.819      277.629        0.671        0.090      106.826       17.186        0.026      331.953        0.302      875.352
01/10/2022  21:01:00     -105.826       30.344      -19.699       18.100       19.972       13.182      327.602      398.885      173.777        0.670        0.045      110.090       10.751        0.010      331.944        0.286      875.367
01/10/2022  21:02:00      -87.793       24.658      -15.164       23.267       23.179       17.534      541.356      537.243      307.444        0.497        0.069       91.191       11.037        0.015      331.878        0.177      875.396
01/10/2022  21:03:00     -104.474       25.942      -20.937       20.525       17.929       16.891      421.281      321.433      285.320        0.653        0.051      107.646        7.167        0.004      331.887        0.192      875.401
01/10/2022  21:04:00      -44.090       -1.594      -12.472       28.127       19.877       19.540      791.106      395.095      381.828        0.183        0.078       44.118       19.515        0.196      331.982        0.348      875.375
01/10/2022  21:05:00      -57.792       13.474      -22.332       29.050       25.038       22.134      843.892      626.881      489.919        0.299        0.098       59.342       16.567        0.078      331.954        0.304      875.341
01/10/2022  21:06:00      -57.543       11.216      -18.018       33.408       27.733       29.579     1116.081      769.122      874.906        0.326        0.138       58.626       21.461        0.134      331.940        0.280      875.324
01/10/2022  21:07:00      -65.773        8.725      -11.622       43.182       31.063       19.396     1864.722      964.882      376.196        0.387        0.160       66.350       15.482        0.054      331.949        0.294      875.331
01/10/2022  21:08:00     -123.802       21.782      -11.570       29.197       21.070       17.079      852.467      443.927      291.696        0.876        0.079      125.704       14.623        0.014      331.934        0.271      875.365
01/10/2022  21:09:00     -121.044       20.256      -10.715       22.047       15.756       19.214      486.089      248.263      369.181        0.814        0.055      122.727       14.402        0.014      331.907        0.224      875.409
01/10/2022  21:10:00     -123.285       21.132       -8.006       27.986       19.601       19.086      783.210      384.212      364.271        0.862        0.077      125.083       15.993        0.016      331.905        0.221      875.439
01/10/2022  21:11:00     -103.522        7.371       -8.993       37.879       29.137       19.039     1434.836      848.948      362.487        0.675        0.132      103.784        9.660        0.009      331.922        0.249      875.449
01/10/2022  21:12:00     -118.167       39.167      -16.252       21.404       27.135       19.661      458.134      736.301      386.540        0.867        0.079      124.489       12.916        0.011      331.865        0.158      875.448
01/10/2022  21:13:00      -93.069       17.515       -9.842       25.213       27.589       16.644      635.683      761.139      277.009        0.537        0.084       94.703       10.186        0.012      331.913        0.234      875.452
01/10/2022  21:14:00      -87.044       18.349      -11.495       28.308       23.421       17.109      801.337      548.556      292.727        0.484        0.082       88.957       11.648        0.017      331.954        0.302      875.470
01/10/2022  21:15:00     -105.115       18.905      -19.809       14.902       12.069       12.673      222.081      145.669      160.614        0.616        0.026      106.802        4.473        0.002      331.859        0.146      875.481
01/10/2022  21:16:00      -98.735       28.214       -4.621       46.260       27.902       21.420     2139.969      778.510      458.797        0.697        0.169      102.687       22.697        0.049      331.833        0.106      875.493
01/10/2022  21:17:00     -123.355       40.304      -13.030       41.762       32.643       25.988     1744.040     1065.588      675.365        1.025        0.174      129.772       17.798        0.019      331.805        0.056      875.494
01/10/2022  21:18:00      -74.205       -5.278      -22.610       47.392       37.786       21.563     2246.044     1427.804      464.944        0.509        0.207       74.393       21.472        0.083      331.801        0.051      875.470
01/10/2022  21:19:00      -43.202      -13.511      -13.307       43.560       43.015       18.738     1897.487     1850.309      351.095        0.316        0.205       45.266       16.010        0.125      331.827        0.094      875.435
01/10/2022  21:20:00      -69.034       -6.415      -20.127       46.761       24.753       22.559     2186.572      612.702      508.899        0.426        0.165       69.331       19.025        0.075      331.799        0.049      875.408
01/10/2022  21:21:00      -75.090        6.554      -20.518       22.602       21.104       15.966      510.829      445.363      254.900        0.366        0.061       75.375        5.462        0.005      331.770        0.002      875.387
01/10/2022  21:22:00      -64.671       12.762      -10.649       40.759       25.530       23.612     1661.303      651.767      557.532        0.366        0.144       65.919       19.326        0.086      331.835        0.108      875.381
01/10/2022  21:23:00      -59.225        6.728      -17.247       45.207       27.488       22.294     2043.690      755.563      497.005        0.357        0.165       59.606       24.715        0.172      331.821        0.084      875.391
01/10/2022  21:24:00      -88.680       28.243      -24.207       13.486       21.715       13.983      181.865      471.523      195.526        0.505        0.042       93.069        5.396        0.003      331.824        0.089      875.410
01/10/2022  21:25:00      -53.589        7.848      -11.329       33.498       22.935       20.617     1122.088      526.002      425.060        0.257        0.104       54.161       14.900        0.076      331.888        0.194      875.428
01/10/2022  21:26:00      -84.401        8.216      -23.904       18.795       21.630       17.298      353.259      467.843      299.214        0.444        0.056       84.799       10.621        0.016      331.921        0.247      875.448
01/10/2022  21:27:00      -71.153       -5.971      -15.614       35.292       29.003       22.179     1245.545      841.168      491.918        0.396        0.129       71.403       23.252        0.106      331.855        0.140      875.458
01/10/2022  21:28:00      -94.049       19.065      -10.568       48.095       26.536       23.804     2313.148      704.155      566.616        0.645        0.179       95.962       16.268        0.029      331.864        0.155      875.467
01/10/2022  21:29:00      -83.077       21.930       -8.855       30.439       26.630       13.107      926.540      709.134      171.806        0.463        0.090       85.922       13.783        0.026      331.873        0.169      875.470
01/10/2022  21:30:00      -77.783        5.637      -20.872       25.738       20.500       16.959      662.444      420.250      287.601        0.394        0.069       77.987       16.020        0.042      331.912        0.233      875.472
01/10/2022  21:31:00      -89.690       14.097      -17.618       19.449       14.255       14.844      378.263      203.203      220.335        0.468        0.040       90.791        9.597        0.011      331.905        0.222      875.463
01/10/2022  21:32:00     -106.069       20.199      -23.038       13.686       11.560       11.768      187.319      133.626      138.489        0.632        0.023      107.975        6.871        0.004      331.834        0.106      875.460
01/10/2022  21:33:00      -97.969       14.835      -16.800       32.382       32.371       18.269     1048.616     1047.889      333.752        0.626        0.122       99.086        8.788        0.008      331.891        0.200      875.457
01/10/2022  21:34:00      -96.492       16.908       -3.980       39.332       27.689       22.213     1547.035      766.698      493.429        0.621        0.140       97.962       21.970        0.050      331.839        0.114      875.468
01/10/2022  21:35:00      -57.056        6.140       -3.701       50.262       26.370       18.972     2526.244      695.359      359.955        0.344        0.179       57.386       17.044        0.088      331.822        0.085      875.484
01/10/2022  21:36:00      -32.941       20.848       -9.611       38.479       21.321       16.013     1480.623      454.598      256.402        0.190        0.110       38.984       14.978        0.148      331.778        0.013      875.517
01/10/2022  21:37:00     -103.972       47.879      -13.244       35.522       24.219       22.395     1261.802      586.569      501.527        0.781        0.117      114.467       16.151        0.020      331.739       -0.052      875.549
01/10/2022  21:38:00     -123.582       39.484       -1.045       41.213       33.149       25.424     1698.505     1098.849      646.358        1.014        0.172      129.737       21.027        0.026      331.708       -0.103      875.567
01/10/2022  21:39:00      -98.206       34.598       -5.574       41.079       33.196       20.960     1687.459     1101.982      439.332        0.705        0.161      104.122       20.040        0.037      331.686       -0.138      875.565
01/10/2022  21:40:00      -99.439       28.002      -17.125       37.084       30.171       19.839     1375.204      910.305      393.600        0.682        0.134      103.306        6.831        0.004      331.733       -0.059      875.547
01/10/2022  21:41:00      -61.536       10.841      -12.641       45.238       28.783       26.216     2046.500      828.438      687.264        0.381        0.178       62.483       24.237        0.150      331.709       -0.099      875.510
01/10/2022  21:42:00      -67.493       34.974       -8.111       34.869       22.750       20.972     1215.835      517.548      439.810        0.401        0.109       76.016       20.771        0.075      331.718       -0.085      875.471
01/10/2022  21:43:00      -28.172        5.947       -7.621       26.987       24.634       16.831      728.279      606.810      283.273        0.125        0.081       28.793       10.850        0.142      331.766       -0.007      875.453
01/10/2022  21:44:00      -31.066        2.713      -13.843       26.924       23.485       21.975      724.890      551.546      482.881        0.146        0.088       31.184        7.594        0.059      331.783        0.022      875.459
01/10/2022  21:45:00      -40.927       26.396      -10.157       22.629       18.260       15.955      512.071      333.430      254.561        0.179        0.055       48.701        8.226        0.029      331.752       -0.028      875.482
01/10/2022  21:46:00      -79.120       16.756      -16.174       22.117       20.317       12.139      489.181      412.762      147.347        0.393        0.052       80.875        7.865        0.009      331.765       -0.010      875.513
01/10/2022  21:47:00      -61.205        3.743      -13.425       27.829       21.109       19.789      774.444      445.606      391.592        0.278        0.081       61.319       17.786        0.084      331.774        0.006      875.536
01/10/2022  21:48:00      -78.360       26.257      -17.888       21.184       18.752       15.477      448.769      351.650      239.547        0.409        0.052       82.642        5.333        0.004      331.748       -0.035      875.546
01/10/2022  21:49:00      -75.213       19.914      -15.133       16.068       17.920       13.526      258.175      321.109      182.955        0.352        0.038       77.805        8.170        0.011      331.726       -0.073      875.536
01/10/2022  21:50:00      -48.764        4.500      -11.820       30.626       25.027       15.233      937.952      626.361      232.035        0.217        0.090       48.972       11.549        0.056      331.832        0.102      875.524
01/10/2022  21:51:00      -26.414        2.174       -1.978       27.384       23.347       17.171      749.868      545.072      294.827        0.115        0.079       26.504       15.716        0.352      331.854        0.137      875.531
01/10/2022  21:52:00      -24.380       10.048        0.081       22.155       23.226       19.373      490.844      539.435      375.297        0.105        0.070       26.370       13.851        0.276      331.845        0.123      875.557
01/10/2022  21:53:00      -89.596       10.128      -12.672       36.734       16.897       19.656     1349.376      285.498      386.339        0.516        0.101       90.167       18.033        0.040      331.788        0.030      875.590
01/10/2022  21:54:00     -104.396       26.339       -9.088       43.709       24.140       16.842     1910.495      582.726      283.641        0.723        0.139      107.667       14.066        0.017      331.795        0.041      875.615
01/10/2022  21:55:00     -113.226       17.177      -10.790       26.051       23.115       18.634      678.656      534.316      347.226        0.740        0.078      114.522       13.624        0.014      331.799        0.046      875.646
01/10/2022  21:56:00      -96.008       10.353      -10.691       34.755       26.882       20.005     1207.899      722.621      400.192        0.588        0.117       96.565       15.131        0.025      331.747       -0.038      875.662
01/10/2022  21:57:00       -9.676       11.691        3.702       27.882       20.422       19.876      777.379      417.043      395.065        0.092        0.079       15.176       14.162        0.871      331.622       -0.243      875.653
01/10/2022  21:58:00      -40.629       11.286       -9.069       45.777       21.228       22.195     2095.521      450.624      492.629        0.245        0.152       42.167       24.130        0.327      331.672       -0.160      875.635
01/10/2022  21:59:00      -60.666       15.941       -3.844       49.521       28.670       18.953     2452.290      821.995      359.226        0.379        0.182       62.725       20.659        0.108      331.689       -0.133      875.618
01/10/2022  22:00:00      -74.306       12.615      -10.072       47.782       38.626       20.107     2283.135     1491.935      404.275        0.498        0.209       75.369       11.459        0.023      331.766       -0.008      875.622
01/10/2022  22:01:00      -79.172        3.422      -16.411       45.784       38.181       26.097     2096.158     1457.787      681.069        0.539        0.212       79.246       17.505        0.049      331.729       -0.067      875.644
01/10/2022  22:02:00      -79.329       24.048       -2.266       33.650       20.674       19.943     1132.323      427.434      397.742        0.442        0.098       82.893       15.190        0.034      331.774        0.006      875.650
01/10/2022  22:03:00      -99.311       23.292       -7.937       25.988       17.656       17.194      675.395      311.727      295.627        0.588        0.064      102.006       14.411        0.020      331.712       -0.096      875.657
01/10/2022  22:04:00      -60.400       19.975       -6.960       36.616       18.909       14.765     1340.753      357.566      218.014        0.301        0.096       63.617       16.487        0.067      331.769       -0.002      875.651
01/10/2022  22:05:00      -63.203        4.370       -8.386       25.361       20.453       14.525      643.184      418.315      210.976        0.268        0.064       63.354       13.598        0.046      331.875        0.172      875.626
01/10/2022  22:06:00      -34.216        3.261       -0.559       33.227       18.456       15.263     1104.052      340.620      232.947        0.143        0.084       34.371       15.381        0.200      331.888        0.194      875.580
01/10/2022  22:07:00      -24.310        4.648       -3.444       19.311       13.026       12.045      372.899      169.673      145.083        0.066        0.034       24.751        5.924        0.057      331.865        0.156      875.531
01/10/2022  22:08:00      -36.970        5.993       -6.171       23.545       16.702       11.308      554.369      278.964      127.861        0.120        0.048       37.453        9.268        0.061      331.881        0.182      875.503
01/10/2022  22:09:00      -62.508       12.280       -9.572       13.461       12.250       11.971      181.194      150.062      143.310        0.231        0.024       63.703        6.117        0.009      331.856        0.142      875.495
01/10/2022  22:10:00      -59.927       11.001      -13.280       17.595       17.962       14.296      309.582      322.650      204.382        0.236        0.042       60.929       10.495        0.030      331.903        0.219      875.518
01/10/2022  22:11:00      -26.744       -7.521       -5.391       17.558       16.334        9.350      308.293      266.797       87.417        0.073        0.033       27.781        3.652        0.017      331.887        0.194      875.544
01/10/2022  22:12:00      -17.627        5.886       -2.752       23.048       23.893       11.131      531.189      570.853      123.902        0.079        0.061       18.584       11.854        0.407      331.874        0.172      875.569
01/10/2022  22:13:00      -70.863        8.068      -15.800       30.136       22.448       11.284      908.185      503.904      127.323        0.344        0.077       71.321        7.575        0.011      331.859        0.147      875.581
01/10/2022  22:14:00     -102.473       16.277      -10.082       20.535       17.365       15.720      421.678      301.543      247.109        0.592        0.049      103.758       10.427        0.010      331.795        0.040      875.584
01/10/2022  22:15:00      -99.174       25.439      -12.201       19.050       14.670       12.843      362.894      215.213      164.941        0.569        0.037      102.384        9.660        0.009      331.789        0.029      875.578
01/10/2022  22:16:00      -88.873       23.105      -24.358       15.879       18.667       17.587      252.128      348.438      309.308        0.497        0.045       91.828       10.658        0.013      331.724       -0.074      875.567
01/10/2022  22:17:00      -99.604       17.416      -17.678       25.039       17.626       15.754      626.968      310.671      248.187        0.586        0.059      101.115       13.397        0.018      331.709       -0.101      875.554
01/10/2022  22:18:00      -80.269        6.276       -9.701       23.732       17.973       16.311      563.224      323.036      266.050        0.386        0.058       80.514        6.339        0.006      331.727       -0.070      875.546
01/10/2022  22:19:00      -40.146       -1.271      -12.062       33.510       26.146       21.381     1122.932      683.637      457.135        0.201        0.113       40.166       18.969        0.223      331.686       -0.139      875.550
01/10/2022  22:20:00      -57.882      -19.450      -11.446       36.193       21.566       25.180     1309.943      465.082      634.036        0.313        0.120       61.063       24.453        0.160      331.564       -0.341      875.554
01/10/2022  22:21:00      -44.733      -10.124      -10.932       22.786       23.071       17.675      519.208      532.293      312.399        0.179        0.068       45.864       12.468        0.074      331.646       -0.202      875.559
01/10/2022  22:22:00      -35.934        7.932       -7.968       19.538       22.359       14.901      381.752      499.932      222.027        0.126        0.055       36.799       10.305        0.078      331.648       -0.200      875.566
01/10/2022  22:23:00      -65.914       22.299      -20.373       14.974       12.958       12.981      224.234      167.899      168.497        0.291        0.028       69.583        7.331        0.011      331.613       -0.258      875.579
01/10/2022  22:24:00      -80.007       20.271      -13.580       19.744       24.496       13.214      389.807      600.030      174.606        0.408        0.058       82.535        7.976        0.009      331.603       -0.274      875.592
01/10/2022  22:25:00      -96.890        7.456       -8.132       32.297       22.993       18.475     1043.112      528.698      341.330        0.571        0.096       97.177       12.119        0.016      331.619       -0.249      875.607
01/10/2022  22:26:00      -71.262       17.064       -3.456       28.945       18.734       18.253      837.808      350.978      333.190        0.345        0.076       73.276       16.750        0.052      331.594       -0.290      875.611
01/10/2022  22:27:00      -32.956        7.079       -3.490       48.743       15.036       15.586     2375.898      226.095      242.937        0.200        0.142       33.708       19.574        0.337      331.643       -0.209      875.621
01/10/2022  22:28:00       15.195       -4.678       -4.044       15.630        7.971        6.226      244.296       63.539       38.768        0.031        0.017       15.898        3.302        0.043      331.732       -0.062      875.628
01/10/2022  22:29:00      -15.608      -10.391       -8.328       11.730        8.730        6.302      137.591       76.209       39.713        0.034        0.013       18.750        4.482        0.057      331.786        0.027      875.627
01/10/2022  22:30:00      -33.958        4.537       -7.642       19.794       13.276       11.156      391.813      176.239      124.464        0.096        0.035       34.259        9.744        0.081      331.757       -0.020      875.615
01/10/2022  22:31:00        5.002      -10.631       -8.716        9.072        8.853        7.414       82.305       78.384       54.962        0.021        0.011       11.748        4.420        0.142      331.787        0.028      875.608
01/10/2022  22:32:00      -27.087       -5.645       -9.836       16.386       12.545       11.848      268.485      157.373      140.379        0.071        0.028       27.669        9.351        0.114      331.718       -0.084      875.608
01/10/2022  22:33:00      -33.686        5.264       -9.593       19.949       14.367       11.594      397.972      206.409      134.419        0.100        0.037       34.095        7.687        0.051      331.673       -0.159      875.617
01/10/2022  22:34:00      -43.596        3.210      -13.255       26.629       20.676       15.413      709.095      427.481      237.558        0.173        0.069       43.714       15.056        0.119      331.645       -0.204      875.632
01/10/2022  22:35:00      -76.427       15.761      -10.514       23.730       16.419       15.181      563.110      269.572      230.451        0.363        0.053       78.035       11.152        0.020      331.677       -0.153      875.646
01/10/2022  22:36:00      -82.351       16.144       -9.094       34.063       18.141       16.151     1160.305      329.089      260.849        0.444        0.088       83.919       18.496        0.049      331.604       -0.274      875.649
01/10/2022  22:37:00     -107.899       21.556      -10.286       26.767       20.341       11.642      716.481      413.739      135.532        0.674        0.063      110.031        9.438        0.007      331.584       -0.305      875.659
01/10/2022  22:38:00     -108.321       24.694      -10.777       18.951       13.622       15.177      359.152      185.566      230.344        0.662        0.039      111.100        6.262        0.003      331.520       -0.412      875.665
01/10/2022  22:39:00      -90.116       12.672      -15.869       28.792       15.710       13.113      828.967      246.811      171.961        0.489        0.062       91.003        9.008        0.010      331.491       -0.461      875.666
01/10/2022  22:40:00      -77.015        8.816      -15.944       26.468       19.217       16.099      700.574      369.290      259.185        0.380        0.066       77.518       10.414        0.018      331.551       -0.361      875.661
01/10/2022  22:41:00      -78.448       -0.798      -14.942       25.862       19.331       15.573      668.847      373.673      242.517        0.383        0.064       78.452       14.832        0.036      331.528       -0.400      875.645
01/10/2022  22:42:00      -59.548        7.578       -6.508       39.813       16.621       20.402     1585.052      276.263      416.232        0.296        0.114       60.028       21.174        0.124      331.460       -0.511      875.637
01/10/2022  22:43:00      -51.471        5.129       -2.426       40.768       25.740       17.517     1662.069      662.567      306.839        0.266        0.132       51.726       12.450        0.058      331.443       -0.539      875.637
01/10/2022  22:44:00      -84.782       12.222       -5.587       31.417       22.243       15.901      987.041      494.760      252.850        0.455        0.087       85.659       12.588        0.022      331.505       -0.436      875.630
01/10/2022  22:45:00     -107.618       16.712      -10.374       27.755       21.454       18.649      770.353      460.284      347.780        0.677        0.079      108.907       14.600        0.018      331.467       -0.500      875.640
01/10/2022  22:46:00      -64.057       -0.690       -5.073       34.425       27.233       19.852     1185.075      741.620      394.102        0.322        0.116       64.061       13.817        0.047      331.454       -0.521      875.666
01/10/2022  22:47:00      -31.017       -0.097       -5.848       33.389       27.392       22.505     1114.807      750.314      506.469        0.168        0.119       31.017       18.701        0.364      331.440       -0.544      875.693
01/10/2022  22:48:00      -36.252       -1.506       -5.249       40.220       24.213       22.574     1617.645      586.275      509.592        0.203        0.136       36.283       26.383        0.529      331.451       -0.526      875.714
01/10/2022  22:49:00      -69.661        9.189      -17.678       15.015       15.743       13.884      225.443      247.844      192.770        0.296        0.033       70.264        7.187        0.010      331.402       -0.608      875.721
01/10/2022  22:50:00      -63.674       12.049      -16.678       16.516       18.078       11.313      272.783      326.803      127.995        0.260        0.036       64.803       10.466        0.026      331.430       -0.563      875.713
01/10/2022  22:51:00      -67.169       14.283      -23.240       17.013       12.636       12.649      289.426      159.658      160.004        0.293        0.030       68.671        9.554        0.019      331.489       -0.463      875.695
01/10/2022  22:52:00      -34.094        6.923      -11.554       27.915       12.136       12.044      779.231      147.288      145.046        0.121        0.054       34.790       13.624        0.153      331.507       -0.434      875.680
01/10/2022  22:53:00      -33.710       -4.713       -6.592       29.520       16.366       12.397      871.415      267.852      153.679        0.125        0.065       34.038       12.020        0.125      331.515       -0.421      875.651
01/10/2022  22:54:00      -24.308        1.181       -6.826       17.389       11.629       10.202      302.395      135.231      104.080        0.059        0.027       24.336        8.081        0.110      331.604       -0.273      875.623
01/10/2022  22:55:00      -21.096        0.971       -7.025       18.196       15.780       10.589      331.095      249.007      112.132        0.059        0.035       21.118        8.454        0.160      331.488       -0.466      875.599
01/10/2022  22:56:00      -27.822        2.936       -8.717       23.322       17.259       16.116      543.896      297.873      259.737        0.098        0.055       27.976       14.995        0.287      331.547       -0.367      875.569
01/10/2022  22:57:00        6.003       -6.707       -6.157        9.156       13.547        7.707       83.826      183.515       59.399        0.022        0.016        9.001        4.285        0.227      331.587       -0.302      875.539
01/10/2022  22:58:00      -10.835      -10.060       -6.439       10.553       12.792        9.875      111.357      163.629       97.511        0.032        0.019       14.785        5.471        0.137      331.608       -0.266      875.512
01/10/2022  22:59:00      -31.053      -23.220       -6.822       14.711        9.835        9.889      216.417       96.734       97.791        0.098        0.021       38.774        5.369        0.019      331.628       -0.234      875.494
01/10/2022  23:00:00      -32.822      -19.072      -15.878       14.541       17.262       11.407      211.434      297.991      130.114        0.117        0.032       37.960        8.201        0.047      331.657       -0.186      875.488
01/10/2022  23:01:00      -50.117       -5.947       -9.361       20.948       16.111       13.386      438.815      259.549      179.172        0.176        0.044       50.468        8.909        0.031      331.564       -0.341      875.497
01/10/2022  23:02:00      -37.134       -3.254       -9.502       24.715       20.786       13.421      610.838      432.057      180.133        0.135        0.061       37.276        8.478        0.052      331.515       -0.419      875.514
01/10/2022  23:03:00      -80.125      -16.412       -3.023       25.311       22.887       22.002      640.633      523.802      484.091        0.417        0.082       81.789       10.336        0.016      331.533       -0.391      875.539
01/10/2022  23:04:00      -58.943        4.784       -2.665       25.969       16.064       16.267      674.400      258.038      264.608        0.235        0.060       59.137       11.253        0.036      331.546       -0.369      875.557
01/10/2022  23:05:00      -28.524       -7.568      -10.925       22.542       10.898       13.602      508.163      118.771      185.018        0.090        0.041       29.511       12.327        0.174      331.639       -0.216      875.571
01/10/2022  23:06:00       -4.385      -17.817        6.041       12.376       16.300       11.461      153.158      265.684      131.352        0.046        0.028       18.349        8.360        0.208      331.568       -0.332      875.571
01/10/2022  23:07:00       -8.054       -7.833       -8.207       12.561        9.764        8.701      157.775       95.330       75.702        0.026        0.016       11.235        6.005        0.286      331.541       -0.379      875.571
01/10/2022  23:08:00       -1.679      -15.948      -11.783       13.086       13.612       10.352      171.238      185.298      107.172        0.043        0.023       16.036        9.101        0.322      331.586       -0.303      875.573
01/10/2022  23:09:00      -25.685       -6.605       -2.659       16.362       14.117       11.105      267.706      199.279      123.317        0.065        0.030       26.521        5.262        0.039      331.553       -0.359      875.592
01/10/2022  23:10:00      -21.314        4.929        1.260       19.872       17.676       15.438      394.892      312.455      238.320        0.071        0.047       21.876       12.794        0.342      331.521       -0.411      875.599
01/10/2022  23:11:00      -26.751        2.945       -0.303       32.143       18.347       12.768     1033.142      336.621      163.011        0.113        0.077       26.912       13.129        0.238      331.527       -0.402      875.597
01/10/2022  23:12:00       -5.762      -10.372       -4.244       11.924       12.339       10.262      142.192      152.263      105.312        0.028        0.020       11.865        6.778        0.326      331.528       -0.399      875.591
01/10/2022  23:13:00      -41.580      -10.179       -6.789       29.751       24.013       13.903      885.093      576.625      193.297        0.177        0.083       42.808       10.473        0.060      331.477       -0.484      875.575
01/10/2022  23:14:00      -68.213       -0.449      -13.188       26.901       19.735       16.384      723.683      389.469      268.429        0.310        0.069       68.214       11.502        0.028      331.466       -0.502      875.559
01/10/2022  23:15:00      -33.367       -2.950        2.126       31.073       27.938       19.735      965.535      780.555      389.466        0.163        0.107       33.497       14.048        0.176      331.493       -0.458      875.552
01/10/2022  23:16:00        3.449      -18.976       -4.330       14.089       16.406       13.948      198.503      269.142      194.554        0.053        0.033       19.287        6.640        0.119      331.506       -0.436      875.560
01/10/2022  23:17:00       -6.125        0.802        2.366       15.248       13.781       10.044      232.495      189.908      100.885        0.028        0.026        6.177        7.474        1.464      331.432       -0.558      875.574
01/10/2022  23:18:00      -58.747        5.148        1.943       28.476       26.658       17.139      810.876      710.630      293.746        0.265        0.091       58.972       16.341        0.077      331.365       -0.666      875.590
01/10/2022  23:19:00      -32.881        2.911       -1.291       23.297       21.303       11.215      542.739      453.807      125.787        0.111        0.056       33.010        9.639        0.085      331.470       -0.495      875.592
01/10/2022  23:20:00      -32.021       10.606      -14.248       17.384       14.362       14.075      302.213      206.277      198.114        0.102        0.035       33.732        8.545        0.064      331.417       -0.583      875.586
01/10/2022  23:21:00      -49.804       14.546      -10.051       14.379       11.154       12.002      206.761      124.408      144.041        0.163        0.024       51.885        9.144        0.031      331.389       -0.626      875.581
01/10/2022  23:22:00      -30.263        9.081       -5.793       16.283       10.867       10.779      265.126      118.087      116.182        0.077        0.025       31.596        9.644        0.093      331.375       -0.652      875.586
01/10/2022  23:23:00      -41.015       19.149      -14.046        9.782        9.861        8.840       95.683       97.232       78.143        0.126        0.014       45.266        5.835        0.017      331.451       -0.528      875.602
01/10/2022  23:24:00      -54.507       12.283       -9.170       16.097       11.979       10.247      259.124      143.495      104.994        0.186        0.025       55.874        7.274        0.017      331.427       -0.566      875.607
01/10/2022  23:25:00      -79.327       26.485      -13.343       10.374       10.513        8.241      107.619      110.531       67.921        0.373        0.014       83.631        2.378        0.001      331.341       -0.707      875.607
01/10/2022  23:26:00      -32.958       -2.217      -11.374       35.107       20.507       12.607     1232.497      420.542      158.944        0.152        0.091       33.033       13.684        0.172      331.330       -0.724      875.608
01/10/2022  23:27:00      -92.420       28.398      -14.061       17.522       14.219       16.611      307.033      202.177      275.923        0.517        0.039       96.685        9.919        0.011      331.279       -0.808      875.608
01/10/2022  23:28:00      -62.385        8.853      -11.320       34.558       24.256       19.217     1194.255      588.330      369.295        0.312        0.108       63.010       19.637        0.097      331.251       -0.854      875.601
01/10/2022  23:29:00      -70.684        2.150      -17.173       33.221       25.033       18.980     1103.655      626.629      360.245        0.369        0.105       70.717       12.071        0.029      331.321       -0.740      875.606
01/10/2022  23:30:00      -93.020       16.987       -4.960       42.228       20.876       23.440     1783.226      435.824      549.436        0.587        0.138       94.559       26.890        0.081      331.183       -0.967      875.614
01/10/2022  23:31:00      -49.929        9.190       -0.925       38.518       23.509       18.064     1483.598      552.660      326.319        0.247        0.118       50.767       16.577        0.107      331.260       -0.839      875.618
01/10/2022  23:32:00      -72.450        8.191      -18.618       40.160       27.976       23.963     1612.810      782.666      574.203        0.432        0.148       72.912       16.885        0.054      331.259       -0.841      875.616
01/10/2022  23:33:00      -16.124       -0.457       -9.090       40.502       34.185       26.364     1640.376     1168.599      695.077        0.192        0.175       16.130       12.616        0.612      331.233       -0.884      875.608
01/10/2022  23:34:00      -23.443       -9.780       -1.947       43.374       33.105       22.292     1881.288     1095.951      496.925        0.206        0.174       25.401       18.949        0.557      331.240       -0.871      875.602
01/10/2022  23:35:00      -69.912        4.210       -8.567       54.960       35.343       21.345     3020.606     1249.158      455.621        0.485        0.236       70.039       20.933        0.089      331.213       -0.916      875.598
01/10/2022  23:36:00     -117.124       40.280       -5.320       31.531       20.616       17.493      994.218      425.036      306.005        0.855        0.086      123.857       16.334        0.017      331.196       -0.944      875.586
01/10/2022  23:37:00      -61.197       13.916       -0.601       39.233       26.123       20.428     1539.215      682.428      417.315        0.329        0.132       62.759       23.790        0.144      331.188       -0.957      875.574
01/10/2022  23:38:00      -73.611       26.385       -9.034       27.086       24.182       19.023      733.626      584.780      361.858        0.394        0.084       78.197       12.321        0.025      331.161       -1.002      875.564
01/10/2022  23:39:00      -25.734       -4.024       -7.478       22.339       14.697       16.294      499.029      215.995      265.485        0.086        0.049       26.047       14.132        0.294      331.200       -0.937      875.554
01/10/2022  23:40:00      -36.250        7.943       -2.413       27.076       17.530       14.021      733.090      307.289      196.585        0.131        0.062       37.110       13.945        0.141      331.238       -0.875      875.545
01/10/2022  23:41:00      -27.085        6.599       -5.786       25.897       11.677       16.922      670.674      136.357      286.355        0.095        0.055       27.877       16.854        0.366      331.268       -0.825      875.543
01/10/2022  23:42:00      -48.858        7.620      -16.761       19.485       15.773       13.757      379.658      248.798      189.258        0.177        0.041       49.449        8.036        0.026      331.277       -0.811      875.540
01/10/2022  23:43:00      -61.336       17.237      -13.740       14.114       13.129       10.229      199.200      172.359      104.642        0.236        0.024       63.712        6.911        0.012      331.360       -0.675      875.545
01/10/2022  23:44:00      -50.044       13.170      -22.205       27.017       14.827       10.795      729.918      219.848      116.532        0.212        0.053       51.747       12.574        0.059      331.283       -0.801      875.537
01/10/2022  23:45:00      -69.023       22.635      -19.379       16.373       13.144       10.556      268.068      172.759      111.425        0.310        0.028       72.640        6.964        0.009      331.284       -0.800      875.522
01/10/2022  23:46:00      -80.898       25.325      -11.098       18.481       15.254       12.187      341.537      232.684      148.523        0.402        0.036       84.770        7.123        0.007      331.244       -0.865      875.504
01/10/2022  23:47:00      -73.574       23.539      -11.134       21.539       14.870       12.530      463.950      221.110      156.989        0.347        0.042       77.248       10.281        0.018      331.249       -0.856      875.468
01/10/2022  23:48:00      -69.420       32.352       -9.763       12.469       10.510       11.416      155.483      110.460      130.331        0.318        0.020       76.588        7.470        0.010      331.253       -0.850      875.432
01/10/2022  23:49:00      -32.849       18.226      -11.681       19.255       13.762       12.886      370.753      189.397      166.040        0.114        0.036       37.567       13.026        0.120      331.266       -0.830      875.394
01/10/2022  23:50:00      -46.923       21.402      -11.171       11.718        9.368        7.436      137.318       87.762       55.293        0.153        0.014       51.573        4.026        0.006      331.340       -0.708      875.362
01/10/2022  23:51:00      -58.202       16.863      -15.475       24.469       11.013       10.348      598.748      121.292      107.090        0.237        0.041       60.596        9.114        0.023      331.285       -0.798      875.335
01/10/2022  23:52:00      -66.940       25.503      -16.629       16.834       12.369       13.962      283.371      152.985      194.950        0.302        0.032       71.633        8.683        0.015      331.289       -0.791      875.317
01/10/2022  23:53:00      -81.603       22.517      -10.458       15.349       11.182       12.867      235.591      125.036      165.571        0.390        0.026       84.653        9.957        0.014      331.234       -0.882      875.301
01/10/2022  23:54:00      -72.520       17.473      -13.115       18.877       15.739       10.816      356.358      247.724      116.994        0.323        0.036       74.595        5.647        0.006      331.221       -0.903      875.280
01/10/2022  23:55:00      -70.620       12.986       -3.147       22.871       15.711       13.001      523.080      246.834      169.014        0.305        0.047       71.804       12.368        0.030      331.200       -0.938      875.279
01/10/2022  23:56:00      -78.778       24.221      -11.887       12.127       13.102        8.116      147.071      171.667       65.867        0.366        0.019       82.418        5.141        0.004      331.253       -0.851      875.292
01/10/2022  23:57:00      -49.567       33.781       -8.588       23.037       11.755       14.911      530.695      138.175      222.330        0.228        0.045       59.984       12.088        0.041      331.263       -0.835      875.320
01/10/2022  23:58:00      -31.279       16.676      -18.390       19.962       13.444       14.719      398.478      180.734      216.642        0.120        0.040       35.447       10.843        0.094      331.383       -0.637      875.344
01/10/2022  23:59:00       -1.231       -4.591       -7.011       19.209       17.946       10.100      368.972      322.067      102.004        0.043        0.040        4.753        9.840        4.286      331.296       -0.781      875.343
01/11/2022  00:00:00      -25.285        3.200      -11.024       20.541       23.647       14.739      421.931      559.196      217.225        0.098        0.060       25.487       11.176        0.192      331.280       -0.807      875.306
01/11/2022  00:01:00      -31.363        3.228       -6.548       31.044       27.643       19.960      963.706      764.155      398.399        0.158        0.106       31.529       18.611        0.348      331.169       -0.988      875.240
01/11/2022  00:02:00      -10.362      -19.127       -8.320       26.182       14.215       12.781      685.500      202.059      163.345        0.080        0.053       21.753        8.342        0.147      331.209       -0.923      875.167
01/11/2022  00:03:00       -9.181        2.034       -5.862       13.942       14.289       11.629      194.379      204.187      135.229        0.033        0.027        9.404        7.900        0.706      331.212       -0.918      875.114
01/11/2022  00:04:00      -54.611        0.016      -10.702       30.732       16.992       14.381      944.463      288.727      206.820        0.227        0.072       54.611       16.638        0.093      331.278       -0.810      875.089
01/11/2022  00:05:00      -60.269       18.391       -5.147       31.710       21.694       11.388     1005.510      470.618      129.685        0.280        0.080       63.013       12.417        0.039      331.217       -0.910      875.098
01/11/2022  00:06:00      -95.105       23.623      -14.183       17.364       15.985       12.718      301.500      255.533      161.751        0.526        0.036       97.995        9.164        0.009      331.130       -1.053      875.120
01/11/2022  00:07:00     -103.034       34.007      -16.659       25.561       25.890       16.969      653.360      670.277      287.959        0.683        0.081      108.501       13.262        0.015      331.100       -1.103      875.147
01/11/2022  00:08:00     -104.318       31.652      -13.171       33.103       24.112       17.821     1095.837      581.385      317.593        0.703        0.100      109.014       13.735        0.016      331.128       -1.057      875.158
01/11/2022  00:09:00      -78.670       -5.488      -11.790       32.815       28.435       21.865     1076.821      808.559      478.069        0.436        0.118       78.862       19.047        0.058      331.123       -1.064      875.151
01/11/2022  00:10:00      -39.862       21.540       -8.829       30.582       23.112       19.217      935.263      534.143      369.309        0.198        0.092       45.309       13.385        0.087      331.042       -1.198      875.125
01/11/2022  00:11:00       -0.862      -34.907       -8.793       14.930       23.957       14.912      222.918      573.957      222.358        0.116        0.051       34.918       13.050        0.140      331.125       -1.060      875.096
01/11/2022  00:12:00        5.540       -7.274       -9.042       12.173       12.265       17.257      148.170      150.441      297.787        0.038        0.030        9.143       10.341        1.279      331.190       -0.953      875.078
01/11/2022  00:13:00       -3.107       -0.269       -1.890       16.433       17.322       17.141      270.037      300.065      293.802        0.044        0.043        3.119       10.133       10.554      331.105       -1.093      875.078
01/11/2022  00:14:00       -3.146       -5.431       -9.378       15.879       15.327       12.245      252.140      234.919      149.949        0.038        0.032        6.276        7.173        1.306      331.118       -1.074      875.085
01/11/2022  00:15:00        9.025       -3.502      -11.464       11.189       10.885       12.487      125.200      118.476      155.924        0.031        0.020        9.681        3.384        0.122      331.048       -1.188      875.106
01/11/2022  00:16:00       -7.929        8.982      -13.303       21.865       22.181       16.275      478.057      492.007      264.882        0.078        0.062       11.981        6.852        0.327      331.017       -1.239      875.123
01/11/2022  00:17:00      -11.737        3.721      -18.349       17.592       16.215       11.698      309.496      262.913      136.844        0.060        0.035       12.312        6.805        0.305      331.012       -1.246      875.149
01/11/2022  00:18:00      -34.508      -11.236      -13.896       48.458       23.081       17.203     2348.134      532.732      295.952        0.234        0.159       36.291        8.117        0.050      331.046       -1.190      875.164
01/11/2022  00:19:00        8.099      -10.103       -9.883       33.103       23.748       15.994     1095.804      563.965      255.797        0.109        0.096       12.948       11.541        0.794      331.117       -1.074      875.174
01/11/2022  00:20:00     -119.423       34.565      -19.279       32.405       21.415       16.113     1050.110      458.605      259.632        0.880        0.088      124.324       13.361        0.012      331.085       -1.127      875.192
01/11/2022  00:21:00      -57.117        4.203       -9.661       41.135       27.102       20.159     1692.127      734.540      406.367        0.310        0.142       57.271       13.809        0.058      331.112       -1.081      875.197
01/11/2022  00:22:00      -50.302        5.101       -9.819       50.696       25.318       19.898     2570.085      641.019      395.929        0.313        0.180       50.560       12.960        0.066      331.145       -1.028      875.201
01/11/2022  00:23:00      -70.030       14.909       -0.221       42.960       23.944       22.415     1845.597      573.319      502.415        0.402        0.146       71.599       19.470        0.074      331.142       -1.034      875.204
01/11/2022  00:24:00      -88.254       19.976       -7.304       49.266       27.851       25.510     2427.103      775.679      650.763        0.605        0.193       90.487       23.444        0.067      331.108       -1.089      875.210
01/11/2022  00:25:00      -64.601       -2.984      -10.729       50.570       49.410       21.670     2557.356     2441.376      469.574        0.488        0.273       64.670       23.615        0.133      331.104       -1.096      875.227
01/11/2022  00:26:00     -109.132       21.259      -10.916       48.990       35.374       20.792     2399.988     1251.298      432.310        0.828        0.204      111.183       16.402        0.022      331.057       -1.175      875.251
01/11/2022  00:27:00      -92.692       33.689       -4.303       50.802       34.838       25.359     2580.878     1213.697      643.057        0.709        0.222       98.624       29.993        0.092      331.054       -1.178      875.273
01/11/2022  00:28:00     -126.039       50.119       -9.102       34.284       17.570       17.423     1175.418      308.693      303.551        1.013        0.089      135.638       16.332        0.014      331.082       -1.133      875.296
01/11/2022  00:29:00      -82.769       30.528       -7.583       33.824       22.433       20.370     1144.092      503.242      414.932        0.495        0.103       88.219       14.299        0.026      331.124       -1.063      875.313
01/11/2022  00:30:00      -82.769       28.182       -9.205       37.143       20.222       15.367     1379.583      408.926      236.152        0.488        0.101       87.435       16.360        0.035      331.133       -1.048      875.324
01/11/2022  00:31:00      -95.460       23.793       -5.720       33.568       21.944       20.258     1126.833      481.545      410.375        0.586        0.101       98.380       16.384        0.028      331.148       -1.023      875.320
01/11/2022  00:32:00      -97.250       12.483       -8.803       26.336       24.079       15.651      693.577      579.800      244.967        0.560        0.076       98.048       12.834        0.017      331.116       -1.076      875.318
01/11/2022  00:33:00      -19.784        9.250        1.327       19.654       17.175       19.970      386.290      294.997      398.809        0.078        0.054       21.840       10.939        0.251      331.084       -1.128      875.315
01/11/2022  00:34:00      -76.773       -1.000       -4.201       35.640       26.008       17.806     1270.227      676.425      317.041        0.409        0.113       76.780       15.808        0.042      331.135       -1.045      875.296
01/11/2022  00:35:00      -82.739       19.307       -7.531       28.777       17.904       19.620      828.107      320.561      384.958        0.440        0.077       84.962       19.398        0.052      331.102       -1.100      875.277
01/11/2022  00:36:00      -96.485       23.245      -12.176       18.300       15.352       11.132      334.907      235.671      123.916        0.535        0.035       99.246        6.130        0.004      331.090       -1.119      875.270
01/11/2022  00:37:00      -91.178       27.842      -10.793       21.011       24.032       16.505      441.461      577.555      272.402        0.525        0.065       95.334        9.411        0.010      331.039       -1.203      875.278
01/11/2022  00:38:00      -84.264       14.483      -10.247       31.139       21.543       16.838      969.609      464.080      283.513        0.457        0.086       85.500       13.025        0.023      331.134       -1.047      875.303
01/11/2022  00:39:00      -93.877       27.184      -12.865       22.405       19.122       16.262      502.002      365.669      264.455        0.542        0.057       97.734       13.520        0.019      331.089       -1.119      875.337
01/11/2022  00:40:00     -106.281       35.666      -12.030       29.123       23.259       16.608      848.128      540.978      275.827        0.719        0.083      112.106       11.288        0.010      331.087       -1.124      875.363
01/11/2022  00:41:00      -73.734        1.638       -7.244       48.338       27.541       20.607     2336.534      758.523      424.635        0.451        0.176       73.752       25.542        0.120      331.161       -1.003      875.375
01/11/2022  00:42:00      -21.119        4.523       -2.254       40.692       30.002       19.177     1655.810      900.146      367.752        0.170        0.146       21.598       10.244        0.225      331.106       -1.093      875.358
01/11/2022  00:43:00      -54.334       -1.087       -4.244       62.284       28.030       22.009     3879.339      785.659      484.413        0.406        0.257       54.345       23.341        0.184      331.177       -0.977      875.327
01/11/2022  00:44:00      -93.212       13.100       -0.964       38.162       26.608       20.159     1456.339      707.966      406.385        0.572        0.129       94.128       18.547        0.039      331.248       -0.857      875.277
01/11/2022  00:45:00      -83.274       12.378       -4.520       37.098       24.623       16.788     1376.276      606.284      281.852        0.469        0.113       84.189       15.271        0.033      331.122       -1.067      875.242
01/11/2022  00:46:00     -116.678       10.409       -4.529       30.118       28.358       18.310      907.119      804.149      335.271        0.789        0.102      117.142       12.266        0.011      331.128       -1.054      875.217
01/11/2022  00:47:00      -66.496        4.571       -1.041       34.078       32.274       19.668     1161.336     1041.615      386.815        0.352        0.129       66.653       17.479        0.069      331.108       -1.088      875.201
01/11/2022  00:48:00      -76.163       11.767        0.822       42.513       28.113       22.336     1807.317      790.349      498.879        0.452        0.155       77.067       22.621        0.086      331.185       -0.962      875.191
01/11/2022  00:49:00      -26.324       -8.670       -5.360       41.929       23.484       19.459     1758.041      551.508      378.635        0.174        0.134       27.715       20.269        0.535      331.199       -0.940      875.183
01/11/2022  00:50:00      -26.335        8.553       -2.994       31.437       16.796       18.550      988.314      282.100      344.109        0.119        0.081       27.689       14.778        0.285      331.132       -1.050      875.177
01/11/2022  00:51:00      -55.931       10.699       -3.852       36.661       23.433       15.214     1344.031      549.124      231.479        0.269        0.106       56.945       15.661        0.076      331.119       -1.070      875.161
01/11/2022  00:52:00      -74.939        4.535       -6.912       26.903       25.038       14.038      723.759      626.890      197.074        0.362        0.077       75.076       10.339        0.019      331.204       -0.931      875.137
01/11/2022  00:53:00      -49.094       11.725       -3.789       34.873       20.564       19.080     1216.094      422.875      364.039        0.228        0.100       50.475       17.112        0.115      331.167       -0.991      875.098
01/11/2022  00:54:00      -40.966        8.257       -8.595       38.453       25.702       15.298     1478.614      660.579      234.028        0.210        0.119       41.790       11.770        0.079      331.215       -0.913      875.056
01/11/2022  00:55:00       -7.553        9.927       -4.643       18.398       23.251       19.755      338.503      540.603      390.251        0.072        0.063       12.474       14.141        1.285      331.095       -1.111      875.030
01/11/2022  00:56:00      -42.924        8.279       -5.445       42.537       26.889       21.907     1809.385      723.008      479.930        0.248        0.151       43.715       25.652        0.344      331.125       -1.061      874.997
01/11/2022  00:57:00      -31.508        7.132       -0.332       35.245       23.181       29.773     1242.181      537.352      886.421        0.185        0.133       32.305       25.453        0.621      331.030       -1.217      874.985
01/11/2022  00:58:00      -75.507        5.234       -9.755       42.364       26.685       19.921     1794.675      712.115      396.831        0.436        0.145       75.688       15.799        0.044      331.086       -1.128      874.980
01/11/2022  00:59:00      -59.867       -0.585       -5.317       33.039       25.595       16.742     1091.589      655.116      280.308        0.282        0.101       59.870       11.356        0.036      331.145       -1.029      874.984
01/11/2022  01:00:00      -53.651       14.285       -2.376       38.595       27.548       20.296     1489.572      758.903      411.924        0.287        0.133       55.520       18.539        0.112      331.065       -1.159      874.993
01/11/2022  01:01:00      -56.590       -1.179       -4.815       26.812       21.122       12.537      718.874      446.157      157.171        0.227        0.066       56.603        9.575        0.029      331.129       -1.054      874.996
01/11/2022  01:02:00      -56.896       11.391       -5.871       40.462       19.951       13.871     1637.157      398.035      192.401        0.281        0.111       58.025       18.640        0.103      331.093       -1.114      874.989
01/11/2022  01:03:00      -89.649        5.867      -16.411       28.722       24.804       16.598      824.962      615.242      275.491        0.503        0.086       89.841        7.756        0.007      331.157       -1.010      874.976
01/11/2022  01:04:00      -48.357       -3.934       -4.947       33.948       25.122       19.994     1152.433      631.128      399.742        0.228        0.109       48.517       16.601        0.117      331.094       -1.114      874.965
01/11/2022  01:05:00      -65.584        8.238       -3.976       29.029       20.660       13.557      842.706      426.834      183.783        0.292        0.073       66.099       10.336        0.024      331.086       -1.125      874.943
01/11/2022  01:06:00      -21.966       -6.626       -5.185       28.953       17.215       14.423      838.295      296.366      208.019        0.095        0.067       22.943       10.506        0.210      331.119       -1.072      874.921
01/11/2022  01:07:00      -19.227      -27.375       -4.415       32.265       20.232       22.369     1041.030      409.319      500.362        0.154        0.098       33.452       14.576        0.190      331.129       -1.055      874.911
01/11/2022  01:08:00      -19.913       -5.102       -7.486       31.215       18.846       15.440      974.378      355.190      238.406        0.102        0.078       20.556       10.439        0.258      331.053       -1.181      874.906
01/11/2022  01:09:00      -30.083       10.640        0.613       24.298       18.314       20.668      590.406      335.386      427.176        0.119        0.068       31.909       14.701        0.212      331.042       -1.198      874.912
01/11/2022  01:10:00      -24.075        3.677       -1.196       34.579        9.328       16.243     1195.697       87.004      263.837        0.107        0.077       24.354       20.868        0.734      331.053       -1.182      874.931
01/11/2022  01:11:00      -28.151        4.990       -5.538       24.918       23.090       17.125      620.925      533.151      293.255        0.115        0.072       28.590        8.567        0.090      331.126       -1.059      874.946
01/11/2022  01:12:00      -23.918       -3.769       -5.161       16.380       21.548       12.983      268.303      464.308      168.571        0.076        0.045       24.213        4.193        0.030      331.166       -0.993      874.957
01/11/2022  01:13:00      -19.264       -0.237       -2.076       28.455       14.666       13.832      809.693      215.097      191.328        0.080        0.061       19.265       14.992        0.606      331.088       -1.123      874.953
01/11/2022  01:14:00      -53.058        5.314       -8.462       33.552       19.969       14.793     1125.704      398.748      218.825        0.233        0.087       53.323       12.460        0.055      331.156       -1.009      874.934
01/11/2022  01:15:00       -5.054       -2.723       -3.570       20.083       15.043       13.405      403.320      226.305      179.694        0.043        0.040        5.741       11.973        4.349      331.193       -0.949      874.913
01/11/2022  01:16:00       -0.288       -8.178       -9.053       13.739       15.388        8.272      188.750      236.804       68.419        0.032        0.025        8.183        8.666        1.122      331.181       -0.968      874.909
01/11/2022  01:17:00      -24.166      -12.954       -7.858       16.411       10.741        9.547      269.327      115.364       91.150        0.064        0.024       27.418        5.560        0.041      331.171       -0.984      874.927
01/11/2022  01:18:00      -18.626      -11.810      -10.286       10.925        8.642        9.424      119.352       74.689       88.811        0.044        0.014       22.054        5.874        0.071      331.192       -0.952      874.972
01/11/2022  01:19:00       -7.259       -1.155       -2.086        7.331        8.439        6.269       53.741       71.219       39.301        0.011        0.008        7.350        3.469        0.223      331.158       -1.006      875.023
01/11/2022  01:20:00       -0.563        8.717       -4.985        7.388        8.341        7.627       54.585       69.568       58.174        0.014        0.009        8.735        5.195        0.354      331.122       -1.066      875.068
01/11/2022  01:21:00       15.145        8.236       -2.700        9.428        5.808        4.506       88.884       33.730       20.308        0.022        0.007       17.239        2.261        0.017      331.113       -1.080      875.091
01/11/2022  01:22:00       19.514       14.128       -6.035        7.395        7.554        5.243       54.680       57.057       27.492        0.038        0.007       24.091        3.158        0.017      331.114       -1.076      875.086
01/11/2022  01:23:00       19.561       -4.302       -8.362       16.298       18.635       11.858      265.625      347.255      140.602        0.061        0.038       20.028       10.301        0.265      331.136       -1.045      875.043
01/11/2022  01:24:00       33.548        1.289       -7.751       20.753       13.792       12.042      430.680      190.207      145.008        0.098        0.038       33.573       11.828        0.124      330.813       -1.573      874.999
01/11/2022  01:25:00       19.913       -1.197      -11.300        9.867        8.696        8.550       97.354       75.621       73.100        0.039        0.012       19.949        6.516        0.107      330.891       -1.446      874.953
01/11/2022  01:26:00        8.454       -8.199       -5.582        5.900        5.154        6.464       34.805       26.564       41.779        0.014        0.005       11.777        3.652        0.096      330.930       -1.384      874.915
01/11/2022  01:27:00       -1.150      -10.068       -5.791        6.845        7.725        6.727       46.854       59.680       45.248        0.014        0.008       10.133        3.378        0.111      331.103       -1.096      874.897
01/11/2022  01:28:00      -11.762       -0.986       -4.186       11.295       12.129       12.024      127.571      147.105      144.580        0.029        0.021       11.803        8.358        0.501      330.984       -1.295      874.892
01/11/2022  01:29:00       -0.224      -13.278      -13.511        5.004       10.891        5.143       25.043      118.624       26.454        0.026        0.009       13.280        1.757        0.018      330.896       -1.438      874.891
01/11/2022  01:30:00        1.402      -10.983       -8.695        4.900        9.207        6.593       24.008       84.767       43.473        0.018        0.008       11.073        5.014        0.205      330.989       -1.285      874.885
01/11/2022  01:31:00        7.951       -9.222        1.193        5.976       10.675        5.405       35.718      113.966       29.213        0.016        0.009       12.176        4.886        0.161      331.069       -1.152      874.876
01/11/2022  01:32:00       -1.831       -0.122       -3.182        3.067        2.202        4.062        9.408        4.847       16.502        0.002        0.002        1.835        1.860        1.027      330.943       -1.361      874.860
01/11/2022  01:33:00       -3.650       -4.385       -5.326        5.671        5.894        4.075       32.159       34.738       16.605        0.007        0.004        5.705        1.516        0.071      331.074       -1.145      874.857
01/11/2022  01:34:00       -7.356       -4.775      -11.965        6.677        7.769        8.155       44.577       60.357       66.507        0.020        0.009        8.770        2.901        0.109      331.050       -1.184      874.847
01/11/2022  01:35:00      -22.779        9.489       -7.041       13.178        7.302        7.146      173.669       53.312       51.060        0.047        0.014       24.676        5.201        0.044      331.024       -1.227      874.858
01/11/2022  01:36:00      -33.566        6.271       -5.982       11.920       12.094        7.233      142.096      146.256       52.322        0.077        0.017       34.147        5.629        0.027      331.029       -1.219      874.860
01/11/2022  01:37:00       -9.722       -9.237       -4.676       13.453        9.544        7.092      180.977       91.090       50.303        0.026        0.016       13.411        6.267        0.218      330.977       -1.308      874.856
01/11/2022  01:38:00       -4.241       -7.531       -2.826        9.509        8.531        8.156       90.422       72.776       66.522        0.016        0.011        8.643        5.412        0.392      330.953       -1.345      874.836
01/11/2022  01:39:00      -34.605       18.939       -5.968       12.181        7.057        6.291      148.371       49.808       39.576        0.091        0.012       39.449        1.939        0.002      330.954       -1.343      874.811
01/11/2022  01:40:00      -20.203        5.201       -7.875       14.789        7.779        6.585      218.700       60.513       43.359        0.041        0.016       20.861        4.815        0.053      330.935       -1.375      874.789
01/11/2022  01:41:00      -22.813       14.673       -4.942        7.622       10.162        5.943       58.100      103.258       35.315        0.048        0.010       27.124        2.739        0.010      330.966       -1.324      874.765
01/11/2022  01:42:00      -32.193       14.209       -5.872       12.461       10.537        8.059      155.285      111.022       64.952        0.080        0.017       35.189        6.094        0.030      330.925       -1.392      874.743
01/11/2022  01:43:00      -16.565        0.684       -2.845       17.865       14.058       10.326      319.148      197.631      106.616        0.045        0.031       16.579        8.899        0.288      330.868       -1.483      874.722
01/11/2022  01:44:00       -9.986       -3.564       -1.673       20.828       13.616        9.978      433.788      185.386       99.566        0.042        0.036       10.603        7.925        0.559      330.825       -1.553      874.708
01/11/2022  01:45:00      -24.096       -3.254       -3.698       24.130       18.821       14.261      582.245      354.232      203.376        0.087        0.057       24.315       12.055        0.246      330.857       -1.502      874.697
01/11/2022  01:46:00      -18.941        7.246        1.354       30.147       24.436       15.573      908.860      597.136      242.534        0.108        0.087       20.280       15.258        0.566      330.833       -1.542      874.710
01/11/2022  01:47:00       -6.375       -5.560        0.046       38.502       24.767       16.574     1482.367      613.417      274.706        0.122        0.119        8.459       11.593        1.878      330.866       -1.486      874.729
01/11/2022  01:48:00      -61.523       10.602       -8.834       41.649       28.118       13.795     1734.640      790.614      190.299        0.335        0.136       62.430       12.665        0.041      330.793       -1.606      874.757
01/11/2022  01:49:00     -101.928       15.418       -9.094       31.072       25.601       16.814      965.444      655.425      282.715        0.631        0.095      103.088        9.380        0.008      330.681       -1.789      874.774
01/11/2022  01:50:00      -86.679       18.652       -0.137       43.953       21.665       20.809     1931.902      469.379      433.016        0.535        0.142       88.663       25.254        0.081      330.693       -1.771      874.776
01/11/2022  01:51:00      -64.082        6.252       -0.110       35.441       25.162       16.401     1256.068      633.127      268.992        0.315        0.108       64.387       13.891        0.047      330.720       -1.726      874.763
01/11/2022  01:52:00      -57.046        3.687       -1.098       31.233       27.813       19.651      975.491      773.583      386.178        0.270        0.107       57.165       14.546        0.065      330.761       -1.659      874.739
01/11/2022  01:53:00      -43.512       -2.213       -5.239       25.373       21.741       17.356      643.775      472.685      301.245        0.167        0.071       43.568       16.741        0.148      330.723       -1.720      874.718
01/11/2022  01:54:00      -73.287       16.223      -11.465       28.222       19.452       21.162      796.471      378.387      447.843        0.369        0.081       75.061       19.099        0.065      330.720       -1.727      874.708
01/11/2022  01:55:00      -83.470       22.743      -13.315       25.114       23.137       15.870      630.734      535.326      251.846        0.454        0.071       86.513       14.003        0.026      330.636       -1.863      874.701
01/11/2022  01:56:00      -57.433       13.479       -4.324       29.539       21.744       20.271      872.581      472.818      410.904        0.263        0.088       58.994       17.001        0.083      330.589       -1.942      874.702
01/11/2022  01:57:00      -36.450       11.069       -7.301       22.196       14.869       18.765      492.656      221.089      352.113        0.128        0.053       38.094       13.196        0.120      330.572       -1.970      874.706
01/11/2022  01:58:00      -37.497       -2.749       -4.984       29.159       17.149       16.409      850.256      294.091      269.249        0.143        0.071       37.598       15.445        0.169      330.727       -1.715      874.699
01/11/2022  01:59:00        0.674       -0.070      -13.480        8.360       11.480        6.862       69.887      131.795       47.085        0.022        0.012        0.677        4.286       40.068      330.711       -1.742      874.710
01/11/2022  02:00:00       19.437       12.271       -5.986        7.940        8.678        9.392       63.044       75.311       88.212        0.040        0.011       22.987        5.226        0.052      330.742       -1.688      874.712
01/11/2022  02:01:00        9.716        5.022       -8.030       13.893        7.437        6.046      193.020       55.308       36.550        0.023        0.014       10.937        3.077        0.079      330.683       -1.785      874.726
01/11/2022  02:02:00       -7.932        4.998       -4.728        7.600        7.496        5.412       57.762       56.185       29.292        0.013        0.007        9.375        4.339        0.214      330.735       -1.701      874.745
01/11/2022  02:03:00      -18.301       -5.317       -6.928       14.379       13.700        7.830      206.742      187.691       61.306        0.043        0.023       19.058        4.764        0.062      330.684       -1.785      874.752
01/11/2022  02:04:00      -47.580       12.506      -12.505       21.233       13.981       13.088      450.834      195.462      171.287        0.170        0.041       49.196        9.687        0.039      330.566       -1.978      874.757
01/11/2022  02:05:00      -58.667        8.565      -14.024       21.389       19.969       12.599      457.468      398.781      158.739        0.236        0.051       59.289        9.375        0.025      330.548       -2.009      874.760
01/11/2022  02:06:00      -57.948       17.283      -20.395       30.348       19.939       11.302      921.004      397.579      127.737        0.276        0.072       60.471        8.532        0.020      330.588       -1.943      874.763
01/11/2022  02:07:00      -90.042       32.529      -21.058       22.769       20.891       10.829      518.425      436.423      117.275        0.534        0.054       95.737        5.581        0.003      330.445       -2.177      874.772
01/11/2022  02:08:00      -75.585       19.329      -13.904       28.062       23.291       16.660      787.498      542.459      277.559        0.394        0.080       78.017        7.599        0.009      330.475       -2.129      874.799
01/11/2022  02:09:00      -55.105       26.344      -19.247       18.565       17.128       16.849      344.678      293.385      283.881        0.251        0.046       61.078       13.710        0.050      330.495       -2.096      874.827
01/11/2022  02:10:00      -50.117        9.782      -14.144       15.286       19.398       14.229      233.675      376.293      202.460        0.181        0.041       51.063        7.122        0.019      330.446       -2.178      874.866
01/11/2022  02:11:00      -16.582        4.018       -8.222       25.780       22.435       14.289      664.608      503.326      204.175        0.087        0.069       17.061       13.256        0.604      330.420       -2.219      874.906
01/11/2022  02:12:00      -18.457       -0.167       -9.335       15.029       21.955       19.481      225.884      482.011      379.494        0.076        0.054       18.457       13.993        0.575      330.429       -2.204      874.923
01/11/2022  02:13:00      -28.541        2.914       -6.581       28.430       15.817       20.373      808.242      250.183      415.078        0.117        0.074       28.690       19.631        0.468      330.499       -2.090      874.940
01/11/2022  02:14:00       -0.469        0.312      -17.027       21.936       23.155       13.939      481.193      536.146      194.284        0.075        0.061        0.563        6.084      116.574      330.489       -2.107      874.932
01/11/2022  02:15:00       -4.295        1.806      -11.257       33.812       20.554       20.930     1143.240      422.468      438.072        0.108        0.100        4.659        8.607        3.413      330.491       -2.103      874.908
01/11/2022  02:16:00      -35.151        0.121       -6.796       61.575       27.806       26.530     3791.473      773.153      703.828        0.327        0.263       35.151       22.484        0.409      330.420       -2.220      874.883
01/11/2022  02:17:00      -68.012        4.470       -6.680       74.049       30.324       26.553     5483.278      919.573      705.055        0.590        0.355       68.159       32.822        0.232      330.388       -2.270      874.868
01/11/2022  02:18:00     -125.642       20.309      -16.922       56.902       33.911       27.083     3237.833     1149.951      733.507        1.080        0.256      127.273       25.778        0.041      330.406       -2.241      874.872
01/11/2022  02:19:00     -133.965       53.806      -11.506       47.401       42.894       24.079     2246.857     1839.895      579.781        1.282        0.233      144.366       19.329        0.018      330.375       -2.293      874.902
01/11/2022  02:20:00      -96.473       21.951       -3.448       49.380       38.780       28.438     2438.396     1503.926      808.699        0.728        0.238       98.939       23.140        0.055      330.324       -2.377      874.935
01/11/2022  02:21:00     -125.783       36.400       -2.057       57.311       36.235       26.065     3284.591     1312.979      679.404        1.121        0.264      130.944       26.946        0.042      330.260       -2.481      874.993
01/11/2022  02:22:00     -131.999       30.616       -7.386       60.277       30.198       29.145     3633.328      911.947      849.435        1.190        0.270      135.503       26.760        0.039      330.292       -2.428      875.061
01/11/2022  02:23:00     -159.124       54.267       -7.667       49.369       29.123       30.441     2437.264      848.130      926.651        1.627        0.211      168.123       24.351        0.021      330.271       -2.464      875.110
01/11/2022  02:24:00     -168.356       65.891      -16.497       40.364       34.227       20.324     1629.217     1171.463      413.060        1.809        0.161      180.791       18.196        0.010      330.341       -2.348      875.151
01/11/2022  02:25:00     -130.637       47.821       -9.538       59.716       41.465       30.286     3565.944     1719.381      917.243        1.282        0.310      139.114       29.599        0.045      330.408       -2.238      875.172
01/11/2022  02:26:00     -155.929       48.467      -15.766       49.485       42.368       27.302     2448.728     1795.073      745.405        1.595        0.249      163.288       23.740        0.021      330.354       -2.327      875.193
01/11/2022  02:27:00     -116.652       44.798       -5.042       52.879       38.890       30.997     2796.141     1512.463      960.812        1.045        0.263      124.958       27.183        0.047      330.312       -2.395      875.202
01/11/2022  02:28:00     -140.103       50.536      -12.532       41.296       31.266       25.945     1705.341      977.570      673.154        1.285        0.168      148.939       19.689        0.017      330.351       -2.332      875.217
01/11/2022  02:29:00     -119.183       41.569      -20.463       41.208       38.417       29.696     1698.117     1475.885      881.878        1.020        0.203      126.225       19.535        0.024      330.413       -2.229      875.234
01/11/2022  02:30:00      -71.007       26.935      -22.293       43.271       37.512       30.574     1872.389     1407.166      934.770        0.524        0.211       75.944       10.538        0.019      330.474       -2.129      875.249
01/11/2022  02:31:00      -94.631       30.659      -30.227       29.841       26.980       28.148      890.486      727.932      792.310        0.661        0.121       99.473       18.237        0.034      330.556       -1.996      875.258
01/11/2022  02:32:00      -82.705       49.187       -5.652       43.354       27.727       27.641     1879.536      768.776      764.012        0.635        0.171       96.226       26.435        0.075      330.522       -2.053      875.266
01/11/2022  02:33:00      -96.311       59.789      -10.056       28.118       22.902       21.189      790.640      524.523      448.968        0.736        0.088      113.360       15.589        0.019      330.565       -1.982      875.278
01/11/2022  02:34:00      -85.420       25.816      -14.679       15.534       17.112       11.796      241.311      292.807      139.154        0.443        0.034       89.236        6.455        0.005      330.638       -1.862      875.283
01/11/2022  02:35:00     -104.683       35.844      -11.069       23.354       21.291       20.280      545.423      453.316      411.284        0.689        0.071      110.650       14.598        0.017      330.650       -1.840      875.296
01/11/2022  02:36:00      -63.757       21.490      -29.552       21.196       19.526       15.379      449.280      381.250      236.518        0.323        0.053       67.281        7.806        0.013      330.729       -1.712      875.302
01/11/2022  02:37:00      -73.967       23.108      -13.024       31.779       20.806       14.290     1009.874      432.880      204.210        0.391        0.082       77.492       10.085        0.017      330.719       -1.728      875.313
01/11/2022  02:38:00      -78.054       19.092       -4.626       30.175       23.166       17.090      910.507      536.671      292.060        0.411        0.087       80.355       14.090        0.031      330.718       -1.729      875.334
01/11/2022  02:39:00      -92.379       24.872       -7.585       34.084       19.294       17.935     1161.720      372.252      321.675        0.553        0.093       95.668       11.058        0.013      330.671       -1.805      875.358
01/11/2022  02:40:00     -114.330       32.430       -8.926       26.064       22.514       17.054      679.336      506.867      290.827        0.784        0.074      118.841       11.972        0.010      330.616       -1.896      875.394
01/11/2022  02:41:00     -100.308       26.226       -7.304       28.597       26.871       17.858      817.816      722.053      318.898        0.633        0.093      103.680       15.243        0.022      330.712       -1.739      875.412
01/11/2022  02:42:00      -90.742       31.206       -5.565       25.963       23.250       17.103      674.076      540.557      292.500        0.537        0.075       95.958       11.174        0.014      330.652       -1.837      875.420
01/11/2022  02:43:00      -88.259       26.277       -9.084       40.241       29.776       16.143     1619.316      886.618      260.603        0.566        0.138       92.088        6.676        0.005      330.697       -1.763      875.423
01/11/2022  02:44:00      -21.670        8.146        3.922       19.274       13.076       10.871      371.495      170.986      118.181        0.061        0.033       23.151        7.647        0.109      330.691       -1.773      875.399
01/11/2022  02:45:00      -20.168        8.375       -8.467       18.796       11.238       13.081      353.283      126.288      171.117        0.060        0.033       21.838       14.411        0.435      330.734       -1.703      875.380
01/11/2022  02:46:00       -5.765      -13.240       -6.862        8.543        9.851        7.241       72.982       97.043       52.437        0.024        0.011       14.440        4.648        0.104      330.870       -1.479      875.374
01/11/2022  02:47:00       -9.748       -7.908       -3.631       13.368       13.364        6.790      178.714      178.601       46.105        0.029        0.020       12.552        3.674        0.086      330.891       -1.446      875.370
01/11/2022  02:48:00       -3.194      -14.630        0.326        8.953       13.812        8.232       80.160      190.761       67.769        0.028        0.017       14.974        2.257        0.023      330.878       -1.466      875.367
01/11/2022  02:49:00      -19.059      -14.288       -8.049       16.262        9.745       10.843      264.453       94.956      117.578        0.055        0.024       23.820        6.972        0.086      331.000       -1.267      875.375
01/11/2022  02:50:00      -11.526       -6.253       -1.254        9.155       15.033       10.699       83.810      225.983      114.475        0.030        0.021       13.113        7.418        0.320      330.983       -1.296      875.390
01/11/2022  02:51:00       -2.939      -10.942       -2.119        5.360        6.866       10.320       28.730       47.146      106.507        0.016        0.009       11.330        4.336        0.146      331.175       -0.978      875.412
01/11/2022  02:52:00      -20.634       -6.122       -1.404       14.404       10.083        7.193      207.486      101.673       51.745        0.041        0.018       21.523        5.602        0.068      331.182       -0.968      875.429
01/11/2022  02:53:00      -37.151       12.045      -11.477        8.294        7.707        6.541       68.794       59.399       42.779        0.091        0.009       39.055        2.760        0.005      330.971       -1.315      875.446
01/11/2022  02:54:00      -12.761       -6.181       -4.019       18.634       10.067       10.224      347.210      101.354      104.534        0.039        0.028       14.179       12.177        0.738      331.109       -1.087      875.456
01/11/2022  02:55:00       -5.995       -6.130       -5.041        9.028        7.795        9.884       81.497       60.763       97.701        0.017        0.012        8.574        6.677        0.606      331.018       -1.237      875.454
01/11/2022  02:56:00      -10.233       -3.328       -1.470        6.127        7.265        6.185       37.544       52.786       38.254        0.012        0.006       10.761        3.675        0.117      331.010       -1.253      875.452
01/11/2022  02:57:00       -7.591       -7.070       -0.553        8.039       13.383       11.102       64.627      179.113      123.255        0.024        0.018       10.373        4.752        0.210      331.116       -1.076      875.437
01/11/2022  02:58:00       17.484        8.110      -18.486       15.499       21.132       20.383      240.217      446.559      415.460        0.091        0.055       19.273       14.349        0.554      330.896       -1.437      875.437
01/11/2022  02:59:00       37.222       -8.186      -14.277       16.985       17.808       17.791      288.490      317.127      316.504        0.129        0.046       38.111       12.544        0.108      330.867       -1.486      875.426
01/11/2022  03:00:00       23.732      -15.369      -20.356       29.435       33.272       28.662      866.409     1107.022      821.524        0.200        0.140       28.273       21.657        0.587      330.785       -1.618      875.415
01/11/2022  03:01:00       40.854       -8.643       -1.728       42.559       42.754       38.511     1811.287     1827.885     1483.130        0.343        0.256       41.758       32.221        0.595      330.564       -1.984      875.405
01/11/2022  03:02:00       69.782      -13.739        1.367       63.827       33.372       35.756     4073.832     1113.662     1278.469        0.576        0.323       71.121       34.399        0.234      330.301       -2.414      875.386
01/11/2022  03:03:00       37.902       -0.409      -33.695       34.953       44.672       27.244     1221.689     1995.595      742.234        0.327        0.198       37.904       18.966        0.250      330.334       -2.359      875.375
01/11/2022  03:04:00       44.108        1.067      -24.068       28.589       30.657       22.057      817.315      939.852      486.533        0.238        0.112       44.121       13.744        0.097      330.514       -2.068      875.368
01/11/2022  03:05:00       36.664       -3.420      -12.041       33.937       25.271       29.708     1151.703      638.616      882.590        0.209        0.134       36.823       26.213        0.507      330.410       -2.236      875.362
01/11/2022  03:06:00       43.412      -19.471      -22.885       41.655       24.182       20.738     1735.173      584.748      430.074        0.277        0.137       47.578       17.264        0.132      330.416       -2.224      875.346
01/11/2022  03:07:00       34.462      -13.337      -25.407       28.066       27.748       23.463      787.673      769.968      550.492        0.206        0.105       36.952       17.816        0.232      330.364       -2.312      875.337
01/11/2022  03:08:00       28.100      -22.192       -6.044       26.171       22.086       18.108      684.943      487.791      327.897        0.141        0.075       35.807       15.710        0.192      330.419       -2.220      875.323
01/11/2022  03:09:00       27.934      -43.399      -13.718       27.794       38.784       24.599      772.534     1504.215      605.134        0.287        0.144       51.612       27.606        0.286      330.710       -1.743      875.321
01/11/2022  03:10:00       20.413      -55.249      -18.194       40.012       31.179       19.694     1600.922      972.118      387.872        0.338        0.148       58.900       13.428        0.052      330.940       -1.365      875.314
01/11/2022  03:11:00        7.828      -48.375      -10.578       35.341       28.563       28.968     1249.017      815.848      839.156        0.271        0.145       49.005       13.537        0.076      330.884       -1.458      875.303
01/11/2022  03:12:00      -13.268       10.473      -15.101       10.685       13.975        9.626      114.179      195.308       92.651        0.046        0.020       16.903        7.455        0.194      330.739       -1.695      875.286
01/11/2022  03:13:00      -23.794        6.191      -11.972       19.407       14.364       11.835      376.633      206.321      140.078        0.074        0.036       24.587        8.834        0.129      330.623       -1.886      875.279
01/11/2022  03:14:00       -6.256       28.381       -3.791        7.407       15.315        9.483       54.857      234.546       89.923        0.062        0.019       29.062        5.466        0.035      330.645       -1.848      875.291
01/11/2022  03:15:00       -6.309       10.600       -5.404       13.101       10.007        8.101      171.624      100.141       65.628        0.026        0.017       12.336        5.498        0.199      330.707       -1.746      875.304
01/11/2022  03:16:00       -5.255       15.102      -12.964        5.674        8.708       10.323       32.198       75.832      106.557        0.032        0.011       15.990        5.269        0.109      330.706       -1.749      875.323
01/11/2022  03:17:00       -6.726       22.401      -10.101        9.397       10.720       10.288       88.311      114.921      105.843        0.048        0.015       23.389        4.756        0.041      330.705       -1.749      875.356
01/11/2022  03:18:00       12.488       29.061       -2.654       12.819        8.893       11.139      164.336       79.085      124.080        0.069        0.018       31.631        4.237        0.018      330.613       -1.902      875.380
01/11/2022  03:19:00       -4.350       31.898       -6.981       12.647       12.423        7.443      159.955      154.335       55.403        0.073        0.018       32.193        2.296        0.005      330.710       -1.741      875.399
01/11/2022  03:20:00        3.312       25.298      -10.510       13.515       13.700       12.919      182.655      187.701      166.889        0.065        0.027       25.514        9.663        0.143      330.683       -1.787      875.401
01/11/2022  03:21:00       -0.108       26.076      -11.753       16.185        9.981       14.357      261.958       99.610      206.126        0.069        0.028       26.076       10.865        0.174      330.817       -1.566      875.402
01/11/2022  03:22:00        8.585       23.820       -4.854       21.516       10.525        7.481      462.929      110.770       55.966        0.065        0.031       25.320        5.563        0.048      330.851       -1.512      875.390
01/11/2022  03:23:00      -23.686        8.064      -13.704       19.100       19.145       12.964      364.828      366.528      168.074        0.086        0.045       25.021        6.448        0.066      330.876       -1.471      875.369
01/11/2022  03:24:00      -46.516       23.778       -2.767       19.930       13.032       12.749      397.208      169.821      162.528        0.173        0.036       52.241       12.615        0.058      330.725       -1.717      875.351
01/11/2022  03:25:00      -27.492        1.524       -9.403       30.274       21.945       16.232      916.493      481.585      263.482        0.125        0.083       27.534       13.695        0.247      330.855       -1.504      875.324
01/11/2022  03:26:00      -86.617       18.168       -9.242       28.594       24.501       19.824      817.620      600.296      392.982        0.486        0.091       88.501       11.479        0.017      330.627       -1.881      875.291
01/11/2022  03:27:00      -77.411       20.782       -4.576       27.913       25.208       19.976      779.160      635.436      399.043        0.413        0.091       80.152       14.903        0.035      330.574       -1.968      875.269
01/11/2022  03:28:00      -74.159       28.688       -9.744       17.622       21.505       15.280      310.524      462.473      233.484        0.371        0.050       79.514       12.085        0.023      330.518       -2.057      875.245
01/11/2022  03:29:00      -60.247       23.855       -7.934       20.549       15.852       11.314      422.270      251.296      128.017        0.253        0.040       64.798        8.147        0.016      330.465       -2.146      875.217
01/11/2022  03:30:00      -44.143        2.007       -7.807       20.593       15.894       11.752      424.053      252.618      138.120        0.141        0.041       44.188        8.661        0.038      330.600       -1.925      875.195
01/11/2022  03:31:00      -35.854        2.768      -10.268       15.917       15.336        9.484      253.350      235.205       89.955        0.099        0.029       35.961        9.397        0.068      330.678       -1.796      875.188
01/11/2022  03:32:00      -38.905       24.113      -11.821       12.587       11.922        9.261      158.443      142.131       85.775        0.131        0.019       45.772        4.516        0.010      330.596       -1.930      875.196
01/11/2022  03:33:00      -25.197       28.503      -11.203       17.651       11.227        9.402      311.551      126.041       88.395        0.105        0.026       38.043        5.398        0.020      330.606       -1.916      875.189
01/11/2022  03:34:00      -25.428       31.788       -7.604       10.467        7.657        8.192      109.566       58.625       67.109        0.098        0.012       40.707        5.781        0.020      330.565       -1.981      875.175
01/11/2022  03:35:00      -26.863       16.006       -9.052       12.967       10.548        9.425      168.137      111.270       88.835        0.071        0.018       31.270        5.258        0.028      330.562       -1.984      875.143
01/11/2022  03:36:00      -42.274        9.225      -12.105       12.102       15.196       10.456      146.464      230.913      109.326        0.125        0.024       43.269        8.043        0.035      330.589       -1.942      875.103
01/11/2022  03:37:00      -34.515        5.496      -13.050       20.523       21.928       11.381      421.185      480.826      129.518        0.121        0.052       34.950        7.063        0.041      330.617       -1.896      875.083
01/11/2022  03:38:00      -66.523       15.403       -6.775       16.892       18.383       14.166      285.354      337.950      200.685        0.277        0.041       68.283        9.824        0.021      330.593       -1.935      875.072
01/11/2022  03:39:00      -74.879       30.643       -6.251       17.992       18.035       11.569      323.699      325.251      133.852        0.368        0.039       80.906        7.828        0.009      330.560       -1.989      875.079
01/11/2022  03:40:00      -78.862       31.104      -10.771       21.396       17.661       15.802      457.785      311.895      249.697        0.416        0.051       84.774       14.291        0.028      330.570       -1.973      875.083
01/11/2022  03:41:00      -72.693       10.584      -12.936       28.444       20.798       17.900      809.052      432.564      320.399        0.356        0.078       73.459       14.205        0.037      330.544       -2.016      875.082
01/11/2022  03:42:00      -72.993        9.009       -9.839       29.312       14.452       17.168      859.186      208.863      294.727        0.343        0.068       73.547       13.449        0.033      330.623       -1.885      875.073
01/11/2022  03:43:00      -68.045       13.944      -11.836       36.983       22.018       11.790     1367.725      484.776      139.003        0.348        0.100       69.459       15.990        0.053      330.592       -1.937      875.057
01/11/2022  03:44:00      -77.199       19.309      -13.222       18.286       17.611       17.207      334.392      310.158      296.093        0.372        0.047       79.577        7.369        0.009      330.680       -1.791      875.040
01/11/2022  03:45:00      -52.367        7.036       -9.096       40.706       21.691       14.279     1656.943      470.502      203.892        0.260        0.117       52.838       10.264        0.038      330.652       -1.837      875.033
01/11/2022  03:46:00      -82.294       27.262      -16.044       27.587       19.069       13.759      761.062      363.625      189.319        0.454        0.066       86.692       11.433        0.017      330.519       -2.058      875.021
01/11/2022  03:47:00      -65.847       19.900       -7.250       18.231       21.050       14.100      332.385      443.116      198.800        0.288        0.049       68.788       12.564        0.033      330.556       -1.997      874.999
01/11/2022  03:48:00      -48.477       24.374       -9.266       25.776       15.186       12.749      664.392      230.604      162.537        0.204        0.053       54.260       14.480        0.071      330.552       -2.002      874.971
01/11/2022  03:49:00      -41.066       23.300      -17.158       15.540       13.242       15.513      241.487      175.353      240.648        0.159        0.033       47.216        3.397        0.005      330.610       -1.908      874.939
01/11/2022  03:50:00      -46.316       26.580      -14.989       14.484       13.449       10.501      209.794      180.886      110.266        0.179        0.025       53.401        6.383        0.014      330.604       -1.917      874.914
01/11/2022  03:51:00      -59.182       19.786      -12.741       19.788       16.927       15.546      391.548      286.539      241.680        0.249        0.046       62.402       10.965        0.031      330.628       -1.877      874.906
01/11/2022  03:52:00      -58.267        8.851      -18.493       14.645       14.252       13.288      214.468      203.124      176.567        0.220        0.030       58.935        5.470        0.009      330.626       -1.880      874.892
01/11/2022  03:53:00      -54.134       18.825      -11.114       22.398       21.043       13.254      501.658      442.826      175.666        0.226        0.056       57.314       10.380        0.033      330.604       -1.916      874.874
01/11/2022  03:54:00      -37.799       14.846      -13.356       24.612       17.827       16.470      605.741      317.809      271.258        0.151        0.060       40.610       14.103        0.121      330.642       -1.854      874.858
01/11/2022  03:55:00      -35.261        8.636       -5.118       23.813       18.979       14.633      567.037      360.194      214.135        0.124        0.057       36.303        8.493        0.055      330.676       -1.800      874.842
01/11/2022  03:56:00      -64.806       22.621      -15.746       24.035       18.687       14.725      577.664      349.193      216.835        0.305        0.057       68.641       13.545        0.039      330.640       -1.857      874.826
01/11/2022  03:57:00      -75.482       19.558      -24.354       25.909       13.797       13.709      671.294      190.354      187.929        0.386        0.052       77.975        8.793        0.013      330.571       -1.971      874.800
01/11/2022  03:58:00      -80.758       19.070      -17.967       25.585       20.074       15.581      654.568      402.951      242.771        0.425        0.065       82.979        4.992        0.004      330.506       -2.077      874.778
01/11/2022  03:59:00      -54.520        3.114      -14.468       40.914       22.133       18.455     1673.966      489.890      340.603        0.285        0.125       54.608       16.469        0.091      330.498       -2.092      874.758
01/11/2022  04:00:00      -19.762       -6.727       -2.039       30.319       22.831       17.914      919.248      521.254      320.916        0.110        0.088       20.875       15.151        0.527      330.418       -2.221      874.748
01/11/2022  04:01:00      -30.128       12.644       -4.750       23.112       29.603       20.019      534.162      876.317      400.743        0.145        0.091       32.674       16.309        0.249      330.459       -2.156      874.731
01/11/2022  04:02:00      -15.628       -0.938       -4.309       16.350       22.416       17.590      267.325      502.473      309.402        0.067        0.054       15.657       10.420        0.443      330.549       -2.007      874.721
01/11/2022  04:03:00      -41.388        3.615      -13.091       28.352       19.978       15.937      803.864      399.136      253.975        0.168        0.073       41.545       15.807        0.145      330.555       -1.998      874.709
01/11/2022  04:04:00     -100.038       22.384      -14.058       18.978       14.979       14.841      360.151      224.366      220.249        0.576        0.040      102.511        4.402        0.002      330.473       -2.133      874.713
01/11/2022  04:05:00      -77.982       20.307       -5.422       40.377       28.595       18.943     1630.296      817.650      358.844        0.466        0.140       80.583       18.505        0.053      330.477       -2.127      874.718
01/11/2022  04:06:00      -90.176       13.211       -8.504       39.369       26.695       24.855     1549.950      712.637      617.758        0.563        0.144       91.138       24.643        0.073      330.544       -2.014      874.732
01/11/2022  04:07:00      -61.899        3.824       -5.509       41.344       24.786       22.837     1709.322      614.363      521.522        0.336        0.142       62.017       19.935        0.103      330.542       -2.019      874.749
01/11/2022  04:08:00      -91.598       11.016       -7.262       52.818       38.221       24.755     2789.763     1460.808      612.809        0.671        0.243       92.258       26.358        0.082      330.471       -2.135      874.776
01/11/2022  04:09:00     -113.047       21.511       -4.483       36.536       25.284       26.008     1334.890      639.301      676.414        0.796        0.133      115.076       23.527        0.042      330.394       -2.262      874.794
01/11/2022  04:10:00      -98.165       15.935       -4.682       53.862       32.082       23.177     2901.146     1029.234      537.161        0.719        0.223       99.450       23.409        0.055      330.363       -2.311      874.819
01/11/2022  04:11:00      -99.412       23.822       -8.239       40.200       37.628       25.068     1616.039     1415.893      628.420        0.709        0.183      102.227       20.992        0.042      330.468       -2.141      874.840
01/11/2022  04:12:00     -101.524       27.139      -17.330       31.372       23.529       20.443      984.233      553.609      417.917        0.665        0.098      105.089       14.669        0.019      330.488       -2.110      874.853
01/11/2022  04:13:00     -102.958       42.331      -19.559       27.638       29.835       26.569      763.882      890.129      705.888        0.757        0.118      111.321       17.492        0.025      330.538       -2.026      874.864
01/11/2022  04:14:00      -89.661       39.439      -15.917       36.684       30.721       25.287     1345.691      943.779      639.414        0.639        0.146       97.952       22.042        0.051      330.548       -2.009      874.873
01/11/2022  04:15:00      -82.295       40.914       -9.189       38.437       31.211       23.430     1477.421      974.108      548.972        0.577        0.150       91.904       17.140        0.035      330.539       -2.025      874.886
01/11/2022  04:16:00      -80.344       61.277      -13.038       34.372       27.876       16.182     1181.462      777.098      261.855        0.630        0.111      101.044       16.138        0.026      330.614       -1.901      874.898
01/11/2022  04:17:00      -78.618       47.950      -12.469       30.761       22.581       20.287      946.237      509.904      411.561        0.525        0.093       92.087       12.275        0.018      330.655       -1.832      874.900
01/11/2022  04:18:00      -63.314       22.534       -8.424       30.368       25.485       21.676      922.204      649.466      469.850        0.331        0.102       67.204       16.811        0.063      330.686       -1.782      874.896
01/11/2022  04:19:00      -60.159       23.226      -23.842       25.212       16.524       19.894      635.638      273.058      395.759        0.302        0.065       64.487       14.722        0.052      330.717       -1.731      874.895
01/11/2022  04:20:00      -22.757        1.454      -15.135       19.403       19.117       17.009      376.478      365.454      289.313        0.089        0.052       22.804        6.704        0.086      330.648       -1.845      874.887
01/11/2022  04:21:00      -58.479       18.031      -11.626       31.503       17.676       16.612      992.454      312.425      275.954        0.273        0.079       61.196       14.667        0.057      330.617       -1.895      874.888
01/11/2022  04:22:00      -42.036        7.548       -5.504       31.740       29.452       20.067     1007.447      867.431      402.672        0.207        0.114       42.708       18.397        0.186      330.573       -1.968      874.878
01/11/2022  04:23:00      -26.535       -3.831      -12.716       32.452       30.656       21.703     1053.106      939.791      471.029        0.167        0.123       26.811       23.365        0.760      330.562       -1.987      874.887
01/11/2022  04:24:00      -14.551       -2.148       -7.829       27.214       19.120       16.211      740.583      365.584      262.796        0.082        0.068       14.709       12.500        0.722      330.501       -2.087      874.896
01/11/2022  04:25:00      -66.036        4.415      -10.706       29.002       27.172       19.276      841.096      738.337      371.571        0.322        0.098       66.183       17.695        0.071      330.524       -2.050      874.916
01/11/2022  04:26:00      -30.056        2.298       -7.047       39.866       18.248       20.644     1589.284      332.973      426.172        0.165        0.117       30.143       16.453        0.298      330.483       -2.116      874.926
01/11/2022  04:27:00      -72.201        7.562       -9.720       38.048       22.052       15.759     1447.681      486.281      248.339        0.377        0.109       72.595       15.872        0.048      330.366       -2.307      874.936
01/11/2022  04:28:00      -83.122       18.516       -8.723       25.758       25.674       15.473      663.458      659.163      239.422        0.444        0.078       85.159       12.262        0.021      330.438       -2.189      874.949
01/11/2022  04:29:00      -66.623       10.081       -9.199       39.790       27.346       16.779     1583.232      747.795      281.541        0.362        0.131       67.381        8.036        0.014      330.414       -2.230      874.974
01/11/2022  04:30:00      -77.442       11.954       -7.392       43.438       27.035       18.020     1886.882      730.870      324.721        0.457        0.147       78.359       21.126        0.073      330.428       -2.206      874.992
01/11/2022  04:31:00     -104.069       41.347       -6.281       26.961       18.535       17.723      726.920      343.535      314.102        0.698        0.069      111.982       14.675        0.017      330.427       -2.207      875.000
01/11/2022  04:32:00     -111.997       26.645      -13.304       18.000       18.859       18.780      324.000      355.655      352.690        0.723        0.052      115.123       12.169        0.011      330.524       -2.048      875.009
01/11/2022  04:33:00      -82.933       30.415       -0.576       32.733       22.965       19.159     1071.427      527.379      367.083        0.488        0.098       88.335       19.490        0.049      330.564       -1.982      875.003
01/11/2022  04:34:00      -79.059       28.488       -5.964       27.591       24.149       16.506      761.271      583.151      272.450        0.436        0.081       84.035       14.092        0.028      330.541       -2.021      874.989
01/11/2022  04:35:00      -42.668        5.055       -4.953       35.840       28.005       13.952     1284.506      784.280      194.646        0.207        0.113       42.966       12.640        0.087      330.586       -1.947      874.985
01/11/2022  04:36:00       -9.180        1.158       -1.582       17.163       13.167       10.089      294.556      173.361      101.796        0.033        0.028        9.252        8.828        0.910      330.558       -1.994      874.968
01/11/2022  04:37:00      -20.001        7.505       -4.015       12.250       15.891       10.857      150.053      252.513      117.880        0.050        0.026       21.363        5.287        0.061      330.438       -2.189      874.966
01/11/2022  04:38:00      -18.489        8.515       -7.405        8.185        5.032        7.599       66.999       25.323       57.740        0.031        0.008       20.356        2.970        0.021      330.491       -2.104      874.958
01/11/2022  04:39:00      -11.871        6.096       -8.851        7.729        7.059        4.952       59.732       49.830       24.526        0.020        0.007       13.345        1.933        0.021      330.504       -2.082      874.944
01/11/2022  04:40:00       -5.431       -3.026      -11.468        4.192        4.205        5.270       17.574       17.683       27.771        0.012        0.003        6.217        2.349        0.143      330.695       -1.769      874.944
01/11/2022  04:41:00        6.326       -1.825       -7.330        7.456       12.384        8.675       55.597      153.376       75.263        0.019        0.014        6.584        4.771        0.525      330.774       -1.637      874.944
01/11/2022  04:42:00       -8.338       -9.980       -5.427       11.917       12.577        6.070      142.025      158.183       36.846        0.027        0.017       13.004        3.774        0.084      330.750       -1.678      874.957
01/11/2022  04:43:00       -8.267        0.439       -3.865        6.920        5.000        7.373       47.883       24.997       54.360        0.011        0.006        8.279        4.060        0.240      330.699       -1.759      874.976
01/11/2022  04:44:00      -23.398        5.049       -1.733       14.519       10.596        7.802      210.802      112.284       60.869        0.048        0.019       23.936        5.008        0.044      330.613       -1.900      874.986
01/11/2022  04:45:00      -25.795        6.822       -4.588       19.944       13.150        8.407      397.753      172.920       70.676        0.069        0.032       26.682        6.190        0.054      330.567       -1.979      874.981
01/11/2022  04:46:00      -63.887       17.258      -14.689       16.691       12.681       13.490      278.573      160.805      181.991        0.261        0.031       66.177       11.339        0.029      330.473       -2.132      874.962
01/11/2022  04:47:00      -22.915        5.793        0.064       28.614       21.844       10.467      818.788      477.144      109.548        0.098        0.070       23.636        9.001        0.145      330.452       -2.165      874.944
01/11/2022  04:48:00      -29.992       -4.211       -8.713       22.789       19.277       10.881      519.324      371.605      118.401        0.100        0.050       30.286        9.216        0.093      330.521       -2.053      874.937
01/11/2022  04:49:00      -45.649        9.447       -2.341       17.148       15.048       13.759      294.067      226.437      189.311        0.144        0.035       46.617       10.747        0.053      330.526       -2.045      874.927
01/11/2022  04:50:00      -74.623       24.069      -10.226       14.647       13.774        9.915      214.549      189.713       98.304        0.338        0.025       78.409        5.446        0.005      330.460       -2.152      874.929
01/11/2022  04:51:00      -44.225        1.733       -6.052       24.767       21.539       16.379      613.400      463.920      268.282        0.167        0.067       44.259        8.714        0.039      330.581       -1.955      874.923
01/11/2022  04:52:00      -83.820       24.326       -8.991       19.073       16.014       13.469      363.763      256.433      181.406        0.425        0.040       87.278        7.871        0.008      330.375       -2.292      874.928
01/11/2022  04:53:00      -71.391       15.355       -7.718       19.362       18.043       17.066      374.871      325.558      291.234        0.319        0.050       73.024        9.590        0.017      330.444       -2.178      874.928
01/11/2022  04:54:00      -74.646       18.265       -4.573       21.370       21.657       17.546      456.670      469.045      307.861        0.358        0.062       76.849       13.946        0.033      330.400       -2.252      874.934
01/11/2022  04:55:00      -69.970       27.648       -5.384       23.437       25.729       20.904      549.308      661.987      436.982        0.367        0.082       75.234       14.156        0.035      330.349       -2.336      874.939
01/11/2022  04:56:00     -100.454       32.881       -4.635       39.939       29.232       26.427     1595.147      854.505      698.388        0.717        0.157      105.698       27.174        0.066      330.346       -2.340      874.955
01/11/2022  04:57:00      -88.537       28.175        0.466       42.101       32.286       19.438     1772.452     1042.416      377.838        0.591        0.160       92.912       21.472        0.053      330.328       -2.369      874.957
01/11/2022  04:58:00      -97.106       18.558       -3.202       58.032       26.898       25.029     3367.657      723.513      626.446        0.725        0.236       98.863       25.319        0.066      330.425       -2.211      874.966
01/11/2022  04:59:00     -120.155       29.882       -8.109       41.625       30.757       24.202     1732.608      945.995      585.730        0.933        0.163      123.815       21.942        0.031      330.320       -2.382      874.961
01/11/2022  05:00:00     -129.258       37.451       -6.475       31.773       20.972       18.079     1009.513      439.839      326.868        0.996        0.089      134.574       16.054        0.014      330.263       -2.475      874.956
01/11/2022  05:01:00      -95.287       22.414      -10.431       36.575       41.589       24.261     1337.752     1729.643      588.618        0.667        0.183       97.888       18.496        0.036      330.293       -2.427      874.960
01/11/2022  05:02:00     -106.110       24.743      -17.076       40.033       31.080       22.589     1602.650      965.976      510.274        0.762        0.154      108.956       17.513        0.026      330.261       -2.479      874.983
01/11/2022  05:03:00     -110.334       29.458      -12.661       53.012       33.240       20.856     2810.286     1104.915      434.970        0.878        0.218      114.199       16.324        0.020      330.280       -2.449      874.995
01/11/2022  05:04:00     -111.407       20.110       -2.347       57.530       39.621       20.394     3309.748     1569.813      415.931        0.906        0.265      113.208       28.092        0.062      330.311       -2.398      875.007
01/11/2022  05:05:00      -96.662       22.278       -3.125       50.606       40.912       23.136     2560.998     1673.752      535.277        0.731        0.239       99.196       24.133        0.059      330.309       -2.400      875.017
01/11/2022  05:06:00       -6.692        1.176        5.076       24.499       26.304       19.374      600.224      691.912      375.355        0.087        0.083        6.794       13.164        3.754      330.368       -2.304      875.013
01/11/2022  05:07:00      -20.526      -11.399       -8.298       30.631       29.420       16.302      938.286      865.520      265.743        0.134        0.103       23.479        8.880        0.143      330.392       -2.265      875.000
01/11/2022  05:08:00      -17.103        7.824      -12.127       24.910       21.991       12.426      620.533      483.589      154.406        0.088        0.063       18.808        9.262        0.243      330.350       -2.333      874.974
01/11/2022  05:09:00      -61.176        8.192      -18.665       30.907       23.063       14.445      955.261      531.923      208.644        0.293        0.085       61.722       14.715        0.057      330.334       -2.358      874.962
01/11/2022  05:10:00      -53.881       23.052      -14.786       37.019       16.758       14.794     1370.438      280.819      218.867        0.276        0.094       58.605        7.087        0.015      330.305       -2.407      874.950
01/11/2022  05:11:00      -43.080       19.191      -15.262       25.928       19.914       14.845      672.278      396.558      220.363        0.187        0.064       47.161        8.430        0.032      330.349       -2.335      874.944
01/11/2022  05:12:00      -94.191       30.637      -19.603       38.857       32.660       16.731     1509.891     1066.672      279.912        0.653        0.143       99.048        6.801        0.005      330.351       -2.332      874.956
01/11/2022  05:13:00      -92.882       17.544      -13.325       55.802       31.992       24.592     3113.910     1023.482      604.752        0.693        0.237       94.524       20.020        0.045      330.377       -2.289      874.977
01/11/2022  05:14:00      -64.305        3.515      -11.657       42.763       35.386       21.949     1828.666     1252.156      481.761        0.392        0.178       64.401       17.323        0.072      330.373       -2.296      874.998
01/11/2022  05:15:00      -14.465       -9.924       -8.571       32.948       20.362       16.983     1085.550      414.603      288.412        0.108        0.089       17.543       12.985        0.548      330.379       -2.285      875.010
01/11/2022  05:16:00      -27.550       -7.429       -6.983       39.069       31.164       18.958     1526.356      971.223      359.409        0.186        0.143       28.534       15.767        0.305      330.395       -2.260      875.012
01/11/2022  05:17:00      -47.731       -0.521        2.038       34.494       23.753       18.222     1189.854      564.225      332.055        0.218        0.104       47.734       13.393        0.079      330.462       -2.149      875.019
01/11/2022  05:18:00      -74.750       11.334       -8.344       38.101       26.321       16.439     1451.719      692.817      270.227        0.410        0.121       75.605       18.261        0.058      330.434       -2.196      875.034
01/11/2022  05:19:00      -94.498       28.118      -14.734       34.251       26.532       16.291     1173.110      703.971      265.384        0.604        0.107       98.592       16.900        0.029      330.304       -2.408      875.053
01/11/2022  05:20:00     -102.814       34.009      -16.249       40.598       28.533       23.894     1648.208      814.126      570.914        0.751        0.152      108.293       13.845        0.016      330.288       -2.435      875.063
01/11/2022  05:21:00      -92.890       32.609      -10.304       62.667       35.116       23.595     3927.174     1233.167      556.735        0.776        0.286       98.447       29.858        0.092      330.323       -2.377      875.070
01/11/2022  05:22:00      -95.643       21.390      -10.233       46.950       32.516       22.000     2204.309     1057.278      483.978        0.673        0.187       98.006       11.309        0.013      330.475       -2.128      875.076
01/11/2022  05:23:00     -107.979       32.123       -7.646       36.040       31.315       21.956     1298.868      980.618      482.068        0.776        0.138      112.655       24.796        0.048      330.454       -2.163      875.080
01/11/2022  05:24:00      -74.784       19.092       -6.945       50.499       23.513       16.549     2550.107      552.842      273.873        0.469        0.169       77.182       20.878        0.073      330.455       -2.161      875.069
01/11/2022  05:25:00      -90.407       36.072       -6.319       29.003       17.290       18.643      841.165      298.929      347.569        0.550        0.074       97.338       15.337        0.025      330.442       -2.184      875.056
01/11/2022  05:26:00      -90.233       36.098       -7.945       19.314       19.022       10.923      373.025      361.826      119.303        0.518        0.043       97.186        7.413        0.006      330.495       -2.095      875.052
01/11/2022  05:27:00      -83.499       27.000       -8.714       19.680       15.433       13.966      387.301      238.172      195.063        0.430        0.041       87.755        7.427        0.007      330.510       -2.072      875.062
01/11/2022  05:28:00      -68.991       22.103       -9.174       20.124       24.993       13.952      404.975      624.636      194.660        0.328        0.061       72.445       10.395        0.021      330.543       -2.017      875.072
01/11/2022  05:29:00      -30.089       -0.822       -7.214       18.389       18.059       17.543      338.165      326.136      307.748        0.096        0.049       30.101       12.829        0.182      330.477       -2.125      875.088
01/11/2022  05:30:00       -7.975        2.353        1.051       21.598       13.745       13.378      466.494      188.920      178.977        0.045        0.042        8.315       12.483        2.254      330.454       -2.164      875.098
01/11/2022  05:31:00       -4.546        6.188       -1.590       16.232       10.021       10.012      263.481      100.429      100.241        0.026        0.023        7.678        7.816        1.036      330.537       -2.028      875.102
01/11/2022  05:32:00      -25.117       -8.820       -7.205       19.596       15.491       11.786      383.993      239.957      138.918        0.076        0.038       26.620        8.479        0.101      330.561       -1.989      875.103
01/11/2022  05:33:00      -23.272       -2.906       -6.972       24.048       16.868       12.663      578.330      284.514      160.363        0.081        0.051       23.453       11.555        0.243      330.519       -2.056      875.108
01/11/2022  05:34:00      -58.888       27.046      -10.409       28.077       26.994       11.970      788.296      728.663      143.284        0.298        0.083       64.802        9.478        0.021      330.436       -2.194      875.108
01/11/2022  05:35:00      -68.036       34.122       -4.602       20.597       23.398       14.439      424.245      547.448      208.497        0.350        0.059       76.113       13.314        0.031      330.371       -2.298      875.105
01/11/2022  05:36:00      -23.829       -4.783       -1.683       25.557       18.673        9.294      653.156      348.690       86.378        0.084        0.054       24.304        9.781        0.162      330.461       -2.152      875.085
01/11/2022  05:37:00       -7.467       -6.294        0.767       13.280       13.859       10.496      176.349      192.061      110.174        0.029        0.024        9.766        7.519        0.593      330.658       -1.829      875.066
01/11/2022  05:38:00       -0.220       11.916        2.787       19.368        9.931        8.999      375.122       98.616       80.983        0.035        0.028       11.918        7.726        0.420      330.541       -2.021      875.052
01/11/2022  05:39:00        0.797        5.365       -0.300       16.397       22.378       14.947      268.852      500.797      223.416        0.051        0.050        5.424       10.630        3.841      330.467       -2.141      875.052
01/11/2022  05:40:00       -8.299        7.307        5.276       17.247       14.701       10.973      297.460      216.106      120.407        0.039        0.032       11.057        4.568        0.171      330.423       -2.214      875.048
01/11/2022  05:41:00      -39.652       12.797       -4.247       16.671       20.900        8.271      277.931      436.817       68.413        0.127        0.039       41.666        5.506        0.017      330.470       -2.137      875.066
01/11/2022  05:42:00      -24.082       -0.814       -8.787       21.864       22.326       13.206      478.026      498.449      174.393        0.090        0.058       24.095       12.734        0.279      330.450       -2.169      875.086
01/11/2022  05:43:00      -14.370       -6.397       -7.553       16.297       13.642       12.196      265.583      186.092      148.734        0.045        0.030       15.730        7.646        0.236      330.468       -2.141      875.125
01/11/2022  05:44:00      -16.799       13.323       -8.278       15.776       14.381       14.213      248.885      206.807      202.011        0.059        0.033       21.441       10.592        0.244      330.432       -2.199      875.163
01/11/2022  05:45:00      -26.702       -0.709       -7.436       15.701       22.870       13.600      246.521      523.060      184.959        0.086        0.048       26.712        9.993        0.140      330.531       -2.036      875.212
01/11/2022  05:46:00      -24.299       -9.975       -7.015       15.510       23.475       11.034      240.560      551.062      121.740        0.083        0.046       26.266        6.692        0.065      330.548       -2.009      875.249
01/11/2022  05:47:00       -1.017      -19.935       -4.553        9.416       15.891       10.643       88.670      252.531      113.266        0.044        0.023       19.961        2.933        0.022      330.559       -1.992      875.256
01/11/2022  05:48:00        0.826      -32.644       -7.900       11.354       15.380       12.666      128.914      236.556      160.428        0.083        0.026       32.655        4.463        0.019      330.547       -2.011      875.252
01/11/2022  05:49:00      -24.946      -23.582      -15.006       13.053       14.836        9.129      170.385      220.098       83.345        0.094        0.024       34.328        8.461        0.061      330.433       -2.200      875.239
01/11/2022  05:50:00       -9.516      -17.990      -12.029        7.396       11.824       10.116       54.700      139.809      102.331        0.043        0.015       20.352        6.220        0.093      330.451       -2.168      875.221
01/11/2022  05:51:00      -15.198      -14.662       -8.550       10.099       11.974        9.816      101.990      143.374       96.358        0.043        0.017       21.118        4.431        0.044      330.575       -1.964      875.187
01/11/2022  05:52:00      -14.820      -21.718      -11.045       15.427       14.207       11.621      238.007      201.845      135.042        0.069        0.029       26.292        5.106        0.038      330.594       -1.933      875.137
01/11/2022  05:53:00      -15.584       11.163       -9.323       12.927        6.812        6.261      167.097       46.404       39.195        0.035        0.013       19.170        5.178        0.073      330.534       -2.032      875.097
01/11/2022  05:54:00      -21.151       14.219       -9.936       21.410       11.655        8.175      458.395      135.834       66.829        0.070        0.033       25.486        9.283        0.133      330.526       -2.045      875.080
01/11/2022  05:55:00       -1.669      -23.177       -8.683        8.442        7.979        9.474       71.260       63.669       89.748        0.042        0.011       23.237        3.835        0.027      330.593       -1.935      875.093
01/11/2022  05:56:00       -2.801       -8.520       -7.292        6.974        8.620        9.498       48.644       74.305       90.211        0.017        0.011        8.968        4.207        0.220      330.713       -1.737      875.120
01/11/2022  05:57:00        1.766       -5.301       -5.363       10.008        7.046        7.071      100.166       49.646       49.996        0.013        0.010        5.587        4.888        0.765      330.572       -1.970      875.141
01/11/2022  05:58:00      -24.836       10.073       -1.572       21.747       10.641        7.999      472.916      113.235       63.990        0.069        0.033       26.800       10.666        0.158      330.551       -2.004      875.130
01/11/2022  05:59:00      -56.890       18.390       -3.640       17.295        9.799       13.428      299.123       96.029      180.316        0.208        0.029       59.788       11.062        0.034      330.506       -2.078      875.097
01/11/2022  06:00:00      -29.093        4.248       -5.836       21.553       11.990       13.553      464.526      143.762      183.685        0.085        0.040       29.401       13.168        0.201      330.387       -2.271      875.069
01/11/2022  06:01:00      -15.758       -2.572        0.634       16.131       10.907        8.819      260.224      118.961       77.779        0.036        0.023       15.967        8.134        0.260      330.388       -2.269      875.063
01/11/2022  06:02:00      -14.257       -9.891        3.212        9.172       18.705       10.126       84.122      349.883      102.531        0.042        0.027       17.352        7.038        0.164      330.554       -1.998      875.080
01/11/2022  06:03:00      -19.235       21.506       -3.936       18.435       13.273        9.021      339.834      176.164       81.379        0.072        0.030       28.853        5.020        0.030      330.436       -2.191      875.124
01/11/2022  06:04:00       12.676       28.297       -1.198       26.014       15.547       11.720      676.731      241.696      137.366        0.101        0.053       31.006       10.635        0.118      330.311       -2.396      875.188
01/11/2022  06:05:00       35.582       26.862      -18.595       19.608       18.134       15.235      384.491      328.832      232.117        0.164        0.047       44.582       13.821        0.096      330.199       -2.582      875.241
01/11/2022  06:06:00       32.844       25.166      -23.698       37.689       30.147       17.482     1420.476      908.836      305.623        0.245        0.132       41.377       16.410        0.157      330.197       -2.584      875.281
01/11/2022  06:07:00       39.577       38.204      -17.170       33.132       21.592       21.224     1097.723      466.194      450.459        0.267        0.101       55.008       20.517        0.139      330.108       -2.730      875.297
01/11/2022  06:08:00       36.856       31.700      -15.114       23.178       17.236       15.033      537.236      297.074      225.991        0.183        0.053       48.613        8.025        0.027      330.073       -2.787      875.295
01/11/2022  06:09:00       38.004       17.089      -16.379       11.904       16.328        9.343      141.705      266.611       87.292        0.125        0.025       41.670        5.793        0.019      330.046       -2.833      875.296
01/11/2022  06:10:00       46.669       13.399      -10.610       18.909       18.221       12.154      357.554      332.016      147.716        0.165        0.042       48.555        6.599        0.018      330.013       -2.887      875.292
01/11/2022  06:11:00       55.119       23.884      -12.372       14.641       14.748        8.439      214.362      217.506       71.211        0.213        0.025       60.072        5.939        0.010      329.961       -2.970      875.301
01/11/2022  06:12:00       39.771       28.640       -7.403       20.226       11.308       10.802      409.096      127.874      116.680        0.156        0.033       49.010       10.099        0.042      329.976       -2.946      875.313
01/11/2022  06:13:00       17.000       36.994       -7.950       13.076       12.431       10.105      170.994      154.524      102.117        0.107        0.021       40.713        7.490        0.034      330.036       -2.847      875.342
01/11/2022  06:14:00       14.511       44.226       -6.847       14.692       11.189        9.644      215.842      125.192       93.004        0.132        0.022       46.545        5.623        0.015      330.140       -2.678      875.390
01/11/2022  06:15:00      -11.495       44.886       -7.336       18.078       19.167        9.053      326.818      367.373       81.951        0.149        0.039       46.335        7.585        0.027      330.113       -2.723      875.435
01/11/2022  06:16:00       -7.154       56.346       -8.027       12.246       15.180       11.852      149.967      230.440      140.479        0.191        0.026       56.798        3.647        0.004      330.122       -2.708      875.463
01/11/2022  06:17:00       10.393       49.268      -10.309       14.871       14.887        8.992      221.159      221.628       80.849        0.158        0.026       50.352        6.010        0.014      330.205       -2.570      875.483
01/11/2022  06:18:00       30.396       28.924      -12.021       15.672       14.263       10.221      245.599      203.425      104.465        0.123        0.028       41.958        6.109        0.021      330.194       -2.590      875.486
01/11/2022  06:19:00       51.842       44.162      -11.719       17.842       11.955       12.246      318.352      142.921      149.970        0.269        0.031       68.102        6.671        0.010      330.172       -2.627      875.496
01/11/2022  06:20:00       29.549       34.504       -8.166       19.562       13.647       11.589      382.681      186.227      134.316        0.142        0.035       45.428        8.897        0.038      330.139       -2.681      875.505
01/11/2022  06:21:00       12.670       67.898       -3.863       14.330       24.667        9.823      205.348      608.477       96.500        0.285        0.046       69.070       10.254        0.022      330.420       -2.218      875.519
01/11/2022  06:22:00      -33.740       45.791       -5.310       31.504       24.357       15.358      992.482      593.268      235.880        0.254        0.091       56.879       15.859        0.078      330.278       -2.452      875.528
01/11/2022  06:23:00      -60.481       21.616      -11.499       23.184       18.326       16.592      537.481      335.854      275.287        0.270        0.057       64.228       11.787        0.034      330.241       -2.512      875.529
01/11/2022  06:24:00      -68.094       23.313      -16.694       12.287       10.951       11.247      150.980      119.931      126.496        0.293        0.020       71.975        4.523        0.004      330.216       -2.554      875.532
01/11/2022  06:25:00      -78.681       26.458      -14.053       12.053       12.735        9.254      145.280      162.171       85.634        0.374        0.020       83.011        7.498        0.008      330.285       -2.440      875.530
01/11/2022  06:26:00      -45.281        9.194      -10.390       33.945       24.559       16.801     1152.250      603.147      282.285        0.214        0.102       46.205       18.728        0.164      330.361       -2.315      875.532
01/11/2022  06:27:00      -65.419       21.301       -8.288       25.444       19.870       19.106      647.404      394.811      365.025        0.310        0.070       68.800       16.923        0.061      330.385       -2.274      875.532
01/11/2022  06:28:00      -49.370        6.294       -9.285       19.019       16.845       12.137      361.728      283.770      147.307        0.168        0.040       49.770       11.174        0.050      330.403       -2.247      875.526
01/11/2022  06:29:00      -57.091       17.182      -15.076       13.910       11.666        9.251      193.496      136.085       85.587        0.210        0.021       59.621        4.771        0.006      330.379       -2.286      875.523
01/11/2022  06:30:00      -49.501        9.267       -6.800       18.633       10.980       11.393      347.203      120.550      129.805        0.159        0.030       50.361        8.874        0.031      330.413       -2.230      875.521
01/11/2022  06:31:00      -52.399       12.418       -5.750       20.934       14.361       11.335      438.238      206.226      128.479        0.185        0.039       53.850        8.970        0.028      330.471       -2.134      875.525
01/11/2022  06:32:00      -17.715        0.166       -6.440       21.751       18.746        9.943      473.085      351.414       98.854        0.064        0.046       17.715        4.186        0.056      330.460       -2.153      875.550
01/11/2022  06:33:00      -34.477       15.568      -11.175        9.532       11.156        8.952       90.857      124.462       80.132        0.093        0.015       37.829        2.232        0.003      330.520       -2.057      875.581
01/11/2022  06:34:00      -41.323       10.483       -9.798       14.907       11.752       10.289      222.211      138.112      105.873        0.119        0.023       42.632        4.316        0.010      330.534       -2.032      875.616
01/11/2022  06:35:00      -24.248       -1.095       -6.374       13.771       16.732       11.225      189.650      279.956      125.999        0.061        0.030       24.273        6.525        0.072      330.571       -1.972      875.638
01/11/2022  06:36:00      -18.912        9.194      -11.645       10.960        4.948        5.363      120.127       24.480       28.759        0.038        0.009       21.029        4.325        0.042      330.467       -2.140      875.634
01/11/2022  06:37:00       20.593        0.636       -9.622       15.576        8.494        6.450      242.604       72.151       41.603        0.044        0.018       20.602        3.121        0.023      330.538       -2.026      875.616
01/11/2022  06:38:00       69.388        8.225       -7.749       19.451       20.273       10.653      378.356      410.996      113.496        0.292        0.045       69.874        8.795        0.016      330.498       -2.090      875.592
01/11/2022  06:39:00       25.279       -4.462       -3.219       35.085       27.148       20.621     1230.968      737.029      425.229        0.153        0.120       25.670       20.045        0.610      330.330       -2.365      875.575
01/11/2022  06:40:00       30.806        5.708      -12.052       22.402       25.145       21.377      501.848      632.255      456.968        0.136        0.080       31.331       13.106        0.175      330.193       -2.590      875.570
01/11/2022  06:41:00       84.715        6.834      -14.492       24.521       17.467       14.775      601.281      305.080      218.310        0.428        0.056       84.990        8.978        0.011      330.192       -2.593      875.562
01/11/2022  06:42:00       47.552        9.745       -2.027       32.483       28.085       22.488     1055.142      788.792      505.731        0.235        0.117       48.540       16.943        0.122      330.160       -2.647      875.538
01/11/2022  06:43:00       56.501        6.344       -4.485       28.734       28.406       21.428      825.650      806.926      459.145        0.267        0.105       56.856       15.676        0.076      330.197       -2.584      875.509
01/11/2022  06:44:00       42.856       10.312        5.950       44.398       35.777       27.425     1971.169     1279.984      752.152        0.299        0.200       44.079       20.081        0.208      330.252       -2.496      875.477
01/11/2022  06:45:00       23.107       21.078        2.621       33.725       31.267       30.760     1137.409      977.609      946.180        0.202        0.153       31.276       15.528        0.246      330.350       -2.332      875.443
01/11/2022  06:46:00       36.888        7.366       -2.002       35.433       37.337       23.551     1255.531     1394.067      554.670        0.231        0.160       37.616        5.444        0.021      330.273       -2.459      875.426
01/11/2022  06:47:00       61.724       -9.713       -7.761       30.030       27.391       22.643      901.831      750.275      512.684        0.306        0.108       62.483       16.077        0.066      330.142       -2.677      875.422
01/11/2022  06:48:00       47.229       -4.125      -11.343       29.401       27.421       16.881      864.419      751.908      284.968        0.214        0.095       47.409       10.683        0.051      330.172       -2.625      875.430
01/11/2022  06:49:00       79.687      -17.700       -6.986       20.004       16.829       14.184      400.164      283.220      201.181        0.380        0.044       81.629       10.579        0.017      330.186       -2.603      875.442
01/11/2022  06:50:00       65.911      -29.507       -6.892       25.599       29.507       15.843      655.296      870.689      251.007        0.352        0.089       72.214       15.181        0.044      330.223       -2.541      875.447
01/11/2022  06:51:00       86.065      -41.204       -9.639       26.747       16.910       18.272      715.382      285.965      333.856        0.527        0.067       95.419       15.874        0.028      330.233       -2.527      875.428
01/11/2022  06:52:00       73.770      -31.477      -13.329       41.508       35.691       26.712     1722.890     1273.816      713.552        0.516        0.186       80.204       21.026        0.069      330.274       -2.457      875.380
01/11/2022  06:53:00       52.164      -25.765      -23.593       46.078       42.564       29.711     2123.166     1811.682      882.767        0.438        0.241       58.180       28.851        0.246      330.282       -2.444      875.337
01/11/2022  06:54:00       79.640      -75.528      -42.895       27.629       39.559       17.048      763.348     1564.945      290.647        0.825        0.131      109.759       11.720        0.011      330.316       -2.387      875.317
01/11/2022  06:55:00       62.685      -44.577      -28.513       32.520       58.308       24.086     1057.533     3399.813      580.126        0.588        0.252       76.919       12.683        0.027      330.281       -2.446      875.329
01/11/2022  06:56:00       69.236      -28.734       -5.014       46.495       32.885       30.563     2161.821     1081.417      934.120        0.491        0.209       74.962       25.143        0.112      330.270       -2.465      875.361
01/11/2022  06:57:00       80.397      -17.416      -13.995       43.434       38.378       29.529     1886.470     1472.901      871.937        0.560        0.212       82.262       19.874        0.058      330.312       -2.395      875.386
01/11/2022  06:58:00       80.936       -7.226      -26.829       40.416       45.796       34.328     1633.471     2097.296     1178.401        0.611        0.245       81.258       21.773        0.072      330.448       -2.172      875.406
01/11/2022  06:59:00       83.218       -8.152      -23.815       37.946       41.198       33.952     1439.933     1697.259     1152.745        0.592        0.214       83.617       21.493        0.066      330.342       -2.346      875.407
01/11/2022  07:00:00       71.953      -20.709      -12.822       66.495       34.972       37.431     4421.603     1223.015     1401.088        0.641        0.352       74.873       34.817        0.216      330.345       -2.342      875.395
01/11/2022  07:01:00       64.612      -13.201       -3.739       55.731       32.644       40.653     3105.890     1065.630     1652.699        0.509        0.291       65.946       36.243        0.302      330.275       -2.456      875.379
01/11/2022  07:02:00       46.125        5.703       -2.454       45.184       39.301       32.486     2041.610     1544.578     1055.347        0.340        0.232       46.476       26.641        0.329      330.248       -2.501      875.367
01/11/2022  07:03:00       70.170      -19.614      -11.695       31.149       36.443       26.998      970.265     1328.080      728.898        0.424        0.151       72.859       20.757        0.081      330.284       -2.442      875.379
01/11/2022  07:04:00       61.619       -9.634       -0.939       29.684       28.203       21.450      881.145      795.398      460.093        0.301        0.107       62.368       18.913        0.092      330.216       -2.552      875.380
01/11/2022  07:05:00       63.910      -33.293      -10.637       33.322       22.091       25.959     1110.383      487.995      673.852        0.379        0.114       72.062       18.778        0.068      330.268       -2.465      875.395
01/11/2022  07:06:00       45.521       11.464      -13.493       23.923       28.130       15.558      572.332      791.280      242.058        0.200        0.080       46.943       10.561        0.051      330.287       -2.436      875.424
01/11/2022  07:07:00       17.153       -1.346        0.612       29.077       20.708       19.788      845.492      428.834      391.573        0.098        0.083       17.206       12.994        0.570      330.296       -2.422      875.458
01/11/2022  07:08:00       86.065       17.575      -12.139       25.917       16.567       10.283      671.670      274.465      105.749        0.446        0.053       87.841        6.692        0.006      330.179       -2.615      875.491
01/11/2022  07:09:00       40.670      -11.883       -6.307       44.793       26.818       22.414     2006.435      719.180      502.394        0.253        0.161       42.370       21.770        0.264      330.236       -2.520      875.506
01/11/2022  07:10:00       21.747        9.415       -4.898       42.627       41.038       22.956     1817.100     1684.100      526.972        0.231        0.201       23.697        8.196        0.120      330.208       -2.566      875.507
01/11/2022  07:11:00       26.230       34.709       -2.114       43.240       39.970       25.007     1869.661     1597.578      625.371        0.299        0.205       43.506       12.433        0.082      330.212       -2.560      875.509
01/11/2022  07:12:00       62.583       22.048       -3.018       32.194       20.447       20.899     1036.478      418.076      436.777        0.315        0.095       66.353       13.726        0.043      330.165       -2.638      875.507
01/11/2022  07:13:00       66.682       28.160      -10.453       24.203       14.990       20.671      585.773      224.708      427.288        0.329        0.062       72.384       15.763        0.047      330.132       -2.693      875.501
01/11/2022  07:14:00       19.050       22.560       -3.069       14.894       12.114       11.889      221.825      146.747      141.341        0.070        0.025       29.527        9.021        0.093      330.104       -2.739      875.501
01/11/2022  07:15:00       18.669       24.807       -1.712       11.798       19.368       10.339      139.191      375.101      106.889        0.079        0.031       31.048        6.468        0.043      330.143       -2.673      875.489
01/11/2022  07:16:00       26.127       36.470       -6.856       20.731       23.711       14.854      429.781      562.222      220.643        0.164        0.061       44.863       10.202        0.052      330.083       -2.772      875.480
01/11/2022  07:17:00       29.866       23.837       -8.014       15.803       15.516       12.009      249.728      240.743      144.221        0.108        0.032       38.212        8.441        0.049      330.106       -2.735      875.463
01/11/2022  07:18:00       40.628       26.126      -10.696       10.939       10.907       10.074      119.663      118.959      101.488        0.139        0.017       48.303        3.101        0.004      330.086       -2.767      875.449
01/11/2022  07:19:00       24.743       18.865       -7.011       10.641       10.281       14.016      113.241      105.707      196.437        0.072        0.021       31.115        6.261        0.040      330.043       -2.835      875.440
01/11/2022  07:20:00       22.594       16.037       -8.719       10.600       11.509       12.877      112.354      132.464      165.815        0.063        0.021       27.707        7.360        0.071      330.077       -2.781      875.447
01/11/2022  07:21:00       14.666       18.447       -7.743        9.883       10.979        8.070       97.675      120.538       65.131        0.045        0.014       23.567        4.837        0.042      330.127       -2.702      875.449
01/11/2022  07:22:00       16.910       31.716       -4.257       15.930        8.001        9.959      253.749       64.016       99.180        0.086        0.021       35.942        8.550        0.057      330.150       -2.661      875.444
01/11/2022  07:23:00       18.888       37.760       -5.841       14.487       10.436        6.611      209.879      108.901       43.708        0.109        0.018       42.221        5.265        0.016      330.188       -2.597      875.421
01/11/2022  07:24:00       38.442       37.161       -6.999        9.623       12.664        8.412       92.598      160.365       70.758        0.162        0.016       53.468        4.235        0.006      330.144       -2.672      875.387
01/11/2022  07:25:00       47.982       28.439       -7.466        9.091       10.042        8.873       82.639      100.832       78.722        0.171        0.013       55.777        4.905        0.008      330.195       -2.589      875.355
01/11/2022  07:26:00       37.962       26.096       -6.910       21.266       11.166        9.687      452.253      124.670       93.838        0.142        0.034       46.066        7.799        0.029      330.146       -2.668      875.337
01/11/2022  07:27:00       26.859       28.877       -2.984       17.463       19.717       15.127      304.967      388.767      228.817        0.124        0.046       39.438       10.004        0.064      330.159       -2.648      875.334
01/11/2022  07:28:00       23.586       37.714       -0.468       16.247       16.122       11.635      263.979      259.925      135.383        0.132        0.033       44.482        8.254        0.034      330.182       -2.609      875.344
01/11/2022  07:29:00       29.625       49.683       -5.980       15.028       15.699       11.866      225.837      246.454      140.791        0.200        0.031       57.845        8.921        0.024      330.264       -2.475      875.359
01/11/2022  07:30:00       24.562       54.752      -10.030       13.639       18.459       11.770      186.025      340.751      138.529        0.218        0.033       60.009        7.883        0.017      330.262       -2.476      875.368
01/11/2022  07:31:00       -0.627       33.538       -1.907       19.946       17.640       11.197      397.850      311.162      125.368        0.098        0.042       33.543        6.336        0.036      330.248       -2.500      875.370
01/11/2022  07:32:00       -1.018       29.457      -14.765       21.103       14.285       12.768      445.356      204.054      163.013        0.095        0.041       29.475        6.783        0.053      330.226       -2.536      875.366
01/11/2022  07:33:00       14.844       39.867       -0.436       22.040       19.288       18.712      485.749      372.035      350.128        0.151        0.060       42.540       13.339        0.098      330.224       -2.539      875.358
01/11/2022  07:34:00       -2.939       45.643       -9.139       14.472       20.678       10.671      209.443      427.573      113.877        0.146        0.038       45.738        9.059        0.039      330.239       -2.514      875.366
01/11/2022  07:35:00      -22.528       33.860      -14.207       19.668       24.517       14.077      386.836      601.101      198.170        0.152        0.059       40.669       10.307        0.064      330.226       -2.536      875.385
01/11/2022  07:36:00      -56.555       15.882      -13.900       16.860       17.776       16.151      284.275      315.989      260.851        0.225        0.043       58.743        9.165        0.024      330.225       -2.539      875.403
01/11/2022  07:37:00      -75.583       11.104      -13.010       20.488       17.174       13.715      419.764      294.946      188.095        0.345        0.045       76.394       10.628        0.019      330.220       -2.546      875.428
01/11/2022  07:38:00      -88.866       29.503       -4.409       27.844       24.519       15.199      775.293      601.188      231.006        0.520        0.080       93.636       14.673        0.025      330.219       -2.547      875.444
01/11/2022  07:39:00     -103.938       38.661      -10.489       23.078       21.362       13.959      532.596      456.348      194.852        0.680        0.059      110.895        9.105        0.007      330.232       -2.528      875.456
01/11/2022  07:40:00     -109.152       31.835      -10.622       25.989       18.411       16.861      675.410      338.982      284.277        0.717        0.065      113.699       11.576        0.010      330.167       -2.634      875.458
01/11/2022  07:41:00     -101.500       31.830      -10.863       36.053       20.623       18.728     1299.818      425.295      350.720        0.675        0.104      106.373       19.068        0.032      330.271       -2.463      875.461
01/11/2022  07:42:00      -63.042       32.688       -5.835       34.323       26.138       19.890     1178.072      683.180      395.597        0.367        0.113       71.013       17.433        0.060      330.255       -2.489      875.469
01/11/2022  07:43:00      -79.158       33.624       -5.408       26.196       19.461       14.215      686.207      378.737      202.057        0.435        0.063       86.004       10.171        0.014      330.207       -2.567      875.478
01/11/2022  07:44:00      -81.039       51.492       -5.799       29.950       24.679       18.989      896.997      609.066      360.571        0.556        0.093       96.014       19.039        0.039      330.184       -2.606      875.493
01/11/2022  07:45:00     -101.110       57.652       -5.174       24.388       22.183       18.842      594.781      492.085      355.010        0.751        0.072      116.392       16.104        0.019      330.200       -2.579      875.500
01/11/2022  07:46:00      -96.507       41.094       -2.078       41.588       26.322       20.877     1729.546      692.837      435.861        0.693        0.143      104.891       23.054        0.048      330.148       -2.666      875.496
01/11/2022  07:47:00      -99.172       53.383       -5.741       36.322       30.555       21.699     1319.268      933.629      470.842        0.772        0.136      112.627       16.607        0.022      330.112       -2.725      875.483
01/11/2022  07:48:00      -92.552       51.698       -5.765       34.774       28.824       19.405     1209.256      830.825      376.544        0.684        0.121      106.012       10.761        0.010      330.091       -2.760      875.461
01/11/2022  07:49:00      -78.305       33.260        0.524       31.394       20.914       17.971      985.586      437.394      322.945        0.449        0.087       85.076       15.761        0.034      330.117       -2.717      875.445
01/11/2022  07:50:00      -75.705       26.728       -8.012       39.078       22.441       18.659     1527.115      503.607      348.149        0.444        0.119       80.285       17.383        0.047      330.132       -2.692      875.439
01/11/2022  07:51:00      -74.937       27.093       -2.706       36.949       25.982       18.275     1365.220      675.050      333.977        0.437        0.119       79.684       15.486        0.038      330.182       -2.611      875.455
01/11/2022  07:52:00      -80.992       24.852       -4.028       33.669       17.284       15.964     1133.628      298.752      254.847        0.444        0.084       84.719       19.605        0.054      330.222       -2.545      875.470
01/11/2022  07:53:00      -87.702       27.618       -8.284       29.503       19.792       16.825      870.443      391.740      283.083        0.503        0.077       91.948       15.816        0.030      330.179       -2.615      875.487
01/11/2022  07:54:00      -73.876       43.013       -9.374       29.285       23.054       14.703      857.637      531.479      216.174        0.450        0.080       85.485       18.456        0.047      330.253       -2.492      875.484
01/11/2022  07:55:00      -85.126       35.886      -18.419       14.954       15.266       13.064      223.618      233.043      170.663        0.475        0.031       92.381        5.154        0.003      330.295       -2.424      875.481
01/11/2022  07:56:00      -71.210       21.056      -16.030       20.828       25.276       19.900      433.814      638.855      395.998        0.362        0.073       74.258        7.939        0.011      330.369       -2.303      875.478
01/11/2022  07:57:00      -60.292       15.671      -19.693       29.876       18.471       18.040      892.549      341.177      325.426        0.291        0.078       62.295       14.472        0.054      330.417       -2.222      875.476
01/11/2022  07:58:00      -51.365        6.278       -9.593       26.089       29.382       22.503      680.622      863.328      506.369        0.241        0.103       51.748       17.305        0.112      330.413       -2.230      875.482
01/11/2022  07:59:00      -67.006       14.900       -6.793       45.968       29.482       19.086     2113.034      869.179      364.258        0.405        0.167       68.643       22.412        0.107      330.406       -2.242      875.486
01/11/2022  08:00:00      -98.729       30.357      -12.389       33.385       23.244       15.005     1114.557      540.298      225.153        0.635        0.094      103.291       14.102        0.019      330.362       -2.313      875.490
01/11/2022  08:01:00      -77.845       32.311       -9.268       31.099       25.109       17.406      967.128      630.463      302.972        0.454        0.095       84.284       11.833        0.020      330.402       -2.249      875.484
01/11/2022  08:02:00      -89.476       31.679      -11.911       22.172       23.691       11.490      491.583      561.247      132.028        0.517        0.059       94.919        8.222        0.008      330.391       -2.267      875.471
01/11/2022  08:03:00      -43.617        9.313       -1.359       20.546       24.949       18.155      422.156      622.431      329.618        0.168        0.069       44.601       12.046        0.073      330.496       -2.094      875.467
01/11/2022  08:04:00      -62.257       24.067       -8.105       14.775       23.119       11.748      218.309      534.509      138.009        0.271        0.045       66.746        7.955        0.014      330.518       -2.058      875.446
01/11/2022  08:05:00      -49.440        1.423       -7.748       22.179       16.623       13.003      491.890      276.310      169.074        0.172        0.047       49.461        6.527        0.017      330.622       -1.887      875.439
01/11/2022  08:06:00      -32.093        4.102       -7.060       15.868       19.646       13.962      251.782      385.955      194.926        0.096        0.042       32.354       10.867        0.113      330.755       -1.669      875.435
01/11/2022  08:07:00      -11.919        4.199      -12.724       18.128       11.934       17.376      328.626      142.413      301.915        0.055        0.039       12.637       13.999        1.227      330.799       -1.597      875.440
01/11/2022  08:08:00       -0.560       -1.356       -1.019       16.718       14.718        9.751      279.500      216.627       95.080        0.030        0.030        1.467        3.817        6.770      330.812       -1.575      875.454
01/11/2022  08:09:00      -12.903        1.348        0.660       20.746       11.895       12.267      430.396      141.484      150.485        0.045        0.036       12.973        9.944        0.588      330.938       -1.367      875.463
01/11/2022  08:10:00      -20.810       -2.212       -6.357       30.511       21.289        9.635      930.916      453.217       92.840        0.098        0.074       20.928        5.278        0.064      330.836       -1.537      875.448
01/11/2022  08:11:00        1.946      -10.485       -9.010       17.764       12.906       10.376      315.575      166.575      107.670        0.039        0.029       10.664        2.967        0.077      331.064       -1.161      875.429
01/11/2022  08:12:00      -13.789      -13.578       -9.034       17.137        9.042        8.742      293.691       81.761       76.416        0.045        0.023       19.352        7.800        0.162      331.007       -1.255      875.415
01/11/2022  08:13:00      -18.935      -10.428      -16.022       11.548       11.607        9.766      133.347      134.726       95.373        0.054        0.018       21.616        5.013        0.054      330.961       -1.332      875.398
01/11/2022  08:14:00      -18.839        7.268       -5.072       12.406        8.461        7.256      153.921       71.582       52.654        0.036        0.014       20.193        3.861        0.037      330.957       -1.338      875.410
01/11/2022  08:15:00      -16.459       -0.076       -5.105       11.280       11.888        7.585      127.231      141.327       57.537        0.031        0.016       16.459        4.538        0.076      330.946       -1.355      875.423
01/11/2022  08:16:00        2.593       -3.511       -6.919        7.374        8.858       10.600       54.374       78.465      112.361        0.016        0.012        4.364        4.899        1.260      331.123       -1.065      875.420
01/11/2022  08:17:00       -2.489        0.108      -14.374        9.701        6.061        9.395       94.105       36.730       88.275        0.022        0.011        2.491        3.339        1.797      331.174       -0.980      875.396
01/11/2022  08:18:00       23.605        9.087      -21.850       22.090       20.346       12.747      487.963      413.948      162.494        0.109        0.053       25.293        8.425        0.111      331.161       -1.003      875.373
01/11/2022  08:19:00       57.411       -9.299      -24.334       16.553       26.861       11.583      273.998      721.511      134.166        0.255        0.056       58.159        3.895        0.004      331.054       -1.179      875.326
01/11/2022  08:20:00       51.108        1.749      -19.126       11.790       21.594       14.021      139.005      466.303      196.595        0.189        0.040       51.138        7.416        0.021      331.065       -1.160      875.273
01/11/2022  08:21:00       17.210        4.980      -22.990       22.798       26.381       14.340      519.735      695.977      205.623        0.114        0.071       17.916       12.049        0.452      331.268       -0.826      875.236
01/11/2022  08:22:00      -18.085      -29.438      -20.142       28.835       27.054       13.788      831.460      731.906      190.096        0.168        0.088       34.550        3.243        0.009      331.239       -0.874      875.196
01/11/2022  08:23:00       23.770      -35.981      -19.112       25.628       27.436       18.133      656.773      752.712      328.811        0.198        0.087       43.124        6.957        0.026      331.274       -0.815      875.193
01/11/2022  08:24:00        8.524       -8.603        1.250       30.002       23.629       17.907      900.134      558.347      320.652        0.096        0.089       12.111       12.162        1.008      331.311       -0.756      875.181
01/11/2022  08:25:00       -8.245        7.643      -10.728       11.481       11.597       12.878      131.805      134.497      165.853        0.034        0.022       11.243        6.281        0.312      331.205       -0.931      875.188
01/11/2022  08:26:00      -18.915       10.742      -14.668       13.526       13.162       10.307      182.961      173.241      106.231        0.058        0.023       21.752       10.926        0.252      331.205       -0.928      875.200
01/11/2022  08:27:00       -0.778        8.162       -5.143        9.881       13.220        8.053       97.640      174.765       64.854        0.022        0.017        8.199        6.433        0.616      331.198       -0.940      875.226
01/11/2022  08:28:00       -8.585       18.878        0.262       10.691        7.643        7.349      114.291       58.423       54.013        0.033        0.011       20.739        3.002        0.021      331.228       -0.892      875.242
01/11/2022  08:29:00      -18.796        6.005       -6.907       16.056       11.492       13.543      257.781      132.062      183.404        0.051        0.029       19.732       10.462        0.281      331.341       -0.705      875.258
01/11/2022  08:30:00       24.665        0.133      -10.543       28.539       35.678       19.250      814.472     1272.898      370.556        0.159        0.123       24.666       14.791        0.360      331.390       -0.625      875.272
01/11/2022  08:31:00       28.915       31.898       -1.744       31.177       26.001       17.484      971.985      676.071      305.675        0.190        0.098       43.052       11.555        0.072      331.342       -0.703      875.271
01/11/2022  08:32:00       31.790       -3.997      -14.631       35.025       37.536       20.567     1226.736     1408.977      423.001        0.215        0.153       32.040       13.596        0.180      331.336       -0.715      875.267
01/11/2022  08:33:00       54.750       -1.950       -0.482       29.647       57.629       28.799      878.940     3321.137      829.375        0.401        0.251       54.784       23.865        0.190      331.260       -0.838      875.270
01/11/2022  08:34:00       82.834       35.763      -13.921       39.612       34.255       17.333     1569.116     1173.439      300.448        0.569        0.152       90.224        7.147        0.006      331.122       -1.068      875.264
01/11/2022  08:35:00       23.486       25.249       -4.298       33.320       35.137       23.446     1110.223     1234.593      549.701        0.205        0.145       34.483       15.602        0.205      331.289       -0.793      875.255
01/11/2022  08:36:00       26.529        2.724      -16.164       35.988       57.850       24.526     1295.154     3346.570      601.528        0.311        0.262       26.669       21.534        0.652      331.366       -0.665      875.244
01/11/2022  08:37:00       73.027      -48.437      -29.433       34.792       46.566       23.726     1210.471     2168.346      562.901        0.624        0.197       87.630       20.494        0.055      331.185       -0.962      875.225
01/11/2022  08:38:00       68.674      -87.240      -49.550       36.354       48.462       26.587     1321.603     2348.557      706.869        0.958        0.219      111.027       14.298        0.017      331.261       -0.838      875.208
01/11/2022  08:39:00       81.398      -39.079      -37.310       45.051       51.065       39.468     2029.617     2607.664     1557.689        0.787        0.310       90.293       24.293        0.072      331.313       -0.753      875.202
01/11/2022  08:40:00       79.093      -33.936      -16.014       36.365       30.575       18.034     1322.414      934.844      325.221        0.512        0.129       86.066       15.259        0.031      331.189       -0.956      875.247
01/11/2022  08:41:00       60.200      -18.447      -12.731       33.414       25.855       23.727     1116.484      668.475      562.982        0.324        0.117       62.963       19.214        0.093      331.329       -0.725      875.301
01/11/2022  08:42:00       57.266      -35.927      -20.973       15.660       22.635       18.208      245.222      512.329      331.545        0.305        0.054       67.603       14.908        0.049      331.161       -1.001      875.364
01/11/2022  08:43:00       18.523      -27.571      -18.130       18.381       15.314       17.102      337.848      234.526      292.479        0.115        0.043       33.215        9.638        0.084      331.311       -0.756      875.383
01/11/2022  08:44:00       29.911       22.455       -6.865       30.022       28.764       18.316      901.325      827.359      335.476        0.175        0.103       37.402       18.057        0.233      331.441       -0.542      875.388
01/11/2022  08:45:00       32.660       -1.949       -2.770       45.645       27.281       25.154     2083.434      744.270      632.710        0.227        0.173       32.718       24.629        0.567      331.629       -0.232      875.373
01/11/2022  08:46:00       73.333       36.385      -19.096       25.652       25.456       19.831      658.007      648.031      393.275        0.438        0.085       81.863        7.913        0.009      331.361       -0.673      875.360
01/11/2022  08:47:00       72.670       47.702      -13.480       22.471       20.898       13.218      504.927      436.723      174.721        0.443        0.056       86.928        8.846        0.010      331.315       -0.748      875.363
01/11/2022  08:48:00       40.270        9.951      -19.272       35.802       29.661       16.692     1281.789      879.750      278.612        0.227        0.122       41.482       12.268        0.087      331.518       -0.414      875.381
01/11/2022  08:49:00       56.112       33.684      -10.761       22.314       22.565       20.529      497.926      509.169      421.429        0.291        0.071       65.446        9.390        0.021      331.380       -0.643      875.404
01/11/2022  08:50:00       50.812       26.610      -26.539       22.185       15.575       13.993      492.194      242.583      195.813        0.246        0.047       57.359       10.282        0.032      331.320       -0.741      875.430
01/11/2022  08:51:00       39.614       53.328      -18.536       14.593       13.967       16.246      212.959      195.069      263.933        0.271        0.034       66.431       10.373        0.024      331.416       -0.581      875.434
01/11/2022  08:52:00       60.456       63.987      -15.493       11.547       11.361       15.518      133.327      129.079      240.797        0.425        0.025       88.030        8.282        0.009      331.402       -0.605      875.421
01/11/2022  08:53:00       47.631       53.503      -11.831       17.938       22.255       11.755      321.782      495.303      138.186        0.311        0.048       71.633        7.532        0.011      331.529       -0.398      875.411
01/11/2022  08:54:00       29.433       25.809      -15.026       19.656       22.265       14.934      386.367      495.715      223.011        0.143        0.055       39.146        6.046        0.024      331.484       -0.471      875.424
01/11/2022  08:55:00       36.809       24.819       -8.555       19.923       14.337       20.194      396.908      205.546      407.804        0.153        0.051       44.395       11.648        0.069      331.541       -0.377      875.442
01/11/2022  08:56:00       42.689       17.548      -17.872       19.565       14.618       18.721      382.801      213.698      350.464        0.170        0.047       46.155       13.147        0.081      331.560       -0.347      875.467
01/11/2022  08:57:00       61.456       38.591      -14.699       14.133       16.790       15.394      199.738      281.917      236.984        0.310        0.036       72.567        8.679        0.014      331.531       -0.394      875.489
01/11/2022  08:58:00       53.355       31.847      -24.850       17.608       15.050       15.363      310.048      226.489      236.036        0.263        0.039       62.136        9.044        0.021      331.660       -0.181      875.497
01/11/2022  08:59:00       41.696       18.018      -18.148       17.260       37.261       18.500      297.904     1388.349      342.244        0.221        0.101       45.423       14.049        0.096      331.868        0.161      875.509
01/11/2022  09:00:00       51.781       46.326      -35.812       22.765       32.407       20.814      518.230     1050.203      433.235        0.406        0.100       69.480       13.468        0.038      331.820        0.083      875.512
01/11/2022  09:01:00        0.994        1.705       -6.390       22.648       26.049       18.759      512.935      678.545      351.915        0.079        0.077        1.973       11.173       32.053      332.126        0.586      875.514
01/11/2022  09:02:00       57.521       47.251      -20.237       41.549       37.403       20.614     1726.286     1399.016      424.937        0.475        0.178       74.441       23.711        0.101      331.891        0.197      875.520
01/11/2022  09:03:00       47.607       55.672      -26.047       28.081       15.944       14.283      788.519      254.223      204.009        0.365        0.062       73.251        8.352        0.013      331.593       -0.291      875.519
01/11/2022  09:04:00       16.906       -7.796      -10.011       24.953       42.851       25.011      622.675     1836.191      625.575        0.177        0.154       18.617       18.310        0.967      332.067        0.488      875.512
01/11/2022  09:05:00       43.820      -28.424      -24.541       30.564       36.280       20.375      934.148     1316.250      415.137        0.300        0.133       52.231        6.055        0.013      332.061        0.480      875.499
01/11/2022  09:06:00       54.990      -11.844      -28.760       36.807       47.618       28.925     1354.736     2267.515      836.667        0.422        0.223       56.251       21.302        0.143      332.102        0.546      875.490
01/11/2022  09:07:00       35.908        5.188      -17.336       35.814       39.263       34.303     1282.607     1541.560     1176.674        0.281        0.200       36.280       25.747        0.504      332.019        0.410      875.498
01/11/2022  09:08:00       25.887       -2.943      -12.419       27.800       52.469       31.429      772.816     2753.044      987.790        0.267        0.226       26.054       15.676        0.362      332.116        0.570      875.519
01/11/2022  09:09:00       47.004      -67.831      -25.444       24.210       31.504       18.230      586.139      992.501      332.325        0.468        0.096       82.525       14.083        0.029      331.792        0.037      875.543
01/11/2022  09:10:00       18.807      -15.713        1.735       30.847       19.873       15.868      951.561      394.944      251.802        0.110        0.080       24.508       16.529        0.455      332.071        0.495      875.575
01/11/2022  09:11:00       -4.367       30.400       -0.440       30.259       22.849       15.492      915.629      522.083      239.990        0.131        0.084       30.712       10.543        0.118      332.019        0.409      875.605
01/11/2022  09:12:00        0.234       38.673      -12.792       27.199       23.964       18.284      739.807      574.269      334.301        0.165        0.082       38.674       15.320        0.157      331.929        0.263      875.623
01/11/2022  09:13:00       22.783       46.135       -2.060       26.840       15.141       18.098      720.392      229.254      327.534        0.196        0.064       51.454       12.047        0.055      331.982        0.348      875.626
01/11/2022  09:14:00        2.397       20.957       -0.354       28.325       16.637       12.794      802.299      276.783      163.692        0.084        0.062       21.094        8.252        0.153      332.023        0.415      875.609
01/11/2022  09:15:00      -22.399       -2.203       -9.615       19.002       35.845       14.655      361.088     1284.843      214.783        0.123        0.093       22.507        6.087        0.073      332.024        0.417      875.581
01/11/2022  09:16:00      -31.894      -14.563      -13.120       24.153       21.147       17.288      583.356      447.188      298.861        0.137        0.066       35.061       10.550        0.091      332.150        0.626      875.554
01/11/2022  09:17:00       32.254       20.686       -6.385       38.803       42.577       18.666     1505.643     1812.779      348.422        0.259        0.183       38.317       14.361        0.140      332.116        0.568      875.558
01/11/2022  09:18:00       22.528       64.220       -7.389       26.048       20.491       18.114      678.473      419.876      328.122        0.306        0.071       68.056       11.592        0.029      332.019        0.409      875.587
01/11/2022  09:19:00       14.553       41.717        4.892       18.242       27.928       20.378      332.785      779.987      415.276        0.175        0.076       44.183       18.491        0.175      332.148        0.622      875.623
01/11/2022  09:20:00        6.094       50.839       -3.109       24.506       19.263       25.335      600.565      371.058      641.842        0.212        0.081       51.203       17.654        0.119      332.054        0.467      875.664
01/11/2022  09:21:00       36.844       45.483       -4.857       27.043       22.528       16.459      731.316      507.531      270.900        0.248        0.075       58.534        8.446        0.021      332.066        0.486      875.696
01/11/2022  09:22:00       44.849        1.618      -18.972       25.767       15.857       13.099      663.955      251.430      171.578        0.173        0.054       44.878        9.932        0.049      331.892        0.201      875.710
01/11/2022  09:23:00       20.733        8.297      -26.016       19.549       18.333       16.507      382.180      336.115      272.466        0.108        0.050       22.331       14.233        0.406      331.948        0.294      875.707
01/11/2022  09:24:00       27.426       20.572       -7.774       40.163       25.320       15.237     1613.048      641.109      232.171        0.186        0.124       34.284        8.781        0.066      332.095        0.534      875.705
01/11/2022  09:25:00       52.925       11.791      -16.651       19.101       16.918       14.720      364.860      286.232      216.680        0.204        0.043       54.223       13.025        0.058      331.920        0.250      875.699
01/11/2022  09:26:00       15.688       13.929      -14.881       20.594       16.083       10.981      424.107      258.679      120.574        0.073        0.040       20.979        9.108        0.188      332.081        0.512      875.689
01/11/2022  09:27:00       80.763       43.306      -25.627       24.898       23.187       18.879      619.912      537.633      356.427        0.528        0.076       91.641       12.243        0.018      332.126        0.584      875.676
01/11/2022  09:28:00       16.959       37.893       -8.086       24.739       18.005       23.588      612.024      324.189      556.382        0.164        0.075       41.515       16.137        0.151      332.149        0.622      875.658
01/11/2022  09:29:00      -21.823       -6.494       -8.776       20.788       27.118       11.204      432.158      735.376      125.534        0.094        0.065       22.769        4.984        0.048      332.328        0.919      875.637
01/11/2022  09:30:00       49.340      -35.161      -27.495       30.187       34.666       22.675      911.259     1201.732      514.134        0.353        0.131       60.586       10.397        0.029      332.412        1.057      875.632
01/11/2022  09:31:00       65.025      -25.935      -19.365       26.293       23.301       16.101      691.322      542.956      259.248        0.338        0.075       70.006       15.713        0.050      332.220        0.741      875.645
01/11/2022  09:32:00       36.157      -34.653      -26.546       10.841       13.786       13.319      117.519      190.056      177.400        0.185        0.024       50.082        5.790        0.013      332.134        0.600      875.658
01/11/2022  09:33:00       34.583       -4.976      -11.184       35.310       28.789       19.568     1246.779      828.808      382.904        0.190        0.123       34.939       14.617        0.175      332.443        1.108      875.669
01/11/2022  09:34:00       65.858       14.108      -15.899       33.809       36.977       18.329     1143.023     1367.320      335.959        0.382        0.142       67.353        7.023        0.011      332.290        0.856      875.679
01/11/2022  09:35:00       69.688      -37.846      -24.970       38.872       36.988       23.241     1511.066     1368.082      540.164        0.517        0.171       79.302       20.807        0.069      332.387        1.016      875.669
01/11/2022  09:36:00       65.206       -9.037      -27.089       40.301       36.235       39.183     1624.166     1312.965     1535.287        0.477        0.224       65.830       19.660        0.089      332.364        0.978      875.657
01/11/2022  09:37:00       70.042      -26.356      -11.020       33.576       20.562       21.226     1127.315      422.782      450.550        0.386        0.100       74.836       20.839        0.078      332.173        0.662      875.652
01/11/2022  09:38:00       45.467      -15.888      -11.734       30.297       34.293       25.235      917.933     1176.014      636.796        0.259        0.137       48.163       22.098        0.211      332.336        0.932      875.662
01/11/2022  09:39:00       18.652      -37.186       -1.255       32.724       21.614       20.304     1070.888      467.176      412.243        0.184        0.098       41.601       13.691        0.108      332.519        1.236      875.692
01/11/2022  09:40:00       43.597      -11.735      -23.439       51.394       50.490       33.192     2641.367     2549.224     1101.741        0.444        0.315       45.149       24.751        0.301      332.548        1.283      875.715
01/11/2022  09:41:00       56.149       19.353      -21.962       45.892       42.512       22.707     2106.038     1807.267      515.591        0.422        0.221       59.391       14.142        0.057      332.346        0.947      875.744
01/11/2022  09:42:00       76.545       -4.227      -14.793       32.559       28.738       21.790     1060.089      825.875      474.805        0.423        0.118       76.662       11.197        0.021      332.311        0.891      875.748
01/11/2022  09:43:00       83.558       -1.448      -11.452       33.012       37.423       23.029     1089.790     1400.447      530.335        0.507        0.151       83.571        5.113        0.004      332.326        0.914      875.739
01/11/2022  09:44:00       74.788      -17.153      -22.309       47.803       37.295       21.446     2285.137     1390.899      459.913        0.526        0.207       76.730       14.385        0.035      332.426        1.082      875.732
01/11/2022  09:45:00       75.018       -0.514      -15.757       42.509       32.285       27.589     1806.984     1042.332      761.173        0.474        0.181       75.019       22.867        0.093      332.440        1.104      875.735
01/11/2022  09:46:00       35.952      -51.017      -32.135       31.400       44.702       22.023      985.968     1998.296      485.033        0.420        0.173       62.412       18.342        0.086      332.742        1.602      875.737
01/11/2022  09:47:00       68.332       43.126       -8.504       38.877       41.031       19.525     1511.383     1683.539      381.230        0.509        0.179       80.803       14.590        0.033      332.568        1.317      875.756
01/11/2022  09:48:00       53.422       62.581      -23.536       17.257       16.185       12.335      297.799      261.956      152.164        0.402        0.036       82.282        9.815        0.014      332.277        0.836      875.761
01/11/2022  09:49:00       33.246       11.689      -13.683       28.918       39.901       18.901      836.264     1592.105      357.246        0.211        0.139       35.241       12.078        0.117      332.654        1.458      875.758
01/11/2022  09:50:00       63.655       51.845      -12.953       27.066       21.861       24.769      732.557      477.916      613.518        0.437        0.091       82.097       16.944        0.043      332.593        1.358      875.754
01/11/2022  09:51:00       46.210      -13.187      -15.196       37.124       68.847       30.352     1378.165     4739.865      921.218        0.479        0.352       48.055       34.185        0.506      332.730        1.583      875.748
01/11/2022  09:52:00       54.299       42.900      -14.593       54.790       55.878       19.946     3001.992     3122.374      397.824        0.576        0.326       69.201       17.159        0.061      332.662        1.470      875.751
01/11/2022  09:53:00       87.624       55.151      -26.461       28.912       27.556       10.767      835.886      759.337      115.925        0.657        0.086      103.536        9.508        0.008      332.423        1.073      875.760
01/11/2022  09:54:00       49.655       34.788      -15.827       20.688       16.453       14.247      428.007      270.717      202.966        0.241        0.045       60.629        7.693        0.016      332.534        1.261      875.765
01/11/2022  09:55:00       62.601       48.962      -14.245       12.105       10.525       11.335      146.528      110.776      128.474        0.345        0.019       79.475        8.347        0.011      332.484        1.178      875.770
01/11/2022  09:56:00       42.363       43.723      -16.531       18.950       17.386       20.898      359.106      302.283      436.715        0.254        0.055       60.880        9.525        0.024      332.615        1.394      875.763
01/11/2022  09:57:00       45.868       30.850      -19.869       25.587       36.991       22.116      654.675     1368.367      489.097        0.298        0.126       55.277       14.780        0.071      332.735        1.592      875.753
01/11/2022  09:58:00       32.199       -6.442       -6.331       37.578       29.833       21.403     1412.078      889.989      458.102        0.194        0.138       32.837       11.479        0.122      332.844        1.771      875.737
01/11/2022  09:59:00       28.012       -6.647      -16.335       22.840       35.076       27.717      521.664     1230.354      768.254        0.181        0.126       28.790       10.941        0.144      332.805        1.707      875.741
01/11/2022  10:00:00       58.886      -42.452      -28.086       33.451       40.113       26.118     1118.945     1609.081      682.127        0.473        0.171       72.593       18.348        0.064      332.777        1.661      875.745
01/11/2022  10:01:00       55.538      -27.088      -18.325       45.960       37.871       26.747     2112.322     1434.199      715.412        0.421        0.213       61.792       24.809        0.161      332.874        1.821      875.765
01/11/2022  10:02:00       60.460      -56.207      -26.338       37.421       46.819       24.330     1400.297     2192.040      591.941        0.585        0.209       82.551       16.141        0.038      332.853        1.787      875.780
01/11/2022  10:03:00       31.782       -9.934      -14.019       25.117       47.308       22.911      630.861     2238.015      524.935        0.235        0.170       33.298       13.831        0.173      333.041        2.096      875.787
01/11/2022  10:04:00       31.639       32.798       -7.836       58.404       45.707       28.949     3411.003     2089.121      838.020        0.424        0.317       45.571       24.013        0.278      332.987        2.008      875.777
01/11/2022  10:05:00       46.823      -20.713      -10.146       40.322       74.774       35.297     1625.872     5591.207     1245.848        0.559        0.423       51.199       31.866        0.387      333.098        2.191      875.777
01/11/2022  10:06:00       59.186       -4.355      -33.565       54.630       42.296       34.831     2984.403     1788.924     1213.165        0.532        0.299       59.346       27.922        0.221      332.900        1.864      875.766
01/11/2022  10:07:00       63.028      -22.943      -13.624       52.730       32.022       34.213     2780.498     1025.421     1170.517        0.483        0.249       67.074       32.190        0.230      332.821        1.734      875.763
01/11/2022  10:08:00       81.015      -29.991      -19.440       37.923       34.615       20.485     1438.116     1198.229      419.654        0.545        0.153       86.388       22.094        0.065      332.746        1.610      875.744
01/11/2022  10:09:00       51.001       -3.039      -15.820       55.150       48.925       24.856     3041.565     2393.658      617.831        0.446        0.303       51.092        8.971        0.031      333.052        2.114      875.713
01/11/2022  10:10:00       57.173      -59.419      -32.473       42.941       52.626       29.355     1843.930     2769.445      861.696        0.666        0.274       82.458       21.007        0.065      332.969        1.977      875.686
01/11/2022  10:11:00       82.807      -28.512      -22.010       61.377       42.999       26.262     3767.135     1848.939      689.672        0.723        0.315       87.578       22.489        0.066      333.015        2.053      875.647
01/11/2022  10:12:00       36.528      -31.845      -18.691       40.283       38.472       28.066     1622.700     1480.104      787.684        0.329        0.195       48.460       18.204        0.141      333.292        2.511      875.619
01/11/2022  10:13:00       52.905     -128.252      -35.572       63.829       52.082       32.079     4074.088     2712.485     1029.054        1.416        0.391      138.735       25.284        0.033      333.162        2.296      875.601
01/11/2022  10:14:00       74.014     -158.515      -33.239       37.452       27.842       20.857     1402.649      775.165      435.006        1.716        0.131      174.943       18.597        0.011      332.889        1.847      875.579
01/11/2022  10:15:00       71.303      -88.432      -32.400       41.082       95.585       30.480     1687.709     9136.422      929.001        1.285        0.588      113.597       18.573        0.027      333.275        2.484      875.571
01/11/2022  10:16:00      105.827      -15.506      -26.819       70.787       59.234       41.292     5010.760     3508.695     1704.997        1.119        0.511      106.957       30.885        0.083      333.115        2.219      875.568
01/11/2022  10:17:00       71.321       18.141      -20.550       64.852       62.999       36.933     4205.727     3968.822     1364.044        0.769        0.477       73.592       31.325        0.181      333.383        2.663      875.566
01/11/2022  10:18:00       86.176       44.337      -31.738       58.948       63.195       25.967     3474.866     3993.628      674.307        0.927        0.407       96.912       24.979        0.066      333.275        2.484      875.561
01/11/2022  10:19:00       -1.073      -28.952      -12.776       42.087       38.414       31.400     1771.352     1475.601      985.933        0.262        0.212       28.972       12.538        0.187      333.500        2.856      875.559
01/11/2022  10:20:00      -33.108      -14.305       -6.524       26.645       30.096       23.509      709.957      905.791      552.681        0.176        0.108       36.066        7.761        0.046      333.546        2.932      875.568
01/11/2022  10:21:00       72.607      -49.752      -16.806       64.870       40.522       36.744     4208.123     1642.023     1350.099        0.761        0.360       88.018       31.707        0.130      333.220        2.393      875.581
01/11/2022  10:22:00       41.705       11.983      -21.535       41.733       52.182       33.262     1741.602     2722.980     1106.330        0.396        0.279       43.392       21.146        0.237      333.382        2.662      875.587
01/11/2022  10:23:00       59.430      -18.800      -10.690       58.940       49.977       36.784     3473.918     2497.686     1353.061        0.566        0.366       62.333       22.706        0.133      333.417        2.720      875.592
01/11/2022  10:24:00       41.089      -59.708      -21.072       36.322       50.759       32.754     1319.306     2576.491     1072.839        0.533        0.248       72.479       22.821        0.099      333.546        2.933      875.600
01/11/2022  10:25:00       21.714      -24.364       -1.344       28.463       30.639       20.460      810.142      938.738      418.600        0.162        0.108       32.636       13.524        0.172      333.450        2.773      875.598
01/11/2022  10:26:00       52.948       -4.786      -20.769       49.169       62.790       33.261     2417.560     3942.586     1106.326        0.536        0.373       53.164       22.416        0.178      333.427        2.735      875.593
01/11/2022  10:27:00       36.937       31.900       -8.533       78.559       65.661       28.701     6171.587     4311.354      823.741        0.688        0.565       48.805       17.824        0.133      333.410        2.707      875.595
01/11/2022  10:28:00       92.656       34.369      -25.797       44.298       43.515       26.601     1962.349     1893.570      707.622        0.750        0.228       98.825       22.112        0.050      333.182        2.329      875.586
01/11/2022  10:29:00       42.306       12.846      -19.439       35.889       47.167       16.313     1288.037     2224.711      266.103        0.306        0.189       44.214       14.066        0.101      333.178        2.325      875.566
01/11/2022  10:30:00       64.086      -87.267      -35.414       51.639       65.677       39.377     2666.546     4313.497     1550.534        1.075        0.427      108.271       28.525        0.069      333.467        2.801      875.544
01/11/2022  10:31:00       40.688      -23.941      -21.654       64.313       75.475       49.658     4136.153     5696.490     2465.881        0.750        0.615       47.209       40.067        0.720      333.692        3.174      875.529
01/11/2022  10:32:00       32.773      -23.870       -6.469       73.203       43.416       36.272     5358.740     1884.972     1315.679        0.512        0.428       40.545       33.297        0.674      333.475        2.815      875.577
01/11/2022  10:33:00       74.703      -26.211      -12.868       57.398       43.772       32.080     3294.485     1915.955     1029.133        0.634        0.312       79.168       19.159        0.059      333.410        2.706      875.560
01/11/2022  10:34:00       61.240       -1.210      -21.389       46.937       48.917       29.912     2203.114     2392.859      894.707        0.485        0.275       61.252       19.015        0.096      333.385        2.667      875.539
01/11/2022  10:35:00       66.025      -10.061      -28.175       56.133       68.575       38.405     3150.928     4702.499     1474.976        0.729        0.466       66.787       22.809        0.117      333.708        3.201      875.508
01/11/2022  10:36:00       33.188        2.108      -24.686       47.619       60.118       26.427     2267.596     3614.167      698.382        0.415        0.329       33.255       29.769        0.801      333.729        3.236      875.494
01/11/2022  10:37:00       34.487      -36.563      -14.581       52.690       50.759       39.559     2776.251     2576.507     1564.928        0.483        0.346       50.261       23.420        0.217      333.706        3.196      875.470
01/11/2022  10:38:00       31.630      -18.565      -13.120       52.863       64.429       41.531     2794.484     4151.078     1724.800        0.509        0.434       36.676       25.030        0.466      333.711        3.206      875.469
01/11/2022  10:39:00       39.184      -29.885      -24.575       42.822       64.624       30.395     1833.732     4176.243      923.849        0.498        0.347       49.280       22.831        0.215      333.792        3.340      875.478
01/11/2022  10:40:00       33.974      -54.054      -21.195       32.403       46.639       24.049     1049.976     2175.232      578.354        0.416        0.190       63.844       16.881        0.070      333.681        3.156      875.489
01/11/2022  10:41:00      -22.624      -22.840       -2.486       42.774       40.279       23.100     1829.633     1622.414      533.629        0.251        0.199       32.148       20.869        0.421      333.801        3.355      875.501
01/11/2022  10:42:00        8.265      -70.671      -32.713       32.051       66.848       32.136     1027.290     4468.603     1032.743        0.633        0.326       71.153       28.453        0.160      333.577        2.984      875.514
01/11/2022  10:43:00       55.497      -64.613      -36.670       42.299       40.512       31.765     1789.176     1641.208     1008.984        0.652        0.222       85.175       17.864        0.044      333.377        2.654      875.526
01/11/2022  10:44:00       13.597        9.533       -7.170       49.475       41.880       20.040     2447.757     1753.929      401.607        0.246        0.230       16.606        7.690        0.214      333.696        3.181      875.531
01/11/2022  10:45:00       84.082       20.084      -14.238       87.590       77.851       33.470     7672.040     6060.808     1120.239        1.126        0.743       86.448       31.790        0.135      333.667        3.133      875.527
01/11/2022  10:46:00      143.975       36.970      -18.594       37.882       39.350       30.798     1435.076     1548.434      948.496        1.319        0.197      148.646        9.252        0.004      333.370        2.642      875.512
01/11/2022  10:47:00       78.342      -20.438      -15.569       46.813       45.655       29.051     2191.445     2084.341      843.936        0.596        0.256       80.964       21.211        0.069      333.601        3.023      875.497
01/11/2022  10:48:00       91.888       59.112      -17.803       58.303       54.865       30.554     3399.213     3010.207      933.550        0.980        0.367      109.260       24.332        0.050      333.658        3.118      875.483
01/11/2022  10:49:00       58.074       11.493      -27.210       49.097       62.398       34.756     2410.521     3893.552     1207.991        0.588        0.376       59.201       26.445        0.200      333.941        3.586      875.483
01/11/2022  10:50:00       39.641      -28.669       -0.397       75.265       62.391       44.225     5664.893     3892.695     1955.832        0.695        0.576       48.922       46.120        0.889      333.737        3.250      875.480
01/11/2022  10:51:00       83.483      -25.127      -16.252       51.126       41.683       27.653     2613.906     1737.444      764.690        0.649        0.256       87.182       26.491        0.092      333.571        2.974      875.477
01/11/2022  10:52:00       36.575      -19.276      -25.970       38.193       31.209       15.724     1458.686      973.987      247.240        0.253        0.134       41.344        5.187        0.016      333.653        3.109      875.481
01/11/2022  10:53:00       25.441       -7.861      -12.775       28.679       32.152       20.566      822.507     1033.776      422.954        0.158        0.114       26.628       18.821        0.500      333.985        3.660      875.477
01/11/2022  10:54:00       81.542       58.008      -20.964       53.221       39.671       24.354     2832.463     1573.808      593.133        0.773        0.250      100.070       25.956        0.067      333.760        3.287      875.458
01/11/2022  10:55:00       74.835       76.173      -23.234       38.699       20.788       20.640     1497.585      432.153      426.005        0.715        0.118      106.783        7.547        0.005      333.580        2.988      875.429
01/11/2022  10:56:00       39.545       86.214      -25.545       24.394       28.983       22.670      595.066      839.989      513.920        0.580        0.097       94.851       12.394        0.017      333.610        3.040      875.418
01/11/2022  10:57:00       44.755       12.423      -19.261       20.190       21.063       16.306      407.624      443.637      265.893        0.182        0.056       46.447       10.966        0.056      333.508        2.870      875.400
01/11/2022  10:58:00      -11.583       37.448        0.511       28.102       19.892       17.399      789.706      395.675      302.728        0.151        0.074       39.198        8.641        0.049      333.832        3.407      875.386
01/11/2022  10:59:00       -4.030       79.273      -16.850       23.743       25.012       16.315      563.744      625.615      266.193        0.402        0.073       79.376        9.764        0.015      333.556        2.949      875.379
01/11/2022  11:00:00       -0.293       68.908      -19.216       21.355       28.976       19.722      456.040      839.581      388.949        0.340        0.084       68.908       10.809        0.025      333.606        3.031      875.364
01/11/2022  11:01:00       -4.218       50.171      -15.555       13.836       16.544       15.617      191.432      273.693      243.898        0.174        0.035       50.348        4.786        0.009      333.551        2.941      875.344
01/11/2022  11:02:00      -16.106       54.359      -14.228       10.246       22.572       14.984      104.990      509.486      224.509        0.213        0.042       56.695        8.614        0.023      333.568        2.970      875.329
01/11/2022  11:03:00      -21.063       28.216       -6.387       21.519       18.544       11.610      463.051      343.864      134.783        0.111        0.047       35.211        7.967        0.051      333.877        3.480      875.306
01/11/2022  11:04:00      -33.732       14.694      -19.805       14.927       13.938       12.416      222.803      194.279      154.152        0.116        0.029       36.793        5.759        0.024      333.674        3.143      875.299
01/11/2022  11:05:00      -12.966        8.070       -4.295       18.759       17.581       18.941      351.895      309.085      358.759        0.064        0.051       15.272       12.536        0.674      334.035        3.743      875.296
01/11/2022  11:06:00      -24.813       12.368      -10.413       21.793       19.380       11.825      474.919      375.587      139.831        0.093        0.050       27.725        9.075        0.107      334.017        3.713      875.294
01/11/2022  11:07:00      -36.345      -14.116       -6.931       17.242       17.956       20.641      297.288      322.433      426.046        0.131        0.052       38.990       10.307        0.070      334.001        3.686      875.297
01/11/2022  11:08:00      -29.640       -3.680       -2.525       39.011       22.027       19.880     1521.871      485.199      395.214        0.165        0.120       29.867       11.709        0.154      334.156        3.943      875.297
01/11/2022  11:09:00        8.015       43.303      -12.277       19.681       25.996       17.834      387.333      675.796      318.043        0.174        0.069       44.039       11.485        0.068      333.795        3.344      875.300
01/11/2022  11:10:00       59.232       43.272      -15.097       34.231       27.473       23.149     1171.737      754.739      535.888        0.404        0.123       73.355       14.946        0.042      333.857        3.447      875.299
01/11/2022  11:11:00       17.342       11.094      -15.918       17.099       22.943       20.080      292.382      526.377      403.213        0.095        0.061       20.587       11.515        0.313      334.296        4.176      875.295
01/11/2022  11:12:00       13.044       15.752       -1.715       27.450       19.725       16.530      753.519      389.070      273.249        0.092        0.071       20.452       15.745        0.593      334.352        4.267      875.298
01/11/2022  11:13:00      -10.967       27.977       10.150       26.607       28.756       17.979      707.930      826.928      323.241        0.143        0.093       30.049       16.890        0.316      334.500        4.513      875.308
01/11/2022  11:14:00      -16.518       40.028       14.920       33.309       25.887       16.755     1109.469      670.119      280.732        0.208        0.103       43.302       11.776        0.074      334.561        4.613      875.318
01/11/2022  11:15:00       14.263       -9.919      -14.877       32.619       38.098       21.372     1064.001     1451.467      456.774        0.175        0.149       17.373       19.810        1.300      334.647        4.757      875.346
01/11/2022  11:16:00        7.605       -0.230      -22.805       26.855       35.319       26.912      721.188     1247.434      724.237        0.163        0.135        7.608       12.669        2.773      334.620        4.713      875.361
01/11/2022  11:17:00        1.284       -0.945       -6.880       40.377       34.144       22.415     1630.339     1165.784      502.438        0.167        0.165        1.594       15.386       93.117      334.641        4.747      875.374
01/11/2022  11:18:00       31.799       33.892       -8.099       25.604       16.786       15.379      655.568      281.764      236.519        0.170        0.059       46.474        9.599        0.043      334.460        4.445      875.388
01/11/2022  11:19:00       21.967       23.472       -7.910       28.781       30.809       24.975      828.364      949.219      623.770        0.175        0.120       32.148        7.291        0.051      334.681        4.813      875.383
01/11/2022  11:20:00       39.590       25.705      -10.768       38.619       44.828       33.522     1491.459     2009.567     1123.698        0.348        0.231       47.203       27.874        0.349      334.761        4.947      875.373
01/11/2022  11:21:00       21.211      -38.761      -28.706       26.121       48.324       26.287      682.313     2335.190      691.010        0.324        0.185       44.185       20.650        0.218      334.878        5.142      875.357
01/11/2022  11:22:00       20.443      -53.917      -17.608       35.910       39.935       26.673     1289.514     1594.790      711.429        0.361        0.180       57.663       26.294        0.208      334.717        4.874      875.334
01/11/2022  11:23:00       27.911       62.799       -3.506       22.070       26.152       17.785      487.075      683.907      316.299        0.311        0.074       68.722       14.106        0.042      334.566        4.623      875.318
01/11/2022  11:24:00       57.584       40.391       -8.107       28.937       22.771       18.893      837.370      518.537      356.951        0.336        0.086       70.338       14.063        0.040      334.498        4.510      875.301
01/11/2022  11:25:00       70.353       56.102      -22.189       42.803       19.752       23.259     1832.089      390.123      540.997        0.568        0.138       89.984       19.731        0.048      334.454        4.437      875.292
01/11/2022  11:26:00       57.698       52.617      -17.082       39.153       29.114       27.409     1532.970      847.602      751.267        0.476        0.157       78.087       20.503        0.069      334.481        4.481      875.284
01/11/2022  11:27:00       44.627       20.296      -22.117       19.893       24.551       17.398      395.739      602.773      302.705        0.210        0.065       49.025        8.533        0.030      334.417        4.376      875.274
01/11/2022  11:28:00       38.331        7.640      -16.050       16.018       13.501       14.886      256.562      182.273      221.595        0.122        0.033       39.085        9.679        0.061      334.237        4.078      875.252
01/11/2022  11:29:00       42.013       44.421      -18.448       25.585       27.789       22.032      654.567      772.236      485.387        0.300        0.096       61.142       16.307        0.071      334.485        4.488      875.235
01/11/2022  11:30:00       22.349       69.158      -15.981       30.389       33.337       25.469      923.505     1111.355      648.688        0.411        0.134       72.680       21.568        0.088      334.568        4.627      875.215
01/11/2022  11:31:00       14.851       33.434       -2.849       34.159       26.903       19.799     1166.867      723.785      392.019        0.181        0.114       36.584       10.613        0.084      334.646        4.756      875.206
01/11/2022  11:32:00       -6.144       30.910       -9.755        9.900       17.945        9.821       98.012      322.015       96.452        0.080        0.026       31.515        6.554        0.043      334.394        4.339      875.186
01/11/2022  11:33:00       34.532       11.498      -24.345       58.697       42.321       27.521     3445.279     1791.093      757.425        0.395        0.300       36.396       16.033        0.194      334.751        4.931      875.163
01/11/2022  11:34:00      141.298       -4.804      -25.715       76.290       37.150       28.787     5820.198     1380.125      828.686        1.434        0.401      141.380       24.038        0.029      334.373        4.303      875.132
01/11/2022  11:35:00       95.575      -59.391      -25.461       51.938       41.448       39.461     2697.512     1717.958     1557.136        0.964        0.299      112.525       37.671        0.112      334.467        4.459      875.107
01/11/2022  11:36:00       62.792      -30.063       -9.498       73.396       62.886       48.798     5386.931     3954.631     2381.197        0.833        0.586       69.618       34.688        0.248      334.787        4.992      875.058
01/11/2022  11:37:00      165.417      -24.076      -22.234       70.994       47.374       41.408     5040.078     2244.252     1714.657        1.872        0.450      167.160       35.841        0.046      334.493        4.499      875.019
01/11/2022  11:38:00       56.937      -19.119      -25.117       43.644       63.006       37.007     1904.816     3969.698     1369.515        0.574        0.362       60.062       28.404        0.224      334.799        5.009      874.996
01/11/2022  11:39:00       56.428        5.284      -13.141       28.925       45.029       20.802      836.683     2027.655      432.708        0.334        0.165       56.675       23.997        0.179      334.741        4.913      874.979
01/11/2022  11:40:00       88.751       42.710      -18.991       31.001       21.163       21.344      961.070      447.863      455.569        0.596        0.093       98.493       11.825        0.014      334.547        4.592      874.967
01/11/2022  11:41:00      111.203       54.120      -17.229       45.867       38.807       21.082     2103.773     1505.985      444.451        0.982        0.203      123.673       11.455        0.009      334.581        4.647      874.961
01/11/2022  11:42:00       23.774       36.363       -1.653       37.936       62.068       27.821     1439.116     3852.412      774.035        0.398        0.303       43.445       23.547        0.294      335.083        5.481      874.936
01/11/2022  11:43:00       74.995      -87.594      -48.230       23.198       44.733       22.795      538.170     2001.005      519.604        0.934        0.153      115.312       14.494        0.016      334.591        4.664      874.914
01/11/2022  11:44:00       80.566      -29.544      -36.712       47.057       47.482       35.727     2214.353     2254.512     1276.393        0.723        0.287       85.812       15.785        0.034      334.983        5.315      874.879
01/11/2022  11:45:00       55.822       -3.659      -18.756       69.030       51.958       40.268     4765.186     2699.624     1621.536        0.628        0.454       55.942       23.340        0.174      335.180        5.643      874.827
01/11/2022  11:46:00       66.580     -158.313      -46.669       68.052       86.718       32.204     4631.030     7520.075     1037.098        2.243        0.659      171.744       28.813        0.028      334.893        5.164      874.794
01/11/2022  11:47:00       95.655      -63.386      -30.594       73.506       66.766       45.175     5403.066     4457.691     2040.773        1.300        0.595      114.750       38.837        0.115      334.816        5.038      874.766
01/11/2022  11:48:00       45.023      -76.512      -20.729       31.155       59.243       23.910      970.634     3509.696      571.682        0.668        0.253       88.776       22.806        0.066      334.749        4.926      874.739
01/11/2022  11:49:00       73.315     -120.791      -31.146       27.490       55.983       18.589      755.677     3134.046      345.532        1.258        0.212      141.300       16.474        0.014      334.595        4.672      874.696
01/11/2022  11:50:00       87.347      -73.041      -34.740       48.938       50.033       27.781     2394.926     2503.267      771.802        0.992        0.283      113.862       25.901        0.052      334.887        5.155      874.658
01/11/2022  11:51:00      126.300     -105.286      -29.864       71.564       69.338       35.779     5121.446     4807.719     1280.113        1.957        0.560      164.429       43.163        0.069      334.792        4.997      874.611
01/11/2022  11:52:00       67.312     -155.618      -27.871       41.738       58.066       29.970     1742.079     3371.615      898.190        1.777        0.301      169.552       24.890        0.022      335.051        5.428      874.591
01/11/2022  11:53:00       96.511      -54.500      -23.943       49.894       82.830       34.266     2489.446     6860.747     1174.125        1.169        0.526      110.836       33.855        0.093      334.987        5.322      874.583
01/11/2022  11:54:00       46.180      -38.487      -27.158       43.595       75.767       40.327     1900.522     5740.612     1626.304        0.681        0.463       60.115       30.428        0.256      335.375        5.966      874.563
01/11/2022  11:55:00       30.473       -5.760      -18.187       51.798       44.127       24.625     2683.007     1947.152      606.399        0.326        0.262       31.013       11.688        0.142      335.201        5.679      874.567
01/11/2022  11:56:00       76.031       12.547      -21.285       38.677       58.063       30.427     1495.924     3371.280      925.775        0.609        0.290       77.060       18.812        0.060      335.060        5.444      874.549
01/11/2022  11:57:00       -9.282      -30.036      -18.666       43.359       41.278       29.072     1880.033     1703.861      845.171        0.288        0.221       31.438        7.561        0.058      335.470        6.125      874.545
01/11/2022  11:58:00       56.511     -178.844      -33.132       52.738       51.698       32.803     2781.266     2672.730     1076.017        2.140        0.327      187.560       41.522        0.049      334.718        4.874      874.552
01/11/2022  11:59:00       80.195     -134.164      -43.891       32.041       45.952       22.209     1026.614     2111.616      493.260        1.499        0.182      156.305       14.614        0.009      334.638        4.742      874.572
01/11/2022  12:00:00       51.300      -67.248      -28.103       30.189       48.844       24.740      911.388     2385.700      612.072        0.593        0.195       84.581        6.563        0.006      334.714        4.867      874.574
01/11/2022  12:01:00       78.059      -92.012      -21.663       42.778       39.432       22.995     1829.920     1554.897      528.761        0.947        0.196      120.662       19.162        0.025      334.827        5.058      874.561
01/11/2022  12:02:00       86.722      -88.815      -31.545       41.495       61.914       27.904     1721.844     3833.387      778.642        1.137        0.317      124.132       30.876        0.062      335.090        5.495      874.540
01/11/2022  12:03:00       49.100     -149.222      -15.324       34.406       48.363       29.984     1183.800     2338.972      899.030        1.467        0.221      157.093       24.629        0.025      335.157        5.604      874.505
01/11/2022  12:04:00       31.773      -61.104      -20.372       36.531       66.019       31.943     1334.508     4358.563     1020.380        0.593        0.336       68.871       29.086        0.178      335.302        5.846      874.487
01/11/2022  12:05:00       74.703        3.889      -11.798       59.470       65.855       41.777     3536.697     4336.864     1745.353        0.768        0.481       74.804       32.779        0.192      335.199        5.673      874.465
01/11/2022  12:06:00       91.671       25.476       -7.703       59.506       49.985       32.767     3540.927     2498.541     1073.688        0.811        0.356       95.145       27.376        0.083      335.175        5.634      874.445
01/11/2022  12:07:00      103.090      -40.720      -29.928       67.993       68.095       37.382     4623.115     4636.949     1397.441        1.192        0.533      110.841       29.241        0.070      335.119        5.541      874.437
01/11/2022  12:08:00       99.095      -14.382       -9.952       80.705       72.012       60.737     6513.362     5185.770     3689.004        1.275        0.769      100.133       50.108        0.250      335.157        5.605      874.403
01/11/2022  12:09:00       86.772        0.903      -11.428       58.512       47.675       37.800     3423.618     2272.950     1428.842        0.739        0.356       86.777       32.513        0.140      335.138        5.572      874.408
01/11/2022  12:10:00       92.854       50.917      -24.082       39.268       30.242       18.190     1541.965      914.597      330.869        0.729        0.139      105.898        7.572        0.005      335.036        5.405      874.404
01/11/2022  12:11:00       30.594       -4.518      -10.246       31.691       37.336       21.641     1004.314     1393.978      468.317        0.196        0.143       30.926       16.065        0.270      335.413        6.029      874.372
01/11/2022  12:12:00       41.215      -52.977      -19.099       32.646       42.033       22.476     1065.739     1766.753      505.150        0.410        0.167       67.121       12.829        0.037      335.839        6.741      874.345
01/11/2022  12:13:00       70.582      -60.805      -25.764       28.981       55.099       29.461      839.894     3035.850      867.943        0.704        0.237       93.161       13.232        0.020      335.434        6.067      874.327
01/11/2022  12:14:00      102.049       -7.201      -42.268       50.868       73.312       39.385     2587.508     5374.619     1551.146        1.088        0.476      102.303       12.182        0.014      335.373        5.963      874.302
01/11/2022  12:15:00       17.091        3.075      -21.811       42.360       54.261       35.156     1794.334     2944.261     1235.974        0.337        0.299       17.366       20.356        1.374      335.627        6.387      874.278
01/11/2022  12:16:00      120.260      -15.094      -12.198       75.777       40.103       40.235     5742.184     1608.213     1618.839        1.190        0.448      121.204       38.284        0.100      335.240        5.744      874.253
01/11/2022  12:17:00      127.129      -30.633      -22.897       86.259       69.960       58.251     7440.632     4894.454     3393.190        1.667        0.786      130.768       44.683        0.117      335.170        5.627      874.225
01/11/2022  12:18:00      127.166        9.708      -33.729       81.942       79.356       45.642     6714.463     6297.402     2083.230        1.625        0.755      127.536       35.399        0.077      335.273        5.796      874.206
01/11/2022  12:19:00       54.245       -8.369      -13.064       68.681       54.955       42.838     4717.054     3020.002     1835.105        0.638        0.479       54.887       32.525        0.351      335.443        6.081      874.214
01/11/2022  12:20:00      108.084      -34.765      -13.546       36.674       36.158       28.108     1344.966     1307.400      790.064        0.826        0.172      113.538       18.905        0.028      335.124        5.551      874.226
01/11/2022  12:21:00       75.025      -16.171      -12.105       68.410       48.134       44.183     4679.928     2316.896     1952.159        0.749        0.447       76.748       38.329        0.249      335.339        5.908      874.210
01/11/2022  12:22:00       57.949      -24.534      -20.330       41.653       58.747       37.871     1734.976     3451.263     1434.207        0.550        0.331       62.929       26.114        0.172      335.380        5.976      874.187
01/11/2022  12:23:00      110.839       -8.624      -39.835       56.078       64.698       34.702     3144.703     4185.842     1204.239        1.124        0.427      111.174       19.608        0.031      335.356        5.936      874.153
01/11/2022  12:24:00      140.051      -52.199      -35.884       42.079       35.857       20.214     1770.642     1285.746      408.593        1.355        0.173      149.463       10.018        0.004      335.038        5.408      874.122
01/11/2022  12:25:00       56.097       16.006      -19.626       29.976       39.475       21.838      898.579     1558.273      476.885        0.336        0.147       58.335       16.143        0.077      335.094        5.501      874.100
01/11/2022  12:26:00       86.510       13.555       -6.678       35.661       40.797       27.824     1271.712     1664.365      774.162        0.571        0.186       87.566       23.409        0.071      335.448        6.089      874.074
01/11/2022  12:27:00       81.600      -39.522      -13.477       71.882       58.296       40.279     5167.048     3398.406     1622.373        0.929        0.509       90.668       35.392        0.152      335.402        6.012      874.035
01/11/2022  12:28:00       95.359       40.161      -21.616       31.700       41.598       21.974     1004.869     1730.377      482.842        0.720        0.161      103.471       11.469        0.012      335.233        5.730      874.018
01/11/2022  12:29:00       32.072        1.440      -15.862       16.284       40.953       20.863      265.184     1677.182      435.251        0.183        0.119       32.104       11.381        0.126      335.464        6.115      873.996
01/11/2022  12:30:00       97.810     -107.408      -37.497       46.430       60.611       32.316     2155.699     3673.664     1044.340        1.469        0.344      145.270       34.110        0.055      335.310        5.859      873.975
01/11/2022  12:31:00       98.435     -105.678      -21.732       45.663       45.030       26.535     2085.102     2027.725      704.086        1.307        0.241      144.420       26.615        0.034      335.207        5.688      873.955
01/11/2022  12:32:00       61.750      -19.379      -16.416       52.881       73.567       32.983     2796.416     5412.068     1087.858        0.688        0.465       64.720       25.861        0.160      335.621        6.377      873.952
01/11/2022  12:33:00       55.297      -20.762      -30.918       57.895       59.647       30.334     3351.847     3557.707      920.171        0.614        0.391       59.066       20.832        0.124      335.744        6.582      873.960
01/11/2022  12:34:00        1.467       32.842      -18.857       24.393       26.724       36.247      595.009      714.170     1313.866        0.203        0.131       32.875       17.205        0.274      335.703        6.514      873.968
01/11/2022  12:35:00        7.929      -24.069      -22.973       31.732       26.100       19.230     1006.934      681.234      369.777        0.161        0.103       25.341        8.843        0.122      335.635        6.400      873.969
01/11/2022  12:36:00       31.538      -29.569       -4.299       35.076       26.658       20.671     1230.294      710.673      427.307        0.213        0.118       43.232       20.111        0.216      335.640        6.408      873.965
01/11/2022  12:37:00       28.522      -56.724       -2.834       81.810       47.399       37.411     6692.904     2246.682     1399.566        0.719        0.517       63.491       34.376        0.293      335.780        6.641      873.951
01/11/2022  12:38:00       92.653      -78.667      -25.584       51.210       58.560       38.009     2622.447     3429.324     1444.711        1.146        0.375      121.544       30.012        0.061      335.560        6.275      873.922
01/11/2022  12:39:00       55.199      -42.722      -31.149       47.979       66.597       42.064     2301.998     4435.176     1769.348        0.717        0.425       69.801       14.090        0.041      335.978        6.973      873.917
01/11/2022  12:40:00       62.596       23.904      -12.504       50.014       51.845       27.889     2501.445     2687.873      777.795        0.531        0.298       67.005       20.220        0.091      335.863        6.780      873.913
01/11/2022  12:41:00       94.054       39.770      -17.362       59.071       47.214       30.234     3489.391     2229.144      914.116        0.868        0.332      102.117       14.219        0.019      335.522        6.212      873.905
01/11/2022  12:42:00      121.200       29.721      -26.361       55.881       68.528       32.587     3122.736     4696.077     1061.928        1.257        0.444      124.791       11.090        0.008      335.695        6.499      873.872
01/11/2022  12:43:00       73.839      -17.994      -40.165       60.332       48.749       38.691     3639.929     2376.495     1496.978        0.745        0.376       76.000       20.356        0.072      335.820        6.709      873.832
01/11/2022  12:44:00       63.874       11.461      -12.789       58.830       45.245       44.088     3460.958     2047.142     1943.745        0.591        0.373       64.894       37.701        0.338      335.682        6.479      873.771
01/11/2022  12:45:00      100.809      -25.679      -18.040       72.671       68.320       37.413     5281.025     4667.567     1399.726        1.125        0.567      104.028       38.449        0.137      335.565        6.284      873.714
01/11/2022  12:46:00       42.897       35.687       -3.507       43.480       45.279       34.837     1890.550     2050.229     1213.636        0.414        0.258       55.801       24.791        0.197      335.858        6.772      873.673
01/11/2022  12:47:00       47.734       22.665      -16.352       32.465       37.875       25.988     1053.969     1434.495      675.399        0.311        0.158       52.842       16.118        0.093      335.583        6.312      873.629
01/11/2022  12:48:00       60.662      -42.206      -17.576       64.465       65.341       40.742     4155.798     4269.510     1659.881        0.793        0.504       73.900       34.352        0.216      335.699        6.506      873.587
01/11/2022  12:49:00       80.802      -16.073      -24.706       54.373       75.787       40.572     2956.378     5743.660     1646.066        0.887        0.517       82.385       39.123        0.226      335.712        6.529      873.547
01/11/2022  12:50:00      116.471       69.108      -41.310       50.079       23.449       19.331     2507.935      549.858      373.704        1.174        0.172      135.431       13.678        0.010      335.578        6.304      873.524
01/11/2022  12:51:00       37.527       48.311       -7.056       31.750       34.144       32.275     1008.044     1165.812     1041.649        0.350        0.161       61.174       18.190        0.088      335.877        6.803      873.477
01/11/2022  12:52:00      101.765       24.857      -24.336       54.889       39.194       29.618     3012.854     1536.187      877.253        0.850        0.271      104.757       10.832        0.011      335.660        6.441      873.441
01/11/2022  12:53:00      119.800       37.134      -10.898       66.680       54.994       40.762     4446.195     3024.335     1661.536        1.249        0.457      125.423       11.691        0.009      335.637        6.403      873.422
01/11/2022  12:54:00      155.150       26.553      -26.746       50.904       59.338       27.533     2591.231     3520.957      758.086        1.618        0.344      157.406       24.606        0.024      335.542        6.245      873.428
01/11/2022  12:55:00       97.353       28.867      -19.988       40.606       37.585       23.772     1648.850     1412.606      565.084        0.717        0.181      101.543       19.766        0.038      335.569        6.291      873.446
01/11/2022  12:56:00      128.781       57.037      -17.868       31.982       23.154       17.921     1022.851      536.124      321.166        1.102        0.094      140.847       10.833        0.006      335.523        6.213      873.452
01/11/2022  12:57:00      120.825       52.114      -16.829       38.958       27.678       18.138     1517.720      766.080      329.001        1.010        0.131      131.585       11.900        0.008      335.653        6.429      873.446
01/11/2022  12:58:00       14.662      -49.499      -29.343       50.509       46.902       35.874     2551.194     2199.843     1286.963        0.478        0.302       51.625       26.955        0.273      336.166        7.285      873.422
01/11/2022  12:59:00       36.143      -56.997      -31.615       34.051       49.786       39.175     1159.455     2478.599     1534.705        0.536        0.259       67.490       24.249        0.129      336.153        7.263      873.411
01/11/2022  13:00:00        5.345        5.986      -17.148       37.708       42.729       30.847     1421.901     1825.746      951.558        0.228        0.210        8.025       17.931        4.993      336.211        7.360      873.409
01/11/2022  13:01:00       33.524        1.391      -14.630       65.804       50.245       31.327     4330.148     2524.578      981.402        0.459        0.392       33.553       29.810        0.789      336.160        7.276      873.407
01/11/2022  13:02:00       15.617      -12.628        6.301       34.889       29.513       28.595     1217.213      871.007      817.656        0.167        0.145       20.083       24.016        1.430      336.392        7.663      873.417
01/11/2022  13:03:00       16.495      -10.781      -19.598       36.245       32.769       21.759     1313.713     1073.810      473.475        0.182        0.143       19.706       14.391        0.533      336.502        7.849      873.408
01/11/2022  13:04:00       73.729       69.252      -18.891       41.847       39.369       27.901     1751.165     1549.885      778.478        0.733        0.204      101.152       18.512        0.033      335.713        6.529      873.395
01/11/2022  13:05:00       41.233      -45.703      -10.338       37.110       77.156       25.159     1377.174     5953.028      632.966        0.593        0.398       61.555       12.776        0.043      336.007        7.021      873.369
01/11/2022  13:06:00      107.927     -126.392      -29.169       52.072       46.809       31.383     2711.455     2191.122      984.867        1.718        0.294      166.203       26.011        0.024      335.636        6.401      873.350
01/11/2022  13:07:00       61.589      -99.530      -28.974       30.840       46.891       22.242      951.085     2198.782      494.717        0.909        0.182      117.045       12.014        0.011      335.686        6.485      873.346
01/11/2022  13:08:00       38.627      -10.777      -16.039       32.032       39.176       25.197     1026.017     1534.795      634.893        0.253        0.160       40.102       20.607        0.264      336.153        7.264      873.340
01/11/2022  13:09:00       44.102       23.052      -12.109       45.963       32.470       18.674     2112.569     1054.331      348.721        0.307        0.176       49.763       19.120        0.148      335.742        6.577      873.325
01/11/2022  13:10:00       46.671       24.584       -0.665       69.610       29.963       18.124     4845.487      897.765      328.495        0.443        0.304       52.750       29.138        0.305      335.957        6.938      873.266
01/11/2022  13:11:00      101.819       40.438      -25.426       52.176       53.004       32.123     2722.370     2809.443     1031.869        0.961        0.328      109.556       21.398        0.038      335.894        6.832      873.221
01/11/2022  13:12:00       90.451       19.109      -15.186       64.274       62.642       38.257     4131.085     3924.076     1463.636        0.915        0.476       92.448       23.200        0.063      335.974        6.965      873.185
01/11/2022  13:13:00      126.862       32.763      -11.835       70.392       35.826       20.298     4955.083     1283.524      412.024        1.198        0.333      131.024       25.656        0.038      335.753        6.597      873.167
01/11/2022  13:14:00       87.943       44.874      -12.232       43.378       27.039       19.157     1881.633      731.083      366.993        0.644        0.149       98.730       18.601        0.035      335.644        6.417      873.170
01/11/2022  13:15:00       45.212       10.342      -12.692       27.455       37.445       18.023      753.769     1402.111      324.837        0.240        0.124       46.380       10.191        0.048      335.898        6.838      873.179
01/11/2022  13:16:00       75.640       27.956      -13.152       50.210       25.981       21.120     2521.060      674.987      446.049        0.516        0.182       80.641       20.694        0.066      335.741        6.577      873.197
01/11/2022  13:17:00       48.784       54.678       -8.316       33.643       52.025       26.399     1131.835     2706.584      696.920        0.499        0.227       73.277       19.773        0.073      335.841        6.744      873.213
01/11/2022  13:18:00       22.827       91.371      -19.562       25.830       22.986       21.312      667.173      528.377      454.192        0.545        0.082       94.179        4.552        0.002      335.758        6.605      873.225
01/11/2022  13:19:00       -2.082       36.946      -16.652       11.325       40.780       15.268      128.262     1663.031      233.102        0.184        0.101       37.004       21.627        0.342      335.770        6.624      873.219
01/11/2022  13:20:00       52.076       23.113       -5.631       24.882       30.765       15.625      619.134      946.496      244.130        0.254        0.090       56.975       11.001        0.037      336.009        7.024      873.203
01/11/2022  13:21:00       68.600       28.025      -18.483       25.908       25.600       17.941      671.238      655.378      321.890        0.374        0.082       74.103       12.571        0.029      335.832        6.730      873.191
01/11/2022  13:22:00       64.060       15.896      -18.810       32.923       32.521       21.465     1083.893     1057.634      460.760        0.366        0.130       66.003       12.007        0.033      335.982        6.978      873.182
01/11/2022  13:23:00       42.292       66.765        1.486       28.567       32.190       19.970      816.074     1036.205      398.793        0.425        0.113       79.033       10.657        0.018      336.077        7.138      873.192
01/11/2022  13:24:00       13.884       67.614      -19.749       23.354       26.456       21.976      545.415      699.894      482.948        0.344        0.086       69.025       13.456        0.038      335.951        6.927      873.220
01/11/2022  13:25:00       27.959       50.142       -0.207       38.708       36.723       21.164     1498.284     1348.593      447.926        0.329        0.165       57.410       21.614        0.142      336.101        7.176      873.242
01/11/2022  13:26:00      -15.850       92.244      -20.880       24.941       36.344       24.330      622.063     1320.857      591.926        0.587        0.127       93.596       15.524        0.028      336.091        7.160      873.254
01/11/2022  13:27:00      -74.490       31.264      -16.942       34.613       45.511       26.973     1198.089     2071.219      727.523        0.540        0.200       80.785       25.057        0.096      336.288        7.489      873.256
01/11/2022  13:28:00       35.993        7.044       -9.438       67.406       46.008       25.572     4543.596     2116.699      653.939        0.437        0.366       36.676       18.100        0.244      336.139        7.240      873.249
01/11/2022  13:29:00       48.877       34.504      -15.809       31.065       33.203       15.582      965.011     1102.462      242.789        0.307        0.116       59.828        9.685        0.026      335.915        6.866      873.242
01/11/2022  13:30:00       50.004       36.422      -17.993       47.840       32.711       29.351     2288.633     1069.982      861.478        0.418        0.211       61.863       27.458        0.197      336.061        7.110      873.237
01/11/2022  13:31:00       54.989       50.970      -10.332       38.155       30.036       28.695     1455.779      902.153      823.413        0.445        0.159       74.978       24.192        0.104      336.090        7.159      873.232
01/11/2022  13:32:00       73.811       37.832      -11.229       44.718       27.934       19.824     1999.726      780.304      392.987        0.509        0.159       82.942       16.905        0.042      336.011        7.027      873.233
01/11/2022  13:33:00       85.145       13.520      -11.855       32.270       22.948       16.622     1041.340      526.610      276.294        0.471        0.092       86.212       12.663        0.022      335.983        6.980      873.238
01/11/2022  13:34:00       90.924       49.966      -18.844       27.914       30.094       18.651      779.198      905.648      347.854        0.658        0.102      103.748       10.110        0.009      336.137        7.235      873.248
01/11/2022  13:35:00      108.687       54.110      -29.032       20.505       21.907       19.871      420.443      479.922      394.856        0.844        0.065      121.411        3.972        0.001      336.003        7.013      873.260
01/11/2022  13:36:00       51.244       33.858      -11.077       37.278       37.538       27.417     1389.640     1409.101      751.707        0.372        0.178       61.419       11.040        0.032      336.183        7.313      873.255
01/11/2022  13:37:00       53.157        3.289      -16.721       34.885       30.069       20.843     1216.992      904.124      434.441        0.284        0.128       53.258       17.644        0.110      336.170        7.292      873.245
01/11/2022  13:38:00        2.724       12.740      -11.998       18.993       17.906       13.193      360.721      320.611      174.045        0.058        0.043       13.028       10.560        0.657      336.359        7.608      873.236
01/11/2022  13:39:00       31.735       29.266      -12.778       18.417       15.471       12.801      339.202      239.341      163.859        0.138        0.037       43.169        4.214        0.010      336.316        7.533      873.214
01/11/2022  13:40:00       14.296      -23.785      -19.412       20.568       19.346       13.511      423.046      374.249      182.542        0.106        0.049       27.751       10.924        0.155      336.665        8.119      873.187
01/11/2022  13:41:00        6.725      -47.404      -17.783       16.928       21.326       13.919      286.568      454.813      193.746        0.177        0.047       47.879        9.265        0.037      336.549        7.926      873.171
01/11/2022  13:42:00        3.145      -11.267       -6.577       12.550       20.292       18.121      157.491      411.756      328.363        0.054        0.045       11.697       11.146        0.908      336.980        8.646      873.169
01/11/2022  13:43:00       35.478        5.661      -11.979       21.609       37.389       20.887      466.948     1397.927      436.284        0.187        0.115       35.927       16.819        0.219      336.426        7.720      873.172
01/11/2022  13:44:00       26.349       42.146      -11.976       13.189       23.173       15.844      173.952      536.973      251.040        0.179        0.048       49.705        7.509        0.023      336.281        7.478      873.178
01/11/2022  13:45:00       40.280       43.805       -2.391       33.118       35.097       23.010     1096.827     1231.828      529.478        0.320        0.143       59.510       17.218        0.084      336.329        7.557      873.171
01/11/2022  13:46:00       34.872       43.933       -7.146       30.921       25.221       24.566      956.108      636.117      603.470        0.270        0.110       56.091       19.364        0.119      336.342        7.579      873.145
01/11/2022  13:47:00       34.986       37.509      -24.858       25.787       11.763       13.328      664.989      138.357      177.635        0.211        0.049       51.293        5.897        0.013      336.223        7.378      873.113
01/11/2022  13:48:00      -25.628       21.558      -12.681       15.476       20.174       18.214      239.519      406.989      331.754        0.113        0.049       33.490        8.511        0.065      336.394        7.667      873.069
01/11/2022  13:49:00       13.103       23.281       -9.950       34.905       14.929       11.546     1218.363      222.880      133.319        0.119        0.079       26.715        4.053        0.023      336.414        7.699      873.032
01/11/2022  13:50:00       39.947       39.279      -11.711       11.964       16.171       11.114      143.143      261.500      123.517        0.190        0.026       56.023        6.096        0.012      336.336        7.568      872.994
01/11/2022  13:51:00       13.512       -9.668      -11.985       32.659       41.355       29.058     1066.614     1710.238      844.340        0.202        0.181       16.614       23.822        2.056      336.524        7.884      872.979
01/11/2022  13:52:00       26.986      -22.030      -14.576       30.167       36.816       29.562      910.049     1355.389      873.932        0.228        0.157       34.836       16.451        0.223      336.804        8.352      872.975
01/11/2022  13:53:00       75.648       39.708      -27.812       34.437       36.498       25.395     1185.882     1332.077      644.886        0.562        0.158       85.436       16.095        0.035      336.514        7.867      872.984
01/11/2022  13:54:00       44.042       44.316       -7.591       24.799       17.649       17.382      614.993      311.483      302.132        0.259        0.061       62.479        7.457        0.014      336.408        7.688      872.994
01/11/2022  13:55:00       69.923       45.052      -10.094       30.989       20.106       22.501      960.293      404.256      506.304        0.445        0.094       83.180       17.587        0.045      336.439        7.741      872.988
01/11/2022  13:56:00       58.089       16.782      -18.550       12.839       12.377       11.820      164.841      153.187      139.709        0.223        0.023       60.465        7.358        0.015      336.297        7.503      872.972
01/11/2022  13:57:00       29.232       21.921      -11.473       17.494       25.250       11.716      306.027      637.545      137.257        0.127        0.054       36.538        8.370        0.052      336.399        7.674      872.949
01/11/2022  13:58:00       17.865       -1.167      -16.348       40.795       50.226       39.667     1664.196     2522.653     1573.471        0.317        0.288       17.903       23.266        1.689      336.750        8.263      872.921
01/11/2022  13:59:00       66.859       -7.380      -30.705       47.779       44.848       34.830     2282.826     2011.349     1213.106        0.549        0.275       67.265       25.100        0.139      336.662        8.115      872.907
01/11/2022  14:00:00       94.643      -15.051      -23.482       35.878       46.070       27.961     1287.206     2122.405      781.826        0.696        0.210       95.832       19.323        0.041      336.558        7.941      872.908
01/11/2022  14:01:00        1.775        6.297       20.087       38.066       40.167       18.428     1449.040     1613.376      339.596        0.192        0.170        6.543       17.429        7.096      336.755        8.272      872.922
01/11/2022  14:02:00       21.055      -29.149       -8.866       27.247       17.386       19.777      742.395      302.257      391.115        0.140        0.072       35.958       17.575        0.239      336.794        8.334      872.928
01/11/2022  14:03:00       54.534      -28.476      -15.515       36.667       33.868       19.730     1344.503     1147.016      389.257        0.345        0.144       61.521       12.440        0.041      336.634        8.067      872.933
01/11/2022  14:04:00       50.198       -2.830       -4.689       40.049       26.105       19.852     1603.948      681.456      394.119        0.261        0.134       50.278       21.897        0.190      336.646        8.089      872.955
01/11/2022  14:05:00       36.779      -15.752       -6.470       41.904       40.227       28.235     1755.934     1618.249      797.230        0.291        0.209       40.011       27.215        0.463      336.762        8.280      872.968
01/11/2022  14:06:00       42.682        0.629      -13.950       40.519       42.723       34.149     1641.752     1825.276     1166.129        0.332        0.232       42.687       20.555        0.232      336.727        8.223      872.978
01/11/2022  14:07:00       33.030       20.921      -10.779       34.796       56.669       32.461     1210.727     3211.423     1053.745        0.356        0.274       39.098       10.852        0.077      336.787        8.324      872.979
01/11/2022  14:08:00       50.797      -11.112      -14.260       42.543       37.279       29.048     1809.882     1389.695      843.761        0.347        0.202       51.998       23.143        0.198      336.713        8.199      872.971
01/11/2022  14:09:00      104.607      -45.515      -22.761       24.503       20.960       16.040      600.398      439.320      257.290        0.741        0.065      114.080        8.516        0.006      336.503        7.848      872.953
01/11/2022  14:10:00       92.431        2.401      -13.862       50.681       56.529       33.945     2568.523     3195.481     1152.268        0.783        0.346       92.462       27.687        0.090      336.616        8.037      872.937
01/11/2022  14:11:00       72.766        0.314      -22.566       44.337       46.055       34.522     1965.806     2121.033     1191.762        0.554        0.264       72.766       27.250        0.140      336.673        8.134      872.938
01/11/2022  14:12:00       61.415      -13.809      -27.945       40.754       44.056       26.661     1660.920     1940.893      710.787        0.453        0.216       62.948       15.632        0.062      336.669        8.125      872.953
01/11/2022  14:13:00       50.923       -8.961      -27.704       37.486       51.881       30.833     1405.211     2691.611      950.688        0.424        0.252       51.705       18.967        0.135      336.785        8.320      872.971
01/11/2022  14:14:00       38.076       29.695       -6.294       45.312       37.624       26.302     2053.219     1415.570      691.782        0.327        0.208       48.286       23.067        0.228      336.822        8.382      872.996
01/11/2022  14:15:00       37.982      -13.935      -19.110       15.298       16.321       14.429      234.020      266.367      208.201        0.136        0.035       40.457        4.507        0.012      336.551        7.930      873.017
01/11/2022  14:16:00       29.721       -4.611      -21.024       14.505        9.429       18.435      210.409       88.904      339.864        0.099        0.032       30.077        7.324        0.059      336.541        7.913      873.017
01/11/2022  14:17:00       16.419       38.777      -19.042       12.320       20.398       20.764      151.787      416.075      431.127        0.157        0.050       42.110       15.581        0.137      336.527        7.890      873.018
01/11/2022  14:18:00       16.178       12.255       -8.989       31.994       28.279       21.277     1023.647      799.689      452.723        0.138        0.114       20.296       18.000        0.787      336.774        8.301      872.997
01/11/2022  14:19:00       23.478       35.632      -11.127       34.042       31.494       21.235     1158.849      991.897      450.921        0.227        0.130       42.672       13.218        0.096      336.810        8.361      872.971
01/11/2022  14:20:00       76.213       49.535      -25.820       43.041       37.369       30.117     1852.487     1396.418      907.058        0.654        0.208       90.896       16.489        0.033      336.656        8.103      872.958
01/11/2022  14:21:00        5.353       33.067      -14.704       51.838       46.894       37.712     2687.129     2199.002     1422.175        0.382        0.315       33.498        9.769        0.085      336.817        8.374      872.949
01/11/2022  14:22:00       31.717       23.304      -11.542       36.204       33.952       29.225     1310.713     1152.765      854.113        0.250        0.166       39.358       21.794        0.307      336.727        8.223      872.944
01/11/2022  14:23:00       54.747       38.166      -10.000       52.574       50.883       24.376     2764.013     2589.043      594.200        0.525        0.297       66.738       16.097        0.058      336.677        8.141      872.944
01/11/2022  14:24:00       81.974       41.570      -19.478       41.687       38.624       23.655     1737.814     1491.807      559.536        0.631        0.189       91.912       10.245        0.012      336.613        8.035      872.940
01/11/2022  14:25:00       19.130        0.101      -11.831       30.692       46.815       22.656      941.993     2191.651      513.296        0.208        0.182       19.131       19.344        1.022      336.793        8.332      872.923
01/11/2022  14:26:00       -2.742        9.568       -9.635       39.258       42.532       25.675     1541.214     1808.998      659.198        0.210        0.200        9.953       22.089        4.925      336.834        8.401      872.910
01/11/2022  14:27:00      -41.770       20.526       -6.943       42.406       37.276       29.218     1798.256     1389.520      853.715        0.313        0.202       46.541       15.740        0.114      336.808        8.359      872.886
01/11/2022  14:28:00      -17.070      -11.949      -11.242       46.293       45.893       35.661     2142.997     2106.173     1271.718        0.304        0.276       20.837       31.750        2.322      336.876        8.471      872.857
01/11/2022  14:29:00      -22.495        2.742      -18.892       28.475       30.184       18.202      810.852      911.096      331.320        0.146        0.103       22.661       10.560        0.217      336.902        8.513      872.837
01/11/2022  14:30:00      108.096       75.386      -19.839       45.167       49.481       32.070     2040.098     2448.377     1028.498        1.164        0.276      131.787       22.078        0.028      336.678        8.142      872.829
01/11/2022  14:31:00       77.637       54.864      -10.139       53.701       43.976       36.942     2883.840     1933.867     1364.703        0.766        0.309       95.066       18.685        0.039      336.665        8.121      872.820
01/11/2022  14:32:00        0.579       19.088        5.082       43.544       41.199       28.061     1896.111     1697.326      787.408        0.238        0.219       19.096        5.746        0.091      336.810        8.360      872.804
01/11/2022  14:33:00      -12.293      -16.032      -13.157       37.006       42.424       23.922     1369.473     1799.761      572.278        0.216        0.187       20.203       13.485        0.446      336.813        8.366      872.798
01/11/2022  14:34:00       -0.637      -14.390       -0.273       32.394       37.183       31.120     1049.386     1382.538      968.441        0.180        0.170       14.404       15.351        1.136      336.807        8.357      872.793
01/11/2022  14:35:00       22.942       11.941      -12.238       32.265       41.414       26.316     1041.002     1715.152      692.540        0.213        0.172       25.863       20.148        0.607      336.714        8.202      872.786
01/11/2022  14:36:00       41.511     -102.974      -42.392       40.839       84.175       37.768     1667.788     7085.392     1426.432        1.215        0.509      111.026       36.688        0.109      336.733        8.234      872.770
01/11/2022  14:37:00       -4.402       11.904       -1.130       33.429       43.030       24.641     1117.524     1851.568      607.156        0.187        0.179       12.692        4.858        0.147      336.832        8.399      872.762
01/11/2022  14:38:00       34.862       22.640      -17.337       52.163       64.685       34.024     2720.971     4184.148     1157.665        0.504        0.403       41.569       29.012        0.487      336.783        8.317      872.746
01/11/2022  14:39:00      -41.284       -3.011       -9.484       36.473       34.667       23.077     1330.244     1201.805      532.532        0.243        0.153       41.394       15.612        0.142      336.877        8.474      872.730
01/11/2022  14:40:00      -28.305        7.114      -11.194       26.873       27.883       21.420      722.134      777.462      458.824        0.147        0.098       29.186       10.734        0.135      336.878        8.473      872.720
01/11/2022  14:41:00      -48.785       25.746       -2.022       28.248       19.564       17.243      797.934      382.765      297.310        0.226        0.074       55.162       11.314        0.042      336.927        8.557      872.711
01/11/2022  14:42:00      -29.869        5.293       -9.394       22.686       21.739       16.016      514.653      472.577      256.502        0.113        0.062       30.334       14.448        0.227      336.963        8.617      872.710
01/11/2022  14:43:00      -12.445      -11.078        3.571       30.431       19.056       15.188      926.054      363.144      230.675        0.090        0.076       16.661        9.173        0.303      337.104        8.853      872.718
01/11/2022  14:44:00       -3.654       -3.748      -10.348       22.639       13.338       16.194      512.517      177.907      262.233        0.054        0.048        5.234       11.215        4.590      337.031        8.732      872.743
01/11/2022  14:45:00       21.185       18.023       -5.549       14.599       29.149       16.147      213.130      849.656      260.734        0.106        0.066       27.815       16.356        0.346      336.803        8.349      872.779
01/11/2022  14:46:00      -33.871       27.327      -15.406       18.079       24.170       20.557      326.839      584.196      422.599        0.173        0.067       43.520        9.145        0.044      336.797        8.340      872.803
01/11/2022  14:47:00      -20.138       23.777      -13.923       16.706       11.293        8.677      279.078      127.542       75.299        0.082        0.024       31.159        5.261        0.029      336.821        8.380      872.804
01/11/2022  14:48:00       24.185       55.550      -13.323       21.523       26.751       21.938      463.219      715.636      481.262        0.275        0.083       60.587        4.238        0.005      336.792        8.332      872.798
01/11/2022  14:49:00       18.032       42.209       -7.210       19.013       12.910       11.989      361.487      166.658      143.727        0.142        0.034       45.899        7.888        0.030      336.780        8.312      872.774
01/11/2022  14:50:00      -11.832       -5.472       -8.858       15.989       17.108        9.319      255.650      292.689       86.848        0.044        0.032       13.036        4.072        0.098      336.970        8.629      872.755
01/11/2022  14:51:00      -16.994       -7.396       -7.896       20.883       13.458       18.837      436.101      181.120      354.851        0.069        0.049       18.534        9.712        0.275      337.013        8.701      872.733
01/11/2022  14:52:00      -28.322        0.943      -18.735       35.974       19.947       19.619     1294.152      397.863      384.902        0.162        0.104       28.337       10.220        0.130      337.095        8.838      872.731
01/11/2022  14:53:00        0.749       23.799      -18.555       17.983       24.558       15.483      323.385      603.097      239.715        0.104        0.058       23.811        8.756        0.135      336.923        8.551      872.738
01/11/2022  14:54:00       -3.769      -19.190      -16.106       18.347       23.188       16.988      336.600      537.665      288.598        0.090        0.058       19.557       10.740        0.302      337.024        8.719      872.753
01/11/2022  14:55:00        6.991       -3.946       -8.279       19.608       24.521       17.493      384.489      601.287      306.014        0.071        0.065        8.028        9.819        1.496      337.058        8.775      872.762
01/11/2022  14:56:00      122.435       34.444      -18.814       40.741       23.772       18.142     1659.840      565.086      329.138        0.954        0.128      127.188       11.670        0.008      336.786        8.322      872.764
01/11/2022  14:57:00      114.432       38.437      -16.024       20.671       24.587       13.809      427.290      604.523      190.681        0.803        0.061      120.715       11.075        0.008      336.686        8.157      872.773
01/11/2022  14:58:00       84.350       52.154      -12.546       16.104       14.498       13.611      259.330      210.197      185.265        0.532        0.033       99.171        8.522        0.007      336.684        8.154      872.780
01/11/2022  14:59:00       80.801       37.866      -14.786       15.253       16.779       13.150      232.660      281.525      172.913        0.443        0.034       89.233        4.977        0.003      336.689        8.159      872.772
01/11/2022  15:00:00       90.259       38.006      -19.462       25.089       11.814        9.739      629.466      139.582       94.845        0.542        0.043       97.934        8.418        0.007      336.714        8.205      872.766
01/11/2022  15:01:00       80.488       53.653       -6.429       37.635       23.870       21.894     1416.412      569.754      479.340        0.593        0.123       96.732       19.448        0.040      336.769        8.294      872.764
01/11/2022  15:02:00       65.126       51.414      -14.444       44.912       30.120       21.767     2017.048      907.242      473.803        0.525        0.170       82.974       21.207        0.065      336.808        8.357      872.761
01/11/2022  15:03:00       62.845       20.026       -7.533       29.428       23.005       15.194      865.993      529.208      230.858        0.302        0.081       65.959        7.929        0.014      336.785        8.319      872.764
01/11/2022  15:04:00       66.348       22.589       -3.339       34.414       35.324       21.324     1184.344     1247.777      454.730        0.390        0.144       70.088       17.874        0.065      336.790        8.327      872.776
01/11/2022  15:05:00       52.233       34.025      -15.150       21.808       13.660       14.876      475.610      186.589      221.304        0.250        0.044       62.338        3.957        0.004      336.789        8.324      872.788
01/11/2022  15:06:00       26.529       36.799       -7.811       25.030       16.899       22.197      626.516      285.565      492.714        0.176        0.070       45.365       12.877        0.081      336.837        8.407      872.790
01/11/2022  15:07:00        4.776       12.001       -8.322       26.745       32.445       14.784      715.293     1052.693      218.568        0.111        0.099       12.916       11.928        0.853      336.926        8.554      872.800
01/11/2022  15:08:00       21.509       11.128      -10.438       22.461       23.334       22.110      504.514      544.483      488.838        0.112        0.077       24.217       13.413        0.307      336.857        8.439      872.798
01/11/2022  15:09:00       89.499       31.577      -18.277       38.856       27.236       16.714     1509.770      741.826      279.343        0.594        0.127       94.907       15.940        0.028      336.791        8.331      872.789
01/11/2022  15:10:00       39.692       12.485      -13.566       41.047       30.830       25.110     1684.892      950.492      630.488        0.259        0.163       41.610       24.844        0.356      336.844        8.418      872.778
01/11/2022  15:11:00       35.207       22.575      -27.209       26.172       41.592       16.581      684.961     1729.881      274.923        0.259        0.134       41.823       14.108        0.114      336.817        8.372      872.752
01/11/2022  15:12:00       26.552      -12.896      -27.793       28.475       30.499       20.192      810.803      930.197      407.720        0.190        0.107       29.518       11.898        0.162      336.861        8.447      872.733
01/11/2022  15:13:00       50.418       -5.562      -32.723       31.282       61.646       26.506      978.539     3800.229      702.583        0.456        0.274       50.724       14.554        0.082      336.797        8.338      872.712
01/11/2022  15:14:00       34.900      -36.382      -25.741       34.011       44.852       27.331     1156.716     2011.743      746.993        0.356        0.196       50.414       20.364        0.163      336.778        8.308      872.687
01/11/2022  15:15:00       43.653       25.810      -23.975       34.159       45.242       27.036     1166.834     2046.803      730.956        0.354        0.197       50.712       19.087        0.142      336.891        8.497      872.669
01/11/2022  15:16:00       67.362       13.386      -19.448       36.499       34.621       22.093     1332.178     1198.612      488.116        0.406        0.151       68.680       11.383        0.027      336.816        8.370      872.662
01/11/2022  15:17:00       58.371       25.565      -15.762       33.829       42.387       22.049     1144.380     1796.677      486.138        0.387        0.171       63.724       10.608        0.028      336.867        8.457      872.674
01/11/2022  15:18:00       68.346       25.774      -26.222       24.702       45.732       22.687      610.201     2091.460      514.699        0.462        0.161       73.044       15.895        0.047      336.860        8.444      872.692
01/11/2022  15:19:00       38.988      -63.305      -26.799       25.591       49.973       22.467      654.898     2497.289      504.785        0.495        0.183       74.347       21.939        0.087      336.801        8.346      872.722
01/11/2022  15:20:00       25.223       -5.117      -23.965       25.244       27.895       19.013      637.244      778.157      361.487        0.151        0.089       25.737       14.490        0.317      336.908        8.526      872.752
01/11/2022  15:21:00       32.072       35.238       -6.870       21.802       19.245       16.915      475.332      370.362      286.129        0.172        0.057       47.648       13.160        0.076      336.896        8.502      872.792
01/11/2022  15:22:00       13.578       -4.870      -21.127       21.114       28.054       16.141      445.816      787.000      260.521        0.107        0.075       14.425       14.935        1.072      336.925        8.553      872.813
01/11/2022  15:23:00       17.064       11.647        0.658       29.815       29.769       19.298      888.962      886.190      372.405        0.129        0.107       20.660       14.984        0.526      336.901        8.513      872.834
01/11/2022  15:24:00       34.945       41.482      -11.926       34.309       28.159       23.142     1177.093      792.955      535.539        0.279        0.125       54.239       11.664        0.046      336.847        8.424      872.844
01/11/2022  15:25:00       47.165       14.363      -15.884       33.172       36.262       23.390     1100.407     1314.929      547.110        0.282        0.148       49.303       12.033        0.060      336.880        8.475      872.837
01/11/2022  15:26:00      107.925       35.912      -23.354       20.633       19.485       11.068      425.731      379.667      122.495        0.721        0.046      113.743        6.609        0.003      336.790        8.324      872.834
01/11/2022  15:27:00       95.307       47.575      -16.363       18.535       15.781       13.142      343.529      249.054      172.700        0.619        0.038      106.522        8.221        0.006      336.811        8.364      872.818
01/11/2022  15:28:00       35.173        7.832      -19.136       28.144       50.968       28.151      792.061     2597.779      792.463        0.292        0.209       36.034       26.750        0.551      336.821        8.380      872.795
01/11/2022  15:29:00       49.252       23.963      -11.602       39.887       42.160       28.057     1590.980     1777.508      787.179        0.364        0.208       54.772       23.102        0.178      336.868        8.456      872.772
01/11/2022  15:30:00       26.499       33.486       -3.635       23.655       23.077       32.481      559.536      532.561     1054.984        0.199        0.107       42.702       16.975        0.158      336.839        8.408      872.755
01/11/2022  15:31:00       55.777       33.588      -22.813       28.372       29.677       20.823      804.959      880.753      433.591        0.344        0.106       65.109        3.899        0.004      336.850        8.428      872.726
01/11/2022  15:32:00      112.046       25.884      -12.373       43.085       33.356       17.579     1856.352     1112.645      309.028        0.833        0.164      114.997       11.328        0.010      336.801        8.347      872.711
01/11/2022  15:33:00      109.760       18.821      -14.053       30.451       44.751       23.328      927.277     2002.674      544.181        0.804        0.174      111.362       16.210        0.021      336.834        8.401      872.709
01/11/2022  15:34:00      112.806       30.775      -18.223       51.680       38.540       18.334     2670.790     1485.368      336.148        0.925        0.225      116.929       10.034        0.007      336.829        8.394      872.708
01/11/2022  15:35:00       48.292        6.437      -21.019       33.251       35.549       23.172     1105.618     1263.722      536.946        0.286        0.145       48.720       13.104        0.072      336.867        8.457      872.713
01/11/2022  15:36:00       35.190        4.657      -24.722       39.229       30.841       20.006     1538.915      951.141      400.254        0.238        0.145       35.497       14.912        0.176      336.821        8.379      872.726
01/11/2022  15:37:00       55.316       20.298      -21.036       35.246       39.604       16.816     1242.246     1568.466      282.776        0.350        0.155       58.923        9.763        0.027      336.811        8.363      872.733
01/11/2022  15:38:00       70.273       53.937      -17.259       24.691       26.488       20.056      609.670      701.612      402.233        0.493        0.086       88.586       13.583        0.024      336.858        8.442      872.736
01/11/2022  15:39:00       52.432        5.295      -14.776       45.736       40.596       28.816     2091.815     1648.054      830.367        0.378        0.229       52.698       23.591        0.200      336.945        8.587      872.724
01/11/2022  15:40:00       63.244        1.879      -21.166       56.545       34.862       21.534     3197.288     1215.349      463.694        0.466        0.244       63.272       18.408        0.085      336.901        8.514      872.723
01/11/2022  15:41:00       66.663       12.384      -18.524       40.495       36.612       26.452     1639.806     1340.429      699.701        0.431        0.184       67.803       12.435        0.034      336.808        8.359      872.726
01/11/2022  15:42:00       48.035        9.964      -19.612       42.933       38.493       18.910     1843.234     1481.722      357.585        0.324        0.184       49.057       17.403        0.126      336.788        8.325      872.727
01/11/2022  15:43:00       38.327       -0.280      -22.876       33.639       42.127       22.690     1131.595     1774.682      514.845        0.271        0.171       38.328       10.774        0.079      336.832        8.399      872.727
01/11/2022  15:44:00       56.171       15.451      -33.167       53.161       48.283       25.985     2826.081     2331.248      675.196        0.516        0.292       58.257       19.897        0.117      336.760        8.279      872.733
01/11/2022  15:45:00       45.760       -3.471      -19.768       29.428       46.696       17.573      866.024     2180.490      308.801        0.293        0.168       45.891       12.013        0.069      336.747        8.258      872.725
01/11/2022  15:46:00       57.845       35.984      -18.529       46.666       33.073       18.769     2177.691     1093.848      352.265        0.430        0.181       68.124       19.902        0.085      336.800        8.345      872.717
01/11/2022  15:47:00       46.253       18.367      -19.053       38.372       31.905       19.699     1472.409     1017.924      388.039        0.286        0.144       49.767        7.514        0.023      336.821        8.379      872.706
01/11/2022  15:48:00       42.396       14.388      -23.750       41.388       46.871       25.386     1712.975     2196.935      644.427        0.356        0.228       44.771       11.697        0.068      336.773        8.300      872.697
01/11/2022  15:49:00       59.901       41.910      -16.673       38.847       43.576       20.472     1509.091     1898.856      419.084        0.472        0.191       73.107        8.607        0.014      336.793        8.335      872.694
01/11/2022  15:50:00       68.855       37.263      -16.519       22.487       32.023       16.399      505.665     1025.466      268.931        0.410        0.090       78.292       12.551        0.026      336.795        8.338      872.693
01/11/2022  15:51:00       39.456       12.585      -13.148       28.027       39.592       22.909      785.488     1567.507      524.828        0.238        0.144       41.415        7.558        0.033      336.802        8.348      872.680
01/11/2022  15:52:00       22.517      -15.037      -15.421       32.671       37.289       30.817     1067.378     1390.479      949.698        0.219        0.170       27.076       25.019        0.854      336.866        8.453      872.669
01/11/2022  15:53:00       46.028        8.789      -16.575       34.166       47.011       22.357     1167.339     2210.060      499.842        0.317        0.194       46.859       20.558        0.192      336.791        8.329      872.653
01/11/2022  15:54:00       33.768       22.100      -17.835       33.190       37.729       20.514     1101.586     1423.448      420.836        0.245        0.147       40.357       13.249        0.108      336.747        8.254      872.636
01/11/2022  15:55:00       26.011      -12.568      -21.598       28.457       50.727       24.491      809.806     2573.277      599.785        0.264        0.199       28.889       20.343        0.496      336.714        8.202      872.627
01/11/2022  15:56:00       23.665      -26.385      -15.733       30.963       36.530       27.873      958.730     1334.431      776.928        0.229        0.154       35.442       20.573        0.337      336.734        8.235      872.614
01/11/2022  15:57:00       16.211      -41.509       -0.137       30.426       37.980       32.472      925.745     1442.476     1054.404        0.270        0.171       44.563       22.824        0.262      336.768        8.292      872.608
01/11/2022  15:58:00       33.862      -25.677      -22.713       29.550       62.080       32.299      873.200     3853.901     1043.212        0.405        0.289       42.496       12.436        0.086      336.728        8.224      872.614
01/11/2022  15:59:00       13.137       -0.398      -12.862       23.459       35.919       20.529      550.319     1290.176      421.446        0.130        0.113       13.143       11.625        0.782      336.714        8.203      872.627
01/11/2022  16:00:00       52.707        1.591      -24.138       37.888       57.796       24.067     1435.489     3340.354      579.229        0.436        0.268       52.731       17.693        0.113      336.715        8.204      872.631
01/11/2022  16:01:00       47.025       13.369      -17.330       42.197       32.595       20.459     1780.582     1062.461      418.567        0.298        0.163       48.888       12.718        0.068      336.724        8.218      872.635
01/11/2022  16:02:00       82.657       47.366      -12.181       29.303       31.523       19.768      858.646      993.682      390.761        0.573        0.112       95.266       12.771        0.018      336.737        8.239      872.636
01/11/2022  16:03:00       64.997       29.213      -16.592       26.618       25.822       12.722      708.520      666.757      161.846        0.344        0.077       71.260        4.164        0.003      336.726        8.221      872.626
01/11/2022  16:04:00       61.890       44.983       -6.057       20.085       20.355       17.949      403.410      414.325      322.162        0.352        0.057       76.511       11.869        0.024      336.747        8.257      872.617
01/11/2022  16:05:00       41.872       21.632      -16.510       34.125       40.340       25.582     1164.524     1627.276      654.429        0.297        0.172       47.130       13.582        0.083      336.763        8.284      872.602
01/11/2022  16:06:00       52.404      -15.705      -14.626       18.993       28.339       15.603      360.748      803.110      243.463        0.231        0.070       54.707        8.567        0.025      336.791        8.331      872.582
01/11/2022  16:07:00       79.543       17.035      -16.917       40.837       25.751       15.545     1667.655      663.100      241.658        0.474        0.129       81.347       13.001        0.026      336.755        8.268      872.556
01/11/2022  16:08:00       69.233       20.102      -21.514       36.853       17.553       17.838     1358.137      308.119      318.206        0.382        0.099       72.092        7.831        0.012      336.763        8.284      872.540
01/11/2022  16:09:00       58.690       18.224      -14.017       28.918       35.417       19.336      836.230     1254.333      373.874        0.322        0.123       61.454       11.656        0.036      336.738        8.241      872.523
01/11/2022  16:10:00       57.088      -10.122       -9.010       31.459       20.588       18.444      989.688      423.884      340.177        0.260        0.088       57.979       14.793        0.065      336.790        8.330      872.512
01/11/2022  16:11:00       61.899       -1.160       -6.286       22.867       20.163       16.009      522.894      406.547      256.290        0.253        0.059       61.910       11.440        0.034      336.801        8.346      872.506
01/11/2022  16:12:00       66.356       17.210       -4.668       21.238       17.543       13.594      451.053      307.765      184.785        0.283        0.047       68.552       14.118        0.042      336.771        8.298      872.511
01/11/2022  16:13:00       82.693       -0.236       -9.006       23.500       19.478       15.103      552.272      379.386      228.090        0.404        0.058       82.694       10.822        0.017      336.785        8.321      872.515
01/11/2022  16:14:00       58.660        3.997       -5.808       28.142       16.276       18.391      791.973      264.902      338.216        0.244        0.070       58.796       11.153        0.036      336.793        8.333      872.529
01/11/2022  16:15:00       73.753       21.611      -13.765       19.299       18.562       10.416      372.445      344.553      108.490        0.346        0.041       76.854        5.426        0.005      336.770        8.298      872.544
01/11/2022  16:16:00       54.283       41.925      -11.012       25.505       17.020       16.838      650.503      289.692      283.530        0.302        0.061       68.588       13.054        0.036      336.758        8.276      872.555
01/11/2022  16:17:00       84.821       53.729      -25.048       13.362        9.411       10.279      178.553       88.560      105.648        0.554        0.019      100.406        2.447        0.001      336.771        8.295      872.551
01/11/2022  16:18:00       82.243       24.381      -16.005       15.174       16.001        9.433      230.261      256.031       88.981        0.409        0.029       85.780        7.647        0.008      336.752        8.261      872.549
01/11/2022  16:19:00       92.178       28.022      -12.983       14.937       15.879        9.904      223.116      252.158       98.096        0.501        0.029       96.343        6.361        0.004      336.748        8.257      872.546
01/11/2022  16:20:00       80.629        5.214       -9.808       16.389       14.260        9.427      268.594      203.342       88.876        0.359        0.028       80.797        6.045        0.006      336.748        8.256      872.540
01/11/2022  16:21:00       89.175       12.260       -7.393       13.960       15.324        9.452      194.888      234.821       89.349        0.434        0.026       90.014        5.583        0.004      336.749        8.258      872.541
01/11/2022  16:22:00       66.736       18.616      -11.085       16.963       16.863       10.288      287.755      284.368      105.836        0.280        0.034       69.284        7.732        0.012      336.740        8.243      872.546
01/11/2022  16:23:00      104.322       12.918      -11.279       16.310       17.253       12.197      266.017      297.653      148.774        0.594        0.036      105.119        5.742        0.003      336.747        8.255      872.565
01/11/2022  16:24:00       62.853        5.020       -4.777       40.789       13.799       10.689     1663.766      190.416      114.260        0.298        0.098       63.054       12.943        0.042      336.722        8.214      872.571
01/11/2022  16:25:00       39.866       -0.601       -4.451       23.223       18.571       17.026      539.327      344.891      289.895        0.139        0.059       39.871        9.338        0.055      336.702        8.181      872.578
01/11/2022  16:26:00       52.582        5.640       -6.003       30.721       22.721       16.093      943.775      516.231      258.970        0.228        0.086       52.884       14.867        0.079      336.694        8.168      872.582
01/11/2022  16:27:00       85.145        7.675      -11.257       17.568       15.000       13.128      308.646      224.994      172.345        0.407        0.035       85.491        4.989        0.003      336.704        8.186      872.593
01/11/2022  16:28:00       68.671       25.314       -6.412       21.549       19.923       14.596      464.359      396.930      213.056        0.324        0.054       73.188        7.929        0.012      336.706        8.189      872.606
01/11/2022  16:29:00       63.828       43.266      -10.281       26.527       14.085       14.595      703.708      198.390      213.023        0.358        0.056       77.109       15.511        0.040      336.695        8.172      872.621
01/11/2022  16:30:00       66.213       33.978       -8.569       17.323       14.888       11.146      300.074      221.646      124.239        0.313        0.032       74.422        8.769        0.014      336.698        8.176      872.640
01/11/2022  16:31:00       58.575       19.216       -7.777       10.744        9.085        5.863      115.438       82.535       34.379        0.205        0.012       61.646        3.463        0.003      336.724        8.218      872.652
01/11/2022  16:32:00       65.088       33.672       -7.288       11.248        9.406        6.259      126.513       88.477       39.176        0.284        0.013       73.282        2.048        0.001      336.733        8.234      872.665
01/11/2022  16:33:00       71.695       28.076       -8.196       13.551       12.443       10.076      183.641      154.837      101.526        0.322        0.022       76.996        8.998        0.014      336.695        8.172      872.665
01/11/2022  16:34:00       78.184       29.709       -9.690       11.949       12.830        8.028      142.788      164.613       64.457        0.373        0.019       83.638        4.367        0.003      336.722        8.215      872.657
01/11/2022  16:35:00       71.749       19.880       -9.449       19.370       19.242       12.671      375.203      370.256      160.548        0.327        0.045       74.452        6.026        0.007      336.660        8.111      872.644
01/11/2022  16:36:00       73.366        8.118       -8.027       15.660       18.059       11.701      245.249      326.120      136.923        0.311        0.035       73.814        6.245        0.007      336.669        8.126      872.627
01/11/2022  16:37:00       69.111        3.825       -2.892       34.580       18.828       14.717     1195.799      354.476      216.596        0.328        0.088       69.217       13.680        0.039      336.679        8.144      872.621
01/11/2022  16:38:00       65.345       10.591       -3.911       26.546       17.005       19.581      704.666      289.177      383.407        0.289        0.069       66.198       10.601        0.026      336.656        8.106      872.614
01/11/2022  16:39:00       61.177       -4.304       -7.305       32.075       26.614       15.301     1028.816      708.315      234.109        0.289        0.099       61.329        7.601        0.015      336.636        8.073      872.612
01/11/2022  16:40:00       83.888       32.620        0.793       26.251       34.299       19.947      689.103     1176.429      397.896        0.518        0.113       90.007       13.282        0.022      336.660        8.112      872.613
01/11/2022  16:41:00       91.453       56.387       -7.099       39.109       38.297       22.757     1529.479     1466.676      517.894        0.755        0.176      107.439       15.886        0.022      336.704        8.185      872.610
01/11/2022  16:42:00      111.963       25.354      -14.103       25.052       33.220       15.508      627.620     1103.543      240.487        0.767        0.099      114.797        9.734        0.007      336.694        8.167      872.618
01/11/2022  16:43:00      110.917       23.010       -9.606       20.091       15.810       12.407      403.656      249.945      153.944        0.687        0.040      113.279        8.218        0.005      336.620        8.047      872.629
01/11/2022  16:44:00       91.025       21.845       -6.999       11.950       12.759        9.779      142.797      162.791       95.633        0.461        0.020       93.610        3.382        0.001      336.622        8.050      872.644
01/11/2022  16:45:00       82.923       14.975       -6.251       15.732       10.525        9.315      247.498      110.765       86.765        0.379        0.022       84.264        9.213        0.012      336.624        8.054      872.671
01/11/2022  16:46:00       68.030       27.061       -3.440       25.854       16.275       12.608      668.427      264.868      158.955        0.323        0.055       73.215       11.707        0.026      336.572        7.967      872.714
01/11/2022  16:47:00       82.791       33.610       -4.827       17.883       13.601       15.885      319.807      184.999      252.346        0.438        0.038       89.354       11.006        0.015      336.571        7.964      872.751
01/11/2022  16:48:00       76.585       25.407       -6.849       14.264       14.446       10.899      203.451      208.689      118.782        0.354        0.027       80.689        5.648        0.005      336.586        7.988      872.781
01/11/2022  16:49:00       60.011       22.607       -5.566       22.999       12.287       11.594      528.936      150.975      134.418        0.248        0.041       64.128        8.995        0.020      336.574        7.971      872.797
01/11/2022  16:50:00       43.752       30.232       -4.899       19.926       17.362        9.913      397.045      301.427       98.264        0.182        0.040       53.180        8.511        0.026      336.548        7.924      872.797
01/11/2022  16:51:00       42.795       27.407       -4.849       19.830       19.658       13.857      393.231      386.442      192.016        0.179        0.049       50.819       10.322        0.041      336.538        7.908      872.803
01/11/2022  16:52:00       20.013       11.276       -1.206       26.449        9.582       13.507      699.566       91.821      182.430        0.075        0.049       22.971       12.782        0.310      336.520        7.877      872.797
01/11/2022  16:53:00       80.785       47.190       -9.120       23.384       17.486       12.146      546.814      305.749      147.530        0.492        0.050       93.558        8.154        0.008      336.634        8.068      872.804
01/11/2022  16:54:00       59.888       44.705      -12.619       29.598       19.827       16.363      876.048      393.121      267.754        0.364        0.077       74.734       13.662        0.033      336.587        7.993      872.816
01/11/2022  16:55:00       24.875       26.223       -4.429       18.030       21.774       16.703      325.083      474.091      278.980        0.120        0.054       36.144       14.994        0.172      336.544        7.917      872.829
01/11/2022  16:56:00       42.349       31.651      -13.013       20.957       22.757       13.633      439.175      517.900      185.860        0.205        0.057       52.870       10.017        0.036      336.528        7.892      872.843
01/11/2022  16:57:00       31.182       40.675      -10.857       18.428       18.541       12.349      339.592      343.764      152.489        0.179        0.042       51.252        8.176        0.025      336.555        7.938      872.842
01/11/2022  16:58:00       26.642       29.500       -8.547       20.058       17.885       10.887      402.319      319.865      118.526        0.125        0.042       39.750        9.001        0.051      336.552        7.931      872.843
01/11/2022  16:59:00       35.428       45.737      -14.496       13.321       17.364       15.165      177.437      301.523      229.966        0.213        0.035       57.854       10.052        0.030      336.550        7.928      872.842
01/11/2022  17:00:00       44.610       71.367       -9.111       21.190       25.814       17.129      449.000      666.342      293.406        0.429        0.070       84.163       11.453        0.019      336.640        8.079      872.839
01/11/2022  17:01:00       31.654       61.757       -6.889       23.068       23.926       14.455      532.111      572.437      208.935        0.309        0.066       69.396        5.861        0.007      336.611        8.030      872.839
01/11/2022  17:02:00        8.827       79.831      -18.971       26.517       20.996       18.578      703.161      440.813      345.132        0.415        0.074       80.317        7.461        0.009      336.659        8.111      872.849
01/11/2022  17:03:00        6.889       31.362       -7.607       19.092       13.764       14.899      364.493      189.436      221.993        0.093        0.039       32.110        6.192        0.037      336.537        7.907      872.860
01/11/2022  17:04:00        1.657       29.690        0.152       19.467       17.033       17.413      378.974      290.122      303.226        0.093        0.049       29.737       12.017        0.163      336.474        7.800      872.878
01/11/2022  17:05:00        0.799       23.664       -6.481       19.735       20.356       14.856      389.482      414.385      220.708        0.081        0.051       23.678        9.605        0.165      336.481        7.811      872.895
01/11/2022  17:06:00       20.176       49.469      -13.188       19.654       20.513       13.790      386.298      420.771      190.163        0.201        0.050       53.425        5.957        0.012      336.554        7.934      872.915
01/11/2022  17:07:00       17.816       42.005       -5.869       18.182       21.704       16.350      330.599      471.054      267.311        0.159        0.053       45.627        9.833        0.046      336.524        7.886      872.924
01/11/2022  17:08:00       41.965       46.670       -8.272       21.107       12.061       14.053      445.502      145.464      197.474        0.240        0.039       62.762        9.865        0.025      336.498        7.844      872.924
01/11/2022  17:09:00       25.387       23.278       -6.169       19.489       12.174       13.431      379.831      148.195      180.388        0.097        0.035       34.444       12.814        0.138      336.428        7.722      872.930
01/11/2022  17:10:00       15.034        3.421       -3.412       12.962       10.920        9.693      168.006      119.241       93.960        0.032        0.019       15.419        5.151        0.112      336.367        7.619      872.922
01/11/2022  17:11:00       30.065       23.190      -12.358       22.365       10.903        9.387      500.188      118.868       88.113        0.115        0.035       37.969        4.943        0.017      336.390        7.659      872.922
01/11/2022  17:12:00       28.307       13.375       -5.194        6.544        6.452        4.486       42.826       41.630       20.123        0.056        0.005       31.308        2.853        0.008      336.410        7.693      872.911
01/11/2022  17:13:00       12.165        5.660       -2.819       13.591       11.841       10.818      184.715      140.205      117.035        0.031        0.022       13.417        4.520        0.113      336.292        7.496      872.900
01/11/2022  17:14:00        1.761       15.763       -3.331       12.393       11.403        5.556      153.591      130.023       30.864        0.029        0.016       15.861        2.434        0.024      336.360        7.609      872.881
01/11/2022  17:15:00       -6.163        0.733       -3.309        9.283        4.672        5.871       86.175       21.825       34.469        0.010        0.007        6.206        2.316        0.139      336.171        7.293      872.858
01/11/2022  17:16:00      -16.964       14.790       -3.318        7.835        8.108        5.297       61.383       65.743       28.057        0.034        0.008       22.506        3.446        0.023      336.129        7.223      872.850
01/11/2022  17:17:00      -34.351       12.872      -11.745        8.359        6.281        8.588       69.875       39.453       73.746        0.083        0.009       36.683        3.289        0.008      335.974        6.966      872.842
01/11/2022  17:18:00      -33.518       11.874       -9.111       11.484       10.346       11.169      131.872      107.042      124.745        0.086        0.018       35.560        8.751        0.061      335.899        6.842      872.842
01/11/2022  17:19:00      -27.769       13.336      -12.820        8.840        8.732       10.269       78.138       76.247      105.453        0.069        0.013       30.805        6.413        0.043      335.816        6.701      872.846
01/11/2022  17:20:00      -41.000       13.456      -16.669       16.871       12.352        9.304      284.638      152.579       86.562        0.133        0.026       43.151        6.541        0.023      335.861        6.776      872.846
01/11/2022  17:21:00      -57.984        7.541      -16.978       18.155       18.111       12.256      329.603      328.010      150.212        0.226        0.040       58.472       10.471        0.032      335.735        6.565      872.830
01/11/2022  17:22:00      -29.289        4.533      -13.267       23.104       21.230       13.489      533.811      450.712      181.949        0.111        0.058       29.637       13.282        0.201      335.673        6.463      872.815
01/11/2022  17:23:00      -66.579       25.505      -14.377       10.830       10.525       11.055      117.299      110.777      122.215        0.282        0.018       71.297        4.477        0.004      335.613        6.363      872.818
01/11/2022  17:24:00      -68.116       28.016      -20.078       25.022       22.261       14.158      626.094      495.538      200.441        0.357        0.066       73.652       10.643        0.021      335.561        6.275      872.841
01/11/2022  17:25:00      -69.965       45.079       -5.048       33.891       19.750       17.482     1148.610      390.064      305.629        0.440        0.092       83.230       13.161        0.025      335.569        6.291      872.877
01/11/2022  17:26:00     -109.812       46.713      -18.362       14.759       15.003       11.255      217.815      225.075      126.675        0.757        0.028      119.335        6.615        0.003      335.402        6.013      872.917
01/11/2022  17:27:00     -105.614       33.044      -16.062       23.531       25.968       19.126      553.705      674.336      365.812        0.705        0.080      110.663       10.125        0.008      335.343        5.915      872.961
01/11/2022  17:28:00     -134.550       47.199      -17.688       42.815       36.765       23.381     1833.086     1351.691      546.685        1.219        0.187      142.588       20.925        0.022      335.404        6.016      872.985
01/11/2022  17:29:00     -127.944       53.967      -17.556       43.193       30.701       22.507     1865.651      942.545      506.585        1.145        0.166      138.860       11.826        0.007      335.328        5.886      873.004
01/11/2022  17:30:00     -109.661       19.323      -21.562       35.156       34.948       24.194     1235.954     1221.390      585.326        0.795        0.152      111.351       18.334        0.027      335.243        5.746      873.003
01/11/2022  17:31:00     -117.909       28.232      -13.263       27.507       35.185       21.470      756.619     1237.970      460.966        0.867        0.123      121.241       10.092        0.007      335.284        5.814      872.993
01/11/2022  17:32:00      -85.662       23.964      -12.248       31.625       22.191       21.004     1000.111      492.419      441.189        0.500        0.097       88.951       17.436        0.038      335.169        5.623      872.962
01/11/2022  17:33:00      -64.821       30.108       -8.532       36.022       27.262       19.899     1297.557      743.212      395.966        0.381        0.122       71.472       17.697        0.061      335.158        5.606      872.931
01/11/2022  17:34:00      -75.524       20.925       -9.741       27.338       22.335       15.219      747.385      498.873      231.617        0.386        0.074       78.369        9.912        0.016      335.120        5.542      872.897
01/11/2022  17:35:00      -88.094       45.004       -9.226       29.312       19.094       18.901      859.164      364.579      357.238        0.573        0.079       98.924       11.753        0.014      335.122        5.547      872.875
01/11/2022  17:36:00      -61.474       14.168      -18.746       21.147       22.177       17.861      447.177      491.808      319.020        0.279        0.063       63.086        7.712        0.015      335.116        5.538      872.863
01/11/2022  17:37:00      -85.661       35.483      -11.077       24.139       19.121       17.962      582.708      365.599      322.628        0.499        0.064       92.719       13.753        0.022      335.117        5.538      872.866
01/11/2022  17:38:00      -80.888       25.427       -7.835       22.739       18.171       16.102      517.040      330.176      259.290        0.418        0.055       84.790       10.701        0.016      335.124        5.550      872.872
01/11/2022  17:39:00      -58.013       31.107      -15.361       19.107       14.118       13.938      365.064      199.328      194.278        0.266        0.038       65.827        9.123        0.019      335.145        5.585      872.873
01/11/2022  17:40:00      -59.276       33.813      -15.077       16.260        9.840        7.794      264.403       96.827       60.739        0.265        0.021       68.242        3.757        0.003      335.108        5.523      872.882
01/11/2022  17:41:00      -45.937       14.499      -17.593       25.224       19.723        9.245      636.257      388.989       85.463        0.187        0.056       48.171        4.577        0.009      335.159        5.607      872.890
01/11/2022  17:42:00      -41.484       14.179      -17.559       24.048       14.976       18.444      578.292      224.286      340.198        0.169        0.057       43.840       15.827        0.130      335.117        5.538      872.898
01/11/2022  17:43:00      -42.951        6.244       -8.933       17.979       15.678       16.193      323.239      245.786      262.227        0.140        0.042       43.403       10.680        0.061      335.090        5.494      872.921
01/11/2022  17:44:00      -45.064        7.667      -18.966       18.986       20.413       14.115      360.484      416.676      199.242        0.171        0.049       45.712       13.771        0.091      335.047        5.422      872.941
01/11/2022  17:45:00      -65.506       23.516       -8.341       33.857       19.903       19.324     1146.279      396.123      373.427        0.341        0.096       69.599       19.853        0.081      335.039        5.410      872.968
01/11/2022  17:46:00     -100.417       39.345      -17.818       21.551       20.544       13.773      464.454      422.042      189.693        0.651        0.054      107.850       10.995        0.010      334.992        5.332      872.999
01/11/2022  17:47:00     -102.444       53.829      -13.087       25.232       19.202       14.700      636.640      368.706      216.083        0.739        0.061      115.725        8.440        0.005      335.011        5.362      873.026
01/11/2022  17:48:00      -87.411       46.001       -9.316       31.821       20.346       17.080     1012.549      413.967      291.716        0.578        0.086       98.777       11.118        0.013      335.024        5.385      873.051
01/11/2022  17:49:00     -109.080       39.842      -18.614       40.305       31.255       22.024     1624.455      976.865      485.054        0.846        0.154      116.128       21.563        0.034      334.959        5.277      873.066
01/11/2022  17:50:00     -106.505       40.702      -22.975       21.984       24.381       15.709      483.317      594.454      246.773        0.743        0.066      114.017        9.719        0.007      334.855        5.104      873.084
01/11/2022  17:51:00      -67.884       24.791      -15.606       48.789       26.611       26.428     2380.403      708.171      698.431        0.463        0.189       72.269       25.121        0.121      334.848        5.093      873.089
01/11/2022  17:52:00      -71.175       16.946      -12.803       53.479       34.277       20.191     2860.021     1174.910      407.661        0.498        0.222       73.165       21.672        0.088      334.823        5.050      873.073
01/11/2022  17:53:00      -34.070        5.423       -3.312       47.568       23.765       27.512     2262.756      564.762      756.890        0.239        0.179       34.499       27.909        0.654      334.804        5.019      873.057
01/11/2022  17:54:00      -39.942        4.285      -13.346       41.380       35.057       22.101     1712.324     1228.971      488.439        0.261        0.171       40.171       11.360        0.080      334.823        5.050      873.042
01/11/2022  17:55:00      -78.223       14.451      -13.354       27.009       26.348       19.575      729.465      694.238      383.200        0.416        0.090       79.546        9.097        0.013      334.839        5.078      873.034
01/11/2022  17:56:00      -57.894       21.104      -12.767       41.290       27.764       18.662     1704.858      770.815      348.254        0.339        0.141       61.621       14.756        0.057      334.812        5.033      873.043
01/11/2022  17:57:00      -25.532        5.282      -14.232       25.285       17.247       16.005      639.333      297.459      256.152        0.104        0.060       26.072       15.651        0.360      334.799        5.012      873.062
01/11/2022  17:58:00      -21.422       19.510       -7.572       44.136       24.157       18.447     1948.002      583.567      340.304        0.188        0.144       28.975       17.029        0.345      334.798        5.009      873.081
01/11/2022  17:59:00      -25.766        9.102      -10.117       26.577       26.032       20.807      706.354      677.676      432.923        0.133        0.091       27.326       16.176        0.350      334.753        4.935      873.108
01/11/2022  18:00:00      -34.752       11.863       -6.163       29.250       27.651       21.403      855.553      764.559      458.088        0.173        0.104       36.721       14.773        0.162      334.749        4.927      873.130
01/11/2022  18:01:00      -55.105       22.486      -11.487       23.022       19.085       19.205      530.014      364.218      368.829        0.247        0.063       59.516       14.560        0.060      334.808        5.027      873.141
01/11/2022  18:02:00      -14.047       -0.685       -4.054       22.824       20.066       15.089      520.917      402.651      227.670        0.068        0.058       14.063        7.248        0.266      334.747        4.923      873.156
01/11/2022  18:03:00      -18.195       -6.875       -5.362       20.583       22.372       16.371      423.656      500.509      268.001        0.080        0.060       19.451        8.591        0.195      334.757        4.941      873.175
01/11/2022  18:04:00      -28.478        3.479       -8.160       19.756       25.532       15.586      390.300      651.905      242.936        0.109        0.064       28.690        5.370        0.035      334.719        4.876      873.173
01/11/2022  18:05:00      -84.915       25.634      -16.784       26.769       27.031       15.501      716.601      730.653      240.294        0.492        0.084       88.700       13.298        0.022      334.810        5.028      873.182
01/11/2022  18:06:00     -102.341       23.444      -19.814       22.607       22.506       16.757      511.064      506.513      280.800        0.636        0.065      104.992       10.416        0.010      334.814        5.036      873.173
01/11/2022  18:07:00      -84.740       27.035      -13.385       30.138       21.312       18.966      908.280      454.206      359.714        0.491        0.086       88.948        8.677        0.010      334.763        4.952      873.169
01/11/2022  18:08:00      -90.780       26.716      -18.089       17.391       22.134       17.104      302.440      489.930      292.557        0.518        0.054       94.630        9.493        0.010      334.767        4.957      873.158
01/11/2022  18:09:00      -89.455       39.357      -12.727       37.174       21.769       22.616     1381.929      473.877      511.464        0.604        0.118       97.730       19.814        0.041      334.723        4.884      873.155
01/11/2022  18:10:00      -87.071       23.657       -9.826       28.423       26.799       23.148      807.849      718.189      535.812        0.515        0.103       90.228       17.655        0.038      334.758        4.941      873.158
01/11/2022  18:11:00      -78.039       28.583      -16.986       24.509       20.561       19.183      600.669      422.763      367.973        0.429        0.070       83.109       12.696        0.023      334.699        4.846      873.172
01/11/2022  18:12:00      -85.284       24.000      -20.635       24.758       18.352       18.617      612.978      336.797      346.588        0.479        0.065       88.596       13.915        0.025      334.678        4.807      873.191
01/11/2022  18:13:00      -80.321       18.498      -17.947       23.907       23.791       15.190      571.557      565.991      230.738        0.424        0.068       82.424       12.704        0.024      334.723        4.882      873.213
01/11/2022  18:14:00      -88.609       44.287      -12.371       27.542       17.047       18.101      758.565      290.596      327.661        0.567        0.069       99.060       14.821        0.022      334.713        4.868      873.235
01/11/2022  18:15:00      -57.917       17.045       -8.838       27.796       16.539       19.421      772.632      273.547      377.161        0.257        0.071       60.373       13.935        0.053      334.727        4.890      873.242
01/11/2022  18:16:00      -59.269       15.956      -24.426       17.213       18.500       12.571      296.278      342.261      158.040        0.258        0.040       61.379        4.928        0.006      334.746        4.922      873.254
01/11/2022  18:17:00      -43.823       24.758      -16.532       16.574       10.252       13.873      274.702      105.113      192.458        0.169        0.029       50.333        8.515        0.029      334.740        4.914      873.259
01/11/2022  18:18:00      -42.877       26.373      -18.492       11.011        7.959        8.555      121.248       63.351       73.191        0.157        0.013       50.338        4.413        0.008      334.868        5.126      873.261
01/11/2022  18:19:00      -16.776       15.976       -6.319       24.937       11.861       18.023      621.842      140.673      324.832        0.083        0.054       23.166       17.710        0.584      335.059        5.442      873.267
01/11/2022  18:20:00       25.748       19.220       -2.903       21.839       14.094       10.918      476.947      198.647      119.211        0.092        0.040       32.130        5.787        0.032      335.359        5.941      873.273
01/11/2022  18:21:00       11.481       30.211        0.454       18.836       16.482       11.736      354.785      271.671      137.739        0.090        0.038       32.319        9.742        0.091      335.347        5.920      873.294
01/11/2022  18:22:00       13.075       23.407       -2.886       14.386       12.299        8.882      206.967      151.254       78.883        0.058        0.022       26.812        6.471        0.058      335.276        5.803      873.317
01/11/2022  18:23:00       28.798       35.980       -4.579       21.566       18.989       10.965      465.075      360.579      120.242        0.155        0.047       46.086       11.133        0.058      335.338        5.905      873.336
01/11/2022  18:24:00       24.323       17.736       -5.097       18.729       17.791       11.752      350.763      316.529      138.119        0.087        0.040       30.102        5.212        0.030      335.300        5.840      873.355
01/11/2022  18:25:00       46.859       29.211       -5.060       13.817       14.089        9.077      190.918      198.493       82.385        0.177        0.024       55.218        6.429        0.014      335.165        5.616      873.366
01/11/2022  18:26:00       45.123       42.035      -11.780       19.793       16.899       12.807      391.783      285.571      164.022        0.239        0.042       61.669        9.344        0.023      335.263        5.782      873.360
01/11/2022  18:27:00       88.148       54.688       -5.660       27.676       15.273       14.439      765.963      233.273      208.486        0.600        0.060      103.735       11.216        0.012      335.389        5.990      873.354
01/11/2022  18:28:00       50.898       46.348       -9.058       34.350       17.708       16.503     1179.953      313.561      272.334        0.329        0.088       68.838       12.612        0.034      335.345        5.916      873.343
01/11/2022  18:29:00       48.874       37.125       -9.108       26.859       15.985       15.792      721.417      255.513      249.400        0.254        0.061       61.375       10.196        0.028      335.311        5.861      873.335
01/11/2022  18:30:00       50.768       40.798       -8.187       30.506       21.262       15.972      930.644      452.070      255.118        0.297        0.082       65.130       15.701        0.058      335.307        5.852      873.340
01/11/2022  18:31:00       75.875       44.904       -8.073       21.806       13.178       10.422      475.485      173.653      108.612        0.430        0.038       88.167        8.020        0.008      335.328        5.890      873.357
01/11/2022  18:32:00       49.201       35.523       -5.982       29.814       15.726       13.417      888.861      247.302      180.017        0.252        0.066       60.684       12.084        0.040      335.316        5.866      873.378
01/11/2022  18:33:00       29.608       24.274       -2.494       18.790       12.804        9.709      353.056      163.932       94.272        0.104        0.031       38.287        9.872        0.066      335.219        5.707      873.407
01/11/2022  18:34:00       28.315       32.901       -7.759       21.711       16.257       11.251      471.365      264.306      126.581        0.140        0.043       43.407       11.613        0.072      335.235        5.733      873.435
01/11/2022  18:35:00       56.132       48.843       -9.627       19.244       11.573       11.278      370.324      133.946      127.194        0.313        0.032       74.407        8.311        0.012      335.258        5.770      873.441
01/11/2022  18:36:00       55.321       29.486       -7.638       21.510       17.140       14.329      462.681      293.796      205.331        0.247        0.048       62.689       12.208        0.038      335.225        5.717      873.445
01/11/2022  18:37:00       51.711       35.902       -7.381       25.892       17.416       12.550      670.388      303.302      157.500        0.257        0.057       62.952       13.167        0.044      335.219        5.705      873.452
01/11/2022  18:38:00       47.164       43.247       -4.449       25.779       26.061       15.169      664.538      679.151      230.101        0.284        0.079       63.990       15.388        0.058      335.217        5.704      873.454
01/11/2022  18:39:00       41.508       33.280       -3.888       22.088       24.943       13.084      487.878      622.151      171.196        0.206        0.064       53.202        9.810        0.034      335.182        5.645      873.454
01/11/2022  18:40:00       39.163       26.786       -4.950       20.140       18.709       13.262      405.603      350.014      175.881        0.160        0.047       47.447       12.242        0.067      335.111        5.528      873.453
01/11/2022  18:41:00       39.316       25.396       -6.482       24.378       14.392       12.743      594.285      207.134      162.383        0.160        0.048       46.805       11.725        0.063      335.100        5.510      873.456
01/11/2022  18:42:00       51.201       36.868       -9.200       28.424       17.498       13.817      807.896      306.185      190.904        0.268        0.065       63.094       10.508        0.028      335.181        5.643      873.455
01/11/2022  18:43:00       55.690       35.704      -11.573       18.369       12.716       12.867      337.423      161.685      165.559        0.259        0.033       66.153        5.374        0.007      335.210        5.693      873.451
01/11/2022  18:44:00       23.060       22.839       -6.933       13.942       12.089       11.207      194.382      146.146      125.594        0.078        0.023       32.456        6.287        0.038      335.233        5.732      873.454
01/11/2022  18:45:00       11.429       23.913       -4.229       20.512       25.851       14.594      420.759      668.249      212.990        0.101        0.065       26.503       12.647        0.228      335.244        5.749      873.457
01/11/2022  18:46:00        7.113       21.903        0.034       12.632       21.491        8.906      159.559      461.879       79.325        0.062        0.035       23.029        5.542        0.058      335.222        5.710      873.463
01/11/2022  18:47:00       42.274       31.591      -12.522       22.275       24.237       18.084      496.164      587.418      327.018        0.218        0.071       52.773       10.990        0.043      335.210        5.690      873.475
01/11/2022  18:48:00       74.612       33.673      -12.574       22.075       23.390       16.557      487.293      547.112      274.127        0.408        0.065       81.859        9.663        0.014      335.154        5.598      873.490
01/11/2022  18:49:00       42.624       16.736       -6.877       27.103       18.122       17.568      734.591      328.390      308.648        0.176        0.069       45.792       17.357        0.144      335.146        5.586      873.504
01/11/2022  18:50:00       38.153        4.416       -8.503       21.007       19.957       13.836      441.306      398.284      191.432        0.129        0.052       38.408        5.399        0.020      335.065        5.452      873.515
01/11/2022  18:51:00       70.505        8.769      -10.134       15.589       11.515       10.160      243.030      132.605      103.234        0.281        0.024       71.048        2.238        0.001      335.110        5.527      873.518
01/11/2022  18:52:00       44.284        9.882       -7.727       13.049       10.205        6.501      170.276      104.133       42.266        0.122        0.016       45.373        3.089        0.005      335.045        5.419      873.513
01/11/2022  18:53:00       47.405       14.817       -8.758        9.227        9.431        8.220       85.132       88.946       67.561        0.139        0.012       49.667        5.964        0.014      335.060        5.445      873.517
01/11/2022  18:54:00       31.585       21.701       -2.377       13.958        9.328       10.521      194.828       87.016      110.685        0.093        0.020       38.322        6.969        0.033      334.952        5.265      873.522
01/11/2022  18:55:00       53.603       25.819       -4.171        9.345       10.325        5.674       87.332      106.609       32.190        0.189        0.011       59.498        5.648        0.009      335.023        5.383      873.530
01/11/2022  18:56:00       60.664       18.768       -4.082       18.426        9.062        8.098      339.532       82.119       65.578        0.227        0.024       63.501        6.466        0.010      334.990        5.330      873.539
01/11/2022  18:57:00       66.600        5.128       -5.040        8.260       10.365        4.752       68.230      107.441       22.581        0.234        0.010       66.797        2.041        0.001      334.998        5.340      873.550
01/11/2022  18:58:00       67.830       -0.004       -5.766        6.981        5.325        5.058       48.731       28.359       25.584        0.237        0.005       67.830        3.213        0.002      335.025        5.387      873.554
01/11/2022  18:59:00       48.680      -17.992       -1.996       14.486       12.518        9.740      209.838      156.712       94.874        0.158        0.023       51.898        3.737        0.005      334.986        5.322      873.557
01/11/2022  19:00:00       -2.359      -13.393       -1.437       25.146       19.450       12.861      632.330      378.311      165.407        0.068        0.059       13.599       10.175        0.560      334.895        5.170      873.554
01/11/2022  19:01:00      -16.799       -0.300       -4.976       13.901        9.133        8.546      193.249       83.404       73.032        0.033        0.017       16.802        4.855        0.083      334.513        4.534      873.546
01/11/2022  19:02:00       -5.956        0.348       -7.484        5.145        3.191        4.958       26.470       10.179       24.584        0.008        0.003        5.966        2.161        0.131      334.422        4.383      873.545
01/11/2022  19:03:00      -25.039        8.587       -6.612        7.432        8.184        8.944       55.238       66.985       79.993        0.047        0.010       26.471        6.720        0.064      334.446        4.423      873.541
01/11/2022  19:04:00      -20.218       15.839       -0.081       14.270       13.508       15.153      203.632      182.478      229.615        0.064        0.031       25.684        9.397        0.134      334.754        4.934      873.540
01/11/2022  19:05:00      -18.128       -0.252      -18.284       19.724       11.270       15.242      389.027      127.011      232.327        0.071        0.037       18.130        5.112        0.080      334.570        4.629      873.539
01/11/2022  19:06:00      -56.992       13.987      -19.529       10.588       12.345       11.136      112.111      152.398      124.009        0.211        0.019       58.683        5.631        0.009      334.457        4.441      873.543
01/11/2022  19:07:00      -38.373        2.709      -14.881       19.653       15.470       15.452      386.232      239.315      238.779        0.128        0.043       38.468        9.275        0.058      334.208        4.030      873.554
01/11/2022  19:08:00      -73.576       23.102      -10.947       33.882       15.207       12.710     1147.997      231.256      161.556        0.380        0.077       77.118        6.503        0.007      334.041        3.751      873.558
01/11/2022  19:09:00      -88.714       35.144      -13.499       14.745       17.088       14.155      217.418      292.002      200.351        0.500        0.035       95.421        9.794        0.011      334.029        3.732      873.581
01/11/2022  19:10:00      -72.634       44.223      -12.094       24.850       18.024       12.436      617.530      324.874      154.646        0.424        0.055       85.037       14.818        0.030      333.964        3.625      873.598
01/11/2022  19:11:00      -70.702       16.453      -24.222       19.302       23.562       15.971      372.583      555.180      255.067        0.352        0.059       72.591       14.170        0.038      333.891        3.504      873.613
01/11/2022  19:12:00      -46.027        6.053       -6.463       35.946       26.550       19.609     1292.089      704.911      384.500        0.229        0.119       46.424       21.589        0.216      333.904        3.526      873.629
01/11/2022  19:13:00      -78.358        3.711      -22.430       28.919       19.744       20.248      836.292      389.833      409.991        0.415        0.082       78.446       14.683        0.035      333.883        3.490      873.641
01/11/2022  19:14:00      -51.379        4.979      -26.710       23.522       19.872       21.910      553.273      394.877      480.029        0.240        0.071       51.619       11.486        0.050      333.826        3.397      873.659
01/11/2022  19:15:00      -44.699       15.006      -16.516       39.775       20.178       17.322     1582.019      407.151      300.058        0.239        0.114       47.151       15.183        0.104      333.901        3.521      873.675
01/11/2022  19:16:00      -79.423       20.736      -23.376       25.930       21.020       18.189      672.350      441.835      330.839        0.436        0.072       82.085       15.406        0.035      333.878        3.483      873.696
01/11/2022  19:17:00      -88.937       22.149      -12.257       30.795       21.145       17.261      948.311      447.127      297.946        0.512        0.085       91.653        6.796        0.005      333.809        3.367      873.712
01/11/2022  19:18:00     -100.463       28.148      -12.112       45.624       25.817       18.453     2081.508      666.537      340.509        0.706        0.154      104.332       16.562        0.025      333.834        3.410      873.734
01/11/2022  19:19:00      -18.381       -1.427       -9.305       31.526       23.319       24.583      993.907      543.753      604.330        0.128        0.107       18.436       20.188        1.199      333.795        3.344      873.759
01/11/2022  19:20:00      -64.599       22.340       -7.695       47.974       28.728       19.797     2301.473      825.322      391.926        0.412        0.176       68.353       22.021        0.104      333.814        3.374      873.770
01/11/2022  19:21:00      -83.127       20.834      -16.083       27.765       25.165       12.602      770.902      633.253      158.800        0.458        0.078       85.698        8.304        0.009      333.828        3.401      873.783
01/11/2022  19:22:00      -36.878        2.871       -7.023       33.781       25.067       22.340     1141.175      628.364      499.082        0.184        0.113       36.990       24.489        0.438      333.854        3.443      873.799
01/11/2022  19:23:00      -40.745       -5.665      -17.567       27.440       23.993       17.595      752.931      575.662      309.575        0.182        0.082       41.137       18.855        0.210      333.893        3.506      873.817
01/11/2022  19:24:00      -12.524        8.982       10.197       26.754       19.546       21.319      715.765      382.059      454.511        0.095        0.078       15.412       18.395        1.425      333.810        3.368      873.840
01/11/2022  19:25:00      -40.492        2.873      -21.852       24.303       21.027       16.897      590.652      442.121      285.525        0.172        0.066       40.594       13.818        0.116      333.842        3.422      873.855
01/11/2022  19:26:00      -53.343        8.845      -16.038       26.987       22.720       17.384      728.293      516.202      302.195        0.236        0.077       54.071       14.231        0.069      333.817        3.382      873.871
01/11/2022  19:27:00      -49.010        8.686      -11.756       23.932       18.194       18.789      572.739      331.006      353.029        0.194        0.063       49.774       13.027        0.069      333.839        3.418      873.891
01/11/2022  19:28:00      -64.569        2.700      -23.350       23.207       32.966       19.877      538.581     1086.785      395.105        0.337        0.101       64.626       16.453        0.065      333.869        3.468      873.907
01/11/2022  19:29:00      -59.696       21.215      -13.652       25.853       38.217       19.463      668.400     1460.550      378.825        0.335        0.125       63.354       18.846        0.088      333.829        3.402      873.918
01/11/2022  19:30:00      -76.331       22.869      -16.306       25.643       19.323       19.803      657.565      373.397      392.166        0.402        0.071       79.684       17.033        0.046      333.754        3.276      873.926
01/11/2022  19:31:00      -54.992       13.615      -19.930       15.973       19.347       16.068      255.131      374.301      258.193        0.225        0.044       56.653        4.971        0.008      333.782        3.322      873.928
01/11/2022  19:32:00      -11.467        6.127       -9.196       20.998       14.910       13.940      440.910      222.314      194.327        0.056        0.043       13.001        9.664        0.552      333.671        3.138      873.926
01/11/2022  19:33:00      -37.153        7.520       -5.426       34.397       20.492       19.419     1183.171      419.938      377.097        0.172        0.099       37.906       14.668        0.150      333.709        3.203      873.932
01/11/2022  19:34:00      -30.564        0.909      -15.491       27.221       19.243       24.432      740.971      370.310      596.930        0.144        0.085       30.577       21.339        0.487      333.786        3.331      873.935
01/11/2022  19:35:00      -50.476       19.149      -12.412       30.271       23.698       18.894      916.352      561.603      356.990        0.245        0.092       53.987       12.643        0.055      333.756        3.279      873.944
01/11/2022  19:36:00      -44.322        8.311      -12.874       23.794       25.172       17.158      566.151      633.649      294.383        0.185        0.075       45.094       14.334        0.101      333.734        3.243      873.956
01/11/2022  19:37:00      -53.240       -1.076      -24.829       31.297       19.338       22.026      979.504      373.946      485.167        0.265        0.092       53.251       19.689        0.137      333.719        3.218      873.964
01/11/2022  19:38:00      -47.298        8.643      -12.907       36.187       28.618       25.310     1309.494      818.962      640.592        0.262        0.138       48.081       18.362        0.146      333.597        3.018      873.978
01/11/2022  19:39:00      -43.922        2.625      -10.057       40.537       21.308       24.418     1643.248      454.028      596.256        0.236        0.135       44.000       23.569        0.287      333.562        2.959      873.985
01/11/2022  19:40:00       -0.915        9.303       -4.404       19.547       20.027       16.725      382.084      401.077      279.730        0.058        0.053        9.348        8.168        0.763      333.436        2.749      873.999
01/11/2022  19:41:00       -4.760       -0.822      -12.186       23.425       25.808       24.695      548.720      666.037      609.834        0.100        0.091        4.831       18.564       14.769      333.495        2.847      873.992
01/11/2022  19:42:00      -64.765       12.362      -23.748       49.244       39.467       19.691     2424.988     1557.683      387.747        0.464        0.219       65.934       15.461        0.055      333.498        2.852      873.983
01/11/2022  19:43:00      -70.150       28.515      -10.321       35.907       29.944       28.213     1289.315      896.668      795.998        0.441        0.149       75.724       14.892        0.039      333.473        2.812      873.962
01/11/2022  19:44:00     -140.999       38.320      -17.808       41.897       29.244       22.462     1755.390      855.219      504.537        1.239        0.156      146.113       10.032        0.005      333.430        2.739      873.953
01/11/2022  19:45:00     -140.234       42.765       -4.255       46.631       36.969       26.110     2174.479     1366.704      681.712        1.287        0.211      146.609       25.959        0.031      333.420        2.723      873.947
01/11/2022  19:46:00     -102.685       26.665        2.342       57.316       37.751       26.720     3285.117     1425.154      713.938        0.834        0.271      106.091       30.116        0.081      333.401        2.694      873.945
01/11/2022  19:47:00      -96.314       30.042        3.550       56.823       39.064       28.509     3228.857     1526.029      812.768        0.788        0.278      100.891       28.085        0.077      333.392        2.677      873.940
01/11/2022  19:48:00     -110.113       33.584       -4.651       57.744       40.265       30.587     3334.314     1621.252      935.556        0.958        0.295      115.120       26.704        0.054      333.360        2.625      873.931
01/11/2022  19:49:00     -139.170       54.415       -2.320       70.025       39.862       32.869     4903.509     1588.983     1080.363        1.495        0.379      149.430       35.551        0.057      333.320        2.559      873.926
01/11/2022  19:50:00     -137.632       73.501       -0.860       59.545       39.902       33.900     3545.586     1592.148     1149.241        1.532        0.314      156.029       33.427        0.046      333.301        2.527      873.929
01/11/2022  19:51:00     -131.152       46.603        4.957       68.586       40.939       29.571     4704.076     1676.031      874.416        1.332        0.363      139.186       31.445        0.051      333.291        2.510      873.933
01/11/2022  19:52:00     -127.643       40.715       -7.059       60.673       45.329       30.498     3681.220     2054.716      930.157        1.233        0.333      133.979       28.826        0.046      333.319        2.557      873.926
01/11/2022  19:53:00      -91.613       46.741       -6.800       64.255       41.064       28.903     4128.670     1686.235      835.402        0.864        0.333      102.848       27.759        0.073      333.235        2.417      873.916
01/11/2022  19:54:00      -87.273       32.567       -4.059       67.307       46.851       38.602     4530.273     2194.973     1490.145        0.845        0.411       93.151       39.362        0.179      333.290        2.507      873.909
01/11/2022  19:55:00      -34.130       14.244       -6.661       44.746       39.965       30.038     2002.211     1597.170      902.263        0.296        0.225       36.983       20.752        0.315      333.290        2.508      873.903
01/11/2022  19:56:00      -80.941       18.338        1.024       59.929       36.634       30.229     3591.462     1342.025      913.821        0.637        0.292       82.993       26.496        0.102      333.323        2.563      873.903
01/11/2022  19:57:00      -88.387       14.975      -15.987       84.695       41.085       30.619     7173.173     1687.964      937.547        0.904        0.490       89.647       16.748        0.035      333.409        2.706      873.906
01/11/2022  19:58:00       -9.454       15.549        7.956       53.274       33.079       23.567     2838.073     1094.199      555.397        0.244        0.224       18.198       16.139        0.787      333.342        2.595      873.916
01/11/2022  19:59:00      -79.175       -3.034      -10.730       55.183       32.578       34.417     3045.187     1061.324     1184.502        0.584        0.265       79.234       31.434        0.157      333.364        2.632      873.922
01/11/2022  20:00:00      -69.091        8.600      -10.366       82.428       47.718       30.393     6794.346     2276.998      923.756        0.747        0.500       69.624       21.452        0.095      333.389        2.674      873.920
01/11/2022  20:01:00      -82.113      -24.291       -1.202       72.058       42.972       36.826     5192.364     1846.627     1356.165        0.786        0.420       85.630       29.567        0.119      333.422        2.727      873.917
01/11/2022  20:02:00      -29.878       12.153       -1.565       35.203       36.275       26.570     1239.232     1315.893      705.957        0.215        0.163       32.255       21.874        0.460      333.366        2.634      873.920
01/11/2022  20:03:00      -94.197      -11.285       -1.331       63.022       29.719       28.811     3971.768      883.198      830.064        0.734        0.284       94.870       27.480        0.084      333.330        2.575      873.913
01/11/2022  20:04:00      -69.042       -0.064        0.187       45.297       33.648       22.868     2051.774     1132.211      522.928        0.424        0.185       69.042       16.800        0.059      333.407        2.703      873.905
01/11/2022  20:05:00      -73.482      -14.214       -7.537       42.747       26.532       19.700     1827.312      703.966      388.082        0.429        0.146       74.844       15.590        0.043      333.472        2.809      873.889
01/11/2022  20:06:00      -46.615      -12.167        2.888       35.845       23.701       20.942     1284.847      561.757      438.567        0.231        0.114       48.177       18.127        0.142      333.494        2.845      873.888
01/11/2022  20:07:00      -23.737        0.186       -2.405       36.165       26.056       17.971     1307.876      678.920      322.943        0.144        0.115       23.738        8.122        0.117      333.530        2.907      873.893
01/11/2022  20:08:00      -64.807      -17.470       -1.263       31.448       23.797       17.998      988.961      566.279      323.926        0.319        0.094       67.120       16.893        0.063      333.539        2.920      873.893
01/11/2022  20:09:00      -28.085       -8.574        6.252       22.224       21.358       19.562      493.885      456.166      382.676        0.112        0.067       29.364       13.518        0.212      333.547        2.933      873.897
01/11/2022  20:10:00      -58.351       16.285       -6.916       33.916       19.860       15.379     1150.307      394.405      236.524        0.275        0.089       60.581       13.874        0.052      333.474        2.813      873.893
01/11/2022  20:11:00      -18.627       -1.219       -5.703       31.143       18.383       16.810      969.865      337.928      282.567        0.099        0.080       18.667       14.901        0.637      333.535        2.913      873.885
01/11/2022  20:12:00       -7.693       -1.058       -0.668       22.680       14.925       15.760      514.385      222.751      248.385        0.052        0.049        7.766       16.347        4.431      333.513        2.877      873.891
01/11/2022  20:13:00       -8.649       -3.014        4.044       12.343       20.686        9.000      152.342      427.897       81.004        0.038        0.033        9.160        6.886        0.565      333.484        2.828      873.909
01/11/2022  20:14:00      -43.091       40.244       -7.983       12.802       13.089        8.836      163.893      171.319       78.075        0.198        0.021       58.961        5.386        0.008      333.403        2.696      873.920
01/11/2022  20:15:00      -48.437       30.624       -7.311       18.919       10.892        9.874      357.923      118.640       97.496        0.196        0.029       57.306        7.425        0.017      333.353        2.613      873.942
01/11/2022  20:16:00      -51.130       18.980      -11.509       12.133       11.041       11.449      147.209      121.895      131.075        0.175        0.020       54.539        7.711        0.020      333.318        2.555      873.956
01/11/2022  20:17:00      -54.874        2.377      -13.597       16.014       16.122        9.644      256.459      259.933       93.008        0.191        0.030       54.926        9.832        0.032      333.370        2.641      873.973
01/11/2022  20:18:00      -37.949        9.994      -10.266       21.765       11.682       11.063      473.706      136.469      122.388        0.119        0.037       39.243        6.029        0.024      333.376        2.652      873.994
01/11/2022  20:19:00      -49.446       13.724      -13.752       16.247       15.740       10.446      263.972      247.755      109.118        0.172        0.031       51.316        6.592        0.017      333.295        2.516      874.011
01/11/2022  20:20:00      -16.832        2.951      -15.906       17.661       11.784        9.574      311.905      138.869       91.668        0.054        0.027       17.089        4.816        0.079      333.265        2.466      874.028
01/11/2022  20:21:00      -34.551       13.936      -12.362       13.515       10.640       14.015      182.657      113.210      196.411        0.102        0.025       37.255       11.675        0.098      333.347        2.602      874.027
01/11/2022  20:22:00      -36.577       20.769      -14.127        8.059        8.026        6.276       64.948       64.422       39.386        0.107        0.008       42.063        3.295        0.006      333.349        2.607      874.018
01/11/2022  20:23:00      -28.065        9.192      -13.054       14.503       13.450       10.291      210.333      180.915      105.911        0.077        0.025       29.532       10.611        0.129      333.829        3.400      874.011
01/11/2022  20:24:00      -20.282        0.367        1.064       12.112        9.471        8.796      146.700       89.708       77.373        0.036        0.016       20.286        4.804        0.056      333.805        3.362      873.994
01/11/2022  20:25:00       -4.041        2.680       -6.472        9.639       14.154       13.646       92.914      200.328      186.225        0.027        0.024        4.849        9.668        3.975      333.949        3.600      873.975
01/11/2022  20:26:00      -13.559        7.088       -3.854        9.754        7.947        8.511       95.132       63.160       72.434        0.024        0.012       15.300        6.724        0.193      333.527        2.903      873.964
01/11/2022  20:27:00       -6.085        5.885       -5.521        5.254        4.069        3.249       27.606       16.560       10.559        0.008        0.003        8.465        2.961        0.122      333.557        2.951      873.961
01/11/2022  20:28:00        8.563        0.670       -3.713       11.516       10.430        7.164      132.619      108.781       51.327        0.019        0.015        8.590        5.358        0.389      333.738        3.250      873.957
01/11/2022  20:29:00       20.200      -15.531       -4.314       12.062        5.919        4.464      145.489       35.035       19.929        0.043        0.010       25.481        3.265        0.016      334.005        3.692      873.966
01/11/2022  20:30:00        0.796       -3.529       -6.554        9.268        8.788       12.408       85.894       77.232      153.953        0.019        0.016        3.618        5.131        2.011      334.024        3.723      873.977
01/11/2022  20:31:00      -11.602       -1.493       -0.838        8.664        6.477        9.436       75.058       41.952       89.047        0.017        0.010       11.698        3.667        0.098      333.848        3.432      873.985
01/11/2022  20:32:00       -5.509       -7.064       -3.584        9.150        6.567        6.582       83.724       43.120       43.317        0.013        0.009        8.958        5.073        0.321      333.821        3.389      873.990
01/11/2022  20:33:00       26.598       -4.889       -3.216       17.989       16.841        5.686      323.615      283.617       32.325        0.069        0.032       27.043        5.107        0.036      333.997        3.680      873.997
01/11/2022  20:34:00       40.706       -7.972       -5.387       18.214       20.637        9.982      331.759      425.905       99.640        0.130        0.043       41.479        7.529        0.033      334.082        3.821      874.003
01/11/2022  20:35:00       59.523       -7.451       -5.007       17.249       13.756        8.593      297.513      189.225       73.834        0.209        0.028       59.988        4.807        0.006      334.075        3.810      874.005
01/11/2022  20:36:00       75.570        9.585       -6.526       12.040       10.183        9.257      144.972      103.701       85.698        0.309        0.017       76.176        8.061        0.011      334.097        3.847      873.994
01/11/2022  20:37:00       60.498       13.264       -3.860       16.290       13.782        9.671      265.364      189.932       93.527        0.220        0.027       61.935        8.842        0.020      333.956        3.612      873.986
01/11/2022  20:38:00       26.531       -2.470       -2.273       21.143       13.154        9.641      447.046      173.024       92.955        0.071        0.036       26.646       10.865        0.166      333.707        3.200      873.971
01/11/2022  20:39:00       50.252       10.170       -6.576       13.960       10.255        9.550      194.875      105.173       91.203        0.153        0.020       51.271        5.945        0.013      333.737        3.249      873.951
01/11/2022  20:40:00       84.266       28.314       -7.467       14.438       14.531       10.101      208.467      211.143      102.038        0.424        0.026       88.896        6.501        0.005      333.885        3.495      873.929
01/11/2022  20:41:00       60.130       21.451       -2.370       11.182       11.602        7.505      125.043      134.599       56.323        0.220        0.016       63.842        2.792        0.002      333.869        3.468      873.909
01/11/2022  20:42:00       74.396       29.588       -6.661       14.776       13.576        7.596      218.331      184.320       57.704        0.346        0.023       80.064        5.398        0.005      333.795        3.345      873.899
01/11/2022  20:43:00       68.175       42.754       -9.861       16.562       11.698       12.853      274.313      136.845      165.189        0.357        0.029       80.472        8.983        0.012      333.769        3.301      873.890
01/11/2022  20:44:00       68.778       38.366       -8.892        8.595       13.446        8.219       73.874      180.786       67.560        0.330        0.016       78.755        3.379        0.002      333.830        3.404      873.895
01/11/2022  20:45:00       24.710       44.261       -3.241       19.675       22.664       10.449      387.093      513.655      109.181        0.179        0.050       50.691       12.266        0.059      333.826        3.397      873.906
01/11/2022  20:46:00       41.091       60.765      -16.224       15.640       23.961       16.415      244.621      574.116      269.451        0.337        0.054       73.354       17.506        0.057      333.939        3.585      873.910
01/11/2022  20:47:00       33.833       45.599      -12.664       17.111       24.174       17.670      292.773      584.367      312.239        0.229        0.059       56.780       15.591        0.075      333.927        3.563      873.914
01/11/2022  20:48:00       45.109       61.181      -12.702       18.630       19.527       12.851      347.095      381.297      165.151        0.342        0.045       76.013        8.455        0.012      333.955        3.612      873.913
01/11/2022  20:49:00       39.741       49.048      -12.580       17.203       22.499       12.452      295.930      506.193      155.060        0.255        0.048       63.128        8.116        0.017      333.901        3.521      873.920
01/11/2022  20:50:00       44.979       54.676      -15.842       20.719       20.875       15.692      429.257      435.746      246.241        0.319        0.056       70.800       13.584        0.037      333.901        3.522      873.924
01/11/2022  20:51:00       44.774       66.230      -14.036       20.664       14.853       16.771      427.011      220.614      281.278        0.376        0.046       79.945       13.272        0.028      333.956        3.613      873.937
01/11/2022  20:52:00       33.458       61.746      -10.801       14.826       27.261       11.537      219.798      743.179      133.103        0.307        0.055       70.229        8.792        0.016      333.952        3.605      873.948
01/11/2022  20:53:00       15.454       35.068        2.760       19.341       19.952       12.929      374.082      398.088      167.156        0.121        0.047       38.322       10.431        0.074      333.889        3.500      873.971
01/11/2022  20:54:00      -34.388       -3.065      -15.309       28.892       10.290       12.247      834.756      105.883      149.994        0.126        0.055       34.525       11.601        0.113      333.251        2.445      873.985
01/11/2022  20:55:00      -48.079       16.423      -11.904       39.713       23.192       15.212     1577.129      537.849      231.392        0.253        0.117       50.806       12.479        0.060      332.913        1.886      873.998
01/11/2022  20:56:00      -82.577       43.467      -20.433       19.870       16.517       15.363      394.829      272.809      236.028        0.501        0.045       93.318        9.285        0.010      332.961        1.965      874.000
01/11/2022  20:57:00      -78.599       34.136      -18.757       26.134       14.745       12.853      682.978      217.412      165.204        0.438        0.053       85.692        4.422        0.003      332.908        1.878      874.001
01/11/2022  20:58:00      -88.635       35.712      -20.988       19.800       20.013       13.443      392.034      400.508      180.723        0.527        0.049       95.559        7.704        0.006      332.943        1.935      874.007
01/11/2022  20:59:00      -75.995       23.998      -23.653       18.714       22.715       23.981      350.226      515.953      575.082        0.418        0.072       79.694       14.502        0.033      332.904        1.870      874.005
01/11/2022  21:00:00     -102.473       37.035      -22.407       24.424       25.615       15.869      596.522      656.138      251.829        0.694        0.075      108.960       10.961        0.010      332.873        1.820      873.999
01/11/2022  21:01:00      -98.096       21.339      -14.877       31.439       27.402       17.640      988.384      750.881      311.154        0.617        0.103      100.390       12.492        0.015      332.875        1.823      873.994
01/11/2022  21:02:00     -103.128       33.593      -14.145       32.158       27.169       19.359     1034.167      738.151      374.777        0.706        0.107      108.461       14.283        0.017      332.770        1.649      873.995
01/11/2022  21:03:00      -98.434       25.110       -6.853       44.948       27.033       22.474     2020.332      730.797      505.061        0.681        0.163      101.586       20.587        0.041      332.805        1.706      873.993
01/11/2022  21:04:00     -113.456       39.193       -7.819       39.189       30.440       22.325     1535.792      926.578      498.422        0.871        0.148      120.035       14.880        0.015      332.846        1.775      873.993
01/11/2022  21:05:00     -116.104       39.728       -4.249       34.615       26.221       19.829     1198.182      687.546      393.196        0.868        0.114      122.713       16.361        0.018      332.816        1.725      874.003
01/11/2022  21:06:00     -117.036       26.208      -12.187       29.975       21.650       20.715      898.496      468.718      429.094        0.816        0.090      119.935       16.049        0.018      332.838        1.763      874.018
01/11/2022  21:07:00     -101.817       15.647       -8.534       38.109       24.683       20.003     1452.276      609.239      400.134        0.657        0.123      103.012       18.887        0.034      332.817        1.727      874.022
01/11/2022  21:08:00      -99.344       21.320      -14.718       36.580       32.194       24.082     1338.087     1036.483      579.936        0.675        0.148      101.606       20.179        0.039      332.808        1.712      874.038
01/11/2022  21:09:00     -116.263       32.368      -13.282       32.460       39.007       24.895     1053.628     1521.552      619.747        0.897        0.160      120.684       12.660        0.011      332.754        1.624      874.041
01/11/2022  21:10:00      -71.872       16.280      -14.498       46.908       36.659       19.109     2200.333     1343.881      365.140        0.477        0.195       73.693        9.169        0.015      332.775        1.657      874.046
01/11/2022  21:11:00      -60.368       28.448       -8.229       60.084       32.075       29.139     3610.048     1028.836      849.066        0.500        0.274       66.735       20.493        0.094      332.802        1.702      874.056
01/11/2022  21:12:00      -92.056       12.193      -17.996       62.214       46.069       29.567     3870.622     2122.328      874.224        0.791        0.343       92.860       19.545        0.044      332.822        1.735      874.068
01/11/2022  21:13:00      -60.859        9.570       -5.972       50.933       41.138       28.827     2594.135     1692.311      830.979        0.447        0.256       61.606       21.014        0.116      332.825        1.742      874.074
01/11/2022  21:14:00        2.680       -3.899      -21.761       36.393       33.694       28.262     1324.485     1135.292      798.739        0.188        0.163        4.731       16.005       11.444      332.779        1.664      874.086
01/11/2022  21:15:00       17.538       12.876      -12.604       24.833       32.734       27.863      616.684     1071.513      776.324        0.155        0.123       21.757       18.089        0.691      332.743        1.606      874.104
01/11/2022  21:16:00      -19.549       26.257       -9.666       42.417       25.140       17.961     1799.193      632.004      322.609        0.196        0.138       32.735       17.647        0.291      332.784        1.673      874.126
01/11/2022  21:17:00      -14.785       17.672       -2.997       27.650       23.155       21.893      764.539      536.174      479.289        0.116        0.089       23.041       10.882        0.223      332.736        1.594      874.155
01/11/2022  21:18:00      -49.856       19.272      -19.997       37.130       30.164       32.008     1378.646      909.857     1024.518        0.328        0.166       53.452       15.200        0.081      332.758        1.629      874.179
01/11/2022  21:19:00      -32.450       23.833      -17.079       44.430       34.391       30.680     1974.039     1182.769      941.272        0.300        0.205       40.261       18.214        0.205      332.733        1.590      874.203
01/11/2022  21:20:00      -32.946        8.208      -18.725       46.010       38.863       25.079     2116.956     1510.313      628.966        0.288        0.213       33.953       25.126        0.548      332.749        1.615      874.221
01/11/2022  21:21:00      -26.386       14.226      -11.074       29.483       23.106       26.114      869.260      533.882      681.948        0.155        0.104       29.977       14.584        0.237      332.635        1.426      874.233
01/11/2022  21:22:00      -24.293       23.798       -6.888       44.378       31.354       20.189     1969.432      983.053      407.606        0.228        0.168       34.007       14.585        0.184      332.682        1.505      874.243
01/11/2022  21:23:00      -43.931       -1.836       -8.393       47.601       33.234       20.802     2265.863     1104.513      432.714        0.290        0.190       43.970       17.334        0.155      332.731        1.585      874.251
01/11/2022  21:24:00       -1.208       17.159       -6.708       18.264       23.007       19.696      333.581      529.324      387.950        0.080        0.063       17.201       10.947        0.405      332.669        1.484      874.252
01/11/2022  21:25:00       -1.610       15.396        6.745       20.006       21.550       17.498      400.247      464.408      306.192        0.073        0.059       15.480        9.382        0.367      332.650        1.451      874.261
01/11/2022  21:26:00       -2.345      -15.580       -8.858       16.822       17.819       25.676      282.993      317.528      659.246        0.079        0.063       15.755        9.896        0.395      332.591        1.355      874.272
01/11/2022  21:27:00      -41.869      -32.660       -9.630       27.937       27.665       24.134      780.487      765.325      582.429        0.252        0.106       53.101       21.895        0.170      332.663        1.473      874.280
01/11/2022  21:28:00      -43.810       15.204       -4.844       28.938       47.610       22.041      837.413     2266.670      485.815        0.288        0.179       46.373       20.903        0.203      332.627        1.414      874.279
01/11/2022  21:29:00      -52.357       27.315      -10.433       24.370       26.176       15.174      593.883      685.175      230.244        0.255        0.075       59.054       14.348        0.059      332.623        1.406      874.283
01/11/2022  21:30:00      -51.907        8.642      -16.594       29.241       27.125       20.032      855.033      735.772      401.262        0.252        0.100       52.622       15.732        0.089      332.641        1.436      874.284
01/11/2022  21:31:00      -56.387       14.157      -12.819       37.998       35.269       20.018     1443.860     1243.890      400.731        0.332        0.154       58.137       21.315        0.134      332.654        1.459      874.291
01/11/2022  21:32:00      -65.171       26.970      -17.961       26.125       30.190       26.576      682.523      911.441      706.265        0.380        0.115       70.531       15.605        0.049      332.674        1.492      874.304
01/11/2022  21:33:00      -79.999       30.204      -26.257       29.523       20.121       22.240      871.624      404.873      494.616        0.489        0.089       85.511        9.227        0.012      332.636        1.427      874.318
01/11/2022  21:34:00      -69.409       16.774      -12.443       45.294       23.256       15.662     2051.531      540.865      245.286        0.405        0.142       71.407       12.579        0.031      332.621        1.404      874.331
01/11/2022  21:35:00      -92.214       25.161      -20.434       47.274       27.737       19.178     2234.804      769.362      367.804        0.646        0.169       95.585       15.162        0.025      332.595        1.360      874.342
01/11/2022  21:36:00     -115.837       29.102       -8.690       42.347       31.802       20.553     1793.295     1011.338      422.446        0.878        0.161      119.437       17.650        0.022      332.613        1.391      874.339
01/11/2022  21:37:00      -74.141       22.080       -4.528       50.499       33.109       23.245     2550.161     1096.202      540.345        0.510        0.209       77.359       19.441        0.063      332.591        1.354      874.323
01/11/2022  21:38:00     -104.086       40.316       -7.619       32.622       26.286       16.941     1064.185      690.940      287.012        0.728        0.102      111.621       12.977        0.014      332.630        1.420      874.307
01/11/2022  21:39:00      -87.097       46.871       -6.648       30.745       21.480       16.387      945.265      461.410      268.532        0.575        0.084       98.908       15.673        0.025      332.628        1.414      874.292
01/11/2022  21:40:00      -73.152       28.505      -12.953       18.100       22.745       14.630      327.594      517.315      214.037        0.370        0.053       78.509        6.860        0.008      332.645        1.443      874.269
01/11/2022  21:41:00      -61.006       10.089       -5.853       30.063       17.231       14.909      903.759      296.909      222.268        0.264        0.071       61.834       12.953        0.044      332.683        1.505      874.254
01/11/2022  21:42:00      -43.043       -2.129       -8.591       26.596       27.938       19.231      707.325      780.553      369.842        0.189        0.093       43.095       16.184        0.141      332.705        1.542      874.253
01/11/2022  21:43:00      -30.434       11.303        1.877       23.775       27.674       16.988      565.263      765.861      288.602        0.134        0.081       32.466       16.712        0.265      332.682        1.504      874.258
01/11/2022  21:44:00      -28.368        4.610       -9.419       21.121       24.307       15.162      446.088      590.807      229.873        0.109        0.063       28.740       12.507        0.189      332.689        1.515      874.271
01/11/2022  21:45:00      -34.065       -5.367       -8.323       47.783       24.702       21.735     2283.182      610.181      472.420        0.231        0.168       34.485       25.156        0.532      332.674        1.491      874.283
01/11/2022  21:46:00      -67.589        7.719      -14.561       38.665       22.980       24.174     1495.009      528.082      584.376        0.372        0.130       68.028       24.930        0.134      332.725        1.575      874.290
01/11/2022  21:47:00      -79.357        9.333      -20.287       26.784       17.706       16.057      717.393      313.504      257.837        0.404        0.064       79.904        4.618        0.003      332.817        1.728      874.296
01/11/2022  21:48:00      -92.863       13.339      -12.664       19.299       13.612       13.296      372.436      185.297      176.777        0.485        0.037       93.816        5.361        0.003      332.770        1.651      874.291
01/11/2022  21:49:00      -90.843       16.126       -7.448       20.098       15.073       14.440      403.947      227.194      208.506        0.470        0.042       92.263       10.364        0.013      332.827        1.744      874.295
01/11/2022  21:50:00      -94.973       21.815       -7.669       13.451       15.743       10.979      180.942      247.843      120.546        0.505        0.027       97.446        5.699        0.003      332.847        1.777      874.295
01/11/2022  21:51:00      -77.331        9.367       -9.786       24.265       17.355       10.587      588.775      301.202      112.074        0.358        0.050       77.896        9.054        0.014      332.896        1.857      874.298
01/11/2022  21:52:00      -78.249       14.386       -7.148       25.752       17.557       16.034      663.176      308.265      257.096        0.380        0.061       79.560       13.723        0.030      332.865        1.807      874.295
01/11/2022  21:53:00      -93.736        8.801      -10.790       18.168       14.459       12.013      330.071      209.075      144.318        0.483        0.034       94.148        9.768        0.011      332.859        1.796      874.296
01/11/2022  21:54:00      -67.973       10.589       -7.232       25.971       22.507       11.680      674.499      506.552      136.434        0.305        0.066       68.793       11.397        0.027      332.867        1.810      874.297
01/11/2022  21:55:00      -24.636       -5.525       -5.622       27.399       22.215       15.281      750.711      493.515      233.515        0.107        0.074       25.248       11.982        0.225      332.839        1.764      874.295
01/11/2022  21:56:00      -24.989       -0.528       -2.893       37.006       20.341       12.999     1369.438      413.776      168.974        0.129        0.098       24.995        9.237        0.137      332.856        1.793      874.295
01/11/2022  21:57:00      -19.595       -8.917       -3.396       24.963       14.818        9.321      623.140      219.568       86.879        0.070        0.046       21.528       11.434        0.282      332.832        1.753      874.301
01/11/2022  21:58:00      -71.773       13.923       -8.272       25.182       14.196       13.185      634.140      201.527      173.855        0.321        0.050       73.111        8.678        0.014      332.792        1.685      874.312
01/11/2022  21:59:00      -45.598       -4.910       -9.900       19.452       24.467       17.007      378.381      598.647      289.234        0.173        0.063       45.862       11.304        0.061      332.810        1.718      874.318
01/11/2022  22:00:00      -59.813        3.084       -3.368       39.268       22.581       12.692     1541.983      509.893      161.086        0.291        0.111       59.893       15.908        0.071      332.808        1.712      874.334
01/11/2022  22:01:00      -74.409       -2.454       -5.784       28.839       27.420       14.960      831.710      751.831      223.806        0.369        0.090       74.449       13.812        0.034      332.802        1.703      874.344
01/11/2022  22:02:00      -45.816       -9.593       -9.100       27.438       20.265       15.853      752.826      410.689      251.323        0.184        0.071       46.810       14.517        0.096      332.797        1.692      874.356
01/11/2022  22:03:00      -56.715        6.270       -3.910       29.385       19.136       18.344      863.474      366.183      336.498        0.242        0.078       57.061       12.431        0.047      332.730        1.582      874.371
01/11/2022  22:04:00      -77.645       14.979       -3.171       30.254       18.121       18.432      915.284      328.363      339.721        0.392        0.079       79.076       17.771        0.051      332.704        1.540      874.377
01/11/2022  22:05:00     -102.706       18.966       -8.837       25.489       21.415       18.814      649.715      458.601      353.971        0.622        0.073      104.443       13.867        0.018      332.677        1.494      874.389
01/11/2022  22:06:00     -112.357       29.776      -16.194       26.427       20.716       13.864      698.409      429.171      192.210        0.755        0.066      116.235        2.907        0.001      332.670        1.484      874.401
01/11/2022  22:07:00     -111.834       27.858       -8.625       22.424       22.322       20.001      502.819      498.284      400.024        0.738        0.070      115.252       16.076        0.019      332.678        1.496      874.416
01/11/2022  22:08:00      -87.831       20.072       -6.486       35.102       33.821       16.517     1232.134     1143.836      272.816        0.540        0.132       90.095       19.093        0.045      332.662        1.472      874.426
01/11/2022  22:09:00      -95.788       30.010       -4.241       28.486       27.096       17.689      811.461      734.177      312.891        0.598        0.093      100.379       16.319        0.026      332.677        1.496      874.429
01/11/2022  22:10:00      -71.516       21.639       -5.702       26.629       24.382       18.939      709.084      594.464      358.693        0.364        0.083       74.718       13.375        0.032      332.685        1.509      874.429
01/11/2022  22:11:00      -49.377        5.812       -8.755       30.174       21.777       15.609      910.475      474.241      243.651        0.209        0.081       49.718       10.548        0.045      332.762        1.637      874.419
01/11/2022  22:12:00      -25.872        3.029       -3.120       37.123       17.047       12.214     1378.112      290.589      149.177        0.125        0.091       26.049       11.880        0.208      332.827        1.744      874.414
01/11/2022  22:13:00      -81.134       16.509      -11.017       23.250       18.262       14.336      540.571      333.485      205.522        0.403        0.054       82.796        8.496        0.011      332.763        1.638      874.403
01/11/2022  22:14:00      -36.325       14.544       -2.112       25.192       15.923       15.975      634.643      253.529      255.210        0.134        0.057       39.128       16.222        0.172      332.636        1.428      874.393
01/11/2022  22:15:00      -62.438       12.260       -6.638       28.418       20.017       13.176      807.556      400.675      173.611        0.274        0.069       63.630        9.581        0.023      332.721        1.568      874.386
01/11/2022  22:16:00     -103.374       29.670      -10.635       19.230       14.565       13.755      369.785      212.134      189.202        0.623        0.039      107.547        4.647        0.002      332.664        1.475      874.381
01/11/2022  22:17:00     -104.388       33.169      -11.948       18.321       16.814       16.423      335.641      282.707      269.729        0.651        0.044      109.532       10.352        0.009      332.643        1.439      874.392
01/11/2022  22:18:00     -103.153       30.513      -11.285       18.921       17.304       16.280      357.991      299.432      265.038        0.631        0.046      107.572       14.893        0.019      332.587        1.348      874.412
01/11/2022  22:19:00      -59.319       -7.521       -7.964       27.401       21.663       14.115      750.826      469.275      199.244        0.253        0.071       59.794       12.493        0.044      332.622        1.404      874.433
01/11/2022  22:20:00      -81.358       13.191      -22.985       22.476       27.920       19.242      505.163      779.502      370.266        0.449        0.083       82.420       13.350        0.026      332.578        1.333      874.446
01/11/2022  22:21:00     -104.969       28.972      -16.376       31.213       25.199       18.979      974.260      634.994      360.215        0.705        0.098      108.894       10.489        0.009      332.515        1.228      874.443
01/11/2022  22:22:00      -81.258       28.672      -10.113       32.577       15.008       17.280     1061.292      225.246      298.609        0.456        0.079       86.168        5.510        0.004      332.461        1.139      874.423
01/11/2022  22:23:00      -71.871       32.713      -20.666       13.827       12.984       12.059      191.188      168.582      145.426        0.358        0.025       78.966        4.280        0.003      332.467        1.149      874.409
01/11/2022  22:24:00      -59.727       21.536      -10.492       17.452       15.267        9.218      304.582      233.076       84.979        0.238        0.031       63.491        7.558        0.014      332.546        1.279      874.395
01/11/2022  22:25:00      -78.334       35.780       -6.926       19.857       12.945       14.523      394.306      167.576      210.917        0.412        0.039       86.119       12.615        0.021      332.605        1.377      874.391
01/11/2022  22:26:00      -61.407       37.066      -10.603       22.355        9.430       10.505      499.725       88.931      110.355        0.298        0.035       71.726        4.917        0.005      332.671        1.486      874.390
01/11/2022  22:27:00      -75.580       34.303       -8.481       20.015       12.944       12.374      400.581      167.559      153.126        0.384        0.036       83.000        9.869        0.014      332.646        1.445      874.389
01/11/2022  22:28:00      -78.486       39.306      -13.415       20.427       13.849       12.852      417.270      191.801      165.167        0.433        0.039       87.778        9.368        0.011      332.587        1.348      874.383
01/11/2022  22:29:00      -57.165       44.687       -9.961       10.275       12.924        7.464      105.579      167.039       55.718        0.285        0.016       72.559        3.938        0.003      332.889        1.845      874.386
01/11/2022  22:30:00      -56.003       30.441      -19.534       11.129       12.853        8.005      123.847      165.192       64.087        0.240        0.018       63.742        4.575        0.005      332.666        1.478      874.399
01/11/2022  22:31:00      -53.469       20.372      -16.270       13.026       12.307        9.951      169.678      151.459       99.018        0.198        0.021       57.218        3.844        0.005      332.676        1.494      874.400
01/11/2022  22:32:00      -24.447        3.642      -11.995       13.135       13.631       12.318      172.525      185.814      151.742        0.063        0.026       24.716        8.108        0.108      332.805        1.707      874.394
01/11/2022  22:33:00       -8.535       -9.895      -11.943       10.672        9.862        7.593      113.892       97.264       57.656        0.029        0.013       13.068        5.304        0.165      332.908        1.876      874.386
01/11/2022  22:34:00       12.255       14.370       -5.000       12.371        9.180        6.722      153.051       84.280       45.179        0.033        0.014       18.886        5.206        0.076      333.164        2.301      874.378
01/11/2022  22:35:00       31.293       39.946       -9.272        9.294        8.047        8.130       86.375       64.749       66.089        0.144        0.011       50.744        5.379        0.011      333.173        2.315      874.374
01/11/2022  22:36:00       23.252       27.029        5.152       19.251       15.867        9.161      370.618      251.755       83.930        0.100        0.035       35.654        9.536        0.072      333.076        2.157      874.372
01/11/2022  22:37:00        6.113       22.080       -1.492       17.004       12.104        5.528      289.139      146.518       30.554        0.050        0.023       22.910        3.471        0.023      333.133        2.249      874.366
01/11/2022  22:38:00      -19.634        8.869      -11.437       19.053       15.201        8.956      363.003      231.074       80.202        0.063        0.034       21.544        4.894        0.052      332.964        1.970      874.359
01/11/2022  22:39:00      -53.595       17.646      -12.157       31.746       21.218       14.070     1007.826      450.190      197.953        0.249        0.083       56.425       12.183        0.047      332.450        1.120      874.361
01/11/2022  22:40:00      -72.901       39.175      -17.195       12.820       11.119        8.112      164.348      123.625       65.811        0.375        0.018       82.761        3.232        0.002      332.345        0.946      874.369
01/11/2022  22:41:00      -49.748       31.247      -18.700       13.158       11.774       10.108      173.146      138.622      102.169        0.211        0.021       58.747        8.078        0.019      332.412        1.058      874.374
01/11/2022  22:42:00      -57.393       19.845      -15.251       10.950        7.050        9.560      119.900       49.706       91.398        0.209        0.013       60.727        4.149        0.005      332.360        0.972      874.368
01/11/2022  22:43:00      -69.581       26.353      -23.984       14.314       10.262       11.378      204.899      105.312      129.448        0.328        0.022       74.404        7.341        0.010      332.516        1.230      874.322
01/11/2022  22:44:00      -71.147       23.587      -17.674       20.268       21.984       13.742      410.808      483.287      188.836        0.351        0.054       74.955       10.691        0.020      332.371        0.990      874.261
01/11/2022  22:45:00      -69.060       23.730      -22.492       30.220       22.273       20.952      913.220      496.071      438.973        0.384        0.092       73.023       15.187        0.043      332.347        0.949      874.259
01/11/2022  22:46:00      -88.955       31.484      -14.202       32.508       32.535       18.047     1056.793     1058.542      325.682        0.577        0.122       94.362       14.506        0.024      332.234        0.763      874.267
01/11/2022  22:47:00      -91.163       32.924      -17.362       20.885       17.289       17.000      436.192      298.923      289.001        0.536        0.051       96.926        5.562        0.003      332.229        0.755      874.273
01/11/2022  22:48:00      -92.222       23.252      -14.507       34.472       16.779       17.331     1188.317      281.528      300.349        0.551        0.089       95.108        6.535        0.005      332.223        0.745      874.280
01/11/2022  22:49:00      -59.875       34.164      -14.967       26.256       26.095       21.370      689.372      680.963      456.672        0.340        0.091       68.936       10.148        0.022      332.261        0.808      874.276
01/11/2022  22:50:00      -47.621       11.485      -18.352       39.574       21.184       20.550     1566.092      448.758      422.309        0.259        0.122       48.986       18.607        0.144      332.280        0.839      874.274
01/11/2022  22:51:00      -83.990       17.112      -21.630       21.918       20.906       16.721      480.386      437.067      279.602        0.451        0.060       85.716        8.893        0.011      332.262        0.809      874.267
01/11/2022  22:52:00      -51.965        2.451      -20.111       30.661       22.617       20.785      940.126      511.531      432.021        0.250        0.094       52.023       12.608        0.059      332.327        0.917      874.255
01/11/2022  22:53:00      -61.169       13.857      -23.117       34.188       24.598       20.334     1168.790      605.069      413.471        0.333        0.109       62.719       14.283        0.052      332.272        0.827      874.238
01/11/2022  22:54:00      -65.174        3.975      -17.097       26.329       27.695       20.374      693.208      767.030      415.087        0.322        0.094       65.295       17.285        0.070      332.290        0.855      874.227
01/11/2022  22:55:00      -85.827       35.890      -15.063       18.901       16.171       16.906      357.261      261.486      285.810        0.489        0.045       93.029       14.322        0.024      332.288        0.853      874.217
01/11/2022  22:56:00      -91.481       21.969      -24.046       18.092       17.871       13.449      327.315      319.359      180.881        0.513        0.041       94.082        4.257        0.002      332.242        0.777      874.213
01/11/2022  22:57:00     -110.738       21.524      -14.861       22.462       16.404       14.787      504.562      269.105      218.655        0.697        0.050      112.810        7.632        0.005      332.249        0.788      874.209
01/11/2022  22:58:00      -74.412       19.575      -11.263       40.905       34.337       20.317     1673.186     1178.998      412.793        0.466        0.163       76.943       21.989        0.082      332.225        0.750      874.214
01/11/2022  22:59:00      -96.367       27.568      -18.195       32.961       21.998       18.301     1086.396      483.912      334.923        0.614        0.095      100.233       11.747        0.014      332.186        0.684      874.232
01/11/2022  23:00:00      -53.194       18.022       -0.261       35.121       26.635       21.796     1233.498      709.411      475.068        0.279        0.121       56.164       19.933        0.126      332.154        0.630      874.243
01/11/2022  23:01:00      -92.473       40.085      -13.396       16.433       19.513       14.827      270.039      380.771      219.826        0.560        0.044      100.787        5.705        0.003      332.143        0.613      874.265
01/11/2022  23:02:00      -84.605       29.133      -13.543       35.424       20.346       16.176     1254.884      413.970      261.674        0.506        0.097       89.480       16.446        0.034      332.149        0.624      874.288
01/11/2022  23:03:00      -76.577       34.544      -16.007       30.412       18.425       18.924      924.876      339.463      358.118        0.447        0.081       84.008       11.692        0.019      332.144        0.615      874.311
01/11/2022  23:04:00      -58.563       36.006      -13.722       15.437       14.003        8.442      238.311      196.076       71.267        0.271        0.025       68.746        5.712        0.007      332.214        0.730      874.325
01/11/2022  23:05:00      -48.167       23.476      -15.377       11.183       13.759       10.688      125.070      189.315      114.234        0.177        0.021       53.584        9.046        0.029      332.303        0.878      874.325
01/11/2022  23:06:00      -64.776       28.558      -16.113       20.087       10.597       11.881      403.479      112.289      141.156        0.296        0.033       70.792       11.818        0.028      332.332        0.926      874.318
01/11/2022  23:07:00      -59.837       35.974      -18.078       11.513       11.614       10.312      132.538      134.886      106.335        0.279        0.019       69.818        4.933        0.005      332.297        0.868      874.314
01/11/2022  23:08:00      -55.800       41.366      -15.376       12.388       10.711       11.571      153.460      114.716      133.879        0.273        0.020       69.460        6.341        0.008      332.246        0.785      874.307
01/11/2022  23:09:00      -67.159       31.030      -17.573       23.102       15.744       12.359      533.719      247.866      152.743        0.336        0.047       73.981        8.687        0.014      332.232        0.759      874.303
01/11/2022  23:10:00      -60.471       24.397      -17.121       18.799       14.041       10.720      353.407      197.156      114.911        0.261        0.033       65.207        4.821        0.005      332.190        0.691      874.301
01/11/2022  23:11:00      -56.168       26.452      -22.376       15.518       15.031       12.983      240.819      225.924      168.557        0.250        0.032       62.085        6.365        0.011      332.235        0.764      874.297
01/11/2022  23:12:00      -42.281       10.396      -17.967       22.346       20.606       14.699      499.332      424.616      216.059        0.168        0.057       43.541        8.632        0.039      332.237        0.767      874.297
01/11/2022  23:13:00      -65.553       28.969      -16.015       14.598       11.456       10.440      213.103      131.230      109.003        0.292        0.023       71.669        5.238        0.005      332.156        0.636      874.294
01/11/2022  23:14:00      -64.033       20.915      -17.122       32.718       18.678       13.554     1070.472      348.880      183.704        0.322        0.080       67.363        8.634        0.016      332.151        0.626      874.303
01/11/2022  23:15:00      -66.711       28.786      -17.464       14.587       16.258       10.836      212.769      264.312      117.420        0.309        0.030       72.657        5.817        0.006      332.186        0.684      874.306
01/11/2022  23:16:00      -50.448       36.365      -12.567       13.137       13.398       12.927      172.590      179.499      167.113        0.227        0.026       62.189        6.785        0.012      332.261        0.808      874.305
01/11/2022  23:17:00      -39.339       35.506       -3.411       10.853        9.265        5.841      117.784       85.846       34.121        0.153        0.012       52.993        3.100        0.003      332.380        1.005      874.296
01/11/2022  23:18:00      -31.693       15.369      -12.568       10.253        7.995        6.895      105.115       63.919       47.545        0.081        0.011       35.223        4.382        0.015      332.300        0.873      874.275
01/11/2022  23:19:00      -13.792       -0.570        2.180       10.655       13.207        9.731      113.533      174.429       94.696        0.029        0.019       13.804        5.785        0.176      332.362        0.975      874.249
01/11/2022  23:20:00      -43.177       13.837       -8.629       15.367       11.566        7.477      236.135      133.766       55.908        0.128        0.021       45.340        5.030        0.012      332.214        0.731      874.227
01/11/2022  23:21:00      -56.871       11.467      -12.240       19.494       15.052       10.391      380.034      226.567      107.983        0.211        0.036       58.015        3.515        0.004      332.237        0.768      874.212
01/11/2022  23:22:00      -31.373        0.090       -9.982       14.924       17.949       12.391      222.717      322.166      153.543        0.089        0.035       31.373       10.563        0.113      332.254        0.796      874.214
01/11/2022  23:23:00      -63.127       26.260      -11.546       17.397       13.328        8.547      302.650      177.644       73.053        0.268        0.028       68.371        4.465        0.004      332.186        0.684      874.219
01/11/2022  23:24:00      -47.438       18.107      -18.885       10.453       10.399       10.328      109.270      108.148      106.673        0.163        0.016       50.776        3.650        0.005      332.181        0.675      874.235
01/11/2022  23:25:00      -75.820       27.835      -20.278        9.499        9.881        8.189       90.227       97.625       67.066        0.359        0.013       80.768        3.952        0.002      332.127        0.587      874.255
01/11/2022  23:26:00      -79.236       36.055      -19.383       18.517       11.083        9.156      342.895      122.835       83.826        0.425        0.027       87.054        5.821        0.004      332.062        0.481      874.269
01/11/2022  23:27:00      -74.137       25.963      -20.262       22.168       24.661       17.183      491.426      608.170      295.272        0.399        0.070       78.551        6.430        0.007      332.018        0.406      874.279
01/11/2022  23:28:00      -67.015        8.895      -19.777       22.744       21.773       18.937      517.274      474.080      358.625        0.316        0.067       67.603       12.243        0.033      332.041        0.446      874.280
01/11/2022  23:29:00      -56.481        3.039      -16.134       31.095       29.750       19.703      966.910      885.044      388.205        0.285        0.112       56.562       14.326        0.064      332.049        0.459      874.277
01/11/2022  23:30:00      -23.200       -4.593       -8.927       25.840       20.453       14.883      667.706      418.321      221.502        0.097        0.065       23.651        8.646        0.134      332.103        0.549      874.285
01/11/2022  23:31:00      -47.646       11.282      -13.346       37.734       21.991       13.357     1423.853      483.586      178.403        0.233        0.104       48.963       12.489        0.065      332.023        0.415      874.294
01/11/2022  23:32:00      -64.633       20.131       -9.259       33.535       19.344       17.525     1124.568      374.204      307.125        0.324        0.090       67.696       16.207        0.057      331.991        0.364      874.304
01/11/2022  23:33:00      -63.730       21.364      -15.532       34.014       24.805       17.096     1156.971      615.270      292.282        0.341        0.103       67.215       17.529        0.068      332.015        0.403      874.301
01/11/2022  23:34:00      -53.736       -2.716      -12.747       38.710       24.098       22.543     1498.441      580.695      508.206        0.282        0.129       53.805       24.314        0.204      332.065        0.484      874.290
01/11/2022  23:35:00       -8.099        3.506        3.675       22.427       14.370       21.295      502.978      206.495      453.459        0.063        0.058        8.825       10.136        1.319      332.062        0.479      874.284
01/11/2022  23:36:00      -39.286       18.217       -9.647       25.895       17.127       15.241      670.547      293.319      232.281        0.158        0.060       43.304       14.671        0.115      332.054        0.467      874.271
01/11/2022  23:37:00      -52.663       19.832      -15.874       21.260       15.670       15.945      452.001      245.544      254.256        0.219        0.048       56.273        6.060        0.012      332.094        0.533      874.261
01/11/2022  23:38:00      -64.339       27.615      -23.877        7.535        7.060        7.647       56.780       49.840       58.483        0.282        0.008       70.015        4.809        0.005      332.115        0.568      874.254
01/11/2022  23:39:00      -62.749       29.856      -14.954       10.803        8.423        7.894      116.702       70.941       62.315        0.265        0.012       69.489        3.122        0.002      332.103        0.548      874.249
01/11/2022  23:40:00      -60.526       22.665      -16.896        7.828        9.518        8.117       61.270       90.601       65.885        0.234        0.011       64.630        4.936        0.006      332.095        0.535      874.249
01/11/2022  23:41:00      -63.559       22.256      -18.896       11.140       11.724        9.692      124.089      137.460       93.940        0.262        0.018       67.343        4.099        0.004      332.181        0.676      874.241
01/11/2022  23:42:00      -32.577        3.978      -14.620       13.990       15.992       13.070      195.711      255.739      170.829        0.096        0.031       32.819        8.605        0.069      332.198        0.703      874.237
01/11/2022  23:43:00      -68.565       25.060      -17.120       13.148       12.188        8.502      172.862      148.548       72.290        0.301        0.020       73.001        5.015        0.005      332.191        0.693      874.225
01/11/2022  23:44:00      -65.632       27.178      -10.704       15.357       13.673       10.510      235.825      186.956      110.455        0.285        0.027       71.037        4.436        0.004      332.184        0.682      874.217
01/11/2022  23:45:00      -55.808       24.719      -17.530        8.888       12.471       10.820       79.004      155.522      117.080        0.219        0.018       61.038        8.270        0.018      332.278        0.837      874.205
01/11/2022  23:46:00      -72.605       18.724      -14.731       11.145       12.281        9.198      124.214      150.827       84.610        0.310        0.018       74.980        4.638        0.004      332.284        0.846      874.194
01/11/2022  23:47:00      -38.350       14.608       -0.872       26.818       18.473       15.492      719.222      341.238      239.992        0.149        0.065       41.037       15.366        0.140      332.232        0.759      874.180
01/11/2022  23:48:00       -0.088        5.602      -11.426       12.109       11.690        8.251      146.627      136.657       68.082        0.026        0.018        5.603        7.092        1.602      332.259        0.804      874.167
01/11/2022  23:49:00      -22.210       -4.848       -7.388       20.806       20.815       11.811      432.895      433.249      139.501        0.079        0.050       22.733        4.273        0.035      332.343        0.944      874.157
01/11/2022  23:50:00      -45.539       10.940       -7.840       26.895       14.974       16.344      723.331      224.211      267.133        0.173        0.061       46.835        7.797        0.028      332.337        0.933      874.152
01/11/2022  23:51:00      -73.974       19.455      -13.706       15.716       11.526       11.643      246.991      132.841      135.549        0.328        0.026       76.489        8.309        0.012      332.297        0.868      874.157
01/11/2022  23:52:00      -58.005       -1.884       -8.822       22.107       20.125       13.096      488.714      405.026      171.504        0.226        0.053       58.036        7.487        0.017      332.324        0.911      874.155
01/11/2022  23:53:00      -59.647       11.042       -4.261       24.845       21.025       16.789      617.260      442.071      281.854        0.252        0.067       60.661       14.733        0.059      332.276        0.832      874.159
01/11/2022  23:54:00      -67.483       15.131       -3.944       29.405       23.620       12.089      864.626      557.922      146.141        0.318        0.078       69.158       10.207        0.022      332.235        0.765      874.154
01/11/2022  23:55:00      -82.234       13.294       -6.838       29.035       18.803       15.013      843.036      353.563      225.387        0.420        0.071       83.302       12.891        0.024      332.225        0.747      874.148
01/11/2022  23:56:00      -31.939        5.922        0.606       22.157       18.604       16.380      490.912      346.100      268.303        0.108        0.055       32.483       13.120        0.163      332.252        0.793      874.136
01/11/2022  23:57:00      -28.100       -2.564       -4.696       17.527       15.781       10.009      307.188      249.036      100.189        0.074        0.033       28.217        6.296        0.050      332.317        0.901      874.128
01/11/2022  23:58:00      -31.871       -6.975       -8.592       17.491       19.708       12.855      305.921      388.389      165.253        0.100        0.043       32.625        8.460        0.067      332.305        0.880      874.123
01/11/2022  23:59:00      -68.689      -10.233       -6.354       32.872       18.945       15.665     1080.573      358.908      245.388        0.327        0.084       69.447       15.788        0.052      332.273        0.829      874.124
01/12/2022  00:00:00      -98.641       -3.851      -14.089       24.279       22.230       17.441      589.473      494.195      304.192        0.567        0.069       98.716       13.170        0.018      332.248        0.787      874.134
01/12/2022  00:01:00      -29.480        6.297      -12.771       31.746       14.460       15.100     1007.804      209.085      228.017        0.126        0.072       30.145        4.486        0.022      332.276        0.834      874.142
01/12/2022  00:02:00      -36.656       12.284       -2.363       26.489       20.128       18.961      701.653      405.120      359.532        0.148        0.073       38.660       15.716        0.165      332.206        0.717      874.157
01/12/2022  00:03:00      -93.908       30.556      -13.920       22.291       15.002       14.998      496.903      225.056      224.938        0.545        0.047       98.754        5.298        0.003      332.181        0.677      874.163
01/12/2022  00:04:00      -98.902       25.638       -6.677       32.519       24.875       18.752     1057.483      618.764      351.647        0.626        0.101      102.171       17.959        0.031      332.164        0.648      874.159
01/12/2022  00:05:00     -107.338       17.524       -3.873       27.320       19.519       17.065      746.399      380.995      291.198        0.663        0.071      108.759       11.843        0.012      332.116        0.570      874.162
01/12/2022  00:06:00      -49.399        3.702       -2.605       39.082       28.777       17.969     1527.414      828.109      322.868        0.257        0.134       49.538       15.333        0.096      332.149        0.623      874.161
01/12/2022  00:07:00       -8.308        2.182       -7.758       22.436       20.535       16.534      503.384      421.705      273.379        0.067        0.060        8.590        7.639        0.791      332.132        0.594      874.155
01/12/2022  00:08:00      -71.956       12.892      -10.308       35.622       21.953       14.157     1268.929      481.915      200.429        0.370        0.098       73.102       13.710        0.035      332.143        0.613      874.154
01/12/2022  00:09:00      -66.647        6.978       -5.364       38.087       21.950       16.731     1450.587      481.809      279.939        0.337        0.111       67.011       18.616        0.077      332.156        0.635      874.162
01/12/2022  00:10:00      -25.849        2.069       -6.623       30.114       29.806       18.453      906.825      888.399      340.500        0.143        0.107       25.932       16.858        0.423      332.108        0.556      874.166
01/12/2022  00:11:00      -23.067       -6.667       -7.574       31.852       22.172       17.638     1014.526      491.607      311.084        0.123        0.091       24.011        8.520        0.126      332.111        0.560      874.178
01/12/2022  00:12:00      -32.509       -9.051       -4.459       24.013       23.980       19.880      576.629      575.058      395.219        0.135        0.077       33.745        9.925        0.087      332.237        0.770      874.189
01/12/2022  00:13:00      -24.783       -2.303        0.622       24.867       24.916       13.856      618.353      620.798      191.989        0.103        0.072       24.890       11.701        0.221      332.200        0.708      874.196
01/12/2022  00:14:00      -44.997       -0.947       -3.910       23.573       16.877       13.728      555.696      284.838      188.466        0.153        0.051       45.007       13.683        0.092      332.201        0.709      874.192
01/12/2022  00:15:00      -45.411        1.656       -3.566       22.841       15.041       11.986      521.718      226.217      143.670        0.148        0.045       45.441       10.564        0.054      332.137        0.602      874.200
01/12/2022  00:16:00      -50.260        4.075       -9.788       15.964       11.172       10.868      254.858      124.805      118.106        0.157        0.025       50.425        7.048        0.020      332.145        0.616      874.204
01/12/2022  00:17:00      -14.709       -2.386        1.526       30.288       18.095       11.712      917.351      327.434      137.164        0.080        0.069       14.901       10.217        0.470      332.168        0.655      874.217
01/12/2022  00:18:00      -38.452        2.895       -0.642       40.131       20.436       18.173     1610.518      417.629      330.271        0.192        0.118       38.561       19.246        0.249      332.108        0.554      874.232
01/12/2022  00:19:00      -70.301      -13.799      -10.145       30.128       22.448       23.737      907.689      503.893      563.450        0.360        0.099       71.642       17.811        0.062      332.107        0.553      874.242
01/12/2022  00:20:00      -60.737       -1.175       -2.242       37.509       23.806       22.677     1406.945      566.702      514.268        0.309        0.124       60.748       22.629        0.139      332.062        0.480      874.255
01/12/2022  00:21:00      -77.927       -8.326      -11.790       47.306       28.364       26.723     2237.816      804.530      714.123        0.502        0.188       78.370       24.707        0.099      332.111        0.561      874.261
01/12/2022  00:22:00      -28.032       -2.230       -2.209       32.725       23.393       24.988     1070.916      547.233      624.409        0.152        0.112       28.120       22.147        0.620      332.095        0.534      874.276
01/12/2022  00:23:00      -12.190       -8.960       -0.065       21.131       14.667       17.493      446.528      215.126      305.999        0.060        0.048       15.129       13.951        0.850      332.121        0.576      874.287
01/12/2022  00:24:00      -60.279      -12.952       -6.365       43.662       23.955       24.201     1906.369      573.835      585.709        0.345        0.153       61.654       18.124        0.086      332.123        0.579      874.288
01/12/2022  00:25:00      -32.945      -11.385      -14.641       45.144       17.609       21.887     2037.964      310.091      479.028        0.213        0.141       34.856       24.006        0.474      332.095        0.532      874.277
01/12/2022  00:26:00      -52.082       -6.001      -18.816       30.895       15.107       14.469      954.487      228.216      209.340        0.225        0.070       52.427       15.598        0.089      332.099        0.540      874.256
01/12/2022  00:27:00      -17.482       -1.566        1.923       29.599       16.085       10.680      876.122      258.727      114.058        0.078        0.062       17.552       12.789        0.531      332.184        0.681      874.237
01/12/2022  00:28:00      -60.434       -4.451        2.297       24.763       16.397       14.711      613.210      268.847      216.426        0.239        0.055       60.598       11.985        0.039      332.205        0.716      874.226
01/12/2022  00:29:00      -61.213       16.551       -9.617       16.504       13.109       10.169      272.386      171.852      103.418        0.233        0.027       63.411        8.325        0.017      332.153        0.628      874.218
01/12/2022  00:30:00      -57.757       18.425       -7.221       15.634       10.048       10.607      244.433      100.953      112.500        0.209        0.023       60.625       10.259        0.029      332.118        0.573      874.211
01/12/2022  00:31:00      -60.333       23.108      -11.393       12.302       10.252       11.580      151.329      105.098      134.085        0.235        0.020       64.607        6.807        0.011      332.118        0.572      874.214
01/12/2022  00:32:00      -58.773       29.811      -10.803        7.959        5.419        7.990       63.340       29.366       63.842        0.231        0.008       65.901        2.835        0.002      332.144        0.615      874.215
01/12/2022  00:33:00      -60.320       21.444       -9.455        9.891        9.435       10.281       97.841       89.029      105.690        0.224        0.015       64.019        5.455        0.007      332.080        0.509      874.216
01/12/2022  00:34:00      -56.342       22.120      -13.692        9.696       14.872       12.677       94.015      221.170      160.706        0.216        0.024       60.528        8.994        0.022      332.092        0.528      874.216
01/12/2022  00:35:00      -61.207       26.950      -12.967        9.737        9.397        9.339       94.810       88.295       87.225        0.246        0.014       66.878        5.649        0.007      332.125        0.582      874.213
01/12/2022  00:36:00      -56.932       13.545      -14.296       15.663       18.560       13.948      245.327      344.478      194.551        0.221        0.039       58.521       10.200        0.030      332.081        0.511      874.207
01/12/2022  00:37:00      -62.744        9.751       -7.535       19.851       15.020       11.409      394.044      225.593      130.167        0.242        0.037       63.498        8.801        0.019      332.070        0.492      874.208
01/12/2022  00:38:00      -78.082       22.750      -12.191       23.679       21.451        9.750      560.682      460.165       95.070        0.394        0.056       81.329        8.597        0.011      332.015        0.402      874.207
01/12/2022  00:39:00      -93.902       42.013      -13.934       12.409       12.532        7.715      153.980      157.056       59.514        0.557        0.019      102.872        4.520        0.002      331.928        0.260      874.207
01/12/2022  00:40:00      -90.794       46.986      -13.424       22.595       13.930       13.375      510.520      194.050      178.902        0.576        0.044      102.231       12.937        0.016      331.830        0.100      874.209
01/12/2022  00:41:00     -101.142       42.339      -12.838       10.564       10.066        8.029      111.597      101.324       64.473        0.623        0.014      109.646        4.196        0.001      331.880        0.181      874.218
01/12/2022  00:42:00      -75.168       25.716      -17.229       17.319        8.812       11.399      299.960       77.646      129.932        0.356        0.025       79.445        7.064        0.008      331.888        0.194      874.234
01/12/2022  00:43:00      -47.455        9.599      -13.274       20.669       17.739       11.606      427.221      314.672      134.691        0.170        0.044       48.416        5.819        0.014      331.852        0.136      874.245
01/12/2022  00:44:00      -54.061       15.764      -22.650       12.147        9.429       10.066      147.554       88.906      101.334        0.201        0.017       56.312        4.959        0.008      331.916        0.240      874.255
01/12/2022  00:45:00      -77.193       27.351      -17.828       13.451       20.566       13.883      180.937      422.959      192.734        0.391        0.040       81.896        5.950        0.005      331.843        0.120      874.266
01/12/2022  00:46:00     -111.574       29.526      -19.528       26.193       18.377       13.971      686.070      337.730      195.191        0.746        0.061      115.415        9.106        0.006      331.739       -0.051      874.268
01/12/2022  00:47:00     -126.059       24.676      -13.979       22.700       24.187       13.750      515.288      584.995      189.074        0.899        0.064      128.451        4.647        0.001      331.738       -0.052      874.269
01/12/2022  00:48:00     -115.603       30.848      -16.325       14.958       22.474       14.970      223.755      505.077      224.091        0.777        0.048      119.648        4.381        0.001      331.727       -0.071      874.267
01/12/2022  00:49:00      -94.583       33.294      -11.072       25.697       19.546       15.944      660.324      382.063      254.211        0.574        0.065      100.272       15.803        0.025      331.746       -0.039      874.256
01/12/2022  00:50:00      -87.115       34.828      -14.944       11.492        8.923       12.126      132.057       79.616      147.045        0.469        0.018       93.819        7.276        0.006      331.737       -0.053      874.250
01/12/2022  00:51:00      -86.388       31.872      -14.535       13.461       11.986       11.432      181.197      143.654      130.680        0.457        0.023       92.080        7.131        0.006      331.744       -0.042      874.250
01/12/2022  00:52:00      -80.192       24.007      -18.329       16.376       18.259        9.369      268.162      333.397       87.782        0.402        0.034       83.708        5.752        0.005      331.837        0.110      874.252
01/12/2022  00:53:00      -97.430       29.110      -21.721        8.599        6.715        6.492       73.950       45.089       42.141        0.549        0.008      101.686        2.714        0.001      331.840        0.115      874.249
01/12/2022  00:54:00      -99.051       30.545      -18.543       11.650       13.880        8.505      135.718      192.660       72.330        0.574        0.020      103.654        4.044        0.002      331.814        0.071      874.243
01/12/2022  00:55:00     -105.875       31.350      -18.872       10.750       10.119        7.431      115.569      102.394       55.219        0.641        0.014      110.419        2.798        0.001      331.779        0.016      874.239
01/12/2022  00:56:00     -113.641       33.609      -15.766       11.730       13.045       11.792      137.592      170.172      139.060        0.737        0.022      118.506        5.222        0.002      331.739       -0.050      874.243
01/12/2022  00:57:00     -100.572       20.469      -15.072       24.903       28.786       14.297      620.140      828.651      204.404        0.621        0.083      102.634        8.063        0.006      331.839        0.114      874.242
01/12/2022  00:58:00      -84.362       15.990      -10.934       36.576       29.055       19.725     1337.788      844.176      389.090        0.503        0.129       85.864       16.161        0.035      331.768       -0.003      874.240
01/12/2022  00:59:00      -95.209       25.126       -9.451       35.454       24.866       21.982     1256.982      618.316      483.200        0.607        0.118       98.469       18.280        0.034      331.754       -0.026      874.242
01/12/2022  01:00:00     -121.455       50.125       -7.001       30.157       21.102       19.707      909.468      445.304      388.374        0.953        0.087      131.392       15.823        0.015      331.791        0.035      874.241
01/12/2022  01:01:00     -109.298       41.748       -8.647       23.075       19.608       18.035      532.453      384.493      325.253        0.750        0.062      117.000       12.315        0.011      331.851        0.134      874.241
01/12/2022  01:02:00      -88.540       28.044      -11.269       18.596       17.159       13.735      345.795      294.425      188.645        0.479        0.041       92.875        8.946        0.009      331.801        0.052      874.245
01/12/2022  01:03:00      -78.111       15.947       -5.043       15.170       12.563       10.558      230.130      157.819      111.465        0.344        0.025       79.722        5.997        0.006      331.900        0.213      874.233
01/12/2022  01:04:00      -45.726        2.735       -8.619       20.210        7.804       10.358      408.431       60.907      107.289        0.137        0.029       45.808       10.765        0.055      332.146        0.616      874.220
01/12/2022  01:05:00      -22.641        3.390       -9.151        5.493       10.481        6.718       30.168      109.853       45.125        0.040        0.009       22.894        5.007        0.048      332.294        0.862      874.214
01/12/2022  01:06:00      -27.874       -0.947       -6.562        7.546       11.002        6.156       56.940      121.054       37.896        0.052        0.011       27.890        4.526        0.026      332.452        1.123      874.207
01/12/2022  01:07:00      -17.461       -7.220       -5.633        6.890        8.344        7.202       47.479       69.628       51.875        0.028        0.008       18.895        3.436        0.033      332.355        0.963      874.212
01/12/2022  01:08:00      -23.173        0.711       -4.864        9.000        7.666        7.715       80.995       58.760       59.525        0.038        0.010       23.184        5.782        0.062      332.246        0.784      874.218
01/12/2022  01:09:00      -35.236        4.137       -8.315        7.324        6.479        5.416       53.640       41.976       29.338        0.073        0.006       35.478        3.220        0.008      332.212        0.726      874.237
01/12/2022  01:10:00      -50.080       10.234       -9.174        7.754        6.472        7.295       60.128       41.884       53.212        0.143        0.008       51.115        3.841        0.006      332.149        0.624      874.256
01/12/2022  01:11:00      -51.935       15.401       -6.797       14.124       13.389        9.689      199.483      179.260       93.886        0.173        0.024       54.171        6.718        0.015      332.048        0.456      874.265
01/12/2022  01:12:00      -29.369        1.305       -8.427       22.755       21.000        9.001      517.781      440.986       81.011        0.099        0.052       29.398        7.148        0.059      332.032        0.431      874.266
01/12/2022  01:13:00       -7.273      -18.321       -9.332       10.588       10.523       11.257      112.099      110.738      126.711        0.041        0.017       19.712        6.938        0.124      332.124        0.581      874.259
01/12/2022  01:14:00      -11.816       -9.071       -1.818        8.926       10.997        9.563       79.680      120.944       91.442        0.026        0.015       14.896        6.556        0.194      332.098        0.539      874.244
01/12/2022  01:15:00       -6.256       11.362        1.889       13.116        9.124        8.465      172.039       83.239       71.650        0.025        0.016       12.970        5.896        0.207      332.026        0.421      874.236
01/12/2022  01:16:00       -7.276        3.381       -6.550       17.182       11.447       10.167      295.237      131.025      103.373        0.032        0.026        8.023       11.240        1.963      331.973        0.333      874.220
01/12/2022  01:17:00       -7.623       -4.599       -3.517       16.366        8.280        9.380      267.857       68.557       87.981        0.026        0.021        8.902       10.284        1.335      331.971        0.330      874.208
01/12/2022  01:18:00      -47.821       10.384       -9.621       16.733       21.613       11.231      279.999      467.142      126.139        0.168        0.044       48.935        7.549        0.024      331.930        0.263      874.197
01/12/2022  01:19:00      -61.119       -1.400      -16.895       18.164       19.180       17.426      329.913      367.891      303.668        0.251        0.050       61.135        9.864        0.026      332.005        0.386      874.184
01/12/2022  01:20:00      -42.223      -12.005      -10.468       29.528       25.047       18.738      871.875      627.376      351.121        0.194        0.093       43.896        9.590        0.048      331.918        0.244      874.183
01/12/2022  01:21:00      -64.349       -6.190       -3.588       34.906       26.819       17.307     1218.432      719.273      299.525        0.321        0.112       64.646       14.559        0.051      331.878        0.178      874.186
01/12/2022  01:22:00      -34.404        7.516        1.475       28.456       21.383       17.192      809.755      457.214      295.548        0.140        0.078       35.215        6.765        0.037      331.899        0.212      874.189
01/12/2022  01:23:00      -59.665        4.931       -2.684       24.121       18.658       17.840      581.830      348.105      318.272        0.242        0.062       59.868       12.720        0.045      331.832        0.102      874.197
01/12/2022  01:24:00      -33.107        3.032       -3.801       31.496       23.851       19.892      991.977      568.861      395.690        0.154        0.098       33.245       16.157        0.236      331.805        0.058      874.203
01/12/2022  01:25:00       -0.334      -12.309        4.881       22.599       17.408       14.146      510.733      303.036      200.110        0.059        0.051       12.313       10.106        0.674      331.859        0.147      874.203
01/12/2022  01:26:00      -30.042       -2.211       -1.361       23.375       14.489       16.842      546.398      209.918      283.647        0.097        0.052       30.123       14.861        0.243      331.957        0.307      874.209
01/12/2022  01:27:00      -60.643        4.275       -4.791       19.618       16.933       13.950      384.885      286.736      194.610        0.229        0.043       60.794       10.818        0.032      331.931        0.264      874.212
01/12/2022  01:28:00      -48.473        3.275       -2.868       24.740       15.434       12.108      612.071      238.193      146.605        0.168        0.050       48.584       11.452        0.056      331.965        0.321      874.220
01/12/2022  01:29:00      -26.702        6.759       -3.376       18.599       17.337       13.631      345.915      300.559      185.801        0.080        0.042       27.544       11.985        0.189      331.860        0.148      874.224
01/12/2022  01:30:00      -29.461        2.145       -5.344       17.809       22.031       14.123      317.168      485.351      199.469        0.095        0.050       29.539        4.603        0.024      331.950        0.296      874.222
01/12/2022  01:31:00      -29.267        0.040       -7.517       31.452       13.690       10.183      989.259      187.405      103.701        0.110        0.064       29.267       11.464        0.153      331.991        0.363      874.228
01/12/2022  01:32:00      -49.152       -4.022      -10.270       24.569       22.552       15.419      603.620      508.590      237.751        0.194        0.067       49.316       10.831        0.048      332.007        0.388      874.239
01/12/2022  01:33:00      -56.001        6.838       -0.423       24.878       22.219       16.671      618.907      493.688      277.922        0.229        0.070       56.417       15.174        0.072      331.943        0.284      874.247
01/12/2022  01:34:00      -34.590        5.038        3.142       32.260       27.735       16.350     1040.696      769.208      267.338        0.165        0.104       34.955       13.107        0.141      331.894        0.203      874.257
01/12/2022  01:35:00      -30.832       -2.727        3.840       24.490       18.672       18.948      599.759      348.652      359.015        0.114        0.065       30.953       15.169        0.240      331.929        0.262      874.281
01/12/2022  01:36:00      -37.038        1.746        1.128       28.834       21.177       15.950      831.395      448.448      254.388        0.145        0.077       37.080       15.241        0.169      331.872        0.169      874.303
01/12/2022  01:37:00      -64.257       13.297        0.454       23.883       18.497       15.929      570.402      342.154      253.740        0.274        0.058       65.618       13.375        0.042      331.818        0.078      874.313
01/12/2022  01:38:00      -69.310       18.628       -7.520       25.854       22.266       17.707      668.433      495.766      313.529        0.334        0.074       71.770       14.484        0.041      331.774        0.006      874.326
01/12/2022  01:39:00      -63.194       25.473       -8.168       23.281       19.037       13.141      542.005      362.414      172.684        0.289        0.054       68.134        7.261        0.011      331.789        0.032      874.342
01/12/2022  01:40:00      -78.423       36.742       -7.816       16.419       15.219       12.789      269.583      231.623      163.568        0.411        0.033       86.603        3.816        0.002      331.837        0.110      874.357
01/12/2022  01:41:00      -82.635       22.910      -14.246        9.313        9.252        7.631       86.723       85.608       58.239        0.389        0.012       85.752        3.629        0.002      331.828        0.096      874.363
01/12/2022  01:42:00      -48.003        9.606      -10.090       28.603       13.541       16.542      818.160      183.348      273.640        0.189        0.064       48.955       15.639        0.102      331.778        0.013      874.371
01/12/2022  01:43:00      -67.857       17.340       -9.337       28.642       24.501       18.563      820.381      600.281      344.597        0.338        0.088       70.038       17.903        0.065      331.660       -0.179      874.378
01/12/2022  01:44:00      -83.724       33.293      -12.471       32.115       22.579       17.912     1031.359      509.794      320.850        0.507        0.093       90.101       11.126        0.015      331.665       -0.173      874.378
01/12/2022  01:45:00     -103.229       35.820      -14.377       24.182       18.034       17.951      584.760      325.217      322.256        0.669        0.062      109.267       10.659        0.010      331.644       -0.208      874.386
01/12/2022  01:46:00      -44.087       19.415      -13.593       34.314       22.122       13.028     1177.469      489.399      169.732        0.217        0.092       48.173       16.471        0.117      331.618       -0.251      874.400
01/12/2022  01:47:00      -26.434       12.958      -15.806       18.600       21.001       10.010      345.950      441.054      100.202        0.100        0.044       29.439        6.785        0.053      331.744       -0.043      874.412
01/12/2022  01:48:00      -32.724       30.621       -2.497        9.801        5.547        3.948       96.054       30.773       15.584        0.108        0.007       44.816        2.526        0.003      332.089        0.524      874.417
01/12/2022  01:49:00       -4.574       27.422       -1.863        5.502        6.767        6.871       30.277       45.798       47.207        0.045        0.006       27.800        3.092        0.012      332.102        0.545      874.415
01/12/2022  01:50:00      -11.611       17.249       -3.113        6.828        8.232        7.373       46.615       67.761       54.356        0.031        0.008       20.793        6.218        0.089      332.152        0.628      874.418
01/12/2022  01:51:00      -11.332        7.246      -11.948       17.766       14.216        9.503      315.633      202.085       90.308        0.047        0.030       13.451        6.246        0.216      332.083        0.515      874.426
01/12/2022  01:52:00      -22.979      -12.153       -8.605       11.319       14.507       11.299      128.116      210.450      127.667        0.061        0.023       25.995        7.424        0.082      331.761       -0.015      874.425
01/12/2022  01:53:00      -16.497      -10.560       -8.888       16.101       14.475        7.993      259.249      209.519       63.880        0.050        0.027       19.587        5.630        0.083      331.656       -0.188      874.424
01/12/2022  01:54:00      -31.947       13.501       -3.012       16.413       14.807       11.697      269.376      219.245      136.818        0.092        0.031       34.682        4.561        0.017      331.796        0.042      874.411
01/12/2022  01:55:00      -26.111       16.513       -5.574       14.696       10.579       13.174      215.975      111.911      173.557        0.074        0.025       30.895        4.227        0.019      331.847        0.126      874.409
01/12/2022  01:56:00      -15.818        4.969       -4.001        7.870       12.059        7.211       61.934      145.409       51.996        0.028        0.013       16.580        4.868        0.086      331.732       -0.061      874.407
01/12/2022  01:57:00      -13.626       -2.566        0.661       12.878        7.917       10.164      165.848       62.680      103.308        0.026        0.017       13.865        5.253        0.144      331.738       -0.053      874.403
01/12/2022  01:58:00      -14.367       -1.967       -4.957       14.657       18.898       12.517      214.838      357.152      156.667        0.048        0.036       14.501        9.248        0.407      331.695       -0.123      874.397
01/12/2022  01:59:00      -22.702        7.504      -10.624       18.106       13.750       13.330      327.822      189.054      177.694        0.069        0.035       23.910        8.369        0.123      331.579       -0.315      874.395
01/12/2022  02:00:00      -40.138        7.474      -13.513       10.424        8.028        9.413      108.655       64.457       88.604        0.106        0.013       40.828        8.414        0.042      331.626       -0.237      874.387
01/12/2022  02:01:00      -28.105       -6.667       -9.658       14.342       14.321        9.025      205.707      205.083       81.447        0.071        0.025       28.885        4.352        0.023      331.676       -0.154      874.376
01/12/2022  02:02:00      -22.447       11.576      -10.328       15.913        9.785        8.273      253.229       95.744       68.443        0.058        0.021       25.256        7.440        0.087      331.652       -0.193      874.370
01/12/2022  02:03:00      -29.985       16.674       -8.756        7.712        9.782        6.437       59.479       95.687       41.430        0.073        0.010       34.309        3.657        0.011      331.607       -0.267      874.357
01/12/2022  02:04:00      -30.813       15.586       -9.690        4.992        6.394        5.435       24.919       40.884       29.536        0.069        0.005       34.531        4.538        0.017      331.767       -0.006      874.346
01/12/2022  02:05:00      -31.575        6.939      -12.521        9.148        6.048        6.269       83.685       36.577       39.304        0.068        0.008       32.328        3.552        0.012      332.055        0.468      874.349
01/12/2022  02:06:00      -12.698       -7.910       -9.844       11.788       11.302        7.650      138.966      127.727       58.516        0.032        0.016       14.960        9.161        0.375      331.990        0.361      874.353
01/12/2022  02:07:00      -22.698      -12.200      -12.691       12.294       10.233        9.530      151.139      104.721       90.819        0.059        0.017       25.769        7.658        0.088      331.843        0.119      874.364
01/12/2022  02:08:00      -20.036        7.249       -5.479        8.798       12.627        9.304       77.411      159.447       86.566        0.040        0.016       21.307        5.038        0.056      331.743       -0.045      874.376
01/12/2022  02:09:00      -23.619        0.300       -8.887       20.401       13.155       11.679      416.206      173.044      136.403        0.068        0.036       23.621        8.731        0.137      331.572       -0.328      874.384
01/12/2022  02:10:00      -79.031        7.067      -13.850       32.655       23.548       13.419     1066.357      554.507      180.060        0.414        0.090       79.346       11.833        0.022      331.522       -0.410      874.397
01/12/2022  02:11:00     -114.084       34.710      -10.749       13.542       14.134        7.967      183.387      199.769       63.465        0.739        0.022      119.248        4.588        0.001      331.414       -0.588      874.406
01/12/2022  02:12:00     -107.700       29.697      -15.591       42.186       28.921       16.699     1779.622      836.423      278.848        0.781        0.145      111.719       10.910        0.010      331.370       -0.659      874.414
01/12/2022  02:13:00     -130.237       35.176      -15.909       20.396       17.485       14.657      416.016      305.736      214.813        0.969        0.047      134.903       12.730        0.009      331.369       -0.662      874.415
01/12/2022  02:14:00     -114.275       30.257       -7.394       38.799       21.361       17.432     1505.332      456.284      303.868        0.815        0.113      118.213       18.604        0.025      331.353       -0.687      874.413
01/12/2022  02:15:00      -91.428       17.603      -13.161       21.241       25.444       17.369      451.185      647.417      301.683        0.512        0.070       93.107       11.274        0.015      331.335       -0.717      874.415
01/12/2022  02:16:00      -98.259       27.269      -11.922       25.972       17.705       14.697      674.548      313.481      216.003        0.587        0.060      101.973       13.335        0.017      331.349       -0.695      874.407
01/12/2022  02:17:00     -114.181       43.431      -11.012       18.185       18.985       14.531      330.680      360.449      211.151        0.797        0.045      122.162        9.195        0.006      331.326       -0.732      874.395
01/12/2022  02:18:00     -117.305       34.739      -13.999       28.139       19.150       17.902      791.787      366.715      320.499        0.832        0.074      122.340       15.694        0.016      331.307       -0.761      874.385
01/12/2022  02:19:00     -113.308       30.361       -9.548       42.981       24.250       15.764     1847.407      588.060      248.507        0.827        0.134      117.305       20.670        0.031      331.323       -0.737      874.380
01/12/2022  02:20:00     -105.051       10.506      -15.205       38.276       35.379       20.192     1465.045     1251.679      407.706        0.725        0.156      105.575       12.914        0.015      331.268       -0.825      874.370
01/12/2022  02:21:00     -119.957       48.010       -7.661       41.092       31.793       20.266     1688.534     1010.766      410.697        0.993        0.155      129.208       15.107        0.014      331.238       -0.875      874.366
01/12/2022  02:22:00     -120.107       61.265       -8.905       41.858       25.549       23.389     1752.106      652.748      547.052        1.060        0.148      134.830       12.209        0.008      331.300       -0.773      874.358
01/12/2022  02:23:00     -111.915       31.915       -3.444       36.238       28.665       20.436     1313.213      821.666      417.640        0.805        0.128      116.377       17.093        0.022      331.251       -0.852      874.351
01/12/2022  02:24:00     -116.545       50.354       -7.401       26.889       19.768       15.340      723.007      390.756      235.318        0.876        0.067      126.958       13.442        0.011      331.248       -0.859      874.346
01/12/2022  02:25:00     -115.416       41.938       -7.534       18.417       15.582       13.244      339.173      242.790      175.392        0.795        0.038      122.799        8.187        0.004      331.331       -0.723      874.338
01/12/2022  02:26:00     -100.014       19.997       -6.028       29.371       28.242       18.089      862.660      797.615      327.208        0.621        0.099      101.993       13.855        0.018      331.335       -0.718      874.341
01/12/2022  02:27:00      -81.971       25.265       -5.212       36.648       20.364       19.495     1343.111      414.672      380.059        0.476        0.107       85.777       18.711        0.048      331.330       -0.723      874.345
01/12/2022  02:28:00      -81.443       20.458       -7.962       21.349       18.507       16.071      455.776      342.509      258.273        0.409        0.053       83.973       12.788        0.023      331.266       -0.829      874.349
01/12/2022  02:29:00      -63.191       15.952       -7.297       32.225       13.215       15.786     1038.432      174.644      249.201        0.288        0.073       65.173       12.992        0.040      331.309       -0.760      874.358
01/12/2022  02:30:00      -56.963        8.182       -7.700       24.123       16.946       13.040      581.897      287.180      170.047        0.220        0.052       57.547        7.942        0.019      331.378       -0.646      874.363
01/12/2022  02:31:00      -25.684        2.041        0.016       19.124       16.999       12.845      365.743      288.954      164.992        0.074        0.041       25.765        6.460        0.063      331.363       -0.669      874.364
01/12/2022  02:32:00      -77.646        5.895       -7.071       28.243       21.062       12.644      797.670      443.608      159.870        0.376        0.070       77.870        5.428        0.005      331.389       -0.628      874.365
01/12/2022  02:33:00      -59.612       15.413       -8.171       17.612       12.731       11.002      310.197      162.081      121.042        0.223        0.030       61.573        6.773        0.012      331.382       -0.640      874.367
01/12/2022  02:34:00      -38.169        3.088      -11.681       14.092       10.563        8.884      198.577      111.578       78.925        0.100        0.019       38.293        6.496        0.029      331.373       -0.655      874.357
01/12/2022  02:35:00      -18.940       -9.505       -4.902       14.353       13.971       15.156      206.000      195.190      229.704        0.055        0.032       21.192        8.084        0.146      331.529       -0.397      874.347
01/12/2022  02:36:00      -21.432        5.852       -7.591       16.708       14.179       10.101      279.145      201.057      102.020        0.057        0.029       22.217        2.684        0.015      331.486       -0.469      874.334
01/12/2022  02:37:00      -19.534       13.772       -6.325        5.888        4.357        4.723       34.672       18.987       22.307        0.034        0.004       23.901        3.773        0.025      331.613       -0.258      874.317
01/12/2022  02:38:00      -11.582       11.880       -9.793        8.596        6.041        6.346       73.889       36.490       40.271        0.026        0.008       16.591        4.993        0.091      331.646       -0.203      874.307
01/12/2022  02:39:00       -0.494       12.665       -5.055        1.791        5.927        2.792        3.208       35.127        7.797        0.012        0.002       12.675        2.200        0.030      331.806        0.061      874.300
01/12/2022  02:40:00       -1.476       18.917       -4.287        2.108        4.991        4.243        4.445       24.906       18.002        0.021        0.002       18.975        2.174        0.013      332.030        0.426      874.297
01/12/2022  02:41:00      -15.062        3.075       -0.875        8.664        8.812        4.687       75.064       77.645       21.969        0.021        0.009       15.373        5.629        0.134      331.810        0.067      874.289
01/12/2022  02:42:00       -7.519        6.987       -3.380        7.140        5.562        4.482       50.973       30.939       20.089        0.011        0.005       10.264        4.199        0.167      331.659       -0.185      874.288
01/12/2022  02:43:00        0.632       10.538       -7.153        5.316        4.369        6.565       28.260       19.088       43.102        0.013        0.005       10.557        2.618        0.061      331.642       -0.212      874.284
01/12/2022  02:44:00       -2.831        4.437       -3.169        5.765        6.315        3.624       33.232       39.876       13.132        0.006        0.004        5.263        3.602        0.468      331.676       -0.156      874.271
01/12/2022  02:45:00      -13.164       -0.089      -10.459       12.161       13.004        8.374      147.887      169.107       70.117        0.033        0.019       13.164        7.268        0.305      331.685       -0.140      874.262
01/12/2022  02:46:00       -6.918       15.863       -7.123        8.075        8.299        6.874       65.211       68.881       47.255        0.027        0.009       17.306        5.031        0.085      331.580       -0.312      874.257
01/12/2022  02:47:00       -7.540        0.552       -6.830        5.494        5.007        4.531       30.184       25.075       20.533        0.009        0.004        7.561        3.784        0.251      331.505       -0.438      874.252
01/12/2022  02:48:00      -13.086       10.137       -2.993        9.896       11.575        4.460       97.940      133.988       19.888        0.027        0.013       16.553        4.587        0.077      331.515       -0.421      874.249
01/12/2022  02:49:00       -9.367        3.583       -7.978       12.227        9.966        6.748      149.510       99.321       45.533        0.023        0.015       10.028        3.187        0.101      331.400       -0.609      874.246
01/12/2022  02:50:00      -36.572       12.848       -5.329       15.745       12.844        8.029      247.915      164.960       64.468        0.100        0.024       38.763        7.460        0.037      331.435       -0.550      874.243
01/12/2022  02:51:00      -36.324       -2.506      -11.447       22.283       17.101       13.601      496.545      292.450      184.990        0.122        0.049       36.410        7.551        0.043      331.456       -0.518      874.233
01/12/2022  02:52:00      -46.885        7.463       -7.519       27.940       22.082       12.489      780.639      487.626      155.965        0.187        0.071       47.475        5.905        0.015      331.409       -0.595      874.220
01/12/2022  02:53:00      -77.940       27.364      -10.099       14.869       13.358       13.161      221.095      178.449      173.222        0.375        0.029       82.604        4.504        0.003      331.284       -0.799      874.207
01/12/2022  02:54:00      -78.405       25.950       -7.291       17.376       13.942       12.161      301.939      194.379      147.894        0.376        0.032       82.588        7.924        0.009      331.264       -0.831      874.192
01/12/2022  02:55:00      -72.047       40.475       -5.147       20.292       15.990       14.317      411.758      255.674      204.989        0.386        0.044       82.638       14.205        0.030      331.238       -0.873      874.160
01/12/2022  02:56:00      -75.340       32.131      -12.827       21.055       16.939       14.524      443.306      286.942      210.942        0.391        0.047       81.906       12.080        0.022      331.231       -0.888      874.133
01/12/2022  02:57:00      -87.434       33.151      -15.938       12.712       13.590        8.681      161.597      184.685       75.354        0.471        0.021       93.508        2.685        0.001      331.265       -0.831      874.115
01/12/2022  02:58:00      -81.647       34.481      -14.785       15.535       14.515       11.573      241.334      210.697      133.942        0.433        0.029       88.629        7.096        0.006      331.267       -0.828      874.100
01/12/2022  02:59:00      -84.724       28.974      -16.465       21.530       16.575       15.502      463.562      274.737      240.314        0.463        0.049       89.542        7.512        0.007      331.293       -0.786      874.091
01/12/2022  03:00:00      -73.119       15.619       -8.580       27.312       23.015       17.915      745.933      529.669      320.964        0.363        0.080       74.769       17.782        0.057      331.253       -0.849      874.081
01/12/2022  03:01:00      -57.444       13.298      -15.697       30.937       16.629       16.634      957.092      276.535      276.692        0.262        0.076       58.964        8.421        0.020      331.241       -0.871      874.068
01/12/2022  03:02:00      -86.381        6.121      -13.123       27.378       21.381       13.583      749.530      457.139      184.489        0.453        0.070       86.598        8.373        0.009      331.247       -0.861      874.058
01/12/2022  03:03:00      -63.172        9.866       -8.543       27.609       21.949       16.163      762.282      481.765      261.246        0.283        0.075       63.938       11.945        0.035      331.195       -0.946      874.048
01/12/2022  03:04:00      -81.110       18.348      -11.179       32.666       26.243       18.615     1067.039      688.693      346.515        0.457        0.105       83.159       13.594        0.027      331.142       -1.034      874.034
01/12/2022  03:05:00      -74.683       15.790      -18.871       29.007       21.391       14.489      841.388      457.556      209.941        0.385        0.075       76.334        8.285        0.012      331.133       -1.048      874.020
01/12/2022  03:06:00      -41.035       13.761      -13.705       24.965       26.869       19.324      623.245      721.928      373.434        0.189        0.086       43.281       14.070        0.106      331.063       -1.164      873.998
01/12/2022  03:07:00     -100.461       27.836       -9.506       19.142       18.981       13.660      366.409      360.267      186.584        0.594        0.046      104.246        8.912        0.007      331.025       -1.226      873.976
01/12/2022  03:08:00      -80.670       21.009       -8.292       26.862       15.919       17.665      721.542      253.414      312.035        0.415        0.064       83.361        8.520        0.010      331.045       -1.192      873.951
01/12/2022  03:09:00      -91.131       20.464      -10.570       24.663        8.578       12.803      608.254       73.587      163.911        0.484        0.042       93.400       12.348        0.017      331.122       -1.065      873.938
01/12/2022  03:10:00      -81.862       36.372      -11.593       18.105       14.919       10.831      327.774      222.572      117.320        0.441        0.033       89.579        5.297        0.003      331.128       -1.057      873.925
01/12/2022  03:11:00      -81.240       36.135      -14.374       16.495       17.436       11.651      272.098      304.011      135.737        0.441        0.036       88.913        6.400        0.005      331.172       -0.984      873.906
01/12/2022  03:12:00      -82.421       25.693      -13.468       15.450       12.987        9.282      238.695      168.668       86.164        0.406        0.025       86.332        6.764        0.006      331.230       -0.887      873.893
01/12/2022  03:13:00      -94.327       26.140      -12.145       14.434       14.061       11.488      208.350      197.720      131.979        0.513        0.027       97.882        6.441        0.004      331.233       -0.884      873.885
01/12/2022  03:14:00     -102.158       39.256      -13.123       15.105       10.852       12.423      228.168      117.773      154.329        0.632        0.025      109.441        5.321        0.002      331.209       -0.923      873.875
01/12/2022  03:15:00      -91.429       30.095      -13.416       34.939       20.033       17.559     1220.715      401.337      308.302        0.569        0.097       96.255       18.064        0.035      331.140       -1.036      873.851
01/12/2022  03:16:00     -105.947       41.081      -15.541       20.301       23.754       14.983      412.117      564.239      224.492        0.718        0.060      113.633        6.302        0.003      331.140       -1.036      873.844
01/12/2022  03:17:00     -118.165       42.001      -16.668       18.329       15.773       12.316      335.946      248.779      151.677        0.837        0.037      125.408        6.490        0.003      331.212       -0.917      873.834
01/12/2022  03:18:00     -100.733       33.299      -11.282       24.345       18.494       18.405      592.675      342.015      338.757        0.633        0.064      106.094       13.204        0.015      331.134       -1.047      873.835
01/12/2022  03:19:00      -96.929       22.767      -17.663       20.420       18.080       13.449      416.989      326.892      180.876        0.557        0.046       99.567        4.648        0.002      331.143       -1.030      873.834
01/12/2022  03:20:00      -88.888       25.233      -13.073       30.046       17.095       15.574      902.777      292.225      242.542        0.507        0.072       92.401       17.173        0.035      331.081       -1.135      873.830
01/12/2022  03:21:00      -89.893       24.612      -11.410       20.117       15.979       15.522      404.679      255.328      240.947        0.486        0.045       93.201        9.726        0.011      331.032       -1.214      873.829
01/12/2022  03:22:00      -76.300       18.490      -13.235       22.750       13.451       12.229      517.577      180.919      149.548        0.359        0.042       78.508        5.886        0.006      331.040       -1.202      873.815
01/12/2022  03:23:00      -80.653       31.344      -13.321       15.329       19.063       11.740      234.966      363.388      137.821        0.420        0.037       86.529        5.868        0.005      331.063       -1.165      873.796
01/12/2022  03:24:00      -77.686       40.661       -7.953       28.581       19.192       16.956      816.877      368.320      287.507        0.461        0.074       87.684       16.661        0.036      331.022       -1.232      873.777
01/12/2022  03:25:00     -100.767       34.110       -8.968       15.930       17.022       12.268      253.773      289.747      150.502        0.605        0.035      106.384        7.230        0.005      331.056       -1.175      873.757
01/12/2022  03:26:00      -87.022       18.592       -7.490       33.022       21.531       18.015     1090.443      463.596      324.541        0.493        0.094       88.986       18.726        0.044      331.123       -1.064      873.738
01/12/2022  03:27:00      -79.510       10.390      -10.007       22.956       21.763       14.041      526.993      473.636      197.142        0.386        0.060       80.186        9.006        0.013      331.106       -1.093      873.719
01/12/2022  03:28:00      -50.291        4.527       -0.557       28.022       25.001       13.433      785.213      625.028      180.434        0.207        0.080       50.495        3.990        0.006      331.170       -0.989      873.700
01/12/2022  03:29:00      -58.414       33.122       -6.239       24.824       16.811       14.484      616.250      282.613      209.799        0.283        0.055       67.151       14.509        0.047      331.165       -0.996      873.683
01/12/2022  03:30:00      -64.783       23.529      -10.945       16.822       17.627       10.964      282.971      310.719      120.216        0.279        0.036       68.923        8.788        0.016      331.157       -1.008      873.660
01/12/2022  03:31:00      -69.734       23.406       -8.430       33.176       26.142       17.725     1100.628      683.420      314.192        0.379        0.105       73.557       11.778        0.026      331.224       -0.898      873.642
01/12/2022  03:32:00      -84.909       17.797      -13.079       40.277       26.625       20.642     1622.230      708.875      426.096        0.523        0.138       86.754       14.425        0.028      331.217       -0.909      873.618
01/12/2022  03:33:00      -94.702       31.373       -9.787       22.658       23.680       16.091      513.364      560.723      258.928        0.569        0.067       99.763       10.955        0.012      331.162       -1.001      873.603
01/12/2022  03:34:00      -87.449       50.676       -5.269       41.736       24.262       16.452     1741.878      588.668      270.665        0.642        0.130      101.071       11.424        0.013      331.167       -0.991      873.579
01/12/2022  03:35:00     -105.650       32.879       -1.766       30.840       28.498       21.105      951.120      812.136      445.431        0.723        0.110      110.648       13.553        0.015      331.195       -0.945      873.561
01/12/2022  03:36:00      -58.337       -0.308        3.066       52.148       22.795       21.228     2719.430      519.619      450.641        0.355        0.184       58.338       28.675        0.242      331.247       -0.860      873.544
01/12/2022  03:37:00      -27.650        3.418       -3.396       47.963       23.999       22.015     2300.497      575.962      484.677        0.207        0.168       27.860       23.707        0.724      331.157       -1.008      873.521
01/12/2022  03:38:00      -27.141       -7.407       -6.577       36.851       21.284       16.825     1357.967      453.021      283.079        0.146        0.105       28.134        9.103        0.105      331.220       -0.904      873.500
01/12/2022  03:39:00      -68.259       15.830        0.244       54.227       31.410       28.031     2940.558      986.605      785.736        0.481        0.236       70.070       29.817        0.181      331.178       -0.974      873.471
01/12/2022  03:40:00      -67.448        1.166       -3.032       44.543       33.460       23.619     1984.098     1119.594      557.837        0.411        0.183       67.458       16.075        0.057      331.192       -0.952      873.449
01/12/2022  03:41:00       -5.786       -2.498       -7.924       20.154       25.707       23.425      406.167      660.829      548.733        0.086        0.081        6.302       15.380        5.956      331.149       -1.023      873.421
01/12/2022  03:42:00      -13.087       -4.221      -10.378       16.465       23.813       18.409      271.093      567.049      338.879        0.074        0.059       13.751        9.747        0.502      331.154       -1.014      873.398
01/12/2022  03:43:00        9.102      -24.265      -20.321       14.428       17.563       13.783      208.154      308.461      189.980        0.090        0.035       25.916        7.519        0.084      331.188       -0.958      873.377
01/12/2022  03:44:00        1.082      -11.782      -15.621       13.579       11.252       10.883      184.394      126.597      118.434        0.041        0.021       11.832        7.695        0.423      331.197       -0.943      873.360
01/12/2022  03:45:00       -1.931       -3.809       -5.650       14.586       14.113       12.374      212.752      199.175      153.124        0.031        0.028        4.271        4.591        1.156      331.158       -1.006      873.338
01/12/2022  03:46:00      -23.122        6.015       -8.949       26.420       11.417       11.847      698.032      130.350      140.358        0.081        0.048       23.892       10.733        0.202      331.126       -1.061      873.319
01/12/2022  03:47:00      -51.294        9.180      -23.032       19.089       10.192       13.640      364.404      103.887      186.047        0.195        0.033       52.109        5.053        0.009      331.293       -0.784      873.296
01/12/2022  03:48:00      -52.974        8.580      -19.236       14.261       17.765       20.419      203.378      315.596      416.946        0.209        0.047       53.664        9.313        0.030      331.213       -0.917      873.277
01/12/2022  03:49:00      -42.089        4.262      -11.889       14.881       15.254       13.651      221.449      232.684      186.342        0.129        0.032       42.304        6.116        0.021      331.160       -1.003      873.266
01/12/2022  03:50:00      -58.320       14.792      -17.358        8.225       11.003        9.929       67.654      121.058       98.579        0.210        0.014       60.166        6.181        0.011      331.201       -0.937      873.245
01/12/2022  03:51:00      -77.214       11.988      -14.835        9.202        6.983        7.365       84.682       48.759       54.238        0.326        0.009       78.139        3.233        0.002      331.288       -0.792      873.235
01/12/2022  03:52:00      -56.914       18.143      -19.952       12.257        9.878        8.655      150.222       97.571       74.913        0.214        0.016       59.736        5.478        0.008      331.537       -0.383      873.237
01/12/2022  03:53:00      -20.319       18.857      -15.552       10.949       10.256       14.369      119.891      105.192      206.482        0.072        0.022       27.721        8.164        0.087      331.497       -0.451      873.236
01/12/2022  03:54:00        9.567       19.256      -11.737       13.717       12.899        5.635      188.167      166.395       31.752        0.049        0.019       21.502        4.686        0.048      331.559       -0.346      873.240
01/12/2022  03:55:00       17.614       25.743       -5.612       17.807       11.800       12.493      317.085      139.232      156.087        0.081        0.031       31.192       11.183        0.129      331.562       -0.344      873.240
01/12/2022  03:56:00       22.492       17.652       -3.835        9.140        8.078        7.512       83.536       65.253       56.435        0.052        0.010       28.591        4.702        0.027      331.581       -0.311      873.242
01/12/2022  03:57:00       22.784       33.969       -3.393       12.771       12.208        7.704      163.087      149.039       59.348        0.103        0.019       40.903        6.709        0.027      331.496       -0.452      873.237
01/12/2022  03:58:00       35.212       30.634       -3.366       11.825        7.714        8.960      139.824       59.504       80.281        0.123        0.014       46.673        6.592        0.020      331.531       -0.393      873.223
01/12/2022  03:59:00       63.199       40.661       -8.643       11.193        7.656        7.325      125.280       58.616       53.655        0.298        0.012       75.150        5.345        0.005      331.545       -0.370      873.212
01/12/2022  04:00:00       75.668       49.275      -12.799       17.662        9.661        7.926      311.936       93.327       62.826        0.439        0.023       90.298        8.267        0.008      331.596       -0.286      873.194
01/12/2022  04:01:00       88.354       53.301      -12.161       10.481       10.837        7.616      109.858      117.450       58.009        0.554        0.014      103.187        5.060        0.002      331.570       -0.331      873.183
01/12/2022  04:02:00      102.076       39.521      -16.518       11.463       11.105        9.262      131.402      123.322       85.781        0.630        0.017      109.460        4.440        0.002      331.509       -0.431      873.175
01/12/2022  04:03:00      110.950       39.917      -11.025       22.238       18.399       14.193      494.525      338.522      201.446        0.753        0.052      117.912        7.793        0.004      331.584       -0.307      873.168
01/12/2022  04:04:00       74.803       12.786      -13.402       30.005       24.703       14.738      900.271      610.242      217.208        0.383        0.086       75.888        9.637        0.016      331.404       -0.602      873.161
01/12/2022  04:05:00       42.133       21.124      -17.761       23.631       24.130       16.239      558.444      582.272      263.691        0.197        0.070       47.132        6.682        0.020      331.370       -0.660      873.162
01/12/2022  04:06:00        3.448        3.991       -5.991       35.445       32.907       24.673     1256.359     1082.886      608.762        0.151        0.147        5.274        8.899        2.848      331.317       -0.745      873.159
01/12/2022  04:07:00      -21.482       -2.559      -23.236       18.917       16.740       12.474      357.858      280.224      155.593        0.090        0.040       21.634        4.572        0.045      331.316       -0.747      873.163
01/12/2022  04:08:00      -29.180       -7.228      -21.239       21.510       21.073       20.767      462.701      444.084      431.281        0.135        0.067       30.062       10.281        0.117      331.317       -0.746      873.161
01/12/2022  04:09:00      -19.835       -8.827      -10.963       25.104       18.289       19.763      630.226      334.491      390.583        0.097        0.068       21.710       13.076        0.363      331.267       -0.828      873.169
01/12/2022  04:10:00       -7.708       -8.875      -21.949       18.152       15.134       15.501      329.511      229.050      240.292        0.071        0.040       11.755        5.727        0.237      331.461       -0.508      873.171
01/12/2022  04:11:00      -32.997       -5.100       -7.883       22.882       18.544       17.457      523.569      343.884      304.760        0.117        0.059       33.389        7.448        0.050      331.302       -0.770      873.175
01/12/2022  04:12:00      -13.130      -37.437      -19.366       21.809       23.307       16.595      475.612      543.218      275.393        0.162        0.065       39.672       11.316        0.081      331.276       -0.814      873.180
01/12/2022  04:13:00       39.648      -73.728      -19.849       39.917       35.153       16.172     1593.354     1235.745      261.534        0.525        0.155       83.713       12.137        0.021      331.352       -0.689      873.175
01/12/2022  04:14:00       29.968      -25.399      -14.965       29.994       32.083       24.655      899.658     1029.338      607.888        0.215        0.127       39.283       21.163        0.290      331.440       -0.544      873.169
01/12/2022  04:15:00        4.968      -31.310       -8.106       29.184       24.990       22.593      851.727      624.497      510.430        0.153        0.099       31.701       16.492        0.271      331.359       -0.677      873.171
01/12/2022  04:16:00      -13.972       -8.020       -3.688       11.296       11.736        9.313      127.609      137.730       86.733        0.031        0.018       16.110        6.566        0.166      331.253       -0.851      873.171
01/12/2022  04:17:00      -11.935       -6.600       -5.786       16.923        7.808       11.708      286.378       60.958      137.067        0.035        0.024       13.638        4.219        0.096      331.277       -0.812      873.170
01/12/2022  04:18:00       12.442       11.482        3.322       22.401       20.819       15.129      501.803      433.422      228.900        0.073        0.058       16.931        6.501        0.147      331.263       -0.834      873.162
01/12/2022  04:19:00       20.402       19.969       -5.922       23.396       22.592       10.828      547.392      510.381      117.245        0.101        0.059       28.549        8.697        0.093      331.074       -1.145      873.142
01/12/2022  04:20:00        6.204        2.245      -18.551       22.489       26.853       15.698      505.757      721.098      246.421        0.093        0.074        6.598        5.896        0.799      331.150       -1.021      873.119
01/12/2022  04:21:00       26.798       24.226       -9.024       22.322       22.699       15.857      498.269      515.246      251.448        0.133        0.063       36.126        9.178        0.065      331.163       -0.999      873.093
01/12/2022  04:22:00       25.636       18.612       -3.607       26.431       25.684       19.596      698.599      659.661      384.001        0.138        0.087       31.680       12.739        0.162      331.094       -1.111      873.084
01/12/2022  04:23:00       44.290       17.271       -8.617       29.643       28.874       16.301      878.701      833.721      265.728        0.216        0.099       47.539       13.132        0.076      331.093       -1.115      873.077
01/12/2022  04:24:00       33.383       27.456      -18.595       20.522       32.579       22.691      421.173     1061.374      514.862        0.211        0.100       43.223       16.787        0.151      331.135       -1.046      873.075
01/12/2022  04:25:00       -9.172       -9.500      -17.886       23.440       18.875       15.046      549.449      356.281      226.369        0.081        0.057       13.205        5.859        0.197      331.319       -0.742      873.072
01/12/2022  04:26:00      -16.346       -8.827      -11.615       22.781       13.253       12.881      518.959      175.641      165.925        0.067        0.043       18.577       11.798        0.403      331.268       -0.827      873.079
01/12/2022  04:27:00      -15.345       -1.782      -20.004       19.070       20.738       15.953      363.652      430.051      254.504        0.084        0.052       15.448       14.480        0.879      331.166       -0.993      873.088
01/12/2022  04:28:00       18.660        7.927       -9.616       25.052       17.516       17.157      627.585      306.795      294.352        0.087        0.061       20.274       12.481        0.379      331.134       -1.046      873.089
01/12/2022  04:29:00       57.238       20.951      -13.643       13.503       15.363        9.104      182.332      236.023       82.887        0.220        0.025       60.952        4.575        0.006      331.106       -1.090      873.085
01/12/2022  04:30:00       65.625       32.147       -9.350        7.764        6.686        6.413       60.279       44.703       41.128        0.279        0.007       73.076        5.289        0.005      331.086       -1.124      873.067
01/12/2022  04:31:00       70.396       46.371       -8.580        9.888        8.703        6.386       97.779       75.738       40.779        0.370        0.011       84.296        6.030        0.005      331.083       -1.132      873.047
01/12/2022  04:32:00       58.157       29.297      -10.100       13.358       10.753        7.830      178.433      115.619       61.314        0.235        0.018       65.119        5.532        0.007      331.057       -1.173      873.036
01/12/2022  04:33:00       43.835       28.634       -9.932       10.068        8.032        5.946      101.355       64.510       35.356        0.152        0.010       52.358        3.002        0.003      331.073       -1.148      873.032
01/12/2022  04:34:00       38.517       31.917       -7.175        8.547       12.721        8.254       73.052      161.819       68.124        0.143        0.015       50.023        6.453        0.017      331.103       -1.097      873.031
01/12/2022  04:35:00       30.826       33.616       -5.459       11.382        8.999        8.912      129.551       80.986       79.415        0.120        0.014       45.610        5.703        0.016      331.093       -1.114      873.028
01/12/2022  04:36:00        5.425       36.693       -3.948       17.243        5.609        6.307      297.338       31.455       39.782        0.088        0.018       37.092        5.570        0.023      331.138       -1.041      873.030
01/12/2022  04:37:00       -6.643       18.848       -3.242       12.999        7.270        6.309      168.970       52.852       39.800        0.034        0.013       19.984        5.740        0.083      331.056       -1.175      873.033
01/12/2022  04:38:00      -26.697       16.332      -13.870        8.534        5.802        5.854       72.837       33.665       34.274        0.066        0.007       31.297        4.036        0.017      331.004       -1.262      873.028
01/12/2022  04:39:00      -24.077        7.247      -10.034       15.670       10.827        7.100      245.555      117.228       50.404        0.057        0.021       25.144        3.757        0.022      330.943       -1.360      873.028
01/12/2022  04:40:00      -45.450       13.114       -4.148       26.792       17.362       10.393      717.810      301.442      108.015        0.169        0.056       47.304       10.546        0.050      330.894       -1.441      873.027
01/12/2022  04:41:00      -72.742       21.954       -4.739       12.845       12.416       12.855      165.006      154.167      165.241        0.314        0.024       75.983        7.265        0.009      331.000       -1.268      873.027
01/12/2022  04:42:00      -67.448       16.137       -4.152       22.416       13.885       12.524      502.493      192.791      156.852        0.284        0.043       69.352       10.113        0.021      330.907       -1.421      873.024
01/12/2022  04:43:00      -49.255       14.942       -3.762       32.493       26.151       12.559     1055.814      683.890      157.728        0.228        0.095       51.471       15.376        0.089      330.904       -1.425      873.023
01/12/2022  04:44:00      -57.536       26.251       -6.526       21.286       16.125       16.483      453.093      260.012      271.705        0.251        0.049       63.242       10.374        0.027      330.856       -1.503      873.027
01/12/2022  04:45:00      -86.383       27.331       -8.340       28.224       27.334       15.174      796.569      747.149      230.255        0.503        0.089       90.603       11.873        0.017      330.851       -1.511      873.012
01/12/2022  04:46:00     -114.960       36.064      -14.710       18.688       14.130       15.856      349.239      199.650      251.417        0.777        0.040      120.484        8.132        0.005      330.784       -1.621      872.992
01/12/2022  04:47:00     -108.590       46.351      -11.718       16.145       18.231       13.461      260.677      332.361      181.205        0.743        0.039      118.069        7.603        0.004      330.810       -1.578      872.985
01/12/2022  04:48:00     -101.677       38.911      -12.955       23.893       18.680       15.949      570.874      348.954      254.368        0.660        0.059      108.868       10.187        0.009      330.773       -1.639      872.983
01/12/2022  04:49:00      -94.246       29.447       -8.747       24.602       24.442       14.579      605.253      597.431      212.549        0.562        0.071       98.739        6.744        0.005      330.778       -1.631      872.979
01/12/2022  04:50:00      -83.928       21.555       -9.410       49.583       26.876       22.037     2458.493      722.301      485.627        0.563        0.183       86.652       23.038        0.071      330.768       -1.647      872.979
01/12/2022  04:51:00     -101.721       22.471       -8.275       45.247       30.539       21.478     2047.305      932.656      461.291        0.718        0.172      104.174       19.047        0.033      330.765       -1.652      872.968
01/12/2022  04:52:00      -59.735       13.097       -7.958       43.391       29.330       19.309     1882.740      860.248      372.824        0.346        0.156       61.154       15.547        0.065      330.794       -1.605      872.959
01/12/2022  04:53:00      -18.729       -6.574      -10.871       41.535       27.642       23.569     1725.187      764.104      555.519        0.178        0.152       19.849       16.464        0.688      330.755       -1.668      872.949
01/12/2022  04:54:00      -17.466       12.273      -14.927       21.904       17.050       15.398      479.802      290.715      237.090        0.084        0.050       21.347       10.814        0.257      330.728       -1.713      872.935
01/12/2022  04:55:00       -6.024        0.174      -15.897       11.802       15.400       11.607      139.281      237.175      134.716        0.040        0.026        6.027        3.499        0.337      330.768       -1.647      872.922
01/12/2022  04:56:00      -56.440       18.646      -17.308       17.951       15.519       13.545      322.256      240.850      183.473        0.229        0.037       59.440        6.281        0.011      330.765       -1.653      872.903
01/12/2022  04:57:00      -83.008       37.448      -17.729       16.184       13.716       12.077      261.907      188.120      145.864        0.460        0.030       91.064        5.289        0.003      330.765       -1.653      872.898
01/12/2022  04:58:00      -94.341       28.116      -22.501       20.302       19.730       13.550      412.169      389.267      183.596        0.559        0.049       98.441        6.764        0.005      330.753       -1.672      872.897
01/12/2022  04:59:00      -71.424       11.604      -15.406       28.078       22.623       19.017      788.393      511.808      361.630        0.357        0.083       72.361       16.909        0.055      330.753       -1.672      872.900
01/12/2022  05:00:00      -50.839        5.769      -15.130       21.907       20.282       16.907      479.911      411.348      285.861        0.201        0.059       51.165       11.858        0.054      330.807       -1.584      872.897
01/12/2022  05:01:00      -55.243       13.572      -14.405       25.562       20.565       15.410      653.409      422.905      237.454        0.238        0.066       56.886        9.492        0.028      330.741       -1.692      872.892
01/12/2022  05:02:00      -44.626        8.553      -14.785       28.006       21.405       13.754      784.321      458.195      189.175        0.186        0.072       45.438       13.959        0.094      330.803       -1.590      872.895
01/12/2022  05:03:00        1.882        5.828       -4.814       19.456       17.254       18.045      378.525      297.700      325.621        0.053        0.050        6.124       11.419        3.477      330.741       -1.691      872.889
01/12/2022  05:04:00      -58.944       13.111      -20.659       19.765       21.076       15.060      390.655      444.211      226.805        0.257        0.053       60.384        8.440        0.020      330.799       -1.597      872.887
01/12/2022  05:05:00      -55.796       19.515      -11.255       19.527       16.134       11.276      381.317      260.313      127.146        0.219        0.038       59.111        7.948        0.018      330.792       -1.608      872.883
01/12/2022  05:06:00      -49.913       29.348       -9.553       23.199       10.448       11.749      538.212      109.157      138.033        0.211        0.039       57.901        7.343        0.016      330.813       -1.573      872.878
01/12/2022  05:07:00       -4.656       18.727      -23.826       10.630       10.186        8.285      113.004      103.753       68.637        0.061        0.014       19.297        5.676        0.087      330.785       -1.619      872.870
01/12/2022  05:08:00       12.360       14.711       -9.278       14.815       10.976       12.394      219.471      120.465      153.603        0.047        0.025       19.214        9.429        0.241      331.149       -1.021      872.861
01/12/2022  05:09:00       35.886       53.507       -5.279       18.053       18.474        9.814      325.903      341.294       96.313        0.247        0.038       64.427       11.206        0.030      331.457       -0.515      872.853
01/12/2022  05:10:00       31.400       50.691       -4.755       15.685       18.185       12.288      246.008      330.682      151.002        0.215        0.036       59.628       11.375        0.036      331.569       -0.331      872.854
01/12/2022  05:11:00       11.297       34.660       -1.036       19.192       18.156       14.614      368.315      329.646      213.560        0.112        0.046       36.455       11.684        0.103      331.364       -0.670      872.871
01/12/2022  05:12:00       34.078       43.206       -3.858       12.722        9.842        8.883      161.861       96.860       78.914        0.169        0.017       55.028        4.754        0.007      331.554       -0.355      872.885
01/12/2022  05:13:00       37.978       42.101       -7.960        8.782        9.118        6.075       77.115       83.142       36.908        0.174        0.010       56.699        2.575        0.002      331.655       -0.191      872.901
01/12/2022  05:14:00       39.308       40.852       -9.947       12.533       10.375        8.417      157.074      107.636       70.854        0.182        0.017       56.692        8.522        0.023      331.542       -0.377      872.925
01/12/2022  05:15:00       59.220       44.691       -9.234        6.037        6.062        5.436       36.440       36.744       29.549        0.285        0.005       74.190        2.578        0.001      331.549       -0.364      872.934
01/12/2022  05:16:00       66.234       45.572      -12.441        5.108        4.417        4.285       26.091       19.510       18.363        0.334        0.003       80.397        1.501        0.000      331.642       -0.208      872.939
01/12/2022  05:17:00       71.484       36.497      -12.750        6.145        8.378        4.352       37.756       70.198       18.936        0.337        0.006       80.262        1.577        0.000      331.639       -0.217      872.946
01/12/2022  05:18:00       75.820       44.354      -14.969        7.588        7.834        6.806       57.584       61.371       46.315        0.405        0.008       87.840        4.307        0.002      331.632       -0.226      872.954
01/12/2022  05:19:00       81.719       42.869      -11.960        7.112        6.226        3.544       50.577       38.757       12.561        0.438        0.005       92.281        3.219        0.001      331.606       -0.269      872.967
01/12/2022  05:20:00       61.122       45.844       -6.785       10.667        9.088        6.213      113.789       82.585       38.606        0.306        0.012       76.405        4.502        0.003      331.566       -0.337      873.002
01/12/2022  05:21:00       53.070       45.028        3.959       13.728       13.507       10.528      188.464      182.446      110.833        0.267        0.024       69.599        8.283        0.014      331.520       -0.413      873.023
01/12/2022  05:22:00       58.054       50.760       -1.352       11.723        8.381        5.238      137.437       70.238       27.441        0.309        0.012       77.116        2.604        0.001      331.577       -0.319      873.043
01/12/2022  05:23:00       58.094       44.551       -2.309       11.791        7.976        5.956      139.025       63.618       35.477        0.280        0.012       73.210        5.437        0.006      331.586       -0.304      873.062
01/12/2022  05:24:00       51.637       49.888       -3.556       22.674       18.296       11.059      514.116      334.754      122.304        0.307        0.049       71.800        7.837        0.012      331.512       -0.426      873.076
01/12/2022  05:25:00       64.769       58.972       -8.930       11.668        9.173        9.345      136.132       84.137       87.338        0.403        0.015       87.594        4.720        0.003      331.526       -0.402      873.086
01/12/2022  05:26:00       64.911       59.145       -3.738       16.453       11.901       10.302      270.704      141.642      106.135        0.412        0.026       87.815        4.948        0.003      331.497       -0.451      873.085
01/12/2022  05:27:00       79.295       57.837       -8.380       13.728       11.681        9.295      188.455      136.443       86.393        0.506        0.021       98.146        6.156        0.004      331.547       -0.368      873.075
01/12/2022  05:28:00       85.239       58.559       -9.079       11.807       10.210        8.606      139.415      104.240       74.063        0.555        0.016      103.416        5.442        0.003      331.521       -0.410      873.066
01/12/2022  05:29:00       87.882       56.147      -12.128       15.505       10.124        8.055      240.412      102.501       64.878        0.572        0.020      104.287        7.244        0.005      331.523       -0.409      873.046
01/12/2022  05:30:00       60.637       51.101       -3.987       18.551       11.273       11.559      344.123      127.084      133.605        0.345        0.030       79.298        9.539        0.014      331.450       -0.527      873.035
01/12/2022  05:31:00       45.679       39.364       -8.502       14.425       11.566        8.612      208.081      133.772       74.174        0.206        0.021       60.300        3.781        0.004      331.396       -0.616      873.025
01/12/2022  05:32:00       59.593       41.631      -10.100       13.050       13.109        7.928      170.309      171.834       62.846        0.290        0.020       72.695        4.149        0.003      331.379       -0.645      873.012
01/12/2022  05:33:00       83.666       40.123      -19.419       11.717       12.287       11.757      137.292      150.978      138.237        0.471        0.021       92.789        6.334        0.005      331.391       -0.623      872.996
01/12/2022  05:34:00      105.553       37.080      -14.493       16.070       21.346        9.718      258.256      455.645       94.449        0.677        0.040      111.877        5.216        0.002      331.369       -0.661      872.986
01/12/2022  05:35:00       93.025       17.822      -13.208       14.107       15.022       10.378      198.999      225.647      107.709        0.484        0.027       94.717        7.911        0.007      331.382       -0.640      872.969
01/12/2022  05:36:00       90.276       31.572      -10.642       10.814       11.564        7.041      116.947      133.732       49.571        0.478        0.015       95.637        5.996        0.004      331.348       -0.694      872.968
01/12/2022  05:37:00       86.182       28.936      -10.320        9.653       10.931        7.075       93.177      119.491       50.052        0.432        0.013       90.910        6.665        0.005      331.364       -0.668      872.972
01/12/2022  05:38:00       69.007       36.020      -10.462       16.930       13.827        9.685      286.626      191.193       93.799        0.337        0.029       77.843        7.520        0.009      331.371       -0.657      872.973
01/12/2022  05:39:00       61.754       32.209      -10.583        9.933       10.983        6.465       98.659      120.615       41.793        0.261        0.013       69.649        5.145        0.005      331.396       -0.615      872.988
01/12/2022  05:40:00       56.405       25.597       -6.110       12.465       12.157        7.315      155.373      147.789       53.511        0.212        0.018       61.941        6.244        0.010      331.375       -0.651      872.997
01/12/2022  05:41:00       35.901       22.711       -9.605       18.558       13.778       11.223      344.387      189.842      125.962        0.128        0.033       42.481        6.334        0.022      331.404       -0.602      873.008
01/12/2022  05:42:00       50.841       24.393      -10.958        8.568       15.159        8.820       73.417      229.801       77.788        0.184        0.019       56.390        5.957        0.011      331.364       -0.670      873.019
01/12/2022  05:43:00       37.789       20.443       -7.513       12.833        9.481        8.895      164.684       89.890       79.129        0.112        0.017       42.964        6.907        0.026      331.311       -0.755      873.029
01/12/2022  05:44:00       28.232        9.989       -7.902        9.426       13.253        7.905       88.848      175.654       62.493        0.064        0.016       29.947        6.788        0.051      331.349       -0.695      873.038
01/12/2022  05:45:00       42.457       43.204      -10.872        9.398        8.570        6.933       88.313       73.443       48.066        0.200        0.010       60.574        3.598        0.004      331.329       -0.728      873.055
01/12/2022  05:46:00       50.663       42.862       -9.984        6.940        6.544        6.888       48.158       42.819       47.444        0.232        0.007       66.362        1.637        0.001      331.335       -0.716      873.081
01/12/2022  05:47:00       67.257       22.087       -4.745       19.609       26.723       16.912      384.516      714.136      286.010        0.321        0.069       70.791       10.913        0.024      331.376       -0.650      873.097
01/12/2022  05:48:00       36.492       33.896       -3.112       18.445       21.768       10.278      340.215      473.861      105.629        0.170        0.046       49.806        7.771        0.024      331.328       -0.728      873.106
01/12/2022  05:49:00       27.884       24.180       -4.818       12.197       15.230        7.887      148.762      231.942       62.212        0.091        0.022       36.908        5.663        0.024      331.210       -0.922      873.109
01/12/2022  05:50:00        9.043       12.635        0.476       12.470        9.277       11.882      155.499       86.055      141.186        0.031        0.019       15.538        5.240        0.114      331.167       -0.992      873.107
01/12/2022  05:51:00       -0.510       -0.394      -10.147        8.014        5.468        7.913       64.228       29.896       62.615        0.013        0.008        0.644        4.148       41.440      331.109       -1.088      873.112
01/12/2022  05:52:00      -15.360        8.224       -3.740       11.437        9.564        7.178      130.810       91.475       51.526        0.030        0.014       17.423        5.730        0.108      331.119       -1.073      873.111
01/12/2022  05:53:00       -4.504       31.095       -4.423       21.927       15.899        9.015      480.794      252.779       81.275        0.091        0.041       31.419        8.102        0.066      331.237       -0.877      873.113
01/12/2022  05:54:00       -0.123       32.193        4.381       18.635       13.608        6.448      347.251      185.175       41.574        0.081        0.029       32.193        7.166        0.050      331.293       -0.786      873.111
01/12/2022  05:55:00       20.327       42.970        2.248       22.549       12.550       12.487      508.462      157.491      155.925        0.154        0.041       47.535       11.511        0.059      331.369       -0.662      873.118
01/12/2022  05:56:00       -6.935       48.897       -4.399       15.996       10.590       11.351      255.885      112.148      128.841        0.148        0.025       49.386        7.333        0.022      331.374       -0.652      873.126
01/12/2022  05:57:00      -13.532       38.453       -2.209       13.394       19.871       10.185      179.391      394.853      103.737        0.117        0.034       40.764        4.773        0.014      331.360       -0.675      873.141
01/12/2022  05:58:00       -1.413       -5.678       -1.164        9.549        6.566        5.895       91.186       43.113       34.755        0.010        0.008        5.851        4.381        0.561      331.145       -1.029      873.154
01/12/2022  05:59:00        0.496       -0.954       -4.596        8.621        5.364       12.042       74.319       28.771      145.004        0.014        0.012        1.075        6.861       40.715      331.174       -0.981      873.164
01/12/2022  06:00:00       -2.488        4.896        1.858        6.917        7.931        8.339       47.846       62.895       69.539        0.011        0.009        5.492        2.544        0.215      331.252       -0.852      873.172
01/12/2022  06:01:00      -14.518        2.667       -5.967       18.483       23.157        8.511      341.625      536.231       72.437        0.060        0.048       14.761       11.241        0.580      331.211       -0.920      873.181
01/12/2022  06:02:00      -42.597      -11.538      -11.983       15.540       10.651       13.428      241.478      113.437      180.305        0.131        0.027       44.132       10.891        0.061      331.105       -1.094      873.186
01/12/2022  06:03:00      -23.270        6.893       -5.249       11.702       15.050       10.996      136.947      226.492      120.910        0.055        0.024       24.269        9.236        0.145      331.064       -1.161      873.186
01/12/2022  06:04:00      -37.238        7.189       -8.186        7.892        7.803        8.026       62.288       60.890       64.413        0.085        0.009       37.925        5.440        0.021      331.021       -1.232      873.179
01/12/2022  06:05:00      -19.210        5.107       -4.794       12.781        9.171        7.090      163.342       84.103       50.261        0.036        0.015       19.877        6.471        0.106      331.031       -1.218      873.176
01/12/2022  06:06:00       -7.559       -1.068       -5.504        8.391        4.512        8.169       70.408       20.354       66.734        0.012        0.008        7.634        2.427        0.101      331.023       -1.229      873.177
01/12/2022  06:07:00      -22.353       14.829       -8.058       15.003       13.271        5.949      225.075      176.108       35.393        0.061        0.022       26.825        3.782        0.020      331.098       -1.106      873.184
01/12/2022  06:08:00      -35.640       14.106       -7.544        7.365        7.260        7.486       54.249       52.706       56.047        0.084        0.008       38.330        5.036        0.017      331.054       -1.179      873.197
01/12/2022  06:09:00      -32.481       11.214       -9.324        6.540       11.258        7.235       42.771      126.743       52.351        0.074        0.011       34.362        3.830        0.012      331.053       -1.181      873.216
01/12/2022  06:10:00      -29.727       12.062       -9.107        5.672        5.086        5.120       32.168       25.868       26.217        0.060        0.004       32.081        2.862        0.008      331.030       -1.219      873.237
01/12/2022  06:11:00      -28.297       10.469       -7.081        8.510        6.231        5.359       72.422       38.825       28.716        0.055        0.007       30.172        3.331        0.012      331.100       -1.104      873.258
01/12/2022  06:12:00       -5.002        9.763       -6.942        6.494        7.549        5.281       42.169       56.994       27.885        0.015        0.006       10.970        4.533        0.171      331.076       -1.142      873.273
01/12/2022  06:13:00       -0.107       -2.601      -10.667        2.538        4.067        3.470        6.441       16.540       12.043        0.008        0.002        2.603        2.587        0.987      331.057       -1.174      873.282
01/12/2022  06:14:00      -17.491        5.415       -5.646       12.530        9.823        8.975      157.006       96.500       80.558        0.035        0.017       18.310        8.214        0.201      331.199       -0.940      873.292
01/12/2022  06:15:00      -16.144       21.898      -10.510       15.505        9.136        7.755      240.412       83.459       60.141        0.062        0.019       27.206        5.916        0.047      331.176       -0.980      873.305
01/12/2022  06:16:00      -20.745        6.274      -16.028       11.162        8.336        7.934      124.589       69.485       62.948        0.049        0.013       21.673        6.315        0.085      331.110       -1.086      873.317
01/12/2022  06:17:00       -9.738       -5.486       -5.069        8.731       13.388        8.935       76.229      179.250       79.835        0.024        0.017       11.177        6.091        0.297      331.078       -1.139      873.323
01/12/2022  06:18:00      -28.479       13.387        0.777       18.622       28.038       14.617      346.774      786.116      213.653        0.117        0.067       31.469        7.844        0.062      331.207       -0.927      873.324
01/12/2022  06:19:00       -1.025       13.412      -10.613       14.256       10.638        9.163      203.222      113.177       83.955        0.035        0.020       13.451        4.607        0.117      331.118       -1.073      873.329
01/12/2022  06:20:00       -0.611        0.108       -5.368        6.580       10.718        6.541       43.293      114.884       42.787        0.012        0.010        0.620        6.274      102.296      331.141       -1.036      873.330
01/12/2022  06:21:00       -6.476       -4.179       -9.474        7.738        8.461        6.045       59.881       71.591       36.546        0.016        0.008        7.707        3.401        0.195      331.105       -1.094      873.327
01/12/2022  06:22:00      -14.277       -5.484       -5.005       12.659        9.732        8.685      160.255       94.706       75.430        0.029        0.017       15.294        7.067        0.213      331.119       -1.071      873.328
01/12/2022  06:23:00       -3.027       10.670       -3.213        4.639       10.765        9.033       21.516      115.883       81.589        0.018        0.011       11.091        8.492        0.586      331.073       -1.147      873.325
01/12/2022  06:24:00      -13.850        9.255       -5.592        7.785       10.195        5.894       60.605      103.942       34.743        0.025        0.010       16.658        4.125        0.061      330.975       -1.308      873.329
01/12/2022  06:25:00       -7.994       -2.333       -6.896        7.592        9.760        7.582       57.640       95.267       57.489        0.016        0.011        8.328        4.785        0.330      330.975       -1.307      873.332
01/12/2022  06:26:00      -31.863        8.887      -12.788       14.729        8.502        7.774      216.934       72.292       60.428        0.080        0.017       33.079        3.738        0.013      330.945       -1.358      873.329
01/12/2022  06:27:00       -4.359       -6.763       -5.116       12.275        8.876        8.581      150.674       78.778       73.635        0.020        0.015        8.046        6.988        0.754      330.911       -1.415      873.342
01/12/2022  06:28:00      -18.828        9.630       -4.999       22.343        9.968        6.947      499.196       99.365       48.260        0.056        0.032       21.148        6.911        0.107      330.848       -1.515      873.347
01/12/2022  06:29:00      -46.606       14.193      -11.282       10.131       14.957        7.503      102.633      223.703       56.302        0.144        0.019       48.720        5.460        0.013      330.955       -1.341      873.358
01/12/2022  06:30:00      -14.226        1.559       -6.300       16.264       13.979        7.692      264.504      195.420       59.162        0.038        0.026       14.311        4.169        0.085      330.946       -1.356      873.366
01/12/2022  06:31:00      -28.967        6.434       -8.610       32.511       14.459       10.592     1056.965      209.064      112.193        0.117        0.069       29.673        8.648        0.085      330.843       -1.525      873.373
01/12/2022  06:32:00      -71.991       13.683      -10.001       21.600       22.254       13.284      466.559      495.259      176.459        0.330        0.057       73.280       14.162        0.037      330.868       -1.484      873.382
01/12/2022  06:33:00      -60.084       15.019       -7.611       22.196       14.442       10.709      492.654      208.568      114.675        0.235        0.041       61.933        7.639        0.015      330.881       -1.463      873.391
01/12/2022  06:34:00      -54.733       20.387      -10.207       17.593       11.535       11.048      309.501      133.052      122.057        0.204        0.028       58.406        9.353        0.026      330.887       -1.452      873.402
01/12/2022  06:35:00      -45.084        4.316       -6.328       20.557       17.420       12.622      422.584      303.446      159.313        0.149        0.044       45.290       10.476        0.054      330.968       -1.320      873.410
01/12/2022  06:36:00      -13.752        4.607       -8.095       15.333       11.460       12.751      235.106      131.335      162.583        0.040        0.026       14.504        9.216        0.404      330.975       -1.309      873.410
01/12/2022  06:37:00      -15.296        2.161      -11.402       18.231       12.747       11.274      332.363      162.484      127.105        0.050        0.031       15.448        7.940        0.264      330.936       -1.373      873.419
01/12/2022  06:38:00      -18.274       12.175       -8.487       11.326       13.843        8.759      128.281      191.635       76.720        0.048        0.020       21.959        8.104        0.136      330.911       -1.414      873.420
01/12/2022  06:39:00      -25.224       14.581       -6.897        8.262        7.887        5.481       68.262       62.208       30.041        0.053        0.008       29.135        2.769        0.009      330.977       -1.305      873.417
01/12/2022  06:40:00      -19.099       11.918      -12.110        8.952        9.398        7.798       80.135       88.321       60.815        0.044        0.011       22.512        5.452        0.059      331.061       -1.166      873.408
01/12/2022  06:41:00        1.921       -8.744       -9.337        5.110        7.423        7.538       26.116       55.103       56.821        0.015        0.007        8.953        3.757        0.176      331.081       -1.134      873.405
01/12/2022  06:42:00       -2.060        1.832       -5.686        4.046        2.301        3.848       16.372        5.295       14.806        0.004        0.002        2.757        2.290        0.690      331.046       -1.190      873.409
01/12/2022  06:43:00      -15.605        8.598       -4.986        5.174        8.796        4.667       26.775       77.362       21.785        0.023        0.006       17.817        3.685        0.043      331.103       -1.099      873.409
01/12/2022  06:44:00      -13.874       -7.951       -4.947       17.419        8.515        9.536      303.429       72.509       90.940        0.037        0.023       15.991        9.821        0.377      330.888       -1.450      873.409
01/12/2022  06:45:00      -47.205        8.457      -20.925        8.018        9.727       11.385       64.282       94.622      129.624        0.151        0.014       47.957        4.825        0.010      330.926       -1.390      873.402
01/12/2022  06:46:00      -58.654       20.773      -15.506       21.107       11.871       12.741      445.521      140.916      162.342        0.243        0.037       62.224       10.462        0.028      330.871       -1.479      873.392
01/12/2022  06:47:00      -24.916       14.569       -8.880       32.406       19.281       13.920     1050.144      371.746      193.763        0.126        0.081       28.863        9.169        0.101      330.797       -1.600      873.393
01/12/2022  06:48:00      -62.219       24.829      -16.696       20.147       16.898       12.542      405.895      285.538      157.290        0.281        0.042       66.990        8.485        0.016      330.778       -1.631      873.396
01/12/2022  06:49:00      -62.636       17.506      -16.221       11.194       13.755       10.224      125.308      189.193      104.537        0.246        0.021       65.036        4.845        0.006      330.827       -1.550      873.405
01/12/2022  06:50:00      -45.475        1.844       -3.866       22.278       23.253       13.715      496.324      540.707      188.102        0.166        0.061       45.513       11.954        0.069      330.793       -1.606      873.400
01/12/2022  06:51:00      -21.208        2.027       -1.405       31.957       18.622       13.326     1021.267      346.787      177.570        0.100        0.077       21.304        6.529        0.094      330.769       -1.646      873.392
01/12/2022  06:52:00      -30.555        3.314       -8.276       26.171       21.775       11.406      684.936      474.159      130.105        0.115        0.064       30.734       11.925        0.151      330.787       -1.617      873.393
01/12/2022  06:53:00      -42.344        3.925       -3.383       15.829       15.446       14.111      250.542      238.594      199.116        0.125        0.034       42.526        8.972        0.045      330.820       -1.564      873.390
01/12/2022  06:54:00      -36.696       11.877       -4.794       18.667       10.611        8.663      348.444      112.596       75.047        0.102        0.027       38.570        6.604        0.029      330.779       -1.628      873.385
01/12/2022  06:55:00      -66.272       23.446       -5.244       14.002       17.389       10.834      196.065      302.391      117.373        0.279        0.031       70.297        6.525        0.009      330.805       -1.586      873.369
01/12/2022  06:56:00      -74.859       35.534       -9.351       20.416       15.855       15.361      416.808      251.369      235.967        0.393        0.045       82.865       14.948        0.033      330.753       -1.671      873.357
01/12/2022  06:57:00      -82.862       24.710      -11.545       20.939       12.369       11.220      438.445      153.004      125.879        0.416        0.036       86.468        5.724        0.004      330.890       -1.448      873.356
01/12/2022  06:58:00      -64.155       22.077        0.064       32.156       22.492       19.554     1034.032      505.910      382.367        0.326        0.096       67.847       18.061        0.071      330.831       -1.545      873.352
01/12/2022  06:59:00      -58.695        0.369       -1.783       25.081       22.319       20.584      629.068      498.147      423.696        0.250        0.078       58.696       16.929        0.083      330.897       -1.437      873.348
01/12/2022  07:00:00      -46.470        9.711      -14.983       30.717       24.390       15.572      943.545      594.852      242.490        0.213        0.089       47.474       11.463        0.058      330.821       -1.562      873.338
01/12/2022  07:01:00      -92.044       25.205       -9.524       29.074       18.683       14.517      845.307      349.063      210.755        0.530        0.070       95.432        7.651        0.006      330.786       -1.618      873.325
01/12/2022  07:02:00      -68.670       30.246      -11.537       26.712       13.836       13.893      713.513      191.423      193.028        0.343        0.055       75.036        6.577        0.008      330.686       -1.782      873.315
01/12/2022  07:03:00      -86.701       31.293      -14.662       25.735       25.543       16.326      662.305      652.464      266.537        0.515        0.079       92.175        7.170        0.006      330.672       -1.805      873.302
01/12/2022  07:04:00      -68.093       18.531       -5.432       31.207       19.357       15.462      973.847      374.699      239.085        0.330        0.079       70.569       15.230        0.047      330.707       -1.747      873.289
01/12/2022  07:05:00      -58.770        6.132       -9.154       31.692       22.504       13.819     1004.361      506.425      190.960        0.264        0.085       59.089       14.401        0.059      330.781       -1.627      873.273
01/12/2022  07:06:00      -35.269       11.969       -0.885       29.044       16.670       12.644      843.555      277.878      159.881        0.133        0.064       37.244       12.837        0.119      330.774       -1.637      873.262
01/12/2022  07:07:00      -68.107       24.298      -10.173       10.480        9.431        8.667      109.828       88.939       75.120        0.280        0.014       72.311        6.610        0.008      330.758       -1.662      873.246
01/12/2022  07:08:00      -58.164       12.172      -12.657       12.024       10.311       10.831      144.580      106.321      117.315        0.203        0.018       59.424        7.585        0.016      330.718       -1.729      873.246
01/12/2022  07:09:00      -67.455        9.613      -11.496       12.214       12.697        9.067      149.172      161.204       82.218        0.258        0.020       68.136        7.606        0.012      330.809       -1.578      873.237
01/12/2022  07:10:00      -55.821       14.027      -12.599        9.457       11.434        7.960       89.426      130.743       63.364        0.188        0.014       57.556        2.702        0.002      330.820       -1.562      873.235
01/12/2022  07:11:00      -78.748       22.365      -12.819        7.543        9.062        7.929       56.899       82.113       62.872        0.353        0.010       81.862        3.339        0.002      330.794       -1.605      873.243
01/12/2022  07:12:00      -97.027       22.787      -13.408       18.686       13.261       12.311      349.177      175.849      151.569        0.539        0.034       99.667        6.317        0.004      330.749       -1.677      873.246
01/12/2022  07:13:00      -94.494       23.579      -10.380       24.508       16.767       17.407      600.659      281.127      303.004        0.539        0.059       97.391       14.560        0.022      330.698       -1.761      873.260
01/12/2022  07:14:00     -108.327       28.476      -16.168       13.983       14.183       13.890      195.533      201.165      192.945        0.670        0.029      112.008        7.459        0.004      330.690       -1.775      873.279
01/12/2022  07:15:00      -88.979       32.736      -15.656       22.882       17.590       17.088      523.567      309.393      292.005        0.518        0.056       94.810       13.413        0.020      330.671       -1.806      873.297
01/12/2022  07:16:00      -92.876       47.297      -10.914       19.849       15.444       15.616      393.968      238.516      243.847        0.593        0.044      104.225        9.415        0.008      330.671       -1.806      873.301
01/12/2022  07:17:00     -112.236       41.540      -12.928       22.264       19.805       14.556      495.697      392.257      211.877        0.779        0.055      119.677        9.550        0.006      330.748       -1.680      873.308
01/12/2022  07:18:00      -76.319       24.613      -13.769       55.646       25.633       14.343     3096.449      657.032      205.718        0.529        0.198       80.190       10.737        0.018      330.733       -1.703      873.315
01/12/2022  07:19:00      -65.276        7.506      -12.150       37.123       19.748       16.335     1378.126      389.966      266.841        0.325        0.102       65.706       15.307        0.054      330.730       -1.709      873.318
01/12/2022  07:20:00      -51.351        9.862      -15.038       27.342       22.531       17.398      747.607      507.654      302.705        0.226        0.078       52.289       13.153        0.063      330.762       -1.657      873.319
01/12/2022  07:21:00      -62.286        3.904      -11.351       31.300       25.330       16.531      979.682      641.595      273.276        0.296        0.095       62.408       13.760        0.049      330.770       -1.643      873.323
01/12/2022  07:22:00      -51.115        0.603      -10.247       38.041       27.365       18.513     1447.092      748.838      342.717        0.263        0.127       51.118       19.191        0.141      330.700       -1.758      873.321
01/12/2022  07:23:00      -62.144        8.553      -15.557       17.170       15.158       13.911      294.817      229.773      193.505        0.245        0.036       62.730       11.504        0.034      330.716       -1.733      873.331
01/12/2022  07:24:00      -68.900        8.708      -17.269       27.296       17.702       14.500      745.087      313.346      210.240        0.319        0.063       69.448       13.734        0.039      330.738       -1.697      873.334
01/12/2022  07:25:00      -75.530       11.174      -20.130       27.457       18.438       16.346      753.882      339.956      267.186        0.380        0.068       76.352       12.470        0.027      330.681       -1.790      873.341
01/12/2022  07:26:00      -78.920       17.313       -7.852       27.437       24.071       17.735      752.809      579.398      314.539        0.412        0.082       80.797       15.457        0.037      330.712       -1.740      873.351
01/12/2022  07:27:00      -89.610       29.611      -10.495       20.636       22.667       13.017      425.855      513.800      169.437        0.506        0.055       94.376       11.255        0.014      330.650       -1.842      873.367
01/12/2022  07:28:00      -76.084       14.252      -13.753       24.167       19.408       14.260      584.059      376.656      203.359        0.367        0.058       77.407        8.158        0.011      330.710       -1.742      873.382
01/12/2022  07:29:00      -88.826       28.865      -15.529       20.720       13.824       15.813      429.303      191.099      250.066        0.492        0.044       93.399        8.785        0.009      330.676       -1.799      873.398
01/12/2022  07:30:00      -40.992        8.398      -12.989       30.733       26.357       22.107      944.536      694.708      488.718        0.202        0.106       41.844       18.211        0.189      330.732       -1.707      873.407
01/12/2022  07:31:00      -58.078        0.162       -4.627       41.986       25.443       23.598     1762.788      647.364      556.874        0.318        0.148       58.079       29.184        0.252      330.715       -1.734      873.417
01/12/2022  07:32:00      -47.671       -2.185       -9.334       32.655       20.500       15.153     1066.334      420.230      229.626        0.204        0.086       47.721       13.678        0.082      330.786       -1.619      873.428
01/12/2022  07:33:00      -74.489       17.439       -4.741       28.471       17.394       14.150      810.619      302.541      200.225        0.359        0.066       76.503       14.929        0.038      330.762       -1.658      873.437
01/12/2022  07:34:00      -58.916       11.626        0.161       35.764       21.885       16.903     1279.029      478.968      285.699        0.282        0.102       60.052       15.779        0.069      330.812       -1.575      873.450
01/12/2022  07:35:00      -68.969        1.533       -9.761       20.385       19.048       13.876      415.542      362.842      192.547        0.291        0.049       68.986        4.987        0.005      330.831       -1.545      873.463
01/12/2022  07:36:00      -54.702        2.995       -4.498       33.348       24.226       13.538     1112.070      586.920      183.283        0.245        0.094       54.784       15.482        0.080      330.892       -1.444      873.477
01/12/2022  07:37:00      -13.226        6.219      -10.598       18.726       19.824       16.892      350.666      392.983      285.323        0.068        0.051       14.615       11.768        0.648      330.885       -1.455      873.488
01/12/2022  07:38:00      -31.847        3.645       -3.640       26.862       28.199       25.601      721.564      795.169      655.414        0.161        0.109       32.055       20.507        0.409      330.923       -1.393      873.497
01/12/2022  07:39:00      -43.786        7.507      -10.556       24.166       20.282       15.928      583.977      411.341      253.688        0.167        0.062       44.425        8.989        0.041      330.852       -1.510      873.505
01/12/2022  07:40:00      -20.988        3.353       -7.728       28.234       15.859        9.656      797.134      251.516       93.233        0.083        0.057       21.254        9.313        0.192      330.922       -1.395      873.511
01/12/2022  07:41:00      -34.965        5.466        3.307       35.119       14.135       13.100     1233.370      199.784      171.599        0.143        0.080       35.390       13.964        0.156      330.892       -1.444      873.508
01/12/2022  07:42:00      -66.003       25.827       -4.026       22.623       14.768       12.359      511.795      218.081      152.746        0.296        0.044       70.876       10.153        0.021      330.882       -1.461      873.505
01/12/2022  07:43:00      -63.356       31.936       -5.060       21.619       11.837       11.447      467.371      140.122      131.029        0.290        0.037       70.950        9.223        0.017      330.864       -1.491      873.509
01/12/2022  07:44:00      -67.452       25.386       -4.969       21.695       13.482       11.461      470.692      181.753      131.356        0.300        0.039       72.071       11.645        0.026      330.871       -1.480      873.511
01/12/2022  07:45:00      -53.990       25.276      -11.799       11.359       14.406       12.683      129.022      207.522      160.855        0.210        0.025       59.613        3.211        0.003      330.916       -1.405      873.516
01/12/2022  07:46:00      -61.686       31.326      -11.551       13.453       14.221       12.123      180.985      202.239      146.961        0.272        0.027       69.185        5.538        0.006      330.927       -1.386      873.525
01/12/2022  07:47:00      -59.387       33.596       -9.680       15.774       13.875        9.109      248.825      192.521       82.965        0.264        0.026       68.232        5.146        0.006      330.951       -1.348      873.534
01/12/2022  07:48:00      -67.523       28.339      -15.950       13.936       15.503       13.337      194.208      240.351      177.868        0.311        0.031       73.228        8.835        0.015      330.954       -1.344      873.554
01/12/2022  07:49:00      -27.013       12.976       -8.913       21.864       16.300       10.682      478.048      265.689      114.103        0.092        0.043       29.968        8.937        0.089      330.974       -1.311      873.568
01/12/2022  07:50:00      -42.183        1.027      -10.169       33.895       29.663       18.084     1148.841      879.875      327.027        0.212        0.118       42.195       15.253        0.131      330.931       -1.380      873.581
01/12/2022  07:51:00      -62.633       26.544      -16.041       27.946       18.582       10.685      780.962      345.279      114.164        0.306        0.062       68.025        4.865        0.005      330.919       -1.401      873.588
01/12/2022  07:52:00      -84.239       26.634      -11.499       24.251       25.765       17.906      588.134      663.858      320.611        0.475        0.079       88.350       13.947        0.025      331.015       -1.242      873.593
01/12/2022  07:53:00      -77.788       27.268      -13.360       22.902       21.425       12.824      524.479      459.013      164.457        0.406        0.057       82.429       10.169        0.015      331.033       -1.213      873.590
01/12/2022  07:54:00      -69.612       32.308      -10.389       28.426       18.271       14.712      808.048      333.815      216.436        0.368        0.068       76.744       13.869        0.033      331.051       -1.184      873.599
01/12/2022  07:55:00      -76.413       13.137      -10.359       23.203       10.664       12.109      538.368      113.730      146.635        0.346        0.040       77.534       11.993        0.024      331.069       -1.154      873.619
01/12/2022  07:56:00      -58.138       25.994       -8.393       15.049       15.210       11.948      226.478      231.347      142.756        0.236        0.030       63.685        6.378        0.010      331.085       -1.127      873.632
01/12/2022  07:57:00      -58.442       20.382       -2.738       19.848       14.818       12.351      393.935      219.581      152.552        0.230        0.038       61.894       10.610        0.029      331.117       -1.075      873.651
01/12/2022  07:58:00      -73.144       28.416       -4.955       18.844       15.500       11.838      355.113      240.239      140.133        0.346        0.037       78.469        8.632        0.012      331.112       -1.083      873.674
01/12/2022  07:59:00      -72.231        6.433       -6.974       26.460       17.950       14.899      700.152      322.188      221.983        0.328        0.062       72.517       11.708        0.026      331.221       -0.902      873.698
01/12/2022  08:00:00      -61.507       13.155       -6.056       18.467       19.029       14.089      341.024      362.096      198.503        0.245        0.045       62.899        9.910        0.025      331.197       -0.943      873.726
01/12/2022  08:01:00      -40.768        0.040       -6.788       26.958       17.349       12.693      726.721      300.998      161.120        0.145        0.059       40.768       13.543        0.110      331.302       -0.770      873.755
01/12/2022  08:02:00      -24.510        2.709       -2.807       14.133       19.596       14.122      199.754      383.984      199.438        0.070        0.039       24.660        8.744        0.126      331.305       -0.765      873.789
01/12/2022  08:03:00      -76.960       12.270       -6.362       25.530       16.190       14.745      651.792      262.125      217.401        0.362        0.057       77.932       12.969        0.028      331.248       -0.859      873.820
01/12/2022  08:04:00      -75.047      -12.933       -7.363       28.763       12.961       13.313      827.295      167.975      177.234        0.351        0.059       76.153       13.684        0.032      331.356       -0.682      873.846
01/12/2022  08:05:00      -64.759       -5.172      -11.064       29.977       22.190       16.580      898.611      492.378      274.889        0.300        0.083       64.965        9.791        0.023      331.399       -0.611      873.857
01/12/2022  08:06:00      -37.872       -4.029       -4.640       21.661       17.437       13.405      469.195      304.037      179.694        0.121        0.048       38.086        8.773        0.053      331.418       -0.581      873.861
01/12/2022  08:07:00      -73.288       15.808      -14.153        8.105        8.386        7.231       65.693       70.332       52.289        0.300        0.009       74.974        2.647        0.001      331.518       -0.417      873.859
01/12/2022  08:08:00      -37.290        6.407      -11.281       24.347       16.506       13.943      592.789      272.435      194.396        0.131        0.053       37.837       14.571        0.148      331.525       -0.406      873.845
01/12/2022  08:09:00      -51.387       27.665      -11.439       23.399       23.231       11.254      547.513      539.662      126.649        0.238        0.061       58.361       11.559        0.039      331.535       -0.388      873.833
01/12/2022  08:10:00      -76.092       50.887       -5.567       25.714       18.633       15.583      661.211      347.183      242.842        0.483        0.063       91.540        7.623        0.007      331.534       -0.388      873.819
01/12/2022  08:11:00      -75.305       39.886      -10.331       17.798       16.319       10.805      316.766      266.303      116.756        0.403        0.035       85.216        8.344        0.010      331.595       -0.288      873.804
01/12/2022  08:12:00      -38.959       24.063      -12.163       16.938       15.992        8.972      286.912      255.734       80.495        0.143        0.031       45.791        7.986        0.030      331.703       -0.111      873.794
01/12/2022  08:13:00      -29.039        7.467       -9.568       12.540       10.756       12.775      157.258      115.681      163.212        0.071        0.022       29.984        7.526        0.063      331.706       -0.105      873.797
01/12/2022  08:14:00      -58.307       29.881       -9.789       13.626       12.515        9.272      185.676      156.628       85.967        0.241        0.021       65.518        5.983        0.008      331.712       -0.094      873.801
01/12/2022  08:15:00      -49.018       27.838       -9.614       12.712       11.570       11.488      161.592      133.862      131.982        0.185        0.021       56.371        5.288        0.009      331.745       -0.041      873.813
01/12/2022  08:16:00      -21.818       16.938       -8.047       11.646       11.159        5.472      135.629      124.525       29.942        0.056        0.015       27.621        3.216        0.014      331.762       -0.011      873.830
01/12/2022  08:17:00      -14.833        2.408       -5.616       11.660        7.753        5.712      135.962       60.107       32.622        0.024        0.011       15.027        1.581        0.011      331.881        0.183      873.844
01/12/2022  08:18:00      -17.808        7.109       -5.114        9.415       18.221        8.047       88.646      332.013       64.757        0.044        0.024       19.174        4.537        0.056      331.793        0.038      873.861
01/12/2022  08:19:00      -10.192        7.768       -9.740        8.277        9.536        7.816       68.508       90.942       61.094        0.024        0.011       12.815        4.623        0.130      331.923        0.252      873.873
01/12/2022  08:20:00      -35.853        7.262       -9.175       12.341        7.669        8.108      152.295       58.819       65.732        0.085        0.014       36.581        5.815        0.025      331.820        0.083      873.873
01/12/2022  08:21:00      -10.938       12.811       -4.664       19.192        6.667        6.760      368.341       44.445       45.695        0.038        0.023       16.845        4.448        0.070      331.924        0.254      873.871
01/12/2022  08:22:00       -6.119        4.846       -4.426        5.335        6.084        3.997       28.465       37.017       15.977        0.008        0.004        7.806        3.893        0.249      332.076        0.504      873.872
01/12/2022  08:23:00      -17.114        2.289       -2.602       13.050        6.374        7.769      170.302       40.625       60.357        0.029        0.014       17.266        4.882        0.080      332.023        0.416      873.879
01/12/2022  08:24:00      -35.171        1.797      -16.666       17.522       13.756       12.037      307.005      189.231      144.885        0.108        0.032       35.217        8.854        0.063      332.015        0.403      873.890
01/12/2022  08:25:00      -42.936       -3.830      -20.860       13.127        9.732       10.850      172.318       94.704      117.716        0.134        0.019       43.107        7.372        0.029      331.993        0.368      873.908
01/12/2022  08:26:00      -29.005       -7.555        2.410       26.302       20.528       13.624      691.779      421.413      185.621        0.110        0.065       29.973       13.108        0.191      332.054        0.467      873.920
01/12/2022  08:27:00      -42.659       -5.715      -21.690       13.432       10.057       11.745      180.408      101.138      137.951        0.137        0.021       43.040        2.895        0.005      331.955        0.304      873.938
01/12/2022  08:28:00      -30.625       -5.623      -19.140       16.455       11.712       11.860      270.769      137.163      140.656        0.094        0.027       31.137        6.287        0.041      332.001        0.380      873.944
01/12/2022  08:29:00      -33.700      -10.559      -20.380       23.913       18.246       16.011      571.821      332.900      256.344        0.141        0.058       35.315        8.234        0.054      332.059        0.476      873.938
01/12/2022  08:30:00        7.538      -13.858      -16.157       34.605       29.826       25.677     1197.474      889.605      659.322        0.163        0.137       15.775       18.333        1.351      332.200        0.708      873.938
01/12/2022  08:31:00       31.867      -11.028      -25.564       38.857       37.974       34.323     1509.857     1442.019     1178.095        0.296        0.206       33.721       18.424        0.299      332.253        0.796      873.928
01/12/2022  08:32:00       90.180      -14.778      -17.396       43.651       37.803       27.411     1905.374     1429.103      751.378        0.637        0.204       91.382       28.127        0.095      332.043        0.449      873.920
01/12/2022  08:33:00       31.093       10.579       -1.834       36.639       47.829       25.195     1342.389     2287.601      634.785        0.267        0.213       32.843       13.667        0.173      332.306        0.882      873.919
01/12/2022  08:34:00       60.806       57.177      -12.376       29.138       21.877       24.885      848.998      478.596      619.266        0.453        0.097       83.466        7.187        0.007      332.088        0.522      873.916
01/12/2022  08:35:00       77.075       52.879      -11.367       19.909       25.042       14.379      396.372      627.083      206.744        0.505        0.062       93.471       10.676        0.013      332.052        0.463      873.917
01/12/2022  08:36:00       47.334       36.916      -13.553       38.049       40.854       18.949     1447.755     1669.064      359.074        0.363        0.174       60.028       17.650        0.086      332.207        0.719      873.921
01/12/2022  08:37:00       85.490       62.089      -19.276       23.190       26.921       15.846      537.795      724.723      251.084        0.652        0.076      105.658        8.026        0.006      332.130        0.592      873.928
01/12/2022  08:38:00       82.334       65.122      -17.209       22.778       17.049       19.616      518.837      290.661      384.793        0.625        0.060      104.975       12.603        0.014      332.050        0.460      873.929
01/12/2022  08:39:00       35.591       10.405       -3.829       37.498       48.622       31.280     1406.068     2364.056      978.422        0.307        0.237       37.080       26.484        0.510      332.414        1.061      873.929
01/12/2022  08:40:00       41.420       24.657      -26.242       30.992       47.117       23.869      960.489     2220.005      569.707        0.338        0.188       48.203       10.074        0.044      332.453        1.125      873.927
01/12/2022  08:41:00       47.871      -55.021      -26.952       46.023       46.714       30.441     2118.075     2182.167      926.641        0.564        0.261       72.931       14.648        0.040      332.598        1.366      873.924
01/12/2022  08:42:00       79.759      -80.883      -35.823       35.789       44.820       27.094     1280.839     2008.870      734.061        0.910        0.201      113.594       13.631        0.014      332.468        1.149      873.928
01/12/2022  08:43:00       80.780      -40.738      -35.582       44.889       58.742       37.819     2015.026     3450.626     1430.240        0.817        0.345       90.471       31.632        0.122      332.382        1.008      873.934
01/12/2022  08:44:00       97.678       11.301      -29.786       49.230       69.426       32.378     2423.558     4819.918     1048.337        0.942        0.415       98.329       26.094        0.070      332.420        1.071      873.946
01/12/2022  08:45:00      121.187       49.924      -35.493       44.322       54.524       30.731     1964.395     2972.891      944.423        1.216        0.294      131.067       28.439        0.047      332.208        0.721      873.947
01/12/2022  08:46:00       -4.472       10.827      -25.806       45.414       53.846       31.982     2062.418     2899.426     1022.820        0.339        0.299       11.714       28.062        5.739      332.373        0.993      873.941
01/12/2022  08:47:00      -46.880       -7.663      -10.055       39.716       31.022       27.448     1577.341      962.377      753.393        0.282        0.165       47.502        9.001        0.036      332.392        1.024      873.938
01/12/2022  08:48:00      -10.415      -10.230       -8.807       30.746       44.675       28.100      945.338     1995.868      789.586        0.201        0.187       14.599       23.632        2.620      332.327        0.919      873.950
01/12/2022  08:49:00      -25.547      -27.214        1.332       51.344       51.657       37.702     2636.219     2668.395     1421.447        0.406        0.336       37.326       29.298        0.616      332.427        1.083      873.959
01/12/2022  08:50:00      -11.291       21.118      -13.643       38.040       28.939       24.864     1447.022      837.471      618.229        0.183        0.145       23.947       12.514        0.273      332.435        1.095      873.973
01/12/2022  08:51:00       -6.608      -37.337      -13.268       40.040       54.756       39.020     1603.172     2998.268     1522.528        0.387        0.306       37.917       24.213        0.408      332.633        1.423      873.976
01/12/2022  08:52:00       13.345      -11.755      -22.069       23.695       27.125       16.733      561.442      735.764      279.980        0.119        0.079       17.784       13.886        0.610      332.747        1.612      873.976
01/12/2022  08:53:00        0.251      -14.908      -26.610       30.398       25.191       23.678      924.051      634.578      560.653        0.152        0.106       14.910       17.961        1.451      332.642        1.439      873.966
01/12/2022  08:54:00       41.393       16.602      -33.911       31.794       38.193       22.338     1010.878     1458.690      498.992        0.305        0.148       44.598       14.816        0.110      332.354        0.961      873.948
01/12/2022  08:55:00       53.679       48.567        2.000       41.697       53.134       27.267     1738.604     2823.171      743.516        0.527        0.265       72.389       20.713        0.082      332.175        0.666      873.937
01/12/2022  08:56:00       51.167       42.349       -9.116       37.368       52.879       28.848     1396.377     2796.224      832.194        0.476        0.251       66.419       22.185        0.112      332.275        0.830      873.933
01/12/2022  08:57:00       43.199       51.543       -1.622       41.225       46.679       31.804     1699.514     2178.937     1011.487        0.471        0.244       67.252       21.489        0.102      332.315        0.898      873.918
01/12/2022  08:58:00       61.044       21.294      -15.405       34.738       40.893       28.621     1206.718     1672.198      819.138        0.406        0.185       64.652       18.492        0.082      332.481        1.173      873.904
01/12/2022  08:59:00       77.500       55.435      -25.534       25.294       31.349       21.511      639.767      982.737      462.703        0.591        0.104       95.285        8.837        0.009      332.316        0.899      873.904
01/12/2022  09:00:00       67.146       50.883      -35.366       31.174       34.065       23.275      971.802     1160.446      541.745        0.551        0.134       84.248       10.144        0.014      332.441        1.106      873.893
01/12/2022  09:01:00       40.347       10.377      -34.571       30.247       43.192       20.730      914.871     1865.586      429.717        0.307        0.161       41.660       14.184        0.116      332.607        1.380      873.891
01/12/2022  09:02:00       20.198       -5.204      -25.049       46.473       32.408       17.839     2159.757     1050.308      318.234        0.229        0.176       20.858       16.671        0.639      332.737        1.595      873.883
01/12/2022  09:03:00        7.235      -44.851      -12.106       51.714       50.466       28.669     2674.363     2546.785      821.935        0.413        0.302       45.431       28.052        0.381      332.625        1.410      873.877
01/12/2022  09:04:00       50.732      -14.324      -19.526       27.902       54.770       30.438      778.526     2999.803      926.479        0.393        0.235       52.716       28.330        0.289      332.753        1.622      873.872
01/12/2022  09:05:00        4.002      -34.866       -6.816       35.559       57.404       29.922     1264.474     3295.215      895.351        0.337        0.273       35.095       28.349        0.653      332.824        1.738      873.862
01/12/2022  09:06:00       41.623       54.430       -1.962       42.353       54.730       35.811     1793.809     2995.415     1282.421        0.538        0.304       68.521       14.271        0.043      332.613        1.390      873.866
01/12/2022  09:07:00       -7.528       29.866       -6.769       44.892       34.296       25.825     2015.266     1176.202      666.942        0.243        0.193       30.800       18.506        0.361      332.512        1.224      873.862
01/12/2022  09:08:00      -18.176       -1.131       -6.560       34.246       24.379       19.524     1172.821      594.349      381.187        0.126        0.107       18.211       13.117        0.519      332.731        1.584      873.864
01/12/2022  09:09:00       24.104       40.740       -9.378       39.438       39.260       29.216     1555.320     1541.365      853.546        0.314        0.198       47.337       10.883        0.053      332.774        1.655      873.876
01/12/2022  09:10:00      -15.782      -23.144      -18.434       25.563       35.112       25.781      653.468     1232.860      664.670        0.184        0.128       28.012       13.274        0.225      332.819        1.730      873.880
01/12/2022  09:11:00       50.574       41.031      -35.224       50.202       39.103       22.560     2520.242     1529.018      508.973        0.502        0.228       65.125       12.615        0.038      332.741        1.601      873.880
01/12/2022  09:12:00       45.336      -43.817      -31.815       33.938       60.630       27.220     1151.780     3675.954      740.938        0.528        0.278       63.050       13.767        0.048      332.955        1.955      873.880
01/12/2022  09:13:00       45.755        5.423      -15.366       36.510       56.335       37.116     1332.983     3173.625     1377.620        0.412        0.294       46.076       24.130        0.274      332.872        1.818      873.880
01/12/2022  09:14:00       13.960        6.912      -10.564       32.117       53.535       24.288     1031.496     2866.011      589.889        0.242        0.224       15.577       24.230        2.419      333.006        2.039      873.879
01/12/2022  09:15:00       35.407      -43.286      -23.502       47.242       67.057       36.179     2231.849     4496.689     1308.914        0.586        0.402       55.922       29.144        0.272      333.049        2.110      873.877
01/12/2022  09:16:00       20.939       -8.458      -29.430       63.120       51.867       29.386     3984.143     2690.229      863.510        0.446        0.377       22.583       29.104        1.661      333.171        2.311      873.876
01/12/2022  09:17:00       33.892       -6.626      -24.538       36.642       41.729       32.058     1342.663     1741.301     1027.738        0.295        0.206       34.533       21.100        0.373      333.243        2.431      873.870
01/12/2022  09:18:00       48.638      -66.986      -33.867       36.813       43.413       29.504     1355.179     1884.719      870.472        0.605        0.206       82.782       16.833        0.041      333.050        2.111      873.862
01/12/2022  09:19:00       69.809      -64.632      -15.827       51.861       55.501       32.549     2689.529     3080.399     1059.468        0.806        0.341       95.134       24.892        0.068      333.023        2.066      873.855
01/12/2022  09:20:00       35.638      -54.161      -32.937       41.089       47.253       36.251     1688.306     2232.855     1314.160        0.526        0.262       64.835       24.100        0.138      333.479        2.821      873.871
01/12/2022  09:21:00       15.774      -48.164      -15.016       45.041       51.407       35.891     2028.660     2642.707     1288.140        0.438        0.298       50.681       18.329        0.131      333.300        2.525      873.873
01/12/2022  09:22:00       28.570      -71.717       -4.085       30.998       70.978       28.371      960.895     5037.895      804.936        0.639        0.340       77.198       21.609        0.078      333.198        2.356      873.893
01/12/2022  09:23:00       30.273      -27.863      -31.813       29.556       36.098       21.770      873.561     1303.057      473.952        0.268        0.133       41.144       12.167        0.087      333.351        2.611      873.911
01/12/2022  09:24:00       -5.579       -1.053      -14.577       33.158       30.119       24.359     1099.478      907.134      593.359        0.142        0.130        5.678       15.434        7.389      333.254        2.450      873.921
01/12/2022  09:25:00       11.928        6.196      -11.505       38.711       28.834       23.973     1498.545      831.411      574.714        0.161        0.145       13.441        8.835        0.432      333.280        2.493      873.924
01/12/2022  09:26:00       34.353      -79.005      -21.151       43.593       54.212       30.590     1900.348     2938.937      935.762        0.682        0.289       86.151       32.646        0.144      333.132        2.247      873.904
01/12/2022  09:27:00       35.368      -75.165      -10.503       36.523       50.866       34.655     1333.910     2587.362     1200.947        0.607        0.256       83.070       19.951        0.058      333.145        2.268      873.889
01/12/2022  09:28:00       13.164      -10.385       -6.486       37.927       47.323       37.927     1438.491     2239.420     1438.491        0.272        0.256       16.767       16.463        0.964      333.399        2.690      873.867
01/12/2022  09:29:00       91.497      -16.470      -34.427       67.999       53.938       35.103     4623.906     2909.317     1232.254        0.930        0.438       92.968       29.276        0.099      333.353        2.612      873.846
01/12/2022  09:30:00       88.803      -15.290      -35.606       55.379       44.127       39.631     3066.832     1947.220     1570.605        0.798        0.329       90.109       23.118        0.066      333.326        2.570      873.834
01/12/2022  09:31:00       64.657      -61.174      -25.308       58.824       47.515       33.112     3460.250     2257.667     1096.420        0.769        0.341       89.010       25.485        0.082      333.270        2.475      873.834
01/12/2022  09:32:00       24.541       -6.711       -6.006       34.710       52.618       38.688     1204.757     2768.630     1496.778        0.308        0.274       25.442       27.806        1.194      333.481        2.825      873.844
01/12/2022  09:33:00       41.026       39.273        1.793       36.490       47.619       26.349     1331.517     2267.592      694.276        0.376        0.215       56.794       25.577        0.203      333.358        2.623      873.853
01/12/2022  09:34:00       72.978      -24.580      -36.476       52.902       61.175       27.539     2798.630     3742.364      758.370        0.728        0.365       77.007       23.207        0.091      333.377        2.652      873.863
01/12/2022  09:35:00       60.471       -6.253      -17.771       48.507       49.465       31.425     2352.922     2446.779      987.530        0.490        0.289       60.794       23.276        0.147      333.327        2.571      873.874
01/12/2022  09:36:00       81.774      -18.860      -20.633       34.462       48.524       26.010     1187.610     2354.541      676.496        0.584        0.211       83.921       22.802        0.074      333.170        2.311      873.867
01/12/2022  09:37:00       45.671      -10.671       -8.453       47.410       44.360       31.678     2247.711     1967.826     1003.482        0.374        0.261       46.901       23.419        0.249      333.564        2.962      873.859
01/12/2022  09:38:00       75.116        2.821      -30.672       42.409       54.395       36.902     1798.499     2958.768     1361.758        0.635        0.306       75.169       20.014        0.071      333.359        2.623      873.835
01/12/2022  09:39:00       85.158      -22.115      -41.914       51.818       45.713       32.732     2685.097     2089.682     1071.386        0.767        0.292       87.982       22.832        0.067      333.519        2.889      873.818
01/12/2022  09:40:00       84.855       15.989      -35.637       43.730       51.582       31.459     1912.339     2660.718      989.682        0.714        0.278       86.348       19.518        0.051      333.334        2.583      873.805
01/12/2022  09:41:00       72.080        2.726      -38.095       37.472       52.185       34.703     1404.114     2723.240     1204.328        0.599        0.267       72.132       17.723        0.060      333.413        2.712      873.792
01/12/2022  09:42:00       80.014       21.686      -39.689       39.217       57.507       31.607     1537.959     3307.079      998.996        0.714        0.292       82.901       14.466        0.030      333.406        2.701      873.793
01/12/2022  09:43:00       15.782      -24.798      -15.513       42.842       64.179       33.205     1835.402     4118.945     1102.565        0.408        0.353       29.394       23.203        0.623      333.540        2.922      873.790
01/12/2022  09:44:00       27.354       10.448        1.170       52.926       99.449       50.169     2801.154     9890.109     2516.960        0.803        0.760       29.282       35.956        1.508      333.548        2.934      873.786
01/12/2022  09:45:00       41.897      -37.038      -13.866       48.791       88.109       40.033     2380.522     7763.189     1602.651        0.753        0.587       55.921       17.951        0.103      333.508        2.868      873.773
01/12/2022  09:46:00       65.058     -134.602      -32.770       42.346       58.698       36.136     1793.195     3445.427     1305.804        1.498        0.327      149.500       20.080        0.018      333.566        2.965      873.762
01/12/2022  09:47:00       32.925       19.399      -37.190       52.611       68.708       43.280     2767.940     4720.736     1873.163        0.610        0.468       38.215       26.167        0.469      333.606        3.031      873.754
01/12/2022  09:48:00      -40.199        9.099       -6.946       54.764       38.292       41.104     2999.105     1466.246     1689.571        0.395        0.308       41.216        8.961        0.047      333.599        3.020      873.755
01/12/2022  09:49:00       -0.384      -14.817      -14.285       44.002       50.492       45.355     1936.197     2549.414     2057.037        0.348        0.327       14.822       29.449        3.948      333.731        3.238      873.763
01/12/2022  09:50:00       52.581     -117.582      -40.651       52.817       70.415       23.770     2789.638     4958.335      565.033        1.328        0.416      128.804       22.500        0.031      333.352        2.611      873.754
01/12/2022  09:51:00       83.111       47.791      -33.784       61.959       95.864       41.263     3838.895     9189.847     1702.640        1.253        0.737       95.872       32.801        0.117      333.484        2.830      873.750
01/12/2022  09:52:00       70.303        7.893      -20.991       39.746       42.249       34.890     1579.766     1784.957     1217.301        0.501        0.229       70.745       23.213        0.108      333.683        3.160      873.727
01/12/2022  09:53:00       56.763      -33.407      -32.474       39.648       53.413       25.354     1571.955     2852.950      642.846        0.523        0.253       65.864       13.740        0.044      333.932        3.571      873.697
01/12/2022  09:54:00       53.796      -53.446      -21.946       60.690       68.456       38.461     3683.312     4686.229     1479.228        0.804        0.492       75.832       37.085        0.239      333.762        3.290      873.661
01/12/2022  09:55:00       12.869      -26.171      -11.505       43.570       52.454       32.736     1898.379     2751.408     1071.629        0.335        0.286       29.164       27.052        0.860      334.048        3.763      873.642
01/12/2022  09:56:00       55.688       19.262      -18.244       59.022       53.055       42.353     3483.605     2814.780     1793.747        0.595        0.405       58.925       23.418        0.158      333.988        3.665      873.616
01/12/2022  09:57:00      101.405        7.028      -41.203       62.224       59.262       38.416     3871.789     3511.956     1475.807        1.044        0.443      101.648       27.411        0.073      333.982        3.655      873.609
01/12/2022  09:58:00       73.389        0.751      -37.339       45.991       55.881       36.102     2115.162     3122.728     1303.384        0.666        0.327       73.393       21.511        0.086      333.821        3.388      873.614
01/12/2022  09:59:00       46.360      -12.000      -31.522       31.249       55.403       39.351      976.528     3069.521     1548.499        0.444        0.280       47.888       28.561        0.356      333.945        3.593      873.605
01/12/2022  10:00:00       58.279       25.545      -16.882       47.892       31.308       20.820     2293.678      980.186      433.460        0.402        0.185       63.631       16.121        0.064      333.647        3.099      873.593
01/12/2022  10:01:00       61.092      -19.783      -34.245       49.807       76.087       34.359     2480.762     5789.234     1180.540        0.737        0.473       64.215       29.637        0.213      334.052        3.771      873.576
01/12/2022  10:02:00       90.617      -12.336      -42.751       45.772       56.625       36.478     2095.110     3206.377     1330.615        0.841        0.332       91.453       20.407        0.050      334.095        3.842      873.549
01/12/2022  10:03:00       58.255       -6.604      -26.399       49.187       44.514       34.708     2419.395     1981.517     1204.662        0.487        0.280       58.628       21.856        0.139      333.964        3.625      873.525
01/12/2022  10:04:00       56.679      -21.257      -23.298       64.250       39.132       37.258     4128.048     1531.292     1388.162        0.563        0.352       60.534       15.692        0.067      333.858        3.449      873.542
01/12/2022  10:05:00       30.463      -57.469      -22.373       41.731       65.358       30.584     1741.462     4271.721      935.408        0.584        0.347       65.043       33.925        0.272      333.918        3.549      873.546
01/12/2022  10:06:00       66.277      -82.779      -30.429       46.896       46.421       41.313     2199.246     2154.950     1706.799        0.911        0.303      106.043       24.420        0.053      333.916        3.546      873.529
01/12/2022  10:07:00       23.292       39.669       -3.014       48.388       42.695       23.672     2341.391     1822.846      560.351        0.342        0.236       46.001       25.507        0.307      333.845        3.426      873.517
01/12/2022  10:08:00      -12.536       14.950       -6.545       34.778       34.639       27.910     1209.508     1199.826      778.965        0.181        0.159       19.511       22.091        1.282      334.059        3.783      873.504
01/12/2022  10:09:00       35.860      -10.115       -9.387       63.577       53.683       34.297     4041.979     2881.864     1176.293        0.479        0.405       37.259       26.045        0.489      333.895        3.511      873.485
01/12/2022  10:10:00       92.140        6.800      -15.834       40.457       34.603       28.262     1636.764     1197.388      798.723        0.621        0.182       92.391       11.407        0.015      333.793        3.341      873.457
01/12/2022  10:11:00       61.413       15.697      -17.101       48.718       45.726       34.539     2373.401     2090.909     1192.976        0.498        0.283       63.387       23.562        0.138      333.974        3.641      873.427
01/12/2022  10:12:00       92.139       65.745      -28.315       43.818       64.048       29.977     1920.000     4102.114      898.599        1.027        0.346      113.190       22.797        0.041      333.786        3.329      873.392
01/12/2022  10:13:00       49.329       -9.469      -25.234       76.024       66.186       25.065     5779.638     4380.566      628.260        0.697        0.539       50.229       18.460        0.135      334.115        3.875      873.346
01/12/2022  10:14:00       93.937       17.088       -1.018       69.816       57.303       40.281     4874.231     3283.615     1622.521        0.945        0.489       95.478       39.451        0.171      334.108        3.863      873.307
01/12/2022  10:15:00      137.261       78.185      -25.454       67.656       62.298       33.079     4577.361     3881.030     1094.187        1.758        0.478      157.967       17.153        0.012      333.913        3.538      873.283
01/12/2022  10:16:00       49.878      -28.090      -39.371       48.775       58.068       38.360     2378.980     3371.836     1471.459        0.602        0.361       57.243       24.983        0.190      334.321        4.216      873.266
01/12/2022  10:17:00       68.733       47.291       -9.264       56.692       49.723       29.792     3213.995     2472.357      887.567        0.681        0.329       83.431       22.433        0.072      333.967        3.628      873.237
01/12/2022  10:18:00       96.975       18.547      -17.902       39.795       40.768       21.541     1583.602     1662.014      464.011        0.689        0.185       98.733       13.835        0.020      333.472        2.812      873.207
01/12/2022  10:19:00        3.109       -8.850        1.582       43.745       84.135       35.868     1913.622     7078.657     1286.542        0.518        0.514        9.380       18.640        3.949      333.884        3.491      873.176
01/12/2022  10:20:00       80.785      -65.728      -29.597       44.272       70.869       30.353     1959.970     5022.438      921.278        0.981        0.395      104.146       13.078        0.016      334.164        3.956      873.138
01/12/2022  10:21:00       30.563        8.239      -19.652       43.412       56.369       35.595     1884.583     3177.431     1267.012        0.386        0.316       31.654       30.380        0.921      334.108        3.864      873.111
01/12/2022  10:22:00       57.347      -26.758      -19.209       53.185       51.927       39.492     2828.621     2696.378     1559.644        0.573        0.354       63.282       28.682        0.205      334.345        4.256      873.070
01/12/2022  10:23:00       92.531       56.253      -33.003       58.901       52.665       36.451     3469.331     2773.590     1328.659        1.019        0.379      108.289       25.070        0.054      333.905        3.527      873.050
01/12/2022  10:24:00       35.776      -29.626       -3.480       55.571       68.214       38.470     3088.166     4653.175     1479.922        0.569        0.461       46.451       39.735        0.732      333.960        3.618      873.026
01/12/2022  10:25:00       43.366     -119.535      -42.219       37.335       41.082       33.798     1393.898     1687.697     1142.294        1.109        0.211      127.158       21.045        0.027      333.866        3.461      873.017
01/12/2022  10:26:00       63.004     -120.458      -32.003       58.294       61.433       29.789     3398.230     3773.990      887.388        1.378        0.403      135.940       22.124        0.026      333.941        3.586      873.014
01/12/2022  10:27:00       57.797     -103.097      -34.958       53.713       53.936       21.937     2885.136     2909.109      481.247        1.073        0.314      118.192       13.989        0.014      333.920        3.550      873.026
01/12/2022  10:28:00       69.859      -90.746      -26.390       68.998       51.470       25.802     4760.769     2649.208      665.760        1.094        0.404      114.522       32.527        0.081      333.815        3.379      873.042
01/12/2022  10:29:00       70.505      -94.861      -26.326       24.751       29.807       22.537      612.627      888.441      507.917        0.834        0.100      118.193       18.797        0.025      333.870        3.469      873.046
01/12/2022  10:30:00      104.518      -94.412      -27.609       53.446       69.104       39.359     2856.433     4775.382     1549.144        1.489        0.459      140.846       35.358        0.063      334.002        3.688      873.049
01/12/2022  10:31:00      107.986      -87.072      -29.983       32.720       26.608       19.821     1070.576      707.975      392.865        1.116        0.109      138.717       10.341        0.006      333.774        3.310      873.046
01/12/2022  10:32:00       85.925      -90.541      -42.372       49.625       44.917       21.434     2462.605     2017.579      459.399        1.116        0.247      124.823       16.075        0.017      334.120        3.882      873.043
01/12/2022  10:33:00       90.727      -88.710      -39.900       36.685       45.130       25.638     1345.790     2036.731      657.285        1.087        0.202      126.889       23.651        0.035      334.072        3.805      873.046
01/12/2022  10:34:00       85.342      -84.576      -39.554       34.734       36.122       23.807     1206.472     1304.779      566.765        0.954        0.154      120.151       10.813        0.008      333.976        3.644      873.041
01/12/2022  10:35:00       64.281      -67.361      -26.593       35.979       48.530       24.493     1294.519     2355.134      599.901        0.681        0.212       93.111       25.045        0.072      334.166        3.958      873.030
01/12/2022  10:36:00       33.441       20.522      -23.331       52.274       56.215       35.233     2732.582     3160.072     1241.381        0.461        0.357       39.236        3.303        0.007      334.445        4.422      873.021
01/12/2022  10:37:00       31.684        6.499      -12.929       37.749       53.144       28.490     1424.954     2824.318      811.678        0.314        0.253       32.343       14.545        0.202      334.451        4.432      872.993
01/12/2022  10:38:00       61.269       53.299      -13.264       48.833       29.190       23.440     2384.663      852.081      549.436        0.528        0.189       81.208       21.051        0.067      334.043        3.756      872.965
01/12/2022  10:39:00       83.795      -82.049      -30.093       52.258       58.277       23.710     2730.899     3396.224      562.185        1.067        0.334      117.276       24.619        0.044      334.045        3.759      872.945
01/12/2022  10:40:00       67.660        1.640      -32.129       31.088       29.945       27.648      966.443      896.710      764.431        0.412        0.131       67.680       21.368        0.100      334.096        3.843      872.918
01/12/2022  10:41:00       33.419       14.737       -7.428       32.817       32.138       24.054     1076.954     1032.845      578.581        0.204        0.134       36.524       19.136        0.275      334.343        4.253      872.901
01/12/2022  10:42:00        8.828       24.388        8.860       22.360       16.010       14.668      499.976      256.326      215.142        0.086        0.049       25.937        7.801        0.090      334.578        4.644      872.882
01/12/2022  10:43:00      -22.820       33.427      -20.215       20.330       35.762       22.262      413.301     1278.888      495.578        0.212        0.109       40.474       14.187        0.123      334.240        4.083      872.859
01/12/2022  10:44:00      -35.449       14.631      -22.009       23.036       14.970       22.447      530.652      224.092      503.861        0.161        0.063       38.350       16.892        0.194      334.381        4.315      872.832
01/12/2022  10:45:00      -39.546       -0.335       -6.837       18.287       23.410       13.632      334.413      548.038      185.818        0.134        0.053       39.547        3.841        0.009      334.567        4.623      872.819
01/12/2022  10:46:00        0.558      -13.982      -10.993       18.489       51.557       18.216      341.842     2658.125      331.810        0.182        0.167       13.993       13.058        0.871      334.610        4.696      872.777
01/12/2022  10:47:00      -33.635      -66.697      -25.311       32.896       37.309       22.804     1082.124     1391.925      520.029        0.461        0.150       74.698       11.208        0.023      334.493        4.502      872.755
01/12/2022  10:48:00       -6.564       29.752        2.169       25.388       27.663       21.013      644.533      765.249      441.543        0.139        0.093       30.468       16.667        0.299      334.630        4.728      872.734
01/12/2022  10:49:00       -9.034        9.009       -1.651       25.360       31.792       16.602      643.140     1010.725      275.642        0.105        0.096       12.758        2.447        0.037      334.759        4.943      872.717
01/12/2022  10:50:00       16.437       39.544       -1.037       36.845       37.573       22.734     1357.526     1411.743      516.825        0.256        0.164       42.824        8.567        0.040      334.772        4.965      872.690
01/12/2022  10:51:00      -36.630       21.538       -6.927       31.170       32.995       23.527      971.540     1088.673      553.507        0.223        0.131       42.493       15.352        0.131      334.836        5.070      872.666
01/12/2022  10:52:00      -34.960       -4.377       -9.874       18.491       13.951       17.773      341.923      194.624      315.896        0.110        0.043       35.233       14.113        0.160      334.628        4.726      872.649
01/12/2022  10:53:00       -6.937       18.593       -2.569       18.583       14.394       12.908      345.324      207.192      166.612        0.056        0.036       19.845        3.367        0.029      334.796        5.004      872.646
01/12/2022  10:54:00      -17.649      -12.807       -6.136       20.940       21.330       12.208      438.482      454.973      149.045        0.078        0.052       21.806        5.801        0.071      334.804        5.017      872.625
01/12/2022  10:55:00       -5.544       10.577       -5.524       18.199       40.735       17.803      331.218     1659.321      316.940        0.124        0.115       11.941       23.240        3.788      334.838        5.075      872.619
01/12/2022  10:56:00       -3.857       35.347        2.799       27.730       27.686       18.566      768.943      766.499      344.693        0.158        0.094       35.556       17.633        0.246      335.076        5.470      872.615
01/12/2022  10:57:00       34.129       29.796        6.365       34.449       48.116       21.796     1186.720     2315.102      475.059        0.303        0.199       45.305       14.463        0.102      335.276        5.803      872.621
01/12/2022  10:58:00       64.928      -60.657      -22.008       48.922       34.093       21.201     2393.379     1162.321      449.465        0.619        0.200       88.854       18.310        0.042      334.876        5.138      872.636
01/12/2022  10:59:00       65.388      -15.047      -23.882       31.748       33.565       14.114     1007.960     1126.628      199.204        0.370        0.117       67.097        8.454        0.016      334.560        4.614      872.657
01/12/2022  11:00:00       30.734       54.879       -4.527       32.030       30.344       21.005     1025.940      920.771      441.210        0.318        0.119       62.899       11.349        0.033      334.857        5.106      872.692
01/12/2022  11:01:00      -17.286       -0.639       -1.534       47.228       35.888       27.183     2230.527     1287.951      738.895        0.228        0.213       17.298       12.301        0.506      335.065        5.452      872.721
01/12/2022  11:02:00      -51.641      -19.631      -18.705       21.311       26.702       22.521      454.144      712.995      507.182        0.254        0.084       55.246        6.250        0.013      334.950        5.262      872.728
01/12/2022  11:03:00      -25.935      -15.582      -13.138       26.661       16.816       19.078      710.799      282.788      363.967        0.122        0.068       30.255       13.970        0.213      335.028        5.392      872.714
01/12/2022  11:04:00       87.368       29.135      -24.911       45.574       43.762       27.120     2076.981     1915.115      735.488        0.691        0.236       92.098       14.626        0.025      334.974        5.303      872.696
01/12/2022  11:05:00       83.549       55.378      -26.204       31.613       31.174       20.491      999.382      971.845      419.892        0.656        0.120      100.236       16.697        0.028      334.878        5.143      872.660
01/12/2022  11:06:00       34.379       49.585       -5.888       44.597       41.980       31.042     1988.917     1762.313      963.604        0.419        0.236       60.337       16.961        0.079      335.310        5.860      872.601
01/12/2022  11:07:00       14.251       24.274        0.257       37.939       40.480       37.566     1439.345     1638.592     1411.196        0.264        0.224       28.148       10.639        0.143      335.551        6.259      872.557
01/12/2022  11:08:00       75.524      -23.113      -36.277       50.076       56.398       28.344     2507.612     3180.695      803.385        0.702        0.325       78.981       10.871        0.019      335.505        6.183      872.525
01/12/2022  11:09:00       62.756       29.677      -30.520       36.572       76.140       36.288     1337.480     5797.314     1316.827        0.710        0.423       69.419       16.819        0.059      335.287        5.820      872.507
01/12/2022  11:10:00       93.843      -65.801      -17.445       86.140       68.505       49.426     7420.138     4692.909     2442.903        1.400        0.728      114.614       39.071        0.116      335.205        5.683      872.495
01/12/2022  11:11:00       72.090      -37.496      -36.806       54.408       94.352       40.557     2960.245     8902.242     1644.892        1.073        0.675       81.258       24.799        0.093      335.224        5.715      872.504
01/12/2022  11:12:00       91.848      -30.800      -34.133       65.684       75.204       45.373     4314.385     5655.672     2058.679        1.129        0.601       96.875       31.158        0.103      335.391        5.993      872.515
01/12/2022  11:13:00      100.644       16.834      -21.152       74.399       68.649       41.026     5535.188     4712.640     1683.116        1.139        0.597      102.042       25.616        0.063      335.186        5.653      872.534
01/12/2022  11:14:00       21.686      -17.894      -22.934       58.844       71.442       29.277     3462.593     5103.955      857.118        0.537        0.471       28.116       21.289        0.573      335.657        6.437      872.543
01/12/2022  11:15:00       -2.762       12.434      -12.711       41.754       32.494       31.324     1743.418     1055.868      981.218        0.205        0.189       12.737       20.743        2.652      335.675        6.467      872.548
01/12/2022  11:16:00       16.937      -31.856       -5.528       40.136       59.471       38.722     1610.877     3536.810     1499.366        0.399        0.332       36.079       10.470        0.084      335.550        6.258      872.538
01/12/2022  11:17:00      115.241       28.449      -23.372       44.920       48.059       26.931     2017.816     2309.629      725.264        0.984        0.253      118.701       19.411        0.027      335.096        5.504      872.531
01/12/2022  11:18:00       88.451     -106.064      -44.711       56.638       56.617       30.075     3207.840     3205.474      904.498        1.419        0.366      138.106       13.310        0.009      335.207        5.688      872.521
01/12/2022  11:19:00       68.967     -165.275      -42.344       45.037       33.587       23.078     2028.316     1128.074      532.598        1.878        0.184      179.087       21.604        0.015      334.985        5.319      872.508
01/12/2022  11:20:00       74.172     -138.535      -23.909       46.841       49.635       34.293     2194.054     2463.604     1175.981        1.555        0.292      157.141       30.529        0.038      335.019        5.376      872.516
01/12/2022  11:21:00       19.098      -32.605      -30.966       35.014       54.745       24.920     1225.997     2996.980      621.016        0.361        0.242       37.786       20.963        0.308      335.643        6.414      872.541
01/12/2022  11:22:00       15.808       24.190       -0.105       36.987       45.312       27.571     1368.008     2053.171      760.169        0.251        0.209       28.897       16.464        0.325      335.673        6.463      872.556
01/12/2022  11:23:00       34.200      -30.114      -18.051       50.913       61.255       43.302     2592.098     3752.204     1875.098        0.531        0.411       45.569       29.530        0.420      335.681        6.477      872.579
01/12/2022  11:24:00       73.920     -142.228      -39.980       36.457       41.691       29.504     1329.088     1738.112      870.462        1.561        0.197      160.290       23.976        0.022      335.071        5.462      872.586
01/12/2022  11:25:00       69.123      -92.277      -42.795       36.064       49.834       27.760     1300.616     2483.401      770.600        0.984        0.228      115.295       20.529        0.032      335.173        5.633      872.576
01/12/2022  11:26:00       17.322      -69.013      -17.439       39.354       71.653       33.112     1548.774     5134.119     1096.379        0.657        0.389       71.154       27.922        0.154      335.501        6.177      872.556
01/12/2022  11:27:00       53.381        4.831      -14.435       61.220       66.243       44.419     3747.889     4388.075     1973.074        0.659        0.505       53.599       33.065        0.381      335.870        6.792      872.529
01/12/2022  11:28:00      107.268       18.671      -14.826       50.361       57.946       32.381     2536.197     3357.738     1048.535        0.951        0.347      108.881       19.080        0.031      335.631        6.392      872.499
01/12/2022  11:29:00      119.537       20.428       -7.597       47.452       47.945       31.848     2251.695     2298.703     1014.297        1.016        0.278      121.270       27.236        0.050      335.496        6.168      872.468
01/12/2022  11:30:00      109.106       30.305      -16.959       37.994       40.598       22.424     1443.530     1648.218      502.845        0.835        0.180      113.236        9.725        0.007      335.341        5.911      872.430
01/12/2022  11:31:00       67.691       17.416      -13.120       41.633       64.799       26.136     1733.266     4198.925      683.078        0.584        0.331       69.895       10.611        0.023      335.480        6.143      872.397
01/12/2022  11:32:00       69.017       82.936        3.257       40.914       44.067       41.449     1673.929     1941.913     1717.994        0.849        0.267      107.897       27.063        0.063      335.456        6.101      872.378
01/12/2022  11:33:00       29.198       23.519      -10.003       68.677       31.408       25.348     4716.508      986.491      642.529        0.392        0.317       37.492       27.107        0.523      335.621        6.377      872.371
01/12/2022  11:34:00      111.446       32.551      -22.130       52.552       45.901       25.452     2761.680     2106.924      647.785        0.974        0.276      116.103       16.851        0.021      335.527        6.220      872.393
01/12/2022  11:35:00       34.519       18.617       -5.804       62.471       32.122       34.290     3902.639     1031.827     1175.785        0.384        0.306       39.219       32.238        0.676      335.501        6.177      872.408
01/12/2022  11:36:00      -45.823       13.057      -11.117       36.420       30.998       28.578     1326.403      960.874      816.702        0.275        0.155       47.647       11.091        0.054      335.863        6.782      872.440
01/12/2022  11:37:00       47.542     -113.763      -40.055       50.311       49.226       26.779     2531.191     2423.225      717.139        1.124        0.284      123.298       21.427        0.030      335.368        5.955      872.459
01/12/2022  11:38:00       68.866     -157.558      -31.643       46.691       50.729       44.216     2180.028     2573.408     1955.033        1.864        0.335      171.951       34.022        0.039      335.674        6.464      872.477
01/12/2022  11:39:00       70.850       53.357       -3.562       57.564       65.696       24.190     3313.574     4315.944      585.149        0.805        0.411       88.694       23.754        0.072      335.647        6.419      872.490
01/12/2022  11:40:00       20.718      -18.225      -40.216       47.209       46.425       34.407     2228.690     2155.263     1183.820        0.397        0.278       27.594       30.937        1.257      336.081        7.143      872.472
01/12/2022  11:41:00       70.154      -28.313      -32.402       49.219       51.786       38.526     2422.534     2681.740     1484.243        0.668        0.329       75.652       23.923        0.100      335.994        6.998      872.465
01/12/2022  11:42:00        3.761        7.209      -21.643       42.801       51.465       31.431     1831.920     2648.683      987.935        0.300        0.273        8.132       15.468        3.618      335.942        6.912      872.462
01/12/2022  11:43:00       10.362      -96.544      -16.826       67.196       47.683       34.932     4515.357     2273.631     1220.255        0.886        0.400       97.098       38.573        0.158      335.668        6.454      872.454
01/12/2022  11:44:00       30.102     -117.679      -19.660       63.721       80.933       43.185     4060.349     6550.130     1864.958        1.381        0.624      121.467       32.829        0.073      335.741        6.577      872.448
01/12/2022  11:45:00       11.863      -38.873      -18.203       60.658       67.557       41.425     3679.432     4563.957     1716.017        0.597        0.498       40.642       29.816        0.538      336.018        7.038      872.449
01/12/2022  11:46:00       35.910      -72.867      -18.080       39.228       52.024       35.227     1538.833     2706.461     1240.976        0.621        0.274       81.235       34.450        0.180      336.047        7.087      872.459
01/12/2022  11:47:00       45.161     -107.457      -22.707       56.226       68.529       42.202     3161.314     4696.270     1781.030        1.187        0.482      116.561       45.140        0.150      335.905        6.850      872.460
01/12/2022  11:48:00       63.483      -94.956      -42.872       31.488       37.237       23.530      991.501     1386.592      553.648        0.891        0.147      114.223       21.653        0.036      335.758        6.604      872.461
01/12/2022  11:49:00       26.977     -106.716      -14.128       47.122       40.484       32.504     2220.494     1638.986     1056.529        0.861        0.246      110.073       24.137        0.048      335.949        6.923      872.477
01/12/2022  11:50:00       61.533       15.965      -34.111       88.661       63.303       35.445     7860.773     4007.238     1256.346        0.916        0.656       63.570       32.576        0.263      336.017        7.037      872.495
01/12/2022  11:51:00       41.433      -75.467      -39.633       41.024       97.826       30.364     1682.979     9569.838      921.996        1.058        0.609       86.092       16.353        0.036      335.848        6.756      872.527
01/12/2022  11:52:00       70.374     -133.275      -34.638       46.380       50.160       27.346     2151.082     2516.075      747.779        1.466        0.271      150.714       13.301        0.008      335.718        6.539      872.544
01/12/2022  11:53:00       43.281      -31.320      -23.663       55.873       72.090       36.572     3121.841     5196.991     1337.540        0.653        0.483       53.424       20.234        0.143      336.077        7.137      872.554
01/12/2022  11:54:00      -13.707      -18.015      -24.218       29.167       42.913       27.947      850.735     1841.516      781.027        0.229        0.174       22.637       14.126        0.389      336.340        7.576      872.555
01/12/2022  11:55:00       35.014      -60.909      -23.724       41.826       65.563       42.454     1749.379     4298.566     1802.312        0.667        0.393       70.256       34.118        0.236      336.406        7.687      872.544
01/12/2022  11:56:00       27.633     -107.767      -43.139       45.743       51.427       31.577     2092.387     2644.695      997.135        0.999        0.287      111.253       29.437        0.070      335.893        6.830      872.521
01/12/2022  11:57:00        6.444      -23.331      -10.502       20.239       48.246       21.161      409.616     2327.685      447.795        0.194        0.159       24.204       19.736        0.665      336.113        7.196      872.488
01/12/2022  11:58:00       86.897        0.030      -13.305       84.967       46.983       35.066     7219.326     2207.369     1229.607        0.919        0.533       86.897       32.279        0.138      336.164        7.281      872.452
01/12/2022  11:59:00       46.876      -13.895      -33.214       43.865       54.174       33.850     1924.175     2934.832     1145.801        0.475        0.300       48.891       21.367        0.191      336.132        7.228      872.441
01/12/2022  12:00:00       25.498      -12.174      -24.418       50.046       56.606       42.543     2504.600     3204.287     1809.925        0.446        0.376       28.255       33.862        1.436      336.293        7.496      872.427
01/12/2022  12:01:00      -20.825      -16.467      -11.032       30.369       27.231       26.011      922.275      741.546      676.552        0.158        0.117       26.549        8.434        0.101      336.340        7.576      872.431
01/12/2022  12:02:00      -29.854        3.491      -20.944       28.775       17.787       20.002      828.001      316.384      400.089        0.144        0.077       30.058       10.244        0.116      336.505        7.852      872.433
01/12/2022  12:03:00       37.678      -46.881      -13.329       36.449       65.766       31.908     1328.558     4325.156     1018.134        0.523        0.334       60.145       25.891        0.185      336.338        7.573      872.445
01/12/2022  12:04:00       35.586     -148.942      -30.600       31.245       51.283       24.766      976.224     2629.915      613.379        1.430        0.211      153.134       21.817        0.020      336.009        7.023      872.452
01/12/2022  12:05:00       34.169      -90.543      -19.013       26.753       24.326       26.537      715.747      591.771      704.188        0.587        0.101       96.776       19.050        0.039      335.990        6.990      872.450
01/12/2022  12:06:00       24.596      -49.113      -28.835       41.804       60.369       35.989     1747.536     3644.414     1295.199        0.527        0.334       54.927       27.876        0.258      336.457        7.772      872.425
01/12/2022  12:07:00        4.043       17.927      -17.609       32.246       32.149       29.483     1039.796     1033.584      869.248        0.179        0.147       18.377       22.563        1.508      336.513        7.866      872.383
01/12/2022  12:08:00        9.579       31.300      -16.531       58.972       54.031       41.753     3477.712     2919.398     1743.293        0.474        0.407       32.733       38.588        1.390      336.415        7.701      872.332
01/12/2022  12:09:00       -1.609       18.606      -16.904       36.864       37.409       28.409     1358.948     1399.408      807.085        0.210        0.178       18.676       21.928        1.379      336.480        7.809      872.288
01/12/2022  12:10:00        0.595       12.580       -2.721       37.235       42.982       27.311     1386.437     1847.438      745.908        0.207        0.199       12.594       15.142        1.446      336.612        8.031      872.244
01/12/2022  12:11:00       52.976       47.357       -8.687       29.862       34.854       26.800      891.715     1214.794      718.227        0.397        0.141       71.057        7.119        0.010      336.135        7.234      872.218
01/12/2022  12:12:00       69.001       13.942      -21.416       43.709       34.507       28.838     1910.480     1190.757      831.611        0.467        0.197       70.396       16.098        0.052      336.367        7.623      872.196
01/12/2022  12:13:00      138.292       42.015      -12.871       36.398       49.310       28.613     1324.783     2431.442      818.729        1.281        0.229      144.534       16.707        0.013      336.370        7.626      872.187
01/12/2022  12:14:00       50.543       57.497       -9.921       53.857       89.854       29.198     2900.544     8073.813      852.532        0.889        0.591       76.554       21.351        0.078      336.388        7.657      872.188
01/12/2022  12:15:00       43.151     -140.678      -24.557       43.548       50.067       42.180     1896.425     2506.737     1779.183        1.422        0.309      147.147       36.281        0.061      336.261        7.445      872.166
01/12/2022  12:16:00       40.762      -10.363       -5.372       50.380       85.370       31.243     2538.148     7288.119      976.100        0.630        0.540       42.058       31.671        0.567      336.571        7.964      872.137
01/12/2022  12:17:00      148.852       10.399      -19.899       36.420       45.319       32.647     1326.437     2053.802     1065.828        1.355        0.222      149.215       17.469        0.014      336.350        7.594      872.110
01/12/2022  12:18:00      115.032       59.974      -23.714       53.297       36.137       23.905     2840.531     1305.911      571.434        1.105        0.236      129.728       14.315        0.012      336.361        7.612      872.075
01/12/2022  12:19:00       40.054       57.366       -0.348       44.202       35.092       24.667     1953.802     1231.418      608.465        0.434        0.190       69.965       18.624        0.071      336.791        8.332      872.036
01/12/2022  12:20:00       52.335       61.149        4.192       45.794       42.684       34.583     2097.094     1821.895     1195.976        0.580        0.256       80.487       20.934        0.068      336.737        8.240      872.002
01/12/2022  12:21:00       51.621       57.254       -1.245       39.410       37.524       27.567     1553.135     1408.030      759.944        0.483        0.186       77.089       21.681        0.079      336.640        8.077      871.973
01/12/2022  12:22:00       61.521       13.014      -22.268       53.821       59.703       40.116     2896.662     3564.404     1609.274        0.626        0.404       62.882       38.340        0.372      336.819        8.378      871.943
01/12/2022  12:23:00       73.609       49.453      -20.567       57.709       64.385       35.059     3330.343     4145.441     1229.156        0.849        0.435       88.679       26.869        0.092      336.702        8.181      871.928
01/12/2022  12:24:00      -48.020       -3.746        8.401       39.713       42.457       24.839     1577.117     1802.567      616.997        0.319        0.200       48.166       13.164        0.075      336.985        8.653      871.924
01/12/2022  12:25:00        9.583       15.629       -8.942       63.366       52.973       25.649     4015.224     2806.096      657.881        0.395        0.374       18.333       27.233        2.207      336.855        8.437      871.909
01/12/2022  12:26:00      -14.648        9.930      -15.622       33.542       32.832       23.925     1125.043     1077.943      572.398        0.167        0.139       17.696       19.074        1.162      336.908        8.525      871.910
01/12/2022  12:27:00      120.092       50.979      -16.379       89.266       56.575       26.941     7968.478     3200.772      725.817        1.459        0.595      130.464       16.293        0.016      336.731        8.228      871.902
01/12/2022  12:28:00      140.052       47.082      -34.105       32.306       28.864       27.508     1043.655      833.154      756.674        1.281        0.132      147.754       11.688        0.006      336.378        7.640      871.896
01/12/2022  12:29:00       96.221      -12.382      -29.862       68.006       65.913       38.353     4624.764     4344.480     1470.929        1.037        0.522       97.015       24.043        0.061      336.569        7.959      871.890
01/12/2022  12:30:00       83.163       45.045      -13.663       44.675       50.645       22.568     1995.884     2564.918      509.322        0.710        0.254       94.579        8.216        0.008      336.398        7.673      871.890
01/12/2022  12:31:00       34.873       49.692       -5.668       39.473       41.631       30.283     1558.113     1733.114      917.061        0.396        0.210       60.707       10.517        0.030      336.679        8.145      871.877
01/12/2022  12:32:00       -6.331       -5.273      -16.653       46.296       34.481       34.532     2143.353     1188.960     1192.457        0.243        0.226        8.240       10.608        1.657      337.035        8.737      871.861
01/12/2022  12:33:00       53.148       18.094       -3.095       46.376       57.779       31.459     2150.714     3338.429      989.672        0.482        0.324       56.144       23.388        0.174      336.910        8.529      871.848
01/12/2022  12:34:00      153.763       61.894      -20.850       40.871       38.227       26.933     1670.465     1461.319      725.381        1.588        0.193      165.753        9.504        0.003      336.653        8.098      871.823
01/12/2022  12:35:00      159.628       68.526      -16.833       52.796       50.801       33.567     2787.456     2580.761     1126.712        1.848        0.325      173.715       19.857        0.013      336.842        8.413      871.792
01/12/2022  12:36:00       96.734        3.509      -13.468       76.200       58.849       34.056     5806.404     3463.242     1159.841        0.999        0.521       96.797       27.289        0.079      337.254        9.103      871.761
01/12/2022  12:37:00      155.216       61.980      -23.527       64.650       52.243       34.391     4179.634     2729.352     1182.715        1.829        0.405      167.134       22.468        0.018      336.818        8.374      871.736
01/12/2022  12:38:00       10.154       27.308      -13.882       94.705       71.485       39.053     8969.038     5110.149     1525.114        0.832        0.780       29.135       40.347        1.918      337.184        8.986      871.709
01/12/2022  12:39:00       95.651      -10.406      -21.426       80.115       62.581       41.857     6418.428     3916.348     1752.039        1.090        0.604       96.215       32.308        0.113      337.035        8.738      871.655
01/12/2022  12:40:00      150.594       -7.702      -25.183       76.171       51.227       35.288     5802.033     2624.186     1245.229        1.652        0.484      150.791       22.656        0.023      336.862        8.448      871.641
01/12/2022  12:41:00       48.030       35.954      -14.908       50.329       53.597       30.652     2533.023     2872.643      939.561        0.508        0.317       59.997       10.928        0.033      336.981        8.648      871.629
01/12/2022  12:42:00       63.585       33.309      -13.133      109.246       48.397       31.672    11934.773     2342.302     1003.109        1.030        0.764       71.781       22.654        0.100      336.916        8.537      871.604
01/12/2022  12:43:00      228.982       83.663      -23.506       50.403       45.233       25.674     2540.436     2046.068      659.167        3.261        0.262      243.788        4.802        0.000      336.665        8.116      871.589
01/12/2022  12:44:00      177.922       62.130      -26.450       50.527       50.447       27.728     2553.020     2544.894      768.863        2.104        0.293      188.458       17.654        0.009      336.700        8.178      871.581
01/12/2022  12:45:00      115.209       91.760      -20.037       60.632       44.634       34.085     3676.236     1992.154     1161.806        1.446        0.342      147.285       22.727        0.024      336.814        8.369      871.568
01/12/2022  12:46:00      121.033      -53.496      -44.911       85.195      107.853       61.492     7258.161    11632.190     3781.239        2.110        1.134      132.328       49.146        0.138      336.971        8.628      871.537
01/12/2022  12:47:00      102.459      -38.134      -43.860       87.852      113.172       58.760     7717.904    12807.935     3452.734        1.892        1.199      109.325       45.066        0.170      336.936        8.570      871.492
01/12/2022  12:48:00       85.559       -2.701      -29.147       82.698       74.263       42.198     6839.007     5515.029     1780.641        1.115        0.707       85.602       38.327        0.200      337.014        8.702      871.499
01/12/2022  12:49:00       86.968      -40.566      -34.942       51.656      108.517       41.691     2668.347    11775.972     1738.125        1.330        0.809       95.964       48.397        0.254      336.904        8.519      871.488
01/12/2022  12:50:00      175.136       80.560      -14.146       58.855       42.979       27.178     3463.938     1847.196      738.642        2.171        0.302      192.776       26.024        0.018      336.869        8.458      871.472
01/12/2022  12:51:00      114.928       -1.169      -21.037      113.279       70.641       36.841    12832.093     4990.159     1357.292        1.641        0.959      114.934       27.960        0.059      337.342        9.250      871.450
01/12/2022  12:52:00      116.796     -116.620      -50.476       76.526      100.627       44.095     5856.246    10125.813     1944.358        2.385        0.896      165.050       23.388        0.020      337.327        9.224      871.446
01/12/2022  12:53:00       29.015       -6.474       -7.067       72.130       72.743       48.835     5202.803     5291.492     2384.824        0.690        0.644       29.729       34.635        1.357      337.352        9.268      871.463
01/12/2022  12:54:00       70.200     -132.207      -28.972       65.197       63.067       49.580     4250.652     3977.504     2458.156        1.696        0.534      149.689       42.972        0.082      337.171        8.964      871.463
01/12/2022  12:55:00       79.718       43.484      -27.998       48.438       54.164       34.433     2346.286     2933.763     1185.650        0.775        0.323       90.807       26.886        0.088      337.329        9.230      871.472
01/12/2022  12:56:00       77.445       47.241      -14.294       48.690       32.311       22.942     2370.753     1044.029      526.348        0.619        0.197       90.716       18.674        0.042      336.956        8.606      871.490
01/12/2022  12:57:00      115.565       62.485      -14.033       34.351       31.712       18.615     1180.016     1005.620      346.503        0.999        0.127      131.376       13.188        0.010      336.927        8.555      871.492
01/12/2022  12:58:00       99.000       32.611      -33.278       59.023       68.305       30.748     3483.723     4665.598      945.423        1.053        0.455      104.233       35.567        0.116      337.165        8.955      871.474
01/12/2022  12:59:00       99.302      -88.495      -40.098       60.692       69.044       45.156     3683.573     4767.056     2039.033        1.489        0.524      133.012       39.111        0.086      337.227        9.058      871.448
01/12/2022  13:00:00       88.531        6.009       -7.571       86.862      109.343       46.557     7544.922    11955.881     2167.566        1.480        1.083       88.735       31.556        0.126      337.217        9.042      871.421
01/12/2022  13:01:00       69.151      -81.718      -29.397       45.998      104.707       40.049     2115.837    10963.530     1603.904        1.350        0.734      107.050       39.406        0.136      337.043        8.750      871.383
01/12/2022  13:02:00      106.338        0.652      -23.767       69.539       88.940       30.937     4835.607     7910.262      957.107        1.279        0.685      106.340       28.663        0.073      336.958        8.609      871.359
01/12/2022  13:03:00       58.126       54.021      -12.489       46.102       42.681       28.677     2125.402     1821.700      822.354        0.561        0.238       79.353       26.298        0.110      336.981        8.647      871.340
01/12/2022  13:04:00      217.003       37.453      -28.699       77.193       65.249       32.804     5958.735     4257.404     1076.099        3.030        0.565      220.211       24.188        0.012      337.027        8.720      871.311
01/12/2022  13:05:00       85.446       18.063       -3.591       85.359       69.503       50.119     7286.244     4830.640     2511.901        1.113        0.731       87.335       38.888        0.198      337.423        9.387      871.268
01/12/2022  13:06:00       71.399      -63.653      -28.109       61.897       83.772       54.674     3831.261     7017.753     2989.256        1.189        0.692       95.653       35.153        0.135      337.276        9.140      871.224
01/12/2022  13:07:00       38.036       10.492      -25.336       68.185       80.941       43.750     4649.222     6551.401     1914.019        0.765        0.656       39.456       26.050        0.436      337.289        9.162      871.185
01/12/2022  13:08:00      167.688        4.125      -32.309       89.811       65.706       44.384     8066.012     4317.308     1969.901        2.176        0.718      167.738       18.479        0.012      337.206        9.022      871.149
01/12/2022  13:09:00       30.469       -7.974      -22.991       46.942       49.875       33.933     2203.571     2487.516     1151.446        0.368        0.292       31.495       29.497        0.877      337.328        9.230      871.118
01/12/2022  13:10:00       98.764      -43.777      -45.663       53.592       96.500       44.900     2872.137     9312.291     2015.984        1.398        0.710      108.032       36.194        0.112      337.222        9.052      871.089
01/12/2022  13:11:00      113.306        3.076      -50.720       80.109       97.836       48.963     6417.436     9571.918     2397.397        1.690        0.919      113.348       31.094        0.075      337.190        8.997      871.055
01/12/2022  13:12:00       38.818      -46.129      -39.147       54.609       83.452       36.238     2982.129     6964.175     1313.179        0.821        0.563       60.288       17.106        0.081      337.223        9.053      871.064
01/12/2022  13:13:00       31.659       41.398       -8.132       66.740       43.213       27.940     4454.252     1867.321      780.658        0.494        0.355       52.116       30.898        0.351      337.523        9.556      871.077
01/12/2022  13:14:00       84.432       52.271      -18.638       51.999       34.836       31.275     2703.881     1213.534      978.099        0.755        0.245       99.303       27.425        0.076      337.597        9.678      871.087
01/12/2022  13:15:00       47.404       59.005      -10.183       40.727       32.387       27.817     1658.675     1048.898      773.811        0.466        0.174       75.688       21.042        0.077      337.599        9.681      871.112
01/12/2022  13:16:00       69.421       57.942      -16.260       34.514       30.478       20.004     1191.206      928.883      400.165        0.548        0.126       90.425       10.750        0.014      337.298        9.178      871.120
01/12/2022  13:17:00       31.482       30.866      -26.160       49.642       45.444       27.608     2464.280     2065.169      762.200        0.396        0.265       44.089       15.972        0.131      337.530        9.567      871.111
01/12/2022  13:18:00       15.756      -58.111      -19.799       33.076       66.113       37.482     1094.054     4370.968     1404.873        0.544        0.343       60.209       23.003        0.146      337.615        9.710      871.090
01/12/2022  13:19:00       16.630        5.999      -18.700       48.377       61.035       36.332     2340.356     3725.295     1319.988        0.402        0.369       17.679       23.966        1.838      337.674        9.807      871.068
01/12/2022  13:20:00       39.996      -96.216      -34.551       40.257       87.743       31.509     1620.631     7698.756      992.787        1.118        0.516      104.198       28.580        0.075      337.408        9.361      871.053
01/12/2022  13:21:00      -27.143      -14.916      -14.962       27.339       26.359       23.853      747.424      694.804      568.967        0.160        0.101       30.971       16.412        0.281      337.824       10.059      871.039
01/12/2022  13:22:00       13.775      -17.072      -27.602       29.687       47.100       22.375      881.301     2218.446      500.660        0.242        0.180       21.936       15.018        0.469      337.505        9.525      871.020
01/12/2022  13:23:00       46.501       29.072        0.796       41.545       33.549       25.301     1726.021     1125.529      640.160        0.325        0.175       54.841       19.037        0.121      337.606        9.694      870.995
01/12/2022  13:24:00      -14.562       -0.111      -15.396       26.573       21.519       25.807      706.124      463.069      665.992        0.114        0.092       14.563       15.820        1.180      337.705        9.859      870.973
01/12/2022  13:25:00      -44.362       -9.851      -19.989       28.458       24.143       20.565      809.876      582.885      422.938        0.214        0.091       45.443       10.554        0.054      337.743        9.923      870.965
01/12/2022  13:26:00       74.216      -77.016      -27.612       45.725       40.565       39.606     2090.748     1645.487     1568.670        0.875        0.265      106.956       25.532        0.057      337.407        9.359      870.954
01/12/2022  13:27:00       69.306       13.059      -12.972       50.353       57.296       30.934     2535.401     3282.787      956.893        0.596        0.339       70.526       23.874        0.115      337.526        9.559      870.937
01/12/2022  13:28:00       13.982       -4.908      -22.672       58.490       53.202       37.006     3421.123     2830.460     1369.480        0.418        0.381       14.819       23.702        2.558      337.732        9.905      870.909
01/12/2022  13:29:00      -21.303      -15.352      -10.437       36.818       35.137       32.358     1355.582     1234.591     1047.065        0.222        0.182       26.259       20.015        0.581      337.780        9.986      870.878
01/12/2022  13:30:00       24.131      -48.522      -26.158       49.240       83.834       40.447     2424.563     7028.206     1635.931        0.735        0.554       54.191       30.326        0.313      337.413        9.371      870.867
01/12/2022  13:31:00       50.981       49.614      -15.078       44.304       33.820       24.167     1962.857     1143.766      584.027        0.449        0.185       71.138       16.014        0.051      337.450        9.431      870.856
01/12/2022  13:32:00       61.737       47.973      -18.899       25.313       18.174       17.429      640.724      330.301      303.779        0.387        0.064       78.185        7.171        0.008      337.345        9.257      870.833
01/12/2022  13:33:00       48.196       40.081      -11.686       50.133       43.618       31.831     2513.368     1902.520     1013.237        0.475        0.271       62.684       18.979        0.092      337.401        9.351      870.795
01/12/2022  13:34:00       47.080      -69.937      -28.612       41.443       31.009       31.067     1717.484      961.573      965.186        0.578        0.182       84.308       28.226        0.112      337.222        9.050      870.768
01/12/2022  13:35:00       17.251      -16.478      -16.505       15.399       20.186       16.736      237.144      407.472      280.101        0.088        0.046       23.856        6.527        0.075      337.351        9.266      870.760
01/12/2022  13:36:00       16.929       20.954      -17.349       13.740       23.793       16.057      188.793      566.124      257.843        0.102        0.051       26.938       11.277        0.175      337.428        9.396      870.756
01/12/2022  13:37:00       -0.037       41.912       -7.033       30.974       40.256       20.751      959.416     1620.518      430.622        0.241        0.151       41.912       11.404        0.074      337.827       10.065      870.763
01/12/2022  13:38:00        7.701      -50.063      -23.087       19.958       28.164       15.434      398.308      793.227      238.223        0.226        0.071       50.652        8.758        0.030      337.862       10.123      870.778
01/12/2022  13:39:00      -20.130      -55.270      -20.503       37.951       25.479       22.933     1440.241      649.202      525.921        0.325        0.131       58.822       18.322        0.097      337.883       10.159      870.787
01/12/2022  13:40:00       -0.115      -65.179      -34.404       63.119       53.673       35.510     3983.980     2880.821     1260.938        0.678        0.406       65.179       33.454        0.263      337.742        9.922      870.796
01/12/2022  13:41:00       43.606     -100.881      -43.556       49.338       55.628       26.181     2434.191     3094.496      685.429        1.009        0.311      109.902       16.585        0.023      337.774        9.976      870.778
01/12/2022  13:42:00      -16.102      -27.535      -26.143       38.158       36.100       25.428     1456.022     1303.227      646.564        0.255        0.170       31.898       17.859        0.313      337.969       10.302      870.741
01/12/2022  13:43:00       72.752     -110.783      -35.157       28.963       37.458       22.002      838.856     1403.084      484.097        1.076        0.136      132.536       18.565        0.020      337.548        9.597      870.704
01/12/2022  13:44:00       36.059      -83.890      -29.199       36.421       58.073       28.537     1326.464     3372.529      814.340        0.735        0.276       91.311       24.048        0.069      337.697        9.846      870.671
01/12/2022  13:45:00       73.359       -0.107      -27.028       27.653       29.666       31.005      764.710      880.086      961.317        0.436        0.130       73.359       16.770        0.052      337.702        9.856      870.675
01/12/2022  13:46:00       26.923       17.420       -4.837       36.850       19.556       20.020     1357.948      382.449      400.814        0.160        0.107       32.067       18.234        0.323      337.840       10.086      870.676
01/12/2022  13:47:00       26.814        8.796      -17.542       39.733       42.791       21.498     1578.740     1831.039      462.151        0.249        0.194       28.219       19.032        0.455      338.022       10.391      870.681
01/12/2022  13:48:00       -7.173      -23.700      -19.689       30.369       22.199       13.454      922.279      492.788      181.021        0.130        0.080       24.762       10.309        0.173      338.066       10.465      870.685
01/12/2022  13:49:00        8.256        5.006       -4.100       32.275       33.948       18.124     1041.662     1152.472      328.490        0.132        0.126        9.655       12.030        1.552      338.142       10.594      870.689
01/12/2022  13:50:00       16.245      -60.477      -16.547       53.556       37.535       23.104     2868.201     1408.885      533.812        0.450        0.241       62.621        5.253        0.007      338.013       10.377      870.694
01/12/2022  13:51:00       56.137       33.983      -11.013       47.643       35.799       26.986     2269.853     1281.597      728.231        0.435        0.214       65.621       19.957        0.092      337.876       10.148      870.695
01/12/2022  13:52:00       47.655        3.755      -19.238       29.807       44.155       20.325      888.437     1949.701      413.115        0.295        0.163       47.803       16.841        0.124      337.830       10.069      870.685
01/12/2022  13:53:00       66.061      -42.485      -20.108       58.545       84.277       33.112     3427.559     7102.664     1096.372        0.910        0.581       78.543       15.985        0.041      337.783        9.988      870.653
01/12/2022  13:54:00      104.228       35.512      -28.704       51.689       53.613       27.599     2671.747     2874.379      761.697        0.963        0.315      110.112       16.835        0.023      337.631        9.736      870.636
01/12/2022  13:55:00       82.103       -3.581      -18.982       32.136       62.157       30.215     1032.745     3863.447      912.917        0.646        0.290       82.181       17.513        0.045      337.812       10.039      870.607
01/12/2022  13:56:00       71.257       40.929      -21.568       28.114       22.641       13.986      790.389      512.597      195.608        0.436        0.075       82.175        9.271        0.013      337.595        9.674      870.585
01/12/2022  13:57:00       37.530        9.131      -13.150       25.881       27.435       15.221      669.809      752.702      231.687        0.166        0.083       38.625       11.955        0.096      337.741        9.921      870.564
01/12/2022  13:58:00       61.729       27.997      -10.100       57.042       28.147       24.182     3253.736      792.251      584.750        0.466        0.232       67.781       22.703        0.112      337.861       10.123      870.539
01/12/2022  13:59:00       54.969      -10.376      -10.687       41.820       39.854       24.776     1748.873     1588.379      613.860        0.360        0.198       55.939       17.814        0.101      337.966       10.298      870.516
01/12/2022  14:00:00       82.140       13.141      -11.084       56.739       35.534       26.911     3219.262     1262.650      724.194        0.612        0.260       83.185       27.055        0.106      338.036       10.415      870.519
01/12/2022  14:01:00       55.523       25.001      -20.154       32.565       19.118       14.935     1060.490      365.485      223.054        0.288        0.082       60.892        5.909        0.009      337.703        9.855      870.514
01/12/2022  14:02:00       46.818       50.327      -13.307       26.342       22.717       23.642      693.912      516.078      558.959        0.334        0.088       68.736       17.472        0.065      337.895       10.179      870.501
01/12/2022  14:03:00       26.205       16.880      -13.332       20.014       46.042       17.073      400.558     2119.837      291.482        0.198        0.141       31.171       12.986        0.174      337.991       10.339      870.484
01/12/2022  14:04:00       37.017      -20.449      -31.657       49.098       55.721       41.460     2410.648     3104.810     1718.922        0.501        0.362       42.290       28.005        0.439      338.122       10.558      870.457
01/12/2022  14:05:00       89.900       -4.688      -16.386       58.782       44.997       32.594     3455.272     2024.718     1062.351        0.746        0.327       90.022       19.142        0.045      337.956       10.281      870.451
01/12/2022  14:06:00       80.315      -18.940      -12.277       57.607       43.461       29.837     3318.595     1888.870      890.269        0.653        0.305       82.518       26.134        0.100      338.046       10.431      870.436
01/12/2022  14:07:00       13.477       14.106        5.645       24.743       47.035       27.876      612.225     2212.334      777.085        0.201        0.180       19.509       15.633        0.642      338.260       10.792      870.436
01/12/2022  14:08:00       71.360      -42.059      -28.222       52.782       43.512       36.993     2785.889     1893.331     1368.473        0.685        0.302       82.833       29.445        0.126      338.134       10.581      870.424
01/12/2022  14:09:00       48.758      -18.266      -11.924       35.525       24.891       24.214     1262.034      619.540      586.311        0.266        0.123       52.067       19.291        0.137      338.177       10.652      870.437
01/12/2022  14:10:00       37.813      -27.023      -16.204       24.333       24.440       14.585      592.118      597.289      212.719        0.191        0.070       46.477       14.329        0.095      337.967       10.300      870.442
01/12/2022  14:11:00       63.983      -26.304      -26.409       37.757       47.665       21.834     1425.587     2271.990      476.713        0.483        0.209       69.179       14.656        0.045      338.099       10.521      870.465
01/12/2022  14:12:00       76.749      -11.963      -14.361       39.618       42.990       21.018     1569.606     1848.103      441.743        0.505        0.193       77.675       10.495        0.018      338.070       10.473      870.472
01/12/2022  14:13:00       21.813       -8.911       -6.430       30.618       40.557       23.000      937.435     1644.909      529.015        0.185        0.156       23.563       16.995        0.520      338.348       10.938      870.480
01/12/2022  14:14:00       20.246       11.527       -8.901       23.075       18.841       16.689      532.468      354.999      278.509        0.089        0.058       23.297        8.881        0.145      338.144       10.596      870.472
01/12/2022  14:15:00      -28.625       20.950      -17.153       17.673       12.569       16.664      312.335      157.975      277.702        0.115        0.037       35.473        9.304        0.069      338.273       10.812      870.447
01/12/2022  14:16:00       10.703       -0.389       10.132       30.510       23.127       19.591      930.844      534.869      383.801        0.103        0.092       10.710       12.352        1.330      338.655       11.453      870.405
01/12/2022  14:17:00      -17.437      -10.389        7.743       26.238       34.466       27.551      688.417     1187.922      759.071        0.155        0.132       20.297       13.776        0.461      338.616       11.388      870.353
01/12/2022  14:18:00       37.092      -19.735       -6.635       36.996       39.687       25.748     1368.726     1575.036      662.938        0.271        0.180       42.015       23.046        0.301      338.446       11.104      870.287
01/12/2022  14:19:00       13.864       -4.681      -11.139       34.360       41.803       27.190     1180.576     1747.469      739.306        0.200        0.183       14.633       17.484        1.428      338.484       11.166      870.242
01/12/2022  14:20:00       59.621      -29.720      -16.759       46.999       46.294       32.147     2208.930     2143.123     1033.435        0.505        0.269       66.618       24.882        0.140      338.398       11.022      870.195
01/12/2022  14:21:00       21.414       10.585      -11.654       33.387       46.469       33.663     1114.701     2159.407     1133.166        0.256        0.220       23.887       24.273        1.033      338.497       11.190      870.173
01/12/2022  14:22:00      -10.848      -37.159      -10.229       26.400       44.630       24.808      696.940     1991.854      615.453        0.245        0.165       38.710       22.598        0.341      338.585       11.337      870.154
01/12/2022  14:23:00        3.036        4.770      -27.971       25.602       65.217       24.272      655.479     4253.194      589.108        0.316        0.275        5.655       17.983       10.114      338.264       10.796      870.168
01/12/2022  14:24:00       10.076       33.656      -21.740       22.594       41.646       18.009      510.467     1734.420      324.325        0.214        0.128       35.132       16.999        0.234      338.441       11.095      870.182
01/12/2022  14:25:00       23.561      -26.452      -18.919       27.238       27.965       23.661      741.902      782.016      559.840        0.185        0.104       35.423       19.183        0.293      338.547       11.272      870.204
01/12/2022  14:26:00        9.721      -54.036      -25.806       25.336       28.992       18.026      641.920      840.525      324.948        0.274        0.090       54.904       14.980        0.074      338.607       11.374      870.224
01/12/2022  14:27:00      -19.154      -52.123      -25.850       28.676       25.653       20.162      822.316      658.057      406.514        0.282        0.094       55.531       15.275        0.076      338.469       11.142      870.242
01/12/2022  14:28:00       -6.893      -23.909      -13.495       20.739       25.106       16.209      430.098      630.288      262.747        0.106        0.066       24.883       11.558        0.216      338.675       11.488      870.248
01/12/2022  14:29:00        0.515       10.730      -11.916       24.279       21.003       15.660      589.467      441.116      245.229        0.077        0.064       10.742        7.722        0.517      338.675       11.487      870.249
01/12/2022  14:30:00      -22.070       34.174        2.158       38.911       30.459       18.251     1514.045      927.725      333.089        0.222        0.139       40.681       10.686        0.069      338.734       11.586      870.247
01/12/2022  14:31:00        5.280       15.978      -17.784       30.470       17.301       11.632      928.442      299.313      135.299        0.098        0.068       16.828        7.138        0.180      338.683       11.502      870.226
01/12/2022  14:32:00       -8.653       -1.950       -7.186       20.484       20.107       15.793      419.606      404.307      249.410        0.060        0.054        8.869       10.271        1.341      338.933       11.921      870.219
01/12/2022  14:33:00      -15.221        3.401       -5.436       25.299       16.801       18.118      640.037      282.259      328.273        0.076        0.063       15.596       12.703        0.663      338.947       11.945      870.192
01/12/2022  14:34:00      -22.104       -0.140      -11.684       21.929       43.292       19.710      480.893     1874.168      388.502        0.168        0.137       22.104       13.495        0.373      338.757       11.626      870.180
01/12/2022  14:35:00      -31.076      -15.428      -18.411       27.748       23.763       13.236      769.976      564.701      175.198        0.153        0.075       34.695        7.790        0.050      338.683       11.501      870.165
01/12/2022  14:36:00      -14.789      -22.273      -10.246       27.919       28.978       22.306      779.451      839.730      497.536        0.147        0.106       26.736        7.760        0.084      338.687       11.507      870.148
01/12/2022  14:37:00        7.131      -17.780       -5.681       29.924       29.494       18.418      895.418      869.883      339.226        0.125        0.105       19.156        9.343        0.238      338.654       11.453      870.135
01/12/2022  14:38:00      -10.788      -35.361      -17.529       26.673       31.687       29.766      711.460     1004.061      886.016        0.214        0.130       36.970       23.842        0.416      338.612       11.382      870.115
01/12/2022  14:39:00      -36.775      -47.577      -14.660       42.108       34.233       27.058     1773.077     1171.894      732.114        0.375        0.184       60.133       20.725        0.119      338.595       11.354      870.106
01/12/2022  14:40:00      -50.553       -9.550       -2.522       23.039       23.639       19.579      530.814      558.810      383.325        0.206        0.074       51.448        6.716        0.017      338.539       11.259      870.104
01/12/2022  14:41:00      -39.151      -18.273       -4.256       43.113       31.009       17.308     1858.738      961.577      299.577        0.250        0.156       43.205       13.287        0.095      338.594       11.352      870.098
01/12/2022  14:42:00      -38.456      -23.775       -9.983       44.473       37.050       21.770     1977.817     1372.688      473.923        0.298        0.191       45.212       23.911        0.280      338.530       11.245      870.087
01/12/2022  14:43:00      -17.816       -5.701       -5.783       26.303       24.805       15.654      691.828      615.293      245.034        0.097        0.078       18.706        8.549        0.209      338.746       11.608      870.088
01/12/2022  14:44:00       -4.641      -28.143      -12.295       14.240       14.507       13.128      202.779      210.448      172.354        0.078        0.029       28.523        6.370        0.050      338.663       11.468      870.086
01/12/2022  14:45:00      -17.196      -28.631       -7.115       14.867       29.928       19.912      221.038      895.688      396.480        0.134        0.076       33.399       15.442        0.214      338.556       11.287      870.088
01/12/2022  14:46:00        6.040      -25.033       -6.678       34.437       19.961       15.997     1185.878      398.431      255.913        0.127        0.092       25.752        7.422        0.083      338.627       11.409      870.093
01/12/2022  14:47:00       46.790      -24.764      -14.095       23.780       16.441       14.732      565.485      270.312      217.018        0.203        0.053       52.939        7.959        0.023      338.392       11.011      870.102
01/12/2022  14:48:00       -3.313      -22.308       -9.770       15.240       22.872       17.591      232.251      523.135      309.444        0.083        0.053       22.553       13.677        0.368      338.644       11.437      870.109
01/12/2022  14:49:00       53.325       51.100      -11.397       28.936       17.007       18.742      837.309      289.240      351.277        0.353        0.074       73.857       15.102        0.042      338.380       10.994      870.119
01/12/2022  14:50:00       56.691       58.557      -13.260       27.335       19.474       15.704      747.195      379.237      246.605        0.410        0.069       81.503       11.255        0.019      338.295       10.849      870.126
01/12/2022  14:51:00        0.077       34.549      -23.608       33.438       25.807       18.224     1118.083      666.018      332.124        0.193        0.106       34.549       11.299        0.107      338.374       10.983      870.118
01/12/2022  14:52:00       -5.700       63.698      -14.066       19.716       24.331       18.540      388.721      592.001      343.729        0.281        0.066       63.952       13.381        0.044      338.514       11.218      870.111
01/12/2022  14:53:00       -3.336       71.749      -10.773       35.498       32.368       31.622     1260.102     1047.679      999.977        0.429        0.165       71.826       15.062        0.044      338.735       11.589      870.100
01/12/2022  14:54:00       15.286      -22.092      -11.849       28.852       34.102       20.753      832.427     1162.972      430.701        0.164        0.121       26.865       18.639        0.481      338.959       11.965      870.102
01/12/2022  14:55:00        7.094      -41.451      -19.831       34.461       36.053       19.165     1187.546     1299.798      367.293        0.251        0.143       42.053       18.269        0.189      338.894       11.856      870.097
01/12/2022  14:56:00       -5.226       -3.541        1.099       36.164       22.796       17.132     1307.808      519.640      293.510        0.108        0.106        6.313       11.762        3.471      339.013       12.055      870.105
01/12/2022  14:57:00        2.287      -14.623      -10.881       20.756       26.865       14.705      430.812      721.742      216.232        0.085        0.068       14.800        7.366        0.248      339.046       12.111      870.112
01/12/2022  14:58:00       18.353      -72.767      -15.895       37.559       43.557       23.430     1410.701     1897.182      548.954        0.487        0.193       75.045       17.170        0.052      338.736       11.590      870.113
01/12/2022  14:59:00       75.618     -124.399      -34.081       34.534       41.031       26.941     1192.601     1683.547      725.831        1.298        0.180      145.579       22.294        0.023      338.591       11.346      870.104
01/12/2022  15:00:00       80.300     -108.417      -32.150       24.887       43.926       19.203      619.384     1929.499      368.743        1.108        0.146      134.916       23.300        0.030      338.434       11.082      870.087
01/12/2022  15:01:00       78.609      -63.918      -20.197       28.011       32.899       20.443      784.619     1082.341      417.931        0.648        0.114      101.315       20.424        0.041      338.497       11.188      870.069
01/12/2022  15:02:00       52.314      -94.705      -26.337       19.906       30.611       18.357      396.251      937.030      336.995        0.703        0.084      108.194       18.975        0.031      338.408       11.038      870.039
01/12/2022  15:03:00       34.271      -54.770      -18.512       21.060       29.780       20.352      443.523      886.844      414.219        0.313        0.087       64.609       19.282        0.089      338.633       11.416      870.028
01/12/2022  15:04:00       47.943      -65.055      -19.755       23.724       38.295       18.876      562.822     1466.516      356.288        0.465        0.119       80.813       20.507        0.064      338.540       11.259      870.016
01/12/2022  15:05:00       -5.607      -15.887      -24.112       23.420       23.088       21.541      548.508      533.059      464.017        0.121        0.077       16.847       14.847        0.777      338.647       11.442      870.017
01/12/2022  15:06:00       43.771      -17.812       -3.741       23.824       16.369       17.139      567.592      267.939      293.732        0.169        0.056       47.257        9.802        0.043      338.621       11.398      870.020
01/12/2022  15:07:00        6.411       -6.103      -14.436       17.868       21.352       15.430      319.260      455.927      238.072        0.065        0.051        8.851        7.901        0.797      338.731       11.581      870.025
01/12/2022  15:08:00       50.132       12.113      -13.279       14.086       14.248       10.049      198.418      202.995      100.991        0.167        0.025       51.575        4.327        0.007      338.625       11.402      870.033
01/12/2022  15:09:00       47.470       40.734      -16.257       24.053       20.638       16.874      578.556      425.947      284.730        0.273        0.064       62.551       12.772        0.042      338.559       11.294      870.038
01/12/2022  15:10:00       30.508       36.188       -5.618       38.086       23.449       20.603     1450.523      549.861      424.468        0.235        0.121       47.332       14.701        0.096      338.713       11.551      870.046
01/12/2022  15:11:00       60.671       46.503       -4.951       23.420       19.643       16.139      548.512      385.850      260.465        0.353        0.060       76.443        9.002        0.014      338.618       11.392      870.044
01/12/2022  15:12:00       55.771       16.518      -16.265       13.556       22.480       11.050      183.768      505.338      122.106        0.223        0.041       58.166        4.717        0.007      338.588       11.340      870.041
01/12/2022  15:13:00       50.011      -12.209      -16.340       36.085       38.969       28.020     1302.093     1518.566      785.138        0.326        0.180       51.479       16.922        0.108      338.756       11.623      870.018
01/12/2022  15:14:00       18.795       -7.146       -6.207       42.781       37.885       32.635     1830.197     1435.287     1065.055        0.239        0.217       20.107       10.270        0.261      338.782       11.666      869.979
01/12/2022  15:15:00       79.411      -11.655      -22.595       40.356       34.597       31.286     1628.595     1196.966      978.788        0.538        0.190       80.262       18.586        0.054      338.646       11.438      869.956
01/12/2022  15:16:00       44.314       10.918       -5.563       31.565       26.707       16.498      996.332      713.263      272.173        0.205        0.099       45.639       17.230        0.143      338.764       11.635      869.937
01/12/2022  15:17:00       31.779       -5.499      -14.169       28.553       34.489       20.169      815.293     1189.501      406.769        0.183        0.121       32.251       19.235        0.356      338.730       11.581      869.923
01/12/2022  15:18:00       58.106        2.326      -12.621       21.305       22.989       12.231      453.910      528.487      149.595        0.234        0.057       58.152        6.509        0.013      338.637       11.423      869.916
01/12/2022  15:19:00       24.159       -2.991      -27.807       21.847       27.561       14.922      477.298      759.603      222.674        0.141        0.073       24.343       10.263        0.178      338.781       11.663      869.900
01/12/2022  15:20:00       25.482      -17.905      -15.628       33.824       48.433       25.889     1144.042     2345.710      670.253        0.269        0.208       31.144       13.207        0.180      338.815       11.724      869.886
01/12/2022  15:21:00       16.708      -13.867       -3.465       48.477       34.280       33.392     2350.028     1175.122     1115.016        0.256        0.232       21.713       24.696        1.294      338.872       11.817      869.852
01/12/2022  15:22:00       20.066       -7.394      -14.353       26.876       29.091       26.130      722.297      846.271      682.772        0.146        0.113       21.385       15.338        0.514      338.934       11.922      869.834
01/12/2022  15:23:00       54.521       35.877       -8.487       38.469       30.254       26.479     1479.885      915.330      701.136        0.371        0.155       65.266       17.791        0.074      338.736       11.590      869.825
01/12/2022  15:24:00       46.194      -33.361      -23.948       36.956       55.646       26.250     1365.745     3096.438      689.050        0.448        0.258       56.981       10.978        0.037      338.720       11.563      869.816
01/12/2022  15:25:00       80.732      -34.202      -12.385       44.931       33.552       27.475     2018.807     1125.742      754.877        0.587        0.195       87.678       23.096        0.069      338.642       11.433      869.821
01/12/2022  15:26:00       67.963        7.693       -8.583       40.683       33.216       20.640     1655.092     1103.300      426.015        0.397        0.159       68.397       11.771        0.030      338.650       11.445      869.827
01/12/2022  15:27:00       16.016        8.789      -16.917       25.952       49.432       24.047      673.524     2443.528      578.266        0.216        0.185       18.269       18.107        0.982      338.681       11.498      869.826
01/12/2022  15:28:00       85.027       20.209      -15.025       30.028       28.219       17.057      901.677      796.334      290.929        0.493        0.099       87.395        6.217        0.005      338.531       11.246      869.835
01/12/2022  15:29:00       47.136        2.958      -13.574       19.767       31.417       15.177      390.720      987.021      230.338        0.201        0.080       47.229        7.798        0.027      338.633       11.417      869.838
01/12/2022  15:30:00       59.904       13.491      -10.010       37.941       40.843       15.923     1439.496     1668.150      253.555        0.362        0.168       61.404       16.496        0.072      338.677       11.491      869.836
01/12/2022  15:31:00       85.840       19.158       -9.139       42.173       22.865       18.971     1778.566      522.793      359.884        0.524        0.133       87.952        7.590        0.007      338.629       11.412      869.847
01/12/2022  15:32:00       28.907       -9.940       -1.909       30.779       28.791       18.632      947.349      828.904      347.166        0.153        0.106       30.568       18.565        0.369      338.811       11.714      869.855
01/12/2022  15:33:00       72.785        6.058      -16.281       51.282       44.199       23.838     2629.825     1953.574      568.272        0.537        0.258       73.036       13.315        0.033      338.695       11.519      869.869
01/12/2022  15:34:00       50.838      -15.847      -13.574       43.286       38.715       30.133     1873.713     1498.871      907.972        0.365        0.214       53.251       25.894        0.236      338.799       11.696      869.883
01/12/2022  15:35:00       59.942      -24.402      -17.628       38.794       44.257       39.837     1504.997     1958.717     1587.011        0.477        0.253       64.719       27.506        0.181      338.839       11.763      869.909
01/12/2022  15:36:00       61.124       -8.736      -15.755       41.039       34.865       27.228     1684.210     1215.546      741.380        0.385        0.182       61.746       22.864        0.137      338.783       11.669      869.923
01/12/2022  15:37:00       56.567      -16.302      -11.026       37.874       29.083       21.605     1434.476      845.828      466.777        0.317        0.137       58.870       17.253        0.086      338.761       11.632      869.936
01/12/2022  15:38:00       38.857      -10.190       -9.192       20.427       22.161       15.210      417.251      491.096      231.339        0.142        0.057       40.171       10.059        0.063      338.752       11.617      869.928
01/12/2022  15:39:00       32.302      -39.928      -10.864       17.250       18.957       15.674      297.570      359.374      245.678        0.183        0.045       51.358       12.148        0.056      338.817       11.726      869.896
01/12/2022  15:40:00       23.655      -31.280       -8.057       18.704       24.249       17.308      349.855      588.017      299.582        0.142        0.062       39.217       13.350        0.116      338.835       11.755      869.853
01/12/2022  15:41:00       33.275       25.484        2.804       20.443       22.204       18.404      417.920      493.018      338.710        0.151        0.062       41.913       12.616        0.091      338.659       11.460      869.813
01/12/2022  15:42:00       37.088       25.092       -1.304       32.262       28.889       18.020     1040.840      834.558      324.719        0.210        0.110       44.779       14.863        0.110      338.713       11.550      869.773
01/12/2022  15:43:00       67.513       33.985      -10.034       18.966       15.433       10.864      359.692      238.174      118.035        0.326        0.036       75.585        5.688        0.006      338.663       11.464      869.746
01/12/2022  15:44:00       20.058       17.319       -8.662       20.132       15.613        9.353      405.304      243.754       87.477        0.076        0.037       26.501        6.460        0.059      338.756       11.625      869.747
01/12/2022  15:45:00      101.941       31.880      -14.827       19.134       18.215       15.212      366.126      331.777      231.413        0.628        0.046      106.810        8.312        0.006      338.662       11.464      869.746
01/12/2022  15:46:00       98.225       45.770       -9.332       17.515       23.462       15.657      306.790      550.480      245.139        0.647        0.055      108.365        4.724        0.002      338.629       11.409      869.751
01/12/2022  15:47:00       45.777       33.316       -2.354       35.046       34.420       21.901     1228.200     1184.720      479.636        0.305        0.145       56.617       15.016        0.070      338.715       11.556      869.751
01/12/2022  15:48:00       59.322       31.871      -13.328       30.229       25.605       21.555      913.782      655.607      464.611        0.337        0.102       67.341       13.641        0.041      338.745       11.605      869.740
01/12/2022  15:49:00       82.083       29.678      -14.920       15.038       10.908        8.400      226.132      118.974       70.561        0.413        0.021       87.284        3.920        0.002      338.680       11.495      869.736
01/12/2022  15:50:00       53.091       28.272       -5.261       12.950       10.156        7.804      167.714      103.138       60.907        0.199        0.017       60.150        3.067        0.003      338.646       11.439      869.730
01/12/2022  15:51:00       24.454       19.737       -7.186       13.231        9.916       10.906      175.068       98.328      118.948        0.072        0.020       31.426        7.709        0.060      338.768       11.644      869.725
01/12/2022  15:52:00       57.668       57.205       -5.996       41.959       22.514       15.141     1760.586      506.880      229.241        0.456        0.125       81.228        6.725        0.007      338.761       11.631      869.722
01/12/2022  15:53:00       59.559       23.807       -3.264       29.385       23.437       22.487      863.505      549.288      505.645        0.302        0.096       64.141       14.158        0.049      338.665       11.470      869.725
01/12/2022  15:54:00       86.097       36.985      -10.199       10.617        9.830        7.813      112.727       96.622       61.037        0.458        0.014       93.705        4.680        0.002      338.673       11.485      869.721
01/12/2022  15:55:00       50.331       31.611      -13.999       11.448        9.591       10.454      131.067       91.996      109.287        0.203        0.017       59.434        5.116        0.007      338.724       11.567      869.706
01/12/2022  15:56:00       66.640       18.766       -4.382       34.108       12.592       12.013     1163.341      158.566      144.317        0.314        0.073       69.232        8.771        0.016      338.690       11.514      869.691
01/12/2022  15:57:00       73.483       22.826       -6.002       17.741       11.640        8.037      314.735      135.491       64.591        0.324        0.026       76.947        3.780        0.002      338.670       11.479      869.678
01/12/2022  15:58:00       43.163       15.074      -10.951       13.270       13.295       12.132      176.100      176.768      147.186        0.136        0.025       45.720        8.333        0.033      338.674       11.486      869.673
01/12/2022  15:59:00       26.569       22.672       -9.548       16.329       12.625       11.651      266.623      159.385      135.757        0.094        0.028       34.927        4.104        0.014      338.757       11.628      869.682
01/12/2022  16:00:00       47.983       33.832      -11.365       22.681       15.030        8.857      514.412      225.905       78.452        0.220        0.041       58.711        6.233        0.011      338.746       11.606      869.693
01/12/2022  16:01:00       53.160       21.337      -16.959       23.670       16.270        8.987      560.267      264.707       80.774        0.224        0.045       57.283        7.114        0.015      338.737       11.589      869.709
01/12/2022  16:02:00       13.787        9.391       -3.287       13.298        9.558        8.746      176.846       91.353       76.487        0.032        0.017       16.681        6.489        0.151      338.829       11.748      869.732
01/12/2022  16:03:00       16.930        7.494       -5.561       18.611       23.772        9.833      346.369      565.127       96.696        0.069        0.050       18.514        7.723        0.174      338.920       11.900      869.743
01/12/2022  16:04:00       22.180       10.967      -12.099       11.918       16.200       10.082      142.037      262.432      101.657        0.063        0.025       24.743        5.394        0.048      338.781       11.663      869.753
01/12/2022  16:05:00       35.184      -10.230       -8.857       31.489       15.459       14.007      991.560      238.980      196.198        0.142        0.071       36.641        5.665        0.024      338.774       11.654      869.761
01/12/2022  16:06:00       82.593      -16.887      -18.367       30.748       17.095       14.231      945.447      292.233      202.531        0.444        0.072       84.301        8.810        0.011      338.715       11.556      869.759
01/12/2022  16:07:00       51.414      -19.638       -6.339       27.594       18.219       13.794      761.414      331.916      190.287        0.218        0.064       55.036        9.669        0.031      338.751       11.614      869.766
01/12/2022  16:08:00       40.979       -5.219      -17.064       24.582       19.588       12.181      604.288      383.698      148.370        0.157        0.057       41.310        5.308        0.017      338.720       11.562      869.766
01/12/2022  16:09:00       44.308        4.744      -11.038       19.073       22.293       12.449      363.774      496.972      154.984        0.156        0.051       44.561        7.418        0.028      338.681       11.496      869.770
01/12/2022  16:10:00       33.077        1.156       -8.631       19.068       10.264        9.375      363.594      105.359       87.892        0.086        0.028       33.097        8.944        0.073      338.672       11.481      869.769
01/12/2022  16:11:00       66.330       23.255       -7.148       22.305       15.714       13.045      497.518      246.943      170.163        0.295        0.046       70.289        3.768        0.003      338.664       11.470      869.777
01/12/2022  16:12:00       20.015      -15.320      -16.819       28.244       34.999       13.946      797.701     1224.946      194.481        0.157        0.111       25.205       11.941        0.224      338.782       11.668      869.778
01/12/2022  16:13:00        9.202       -8.043       -6.529       23.948       17.496       17.956      573.499      306.117      322.423        0.070        0.060       12.221       11.415        0.872      338.901       11.866      869.781
01/12/2022  16:14:00        1.712       -8.341        0.990       19.112       20.282       19.855      365.250      411.376      394.216        0.062        0.059        8.515       15.638        3.373      338.857       11.793      869.788
01/12/2022  16:15:00        7.947       -2.686       -3.992       21.855       20.747       18.388      477.627      430.428      338.128        0.067        0.062        8.388       10.244        1.491      338.820       11.732      869.789
01/12/2022  16:16:00        7.853       -7.862       -6.689       22.469       21.124       16.042      504.838      446.220      257.346        0.069        0.060       11.112       13.701        1.520      338.709       11.543      869.795
01/12/2022  16:17:00       18.413        8.973      -11.117       29.025       30.397       18.683      842.444      923.982      349.041        0.133        0.106       20.483       14.350        0.491      338.667       11.473      869.793
01/12/2022  16:18:00       26.799      -13.216       -4.121       29.435       22.624       22.949      866.445      511.845      526.655        0.141        0.095       29.881       16.015        0.287      338.750       11.613      869.794
01/12/2022  16:19:00       31.267      -27.124      -10.502       33.993       23.960       21.840     1155.533      574.088      476.972        0.201        0.110       41.392       14.688        0.126      338.731       11.580      869.789
01/12/2022  16:20:00       11.038       -8.321       -5.506       20.796       22.092       18.528      432.474      488.045      343.279        0.074        0.063       13.823       16.875        1.490      338.779       11.661      869.780
01/12/2022  16:21:00        1.620      -12.841       -8.827        9.446       10.385       12.399       89.232      107.839      153.735        0.030        0.018       12.943        7.029        0.295      339.036       12.093      869.776
01/12/2022  16:22:00        6.854      -14.411       -7.420       11.419       14.157       13.080      130.396      200.417      171.080        0.041        0.025       15.958        9.042        0.321      338.916       11.893      869.774
01/12/2022  16:23:00       14.653        8.373      -10.660       15.321       18.813       14.222      234.737      353.912      202.277        0.059        0.040       16.876        9.184        0.296      338.731       11.582      869.762
01/12/2022  16:24:00       -1.077        4.251       -3.993       13.478       17.057       11.789      181.647      290.952      138.992        0.032        0.031        4.385        5.866        1.789      338.734       11.585      869.757
01/12/2022  16:25:00       -7.233       -8.329       10.376       18.031       23.654       13.961      325.107      559.493      194.896        0.065        0.054       11.031       11.464        1.080      338.969       11.982      869.744
01/12/2022  16:26:00       17.607      -19.086        1.320       28.032       23.298       15.588      785.786      542.781      242.982        0.112        0.079       25.967       16.088        0.384      338.781       11.665      869.736
01/12/2022  16:27:00       13.017       -5.980       -3.658       21.752       13.630       13.100      473.152      185.769      171.601        0.052        0.042       14.325       10.631        0.551      338.777       11.657      869.735
01/12/2022  16:28:00       31.011      -19.666       -5.065       45.160       19.531       19.387     2039.414      381.463      375.866        0.208        0.140       36.721        7.740        0.044      338.716       11.556      869.738
01/12/2022  16:29:00       35.677      -14.700       -3.165       22.676       18.553       15.035      514.186      344.198      226.039        0.129        0.054       38.587       12.239        0.101      338.722       11.565      869.746
01/12/2022  16:30:00       50.090      -10.637       -7.163       15.221       18.441        8.028      231.685      340.061       64.441        0.165        0.032       51.207        6.500        0.016      338.557       11.289      869.752
01/12/2022  16:31:00       43.433       -6.546       -4.909       31.349       16.289       10.913      982.777      265.327      119.088        0.166        0.068       43.923       10.114        0.053      338.507       11.207      869.756
01/12/2022  16:32:00       50.364      -27.207       -6.701       33.600       21.644       22.405     1128.959      468.480      501.994        0.271        0.105       57.242       17.204        0.090      338.535       11.253      869.756
01/12/2022  16:33:00       47.779      -12.121       -0.432       28.697       22.101       17.051      823.532      488.465      290.732        0.202        0.080       49.292       14.480        0.086      338.472       11.146      869.760
01/12/2022  16:34:00       74.692       13.077       -1.318       38.492       18.680       16.145     1481.601      348.946      260.663        0.392        0.105       75.829        5.173        0.005      338.481       11.162      869.758
01/12/2022  16:35:00       99.533       11.333       -2.667       27.575       20.812       16.331      760.368      433.143      266.699        0.575        0.073      100.177       16.078        0.026      338.487       11.173      869.758
01/12/2022  16:36:00       94.646       25.456      -19.867       38.136       23.641       15.802     1454.348      558.910      249.700        0.613        0.113       98.009       16.049        0.027      338.553       11.283      869.754
01/12/2022  16:37:00       93.815       35.825      -16.054       33.746       28.906       15.202     1138.760      835.580      231.096        0.627        0.110      100.423        6.487        0.004      338.599       11.359      869.753
01/12/2022  16:38:00      106.058       36.870      -15.515       17.349       25.248       12.239      300.982      637.470      149.793        0.697        0.054      112.284        6.386        0.003      338.547       11.273      869.749
01/12/2022  16:39:00       78.712       13.306      -11.941       22.206       18.607       13.772      493.115      346.218      189.665        0.377        0.051       79.829        6.690        0.007      338.450       11.110      869.742
01/12/2022  16:40:00       90.688       18.303       -4.679       26.433       21.465       12.553      698.688      460.756      157.584        0.495        0.066       92.516       11.820        0.016      338.561       11.295      869.746
01/12/2022  16:41:00       75.426        2.049       -5.349       30.922       16.117        9.834      956.160      259.770       96.712        0.352        0.066       75.454        7.070        0.009      338.548       11.275      869.750
01/12/2022  16:42:00       61.603       -6.936       -3.174       25.326       17.917       12.323      641.405      321.034      151.854        0.248        0.056       61.992        7.150        0.013      338.531       11.245      869.751
01/12/2022  16:43:00       50.923        4.164       -7.233       16.434       10.565       12.268      270.069      111.629      150.504        0.160        0.027       51.093        8.620        0.028      338.522       11.230      869.758
01/12/2022  16:44:00       53.283        1.961       -4.822       18.826       12.175        7.426      354.400      148.241       55.146        0.171        0.028       53.319        3.475        0.004      338.538       11.256      869.754
01/12/2022  16:45:00       47.352       -7.727       -5.915       14.562       12.814        9.171      212.046      164.201       84.102        0.140        0.023       47.978        3.987        0.007      338.535       11.254      869.751
01/12/2022  16:46:00       48.623       -8.439        2.091       22.937       16.067       11.575      526.112      258.135      133.985        0.168        0.046       49.350        7.715        0.024      338.511       11.212      869.747
01/12/2022  16:47:00       46.206        6.117       -4.467       19.526       14.086       13.474      381.272      198.427      181.556        0.148        0.038       46.609        9.692        0.043      338.476       11.153      869.748
01/12/2022  16:48:00       25.855        0.287        0.358       32.172       21.192       17.139     1035.068      449.089      293.738        0.122        0.089       25.857       17.599        0.463      338.427       11.071      869.756
01/12/2022  16:49:00        0.573        2.261        3.603       19.651       19.173       19.717      386.149      367.593      388.770        0.058        0.057        2.332       15.571       44.582      338.385       11.001      869.775
01/12/2022  16:50:00        7.370        0.549      -11.146       15.322       12.937       10.241      234.761      167.375      104.873        0.034        0.025        7.390        6.254        0.716      338.317       10.888      869.797
01/12/2022  16:51:00       55.463      -18.024       -6.135        8.503        6.854        4.553       72.302       46.973       20.726        0.179        0.007       58.318        3.440        0.003      338.591       11.346      869.814
01/12/2022  16:52:00       66.307      -22.240       -5.317        5.815        4.892        3.885       33.812       23.933       15.097        0.250        0.004       69.937        3.328        0.002      338.640       11.422      869.834
01/12/2022  16:53:00       70.760      -25.138       -6.837       13.401       10.373       11.281      179.598      107.606      127.263        0.305        0.021       75.093        8.041        0.011      338.609       11.374      869.842
01/12/2022  16:54:00       73.680      -11.510       -3.575       17.387       11.714       12.088      302.324      137.229      146.109        0.308        0.029       74.574        9.948        0.018      338.525       11.235      869.838
01/12/2022  16:55:00       53.901      -13.993       -4.163       33.735       15.472       16.628     1138.082      239.396      276.497        0.239        0.083       55.688       17.756        0.102      338.429       11.073      869.846
01/12/2022  16:56:00       31.930       -8.266       -2.691       28.308       18.476       17.228      801.365      341.363      296.807        0.127        0.072       32.983       15.238        0.213      338.400       11.025      869.854
01/12/2022  16:57:00       30.925       -3.780       -2.284       27.652       19.100       17.007      764.652      364.801      289.231        0.120        0.071       31.155       15.596        0.251      338.392       11.013      869.863
01/12/2022  16:58:00       39.596      -12.339       -2.430       21.353       15.949       15.189      455.931      254.384      230.695        0.133        0.047       41.474       11.941        0.083      338.447       11.104      869.886
01/12/2022  16:59:00       48.527      -18.811       -2.156       16.584       12.196       10.821      275.042      148.746      117.084        0.163        0.027       52.045        8.059        0.024      338.454       11.116      869.888
01/12/2022  17:00:00       30.422       -7.553        0.102       18.680       12.999       12.847      348.933      168.963      165.033        0.083        0.034       31.345       10.625        0.115      338.372       10.978      869.882
01/12/2022  17:01:00        9.240       -7.050       -4.905       17.345       16.372       14.952      300.845      268.040      223.550        0.048        0.040       11.622        9.932        0.730      338.300       10.859      869.867
01/12/2022  17:02:00        6.364       -1.825       -6.008       12.073       18.036       12.581      145.752      325.303      158.272        0.035        0.031        6.621        4.841        0.535      338.094       10.512      869.856
01/12/2022  17:03:00       64.775        7.851       -3.271       32.497       24.176       11.219     1056.054      584.491      125.857        0.302        0.088       65.249        9.728        0.022      338.070       10.471      869.855
01/12/2022  17:04:00       68.793       29.149       -5.527       35.664       28.897       17.214     1271.904      835.018      296.322        0.401        0.120       74.714       16.950        0.051      337.937       10.248      869.853
01/12/2022  17:05:00       91.940       44.382       -6.741       23.221       20.318       12.178      539.211      412.827      148.302        0.578        0.055      102.091        8.665        0.007      338.024       10.395      869.842
01/12/2022  17:06:00       84.827       28.759       -2.299       24.527       26.537       16.911      601.580      704.233      285.990        0.481        0.080       89.570       10.183        0.013      337.986       10.332      869.837
01/12/2022  17:07:00       86.834       50.248       -6.924       19.203       14.509       11.834      368.765      210.498      140.044        0.542        0.036      100.324        5.070        0.003      338.089       10.504      869.835
01/12/2022  17:08:00       35.928       35.640       -3.845       21.087       16.633       13.127      444.654      276.666      172.326        0.173        0.045       50.607        9.925        0.038      337.973       10.309      869.836
01/12/2022  17:09:00       43.626       29.243       -5.267       28.274       16.295       12.944      799.417      265.528      167.559        0.201        0.062       52.520       10.876        0.043      338.070       10.472      869.834
01/12/2022  17:10:00        9.357        3.544       -6.463       14.054       14.907       11.374      197.519      222.218      129.369        0.035        0.027       10.006        6.201        0.384      337.934       10.245      869.851
01/12/2022  17:11:00       10.094       15.245      -10.661       16.206       11.323       12.335      262.646      128.200      152.147        0.050        0.027       18.284       11.257        0.379      337.982       10.322      869.879
01/12/2022  17:12:00      -22.487        2.991      -15.944       22.681       12.469       12.515      514.426      155.480      156.636        0.080        0.041       22.685        6.472        0.081      337.660        9.785      869.908
01/12/2022  17:13:00      -64.082       32.840      -12.172       22.631       22.721       13.075      512.168      516.228      170.966        0.327        0.060       72.007        7.574        0.011      337.383        9.321      869.931
01/12/2022  17:14:00      -65.438       32.110      -21.814       23.182       21.007       15.704      537.413      441.288      246.624        0.351        0.061       72.892        7.253        0.010      337.300        9.181      869.947
01/12/2022  17:15:00      -52.327       13.938      -13.790       32.813       23.579       23.674     1076.671      555.952      560.473        0.266        0.110       54.152       21.851        0.163      337.068        8.792      869.969
01/12/2022  17:16:00      -39.573        6.523       -8.332       33.183       25.161       19.263     1101.137      633.083      371.056        0.189        0.105       40.107       19.725        0.242      337.136        8.906      869.975
01/12/2022  17:17:00      -27.303        4.750      -20.236       26.081       16.120       14.490      680.220      259.843      209.969        0.116        0.058       27.713       13.276        0.230      337.170        8.963      869.982
01/12/2022  17:18:00      -52.454       17.189      -16.926       26.886       10.992       12.653      722.871      120.823      160.096        0.217        0.050       55.199        6.124        0.012      337.333        9.236      869.976
01/12/2022  17:19:00       12.843       26.034       -2.116       27.698       18.685       10.040      767.153      349.145      100.799        0.103        0.061       29.030       11.726        0.163      337.839       10.083      869.978
01/12/2022  17:20:00       31.637       -4.264       -2.447       12.229       13.746       13.518      149.543      188.940      182.749        0.077        0.026       31.923        7.222        0.051      337.968       10.302      869.958
01/12/2022  17:21:00       27.936       13.907       -3.925       11.257       14.023        8.275      126.730      196.651       68.470        0.069        0.020       31.206        4.300        0.019      337.960       10.288      869.948
01/12/2022  17:22:00       27.765       22.871       -3.918       13.438        7.536        7.440      180.580       56.798       55.355        0.080        0.015       35.972        6.978        0.038      337.844       10.093      869.936
01/12/2022  17:23:00       29.696       14.286       -5.785       20.641       13.465       12.479      426.061      181.307      155.727        0.094        0.038       32.954        9.956        0.091      337.906       10.196      869.933
01/12/2022  17:24:00       29.572       17.374       -5.381       21.173       17.012       10.639      448.275      289.392      113.194        0.103        0.043       34.298        7.525        0.048      337.832       10.073      869.933
01/12/2022  17:25:00        7.946       21.544       -5.829       13.301       18.542       10.086      176.906      343.798      101.721        0.059        0.031       22.963        8.370        0.133      337.844       10.093      869.938
01/12/2022  17:26:00        6.640       21.692       -5.069       14.676       15.083       12.870      215.378      227.498      165.644        0.057        0.030       22.686        7.518        0.110      337.738        9.914      869.948
01/12/2022  17:27:00      -25.497       53.350       -5.646       21.886       16.099       11.648      478.977      259.176      135.679        0.220        0.044       59.130        7.123        0.015      337.460        9.450      869.953
01/12/2022  17:28:00      -25.902       36.095       -5.141       18.815       24.017       14.538      354.007      576.839      211.357        0.157        0.057       44.427        9.388        0.045      337.427        9.393      869.962
01/12/2022  17:29:00      -13.558       20.096       -1.154       27.536       18.564       16.249      758.236      344.632      264.015        0.098        0.068       24.242        6.932        0.082      337.335        9.239      869.958
01/12/2022  17:30:00       10.212       13.602       -4.120       17.665       21.093       12.484      312.054      444.909      155.854        0.061        0.046       17.009       10.238        0.362      337.439        9.415      869.959
01/12/2022  17:31:00       10.164       14.426       -1.215       13.718       15.018        8.268      188.181      225.534       68.362        0.040        0.024       17.647        9.969        0.319      337.344        9.253      869.944
01/12/2022  17:32:00        1.279        4.595       -3.936        6.330        4.398        6.111       40.064       19.345       37.346        0.007        0.005        4.769        3.155        0.438      337.247        9.094      869.931
01/12/2022  17:33:00       32.187       33.037       -9.417       13.428       17.250        6.513      180.306      297.554       42.418        0.137        0.026       46.124        6.321        0.019      337.250        9.098      869.916
01/12/2022  17:34:00       45.883       82.652      -16.246       21.764       33.514       17.874      473.673     1123.159      319.494        0.556        0.096       94.534       18.691        0.039      337.515        9.541      869.902
01/12/2022  17:35:00       46.349       57.840      -12.966       19.659       25.626       15.947      386.488      656.685      254.308        0.348        0.065       74.120       10.653        0.021      337.398        9.344      869.888
01/12/2022  17:36:00       46.808       47.358      -18.776       21.786       26.948       25.153      474.649      726.174      632.653        0.331        0.092       66.587       17.396        0.068      337.307        9.193      869.880
01/12/2022  17:37:00       48.825       50.675      -12.451       32.335       24.654       18.155     1045.549      607.821      329.602        0.354        0.099       70.369       11.259        0.026      337.399        9.345      869.872
01/12/2022  17:38:00       48.531       34.527       -6.152       32.959       26.381       20.504     1086.299      695.981      420.398        0.289        0.110       59.559       21.253        0.127      337.353        9.271      869.853
01/12/2022  17:39:00       81.480       55.405       -4.360       29.470       21.431       17.267      868.474      459.302      298.157        0.568        0.081       98.532       10.775        0.012      337.383        9.319      869.835
01/12/2022  17:40:00       94.994       59.398       -8.783       32.723       25.783       15.039     1070.790      664.770      226.168        0.730        0.098      112.035       17.832        0.025      337.416        9.375      869.822
01/12/2022  17:41:00      106.985       61.805      -15.228       26.712       18.504       18.965      713.541      342.393      359.653        0.846        0.071      123.554        7.834        0.004      337.333        9.235      869.808
01/12/2022  17:42:00      105.082       27.492      -13.270       26.927       25.808       14.694      725.080      666.078      215.921        0.679        0.080      108.619        8.193        0.006      337.287        9.161      869.799
01/12/2022  17:43:00       80.187       27.591       -9.121       29.613       20.508       18.537      876.917      420.597      343.630        0.446        0.082       84.801       18.717        0.049      337.266        9.125      869.789
01/12/2022  17:44:00       90.889       29.697      -11.697       22.551       18.723       14.761      508.567      350.534      217.889        0.518        0.054       95.618        8.839        0.009      337.189        8.997      869.787
01/12/2022  17:45:00      117.756       69.700      -18.651       32.036       30.573       23.005     1026.290      934.733      529.252        1.078        0.125      136.838       13.436        0.010      337.331        9.234      869.766
01/12/2022  17:46:00       99.903       42.112       -6.109       47.823       36.054       20.876     2287.083     1299.913      435.805        0.791        0.201      108.416       25.754        0.056      337.275        9.141      869.748
01/12/2022  17:47:00       97.306       44.438      -13.187       36.711       29.371       19.427     1347.727      862.658      377.406        0.710        0.129      106.973       14.087        0.017      337.264        9.122      869.746
01/12/2022  17:48:00       33.741       35.680      -10.675       19.424       18.135       13.919      377.293      328.891      193.731        0.171        0.045       49.107        8.144        0.028      337.231        9.068      869.744
01/12/2022  17:49:00       13.752       17.446      -10.379       18.884       10.388       11.651      356.593      107.917      135.755        0.060        0.030       22.215        9.873        0.198      337.194        9.007      869.758
01/12/2022  17:50:00      -32.591       26.518      -20.666       26.348       15.887       11.259      694.214      252.399      126.768        0.163        0.054       42.017        7.858        0.035      336.939        8.577      869.777
01/12/2022  17:51:00     -104.204       25.560      -25.517       16.282       18.355       13.621      265.092      336.919      185.536        0.648        0.039      107.293        6.620        0.004      336.640        8.076      869.794
01/12/2022  17:52:00      -86.325       29.728      -12.765       35.091       26.407       16.893     1231.371      697.355      285.388        0.536        0.111       91.300       11.047        0.015      336.367        7.620      869.807
01/12/2022  17:53:00      -91.537        9.176      -14.865       52.247       37.868       22.667     2729.765     1433.997      513.788        0.668        0.234       91.996       15.608        0.029      336.275        7.467      869.808
01/12/2022  17:54:00     -116.461       30.146      -12.174       16.658       19.564       15.569      277.486      382.765      242.387        0.776        0.045      120.299        7.510        0.004      336.201        7.342      869.812
01/12/2022  17:55:00     -114.628       26.338      -17.753       23.858       19.680       16.271      569.189      387.294      264.729        0.768        0.061      117.615       14.697        0.016      336.193        7.330      869.809
01/12/2022  17:56:00      -97.191       21.209       -9.381       36.833       26.185       19.781     1356.670      685.635      391.304        0.621        0.122       99.478       20.660        0.043      336.140        7.241      869.806
01/12/2022  17:57:00      -81.646       15.721      -11.967       46.523       25.409       17.544     2164.397      645.616      307.805        0.509        0.156       83.146       11.951        0.021      336.100        7.175      869.807
01/12/2022  17:58:00     -110.055       37.155      -22.333       16.179       16.003       16.194      261.774      256.111      262.255        0.739        0.039      116.158        7.767        0.004      336.059        7.106      869.815
01/12/2022  17:59:00     -119.865       43.976      -23.219       25.608       19.077       17.391      655.781      363.937      302.436        0.908        0.066      127.677        6.296        0.002      336.063        7.113      869.826
01/12/2022  18:00:00     -124.277       37.532      -19.631       31.895       29.919       18.694     1017.308      895.133      349.472        0.975        0.113      129.821       13.899        0.011      336.095        7.168      869.842
01/12/2022  18:01:00      -88.467       21.417      -13.383       36.492       28.757       21.156     1331.649      826.974      447.574        0.553        0.130       91.023       14.930        0.027      336.031        7.060      869.869
01/12/2022  18:02:00      -89.440        6.878      -24.995       41.009       35.340       25.360     1681.725     1248.917      643.131        0.612        0.179       89.704       18.811        0.044      335.999        7.007      869.885
01/12/2022  18:03:00      -36.075        4.871      -11.056       54.216       29.246       27.501     2939.404      855.302      756.326        0.300        0.228       36.403       29.887        0.674      335.975        6.968      869.900
01/12/2022  18:04:00     -132.937       37.926      -13.189       42.899       33.389       20.883     1840.342     1114.820      436.097        1.134        0.170      138.241       22.218        0.026      335.955        6.934      869.909
01/12/2022  18:05:00     -178.550       58.707      -18.337       26.172       36.176       16.434      684.971     1308.725      270.081        1.896        0.113      187.954        5.363        0.001      335.927        6.886      869.910
01/12/2022  18:06:00     -121.461       31.216      -19.437       49.860       36.943       16.916     2486.052     1364.809      286.140        1.012        0.207      125.409       20.549        0.027      335.928        6.889      869.902
01/12/2022  18:07:00     -111.902       28.104      -13.322       44.749       29.658       21.193     2002.471      879.620      449.142        0.841        0.167      115.377       22.275        0.037      336.024        7.048      869.892
01/12/2022  18:08:00      -85.780       22.287      -20.170       41.731       32.481       20.135     1741.484     1055.015      405.401        0.573        0.160       88.628       20.829        0.055      336.022        7.045      869.879
01/12/2022  18:09:00      -45.865       11.242       -5.999       49.472       29.360       20.725     2447.491      862.011      429.537        0.300        0.187       47.223       23.186        0.241      336.018        7.039      869.858
01/12/2022  18:10:00      -60.567       14.446      -26.511       26.394       20.038       23.621      696.653      401.507      557.937        0.312        0.083       62.266       19.730        0.100      336.050        7.091      869.847
01/12/2022  18:11:00      -80.732       24.549      -24.226       22.080       15.733       14.191      487.515      247.522      201.394        0.432        0.047       84.382        5.877        0.005      336.084        7.148      869.834
01/12/2022  18:12:00     -102.612       29.020      -20.971       19.683       16.666       14.729      387.406      277.745      216.944        0.635        0.044      106.637        8.690        0.007      336.047        7.088      869.830
01/12/2022  18:13:00     -113.214       40.122      -20.502       27.143       18.490       13.723      736.726      341.894      188.323        0.806        0.063      120.113        9.434        0.006      335.940        6.908      869.834
01/12/2022  18:14:00     -112.757       62.953      -20.483       16.888       13.286       14.300      285.207      176.505      204.499        0.888        0.033      129.141        6.605        0.003      335.994        6.998      869.848
01/12/2022  18:15:00     -107.951       59.042      -17.479       14.956       16.628       11.690      223.686      276.501      136.667        0.804        0.032      123.042        4.479        0.001      335.925        6.885      869.859
01/12/2022  18:16:00     -102.905       47.821      -12.646       16.274       22.380       12.172      264.857      500.845      148.162        0.697        0.046      113.474       10.624        0.009      335.960        6.940      869.856
01/12/2022  18:17:00      -71.619       50.858       -8.189       30.150       18.741       19.728      909.003      351.221      389.198        0.472        0.082       87.840       14.647        0.028      335.861        6.775      869.853
01/12/2022  18:18:00      -51.181       42.660       -7.189       30.421       24.654       19.730      925.435      607.836      389.270        0.321        0.096       66.629       15.125        0.052      336.026        7.052      869.843
01/12/2022  18:19:00      -54.930       28.429       -6.741       29.413       19.456       19.501      865.122      378.531      380.272        0.275        0.081       61.851       20.426        0.109      336.012        7.030      869.827
01/12/2022  18:20:00      -28.487       16.908       -4.451       24.943       14.830       16.251      622.172      219.918      264.105        0.111        0.055       33.126        9.812        0.088      336.099        7.174      869.817
01/12/2022  18:21:00        4.533       80.135      -10.484       18.625       43.433       14.168      346.874     1886.454      200.726        0.449        0.122       80.263       11.791        0.022      336.626        8.053      869.820
01/12/2022  18:22:00        7.855       97.821      -16.130       20.662       25.136       15.224      426.934      631.811      231.776        0.559        0.065       98.136        8.202        0.007      336.777        8.307      869.815
01/12/2022  18:23:00        6.278       85.094       -8.881       26.452       24.660       19.959      699.705      608.120      398.380        0.453        0.085       85.325       16.568        0.038      336.679        8.143      869.814
01/12/2022  18:24:00        9.522       98.913      -13.672       37.200       28.563       19.304     1383.812      815.869      372.662        0.632        0.129       99.370       14.411        0.021      336.882        8.482      869.815
01/12/2022  18:25:00       33.698      116.664      -19.727       28.796       27.647       17.573      829.182      764.350      308.808        0.852        0.095      121.433       14.643        0.015      336.890        8.495      869.831
01/12/2022  18:26:00       34.566      133.399      -19.194       30.278       29.933       19.373      916.785      895.956      375.305        1.077        0.109      137.805       14.380        0.011      336.904        8.519      869.848
01/12/2022  18:27:00       49.617      135.272      -21.171       30.287       21.982       21.673      917.297      483.187      469.736        1.154        0.094      144.085       11.348        0.006      336.970        8.629      869.865
01/12/2022  18:28:00       11.974      101.996      -17.995       36.409       32.151       25.722     1325.624     1033.682      661.604        0.695        0.151      102.696       14.421        0.020      336.762        8.281      869.867
01/12/2022  18:29:00        5.501      111.819      -11.874       32.180       34.583       20.720     1035.580     1195.987      429.302        0.767        0.133      111.954       17.687        0.025      336.725        8.219      869.859
01/12/2022  18:30:00       43.703      119.553      -16.663       31.738       30.331       18.565     1007.315      919.964      344.677        0.938        0.114      127.291       13.233        0.011      336.792        8.332      869.860
01/12/2022  18:31:00      -20.786       39.865       -7.969       33.685       20.943       22.051     1134.680      438.610      486.236        0.207        0.103       44.959       14.706        0.107      336.311        7.527      869.852
01/12/2022  18:32:00       15.711       88.133      -13.883       35.246       31.452       23.118     1242.315      989.230      534.433        0.549        0.138       89.522       19.847        0.049      336.701        8.180      869.851
01/12/2022  18:33:00      -14.059       31.237        2.014       28.858       20.645       23.871      832.768      426.230      569.842        0.150        0.091       34.254       15.318        0.200      336.286        7.486      869.856
01/12/2022  18:34:00       -1.126       27.570        2.151       19.967       12.219       17.320      398.684      149.301      299.993        0.081        0.042       27.593       13.637        0.244      336.295        7.502      869.858
01/12/2022  18:35:00       16.750       70.816      -10.210       27.551       23.643       15.469      759.048      558.991      239.299        0.348        0.078       72.770        6.744        0.009      336.641        8.080      869.872
01/12/2022  18:36:00        7.241       45.637       -2.198       20.688       25.258       13.502      428.007      637.960      182.314        0.169        0.062       46.208       10.303        0.050      336.376        7.636      869.879
01/12/2022  18:37:00       25.598       44.264        3.106       40.779       19.932       17.767     1662.898      397.285      315.658        0.250        0.119       51.133       15.208        0.088      336.613        8.032      869.890
01/12/2022  18:38:00       12.726       39.781       -0.316       29.995       25.481       16.319      899.702      649.287      266.296        0.178        0.091       41.767       16.789        0.162      336.377        7.639      869.907
01/12/2022  18:39:00      -13.518        8.805      -14.096       16.080       10.923       12.117      258.552      119.303      146.812        0.049        0.026       16.133        9.007        0.312      336.057        7.103      869.917
01/12/2022  18:40:00      -12.072       17.363      -18.488       22.944       16.285       13.616      526.416      265.201      185.390        0.088        0.049       21.147       12.529        0.351      336.193        7.331      869.926
01/12/2022  18:41:00      -38.162        0.703      -19.545       14.565       14.501       15.140      212.148      210.291      229.224        0.125        0.033       38.169        6.991        0.034      335.932        6.895      869.932
01/12/2022  18:42:00      -20.355        2.503      -11.721       14.596       13.362       12.410      213.040      178.540      154.016        0.055        0.027       20.509        5.182        0.064      335.887        6.820      869.940
01/12/2022  18:43:00      -19.471       -6.268      -11.275       13.183       15.924       16.411      173.790      253.569      269.328        0.062        0.035       20.455        9.021        0.194      335.925        6.884      869.951
01/12/2022  18:44:00      -23.317       -2.786       -8.665       11.986       11.869       12.360      143.671      140.877      152.759        0.053        0.022       23.483        6.454        0.076      335.940        6.908      869.956
01/12/2022  18:45:00      -31.361      -10.676      -19.930       10.456        9.920       11.572      109.322       98.414      133.904        0.092        0.017       33.128        9.177        0.077      336.054        7.099      869.960
01/12/2022  18:46:00      -21.751       -1.442      -20.086       16.458       10.130       12.312      270.876      102.615      151.588        0.070        0.026       21.799        6.236        0.082      336.180        7.308      869.968
01/12/2022  18:47:00        9.167        1.246      -13.362       16.187       10.162        9.422      262.032      103.270       88.778        0.036        0.023        9.251        9.189        0.987      336.430        7.728      869.975
01/12/2022  18:48:00      -31.611       -3.541      -14.318       13.917        9.025       11.626      193.670       81.459      135.173        0.081        0.021       31.808        6.367        0.040      336.028        7.056      869.985
01/12/2022  18:49:00       -9.913        0.706      -12.456        9.127        6.554       10.091       83.295       42.951      101.825        0.024        0.011        9.938        3.745        0.142      336.356        7.603      869.993
01/12/2022  18:50:00      -48.134        9.602      -21.948       13.172        7.773        8.575      173.505       60.413       73.523        0.160        0.015       49.082        5.923        0.015      336.008        7.022      869.992
01/12/2022  18:51:00      -37.318       11.057      -17.668       10.814        6.597        9.610      116.936       43.524       92.359        0.104        0.013       38.922        6.017        0.024      335.894        6.831      869.999
01/12/2022  18:52:00      -38.797        2.349      -15.469       10.145        8.330        9.728      102.923       69.383       94.637        0.101        0.013       38.868        4.553        0.014      335.845        6.751      870.001
01/12/2022  18:53:00      -35.660       14.448      -16.172       10.229        6.618        8.221      104.626       43.798       67.583        0.098        0.011       38.476        5.234        0.019      335.805        6.682      870.009
01/12/2022  18:54:00      -40.180        7.521      -13.455       15.463       16.664       11.494      239.099      277.682      132.111        0.125        0.032       40.878       10.181        0.062      335.776        6.635      870.015
01/12/2022  18:55:00      -59.858        6.225      -12.403       23.994       20.159       19.340      575.712      406.401      374.028        0.257        0.068       60.180       14.021        0.054      335.662        6.444      870.040
01/12/2022  18:56:00      -41.867       -3.706       -6.870       28.686       20.874       19.433      822.907      435.722      377.654        0.172        0.082       42.031       18.455        0.193      335.617        6.370      870.046
01/12/2022  18:57:00      -31.100       -7.056       -1.047       26.141       23.749       23.282      683.368      564.023      542.065        0.140        0.089       31.891       19.901        0.389      335.494        6.164      870.059
01/12/2022  18:58:00      -67.157       17.784      -11.060       45.844       23.901       18.016     2101.681      571.281      324.585        0.397        0.150       69.472       21.716        0.098      335.526        6.219      870.073
01/12/2022  18:59:00      -57.258       -4.674      -15.260       28.547       20.091       19.562      814.941      403.630      382.660        0.257        0.080       57.448       13.884        0.058      335.585        6.317      870.091
01/12/2022  19:00:00      -88.592       16.703      -28.056       12.732       12.049       13.018      162.094      145.173      169.480        0.470        0.024       90.153        7.856        0.008      335.486        6.153      870.113
01/12/2022  19:01:00      -70.021       14.681      -23.547       22.966       16.756       16.390      527.417      280.774      268.635        0.337        0.054       71.543       14.496        0.041      335.446        6.084      870.131
01/12/2022  19:02:00      -72.363       10.473      -19.300       35.000       29.109       22.679     1225.020      847.314      514.330        0.415        0.129       73.116       23.255        0.101      335.387        5.988      870.137
01/12/2022  19:03:00      -28.490        5.408        0.447       38.513       34.674       26.798     1483.254     1202.300      718.131        0.212        0.170       28.998       27.065        0.871      335.273        5.798      870.134
01/12/2022  19:04:00      -64.904        7.129      -19.441       28.498       30.601       29.485      812.138      936.421      869.392        0.363        0.131       65.295       19.675        0.091      335.264        5.782      870.125
01/12/2022  19:05:00      -48.638        5.593      -12.089       43.753       32.265       27.650     1914.323     1041.056      764.521        0.313        0.186       48.958       20.090        0.168      335.176        5.637      870.116
01/12/2022  19:06:00      -45.811        6.616      -17.120       48.833       40.173       26.480     2384.706     1613.834      701.194        0.357        0.235       46.287       25.270        0.298      335.148        5.590      870.111
01/12/2022  19:07:00       -8.011       11.401      -10.273       14.871       35.905       22.387      221.152     1289.194      501.175        0.116        0.101       13.934       20.671        2.201      335.146        5.585      870.118
01/12/2022  19:08:00      -37.738       12.731       -3.903       27.601       32.516       18.611      761.817     1057.320      346.374        0.188        0.108       39.828       15.413        0.150      335.115        5.536      870.120
01/12/2022  19:09:00      -22.800      -10.409       -3.690       24.046       32.380       22.156      578.218     1048.490      490.879        0.138        0.106       25.064       14.975        0.357      335.104        5.516      870.127
01/12/2022  19:10:00        1.687        8.346       -3.648       34.852       32.032       25.172     1214.654     1026.066      633.646        0.148        0.144        8.515       18.031        4.484      335.086        5.487      870.130
01/12/2022  19:11:00      -43.217       32.184       -7.885       40.854       32.725       24.756     1669.080     1070.925      612.868        0.316        0.168       53.884       18.561        0.119      335.073        5.465      870.134
01/12/2022  19:12:00      -45.833       -8.843       -9.148       38.328       25.604       25.539     1469.014      655.540      652.260        0.252        0.139       46.678       24.038        0.265      335.114        5.533      870.138
01/12/2022  19:13:00      -61.184      -39.198      -24.342       37.541       21.444       25.261     1409.322      459.863      638.127        0.419        0.125       72.663       23.105        0.101      335.089        5.493      870.135
01/12/2022  19:14:00      -73.847       -8.609      -22.667       31.664       40.412       20.993     1002.592     1633.095      440.690        0.456        0.154       74.347        6.816        0.008      335.113        5.532      870.137
01/12/2022  19:15:00      -67.500      -19.171      -18.557       40.276       23.820       25.760     1622.138      567.393      663.581        0.406        0.143       70.170       17.307        0.061      335.130        5.560      870.138
01/12/2022  19:16:00      -86.623      -13.824      -25.948       18.126       15.124       20.331      328.563      228.739      413.358        0.467        0.049       87.719        5.565        0.004      335.139        5.577      870.137
01/12/2022  19:17:00      -78.982      -19.849      -20.879       22.902       14.698       17.561      524.496      216.019      308.399        0.406        0.052       81.438       12.646        0.024      335.170        5.625      870.135
01/12/2022  19:18:00      -21.808        5.719       -2.702       24.193       28.943       15.959      585.324      837.718      254.678        0.110        0.084       22.545       11.096        0.242      335.131        5.562      870.143
01/12/2022  19:19:00      -41.307       -8.178      -10.888       21.977       27.117       18.959      482.968      735.307      359.442        0.173        0.079       42.108       14.080        0.112      335.102        5.513      870.145
01/12/2022  19:20:00      -66.839      -10.596      -21.635       25.851       18.864       14.738      668.285      355.869      217.203        0.314        0.062       67.674       10.219        0.023      335.197        5.669      870.140
01/12/2022  19:21:00      -78.552       10.980      -23.532       12.070       14.725       12.107      145.688      216.828      146.578        0.368        0.025       79.316        8.273        0.011      335.197        5.670      870.143
01/12/2022  19:22:00      -80.010       -1.597      -21.536       19.434       21.026       20.301      377.681      442.086      412.117        0.405        0.062       80.026       10.586        0.017      335.252        5.762      870.145
01/12/2022  19:23:00      -38.305        2.433       -3.337       37.331       27.545       21.821     1393.593      758.732      476.174        0.206        0.131       38.383       20.440        0.284      335.178        5.639      870.144
01/12/2022  19:24:00      -49.605       -7.441       -7.107       37.511       19.964       22.554     1407.082      398.579      508.697        0.244        0.116       50.160       23.424        0.218      335.139        5.575      870.152
01/12/2022  19:25:00      -46.171        2.754       -5.020       29.199       24.756       21.837      852.611      612.871      476.845        0.205        0.097       46.254       20.214        0.191      335.092        5.497      870.149
01/12/2022  19:26:00      -48.190       12.945       -5.162       34.530       30.841       25.447     1192.346      951.143      647.568        0.265        0.140       49.899       23.848        0.228      335.109        5.526      870.145
01/12/2022  19:27:00      -37.725       23.592       -9.206       34.888       37.502       18.986     1217.182     1406.364      360.462        0.252        0.149       44.494       10.518        0.056      335.001        5.347      870.143
01/12/2022  19:28:00      -20.641        9.201       -5.518       30.273       39.968       20.953      916.472     1597.449      439.015        0.175        0.148       22.599       17.760        0.618      334.937        5.239      870.141
01/12/2022  19:29:00      -26.730      -31.467      -11.797       41.394       38.667       28.470     1713.459     1495.137      810.562        0.293        0.201       41.288       14.659        0.126      334.927        5.224      870.138
01/12/2022  19:30:00       -9.487       30.017       -7.799       42.667       32.596       26.190     1820.481     1062.479      685.904        0.231        0.178       31.480       16.572        0.277      334.891        5.165      870.134
01/12/2022  19:31:00      -32.319       12.543      -10.657       44.795       42.220       26.690     2006.584     1782.525      712.379        0.291        0.225       34.668       17.707        0.261      334.871        5.130      870.122
01/12/2022  19:32:00      -20.483       -2.914       -9.568       30.144       41.340       25.028      908.655     1708.978      626.410        0.188        0.162       20.690       17.087        0.682      334.908        5.194      870.115
01/12/2022  19:33:00      -71.312       33.570      -17.401       41.778       34.763       22.722     1745.420     1208.475      516.269        0.499        0.174       78.819       13.787        0.031      334.881        5.146      870.101
01/12/2022  19:34:00       -6.166       11.391        8.001       25.994       29.594       27.550      675.708      875.784      759.024        0.127        0.116       12.952       13.947        1.159      334.855        5.105      870.093
01/12/2022  19:35:00        3.733       21.562        4.308       16.804       27.890       27.131      282.369      777.852      736.066        0.115        0.090       21.883       14.042        0.412      334.818        5.041      870.089
01/12/2022  19:36:00      -19.105      -12.279        1.074       32.231       21.153       24.731     1038.832      447.467      611.633        0.131        0.105       22.711       25.081        1.220      334.819        5.044      870.086
01/12/2022  19:37:00      -84.287      -20.578      -34.716       22.801       18.607       18.578      519.907      346.225      345.150        0.497        0.061       86.763       12.087        0.019      334.907        5.190      870.092
01/12/2022  19:38:00      -61.730        0.138      -22.428       25.363       15.244       15.833      643.259      232.383      250.670        0.272        0.056       61.730        5.317        0.007      334.929        5.226      870.099
01/12/2022  19:39:00      -37.506        3.493      -17.825       28.846       20.300       18.989      832.083      412.100      360.564        0.167        0.080       37.669       17.168        0.208      334.875        5.138      870.116
01/12/2022  19:40:00      -62.176      -14.694      -22.136       29.508       27.675       27.984      870.747      765.921      783.091        0.350        0.121       63.889       20.857        0.107      334.873        5.134      870.132
01/12/2022  19:41:00      -22.589        2.150       -9.047       41.648       31.147       30.959     1734.564      970.142      958.462        0.213        0.183       22.692       27.080        1.424      334.837        5.075      870.153
01/12/2022  19:42:00      -56.210       24.617      -12.055       46.108       35.819       22.588     2125.929     1283.033      510.200        0.391        0.196       61.364       14.136        0.053      334.784        4.986      870.167
01/12/2022  19:43:00      -87.860       26.179      -14.493       36.190       32.057       24.920     1309.694     1027.649      620.998        0.579        0.148       91.678       14.416        0.025      334.764        4.952      870.179
01/12/2022  19:44:00     -111.403       24.320      -15.582       25.583       28.002       21.457      654.466      784.105      460.386        0.757        0.095      114.027       10.490        0.008      334.732        4.898      870.186
01/12/2022  19:45:00     -101.641       31.886       -6.569       31.146       35.912       22.112      970.097     1289.647      488.935        0.707        0.137      106.525       15.585        0.021      334.726        4.887      870.188
01/12/2022  19:46:00      -73.146       16.882       -5.001       46.884       22.495       17.868     2198.069      506.038      319.251        0.434        0.151       75.069       19.935        0.071      334.777        4.973      870.194
01/12/2022  19:47:00       -8.496       10.143       -4.246       18.227       18.845       12.620      332.211      355.125      159.253        0.052        0.042       13.231        8.947        0.457      334.820        5.044      870.210
01/12/2022  19:48:00      -27.592       -6.895      -10.464       22.790       21.849       16.370      519.366      477.369      267.969        0.109        0.063       28.440        7.695        0.073      334.761        4.947      870.228
01/12/2022  19:49:00      -50.206      -15.643      -21.937       30.688       22.436       18.563      941.767      503.370      344.596        0.252        0.089       52.587       20.701        0.155      334.979        5.308      870.242
01/12/2022  19:50:00      -52.757       -8.872      -16.563       23.723       15.638       17.230      562.799      244.544      296.876        0.212        0.055       53.497       11.738        0.048      334.948        5.258      870.253
01/12/2022  19:51:00      -42.552        3.419      -13.618       23.929       15.301       13.622      572.613      234.107      185.545        0.150        0.050       42.689        9.917        0.054      334.974        5.302      870.243
01/12/2022  19:52:00      -46.925       11.347      -18.036       14.533       16.354       13.482      211.206      267.454      181.764        0.166        0.033       48.277        3.758        0.006      334.907        5.190      870.234
01/12/2022  19:53:00      -36.041        7.230      -11.538       15.101       17.847       13.997      228.046      318.518      195.907        0.111        0.037       36.759        7.490        0.042      334.937        5.241      870.226
01/12/2022  19:54:00      -37.344       23.694      -20.912       27.374       15.409       13.805      749.310      237.449      190.586        0.179        0.059       44.227        8.418        0.036      334.938        5.243      870.220
01/12/2022  19:55:00      -39.574       24.335      -19.744       17.923       16.545       16.186      321.250      273.744      261.995        0.170        0.043       46.458       10.489        0.051      334.880        5.145      870.216
01/12/2022  19:56:00      -47.263       28.159      -21.365       14.585       15.220       11.039      212.727      231.638      121.857        0.202        0.028       55.016       10.578        0.037      334.976        5.305      870.215
01/12/2022  19:57:00      -39.843       20.568      -18.250       13.214       12.998       11.193      174.619      168.961      125.283        0.141        0.023       44.839        6.453        0.021      335.033        5.398      870.215
01/12/2022  19:58:00      -51.663        5.892      -30.175       20.071       16.638       16.193      402.838      276.814      262.213        0.228        0.047       51.998        6.845        0.017      334.903        5.184      870.222
01/12/2022  19:59:00      -31.422        3.286      -14.280       26.553       20.977       18.435      705.066      440.033      339.837        0.134        0.074       31.593       13.683        0.188      334.820        5.045      870.238
01/12/2022  20:00:00      -69.897       11.944      -30.013       30.796       23.029       20.507      948.393      530.332      420.543        0.391        0.095       70.910       10.669        0.023      334.730        4.895      870.244
01/12/2022  20:01:00      -58.067       11.919      -14.942       35.065       27.831       19.034     1229.588      774.578      362.286        0.305        0.118       59.277        9.764        0.027      334.770        4.963      870.246
01/12/2022  20:02:00      -66.176       32.213      -12.893       43.288       28.118       27.408     1873.851      790.641      751.220        0.450        0.171       73.600       25.964        0.124      334.654        4.768      870.234
01/12/2022  20:03:00     -106.903       57.855      -14.136       29.196       20.870       19.869      852.418      435.548      394.787        0.833        0.084      121.554       13.787        0.013      334.561        4.613      870.202
01/12/2022  20:04:00      -84.349       36.376      -17.891       26.417       20.840       15.776      697.835      434.303      248.884        0.507        0.069       91.858       12.830        0.020      334.578        4.642      870.174
01/12/2022  20:05:00      -35.897       11.079      -12.563       20.088       16.079       13.611      403.537      258.531      185.272        0.121        0.042       37.568       10.361        0.076      334.647        4.756      870.155
01/12/2022  20:06:00        4.509       50.678      -10.301       29.832       25.234       11.213      889.953      636.754      125.737        0.217        0.083       50.878        8.827        0.030      335.103        5.518      870.137
01/12/2022  20:07:00       40.944       66.876       -7.852       17.136       16.647       11.996      293.636      277.115      143.913        0.346        0.036       78.414        6.180        0.006      335.597        6.337      870.119
01/12/2022  20:08:00       41.535       99.249      -10.500       18.300       22.375       17.583      334.881      500.630      309.151        0.642        0.057      107.590       10.335        0.009      335.806        6.685      870.110
01/12/2022  20:09:00       40.599       96.658       -9.503       23.632       22.138       12.884      558.458      490.100      165.991        0.615        0.061      104.839       13.325        0.016      335.855        6.766      870.112
01/12/2022  20:10:00       27.157      102.003      -12.010       29.259       29.284       17.692      856.077      857.547      313.012        0.666        0.101      105.556       18.178        0.030      335.671        6.460      870.123
01/12/2022  20:11:00       38.568      103.029       -8.398       24.547       22.067       16.010      602.542      486.935      256.319        0.676        0.067      110.011       12.618        0.013      335.726        6.552      870.133
01/12/2022  20:12:00       54.670       94.383      -10.551       25.838       20.859       16.562      667.589      435.087      274.292        0.669        0.069      109.073       11.811        0.012      335.728        6.555      870.141
01/12/2022  20:13:00       61.272       48.024       -4.976       25.636       23.323       15.658      657.197      543.954      245.185        0.377        0.072       77.849       11.648        0.022      335.594        6.333      870.129
01/12/2022  20:14:00       53.178       49.422       -5.824       19.441       17.300       12.756      377.953      299.291      162.715        0.307        0.042       72.598        6.996        0.009      335.510        6.192      870.110
01/12/2022  20:15:00       77.746       50.615       -7.873       19.585       13.904       10.770      383.585      193.324      115.984        0.468        0.035       92.770        8.755        0.009      335.451        6.094      870.079
01/12/2022  20:16:00       70.663       48.910       -4.572       28.804       20.405       14.375      829.689      416.376      206.651        0.443        0.073       85.939        9.674        0.013      335.415        6.034      870.065
01/12/2022  20:17:00       72.774       53.346      -12.695       33.654       20.557       19.990     1132.561      422.595      399.588        0.513        0.098       90.232       15.891        0.031      335.510        6.192      870.061
01/12/2022  20:18:00       59.782       48.769       -2.480       24.668       14.943       16.467      608.489      223.296      271.162        0.353        0.055       77.151       10.157        0.017      335.484        6.149      870.055
01/12/2022  20:19:00       68.276       52.313      -11.336       20.989       16.498       12.018      440.552      272.177      144.424        0.419        0.043       86.013        9.086        0.011      335.445        6.083      870.046
01/12/2022  20:20:00       78.415       59.326      -13.785       34.751       22.738       20.797     1207.611      517.028      432.511        0.601        0.108       98.329       18.596        0.036      335.459        6.109      870.045
01/12/2022  20:21:00      102.139       43.957      -15.128       22.754       22.036       12.855      517.751      485.593      165.247        0.688        0.058      111.196        8.044        0.005      335.554        6.264      870.069
01/12/2022  20:22:00       57.455        0.746       -7.664       34.611       23.027       16.330     1197.951      530.256      266.657        0.268        0.100       57.460        7.570        0.017      335.371        5.959      870.098
01/12/2022  20:23:00       52.237       12.757       -5.828       23.129       23.688       12.384      534.969      561.114      153.361        0.209        0.062       53.772       12.781        0.056      335.352        5.927      870.115
01/12/2022  20:24:00       61.730       36.254       -9.551       28.747       16.646       12.215      826.379      277.104      149.214        0.323        0.063       71.589        9.642        0.018      335.407        6.020      870.116
01/12/2022  20:25:00       84.954       35.186      -13.180       23.876       26.402       13.891      570.061      697.083      192.964        0.504        0.073       91.952       12.884        0.020      335.432        6.062      870.105
01/12/2022  20:26:00       80.335       48.286      -14.330       19.734       19.544       11.909      389.445      381.961      141.836        0.495        0.046       93.729       11.891        0.016      335.403        6.014      870.098
01/12/2022  20:27:00       62.133       35.487       -7.807       15.292       12.496       12.207      233.836      156.144      149.021        0.286        0.027       71.553        7.595        0.011      335.369        5.957      870.108
01/12/2022  20:28:00       24.184       30.422       -1.235       18.570       20.131       17.068      344.831      405.250      291.328        0.128        0.052       38.863       15.825        0.166      335.406        6.017      870.129
01/12/2022  20:29:00      -26.434       14.830       -9.627       16.841       10.762        9.107      283.610      115.813       82.934        0.075        0.024       30.310        9.633        0.101      335.046        5.420      870.149
01/12/2022  20:30:00       -6.577       21.214      -10.976       10.830        8.692        7.399      117.296       75.545       54.738        0.043        0.012       22.210        5.265        0.056      335.268        5.788      870.153
01/12/2022  20:31:00       15.847       -4.308       -7.183       18.023       23.827       14.358      324.831      567.707      206.144        0.071        0.055       16.422       11.299        0.473      335.376        5.968      870.144
01/12/2022  20:32:00       17.350        0.217      -23.193       22.286       25.391       15.100      496.683      644.698      228.015        0.110        0.068       17.351        9.923        0.327      335.258        5.771      870.125
01/12/2022  20:33:00       55.399       41.965       -8.291       34.753       28.529       14.163     1207.753      813.902      200.604        0.356        0.111       69.499        9.340        0.018      335.290        5.824      870.096
01/12/2022  20:34:00       52.769       16.204       -7.414       13.303       21.203       11.896      176.981      449.578      141.506        0.193        0.038       55.201       10.380        0.035      335.262        5.778      870.073
01/12/2022  20:35:00       -1.743      -15.528       -6.094       20.150       16.924       11.753      406.027      286.416      138.127        0.056        0.042       15.626        8.975        0.330      335.250        5.758      870.061
01/12/2022  20:36:00      -46.419       -8.803       -7.156       18.761       11.601       13.356      351.961      134.579      178.396        0.147        0.033       47.247        6.604        0.020      334.906        5.189      870.058
01/12/2022  20:37:00      -82.141        8.673      -18.512       22.699       14.553       14.922      515.226      211.785      222.661        0.406        0.047       82.597        5.244        0.004      334.719        4.876      870.064
01/12/2022  20:38:00      -43.652       16.114      -16.336       23.022       19.493       14.213      529.999      379.979      202.011        0.177        0.056       46.531        7.607        0.027      334.708        4.858      870.069
01/12/2022  20:39:00      -37.916        4.906      -19.911       14.877       13.962       11.995      221.326      194.935      143.881        0.121        0.028       38.232        5.827        0.023      334.877        5.141      870.049
01/12/2022  20:40:00       -7.006        1.171       -8.711       18.921        6.470        8.281      357.996       41.859       68.581        0.030        0.023        7.103        6.210        0.764      334.736        4.904      870.012
01/12/2022  20:41:00      -11.669       11.908       -0.334        4.749        7.900        4.831       22.555       62.415       23.340        0.019        0.005       16.672        2.264        0.018      334.749        4.926      869.961
01/12/2022  20:42:00       -6.884       -1.493       -1.432       13.005        6.639        9.290      169.119       44.078       86.313        0.018        0.015        7.044        3.214        0.208      334.774        4.968      869.943
01/12/2022  20:43:00      -45.316        9.357       -6.653       19.063       12.094        9.695      363.402      146.263       94.000        0.139        0.030       46.272        6.141        0.018      334.723        4.883      869.955
01/12/2022  20:44:00      -71.613       29.642      -16.098       11.744        9.158        7.740      137.922       83.867       59.910        0.327        0.014       77.505        2.181        0.001      334.494        4.505      869.948
01/12/2022  20:45:00      -83.234       28.441      -19.594       14.322       15.823       13.172      205.126      250.358      173.495        0.437        0.031       87.959        5.999        0.005      334.409        4.363      869.922
01/12/2022  20:46:00      -87.062       27.523      -18.067       14.458       11.101       11.612      209.046      123.241      134.845        0.457        0.023       91.309        3.905        0.002      334.325        4.223      869.885
01/12/2022  20:47:00      -53.890       31.402      -21.602       30.420       16.009       14.257      925.380      256.298      203.265        0.287        0.069       62.372        7.400        0.014      334.295        4.172      869.848
01/12/2022  20:48:00      -32.407       21.871      -11.103       15.758        7.335        8.691      248.303       53.806       75.535        0.101        0.019       39.097        5.937        0.023      334.369        4.295      869.806
01/12/2022  20:49:00      -17.684       10.883      -11.129       14.261       11.402       10.347      203.363      130.008      107.057        0.050        0.022       20.764        7.304        0.124      334.663        4.783      869.784
01/12/2022  20:50:00      -48.731       18.593      -21.501       15.042       10.328       13.235      226.252      106.659      175.155        0.185        0.025       52.157        5.364        0.011      334.361        4.282      869.779
01/12/2022  20:51:00      -56.979       16.645      -13.132       16.429       14.519        9.803      269.903      210.806       96.099        0.214        0.029       59.361        6.585        0.012      334.370        4.298      869.793
01/12/2022  20:52:00      -65.963       30.137      -17.081       15.396       13.012       10.019      237.042      169.313      100.386        0.303        0.025       72.521        6.536        0.008      334.412        4.367      869.806
01/12/2022  20:53:00      -50.374       36.595      -13.406       14.199        9.336       13.357      201.601       87.157      178.420        0.226        0.023       62.264        3.053        0.002      334.521        4.547      869.819
01/12/2022  20:54:00      -60.505       21.498      -17.646       14.259       12.961       10.333      203.329      167.999      106.781        0.246        0.024       64.210        4.104        0.004      334.518        4.541      869.833
01/12/2022  20:55:00      -45.544        9.793      -16.885       30.411       15.928       14.513      924.856      253.705      210.625        0.192        0.069       46.585        6.524        0.020      334.461        4.447      869.848
01/12/2022  20:56:00     -117.518       34.807      -18.776       17.855       15.633       13.504      318.811      244.388      182.369        0.806        0.037      122.564        4.008        0.001      334.288        4.162      869.845
01/12/2022  20:57:00     -114.366       44.532      -26.474       18.776       10.590       10.850      352.552      112.158      117.727        0.817        0.029      122.730        5.446        0.002      334.252        4.102      869.812
01/12/2022  20:58:00     -151.453       44.758      -13.032       54.455       41.872       26.304     2965.311     1753.280      691.906        1.526        0.271      157.928       20.442        0.017      334.328        4.228      869.790
01/12/2022  20:59:00     -131.451       23.785       -0.870       64.890       42.479       29.117     4210.703     1804.474      847.802        1.235        0.343      133.586       29.789        0.050      334.313        4.203      869.780
01/12/2022  21:00:00     -114.056       56.111       -7.285       47.025       33.299       24.162     2211.312     1108.849      583.803        1.006        0.195      127.111       10.612        0.007      334.266        4.123      869.766
01/12/2022  21:01:00      -88.276       33.164      -12.874       40.679       38.114       25.241     1654.765     1452.658      637.129        0.640        0.187       94.300       20.646        0.048      334.300        4.182      869.751
01/12/2022  21:02:00      -87.559       23.591       -6.801       37.883       30.694       20.773     1435.099      942.138      431.505        0.554        0.140       90.681       21.148        0.054      334.240        4.082      869.740
01/12/2022  21:03:00     -112.680       21.855      -12.553       26.716       37.563       20.559      713.724     1411.015      422.681        0.794        0.127      114.780       12.624        0.012      334.150        3.934      869.731
01/12/2022  21:04:00     -125.536       37.203      -15.385       39.132       29.595       22.343     1531.312      875.859      499.231        1.014        0.145      130.933       18.549        0.020      334.150        3.932      869.729
01/12/2022  21:05:00      -68.584        4.004       -9.782       52.115       30.035       19.294     2715.967      902.108      372.263        0.440        0.200       68.701       18.876        0.075      334.149        3.930      869.745
01/12/2022  21:06:00      -15.998       -4.840      -14.781       23.971       26.506       20.202      574.623      702.577      408.114        0.109        0.084       16.714       14.249        0.727      334.133        3.904      869.787
01/12/2022  21:07:00      -44.323      -17.825      -23.428       38.996       21.299       20.188     1520.720      453.630      407.543        0.261        0.119       47.773       19.741        0.171      334.158        3.946      869.827
01/12/2022  21:08:00      -82.369       11.443      -13.722       30.827       22.025       19.612      950.304      485.106      384.618        0.446        0.091       83.160       11.354        0.019      334.240        4.082      869.870
01/12/2022  21:09:00      -70.424      -13.875       -9.614       31.298       26.665       20.720      979.576      711.034      429.315        0.368        0.106       71.778       17.506        0.059      334.304        4.187      869.893
01/12/2022  21:10:00      -70.260       11.938      -13.606       53.928       25.038       17.265     2908.213      626.921      298.082        0.455        0.192       71.266       17.387        0.060      334.287        4.159      869.867
01/12/2022  21:11:00     -100.297       23.479       -3.575       44.758       28.104       21.599     2003.251      789.822      466.536        0.694        0.163      103.009       16.215        0.025      334.289        4.163      869.822
01/12/2022  21:12:00      -84.891        9.382        3.333       42.745       29.987       23.838     1827.122      899.210      568.250        0.530        0.165       85.408       23.911        0.078      334.293        4.169      869.798
01/12/2022  21:13:00      -94.904       11.124       -4.658       47.266       22.328       24.595     2234.037      498.518      604.927        0.624        0.167       95.554       26.119        0.075      334.242        4.085      869.797
01/12/2022  21:14:00      -51.581       -7.032       -3.046       29.517       21.385       20.743      871.238      457.333      430.285        0.224        0.088       52.058       13.190        0.064      334.333        4.235      869.798
01/12/2022  21:15:00      -36.966       -0.643       -5.729       24.456       20.242       15.855      598.106      409.754      251.386        0.133        0.063       36.972       13.357        0.131      334.375        4.307      869.786
01/12/2022  21:16:00      -71.125       10.296      -11.104       27.978       24.920       17.161      782.790      620.993      294.517        0.349        0.085       71.867       15.200        0.045      334.341        4.247      869.759
01/12/2022  21:17:00      -46.326        4.895       -2.919       38.618       22.224       16.444     1491.387      493.905      270.411        0.222        0.113       46.584       15.109        0.105      334.295        4.173      869.738
01/12/2022  21:18:00     -100.618       17.393      -15.323       30.941       20.373       13.988      957.328      415.044      195.667        0.611        0.078      102.110       15.259        0.022      334.208        4.028      869.702
01/12/2022  21:19:00      -87.334        9.068      -11.057       33.308       16.561       16.149     1109.451      274.262      260.795        0.474        0.082       87.804       12.803        0.021      334.166        3.959      869.702
01/12/2022  21:20:00      -94.950       32.836      -10.505       33.604       20.374       21.476     1129.203      415.106      461.233        0.610        0.100      100.467        9.547        0.009      334.138        3.913      869.723
01/12/2022  21:21:00      -85.646      -14.896      -15.563       29.929       23.231       14.980      895.763      539.689      224.410        0.473        0.083       86.932       13.729        0.025      334.168        3.963      869.782
01/12/2022  21:22:00      -93.410      -12.376      -14.351       39.138       22.109       19.998     1531.754      488.787      399.930        0.575        0.121       94.226       19.146        0.041      334.209        4.030      869.843
01/12/2022  21:23:00      -95.222       -5.303       -2.432       56.543       34.857       32.268     3197.119     1214.985     1041.241        0.728        0.273       95.370       26.748        0.079      334.189        3.997      869.866
01/12/2022  21:24:00      -87.732       -3.552       -1.840       45.799       37.314       26.514     2097.538     1392.345      702.989        0.595        0.210       87.804       22.345        0.065      334.169        3.963      869.853
01/12/2022  21:25:00      -75.599       -3.283      -10.515       59.110       30.789       29.986     3493.957      947.946      899.168        0.559        0.267       75.670       24.646        0.106      334.097        3.843      869.841
01/12/2022  21:26:00      -39.525       -0.890       -5.453       58.841       33.826       30.205     3462.285     1144.201      912.333        0.355        0.276       39.535       26.740        0.457      334.006        3.694      869.854
01/12/2022  21:27:00      -42.125       -6.923      -12.685       38.449       31.708       26.379     1478.340     1005.398      695.848        0.258        0.159       42.690       20.755        0.236      333.984        3.660      869.853
01/12/2022  21:28:00      -51.464        9.181       -9.596       43.697       24.716       18.397     1909.426      610.860      338.447        0.284        0.143       52.276       13.854        0.070      334.140        3.916      869.802
01/12/2022  21:29:00      -74.632       17.201      -16.495       23.848       19.698        9.511      568.726      388.004       90.454        0.359        0.052       76.589        6.340        0.007      334.129        3.898      869.727
01/12/2022  21:30:00      -82.247        9.188      -20.671       52.856       31.168       22.639     2793.766      971.425      512.505        0.578        0.214       82.759       16.850        0.041      334.066        3.793      869.689
01/12/2022  21:31:00      -74.449        3.712      -17.315       69.648       40.646       26.978     4850.849     1652.057      727.796        0.654        0.362       74.541       25.509        0.117      333.963        3.624      869.685
01/12/2022  21:32:00      -10.834        3.615      -10.574       48.867       39.001       30.721     2387.937     1521.049      943.750        0.255        0.243       11.421       24.809        4.718      333.911        3.538      869.683
01/12/2022  21:33:00      -52.356       12.283      -12.197       39.146       32.311       19.950     1532.396     1044.017      398.000        0.301        0.149       53.777       12.285        0.052      334.009        3.698      869.670
01/12/2022  21:34:00       -2.388       -8.762       -4.151        8.151       18.689       13.117       66.437      349.291      172.045        0.034        0.029        9.082        7.361        0.657      334.157        3.943      869.681
01/12/2022  21:35:00      -14.569        8.613      -11.141       29.691       18.361       12.759      881.556      337.111      162.793        0.090        0.069       16.925        5.283        0.097      334.137        3.911      869.719
01/12/2022  21:36:00      -65.763      -11.906      -13.436       35.234       24.642       25.554     1241.467      607.248      652.997        0.357        0.125       66.832       22.161        0.110      334.057        3.780      869.750
01/12/2022  21:37:00      -56.197        7.509       -9.226       19.692       20.140       15.672      387.760      405.636      245.597        0.217        0.052       56.697       14.577        0.066      334.116        3.876      869.760
01/12/2022  21:38:00      -93.109       29.061      -19.191       23.184       11.843       12.901      537.503      140.266      166.425        0.536        0.042       97.539        8.177        0.007      334.203        4.020      869.779
01/12/2022  21:39:00     -113.631       12.817      -11.737       49.617       38.920       28.648     2461.884     1514.752      820.684        0.900        0.240      114.351       30.103        0.069      334.157        3.944      869.851
01/12/2022  21:40:00      -97.686        8.089       -2.930       75.552       43.807       35.390     5708.151     1919.078     1252.438        0.925        0.444       98.020       31.645        0.104      334.120        3.882      869.920
01/12/2022  21:41:00      -96.378       15.551       -1.981       56.502       34.017       26.846     3192.446     1157.134      720.701        0.730        0.254       97.625       31.853        0.106      334.138        3.914      869.920
01/12/2022  21:42:00      -54.262       10.204      -16.074       32.007       14.580       14.027     1024.476      212.587      196.758        0.237        0.072       55.213        7.749        0.020      334.322        4.217      869.856
01/12/2022  21:43:00        2.841       12.569       -7.644       11.950       20.061        8.390      142.803      402.428       70.386        0.042        0.031       12.886        6.832        0.281      334.501        4.513      869.778
01/12/2022  21:44:00       21.284       45.200       -8.279       14.186       10.905       12.330      201.236      118.917      152.037        0.152        0.024       49.961        9.334        0.035      334.953        5.265      869.769
01/12/2022  21:45:00        3.674       12.272       -0.729       16.731       19.422        9.167      279.925      377.231       84.035        0.045        0.037       12.810        6.052        0.223      335.163        5.615      869.798
01/12/2022  21:46:00      -15.967       -1.305       -1.044       18.476       12.350       13.404      341.369      152.528      179.675        0.047        0.034       16.020       13.956        0.759      334.360        4.279      869.810
01/12/2022  21:47:00      -54.750       -8.360       -5.864       41.342       26.349       22.335     1709.174      694.266      498.847        0.300        0.145       55.384       16.790        0.092      334.195        4.006      869.844
01/12/2022  21:48:00     -134.464       -1.982       -3.379       96.036       60.105       45.998     9222.943     3612.618     2115.809        1.652        0.748      134.478       35.794        0.071      333.998        3.679      869.903
01/12/2022  21:49:00     -119.216      -19.171       -7.364       83.065       42.293       40.693     6899.805     1788.700     1655.927        1.249        0.517      120.748       45.157        0.140      334.054        3.773      869.924
01/12/2022  21:50:00      -59.976       -8.477      -13.342       85.010       34.674       33.056     7226.659     1202.289     1092.668        0.668        0.476       60.573       38.949        0.413      333.985        3.660      869.937
01/12/2022  21:51:00      -79.256       32.299       -9.437       41.521       38.525       28.261     1724.015     1484.191      798.683        0.571        0.200       85.585       21.829        0.065      334.098        3.847      869.953
01/12/2022  21:52:00      -62.441       43.838       -9.265       31.072       23.941       21.136      965.479      573.155      446.726        0.395        0.099       76.293       12.097        0.025      334.179        3.980      869.941
01/12/2022  21:53:00      -58.020       15.945       -4.202       37.548       21.244       19.622     1409.817      451.301      385.033        0.294        0.112       60.171       19.765        0.108      334.160        3.948      869.925
01/12/2022  21:54:00      -48.709       16.649       -2.492       26.429       18.579       16.460      698.471      345.194      270.944        0.199        0.066       51.476       12.499        0.059      334.179        3.980      869.904
01/12/2022  21:55:00      -50.957        0.234      -13.454       23.507       25.054       18.439      552.602      627.689      340.004        0.215        0.076       50.957       14.742        0.084      334.156        3.943      869.861
01/12/2022  21:56:00      -79.792       14.316      -14.738       37.971       39.915       20.334     1441.773     1593.226      413.475        0.512        0.172       81.066       16.048        0.039      334.055        3.775      869.857
01/12/2022  21:57:00      -33.091        0.558       -6.909       39.122       38.505       30.803     1530.558     1482.669      948.818        0.255        0.198       33.096       25.198        0.580      333.986        3.662      869.878
01/12/2022  21:58:00       -5.042       -7.958      -15.439       28.546       27.241       14.664      814.902      742.090      215.039        0.105        0.089        9.421        7.267        0.595      334.017        3.716      869.889
01/12/2022  21:59:00      -16.642       -1.052      -13.162       21.038        8.702       12.768      442.615       75.724      163.034        0.057        0.034       16.675        6.453        0.150      333.988        3.664      869.905
01/12/2022  22:00:00      -31.173       20.157      -14.193       27.919       16.608       16.401      779.476      275.840      268.994        0.145        0.066       37.122        8.635        0.054      334.195        4.009      869.942
01/12/2022  22:01:00      -50.035       23.531      -15.781       35.019       15.187       14.400     1226.357      230.632      207.366        0.249        0.083       55.292       12.153        0.048      334.152        3.935      869.950
01/12/2022  22:02:00      -59.682       -1.042      -12.142       18.852       22.376       16.341      355.401      500.678      267.027        0.242        0.056       59.691       10.880        0.033      334.081        3.819      869.944
01/12/2022  22:03:00      -25.458       -4.974       -6.514       13.097       16.143       12.722      171.529      260.601      161.838        0.065        0.030       25.939        8.981        0.120      334.110        3.867      869.944
01/12/2022  22:04:00      -47.998        3.836      -12.644       14.850       15.831       14.196      220.516      250.611      201.528        0.158        0.034       48.151        5.821        0.015      334.175        3.974      869.949
01/12/2022  22:05:00     -113.693       22.558      -19.479       21.396       16.874       11.059      457.769      284.722      122.300        0.734        0.043      115.910        5.558        0.002      334.095        3.841      869.960
01/12/2022  22:06:00      -57.729        7.002      -15.455       20.017       12.034       14.055      400.668      144.810      197.539        0.218        0.037       58.152       10.499        0.033      334.104        3.858      869.975
01/12/2022  22:07:00      -38.950       10.777      -10.799        6.650        5.861        6.285       44.225       34.356       39.499        0.093        0.006       40.414        2.368        0.003      334.252        4.101      869.949
01/12/2022  22:08:00      -46.737       16.641       -8.924        7.277        8.820        7.681       52.950       77.798       58.993        0.137        0.009       49.611        3.873        0.006      334.453        4.434      869.915
01/12/2022  22:09:00      -57.420       25.987      -19.022       12.204        7.619        7.713      148.941       58.046       59.488        0.230        0.013       63.027        4.639        0.005      334.248        4.095      869.878
01/12/2022  22:10:00      -82.360       15.996      -19.036       19.328       16.953       12.778      373.575      287.399      163.265        0.411        0.041       83.898        9.804        0.014      334.122        3.886      869.870
01/12/2022  22:11:00      -68.182       53.000      -16.015       20.291       20.601       15.592      411.739      424.397      243.099        0.440        0.054       86.358       14.413        0.028      334.128        3.896      869.842
01/12/2022  22:12:00       34.258       40.367       -6.539       53.143       26.311       15.741     2824.161      692.281      247.791        0.330        0.188       52.945       17.037        0.104      334.576        4.641      869.769
01/12/2022  22:13:00       90.002        8.640       -1.768       33.828       29.431       25.136     1144.354      866.158      631.825        0.541        0.132       90.416       17.433        0.037      334.397        4.342      869.731
01/12/2022  22:14:00       33.620      -18.355       -5.853       26.087       30.515       21.050      680.544      931.168      443.107        0.178        0.103       38.304       18.223        0.226      334.225        4.057      869.792
01/12/2022  22:15:00        3.644      -26.875       -2.728       15.258       17.795        8.613      232.813      316.658       74.177        0.068        0.031       27.121        5.350        0.039      334.442        4.417      869.875
01/12/2022  22:16:00      -47.649       -5.435      -19.106       32.669       18.755       11.891     1067.259      351.731      141.404        0.211        0.078       47.958       12.265        0.065      334.485        4.488      869.874
01/12/2022  22:17:00      -63.567       24.457      -25.278       11.576       17.617       16.502      134.011      310.368      272.325        0.300        0.036       68.110       12.658        0.035      334.372        4.302      869.823
01/12/2022  22:18:00     -103.130       45.232      -22.769       36.090       16.469       13.054     1302.461      271.220      170.407        0.747        0.087      112.613       10.727        0.009      334.240        4.082      869.791
01/12/2022  22:19:00      -41.490      -16.069      -14.879       63.795       48.201       38.827     4069.864     2323.302     1507.504        0.505        0.395       44.493       28.550        0.412      334.020        3.719      869.812
01/12/2022  22:20:00      -95.645       20.528        4.953       54.632       32.752       32.710     2984.627     1072.683     1069.945        0.736        0.256       97.823       27.728        0.080      333.943        3.590      869.824
01/12/2022  22:21:00      -82.611       15.041      -17.198       32.140       16.783       21.257     1032.950      281.679      451.840        0.456        0.088       83.969       14.527        0.030      334.004        3.692      869.800
01/12/2022  22:22:00      -50.620        3.575       -9.896       38.848       29.268       11.905     1509.193      856.619      141.728        0.259        0.125       50.746        6.340        0.016      334.273        4.135      869.813
01/12/2022  22:23:00      -52.798      -14.931      -14.936       20.953       15.777       15.186      439.012      248.922      230.611        0.208        0.046       54.869       14.814        0.073      334.465        4.455      869.873
01/12/2022  22:24:00      -30.327       11.947       -6.573       26.889       10.237       16.617      723.019      104.804      276.117        0.110        0.055       32.595       16.825        0.266      334.175        3.974      869.890
01/12/2022  22:25:00     -103.175       49.168      -17.498       21.438       17.123       10.673      459.592      293.211      113.912        0.712        0.043      114.292        5.481        0.002      334.136        3.910      869.844
01/12/2022  22:26:00     -156.241       49.253      -11.092       79.138       42.495       38.183     6262.800     1805.793     1457.915        1.824        0.476      163.820       35.318        0.046      333.973        3.638      869.854
01/12/2022  22:27:00     -166.691       41.817       -9.363       73.768       52.955       37.804     5441.685     2804.216     1429.127        1.965        0.484      171.856       30.619        0.032      333.906        3.525      869.941
01/12/2022  22:28:00      -72.548       11.795        2.413       58.540       34.922       30.375     3426.945     1219.517      922.654        0.549        0.278       73.501       27.780        0.143      334.059        3.782      870.021
01/12/2022  22:29:00      -58.504       39.317       -7.852       29.539       38.485       15.527      872.536     1481.091      241.087        0.381        0.130       70.488       12.038        0.029      334.207        4.026      870.014
01/12/2022  22:30:00     -120.782       78.854      -17.940       35.726       29.099       17.066     1276.368      846.740      291.242        1.177        0.121      144.244       12.658        0.008      334.183        3.986      869.985
01/12/2022  22:31:00     -148.774       59.341      -11.883       33.286       29.080       26.686     1107.940      845.633      712.146        1.423        0.133      160.172       21.832        0.019      334.019        3.716      870.005
01/12/2022  22:32:00     -105.088       38.605        1.108       46.200       34.964       25.984     2134.408     1222.484      675.154        0.828        0.202      111.954       27.986        0.062      333.998        3.680      870.018
01/12/2022  22:33:00      -28.727       31.288       -1.814       34.306       37.006       22.014     1176.869     1369.424      484.633        0.242        0.152       42.476       13.585        0.102      334.020        3.717      869.975
01/12/2022  22:34:00      -53.456      109.635      -14.125       37.336       29.544       17.657     1394.000      872.832      311.773        0.883        0.129      121.972       13.272        0.012      334.336        4.241      869.906
01/12/2022  22:35:00      -64.868       38.943      -21.019       37.265       41.312       22.445     1388.688     1706.719      503.788        0.488        0.180       75.660       17.895        0.056      334.132        3.903      869.908
01/12/2022  22:36:00       -1.486      -36.722      -16.130       17.678       21.579       14.335      312.498      465.634      205.501        0.130        0.049       36.752        8.418        0.052      334.088        3.829      869.936
01/12/2022  22:37:00       33.602      -49.170      -22.536       42.258       27.301       21.487     1785.743      745.334      461.678        0.352        0.150       59.554       23.987        0.162      334.243        4.086      869.892
01/12/2022  22:38:00       78.936       -2.798      -27.537       25.534       19.542       17.069      651.994      381.899      291.347        0.416        0.066       78.986        9.232        0.014      334.188        3.995      869.773
01/12/2022  22:39:00       38.960        3.839       -5.611       21.922       20.197       14.655      480.557      407.899      214.765        0.133        0.055       39.148        6.498        0.028      334.133        3.904      869.719
01/12/2022  22:40:00       30.114       -9.648       -3.736       25.107       10.900       11.152      630.372      118.819      124.375        0.094        0.044       31.622       14.267        0.204      334.283        4.153      869.764
01/12/2022  22:41:00       45.712      -16.535      -12.971       16.312       14.395       10.097      266.082      207.228      101.948        0.155        0.029       48.610        8.390        0.030      334.248        4.094      869.786
01/12/2022  22:42:00       44.382       -4.954       -5.474       14.285        7.492        9.232      204.073       56.131       85.231        0.118        0.017       44.658        5.678        0.016      334.269        4.129      869.738
01/12/2022  22:43:00       53.408       -1.551       -2.653       11.799        7.461        6.566      139.225       55.663       43.107        0.155        0.012       53.430        2.616        0.002      334.565        4.621      869.708
01/12/2022  22:44:00        6.180       -8.266       -0.787       31.265       11.626       10.153      977.478      135.174      103.080        0.066        0.061       10.321        7.018        0.462      334.811        5.031      869.713
01/12/2022  22:45:00      -42.293        2.104      -15.668       13.243       16.905       12.845      175.390      285.783      165.003        0.133        0.031       42.345        8.815        0.043      334.147        3.928      869.738
01/12/2022  22:46:00      -64.877       27.252      -10.596       14.876       10.919        6.125      221.303      119.222       37.514        0.272        0.019       70.368        2.057        0.001      334.205        4.023      869.724
01/12/2022  22:47:00      -13.965       42.935       -9.565       18.699       23.734        8.860      349.637      563.321       78.499        0.156        0.050       45.149       10.976        0.059      334.311        4.198      869.690
01/12/2022  22:48:00       28.351       25.070       -1.340       11.220        9.695        7.265      125.897       93.991       52.775        0.085        0.014       37.845        3.762        0.010      334.700        4.845      869.709
01/12/2022  22:49:00       14.526        8.452       -8.576       13.132       20.882       12.503      172.442      436.062      156.333        0.056        0.038       16.806       13.722        0.667      334.695        4.836      869.746
01/12/2022  22:50:00       -1.179       -2.652       -8.078        9.602        7.188        6.543       92.192       51.672       42.813        0.013        0.009        2.902        6.182        4.537      334.631        4.729      869.760
01/12/2022  22:51:00       28.940        3.496       -4.345       11.900       18.788       10.365      141.615      352.976      107.438        0.074        0.030       29.150        9.079        0.097      334.686        4.821      869.734
01/12/2022  22:52:00       47.783       -7.504       -2.421       18.110        9.112       10.806      327.979       83.033      116.773        0.144        0.026       48.368        5.031        0.011      334.556        4.603      869.721
01/12/2022  22:53:00       26.291      -21.846       -6.534       16.959       14.686        9.854      287.614      215.684       97.093        0.091        0.030       34.183        6.732        0.039      334.572        4.632      869.757
01/12/2022  22:54:00       -4.739      -35.595       -5.846       20.234       17.742       10.313      409.400      314.785      106.368        0.108        0.042       35.909       10.740        0.089      334.501        4.514      869.826
01/12/2022  22:55:00      -23.119        6.575       -6.382       13.416       11.157        7.933      179.981      124.479       62.934        0.049        0.018       24.036        7.928        0.109      334.210        4.031      869.867
01/12/2022  22:56:00      -20.583       33.689       -3.419        8.292       17.604        4.230       68.750      309.885       17.889        0.098        0.020       39.479        4.132        0.011      334.502        4.514      869.850
01/12/2022  22:57:00       46.462       39.509       -4.444       32.257       15.820        8.404     1040.516      250.264       70.631        0.255        0.068       60.989        7.374        0.015      334.490        4.496      869.803
01/12/2022  22:58:00       51.948        1.428      -12.702       29.110       31.846       11.645      847.372     1014.139      135.605        0.243        0.100       51.967       11.516        0.049      334.439        4.411      869.821
01/12/2022  22:59:00        2.448       12.726       -4.621       34.092       27.448       19.985     1162.230      753.388      399.415        0.125        0.116       12.960       17.817        1.890      334.258        4.111      869.923
01/12/2022  23:00:00      -98.138      -18.655        5.930       83.788       52.323       47.747     7020.427     2737.730     2279.755        1.102        0.602       99.895       41.033        0.169      334.172        3.968      869.995
01/12/2022  23:01:00     -102.655       32.501       -3.407       55.277       42.490       27.503     3055.521     1805.368      756.436        0.861        0.281      107.678       19.843        0.034      334.028        3.731      869.984
01/12/2022  23:02:00       -8.676       46.805      -11.425       48.513       13.715       16.305     2353.519      188.111      265.869        0.260        0.140       47.602       13.031        0.075      334.001        3.686      869.903
01/12/2022  23:03:00       -1.296      -10.105      -15.959       20.379       34.372        9.532      415.290     1181.407       90.858        0.102        0.084       10.188       10.712        1.106      334.091        3.835      869.883
01/12/2022  23:04:00      -15.598        4.547       -9.304       31.404       24.427       21.093      986.196      596.697      444.904        0.119        0.101       16.247       15.837        0.950      334.126        3.892      869.957
01/12/2022  23:05:00      -51.814       -2.783       -0.189       53.430       36.196       33.465     2854.768     1310.165     1119.884        0.399        0.264       51.889       25.203        0.236      333.913        3.539      869.990
01/12/2022  23:06:00     -118.376      -17.474       -3.790       59.839       41.949       30.460     3580.658     1759.717      927.829        1.030        0.313      119.659       27.096        0.051      333.790        3.334      869.987
01/12/2022  23:07:00     -139.307       57.043       -0.230       57.777       52.872       33.799     3338.195     2795.398     1142.381        1.497        0.364      150.533       27.178        0.033      333.741        3.256      869.967
01/12/2022  23:08:00     -143.706       29.748      -12.765       41.778       35.656       25.991     1745.430     1271.347      675.517        1.270        0.185      146.753       21.521        0.022      333.637        3.083      869.933
01/12/2022  23:09:00      -10.621      -12.000        0.900       30.214       27.695       14.573      912.870      767.002      212.381        0.107        0.095       16.025       15.276        0.909      333.666        3.131      869.909
01/12/2022  23:10:00      -13.803       10.581      -15.567       29.380       22.775       13.405      863.168      518.719      179.688        0.105        0.078       17.392       13.643        0.615      333.765        3.295      869.937
01/12/2022  23:11:00      -48.326        7.143        0.696       41.550       29.412       23.303     1726.403      865.037      543.024        0.276        0.157       48.851       18.585        0.145      333.687        3.167      869.951
01/12/2022  23:12:00      -20.244      -11.510       -6.294       31.522       32.223       27.343      993.640     1038.320      747.624        0.168        0.139       23.287       14.797        0.404      333.671        3.140      869.905
01/12/2022  23:13:00      -34.508       27.181       -4.643       19.017       17.388       11.391      361.635      302.344      129.745        0.137        0.040       43.927       10.668        0.059      333.660        3.122      869.823
01/12/2022  23:14:00      -17.975       -2.637       -8.794       35.149       31.077       15.484     1235.469      965.765      239.747        0.142        0.122       18.167       19.907        1.201      333.785        3.328      869.800
01/12/2022  23:15:00      -37.421       -7.408       -4.368       31.666       24.202       19.494     1002.761      585.730      380.003        0.172        0.098       38.147       19.192        0.253      333.820        3.387      869.860
01/12/2022  23:16:00      -13.463       -9.846       -1.994       29.859       25.792       17.512      891.577      665.209      306.686        0.107        0.093       16.679        6.942        0.173      333.818        3.380      869.898
01/12/2022  23:17:00      -54.921       23.767       -8.284       31.262       25.275       12.386      977.318      638.828      153.420        0.271        0.088       59.843       14.108        0.056      333.744        3.260      869.843
01/12/2022  23:18:00      -69.543       50.642      -14.695       11.004       12.291        8.546      121.097      151.075       73.035        0.398        0.017       86.027        5.862        0.005      333.790        3.337      869.748
01/12/2022  23:19:00      -62.847       40.428      -14.674       13.770       14.687       11.280      189.610      215.702      127.245        0.317        0.027       74.727       10.413        0.019      333.834        3.409      869.704
01/12/2022  23:20:00       -9.342       -6.452       -9.602       27.686       24.381       13.391      766.513      594.410      179.309        0.088        0.077       11.353        7.846        0.478      333.839        3.418      869.724
01/12/2022  23:21:00      -22.327       -6.214      -12.023       16.541       19.623       10.793      273.605      385.075      116.480        0.073        0.039       23.175       10.373        0.200      333.861        3.454      869.748
01/12/2022  23:22:00      -36.649       14.069      -15.441       15.655       11.459        9.095      245.082      131.303       82.716        0.112        0.023       39.256        8.593        0.048      333.768        3.297      869.750
01/12/2022  23:23:00      -70.135       11.611      -23.256       29.147       20.293       15.819      849.522      411.812      250.254        0.355        0.076       71.090        7.958        0.013      333.789        3.333      869.740
01/12/2022  23:24:00      -16.791      -20.422      -14.557       23.022       15.834       11.898      529.995      250.715      141.554        0.092        0.046       26.438        7.777        0.087      333.708        3.201      869.739
01/12/2022  23:25:00        0.143      -42.834       -9.158       18.489       28.877       14.373      341.841      833.900      206.570        0.165        0.069       42.834       10.104        0.056      333.811        3.370      869.728
01/12/2022  23:26:00      -29.339      -19.262      -18.573       44.327       28.530       13.787     1964.914      813.953      190.091        0.227        0.148       35.097       14.106        0.162      333.947        3.596      869.753
01/12/2022  23:27:00      -87.736        5.789      -25.766       40.210       34.901       26.625     1616.822     1218.059      708.917        0.597        0.177       87.927       17.816        0.041      333.672        3.140      869.791
01/12/2022  23:28:00     -108.876       56.449       -8.192       32.867       30.581       18.215     1080.221      935.210      331.780        0.873        0.117      122.639       15.411        0.016      333.608        3.035      869.804
01/12/2022  23:29:00      -51.074       31.479       -3.095       22.784       23.641       17.143      519.096      558.883      293.878        0.249        0.069       59.996       10.973        0.033      333.640        3.089      869.794
01/12/2022  23:30:00      -31.947      -23.133      -11.922       31.407       18.763       21.829      986.402      352.053      476.484        0.176        0.091       39.443       22.310        0.320      333.763        3.292      869.821
01/12/2022  23:31:00      -62.011        2.150       -9.326       52.930       35.281       29.954     2801.585     1244.720      897.267        0.444        0.247       62.048       27.939        0.203      333.812        3.372      869.858
01/12/2022  23:32:00     -150.958        0.750        1.343       62.958       49.619       33.349     3963.712     2462.065     1112.123        1.516        0.377      150.960       27.594        0.033      333.751        3.271      869.837
01/12/2022  23:33:00      -58.871       84.087       -9.737       29.204       36.994       20.795      852.885     1368.542      432.451        0.664        0.133      102.648       19.409        0.036      333.757        3.281      869.752
01/12/2022  23:34:00        6.957       86.386       -7.674       18.007       14.556       11.835      324.241      211.874      140.069        0.412        0.034       86.666        5.810        0.004      334.193        4.004      869.676
01/12/2022  23:35:00       -2.260       20.970       -6.847       24.622       41.839       13.500      606.262     1750.525      182.261        0.151        0.127       21.091       12.373        0.344      334.276        4.141      869.706
01/12/2022  23:36:00      -29.609      -17.369      -17.681       28.193       21.813       20.671      794.837      475.796      427.295        0.159        0.085       34.327       15.982        0.217      333.963        3.623      869.777
01/12/2022  23:37:00      -15.507      -16.563       -0.361       20.892       17.607       11.739      436.484      310.021      137.797        0.070        0.044       22.689        6.312        0.077      333.956        3.613      869.809
01/12/2022  23:38:00        0.382       28.651        1.742       10.567       16.430       10.359      111.653      269.933      107.301        0.066        0.024       28.654       10.411        0.132      333.792        3.340      869.759
01/12/2022  23:39:00      -37.875       57.425      -10.032       16.247       14.242        9.158      263.981      202.833       83.861        0.269        0.028       68.791        5.526        0.006      333.891        3.504      869.705
01/12/2022  23:40:00      -80.493       44.053      -22.640       29.058       21.838       18.582      844.383      476.912      345.304        0.530        0.083       91.760       16.481        0.032      333.775        3.312      869.715
01/12/2022  23:41:00      -67.610       -1.169      -11.575       36.785       36.229       28.188     1353.142     1312.515      794.578        0.408        0.173       67.620       16.458        0.059      333.653        3.111      869.751
01/12/2022  23:42:00      -55.869      -24.676      -12.899       43.749       29.408       25.338     1913.990      864.847      642.031        0.366        0.171       61.076       15.603        0.065      333.683        3.159      869.759
01/12/2022  23:43:00        2.599      -38.075      -17.253       20.989       16.223       13.887      440.541      263.186      192.850        0.133        0.045       38.163        9.573        0.063      333.817        3.382      869.704
01/12/2022  23:44:00       19.470      -27.668      -16.179       11.774       13.657        8.658      138.617      186.525       74.967        0.090        0.020       33.832        5.288        0.024      333.939        3.585      869.679
01/12/2022  23:45:00        1.597        3.102        2.398       17.800       14.664       18.560      316.825      215.047      344.466        0.045        0.044        3.489       12.629       13.100      333.962        3.622      869.700
01/12/2022  23:46:00      -96.583      -10.221      -16.305       57.026       26.607       17.313     3252.005      707.912      299.739        0.698        0.213       97.123       18.160        0.035      333.948        3.599      869.690
01/12/2022  23:47:00      -93.594       26.806       -9.846       15.672       16.473       11.140      245.625      271.357      124.090        0.511        0.032       97.358        4.086        0.002      333.874        3.477      869.629
01/12/2022  23:48:00      -36.254        3.816       -2.249       29.740       17.367       10.803      884.476      301.629      116.694        0.132        0.065       36.454        9.725        0.071      333.906        3.528      869.581
01/12/2022  23:49:00      -38.291      -33.173      -11.331       25.860       18.134       15.101      668.731      328.847      228.055        0.196        0.061       50.662       12.606        0.062      333.899        3.519      869.567
01/12/2022  23:50:00      -23.594      -12.129      -12.832       24.964       25.959        8.156      623.184      673.846       66.522        0.112        0.068       26.529       12.907        0.237      333.938        3.582      869.512
01/12/2022  23:51:00       24.862       18.861      -10.857       19.433       18.292       10.779      377.629      334.579      116.194        0.096        0.041       31.207        8.644        0.077      334.033        3.739      869.425
01/12/2022  23:52:00      -12.366        1.635       -9.284       21.516        8.759        7.231      462.940       76.718       52.283        0.042        0.030       12.474        6.467        0.269      334.035        3.742      869.398
01/12/2022  23:53:00       -4.612       -7.264      -10.888       33.924       39.066       16.708     1150.828     1526.165      279.161        0.157        0.148        8.604       10.508        1.491      333.920        3.551      869.467
01/12/2022  23:54:00      -68.310       -3.383       -0.998       49.152       30.365       26.039     2415.953      922.041      678.040        0.435        0.201       68.394       19.835        0.084      333.719        3.219      869.517
01/12/2022  23:55:00      -35.951       32.333       -6.214       28.415       35.287       17.790      807.436     1245.190      316.474        0.237        0.118       48.352       20.220        0.175      333.696        3.180      869.441
01/12/2022  23:56:00      -37.233       51.282       -9.368       18.835       15.697       10.969      354.748      246.409      120.314        0.241        0.036       63.373        6.924        0.012      333.757        3.282      869.325
01/12/2022  23:57:00      -85.020       46.786      -30.471       16.499       17.028       18.312      272.208      289.941      335.323        0.562        0.045       97.043       12.451        0.016      333.670        3.138      869.308
01/12/2022  23:58:00      -54.328       13.111      -17.236       30.507       29.878       15.408      930.665      892.718      237.398        0.274        0.103       55.888       13.787        0.061      333.679        3.153      869.345
01/12/2022  23:59:00       13.453      -29.920      -16.067       18.949       16.739        8.198      359.063      280.189       67.202        0.102        0.035       32.806        4.665        0.020      333.762        3.290      869.352
01/13/2022  00:00:00       14.234      -46.644      -21.740       30.567       29.012       20.698      934.366      841.671      428.387        0.253        0.110       48.767       13.644        0.078      333.855        3.444      869.345
01/13/2022  00:01:00       -0.516       -4.722      -13.650       30.744       28.888       15.140      945.209      834.492      229.216        0.111        0.100        4.750       15.309       10.388      333.862        3.456      869.343
01/13/2022  00:02:00      -60.591       32.325       -3.314       65.445       24.149       21.973     4283.092      583.183      482.797        0.504        0.267       68.674       25.219        0.135      333.666        3.130      869.329
01/13/2022  00:03:00     -108.302       28.627      -11.580       28.672       20.574       17.569      822.098      423.290      308.678        0.712        0.078      112.022       10.806        0.009      333.511        2.873      869.326
01/13/2022  00:04:00      -58.121       17.526       -0.615       37.381       24.690       13.439     1397.371      609.598      180.601        0.294        0.109       60.706       14.663        0.058      333.549        2.937      869.339
01/13/2022  00:05:00      -17.567       -5.153       -8.154       13.270       15.231       11.359      176.095      231.974      129.016        0.047        0.027       18.307        6.374        0.121      333.666        3.132      869.318
01/13/2022  00:06:00      -17.598      -33.057      -15.312       15.950       16.451       11.505      254.413      270.640      132.357        0.115        0.033       37.449        7.312        0.038      333.842        3.423      869.270
01/13/2022  00:07:00      -20.866        2.419       -9.082       11.158       25.004        6.608      124.505      625.205       43.668        0.066        0.040       21.006        5.162        0.060      333.821        3.387      869.248
01/13/2022  00:08:00      -40.329       41.981       -9.596       12.223       21.484       10.892      149.392      461.558      118.635        0.211        0.036       58.214        8.019        0.019      333.765        3.295      869.202
01/13/2022  00:09:00      -36.552       64.796       -7.469       11.380       11.309        7.944      129.494      127.886       63.104        0.296        0.016       74.394        5.922        0.006      333.683        3.159      869.124
01/13/2022  00:10:00      -19.703       45.451       -8.248       17.102       23.286       12.445      292.481      542.226      154.868        0.176        0.049       49.538       11.760        0.056      333.877        3.480      869.097
01/13/2022  00:11:00      -21.246      -15.339       -9.001       13.532       33.734       10.012      183.103     1137.974      100.248        0.109        0.071       26.205        5.383        0.042      333.883        3.491      869.185
01/13/2022  00:12:00       26.847      -89.419      -45.880       46.731       42.322       32.228     2183.760     1791.127     1038.639        0.792        0.251       93.362       20.307        0.047      334.011        3.702      869.274
01/13/2022  00:13:00       82.325     -118.724      -32.805       37.064       25.328       24.955     1373.774      641.484      622.754        1.229        0.132      144.474       23.848        0.027      334.048        3.762      869.310
01/13/2022  00:14:00       50.468      -73.454      -17.623       23.089       39.829       16.577      533.095     1586.349      274.796        0.532        0.120       89.121       16.007        0.032      333.910        3.535      869.289
01/13/2022  00:15:00       35.459       34.540      -15.845       16.524       20.540       16.354      273.027      421.883      267.458        0.183        0.048       49.501        8.998        0.033      333.910        3.537      869.256
01/13/2022  00:16:00       18.367       -3.124       -6.945       22.083       19.454        8.105      487.649      378.452       65.686        0.066        0.047       18.631        7.578        0.165      333.838        3.417      869.224
01/13/2022  00:17:00       44.900      -11.646       -6.453       33.205       24.893       19.770     1102.554      619.656      390.833        0.215        0.106       46.386       18.133        0.153      333.837        3.413      869.224
01/13/2022  00:18:00       23.764      -36.627      -14.343       30.826       27.393       18.175      950.256      750.351      330.319        0.207        0.102       43.660       16.911        0.150      333.729        3.235      869.265
01/13/2022  00:19:00       -9.444       -4.616      -13.532       22.983       32.261       15.669      528.201     1040.760      245.503        0.105        0.091       10.512       13.742        1.709      333.832        3.405      869.315
01/13/2022  00:20:00       -2.631       28.470      -24.691       26.377       23.661       16.391      695.722      559.848      268.652        0.148        0.076       28.591       10.828        0.143      333.760        3.286      869.314
01/13/2022  00:21:00       14.978       41.697        1.639       38.668       26.665       12.083     1495.239      711.037      145.989        0.216        0.118       44.306       12.826        0.084      333.847        3.430      869.258
01/13/2022  00:22:00       33.703       33.289       -4.117       13.831       16.339       10.747      191.298      266.974      115.501        0.142        0.029       47.371        6.086        0.017      334.074        3.807      869.214
01/13/2022  00:23:00       13.676       -2.994       -5.079       12.267       19.475        7.504      150.480      379.265       56.312        0.040        0.029       14.000        7.553        0.291      334.051        3.770      869.216
01/13/2022  00:24:00      -17.517      -56.933      -20.369       31.517       16.747       12.624      993.305      280.478      159.361        0.270        0.072       59.567        6.819        0.013      333.911        3.537      869.292
01/13/2022  00:25:00      -68.718      -14.415       -6.032       42.002       33.734       25.676     1764.172     1138.016      659.274        0.426        0.178       70.213       18.258        0.068      333.869        3.467      869.370
01/13/2022  00:26:00      -19.710       12.736       -4.009       32.149       24.234       17.657     1033.529      587.291      311.769        0.125        0.097       23.467       12.065        0.264      333.913        3.540      869.389
01/13/2022  00:27:00       47.619       50.628      -18.140       32.550       21.682       13.751     1059.515      470.107      189.082        0.344        0.086       69.504        6.304        0.008      334.006        3.695      869.340
01/13/2022  00:28:00       87.043       42.278      -11.635       18.963       17.062       10.778      359.591      291.099      116.163        0.513        0.038       96.767        7.257        0.006      333.778        3.317      869.280
01/13/2022  00:29:00       46.468       38.286       -4.256       27.301       14.847       13.428      745.371      220.443      180.317        0.239        0.057       60.209       11.436        0.036      333.954        3.609      869.251
01/13/2022  00:30:00       -8.392       56.125      -14.301       27.267       27.114       12.641      743.495      735.147      159.786        0.253        0.082       56.749       10.764        0.036      333.957        3.613      869.273
01/13/2022  00:31:00      -39.508       -4.253       -7.661       30.359       23.320       20.752      921.642      543.810      430.654        0.177        0.095       39.736       11.717        0.087      333.664        3.128      869.323
01/13/2022  00:32:00      -27.817      -18.591      -11.594       27.636       29.337       19.119      763.750      860.682      365.535        0.162        0.099       33.458       14.301        0.183      333.692        3.174      869.368
01/13/2022  00:33:00      -17.769       18.494      -13.628       49.823       18.170       13.416     2482.300      330.149      179.995        0.192        0.150       25.647       16.398        0.409      333.682        3.159      869.340
01/13/2022  00:34:00       46.197       59.887       -4.468       16.508       23.714        8.655      272.498      562.369       74.905        0.332        0.045       75.635        4.184        0.003      333.702        3.192      869.235
01/13/2022  00:35:00      -23.861       81.737      -11.151       40.334       24.200       15.632     1626.801      585.660      244.365        0.492        0.123       85.149       15.584        0.033      333.687        3.165      869.176
01/13/2022  00:36:00       -5.331      -22.395       -7.274       45.764       30.274       26.409     2094.360      916.521      697.449        0.214        0.185       23.021       20.873        0.822      333.410        2.709      869.236
01/13/2022  00:37:00       16.543      -30.429      -13.384       39.711       33.964       26.121     1576.963     1153.562      682.308        0.240        0.171       34.635       12.073        0.122      333.481        2.823      869.315
01/13/2022  00:38:00      -11.763       -5.430      -19.591       22.846       23.074       15.387      521.957      532.417      236.762        0.092        0.065       12.956       12.448        0.923      333.526        2.898      869.315
01/13/2022  00:39:00       40.613       -1.821      -16.437       35.005       36.107       25.366     1225.317     1303.708      643.457        0.255        0.159       40.654       21.212        0.272      333.575        2.981      869.272
01/13/2022  00:40:00        4.786       -2.106       -8.215       13.843       13.583       15.980      191.637      184.504      255.369        0.036        0.032        5.229        6.736        1.660      333.596        3.015      869.311
01/13/2022  00:41:00      -14.344       11.644      -12.367       31.393       31.900       30.186      985.525     1017.597      911.199        0.170        0.146       18.475       18.471        0.999      333.477        2.817      869.417
01/13/2022  00:42:00      -26.711        6.766       -4.626       38.966       29.276       19.262     1518.355      857.078      371.014        0.176        0.137       27.554       16.251        0.348      333.394        2.681      869.443
01/13/2022  00:43:00       13.119       91.837       -6.774       24.206       41.847       17.162      585.933     1751.146      294.528        0.564        0.132       92.769       17.528        0.036      333.410        2.707      869.294
01/13/2022  00:44:00       46.652       86.158       -6.969       31.038       27.879       22.348      963.385      777.256      499.424        0.594        0.112       97.977       15.842        0.026      333.528        2.902      869.148
01/13/2022  00:45:00      -22.114       35.474      -14.149       62.294       20.765       17.372     3880.493      431.204      301.788        0.328        0.231       41.803       22.333        0.285      333.405        2.698      869.174
01/13/2022  00:46:00      -20.578       14.912       -7.510       59.824       26.763       34.222     3578.931      716.269     1171.132        0.308        0.273       25.413       31.055        1.493      333.241        2.428      869.224
01/13/2022  00:47:00     -121.104       97.305      -22.663       55.449       60.178       32.030     3074.610     3621.406     1025.951        1.618        0.386      155.353       27.440        0.031      333.170        2.310      869.194
01/13/2022  00:48:00      -51.787      149.298      -12.881       41.349       31.168       20.311     1709.732      971.416      412.531        1.412        0.155      158.025       18.117        0.013      333.421        2.726      869.122
01/13/2022  00:49:00        8.251      117.779      -14.858       45.391       52.633       25.484     2060.346     2770.230      649.431        0.982        0.274      118.068       18.234        0.024      333.463        2.795      869.076
01/13/2022  00:50:00       60.979       25.662      -14.662       29.677       34.577       25.896      880.735     1195.542      670.620        0.367        0.137       66.159       14.839        0.050      333.492        2.842      869.075
01/13/2022  00:51:00        2.289      -17.429      -19.707       18.862       26.970       16.471      355.792      727.357      271.301        0.103        0.068       17.579       15.467        0.774      333.407        2.702      869.082
01/13/2022  00:52:00      -68.812       52.120      -13.440       43.208       22.357       12.955     1866.974      499.828      167.830        0.508        0.127       86.323       10.181        0.014      333.434        2.746      869.081
01/13/2022  00:53:00     -119.676       23.385      -14.152       49.820       31.318       29.031     2481.983      980.840      842.773        0.969        0.215      121.940       16.000        0.017      333.277        2.489      869.141
01/13/2022  00:54:00      -15.158      -15.560        3.844       51.351       42.440       34.296     2636.876     1801.114     1176.237        0.305        0.281       21.722       23.252        1.146      333.316        2.551      869.243
01/13/2022  00:55:00     -116.816      -17.038       -7.383       70.604       39.250       39.682     4984.900     1540.534     1574.659        1.104        0.405      118.051       33.541        0.081      333.355        2.615      869.298
01/13/2022  00:56:00      -30.257       34.249        0.945       50.067       22.428       26.777     2506.665      503.020      717.033        0.291        0.186       45.700       18.574        0.165      333.256        2.451      869.254
01/13/2022  00:57:00        6.875       26.680        2.507       17.936       12.519        9.878      321.688      156.717       97.585        0.067        0.029       27.552       10.748        0.152      333.325        2.568      869.191
01/13/2022  00:58:00      -17.266       15.049      -11.434       21.330       21.420       10.798      454.968      458.827      116.602        0.084        0.052       22.904        8.236        0.129      333.437        2.752      869.191
01/13/2022  00:59:00      -39.774      -36.821      -12.004       27.927       23.335       11.339      779.895      544.525      128.562        0.227        0.073       54.202       13.649        0.063      333.371        2.643      869.261
01/13/2022  01:00:00       14.457       11.523      -15.894       39.936       33.272       11.382     1594.902     1107.003      129.546        0.171        0.142       18.487       16.930        0.839      333.431        2.742      869.235
01/13/2022  01:01:00      128.591       80.913      -18.389       33.265       27.731       22.315     1106.572      769.028      497.971        1.290        0.119      151.930       15.060        0.010      333.488        2.837      869.024
01/13/2022  01:02:00       79.679       88.485      -15.287       49.727       35.022       35.138     2472.803     1226.568     1234.653        0.967        0.247      119.073       26.666        0.050      333.388        2.671      868.874
01/13/2022  01:03:00       -1.229      -17.837      -19.732       59.824       62.477       28.622     3578.925     3903.320      819.238        0.450        0.415       17.880       23.034        1.660      333.565        2.964      868.992
01/13/2022  01:04:00     -109.038      -71.953      -20.683      112.867       66.883       53.300    12738.956     4473.369     2840.858        1.877        1.003      130.639       27.542        0.044      333.667        3.132      869.233
01/13/2022  01:05:00     -158.269      -54.076      -15.222       78.753       80.809       39.454     6202.105     6530.131     1556.616        2.124        0.714      167.252       29.041        0.030      333.651        3.104      869.342
01/13/2022  01:06:00      -89.735       29.422      -20.643       56.521       45.091       23.645     3194.577     2033.220      559.064        0.756        0.289       94.435       23.521        0.062      333.552        2.943      869.245
01/13/2022  01:07:00       90.295       57.947       -5.879       39.076       37.319       21.733     1526.962     1392.739      472.331        0.747        0.170      107.290       18.679        0.030      333.503        2.862      869.087
01/13/2022  01:08:00       61.022      -15.263       -7.443       65.533       47.575       26.769     4294.611     2263.360      716.605        0.564        0.364       62.902       24.828        0.156      333.554        2.947      869.086
01/13/2022  01:09:00      -14.654        3.885      -13.696       31.464       38.095       35.692      989.960     1451.243     1273.936        0.207        0.186       15.160       25.914        2.922      333.656        3.115      869.238
01/13/2022  01:10:00     -155.076      -21.075       -1.762      107.262       49.562       49.715    11505.069     2456.393     2471.596        2.046        0.822      156.501       53.486        0.117      333.657        3.114      869.329
01/13/2022  01:11:00     -112.930       19.620       -1.919       83.426       33.978       29.122     6959.845     1154.484      848.082        1.105        0.448      114.622       29.265        0.065      333.611        3.040      869.267
01/13/2022  01:12:00       79.496       63.909      -15.973       54.574       32.901       21.823     2978.356     1082.454      476.245        0.760        0.227      102.000       20.436        0.040      333.574        2.979      869.069
01/13/2022  01:13:00       57.088       48.073      -14.606       53.724       33.738       27.163     2886.286     1138.263      737.841        0.527        0.238       74.633       25.961        0.121      333.463        2.794      868.976
01/13/2022  01:14:00        6.142       31.499       -8.581       18.955       22.064       20.108      359.279      486.826      404.331        0.118        0.063       32.092        5.884        0.034      333.552        2.943      869.045
01/13/2022  01:15:00      -14.093        4.768       -2.950       28.338       24.834       21.026      803.015      616.733      442.108        0.105        0.093       14.878       10.261        0.476      333.490        2.840      869.096
01/13/2022  01:16:00        2.964        1.212      -12.833        7.175       11.577        7.728       51.480      134.021       59.728        0.021        0.012        3.202        5.112        2.550      333.536        2.915      869.086
01/13/2022  01:17:00       18.923        1.653      -10.788       12.909       12.404        8.104      166.644      153.871       65.677        0.043        0.019       18.995        6.025        0.101      333.643        3.093      869.069
01/13/2022  01:18:00       -9.393       -6.532       -9.401       16.834       16.777       13.735      283.388      281.473      188.663        0.049        0.038       11.441        8.368        0.535      333.731        3.239      869.082
01/13/2022  01:19:00       -4.342       -4.100       -4.368       47.750       24.404       19.020     2280.077      595.547      361.743        0.165        0.162        5.972       16.280        7.432      333.328        2.572      869.117
01/13/2022  01:20:00      -70.238      -13.301      -15.774       39.385       21.703       19.360     1551.207      471.026      374.817        0.388        0.120       71.486       18.227        0.065      333.366        2.635      869.139
01/13/2022  01:21:00      -91.942       -5.733      -10.559       37.432       22.736       18.017     1401.179      516.917      324.608        0.542        0.112       92.121       14.699        0.025      333.382        2.661      869.130
01/13/2022  01:22:00      -89.704       43.537       -7.199       30.107       31.385       16.542      906.425      985.026      273.652        0.608        0.108       99.711       15.822        0.025      333.289        2.507      869.073
01/13/2022  01:23:00      -69.859      116.709      -12.439       29.939       25.791       14.344      896.348      665.166      205.752        1.021        0.088      136.019       14.729        0.012      333.252        2.445      868.983
01/13/2022  01:24:00      -29.279      141.089      -19.182       28.517       31.522       14.299      813.239      993.615      204.463        1.157        0.101      144.095       10.709        0.006      333.285        2.500      868.908
01/13/2022  01:25:00      -28.666       29.305      -10.186       55.074       46.724       29.573     3033.182     2183.165      874.566        0.394        0.305       40.994       12.308        0.090      333.188        2.340      868.947
01/13/2022  01:26:00      -21.979      -20.660       -5.625       74.511       45.012       31.566     5551.815     2026.056      996.434        0.476        0.429       30.165       23.972        0.632      333.145        2.268      869.071
01/13/2022  01:27:00      -55.107       39.688       -3.089       61.113       44.140       35.080     3734.794     1948.324     1230.574        0.577        0.346       67.911       33.799        0.248      333.081        2.162      869.139
01/13/2022  01:28:00      -21.827       83.479      -11.932       39.187       33.168       18.546     1535.645     1100.138      343.965        0.528        0.149       86.286       11.710        0.018      333.089        2.177      869.100
01/13/2022  01:29:00      -62.901       68.203      -17.444       42.036       41.001       21.375     1767.023     1681.055      456.874        0.641        0.195       92.780       14.319        0.024      333.335        2.585      869.072
01/13/2022  01:30:00       23.160      -13.920       -0.645       65.452       49.255       42.388     4283.927     2426.092     1796.782        0.462        0.425       27.021       29.194        1.167      333.176        2.320      869.180
01/13/2022  01:31:00     -154.272      -17.023       -6.477      110.120       71.554       49.968    12126.483     5119.961     2496.806        2.193        0.987      155.208       38.254        0.061      333.095        2.186      869.234
01/13/2022  01:32:00       73.151       26.295      -27.377       70.903       53.542       34.196     5027.289     2866.743     1169.338        0.793        0.453       77.733       32.359        0.173      333.325        2.568      869.105
01/13/2022  01:33:00      102.984        9.202      -12.975       50.441       41.840       30.790     2544.327     1750.573      948.013        0.805        0.262      103.394       13.233        0.016      333.365        2.633      868.962
01/13/2022  01:34:00       -3.080       17.507        3.149       47.221       33.595       19.673     2229.834     1128.656      387.012        0.204        0.187       17.776       13.916        0.613      333.276        2.485      868.959
01/13/2022  01:35:00      -76.853       11.484      -12.082       60.132       49.756       38.267     3615.883     2475.648     1464.332        0.687        0.378       77.706       32.051        0.170      333.041        2.099      869.050
01/13/2022  01:36:00      -83.432        1.326       -7.114      110.139       68.788       51.012    12130.580     4731.777     2602.230        1.324        0.973       83.443       42.810        0.263      333.015        2.053      869.140
01/13/2022  01:37:00      -29.724       16.821        7.791       68.200       42.578       34.132     4651.269     1812.895     1164.997        0.443        0.381       34.153       24.852        0.529      332.882        1.835      869.151
01/13/2022  01:38:00      -24.546       27.901      -10.426       35.233       29.013       22.207     1241.382      841.760      493.160        0.203        0.129       37.162       12.402        0.111      332.892        1.851      869.090
01/13/2022  01:39:00       27.604      -13.405      -17.874       38.352       27.375       22.742     1470.870      749.397      517.187        0.200        0.137       30.686       22.408        0.533      332.986        2.006      869.072
01/13/2022  01:40:00       -1.760      -11.963       -5.337       19.616       28.525       11.603      384.797      813.658      134.638        0.075        0.067       12.092        9.549        0.624      333.103        2.199      869.104
01/13/2022  01:41:00        0.399       14.883       -3.051       11.002       18.526       15.017      121.038      343.214      225.515        0.046        0.034       14.888        7.538        0.256      333.027        2.074      869.121
01/13/2022  01:42:00       12.995      -12.335      -10.694        8.967       14.670       11.897       80.402      215.212      141.531        0.044        0.022       17.917        9.614        0.288      333.063        2.136      869.133
01/13/2022  01:43:00      -45.568        4.104      -17.116       38.621       21.609       12.877     1491.562      466.934      165.818        0.225        0.106       45.753       12.546        0.075      333.126        2.239      869.174
01/13/2022  01:44:00      -61.738        4.536      -17.732       56.340       41.218       31.725     3174.145     1698.958     1006.503        0.501        0.294       61.905       17.013        0.076      332.903        1.871      869.250
01/13/2022  01:45:00     -122.777       24.492        2.226       74.635       50.748       35.136     5570.408     2575.381     1234.510        1.253        0.469      125.196       25.773        0.042      332.863        1.802      869.318
01/13/2022  01:46:00     -110.531        4.468        0.806       47.142       36.012       26.513     2222.407     1296.860      702.954        0.823        0.211      110.621       26.389        0.057      332.864        1.805      869.338
01/13/2022  01:47:00       -9.863       -7.119       -7.417       30.515       19.742       20.765      931.180      389.746      431.203        0.098        0.088       12.164       10.677        0.770      333.091        2.180      869.294
01/13/2022  01:48:00       42.289       51.358      -12.922       27.569       20.779       11.788      760.052      431.775      138.957        0.296        0.067       66.528        9.677        0.021      333.090        2.178      869.223
01/13/2022  01:49:00      -22.894      109.114       -8.870       16.080       23.231        8.471      258.554      539.700       71.754        0.669        0.044      111.490        5.177        0.002      333.484        2.830      869.184
01/13/2022  01:50:00      -47.197       46.338      -15.345       38.963       62.276       23.580     1518.150     3878.314      556.031        0.528        0.298       66.142       13.242        0.040      332.954        1.953      869.223
01/13/2022  01:51:00      -93.371        6.279      -11.365       86.563       55.276       40.353     7493.215     3055.432     1628.346        1.053        0.609       93.582       39.475        0.178      332.775        1.657      869.281
01/13/2022  01:52:00      -56.202      -49.031       -5.719       45.010       43.202       26.279     2025.907     1866.411      690.592        0.509        0.229       74.583        9.266        0.015      332.786        1.676      869.257
01/13/2022  01:53:00      -57.365      -40.854      -12.735       20.731       29.961       16.310      429.755      897.684      266.006        0.336        0.080       70.426       10.681        0.023      333.166        2.303      869.190
01/13/2022  01:54:00      -95.945       -6.844      -18.797       21.550       15.680       15.574      464.412      245.861      242.548        0.528        0.048       96.189        9.527        0.010      333.329        2.573      869.213
01/13/2022  01:55:00      -10.316      -19.109      -11.992       31.943       34.239       26.771     1020.348     1172.312      716.701        0.176        0.145       21.716       16.342        0.566      333.078        2.159      869.275
01/13/2022  01:56:00       23.144      -62.009      -21.455       24.611       22.093       11.582      605.677      488.079      134.139        0.303        0.061       66.187        9.889        0.022      332.969        1.978      869.298
01/13/2022  01:57:00       32.405      -86.562      -29.955       45.748       42.664       21.614     2092.869     1820.259      467.151        0.691        0.219       92.429       22.756        0.061      333.027        2.074      869.326
01/13/2022  01:58:00      -24.090       -7.385       -1.747       46.235       21.221       23.309     2137.662      450.334      543.293        0.188        0.157       25.196       15.431        0.375      333.066        2.139      869.333
01/13/2022  01:59:00     -144.889      -54.961      -21.689       72.492       54.069       37.293     5255.158     2923.449     1390.768        1.702        0.478      154.963       32.020        0.043      333.018        2.057      869.298
01/13/2022  02:00:00      -59.769       10.670       -9.652       53.549       27.326       25.539     2867.471      746.718      652.250        0.402        0.213       60.714       25.751        0.180      333.041        2.098      869.211
01/13/2022  02:01:00      -17.828       51.346       -1.516       27.453       21.115       15.610      753.653      445.839      243.684        0.220        0.072       54.353       15.619        0.083      332.998        2.026      869.134
01/13/2022  02:02:00      -85.442       60.146      -20.828       26.704       19.812       13.539      713.125      392.523      183.292        0.632        0.064      104.489        9.364        0.008      332.900        1.865      869.127
01/13/2022  02:03:00      -84.549       17.241      -10.596       29.115       24.015       17.199      847.661      576.733      295.791        0.464        0.086       86.289       13.510        0.025      332.858        1.795      869.147
01/13/2022  02:04:00      -21.924       -2.649       -2.892       17.214       12.145       13.182      296.322      147.493      173.761        0.056        0.031       22.083        8.613        0.152      332.978        1.993      869.174
01/13/2022  02:05:00      -18.996       -2.203       -0.701       24.657       22.851       16.222      607.981      522.171      263.138        0.088        0.070       19.124       13.441        0.494      332.975        1.987      869.233
01/13/2022  02:06:00      -63.722        5.930      -12.342       41.172       34.820       24.634     1695.164     1212.431      606.821        0.388        0.176       63.997       23.386        0.134      332.795        1.691      869.278
01/13/2022  02:07:00      -16.990       47.142       -7.473       36.119       24.973       14.318     1304.582      623.671      205.005        0.235        0.107       50.110        9.122        0.033      332.461        1.140      869.256
01/13/2022  02:08:00       86.740       13.915      -14.258       32.580       25.777       12.540     1061.473      664.479      157.256        0.490        0.094       87.849        6.005        0.005      332.673        1.489      869.178
01/13/2022  02:09:00        5.133        5.789       -1.986       18.527       27.776       18.260      343.262      771.489      333.422        0.076        0.072        7.737       12.218        2.494      332.703        1.539      869.184
01/13/2022  02:10:00       -6.667      -21.873        4.000       44.683       38.389       32.877     1996.549     1473.723     1080.892        0.254        0.228       22.867       13.661        0.357      332.762        1.636      869.214
01/13/2022  02:11:00      -81.733       -4.724        4.490       49.088       24.767       28.011     2409.650      613.427      784.615        0.526        0.190       81.870       28.487        0.121      332.811        1.718      869.185
01/13/2022  02:12:00       -5.847       -0.452       -0.168       34.776       12.899       16.301     1209.351      166.378      265.732        0.084        0.082        5.865       10.651        3.298      332.859        1.795      869.108
01/13/2022  02:13:00       17.626        8.868      -12.718       19.681       19.638       15.959      387.346      385.664      254.675        0.079        0.051       19.731       12.939        0.430      333.061        2.129      869.049
01/13/2022  02:14:00      -22.867       43.878       -7.715       30.226       27.692        8.799      913.614      766.863       77.421        0.213        0.088       49.479       10.382        0.044      333.119        2.226      869.046
01/13/2022  02:15:00     -165.669       44.964      -21.207      112.885       52.490       35.564    12743.016     2755.248     1264.794        2.334        0.838      171.662       38.641        0.051      332.621        1.402      869.115
01/13/2022  02:16:00      -92.390       24.252       11.953      119.440       74.567       53.372    14265.896     5560.216     2848.575        1.597        1.134       95.520       57.042        0.357      332.465        1.143      869.164
01/13/2022  02:17:00      -98.777       69.669       -1.066       65.672       53.416       39.398     4312.772     2853.220     1552.184        1.166        0.436      120.875       38.731        0.103      332.471        1.154      869.141
01/13/2022  02:18:00      -41.084      103.405      -12.072       27.193       44.014       29.881      739.478     1937.241      892.864        0.805        0.178      111.267       10.322        0.009      332.789        1.680      869.074
01/13/2022  02:19:00      -23.594       -6.498      -11.612       36.709       66.178       24.175     1347.572     4379.526      584.435        0.352        0.316       24.473       14.527        0.352      332.789        1.680      869.101
01/13/2022  02:20:00      -17.419       -3.606        5.416       68.410       48.230       30.755     4679.989     2326.103      945.900        0.415        0.398       17.788       20.900        1.381      332.571        1.321      869.197
01/13/2022  02:21:00      -89.631        8.383       -9.177       58.136       32.279       29.620     3379.831     1041.963      877.340        0.674        0.265       90.022       23.274        0.067      332.448        1.115      869.226
01/13/2022  02:22:00       -4.901       -1.059      -18.847       13.555       14.705       17.121      183.728      216.247      293.133        0.054        0.035        5.014       10.396        4.299      332.573        1.323      869.208
01/13/2022  02:23:00        7.069       10.351       -3.837       16.789       10.227       12.170      281.868      104.585      148.119        0.035        0.027       12.535        6.701        0.286      332.730        1.584      869.185
01/13/2022  02:24:00       59.368       38.265       -8.260       29.704       18.099       10.039      882.342      327.567      100.776        0.318        0.066       70.632        8.715        0.015      332.611        1.387      869.158
01/13/2022  02:25:00       56.926       29.585       -3.866       28.483       22.083       16.277      811.301      487.676      264.943        0.285        0.078       64.155       15.625        0.059      332.449        1.119      869.173
01/13/2022  02:26:00        8.234       -6.136       -8.124       21.909       11.411        6.588      480.012      130.217       43.399        0.041        0.033       10.269        6.009        0.342      332.637        1.430      869.250
01/13/2022  02:27:00      -65.085       25.164      -25.903       38.472       30.843       17.617     1480.076      951.318      310.353        0.414        0.137       69.780       12.793        0.034      332.620        1.401      869.304
01/13/2022  02:28:00      -30.365        0.341       -8.807       38.145       27.338       24.511     1455.005      747.351      600.776        0.190        0.140       30.367       17.188        0.320      332.352        0.958      869.319
01/13/2022  02:29:00      -50.958       13.798      -17.547       34.416       31.684       18.796     1184.450     1003.850      353.277        0.282        0.127       52.793       14.269        0.073      332.446        1.113      869.319
01/13/2022  02:30:00        5.865        4.518       -9.324       21.191       22.655       14.814      449.079      513.269      219.455        0.066        0.059        7.404       14.330        3.746      332.543        1.273      869.301
01/13/2022  02:31:00       17.137      -15.243      -17.702       19.835       37.025       14.641      393.416     1370.867      214.350        0.141        0.099       22.936        5.983        0.068      332.567        1.314      869.307
01/13/2022  02:32:00      -24.846      -14.582       -7.938       38.759       25.095       29.164     1502.276      629.759      850.539        0.194        0.149       28.809       28.930        1.008      332.722        1.570      869.384
01/13/2022  02:33:00      -59.236        8.711       -8.876       39.636       32.127       26.120     1571.038     1032.123      682.261        0.347        0.164       59.873       21.085        0.124      332.686        1.510      869.387
01/13/2022  02:34:00      -30.042       86.888       -7.520       27.365       23.765       13.624      748.824      564.785      185.627        0.500        0.075       91.935        9.878        0.012      332.629        1.417      869.165
01/13/2022  02:35:00       17.743       54.346       -5.391       30.275       39.639       14.249      916.595     1571.254      203.036        0.299        0.135       57.169       18.863        0.109      332.768        1.647      869.039
01/13/2022  02:36:00       46.241       -9.849      -13.662       20.550       21.787       14.124      422.291      474.686      199.488        0.176        0.055       47.279        8.374        0.031      332.613        1.390      869.062
01/13/2022  02:37:00      -27.092      -18.189      -26.611       25.625       34.160       15.713      656.637     1166.939      246.887        0.192        0.104       32.632        7.836        0.058      332.729        1.581      869.160
01/13/2022  02:38:00      -23.773       -3.228       -0.467       42.864       29.544       25.897     1837.286      872.862      670.648        0.198        0.169       23.991       20.239        0.712      332.813        1.720      869.232
01/13/2022  02:39:00       42.836       23.031      -14.780       43.903       13.862       14.225     1927.487      192.166      202.354        0.245        0.116       48.635       13.019        0.072      332.815        1.724      869.181
01/13/2022  02:40:00       98.747        9.324      -13.209       29.822       26.972       13.926      889.365      727.511      193.938        0.591        0.091       99.187       14.214        0.021      332.776        1.658      869.053
01/13/2022  02:41:00        2.352       30.722      -11.249       54.058       22.260       13.673     2922.311      495.529      186.961        0.234        0.180       30.812       13.542        0.193      332.658        1.465      869.016
01/13/2022  02:42:00       -8.022       -7.563      -16.282       52.930       52.514       37.584     2801.623     2757.755     1412.567        0.368        0.349       11.025       24.531        4.951      332.675        1.492      869.072
01/13/2022  02:43:00      -48.836       50.924       -5.492       65.663       44.345       35.070     4311.680     1966.476     1229.870        0.626        0.375       70.557       10.625        0.023      332.575        1.327      869.025
01/13/2022  02:44:00       14.960       45.218      -18.828       31.549       30.158       14.149      995.348      909.512      200.194        0.236        0.105       47.628       12.777        0.072      332.552        1.289      868.885
01/13/2022  02:45:00       14.164       -1.231      -13.061       16.690       11.729       11.914      278.557      137.561      141.953        0.047        0.028       14.217        5.604        0.155      332.616        1.394      868.908
01/13/2022  02:46:00        4.297        8.335        1.705       21.754       30.067       18.681      473.222      904.019      348.979        0.091        0.086        9.378       13.002        1.922      332.734        1.590      869.060
01/13/2022  02:47:00      -84.740      -12.098        0.500       88.384       41.866       34.721     7811.709     1752.770     1205.515        0.905        0.538       85.600       33.032        0.149      332.721        1.568      869.151
01/13/2022  02:48:00     -126.281       23.804      -13.140       50.322       39.955       29.117     2532.296     1596.416      847.813        1.083        0.249      128.505       27.913        0.047      332.718        1.564      869.077
01/13/2022  02:49:00      -18.650       89.000       -6.608       20.799       35.773       16.686      432.579     1279.701      278.426        0.515        0.100       90.933       11.596        0.016      332.642        1.439      868.868
01/13/2022  02:50:00      -27.052       84.283       -7.020       29.385       73.390       20.904      863.461     5386.077      436.964        0.728        0.334       88.518       25.217        0.081      332.679        1.498      868.773
01/13/2022  02:51:00        9.076      -28.358      -11.220       50.599       40.276       36.907     2560.244     1622.170     1362.127        0.328        0.277       29.775       22.092        0.550      332.573        1.325      868.918
01/13/2022  02:52:00     -127.110        0.926        2.795       89.197       52.758       39.363     7956.193     2783.440     1549.456        1.423        0.614      127.114       37.740        0.088      332.490        1.185      869.057
01/13/2022  02:53:00      -57.187      -91.932      -19.656       50.559       66.705       27.793     2556.238     4449.588      772.459        0.994        0.389      108.268       17.442        0.026      332.514        1.226      869.001
01/13/2022  02:54:00       64.828       66.402      -15.703       55.941       40.156       33.714     3129.418     1612.507     1136.651        0.737        0.294       92.800       31.504        0.115      332.578        1.332      868.840
01/13/2022  02:55:00       -0.536       44.611      -16.378       88.656       26.679       22.811     7859.959      711.795      520.350        0.567        0.455       44.615        8.012        0.032      332.590        1.352      868.807
01/13/2022  02:56:00      -23.984      -14.115       -6.640       87.501       56.913       47.324     7656.453     3239.143     2239.528        0.697        0.657       27.829       32.376        1.354      332.527        1.247      868.973
01/13/2022  02:57:00     -134.237       -8.710       -3.411       93.676       51.576       32.489     8775.275     2660.048     1055.545        1.530        0.625      134.519       37.739        0.079      332.431        1.087      869.032
01/13/2022  02:58:00       36.327       19.156       -9.606       55.918       55.272       41.044     3126.787     3055.041     1684.604        0.482        0.393       41.068       24.214        0.348      332.568        1.317      868.799
01/13/2022  02:59:00       30.043        5.206       -5.613       52.111       46.439       44.085     2715.535     2156.615     1943.499        0.389        0.341       30.490       21.720        0.507      332.495        1.195      868.688
01/13/2022  03:00:00      -72.598       29.487      -17.113       69.278       42.541       29.846     4799.443     1809.740      890.798        0.697        0.375       78.358       27.865        0.126      332.467        1.149      868.890
01/13/2022  03:01:00      -77.728       31.259      -17.148       70.524       36.145       25.415     4973.660     1306.447      645.927        0.712        0.346       83.778       13.339        0.025      332.381        1.006      869.001
01/13/2022  03:02:00      -19.758      -21.715       -5.672       17.403       26.716       18.736      302.875      713.721      351.027        0.113        0.068       29.358       10.478        0.127      332.442        1.107      868.960
01/13/2022  03:03:00      -60.094        6.172       -0.974       28.358       25.718       17.987      804.162      661.406      323.515        0.272        0.089       60.410       15.090        0.062      332.473        1.159      868.888
01/13/2022  03:04:00      -96.489       25.762      -17.001       28.934       22.250       24.139      837.159      495.059      582.703        0.609        0.096       99.868       12.070        0.015      332.438        1.101      868.864
01/13/2022  03:05:00      -49.497       -8.555        1.152       58.370       36.347       26.761     3407.097     1321.083      716.153        0.398        0.272       50.231       25.269        0.253      332.414        1.061      868.976
01/13/2022  03:06:00     -116.259      -16.209      -11.894       55.189       30.956       30.184     3045.776      958.257      911.094        0.942        0.246      117.384       32.188        0.075      332.447        1.115      869.011
01/13/2022  03:07:00      -76.870       95.673       -8.236       20.096       41.839       14.343      403.854     1750.515      205.728        0.874        0.118      122.729       16.229        0.017      332.453        1.126      868.854
01/13/2022  03:08:00      -37.188      125.450       -8.726       26.125       21.353       17.294      682.517      455.959      299.079        0.932        0.072      130.846       13.980        0.011      332.437        1.099      868.726
01/13/2022  03:09:00       62.829       57.632      -22.585       56.415       64.766       26.094     3182.641     4194.585      680.911        0.792        0.403       85.259       14.789        0.030      332.354        0.961      868.661
01/13/2022  03:10:00       32.225       -1.548      -24.748       51.052       61.975       50.418     2606.328     3840.956     2541.929        0.532        0.449       32.262       30.036        0.867      332.221        0.742      868.650
01/13/2022  03:11:00      -30.791        6.357       -5.403       47.931       34.366       27.911     2297.335     1180.999      779.006        0.264        0.213       31.440       12.854        0.167      332.122        0.579      868.772
01/13/2022  03:12:00      -97.568       19.207       -9.222       68.616       52.703       42.349     4708.124     2777.638     1793.432        0.962        0.464       99.441       27.503        0.076      332.298        0.868      868.864
01/13/2022  03:13:00        4.109      -13.776       14.824       58.927       40.251       32.739     3472.358     1620.159     1071.845        0.329        0.308       14.375       10.123        0.496      332.315        0.897      868.866
01/13/2022  03:14:00      -49.691       -5.211        2.632       45.196       24.650       17.276     2042.642      607.630      298.460        0.273        0.147       49.964       12.321        0.061      332.403        1.043      868.819
01/13/2022  03:15:00        8.957       32.235      -12.781       15.960       16.186       10.613      254.715      261.977      112.633        0.096        0.031       33.456        3.879        0.013      332.422        1.073      868.673
01/13/2022  03:16:00       51.312      -38.879      -22.365       24.971       26.984       19.297      623.575      728.110      372.360        0.318        0.086       64.378       17.885        0.077      332.393        1.026      868.565
01/13/2022  03:17:00       -3.468      -30.241      -19.744       27.707       35.136       13.712      767.702     1234.545      188.007        0.175        0.110       30.439       10.690        0.123      332.459        1.135      868.619
01/13/2022  03:18:00      -54.277       99.308       -8.560       32.689       40.506       16.329     1068.575     1640.730      266.637        0.793        0.149      113.173       18.397        0.026      332.524        1.243      868.609
01/13/2022  03:19:00      -87.700      101.166      -12.022       35.763       65.748       21.744     1278.978     4322.842      472.780        1.207        0.304      133.887       17.218        0.017      332.471        1.155      868.505
01/13/2022  03:20:00       -0.734      -30.819      -16.788       41.014       51.261       21.938     1682.132     2627.723      481.279        0.301        0.240       30.828       12.548        0.166      332.502        1.206      868.494
01/13/2022  03:21:00      -48.290      -47.341      -18.002       34.537       33.428       19.827     1192.779     1117.457      393.104        0.380        0.135       67.625       14.164        0.044      332.597        1.363      868.566
01/13/2022  03:22:00      -29.559      -12.356      -26.311       53.009       54.723       29.046     2809.957     2994.656      843.660        0.418        0.332       32.038       25.166        0.617      332.696        1.526      868.595
01/13/2022  03:23:00     -111.548       39.920      -11.316       64.583       34.246       27.353     4170.928     1172.761      748.165        1.013        0.305      118.476       26.122        0.049      332.762        1.635      868.509
01/13/2022  03:24:00     -111.311      125.911       -9.500       29.265       42.104       23.393      856.430     1772.775      547.240        1.575        0.159      168.059       22.102        0.017      332.643        1.438      868.362
01/13/2022  03:25:00     -112.915      150.127      -20.449       39.298       46.373       29.068     1544.343     2150.453      844.952        2.012        0.227      187.851       18.489        0.010      332.661        1.468      868.238
01/13/2022  03:26:00     -156.021       75.737      -48.781       77.220       70.716       38.636     5962.859     5000.756     1492.772        2.246        0.623      173.432       18.193        0.011      332.493        1.190      868.213
01/13/2022  03:27:00      -80.033       69.207      -47.491       66.964       61.988       46.361     4484.200     3842.540     2149.304        1.196        0.524      105.806       39.726        0.141      332.365        0.979      868.264
01/13/2022  03:28:00       -7.250       11.959        3.046       29.983       42.191       30.048      899.007     1780.044      902.912        0.189        0.179       13.985       10.940        0.612      332.351        0.955      868.355
01/13/2022  03:29:00     -130.133      -50.605      -21.734       55.001       42.972       25.284     3025.092     1846.597      639.267        1.274        0.276      139.626       20.559        0.022      332.464        1.143      868.425
01/13/2022  03:30:00      -91.119      -43.651      -24.614       51.027       36.395       23.759     2603.745     1324.632      564.509        0.765        0.225      101.034       13.948        0.019      332.669        1.482      868.470
01/13/2022  03:31:00      -78.990       19.494      -16.201       74.153       59.782       32.531     5498.682     3573.843     1058.254        0.850        0.507       81.360        6.183        0.006      332.590        1.351      868.407
01/13/2022  03:32:00     -173.309       94.767      -22.796       49.008       50.011       30.800     2401.780     2501.082      948.640        2.269        0.293      197.527       25.946        0.017      332.533        1.255      868.247
01/13/2022  03:33:00      -80.848      162.171       -8.852       53.256       41.874       30.444     2836.254     1753.431      926.853        1.921        0.276      181.206       16.923        0.009      332.533        1.256      868.175
01/13/2022  03:34:00      -39.140      106.042       -4.703       34.605       50.486       26.593     1197.513     2548.816      707.203        0.863        0.223      113.035       26.086        0.053      332.584        1.340      868.178
01/13/2022  03:35:00      -63.902       34.088      -12.340       61.773       48.642       30.821     3815.930     2366.012      949.933        0.626        0.357       72.425       24.314        0.113      332.504        1.209      868.203
01/13/2022  03:36:00      -65.022      -17.860      -10.203       77.072       82.771       41.898     5940.106     6851.062     1755.459        0.960        0.727       67.430       34.511        0.262      332.402        1.041      868.323
01/13/2022  03:37:00      -89.185      -11.643       -3.099       57.163       42.407       33.936     3267.630     1798.387     1151.653        0.716        0.311       89.942       32.556        0.131      332.487        1.180      868.428
01/13/2022  03:38:00      -29.954       53.837       -8.424       21.544       30.334       13.073      464.160      920.181      170.896        0.271        0.078       61.609        8.963        0.021      332.583        1.340      868.335
01/13/2022  03:39:00      -91.116      105.780      -19.227       49.622       26.192       20.527     2462.351      685.996      421.339        1.171        0.178      139.612       25.756        0.034      332.497        1.197      868.227
01/13/2022  03:40:00      -77.209       42.403      -18.893       62.631       47.745       35.934     3922.615     2279.630     1291.272        0.780        0.375       88.087       33.012        0.140      332.389        1.020      868.295
01/13/2022  03:41:00      -88.924       14.006      -16.951       80.527       51.812       31.555     6484.655     2684.486      995.746        0.928        0.508       90.020       19.227        0.046      332.382        1.008      868.393
01/13/2022  03:42:00     -114.323       34.776      -19.604       58.812       62.175       29.449     3458.893     3865.670      867.247        1.143        0.410      119.495        8.127        0.005      332.343        0.942      868.376
01/13/2022  03:43:00     -166.773       47.706      -32.498       53.068       39.437       41.010     2816.262     1555.269     1681.833        1.860        0.303      173.462       21.392        0.015      332.366        0.981      868.318
01/13/2022  03:44:00     -141.108       70.914      -19.693       45.576       39.697       24.837     2077.179     1575.872      616.878        1.480        0.213      157.925       19.107        0.015      332.374        0.995      868.312
01/13/2022  03:45:00     -109.684       45.830      -17.322       42.200       29.062       20.316     1780.854      844.609      412.726        0.873        0.152      118.874       15.395        0.017      332.605        1.376      868.302
01/13/2022  03:46:00      -31.399        9.748       -4.397       30.489       18.562       20.737      929.550      344.551      430.009        0.140        0.085       32.877       18.065        0.302      332.610        1.386      868.329
01/13/2022  03:47:00      -17.973       -1.652      -10.457       46.501       35.153       23.129     2162.358     1235.722      534.946        0.218        0.197       18.049       16.074        0.793      332.575        1.327      868.366
01/13/2022  03:48:00      -31.931        2.711       -4.820       54.756       38.118       28.095     2998.266     1452.973      789.328        0.314        0.262       32.046       27.487        0.736      332.528        1.250      868.393
01/13/2022  03:49:00      -72.702       45.424       -9.015       46.816       30.857       22.639     2191.700      952.124      512.544        0.554        0.183       85.726       14.204        0.027      332.464        1.143      868.388
01/13/2022  03:50:00        2.131       31.785       -6.913       25.067       14.584       13.625      628.333      212.704      185.645        0.104        0.051       31.856        6.850        0.046      332.608        1.382      868.310
01/13/2022  03:51:00       62.859      -56.195      -39.360       34.771       38.853       21.663     1209.052     1509.577      469.298        0.592        0.159       84.316       17.184        0.042      332.601        1.370      868.232
01/13/2022  03:52:00       96.800     -106.178      -52.313       29.073       65.939       26.296      845.233     4347.887      691.463        1.463        0.294      143.681        8.472        0.003      332.673        1.487      868.201
01/13/2022  03:53:00       88.053       35.888      -21.607       41.131       52.666       29.893     1691.732     2773.714      893.603        0.743        0.268       95.085       12.231        0.017      332.775        1.658      868.143
01/13/2022  03:54:00       -3.886       68.708      -15.734       73.572       31.265       24.003     5412.907      977.479      576.167        0.597        0.348       68.818       18.290        0.071      332.682        1.503      868.114
01/13/2022  03:55:00        0.989        9.609       -4.574       70.114       49.080       47.837     4915.935     2408.830     2288.410        0.486        0.481        9.660       39.841       17.010      332.532        1.256      868.205
01/13/2022  03:56:00     -168.015       30.128       -8.640      149.830       91.283       51.147    22449.055     8332.535     2616.018        3.130        1.670      170.695       54.026        0.100      332.596        1.358      868.293
01/13/2022  03:57:00      -72.093       25.816       -2.919       72.015       34.621       23.147     5186.116     1198.626      535.784        0.640        0.346       76.576       16.571        0.047      332.579        1.333      868.186
01/13/2022  03:58:00       28.723       48.643      -10.053       23.253       20.528       17.052      540.705      421.414      290.754        0.227        0.063       56.490       11.124        0.039      332.733        1.589      868.019
01/13/2022  03:59:00        0.153      117.092      -15.106       35.031       25.787       18.202     1227.140      664.962      331.303        0.808        0.111      117.092       12.167        0.011      333.115        2.221      867.976
01/13/2022  04:00:00      -18.304      -22.726      -22.025       23.342       36.890       20.659      544.849     1360.892      426.795        0.183        0.117       29.180       16.091        0.304      332.885        1.838      868.039
01/13/2022  04:01:00      -58.501       -9.269        3.363       71.661       53.963       43.714     5135.318     2912.002     1910.939        0.674        0.498       59.231       35.428        0.358      332.709        1.549      868.180
01/13/2022  04:02:00     -145.935        7.083       -8.659       73.926       53.502       41.439     5465.047     2862.498     1717.192        1.573        0.502      146.107       33.312        0.052      332.600        1.366      868.237
01/13/2022  04:03:00      -99.362       66.510      -15.117       36.956       32.047       22.801     1365.781     1027.035      519.876        0.872        0.146      119.568       20.934        0.031      332.616        1.396      868.172
01/13/2022  04:04:00     -134.684       46.244      -18.084       37.782       35.232       21.603     1427.482     1241.315      466.706        1.187        0.157      142.402       19.242        0.018      332.692        1.521      868.100
01/13/2022  04:05:00      -63.715       21.431       -4.554       46.942       35.839       23.203     2203.517     1284.428      538.361        0.428        0.201       67.223       24.113        0.129      332.630        1.417      868.102
01/13/2022  04:06:00      -46.891       -5.568        0.936       36.574       24.653       22.030     1337.661      607.755      485.327        0.233        0.122       47.220       21.688        0.211      332.752        1.620      868.168
01/13/2022  04:07:00      -44.245      -24.398      -11.392       43.037       26.297       21.764     1852.225      691.531      473.683        0.285        0.151       50.526        7.892        0.024      332.767        1.644      868.255
01/13/2022  04:08:00      -83.745       -5.457       -9.795       28.755       35.010       23.110      826.838     1225.693      534.065        0.486        0.129       83.922       13.543        0.026      332.761        1.635      868.253
01/13/2022  04:09:00       12.573       55.145        0.147       29.862       25.166       16.963      891.731      633.337      287.742        0.251        0.091       56.560       12.869        0.052      332.725        1.576      868.178
01/13/2022  04:10:00       41.181       36.278      -16.101       29.068       24.402       13.668      844.938      595.476      186.818        0.245        0.081       54.881       10.469        0.036      332.664        1.475      868.130
01/13/2022  04:11:00       19.205      -28.410      -11.549       28.610       21.844       27.393      818.544      477.177      750.395        0.168        0.102       34.292       24.772        0.522      332.491        1.188      868.155
01/13/2022  04:12:00        2.820      -41.522      -22.250       23.542       21.233       20.316      554.218      450.828      412.757        0.182        0.071       41.618       15.152        0.133      332.455        1.128      868.222
01/13/2022  04:13:00     -101.553       -3.349       -6.240       65.277       41.379       31.173     4261.142     1712.196      971.735        0.865        0.347      101.608       32.453        0.102      332.828        1.745      868.254
01/13/2022  04:14:00     -146.635      -13.514      -31.589       44.791       34.905       36.147     2006.268     1218.331     1306.576        1.361        0.227      147.256       24.307        0.027      332.716        1.558      868.197
01/13/2022  04:15:00      -51.949       31.253      -11.711       28.825       19.816       11.638      830.869      392.671      135.438        0.259        0.068       60.626       11.280        0.035      332.644        1.441      868.092
01/13/2022  04:16:00       37.882       16.401       -5.786       36.505       24.417       12.888     1332.624      596.167      166.106        0.192        0.105       41.280       12.412        0.090      332.612        1.387      868.072
01/13/2022  04:17:00       33.384      -90.304      -39.912       32.882       39.477       25.929     1081.253     1558.409      672.294        0.709        0.166       96.277        5.172        0.003      332.599        1.368      868.163
01/13/2022  04:18:00       57.343     -128.718      -21.648       40.868       30.434       25.136     1670.176      926.233      631.827        1.178        0.161      140.913       16.819        0.014      332.653        1.454      868.267
01/13/2022  04:19:00       25.008      -43.918      -15.981       54.181       36.318       19.791     2935.581     1318.995      391.686        0.373        0.232       50.539       17.499        0.120      332.690        1.518      868.270
01/13/2022  04:20:00      -10.453        4.157       -9.878       15.770       10.070       10.312      248.697      101.410      106.344        0.034        0.023       11.249        9.167        0.664      332.583        1.341      868.227
01/13/2022  04:21:00        5.307        5.183       -3.900        9.506        6.611        8.654       90.356       43.704       74.895        0.014        0.010        7.418        5.955        0.644      332.504        1.209      868.196
01/13/2022  04:22:00       -5.459       16.821       -6.925       16.005        8.772        9.163      256.158       76.949       83.969        0.039        0.021       17.684        5.926        0.112      332.440        1.104      868.197
01/13/2022  04:23:00       -3.320       -2.100       -0.767       19.534        7.774        7.907      381.569       60.440       62.523        0.026        0.025        3.928        5.831        2.204      332.450        1.121      868.205
01/13/2022  04:24:00      -28.426       -0.186       -4.718       22.383       11.230       12.095      500.979      126.111      146.280        0.080        0.039       28.427        8.828        0.096      332.442        1.106      868.223
01/13/2022  04:25:00      -18.653        1.111       -5.972       19.861       15.471       14.660      394.457      239.365      214.929        0.062        0.042       18.686       10.031        0.288      332.370        0.988      868.243
01/13/2022  04:26:00       -3.894       17.637       -9.720       21.043       13.777        9.412      442.792      189.817       88.588        0.057        0.036       18.061        5.430        0.090      332.337        0.934      868.212
01/13/2022  04:27:00       54.029        3.679       -4.508       34.196       31.103       16.784     1169.374      967.413      281.690        0.269        0.121       54.154       19.730        0.133      332.318        0.902      868.169
01/13/2022  04:28:00        3.221      -45.822      -27.708       30.751       25.975       23.785      945.644      674.702      565.725        0.253        0.109       45.935       17.788        0.150      332.256        0.800      868.195
01/13/2022  04:29:00        2.509       -0.110       -1.838       36.303       46.482       33.333     1317.884     2160.621     1111.071        0.230        0.229        2.511       23.476       87.379      332.413        1.060      868.300
01/13/2022  04:30:00      -99.533       -9.961        0.729       87.670       43.688       43.560     7686.027     1908.664     1897.456        1.075        0.575      100.030       47.013        0.221      332.537        1.263      868.366
01/13/2022  04:31:00        2.017      -24.413      -25.994       59.821       52.061       35.464     3578.547     2710.325     1257.716        0.441        0.377       24.496       28.354        1.340      332.604        1.375      868.304
01/13/2022  04:32:00       54.847      -11.048      -18.107       44.429       43.342       29.237     1973.959     1878.534      854.825        0.408        0.235       55.949       26.851        0.230      332.617        1.397      868.199
01/13/2022  04:33:00       22.141       16.425       -8.808       36.380       21.990       14.853     1323.504      483.576      220.621        0.143        0.101       27.568       12.139        0.194      332.608        1.380      868.229
01/13/2022  04:34:00       -4.133      -14.659      -12.191       50.681       60.127       31.053     2568.532     3615.260      964.274        0.376        0.357       15.231       20.454        1.803      332.543        1.274      868.351
01/13/2022  04:35:00      -46.332        5.326        1.682       64.492       36.701       29.728     4159.278     1346.935      883.746        0.428        0.319       46.637       26.422        0.321      332.559        1.300      868.366
01/13/2022  04:36:00      -53.348       45.421       -2.523       52.555       19.798       17.829     2762.051      391.973      317.856        0.419        0.174       70.065       14.978        0.046      332.537        1.264      868.232
01/13/2022  04:37:00       33.658       54.982      -18.170       20.477       21.971       14.759      419.318      482.735      217.832        0.280        0.056       64.467        8.652        0.018      332.676        1.494      868.110
01/13/2022  04:38:00        3.241       41.158       -4.503       14.581       14.838       10.103      212.609      220.164      102.065        0.113        0.027       41.286        7.081        0.029      332.833        1.753      868.062
01/13/2022  04:39:00      -28.724      -16.920       -9.365       19.037       24.472       19.925      362.393      598.866      397.002        0.128        0.068       33.337       17.523        0.276      332.665        1.477      868.154
01/13/2022  04:40:00      -43.369        4.809       -7.197       45.758       31.209       25.757     2093.840      973.972      663.412        0.284        0.187       43.635       13.935        0.102      332.551        1.288      868.250
01/13/2022  04:41:00      -58.543       14.955      -11.261       35.071       32.110       20.804     1230.005     1031.075      432.802        0.324        0.135       60.423       13.218        0.048      332.603        1.373      868.184
01/13/2022  04:42:00       59.670       42.452      -23.580       23.391       33.185       20.550      547.148     1101.239      422.300        0.399        0.104       73.230       22.854        0.097      332.574        1.325      868.028
01/13/2022  04:43:00       22.971        0.715      -15.110       26.720       39.587       24.244      713.976     1567.163      587.761        0.181        0.143       22.982       17.170        0.558      332.568        1.315      867.963
01/13/2022  04:44:00      -12.966      -21.678       -3.147       23.754       27.176       20.123      564.230      738.548      404.949        0.118        0.085       25.260       10.791        0.182      332.548        1.282      867.990
01/13/2022  04:45:00      -36.686        0.621      -13.227       22.440       29.898       17.694      503.561      893.886      313.068        0.162        0.086       36.691        6.733        0.034      332.608        1.382      868.085
01/13/2022  04:46:00      -33.697       59.224       -6.445       27.667       20.051       12.878      765.473      402.043      165.850        0.301        0.067       68.139        8.778        0.017      332.488        1.183      868.078
01/13/2022  04:47:00       77.256       39.989       -7.834       35.536       19.690       17.196     1262.808      387.683      295.711        0.479        0.097       86.992       11.588        0.018      332.459        1.135      867.949
01/13/2022  04:48:00      127.999       44.213      -12.221       17.890       14.165       13.604      320.048      200.634      185.079        0.960        0.035      135.419        9.689        0.005      332.131        0.594      867.835
01/13/2022  04:49:00       82.491        0.437      -11.678       56.891       33.348       32.551     3236.596     1112.060     1059.582        0.617        0.270       82.492       20.138        0.060      332.072        0.497      867.787
01/13/2022  04:50:00       52.366        7.879      -19.009       50.241       39.014       25.737     2524.200     1522.061      662.407        0.394        0.235       52.955       14.381        0.074      331.835        0.108      867.826
01/13/2022  04:51:00       -7.781       20.765        1.888       27.322       29.105       19.018      746.517      847.099      361.688        0.122        0.098       22.175       14.664        0.437      332.080        0.508      867.925
01/13/2022  04:52:00      -55.161       15.854      -12.806       25.768       20.161       18.442      663.974      406.460      340.089        0.243        0.071       57.394       13.389        0.054      332.153        0.628      867.973
01/13/2022  04:53:00      -49.744       51.152       -8.451       18.951       15.436        9.366      359.129      238.276       87.719        0.292        0.034       71.351       11.077        0.024      332.150        0.626      867.964
01/13/2022  04:54:00      -49.060       74.845       -4.119       16.277       10.133       11.086      264.930      102.672      122.908        0.426        0.025       89.491       10.512        0.014      332.394        1.029      867.900
01/13/2022  04:55:00       -6.398       62.450       -6.037       27.467       26.850       11.003      754.433      720.903      121.076        0.279        0.080       62.777        5.900        0.009      332.349        0.953      867.824
01/13/2022  04:56:00       52.917        2.579      -17.404       51.783       33.209       24.348     2681.461     1102.815      592.812        0.374        0.219       52.980       22.848        0.186      332.208        0.721      867.794
01/13/2022  04:57:00       28.116      -10.034       -7.677       63.936       42.080       44.191     4087.750     1770.759     1952.839        0.438        0.391       29.853       27.444        0.845      331.879        0.181      867.779
01/13/2022  04:58:00       57.038       65.666       -6.992       51.953       42.021       28.419     2699.142     1765.774      807.659        0.644        0.264       86.979       20.431        0.055      332.013        0.399      867.717
01/13/2022  04:59:00      -12.300       26.654      -18.652       20.180       71.736       18.870      407.234     5146.056      356.076        0.356        0.295       29.355        8.410        0.082      332.167        0.654      867.738
01/13/2022  05:00:00      -13.845        7.539      -20.608       14.319       15.523        9.409      205.046      240.975       88.527        0.060        0.027       15.764        5.531        0.123      331.975        0.338      867.804
01/13/2022  05:01:00       45.976       42.812       -5.721       25.638       11.260       10.942      657.325      126.787      119.726        0.244        0.045       62.822        5.847        0.009      332.187        0.688      867.776
01/13/2022  05:02:00        1.437       88.701      -15.187       19.894       31.094       17.237      395.783      966.808      297.119        0.488        0.083       88.713       10.166        0.013      332.418        1.068      867.774
01/13/2022  05:03:00      -16.110       -1.950      -13.589       20.320       28.987       21.100      412.895      840.244      445.214        0.107        0.085       16.228       13.554        0.698      332.243        0.778      867.831
01/13/2022  05:04:00      -11.202        2.563        3.265       30.038       28.571       24.449      902.268      816.319      597.760        0.123        0.116       11.491       20.888        3.304      332.170        0.657      867.902
01/13/2022  05:05:00      -16.198        5.725        2.866       30.085       37.284       21.985      905.101     1390.072      483.328        0.154        0.139       17.180       18.194        1.122      332.174        0.664      867.849
01/13/2022  05:06:00      -18.628       32.075       -5.876       24.769       26.626       11.090      613.484      708.929      122.994        0.143        0.072       37.092       14.470        0.152      332.156        0.633      867.754
01/13/2022  05:07:00        0.864      -25.925      -11.605       14.474       20.714       14.885      209.503      429.053      221.567        0.083        0.043       25.939        7.566        0.085      332.293        0.860      867.749
01/13/2022  05:08:00       42.431       -9.043      -20.136       25.203       23.483       16.278      635.202      551.459      264.966        0.187        0.073       43.384        7.793        0.032      332.173        0.663      867.730
01/13/2022  05:09:00       40.888        0.866       -6.896       20.992        8.396        7.194      440.671       70.500       51.761        0.114        0.028       40.898        8.575        0.044      332.417        1.065      867.727
01/13/2022  05:10:00       -5.678        3.229       -5.168       19.707       15.791       12.316      388.355      249.362      151.677        0.043        0.039        6.532       11.574        3.139      332.412        1.056      867.782
01/13/2022  05:11:00       -1.827        7.322       -7.436       36.236       24.194       14.338     1313.023      585.328      205.574        0.111        0.105        7.547       16.059        4.528      332.270        0.823      867.807
01/13/2022  05:12:00      -97.058       30.400      -11.410       31.445       18.679       17.553      988.807      348.906      308.112        0.606        0.082      101.707       13.641        0.018      332.188        0.687      867.829
01/13/2022  05:13:00     -110.767       47.452       -8.928       40.817       26.410       24.266     1666.040      697.480      588.843        0.878        0.148      120.503       19.544        0.026      332.012        0.399      867.819
01/13/2022  05:14:00      -51.202       10.177       -2.754       36.279       24.787       19.523     1316.198      614.407      381.134        0.252        0.116       52.203       16.589        0.101      332.059        0.474      867.765
01/13/2022  05:15:00      -19.183        0.399       -3.689       36.374       19.415       14.231     1323.056      376.961      202.518        0.114        0.095       19.187        7.869        0.168      332.121        0.577      867.737
01/13/2022  05:16:00       11.165      -34.962      -18.143       23.215       21.282        9.678      538.940      452.932       93.660        0.138        0.054       36.701        7.402        0.041      332.282        0.843      867.760
01/13/2022  05:17:00      -18.030       27.366       -2.620        8.989        9.661       12.831       80.801       93.334      164.642        0.071        0.017       32.772        5.352        0.027      332.303        0.879      867.734
01/13/2022  05:18:00      -81.581       25.667      -12.545       48.235       19.073       20.540     2326.595      363.779      421.912        0.529        0.156       85.523       15.914        0.035      332.320        0.905      867.714
01/13/2022  05:19:00      -69.557       13.673       -5.679       82.636       44.820       30.716     6828.765     2008.804      943.463        0.742        0.489       70.888       27.847        0.154      332.065        0.485      867.768
01/13/2022  05:20:00       -4.493      -58.547       -9.593       24.131       38.181       30.855      582.311     1457.804      952.028        0.327        0.150       58.719       22.821        0.151      332.129        0.591      867.825
01/13/2022  05:21:00       54.093       11.008      -31.934       56.782       51.429       29.638     3224.196     2644.904      878.409        0.541        0.337       55.201       16.379        0.088      332.228        0.755      867.737
01/13/2022  05:22:00       81.688      -16.200      -22.064       50.220       58.095       37.515     2522.051     3374.995     1407.382        0.736        0.365       83.279       27.849        0.112      332.183        0.680      867.624
01/13/2022  05:23:00       57.731      -65.713      -28.248       53.979       48.461       32.337     2913.761     2348.430     1045.679        0.738        0.315       87.471       31.509        0.130      332.203        0.714      867.698
01/13/2022  05:24:00      -53.325        6.838       -6.095       66.437       51.040       41.800     4413.815     2605.061     1747.265        0.585        0.438       53.761       27.808        0.268      332.304        0.876      867.895
01/13/2022  05:25:00     -131.739       21.464        4.057       89.697       49.951       38.256     8045.540     2495.137     1463.537        1.492        0.600      133.476       33.077        0.061      332.341        0.939      867.957
01/13/2022  05:26:00     -108.014       24.942       -1.517       80.112       32.527       26.401     6417.963     1058.000      696.999        1.023        0.409      110.856       28.509        0.066      332.307        0.884      867.888
01/13/2022  05:27:00       -9.879       21.676       -7.723       32.600       14.814       14.296     1062.769      219.448      204.368        0.106        0.074       23.821        4.051        0.029      332.227        0.754      867.758
01/13/2022  05:28:00        0.821       16.406       -3.485       25.916       13.470       10.548      671.641      181.441      111.261        0.062        0.048       16.426        5.857        0.127      332.258        0.804      867.720
01/13/2022  05:29:00      -70.723       15.138      -18.013       44.064       25.907       22.154     1941.635      671.186      490.790        0.433        0.155       72.325       19.006        0.069      332.298        0.870      867.795
01/13/2022  05:30:00       -9.014       -4.860       -4.700       32.861       31.311       27.896     1079.840      980.366      778.210        0.148        0.142       10.241       17.498        2.919      332.174        0.664      867.828
01/13/2022  05:31:00      -25.710       -1.292       -7.018       44.210       40.831       27.511     1954.556     1667.159      756.847        0.254        0.219       25.743       16.550        0.413      332.212        0.728      867.926
01/13/2022  05:32:00     -158.739       15.497       -9.934      135.305       61.304       52.626    18307.384     3758.156     2769.446        2.518        1.242      159.493       45.097        0.080      332.114        0.563      868.066
01/13/2022  05:33:00      -51.243       40.169      -10.427       81.651       59.523       32.159     6666.966     3542.975     1034.229        0.779        0.562       65.111       25.613        0.155      332.061        0.477      867.945
01/13/2022  05:34:00       53.065       -8.636      -19.989       64.209       54.045       34.532     4122.788     2920.881     1192.436        0.576        0.412       53.763       22.112        0.169      332.087        0.521      867.708
01/13/2022  05:35:00       33.804       -8.143      -21.184       38.307       41.651       26.677     1467.400     1734.802      711.683        0.279        0.196       34.771       10.115        0.085      332.115        0.568      867.663
01/13/2022  05:36:00      -11.142       -6.652       -7.036       25.550       39.419       25.648      652.792     1553.846      657.844        0.154        0.143       12.977       17.467        1.812      332.207        0.718      867.745
01/13/2022  05:37:00      -30.713       -0.558       -4.824       63.183       35.036       21.139     3992.032     1227.547      446.841        0.332        0.283       30.719       19.729        0.412      332.209        0.723      867.773
01/13/2022  05:38:00      -75.204       13.368       -7.606       67.092       58.283       35.112     4501.342     3396.940     1232.869        0.751        0.457       76.383       27.385        0.129      332.145        0.617      867.775
01/13/2022  05:39:00     -144.657       22.321        7.039      101.374       66.951       49.061    10276.734     4482.426     2407.029        1.932        0.858      146.369       34.361        0.055      332.127        0.585      867.884
01/13/2022  05:40:00     -217.283       57.963       -0.710       66.528       51.962       29.721     4425.972     2700.079      883.344        2.929        0.400      224.881       19.856        0.008      332.052        0.461      867.928
01/13/2022  05:41:00      -87.576       19.080      -17.340       92.231       26.881       25.047     8506.625      722.601      627.368        0.909        0.493       89.631       23.302        0.068      331.919        0.244      867.803
01/13/2022  05:42:00      -13.128        9.065      -20.281       13.548       17.082       16.752      183.550      291.800      280.638        0.071        0.038       15.954        6.741        0.179      331.979        0.344      867.694
01/13/2022  05:43:00      -50.092       23.641      -22.429       43.639       21.945       21.551     1904.405      481.562      464.458        0.321        0.143       55.391       20.376        0.135      332.094        0.534      867.705
01/13/2022  05:44:00        3.757        9.420       -2.463       39.863       46.736       32.600     1589.021     2184.209     1062.746        0.247        0.242       10.142       18.851        3.455      332.037        0.440      867.840
01/13/2022  05:45:00     -142.306       28.155      -12.868       64.071       61.804       36.807     4105.075     3819.682     1354.731        1.524        0.464      145.065       27.554        0.036      331.882        0.184      867.910
01/13/2022  05:46:00     -115.759       51.220        0.240       56.858       30.980       24.412     3232.859      959.761      595.927        1.041        0.239      126.584       20.455        0.026      331.838        0.112      867.767
01/13/2022  05:47:00      -87.386       33.866      -18.381       63.073       48.921       28.853     3978.180     2393.220      832.486        0.816        0.360       93.719       24.239        0.067      331.919        0.245      867.705
01/13/2022  05:48:00      -12.609        8.605        5.360       55.837       51.348       41.530     3117.795     2636.651     1724.720        0.387        0.374       15.266       29.679        3.780      331.983        0.351      867.815
01/13/2022  05:49:00      -56.160       11.866        3.812       63.558       44.976       34.228     4039.632     2022.863     1171.576        0.527        0.362       57.400       39.695        0.478      331.862        0.153      867.769
01/13/2022  05:50:00       41.931       32.728      -28.918       70.466       26.811       23.542     4965.490      718.818      554.237        0.495        0.312       53.191       26.028        0.239      332.329        0.921      867.589
01/13/2022  05:51:00      124.878       47.399      -19.586       48.356       29.286       29.672     2338.314      857.652      880.406        1.115        0.204      133.571       19.507        0.021      331.925        0.255      867.385
01/13/2022  05:52:00      -27.794       28.844      -13.270       49.281       39.293       33.847     2428.622     1543.917     1145.635        0.345        0.256       40.056       21.867        0.298      332.096        0.535      867.415
01/13/2022  05:53:00      -31.005      -21.661      -16.516      121.779       77.359       67.678    14830.157     5984.432     4580.287        1.354        1.270       37.822       44.543        1.387      332.114        0.566      867.677
01/13/2022  05:54:00     -186.478        3.403        0.112      123.703       98.983       68.078    15302.514     9797.631     4634.654        3.225        1.487      186.509       63.616        0.116      332.068        0.489      867.804
01/13/2022  05:55:00      -63.836       37.771      -20.953       58.241       37.154       26.979     3391.981     1380.406      727.848        0.572        0.275       74.173       13.611        0.034      332.146        0.617      867.638
01/13/2022  05:56:00       -0.603       57.641       -5.826       35.540       18.213       16.766     1263.078      331.711      281.089        0.262        0.094       57.645       10.743        0.035      332.238        0.770      867.476
01/13/2022  05:57:00       -5.887       28.883      -14.105       16.130       25.742       19.932      260.188      662.660      397.287        0.119        0.066       29.477       14.779        0.251      332.293        0.863      867.434
01/13/2022  05:58:00      -55.135       -4.481       -7.683       62.388       40.351       42.452     3892.258     1628.239     1802.214        0.522        0.366       55.316       37.673        0.464      332.112        0.563      867.447
01/13/2022  05:59:00       -1.328       -5.228       -0.034       79.493       61.931       48.012     6319.193     3835.469     2305.153        0.624        0.623        5.394       29.534       29.981      332.135        0.600      867.511
01/13/2022  06:00:00     -178.360       -5.165       -9.015      139.033       69.095       61.676    19330.171     4774.117     3803.912        2.991        1.395      178.435       64.271        0.130      332.088        0.522      867.582
01/13/2022  06:01:00     -162.873        7.974      -20.392      153.180       53.195       51.738    23464.252     2829.751     2676.795        2.798        1.449      163.068       50.937        0.098      332.154        0.629      867.535
01/13/2022  06:02:00      -16.628       24.060       -8.493       36.578       44.368       30.504     1337.941     1968.500      930.476        0.258        0.212       29.247       24.069        0.677      332.068        0.490      867.432
01/13/2022  06:03:00      -60.570       -6.368      -14.388       30.223       25.591       21.326      913.404      654.882      454.777        0.297        0.101       60.904       10.959        0.032      332.172        0.660      867.390
01/13/2022  06:04:00      -87.643       12.521        2.284       45.266       37.625       27.888     2049.008     1415.666      777.742        0.604        0.212       88.533       22.583        0.065      332.074        0.499      867.425
01/13/2022  06:05:00     -110.080       52.203       -3.461       54.168       46.405       27.679     2934.159     2153.443      766.125        1.035        0.293      121.831       20.508        0.028      332.035        0.435      867.396
01/13/2022  06:06:00     -128.855       38.051       -8.202       68.022       45.153       34.553     4627.015     2038.762     1193.915        1.299        0.393      134.356       32.245        0.058      331.954        0.303      867.293
01/13/2022  06:07:00      -79.847       37.256       -6.037       57.784       41.398       28.908     3338.987     1713.784      835.652        0.684        0.294       88.111       27.222        0.095      331.998        0.374      867.251
01/13/2022  06:08:00      -23.787        4.286      -13.986       30.199       35.386       26.007      911.954     1252.179      676.384        0.181        0.142       24.170       17.031        0.497      332.016        0.403      867.289
01/13/2022  06:09:00      -34.054      -12.039      -12.040       63.294       41.402       31.489     4006.139     1714.090      991.542        0.408        0.336       36.120       17.390        0.232      332.058        0.473      867.418
01/13/2022  06:10:00     -158.266      -16.685       -6.143       69.614       49.043       34.846     4846.165     2405.176     1214.239        1.691        0.423      159.143       32.532        0.042      332.117        0.570      867.513
01/13/2022  06:11:00      -88.525       12.199       -5.208       46.707       44.893       30.784     2181.497     2015.362      947.652        0.658        0.257       89.362       22.745        0.065      332.112        0.563      867.501
01/13/2022  06:12:00      -48.731       18.300       -4.874       36.138       33.895       16.767     1305.927     1148.853      281.141        0.273        0.137       52.054        7.265        0.019      332.046        0.454      867.380
01/13/2022  06:13:00     -111.466       65.788      -23.928       41.084       30.917       19.797     1687.867      955.833      391.907        1.018        0.152      129.432       23.851        0.034      332.025        0.419      867.273
01/13/2022  06:14:00     -113.024       25.301      -22.312      104.381       59.467       40.826    10895.298     3536.271     1666.739        1.500        0.805      115.821       47.699        0.170      331.924        0.251      867.258
01/13/2022  06:15:00      -37.185      -10.145        4.766       71.061       64.361       55.922     5049.707     4142.322     3127.223        0.691        0.616       38.544       39.654        1.058      331.932        0.266      867.412
01/13/2022  06:16:00     -137.668      -21.748      -16.783       62.676       46.762       37.485     3928.240     2186.696     1405.131        1.361        0.376      139.375       30.112        0.047      331.925        0.255      867.513
01/13/2022  06:17:00     -153.307       -6.003       -8.982       59.029       51.962       32.261     3484.432     2700.037     1040.764        1.542        0.361      153.425       18.035        0.014      331.927        0.259      867.502
01/13/2022  06:18:00     -143.996        3.650       -3.953       90.866       71.920       40.191     8256.673     5172.417     1615.295        1.790        0.752      144.042       33.983        0.056      331.854        0.137      867.522
01/13/2022  06:19:00     -174.547       44.489       -3.452      118.410       57.705       47.734    14020.997     3329.886     2278.488        2.604        0.981      180.128       42.298        0.055      331.889        0.195      867.537
01/13/2022  06:20:00     -117.568       78.819      -13.933       71.007       53.220       38.947     5042.032     2832.354     1516.902        1.481        0.470      141.544       30.311        0.046      331.898        0.209      867.504
01/13/2022  06:21:00      -68.736       51.332      -20.978       34.014       33.951       24.770     1156.929     1152.671      613.568        0.536        0.146       85.788       17.083        0.040      331.994        0.367      867.480
01/13/2022  06:22:00      -58.680       30.599       -8.030       35.754       26.480       20.471     1278.380      701.170      419.065        0.342        0.120       66.179       16.895        0.065      332.130        0.592      867.398
01/13/2022  06:23:00      -55.945       58.915      -14.616       13.696       24.525       12.355      187.573      601.479      152.636        0.388        0.047       81.246        9.329        0.013      332.201        0.708      867.304
01/13/2022  06:24:00      -64.662       26.596      -14.759       31.132       21.062       15.680      969.183      443.627      245.856        0.338        0.083       69.917        9.844        0.020      332.158        0.637      867.353
01/13/2022  06:25:00      -57.980       16.308       -5.465       65.472       37.700       28.466     4286.564     1421.299      810.297        0.509        0.326       60.230       31.714        0.277      332.135        0.600      867.419
01/13/2022  06:26:00      -81.357       13.983        2.455       58.063       40.889       37.735     3371.258     1671.917     1423.952        0.664        0.323       82.549       25.014        0.092      332.103        0.547      867.453
01/13/2022  06:27:00      -29.863       13.759       -2.172       57.419       36.650       31.053     3296.897     1343.203      964.310        0.334        0.280       32.880       24.224        0.543      332.031        0.430      867.465
01/13/2022  06:28:00     -100.392       18.872       -7.748       47.933       30.112       21.821     2297.546      906.725      476.167        0.709        0.184      102.150       19.593        0.037      331.999        0.376      867.467
01/13/2022  06:29:00     -100.850       38.201      -10.635       42.712       22.493       23.379     1824.304      505.940      546.579        0.731        0.144      107.843       21.978        0.042      332.074        0.501      867.402
01/13/2022  06:30:00     -116.571       78.165      -21.086       29.890       32.917       17.358      893.390     1083.528      301.305        1.121        0.114      140.352       17.840        0.016      332.062        0.480      867.293
01/13/2022  06:31:00      -71.039       51.305      -10.589       50.059       40.810       24.428     2505.884     1665.489      596.705        0.628        0.238       87.629       22.803        0.068      332.015        0.402      867.232
01/13/2022  06:32:00      -89.503       13.229      -10.927       58.574       37.277       36.433     3430.883     1389.566     1327.365        0.723        0.307       90.476       28.503        0.099      332.086        0.520      867.262
01/13/2022  06:33:00      -42.072        7.058      -27.538       56.043       45.108       41.453     3140.817     2034.707     1718.366        0.473        0.345       42.660       25.172        0.348      332.047        0.456      867.274
01/13/2022  06:34:00      -62.961       -1.302      -19.065       67.630       47.750       29.469     4573.773     2280.033      868.427        0.602        0.386       62.975       20.147        0.102      332.040        0.446      867.316
01/13/2022  06:35:00      -19.581       12.315      -33.309       57.687       40.805       29.451     3327.752     1665.084      867.370        0.375        0.293       23.132       18.983        0.673      332.063        0.483      867.412
01/13/2022  06:36:00        4.307       -6.377       -6.223       43.635       30.921       18.391     1904.012      956.091      338.222        0.165        0.160        7.695        8.963        1.357      332.111        0.561      867.425
01/13/2022  06:37:00        6.211       11.662      -10.218       74.950       28.358       23.655     5617.565      804.161      559.549        0.363        0.349       13.213       21.112        2.553      332.264        0.813      867.358
01/13/2022  06:38:00       31.642      -12.528      -26.111       23.811       28.865       19.707      566.981      833.195      388.377        0.181        0.089       34.032       18.013        0.280      332.174        0.662      867.306
01/13/2022  06:39:00        7.933      -36.521      -16.689       21.169       28.577       14.168      448.136      816.673      200.742        0.157        0.073       37.372       11.815        0.100      332.282        0.841      867.306
01/13/2022  06:40:00       36.985      -44.298      -19.983       31.010       29.596       19.434      961.634      875.941      377.667        0.297        0.111       57.708       16.201        0.079      332.377        0.999      867.317
01/13/2022  06:41:00       -9.653      -28.406      -19.521       50.882       28.553       22.929     2589.015      815.294      525.736        0.260        0.197       30.002       19.481        0.422      332.412        1.056      867.302
01/13/2022  06:42:00     -106.374      -32.940      -14.342       63.277       45.853       36.681     4004.002     2102.476     1345.493        1.003        0.373      111.358       24.327        0.048      332.377        1.000      867.302
01/13/2022  06:43:00      -68.778      -12.819       -6.037       48.642       27.503       16.327     2366.057      756.408      266.574        0.416        0.169       69.963        8.056        0.013      332.396        1.031      867.287
01/13/2022  06:44:00       17.457      -16.235      -11.206       27.824       17.608       16.064      774.157      310.032      258.066        0.102        0.067       23.839       10.037        0.177      332.429        1.086      867.228
01/13/2022  06:45:00       40.522      -15.764      -10.105       26.880       32.045       33.854      722.532     1026.902     1146.124        0.244        0.145       43.480       14.262        0.108      332.421        1.072      867.219
01/13/2022  06:46:00       37.318       33.238      -14.522       27.003       32.993       18.552      729.167     1088.550      344.165        0.243        0.108       49.974       15.049        0.091      332.191        0.692      867.180
01/13/2022  06:47:00       83.290       48.010      -16.722       15.737       13.666       11.024      247.653      186.758      121.519        0.504        0.028       96.136        4.590        0.002      331.803        0.054      867.183
01/13/2022  06:48:00       48.768       -4.211      -11.471       30.217       17.252       14.598      913.046      297.638      213.096        0.198        0.071       48.949       10.774        0.048      331.768       -0.005      867.292
01/13/2022  06:49:00       44.507        3.842       -7.391       19.036       33.277       14.631      362.379     1107.351      214.074        0.187        0.084       44.672       11.404        0.065      331.746       -0.038      867.371
01/13/2022  06:50:00       86.695        2.731      -18.742       33.636       32.689       26.969     1131.386     1068.599      727.307        0.540        0.146       86.738       15.306        0.031      331.727       -0.070      867.307
01/13/2022  06:51:00       99.855        7.595      -19.099       68.046       41.113       28.835     4630.224     1690.243      831.472        0.877        0.358      100.144       10.852        0.012      331.664       -0.174      867.211
01/13/2022  06:52:00       96.190      -11.287      -16.668       68.639       56.592       34.975     4711.360     3202.603     1223.276        0.940        0.457       96.850       25.907        0.072      331.580       -0.314      867.209
01/13/2022  06:53:00       31.942      -48.474      -25.565       36.982       30.500       21.615     1367.646      930.253      467.228        0.339        0.138       58.052       16.201        0.078      331.555       -0.355      867.313
01/13/2022  06:54:00       20.534      -33.900      -16.226       21.419       43.926       19.240      458.757     1929.519      370.168        0.230        0.138       39.634       17.125        0.187      331.712       -0.096      867.385
01/13/2022  06:55:00       26.274       13.714      -10.895       23.906       28.032       21.055      571.507      785.805      443.310        0.140        0.090       29.637       10.954        0.137      331.763       -0.013      867.389
01/13/2022  06:56:00      -27.046      -15.848      -12.054       19.422       25.471       17.705      377.231      648.795      313.457        0.123        0.067       31.347        9.681        0.095      331.851        0.134      867.418
01/13/2022  06:57:00       51.399       11.015      -23.436       46.490       56.506       36.422     2161.316     3192.922     1326.534        0.500        0.334       52.566       19.880        0.143      331.911        0.232      867.383
01/13/2022  06:58:00      115.897       23.525      -13.830       51.255       49.546       26.624     2627.029     2454.762      708.857        0.998        0.290      118.260       18.899        0.026      331.814        0.072      867.246
01/13/2022  06:59:00       84.489        8.930      -14.785       44.332       43.822       24.663     1965.326     1920.359      608.259        0.596        0.225       84.959       16.440        0.037      331.705       -0.106      867.175
01/13/2022  07:00:00       14.969       -5.133      -13.209       32.583       14.182       13.660     1061.627      201.127      186.588        0.094        0.072       15.825        8.497        0.288      331.614       -0.259      867.213
01/13/2022  07:01:00      -65.424       30.924      -10.875       32.392       19.971       17.209     1049.247      398.839      296.133        0.355        0.087       72.365       13.593        0.035      331.639       -0.214      867.292
01/13/2022  07:02:00      -12.141       -3.076      -15.188       21.798       23.324       12.060      475.147      543.991      145.435        0.078        0.058       12.525       13.652        1.188      331.659       -0.184      867.316
01/13/2022  07:03:00       59.980      -63.744      -40.389       44.794       51.607       26.810     2006.464     2663.259      718.802        0.734        0.269       87.526       16.010        0.033      331.784        0.022      867.324
01/13/2022  07:04:00      -18.717       -9.658      -11.656       64.913       58.941       25.452     4213.725     3474.072      647.814        0.446        0.417       21.062       24.297        1.331      331.823        0.087      867.325
01/13/2022  07:05:00      -80.209        5.563       -0.902       85.597       46.434       28.267     7326.880     2156.119      799.003        0.837        0.514       80.401       33.348        0.172      331.963        0.316      867.367
01/13/2022  07:06:00      -87.430        6.175       -7.827       59.290       23.974       16.024     3515.315      574.776      256.780        0.604        0.217       87.648       17.206        0.039      332.023        0.417      867.314
01/13/2022  07:07:00      -76.567       25.427      -17.649       34.753       17.678       14.865     1207.753      312.510      220.980        0.428        0.087       80.679       15.193        0.035      332.034        0.433      867.268
01/13/2022  07:08:00      -86.180       14.363      -13.213       42.514       22.417       19.803     1807.471      502.502      392.160        0.525        0.135       87.368       18.577        0.045      331.966        0.322      867.242
01/13/2022  07:09:00      -68.927       13.725       -7.846       33.197       22.167       16.195     1102.030      491.393      262.269        0.343        0.093       70.280       15.968        0.052      331.845        0.123      867.222
01/13/2022  07:10:00       -5.172       22.001       -5.478       14.316       13.775       14.381      204.936      189.764      206.824        0.057        0.030       22.601       12.825        0.322      331.765       -0.006      867.201
01/13/2022  07:11:00        2.865      -11.356      -20.629       12.440       17.716       14.357      154.747      313.843      206.115        0.062        0.034       11.712       11.579        0.977      331.907        0.225      867.220
01/13/2022  07:12:00      -39.976        4.778      -14.785       32.121       28.483       18.126     1031.743      811.301      328.562        0.201        0.109       40.261       14.780        0.135      332.007        0.391      867.211
01/13/2022  07:13:00      -63.054       11.061      -10.016       49.722       35.006       29.526     2472.228     1225.451      871.764        0.438        0.228       64.017        8.493        0.018      331.839        0.114      867.175
01/13/2022  07:14:00      -70.121       17.231       -9.330       26.774       47.713       22.346      716.858     2276.569      499.339        0.440        0.175       72.207       21.523        0.089      331.812        0.069      867.117
01/13/2022  07:15:00      -51.587       20.215       -4.881       37.587       27.316       21.067     1412.801      746.138      443.816        0.285        0.130       55.406       15.518        0.078      331.857        0.142      867.110
01/13/2022  07:16:00      -70.828      129.191       -1.897       41.402       35.960       27.163     1714.162     1293.097      737.808        1.273        0.187      147.333       14.008        0.009      331.820        0.083      867.032
01/13/2022  07:17:00      -45.320       -6.654      -14.939       82.566       44.168       37.347     6817.135     1950.826     1394.820        0.624        0.508       45.805       21.911        0.229      331.830        0.098      867.102
01/13/2022  07:18:00     -152.690       23.591      -24.317       66.073       57.974       45.382     4365.611     3360.983     2059.506        1.712        0.489      154.502       34.347        0.049      331.705       -0.108      867.146
01/13/2022  07:19:00      -79.371       16.006        3.247       66.769       42.192       36.855     4458.061     1780.142     1358.262        0.708        0.380       80.969       23.231        0.082      331.713       -0.096      867.188
01/13/2022  07:20:00      -45.695       21.131       -5.194       28.913       18.030       24.465      835.935      325.079      598.538        0.216        0.088       50.344       16.268        0.104      331.691       -0.130      867.135
01/13/2022  07:21:00      -68.977        9.437      -12.818       27.291       17.529       17.438      744.790      307.263      304.092        0.318        0.068       69.619       16.907        0.059      331.810        0.066      867.070
01/13/2022  07:22:00      -30.233       17.777        4.692       64.180       29.564       30.596     4119.038      874.058      936.138        0.359        0.296       35.072       30.140        0.739      331.858        0.144      867.082
01/13/2022  07:23:00       -8.001       -0.083       -9.581       36.619       29.853       16.967     1340.951      891.203      287.876        0.134        0.126        8.002       12.502        2.441      331.709       -0.099      867.097
01/13/2022  07:24:00      -14.603       19.125       -1.820       20.152       17.645       11.867      406.118      311.339      140.836        0.072        0.043       24.063        9.166        0.145      331.736       -0.055      867.015
01/13/2022  07:25:00      -19.247        6.074      -15.002       17.364       31.181       12.448      301.498      972.271      154.959        0.103        0.071       20.183        7.902        0.153      331.912        0.233      866.943
01/13/2022  07:26:00      -35.870       30.550      -15.567       18.514       19.306       14.842      342.783      372.724      220.293        0.170        0.047       47.116       12.111        0.066      331.873        0.168      866.973
01/13/2022  07:27:00      -18.786       14.074      -10.036       33.561       17.517        9.482     1126.344      306.856       89.915        0.109        0.076       23.473        2.389        0.010      331.821        0.084      866.995
01/13/2022  07:28:00      -89.734        2.529      -12.986       48.843       55.921       28.327     2385.629     3127.107      802.413        0.727        0.316       89.770       20.822        0.054      331.715       -0.091      867.048
01/13/2022  07:29:00      -16.635       10.498       -4.305       25.754       12.851       15.028      663.249      165.150      225.838        0.073        0.053       19.671        7.042        0.128      331.763       -0.012      866.993
01/13/2022  07:30:00       19.074       -0.773      -11.243       19.337       14.265        9.849      373.935      203.491       96.998        0.058        0.034       19.089       11.101        0.338      332.092        0.530      866.920
01/13/2022  07:31:00       35.624      -43.470      -20.224       20.117       17.040       15.438      404.682      290.365      238.343        0.225        0.047       56.203       10.359        0.034      332.030        0.427      866.956
01/13/2022  07:32:00       45.650      -60.520      -21.453       10.709       11.792        8.631      114.675      139.041       74.498        0.327        0.016       75.807        7.347        0.009      331.915        0.241      867.024
01/13/2022  07:33:00       58.955      -47.350      -19.312       12.157       19.136       14.659      147.802      366.201      214.876        0.341        0.036       75.616       11.365        0.023      332.030        0.427      867.027
01/13/2022  07:34:00       19.198      -15.033      -14.013       28.255       34.772       20.662      798.329     1209.059      426.937        0.161        0.122       24.383       15.053        0.381      332.167        0.653      866.946
01/13/2022  07:35:00       22.000      -67.695      -15.086       29.332       33.914       22.531      860.392     1150.128      507.637        0.391        0.126       71.180       20.952        0.087      332.273        0.829      866.950
01/13/2022  07:36:00       23.341      -16.955      -15.346       16.422       25.032       12.865      269.695      626.605      165.496        0.106        0.053       28.849        8.081        0.078      332.288        0.854      866.961
01/13/2022  07:37:00       47.599      -18.060       -7.144       28.545       19.120       16.293      814.845      365.563      265.454        0.204        0.072       50.910       14.737        0.084      332.287        0.850      866.935
01/13/2022  07:38:00       64.233       -9.482      -12.069       35.111       30.244       26.347     1232.751      914.708      694.189        0.360        0.142       64.930       21.771        0.112      332.253        0.794      866.920
01/13/2022  07:39:00       42.095       -8.467       -1.337       45.738       43.156       38.181     2091.952     1862.459     1457.799        0.363        0.271       42.938       28.954        0.455      331.785        0.025      866.959
01/13/2022  07:40:00      114.825      -18.959       -9.706       57.865       35.338       31.529     3348.309     1248.777      994.063        0.961        0.280      116.380       33.004        0.080      331.397       -0.615      866.981
01/13/2022  07:41:00      143.371       40.825      -12.086       31.566       40.364       25.564      996.402     1629.234      653.508        1.282        0.164      149.070       10.916        0.005      331.227       -0.892      866.891
01/13/2022  07:42:00      172.666       11.157       -8.418       56.853       29.057       28.482     3232.303      844.318      811.244        1.745        0.244      173.026       23.955        0.019      331.196       -0.944      866.845
01/13/2022  07:43:00       79.962        9.722       -2.727       75.816       34.482       30.597     5748.062     1189.014      936.193        0.718        0.394       80.551       20.479        0.065      331.153       -1.016      866.853
01/13/2022  07:44:00       47.272       27.505       -7.422       32.228       20.873       15.598     1038.623      435.695      243.290        0.238        0.086       54.691        7.777        0.020      331.213       -0.915      866.951
01/13/2022  07:45:00      -24.656       10.890       -8.518       13.036       15.351        9.756      169.935      235.668       95.176        0.065        0.025       26.954        8.358        0.096      331.278       -0.809      867.026
01/13/2022  07:46:00       15.795       26.447      -11.248       21.569       10.223       12.505      465.234      104.504      156.374        0.090        0.036       30.804        5.917        0.037      331.310       -0.757      867.007
01/13/2022  07:47:00       52.889       28.998       -2.983       41.610       56.896       29.648     1731.414     3237.152      878.982        0.475        0.292       60.317       21.562        0.128      331.501       -0.444      866.921
01/13/2022  07:48:00       18.569        9.553       -5.008       32.319       39.010       25.136     1044.512     1521.767      631.828        0.183        0.160       20.882       18.131        0.754      331.463       -0.506      866.871
01/13/2022  07:49:00       22.097      -24.530       -8.304       20.131       25.900       13.363      405.276      670.794      178.557        0.121        0.063       33.015       10.133        0.094      331.371       -0.656      866.912
01/13/2022  07:50:00       -1.100      -11.313       -9.250       36.787       14.665       14.612     1353.275      215.077      213.510        0.100        0.089       11.367       19.027        2.802      331.428       -0.565      866.988
01/13/2022  07:51:00       82.063      -24.560      -11.484       39.431       25.813       19.319     1554.814      666.326      373.225        0.503        0.130       85.659       17.036        0.040      331.570       -0.329      866.983
01/13/2022  07:52:00       80.340       -8.081      -15.262       51.755       28.744       17.403     2678.607      826.234      302.866        0.528        0.190       80.745       19.141        0.056      331.443       -0.540      866.931
01/13/2022  07:53:00      -13.968       23.469       -9.283       23.591       18.944       12.227      556.534      358.894      149.494        0.095        0.053       27.311        5.968        0.048      331.548       -0.368      866.861
01/13/2022  07:54:00       28.879       -5.067      -14.321       14.637       36.648       13.939      214.239     1343.074      194.308        0.141        0.088       29.320       14.327        0.239      331.687       -0.136      866.792
01/13/2022  07:55:00       42.407       -9.389      -10.710       24.211       31.762       16.266      586.192     1008.800      264.585        0.193        0.093       43.434       11.742        0.073      331.701       -0.114      866.827
01/13/2022  07:56:00       20.058      -37.677      -16.684       20.302       19.448       13.924      412.188      378.212      193.886        0.154        0.049       42.683        7.255        0.029      331.826        0.093      866.956
01/13/2022  07:57:00       35.949        3.102      -23.061       29.320       37.598       22.720      859.675     1413.598      516.196        0.231        0.139       36.083       18.990        0.277      331.776        0.010      866.983
01/13/2022  07:58:00       28.779      -32.404      -28.117       31.166       33.495       31.384      971.326     1121.945      984.944        0.287        0.154       43.338       19.302        0.198      331.785        0.024      866.920
01/13/2022  07:59:00      -32.885       -2.329      -11.662       35.404       40.113       13.060     1253.476     1609.029      170.564        0.213        0.152       32.967       15.008        0.207      331.766       -0.006      866.885
01/13/2022  08:00:00       38.600       20.416      -11.023       60.543       15.059       15.028     3665.431      226.772      225.840        0.307        0.206       43.667       20.464        0.220      331.731       -0.064      866.861
01/13/2022  08:01:00       53.310       -1.774       -8.105       44.056       23.906       18.923     1940.921      571.487      358.065        0.289        0.144       53.339       20.772        0.152      331.742       -0.046      866.755
01/13/2022  08:02:00      -15.819       -4.030      -17.240       12.617       13.702       11.901      159.192      187.734      141.627        0.053        0.024       16.324        7.060        0.187      331.747       -0.037      866.794
01/13/2022  08:03:00      -35.921       26.357       -8.503       22.276       10.739       10.544      496.208      115.327      111.182        0.139        0.036       44.553        7.691        0.030      331.693       -0.128      866.857
01/13/2022  08:04:00      -41.094       14.653      -11.466       24.690       17.959        7.306      609.620      322.544       53.383        0.151        0.049       43.628        6.873        0.025      331.669       -0.167      866.883
01/13/2022  08:05:00       -2.582       17.999      -10.807        9.898       20.825       11.783       97.963      433.678      138.847        0.056        0.034       18.184        9.813        0.291      331.763       -0.012      866.883
01/13/2022  08:06:00      -25.428       31.298       -9.217       19.772       16.792        7.864      390.923      281.977       61.847        0.122        0.037       40.326        4.741        0.014      331.895        0.206      866.842
01/13/2022  08:07:00      -23.481        5.010       -6.798       39.197       31.757       22.645     1536.385     1008.536      512.806        0.184        0.153       24.010       23.349        0.946      331.895        0.205      866.837
01/13/2022  08:08:00      -27.354       11.512        2.634       62.259       34.736       36.141     3876.206     1206.575     1306.182        0.364        0.319       29.678       34.742        1.370      331.835        0.106      866.828
01/13/2022  08:09:00      -27.258        3.158       -4.525       54.120       48.163       21.874     2928.977     2319.647      478.469        0.325        0.286       27.440       19.865        0.524      331.821        0.085      866.783
01/13/2022  08:10:00      -47.548       45.139       -0.380       29.181       24.139       21.009      851.521      582.704      441.364        0.309        0.094       65.562       14.339        0.048      331.756       -0.023      866.716
01/13/2022  08:11:00       17.573       16.099       -7.621       26.397       26.910       13.408      696.795      724.175      179.779        0.111        0.080       23.832       14.783        0.385      331.852        0.135      866.702
01/13/2022  08:12:00       -7.005       29.001      -12.466       29.372       20.084       16.770      862.723      403.380      281.243        0.130        0.077       29.836        8.026        0.072      331.923        0.252      866.720
01/13/2022  08:13:00        9.875       10.188       -4.050       15.336       18.736       15.361      235.184      351.046      235.973        0.052        0.041       14.188       14.060        0.982      331.926        0.258      866.729
01/13/2022  08:14:00      -52.930       40.013       -7.040       24.991       14.704       20.024      624.547      216.222      400.967        0.285        0.062       66.352       15.165        0.052      331.784        0.024      866.696
01/13/2022  08:15:00       -1.965       48.294       -3.937       28.443       27.406       17.134      808.995      751.081      293.577        0.210        0.093       48.334       11.364        0.055      331.887        0.192      866.655
01/13/2022  08:16:00        7.915       76.672       -4.177       32.584       31.724       23.449     1061.721     1006.384      549.857        0.429        0.131       77.080       19.317        0.063      332.112        0.563      866.618
01/13/2022  08:17:00      -73.639       43.427      -12.573       29.012       40.620       15.624      841.669     1650.017      244.100        0.510        0.137       85.491       10.916        0.016      331.973        0.334      866.632
01/13/2022  08:18:00      -85.411       80.077      -13.815       40.888       30.028       16.353     1671.853      901.683      267.421        0.837        0.142      117.079       20.842        0.032      331.852        0.134      866.540
01/13/2022  08:19:00       30.068      -31.357      -11.000       29.712       41.078       24.514      882.813     1687.363      600.934        0.259        0.159       43.443       29.835        0.472      332.033        0.431      866.521
01/13/2022  08:20:00      -17.207       14.404      -11.765       53.978       29.890       19.790     2913.625      893.384      391.659        0.242        0.210       22.440        6.547        0.085      332.127        0.586      866.559
01/13/2022  08:21:00       -4.986        0.484       -7.800       64.902       41.352       33.546     4212.240     1709.997     1125.366        0.357        0.352        5.009       38.335       58.562      332.064        0.483      866.589
01/13/2022  08:22:00      -32.369      -11.425      -16.060       22.804       27.288       21.672      520.045      744.646      469.657        0.158        0.087       34.326       12.001        0.122      332.071        0.495      866.601
01/13/2022  08:23:00      -55.453        3.785      -11.154       45.207       27.554       27.182     2043.647      759.230      738.886        0.338        0.177       55.582       23.491        0.179      332.013        0.399      866.594
01/13/2022  08:24:00      -66.275       32.936       -4.501       35.937       28.687       23.283     1291.451      822.950      542.099        0.408        0.133       74.008       17.793        0.058      331.951        0.296      866.532
01/13/2022  08:25:00       -6.870      -30.159      -19.217       58.598       34.743       34.653     3433.676     1207.081     1200.862        0.358        0.292       30.931       21.253        0.472      332.065        0.486      866.536
01/13/2022  08:26:00       78.858      -91.395      -33.174       19.986       52.095       15.411      399.449     2713.914      237.508        0.951        0.168      120.713       19.837        0.027      332.139        0.608      866.533
01/13/2022  08:27:00       10.123       -9.414      -15.399       14.355       23.240       12.993      206.056      540.099      168.810        0.067        0.046       13.824        8.002        0.335      332.155        0.632      866.459
01/13/2022  08:28:00       -3.459       -4.722       -1.365       23.835       30.056       18.309      568.088      903.334      335.220        0.092        0.090        5.853       10.841        3.431      332.291        0.857      866.585
01/13/2022  08:29:00      -27.669      -18.522        0.826       52.167       30.727       25.877     2721.346      944.164      669.611        0.272        0.217       33.296       21.701        0.425      332.212        0.726      866.693
01/13/2022  08:30:00      -62.251       22.139        4.925       69.015       21.986       20.374     4763.121      483.365      415.082        0.502        0.283       66.070       11.012        0.028      332.120        0.576      866.635
01/13/2022  08:31:00       19.809       -7.303      -11.164       17.038       31.743       19.751      290.286     1007.640      390.115        0.113        0.084       21.112        7.546        0.128      332.247        0.786      866.564
01/13/2022  08:32:00       42.309        3.292      -12.123       31.907       31.600       20.217     1018.046      998.533      408.728        0.219        0.121       42.437       17.416        0.168      332.169        0.655      866.604
01/13/2022  08:33:00      -22.026      -26.150      -20.416       48.184       52.239       16.234     2321.719     2728.889      263.545        0.345        0.266       34.191        5.668        0.027      332.304        0.878      866.623
01/13/2022  08:34:00     -141.281       83.211      -36.810       20.155       32.803       18.466      406.229     1076.053      340.998        1.503        0.091      163.964        9.743        0.004      332.325        0.914      866.576
01/13/2022  08:35:00     -118.892      105.607      -23.627       33.626       43.914       19.800     1130.716     1928.474      392.055        1.465        0.173      159.023       14.542        0.008      332.274        0.829      866.513
01/13/2022  08:36:00      -87.719       12.515      -19.377       55.021       30.255       23.939     3027.298      915.365      573.064        0.637        0.226       88.607       12.077        0.019      332.329        0.920      866.496
01/13/2022  08:37:00       14.201      -87.650      -35.511       41.965       54.319       29.225     1761.091     2950.529      854.114        0.735        0.278       88.793       33.341        0.141      332.544        1.275      866.499
01/13/2022  08:38:00       46.317     -151.128      -25.288       47.226       54.390       39.930     2230.326     2958.306     1594.445        1.620        0.339      158.066       37.228        0.055      332.887        1.841      866.629
01/13/2022  08:39:00      -88.258      -36.089      -35.710       90.914       80.752       46.127     8265.380     6520.856     2127.736        1.364        0.846       95.352       26.421        0.077      332.711        1.550      866.756
01/13/2022  08:40:00     -120.339       29.039      -15.038       46.132       34.789       20.041     2128.195     1210.269      401.622        0.964        0.187      123.793       18.454        0.022      332.768        1.646      866.742
01/13/2022  08:41:00      -71.597       69.219      -12.925       28.256       18.076       13.628      798.413      326.725      185.734        0.570        0.066       99.586       12.954        0.017      332.629        1.416      866.602
01/13/2022  08:42:00      -86.694       65.182      -22.139       22.151       32.920       20.235      490.683     1083.757      409.437        0.712        0.099      108.464        9.920        0.008      332.783        1.672      866.523
01/13/2022  08:43:00       -4.636       -6.524      -18.480       35.698       24.074       18.647     1274.318      579.542      347.709        0.130        0.110        8.003       12.764        2.543      333.098        2.193      866.504
01/13/2022  08:44:00       46.995      -61.505      -30.587       27.222       34.802       22.683      741.043     1211.187      514.498        0.470        0.123       77.404       22.015        0.081      333.129        2.242      866.513
01/13/2022  08:45:00       70.450     -120.360      -37.345       23.251       27.036       16.376      540.597      730.926      268.175        1.119        0.077      139.462        9.377        0.005      333.143        2.266      866.530
01/13/2022  08:46:00       53.702      -76.563      -36.877       49.442       42.874       18.006     2444.505     1838.184      324.201        0.736        0.230       93.519       16.474        0.031      333.419        2.723      866.476
01/13/2022  08:47:00      -20.595       -2.360      -15.834       32.966       23.977       14.723     1086.727      574.899      216.764        0.128        0.094       20.730        7.924        0.146      333.185        2.335      866.414
01/13/2022  08:48:00      -51.366       73.600      -14.266       22.992       27.543       14.467      528.652      758.624      209.284        0.488        0.075       89.752        9.290        0.011      333.196        2.355      866.428
01/13/2022  08:49:00      -44.206       11.181      -16.577       33.242       42.106       22.684     1105.036     1772.951      514.573        0.287        0.170       45.598       26.104        0.328      333.539        2.921      866.459
01/13/2022  08:50:00      -42.769        2.391      -11.860       41.677       37.697       33.406     1737.012     1421.088     1115.968        0.312        0.214       42.836       29.848        0.486      333.183        2.332      866.569
01/13/2022  08:51:00      -21.806       -7.219       -8.856       33.741       22.068       14.798     1138.433      487.014      218.968        0.122        0.092       22.970       16.009        0.486      334.206        4.025      866.523
01/13/2022  08:52:00      -56.125        8.687      -20.496       38.309       35.981       18.792     1467.553     1294.626      353.129        0.338        0.156       56.794       10.294        0.033      333.451        2.774      866.508
01/13/2022  08:53:00      -65.212       34.752      -10.576       54.933       39.251       23.319     3017.653     1540.603      543.764        0.534        0.255       73.894       20.455        0.077      333.230        2.409      866.412
01/13/2022  08:54:00      -79.700       17.787       -5.567       46.061       22.042       15.155     2121.623      485.847      229.677        0.477        0.142       81.661        6.556        0.006      333.380        2.658      866.339
01/13/2022  08:55:00      -29.020      -20.655      -10.117       23.468       11.161        8.981      550.752      124.566       80.661        0.106        0.038       35.620       10.825        0.092      333.625        3.064      866.275
01/13/2022  08:56:00      -80.122      -16.756      -13.158       32.744       24.075       25.924     1072.201      579.625      672.072        0.460        0.116       81.855       21.167        0.067      333.628        3.068      866.331
01/13/2022  08:57:00      -71.737       -4.399       -6.767       35.129       27.168       21.031     1234.041      738.108      442.309        0.381        0.121       71.872       15.965        0.049      333.416        2.715      866.363
01/13/2022  08:58:00      -91.424       33.581       -6.936       49.528       34.341       26.760     2453.010     1179.335      716.118        0.694        0.217       97.396       19.119        0.039      333.353        2.612      866.355
01/13/2022  08:59:00      -93.389        1.387       -3.113       50.256       45.774       21.814     2525.687     2095.265      475.839        0.691        0.255       93.399       15.793        0.029      333.396        2.683      866.338
01/13/2022  09:00:00      -97.810      -44.298      -15.997       77.424       70.531       37.538     5994.413     4974.685     1409.130        1.208        0.619      107.374       30.648        0.081      333.836        3.412      866.379
01/13/2022  09:01:00     -166.757      -42.365      -19.483      133.915       72.238       45.405    17933.335     5218.288     2061.652        2.759        1.261      172.055       49.199        0.082      334.280        4.147      866.405
01/13/2022  09:02:00     -159.447      -31.418      -15.900       93.534       93.070       52.210     8748.657     8662.027     2725.874        2.340        1.007      162.513       38.935        0.057      334.326        4.223      866.447
01/13/2022  09:03:00     -220.115      -56.490      -15.619       65.938       50.927       31.957     4347.879     2593.541     1021.274        2.992        0.398      227.248       23.179        0.010      334.842        5.078      866.403
01/13/2022  09:04:00     -132.034     -113.869      -25.889       91.271       90.338       41.971     8330.339     8160.955     1761.560        2.466        0.913      174.353       31.394        0.032      335.150        5.591      866.372
01/13/2022  09:05:00     -110.784      -39.668       -9.851       66.706       58.440       34.980     4449.753     3415.284     1223.634        1.151        0.454      117.672       29.782        0.064      335.294        5.832      866.277
01/13/2022  09:06:00     -205.433      -19.389       -8.554       83.786       55.796       51.651     7020.015     3113.199     2667.815        2.772        0.640      206.346       48.207        0.055      335.098        5.505      866.299
01/13/2022  09:07:00     -258.566      -50.620      -20.386       90.290       82.851       54.285     8152.285     6864.345     2946.818        4.390        0.898      263.475       47.936        0.033      335.163        5.611      866.399
01/13/2022  09:08:00     -201.468      -21.124       -1.574      116.972       96.212       64.554    13682.439     9256.818     4167.252        3.407        1.355      202.573       55.213        0.074      335.834        6.729      866.382
01/13/2022  09:09:00     -169.084      -31.035       -9.845       77.866       68.437       48.100     6063.099     4683.634     2313.636        2.135        0.653      171.908       36.895        0.046      336.299        7.506      866.291
01/13/2022  09:10:00     -355.696      -44.814      -29.693      149.784      100.955       71.332    22435.392    10191.946     5088.266        8.356        1.886      358.508       43.741        0.015      336.988        8.658      866.222
01/13/2022  09:11:00     -329.785      -32.901      -10.645      119.432       95.815       58.648    14264.089     9180.508     3439.620        6.841        1.344      331.423       56.379        0.029      337.295        9.168      866.244
01/13/2022  09:12:00     -348.837        2.066      -28.951      141.557      132.409       69.146    20038.318    17532.056     4781.181        8.243        2.118      348.843       68.001        0.038      337.535        9.574      866.296
01/13/2022  09:13:00     -284.680       22.867        3.474      210.452      102.671       69.965    44289.837    10541.383     4895.149        7.064        2.986      285.597       71.119        0.062      337.419        9.379      866.328
01/13/2022  09:14:00     -154.622      -18.798      -29.804       99.497      105.506       41.560     9899.584    11131.413     1727.198        2.395        1.138      155.760       34.933        0.050      337.344        9.252      866.328
01/13/2022  09:15:00     -131.645     -124.915      -31.752      129.633       87.745       58.569    16804.758     7699.244     3430.308        3.093        1.397      181.478       40.138        0.049      337.183        8.983      866.368
01/13/2022  09:16:00     -170.356      -56.379      -33.627       79.171      109.839       57.022     6268.087    12064.535     3251.470        2.745        1.079      179.443       36.631        0.042      337.044        8.750      866.391
01/13/2022  09:17:00        1.467       -3.545        1.053       77.484       72.379       40.479     6003.792     5238.702     1638.576        0.645        0.644        3.837       25.003       42.470      336.842        8.416      866.367
01/13/2022  09:18:00      156.468        5.765      -25.533      119.789       82.187       56.748    14349.522     6754.730     3220.291        2.474        1.216      156.574       54.345        0.120      334.810        5.029      866.428
01/13/2022  09:19:00      241.839       54.061      -24.176       86.028       89.681       53.789     7400.843     8042.769     2893.283        4.016        0.917      247.808       20.937        0.007      333.107        2.203      866.453
01/13/2022  09:20:00      287.939       87.868      -23.942      102.447       78.221       37.769    10495.431     6118.566     1426.527        5.462        0.902      301.048       20.101        0.004      333.436        2.748      866.549
01/13/2022  09:21:00      297.653       83.037      -17.039       90.453       64.589       43.653     8181.716     4171.739     1905.542        5.502        0.713      309.019       34.179        0.012      334.045        3.756      866.627
01/13/2022  09:22:00       44.703      -21.139        8.266       64.930       68.923       35.987     4215.930     4750.414     1295.033        0.639        0.513       49.449       29.515        0.356      334.154        3.939      866.653
01/13/2022  09:23:00       44.869       -0.654      -17.417       55.054       60.375       24.987     3030.987     3645.191      624.348        0.481        0.365       44.874       13.116        0.085      334.469        4.461      866.637
01/13/2022  09:24:00      -56.399       -7.999      -16.289       15.668       19.084       12.412      245.485      364.182      154.068        0.214        0.038       56.963        5.248        0.008      334.186        3.992      866.609
01/13/2022  09:25:00        7.732      -17.043       -9.872       32.428       30.745       18.691     1051.584      945.241      349.350        0.140        0.117       18.715       18.500        0.977      334.624        4.719      866.640
01/13/2022  09:26:00       85.939       83.769      -18.374       50.433       39.096       30.981     2543.478     1528.535      959.808        0.989        0.252      120.011       13.211        0.012      335.371        5.962      866.714
01/13/2022  09:27:00      175.079       87.374      -22.220       38.999       25.082       23.283     1520.949      629.131      542.091        2.074        0.135      195.670       12.592        0.004      335.771        6.626      866.772
01/13/2022  09:28:00      104.140       58.180      -17.279       60.834       34.993       24.947     3700.828     1224.525      622.354        1.004        0.277      119.290       19.827        0.028      335.913        6.863      866.696
01/13/2022  09:29:00       64.235       82.476      -26.018       34.458       36.152       25.309     1187.385     1306.934      640.547        0.737        0.157      104.539       21.415        0.042      336.168        7.290      866.637
01/13/2022  09:30:00       11.594       62.736       -3.720       29.949       25.791       17.445      896.921      665.165      304.322        0.297        0.093       63.799       16.281        0.065      336.166        7.286      866.633
01/13/2022  09:31:00       55.787        0.357      -10.084       31.152       31.686       18.231      970.461     1003.986      332.377        0.276        0.115       55.788        8.911        0.026      336.241        7.409      866.669
01/13/2022  09:32:00       78.378       31.154      -13.927       36.733       30.022       20.323     1349.286      901.300      413.043        0.499        0.133       84.343       14.197        0.028      336.258        7.439      866.764
01/13/2022  09:33:00       27.224       63.277       -4.868       33.399       44.430       19.767     1115.498     1974.033      390.748        0.412        0.174       68.885       17.860        0.067      336.599        8.010      866.838
01/13/2022  09:34:00        2.175        8.991       -9.549       28.850       22.246       11.145      832.300      494.875      124.209        0.081        0.073        9.251       10.123        1.198      336.330        7.559      866.830
01/13/2022  09:35:00        7.464       10.740        2.091       17.196       21.401       20.691      295.713      458.024      428.133        0.068        0.059       13.079       13.420        1.053      336.200        7.340      866.745
01/13/2022  09:36:00       28.190       27.159      -18.243       26.858       16.979       17.837      721.341      288.288      318.168        0.160        0.066       39.144        8.197        0.044      336.447        7.754      866.700
01/13/2022  09:37:00       57.994       54.350      -10.128       12.499       24.091        8.903      156.232      580.370       79.270        0.362        0.041       79.481        8.918        0.013      336.976        8.640      866.742
01/13/2022  09:38:00        7.098       73.390      -13.466       38.327       25.878       16.415     1468.929      669.676      269.442        0.401        0.120       73.732        9.611        0.017      337.071        8.797      866.797
01/13/2022  09:39:00      -19.587       63.648      -17.953       25.848       23.185       13.380      668.145      537.552      179.022        0.307        0.069       66.594       14.031        0.044      337.019        8.711      866.827
01/13/2022  09:40:00      -66.128       45.220      -16.631       25.990       15.864        9.740      675.505      251.667       94.867        0.386        0.051       80.111       10.034        0.016      336.271        7.462      866.848
01/13/2022  09:41:00      -56.313       22.837      -13.481       25.715       24.076       15.168      661.283      579.654      230.083        0.267        0.074       60.768       13.285        0.048      335.723        6.547      866.818
01/13/2022  09:42:00      -25.143       34.196       -8.992       32.934       32.258       15.446     1084.630     1040.581      238.567        0.212        0.118       42.444       11.187        0.069      336.521        7.879      866.788
01/13/2022  09:43:00      -92.386       19.916      -10.703       51.080       42.093       23.000     2609.181     1771.818      528.986        0.698        0.245       94.509       13.906        0.022      335.933        6.897      866.784
01/13/2022  09:44:00     -125.869       23.087      -18.820       36.988       23.751       21.185     1368.108      564.123      448.805        0.956        0.119      127.968       20.991        0.027      335.866        6.785      866.817
01/13/2022  09:45:00      -76.765        4.047        3.585       36.916       32.073       22.136     1362.772     1028.694      489.984        0.440        0.144       76.872       19.085        0.062      335.824        6.714      866.880
01/13/2022  09:46:00     -117.992       22.231       -7.375       64.769       44.478       22.380     4195.050     1978.273      500.859        1.057        0.334      120.068       23.628        0.039      336.963        8.618      866.921
01/13/2022  09:47:00      -46.415        0.780       -6.882       43.770       28.773       24.785     1915.793      827.858      614.320        0.278        0.168       46.422       24.350        0.275      337.210        9.030      866.887
01/13/2022  09:48:00     -107.553       44.932      -24.994       44.924       39.376       23.038     2018.178     1550.454      530.757        0.915        0.205      116.561       10.953        0.009      337.224        9.054      866.818
01/13/2022  09:49:00      -64.653       25.362      -19.474       56.182       52.035       29.258     3156.395     2707.659      856.030        0.596        0.336       69.449       24.104        0.120      337.231        9.067      866.795
01/13/2022  09:50:00     -104.314       22.624       -1.055       80.489       69.308       42.336     6478.412     4803.586     1792.296        1.223        0.654      106.739       39.231        0.135      337.171        8.965      866.838
01/13/2022  09:51:00     -111.506      -17.677       -4.699       87.462       46.961       36.843     7649.597     2205.348     1357.420        1.199        0.561      112.898       29.310        0.067      337.412        9.368      866.889
01/13/2022  09:52:00      -92.185        7.204        1.400       77.216       52.285       38.624     5962.257     2733.741     1491.781        0.937        0.509       92.466       37.517        0.165      337.527        9.561      866.888
01/13/2022  09:53:00     -132.936       11.851       -5.054       70.514       43.028       31.826     4972.202     1851.402     1012.920        1.284        0.392      133.463       30.234        0.051      337.658        9.780      866.824
01/13/2022  09:54:00     -121.673        3.121       -8.901       79.371       41.176       40.773     6299.723     1695.464     1662.445        1.227        0.483      121.713       47.035        0.149      337.668        9.798      866.782
01/13/2022  09:55:00     -147.330       -0.304       -4.733       66.727       38.353       30.370     4452.539     1470.979      922.363        1.429        0.342      147.330       27.442        0.035      337.521        9.550      866.787
01/13/2022  09:56:00     -199.078      -63.724      -28.209       61.655       53.274       31.335     3801.349     2838.118      981.884        2.605        0.381      209.029       26.706        0.016      337.959       10.284      866.792
01/13/2022  09:57:00     -350.794       21.043      -16.636      142.390       85.694       71.057    20275.053     7343.429     5049.093        7.822        1.633      351.425       72.234        0.042      338.085       10.494      866.785
01/13/2022  09:58:00     -316.134      -11.814      -11.419      101.190       65.624       59.643    10239.388     4306.499     3557.293        5.915        0.905      316.354       53.965        0.029      338.146       10.595      866.749
01/13/2022  09:59:00     -109.471      -15.088       13.203      119.452       70.867       70.938    14268.692     5022.141     5032.163        1.835        1.216      110.506       70.927        0.412      337.940       10.253      866.763
01/13/2022  10:00:00     -156.587        8.835       -4.234      101.190       86.394       73.594    10239.329     7463.848     5416.120        2.386        1.156      156.836       64.804        0.171      338.068       10.465      866.793
01/13/2022  10:01:00     -135.108       23.425        7.113      116.943      104.803       69.124    13675.586    10983.665     4778.102        2.414        1.472      137.124       42.950        0.098      338.238       10.752      866.800
01/13/2022  10:02:00     -193.012       31.063        4.708      164.838      124.303       69.612    27171.482    15451.142     4845.777        4.285        2.373      195.496       76.653        0.154      338.386       11.000      866.743
01/13/2022  10:03:00     -303.897       79.917       -6.867      107.604       87.802       53.760    11578.577     7709.141     2890.161        6.048        1.109      314.230       56.503        0.032      338.714       11.552      866.655
01/13/2022  10:04:00     -239.212       22.323      -12.726      118.324       79.224       53.009    14000.668     6276.490     2809.944        4.048        1.154      240.251       44.431        0.034      338.713       11.548      866.688
01/13/2022  10:05:00     -256.198     -109.592      -37.919       81.558      101.296       50.837     6651.690    10260.795     2584.364        4.929        0.975      278.654       32.926        0.014      338.545       11.265      866.719
01/13/2022  10:06:00     -180.301     -156.636      -40.738      108.567       70.542       65.963    11786.875     4976.237     4351.152        3.990        1.056      238.838       34.635        0.021      337.927       10.228      866.729
01/13/2022  10:07:00     -223.118     -143.366      -54.854      118.900      123.900       53.978    14137.230    15351.265     2913.654        5.287        1.620      265.208       59.679        0.051      338.211       10.706      866.696
01/13/2022  10:08:00     -168.407      -96.529      -31.550       99.456       90.852       59.056     9891.553     8254.142     3487.605        3.015        1.082      194.111       55.334        0.081      338.305       10.863      866.755
01/13/2022  10:09:00     -115.611      -54.487      -11.988       71.051       78.544       52.761     5048.241     6169.199     2783.702        1.524        0.700      127.807       44.395        0.121      338.006       10.363      866.783
01/13/2022  10:10:00      -82.970     -112.859      -24.020       87.559       58.941       35.411     7666.664     3474.029     1253.965        1.629        0.620      140.075       19.270        0.019      338.180       10.656      866.725
01/13/2022  10:11:00        4.421      -10.976      -41.616       35.642       43.453       29.077     1270.369     1888.200      845.483        0.294        0.200       11.833       14.747        1.553      338.315       10.885      866.625
01/13/2022  10:12:00        1.894      -16.011      -20.873       46.850       54.525       52.360     2194.951     2972.994     2741.549        0.430        0.395       16.123       38.406        5.675      338.394       11.014      866.595
01/13/2022  10:13:00       19.157       36.190        3.858       29.365       57.059       43.004      862.280     3255.766     1849.321        0.383        0.298       40.947       18.735        0.209      338.505       11.203      866.636
01/13/2022  10:14:00       88.855     -113.366      -40.782       36.918       69.600       43.446     1362.947     4844.118     1887.592        1.525        0.405      144.038       22.351        0.024      337.680        9.817      866.675
01/13/2022  10:15:00      139.016     -179.530      -50.468       58.878       86.813       45.696     3466.663     7536.548     2088.128        3.360        0.655      227.061       28.745        0.016      336.921        8.543      866.664
01/13/2022  10:16:00       93.893     -151.315      -47.833       57.679       80.017       39.147     3326.878     6402.774     1532.471        2.263        0.563      178.079       37.185        0.044      336.916        8.536      866.709
01/13/2022  10:17:00       57.871       -7.758       -8.800       60.030       51.433       39.818     3603.588     2645.382     1585.448        0.566        0.392       58.389       32.985        0.319      336.842        8.416      866.725
01/13/2022  10:18:00      143.030      -26.118      -21.034       61.649       39.166       41.690     3800.597     1533.938     1738.089        1.433        0.354      145.395       33.211        0.052      336.706        8.188      866.683
01/13/2022  10:19:00       61.861      -52.281      -36.527       63.715       65.877       52.265     4059.602     4339.840     2731.661        0.951        0.557       80.994       25.986        0.103      336.923        8.550      866.606
01/13/2022  10:20:00       32.538      -56.807      -18.503       40.091       44.874       26.630     1607.312     2013.668      709.154        0.448        0.217       65.466       20.837        0.101      337.036        8.740      866.670
01/13/2022  10:21:00       24.061      -47.552        7.495       47.238       40.867       29.597     2231.405     1670.098      875.973        0.384        0.239       53.293       35.295        0.439      337.317        9.209      866.692
01/13/2022  10:22:00       62.499     -107.625      -33.347       29.400       50.641       19.185      864.336     2564.503      368.050        1.020        0.190      124.456       21.989        0.031      337.023        8.718      866.686
01/13/2022  10:23:00       31.621      -75.569      -31.594       52.047       46.210       21.705     2708.856     2135.326      471.128        0.651        0.266       81.918       18.656        0.052      337.143        8.918      866.734
01/13/2022  10:24:00      123.038      -81.851      -52.352       55.971       85.517       31.541     3132.748     7313.226      994.848        1.801        0.572      147.777       26.168        0.031      337.133        8.902      866.666
01/13/2022  10:25:00       87.436     -139.303      -57.130       79.347       81.729       56.912     6295.998     6679.672     3239.028        2.326        0.811      164.470       44.594        0.074      337.204        9.017      866.486
01/13/2022  10:26:00        9.440     -112.187      -37.677       54.222       77.597       51.721     2939.992     6021.322     2675.108        1.286        0.582      112.583       22.591        0.040      337.260        9.113      866.538
01/13/2022  10:27:00      -52.274      -60.606      -16.775       49.787       52.686       21.948     2478.781     2775.822      481.714        0.621        0.287       80.035       17.143        0.046      337.394        9.338      866.650
01/13/2022  10:28:00       72.188     -103.284      -45.080       95.144       64.195       32.766     9052.298     4121.006     1073.640        1.608        0.712      126.011       43.106        0.117      337.524        9.553      866.562
01/13/2022  10:29:00      154.357     -200.926      -67.617       63.407      128.598       46.193     4020.503    16537.431     2133.825        4.573        1.135      253.372       49.283        0.038      337.555        9.606      866.412
01/13/2022  10:30:00      112.616     -238.985      -56.634       77.832       49.944       39.115     6057.823     2494.444     1530.007        4.154        0.504      264.189       30.204        0.013      337.489        9.491      866.422
01/13/2022  10:31:00      -83.510      -14.080      -13.749      100.598       73.195       53.235    10119.999     5357.506     2833.935        1.283        0.916       84.689       38.566        0.207      337.668        9.798      866.544
01/13/2022  10:32:00       -9.684      -32.358      -19.437       89.666       51.896       45.190     8040.074     2693.194     2042.121        0.714        0.639       33.776       17.687        0.274      337.792       10.006      866.515
01/13/2022  10:33:00      108.881     -154.051      -63.978       61.697       88.754       46.707     3806.495     7877.200     2181.563        2.677        0.693      188.645       28.391        0.023      337.613        9.705      866.277
01/13/2022  10:34:00      110.000     -251.756      -51.694       60.962       54.227       41.579     3716.392     2940.581     1728.787        4.327        0.419      274.739       40.557        0.022      337.326        9.221      866.272
01/13/2022  10:35:00     -190.349      -16.430      -45.022      160.567       92.801       57.447    25781.739     8612.010     3300.124        3.810        1.885      191.057       27.467        0.021      337.781        9.986      866.381
01/13/2022  10:36:00       93.217     -159.298      -49.172      110.403      119.444       46.813    12188.925    14266.873     2191.462        3.256        1.432      184.567       75.707        0.168      337.533        9.569      866.370
01/13/2022  10:37:00      176.796     -212.585      -67.663       54.155       79.286       46.351     2932.777     6286.333     2148.431        4.620        0.568      276.494       38.932        0.020      337.401        9.346      866.371
01/13/2022  10:38:00      138.534     -109.617      -63.203       80.263      102.383       56.136     6442.195    10482.370     3151.231        2.764        1.004      176.657       53.428        0.091      337.336        9.239      866.453
01/13/2022  10:39:00      149.626      -82.488      -46.426      105.774      143.320       56.501    11188.167    20540.490     3192.396        3.313        1.746      170.857       48.282        0.080      337.344        9.253      866.342
01/13/2022  10:40:00       94.951      -40.746      -37.276       67.807      112.981       54.220     4597.852    12764.644     2939.770        1.618        1.015      103.325       44.924        0.189      337.327        9.225      866.217
01/13/2022  10:41:00       80.261       24.033       -8.454       52.670       49.789       39.543     2774.156     2478.918     1563.652        0.695        0.341       83.782       21.477        0.066      337.307        9.193      866.377
01/13/2022  10:42:00      132.932       46.756      -25.635       44.727       48.294       25.834     2000.486     2332.332      667.392        1.276        0.250      140.915       23.932        0.029      337.286        9.159      866.472
01/13/2022  10:43:00      198.034       21.027      -17.723       44.870       53.667       34.272     2013.355     2880.150     1174.581        2.302        0.303      199.147       26.583        0.018      337.416        9.374      866.386
01/13/2022  10:44:00       99.533      -67.440      -40.629       91.080      108.100       54.123     8295.584    11685.670     2929.284        1.950        1.146      120.229       30.648        0.065      337.419        9.378      866.406
01/13/2022  10:45:00       74.354      -53.560      -27.412       76.256       81.287       56.144     5814.962     6607.632     3152.109        1.236        0.779       91.636       43.211        0.222      337.229        9.062      866.520
01/13/2022  10:46:00       78.864      -90.354      -38.750       59.148       78.416       43.058     3498.478     6149.021     1854.026        1.369        0.575      119.931       38.253        0.102      337.257        9.109      866.605
01/13/2022  10:47:00      140.139     -161.424      -56.876       55.888       52.460       34.583     3123.436     2752.005     1196.001        2.800        0.354      213.768       30.733        0.021      337.170        8.960      866.643
01/13/2022  10:48:00      100.563     -141.341      -44.119       57.014       90.828       36.113     3250.585     8249.759     1304.133        2.242        0.640      173.466       23.355        0.018      337.312        9.199      866.521
01/13/2022  10:49:00       99.697      -14.232      -33.430       68.585       70.465       40.083     4703.939     4965.385     1606.654        1.127        0.564      100.708       29.765        0.087      337.313        9.203      866.358
01/13/2022  10:50:00       96.334     -131.418      -43.781       45.676       64.146       32.558     2086.330     4114.709     1060.046        1.786        0.363      162.945       21.621        0.018      337.277        9.143      866.334
01/13/2022  10:51:00       98.643      -68.546      -32.648       73.800       61.729       37.039     5446.437     3810.506     1371.899        1.306        0.531      120.121       44.990        0.140      337.228        9.061      866.361
01/13/2022  10:52:00       89.324      -17.848      -41.391       65.233       77.494       51.850     4255.322     6005.313     2688.437        1.148        0.647       91.089       32.184        0.125      337.327        9.227      866.269
01/13/2022  10:53:00      120.905      -33.489        0.529       87.131       77.492       55.656     7591.805     6005.079     3097.552        1.621        0.835      125.457       43.962        0.123      337.290        9.164      866.111
01/13/2022  10:54:00      -54.095      -16.684      -37.821       40.191       42.719       30.294     1615.351     1824.889      917.725        0.450        0.218       56.610       14.963        0.070      337.412        9.369      866.238
01/13/2022  10:55:00     -136.799      -21.365       -9.481      111.021       58.493       52.815    12325.651     3421.464     2789.374        1.889        0.927      138.457       63.322        0.209      337.553        9.602      866.342
01/13/2022  10:56:00      -86.337       -5.378       -4.682      100.253       65.691       52.387    10050.724     4315.286     2744.429        1.230        0.856       86.505       57.386        0.440      337.627        9.728      866.376
01/13/2022  10:57:00       19.135       29.140       -7.226       67.178       29.094       18.984     4512.829      846.450      360.409        0.349        0.286       34.861       10.578        0.092      337.704        9.857      866.172
01/13/2022  10:58:00       19.743        7.717       -9.805       57.890       29.789       28.418     3351.252      887.374      807.595        0.279        0.252       21.197       33.453        2.491      337.876       10.146      865.941
01/13/2022  10:59:00      -74.694       22.394      -18.385       52.353       40.688       23.215     2740.852     1655.495      538.920        0.568        0.247       77.979       15.567        0.040      337.804       10.027      866.089
01/13/2022  11:00:00       23.254       -9.329      -20.573       62.150       50.302       26.317     3862.668     2530.320      692.593        0.407        0.354       25.055       27.795        1.231      337.863       10.125      866.209
01/13/2022  11:01:00       42.336      -57.212      -47.846       67.548       77.540       36.555     4562.729     6012.459     1336.263        0.963        0.596       71.173       15.500        0.047      337.697        9.846      866.129
01/13/2022  11:02:00       25.462      -93.992      -32.750       39.173       47.943       29.445     1534.539     2298.504      867.005        0.763        0.235       97.379       16.493        0.029      337.834       10.076      866.167
01/13/2022  11:03:00        5.747       -9.866       -8.936       29.780       43.683       21.382      886.833     1908.168      457.195        0.173        0.163       11.418       19.658        2.964      338.136       10.582      866.163
01/13/2022  11:04:00      -15.944      -13.441       -4.497       42.503       26.679       26.238     1806.537      711.771      688.449        0.183        0.160       20.853       16.669        0.639      338.033       10.410      866.288
01/13/2022  11:05:00       63.772      -52.644      -24.688       42.058       57.111       29.886     1768.890     3261.671      893.191        0.668        0.296       82.694       31.855        0.148      338.154       10.612      866.306
01/13/2022  11:06:00      125.499      -91.833      -31.528       64.094       73.454       51.447     4108.063     5395.560     2646.793        1.866        0.608      155.510       45.526        0.086      338.037       10.416      866.178
01/13/2022  11:07:00       59.933     -104.763      -27.401       52.072       86.248       34.287     2711.545     7438.709     1175.605        1.332        0.566      120.695       37.829        0.098      337.963       10.291      866.113
01/13/2022  11:08:00       37.183       38.626        3.345       48.073       23.784       18.907     2311.047      565.656      357.468        0.306        0.162       53.614       18.446        0.118      338.051       10.440      866.187
01/13/2022  11:09:00       49.266       11.621      -33.964       42.861       41.989       23.091     1837.053     1763.052      533.177        0.392        0.207       50.617       13.684        0.073      337.989       10.337      866.184
01/13/2022  11:10:00       43.852     -107.843      -18.951       50.692       46.317       32.107     2569.683     2145.257     1030.881        0.983        0.287      116.418       30.688        0.069      337.897       10.182      866.254
01/13/2022  11:11:00      -17.702      -32.584      -14.614       27.866       25.924       18.411      776.527      672.076      338.968        0.169        0.089       37.082        6.490        0.031      338.109       10.537      866.359
01/13/2022  11:12:00       39.892      -30.470      -14.466       31.304       49.333       26.958      979.967     2433.790      726.733        0.343        0.207       50.198       25.708        0.262      338.169       10.638      866.279
01/13/2022  11:13:00       25.955        5.220        1.352       40.437       39.996       32.143     1635.170     1599.696     1033.190        0.248        0.213       26.474       22.289        0.709      338.102       10.525      866.195
01/13/2022  11:14:00       81.699       28.553      -20.505       42.822       29.754       14.180     1833.719      885.274      201.078        0.541        0.146       86.545        5.763        0.004      338.091       10.506      866.252
01/13/2022  11:15:00       99.825       18.334      -31.563       58.242       41.685       29.180     3392.119     1737.611      851.449        0.864        0.299      101.494       26.980        0.071      338.167       10.634      866.176
01/13/2022  11:16:00      132.006       42.180      -19.452       77.651       44.882       37.217     6029.746     2014.387     1385.079        1.450        0.471      138.581       22.130        0.026      338.153       10.610      866.134
01/13/2022  11:17:00      134.365       51.824      -13.549       30.995       41.928       23.912      960.684     1757.937      571.772        1.211        0.165      144.013        9.142        0.004      338.155       10.613      866.188
01/13/2022  11:18:00      -11.444       27.925      -21.904       74.069       23.327       16.333     5486.224      544.169      266.777        0.384        0.315       30.179       12.604        0.174      338.223       10.730      866.237
01/13/2022  11:19:00      -25.437       -8.805        2.172       58.633       42.836       31.993     3437.821     1834.918     1023.532        0.351        0.315       26.918       25.408        0.891      338.258       10.787      866.185
01/13/2022  11:20:00      -94.861       31.463      -22.203       41.108       36.993       30.305     1689.832     1368.472      918.411        0.723        0.199       99.942       13.507        0.018      338.341       10.926      866.159
01/13/2022  11:21:00      -80.167        0.367      -12.196       71.852       38.920       28.671     5162.700     1514.797      822.028        0.704        0.375       80.168       24.756        0.095      338.386       11.003      866.178
01/13/2022  11:22:00      -76.540      -16.199       -4.855       78.373       43.651       47.166     6142.376     1905.367     2224.627        0.821        0.514       78.235       43.292        0.306      338.455       11.118      866.269
01/13/2022  11:23:00     -108.822      -26.138       -6.548       66.462       53.926       35.208     4417.148     2908.006     1239.601        1.056        0.428      111.917       36.244        0.105      338.478       11.156      866.260
01/13/2022  11:24:00     -127.211     -111.874      -13.119       30.676       31.330       26.917      940.994      981.545      724.536        1.576        0.132      169.406       12.604        0.006      338.568       11.307      866.173
01/13/2022  11:25:00      -18.448       -9.759      -17.784       31.658       34.535       17.376     1002.239     1192.636      301.930        0.162        0.125       20.870        9.658        0.214      338.713       11.551      866.166
01/13/2022  11:26:00      -23.435       27.328       -1.500       26.697       22.888       21.479      712.755      523.863      461.340        0.150        0.085       36.001       17.451        0.235      338.769       11.647      866.099
01/13/2022  11:27:00      -19.989       19.293       -4.725       22.639       19.845       15.166      512.542      393.841      230.021        0.097        0.057       27.781        8.602        0.096      338.740       11.597      866.055
01/13/2022  11:28:00      -78.696      -11.518      -14.786       41.065       28.386       28.654     1686.313      805.784      821.073        0.493        0.166       79.534       25.455        0.102      338.745       11.606      866.100
01/13/2022  11:29:00      -31.244      -13.597      -10.756       33.337       20.265       16.805     1111.341      410.666      282.396        0.154        0.090       34.075       16.753        0.242      339.072       12.155      866.088
01/13/2022  11:30:00       47.657      -42.749      -11.080       45.752       41.699       26.320     2093.225     1738.819      692.759        0.437        0.226       64.021       19.039        0.088      338.516       11.220      866.036
01/13/2022  11:31:00       12.222      -50.026      -16.766       30.523       41.806       31.594      931.637     1747.771      998.191        0.330        0.184       51.498       20.351        0.156      338.548       11.274      866.054
01/13/2022  11:32:00     -111.545      -78.432      -24.431      124.828      100.858       43.145    15582.084    10172.297     1861.500        2.340        1.381      136.359       54.865        0.162      338.826       11.739      866.216
01/13/2022  11:33:00     -168.942     -138.137      -16.828       95.957       96.367       46.964     9207.654     9286.675     2205.605        3.430        1.035      218.227       53.899        0.061      338.851       11.780      866.165
01/13/2022  11:34:00       41.346      -18.386       -8.252       59.849       44.323       34.080     3581.885     1964.532     1161.452        0.441        0.335       45.249       35.023        0.599      338.846       11.775      865.977
01/13/2022  11:35:00       34.066      -15.822      -11.199       27.289       43.926       22.253      744.712     1929.535      495.195        0.235        0.158       37.561       17.716        0.222      338.639       11.427      865.959
01/13/2022  11:36:00      114.333       33.762      -16.402       79.713       35.872       21.501     6354.190     1286.835      462.298        1.129        0.405      119.213       15.762        0.017      338.929       11.914      866.013
01/13/2022  11:37:00      136.207       41.763      -13.429       68.897       55.475       33.530     4746.775     3077.429     1124.278        1.471        0.447      142.466       33.337        0.055      339.142       12.271      866.048
01/13/2022  11:38:00      148.354       39.121      -24.449       50.010       68.183       31.847     2500.977     4648.902     1014.223        1.615        0.408      153.426       19.356        0.016      339.227       12.416      866.018
01/13/2022  11:39:00      168.513       74.986      -19.490       41.979       35.763       22.266     1762.202     1279.020      495.791        1.897        0.177      184.444       14.013        0.006      339.152       12.286      866.002
01/13/2022  11:40:00       75.448       91.133      -18.192       47.305       34.802       24.740     2237.766     1211.189      612.061        0.919        0.203      118.311       20.630        0.030      339.244       12.444      866.006
01/13/2022  11:41:00       80.604      116.356      -22.938       43.366       36.726       23.969     1880.585     1348.784      574.506        1.218        0.190      141.548       19.044        0.018      339.259       12.469      866.032
01/13/2022  11:42:00       81.436       63.161      -11.915       36.439       41.949       25.940     1327.771     1759.752      672.901        0.726        0.188      103.059        6.806        0.004      339.205       12.380      866.039
01/13/2022  11:43:00       42.775       -1.865      -17.878       37.857       45.157       19.011     1433.145     2039.114      361.406        0.299        0.192       42.816       20.771        0.235      339.087       12.180      866.043
01/13/2022  11:44:00       20.273      -35.751      -19.230       36.601       41.146       27.470     1339.622     1693.006      754.608        0.292        0.189       41.100       23.110        0.316      338.954       11.957      866.091
01/13/2022  11:45:00       80.036     -158.080      -34.788       34.128       57.611       25.173     1164.741     3319.070      633.677        1.886        0.256      177.187       24.298        0.019      339.201       12.372      866.102
01/13/2022  11:46:00       67.797     -123.894      -19.074       53.053       60.857       43.593     2814.625     3703.538     1900.350        1.436        0.421      141.231       43.802        0.096      339.302       12.543      866.039
01/13/2022  11:47:00       11.357       -5.444      -14.946       44.890       41.209       24.763     2015.146     1698.197      613.230        0.235        0.216       12.595       19.318        2.353      339.152       12.290      865.956
01/13/2022  11:48:00        6.087       -1.485       -4.077       42.228       55.279       33.301     1783.206     3055.801     1108.940        0.300        0.297        6.265       24.077       14.768      339.018       12.063      865.895
01/13/2022  11:49:00      -48.001       45.371       -7.837       37.101       29.373       20.760     1376.497      862.762      430.994        0.355        0.134       66.050        8.201        0.015      339.359       12.638      865.916
01/13/2022  11:50:00      -92.490       -4.804      -22.739       54.714       43.919       25.115     2993.620     1928.853      630.787        0.732        0.278       92.614       18.610        0.040      339.107       12.214      865.946
01/13/2022  11:51:00     -148.247       45.570      -35.330       91.378       60.612       38.728     8349.920     3673.777     1499.866        1.941        0.676      155.093       41.647        0.072      339.266       12.480      866.014
01/13/2022  11:52:00     -113.877       47.683      -27.818       85.915       55.835       38.365     7381.318     3117.569     1471.877        1.399        0.599      123.457       31.430        0.065      339.490       12.858      866.050
01/13/2022  11:53:00       71.730       29.127      -13.160       56.760       61.231       49.717     3221.674     3749.253     2471.750        0.780        0.472       77.418       14.907        0.037      339.373       12.661      865.898
01/13/2022  11:54:00       30.762        3.159      -25.676       68.402       46.747       37.086     4678.839     2185.256     1375.370        0.493        0.412       30.924       32.909        1.133      339.596       13.038      865.825
01/13/2022  11:55:00      -37.060       66.040       -8.067       38.018       33.707       19.302     1445.404     1136.162      372.579        0.438        0.148       75.728        8.111        0.011      339.699       13.211      865.942
01/13/2022  11:56:00       11.401       89.476      -12.639       29.923       20.593       16.827      895.384      424.056      283.155        0.495        0.080       90.200       14.630        0.026      339.657       13.140      865.970
01/13/2022  11:57:00       60.344       48.157      -17.076       30.139       17.862       13.947      908.370      319.059      194.520        0.384        0.071       77.204       10.232        0.018      339.622       13.081      865.892
01/13/2022  11:58:00      -45.216       23.577      -16.339       16.916       25.081       16.298      286.167      629.071      265.636        0.202        0.059       50.994       12.558        0.061      339.676       13.172      865.939
01/13/2022  11:59:00       56.830       24.942      -32.299       85.664       45.216       22.937     7338.352     2044.457      526.106        0.740        0.495       62.062       15.585        0.063      339.379       12.672      865.892
01/13/2022  12:00:00       18.436      -48.332      -28.293       45.814       77.881       28.015     2098.943     6065.464      784.840        0.621        0.447       51.729       23.637        0.209      339.365       12.648      865.849
01/13/2022  12:01:00       95.810      -88.100      -33.063       63.001       62.498       31.807     3969.126     3906.054     1011.666        1.346        0.444      130.158       37.295        0.082      339.787       13.359      865.801
01/13/2022  12:02:00       73.554      -41.572      -46.571      128.475      107.707       74.799    16505.931    11600.818     5594.952        2.150        1.685       84.489       67.498        0.638      339.551       12.960      865.580
01/13/2022  12:03:00     -207.777       61.808      -18.668      138.860       75.548       55.539    19281.971     5707.483     3084.622        3.770        1.404      216.775       46.311        0.046      340.048       13.798      865.617
01/13/2022  12:04:00     -466.765        8.485      -33.498      227.848      147.520       88.884    51914.794    21762.025     7900.303       15.031        4.079      466.842       72.488        0.024      340.029       13.764      865.596
01/13/2022  12:05:00     -140.062       42.304       11.436      113.878       79.842       77.963    12968.261     6374.810     6078.211        2.347        1.271      146.311       58.195        0.158      340.026       13.760      865.558
01/13/2022  12:06:00     -270.229      -58.011      -29.395      126.305      146.009       69.597    15952.898    21318.516     4843.715        5.968        2.106      276.386       63.948        0.054      339.680       13.176      865.558
01/13/2022  12:07:00     -134.040      -56.375      -28.699      143.544      117.105       75.508    20604.951    13713.472     5701.530        3.099        2.001      145.413       74.556        0.263      339.722       13.248      865.570
01/13/2022  12:08:00        3.042     -127.522      -45.125      101.019       86.175       41.348    10204.790     7426.157     1709.635        1.882        0.967      127.558       29.382        0.053      339.886       13.526      865.551
01/13/2022  12:09:00      -64.043      -71.503      -11.642       80.016      113.038       48.598     6402.549    12777.672     2361.761        1.544        1.077       95.991       36.792        0.147      340.007       13.728      865.590
01/13/2022  12:10:00     -256.609      -57.718      -21.979      179.329      105.981       76.958    32158.785    11231.973     5922.492        5.948        2.466      263.020       76.073        0.084      340.117       13.914      865.566
01/13/2022  12:11:00     -142.982      -17.167      -33.426      162.178      112.271       56.143    26301.731    12604.725     3152.030        3.195        2.103      144.009       37.001        0.066      340.074       13.839      865.529
01/13/2022  12:12:00       30.585     -110.775      -42.925      129.053      165.055       62.477    16654.607    27243.311     3903.415        3.142        2.390      114.919       80.808        0.494      340.151       13.970      865.556
01/13/2022  12:13:00     -105.958        3.330        0.448      144.287      123.986       80.037    20818.812    15372.540     6405.990        2.691        2.130      106.010       63.197        0.355      340.173       14.010      865.603
01/13/2022  12:14:00     -135.897      -64.370      -38.624      180.784      101.377       84.690    32682.790    10277.203     7172.472        3.711        2.507      150.371       84.444        0.315      340.235       14.115      865.617
01/13/2022  12:15:00     -285.434       62.622      -20.467      207.247      133.945       76.915    42951.180    17941.306     5915.956        7.630        3.340      292.223       76.514        0.069      340.383       14.362      865.544
01/13/2022  12:16:00     -219.329       25.737       -1.538      119.341       92.096       66.380    14242.203     8481.652     4406.328        3.795        1.357      220.834       49.571        0.050      340.295       14.213      865.583
01/13/2022  12:17:00     -120.083       -1.107       -7.531       82.959       46.956       37.966     6882.166     2204.878     1441.447        1.250        0.526      120.088       27.448        0.052      340.434       14.451      865.562
01/13/2022  12:18:00       -0.409        1.317       -7.595       51.896       73.099       35.344     2693.206     5343.461     1249.198        0.467        0.464        1.379       20.891      229.512      340.528       14.610      865.506
01/13/2022  12:19:00     -270.861       35.663      -15.722      214.267      161.214       74.328    45910.267    25989.972     5524.711        7.614        3.871      273.199       59.194        0.047      340.531       14.615      865.489
01/13/2022  12:20:00     -202.646       44.349       -7.362      135.133      122.220       73.001    18260.880    14937.778     5329.157        4.080        1.926      207.443       54.103        0.068      340.630       14.780      865.429
01/13/2022  12:21:00     -241.208      -96.271      -21.136      157.148      128.300       82.011    24695.487    16460.764     6725.856        5.788        2.394      259.710       75.547        0.085      340.494       14.550      865.444
01/13/2022  12:22:00     -252.430      -34.757       -1.456      273.325      119.852       96.209    74706.460    14364.386     9256.161        8.161        4.916      254.812       98.407        0.149      340.427       14.439      865.462
01/13/2022  12:23:00      -98.321       15.744      -16.741       74.304      116.410       47.731     5521.011    13551.224     2278.276        1.577        1.068       99.574       35.019        0.124      340.287       14.203      865.503
01/13/2022  12:24:00     -222.200      113.504        0.639      172.625      131.045       68.158    29799.257    17172.719     4645.566        5.693        2.581      249.512       53.151        0.045      340.526       14.604      865.485
01/13/2022  12:25:00     -416.393     -184.522      -36.205      222.556      216.803      106.658    49531.182    47003.625    11376.012       15.831        5.396      455.446      110.853        0.059      340.498       14.557      865.399
01/13/2022  12:26:00     -364.138       57.764      -24.167      314.289      182.626      126.031    98777.459    33352.367    15883.699       14.224        7.401      368.691      127.115        0.119      340.527       14.605      865.292
01/13/2022  12:27:00     -613.485        2.299      -11.032      372.173      225.933      120.014   138512.794    51045.874    14403.262       29.019       10.198      613.490      119.899        0.038      340.514       14.584      865.207
01/13/2022  12:28:00     -551.657       49.008       -5.550      305.039      250.326      147.778    93048.747    62663.232    21838.223       24.212        8.878      553.829      132.327        0.057      340.517       14.589      865.177
01/13/2022  12:29:00     -263.550       51.977       -6.808      207.864      143.224       95.273    43207.614    20513.127     9076.883        7.249        3.640      268.627       85.471        0.101      340.599       14.728      865.248
01/13/2022  12:30:00     -287.229      -11.480      -23.165      151.325      167.057       86.747    22899.167    27908.111     7525.063        7.074        2.917      287.458       71.410        0.062      340.588       14.709      865.199
01/13/2022  12:31:00     -398.142      -45.897      -26.196      245.355      125.702      100.199    60198.894    15800.972    10039.914       12.366        4.302      400.779       79.941        0.040      340.521       14.596      865.241
01/13/2022  12:32:00     -235.096      -51.430      -24.549      168.390      131.928       85.770    28355.219    17405.078     7356.410        5.581        2.656      240.655       85.771        0.127      340.576       14.688      865.311
01/13/2022  12:33:00     -212.609     -101.691      -33.812      137.730      129.724       69.620    18969.596    16828.296     4846.929        4.866        2.032      235.677       67.978        0.083      340.582       14.698      865.307
01/13/2022  12:34:00     -214.301      -69.226      -15.693      144.340      121.132       79.403    20834.167    14673.080     6304.887        4.638        2.091      225.204       66.529        0.087      340.647       14.809      865.374
01/13/2022  12:35:00     -323.837      -65.599      -52.528      174.050      175.245       87.701    30293.415    30710.983     7691.511        9.030        3.435      330.414       59.982        0.033      340.586       14.705      865.368
01/13/2022  12:36:00     -376.871     -256.219      -54.427      141.754      201.967       74.249    20094.227    40790.803     5512.938       13.851        3.320      455.719       68.771        0.023      340.531       14.613      865.327
01/13/2022  12:37:00     -327.512     -253.408      -36.552      136.630      227.942       72.430    18667.813    51957.358     5246.134       12.433        3.794      414.101       62.084        0.022      340.511       14.578      865.288
01/13/2022  12:38:00     -305.608      -80.358      -31.917      179.333      143.348       80.857    32160.294    20548.643     6537.824        8.005        2.962      315.996       65.610        0.043      340.579       14.694      865.312
01/13/2022  12:39:00     -312.263     -131.922      -37.657      167.941      152.503      105.422    28204.192    23257.055    11113.707        8.944        3.129      338.986       94.094        0.077      340.586       14.705      865.307
01/13/2022  12:40:00     -305.494     -181.277      -38.295      157.646      209.397       81.084    24852.106    43847.089     6574.614       10.145        3.764      355.229       91.688        0.067      340.606       14.738      865.352
01/13/2022  12:41:00     -338.572     -114.047      -45.223      217.444      120.204       97.879    47282.034    14449.039     9580.339       10.048        3.566      357.264      103.441        0.084      340.614       14.753      865.392
01/13/2022  12:42:00     -224.234       42.076      -35.383      107.733      207.065       65.149    11606.317    42875.988     4244.441        5.600        2.936      228.147       52.713        0.053      340.598       14.725      865.352
01/13/2022  12:43:00     -191.029       39.932       20.124      123.747      181.302       63.049    15313.364    32870.299     3975.178        4.532        2.608      195.158       50.056        0.066      340.757       14.996      865.332
01/13/2022  12:44:00     -283.036      -12.205      -25.617      168.354      134.171       89.588    28342.992    18001.961     8025.945        6.763        2.719      283.299       72.959        0.066      340.624       14.769      865.336
01/13/2022  12:45:00     -252.615      -17.981       -8.128      172.558      148.479       91.140    29776.138    22046.116     8306.578        6.216        3.006      253.254       81.610        0.104      340.639       14.795      865.312
01/13/2022  12:46:00     -287.214      -59.850      -26.212      132.932      111.784       73.234    17671.048    12495.710     5363.162        6.114        1.776      293.384       57.889        0.039      340.647       14.808      865.358
01/13/2022  12:47:00     -289.986       73.734       -4.453      147.953      167.701       84.436    21890.025    28123.651     7129.520        7.334        2.857      299.213       62.778        0.044      340.747       14.977      865.388
01/13/2022  12:48:00     -322.593      -30.372      -26.371      126.913      118.530       64.072    16107.028    14049.285     4105.242        6.997        1.713      324.020       51.634        0.025      340.643       14.801      865.407
01/13/2022  12:49:00     -146.352      -55.290       -2.667      140.205      167.188       73.105    19657.328    27951.849     5344.384        3.871        2.648      156.448       63.850        0.167      340.684       14.874      865.377
01/13/2022  12:50:00     -319.090      -52.374      -29.877      198.821      164.590       91.012    39529.614    27089.918     8283.191        9.016        3.745      323.359       80.423        0.062      340.686       14.875      865.340
01/13/2022  12:51:00     -410.411      -44.088      -38.744      132.454      109.162       74.271    17543.950    11916.395     5516.128       10.342        1.749      412.773       49.721        0.015      340.635       14.787      865.310
01/13/2022  12:52:00     -319.698      -26.191      -30.173      137.071       95.216       67.609    18788.418     9066.113     4570.977        6.811        1.621      320.769       68.970        0.046      340.705       14.906      865.295
01/13/2022  12:53:00     -414.505      -91.445      -48.813      250.799      167.050      102.517    62899.970    27905.654    10509.802       14.192        5.066      424.472      102.440        0.058      340.620       14.763      865.234
01/13/2022  12:54:00     -402.062       -7.174      -18.298      298.398      155.554      120.628    89041.597    24197.169    14551.042       14.489        6.389      402.126      134.972        0.113      340.600       14.730      865.236
01/13/2022  12:55:00     -292.061      -42.071      -11.508      243.723      161.216      106.651    59400.888    25990.607    11374.454        9.197        4.838      295.076       97.667        0.110      340.618       14.760      865.210
01/13/2022  12:56:00     -466.580       29.823      -22.696      247.263      134.966      102.296    61139.136    18215.839    10464.404       15.444        4.491      467.532       94.094        0.041      340.590       14.711      865.218
01/13/2022  12:57:00     -429.956      -77.510      -39.081      238.865      162.600      115.272    57056.286    26438.917    13287.546       14.457        4.839      436.887      109.763        0.063      340.558       14.657      865.190
01/13/2022  12:58:00     -610.125     -118.571      -59.682      220.725      210.237      105.205    48719.435    44199.619    11068.134       24.691        5.199      621.539       75.509        0.015      340.504       14.566      865.206
01/13/2022  12:59:00     -454.487     -158.226      -33.440      196.398      207.248      102.712    38572.188    42951.684    10549.847       16.238        4.604      481.242       98.311        0.042      340.506       14.569      865.235
01/13/2022  13:00:00     -371.795      -37.247      -37.817      234.370      181.439      101.557    54929.136    32920.270    10313.734       11.959        4.908      373.656      112.278        0.090      340.574       14.683      865.247
01/13/2022  13:01:00     -321.642     -167.193      -44.208      129.274      182.992       86.229    16711.678    33486.149     7435.526        9.549        2.882      362.501       71.285        0.039      340.588       14.709      865.270
01/13/2022  13:02:00     -262.642       24.657      -33.697      164.226      127.676       75.055    26970.134    16301.128     5633.243        5.981        2.445      263.797       68.879        0.068      340.658       14.827      865.348
01/13/2022  13:03:00     -471.729      -24.263      -35.552      194.669      156.956       76.344    37895.860    24635.149     5828.393       14.636        3.418      472.352       51.879        0.012      340.575       14.688      865.316
01/13/2022  13:04:00     -475.687      -16.094      -33.788      208.428      192.847       97.060    43442.431    37190.110     9420.703       15.885        4.503      475.959       95.399        0.040      340.545       14.635      865.332
01/13/2022  13:05:00     -377.674       73.625      -18.505      196.359      170.034      102.509    38557.017    28911.540    10508.040       11.317        3.899      384.783       94.466        0.060      340.624       14.770      865.377
01/13/2022  13:06:00     -348.611      -20.689      -18.073      263.834      158.722      107.795    69608.438    25192.685    11619.656       11.433        5.321      349.225       97.421        0.078      340.628       14.776      865.292
01/13/2022  13:07:00     -318.910      -83.999      -39.735      198.768      166.438       82.123    39508.569    27701.608     6744.242        9.213        3.698      329.787       72.350        0.048      340.566       14.671      865.283
01/13/2022  13:08:00     -520.268     -126.388      -41.327      268.277      217.343      104.934    71972.373    47237.808    11011.223       20.927        6.511      535.400       69.487        0.017      340.540       14.628      865.231
01/13/2022  13:09:00     -553.946     -208.885      -75.313      287.021      216.062      100.222    82380.835    46682.694    10044.426       24.761        6.955      592.022      127.096        0.046      340.533       14.615      865.201
01/13/2022  13:10:00     -345.869      -40.414      -14.688      214.268      195.073       99.530    45910.929    38053.651     9906.293       10.766        4.694      348.222       94.192        0.073      340.620       14.762      865.278
01/13/2022  13:11:00     -448.055      127.080      -17.908      207.906      159.199      104.359    43224.971    25344.413    10890.885       14.833        3.973      465.728      103.671        0.050      340.623       14.769      865.289
01/13/2022  13:12:00     -239.059       41.489      -19.813      143.905      147.499       90.304    20708.525    21756.056     8154.861        5.493        2.531      242.633       73.070        0.091      340.731       14.949      865.273
01/13/2022  13:13:00     -102.009       83.635       13.466      133.581      117.633       80.411    17843.779    13837.512     6465.925        2.786        1.907      131.912       69.998        0.282      340.830       15.120      865.308
01/13/2022  13:14:00     -217.562       44.372       -1.832      155.180      112.802       73.427    24080.770    12724.218     5391.466        4.574        2.110      222.041       65.123        0.086      340.772       15.020      865.295
01/13/2022  13:15:00     -114.331       32.945       -8.028       77.265      139.581       52.561     5969.918    19482.809     2762.699        2.121        1.411      118.983       35.886        0.091      340.797       15.065      865.328
01/13/2022  13:16:00     -160.008      -14.062       -4.670      117.089      135.921       64.343    13709.811    18474.489     4139.975        3.107        1.816      160.624       40.890        0.065      340.750       14.985      865.340
01/13/2022  13:17:00     -319.682        8.470       10.469      248.607      148.243      102.837    61805.277    21975.911    10575.490        9.835        4.718      319.794       94.669        0.088      340.711       14.917      865.319
01/13/2022  13:18:00     -410.640       -4.219      -36.104      242.739      147.237      114.038    58922.133    21678.698    13004.777       13.176        4.680      410.662      118.064        0.083      340.544       14.634      865.306
01/13/2022  13:19:00     -318.134     -117.048      -21.495      167.891      295.406       83.528    28187.312    87264.772     6976.921       11.888        6.121      338.983       97.181        0.082      340.619       14.761      865.325
01/13/2022  13:20:00     -219.823      -24.229       -2.907      242.849      166.273      119.487    58975.720    27646.684    14277.172        7.489        5.045      221.154      108.931        0.243      340.589       14.711      865.312
01/13/2022  13:21:00     -373.536       19.177       -8.637      272.347      165.602      112.236    74173.005    27423.983    12596.992       12.706        5.710      374.028      105.787        0.080      340.650       14.813      865.347
01/13/2022  13:22:00     -440.051      -14.261      -24.302      303.638      195.202      118.743    92195.885    38103.878    14100.013       16.939        7.220      440.282      130.938        0.088      340.495       14.552      865.339
01/13/2022  13:23:00     -456.903        6.075      -33.268      232.533      155.261      100.787    54071.555    24105.837    10157.972       14.910        4.417      456.943       94.179        0.042      340.563       14.667      865.391
01/13/2022  13:24:00     -366.454        7.303      -48.395      181.419      111.945       62.255    32912.948    12531.658     3875.656        9.299        2.466      366.527       68.006        0.034      340.594       14.717      865.435
01/13/2022  13:25:00     -233.854       32.080        5.914      230.055      135.130       92.329    52925.218    18260.199     8524.581        6.772        3.985      236.045       68.892        0.085      340.697       14.895      865.402
01/13/2022  13:26:00     -340.900       13.762      -20.270      287.082      164.807      111.595    82416.226    27161.512    12453.517       11.940        6.102      341.177      131.625        0.149      340.572       14.681      865.368
01/13/2022  13:27:00     -470.079      103.087      -17.936      220.361      154.616       97.812    48558.804    23906.117     9567.116       15.696        4.102      481.250       78.769        0.027      340.485       14.536      865.371
01/13/2022  13:28:00     -199.183       49.252       11.497      202.162      132.328       86.102    40869.439    17510.580     7413.589        5.400        3.290      205.182       71.548        0.122      340.692       14.885      865.373
01/13/2022  13:29:00     -140.783      -31.005      -34.291      129.359      120.803       74.364    16733.642    14593.335     5529.974        2.940        1.843      144.157       55.479        0.148      340.644       14.806      865.443
01/13/2022  13:30:00     -137.829      -28.805       -1.750       82.248      147.790       56.552     6764.813    21841.791     3198.123        2.581        1.590      140.807       44.953        0.102      340.719       14.932      865.500
01/13/2022  13:31:00     -204.187       92.792       -8.127      156.239      126.910       67.244    24410.590    16106.195     4521.717        4.770        2.252      224.283       60.133        0.072      340.778       15.031      865.485
01/13/2022  13:32:00     -325.721       29.279      -17.916      202.366      158.594       95.240    40952.047    25152.016     9070.649        9.121        3.759      327.035       76.064        0.054      340.597       14.725      865.450
01/13/2022  13:33:00     -376.559       39.751      -26.719      254.432      180.545      114.549    64735.623    32596.555    13121.452       12.725        5.523      378.652      131.308        0.120      340.550       14.645      865.462
01/13/2022  13:34:00     -203.099     -106.390      -29.353      113.719      134.780       60.550    12932.006    18165.750     3666.344        4.409        1.738      229.277       22.069        0.009      340.515       14.586      865.441
01/13/2022  13:35:00     -137.380      -81.648      -31.283      169.203      112.612       55.104    28629.614    12681.433     3036.433        3.542        2.217      159.811       60.981        0.146      340.628       14.777      865.378
01/13/2022  13:36:00     -301.765       35.855      -17.347      188.809      120.966       67.323    35648.684    14632.791     4532.347        7.372        2.741      303.888       78.887        0.067      340.679       14.863      865.378
01/13/2022  13:37:00     -338.298      -17.281      -29.846      204.442      141.533       96.745    41796.649    20031.701     9359.690        9.340        3.559      338.739       87.150        0.066      340.581       14.698      865.356
01/13/2022  13:38:00     -188.013      -10.522      -12.798      116.029      101.805       64.929    13462.613    10364.287     4215.791        3.183        1.402      188.307       60.356        0.103      340.699       14.897      865.371
01/13/2022  13:39:00     -248.869       37.110       -7.993      123.624      120.882       66.435    15282.924    14612.450     4413.550        4.884        1.715      251.621       60.679        0.058      340.693       14.887      865.401
01/13/2022  13:40:00     -115.024     -101.893      -30.997      138.465       96.623       64.297    19172.451     9336.000     4134.168        2.860        1.632      153.664       35.396        0.053      340.683       14.871      865.378
01/13/2022  13:41:00     -283.158     -192.200      -61.078      125.961      142.362       66.130    15866.243    20267.033     4373.175        8.067        2.025      342.227       57.360        0.028      340.542       14.630      865.345
01/13/2022  13:42:00     -245.352      -99.729      -13.328      204.561      184.354      102.901    41845.356    33986.368    10588.707        7.835        4.321      264.846       91.014        0.118      340.556       14.655      865.372
01/13/2022  13:43:00     -225.674      -97.405      -30.603      105.656      193.593       66.264    11163.153    37478.227     4390.977        5.718        2.652      245.798       38.322        0.024      340.455       14.482      865.343
01/13/2022  13:44:00     -251.659       -7.284      -12.094      176.877      100.608       76.166    31285.461    10121.964     5801.242        5.536        2.360      251.765       75.899        0.091      340.537       14.622      865.334
01/13/2022  13:45:00     -121.976       50.220        0.087      121.608       73.704       62.985    14788.391     5432.350     3967.118        2.079        1.209      131.910       62.630        0.225      340.745       14.975      865.369
01/13/2022  13:46:00     -309.123       61.160       -3.381      197.516      125.404       70.187    39012.558    15726.179     4926.222        7.948        2.983      315.116       51.497        0.027      340.642       14.801      865.304
01/13/2022  13:47:00     -265.451      -49.178      -35.337      151.311       82.355       66.573    22894.883     6782.269     4431.999        5.411        1.705      269.968       67.102        0.062      340.493       14.548      865.314
01/13/2022  13:48:00     -122.651     -119.441      -28.716      104.234       67.455       41.968    10864.626     4550.182     1761.284        2.365        0.859      171.200       16.845        0.010      340.536       14.622      865.298
01/13/2022  13:49:00     -112.038      -29.829      -12.913      132.043       68.095       62.682    17435.331     4636.895     3929.028        1.980        1.300      115.940       59.607        0.264      340.709       14.917      865.286
01/13/2022  13:50:00     -354.201       15.400      -23.106      177.476      130.052       65.603    31497.758    16913.511     4303.713        8.946        2.636      354.535       48.718        0.019      340.541       14.630      865.285
01/13/2022  13:51:00     -304.750      -20.475      -33.356      142.229      157.764       95.102    20229.226    24889.424     9044.378        7.427        2.708      305.437       84.464        0.076      340.547       14.639      865.310
01/13/2022  13:52:00     -267.947      -74.061      -28.227      175.333      138.643       80.403    30741.821    19221.904     6464.647        6.724        2.821      277.994       77.753        0.078      340.514       14.586      865.307
01/13/2022  13:53:00     -367.759      -79.091      -43.971      168.322      162.143       79.282    28332.320    26290.233     6285.636       10.216        3.045      376.168       85.420        0.052      340.494       14.549      865.308
01/13/2022  13:54:00     -267.626     -133.415      -31.813      140.501      166.240       74.199    19740.445    27635.575     5505.502        7.165        2.644      299.037       58.202        0.038      340.490       14.542      865.324
01/13/2022  13:55:00     -346.305     -119.846      -44.316      160.042      133.281       84.030    25613.582    17763.804     7061.032        9.334        2.522      366.457       77.445        0.045      340.424       14.432      865.342
01/13/2022  13:56:00     -259.165      -31.715      -18.429      124.352       89.462       66.279    15463.458     8003.495     4392.890        4.818        1.393      261.099       66.839        0.066      340.484       14.533      865.359
01/13/2022  13:57:00     -257.174      -14.823      -33.059      189.107      150.150       71.796    35761.619    22544.889     5154.717        6.544        3.173      257.601       68.263        0.070      340.576       14.689      865.323
01/13/2022  13:58:00     -231.195       52.803       -1.813      176.333      117.267       80.494    31093.176    13751.503     6479.223        5.377        2.566      237.148       64.386        0.074      340.599       14.728      865.304
01/13/2022  13:59:00     -191.828       32.984       -0.974      101.357       76.346       53.976    10273.250     5828.684     2913.386        2.845        0.951      194.643       45.662        0.055      340.674       14.853      865.333
01/13/2022  14:00:00     -154.210     -101.762      -13.607      125.471      121.458       52.401    15742.999    14752.124     2745.889        3.377        1.662      184.759       60.747        0.108      340.524       14.602      865.323
01/13/2022  14:01:00     -226.143      -15.904      -23.812      180.918      165.800       92.470    32731.345    27489.588     8550.766        6.035        3.439      226.701       92.300        0.166      340.560       14.662      865.285
01/13/2022  14:02:00     -321.158       92.209       -0.503      221.489      159.968       88.153    49057.179    25589.766     7771.029        9.702        4.121      334.133       82.882        0.062      340.592       14.717      865.274
01/13/2022  14:03:00     -250.450      -69.532      -30.090       91.310      127.248       62.700     8337.431    16192.147     3931.256        4.846        1.423      259.923       45.252        0.030      340.512       14.581      865.278
01/13/2022  14:04:00     -295.469       82.113        3.614      172.229      131.256       76.565    29662.735    17228.147     5862.183        7.340        2.638      306.667       79.426        0.067      340.567       14.673      865.274
01/13/2022  14:05:00     -348.663      127.111      -13.056      186.875      119.049       87.585    34922.440    14172.635     7671.055        9.732        2.838      371.111       87.618        0.056      340.525       14.602      865.264
01/13/2022  14:06:00     -343.355        4.889      -41.653      154.712      121.862       76.098    23935.853    14850.395     5790.883        8.211        2.229      343.390       80.224        0.055      340.416       14.417      865.205
01/13/2022  14:07:00     -167.943      -36.657      -20.713       62.863       58.043       43.833     3951.724     3368.986     1921.338        1.961        0.462      171.897       34.926        0.041      340.451       14.480      865.218
01/13/2022  14:08:00      -80.272       23.865      -10.352       50.630       59.055       29.983     2563.364     3487.503      899.000        0.703        0.347       83.744       24.162        0.083      340.750       14.986      865.206
01/13/2022  14:09:00      -85.562      -39.550      -21.610       79.427       98.043       47.010     6308.698     9612.402     2209.982        1.374        0.907       94.260       30.363        0.104      340.695       14.891      865.179
01/13/2022  14:10:00      -76.215        2.756      -19.937       60.806       48.116       38.421     3697.415     2315.196     1476.203        0.685        0.374       76.264       22.842        0.090      340.701       14.903      865.136
01/13/2022  14:11:00     -140.072      -69.845      -11.121       88.863      125.212       50.380     7896.700    15678.078     2538.143        2.536        1.306      156.520       43.905        0.079      340.681       14.868      865.129
01/13/2022  14:12:00     -255.739       -6.049      -17.058      158.880       85.909       57.672    25242.778     7380.362     3326.117        5.083        1.797      255.810       68.872        0.072      340.515       14.586      865.124
01/13/2022  14:13:00     -319.631       16.110      -22.064      159.337       99.637       63.213    25388.215     9927.477     3995.906        7.110        1.966      320.037       56.874        0.032      340.505       14.568      865.099
01/13/2022  14:14:00     -223.078       22.288      -11.404       92.483       93.440       49.836     8553.053     8731.103     2483.624        3.508        0.988      224.189       40.501        0.033      340.529       14.609      865.084
01/13/2022  14:15:00      -35.576       -7.554       -5.869       85.319       78.633       36.075     7279.372     6183.117     1301.415        0.806        0.738       36.369       32.175        0.783      340.704       14.909      865.061
01/13/2022  14:16:00     -212.350      -76.364      -28.277      141.302      109.007       74.596    19966.278    11882.575     5564.613        4.456        1.871      225.664       64.928        0.083      340.512       14.581      865.037
01/13/2022  14:17:00     -150.968      -39.852      -16.388      110.366       92.308       56.633    12180.610     8520.804     3207.338        2.427        1.195      156.139       30.446        0.038      340.618       14.760      865.028
01/13/2022  14:18:00     -217.317      -40.006      -27.431      141.932       90.232       49.922    20144.793     8141.725     2492.170        4.017        1.539      220.968       51.742        0.055      340.634       14.787      865.094
01/13/2022  14:19:00      -96.859      124.325      -15.894       76.240       92.596       28.674     5812.572     8574.018      822.226        2.015        0.760      157.602       12.550        0.006      340.627       14.776      865.121
01/13/2022  14:20:00      -40.018      -27.769       -7.804       64.191       58.077       37.126     4120.481     3372.920     1378.355        0.565        0.444       48.709       43.221        0.787      340.735       14.960      865.127
01/13/2022  14:21:00     -232.213      -79.306      -49.368      103.105      103.321       66.335    10630.710    10675.257     4400.375        4.417        1.285      245.382       35.052        0.020      340.532       14.613      865.103
01/13/2022  14:22:00     -247.809       53.329      -21.245      126.786       92.071       67.202    16074.814     8477.154     4516.077        4.688        1.453      253.482       54.187        0.046      340.573       14.684      865.122
01/13/2022  14:23:00     -206.049       61.041      -22.458       75.823       75.030       39.141     5749.165     5629.433     1532.021        2.980        0.646      214.901       30.339        0.020      340.619       14.762      865.126
01/13/2022  14:24:00     -191.109      -59.248      -15.800       75.252      129.689       46.750     5662.847    16819.110     2185.607        3.247        1.233      200.083       38.696        0.037      340.617       14.759      865.120
01/13/2022  14:25:00     -264.322      -62.958      -31.647       98.006       90.301       51.148     9605.133     8154.246     2616.107        4.760        1.019      271.716       37.095        0.019      340.545       14.636      865.123
01/13/2022  14:26:00     -190.622       48.001       -7.892      128.620      112.762       55.929    16543.027    12715.277     3128.022        3.554        1.619      196.573       55.681        0.080      340.668       14.844      865.144
01/13/2022  14:27:00     -130.998       55.131      -39.965      156.395      107.952       85.487    24459.252    11653.595     7308.105        3.260        2.171      142.126       83.376        0.344      340.775       15.026      865.123
01/13/2022  14:28:00     -156.593       22.775      -11.085      154.067      104.477       73.419    23736.597    10915.505     5390.300        3.260        2.002      158.241       48.338        0.093      340.750       14.983      865.131
01/13/2022  14:29:00     -250.259       85.205       -7.741      157.106      113.369       71.618    24682.375    12852.576     5129.107        5.630        2.133      264.366       63.189        0.057      340.793       15.056      865.147
01/13/2022  14:30:00     -149.284      -33.526      -19.363      168.642       86.697       62.741    28440.046     7516.367     3936.380        3.183        1.995      153.002       68.363        0.200      340.751       14.986      865.153
01/13/2022  14:31:00     -122.503       -4.849        1.516       97.555       82.392       49.686     9516.957     6788.468     2468.733        1.690        0.939      122.599       48.825        0.159      340.761       15.002      865.191
01/13/2022  14:32:00     -192.879       33.702       -5.107      117.926       74.930       51.091    13906.614     5614.528     2610.302        3.024        1.107      195.802       49.038        0.063      340.708       14.913      865.189
01/13/2022  14:33:00     -107.760       -4.431       -6.940      103.806       74.702       59.275    10775.784     5580.432     3513.483        1.577        0.993      107.851       51.086        0.224      340.781       15.038      865.216
01/13/2022  14:34:00      -69.917       25.125        1.623       64.537       70.364       42.897     4165.079     4951.131     1840.175        0.824        0.548       74.294       33.537        0.204      340.839       15.138      865.237
01/13/2022  14:35:00      -95.782      -17.318      -18.011      104.662      133.099       53.897    10954.061    17715.291     2904.848        2.068        1.579       97.335       42.051        0.187      340.824       15.110      865.248
01/13/2022  14:36:00      -83.536     -154.698      -37.651       64.502       50.707       38.880     4160.519     2571.218     1511.637        2.028        0.412      175.811       27.518        0.024      340.495       14.553      865.170
01/13/2022  14:37:00     -100.868     -111.741      -49.430       73.370       77.514       42.329     5383.151     6008.476     1791.741        1.914        0.659      150.534       28.100        0.035      340.655       14.824      865.195
01/13/2022  14:38:00     -184.740     -197.292      -21.626       77.582      120.575       52.899     6018.941    14538.214     2798.280        4.843        1.168      270.283       47.700        0.031      340.534       14.615      865.248
01/13/2022  14:39:00     -157.085      -57.119       -8.450       92.842       89.936       65.395     8619.711     8088.484     4276.546        2.449        1.049      167.147       41.917        0.063      340.528       14.607      865.236
01/13/2022  14:40:00     -197.754       79.158      -16.976      143.488      108.776       71.370    20588.880    11832.252     5093.639        4.158        1.876      213.009       56.848        0.071      340.650       14.814      865.282
01/13/2022  14:41:00      -94.992       21.334      -25.055      117.511       70.193       53.529    13808.835     4927.125     2865.366        1.585        1.080       97.358       46.239        0.226      340.718       14.931      865.316
01/13/2022  14:42:00     -239.817      -55.390      -36.090      140.908      138.149       62.595    19854.987    19085.224     3918.084        5.236        2.143      246.131       60.860        0.061      340.639       14.796      865.363
01/13/2022  14:43:00     -161.598       -8.632      -25.118      127.925      199.319       67.942    16364.817    39727.925     4616.055        4.375        3.035      161.829       60.308        0.139      340.504       14.567      865.318
01/13/2022  14:44:00     -162.705       -8.621      -11.196      119.845      141.795       57.622    14362.750    20105.687     3320.344        3.222        1.889      162.933       49.652        0.093      340.613       14.752      865.317
01/13/2022  14:45:00     -177.157      -17.973      -14.088      106.569       94.805       65.188    11356.976     8987.942     4249.484        2.825        1.230      178.067       64.861        0.133      340.443       14.464      865.355
01/13/2022  14:46:00     -290.470       32.323        3.279      191.517      114.747       85.642    36678.912    13166.959     7334.601        7.129        2.859      292.263       89.159        0.093      340.450       14.475      865.350
01/13/2022  14:47:00     -249.352      -66.375      -32.534      161.538      137.768       68.964    26094.460    18979.930     4755.989        5.873        2.492      258.035       73.238        0.081      340.444       14.466      865.388
01/13/2022  14:48:00     -159.104       29.103        1.569      145.924      126.593       75.373    21293.897    16025.852     5681.138        3.457        2.150      161.744       73.011        0.204      340.519       14.592      865.392
01/13/2022  14:49:00     -119.577        2.114       -2.132      101.676      129.658       48.666    10337.972    16811.130     2368.427        2.191        1.476      119.596       49.527        0.171      340.543       14.634      865.388
01/13/2022  14:50:00     -226.925      -51.632       -6.840      152.286      114.424       74.646    23191.019    13092.883     5572.096        4.802        2.093      232.724       47.212        0.041      340.471       14.511      865.378
01/13/2022  14:51:00     -356.391        4.961       -6.665      177.411      121.245       90.878    31474.663    14700.446     8258.745        9.075        2.722      356.425       81.243        0.052      340.421       14.427      865.379
01/13/2022  14:52:00     -185.912      -41.222       -8.972       88.806      118.108       58.073     7886.580    13949.483     3372.451        3.077        1.260      190.428       52.559        0.076      340.436       14.453      865.377
01/13/2022  14:53:00     -166.138      -34.436       -6.182       86.282       93.633       55.226     7444.626     8767.115     3049.898        2.404        0.963      169.669       36.814        0.047      340.523       14.601      865.397
01/13/2022  14:54:00     -277.963      -34.119      -32.384      155.727      108.888       76.621    24251.019    11856.599     5870.707        6.072        2.099      280.049       63.889        0.052      340.448       14.472      865.393
01/13/2022  14:55:00     -238.093        8.683      -39.386      146.359       96.007       58.435    21420.890     9217.359     3414.678        4.618        1.703      238.251       34.146        0.021      340.406       14.402      865.401
01/13/2022  14:56:00     -351.718       71.606      -31.715      131.361       76.406       59.144    17255.744     5837.887     3498.012        7.821        1.330      358.933       53.982        0.023      340.372       14.344      865.381
01/13/2022  14:57:00      -51.103       17.135       -2.317       51.749       50.740       29.211     2677.929     2574.500      853.269        0.451        0.305       53.899       14.703        0.074      340.599       14.732      865.404
01/13/2022  14:58:00     -105.839        1.439       -0.141       73.674       66.636       38.426     5427.889     4440.327     1476.555        1.127        0.567      105.848       33.106        0.098      340.571       14.683      865.420
01/13/2022  14:59:00     -179.094     -129.377      -18.488      100.506       94.771       66.743    10101.471     8981.475     4454.660        3.634        1.177      220.936       58.407        0.070      340.436       14.453      865.431
01/13/2022  15:00:00     -177.864     -155.979      -31.361      100.905      117.452       57.906    10181.910    13794.864     3353.136        4.213        1.366      236.569       41.996        0.032      340.463       14.498      865.424
01/13/2022  15:01:00     -157.397      -39.166      -28.133       59.536      115.237       39.754     3544.593    13279.453     1580.349        2.275        0.920      162.196       24.615        0.023      340.524       14.601      865.410
01/13/2022  15:02:00     -292.996       12.095      -30.666      165.447       70.528       56.332    27372.851     4974.233     3173.245        6.122        1.776      293.246       67.041        0.052      340.490       14.545      865.434
01/13/2022  15:03:00     -195.271       51.106      -25.390       98.080       58.575       42.741     9619.761     3431.068     1826.818        2.813        0.744      201.848       32.569        0.026      340.499       14.558      865.434
01/13/2022  15:04:00      -62.633       10.229       -0.332       75.656       59.795       40.419     5723.903     3575.408     1633.731        0.748        0.547       63.463       36.363        0.328      340.732       14.956      865.428
01/13/2022  15:05:00     -130.392      -11.565       -7.305       88.293       48.518       39.098     7795.660     2353.981     1528.666        1.443        0.584      130.904       36.803        0.079      340.659       14.831      865.427
01/13/2022  15:06:00     -213.057      -41.644      -18.710       81.869       65.786       38.435     6702.516     4327.835     1477.277        2.999        0.625      217.089       30.442        0.020      340.585       14.704      865.421
01/13/2022  15:07:00     -216.417      -41.855      -18.368      105.966       68.291       43.153    11228.716     4663.683     1862.157        3.334        0.888      220.427       40.340        0.033      340.576       14.690      865.426
01/13/2022  15:08:00     -136.641       39.281      -14.962      120.832       78.438       63.181    14600.464     6152.450     3991.818        2.259        1.237      142.175       55.480        0.152      340.635       14.790      865.421
01/13/2022  15:09:00     -168.301       23.476       -2.826      108.319       78.037       56.465    11733.097     6089.746     3188.286        2.494        1.051      169.931       49.376        0.084      340.642       14.801      865.402
01/13/2022  15:10:00     -265.890      -27.424        0.130      172.725       89.425       73.954    29833.824     7996.776     5469.170        5.737        2.165      267.300       71.231        0.071      340.464       14.499      865.398
01/13/2022  15:11:00     -218.816       90.768       -5.235      124.727      103.889       66.754    15556.859    10792.876     4456.155        4.347        1.540      236.895       62.847        0.070      340.634       14.786      865.413
01/13/2022  15:12:00     -226.442      -40.144      -18.978      143.736       73.746       64.515    20660.051     5438.531     4162.137        4.175        1.513      229.973       69.528        0.091      340.490       14.544      865.398
01/13/2022  15:13:00     -137.527       35.384        7.042      130.248       90.382       73.041    16964.556     8168.857     5335.057        2.534        1.523      142.006       68.510        0.233      340.547       14.641      865.413
01/13/2022  15:14:00     -281.532      110.391       -3.347      176.422      129.229       69.930    31124.609    16700.148     4890.208        7.208        2.636      302.401       86.891        0.083      340.526       14.604      865.368
01/13/2022  15:15:00     -185.985        2.740       -7.898      115.518       85.523       59.930    13344.306     7314.251     3591.587        2.945        1.213      186.005       50.538        0.074      340.490       14.544      865.334
01/13/2022  15:16:00     -260.234       91.252      -16.778      140.194       86.161       64.293    19654.436     7423.675     4133.630        5.377        1.561      275.769       60.224        0.048      340.517       14.588      865.355
01/13/2022  15:17:00     -203.276       24.813      -21.214      247.045      113.005       80.312    61031.332    12770.035     6450.074        6.130        4.013      204.785       58.920        0.083      340.589       14.713      865.374
01/13/2022  15:18:00     -448.838       -9.894      -24.936      165.138      145.811       93.984    27270.529    21260.991     8832.980       12.976        2.868      448.947       76.652        0.029      340.371       14.342      865.389
01/13/2022  15:19:00     -348.139      -13.031      -24.437      204.537      121.954       91.969    41835.357    14872.735     8458.211        9.355        3.258      348.383       95.517        0.075      340.347       14.300      865.426
01/13/2022  15:20:00     -248.885       91.943       -4.343      100.374       98.614       62.896    10074.879     9724.759     3955.946        4.708        1.188      265.325       55.032        0.043      340.448       14.472      865.466
01/13/2022  15:21:00     -192.407       62.249        3.395      113.953      107.042       61.191    12985.317    11458.018     3744.399        3.454        1.409      202.226       66.924        0.110      340.537       14.624      865.476
01/13/2022  15:22:00     -299.405      102.254       -7.809      219.398      113.645       72.595    48135.263    12915.155     5269.999        8.323        3.316      316.385       78.963        0.062      340.444       14.464      865.500
01/13/2022  15:23:00     -265.981      -76.341      -34.184      169.672      103.647       67.577    28788.489    10742.626     4566.634        6.091        2.205      276.719       58.924        0.045      340.405       14.401      865.501
01/13/2022  15:24:00     -333.255      -39.137      -26.516      145.697      112.861       62.580    21227.614    12737.718     3916.312        7.558        1.894      335.545       66.684        0.039      340.279       14.188      865.470
01/13/2022  15:25:00     -170.936      -31.394      -13.345      139.733      102.005       71.571    19525.308    10404.960     5122.458        3.271        1.753      173.795       70.048        0.162      340.382       14.363      865.507
01/13/2022  15:26:00     -224.966        9.412       -5.624      157.522      102.613       70.416    24813.082    10529.421     4958.405        4.551        2.015      225.162       76.646        0.116      340.369       14.339      865.518
01/13/2022  15:27:00     -207.085       94.006      -17.663      176.171      106.537       85.905    31036.325    11350.177     7379.718        5.089        2.488      227.423       82.690        0.132      340.432       14.445      865.563
01/13/2022  15:28:00     -228.820       -4.946      -28.575      209.375      124.540       90.376    43837.891    15510.147     8167.891        6.035        3.376      228.874       82.078        0.129      340.300       14.222      865.555
01/13/2022  15:29:00     -200.702       28.299       -6.910      143.918      118.347       69.155    20712.476    14005.965     4782.450        4.031        1.975      202.687       73.524        0.132      340.384       14.365      865.577
01/13/2022  15:30:00     -353.189       84.835        7.165      226.716      133.057       88.530    51400.004    17704.274     7837.563       10.445        3.847      363.234      101.875        0.079      340.369       14.337      865.581
01/13/2022  15:31:00     -139.521        4.491      -14.825      270.426      117.998       99.510    73130.016    13923.446     9902.289        5.831        4.848      139.594       97.632        0.489      340.307       14.236      865.548
01/13/2022  15:32:00     -244.378       46.517       -2.069      184.089      116.189       72.351    33888.590    13499.862     5234.638        5.725        2.631      248.766       73.049        0.086      340.362       14.327      865.544
01/13/2022  15:33:00     -158.388        7.747      -15.478      127.911       94.163       74.486    16361.296     8866.695     5548.206        2.808        1.539      158.577       55.731        0.124      340.360       14.323      865.562
01/13/2022  15:34:00     -268.139      -40.844      -22.220      116.844       89.576       62.252    13652.624     8023.875     3875.357        4.980        1.278      271.231       38.004        0.020      340.290       14.204      865.558
01/13/2022  15:35:00     -317.125       -3.297      -23.061      162.666      101.335       71.133    26460.374    10268.787     5059.944        7.144        2.089      317.143       67.817        0.046      340.300       14.220      865.551
01/13/2022  15:36:00     -430.336      -24.395      -23.864      218.080      119.713       85.587    47559.021    14331.155     7325.171       12.777        3.461      431.027       94.385        0.048      340.270       14.172      865.549
01/13/2022  15:37:00     -247.003      -61.250      -22.324      251.567      145.360      118.590    63285.945    21129.497    14063.666        8.185        4.924      254.484      126.561        0.247      340.253       14.143      865.532
01/13/2022  15:38:00     -428.336       13.835      -16.080      203.380       90.836       90.185    41363.539     8251.150     8133.247       12.082        2.887      428.559       97.856        0.052      340.174       14.008      865.501
01/13/2022  15:39:00     -373.950      -89.582      -36.462      233.784      130.265       98.954    54655.167    16968.965     9791.927       11.529        4.071      384.531      110.013        0.082      340.202       14.055      865.520
01/13/2022  15:40:00     -502.066      -67.805      -27.014      261.313      189.085      112.762    68284.321    35753.126    12715.263       18.705        5.838      506.624      114.137        0.051      340.090       13.868      865.507
01/13/2022  15:41:00     -349.902       28.139        2.104      277.530      165.551      118.140    77022.864    27407.042    13956.956       12.079        5.919      351.031      110.952        0.100      340.121       13.921      865.509
01/13/2022  15:42:00     -585.359      -40.085      -33.664      238.029      148.430       93.245    56657.957    22031.370     8694.654       21.637        4.369      586.730       84.959        0.021      340.078       13.847      865.516
01/13/2022  15:43:00     -393.813      -68.355       -1.462      286.789      164.130      137.469    82247.862    26938.811    18897.615       14.390        6.404      399.702      146.565        0.134      340.116       13.912      865.517
01/13/2022  15:44:00     -398.004      -47.243      -21.544      213.719      145.925       88.338    45675.672    21294.214     7803.620       11.792        3.739      400.798       90.050        0.050      340.104       13.889      865.538
01/13/2022  15:45:00     -318.604       17.192        5.039      199.410      155.273       85.532    39764.435    24109.658     7315.784        8.650        3.559      319.068       91.576        0.082      340.143       13.956      865.534
01/13/2022  15:46:00     -410.400        0.062       -4.961      224.523      130.066      100.665    50410.680    16917.216    10133.459       12.294        3.873      410.400      103.749        0.064      340.085       13.858      865.557
01/13/2022  15:47:00     -355.968      -12.676      -28.362      222.174      150.915       97.135    49361.461    22775.459     9435.238       10.461        4.079      356.193       82.742        0.054      340.086       13.859      865.592
01/13/2022  15:48:00     -490.130      -37.230      -15.894      248.191      133.070      111.738    61598.924    17707.542    12485.412       16.681        4.590      491.542      103.096        0.044      340.021       13.751      865.594
01/13/2022  15:49:00     -322.091        9.051      -17.724      237.085      170.999      108.628    56209.316    29240.499    11799.985       10.068        4.862      322.218      115.222        0.128      340.057       13.812      865.606
01/13/2022  15:50:00     -335.235      104.331      -22.266      231.017      121.427       81.159    53368.625    14744.582     6586.812        9.922        3.735      351.094      100.588        0.082      340.094       13.875      865.593
01/13/2022  15:51:00     -354.638       40.388      -15.034      292.652      164.680      102.757    85644.982    27119.367    10558.968       12.545        6.166      356.931      116.706        0.107      340.064       13.824      865.619
01/13/2022  15:52:00     -308.556       61.035       -8.631      157.795      135.095       85.719    24899.229    18250.704     7347.831        7.474        2.525      314.535       66.515        0.045      340.058       13.814      865.622
01/13/2022  15:53:00     -318.065        0.885       -3.567      156.575      126.570       77.697    24515.661    16019.849     6036.754        7.387        2.329      318.066       70.883        0.050      340.096       13.877      865.642
01/13/2022  15:54:00     -318.447      -14.081      -31.393      164.107      120.681       87.178    26931.247    14563.924     7599.969        7.583        2.455      318.758       77.253        0.059      340.041       13.783      865.634
01/13/2022  15:55:00     -233.126       20.946        6.263      229.029      121.338       98.365    52454.421    14722.811     9675.655        6.582        3.843      234.065      107.080        0.209      340.122       13.921      865.633
01/13/2022  15:56:00     -301.946       27.805      -14.580      207.624      123.598       92.118    43107.803    15276.482     8485.685        7.950        3.343      303.224       83.472        0.076      340.022       13.753      865.672
01/13/2022  15:57:00     -269.109        2.498      -11.677      190.242      111.651       78.332    36191.954    12465.913     6135.949        6.367        2.740      269.121       70.943        0.069      340.036       13.777      865.711
01/13/2022  15:58:00     -288.750      -44.341      -12.236      219.862      130.684       98.448    48339.413    17078.321     9692.099        8.029        3.755      292.135      106.525        0.133      339.996       13.710      865.739
01/13/2022  15:59:00     -310.567       27.162       -2.625      194.459      129.364       94.862    37814.299    16735.004     8998.809        8.036        3.177      311.753       92.144        0.087      340.020       13.750      865.745
01/13/2022  16:00:00     -347.143       34.441      -18.052      188.898      139.247       93.144    35682.520    19389.688     8675.862        9.287        3.187      348.847       87.572        0.063      339.990       13.699      865.746
01/13/2022  16:01:00     -379.961       11.316      -18.929      283.373      188.143      114.447    80300.524    35397.606    13098.079       13.680        6.440      380.130      123.784        0.106      339.942       13.616      865.736
01/13/2022  16:02:00     -345.474       17.788      -10.798      229.643      162.743      111.794    52735.970    26485.250    12497.979       10.574        4.586      345.931       75.618        0.048      339.941       13.617      865.751
01/13/2022  16:03:00     -514.714       84.307      -41.873      219.950      142.665      104.210    48378.178    20353.194    10859.801       17.668        3.980      521.573      109.858        0.044      339.894       13.537      865.776
01/13/2022  16:04:00     -495.642       81.237      -21.093      203.180      155.155      107.926    41282.181    24073.179    11648.035       16.484        3.850      502.255       95.926        0.036      339.868       13.491      865.795
01/13/2022  16:05:00     -123.248       -8.764       -3.588      219.488      121.852      100.519    48174.951    14847.922    10104.095        4.419        3.656      123.559      104.544        0.716      339.943       13.620      865.837
01/13/2022  16:06:00     -221.016       -4.852       -5.772      222.446      137.073       97.597    49482.038    18789.026     9525.115        6.334        3.890      221.069       95.753        0.188      339.890       13.530      865.831
01/13/2022  16:07:00     -535.281       60.294      -26.077      266.351      168.011      110.612    70942.882    28227.533    12234.959       20.110        5.570      538.666      107.542        0.040      339.859       13.478      865.828
01/13/2022  16:08:00     -329.696       28.048       -3.705      247.302      151.263      113.997    61158.501    22880.358    12995.270       10.325        4.852      330.887      131.506        0.158      339.855       13.471      865.818
01/13/2022  16:09:00     -303.124       24.164        0.131      217.758      141.740       95.921    47418.361    20090.360     9200.847        8.457        3.835      304.085      104.805        0.119      339.833       13.434      865.837
01/13/2022  16:10:00     -393.422       -5.798      -21.089      184.085      156.714       94.811    33887.188    24559.178     8989.069       11.134        3.372      393.465       94.802        0.058      339.789       13.360      865.822
01/13/2022  16:11:00     -292.368       51.113      -11.257      196.658      144.569       92.608    38674.319    20900.305     8576.209        7.817        3.408      296.802       80.662        0.074      339.822       13.416      865.811
01/13/2022  16:12:00     -259.172       46.059       -7.269      170.939      120.766       96.785    29220.170    14584.396     9367.266        6.125        2.659      263.232       85.783        0.106      339.768       13.325      865.844
01/13/2022  16:13:00     -473.880      -34.163       -7.680      300.298      173.048      138.163    90178.939    29945.702    19089.028       18.248        6.961      475.110      147.912        0.097      339.752       13.299      865.835
01/13/2022  16:14:00     -265.454       49.506        3.568      202.780      123.426       83.596    41119.836    15234.010     6988.318        6.812        3.167      270.031       84.393        0.098      339.765       13.320      865.839
01/13/2022  16:15:00     -280.459       -5.275      -14.372      181.604      130.163       76.184    32980.026    16942.358     5803.969        6.730        2.786      280.508       63.029        0.050      339.734       13.266      865.866
01/13/2022  16:16:00     -224.264      -15.281      -19.928      169.425       93.166       84.790    28704.936     8679.815     7189.376        4.774        2.229      224.784       74.654        0.110      339.703       13.216      865.886
01/13/2022  16:17:00     -197.836       -2.869      -10.261      169.627      117.555       94.093    28773.291    13819.082     8853.485        4.534        2.572      197.857       98.064        0.246      339.671       13.162      865.907
01/13/2022  16:18:00     -245.489       87.322      -12.892      186.087      140.121       91.581    34628.316    19633.819     8387.079        6.534        3.132      260.557       72.811        0.078      339.688       13.191      865.928
01/13/2022  16:19:00     -340.957      100.301        1.799      156.418       97.085       62.255    24466.688     9425.436     3875.720        8.203        1.888      355.404       73.844        0.043      339.618       13.072      865.918
01/13/2022  16:20:00     -333.121       83.592       -2.336      202.142      128.541       93.741    40861.460    16522.824     8787.402        9.206        3.309      343.449       98.633        0.082      339.609       13.057      865.929
01/13/2022  16:21:00     -249.239        4.821       -3.610      181.695      139.557      103.065    33013.006    19476.156    10622.329        6.262        3.156      249.285      107.579        0.186      339.577       13.003      865.944
01/13/2022  16:22:00     -359.610      -33.530      -13.042      231.025      120.883       84.584    53372.540    14612.625     7154.470       10.286        3.757      361.170       71.155        0.039      339.572       12.995      865.959
01/13/2022  16:23:00     -307.049        8.497      -28.099      239.194      130.410      100.819    57213.928    17006.897    10164.405        8.975        4.219      307.166      114.724        0.139      339.546       12.950      865.971
01/13/2022  16:24:00     -350.168       79.074      -18.316      193.216      111.753       75.495    37332.293    12488.775     5699.467        9.235        2.776      358.985       92.959        0.067      339.538       12.938      865.993
01/13/2022  16:25:00     -252.132       59.936       -0.022      138.625      121.322       76.500    19216.791    14719.136     5852.281        5.347        1.989      259.158       65.101        0.063      339.593       13.030      866.012
01/13/2022  16:26:00     -253.688      -16.831      -26.253      175.284      120.824       66.305    30724.340    14598.372     4396.332        5.752        2.486      254.246       73.755        0.084      339.527       12.918      866.024
01/13/2022  16:27:00     -381.339       38.438      -21.350      190.077      118.314       89.840    36129.391    13998.118     8071.273       10.276        2.910      383.271       81.423        0.045      339.486       12.850      866.012
01/13/2022  16:28:00     -122.526       17.981       -5.201      134.357      119.754       80.161    18051.737    14341.116     6425.838        2.708        1.941      123.839       58.593        0.224      339.488       12.855      866.005
01/13/2022  16:29:00     -177.125        2.159       -0.601      208.230      134.194       92.418    43359.849    18007.960     8541.164        5.063        3.495      177.138      113.745        0.412      339.485       12.848      866.004
01/13/2022  16:30:00     -261.582       46.867      -14.131      192.809      145.395       96.204    37175.377    21139.635     9255.236        6.918        3.379      265.747       78.993        0.088      339.457       12.802      866.002
01/13/2022  16:31:00     -172.510      -11.072      -16.062      211.244       93.134       91.346    44624.082     8673.907     8344.051        4.588        3.082      172.865       97.006        0.315      339.442       12.775      866.010
01/13/2022  16:32:00     -476.816       71.934      -43.935      189.986      166.045       80.768    36094.576    27570.989     6523.476       15.231        3.509      482.211       63.401        0.017      339.463       12.812      866.010
01/13/2022  16:33:00     -234.298      -11.093      -23.711      212.323      117.689       90.949    45081.187    13850.639     8271.670        6.138        3.360      234.560       94.158        0.161      339.426       12.747      866.006
01/13/2022  16:34:00     -220.566       73.192      -20.210      161.351      127.592       78.683    26034.142    16279.701     6190.940        5.145        2.425      232.393       66.665        0.082      339.428       12.751      866.020
01/13/2022  16:35:00     -254.109       80.593        0.831      183.935       96.790       85.484    33832.219     9368.307     7307.583        6.078        2.525      266.584       92.083        0.119      339.444       12.779      866.003
01/13/2022  16:36:00     -277.623       64.708      -11.331      203.850      104.379       78.427    41554.714    10894.880     6150.728        6.998        2.930      285.064       96.324        0.114      339.383       12.676      866.023
01/13/2022  16:37:00     -201.472       80.855        1.669      158.703       89.802       63.370    25186.683     8064.465     4015.810        4.219        1.863      217.091       65.099        0.090      339.437       12.767      866.041
01/13/2022  16:38:00     -193.920       62.045       -5.534      139.029       75.565       60.541    19328.990     5710.071     3665.231        3.509        1.435      203.604       61.055        0.090      339.358       12.634      866.055
01/13/2022  16:39:00     -281.894       45.327      -18.272      152.687      117.511       76.071    23313.337    13808.786     5786.749        6.237        2.145      285.515       62.220        0.047      339.349       12.619      866.052
01/13/2022  16:40:00     -313.170       29.873       -7.193      158.441       93.944       69.992    25103.484     8825.500     4898.932        6.892        1.941      314.591       65.028        0.043      339.281       12.506      866.058
01/13/2022  16:41:00     -240.095       82.888      -21.804      133.106       94.287       65.253    17717.080     8890.065     4257.891        4.792        1.543      254.000       69.728        0.075      339.296       12.530      866.088
01/13/2022  16:42:00     -178.096       89.231      -17.460      177.627      110.717       66.509    31551.439    12258.336     4423.495        4.410        2.412      199.199       65.736        0.109      339.321       12.572      866.119
01/13/2022  16:43:00     -303.673       64.768      -35.486      101.237       97.179       57.685    10248.991     9443.824     3327.574        6.034        1.151      310.503       49.440        0.025      339.258       12.465      866.124
01/13/2022  16:44:00     -250.502       93.883      -28.816      181.668      116.440       68.974    33003.308    13558.206     4757.446        6.185        2.566      267.517       70.252        0.069      339.262       12.474      866.133
01/13/2022  16:45:00     -206.210       81.032      -15.082      141.882       81.216       53.764    20130.475     6596.119     2890.618        3.946        1.481      221.559       66.522        0.090      339.201       12.370      866.143
01/13/2022  16:46:00     -179.306       31.239      -12.960      110.618       66.334       45.005    12236.263     4400.229     2025.436        2.597        0.933      182.007       36.085        0.039      339.211       12.389      866.138
01/13/2022  16:47:00     -216.348       13.439      -13.088      101.917       73.770       55.240    10387.018     5441.940     3051.417        3.302        0.944      216.765       47.665        0.048      339.203       12.373      866.132
01/13/2022  16:48:00     -327.910       62.744       -8.739      143.743       79.147       58.162    20661.927     6264.260     3382.807        7.092        1.515      333.859       53.412        0.026      339.273       12.490      866.127
01/13/2022  16:49:00     -196.861       47.284      -11.112       90.255       61.385       59.956     8145.939     3768.071     3594.747        2.831        0.775      202.460       50.089        0.061      339.259       12.466      866.130
01/13/2022  16:50:00     -131.595       25.082      -16.830      120.808       76.899       60.060    14594.567     5913.449     3607.258        2.117        1.206      133.964       44.141        0.109      339.162       12.304      866.131
01/13/2022  16:51:00     -186.786       66.821        3.387      143.584       74.070       42.223    20616.238     5486.325     1782.814        3.362        1.394      198.378       47.148        0.056      339.141       12.268      866.145
01/13/2022  16:52:00     -214.691       -2.866       -9.372      184.671      110.125       78.702    34103.475    12127.525     6193.982        4.930        2.621      214.711       83.944        0.153      339.088       12.180      866.130
01/13/2022  16:53:00      -59.611       30.007       -6.548      149.639       68.257       57.792    22391.964     4658.989     3339.890        1.744        1.520       66.738       42.302        0.402      339.078       12.164      866.160
01/13/2022  16:54:00     -348.883       55.950      -27.830      134.017       76.998       59.049    17960.510     5928.616     3486.784        7.649        1.369      353.340       61.965        0.031      339.130       12.250      866.172
01/13/2022  16:55:00     -120.005       20.667       -2.756       93.607       50.252       46.454     8762.347     2525.269     2157.999        1.414        0.672      121.771       44.507        0.134      339.065       12.142      866.198
01/13/2022  16:56:00     -107.591       23.282       -7.207      118.818       57.154       56.630    14117.719     3266.591     3206.918        1.638        1.030      110.081       63.744        0.335      338.968       11.978      866.212
01/13/2022  16:57:00     -143.606       57.294      -23.278      138.489       80.099       59.074    19179.121     6415.845     3489.751        2.676        1.454      154.613       48.479        0.098      339.033       12.087      866.218
01/13/2022  16:58:00     -306.992      111.598      -22.028      134.530      118.488       60.305    18098.201    14039.420     3636.657        7.147        1.789      326.647       60.740        0.035      339.142       12.270      866.224
01/13/2022  16:59:00     -235.828       63.514      -17.511      157.868       88.713       59.480    24922.166     7870.039     3537.824        4.814        1.817      244.231       59.493        0.059      339.033       12.086      866.244
01/13/2022  17:00:00     -236.396       65.319       -6.625       98.348       64.726       48.960     9672.246     4189.483     2397.078        3.822        0.813      245.255       52.665        0.046      338.917       11.892      866.242
01/13/2022  17:01:00     -252.523       53.548       -9.384      197.458      116.797       68.717    38989.481    13641.477     4722.078        6.203        2.868      258.138       74.032        0.082      338.941       11.932      866.236
01/13/2022  17:02:00     -221.681       80.348       -7.481      126.581      104.730       66.201    16022.625    10968.284     4382.512        4.351        1.569      235.793       64.558        0.075      338.984       12.003      866.238
01/13/2022  17:03:00     -348.462       88.915      -22.598      132.679      111.244       68.845    17603.799    12375.126     4739.701        8.227        1.736      359.627       63.386        0.031      339.001       12.032      866.223
01/13/2022  17:04:00     -157.583       34.025        5.362      112.013       77.981       53.150    12546.938     6080.973     2824.933        2.373        1.073      161.215       54.070        0.112      338.898       11.862      866.213
01/13/2022  17:05:00     -446.213      110.188      -28.628      105.607       90.864       55.216    11152.769     8256.215     3048.775       11.726        1.123      459.617       38.012        0.007      338.942       11.932      866.215
01/13/2022  17:06:00     -188.999       66.834        6.977      166.725      113.512       68.639    27797.103    12884.866     4711.329        4.281        2.270      200.468       67.686        0.114      338.884       11.837      866.220
01/13/2022  17:07:00     -246.902       86.919       -6.904      136.793      104.589       71.171    18712.346    10938.884     5065.327        5.163        1.736      261.754       76.924        0.086      338.925       11.905      866.206
01/13/2022  17:08:00     -221.138       64.454        8.127      127.977      100.298       64.479    16378.090    10059.751     4157.554        4.185        1.530      230.340       62.218        0.073      338.792       11.681      866.190
01/13/2022  17:09:00     -126.316       23.390       15.450      121.021       82.447       69.613    14646.047     6797.506     4845.997        2.151        1.314      128.463       58.553        0.208      338.749       11.611      866.206
01/13/2022  17:10:00     -100.540       15.015      -17.686      192.729       91.911       57.895    37144.498     8447.584     3351.822        2.979        2.447      101.655       55.773        0.301      338.778       11.658      866.201
01/13/2022  17:11:00     -320.195      115.812       -2.107      191.263      105.301       75.687    36581.370    11088.298     5728.510        8.466        2.670      340.496       71.406        0.044      338.974       11.988      866.187
01/13/2022  17:12:00     -227.112       78.484       -0.511      104.581       95.307       63.654    10937.289     9083.459     4051.837        4.090        1.204      240.291       55.821        0.054      338.935       11.921      866.201
01/13/2022  17:13:00     -266.549       68.910      -11.968       96.766       75.002       51.071     9363.609     5625.361     2608.284        4.677        0.880      275.312       48.848        0.031      338.803       11.699      866.189
01/13/2022  17:14:00     -210.068       44.823      -10.394      152.880       86.291       54.652    23372.262     7446.130     2986.839        4.002        1.690      214.797       42.343        0.039      338.767       11.640      866.150
01/13/2022  17:15:00     -442.382       70.668      -14.396      170.423      117.249       84.181    29043.856    13747.415     7086.438       12.538        2.494      447.991       78.885        0.031      338.820       11.728      866.120
01/13/2022  17:16:00     -253.998       69.269        0.278      162.292      119.246       76.104    26338.817    14219.673     5791.746        5.782        2.318      263.274       75.746        0.083      338.765       11.636      866.110
01/13/2022  17:17:00     -297.298        4.255      -22.210      198.656      115.295       86.239    39464.351    13292.927     7437.164        7.453        3.010      297.328       72.923        0.060      338.770       11.644      866.077
01/13/2022  17:18:00     -272.641       41.912       -6.908      183.751      122.687       73.048    33764.609    15052.201     5336.070        6.514        2.708      275.843       49.660        0.032      338.718       11.557      866.062
01/13/2022  17:19:00     -272.049       28.998      -15.410      139.202      103.461       72.773    19377.273    10704.100     5295.948        5.523        1.769      273.590       79.360        0.084      338.714       11.549      866.022
01/13/2022  17:20:00     -288.025       20.213      -23.663      136.906       96.342       73.896    18743.217     9281.863     5460.687        5.870        1.674      288.733       77.325        0.072      338.657       11.454      865.995
01/13/2022  17:21:00     -197.370       45.540      -15.432      189.095      114.816       68.927    35756.965    13182.772     4750.871        4.747        2.685      202.556       52.222        0.066      338.686       11.503      866.011
01/13/2022  17:22:00     -346.769       57.860      -33.584      170.027      136.390       86.281    28909.175    18602.314     7444.431        8.983        2.748      351.563       86.107        0.060      338.659       11.457      866.025
01/13/2022  17:23:00     -201.011       63.170       -1.205      116.519       94.687       66.149    13576.645     8965.636     4375.756        3.565        1.346      210.704       62.168        0.087      338.670       11.476      866.054
01/13/2022  17:24:00     -257.044      116.537        5.994      125.396       88.566       72.697    15724.212     7843.980     5284.782        5.427        1.443      282.227       67.483        0.057      338.683       11.498      866.087
01/13/2022  17:25:00     -194.213       50.673       -5.074      191.455      110.806       55.211    36654.852    12277.899     3048.242        4.614        2.599      200.715       46.941        0.055      338.589       11.342      866.133
01/13/2022  17:26:00     -239.396       73.118      -13.322      124.374       98.504       63.756    15468.883     9703.081     4064.788        4.603        1.462      250.313       58.746        0.055      338.551       11.275      866.148
01/13/2022  17:27:00     -281.901       76.827      -13.324      146.505       81.445       59.088    21463.732     6633.223     3491.409        5.856        1.579      292.182       47.082        0.026      338.548       11.272      866.179
01/13/2022  17:28:00     -253.589       80.697       -7.762      120.517      101.792       62.771    14524.282    10361.705     3940.254        4.985        1.441      266.119       62.649        0.055      338.620       11.392      866.193
01/13/2022  17:29:00     -144.517       46.354      -23.323       84.952       55.898       42.325     7216.895     3124.633     1791.381        1.785        0.607      151.769       35.000        0.053      338.483       11.164      866.204
01/13/2022  17:30:00     -151.979      121.555      -18.125      139.911       82.460       55.286    19575.087     6799.613     3056.564        3.381        1.472      194.611       49.428        0.065      338.570       11.309      866.222
01/13/2022  17:31:00     -129.330      107.332      -11.066      135.049       85.309       61.554    18238.145     7277.586     3788.840        2.883        1.465      168.067       61.473        0.134      338.600       11.360      866.278
01/13/2022  17:32:00      -43.263      161.492      -28.181       78.566       96.026       59.942     6172.547     9220.986     3593.098        2.386        0.949      167.186       31.955        0.037      338.577       11.321      866.336
01/13/2022  17:33:00      -47.436      205.074      -17.817       57.094       93.683       37.170     3259.725     8776.453     1381.582        2.902        0.671      210.489       31.074        0.022      338.331       10.907      866.391
01/13/2022  17:34:00       -6.897      167.717      -11.203       57.605       67.900       40.364     3318.389     4610.431     1629.213        1.893        0.478      167.859       26.826        0.026      338.298       10.852      866.459
01/13/2022  17:35:00      -17.196      164.497      -14.669       37.745       79.816       33.307     1424.689     6370.673     1109.333        1.824        0.445      165.394       32.700        0.039      338.262       10.791      866.526
01/13/2022  17:36:00       12.842      176.120      -25.315       74.361       53.420       34.383     5529.592     2853.655     1182.171        2.069        0.478      176.587       34.237        0.038      338.328       10.904      866.562
01/13/2022  17:37:00      -13.321      218.920      -20.479       70.940       76.027       43.204     5032.464     5780.046     1866.557        3.060        0.634      219.325       14.845        0.005      338.335       10.915      866.614
01/13/2022  17:38:00       -5.238      233.667       -6.306       65.447       67.309       43.887     4283.271     4530.519     1926.070        3.270        0.537      233.726       36.999        0.025      338.314       10.878      866.648
01/13/2022  17:39:00      -44.664      244.335      -25.546       44.788       61.090       30.721     2005.930     3731.948      943.773        3.451        0.334      248.384       23.055        0.009      338.388       11.000      866.703
01/13/2022  17:40:00       33.929      234.706      -16.733       50.284       61.746       34.201     2528.507     3812.611     1169.682        3.201        0.376      237.146       31.678        0.018      338.312       10.875      866.736
01/13/2022  17:41:00       94.545      314.302      -29.885       71.886       85.819       41.053     5167.547     7364.971     1685.314        6.142        0.711      328.214       36.144        0.012      338.033       10.405      866.762
01/13/2022  17:42:00       10.548      272.169      -31.138       93.527       70.827       43.193     8747.347     5016.503     1865.635        4.539        0.781      272.373       26.612        0.010      337.995       10.340      866.776
01/13/2022  17:43:00       -3.514      295.819      -24.363       71.172       88.532       52.235     5065.390     7837.917     2728.468        5.187        0.782      295.840       48.772        0.027      337.896       10.176      866.787
01/13/2022  17:44:00       15.503      307.343      -27.333       88.840       79.586       37.027     7892.634     6333.882     1371.016        5.552        0.780      307.734       38.923        0.016      337.876       10.141      866.800
01/13/2022  17:45:00       -4.809      268.901      -28.323       68.287      124.765       42.100     4663.146    15566.362     1772.411        4.756        1.100      268.944       40.751        0.023      337.958       10.281      866.809
01/13/2022  17:46:00      -63.296      118.100      -25.454       82.404       78.165       41.449     6790.387     6109.821     1718.036        1.661        0.731      133.993       27.666        0.043      337.994       10.345      866.835
01/13/2022  17:47:00        9.938      301.124      -25.212      104.795       74.619       47.668    10982.091     5568.026     2272.234        5.511        0.941      301.287       38.077        0.016      337.953       10.271      866.855
01/13/2022  17:48:00       -2.273      316.822      -40.646       96.210       76.365       54.412     9256.444     5831.548     2960.661        6.004        0.902      316.830       46.192        0.021      337.917       10.211      866.845
01/13/2022  17:49:00       97.127      282.713      -30.534       99.423      101.126       51.465     9884.851    10226.470     2648.596        5.652        1.138      298.932       45.160        0.023      337.914       10.206      866.863
01/13/2022  17:50:00      123.825      375.898      -39.073       64.962       65.716       35.259     4220.085     4318.571     1243.176        8.397        0.489      395.768       29.854        0.006      337.961       10.287      866.894
01/13/2022  17:51:00       30.170      294.640      -27.105       83.591       76.349       44.533     6987.498     5829.115     1983.226        5.163        0.740      296.181       34.937        0.014      337.954       10.274      866.946
01/13/2022  17:52:00      141.791      340.573      -38.409      119.543      157.588       56.296    14290.477    24833.879     3169.237        8.992        2.115      368.910       71.148        0.037      337.929       10.231      866.963
01/13/2022  17:53:00       55.496      367.422      -33.079       88.979      107.285       54.064     7917.241    11510.135     2922.964        8.076        1.118      371.589       57.398        0.024      337.879       10.147      866.993
01/13/2022  17:54:00       26.709      253.408      -34.363       71.949       78.533       43.681     5176.620     6167.364     1908.021        3.968        0.663      254.812       24.063        0.009      337.830       10.066      867.026
01/13/2022  17:55:00      -40.296      274.161      -33.275      109.420       86.012       46.583    11972.684     7398.111     2169.974        4.971        1.077      277.106       34.019        0.015      337.836       10.077      867.033
01/13/2022  17:56:00       58.164      265.605      -16.786       82.295      126.995       51.768     6772.473    16127.841     2679.897        4.989        1.279      271.899       55.986        0.042      337.683        9.819      867.025
01/13/2022  17:57:00      121.124      433.800      -46.136      120.407      110.563       50.927    14497.869    12224.184     2593.568       11.714        1.466      450.392       44.666        0.010      337.767        9.960      866.986
01/13/2022  17:58:00       15.635      332.903      -26.694       94.125      104.957       57.636     8859.448    11016.066     3321.928        6.749        1.160      333.270       58.328        0.031      337.732        9.901      867.028
01/13/2022  17:59:00        4.221      307.821      -19.598       74.420       96.375       54.278     5538.351     9288.178     2946.127        5.646        0.889      307.850       55.088        0.032      337.684        9.822      867.051
01/13/2022  18:00:00      -70.515      275.685      -31.621       89.931       93.611       44.434     8087.662     8763.035     1974.408        5.040        0.941      284.560       38.183        0.018      337.697        9.844      867.083
01/13/2022  18:01:00       -3.477      275.635      -26.607       99.476      115.000       53.920     9895.439    13225.069     2907.315        5.136        1.301      275.657       19.968        0.005      337.615        9.704      867.118
01/13/2022  18:02:00      -10.210      278.964      -38.467      105.144      121.650       56.080    11055.273    14798.738     3145.022        5.420        1.450      279.151       55.370        0.039      337.638        9.745      867.136
01/13/2022  18:03:00       -1.403      328.876      -36.743       84.974      137.822       62.378     7220.544    18994.770     3891.052        6.980        1.505      328.879       60.174        0.033      337.609        9.695      867.165
01/13/2022  18:04:00       -6.161      275.789      -17.054       87.845       82.565       62.889     7716.723     6817.025     3955.054        4.744        0.924      275.857       54.284        0.039      337.619        9.711      867.138
01/13/2022  18:05:00       -5.878      346.659      -31.407       93.990      112.531       49.237     8834.205    12663.170     2424.250        7.255        1.196      346.709       48.714        0.020      337.633        9.736      867.099
01/13/2022  18:06:00      -22.533      389.716      -32.063      126.001       93.230       62.106    15876.190     8691.818     3857.129        9.091        1.421      390.367       52.226        0.018      337.599        9.678      867.115
01/13/2022  18:07:00      -64.005      365.704      -32.616      125.916       83.273       50.091    15854.829     6934.347     2509.068        8.209        1.265      371.263       38.920        0.011      337.628        9.726      867.150
01/13/2022  18:08:00      -40.391      314.161      -29.602      120.722       88.692       58.202    14573.840     7866.354     3387.443        6.351        1.291      316.747       49.268        0.024      337.574        9.635      867.188
01/13/2022  18:09:00       30.102      352.512      -30.029      103.328      111.164       54.538    10676.602    12357.542     2974.435        7.604        1.300      353.795       48.919        0.019      337.536        9.572      867.231
01/13/2022  18:10:00      -27.559      379.346      -36.770       87.516      113.348       65.981     7659.064    12847.708     4353.549        8.543        1.243      380.346       59.040        0.024      337.593        9.668      867.260
01/13/2022  18:11:00       -2.886      372.114      -35.155       99.999      136.392       55.714     9999.793    18602.811     3104.078        8.570        1.585      372.125       60.668        0.027      337.635        9.738      867.306
01/13/2022  18:12:00      -34.759      312.066      -26.162       99.385      102.912       57.812     9877.459    10590.803     3342.244        6.154        1.191      313.996       46.131        0.022      337.614        9.703      867.336
01/13/2022  18:13:00       40.265      325.480      -35.825      116.304      115.908       53.103    13526.684    13434.637     2819.889        6.931        1.489      327.961       55.612        0.029      337.581        9.648      867.339
01/13/2022  18:14:00       -3.535      259.144      -20.387      116.138      113.562       70.896    13487.983    12896.292     5026.235        4.949        1.571      259.168       43.547        0.028      337.569        9.629      867.325
01/13/2022  18:15:00      -85.354      285.558      -23.842       93.993       83.452       58.512     8834.723     6964.262     3423.601        5.431        0.961      298.042       41.350        0.019      337.763        9.953      867.308
01/13/2022  18:16:00      -24.901      259.913      -21.455       77.048       79.989       47.674     5936.451     6398.173     2272.801        4.162        0.730      261.103       44.576        0.029      337.660        9.780      867.295
01/13/2022  18:17:00      -37.342      269.061      -29.970       69.096       98.191       48.630     4774.267     9641.482     2364.909        4.573        0.839      271.640       36.202        0.018      337.663        9.785      867.311
01/13/2022  18:18:00      -10.943      308.133      -17.942       91.103      104.376       51.282     8299.756    10894.411     2629.810        5.860        1.091      308.327       45.997        0.022      337.808       10.029      867.331
01/13/2022  18:19:00      -61.562      334.852      -28.362       63.532      122.568       51.144     4036.315    15022.905     2615.713        6.919        1.084      340.464       52.835        0.024      337.899       10.181      867.339
01/13/2022  18:20:00      -93.813      238.350      -30.455       88.226      105.395       56.239     7783.877    11108.086     3162.835        4.429        1.103      256.147       22.569        0.008      337.906       10.193      867.371
01/13/2022  18:21:00      -75.131      274.773      -24.957       63.991       87.127       44.361     4094.851     7591.177     1967.879        4.771        0.683      284.859       31.579        0.012      337.825       10.057      867.402
01/13/2022  18:22:00      -15.324      320.378      -16.543      101.295       89.640       50.259    10260.662     8035.399     2525.994        6.198        1.041      320.745       48.357        0.023      337.785        9.989      867.391
01/13/2022  18:23:00      -36.314      192.443       -7.457       99.889       85.148       43.313     9977.813     7250.139     1876.048        2.875        0.955      195.840       30.988        0.025      337.716        9.875      867.393
01/13/2022  18:24:00      -42.931      139.686      -13.827       79.266       98.620       57.207     6283.165     9725.907     3272.586        2.041        0.964      146.135       46.086        0.099      337.841       10.087      867.400
01/13/2022  18:25:00      -92.082      258.959      -34.197       90.413       81.229       48.012     8174.435     6598.089     2305.165        4.689        0.854      274.843       33.973        0.015      337.959       10.281      867.383
01/13/2022  18:26:00     -117.195      183.244      -17.010       86.092       99.656       47.777     7411.791     9931.236     2282.609        3.361        0.981      217.516       32.770        0.023      337.915       10.209      867.360
01/13/2022  18:27:00     -109.039      124.907      -49.129       81.425       97.208       53.542     6630.077     9449.379     2866.725        2.442        0.947      165.805       41.980        0.064      337.869       10.133      867.353
01/13/2022  18:28:00      -92.687       81.425      -25.409       84.416       87.540       57.440     7126.011     7663.339     3299.390        1.697        0.904      123.373       49.597        0.162      337.826       10.063      867.336
01/13/2022  18:29:00      -78.043       51.447      -25.729       70.737       78.822       62.223     5003.685     6212.845     3871.657        1.224        0.754       93.474       40.775        0.190      337.857       10.112      867.297
01/13/2022  18:30:00      -92.680       20.915      -26.877      100.083       81.071       62.498    10016.651     6572.466     3905.986        1.512        1.025       95.010       46.265        0.237      337.665        9.792      867.278
01/13/2022  18:31:00     -189.132       29.481      -47.291      165.115       92.782       48.079    27263.041     8608.448     2311.601        3.852        1.909      191.416       31.643        0.027      337.626        9.722      867.268
01/13/2022  18:32:00     -133.837       58.235      -18.972      116.080       81.985       50.839    13474.593     6721.563     2584.653        2.222        1.139      145.957       41.702        0.082      337.504        9.522      867.278
01/13/2022  18:33:00     -111.190       63.761      -27.605       91.475       92.490       53.202     8367.651     8554.455     2830.442        1.847        0.988      128.175       43.430        0.115      337.541        9.582      867.308
01/13/2022  18:34:00     -122.303        8.966      -30.200      111.743       94.128       58.857    12486.432     8860.164     3464.184        2.038        1.241      122.631       37.565        0.094      337.319        9.213      867.330
01/13/2022  18:35:00     -185.773       33.078      -32.595      117.239       68.433       55.873    13745.093     4683.125     3121.801        2.911        1.078      188.694       41.154        0.048      337.214        9.036      867.338
01/13/2022  18:36:00     -132.281       42.731      -26.746      151.970       73.298       59.712    23094.847     5372.626     3565.561        2.603        1.602      139.011       42.143        0.092      337.279        9.144      867.348
01/13/2022  18:37:00     -211.274       74.158      -10.895      177.619       61.015       55.990    31548.370     3722.797     3134.911        4.432        1.920      223.911       60.935        0.074      337.270        9.130      867.358
01/13/2022  18:38:00     -197.548       89.316      -26.629      122.802       72.327       52.806    15080.368     5231.149     2788.435        3.540        1.155      216.800       43.418        0.040      337.399        9.344      867.384
01/13/2022  18:39:00      -86.255       47.404      -20.182      130.594       92.147       53.657    17054.841     8490.998     2879.059        1.925        1.421       98.423       63.205        0.412      337.395        9.339      867.395
01/13/2022  18:40:00      -72.120      122.926      -19.045       81.229      113.170       48.317     6598.152    12807.500     2334.527        2.120        1.087      142.520       47.557        0.111      337.520        9.547      867.392
01/13/2022  18:41:00     -118.615      147.165      -18.597      101.315       99.413       42.325    10264.679     9882.987     1791.378        2.900        1.097      189.016       31.581        0.028      337.634        9.737      867.394
01/13/2022  18:42:00      -98.115      120.949       -8.053       78.967       79.468       53.182     6235.842     6315.182     2828.314        1.985        0.769      155.741       25.553        0.027      337.730        9.900      867.419
01/13/2022  18:43:00      -70.862       90.144      -20.588       98.643      110.812       68.921     9730.370    12279.263     4750.103        2.016        1.338      114.662       61.176        0.285      337.681        9.816      867.434
01/13/2022  18:44:00      -54.528      123.800      -20.042       61.930       57.853       40.537     3835.297     3347.023     1643.241        1.376        0.441      135.277       22.724        0.028      337.732        9.903      867.458
01/13/2022  18:45:00      -41.524      146.584      -15.317       55.672       88.544       43.327     3099.384     7839.965     1877.271        1.813        0.641      152.352       30.256        0.039      337.795       10.009      867.460
01/13/2022  18:46:00      -34.199       32.545      -25.554       50.776       48.420       36.900     2578.207     2344.523     1361.624        0.458        0.314       47.210       32.400        0.471      337.691        9.836      867.463
01/13/2022  18:47:00      -27.908       52.535        3.521       58.670       67.926       34.319     3442.196     4613.910     1177.763        0.639        0.462       59.488       30.092        0.256      337.603        9.688      867.488
01/13/2022  18:48:00      -15.074      117.907      -15.347       53.328       48.326       33.101     2843.840     2335.435     1095.687        1.032        0.314      118.867       25.246        0.045      337.668        9.798      867.525
01/13/2022  18:49:00       -1.084      175.275      -18.650       41.491       36.423       28.285     1721.539     1326.600      800.043        1.746        0.192      175.279       17.646        0.010      337.668        9.797      867.545
01/13/2022  18:50:00       -4.850      150.430      -19.169       38.499       58.702       26.192     1482.148     3445.907      686.025        1.432        0.281      150.508       28.193        0.035      337.704        9.857      867.562
01/13/2022  18:51:00       29.842      184.586      -19.238       62.814       52.389       23.881     3945.540     2744.568      570.326        2.130        0.363      186.982       14.149        0.006      337.586        9.659      867.582
01/13/2022  18:52:00       10.430      187.664      -18.760       68.765       50.112       33.599     4728.629     2511.240     1128.924        2.202        0.418      187.953       26.790        0.020      337.546        9.591      867.595
01/13/2022  18:53:00       11.537      172.258      -18.272       39.659       63.326       31.582     1572.853     4010.189      997.399        1.836        0.329      172.644       34.487        0.040      337.417        9.375      867.588
01/13/2022  18:54:00        4.631      173.922      -21.434       83.598       75.892       29.468     6988.692     5759.653      868.374        2.217        0.681      173.984       15.834        0.008      337.432        9.401      867.587
01/13/2022  18:55:00      -51.340      140.193      -25.717       36.568       51.020       23.058     1337.238     2602.995      531.679        1.371        0.224      149.298       13.143        0.008      337.472        9.469      867.572
01/13/2022  18:56:00      -49.974       86.088       -8.435       35.230       44.270       32.707     1241.144     1959.830     1069.775        0.712        0.214       99.541       19.628        0.039      337.499        9.514      867.556
01/13/2022  18:57:00      -41.415       33.364      -13.924       46.431       43.592       23.233     2155.882     1900.301      539.795        0.381        0.230       53.182       15.660        0.087      337.444        9.423      867.528
01/13/2022  18:58:00     -128.138        7.569      -17.435       54.167       43.552       34.931     2934.094     1896.773     1220.149        1.141        0.303      128.362       29.070        0.051      337.300        9.183      867.492
01/13/2022  18:59:00      -79.844       37.030        1.670       92.556       73.312       57.103     8566.528     5374.664     3260.716        1.247        0.860       88.013       51.278        0.339      337.180        8.979      867.439
01/13/2022  19:00:00     -207.188       57.297       -6.383      112.937      120.521       65.586    12754.827    14525.273     4301.575        3.891        1.579      214.965       69.862        0.106      337.173        8.967      867.403
01/13/2022  19:01:00     -206.284       44.582       14.374      118.433       90.426       68.850    14026.282     8176.912     4740.345        3.584        1.347      211.047       59.086        0.078      337.086        8.819      867.374
01/13/2022  19:02:00     -241.768       65.662      -17.032      125.666      105.624       50.925    15791.900    11156.389     2593.307        4.629        1.477      250.526       49.463        0.039      337.090        8.826      867.357
01/13/2022  19:03:00     -230.265       63.290      -14.729      162.391       84.935       59.530    26370.696     7213.944     3543.816        4.718        1.856      238.804       44.525        0.035      337.116        8.870      867.385
01/13/2022  19:04:00     -321.562      137.015      -15.536      150.886       95.568       66.325    22766.679     9133.158     4399.058        7.935        1.815      349.536       70.795        0.041      337.374        9.301      867.403
01/13/2022  19:05:00     -199.014       50.935      -21.586      146.184       89.156       59.597    21369.884     7948.739     3551.787        3.776        1.644      205.429       52.950        0.066      337.316        9.206      867.437
01/13/2022  19:06:00     -182.543       53.916      -33.366      120.340      101.015       61.633    14481.773    10204.066     3798.642        3.291        1.424      190.339       69.267        0.132      337.219        9.043      867.464
01/13/2022  19:07:00      -94.228      -10.321      -18.838       91.726       65.518       42.562     8413.572     4292.661     1811.539        1.193        0.726       94.792       30.134        0.101      337.158        8.942      867.505
01/13/2022  19:08:00       -4.403      105.787      -24.147       56.576      109.747       50.236     3200.881    12044.499     2523.659        1.478        0.888      105.879       47.354        0.200      337.245        9.087      867.537
01/13/2022  19:09:00      -12.180      240.611      -21.281       54.345       58.472       40.103     2953.379     3418.946     1608.272        3.324        0.399      240.919       32.085        0.018      337.317        9.205      867.584
01/13/2022  19:10:00      -16.957      189.489      -12.137       84.771       55.213       41.421     7186.106     3048.526     1715.703        2.414        0.598      190.246       26.195        0.019      337.291        9.164      867.614
01/13/2022  19:11:00      -29.591      171.707      -13.081       49.529       63.411       34.354     2453.154     4021.002     1180.170        1.909        0.383      174.238       32.620        0.035      337.349        9.261      867.652
01/13/2022  19:12:00       -4.785      162.500      -12.786       41.239       44.985       28.492     1700.617     2023.619      811.792        1.556        0.227      162.571       27.972        0.030      337.264        9.120      867.675
01/13/2022  19:13:00        5.845      213.246      -18.976       55.976       54.154       39.264     3133.269     2932.686     1541.672        2.674        0.380      213.326       30.734        0.021      337.337        9.240      867.684
01/13/2022  19:14:00      -26.379      246.287      -29.257       61.666       57.952       32.187     3802.710     3358.420     1035.991        3.520        0.410      247.695       22.692        0.008      337.390        9.328      867.706
01/13/2022  19:15:00      -20.386      242.802      -16.717       53.158       68.963       39.147     2825.774     4755.957     1532.512        3.438        0.456      243.657       37.181        0.023      337.394        9.335      867.714
01/13/2022  19:16:00       -6.518      207.405      -15.826       52.688       63.107       34.062     2776.069     3982.497     1160.201        2.561        0.396      207.507       30.358        0.021      337.348        9.260      867.710
01/13/2022  19:17:00       15.145      214.235      -17.271       51.432       59.273       36.835     2645.251     3513.309     1356.804        2.697        0.376      214.769       35.204        0.027      337.321        9.214      867.699
01/13/2022  19:18:00        9.037      160.199      -18.530       58.018       54.091       33.885     3366.077     2925.798     1148.177        1.676        0.372      160.454       30.655        0.037      337.374        9.305      867.691
01/13/2022  19:19:00       11.150      200.670      -21.492       45.638       48.351       35.565     2082.846     2337.811     1264.866        2.327        0.284      200.979       27.799        0.019      337.227        9.057      867.677
01/13/2022  19:20:00      -33.947      185.119      -18.255       48.885       52.467       28.280     2389.721     2752.749      799.783        2.085        0.297      188.205       25.875        0.019      337.294        9.172      867.675
01/13/2022  19:21:00      -62.262      181.408      -12.919       73.769       88.765       40.246     5441.817     7879.183     1619.737        2.594        0.747      191.795       41.855        0.048      337.361        9.280      867.691
01/13/2022  19:22:00      -50.968      110.774      -13.851       59.119       63.907       35.318     3495.016     4084.085     1247.360        1.194        0.441      121.937       23.887        0.038      337.357        9.278      867.710
01/13/2022  19:23:00      -38.973      160.457      -13.250       53.428       74.332       37.566     2854.563     5525.182     1411.236        1.861        0.490      165.122       22.808        0.019      337.384        9.320      867.720
01/13/2022  19:24:00       25.424      245.363      -25.040       64.169       62.880       36.865     4117.626     3953.907     1359.008        3.545        0.472      246.676       33.091        0.018      337.318        9.209      867.716
01/13/2022  19:25:00       71.280      294.213      -23.906       63.140       66.483       37.212     3986.709     4420.010     1384.756        5.100        0.490      302.724       29.881        0.010      337.276        9.139      867.728
01/13/2022  19:26:00      111.614      345.195      -34.963       76.433       60.217       32.068     5841.970     3626.101     1028.345        7.167        0.525      362.791       30.277        0.007      337.261        9.113      867.741
01/13/2022  19:27:00      105.128      230.848      -31.056       52.987       73.499       35.699     2807.672     5402.047     1274.447        3.739        0.474      253.659       31.921        0.016      337.070        8.793      867.759
01/13/2022  19:28:00      114.763      315.415      -34.442       74.059       85.744       38.231     5484.738     7352.008     1461.592        6.407        0.715      335.645       42.594        0.016      337.009        8.689      867.769
01/13/2022  19:29:00       99.176      323.560      -29.555       63.373       78.304       43.128     4016.082     6131.482     1860.017        6.370        0.600      338.418       38.312        0.013      337.002        8.678      867.795
01/13/2022  19:30:00      107.444      259.040      -39.952       58.088       56.328       38.103     3374.213     3172.885     1451.817        4.412        0.400      280.439       36.686        0.017      336.951        8.594      867.807
01/13/2022  19:31:00       87.203      237.862      -33.812       65.380       67.121       39.017     4274.481     4505.261     1522.354        3.781        0.515      253.343       35.778        0.020      336.906        8.518      867.826
01/13/2022  19:32:00        4.690      230.028      -16.769       59.725       78.589       40.895     3567.132     6176.289     1672.368        3.231        0.571      230.076       40.108        0.030      336.945        8.585      867.845
01/13/2022  19:33:00       84.200      217.170      -22.863       69.404       75.056       41.927     4816.863     5633.471     1757.836        3.349        0.610      232.922       45.230        0.038      336.928        8.555      867.848
01/13/2022  19:34:00       35.896      255.891      -21.941       61.771       80.948       46.438     3815.683     6552.605     2156.526        3.989        0.626      258.396       47.301        0.034      336.921        8.545      867.860
01/13/2022  19:35:00       38.190      244.492      -27.723       53.202       42.688       30.315     2830.451     1822.304      919.015        3.379        0.279      247.456       19.599        0.006      336.879        8.473      867.881
01/13/2022  19:36:00        8.531      172.810      -19.013       55.097       57.537       29.272     3035.632     3310.509      856.868        1.875        0.360      173.020       20.538        0.014      336.857        8.439      867.891
01/13/2022  19:37:00       -1.533      215.939      -29.970       60.367       74.088       33.838     3644.200     5488.967     1144.992        2.890        0.514      215.945       22.014        0.010      336.872        8.464      867.901
01/13/2022  19:38:00      -79.894      109.325      -18.181       61.699       58.175       43.181     3806.785     3384.384     1864.611        1.386        0.453      135.407       32.469        0.057      336.966        8.622      867.889
01/13/2022  19:39:00      -17.351        9.053      -19.536       38.051       25.649       16.228     1447.895      657.895      263.347        0.157        0.118       19.571       14.901        0.580      336.755        8.268      867.878
01/13/2022  19:40:00      -49.166       -5.628      -19.867       53.179       52.651       34.397     2828.045     2772.136     1183.167        0.481        0.339       49.487       31.660        0.409      336.718        8.209      867.858
01/13/2022  19:41:00      -31.014       -3.036       -8.424       26.889       48.476       25.880      722.994     2349.957      669.786        0.239        0.187       31.162       18.295        0.345      336.666        8.122      867.853
01/13/2022  19:42:00        3.025       24.328        7.080       34.706       38.671       23.333     1204.523     1495.444      544.436        0.195        0.162       24.515       15.548        0.402      336.627        8.058      867.867
01/13/2022  19:43:00      -78.863      -17.207      -10.747       48.595       42.925       18.734     2361.452     1842.514      350.981        0.559        0.228       80.719       18.773        0.054      336.700        8.178      867.868
01/13/2022  19:44:00      -84.492      -18.568       -4.335       83.169       76.725       43.863     6917.135     5886.788     1923.989        1.111        0.736       86.508       34.623        0.160      336.685        8.154      867.862
01/13/2022  19:45:00      -42.578      -28.285       -5.283       86.452       33.770       38.231     7473.919     1140.385     1461.623        0.636        0.504       51.117       32.151        0.396      336.621        8.047      867.888
01/13/2022  19:46:00     -143.026       -4.785       -6.949      123.903       66.766       53.271    15352.038     4457.649     2837.849        2.158        1.132      143.106       50.050        0.122      336.522        7.880      867.896
01/13/2022  19:47:00      -79.456       -5.810       -8.105       66.857       67.541       38.246     4469.800     4561.776     1462.729        0.845        0.525       79.668       26.688        0.112      336.554        7.935      867.908
01/13/2022  19:48:00      -69.709       62.489       -5.158       76.724       50.701       31.662     5886.526     2570.617     1002.467        0.912        0.473       93.617       29.365        0.098      336.510        7.859      867.959
01/13/2022  19:49:00     -133.135       36.664       -3.645      153.561       79.754       59.834    23581.026     6360.666     3580.140        2.630        1.676      138.091       55.045        0.159      336.515        7.867      867.989
01/13/2022  19:50:00      -80.092       37.234       -9.988       79.329       68.197       39.457     6293.027     4650.853     1556.841        1.020        0.625       88.324       34.536        0.153      336.500        7.843      868.001
01/13/2022  19:51:00      -73.589       -3.041        4.240       82.326       56.232       41.386     6777.511     3162.017     1712.791        0.855        0.583       73.651       30.699        0.174      336.520        7.877      868.009
01/13/2022  19:52:00     -163.595       38.614      -18.139       49.787       48.457       30.267     2478.741     2348.090      916.106        1.716        0.287      168.090       18.968        0.013      336.460        7.774      868.013
01/13/2022  19:53:00      -53.351        2.273       -1.475       45.482       43.867       29.803     2068.607     1924.271      888.193        0.387        0.244       53.399       20.069        0.141      336.479        7.810      868.023
01/13/2022  19:54:00       -8.368      -48.059       -7.243       51.226       64.335       37.366     2624.135     4138.980     1396.249        0.529        0.408       48.782       26.659        0.299      336.456        7.770      868.051
01/13/2022  19:55:00      -49.891      -41.264       -1.572       72.585       41.400       26.156     5268.516     1713.994      684.137        0.593        0.383       64.745       20.573        0.101      336.470        7.794      868.048
01/13/2022  19:56:00       -8.715      -18.421       -9.146       25.054       17.545       18.529      627.689      307.825      343.324        0.089        0.064       20.378       15.007        0.542      336.440        7.743      868.069
01/13/2022  19:57:00        9.108      -26.844      -20.545       26.016       30.963       16.516      676.850      958.706      272.767        0.157        0.095       28.347       12.057        0.181      336.427        7.724      868.088
01/13/2022  19:58:00       -9.456      -27.011       -5.125       27.630       13.874       18.816      763.436      192.494      354.048        0.108        0.065       28.618        5.731        0.040      336.507        7.856      868.135
01/13/2022  19:59:00      -25.670      -21.343       -9.437       18.790       15.020       14.008      353.053      225.612      196.219        0.099        0.039       33.384        4.908        0.022      336.532        7.897      868.170
01/13/2022  20:00:00       12.726      -16.278       -5.142       27.756       27.144       20.945      770.383      736.785      438.696        0.120        0.097       20.662       20.122        0.948      336.472        7.797      868.173
01/13/2022  20:01:00       81.468      -81.711      -31.174       45.126       64.764       33.993     2036.367     4194.396     1155.512        1.083        0.369      115.385       33.673        0.085      336.498        7.840      868.163
01/13/2022  20:02:00        3.685      -95.306      -42.312      104.943       57.969       48.892    11013.020     3360.385     2390.449        1.382        0.838       95.377       37.229        0.152      336.544        7.918      868.174
01/13/2022  20:03:00      -78.705      -13.068       11.728       51.066       53.808       44.004     2607.700     2895.341     1936.356        0.697        0.372       79.782       27.156        0.116      336.655        8.104      868.219
01/13/2022  20:04:00      -22.503       -1.013      -18.353       29.048       23.258       12.848      843.806      540.924      165.072        0.120        0.077       22.526        5.400        0.057      336.637        8.076      868.269
01/13/2022  20:05:00       34.418      -26.032      -22.741       34.756       22.676       28.130     1207.979      514.192      791.313        0.245        0.126       43.154       19.018        0.194      336.513        7.866      868.305
01/13/2022  20:06:00       55.093      -16.837      -39.133       28.949       35.557       23.544      838.046     1264.279      554.303        0.375        0.133       57.609       15.750        0.075      336.622        8.049      868.328
01/13/2022  20:07:00      119.050       -4.297      -20.910       51.224       44.256       26.361     2623.864     1958.629      694.882        0.995        0.264      119.127       21.602        0.033      336.299        7.507      868.340
01/13/2022  20:08:00       94.620       88.378      -20.586       59.486      108.518       29.018     3538.610    11776.222      842.021        1.667        0.808      129.475       17.321        0.018      336.230        7.390      868.354
01/13/2022  20:09:00       74.266      320.461      -31.930       72.054       79.545       36.425     5191.845     6327.346     1326.749        6.104        0.642      328.954       31.499        0.009      336.434        7.729      868.362
01/13/2022  20:10:00       -5.141      232.254      -22.879       72.595       60.330       33.900     5270.080     3639.650     1149.243        3.227        0.503      232.311       20.970        0.008      336.469        7.788      868.377
01/13/2022  20:11:00      -55.416      236.565      -19.971       76.158       89.402       42.244     5800.116     7992.699     1784.560        3.750        0.779      242.969       32.301        0.018      336.567        7.952      868.365
01/13/2022  20:12:00      -51.669      225.499      -21.847       65.892       88.794       44.463     4341.802     7884.427     1976.970        3.410        0.710      231.343       39.886        0.030      336.561        7.943      868.372
01/13/2022  20:13:00        8.683      295.002      -21.510       63.549       65.916       40.776     4038.522     4344.888     1662.664        4.880        0.502      295.130       36.893        0.016      336.373        7.627      868.372
01/13/2022  20:14:00      -46.653      310.910      -34.510       75.846       82.719       36.902     5752.570     6842.404     1361.770        5.699        0.698      314.390       27.331        0.008      336.446        7.749      868.365
01/13/2022  20:15:00       -1.152      282.032      -14.379       78.434       62.544       42.364     6151.953     3911.809     1794.707        4.580        0.593      282.034       39.227        0.019      336.430        7.720      868.363
01/13/2022  20:16:00      105.970      327.592      -31.126       63.986       59.776       33.257     4094.186     3573.155     1106.059        6.414        0.439      344.305       33.024        0.009      336.427        7.716      868.357
01/13/2022  20:17:00      104.134      343.282      -28.554       57.943       70.012       37.865     3357.354     4901.644     1433.749        6.960        0.485      358.729       38.636        0.012      336.409        7.688      868.347
01/13/2022  20:18:00       53.868      304.289      -17.942       60.866      100.717       43.488     3704.698    10143.978     1891.164        5.577        0.787      309.020       47.623        0.024      336.385        7.646      868.358
01/13/2022  20:19:00       21.443      311.482      -36.345       87.229       82.713       52.236     7608.963     6841.432     2728.596        5.799        0.859      312.219       37.798        0.015      336.448        7.752      868.369
01/13/2022  20:20:00      -39.295      198.367      -16.210       78.051      116.922       37.790     6091.883    13670.773     1428.066        3.117        1.060      202.221       43.315        0.046      336.434        7.730      868.379
01/13/2022  20:21:00      -42.409      195.144      -19.278       78.477       79.601       61.846     6158.623     6336.396     3824.938        2.828        0.816      199.699       52.414        0.069      336.445        7.749      868.391
01/13/2022  20:22:00      -29.578      354.612      -33.209       72.954       90.825       46.003     5322.227     8249.150     2116.305        7.170        0.784      355.844       39.703        0.012      336.345        7.581      868.393
01/13/2022  20:23:00      -47.343      210.656      -17.170       76.159       85.266       45.229     5800.195     7270.341     2045.642        3.101        0.756      215.910       44.151        0.042      336.402        7.677      868.383
01/13/2022  20:24:00      -19.998      227.948      -15.554       83.640       99.980       63.340     6995.701     9995.940     4011.897        3.680        1.050      228.824       49.829        0.047      336.358        7.603      868.385
01/13/2022  20:25:00      -14.287      273.527      -29.170       73.916       79.256       41.689     5463.543     6281.592     1738.000        4.468        0.674      273.900       31.843        0.014      336.332        7.559      868.388
01/13/2022  20:26:00      -19.630      259.928      -17.268       71.098       59.350       36.543     5054.875     3522.370     1335.362        3.908        0.496      260.668       29.232        0.013      336.304        7.510      868.374
01/13/2022  20:27:00       22.667      249.122      -20.114       81.782       89.751       45.087     6688.261     8055.284     2032.835        3.988        0.839      250.151       45.860        0.034      336.323        7.543      868.370
01/13/2022  20:28:00      -15.176      201.139      -27.986       60.326       79.545       42.838     3639.182     6327.477     1835.088        2.663        0.590      201.711       30.922        0.024      336.419        7.706      868.358
01/13/2022  20:29:00       36.341      214.965      -19.323       69.165       54.369       39.087     4783.861     2955.968     1527.776        2.858        0.463      218.015       34.367        0.025      336.302        7.510      868.336
01/13/2022  20:30:00        3.400      227.110      -21.292       83.430       50.433       43.540     6960.491     2543.461     1895.774        3.172        0.570      227.136       34.752        0.023      336.320        7.539      868.309
01/13/2022  20:31:00      -13.211      177.592      -19.186       57.776       68.865       40.531     3338.122     4742.330     1642.742        2.090        0.486      178.082       35.284        0.039      336.247        7.418      868.290
01/13/2022  20:32:00        8.964      160.465      -14.261       48.816       61.131       36.387     2383.036     3737.041     1324.030        1.674        0.372      160.715       33.361        0.043      336.230        7.390      868.283
01/13/2022  20:33:00       21.249      188.815      -14.989       70.841       67.161       34.536     5018.416     4510.635     1192.716        2.352        0.536      190.007       22.762        0.014      336.180        7.306      868.280
01/13/2022  20:34:00       17.752      164.737       -6.587       65.508       74.392       35.977     4291.347     5534.117     1294.333        1.931        0.556      165.691       34.566        0.044      336.185        7.316      868.277
01/13/2022  20:35:00       46.192      245.163      -24.929       75.808       68.294       42.585     5746.802     4664.010     1813.451        3.754        0.611      249.477       37.876        0.023      336.166        7.281      868.275
01/13/2022  20:36:00       54.690      258.261      -20.266       76.577       70.806       40.663     5864.102     5013.520     1653.470        4.131        0.627      263.988       40.790        0.024      336.165        7.280      868.268
01/13/2022  20:37:00       54.772      285.308      -25.390       55.928       69.155       35.869     3127.984     4782.398     1286.620        4.712        0.460      290.518       30.030        0.011      336.155        7.264      868.266
01/13/2022  20:38:00       24.190      211.111      -17.673       56.952       64.034       35.533     3243.557     4100.389     1262.627        2.703        0.430      212.492       34.800        0.027      336.144        7.247      868.262
01/13/2022  20:39:00       65.400      248.900      -26.619       61.694       51.878       32.962     3806.095     2691.342     1086.526        3.726        0.379      257.349       31.009        0.015      336.170        7.286      868.247
01/13/2022  20:40:00       96.992      205.133      -31.208       38.557       38.671       21.396     1486.644     1495.437      457.776        2.795        0.172      226.907       18.832        0.007      336.135        7.230      868.242
01/13/2022  20:41:00       83.065      185.604      -27.230       44.823       38.814       26.138     2009.061     1506.565      683.179        2.314        0.210      203.343       21.035        0.011      336.155        7.265      868.242
01/13/2022  20:42:00       89.460      146.682      -27.866       64.461       63.947       33.022     4155.245     4089.266     1090.465        1.981        0.467      171.810       22.529        0.017      336.087        7.151      868.261
01/13/2022  20:43:00       87.918      186.248      -19.913       72.995       76.666       45.000     5328.242     5877.619     2025.014        2.802        0.662      205.956       43.182        0.044      336.107        7.184      868.288
01/13/2022  20:44:00      132.028      255.982      -42.974       77.612       51.008       36.997     6023.595     2601.797     1368.766        4.740        0.500      288.025       36.184        0.016      336.179        7.301      868.319
01/13/2022  20:45:00      111.875      221.144      -27.586       65.769       64.735       39.987     4325.602     4190.594     1598.953        3.615        0.506      247.832       36.044        0.021      336.176        7.297      868.347
01/13/2022  20:46:00       83.667      151.116      -18.301       49.150       67.773       37.578     2415.747     4593.216     1412.096        1.929        0.421      172.732       31.570        0.033      336.123        7.213      868.361
01/13/2022  20:47:00       82.070       35.075      -24.550       43.005       79.358       27.758     1849.425     6297.760      770.533        0.874        0.446       89.251       22.788        0.065      336.097        7.169      868.361
01/13/2022  20:48:00      167.613       11.144      -14.176       71.771       73.186       41.644     5151.039     5356.233     1734.192        2.033        0.612      167.983       23.349        0.019      336.117        7.201      868.346
01/13/2022  20:49:00       80.950       49.325       -8.703       47.316       55.027       29.732     2238.795     3027.975      884.020        0.761        0.308       94.794       28.437        0.090      336.051        7.093      868.372
01/13/2022  20:50:00       98.736       56.067      -14.684       49.576       49.842       31.591     2457.748     2484.242      998.002        0.952        0.297      113.544       27.504        0.059      336.090        7.158      868.382
01/13/2022  20:51:00       87.624      100.277      -11.871       49.793       54.151       35.244     2479.384     2932.372     1242.154        1.226        0.333      133.167       22.431        0.028      336.077        7.136      868.408
01/13/2022  20:52:00       62.055      126.966      -18.714       63.073       61.109       33.292     3978.158     3734.316     1108.340        1.457        0.441      141.320       14.508        0.011      336.081        7.145      868.438
01/13/2022  20:53:00       50.102       88.275      -20.951       51.483       41.021       31.264     2650.479     1682.727      977.435        0.803        0.266      101.503       30.166        0.088      336.067        7.120      868.458
01/13/2022  20:54:00       15.698       11.745      -19.470       40.888       31.398       23.802     1671.854      985.827      566.512        0.199        0.161       19.605       10.470        0.285      336.091        7.161      868.466
01/13/2022  20:55:00       21.702       15.057       -5.542       32.118       26.532       13.437     1031.542      703.967      180.545        0.132        0.096       26.414        7.859        0.089      336.004        7.014      868.491
01/13/2022  20:56:00       -6.933       -0.404       -6.248       19.093        8.651       16.855      364.524       74.839      284.075        0.041        0.036        6.944       11.499        2.742      336.005        7.016      868.514
01/13/2022  20:57:00       -0.593       57.620      -18.440       26.197       36.390       18.063      686.269     1324.267      326.288        0.300        0.117       57.623       15.909        0.076      336.090        7.158      868.556
01/13/2022  20:58:00      -20.851      -12.879      -24.666       32.584       32.452       20.870     1061.728     1053.155      435.572        0.188        0.128       24.508        7.340        0.090      336.078        7.136      868.590
01/13/2022  20:59:00      -46.912      -14.403      -20.157       18.695       21.379       13.767      349.499      457.050      189.526        0.191        0.050       49.073       12.359        0.063      336.061        7.107      868.601
01/13/2022  21:00:00      -54.895       -5.139       -4.146       44.523       15.746       20.452     1982.276      247.932      418.281        0.285        0.132       55.135       18.819        0.117      336.049        7.089      868.607
01/13/2022  21:01:00      -23.991      -10.093       -8.398       37.707       18.989       14.559     1421.814      360.566      211.952        0.137        0.100       26.027       11.078        0.181      336.018        7.036      868.632
01/13/2022  21:02:00      -34.091      -14.608      -10.731       22.551       29.598       12.042      508.529      876.015      145.022        0.151        0.076       37.089        9.094        0.060      336.096        7.169      868.653
01/13/2022  21:03:00      -52.535       23.877      -13.524       16.658       13.985       11.511      277.476      195.570      132.497        0.206        0.030       57.707        4.848        0.007      336.056        7.101      868.676
01/13/2022  21:04:00      -18.535       -6.102      -14.362       16.627       26.342       12.149      276.452      693.883      147.606        0.085        0.056       19.514       10.657        0.298      336.048        7.087      868.695
01/13/2022  21:05:00      -25.979       31.433      -11.105       35.450       34.852       20.928     1256.737     1214.664      437.992        0.235        0.145       40.780        5.532        0.018      336.011        7.027      868.729
01/13/2022  21:06:00      -47.105        4.326       -7.653       26.706       30.701       23.704      713.234      942.533      561.887        0.226        0.111       47.303       18.770        0.157      335.993        6.997      868.752
01/13/2022  21:07:00      -92.526       63.199      -12.517       39.296       30.877       25.172     1544.155      953.389      633.632        0.792        0.157      112.050       19.361        0.030      336.159        7.274      868.778
01/13/2022  21:08:00      -85.930      101.133      -27.289       40.179       72.526       26.558     1614.319     5260.059      705.303        1.297        0.379      132.710       21.309        0.026      335.963        6.945      868.790
01/13/2022  21:09:00      -43.916       81.542       -7.330       45.393       43.816       30.844     2060.506     1919.866      951.368        0.678        0.247       92.616       26.783        0.084      336.135        7.232      868.794
01/13/2022  21:10:00      -53.705       47.229      -16.476       39.026       48.384       22.829     1523.023     2341.002      521.146        0.488        0.219       71.518       14.990        0.044      336.200        7.342      868.808
01/13/2022  21:11:00     -104.782       36.664      -20.949       60.563       47.583       29.352     3667.917     2264.167      861.563        0.978        0.340      111.011       27.788        0.063      335.908        6.855      868.809
01/13/2022  21:12:00      -93.702       33.362       -7.997       46.951       40.088       35.107     2204.413     1607.058     1232.479        0.750        0.252       99.464       32.183        0.105      335.858        6.773      868.819
01/13/2022  21:13:00     -108.940       99.940      -28.421       41.575       58.612       32.696     1728.463     3435.402     1069.043        1.445        0.312      147.837       16.925        0.013      335.876        6.801      868.824
01/13/2022  21:14:00      -74.944       64.357      -32.201       56.779       67.194       34.329     3223.842     4514.981     1178.452        0.985        0.446       98.785       23.731        0.058      335.805        6.681      868.821
01/13/2022  21:15:00      -66.334       67.614      -11.873       37.417       33.092       29.347     1400.018     1095.071      861.266        0.623        0.168       94.720       19.938        0.044      335.879        6.806      868.825
01/13/2022  21:16:00      -51.803      114.079       -1.189       43.770       75.316       35.520     1915.831     5672.443     1261.640        1.227        0.442      125.290       26.166        0.044      335.940        6.908      868.812
01/13/2022  21:17:00     -112.193      106.119      -25.628       56.991       74.540       34.428     3248.013     5556.208     1185.278        1.725        0.499      154.430       28.186        0.033      335.920        6.874      868.790
01/13/2022  21:18:00     -108.945      145.346      -11.657       50.129       57.096       38.356     2512.963     3259.900     1471.158        2.019        0.362      181.644       26.575        0.021      335.936        6.899      868.762
01/13/2022  21:19:00     -157.117       87.538      -34.085       85.978       44.349       40.524     7392.278     1966.793     1642.226        2.225        0.550      179.857       32.561        0.033      335.793        6.661      868.746
01/13/2022  21:20:00      -98.360       93.393      -37.277       70.085       75.216       48.790     4911.877     5657.382     2380.425        1.637        0.647      135.635       35.832        0.070      335.931        6.891      868.711
01/13/2022  21:21:00      -47.592       31.088      -15.237       54.313       55.279       42.413     2949.931     3055.748     1798.842        0.563        0.390       56.846       33.889        0.355      335.724        6.548      868.687
01/13/2022  21:22:00      -53.379       49.705      -36.212       55.860       67.789       33.944     3120.337     4595.387     1152.179        0.775        0.443       72.938       26.314        0.130      335.765        6.615      868.674
01/13/2022  21:23:00        4.791        1.171       -6.249       24.365       26.169       20.055      593.652      684.824      402.184        0.087        0.084        4.932       13.585        7.587      335.710        6.525      868.674
01/13/2022  21:24:00      -36.508       33.090       -0.220       47.516       26.206       27.534     2257.776      686.771      758.098        0.306        0.185       49.273       17.939        0.133      335.807        6.686      868.681
01/13/2022  21:25:00      -31.365        8.270       -6.220       47.390       35.300       27.647     2245.847     1246.066      764.338        0.267        0.213       32.437       29.279        0.815      335.661        6.441      868.708
01/13/2022  21:26:00       -8.815        4.845       -9.927       40.044       32.462       25.764     1603.508     1053.767      663.773        0.176        0.166       10.059       18.546        3.400      335.739        6.574      868.743
01/13/2022  21:27:00      -88.029       33.196      -21.065       27.715       36.140       23.363      768.101     1306.114      545.827        0.596        0.131       94.080       12.052        0.016      335.696        6.499      868.769
01/13/2022  21:28:00      -61.528       24.882      -12.715       72.850       35.847       29.050     5307.108     1284.992      843.879        0.600        0.372       66.369       34.247        0.266      335.624        6.380      868.788
01/13/2022  21:29:00      -77.280        3.520      -16.827       71.860       45.337       29.964     5163.860     2055.439      897.827        0.719        0.406       77.360       17.496        0.051      335.585        6.316      868.794
01/13/2022  21:30:00     -108.262       53.779      -22.498       66.057       41.051       32.037     4363.494     1685.188     1026.369        1.110        0.354      120.884       17.173        0.020      335.578        6.306      868.804
01/13/2022  21:31:00     -101.280       18.840      -13.036       82.721       41.371       31.928     6842.840     1711.553     1019.426        1.018        0.479      103.017       31.720        0.095      335.500        6.174      868.808
01/13/2022  21:32:00     -107.053       41.676      -12.365       54.178       37.712       25.585     2935.270     1422.201      654.602        0.918        0.251      114.880       28.188        0.060      335.523        6.214      868.814
01/13/2022  21:33:00     -111.871       31.626      -18.030       49.663       31.979       26.720     2466.378     1022.680      713.981        0.902        0.210      116.256       27.255        0.055      335.448        6.090      868.813
01/13/2022  21:34:00      -56.885       37.116      -13.728       38.952       36.788       24.749     1517.256     1353.327      612.496        0.414        0.174       67.922       22.796        0.113      335.558        6.272      868.813
01/13/2022  21:35:00      -47.031       96.707       -6.386       46.468       57.697       27.592     2159.255     3328.944      761.312        0.893        0.312      107.537       15.759        0.021      335.885        6.815      868.812
01/13/2022  21:36:00      -58.215       70.109       -8.644       51.313       40.838       28.395     2633.008     1667.773      806.285        0.674        0.255       91.128       19.909        0.048      335.867        6.786      868.814
01/13/2022  21:37:00      -46.644       99.671       -9.785       42.198       49.578       20.225     1780.679     2457.957      409.045        0.843        0.232      110.046       16.079        0.021      335.964        6.948      868.812
01/13/2022  21:38:00      -63.572       98.100      -21.043       39.623       57.921       28.279     1569.949     3354.785      799.687        0.992        0.286      116.898       25.587        0.048      335.914        6.867      868.804
01/13/2022  21:39:00     -103.120       92.450      -27.492       44.181       49.210       34.818     1951.961     2421.671     1212.271        1.276        0.279      138.495       26.509        0.037      335.745        6.583      868.811
01/13/2022  21:40:00      -94.407       49.833      -22.233       40.276       38.632       31.061     1622.162     1492.423      964.796        0.798        0.204      106.752       16.953        0.025      335.564        6.282      868.830
01/13/2022  21:41:00      -65.097       58.651       -9.224       52.550       45.363       29.780     2761.468     2057.842      886.838        0.673        0.285       87.621       25.013        0.081      335.574        6.301      868.848
01/13/2022  21:42:00      -57.575       79.115      -13.103       35.101       42.717       32.695     1232.113     1824.748     1068.939        0.693        0.206       97.847       12.015        0.015      335.714        6.531      868.865
01/13/2022  21:43:00      -46.550      116.642       -9.644       32.649       69.701       25.098     1065.988     4858.234      629.892        1.121        0.328      125.588       14.451        0.013      335.789        6.656      868.865
01/13/2022  21:44:00      -52.410      123.880      -13.850       40.871       82.356       29.948     1670.407     6782.456      896.854        1.382        0.467      134.511       27.540        0.042      335.895        6.831      868.868
01/13/2022  21:45:00      -61.145      182.902      -28.080       43.948       35.771       31.033     1931.439     1279.564      963.035        2.108        0.209      192.852       16.150        0.007      335.800        6.673      868.858
01/13/2022  21:46:00      -61.536      165.219       -9.497       29.407       55.841       33.805      864.768     3118.219     1142.806        1.815        0.256      176.307       32.913        0.035      335.823        6.712      868.838
01/13/2022  21:47:00      -44.563      136.260      -14.816       56.815       72.229       36.226     3227.976     5217.062     1312.336        1.526        0.488      143.362       29.373        0.042      335.786        6.651      868.830
01/13/2022  21:48:00      -77.222      114.602      -19.746       47.105       66.207       38.301     2218.885     4383.432     1466.971        1.378        0.403      138.191       25.607        0.034      335.753        6.595      868.821
01/13/2022  21:49:00      -43.966      162.480      -11.735       54.277       62.576       36.270     2946.000     3915.737     1315.487        1.832        0.409      168.324       28.949        0.030      335.700        6.507      868.816
01/13/2022  21:50:00      -42.798      212.306      -18.041       37.881       39.549       25.843     1434.955     1564.109      667.844        2.545        0.183      216.577       18.157        0.007      335.788        6.652      868.815
01/13/2022  21:51:00        1.637      156.156      -16.687       52.036       37.874       27.120     2707.792     1434.429      735.504        1.477        0.244      156.165       22.852        0.021      335.771        6.626      868.815
01/13/2022  21:52:00      -31.815      110.538      -18.654       53.596       54.956       34.138     2872.514     3020.199     1165.418        1.032        0.353      115.025       21.690        0.036      335.677        6.470      868.808
01/13/2022  21:53:00      -48.127      130.142      -16.132       66.985       50.450       34.788     4487.030     2545.235     1210.237        1.388        0.412      138.756       23.777        0.029      335.672        6.462      868.806
01/13/2022  21:54:00      -60.252       31.978       -4.352       41.143       40.294       31.107     1692.709     1623.606      967.671        0.448        0.214       68.212       12.601        0.034      335.476        6.135      868.820
01/13/2022  21:55:00     -121.722       26.382      -29.384       38.191       38.667       35.723     1458.580     1495.102     1276.118        1.030        0.211      124.548       25.676        0.043      335.338        5.904      868.829
01/13/2022  21:56:00      -99.402       28.005      -24.983       34.535       28.420       20.312     1192.686      807.721      412.581        0.685        0.121      103.272       18.390        0.032      335.264        5.781      868.846
01/13/2022  21:57:00      -40.005       18.006      -13.446       34.537       23.618       18.067     1192.817      557.803      326.416        0.209        0.104       43.870       16.567        0.143      335.256        5.768      868.863
01/13/2022  21:58:00      -25.057        4.924       -2.108       32.147       15.548       13.902     1033.453      241.735      193.263        0.106        0.073       25.536       12.466        0.238      335.236        5.733      868.888
01/13/2022  21:59:00      -35.962        3.204      -12.111       42.684       27.904       21.668     1821.884      778.618      469.512        0.226        0.154       36.104        6.055        0.028      335.295        5.835      868.916
01/13/2022  22:00:00      -27.756       -6.137       -9.658       42.334       28.364       26.452     1792.164      804.500      699.696        0.210        0.165       28.427       15.992        0.316      335.208        5.687      868.932
01/13/2022  22:01:00      -97.184      -20.610       -9.147       53.812       46.068       31.994     2895.732     2122.285     1023.613        0.800        0.302       99.346       25.139        0.064      335.260        5.775      868.933
01/13/2022  22:02:00      -89.505        8.982       -2.627       85.927       43.370       30.211     7383.418     1880.937      912.717        0.914        0.509       89.955       35.795        0.158      335.242        5.743      868.928
01/13/2022  22:03:00        3.727       23.601       -9.273       42.816       36.983       27.491     1833.233     1367.711      755.773        0.231        0.198       23.893       18.302        0.587      335.196        5.668      868.920
01/13/2022  22:04:00      -49.786       16.683      -10.466       31.801       29.102       18.864     1011.309      846.936      355.854        0.254        0.111       52.507       16.200        0.095      335.127        5.556      868.914
01/13/2022  22:05:00      -30.643       22.609      -13.257       21.678       15.685       12.038      469.932      246.015      144.924        0.124        0.043       38.081        4.516        0.014      335.118        5.541      868.906
01/13/2022  22:06:00      -59.256       21.395       -5.798       38.482       14.843       14.075     1480.837      220.318      198.110        0.295        0.095       63.000        4.175        0.004      335.166        5.619      868.915
01/13/2022  22:07:00      -69.182       29.653      -17.734       27.651       24.536       18.722      764.583      602.020      350.509        0.385        0.086       75.269       13.326        0.031      335.248        5.755      868.902
01/13/2022  22:08:00      -62.795       31.332       -8.284       28.471       25.363       15.595      810.605      643.274      243.216        0.334        0.085       70.177       10.530        0.023      335.120        5.543      868.903
01/13/2022  22:09:00      -62.497       38.574       -8.395       22.539       25.528       20.565      507.998      651.695      422.926        0.352        0.079       73.443        9.095        0.015      335.152        5.596      868.895
01/13/2022  22:10:00      -50.991       24.885      -10.291       21.541       23.576       20.771      464.026      555.830      431.451        0.239        0.073       56.739       16.497        0.085      335.280        5.809      868.899
01/13/2022  22:11:00      -45.001        5.823       -6.438       28.106       14.367       16.284      789.941      206.424      265.163        0.168        0.063       45.377       16.508        0.132      335.205        5.682      868.904
01/13/2022  22:12:00        0.923        8.211       -7.541       37.643       26.334       21.031     1416.974      693.495      442.312        0.134        0.128        8.262       10.776        1.701      335.156        5.600      868.911
01/13/2022  22:13:00       27.393        5.641       -4.256       38.720       30.447       20.780     1499.262      927.000      431.811        0.183        0.143       27.967       15.996        0.327      334.785        4.987      868.915
01/13/2022  22:14:00       28.218       -6.148      -23.648       26.621       30.867       18.117      708.669      952.760      328.225        0.169        0.099       28.880       10.175        0.124      334.784        4.984      868.927
01/13/2022  22:15:00      -43.917      -24.944       -8.212       31.872       20.173       15.519     1015.828      406.944      240.826        0.214        0.083       50.506       14.887        0.087      335.000        5.343      868.936
01/13/2022  22:16:00      -17.201      -20.812       -5.485       26.466       30.769       13.713      700.463      946.753      188.052        0.130        0.092       27.000        3.041        0.013      334.823        5.050      868.942
01/13/2022  22:17:00      -57.445       22.025       -9.159       12.844       14.200       11.366      164.960      201.650      129.178        0.218        0.025       61.522        6.362        0.011      334.689        4.826      868.947
01/13/2022  22:18:00      -39.214       12.367       -8.534       10.066       12.403       10.600      101.324      153.823      112.366        0.107        0.018       41.118        6.265        0.023      334.589        4.659      868.947
01/13/2022  22:19:00      -25.482       17.354       -5.786        8.092       12.261        9.320       65.488      150.343       86.866        0.064        0.015       30.830        2.527        0.007      334.571        4.628      868.969
01/13/2022  22:20:00       10.568       35.068       -6.598       13.193       13.623        9.058      174.060      185.591       82.054        0.091        0.022       36.626       10.307        0.079      334.713        4.866      869.005
01/13/2022  22:21:00       30.374       30.787       -8.583       14.127       11.860        6.336      199.560      140.650       40.140        0.116        0.019       43.249        2.713        0.004      334.721        4.879      869.045
01/13/2022  22:22:00       42.083        4.154      -12.913       14.531       21.806        8.679      211.155      475.508       75.319        0.136        0.038       42.287        8.552        0.041      334.634        4.734      869.081
01/13/2022  22:23:00       62.549        5.435      -18.724       35.305       39.168       19.398     1246.416     1534.093      376.299        0.372        0.158       62.785       18.301        0.085      334.525        4.554      869.104
01/13/2022  22:24:00       35.492      -27.204      -15.168       28.336       34.418       30.061      802.934     1184.592      903.661        0.256        0.145       44.719       12.452        0.078      334.723        4.885      869.114
01/13/2022  22:25:00       74.661      -73.016      -18.971       56.369       46.182       32.301     3177.502     2132.772     1043.324        0.881        0.318      104.430       27.133        0.068      335.088        5.491      869.124
01/13/2022  22:26:00       98.194      -99.629      -25.209       58.106       42.302       29.173     3376.282     1789.452      851.045        1.311        0.301      139.886       27.056        0.037      335.093        5.499      869.123
01/13/2022  22:27:00       29.091     -102.050      -12.385       30.453       31.888       27.209      927.384     1016.823      740.315        0.705        0.134      106.115       23.872        0.051      335.189        5.658      869.119
01/13/2022  22:28:00      -20.628      -21.490      -12.188       30.244       34.798       19.473      914.712     1210.897      379.179        0.177        0.125       29.788        8.133        0.075      334.842        5.080      869.115
01/13/2022  22:29:00      -59.237       10.005       -4.266       42.483       21.278       21.289     1804.775      452.756      453.228        0.317        0.136       60.076       15.108        0.063      334.621        4.715      869.123
01/13/2022  22:30:00      -31.847       14.034       -4.603       23.550       21.351       15.775      554.602      455.881      248.841        0.125        0.063       34.802        8.323        0.057      334.642        4.749      869.120
01/13/2022  22:31:00      -53.605      -16.644        2.963       40.129       27.275       25.531     1610.302      743.928      651.811        0.308        0.150       56.129       16.277        0.084      334.592        4.664      869.115
01/13/2022  22:32:00      -71.340      -24.505       -4.123       64.232       46.549       28.004     4125.687     2166.835      784.231        0.639        0.354       75.431       24.668        0.107      334.739        4.911      869.110
01/13/2022  22:33:00      -83.800      -24.152       -6.268       69.936       44.715       26.675     4891.018     1999.437      711.568        0.762        0.380       87.211       24.366        0.078      334.644        4.751      869.110
01/13/2022  22:34:00     -133.849      -24.559      -12.884       71.807       41.503       35.116     5156.212     1722.472     1233.114        1.340        0.406      136.083       34.308        0.064      334.588        4.658      869.094
01/13/2022  22:35:00     -117.364      -11.405      -14.999       56.870       40.991       35.543     3234.150     1680.254     1263.290        1.015        0.309      117.917       24.320        0.043      334.586        4.656      869.085
01/13/2022  22:36:00      -99.395      -14.825      -17.837       57.310       43.545       34.247     3284.446     1896.177     1172.852        0.838        0.318      100.495       21.495        0.046      334.553        4.599      869.071
01/13/2022  22:37:00     -107.454       -8.658       -5.201       62.411       50.409       36.566     3895.111     2541.079     1337.076        0.971        0.389      107.802       33.069        0.094      334.514        4.536      869.073
01/13/2022  22:38:00      -75.242       -4.613        1.260       73.286       28.923       28.095     5370.786      836.556      789.327        0.634        0.350       75.383       32.302        0.184      334.459        4.446      869.098
01/13/2022  22:39:00       -3.283      -11.301       -1.147       25.096       30.253       16.992      629.793      915.242      288.738        0.099        0.092       11.769        7.180        0.372      334.520        4.545      869.132
01/13/2022  22:40:00      -62.497       29.706       -7.284       24.894       19.502       16.899      619.708      380.347      285.588        0.306        0.064       69.198       15.212        0.048      334.274        4.138      869.178
01/13/2022  22:41:00      -64.340       48.620      -14.188       21.942       26.583       20.509      481.443      706.676      420.604        0.416        0.080       80.645       13.430        0.028      334.283        4.154      869.223
01/13/2022  22:42:00      -61.368       27.919      -19.822       18.094       23.758       20.734      327.399      564.439      429.889        0.313        0.066       67.420       10.946        0.026      334.265        4.123      869.269
01/13/2022  22:43:00      -31.390      -15.275      -18.931       31.440       25.648       15.352      988.481      657.810      235.685        0.173        0.094       34.909       16.153        0.214      334.122        3.886      869.294
01/13/2022  22:44:00        1.935      -11.001       -6.705        9.814       18.890       13.760       96.322      356.840      189.333        0.041        0.032       11.170        5.132        0.211      334.118        3.879      869.306
01/13/2022  22:45:00      -32.258       23.212       -8.232       36.532       23.197       15.525     1334.569      538.102      241.038        0.188        0.106       39.742       15.893        0.160      334.206        4.026      869.302
01/13/2022  22:46:00      -95.357       56.575      -16.785       25.804       17.502       15.114      665.843      306.322      228.441        0.689        0.060      110.877       14.288        0.017      334.121        3.884      869.296
01/13/2022  22:47:00     -119.574       20.536      -17.555       56.552       32.661       29.599     3198.088     1066.743      876.084        1.008        0.257      121.324       25.060        0.043      334.028        3.730      869.277
01/13/2022  22:48:00      -92.355       44.401      -11.665       86.975       42.867       27.477     7564.666     1837.553      754.990        1.040        0.508      102.474       32.609        0.101      334.058        3.779      869.264
01/13/2022  22:49:00      -93.753       23.817      -20.411       50.990       28.816       21.338     2600.030      830.363      455.330        0.683        0.194       96.731       22.243        0.053      334.005        3.693      869.256
01/13/2022  22:50:00      -72.662       33.425       -5.071       47.537       28.924       21.413     2259.786      836.584      458.496        0.499        0.178       79.981       20.160        0.064      334.032        3.737      869.265
01/13/2022  22:51:00      -95.622       24.031      -13.065       42.764       35.733       23.668     1828.783     1276.857      560.176        0.678        0.183       98.595       16.443        0.028      334.105        3.858      869.281
01/13/2022  22:52:00      -95.466       43.436      -19.215       51.376       34.565       25.102     2639.533     1194.714      630.104        0.792        0.223      104.883       18.549        0.031      334.092        3.837      869.309
01/13/2022  22:53:00      -20.784      -16.086      -26.009       36.330       28.134       20.652     1319.879      791.522      426.505        0.195        0.127       26.282       15.588        0.352      333.969        3.634      869.328
01/13/2022  22:54:00      -74.264       37.941      -11.578       51.507       32.412       32.616     2652.987     1050.548     1063.771        0.593        0.238       83.395       22.279        0.071      333.938        3.581      869.333
01/13/2022  22:55:00      -75.581       36.211      -10.702       38.472       31.138       18.361     1480.062      969.545      337.114        0.496        0.139       83.808       15.535        0.034      333.938        3.580      869.332
01/13/2022  22:56:00      -96.620       33.782      -22.905       42.857       30.170       21.199     1836.682      910.207      449.401        0.710        0.160      102.356       10.601        0.011      333.991        3.671      869.333
01/13/2022  22:57:00      -81.527       42.819      -16.931       43.442       30.647       22.474     1887.192      939.209      505.101        0.605        0.167       92.088       21.758        0.056      333.966        3.629      869.329
01/13/2022  22:58:00      -43.110       40.698      -15.224       30.197       27.156       17.396      911.862      737.452      302.620        0.285        0.098       59.286       15.509        0.068      334.350        4.264      869.310
01/13/2022  22:59:00      -64.478       16.976      -20.224       32.370       23.675       17.385     1047.826      560.493      302.234        0.338        0.096       66.675       13.238        0.039      334.015        3.710      869.297
01/13/2022  23:00:00      -66.765       13.413      -18.656       30.968       31.120       19.201      959.023      968.431      368.673        0.364        0.115       68.099       14.319        0.044      333.717        3.216      869.273
01/13/2022  23:01:00      -81.905       28.853       -6.329       46.931       26.987       20.936     2202.508      728.324      438.330        0.547        0.168       86.838       19.500        0.050      333.768        3.301      869.262
01/13/2022  23:02:00      -98.898       60.222      -16.438       30.986       26.584       24.451      960.108      706.689      597.842        0.797        0.113      115.790       12.557        0.012      333.832        3.405      869.268
01/13/2022  23:03:00      -99.485       97.171      -17.851       33.449       48.439       28.386     1118.867     2346.334      805.789        1.196        0.214      139.066       23.845        0.029      334.285        4.158      869.280
01/13/2022  23:04:00      -48.837       96.101      -13.831       45.475       61.111       27.934     2067.949     3734.503      780.300        0.920        0.329      107.799       28.196        0.068      334.636        4.739      869.287
01/13/2022  23:05:00      -27.572       74.366       -7.423       33.231       52.875       25.797     1104.289     2795.813      665.475        0.545        0.228       79.313       22.581        0.081      334.640        4.746      869.272
01/13/2022  23:06:00      -63.199       14.023       -3.391       44.655       33.794       25.723     1994.081     1142.062      661.683        0.400        0.190       64.736       25.092        0.150      334.490        4.495      869.239
01/13/2022  23:07:00      -76.522       19.664      -21.439       40.810       41.971       32.587     1665.478     1761.556     1061.938        0.559        0.224       79.008       26.726        0.114      334.374        4.304      869.210
01/13/2022  23:08:00     -105.557       80.061      -15.179       47.985       29.484       25.918     2302.598      869.310      671.753        1.081        0.192      132.484       17.673        0.018      334.409        4.362      869.200
01/13/2022  23:09:00      -98.844       74.833      -23.923       39.533       44.382       25.492     1562.838     1969.784      649.833        1.006        0.209      123.976       14.703        0.014      334.491        4.497      869.207
01/13/2022  23:10:00     -116.836       90.607      -29.362       26.760       41.682       22.037      716.096     1737.384      485.648        1.283        0.147      147.852        8.209        0.003      334.577        4.640      869.236
01/13/2022  23:11:00     -106.255       47.425      -11.459       46.525       39.087       37.565     2164.533     1527.774     1411.099        0.939        0.255      116.358       28.449        0.060      334.452        4.433      869.259
01/13/2022  23:12:00     -105.026       42.962      -35.881       40.975       37.559       29.679     1678.967     1410.680      880.829        0.907        0.199      113.473       15.115        0.018      334.449        4.430      869.259
01/13/2022  23:13:00      -15.357       35.237      -10.007       67.813       37.037       36.941     4598.584     1371.747     1364.659        0.445        0.367       38.438       42.737        1.236      334.519        4.547      869.237
01/13/2022  23:14:00      -89.657       19.219      -23.470       49.810       36.886       33.143     2481.030     1360.591     1098.468        0.695        0.247       91.694       27.080        0.087      334.463        4.450      869.214
01/13/2022  23:15:00     -126.599       23.046       -4.737       66.744       30.746       31.840     4454.718      945.320     1013.795        1.150        0.321      128.679       26.318        0.042      334.325        4.223      869.196
01/13/2022  23:16:00     -107.063       28.247      -15.043       51.117       35.326       27.362     2612.975     1247.941      748.670        0.855        0.230      110.727       27.720        0.063      334.351        4.266      869.184
01/13/2022  23:17:00      -71.857      108.551      -23.326       34.071       45.653       30.887     1160.816     2084.154      953.987        1.084        0.210      130.179       19.812        0.023      334.492        4.501      869.177
01/13/2022  23:18:00      -75.796       71.229      -11.249       52.580       34.408       25.895     2764.675     1183.926      670.526        0.778        0.231      104.012       25.665        0.061      334.502        4.515      869.185
01/13/2022  23:19:00      -61.349      102.406       -8.717       48.359       60.307       33.681     2338.577     3636.969     1134.389        1.072        0.355      119.376       12.125        0.010      334.527        4.559      869.212
01/13/2022  23:20:00      -26.074      166.119       -6.105       55.169       59.473       32.135     3043.641     3537.035     1032.626        1.796        0.381      168.153       23.512        0.020      334.682        4.814      869.250
01/13/2022  23:21:00      -42.643      169.573      -27.868       53.301       42.010       30.447     2840.981     1764.870      927.029        1.844        0.277      174.853       18.479        0.011      334.768        4.959      869.286
01/13/2022  23:22:00      -27.947      107.024       -3.769       50.199       50.118       28.316     2519.983     2511.828      801.814        0.904        0.292      110.613       28.165        0.065      334.759        4.944      869.313
01/13/2022  23:23:00       18.079      149.412      -20.057       66.481       82.596       27.894     4419.769     6822.053      778.085        1.753        0.601      150.502       28.610        0.036      334.843        5.082      869.339
01/13/2022  23:24:00       54.798      194.010      -10.937       50.408       68.141       35.125     2540.927     4643.242     1233.748        2.459        0.421      201.601       37.775        0.035      334.804        5.016      869.346
01/13/2022  23:25:00       59.686      184.903      -16.728       52.999       61.992       39.028     2808.909     3843.058     1523.173        2.310        0.409      194.297       35.645        0.034      334.810        5.025      869.345
01/13/2022  23:26:00       -1.196      148.824        0.284       71.943       66.182       45.391     5175.833     4380.040     2060.378        1.688        0.581      148.829       40.516        0.074      334.786        4.988      869.359
01/13/2022  23:27:00       18.869      168.185      -25.199       63.922       50.718       36.133     4085.964     2572.315     1305.558        1.862        0.398      169.240       28.964        0.029      334.837        5.074      869.369
01/13/2022  23:28:00       27.700      129.887      -21.064       37.956       39.091       24.359     1440.657     1528.135      593.351        1.082        0.178      132.808       20.146        0.023      334.748        4.925      869.353
01/13/2022  23:29:00      -19.077       96.271      -11.018       33.589       43.493       28.508     1128.221     1891.676      812.713        0.679        0.192       98.143       19.505        0.039      334.745        4.921      869.338
01/13/2022  23:30:00      -27.197      123.813      -15.776       53.847       80.629       33.678     2899.505     6501.065     1134.198        1.342        0.527      126.765       19.947        0.025      334.787        4.990      869.323
01/13/2022  23:31:00      -21.380      100.101      -24.526       65.432       56.803       31.983     4281.352     3226.622     1022.914        0.980        0.427      102.358        8.389        0.007      334.795        5.004      869.307
01/13/2022  23:32:00      -43.764       41.213      -18.198       31.905       43.624       22.854     1017.947     1903.073      522.316        0.369        0.172       60.115        8.553        0.020      334.793        5.000      869.300
01/13/2022  23:33:00      -84.855       59.184      -13.225       46.263       34.638       22.534     2140.264     1199.797      507.772        0.736        0.192      103.456        7.784        0.006      334.769        4.960      869.289
01/13/2022  23:34:00      -16.439       39.443      -15.685       38.352       36.088       18.931     1470.879     1302.348      358.370        0.260        0.157       42.731       13.244        0.096      334.757        4.941      869.288
01/13/2022  23:35:00      -62.610        7.990       -9.529       33.358       23.319       15.095     1112.737      543.788      227.862        0.298        0.094       63.118        8.621        0.019      334.712        4.866      869.291
01/13/2022  23:36:00      -52.431       12.456       -3.834       52.402       26.983       20.678     2745.923      728.069      427.568        0.341        0.195       53.891       14.781        0.075      334.514        4.536      869.305
01/13/2022  23:37:00      -54.114        5.458       -7.145       46.341       27.959       26.908     2147.504      781.700      724.061        0.333        0.183       54.389       23.497        0.187      334.655        4.771      869.312
01/13/2022  23:38:00      -48.370       43.086       -0.385       79.826       62.238       32.530     6372.146     3873.623     1058.213        0.775        0.565       64.776       17.261        0.071      334.794        5.003      869.323
01/13/2022  23:39:00       -7.048       -0.528        0.793       22.072       35.995       27.620      487.180     1295.629      762.867        0.130        0.127        7.068       18.575        6.907      334.672        4.798      869.318
01/13/2022  23:40:00      -61.857      -19.642      -24.240       33.521       23.055       21.075     1123.634      531.515      444.167        0.345        0.105       64.900       10.687        0.027      334.815        5.036      869.314
01/13/2022  23:41:00      -43.795      -15.024       -4.815       28.568       21.645       17.399      816.119      468.522      302.721        0.188        0.079       46.300       14.654        0.100      334.731        4.897      869.315
01/13/2022  23:42:00      -50.944      -13.266      -21.997       37.078       33.465       20.060     1374.756     1119.918      402.412        0.308        0.145       52.643        6.967        0.018      334.577        4.640      869.316
01/13/2022  23:43:00      -79.409      -13.559      -10.645       55.090       38.412       25.636     3034.953     1475.478      657.209        0.588        0.258       80.558       29.133        0.131      334.231        4.067      869.320
01/13/2022  23:44:00      -59.674      -59.053      -23.765       51.131       53.712       35.460     2614.368     2884.940     1257.430        0.718        0.338       83.954       22.174        0.070      333.996        3.677      869.323
01/13/2022  23:45:00      -72.376      -49.727      -12.144       57.219       48.286       39.407     3274.050     2331.493     1552.917        0.751        0.358       87.813       27.532        0.098      333.906        3.529      869.313
01/13/2022  23:46:00      -55.121      -13.075       -5.333       58.592       76.498       29.426     3433.033     5852.014      865.905        0.669        0.508       56.651       28.025        0.245      333.776        3.312      869.301
01/13/2022  23:47:00     -172.265      -36.673      -10.414       92.990       55.112       42.209     8647.102     3037.285     1781.599        2.229        0.673      176.125       32.547        0.034      333.592        3.007      869.291
01/13/2022  23:48:00     -127.355       -4.700      -17.240       85.332       41.070       38.377     7281.479     1686.737     1472.828        1.349        0.522      127.442       31.620        0.062      333.734        3.244      869.281
01/13/2022  23:49:00     -101.208       -1.735       -0.224       64.232       46.707       36.497     4125.784     2181.549     1332.016        0.894        0.382      101.223       24.837        0.060      333.705        3.196      869.287
01/13/2022  23:50:00     -102.706       22.272       -3.108       44.466       34.623       28.124     1977.224     1198.739      790.932        0.751        0.198      105.093       14.130        0.018      333.786        3.329      869.287
01/13/2022  23:51:00     -157.967      -96.440      -19.194       67.359       90.311       30.736     4537.275     8156.056      944.684        2.413        0.682      185.079       28.073        0.023      333.833        3.404      869.295
01/13/2022  23:52:00      -66.399      -33.129      -23.891       49.755       55.567       28.923     2475.536     3087.679      836.548        0.624        0.320       74.205       27.471        0.137      334.001        3.685      869.319
01/13/2022  23:53:00        8.247       13.217      -10.939       40.556       43.580       41.278     1644.755     1899.242     1703.896        0.280        0.262       15.579       35.948        5.325      333.937        3.581      869.359
01/13/2022  23:54:00      -26.964       25.228       -3.427       23.022       21.035       14.168      529.995      442.468      200.723        0.127        0.059       36.925        6.188        0.028      333.771        3.304      869.408
01/13/2022  23:55:00       -0.625       26.459       -2.881       12.776       20.261       12.465      163.220      410.489      155.378        0.072        0.036       26.466        5.580        0.044      333.602        3.026      869.468
01/13/2022  23:56:00      -99.109      -70.312      -17.232       50.060       57.543       21.388     2505.987     3311.193      457.452        1.067        0.314      121.517       23.081        0.036      333.912        3.538      869.495
01/13/2022  23:57:00     -132.197     -141.791      -37.635       66.726       67.266       44.529     4452.390     4524.699     1982.837        2.498        0.548      193.858       20.809        0.012      334.030        3.733      869.480
01/13/2022  23:58:00      -45.710      -44.849      -19.109       56.601       61.135       34.552     3203.695     3737.437     1193.844        0.630        0.407       64.038       23.500        0.135      333.810        3.369      869.496
01/13/2022  23:59:00      -74.221       -8.545       -2.801       50.424       72.495       38.141     2542.613     5255.574     1454.718        0.742        0.463       74.712       25.223        0.114      333.921        3.554      869.495
01/14/2022  00:00:00     -116.264       24.520       -4.632       68.787       62.041       37.110     4731.675     3849.098     1377.184        1.205        0.498      118.821       29.725        0.063      333.847        3.430      869.493
01/14/2022  00:01:00     -149.150        1.763       -4.205       61.268       41.947       29.184     3753.761     1759.589      851.699        1.431        0.318      149.161       26.285        0.031      333.716        3.211      869.508
01/14/2022  00:02:00     -141.743      -13.893       -2.165      126.959       61.834       50.476    16118.635     3823.422     2547.857        2.139        1.124      142.422       56.263        0.156      333.681        3.153      869.518
01/14/2022  00:03:00     -229.769       -6.671        0.999      112.222       61.055       54.337    12593.708     3727.730     2952.521        3.605        0.964      229.866       55.483        0.058      333.709        3.199      869.508
01/14/2022  00:04:00     -212.553      -12.090        7.871      101.512       61.108       48.656    10304.693     3734.198     2367.364        3.089        0.820      212.896       45.965        0.047      334.000        3.681      869.498
01/14/2022  00:05:00     -206.346       23.275      -10.997      122.739       63.091       41.508    15064.779     3980.431     1722.940        3.200        1.038      207.655       44.672        0.046      333.901        3.517      869.521
01/14/2022  00:06:00     -165.206      -14.993       -7.542      139.516       59.609       58.533    19464.798     3553.255     3426.130        2.700        1.322      165.884       69.109        0.174      334.111        3.866      869.484
01/14/2022  00:07:00     -110.355        1.685       -0.925      109.902       78.086       63.344    12078.354     6097.375     4012.502        1.718        1.109      110.368       41.643        0.142      334.160        3.948      869.477
01/14/2022  00:08:00     -116.268       21.582      -22.834       91.994       55.606       42.498     8462.895     3092.053     1806.064        1.393        0.668      118.255       26.639        0.051      334.178        3.979      869.488
01/14/2022  00:09:00     -183.399       85.759       -4.419       69.940       68.390       40.972     4891.644     4677.236     1678.697        2.613        0.562      202.459       30.296        0.022      333.917        3.544      869.501
01/14/2022  00:10:00     -161.289       69.616      -11.364       57.419       52.524       32.113     3296.986     2758.731     1031.250        1.904        0.354      175.671       30.961        0.031      333.911        3.534      869.501
01/14/2022  00:11:00     -152.045       62.380      -13.329       43.892       49.513       33.159     1926.502     2451.526     1099.506        1.633        0.274      164.344       20.671        0.016      333.865        3.460      869.517
01/14/2022  00:12:00     -144.160       48.823       -6.357       52.152       44.113       28.206     2719.796     1945.933      795.593        1.433        0.273      152.203       23.655        0.024      333.821        3.386      869.520
01/14/2022  00:13:00     -130.098       48.559       -0.413       86.592       48.274       32.982     7498.206     2330.336     1087.796        1.510        0.546      138.865       44.139        0.101      333.807        3.363      869.535
01/14/2022  00:14:00     -101.006       48.958       -9.223       58.339       43.733       32.519     3403.425     1912.534     1057.484        0.953        0.319      112.245       27.088        0.058      333.759        3.284      869.528
01/14/2022  00:15:00     -132.367       39.519       -5.444       71.106       51.754       36.227     5056.063     2678.511     1312.371        1.408        0.452      138.140       28.700        0.043      333.724        3.226      869.525
01/14/2022  00:16:00     -170.078       70.349      -20.382       46.741       44.337       27.685     2184.704     1965.813      766.471        1.960        0.246      184.053       19.868        0.012      333.823        3.390      869.529
01/14/2022  00:17:00     -132.830       76.326      -22.949       46.551       47.904       27.786     2167.037     2294.793      772.043        1.461        0.262      153.197       20.313        0.018      333.848        3.433      869.511
01/14/2022  00:18:00      -98.195       68.110      -21.295       63.570       80.069       45.570     4041.128     6411.075     2076.618        1.363        0.626      119.504       41.157        0.119      333.878        3.482      869.486
01/14/2022  00:19:00     -139.951       35.761      -47.319       61.776       63.285       45.605     3816.304     4004.964     2079.802        1.650        0.495      144.448       26.599        0.034      333.936        3.576      869.460
01/14/2022  00:20:00      -45.227       24.113      -20.723       61.932       54.036       44.912     3835.579     2919.855     2017.103        0.591        0.439       51.253       43.123        0.708      333.907        3.531      869.452
01/14/2022  00:21:00     -103.277       68.563      -16.521       54.369       58.006       36.286     2956.042     3364.678     1316.689        1.164        0.382      123.964       27.364        0.049      334.049        3.764      869.453
01/14/2022  00:22:00      -95.822       55.879      -21.170       48.235       41.486       36.134     2326.603     1721.093     1305.669        0.905        0.268      110.925       31.567        0.081      334.056        3.778      869.457
01/14/2022  00:23:00      -55.932       88.724      -13.749       54.818       64.668       39.517     3004.972     4181.916     1561.591        0.997        0.437      104.882       17.782        0.029      334.139        3.914      869.466
01/14/2022  00:24:00      -59.102       72.008       -8.449       43.493       60.465       35.955     1891.617     3656.017     1292.744        0.779        0.342       93.156       30.679        0.108      334.187        3.992      869.468
01/14/2022  00:25:00      -70.903       68.136      -12.641       50.475       39.018       30.360     2547.700     1522.396      921.707        0.741        0.250       98.335       21.938        0.050      334.186        3.993      869.485
01/14/2022  00:26:00      -60.153       30.227      -10.183       53.615       36.862       34.765     2874.612     1358.793     1208.638        0.504        0.272       67.321       31.749        0.222      334.154        3.939      869.501
01/14/2022  00:27:00       16.481       35.986       -7.235       43.794       25.481       27.203     1917.932      649.283      740.025        0.246        0.165       39.581       12.172        0.095      334.113        3.870      869.526
01/14/2022  00:28:00       23.506       32.471       -4.031       30.369       23.386       17.251      922.294      546.910      297.597        0.169        0.088       40.086       13.940        0.121      334.153        3.937      869.567
01/14/2022  00:29:00       21.972       15.243       -4.908       17.874       28.144       19.078      319.471      792.068      363.956        0.111        0.074       26.742        8.367        0.098      334.001        3.685      869.622
01/14/2022  00:30:00       78.387       18.386      -17.384       31.647       23.617       19.192     1001.507      557.765      368.324        0.436        0.096       80.514       12.519        0.024      333.843        3.425      869.671
01/14/2022  00:31:00       46.742      -25.606      -15.987       39.263       43.871       33.039     1541.607     1924.633     1091.546        0.383        0.228       53.296       23.212        0.190      333.801        3.354      869.719
01/14/2022  00:32:00       45.769      -11.630       -2.813       32.271       21.927       20.909     1041.414      480.805      437.166        0.210        0.098       47.223       21.281        0.203      333.782        3.322      869.753
01/14/2022  00:33:00       63.680        6.869       -8.931       13.851       11.795        9.747      191.863      139.123       95.001        0.230        0.021       64.050        4.800        0.006      333.911        3.539      869.773
01/14/2022  00:34:00       18.242        1.180       -9.083        9.685        5.992        6.192       93.804       35.906       38.341        0.029        0.008       18.280        2.585        0.020      333.997        3.679      869.769
01/14/2022  00:35:00       12.682        1.963       -4.750        7.552        4.459        3.709       57.035       19.882       13.760        0.014        0.005       12.833        2.396        0.035      334.104        3.856      869.773
01/14/2022  00:36:00       10.944       11.196       -5.427        4.205        7.305        6.255       17.682       53.370       39.131        0.019        0.006       15.657        3.155        0.041      334.121        3.884      869.777
01/14/2022  00:37:00       42.937       30.547      -13.003       31.385       15.610       14.929      985.001      243.686      222.867        0.220        0.073       52.695       11.432        0.047      334.208        4.028      869.792
01/14/2022  00:38:00       -6.170       26.219       -8.425       27.980       28.030       18.224      782.882      785.664      332.122        0.135        0.095       26.935       16.024        0.354      334.294        4.170      869.796
01/14/2022  00:39:00      -20.688      109.912      -15.322       34.959       22.893       22.157     1222.136      524.083      490.915        0.749        0.112      111.842       18.413        0.027      334.386        4.325      869.807
01/14/2022  00:40:00      -15.870      115.382      -27.827       20.424       34.697       18.179      417.147     1203.877      330.488        0.814        0.098      116.468       15.580        0.018      334.325        4.223      869.813
01/14/2022  00:41:00      -34.515       40.113       -9.732       30.970       21.979       17.853      959.133      483.091      318.739        0.233        0.088       52.918        9.599        0.033      334.263        4.120      869.806
01/14/2022  00:42:00      -19.292       62.696      -14.315       17.116       22.225       15.764      292.955      493.943      248.492        0.277        0.052       65.597        9.259        0.020      334.423        4.383      869.809
01/14/2022  00:43:00       22.926       36.003       -8.987       23.568       17.878       15.024      555.451      319.606      225.709        0.150        0.055       42.683       12.340        0.084      334.360        4.280      869.828
01/14/2022  00:44:00       61.984       33.227       -8.534       22.463       16.539       14.898      504.581      273.528      221.957        0.301        0.050       70.328        9.171        0.017      334.285        4.156      869.841
01/14/2022  00:45:00       49.481       38.696      -11.617       17.629       17.977       13.282      310.778      323.179      176.423        0.245        0.041       62.816        7.626        0.015      334.222        4.053      869.862
01/14/2022  00:46:00        1.872       -7.585      -31.558       33.674       32.944       16.514     1133.911     1085.298      272.710        0.177        0.125        7.813       16.444        4.430      334.077        3.812      869.854
01/14/2022  00:47:00      -29.965      -17.426       -7.788       40.402       38.050       21.702     1632.312     1447.775      470.961        0.241        0.178       34.664       10.524        0.092      333.866        3.462      869.842
01/14/2022  00:48:00      -37.069       -0.039       -8.510       24.489       36.170       20.658      599.700     1308.280      426.772        0.189        0.117       37.069       16.375        0.195      333.791        3.338      869.825
01/14/2022  00:49:00      -91.651      -84.877       -9.808       74.086       74.819       39.639     5488.806     5597.896     1571.255        1.418        0.633      124.916       32.684        0.068      333.473        2.810      869.803
01/14/2022  00:50:00      -87.705      -75.562      -21.485       55.283       50.796       36.219     3056.156     2580.250     1311.799        1.040        0.347      115.766       26.246        0.051      333.353        2.612      869.787
01/14/2022  00:51:00      -63.429      -47.122      -16.647       51.633       36.574       36.494     2665.991     1337.682     1331.791        0.593        0.267       79.017       24.194        0.094      333.456        2.784      869.793
01/14/2022  00:52:00      -77.631      -61.845      -16.939       51.288       65.325       31.272     2630.424     4267.319      977.912        0.901        0.394       99.254       24.579        0.061      333.318        2.555      869.812
01/14/2022  00:53:00     -116.883      -99.733      -15.993       50.358       44.954       27.444     2535.936     2020.840      753.194        1.459        0.265      153.650       17.173        0.012      333.254        2.448      869.830
01/14/2022  00:54:00      -66.122        1.153      -13.070       44.328       54.876       29.557     1964.959     3011.394      873.637        0.520        0.292       66.132       20.109        0.092      333.271        2.476      869.867
01/14/2022  00:55:00      -79.327      -17.977      -11.058       45.626       47.453       27.429     2081.766     2251.752      752.343        0.591        0.254       81.339       22.684        0.078      333.172        2.314      869.888
01/14/2022  00:56:00      -82.589        2.420       -3.232       48.529       41.477       22.320     2355.047     1720.338      498.176        0.570        0.229       82.624       10.908        0.017      333.133        2.247      869.898
01/14/2022  00:57:00      -86.820       -3.391       -1.144       50.757       43.546       27.590     2576.291     1896.261      761.204        0.639        0.262       86.886       23.760        0.075      333.164        2.300      869.902
01/14/2022  00:58:00      -70.705       -2.055       -3.144       55.977       37.697       27.256     3133.424     1421.051      742.880        0.515        0.265       70.735       28.932        0.167      333.149        2.276      869.906
01/14/2022  00:59:00      -93.699       -9.719       -6.488       39.203       27.516       19.142     1536.891      757.107      366.399        0.579        0.133       94.202       15.560        0.027      333.041        2.098      869.921
01/14/2022  01:00:00      -56.826        3.779      -15.297       31.817       28.636       19.718     1012.318      820.008      388.789        0.285        0.111       56.951       13.576        0.057      333.103        2.199      869.931
01/14/2022  01:01:00      -75.177       23.538      -13.744       44.714       29.685       16.763     1999.343      881.208      281.012        0.478        0.158       78.776       14.709        0.035      333.026        2.074      869.961
01/14/2022  01:02:00      -53.077       32.847       -4.631       21.714       19.525       18.397      471.495      381.236      338.465        0.255        0.060       62.418       16.592        0.071      333.342        2.596      870.011
01/14/2022  01:03:00      -37.221       51.559       -7.229       18.716       11.225        8.700      350.271      126.009       75.686        0.232        0.028       63.590        5.698        0.008      333.340        2.592      870.055
01/14/2022  01:04:00      -36.403       25.119      -18.259       10.960       13.769        7.096      120.114      189.576       50.358        0.132        0.018       44.228        5.864        0.018      333.223        2.398      870.072
01/14/2022  01:05:00      -41.056       27.839      -14.894       20.096       12.129        8.018      403.860      147.115       64.293        0.165        0.031       49.605        8.369        0.028      333.370        2.639      870.083
01/14/2022  01:06:00      -66.756        5.592      -16.516       22.388       19.056       15.654      501.212      363.112      245.035        0.293        0.055       66.990        8.356        0.016      333.131        2.245      870.090
01/14/2022  01:07:00      -70.802      -11.793      -27.036       26.173       20.292       21.806      685.017      411.766      475.486        0.373        0.079       71.777       14.877        0.043      332.958        1.960      870.076
01/14/2022  01:08:00      -14.572      -23.962       -7.476       38.522       23.485       18.922     1483.912      551.547      358.027        0.162        0.120       28.045       13.134        0.219      333.064        2.137      870.100
01/14/2022  01:09:00       -2.305       -8.106       -7.450       22.097       13.084       15.541      488.281      171.184      241.534        0.051        0.045        8.427       11.135        1.746      333.285        2.500      870.152
01/14/2022  01:10:00        5.030      -12.082       -3.415       26.434       16.281       22.082      698.742      265.058      487.593        0.082        0.073       13.087       11.635        0.790      333.292        2.514      870.209
01/14/2022  01:11:00       -2.264      -27.141       -4.725       25.220       25.091       13.283      636.028      629.570      176.429        0.110        0.072       27.235       10.555        0.150      333.248        2.440      870.264
01/14/2022  01:12:00      -28.217       16.597       -6.704       10.764       12.716       11.165      115.856      161.691      124.652        0.076        0.020       32.736        3.922        0.014      333.265        2.466      870.292
01/14/2022  01:13:00       17.271       11.664       -6.158       17.485        8.610        7.654      305.716       74.131       58.581        0.046        0.022       20.841        4.214        0.041      333.266        2.470      870.311
01/14/2022  01:14:00       33.961       29.640       -8.008       14.475        8.744       11.072      209.512       76.459      122.580        0.125        0.020       45.077        9.199        0.042      332.882        1.834      870.323
01/14/2022  01:15:00      -23.794       12.283       -6.118       11.395       11.363       11.332      129.838      129.126      128.407        0.057        0.019       26.777        5.067        0.036      332.997        2.025      870.349
01/14/2022  01:16:00       -4.673      -26.075      -11.569       11.761        9.771        8.255      138.311       95.464       68.148        0.057        0.015       26.490        3.569        0.018      333.173        2.313      870.362
01/14/2022  01:17:00     -105.942       31.873      -20.561       43.928       32.652       20.045     1929.650     1066.146      401.807        0.803        0.170      110.633       19.644        0.032      332.969        1.978      870.384
01/14/2022  01:18:00     -111.906       14.444       -5.351       29.909       28.147       21.548      894.525      792.255      464.301        0.746        0.108      112.834       18.303        0.026      332.881        1.833      870.398
01/14/2022  01:19:00      -33.841       13.302        5.011       36.286       27.156       19.594     1316.709      737.425      383.930        0.189        0.122       36.362       14.567        0.160      332.935        1.922      870.387
01/14/2022  01:20:00      -64.077        9.551       -3.461       42.979       28.826       23.327     1847.235      830.935      544.141        0.372        0.161       64.785       21.424        0.109      332.890        1.848      870.392
01/14/2022  01:21:00      -28.692       -1.951       -3.312       34.995       21.159       19.365     1224.676      447.702      375.009        0.144        0.102       28.759       20.262        0.496      332.957        1.959      870.374
01/14/2022  01:22:00       -9.486       34.190      -15.371       50.746       50.643       28.142     2575.206     2564.693      791.988        0.371        0.297       35.482       29.344        0.684      333.292        2.513      870.380
01/14/2022  01:23:00      -13.164       12.034       -3.574       47.401       30.671       34.783     2246.828      940.724     1209.823        0.236        0.220       17.835       21.054        1.393      333.474        2.814      870.393
01/14/2022  01:24:00        9.179       24.230      -11.396       12.641       17.667       13.239      159.806      312.128      175.270        0.072        0.032       25.911        8.302        0.103      333.657        3.116      870.443
01/14/2022  01:25:00        5.906       -0.996       -8.745       14.627       34.456       19.784      213.942     1187.237      391.413        0.095        0.090        5.989       13.087        4.775      333.507        2.867      870.510
01/14/2022  01:26:00       12.217       13.735      -12.731       12.557       19.956       16.818      157.688      398.246      282.833        0.067        0.042       18.382        9.368        0.260      333.301        2.526      870.562
01/14/2022  01:27:00       -7.121       -5.638       -2.592       13.042        9.695       10.558      170.104       94.001      111.479        0.023        0.019        9.082        6.179        0.463      333.444        2.763      870.604
01/14/2022  01:28:00      -45.446       -5.163      -17.974       38.397       16.361       23.934     1474.338      267.689      572.860        0.236        0.116       45.738       26.314        0.331      333.150        2.276      870.626
01/14/2022  01:29:00     -111.972      -16.028       -9.081       53.269       29.291       30.272     2837.561      857.974      916.365        0.874        0.231      113.114       20.263        0.032      333.041        2.097      870.635
01/14/2022  01:30:00      -91.678       -4.328      -12.686       37.611       32.429       30.387     1414.585     1051.647      923.354        0.599        0.169       91.780       16.110        0.031      333.341        2.595      870.643
01/14/2022  01:31:00      -52.899       -6.255        4.769       46.634       33.885       23.053     2174.702     1148.170      531.426        0.336        0.193       53.268       19.290        0.131      333.181        2.329      870.646
01/14/2022  01:32:00      -33.466       -3.461       -4.106       28.646       20.414       19.725      820.588      416.739      389.095        0.139        0.081       33.645       16.030        0.227      333.288        2.505      870.676
01/14/2022  01:33:00      -43.013      -26.875       -6.139       27.044       32.664       19.594      731.364     1066.911      383.928        0.240        0.109       50.719       10.546        0.043      333.223        2.398      870.696
01/14/2022  01:34:00      -73.269      -37.320      -15.791       49.088       41.711       29.588     2409.645     1739.769      875.451        0.602        0.251       82.226        6.173        0.006      333.209        2.375      870.698
01/14/2022  01:35:00      -64.851      -50.219       -9.270       42.194       41.798       17.366     1780.337     1747.058      301.584        0.532        0.191       82.021        9.561        0.014      333.320        2.558      870.725
01/14/2022  01:36:00      -28.451       -8.769      -11.177       19.683       19.496       12.558      387.405      380.094      157.705        0.097        0.046       29.772        4.393        0.022      333.279        2.490      870.765
01/14/2022  01:37:00      -70.285       35.869       -6.725       50.863       32.497       20.376     2587.072     1056.075      415.177        0.516        0.203       78.909       15.474        0.038      333.007        2.041      870.791
01/14/2022  01:38:00     -101.762        8.850       -5.121       42.772       41.068       22.182     1829.420     1686.591      492.034        0.723        0.200      102.146       22.590        0.049      332.873        1.820      870.816
01/14/2022  01:39:00      -45.515       -3.047       -9.622       55.510       30.618       17.040     3081.364      937.473      290.364        0.324        0.215       45.617       15.794        0.120      333.141        2.262      870.837
01/14/2022  01:40:00      -67.760       20.325       -9.257       37.241       30.542       15.195     1386.927      932.816      230.892        0.382        0.128       70.743       13.090        0.034      333.071        2.145      870.857
01/14/2022  01:41:00      -28.076       27.838      -14.966       23.359       51.919       15.379      545.659     2695.538      236.509        0.263        0.174       39.538       15.323        0.150      333.317        2.553      870.879
01/14/2022  01:42:00      -27.257       -0.001      -14.047       29.774       30.419       22.920      886.464      925.317      525.326        0.164        0.117       27.257       18.386        0.455      333.399        2.689      870.897
01/14/2022  01:43:00        0.085      -13.391       -9.251        7.874        8.426       11.058       61.994       71.005      122.284        0.026        0.013       13.391        5.234        0.153      333.919        3.550      870.926
01/14/2022  01:44:00        4.744      -11.482      -12.130       24.654       25.625       18.792      607.809      656.648      353.125        0.096        0.081       12.423       11.346        0.834      333.724        3.228      870.973
01/14/2022  01:45:00       45.015       -0.552       -6.329       54.654       32.751       25.894     2987.048     1072.650      670.483        0.340        0.237       45.018       17.421        0.150      332.953        1.952      871.006
01/14/2022  01:46:00        2.605       17.312      -12.243       47.691       35.238       24.006     2274.416     1241.722      576.291        0.227        0.205       17.507       10.938        0.390      332.721        1.568      871.028
01/14/2022  01:47:00        5.022      -44.195      -12.110       25.909       63.873       17.752      671.277     4079.700      315.138        0.359        0.253       44.479       26.494        0.355      332.842        1.768      871.055
01/14/2022  01:48:00       38.680      -82.164      -27.190       33.574       30.759       14.983     1127.224      946.126      224.493        0.564        0.115       90.813        9.822        0.012      332.923        1.903      871.087
01/14/2022  01:49:00      -37.980      -21.136      -22.803       34.638       28.246       23.494     1199.825      797.818      551.958        0.248        0.127       43.465       18.156        0.174      332.940        1.930      871.126
01/14/2022  01:50:00      -17.813       17.548        2.971       32.518       24.771       19.728     1057.417      613.616      389.213        0.135        0.103       25.005       15.105        0.365      332.807        1.712      871.179
01/14/2022  01:51:00      -30.667        7.354       -2.633       30.379       29.743       13.838      922.868      884.617      191.502        0.150        0.100       31.537       13.635        0.187      332.843        1.771      871.230
01/14/2022  01:52:00       -9.882       16.970       -9.715       28.752       23.042       10.365      826.688      530.956      107.435        0.097        0.073       19.638        3.307        0.028      332.763        1.637      871.284
01/14/2022  01:53:00      -16.742      -22.892      -12.230       21.544       16.044       14.029      464.133      257.424      196.823        0.094        0.046       28.360       10.630        0.140      332.722        1.571      871.309
01/14/2022  01:54:00       -9.471       -2.967       -4.638       15.988       17.915       17.288      255.617      320.953      298.883        0.050        0.044        9.925        9.440        0.905      332.681        1.501      871.318
01/14/2022  01:55:00       -0.913       -8.565      -18.340       18.386       21.474       13.050      338.031      461.124      170.299        0.069        0.048        8.613        4.381        0.259      332.771        1.651      871.325
01/14/2022  01:56:00      -17.477       -1.135       -6.660       20.640       18.695       17.547      425.989      349.511      307.912        0.072        0.054       17.514        6.426        0.135      332.662        1.471      871.344
01/14/2022  01:57:00      -48.172      -17.609      -12.873       24.705       18.853       16.246      610.345      355.426      263.944        0.201        0.061       51.290       11.871        0.054      332.664        1.476      871.375
01/14/2022  01:58:00      -74.106      -15.939      -12.399       23.319       17.273       10.008      543.762      298.354      100.155        0.342        0.047       75.800        8.613        0.013      332.739        1.598      871.416
01/14/2022  01:59:00      -35.474        4.878       -0.805       31.454       13.583       14.761      989.355      184.493      217.880        0.134        0.070       35.808       16.136        0.203      332.730        1.583      871.447
01/14/2022  02:00:00      -45.407       -2.675       -9.958       53.302       21.631       18.725     2841.103      467.902      350.643        0.291        0.183       45.486       12.012        0.070      332.632        1.422      871.479
01/14/2022  02:01:00      -28.957       -6.853       -1.776       39.818       19.407       20.971     1585.461      376.644      439.801        0.164        0.120       29.756       24.836        0.697      332.610        1.386      871.492
01/14/2022  02:02:00      -22.352        9.883       -2.822       19.570       12.908       11.068      382.985      166.608      122.495        0.064        0.034       24.440        9.650        0.156      332.524        1.241      871.511
01/14/2022  02:03:00      -32.015        1.311       -6.157       23.246       22.167       11.483      540.371      491.387      131.861        0.111        0.058       32.042        7.524        0.055      332.628        1.414      871.520
01/14/2022  02:04:00      -25.503       -1.117       -2.832       21.587       15.014       13.404      465.998      225.432      179.669        0.077        0.044       25.528       11.428        0.200      332.598        1.364      871.459
01/14/2022  02:05:00      -23.625       -2.741       -3.119       41.898       18.961       17.604     1755.461      359.537      309.906        0.150        0.121       23.784       18.275        0.590      332.492        1.191      871.451
01/14/2022  02:06:00      -61.098       -0.364       -1.088       47.786       27.706       20.724     2283.462      767.631      429.471        0.361        0.174       61.099       19.281        0.100      332.502        1.205      871.445
01/14/2022  02:07:00      -86.037       13.345       -5.892       38.800       32.232       20.401     1505.442     1038.891      416.182        0.529        0.148       87.066       12.766        0.021      332.484        1.176      871.443
01/14/2022  02:08:00      -88.679       -8.451       -6.975       30.975       37.001       19.393      959.451     1369.087      376.095        0.534        0.135       89.081       17.843        0.040      332.439        1.102      871.446
01/14/2022  02:09:00      -53.319       -3.901       -1.052       49.682       32.567       20.518     2468.315     1060.603      420.986        0.340        0.197       53.461       21.762        0.166      332.446        1.114      871.447
01/14/2022  02:10:00      -52.041        3.477       -2.640       24.872       24.135       19.226      618.601      582.494      369.632        0.215        0.079       52.157       13.202        0.064      332.401        1.040      871.447
01/14/2022  02:11:00      -94.531       -0.302       -2.202       34.443       31.076       19.547     1186.295      965.706      382.068        0.574        0.127       94.531       18.375        0.038      332.488        1.183      871.452
01/14/2022  02:12:00     -107.842       18.879       -5.017       24.075       18.930       17.069      579.582      358.341      291.366        0.662        0.061      109.482       11.237        0.011      332.519        1.235      871.453
01/14/2022  02:13:00      -71.129       13.820       -9.101       31.152       20.272       19.313      970.442      410.951      372.979        0.354        0.088       72.459       15.881        0.048      332.528        1.248      871.455
01/14/2022  02:14:00      -89.287      -13.233      -13.764       30.917       21.679       17.885      955.844      469.968      319.858        0.504        0.087       90.263        9.506        0.011      332.617        1.396      871.446
01/14/2022  02:15:00      -36.531      -16.041       -4.155       43.245       26.339       17.988     1870.144      693.735      323.561        0.225        0.144       39.897       22.449        0.317      332.587        1.348      871.450
01/14/2022  02:16:00      -34.703       -3.138        2.021       27.278       26.624       17.005      744.098      708.834      289.170        0.148        0.087       34.845       13.894        0.159      332.598        1.365      871.460
01/14/2022  02:17:00      -23.867      -17.281       -9.821       25.162       23.695       12.504      633.148      561.466      156.348        0.116        0.068       29.467        4.781        0.026      332.665        1.477      871.463
01/14/2022  02:18:00      -51.673        5.403       -3.277       42.260       35.956       20.797     1785.883     1292.848      432.505        0.311        0.176       51.955       16.880        0.106      332.743        1.605      871.454
01/14/2022  02:19:00      -14.016      -13.479        0.060       25.062       21.519       20.152      628.101      463.082      406.091        0.094        0.075       19.446       17.330        0.794      332.714        1.557      871.459
01/14/2022  02:20:00        1.248       -5.232        8.882       24.173       20.896       17.547      584.354      436.659      307.889        0.072        0.066        5.379        9.732        3.274      332.731        1.585      871.478
01/14/2022  02:21:00     -133.461       11.846      -10.644       52.941       40.884       30.256     2802.753     1671.495      915.412        1.173        0.269      133.986       19.001        0.020      332.507        1.213      871.512
01/14/2022  02:22:00     -156.763       21.878       -3.215       52.983       40.079       30.384     2807.184     1606.338      923.166        1.520        0.267      158.282       22.299        0.020      332.381        1.006      871.550
01/14/2022  02:23:00      -87.194       32.176      -11.178       33.611       24.078       24.137     1129.731      579.729      582.594        0.553        0.115       92.941       14.560        0.025      332.358        0.968      871.576
01/14/2022  02:24:00      -57.236       14.122        2.303       45.161       41.846       26.316     2039.496     1751.103      692.526        0.398        0.224       58.952       21.252        0.130      332.355        0.962      871.592
01/14/2022  02:25:00      -79.069       21.781       -9.351       44.231       28.155       22.469     1956.397      792.722      504.835        0.503        0.163       82.014       14.433        0.031      332.370        0.989      871.599
01/14/2022  02:26:00     -105.223       18.035      -16.976       33.067       27.488       24.678     1093.395      755.567      608.993        0.707        0.123      106.757       18.538        0.030      332.402        1.041      871.600
01/14/2022  02:27:00      -77.069        4.640      -10.033       72.405       26.075       28.031     5242.435      679.921      785.735        0.638        0.335       77.209       36.683        0.226      332.288        0.853      871.605
01/14/2022  02:28:00     -102.393       38.462      -11.047       45.159       37.149       26.411     2039.366     1380.037      697.566        0.810        0.206      109.378       22.701        0.043      332.229        0.754      871.594
01/14/2022  02:29:00      -87.672       36.714       -2.558       39.560       30.064       21.524     1565.023      903.830      463.265        0.599        0.147       95.049       19.038        0.040      332.190        0.690      871.579
01/14/2022  02:30:00      -88.233       50.458       -1.830       41.898       33.126       26.594     1755.450     1097.329      707.222        0.695        0.178      101.642       22.547        0.049      332.165        0.649      871.576
01/14/2022  02:31:00      -69.883       21.665       -5.042       35.758       25.647       19.759     1278.668      657.754      390.414        0.385        0.116       73.164       18.720        0.065      332.152        0.628      871.578
01/14/2022  02:32:00      -87.196       33.737       -5.211       26.824       23.581       20.342      719.529      556.072      413.815        0.523        0.084       93.495       15.274        0.027      332.222        0.744      871.578
01/14/2022  02:33:00      -83.136        9.539      -14.317       32.979       28.837       20.818     1087.590      831.595      433.374        0.478        0.118       83.681       17.133        0.042      332.358        0.968      871.572
01/14/2022  02:34:00      -84.695       33.484      -14.286       21.917       16.118       15.859      480.370      259.802      251.498        0.474        0.050       91.074       12.033        0.017      332.263        0.812      871.575
01/14/2022  02:35:00      -79.744       15.693       -6.723       16.078       18.774       13.271      258.514      352.461      176.118        0.372        0.039       81.274        7.244        0.008      332.360        0.970      871.591
01/14/2022  02:36:00      -72.927       30.686       -3.185       19.300       16.050       15.427      372.496      257.606      237.984        0.357        0.043       79.120       10.529        0.018      332.343        0.944      871.610
01/14/2022  02:37:00     -114.151       37.424       -8.731       35.494       29.103       18.984     1259.805      846.968      360.381        0.849        0.123      120.129       18.794        0.024      332.314        0.896      871.632
01/14/2022  02:38:00     -150.038       25.374      -11.756       25.044       24.817       20.456      627.200      615.872      418.458        1.248        0.083      152.168       14.739        0.009      332.306        0.882      871.641
01/14/2022  02:39:00     -111.041       25.941       -4.313       44.203       31.848       30.525     1953.895     1014.289      931.792        0.846        0.195      114.031       25.636        0.051      332.269        0.822      871.642
01/14/2022  02:40:00      -74.349       33.957        0.669       56.467       35.130       23.589     3188.484     1234.096      556.455        0.583        0.249       81.737       17.905        0.048      332.165        0.649      871.657
01/14/2022  02:41:00     -126.416       55.952        0.714       61.245       39.510       32.746     3750.914     1561.043     1072.316        1.275        0.319      138.245       31.605        0.052      332.322        0.907      871.671
01/14/2022  02:42:00     -116.305       59.214      -16.609       50.502       31.647       28.852     2550.440     1001.542      832.417        1.085        0.219      130.511       24.428        0.035      332.321        0.907      871.664
01/14/2022  02:43:00     -114.704       47.287      -18.702       38.348       31.941       28.242     1470.551     1020.211      797.619        0.952        0.164      124.069       18.549        0.022      332.338        0.935      871.647
01/14/2022  02:44:00     -126.096       71.258       -7.743       46.324       33.165       24.583     2145.917     1099.892      604.316        1.244        0.193      144.838       19.786        0.019      332.303        0.877      871.635
01/14/2022  02:45:00     -107.302       66.020       -9.711       40.437       29.215       22.096     1635.186      853.533      488.235        0.947        0.149      125.985       16.556        0.017      332.346        0.951      871.650
01/14/2022  02:46:00      -72.738       51.260      -14.855       30.840       31.111       15.780      951.094      967.919      249.007        0.515        0.108       88.986       12.907        0.021      332.469        1.153      871.675
01/14/2022  02:47:00      -43.545        0.969       -8.853       30.899       28.198       20.599      954.728      795.145      424.313        0.207        0.109       43.556       12.635        0.084      332.626        1.411      871.716
01/14/2022  02:48:00      -49.764        7.568      -10.820       26.226       18.913       13.053      687.789      357.699      170.372        0.193        0.061       50.336       10.845        0.046      332.614        1.392      871.741
01/14/2022  02:49:00      -32.978        0.392      -13.952       18.545       10.504       12.234      343.910      110.344      149.669        0.094        0.030       32.980        7.674        0.054      332.592        1.356      871.763
01/14/2022  02:50:00       -3.418       11.300       -8.337       12.290        6.268        8.254      151.046       39.292       68.125        0.023        0.013       11.806        9.042        0.587      332.543        1.275      871.769
01/14/2022  02:51:00       31.194       35.736      -15.405       19.498       29.780       18.944      380.161      886.853      358.862        0.206        0.081       47.436       12.337        0.068      332.556        1.297      871.772
01/14/2022  02:52:00       -5.563      -37.372       -5.018       41.826       34.633       28.522     1749.386     1199.429      813.533        0.261        0.188       37.783       18.223        0.233      332.467        1.149      871.773
01/14/2022  02:53:00      -17.716        2.801       -5.705       24.377       26.931       16.065      594.222      725.291      258.077        0.097        0.079       17.936       10.805        0.363      332.387        1.016      871.785
01/14/2022  02:54:00      -43.607       -9.720       -7.805       28.224       16.049       15.802      796.580      257.580      249.701        0.168        0.065       44.678       15.043        0.113      332.254        0.794      871.785
01/14/2022  02:55:00      -37.749       -8.408       -6.017       20.083       14.747       12.242      403.319      217.461      149.874        0.115        0.039       38.674       11.976        0.096      332.174        0.664      871.808
01/14/2022  02:56:00      -32.272        5.471       -9.148       24.526       13.850       13.967      601.509      191.823      195.077        0.107        0.049       32.732        9.963        0.093      332.183        0.678      871.842
01/14/2022  02:57:00      -63.560       21.546      -13.604       16.927       14.041       10.571      286.540      197.161      111.757        0.264        0.030       67.113        6.112        0.008      332.202        0.710      871.880
01/14/2022  02:58:00      -66.650       26.268      -14.279        7.903        8.373        6.273       62.451       70.106       39.353        0.275        0.009       71.639        3.427        0.002      332.353        0.961      871.899
01/14/2022  02:59:00      -34.382      -14.689       -6.332       20.610       15.452       14.617      424.768      238.777      213.647        0.116        0.044       37.388       13.898        0.138      332.340        0.937      871.897
01/14/2022  03:00:00       -9.595       -9.853       -7.121        9.603        9.516        9.122       92.222       90.559       83.214        0.025        0.013       13.754        4.265        0.096      332.572        1.324      871.897
01/14/2022  03:01:00       -3.825      -13.252       -0.191        8.386       15.267       15.203       70.318      233.068      231.122        0.036        0.027       13.793        5.409        0.154      332.466        1.146      871.913
01/14/2022  03:02:00       23.210       14.145       -6.282       22.014       12.928        9.631      484.595      167.140       92.766        0.076        0.037       27.180        8.870        0.106      332.339        0.937      871.952
01/14/2022  03:03:00       12.887       34.329       -7.211       20.226        7.939        7.432      409.108       63.025       55.237        0.096        0.026       36.668        8.418        0.053      332.144        0.616      871.980
01/14/2022  03:04:00      -51.905       22.548      -14.964       28.177       10.127        9.918      793.924      102.557       98.364        0.221        0.050       56.591        4.276        0.006      332.337        0.933      871.982
01/14/2022  03:05:00      -72.628       67.821      -13.887       11.884       16.688        9.373      141.219      278.494       87.854        0.529        0.025       99.371        8.115        0.007      332.178        0.670      871.969
01/14/2022  03:06:00      -90.882       43.527      -18.444       17.854       14.489       10.344      318.770      209.931      107.005        0.556        0.032      100.768        2.956        0.001      332.046        0.453      871.946
01/14/2022  03:07:00      -92.414       29.922      -11.943       24.426       17.482       15.514      596.645      305.613      240.691        0.536        0.057       97.137       12.072        0.015      332.059        0.475      871.916
01/14/2022  03:08:00      -81.333       29.285       -8.128       35.946       22.934       17.045     1292.084      525.966      290.526        0.482        0.105       86.445       11.322        0.017      332.091        0.528      871.901
01/14/2022  03:09:00      -97.057       11.728      -13.680       31.065       22.306       22.800      965.033      497.576      519.822        0.586        0.099       97.763       12.096        0.015      332.102        0.546      871.904
01/14/2022  03:10:00     -134.093       31.688       -5.672       33.803       25.664       18.920     1142.642      658.640      357.975        1.059        0.108      137.787       14.107        0.010      332.094        0.534      871.914
01/14/2022  03:11:00     -129.626       44.491       -6.756       39.390       25.439       19.716     1551.535      647.152      388.719        1.071        0.129      137.049       20.258        0.022      332.041        0.446      871.934
01/14/2022  03:12:00     -113.711       35.014       -6.661       31.420       24.724       17.129      987.195      611.278      293.398        0.805        0.095      118.979        7.937        0.004      332.002        0.381      871.953
01/14/2022  03:13:00     -107.361       20.177      -12.700       36.751       33.570       24.926     1350.640     1126.916      621.305        0.760        0.155      109.240       15.509        0.020      331.993        0.368      871.972
01/14/2022  03:14:00     -102.468       60.239       -5.933       54.619       31.858       26.257     2983.208     1014.904      689.407        0.942        0.234      118.863       26.563        0.050      331.927        0.259      871.999
01/14/2022  03:15:00     -119.036       28.176      -11.355       50.248       35.662       24.578     2524.870     1271.754      604.100        0.975        0.220      122.325       20.880        0.029      331.954        0.302      872.005
01/14/2022  03:16:00     -104.594       24.722       -0.876       49.800       31.350       30.000     2480.025      982.850      900.015        0.796        0.218      107.476       30.390        0.080      331.995        0.369      871.990
01/14/2022  03:17:00      -29.185       10.050        2.764       51.339       34.041       23.195     2635.724     1158.773      538.015        0.265        0.217       30.867       14.847        0.231      332.051        0.461      871.962
01/14/2022  03:18:00      -20.849       14.430      -12.056       33.834       41.297       23.515     1144.740     1705.442      552.956        0.210        0.170       25.355       11.463        0.204      332.017        0.406      871.960
01/14/2022  03:19:00      -39.895       15.082       -0.204       39.837       31.169       23.030     1586.972      971.486      530.376        0.245        0.154       42.651       21.037        0.243      332.077        0.504      871.994
01/14/2022  03:20:00      -18.987       15.422      -15.316       31.686       18.271       15.164     1003.973      333.814      229.933        0.120        0.078       24.461        8.438        0.119      332.085        0.519      872.051
01/14/2022  03:21:00      -27.517       34.181       -6.940       28.894       21.660       21.522      834.863      469.163      463.176        0.187        0.088       43.881       16.479        0.141      332.132        0.594      872.085
01/14/2022  03:22:00      -36.325      -30.648      -17.193       22.725       47.883       15.132      516.421     2292.825      228.984        0.280        0.152       47.527       14.344        0.091      332.220        0.741      872.083
01/14/2022  03:23:00      -70.735        0.577      -14.521       42.571       37.827       25.562     1812.259     1430.874      653.423        0.455        0.195       70.738       21.825        0.095      332.264        0.812      872.047
01/14/2022  03:24:00      -91.742       14.374       -8.992       52.946       27.425       18.390     2803.323      752.142      338.177        0.630        0.195       92.861       16.844        0.033      332.109        0.556      872.014
01/14/2022  03:25:00      -52.049        5.351       -6.975       59.881       29.277       25.111     3585.721      857.163      630.541        0.393        0.254       52.323       25.012        0.229      332.047        0.455      871.998
01/14/2022  03:26:00     -135.969       10.474       -0.065       56.297       39.668       30.301     3169.331     1573.539      918.147        1.213        0.283      136.372       25.212        0.034      332.018        0.408      871.979
01/14/2022  03:27:00      -23.425       29.473       -1.254       42.316       28.112       27.493     1790.676      790.311      755.879        0.238        0.167       37.648       18.644        0.245      331.944        0.286      871.966
01/14/2022  03:28:00      -69.365       48.237      -11.619       31.363       24.257       20.041      983.621      588.425      401.636        0.462        0.099       84.489       17.678        0.044      331.929        0.262      871.964
01/14/2022  03:29:00      -93.746       76.116      -10.431       32.925       22.352       23.605     1084.068      499.600      557.194        0.842        0.107      120.756       21.804        0.033      331.880        0.182      871.972
01/14/2022  03:30:00     -111.042       39.009      -15.528       37.067       26.461       21.099     1373.947      700.195      445.187        0.831        0.126      117.695       18.630        0.025      331.924        0.254      871.972
01/14/2022  03:31:00      -43.755        1.463        2.184       45.451       34.878       27.964     2065.835     1216.453      781.978        0.299        0.203       43.779       18.835        0.185      331.928        0.260      871.970
01/14/2022  03:32:00      -70.168       17.096       -4.436       73.796       43.307       28.130     5445.918     1875.489      791.296        0.667        0.406       72.221       25.344        0.123      331.884        0.187      871.977
01/14/2022  03:33:00      -48.302       -8.311      -10.745       45.130       34.869       20.021     2036.673     1215.834      400.843        0.308        0.183       49.012       15.018        0.094      331.892        0.201      872.004
01/14/2022  03:34:00      -10.173        9.288      -16.189       20.000       18.303       22.367      399.983      335.001      500.298        0.084        0.062       13.776       13.594        0.974      331.961        0.314      872.047
01/14/2022  03:35:00       51.767     -109.726      -13.053       55.183       76.979       39.139     3045.145     5925.738     1531.833        1.269        0.525      121.324       45.428        0.140      331.974        0.334      872.076
01/14/2022  03:36:00      110.095     -123.168      -41.971       38.873       41.715       27.016     1511.146     1740.146      729.860        1.652        0.199      165.200       21.826        0.017      331.900        0.214      872.089
01/14/2022  03:37:00       45.429      -91.806      -28.115       26.448       38.023       17.868      699.517     1445.753      319.254        0.687        0.123      102.431       10.207        0.010      331.996        0.372      872.094
01/14/2022  03:38:00       14.621      -16.590      -15.707       17.703       17.011       18.424      313.412      289.374      339.433        0.084        0.047       22.113       12.133        0.301      332.078        0.507      872.084
01/14/2022  03:39:00       -8.653      -34.864      -10.075       22.431       20.346       13.954      503.148      413.975      194.706        0.125        0.056       35.922       13.284        0.137      332.104        0.549      872.084
01/14/2022  03:40:00      -46.717       -0.585       -9.722       24.594       15.676       13.694      604.853      245.722      187.518        0.166        0.052       46.721        8.906        0.036      331.973        0.334      872.078
01/14/2022  03:41:00      -33.566       11.688       -8.394       27.943       22.583       15.627      780.835      510.004      244.197        0.143        0.077       35.543        9.303        0.069      331.886        0.190      872.052
01/14/2022  03:42:00      -68.500        7.412       -9.453       29.714       24.550       21.748      882.940      602.727      472.993        0.340        0.098       68.900       13.587        0.039      331.858        0.146      872.009
01/14/2022  03:43:00      -42.674       -2.535      -10.228       34.771       23.026       17.968     1209.057      530.191      322.845        0.200        0.103       42.749       14.507        0.115      331.875        0.173      871.982
01/14/2022  03:44:00      -39.498       13.379       -5.300       24.692       19.611       13.375      609.694      384.586      178.879        0.147        0.059       41.702        9.385        0.051      331.888        0.195      871.989
01/14/2022  03:45:00      -36.973       10.772       -7.552       11.321        8.890        7.237      128.174       79.034       52.379        0.090        0.013       38.510        6.042        0.025      331.991        0.364      872.026
01/14/2022  03:46:00      -40.212       25.218       -9.787       15.434       10.443        7.265      238.195      109.055       52.774        0.137        0.020       47.465        6.566        0.019      331.977        0.341      872.063
01/14/2022  03:47:00      -74.601       30.152      -12.275       16.652       13.101        9.747      277.303      171.648       95.003        0.358        0.027       80.464        7.194        0.008      331.986        0.355      872.078
01/14/2022  03:48:00     -101.718       38.597      -20.746       15.702       12.175       13.644      246.550      148.224      186.149        0.642        0.029      108.795        8.385        0.006      331.912        0.233      872.072
01/14/2022  03:49:00     -102.685       29.247      -15.374       15.803       18.686       14.828      249.750      349.170      219.868        0.623        0.041      106.769        8.334        0.006      331.866        0.157      872.063
01/14/2022  03:50:00      -91.390        6.919      -24.145       18.939       24.171       14.970      358.682      584.227      224.106        0.507        0.058       91.652       10.548        0.013      331.812        0.069      872.053
01/14/2022  03:51:00      -65.379        3.809      -11.776       26.265       22.244       19.084      689.838      494.803      364.202        0.299        0.077       65.490       14.935        0.052      331.726       -0.072      872.055
01/14/2022  03:52:00      -57.491       16.986      -22.590       31.912       25.500       17.314     1018.346      650.234      299.784        0.304        0.098       59.948       16.499        0.076      331.759       -0.018      872.068
01/14/2022  03:53:00      -82.386       24.334      -22.995       17.309       17.757       13.332      299.600      315.310      177.751        0.435        0.040       85.905        3.860        0.002      331.743       -0.043      872.088
01/14/2022  03:54:00      -94.403       29.473      -17.521       18.048       16.381       14.868      325.725      268.328      221.045        0.545        0.041       98.897        5.179        0.003      331.731       -0.064      872.103
01/14/2022  03:55:00      -75.418       19.930      -21.440       20.156       15.740       12.459      406.254      247.760      155.223        0.368        0.040       78.007        5.530        0.005      331.773        0.006      872.131
01/14/2022  03:56:00      -66.709       28.992      -18.539       16.416       13.222       12.980      269.490      174.833      168.489        0.312        0.031       72.736        7.341        0.010      331.741       -0.048      872.161
01/14/2022  03:57:00      -84.802       33.797      -16.284       13.634       10.313        7.247      185.894      106.364       52.524        0.447        0.017       91.289        4.900        0.003      331.730       -0.067      872.193
01/14/2022  03:58:00      -68.071       32.266      -15.378       15.472       10.378        8.363      239.391      107.709       69.938        0.316        0.021       75.331        4.779        0.004      331.791        0.035      872.217
01/14/2022  03:59:00      -27.893       17.936      -11.320       18.698        6.778       10.235      349.601       45.940      104.754        0.086        0.025       33.162        9.339        0.079      331.879        0.180      872.228
01/14/2022  04:00:00        6.141       13.824       -3.895        6.643       10.998        7.295       44.129      120.960       53.219        0.023        0.011       15.127        3.356        0.049      331.801        0.052      872.230
01/14/2022  04:01:00       -6.375        6.937      -13.198       13.741        9.776        6.899      188.804       95.576       47.602        0.030        0.017        9.421        5.512        0.342      331.820        0.084      872.223
01/14/2022  04:02:00      -19.179        2.295       -6.093       10.942       10.718       11.964      119.732      114.869      143.132        0.039        0.019       19.316        6.566        0.116      331.892        0.202      872.227
01/14/2022  04:03:00       -6.569      -12.259      -11.512       14.145       12.354       13.669      200.077      152.624      186.839        0.043        0.027       13.909        5.208        0.140      331.900        0.215      872.251
01/14/2022  04:04:00       24.689        1.527      -15.621       13.063       18.003       11.075      170.647      324.108      122.662        0.074        0.031       24.736        8.231        0.111      332.083        0.514      872.293
01/14/2022  04:05:00       52.384       24.600      -10.411       18.536       15.513       11.418      343.578      240.644      130.369        0.209        0.036       57.873        5.417        0.009      332.219        0.739      872.335
01/14/2022  04:06:00       -1.193       -7.788       -4.365       12.528        9.437        9.234      156.946       89.048       85.260        0.021        0.017        7.879        5.823        0.546      332.100        0.543      872.363
01/14/2022  04:07:00       -5.704      -12.885       -4.972        8.438       16.392        8.865       71.199      268.686       78.586        0.032        0.021       14.091        7.337        0.271      332.086        0.519      872.363
01/14/2022  04:08:00      -32.031      -13.827      -11.799       16.102       10.183        9.315      259.280      103.700       86.771        0.090        0.022       34.888        5.811        0.028      331.920        0.247      872.349
01/14/2022  04:09:00        3.636        7.897       -1.932       10.013       12.154        7.648      100.269      147.711       58.496        0.019        0.015        8.694        6.255        0.518      331.794        0.041      872.344
01/14/2022  04:10:00        0.920      -13.776      -19.715        7.839       10.352        9.087       61.451      107.168       82.579        0.042        0.013       13.807        6.221        0.203      331.918        0.243      872.346
01/14/2022  04:11:00       -8.861      -20.012      -14.329       10.063        9.851        9.036      101.258       97.045       81.651        0.048        0.014       21.886        3.843        0.031      332.055        0.468      872.359
01/14/2022  04:12:00      -21.832       -4.800      -11.975       14.725       21.543       11.446      216.836      464.091      131.018        0.073        0.041       22.354       13.620        0.371      332.048        0.458      872.389
01/14/2022  04:13:00      -26.657        9.502       -9.636       10.295       13.071        7.388      105.983      170.852       54.585        0.061        0.017       28.300        3.909        0.019      331.886        0.193      872.419
01/14/2022  04:14:00      -19.501       -0.586       -7.332       13.709       13.308        8.339      187.924      177.105       69.535        0.043        0.022       19.510        5.522        0.080      331.796        0.044      872.444
01/14/2022  04:15:00      -40.752        5.491      -10.909       13.466       14.119       11.383      181.323      199.338      129.572        0.116        0.026       41.121        7.236        0.031      331.815        0.074      872.447
01/14/2022  04:16:00      -45.617       15.782       -7.318       27.585       20.203       18.438      760.934      408.148      339.944        0.195        0.075       48.270       11.121        0.053      331.821        0.084      872.415
01/14/2022  04:17:00      -46.342       13.773       -5.502       38.956       26.150       19.735     1517.562      683.822      389.473        0.248        0.130       48.345       13.859        0.082      331.677       -0.153      872.366
01/14/2022  04:18:00      -39.266       11.718       -2.769       25.956       21.260       17.384      673.709      452.007      302.203        0.156        0.071       40.977       14.281        0.121      331.658       -0.185      872.335
01/14/2022  04:19:00      -40.727       10.649       -6.335       35.975       25.960       20.162     1294.173      673.918      406.519        0.209        0.119       42.097       14.990        0.127      331.581       -0.312      872.310
01/14/2022  04:20:00      -83.702       10.222      -15.295       38.639       21.985       22.126     1493.005      483.321      489.541        0.490        0.123       84.324       15.861        0.035      331.576       -0.320      872.291
01/14/2022  04:21:00     -120.625       30.595      -18.303       35.591       28.772       13.302     1266.701      827.804      176.947        0.905        0.114      124.445        5.064        0.002      331.604       -0.273      872.270
01/14/2022  04:22:00     -114.600       32.363      -13.937       45.341       31.892       25.436     2055.842     1017.102      646.985        0.905        0.186      119.082       19.558        0.027      331.563       -0.342      872.258
01/14/2022  04:23:00     -114.520       43.178       -8.783       47.577       32.335       23.544     2263.582     1045.579      554.305        0.946        0.193      122.389       15.987        0.017      331.505       -0.438      872.262
01/14/2022  04:24:00     -128.502       44.390      -12.485       49.082       27.745       25.859     2409.032      769.788      668.685        1.124        0.192      135.953       20.008        0.022      331.492       -0.460      872.266
01/14/2022  04:25:00      -95.676       35.467        3.334       59.782       34.685       25.944     3573.841     1203.016      673.083        0.794        0.272      102.038       24.928        0.060      331.481       -0.477      872.266
01/14/2022  04:26:00     -106.146       43.458       -3.031       55.846       39.299       26.275     3118.781     1544.395      690.401        0.926        0.268      114.698       26.059        0.052      331.481       -0.477      872.276
01/14/2022  04:27:00     -133.095       33.071      -12.961       59.980       44.451       29.928     3597.659     1975.857      895.657        1.272        0.323      137.142       27.203        0.039      331.569       -0.331      872.291
01/14/2022  04:28:00       -3.602        5.881        1.531       54.693       35.210       19.834     2991.343     1239.742      393.379        0.234        0.231        6.897       16.787        5.925      331.611       -0.263      872.320
01/14/2022  04:29:00      -61.975       24.952      -12.332       42.793       27.067       27.414     1831.248      732.627      751.511        0.396        0.166       66.810       27.510        0.170      331.635       -0.223      872.342
01/14/2022  04:30:00      -37.236       -0.388       -7.205       24.240       26.546       18.944      587.591      704.672      358.873        0.154        0.083       37.238       15.534        0.174      331.684       -0.142      872.353
01/14/2022  04:31:00        4.476       -8.849      -17.872       21.992       20.131       18.758      483.636      405.272      351.855        0.083        0.062        9.917       19.542        3.883      331.790        0.032      872.362
01/14/2022  04:32:00       20.253      -25.512      -17.145       17.913       33.206       19.301      320.875     1102.626      372.541        0.158        0.090       32.574       10.717        0.108      331.922        0.251      872.367
01/14/2022  04:33:00       14.200      -13.343      -13.227       19.286       31.694       22.541      371.951     1004.498      508.097        0.122        0.094       19.485       10.648        0.299      331.952        0.301      872.358
01/14/2022  04:34:00       25.267       21.012       -8.919       25.327       16.407       10.982      641.465      269.198      120.595        0.110        0.052       32.862        2.957        0.008      331.960        0.312      872.327
01/14/2022  04:35:00      -17.075       22.698      -10.751       21.675       12.956        9.121      469.796      167.869       83.186        0.082        0.036       28.403        6.984        0.060      331.956        0.306      872.276
01/14/2022  04:36:00       -3.813      -10.271       -7.927       12.308       13.643       10.210      151.480      186.129      104.245        0.031        0.022       10.956        8.730        0.635      331.753       -0.027      872.243
01/14/2022  04:37:00      -15.508       -9.274      -13.860       16.215       16.767       13.489      262.922      281.131      181.950        0.062        0.036       18.069        7.321        0.164      331.604       -0.275      872.233
01/14/2022  04:38:00       -9.384      -19.469      -12.717       12.472       12.725        9.405      155.550      161.917       88.448        0.052        0.020       21.613        5.348        0.061      331.807        0.060      872.235
01/14/2022  04:39:00      -16.680        6.514      -15.089        5.934        4.392        6.165       35.211       19.288       38.005        0.032        0.005       17.906        2.029        0.013      331.813        0.072      872.255
01/14/2022  04:40:00       -2.687       14.597       -4.724        7.788        7.760        7.153       60.645       60.224       51.171        0.021        0.009       14.842        5.409        0.133      331.858        0.145      872.278
01/14/2022  04:41:00      -16.361        9.175       -9.963       10.089       13.955        8.106      101.798      194.741       65.707        0.041        0.018       18.758        3.852        0.042      331.888        0.194      872.310
01/14/2022  04:42:00      -24.974        0.497       -6.073       16.731       18.427       12.616      279.936      339.567      159.165        0.072        0.039       24.979        7.868        0.099      331.862        0.151      872.334
01/14/2022  04:43:00      -42.533       10.228      -12.959       21.772       15.413        9.013      474.039      237.546       81.231        0.144        0.040       43.746        9.710        0.049      331.798        0.047      872.342
01/14/2022  04:44:00      -32.287      -17.819       -6.991       18.920       17.083        9.707      357.958      291.814       94.230        0.108        0.037       36.878        5.797        0.025      331.903        0.219      872.333
01/14/2022  04:45:00      -16.497        2.074        1.328       20.303       14.378       10.035      412.193      206.731      100.697        0.050        0.036       16.627        9.439        0.322      331.913        0.236      872.284
01/14/2022  04:46:00      -24.751       -2.073       -4.111       30.462       14.578       15.545      927.950      212.512      241.636        0.101        0.069       24.838       10.153        0.167      331.778        0.014      872.220
01/14/2022  04:47:00      -22.951       -4.405        1.398       23.125       21.862       18.644      534.786      477.939      347.611        0.095        0.068       23.370       14.042        0.361      331.642       -0.213      872.182
01/14/2022  04:48:00      -57.953       -8.601       -5.836       29.895       23.235       21.368      893.730      539.843      456.597        0.268        0.095       58.587       13.640        0.054      331.705       -0.108      872.164
01/14/2022  04:49:00      -49.845       -5.240      -14.842       31.503       17.984       15.796      992.425      323.427      249.498        0.215        0.078       50.120       13.627        0.074      331.761       -0.014      872.171
01/14/2022  04:50:00      -41.501      -14.628       -7.484       21.389       20.553       16.106      457.497      422.424      259.390        0.157        0.057       44.004       12.729        0.084      331.759       -0.017      872.173
01/14/2022  04:51:00      -47.894        4.030       -7.084       21.605       24.433       15.740      466.762      596.961      247.763        0.184        0.066       48.063       11.566        0.058      331.723       -0.078      872.166
01/14/2022  04:52:00      -32.608       -3.795       -3.156       27.339       24.400       21.714      747.430      595.374      471.495        0.145        0.091       32.828       12.072        0.135      331.656       -0.188      872.158
01/14/2022  04:53:00       -5.714        8.138       -1.439       23.313       15.254       13.353      543.474      232.672      178.307        0.053        0.048        9.943       10.646        1.146      331.552       -0.360      872.170
01/14/2022  04:54:00      -13.393      -11.810       -1.992       19.713       16.678       13.658      388.615      278.147      186.533        0.059        0.043       17.856        5.849        0.107      331.634       -0.224      872.193
01/14/2022  04:55:00      -38.214       -6.241       -8.921       17.171       16.481       13.747      294.852      271.628      188.993        0.117        0.038       38.721        9.618        0.062      331.606       -0.271      872.237
01/14/2022  04:56:00      -60.787       -5.202      -11.405       20.013       23.467       20.755      400.515      550.682      430.762        0.262        0.069       61.009        6.321        0.011      331.582       -0.310      872.269
01/14/2022  04:57:00      -34.412        8.235      -14.452       30.711       21.068       23.899      943.170      443.853      571.162        0.171        0.098       35.384       14.840        0.176      331.482       -0.475      872.299
01/14/2022  04:58:00      -65.838        7.200       -6.101       27.693       27.130       19.072      766.916      736.019      363.755        0.314        0.093       66.230       14.237        0.046      331.553       -0.359      872.305
01/14/2022  04:59:00      -67.562       -8.265       -5.449       52.803       22.801       23.199     2788.120      519.884      538.184        0.425        0.192       68.066       27.346        0.161      331.492       -0.458      872.292
01/14/2022  05:00:00      -39.375        4.095      -16.102       32.130       16.790       18.306     1032.350      281.910      335.095        0.174        0.082       39.587       19.308        0.238      331.420       -0.578      872.278
01/14/2022  05:01:00      -49.267        3.038      -14.097       18.603       19.733       16.277      346.064      389.411      264.934        0.182        0.050       49.360        6.996        0.020      331.443       -0.540      872.275
01/14/2022  05:02:00      -36.472       10.939       -5.020       26.042       20.362       16.607      678.185      414.628      275.789        0.142        0.068       38.077       10.484        0.076      331.476       -0.483      872.277
01/14/2022  05:03:00      -70.854       14.394       -6.048       32.285       20.481       13.744     1042.311      419.489      188.911        0.346        0.083       72.301       12.004        0.028      331.417       -0.583      872.279
01/14/2022  05:04:00      -61.425       -4.543       -3.619       33.711       23.976       18.516     1136.447      574.863      342.842        0.293        0.103       61.593       19.137        0.097      331.413       -0.587      872.282
01/14/2022  05:05:00      -39.845        0.199       -1.672       38.881       21.833       17.225     1511.759      476.675      296.693        0.194        0.114       39.845       17.911        0.202      331.375       -0.651      872.299
01/14/2022  05:06:00        7.212       -2.705        2.486        9.867       11.060       10.815       97.359      122.320      116.955        0.020        0.017        7.702        7.042        0.836      331.451       -0.525      872.322
01/14/2022  05:07:00       -9.667       -3.177       -6.731        9.295        9.933        8.102       86.404       98.672       65.645        0.020        0.013       10.176        5.709        0.315      331.483       -0.474      872.342
01/14/2022  05:08:00        5.309      -10.862      -12.249       10.309        7.638        9.052      106.282       58.332       81.936        0.027        0.012       12.090        7.846        0.421      331.661       -0.178      872.344
01/14/2022  05:09:00      -15.192       -0.343       -7.364       13.198       13.312        8.172      174.198      177.221       66.783        0.035        0.021       15.196        6.784        0.199      331.757       -0.021      872.343
01/14/2022  05:10:00      -59.565        7.550       -6.459       20.883       18.458        9.776      436.080      340.707       95.574        0.226        0.044       60.042        3.371        0.003      331.640       -0.214      872.328
01/14/2022  05:11:00      -33.744        7.551       -7.771       19.640       19.533       12.565      385.737      381.538      157.883        0.109        0.046       34.579       10.142        0.086      331.585       -0.306      872.327
01/14/2022  05:12:00      -48.795       11.724       -9.231       14.247       11.243       10.757      202.976      126.399      115.704        0.152        0.022       50.184        3.767        0.006      331.575       -0.323      872.333
01/14/2022  05:13:00       -8.810       -4.906      -12.394       16.070       11.122        6.677      258.237      123.693       44.587        0.034        0.021       10.084        2.836        0.079      331.668       -0.169      872.352
01/14/2022  05:14:00      -30.099        4.671       -6.923       18.324       10.877        8.816      335.777      118.312       77.730        0.075        0.027       30.459        9.664        0.101      331.704       -0.108      872.362
01/14/2022  05:15:00      -55.325       24.460      -12.623        8.137       10.067        8.398       66.216      101.343       70.524        0.203        0.012       60.491        3.469        0.003      331.676       -0.153      872.361
01/14/2022  05:16:00      -42.805       19.829      -16.311       13.417       12.850        9.959      180.019      165.134       99.176        0.147        0.022       47.175        5.535        0.014      331.703       -0.108      872.342
01/14/2022  05:17:00      -31.692       20.538       -7.771       10.596        6.218        6.354      112.273       38.668       40.377        0.084        0.010       37.765        3.797        0.010      331.620       -0.247      872.320
01/14/2022  05:18:00      -20.484       22.762      -10.513        6.021        6.518        6.724       36.248       42.479       45.211        0.059        0.006       30.622        3.495        0.013      331.618       -0.250      872.305
01/14/2022  05:19:00      -14.487       22.905       -7.334        8.877        6.720        6.096       78.805       45.153       37.158        0.047        0.008       27.102        4.517        0.028      331.605       -0.273      872.301
01/14/2022  05:20:00       -9.187       24.673       -6.246        8.075        9.110        6.323       65.213       82.999       39.984        0.046        0.009       26.328        2.617        0.010      331.630       -0.232      872.303
01/14/2022  05:21:00      -19.809       20.986       -6.898       14.143       10.790        5.762      200.037      116.434       33.205        0.061        0.017       28.859        5.530        0.037      331.731       -0.063      872.303
01/14/2022  05:22:00      -21.755       20.488      -12.628       14.269       12.356        6.503      203.596      152.679       42.294        0.073        0.020       29.884        2.290        0.006      331.649       -0.200      872.297
01/14/2022  05:23:00      -47.989       22.300      -18.971       10.775       10.133       12.644      116.097      102.685      159.862        0.177        0.019       52.917        2.299        0.002      331.588       -0.300      872.305
01/14/2022  05:24:00      -23.453       12.621      -10.015       11.439       10.911       10.657      130.854      119.040      113.576        0.059        0.018       26.634        6.782        0.065      331.527       -0.402      872.337
01/14/2022  05:25:00       17.692       32.779       -7.750       25.911       21.035        6.865      671.368      442.458       47.127        0.130        0.058       37.248        2.250        0.004      331.823        0.087      872.387
01/14/2022  05:26:00       41.851       64.300       -5.181       17.054       15.383       11.126      290.841      236.646      123.790        0.328        0.033       76.721       10.162        0.018      331.951        0.298      872.414
01/14/2022  05:27:00       40.727       40.961      -10.580       27.644       25.431       16.986      764.183      646.734      288.533        0.257        0.085       57.762       15.027        0.068      331.826        0.092      872.444
01/14/2022  05:28:00       36.132       46.651       -6.490       28.323       21.883       18.831      802.176      478.881      354.614        0.258        0.082       59.007       12.954        0.048      331.747       -0.039      872.473
01/14/2022  05:29:00       54.239       77.838      -10.640       25.647       21.802       16.354      657.782      475.346      267.463        0.526        0.070       94.872       15.610        0.027      331.727       -0.071      872.498
01/14/2022  05:30:00       53.040       79.193       -8.393       21.411       19.302       14.021      458.422      372.582      196.591        0.509        0.051       95.314       11.393        0.014      331.781        0.019      872.520
01/14/2022  05:31:00       51.068       84.759      -11.300       19.775       17.787       11.762      391.061      316.369      138.336        0.538        0.042       98.955        8.618        0.008      331.944        0.286      872.521
01/14/2022  05:32:00       42.047       87.710       -9.595       17.643       17.532       13.057      311.281      307.359      170.480        0.517        0.039       97.267        9.445        0.009      332.018        0.408      872.509
01/14/2022  05:33:00       43.468       73.096      -11.909       25.844       19.542       14.847      667.935      381.897      220.420        0.432        0.064       85.044        4.855        0.003      331.979        0.343      872.502
01/14/2022  05:34:00       42.128       48.308       -7.314       21.054       28.208       14.258      443.291      795.680      203.293        0.280        0.072       64.097       13.466        0.044      331.887        0.192      872.503
01/14/2022  05:35:00       50.555       34.209       -9.594       21.156       18.505       12.601      447.588      342.418      158.778        0.238        0.047       61.042        7.178        0.014      331.799        0.048      872.505
01/14/2022  05:36:00       52.155       26.202      -11.729       14.192       11.203       10.592      201.424      125.504      112.199        0.199        0.022       58.367        3.200        0.003      331.851        0.134      872.508
01/14/2022  05:37:00       41.014       28.698       -9.162       14.191       13.472        8.867      201.383      181.505       78.615        0.153        0.023       50.058        7.337        0.021      331.855        0.141      872.511
01/14/2022  05:38:00       59.085       43.508      -11.672        9.207        5.876        5.700       84.768       34.533       32.490        0.284        0.008       73.375        4.925        0.005      331.914        0.235      872.512
01/14/2022  05:39:00       45.617       36.347       -7.615        8.482       10.633        5.483       71.947      113.056       30.065        0.184        0.011       58.327        2.350        0.002      331.970        0.329      872.515
01/14/2022  05:40:00       30.148       20.062       -3.122        7.662        6.240        5.074       58.705       38.940       25.745        0.072        0.006       36.213        1.150        0.001      331.999        0.376      872.498
01/14/2022  05:41:00       20.311       12.671       -1.276       12.553        7.795        5.927      157.582       60.767       35.129        0.041        0.013       23.939        6.241        0.068      331.951        0.297      872.499
01/14/2022  05:42:00      -17.667       13.245       -7.856       20.300       11.369       12.543      412.079      129.256      157.324        0.062        0.035       22.081       12.009        0.296      331.781        0.019      872.492
01/14/2022  05:43:00      -54.827       14.982      -11.277       19.378       13.734       12.841      375.502      188.631      164.879        0.204        0.036       56.837        9.700        0.029      331.582       -0.309      872.497
01/14/2022  05:44:00      -25.260       13.872       -5.929       15.129        9.921        7.148      228.880       98.423       51.095        0.062        0.019       28.818        3.827        0.018      331.387       -0.631      872.524
01/14/2022  05:45:00      -40.486       22.133      -17.647       12.493       13.273       10.107      156.073      176.178      102.143        0.144        0.022       46.141        8.582        0.035      331.406       -0.601      872.560
01/14/2022  05:46:00      -28.043       44.141       -9.536       19.505       17.306       10.825      380.435      299.484      117.175        0.181        0.040       52.296        4.749        0.008      331.683       -0.144      872.596
01/14/2022  05:47:00      -47.485       30.941      -18.718       20.306       20.141       11.707      412.352      405.654      137.051        0.226        0.048       56.675        8.294        0.021      331.641       -0.212      872.599
01/14/2022  05:48:00      -65.821       29.572      -17.939       18.613       22.590       12.057      346.457      510.326      145.381        0.327        0.050       72.159        9.274        0.017      331.378       -0.647      872.578
01/14/2022  05:49:00      -28.138       -5.631       -5.324       28.240       20.873       19.992      797.497      435.667      399.674        0.124        0.082       28.696       19.012        0.439      331.297       -0.779      872.569
01/14/2022  05:50:00      -52.258       -5.214       -4.561       41.793       24.700       26.752     1746.677      610.099      715.645        0.293        0.154       52.518       25.140        0.229      331.266       -0.830      872.574
01/14/2022  05:51:00      -69.626      -12.446       -7.918       33.942       29.391       19.485     1152.027      863.837      379.678        0.373        0.120       70.729       13.293        0.035      331.433       -0.556      872.602
01/14/2022  05:52:00      -36.910        1.201       -6.752       32.932       21.457       20.421     1084.498      460.409      417.029        0.169        0.098       36.929       16.382        0.197      331.576       -0.320      872.619
01/14/2022  05:53:00      -30.176      -15.342       -9.560       18.456       15.739       17.091      340.638      247.713      292.104        0.106        0.044       33.852       10.168        0.090      331.636       -0.221      872.630
01/14/2022  05:54:00      -40.687      -19.602      -20.558       15.488        9.051       10.679      239.891       81.914      114.050        0.145        0.022       45.163        1.897        0.002      331.738       -0.051      872.651
01/14/2022  05:55:00      -45.810      -12.904       -6.267       21.486       18.472       11.515      461.628      341.233      132.603        0.162        0.047       47.593        6.359        0.018      331.763       -0.011      872.675
01/14/2022  05:56:00      -21.563       -6.543      -12.507       29.574       15.632       14.615      874.640      244.363      213.588        0.100        0.067       22.534        9.642        0.183      331.662       -0.176      872.675
01/14/2022  05:57:00      -45.929       -2.811       -9.239       56.687       23.532       19.356     3213.470      553.756      374.666        0.317        0.207       46.015        9.660        0.044      331.660       -0.180      872.647
01/14/2022  05:58:00      -40.617      -15.894       -5.979       41.242       24.372       18.197     1700.894      593.975      331.137        0.228        0.131       43.616       15.024        0.119      331.701       -0.113      872.635
01/14/2022  05:59:00      -56.146       -4.701       -9.093       41.015       23.017       18.983     1682.193      529.780      360.340        0.291        0.129       56.343       15.994        0.081      331.677       -0.153      872.627
01/14/2022  06:00:00      -57.626       -2.409       -7.254       38.305       33.447       23.337     1467.285     1118.729      544.610        0.325        0.157       57.676       17.373        0.091      331.615       -0.256      872.620
01/14/2022  06:01:00      -24.211        6.321        0.775       41.111       23.831       21.019     1690.131      567.937      441.815        0.166        0.135       25.022       17.271        0.476      331.583       -0.308      872.624
01/14/2022  06:02:00      -23.343      -12.458        2.037       32.072       25.147       18.258     1028.608      632.371      333.373        0.135        0.100       26.459       11.556        0.191      331.585       -0.304      872.644
01/14/2022  06:03:00      -16.043      -12.717      -12.133       16.146       15.835       15.080      260.681      250.760      227.409        0.065        0.037       20.471        9.585        0.219      331.607       -0.269      872.688
01/14/2022  06:04:00      -24.679      -12.471      -11.709       21.009       18.552       14.731      441.373      344.178      217.002        0.095        0.050       27.651        5.905        0.046      331.627       -0.237      872.727
01/14/2022  06:05:00       -4.399       -7.855       -6.076       10.941       17.431       11.661      119.699      303.851      135.977        0.034        0.028        9.003        9.800        1.185      331.622       -0.244      872.733
01/14/2022  06:06:00      -58.620       -8.104      -10.834       32.166       15.013       15.442     1034.650      225.388      238.468        0.256        0.075       59.178       17.318        0.086      331.538       -0.384      872.697
01/14/2022  06:07:00      -55.097       -3.007      -12.209       27.536       18.130       18.960      758.255      328.684      359.465        0.232        0.072       55.179       17.211        0.097      331.544       -0.372      872.650
01/14/2022  06:08:00      -48.535        5.930      -13.217       28.894       32.722       21.451      834.869     1070.751      460.143        0.247        0.118       48.896       15.730        0.103      331.525       -0.403      872.605
01/14/2022  06:09:00      -23.251        5.479        4.346       33.334       16.893       16.457     1111.185      285.375      270.833        0.113        0.083       23.888       18.097        0.574      331.486       -0.468      872.579
01/14/2022  06:10:00        5.076        6.339        0.105       13.053       14.171       11.480      170.374      200.806      131.793        0.028        0.025        8.121        8.469        1.088      331.458       -0.514      872.575
01/14/2022  06:11:00       14.412       -8.136        3.040       14.309       16.144        8.269      204.744      260.619       68.384        0.041        0.027       16.550        4.638        0.079      331.500       -0.445      872.588
01/14/2022  06:12:00        9.924      -14.817       -7.759       13.039       13.970       15.170      170.008      195.165      230.128        0.049        0.030       17.834        5.592        0.098      331.644       -0.207      872.620
01/14/2022  06:13:00      -11.458        2.272      -12.445       13.912       16.906        9.360      193.532      285.819       87.609        0.043        0.028       11.681        5.237        0.201      331.613       -0.259      872.667
01/14/2022  06:14:00       -6.916       14.894       -6.402       11.999       11.246       12.309      143.978      126.462      151.503        0.037        0.021       16.421        6.713        0.167      331.515       -0.421      872.697
01/14/2022  06:15:00      -12.218       -6.645       -6.175       23.935       15.768       11.402      572.866      248.626      130.012        0.059        0.048       13.908        7.189        0.267      331.477       -0.484      872.700
01/14/2022  06:16:00      -52.866      -40.720      -13.508       22.498       25.307       11.106      506.144      640.464      123.351        0.295        0.063       66.730        7.755        0.014      331.605       -0.272      872.688
01/14/2022  06:17:00      -43.514      -15.364       -7.810       27.979       19.860       23.276      782.823      394.421      541.787        0.195        0.086       46.147        7.296        0.025      331.555       -0.355      872.676
01/14/2022  06:18:00      -28.415       11.920       -2.411       16.858       17.544       14.439      284.197      307.782      208.482        0.088        0.040       30.814        8.880        0.083      331.468       -0.498      872.684
01/14/2022  06:19:00      -23.064       -1.965      -10.142       18.842       18.941       11.985      355.007      358.749      143.638        0.075        0.043       23.147       11.721        0.256      331.422       -0.573      872.711
01/14/2022  06:20:00      -30.670       -5.209      -10.649       18.127       16.263       13.672      328.597      264.478      186.914        0.093        0.039       31.109       10.099        0.105      331.463       -0.506      872.743
01/14/2022  06:21:00      -42.271      -14.613       -9.545       22.307       16.815       16.067      497.594      282.747      258.134        0.156        0.052       44.726        6.502        0.021      331.482       -0.476      872.763
01/14/2022  06:22:00      -27.871       -2.395      -13.488       20.871       14.838       16.835      435.596      220.170      283.417        0.095        0.047       27.974       13.526        0.234      331.443       -0.538      872.782
01/14/2022  06:23:00      -12.037       -4.584       -2.819       17.545       20.477       14.159      307.828      419.288      200.473        0.055        0.046       12.880       10.152        0.621      331.399       -0.613      872.797
01/14/2022  06:24:00      -15.553        1.620       -2.370       24.605       26.303       17.499      605.410      691.823      306.218        0.093        0.080       15.637       13.341        0.728      331.358       -0.680      872.825
01/14/2022  06:25:00      -71.014      -15.189       -8.411       26.523       22.374       16.388      703.480      500.595      268.568        0.341        0.074       72.620       11.992        0.027      331.389       -0.628      872.846
01/14/2022  06:26:00      -16.527        0.832       -7.601       24.976       13.819        9.623      623.779      190.972       92.612        0.062        0.045       16.548        6.134        0.137      331.364       -0.670      872.864
01/14/2022  06:27:00      -34.520        5.655       -7.185       24.766       15.562       11.317      613.349      242.178      128.076        0.113        0.049       34.980       11.946        0.117      331.400       -0.608      872.866
01/14/2022  06:28:00      -32.886        2.103       -7.557       22.072       21.004       13.216      487.175      441.178      174.655        0.112        0.055       32.953        9.368        0.081      331.369       -0.661      872.860
01/14/2022  06:29:00      -23.606        2.664       -8.295       19.076       19.386       10.722      363.878      375.802      114.971        0.074        0.043       23.756        5.812        0.060      331.304       -0.767      872.845
01/14/2022  06:30:00      -91.472       32.434      -19.706       12.873       13.547       10.408      165.721      183.520      108.323        0.513        0.023       97.052        4.676        0.002      331.338       -0.712      872.824
01/14/2022  06:31:00     -108.149       40.569      -15.310       28.976       16.668       15.300      839.612      277.829      234.078        0.746        0.068      115.507       10.444        0.008      331.238       -0.875      872.837
01/14/2022  06:32:00      -98.399       19.027       -9.110       33.944       21.461       20.210     1152.186      460.596      408.447        0.607        0.101      100.221       16.901        0.028      331.191       -0.953      872.860
01/14/2022  06:33:00      -58.415       11.952       -2.272       33.017       20.160       17.880     1090.130      406.430      319.695        0.269        0.091       59.625       15.315        0.066      331.171       -0.985      872.883
01/14/2022  06:34:00      -82.571       25.625       -4.987       43.679       19.712       18.164     1907.824      388.570      329.913        0.506        0.131       86.456       19.444        0.051      331.143       -1.032      872.895
01/14/2022  06:35:00      -97.208       34.914      -11.105       19.124       25.007       17.014      365.738      625.363      289.479        0.604        0.064      103.288        9.133        0.008      331.174       -0.982      872.901
01/14/2022  06:36:00     -107.791       15.593      -16.470       24.702       20.432       14.571      610.165      417.455      212.324        0.669        0.062      108.912       10.681        0.010      331.224       -0.897      872.896
01/14/2022  06:37:00      -67.642       20.581       -5.946       42.399       25.735       23.038     1797.685      662.284      530.770        0.401        0.150       70.704       14.000        0.039      331.278       -0.810      872.892
01/14/2022  06:38:00      -73.931       12.011       -9.457       59.273       31.863       22.815     3513.233     1015.221      520.529        0.537        0.252       74.900       28.864        0.149      331.246       -0.862      872.877
01/14/2022  06:39:00      -75.690       23.251       -9.237       54.888       28.221       24.866     3012.710      796.424      618.299        0.539        0.221       79.181       20.699        0.068      331.184       -0.965      872.871
01/14/2022  06:40:00      -32.643       -3.984       -4.147       46.455       26.443       17.404     2158.085      699.241      302.913        0.213        0.158       32.885       19.595        0.355      331.251       -0.856      872.879
01/14/2022  06:41:00      -21.665       -6.986       -1.910       28.362       23.627       14.372      804.414      558.239      206.564        0.105        0.078       22.763       14.853        0.426      331.318       -0.744      872.882
01/14/2022  06:42:00       -6.280        2.204       -2.662       40.676       16.298       15.918     1654.529      265.630      253.367        0.111        0.109        6.655       19.366        8.468      331.293       -0.785      872.865
01/14/2022  06:43:00      -27.898        9.257      -16.370       25.559       20.711       16.217      653.261      428.964      263.003        0.124        0.067       29.393       12.547        0.182      331.355       -0.683      872.825
01/14/2022  06:44:00      -64.323       18.273      -17.398       31.962       19.957       18.144     1021.576      398.288      329.205        0.326        0.087       66.868        7.816        0.014      331.349       -0.693      872.784
01/14/2022  06:45:00      -40.220       -0.742      -12.663       25.825       19.480       16.396      666.929      379.470      268.815        0.155        0.066       40.227       11.786        0.086      331.272       -0.819      872.785
01/14/2022  06:46:00       -4.025      -14.778      -13.531       19.434       16.169       12.067      377.686      261.428      145.604        0.060        0.039       15.317        8.977        0.343      331.228       -0.891      872.816
01/14/2022  06:47:00       -5.021       -9.408       -3.388        8.444       12.486        7.319       71.306      155.905       53.574        0.020        0.014       10.665        4.789        0.202      331.295       -0.781      872.843
01/14/2022  06:48:00      -33.428       15.480      -13.685       14.609       19.608       13.678      213.416      384.459      187.086        0.116        0.039       36.838       11.613        0.099      331.447       -0.534      872.858
01/14/2022  06:49:00      -35.402       -5.044      -20.725       25.703       12.110       17.732      660.648      146.641      314.440        0.141        0.056       35.760       17.544        0.241      331.363       -0.670      872.843
01/14/2022  06:50:00      -37.891       -6.113      -15.192       16.048       14.531       13.058      257.550      211.156      170.516        0.117        0.032       38.381        9.179        0.057      331.289       -0.791      872.836
01/14/2022  06:51:00      -41.601        5.563       -9.002       18.315       17.208       12.213      335.442      296.124      149.146        0.131        0.039       41.971        9.400        0.050      331.331       -0.723      872.843
01/14/2022  06:52:00      -12.708       10.541       -5.657       25.762       17.282       10.056      663.694      298.665      101.120        0.068        0.053       16.511        9.887        0.359      331.336       -0.712      872.829
01/14/2022  06:53:00      -13.142       -5.692       -1.468       22.377       26.346       17.945      500.735      694.133      322.038        0.086        0.076       14.322       14.273        0.993      331.339       -0.709      872.810
01/14/2022  06:54:00      -58.138        0.781      -10.129       33.895       26.854       21.155     1148.838      721.157      447.546        0.290        0.116       58.143       19.441        0.112      331.400       -0.610      872.785
01/14/2022  06:55:00      -67.362       -0.521      -11.507       25.694       23.071       12.833      660.195      532.294      164.697        0.301        0.068       67.364        9.252        0.019      331.435       -0.551      872.765
01/14/2022  06:56:00      -50.460       -0.952      -10.902       19.399       21.783       15.331      376.322      474.504      235.054        0.188        0.054       50.469        9.639        0.036      331.446       -0.534      872.763
01/14/2022  06:57:00      -41.814        6.774       -3.551       25.065       13.944       16.477      628.278      194.440      271.504        0.145        0.055       42.359        9.695        0.052      331.534       -0.389      872.800
01/14/2022  06:58:00      -47.139       -2.507      -11.255       16.807       16.831       10.354      282.484      283.296      107.208        0.151        0.034       47.205        4.700        0.010      331.599       -0.279      872.818
01/14/2022  06:59:00      -60.615       12.720       -9.462       23.569       15.742       12.687      555.515      247.825      160.961        0.244        0.048       61.935       10.234        0.027      331.540       -0.379      872.792
01/14/2022  07:00:00      -80.828       20.585      -20.795       11.548       15.474       10.260      133.359      239.442      105.265        0.393        0.024       83.409        4.646        0.003      331.578       -0.317      872.772
01/14/2022  07:01:00      -86.309       14.078       -8.830       44.321       24.997       17.014     1964.338      624.859      289.468        0.530        0.144       87.449       17.122        0.038      331.465       -0.502      872.746
01/14/2022  07:02:00      -23.597       -4.234      -10.819       40.175       27.442       25.426     1614.005      753.062      646.492        0.185        0.151       23.974       23.836        0.989      331.371       -0.657      872.743
01/14/2022  07:03:00      -41.990        0.049       -8.903       31.134       21.235       18.717      969.349      450.923      350.321        0.181        0.089       41.990       19.119        0.207      331.437       -0.549      872.804
01/14/2022  07:04:00      -29.893       -5.367       -3.349       20.939       23.784       21.942      438.450      565.679      481.466        0.121        0.074       30.371       13.476        0.197      331.463       -0.507      872.889
01/14/2022  07:05:00      -50.091       16.430       -8.816       38.013       23.929       11.959     1445.001      572.600      143.019        0.251        0.108       52.717        4.336        0.007      331.423       -0.570      872.924
01/14/2022  07:06:00     -102.055       19.738      -21.649       19.384       23.314       14.648      375.751      543.543      214.574        0.620        0.057      103.946       10.454        0.010      331.417       -0.582      872.905
01/14/2022  07:07:00      -22.646       -2.318       -5.206       41.486       17.128       14.755     1721.104      293.373      217.714        0.139        0.112       22.764       10.491        0.212      331.371       -0.659      872.881
01/14/2022  07:08:00      -41.507        9.554       -8.513       25.593        8.393       11.572      654.987       70.443      133.910        0.137        0.043       42.592       12.946        0.092      331.413       -0.590      872.878
01/14/2022  07:09:00      -70.710        9.636      -20.640       11.981        9.298       10.378      143.548       86.456      107.702        0.293        0.017       71.364        2.484        0.001      331.505       -0.436      872.886
01/14/2022  07:10:00      -60.637       13.333      -16.616       15.543       19.683       12.359      241.585      387.434      152.746        0.246        0.039       62.086        8.295        0.018      331.520       -0.414      872.895
01/14/2022  07:11:00      -66.860       20.467      -10.003       12.740       12.591        8.198      162.298      158.540       67.213        0.269        0.019       69.922        3.796        0.003      331.490       -0.462      872.904
01/14/2022  07:12:00      -12.180       -4.868       -3.916       13.666       18.237        9.864      186.764      332.590       97.306        0.040        0.031       13.116        9.846        0.564      331.464       -0.506      872.899
01/14/2022  07:13:00      -17.620        3.322       -3.710       21.344       14.107        9.881      455.569      199.019       97.632        0.054        0.038       17.930        9.771        0.297      331.488       -0.466      872.863
01/14/2022  07:14:00      -62.913       -0.699      -12.060       18.875       19.484       15.229      356.270      379.625      231.936        0.254        0.048       62.917        7.622        0.015      331.415       -0.585      872.834
01/14/2022  07:15:00      -26.325      -11.247      -14.998       29.198       12.815       18.286      852.540      164.220      334.389        0.120        0.068       28.627       16.508        0.333      331.389       -0.629      872.842
01/14/2022  07:16:00      -14.483       -4.694       -6.343       12.334       14.670       11.517      152.131      215.200      132.650        0.039        0.025       15.224        6.385        0.176      331.452       -0.525      872.859
01/14/2022  07:17:00      -40.403       -9.972       -5.809       29.196       13.814       14.283      852.381      190.819      204.007        0.151        0.062       41.616       15.949        0.147      331.393       -0.621      872.864
01/14/2022  07:18:00      -11.060       -4.097       -8.218       28.772       17.146       15.800      827.825      293.985      249.629        0.079        0.069       11.795       16.221        1.891      331.346       -0.699      872.863
01/14/2022  07:19:00      -15.567      -16.609       -3.756       35.689       21.868       14.021     1273.707      478.199      196.578        0.124        0.097       22.764        5.819        0.065      331.309       -0.758      872.857
01/14/2022  07:20:00      -34.784      -19.401       -8.057       27.053       24.618       17.440      731.850      606.032      304.154        0.165        0.082       39.828       10.879        0.075      331.269       -0.825      872.875
01/14/2022  07:21:00      -56.528      -40.829      -20.977       17.475       26.607       13.885      305.363      707.916      192.784        0.325        0.060       69.731        6.865        0.010      331.201       -0.937      872.936
01/14/2022  07:22:00      -49.382      -10.641      -18.412       30.436       23.497       19.031      926.340      552.104      362.192        0.237        0.092       50.515        6.032        0.014      331.247       -0.860      872.978
01/14/2022  07:23:00      -70.220       10.692       -6.360       45.567       21.818       24.545     2076.344      476.019      602.462        0.412        0.158       71.029       18.820        0.070      331.152       -1.016      872.997
01/14/2022  07:24:00      -70.655        0.006       -7.734       49.204       26.007       21.774     2421.003      676.362      474.112        0.431        0.179       70.655       22.901        0.105      331.170       -0.987      872.985
01/14/2022  07:25:00     -102.547        0.977       -5.182       37.052       27.401       22.147     1372.841      750.805      490.499        0.658        0.131      102.551       19.670        0.037      331.061       -1.166      872.969
01/14/2022  07:26:00      -41.870       13.943      -15.729       31.665       26.154       20.336     1002.649      684.029      413.538        0.215        0.105       44.130       13.527        0.094      331.031       -1.217      872.949
01/14/2022  07:27:00      -81.015        5.875       -9.288       47.674       30.436       18.457     2272.833      926.353      340.669        0.511        0.177       81.227       21.066        0.067      331.110       -1.085      872.945
01/14/2022  07:28:00      -89.728       20.450       -6.339       25.325       22.257       14.272      641.372      495.369      203.703        0.492        0.067       92.029        4.764        0.003      331.105       -1.095      872.930
01/14/2022  07:29:00      -82.048       11.677      -11.157       28.167       26.545       17.134      793.370      704.613      293.572        0.439        0.090       82.875       11.470        0.019      331.056       -1.176      872.932
01/14/2022  07:30:00      -81.027       24.240       -9.612       30.415       24.044       16.034      925.047      578.118      257.074        0.450        0.088       84.575       14.260        0.028      331.012       -1.248      872.929
01/14/2022  07:31:00     -101.207       22.846      -13.144       22.020       18.188       16.139      484.885      330.789      260.457        0.601        0.054      103.753       10.891        0.011      331.069       -1.154      872.920
01/14/2022  07:32:00      -90.709       22.648      -13.914       22.441       18.185       12.418      503.582      330.709      154.210        0.496        0.049       93.494        9.036        0.009      331.112       -1.082      872.931
01/14/2022  07:33:00      -89.368       17.276      -18.910       18.113       17.159       16.768      328.086      294.433      281.167        0.477        0.045       91.023        5.444        0.004      331.157       -1.009      872.953
01/14/2022  07:34:00      -38.751        5.148       -2.221       31.845       17.287       17.070     1014.127      298.823      291.369        0.157        0.080       39.091       20.153        0.266      331.196       -0.944      872.982
01/14/2022  07:35:00      -49.615       13.097       -8.653       14.314       14.696       12.763      204.878      215.970      162.898        0.165        0.029       51.315        9.462        0.034      331.233       -0.883      873.011
01/14/2022  07:36:00      -70.792       38.524      -10.671       16.780       16.207       10.478      281.564      262.671      109.790        0.363        0.033       80.596        5.459        0.005      331.280       -0.805      873.031
01/14/2022  07:37:00      -34.776        6.515      -10.785       19.972       22.510       11.938      398.893      506.711      142.509        0.121        0.052       35.381        8.053        0.052      331.334       -0.719      873.037
01/14/2022  07:38:00      -16.172      -38.005      -13.435       21.687       11.752       12.814      470.323      138.103      164.202        0.133        0.039       41.303        6.332        0.023      331.432       -0.557      873.046
01/14/2022  07:39:00      -14.941       -9.935      -15.055       13.090       19.275        7.072      171.350      371.543       50.019        0.057        0.030       17.943        3.446        0.037      331.455       -0.521      873.091
01/14/2022  07:40:00      -15.987        2.748       -3.216        9.706        6.726       10.237       94.205       45.237      104.790        0.026        0.012       16.222        6.486        0.160      331.456       -0.519      873.119
01/14/2022  07:41:00       -9.861        8.182      -11.395        8.263        5.507        7.331       68.283       30.323       53.745        0.022        0.008       12.814        2.536        0.039      331.496       -0.451      873.121
01/14/2022  07:42:00       -9.878       -0.120      -14.734        8.736        8.087        7.296       76.318       65.394       53.236        0.025        0.010        9.879        4.877        0.244      331.568       -0.333      873.116
01/14/2022  07:43:00        8.046      -22.071       -7.403       12.656       10.903       11.357      160.167      118.880      128.992        0.051        0.020       23.492        7.218        0.094      331.641       -0.212      873.141
01/14/2022  07:44:00       24.679      -32.092      -14.583       17.019       25.682       14.208      289.641      659.589      201.867        0.150        0.058       40.484       13.405        0.110      331.514       -0.423      873.183
01/14/2022  07:45:00       22.787        8.249      -16.345       20.597       30.035       15.895      424.221      902.103      252.663        0.122        0.079       24.234        8.940        0.136      331.396       -0.615      873.227
01/14/2022  07:46:00       10.125       -4.811      -16.629       22.092       32.741       12.415      488.072     1071.956      154.129        0.106        0.086       11.210       10.275        0.840      331.416       -0.583      873.244
01/14/2022  07:47:00      -11.129        9.262       -9.064       11.235       13.582        6.789      126.217      184.469       46.087        0.032        0.018       14.479        6.787        0.220      331.449       -0.529      873.231
01/14/2022  07:48:00      -23.394       36.403       -6.007        5.109        5.883        5.561       26.106       34.606       30.922        0.100        0.005       43.272        2.095        0.002      331.491       -0.461      873.206
01/14/2022  07:49:00        0.863       19.768       -4.947       11.509       11.063        4.570      132.453      122.384       20.881        0.035        0.014       19.787        4.057        0.042      331.690       -0.131      873.232
01/14/2022  07:50:00       15.744        6.806       -8.640       10.049        4.545        5.702      100.983       20.653       32.511        0.026        0.008       17.152        5.570        0.105      331.744       -0.044      873.266
01/14/2022  07:51:00        6.378        9.754       -3.200       10.021        7.708        5.311      100.418       59.411       28.211        0.017        0.009       11.654        4.561        0.153      331.825        0.092      873.281
01/14/2022  07:52:00       15.426       11.712       -9.061        7.092        5.650        4.682       50.293       31.927       21.925        0.028        0.005       19.368        2.596        0.018      331.724       -0.075      873.274
01/14/2022  07:53:00        7.703       23.790       -9.031       10.953        6.501        7.632      119.958       42.263       58.247        0.046        0.011       25.006        3.791        0.023      331.699       -0.116      873.252
01/14/2022  07:54:00      -17.084       14.578      -10.337        9.047        6.160        4.680       81.849       37.947       21.902        0.038        0.007       22.458        3.045        0.018      331.768       -0.003      873.237
01/14/2022  07:55:00       -0.567       16.009       -5.645        8.289        9.143        9.607       68.711       83.597       92.298        0.027        0.012       16.019        6.447        0.162      331.855        0.139      873.244
01/14/2022  07:56:00       -1.806        7.361       -3.242        3.384        8.268        5.596       11.453       68.365       31.315        0.009        0.006        7.579        2.176        0.082      331.982        0.348      873.258
01/14/2022  07:57:00        1.936        1.298       -3.885        9.856       19.389        6.016       97.135      375.945       36.195        0.026        0.025        2.331        4.214        3.269      331.957        0.307      873.289
01/14/2022  07:58:00        6.029       21.924        0.438       12.244       15.119       13.406      149.922      228.585      179.718        0.054        0.028       22.738       13.559        0.356      331.841        0.116      873.305
01/14/2022  07:59:00        8.514        8.076       -6.299       14.474       14.681        8.761      209.496      215.528       76.747        0.034        0.025       11.735        9.671        0.679      331.930        0.262      873.323
01/14/2022  08:00:00       27.443       20.483      -11.512       10.145        9.777        6.457      102.921       95.581       41.699        0.077        0.012       34.245        4.768        0.019      331.741       -0.047      873.332
01/14/2022  08:01:00       -0.057        7.632       -3.534        3.934        7.658        3.608       15.480       58.650       13.018        0.008        0.004        7.633        2.601        0.116      332.013        0.401      873.317
01/14/2022  08:02:00      -11.570       21.992       -2.175        6.940        4.814        3.856       48.164       23.170       14.872        0.035        0.004       24.850        1.714        0.005      331.885        0.189      873.296
01/14/2022  08:03:00      -16.352        7.627       -7.964        8.986        8.246        4.810       80.745       67.991       23.135        0.028        0.009       18.043        2.359        0.017      331.888        0.195      873.309
01/14/2022  08:04:00       -7.797      -12.897       -2.727        7.716       11.901        6.732       59.531      141.642       45.321        0.024        0.012       15.071        7.327        0.236      332.024        0.419      873.353
01/14/2022  08:05:00        5.913      -64.287       -8.112       32.371       38.617       22.150     1047.884     1491.237      490.635        0.363        0.151       64.559       21.850        0.115      331.902        0.218      873.396
01/14/2022  08:06:00       -0.005      -67.906      -18.172       41.538       38.930       23.356     1725.408     1515.569      545.504        0.436        0.189       67.906       21.922        0.104      331.816        0.075      873.408
01/14/2022  08:07:00      -12.925       -1.492      -29.322       18.947       30.775       13.597      358.984      947.101      184.876        0.126        0.075       13.011       12.576        0.934      331.916        0.240      873.405
01/14/2022  08:08:00       -8.909       15.553       -9.336       13.283       10.906       14.819      176.439      118.949      219.590        0.046        0.026       17.924        9.580        0.286      331.824        0.089      873.403
01/14/2022  08:09:00      -20.500        9.001       -8.823       11.793        7.698        9.652      139.084       59.260       93.167        0.044        0.015       22.390        6.199        0.077      331.883        0.187      873.405
01/14/2022  08:10:00      -16.991       13.303      -10.030       17.750       10.411        9.708      315.063      108.383       94.238        0.054        0.026       21.579        5.961        0.076      331.835        0.106      873.404
01/14/2022  08:11:00      -20.184       26.970       -7.983       16.845       16.558       13.082      283.752      274.174      171.138        0.096        0.036       33.686        5.396        0.026      331.787        0.028      873.443
01/14/2022  08:12:00       11.670       28.490        2.411       16.191       14.787       11.055      262.146      218.645      122.218        0.078        0.030       30.787       10.639        0.119      332.004        0.384      873.490
01/14/2022  08:13:00        9.486       28.008        4.388       17.064       15.798       10.860      291.189      249.584      117.943        0.078        0.033       29.571        9.177        0.096      332.086        0.518      873.501
01/14/2022  08:14:00      -23.330        8.106       -5.994       13.909        7.896        9.531      193.470       62.343       90.847        0.050        0.017       24.698        7.844        0.101      332.048        0.457      873.509
01/14/2022  08:15:00       -6.057      -18.253       -0.820       20.573       14.886       12.423      423.236      221.608      154.329        0.058        0.040       19.232        9.330        0.235      332.100        0.542      873.532
01/14/2022  08:16:00      -27.746      -25.745       -2.464       29.479       31.222       21.102      868.984      974.822      445.276        0.186        0.114       37.851        8.809        0.054      332.009        0.393      873.545
01/14/2022  08:17:00      -20.923       13.872      -10.984       20.213       16.912       13.894      408.563      286.001      193.034        0.082        0.044       25.104        8.297        0.109      331.990        0.362      873.519
01/14/2022  08:18:00      -11.653       -8.120      -18.816       17.560       19.042       11.095      308.354      362.612      123.097        0.067        0.040       14.203        4.364        0.094      331.989        0.360      873.512
01/14/2022  08:19:00      -23.370       -7.245        6.775       35.489       19.057       16.383     1259.486      363.153      268.408        0.127        0.095       24.467       16.632        0.462      332.143        0.615      873.499
01/14/2022  08:20:00      -60.035      -11.582      -12.804       29.191       21.031       13.859      852.086      442.288      192.081        0.269        0.074       61.142       11.275        0.034      331.958        0.309      873.522
01/14/2022  08:21:00      -32.029       -8.194      -10.224       16.358       15.403       10.347      267.569      237.268      107.052        0.090        0.031       33.060        3.475        0.011      332.016        0.404      873.545
01/14/2022  08:22:00      -60.706        2.472       -7.474       28.719       27.123       13.974      824.766      735.656      195.284        0.275        0.088       60.757       12.388        0.042      331.939        0.277      873.531
01/14/2022  08:23:00      -49.536       -7.235       -5.875       37.358       24.728       20.017     1395.642      611.472      400.679        0.247        0.120       50.062       13.965        0.078      332.052        0.464      873.498
01/14/2022  08:24:00      -22.939       -6.873       -4.071       16.703       22.384       12.924      279.006      501.044      167.020        0.077        0.047       23.946       10.204        0.182      332.122        0.579      873.506
01/14/2022  08:25:00      -46.134       -2.136       -3.876       46.228       24.009       15.629     2136.985      576.412      244.276        0.255        0.148       46.183       13.379        0.084      332.034        0.434      873.506
01/14/2022  08:26:00      -73.875       11.014       -3.491       30.486       27.931       15.493      929.383      780.122      240.019        0.377        0.097       74.691       12.091        0.026      331.974        0.336      873.517
01/14/2022  08:27:00      -49.830       14.176      -14.874       30.355       16.956       15.493      921.446      287.501      240.035        0.218        0.072       51.808       11.414        0.049      332.005        0.388      873.544
01/14/2022  08:28:00      -22.329        3.852      -11.029        9.741        8.450        8.922       94.893       71.399       79.596        0.044        0.012       22.659        6.079        0.072      332.130        0.592      873.578
01/14/2022  08:29:00      -15.750       -9.963       -4.747       17.518       13.645       13.129      306.883      186.187      172.384        0.052        0.033       18.637       12.714        0.465      332.278        0.836      873.566
01/14/2022  08:30:00       -9.426        0.405       -1.135       27.331       18.578       13.463      746.989      345.144      181.240        0.068        0.064        9.434       13.290        1.984      332.234        0.763      873.530
01/14/2022  08:31:00      -54.579       -8.559       -0.420       28.601       28.459       15.564      817.997      809.901      242.226        0.246        0.094       55.246       15.669        0.080      332.019        0.409      873.482
01/14/2022  08:32:00      -49.907       10.742      -10.971       23.165       21.224       11.143      536.631      450.473      124.170        0.192        0.056       51.050       12.284        0.058      332.050        0.459      873.458
01/14/2022  08:33:00      -36.954        3.191       -7.183       19.102       15.282       12.310      364.873      233.527      151.537        0.109        0.037       37.091        7.346        0.039      332.095        0.535      873.459
01/14/2022  08:34:00        5.084       -6.056      -13.071       16.143       13.063       10.081      260.598      170.643      101.629        0.038        0.027        7.907        4.572        0.334      332.362        0.975      873.478
01/14/2022  08:35:00      -10.155        8.110        0.867        9.185        7.614        7.167       84.361       57.970       51.366        0.018        0.010       12.996        6.073        0.218      332.485        1.178      873.500
01/14/2022  08:36:00      -13.519        6.811       -6.121       11.418        7.273        6.742      130.359       52.896       45.459        0.025        0.011       15.138        6.935        0.210      332.367        0.984      873.496
01/14/2022  08:37:00       -1.537       -1.865       -3.203        5.734        4.779        9.472       32.879       22.839       89.727        0.008        0.007        2.417        6.044        6.253      332.742        1.603      873.493
01/14/2022  08:38:00      -13.082       -6.528       -6.158       15.513       13.115        9.732      240.657      172.010       94.704        0.038        0.025       14.620        6.902        0.223      332.485        1.177      873.516
01/14/2022  08:39:00      -33.390        1.041       -9.462       15.052        8.075        7.520      226.560       65.204       56.543        0.078        0.017       33.406        5.805        0.030      332.300        0.874      873.536
01/14/2022  08:40:00      -34.449        0.889       -3.990       11.623       10.168        8.679      135.097      103.381       75.329        0.076        0.016       34.460        5.015        0.021      332.430        1.087      873.518
01/14/2022  08:41:00      -39.105       -0.553       -9.680       16.036       17.808       14.698      257.168      317.123      216.025        0.121        0.040       39.109        7.550        0.037      332.577        1.330      873.503
01/14/2022  08:42:00        1.838       11.704       -2.756       16.879       18.718        9.843      284.894      350.352       96.889        0.044        0.037       11.847        5.697        0.231      332.757        1.627      873.482
01/14/2022  08:43:00       22.765       32.029       -9.218       17.586       18.941       11.625      309.253      358.747      135.142        0.122        0.040       39.295       10.258        0.068      332.651        1.450      873.475
01/14/2022  08:44:00        8.311       21.180      -11.910       27.678       34.993       19.183      766.054     1224.496      367.979        0.151        0.118       22.753        2.664        0.014      332.730        1.583      873.476
01/14/2022  08:45:00        6.163       20.435       -9.143        9.645       20.012       11.650       93.033      400.485      135.719        0.058        0.031       21.344       13.349        0.391      332.777        1.661      873.487
01/14/2022  08:46:00       14.944       43.023        3.203       21.611       32.026       17.568      467.056     1025.678      308.623        0.194        0.090       45.545       11.353        0.062      332.876        1.825      873.504
01/14/2022  08:47:00       49.985       70.326       -7.492       33.287       21.830       17.882     1108.036      476.567      319.769        0.470        0.095       86.280       14.508        0.028      332.868        1.811      873.510
01/14/2022  08:48:00       77.545       53.604      -22.351       32.370       43.248       25.621     1047.838     1870.411      656.422        0.648        0.179       94.269       23.363        0.061      332.870        1.814      873.522
01/14/2022  08:49:00       84.074       41.417      -30.230       28.568       30.223       19.886      816.152      913.403      395.472        0.591        0.106       93.722       13.952        0.022      332.730        1.581      873.536
01/14/2022  08:50:00       67.114       70.894      -22.149       30.360       22.272       20.272      921.720      496.030      410.955        0.592        0.091       97.623        8.371        0.007      332.867        1.809      873.546
01/14/2022  08:51:00       26.499       25.787      -14.928       29.535       37.027       20.455      872.296     1370.993      418.393        0.213        0.133       36.975       18.491        0.250      333.007        2.040      873.542
01/14/2022  08:52:00       30.621      -17.605      -21.055       34.578       25.125       19.239     1195.611      631.288      370.127        0.194        0.110       35.321       13.366        0.143      333.074        2.151      873.517
01/14/2022  08:53:00       78.743        6.178      -10.059       26.864       25.678       14.598      721.685      659.359      213.102        0.397        0.080       78.985       10.451        0.018      332.828        1.745      873.503
01/14/2022  08:54:00       66.133       41.657       -9.013       23.583       29.194       21.689      556.168      852.302      470.417        0.403        0.094       78.159       13.273        0.029      332.922        1.902      873.499
01/14/2022  08:55:00       67.580       41.173      -29.304       33.112       36.219       20.233     1096.376     1311.808      409.379        0.497        0.141       79.135       11.157        0.020      332.963        1.969      873.505
01/14/2022  08:56:00       76.801       33.179      -25.017       33.386       42.365       21.075     1114.638     1794.819      444.172        0.549        0.168       83.661        9.923        0.014      333.196        2.353      873.509
01/14/2022  08:57:00      118.443       51.443      -21.865       20.877       22.195       17.914      435.866      492.624      320.915        0.920        0.062      129.132       10.312        0.006      332.848        1.779      873.477
01/14/2022  08:58:00      119.440       37.825      -20.412       16.425       21.723       16.601      269.785      471.885      275.583        0.857        0.051      125.286       11.108        0.008      332.779        1.664      873.444
01/14/2022  08:59:00       94.459       33.917      -24.447       35.132       36.851       19.224     1234.230     1357.961      369.574        0.682        0.148      100.364        8.742        0.008      333.180        2.326      873.450
01/14/2022  09:00:00      147.415       36.707      -27.306       36.893       32.752       20.830     1361.123     1072.710      433.873        1.335        0.143      151.917        5.751        0.001      333.026        2.072      873.477
01/14/2022  09:01:00      159.531       60.220      -27.173       27.604       30.220       22.426      762.005      913.255      502.935        1.600        0.109      170.518       16.822        0.010      333.005        2.037      873.511
01/14/2022  09:02:00      111.100       25.764      -27.782       52.809       59.629       31.708     2788.840     3555.583     1005.380        1.056        0.367      114.048        8.519        0.006      333.246        2.438      873.513
01/14/2022  09:03:00       50.000       13.795       -6.267       44.072       58.249       28.300     1942.334     3392.963      800.909        0.443        0.307       51.868       17.376        0.112      333.468        2.804      873.489
01/14/2022  09:04:00       69.861       31.546      -15.912       44.011       52.042       26.416     1936.945     2708.386      697.829        0.574        0.267       76.653       17.183        0.050      333.548        2.936      873.479
01/14/2022  09:05:00       82.632       48.910      -28.528       44.402       37.620       17.266     1971.510     1415.253      298.107        0.686        0.184       96.022       10.465        0.012      333.285        2.502      873.470
01/14/2022  09:06:00       50.604       35.352       -6.003       52.122       71.627       28.233     2716.737     5130.492      797.123        0.624        0.432       61.730       13.579        0.048      333.562        2.958      873.439
01/14/2022  09:07:00       26.004        2.674      -16.949       35.525       29.795       27.498     1262.014      887.743      756.148        0.194        0.145       26.142       15.676        0.360      333.636        3.082      873.424
01/14/2022  09:08:00       59.062       29.851      -16.845       47.850       52.318       32.294     2289.588     2737.188     1042.872        0.537        0.303       66.177       22.033        0.111      333.513        2.878      873.401
01/14/2022  09:09:00      161.854       38.829      -17.474       28.102       18.501       20.370      789.716      342.287      414.930        1.478        0.077      166.447       14.187        0.007      333.081        2.162      873.397
01/14/2022  09:10:00      102.079       30.431      -20.109       29.132       15.410       12.634      848.661      237.482      159.622        0.650        0.062      106.519        6.582        0.004      333.107        2.209      873.388
01/14/2022  09:11:00       65.422       53.424      -14.718       28.057       24.082       19.156      787.181      579.944      366.954        0.454        0.087       84.464       16.451        0.038      333.390        2.674      873.389
01/14/2022  09:12:00       25.431       46.172       -9.835       50.825       41.766       22.225     2583.221     1744.432      493.970        0.385        0.241       52.712       25.667        0.237      333.572        2.975      873.408
01/14/2022  09:13:00       27.878      -18.492      -36.242       37.232       38.418       23.454     1386.219     1475.906      550.091        0.292        0.171       33.453        4.535        0.018      333.857        3.449      873.419
01/14/2022  09:14:00       74.864       35.908      -36.920       50.761       63.883       21.414     2576.697     4081.037      458.567        0.769        0.356       83.030       22.751        0.075      333.861        3.454      873.428
01/14/2022  09:15:00       88.804       36.394      -28.129       40.830       33.280       23.878     1667.114     1107.568      570.152        0.667        0.167       95.972       10.590        0.012      333.673        3.142      873.430
01/14/2022  09:16:00       62.254       31.741      -19.103       41.005       18.135       20.411     1681.443      328.861      416.589        0.384        0.121       69.879       16.119        0.053      333.674        3.145      873.420
01/14/2022  09:17:00       52.455       28.135       -5.573       35.128       38.255       24.281     1234.000     1463.450      589.574        0.343        0.164       59.524       15.446        0.067      333.925        3.561      873.410
01/14/2022  09:18:00      164.328       71.402      -32.354       48.820       36.250       26.575     2383.407     1314.060      706.206        1.878        0.220      179.170       16.690        0.009      333.654        3.109      873.407
01/14/2022  09:19:00      190.109       74.134      -31.556       71.981       57.165       36.658     5181.260     3267.782     1343.790        2.621        0.490      204.052       19.386        0.009      333.698        3.180      873.422
01/14/2022  09:20:00      111.336       94.374      -14.594       56.355       40.165       32.309     3175.877     1613.207     1043.859        1.367        0.292      145.952       24.133        0.027      333.877        3.480      873.440
01/14/2022  09:21:00      226.878       83.989      -23.473       32.064       35.334       24.813     1028.073     1248.511      615.663        3.098        0.145      241.925       13.286        0.003      333.575        2.975      873.443
01/14/2022  09:22:00      161.093       34.026      -16.468       52.898       31.526       29.911     2798.203      993.863      894.642        1.603        0.234      164.648       17.025        0.011      333.653        3.109      873.441
01/14/2022  09:23:00       77.049       53.404      -15.299       46.480       45.690       28.711     2160.362     2087.570      824.317        0.705        0.254       93.748       22.086        0.056      333.862        3.456      873.425
01/14/2022  09:24:00      137.422       55.372      -19.126       70.769       44.428       27.000     5008.290     1973.825      728.985        1.501        0.386      148.159       25.364        0.029      333.911        3.537      873.413
01/14/2022  09:25:00      193.441       14.020      -19.628       55.957       47.785       32.319     3131.180     2283.427     1044.522        2.223        0.323      193.948       19.805        0.010      333.757        3.279      873.433
01/14/2022  09:26:00      154.101       43.810      -24.502       67.369       59.753       34.030     4538.642     3570.373     1158.029        1.777        0.463      160.207       24.118        0.023      333.969        3.633      873.463
01/14/2022  09:27:00      190.539      113.938      -28.673       54.849       35.841       34.541     3008.394     1284.551     1193.048        2.780        0.274      222.007       22.013        0.010      333.689        3.165      873.489
01/14/2022  09:28:00      141.825      117.428      -30.814       69.617       49.069       45.023     4846.460     2407.812     2027.111        2.207        0.464      184.129       38.875        0.045      333.791        3.334      873.493
01/14/2022  09:29:00       88.269       93.940      -16.051       63.238       45.938       40.756     3999.020     2110.338     1661.042        1.232        0.389      128.904       33.334        0.067      333.853        3.441      873.475
01/14/2022  09:30:00       92.186       73.822      -22.408       55.623       34.101       28.985     3093.912     1162.880      840.140        0.977        0.255      118.101       25.387        0.046      334.061        3.785      873.456
01/14/2022  09:31:00      127.837       54.437       -7.274       99.138       59.127       36.237     9828.400     3495.954     1313.141        1.700        0.732      138.945       33.475        0.058      334.137        3.910      873.437
01/14/2022  09:32:00      146.380       42.013      -19.037       85.818       63.131       39.489     7364.780     3985.478     1559.401        1.823        0.645      152.290       42.642        0.078      334.043        3.753      873.442
01/14/2022  09:33:00      144.540       62.496      -29.981       75.309       70.186       35.494     5671.407     4926.016     1259.833        1.877        0.593      157.473       10.597        0.005      334.105        3.857      873.457
01/14/2022  09:34:00       43.485        3.323      -20.824       44.502       51.122       31.700     1980.412     2613.499     1004.904        0.397        0.280       43.612        9.162        0.044      334.373        4.302      873.491
01/14/2022  09:35:00       82.210        9.445      -35.904       51.661       55.999       37.430     2668.906     3135.855     1401.034        0.767        0.360       82.751       18.283        0.049      334.142        3.920      873.504
01/14/2022  09:36:00       73.686      -10.669      -20.138       49.423       46.380       29.544     2442.618     2151.121      872.819        0.571        0.273       74.454       17.505        0.055      334.240        4.081      873.505
01/14/2022  09:37:00       77.565        0.925      -31.140       46.839       61.486       29.621     2193.893     3780.547      877.384        0.692        0.343       77.570       21.225        0.075      334.336        4.241      873.510
01/14/2022  09:38:00       38.835       -8.621      -11.179       44.591       52.205       40.569     1988.332     2725.387     1645.863        0.403        0.318       39.780       23.053        0.336      334.578        4.643      873.519
01/14/2022  09:39:00       42.292       32.527      -10.815       52.663       61.581       35.489     2773.401     3792.170     1259.493        0.539        0.391       53.354       23.969        0.202      334.596        4.672      873.563
01/14/2022  09:40:00       37.011       -5.111       -3.259       55.266       44.516       36.485     3054.317     1981.710     1331.166        0.389        0.318       37.362       22.811        0.373      334.766        4.956      873.605
01/14/2022  09:41:00      128.288       56.433      -17.770       65.556       71.818       34.045     4297.532     5157.764     1159.062        1.528        0.531      140.151       19.421        0.019      334.386        4.324      873.578
01/14/2022  09:42:00      140.873        2.617      -20.080       63.442       70.343       43.809     4024.918     4948.160     1919.204        1.557        0.545      140.898       34.831        0.061      334.501        4.513      873.546
01/14/2022  09:43:00       72.033       14.794      -11.968       70.845       52.440       37.088     5019.046     2750.004     1375.519        0.735        0.457       73.537       25.358        0.119      334.410        4.364      873.549
01/14/2022  09:44:00       52.982       21.250      -40.313       59.646       51.770       39.186     3557.602     2680.111     1535.572        0.633        0.389       57.085       28.587        0.251      334.579        4.643      873.552
01/14/2022  09:45:00       14.961       13.256       -1.325       62.454       46.861       31.151     3900.533     2195.950      970.407        0.373        0.353       19.989       19.485        0.950      334.540        4.577      873.555
01/14/2022  09:46:00      101.127       13.563       -9.144       79.328       37.541       33.997     6292.962     1409.313     1155.812        0.967        0.443      102.033       38.560        0.143      334.486        4.489      873.555
01/14/2022  09:47:00       53.143       44.575      -16.881       81.098       52.896       37.540     6576.859     2797.987     1409.252        0.794        0.539       69.363       25.448        0.135      334.525        4.553      873.583
01/14/2022  09:48:00      144.641       22.499      -22.321       70.874       72.753       38.206     5023.055     5293.054     1459.705        1.685        0.589      146.381       22.627        0.024      334.271        4.131      873.597
01/14/2022  09:49:00       87.041      -28.895      -36.205       67.305       69.088       43.506     4529.967     4773.104     1892.814        1.046        0.560       91.711       15.586        0.029      334.678        4.809      873.574
01/14/2022  09:50:00       99.994      -26.531      -31.902       65.665       73.891       46.080     4311.912     5459.809     2123.377        1.181        0.595      103.454       34.955        0.114      334.641        4.748      873.544
01/14/2022  09:51:00       88.149      -41.934      -30.336       62.507       62.910       43.451     3907.077     3957.729     1887.974        1.010        0.488       97.615       17.029        0.030      334.580        4.646      873.553
01/14/2022  09:52:00      125.794       -7.478      -17.758       57.220       61.300       29.603     3274.118     3757.632      876.314        1.205        0.395      126.016       23.056        0.033      334.309        4.195      873.540
01/14/2022  09:53:00       99.457       28.791      -24.566       75.088       55.657       33.646     5638.253     3097.697     1132.073        1.059        0.493      103.541       34.424        0.111      334.483        4.484      873.509
01/14/2022  09:54:00      174.546       25.544      -20.180       66.497       60.122       31.405     4421.900     3614.712      986.291        2.027        0.451      176.405       21.330        0.015      334.387        4.323      873.488
01/14/2022  09:55:00      118.415      -16.288      -10.230       83.283       61.063       50.748     6935.986     3728.655     2575.315        1.381        0.662      119.530       44.225        0.137      334.708        4.857      873.491
01/14/2022  09:56:00       89.186      -16.259      -48.104       56.181       93.589       49.857     3156.321     8758.836     2485.705        1.246        0.720       90.656       27.896        0.095      335.003        5.349      873.508
01/14/2022  09:57:00      120.166       -3.969      -13.886       89.784       78.046       49.720     8061.238     6091.231     2472.113        1.563        0.831      120.232       37.294        0.096      334.780        4.977      873.545
01/14/2022  09:58:00      136.155       -6.082      -31.618       74.181       70.685       37.337     5502.772     4996.381     1394.025        1.573        0.595      136.291       18.934        0.019      334.759        4.942      873.587
01/14/2022  09:59:00      148.089       -9.710      -17.989       91.862       66.283       38.740     8438.692     4393.495     1500.758        1.834        0.717      148.407       31.576        0.045      334.665        4.786      873.587
01/14/2022  10:00:00      161.301      -17.455      -10.717       95.416       58.502       55.450     9104.202     3422.531     3074.724        2.102        0.780      162.243       48.512        0.089      334.595        4.669      873.572
01/14/2022  10:01:00      136.862       23.959       -8.062       64.937       57.741       43.500     4216.828     3334.075     1892.256        1.441        0.472      138.944       39.442        0.081      334.638        4.741      873.582
01/14/2022  10:02:00      157.357       45.351      -28.996       45.846       47.819       27.395     2101.850     2286.656      750.499        1.640        0.257      163.762       10.024        0.004      334.762        4.947      873.607
01/14/2022  10:03:00      156.858       48.194      -19.932       61.861       53.064       27.626     3826.773     2815.761      763.168        1.736        0.370      164.095        7.524        0.002      334.800        5.010      873.618
01/14/2022  10:04:00      249.993       63.478      -15.630       59.485       52.569       33.401     3538.515     2763.534     1115.610        3.709        0.371      257.926       34.651        0.018      334.503        4.513      873.636
01/14/2022  10:05:00      138.623       54.730       -5.903       87.336       55.701       39.584     7627.660     3102.570     1566.886        1.727        0.615      149.036       25.673        0.030      334.828        5.059      873.649
01/14/2022  10:06:00      259.295       88.601      -18.336       85.649       64.313       39.797     7335.724     4136.208     1583.773        4.424        0.653      274.015       41.261        0.023      334.619        4.707      873.642
01/14/2022  10:07:00      179.418       55.675      -18.065       59.149       69.182       43.327     3498.548     4786.089     1877.252        2.289        0.508      187.857       27.637        0.022      334.841        5.078      873.637
01/14/2022  10:08:00      136.408       33.250      -24.607       82.579       66.643       42.115     6819.254     4441.285     1773.681        1.667        0.652      140.402       38.818        0.076      335.189        5.657      873.630
01/14/2022  10:09:00      137.547       17.005      -26.732       76.124       82.544       44.561     5794.839     6813.463     1985.692        1.726        0.730      138.594       25.374        0.034      335.185        5.650      873.637
01/14/2022  10:10:00      181.854        4.572      -20.793      109.358      103.800       56.220    11959.269    10774.378     3160.702        2.970        1.295      181.912       51.583        0.080      334.975        5.299      873.666
01/14/2022  10:11:00      152.521       32.109      -22.246      114.641       83.948       48.433    13142.515     7047.280     2345.801        2.366        1.127      155.864       45.846        0.087      335.062        5.446      873.713
01/14/2022  10:12:00      242.231       59.127      -18.505       88.235       45.571       34.379     7785.336     2076.689     1181.917        3.678        0.552      249.343       29.181        0.014      334.644        4.750      873.741
01/14/2022  10:13:00      195.895       35.767      -25.252       56.398       61.534       43.839     3180.707     3786.475     1921.848        2.459        0.444      199.133       28.901        0.021      334.908        5.188      873.735
01/14/2022  10:14:00      143.062       28.023      -24.777       91.697       85.774       50.480     8408.271     7357.221     2548.221        2.009        0.916      145.781       20.657        0.020      335.325        5.881      873.706
01/14/2022  10:15:00      139.733      -26.480      -17.519       91.607       70.955       59.184     8391.769     5034.634     3502.740        1.873        0.846      142.219       51.697        0.132      335.151        5.594      873.688
01/14/2022  10:16:00      186.536       16.768       -6.819       81.079       72.335       42.595     6573.837     5232.292     1814.352        2.437        0.681      187.289       30.096        0.026      335.082        5.479      873.688
01/14/2022  10:17:00      177.990       15.155      -10.250      126.445       91.100       57.138    15988.364     8299.239     3264.754        2.978        1.378      178.634       60.139        0.113      335.218        5.705      873.674
01/14/2022  10:18:00      214.216       26.820      -20.143       73.553       66.276       59.279     5410.065     4392.547     3514.046        3.016        0.666      215.888       41.094        0.036      335.225        5.714      873.666
01/14/2022  10:19:00      269.490       25.414      -41.449      128.930      101.400       52.266    16622.935    10282.029     2731.777        5.231        1.482      270.686       24.943        0.008      335.326        5.882      873.694
01/14/2022  10:20:00      266.112       66.975      -38.673      132.358       81.102       40.974    17518.673     6577.485     1678.884        5.128        1.289      274.411       37.384        0.019      335.123        5.544      873.709
01/14/2022  10:21:00      152.778      -22.178      -22.682       80.244       69.396       43.111     6439.083     4815.813     1858.530        1.873        0.656      154.379       25.573        0.027      335.441        6.075      873.674
01/14/2022  10:22:00       87.160        4.094       -8.143       84.753       80.385       56.508     7183.149     6461.804     3193.154        1.226        0.842       87.257       34.075        0.153      335.765        6.616      873.674
01/14/2022  10:23:00      134.012       54.964      -23.954       75.975       82.333       34.634     5772.129     6778.642     1199.506        1.765        0.688      144.846       19.796        0.019      335.556        6.267      873.681
01/14/2022  10:24:00       98.721       20.762      -33.776       78.186       78.045       47.495     6112.998     6090.970     2255.739        1.289        0.723      100.881       27.285        0.073      335.717        6.535      873.662
01/14/2022  10:25:00      128.908      -28.183       -9.441      101.804       89.079       76.513    10364.095     7935.014     5854.246        2.082        1.208      131.953       48.064        0.133      335.651        6.425      873.649
01/14/2022  10:26:00      213.781       42.231      -34.104       87.718       70.248       49.430     7694.379     4934.843     2443.335        3.186        0.754      217.913       21.847        0.010      335.651        6.422      873.655
01/14/2022  10:27:00      312.591       69.129      -30.314      103.124      126.437       60.098    10634.640    15986.195     3611.829        6.682        1.512      320.143       40.806        0.016      335.263        5.776      873.632
01/14/2022  10:28:00      214.384       32.386      -27.317       93.422       79.020       57.859     8727.715     6244.139     3347.668        3.303        0.916      216.816       47.063        0.047      335.670        6.456      873.641
01/14/2022  10:29:00      160.165       34.760      -29.382       91.228       81.074       49.835     8322.486     6573.037     2483.532        2.255        0.869      163.893       33.782        0.042      335.734        6.563      873.656
01/14/2022  10:30:00      140.135      -32.484      -20.476      110.508       89.338       59.522    12211.998     7981.251     3542.897        2.242        1.187      143.851       40.027        0.077      335.809        6.689      873.629
01/14/2022  10:31:00      212.673       26.677      -36.444      175.845       96.041       56.421    30921.503     9223.887     3183.277        4.529        2.166      214.340       26.595        0.015      335.669        6.457      873.624
01/14/2022  10:32:00      286.755       20.206      -18.678      184.988       91.939       58.490    34220.502     8452.807     3421.117        6.453        2.305      287.466       66.094        0.053      335.450        6.090      873.634
01/14/2022  10:33:00      131.332       26.251      -30.982      107.421       83.251       50.538    11539.318     6930.695     2554.043        1.996        1.051      133.930       34.101        0.065      335.954        6.930      873.654
01/14/2022  10:34:00      117.772       -3.018      -22.204      102.484      107.774       55.857    10502.904    11615.220     3119.977        1.980        1.262      117.811       39.349        0.112      335.967        6.952      873.647
01/14/2022  10:35:00      324.107       79.815      -24.265      111.853       75.239       55.805    12511.128     5660.848     3114.224        6.664        1.064      333.791       35.998        0.012      335.456        6.097      873.609
01/14/2022  10:36:00      151.884      -14.870       -8.520      147.127       87.542       62.355    21646.451     7663.586     3888.145        2.827        1.660      152.610       58.373        0.146      335.881        6.808      873.582
01/14/2022  10:37:00      315.068       78.420      -42.465       80.970       81.332       47.883     6556.180     6614.867     2292.776        6.134        0.773      324.681       37.364        0.013      335.617        6.367      873.586
01/14/2022  10:38:00      310.304       26.635      -30.166      103.149      108.777       55.376    10639.618    11832.444     3066.448        6.172        1.277      311.445       34.419        0.012      335.685        6.480      873.603
01/14/2022  10:39:00      176.188       36.754      -43.015      108.442       92.443       59.614    11759.643     8545.660     3553.826        2.905        1.193      179.981       22.433        0.016      335.765        6.614      873.611
01/14/2022  10:40:00      343.911      105.507      -24.104      119.953      107.338       57.515    14388.711    11521.437     3307.971        7.960        1.461      359.732       39.454        0.012      335.596        6.331      873.596
01/14/2022  10:41:00      289.802       21.650      -15.642      150.079      116.442       66.818    22523.822    13558.700     4464.580        6.262        2.027      290.610       63.583        0.048      335.730        6.555      873.598
01/14/2022  10:42:00      277.157       14.602      -36.579      129.363      114.814       72.944    16734.762    13182.236     5320.868        5.680        1.762      277.542       52.747        0.036      335.603        6.344      873.621
01/14/2022  10:43:00      329.707        1.887      -26.769      120.528      106.507       69.290    14526.938    11343.806     4801.168        7.004        1.534      329.713       65.181        0.039      335.739        6.572      873.647
01/14/2022  10:44:00      168.953      -25.901      -17.787      127.359       92.905       69.156    16220.226     8631.373     4782.551        2.958        1.482      170.927       61.792        0.131      335.772        6.627      873.658
01/14/2022  10:45:00       89.655       17.338      -33.695       84.483       95.497       56.718     7137.396     9119.606     3216.982        1.447        0.974       91.316       25.604        0.079      335.951        6.926      873.596
01/14/2022  10:46:00       54.703        5.826      -10.231       87.414       78.674       52.410     7641.210     6189.591     2746.839        0.985        0.829       55.012       31.095        0.319      335.993        6.996      873.588
01/14/2022  10:47:00      285.781       23.274      -21.202      138.685       96.144       61.168    19233.668     9243.758     3741.575        5.743        1.611      286.727       56.069        0.038      335.767        6.617      873.589
01/14/2022  10:48:00      268.127       24.409       -9.226      131.543       80.236       68.936    17303.563     6437.853     4752.147        5.053        1.425      269.235       61.425        0.052      335.883        6.811      873.569
01/14/2022  10:49:00      268.480       24.974      -37.839      118.572       89.170       53.438    14059.305     7951.206     2855.591        4.950        1.243      269.639       48.700        0.033      335.747        6.584      873.561
01/14/2022  10:50:00      313.794      104.961      -14.804       90.850       77.255       57.782     8253.726     5968.367     3338.712        6.363        0.878      330.883       43.320        0.017      335.615        6.365      873.545
01/14/2022  10:51:00      346.013       92.513      -32.905      117.087      106.885       63.008    13709.411    11424.461     3970.024        7.923        1.455      358.167       41.158        0.013      335.584        6.311      873.541
01/14/2022  10:52:00      212.755       54.084      -14.606      129.017      105.355       59.773    16645.313    11099.611     3572.848        3.985        1.566      219.521       46.272        0.044      335.841        6.741      873.532
01/14/2022  10:53:00      328.494       52.836      -39.590      121.550       99.691       56.781    14774.453     9938.342     3224.094        7.010        1.397      332.716       20.470        0.004      335.925        6.879      873.514
01/14/2022  10:54:00      326.281        8.103      -11.400      143.238      107.882       72.855    20517.215    11638.581     5307.833        7.205        1.873      326.382       67.858        0.043      335.770        6.621      873.486
01/14/2022  10:55:00      247.596       13.503      -22.473      108.890       90.445       55.550    11856.990     8180.325     3085.818        4.255        1.156      247.964       49.944        0.041      335.917        6.866      873.472
01/14/2022  10:56:00      235.406      -32.763      -30.151      149.726      130.874       81.444    22417.860    17127.940     6633.111        5.178        2.309      237.675       72.870        0.094      335.991        6.991      873.441
01/14/2022  10:57:00       98.529       17.720      -44.188       87.403      105.999       62.396     7639.202    11235.714     3893.319        1.737        1.138      100.110       41.885        0.175      336.097        7.169      873.453
01/14/2022  10:58:00      203.084        2.075      -48.632      123.759      108.629       58.753    15316.206    11800.288     3451.966        3.708        1.528      203.095       30.221        0.022      336.106        7.185      873.433
01/14/2022  10:59:00      112.132      -34.223      -50.082       89.717      103.086       54.921     8049.209    10626.710     3016.267        1.897        1.085      117.239       38.896        0.110      336.163        7.279      873.454
01/14/2022  11:00:00       46.994        6.754       -9.412       79.055      107.229       67.898     6249.745    11497.963     4610.190        1.235        1.118       47.477       41.103        0.750      336.127        7.220      873.457
01/14/2022  11:01:00       99.688     -100.580      -52.260       85.113      119.895       56.429     7244.263    14374.707     3184.197        2.379        1.240      141.612       44.809        0.100      335.947        6.918      873.425
01/14/2022  11:02:00      149.873       13.385      -23.181       86.627       77.452       47.180     7504.290     5998.880     2225.969        1.945        0.786      150.469       26.169        0.030      336.024        7.047      873.392
01/14/2022  11:03:00      137.247      -17.062      -42.867       85.413       92.788       48.238     7295.463     8609.692     2326.856        1.960        0.912      138.303       10.206        0.005      336.187        7.319      873.376
01/14/2022  11:04:00      160.807      -13.557      -24.390      118.152       95.704       66.236    13959.941     9159.164     4387.144        2.707        1.375      161.378       46.340        0.082      336.138        7.236      873.364
01/14/2022  11:05:00      248.582       34.921      -21.465       94.255       87.929       48.133     8883.967     7731.479     2316.814        4.120        0.947      251.023       36.422        0.021      336.082        7.143      873.365
01/14/2022  11:06:00      285.944       67.396      -28.184       96.515       72.786       43.940     9315.219     5297.844     1930.697        5.182        0.827      293.780       25.733        0.008      335.754        6.596      873.342
01/14/2022  11:07:00      321.196       60.329      -44.228      125.358       98.927       53.320    15714.739     9786.591     2843.070        6.855        1.417      326.813       18.146        0.003      336.062        7.109      873.319
01/14/2022  11:08:00      316.585       85.813      -23.882      108.653       80.528       43.750    11805.554     6484.784     1914.085        6.418        1.010      328.009       33.588        0.010      335.790        6.654      873.314
01/14/2022  11:09:00      286.200       27.286      -15.056      163.085      118.465       72.651    26596.733    14033.965     5278.240        6.439        2.295      287.498       71.296        0.061      336.110        7.189      873.284
01/14/2022  11:10:00      250.249       59.047      -18.222      127.810      105.289       68.880    16335.428    11085.694     4744.436        4.930        1.608      257.121       51.558        0.040      335.982        6.975      873.295
01/14/2022  11:11:00       82.789      -19.971      -35.207       82.276       93.946       52.371     6769.373     8825.776     2742.683        1.341        0.917       85.164       35.954        0.178      336.543        7.916      873.315
01/14/2022  11:12:00       35.015      -34.471      -29.118       85.189       81.577       55.714     7257.092     6654.815     3104.040        1.014        0.851       49.136       34.560        0.495      336.338        7.571      873.322
01/14/2022  11:13:00      157.470       -6.516      -15.212      110.924       80.073       50.479    12304.049     6411.613     2548.107        2.316        1.063      157.605       37.484        0.057      336.487        7.821      873.295
01/14/2022  11:14:00      126.097        9.306      -61.100       93.451      109.627       56.485     8733.080    12018.168     3190.506        2.183        1.197      126.440       23.015        0.033      336.588        7.990      873.307
01/14/2022  11:15:00      201.388      -23.711      -42.117      133.909       76.658       49.729    17931.499     5876.385     2472.927        3.458        1.314      202.779       31.505        0.024      336.154        7.263      873.279
01/14/2022  11:16:00      260.218       64.380      -33.121      145.757      123.680       57.508    21245.116    15296.623     3307.128        5.639        1.992      268.063       28.984        0.012      336.181        7.308      873.251
01/14/2022  11:17:00      200.073       11.379      -56.528      124.016      124.165       72.398    15379.922    15416.899     5241.478        3.969        1.802      200.396       20.417        0.010      336.379        7.638      873.254
01/14/2022  11:18:00      126.269       40.178      -36.246       82.221      114.294       67.895     6760.255    13063.025     4609.688        2.165        1.222      132.507       58.027        0.192      336.399        7.673      873.279
01/14/2022  11:19:00      223.594       16.979      -35.189      103.921      108.950       55.770    10799.571    11870.029     3110.279        3.865        1.289      224.238       23.068        0.011      336.139        7.237      873.286
01/14/2022  11:20:00      121.065       16.406      -30.402       83.582       84.062       63.592     6986.028     7066.371     4043.961        1.697        0.905      122.171       38.741        0.101      336.347        7.586      873.250
01/14/2022  11:21:00      306.743       56.241      -24.010      156.621       85.681       61.350    24530.058     7341.262     3763.839        6.673        1.782      311.856       57.397        0.034      336.095        7.164      873.226
01/14/2022  11:22:00      218.385       42.243      -32.941       99.444       92.861       48.245     9889.048     8623.100     2327.592        3.570        1.042      222.433       36.559        0.027      336.190        7.323      873.213
01/14/2022  11:23:00      223.578        1.980      -36.603      108.508      105.883       67.757    11773.989    11211.306     4590.987        3.945        1.379      223.587       46.120        0.043      336.245        7.415      873.213
01/14/2022  11:24:00      267.339       60.089      -26.938       85.132       67.909       44.261     7247.388     4611.696     1959.068        4.481        0.691      274.009       17.247        0.004      336.083        7.143      873.238
01/14/2022  11:25:00      182.440       35.115      -19.081       69.308       76.982       40.494     4803.657     5926.180     1639.786        2.362        0.618      185.788       34.535        0.035      336.242        7.410      873.221
01/14/2022  11:26:00      228.682       12.438      -36.589      124.036       97.595       68.935    15384.961     9524.763     4752.085        4.172        1.483      229.020       52.141        0.052      336.378        7.635      873.155
01/14/2022  11:27:00      245.580        3.745      -21.228      130.372      102.287       80.413    16996.818    10462.732     6466.306        4.734        1.696      245.609       67.334        0.075      336.474        7.797      873.106
01/14/2022  11:28:00      163.721       17.587      -77.569       82.202      105.151       49.153     6757.178    11056.813     2415.984        2.668        1.011      164.663       29.502        0.032      336.622        8.046      873.124
01/14/2022  11:29:00      102.685      -35.738      -43.888       90.098       87.134       53.478     8117.636     7592.421     2859.909        1.616        0.928      108.726       23.997        0.049      336.479        7.807      873.139
01/14/2022  11:30:00       94.789      -42.885      -44.419       90.830       99.604       57.202     8250.047     9920.976     3272.062        1.712        1.072      104.039       52.093        0.251      336.397        7.669      873.119
01/14/2022  11:31:00       54.149     -103.189      -37.222       88.496      113.208       60.146     7831.479    12816.103     3617.526        1.961        1.213      116.534       42.942        0.136      336.369        7.624      873.124
01/14/2022  11:32:00      167.972       48.274      -13.618      104.000       79.746       53.915    10815.958     6359.430     2906.830        2.540        1.004      174.771       54.266        0.096      336.472        7.795      873.105
01/14/2022  11:33:00      213.113       22.099      -50.068      129.359       98.249       52.985    16733.731     9652.890     2807.391        3.880        1.460      214.256       31.101        0.021      336.501        7.843      873.086
01/14/2022  11:34:00      257.603       67.303      -25.369       87.784       88.372       51.512     7706.110     7809.579     2653.489        4.485        0.908      266.250       33.529        0.016      336.204        7.345      873.084
01/14/2022  11:35:00      281.746       64.588      -28.927      135.177       77.111       51.332    18272.813     5946.065     2634.955        5.562        1.343      289.054       25.644        0.008      336.344        7.580      873.052
01/14/2022  11:36:00      326.139       44.858      -34.966      147.905       80.587       58.166    21875.950     6494.248     3383.262        7.067        1.588      329.209       48.100        0.021      336.219        7.370      873.026
01/14/2022  11:37:00      329.928       38.338      -25.204      131.506      104.042       54.015    17293.738    10824.765     2917.622        7.099        1.552      332.148       47.518        0.020      336.034        7.063      873.010
01/14/2022  11:38:00      350.869      176.737      -37.732       94.782       83.766       48.092     8983.692     7016.695     2312.868        8.704        0.916      392.867       34.380        0.008      336.039        7.070      872.985
01/14/2022  11:39:00      256.650       39.857      -29.868       92.543       90.335       46.126     8564.259     8160.393     2127.633        4.360        0.943      259.726       27.177        0.011      336.359        7.605      872.966
01/14/2022  11:40:00      268.137      103.709      -29.303      126.164      104.695       58.860    15917.448    10961.080     3464.495        5.692        1.517      287.495       42.756        0.022      336.478        7.804      872.962
01/14/2022  11:41:00      247.011       38.592      -28.195      110.813       96.480       50.574    12279.420     9308.429     2557.731        4.372        1.207      250.007       40.921        0.027      336.644        8.081      872.959
01/14/2022  11:42:00      225.366       57.746      -21.761      140.306       95.921       47.564    19685.911     9200.877     2262.376        4.287        1.557      232.646       41.316        0.032      336.447        7.751      872.965
01/14/2022  11:43:00      272.095       83.805      -32.683       90.658       74.524       51.780     8218.818     5553.794     2681.151        4.929        0.823      284.708       27.268        0.009      336.396        7.668      872.949
01/14/2022  11:44:00      414.094      105.732      -35.149      131.443      117.420       57.615    17277.138    13787.462     3319.536       10.913        1.719      427.379       57.468        0.018      336.230        7.389      872.925
01/14/2022  11:45:00      304.432       75.840      -21.393      135.253      114.119       70.448    18293.286    13023.168     4962.982        6.758        1.814      313.737       60.046        0.037      336.319        7.537      872.914
01/14/2022  11:46:00      350.502      113.620      -28.025      134.089      105.949       51.239    17979.886    11225.168     2625.423        8.418        1.592      368.458       38.636        0.011      336.229        7.387      872.915
01/14/2022  11:47:00      176.605       -4.465      -31.244      158.709      102.170       71.463    25188.656    10438.794     5107.011        3.645        2.037      176.661       62.900        0.127      336.597        8.004      872.895
01/14/2022  11:48:00      272.375       56.822      -27.178      138.808      101.522       67.668    19267.626    10306.680     4579.007        5.615        1.708      278.238       65.360        0.055      336.375        7.631      872.921
01/14/2022  11:49:00      182.523      105.154      -22.101      126.315       92.155       55.063    15955.393     8492.609     3031.899        3.617        1.374      210.647       41.454        0.039      336.449        7.755      872.929
01/14/2022  11:50:00       90.954       77.320      -17.716       61.789       69.000       35.655     3817.855     4760.960     1271.276        1.221        0.493      119.378        9.813        0.007      336.733        8.233      872.921
01/14/2022  11:51:00      328.770       31.592      -34.704      124.729       70.817       50.692    15557.433     5014.984     2569.689        6.671        1.157      330.284       23.044        0.005      336.338        7.569      872.887
01/14/2022  11:52:00      393.426       27.409      -29.184      109.099      102.737       60.058    11902.541    10554.891     3606.915        9.122        1.303      394.380       39.740        0.010      336.313        7.528      872.866
01/14/2022  11:53:00      371.950        2.716      -29.714      134.956      124.397       67.612    18213.017    15474.493     4571.383        8.874        1.913      371.960       53.240        0.020      336.300        7.505      872.873
01/14/2022  11:54:00      182.372      -24.278      -24.766      133.797      108.840       65.403    17901.697    11846.143     4277.585        3.424        1.701      183.981       51.047        0.077      336.544        7.915      872.882
01/14/2022  11:55:00      132.447       40.449      -13.890      105.359       90.421       47.286    11100.568     8175.989     2235.977        2.044        1.076      138.486       44.225        0.102      336.601        8.012      872.858
01/14/2022  11:56:00      432.361      167.659      -36.644      119.122      110.091       61.222    14190.105    12119.974     3748.166       12.322        1.503      463.730       50.786        0.012      336.276        7.464      872.830
01/14/2022  11:57:00      276.371       93.780      -29.155      161.869      134.942       72.199    26201.627    18209.301     5212.739        6.782        2.481      291.848       52.758        0.033      336.477        7.802      872.824
01/14/2022  11:58:00      166.734      -92.894      -21.850      134.846      130.818       62.854    18183.572    17113.348     3950.684        3.807        1.962      190.866       62.786        0.108      336.680        8.142      872.812
01/14/2022  11:59:00      105.246      -78.755      -16.099      103.320      127.829       57.017    10675.065    16340.171     3250.975        2.390        1.513      131.450       56.630        0.186      336.563        7.948      872.754
01/14/2022  12:00:00      223.947        6.315      -21.171      104.996       84.259       60.242    11024.242     7099.531     3629.099        3.619        1.088      224.036       28.852        0.017      336.592        7.993      872.723
01/14/2022  12:01:00      209.910       12.734      -31.822       82.152       76.754       45.290     6748.971     5891.225     2051.167        2.996        0.735      210.296       20.097        0.009      336.480        7.806      872.720
01/14/2022  12:02:00      184.991        0.389      -39.053      120.229      104.625       69.552    14455.052    10946.329     4837.500        3.299        1.512      184.991       45.064        0.059      336.650        8.091      872.693
01/14/2022  12:03:00      305.860       -1.031       -9.323      214.081      158.431      109.191    45830.604    25100.230    11922.582        8.823        4.143      305.862      110.273        0.130      336.475        7.800      872.657
01/14/2022  12:04:00      256.996       -4.880      -14.323      181.785      135.073       91.745    33045.819    18244.671     8417.156        6.298        2.985      257.043       95.538        0.138      336.615        8.032      872.636
01/14/2022  12:05:00      237.090        4.374      -26.772      175.679      115.640       77.133    30863.030    13372.542     5949.510        5.356        2.509      237.131       67.564        0.081      336.526        7.884      872.615
01/14/2022  12:06:00      314.106        3.516      -16.272      140.452      119.436       71.835    19726.900    14264.913     5160.335        6.904        1.958      314.126       45.966        0.021      336.568        7.954      872.590
01/14/2022  12:07:00      162.407      -17.357       -4.771      189.589       98.451       78.598    35943.806     9692.552     6177.574        3.925        2.591      163.332       86.101        0.278      336.828        8.390      872.585
01/14/2022  12:08:00      213.459       34.742      -31.927      168.683      120.299       72.951    28454.060    14471.820     5321.877        4.801        2.412      216.267       53.850        0.062      336.840        8.409      872.570
01/14/2022  12:09:00      120.582        7.598      -26.904       89.900       82.604       62.066     8081.953     6823.487     3852.219        1.704        0.938      120.822       30.207        0.063      336.900        8.511      872.537
01/14/2022  12:10:00      213.705       28.168      -25.781      145.237      114.380       48.225    21093.902    13082.710     2325.610        4.181        1.825      215.554       42.727        0.039      336.528        7.888      872.534
01/14/2022  12:11:00      376.437       76.191      -31.341      125.313      110.037       69.292    15703.348    12108.223     4801.442        9.055        1.631      384.070       48.872        0.016      336.482        7.809      872.535
01/14/2022  12:12:00      351.641       71.375      -44.432      110.890       90.955       50.784    12296.673     8272.793     2579.017        7.693        1.157      358.812       32.630        0.008      336.263        7.444      872.534
01/14/2022  12:13:00      218.163       40.559      -23.641      111.032       81.755       54.428    12328.214     6683.841     2962.361        3.588        1.099      221.901       34.333        0.024      336.684        8.147      872.524
01/14/2022  12:14:00      297.763       -0.349      -29.876      193.616      115.851       84.953    37487.042    13421.569     7217.067        7.383        2.906      297.763       75.107        0.064      336.725        8.217      872.516
01/14/2022  12:15:00      262.157       30.567       -6.391      123.150      110.170       70.588    15165.864    12137.522     4982.628        5.099        1.614      263.933       61.583        0.054      336.858        8.439      872.517
01/14/2022  12:16:00      240.208      -59.895      -34.461      113.648      142.556       73.510    12915.884    20322.172     5403.764        5.055        1.932      247.563       58.707        0.056      336.703        8.180      872.519
01/14/2022  12:17:00      227.276      -37.805      -39.475      173.708      132.884       96.373    30174.528    17658.077     9287.769        5.587        2.856      230.399       76.726        0.111      336.660        8.106      872.538
01/14/2022  12:18:00      174.434      -33.038      -48.388      116.491      115.266       64.510    13570.155    13286.231     4161.585        3.243        1.551      177.535       51.159        0.083      336.633        8.063      872.572
01/14/2022  12:19:00      303.807      -12.562      -31.539      172.553      122.054       89.607    29774.434    14897.189     8029.396        7.307        2.635      304.066       95.180        0.098      336.579        7.973      872.543
01/14/2022  12:20:00      372.574       37.331      -26.909      174.417      115.203       76.101    30421.318    13271.690     5791.311        9.520        2.474      374.440       62.879        0.028      336.642        8.078      872.524
01/14/2022  12:21:00      314.934       51.981      -28.681      207.678      120.346       92.817    43130.059    14483.083     8615.012        8.446        3.311      319.195      105.326        0.109      336.721        8.209      872.499
01/14/2022  12:22:00      151.838        8.627      -27.155      112.837      125.540       66.791    12732.255    15760.397     4461.093        2.840        1.648      152.083       43.528        0.082      336.903        8.516      872.480
01/14/2022  12:23:00      311.574       78.084      -28.961      137.002      123.333       78.387    18769.643    15211.120     6144.545        7.206        2.006      321.210       47.384        0.022      336.651        8.092      872.476
01/14/2022  12:24:00      212.652       19.053      -11.702      155.835      142.636       83.965    24284.646    20345.068     7050.141        4.869        2.584      213.504       55.617        0.068      336.787        8.321      872.500
01/14/2022  12:25:00      176.287     -101.749      -44.464      116.455      121.832       92.084    13561.743    14843.009     8479.467        4.014        1.844      203.544       63.883        0.099      336.742        8.246      872.500
01/14/2022  12:26:00      157.156      -77.228      -42.289      118.733      108.741       74.616    14097.609    11824.630     5567.571        3.196        1.574      175.106       55.890        0.102      336.658        8.106      872.465
01/14/2022  12:27:00      308.771      -20.793      -26.886      139.824      121.385       77.310    19550.692    14734.345     5976.913        6.837        2.013      309.470       53.187        0.030      336.584        7.980      872.486
01/14/2022  12:28:00      127.339        1.473      -29.093      123.260      111.302       63.501    15192.921    12388.216     4032.434        2.433        1.581      127.348       45.426        0.127      336.820        8.375      872.466
01/14/2022  12:29:00      348.097        7.463      -41.767      112.164      111.031       64.012    12580.687    12327.896     4097.498        7.598        1.450      348.177       41.400        0.014      336.635        8.064      872.454
01/14/2022  12:30:00      347.479      -32.745      -19.308      187.141      122.949       82.757    35021.798    15116.442     6848.749        8.958        2.849      349.019       85.178        0.060      336.598        8.004      872.439
01/14/2022  12:31:00      178.357      -27.221      -54.654      111.606      158.122       78.045    12455.972    25002.534     6091.081        3.954        2.177      180.422       48.250        0.072      336.821        8.376      872.455
01/14/2022  12:32:00      253.990       13.154      -16.091      155.378      120.843       84.501    24142.333    14603.087     7140.409        5.541        2.294      254.330       53.590        0.044      336.775        8.300      872.462
01/14/2022  12:33:00      206.764       24.888      -28.995       95.892      112.939       59.162     9195.194    12755.244     3500.180        3.483        1.273      208.257       23.170        0.012      336.746        8.252      872.458
01/14/2022  12:34:00      230.028       64.384      -36.195      106.139      104.353       47.783    11265.456    10889.526     2283.258        4.140        1.222      238.869       32.540        0.019      336.763        8.280      872.481
01/14/2022  12:35:00      160.146      -58.129      -18.513      162.642      135.007       99.007    26452.264    18226.922     9802.322        4.192        2.724      170.370       85.310        0.251      336.822        8.379      872.471
01/14/2022  12:36:00      131.158      -78.049      -37.487      129.134      144.304       87.725    16675.627    20823.784     7695.732        3.494        2.260      152.624       77.495        0.258      336.767        8.287      872.458
01/14/2022  12:37:00      328.076      -58.539      -24.556      208.399      160.189      107.911    43430.268    25660.379    11644.688        9.618        4.037      333.257      104.214        0.098      336.593        7.996      872.385
01/14/2022  12:38:00      430.493       16.364      -46.220      202.639      131.433       95.014    41062.722    17274.673     9027.695       12.753        3.368      430.804       81.055        0.035      336.534        7.897      872.376
01/14/2022  12:39:00      236.343      -28.429      -30.015      170.731       99.998       72.972    29149.024     9999.552     5324.950        5.101        2.224      238.047       56.759        0.057      336.608        8.022      872.379
01/14/2022  12:40:00      159.568      -26.604      -22.708      140.914      108.008       84.765    19856.869    11665.791     7185.073        3.269        1.935      161.770       80.876        0.250      336.836        8.404      872.361
01/14/2022  12:41:00      352.278       -8.237      -37.851      212.983      130.947       94.915    45361.869    17147.192     9008.880        9.855        3.576      352.374       84.232        0.057      336.603        8.013      872.326
01/14/2022  12:42:00      186.712       -8.176      -76.434      132.315      204.183       85.810    17507.291    41690.876     7363.316        5.365        3.328      186.891       83.730        0.201      336.757        8.269      872.363
01/14/2022  12:43:00      301.864       46.315      -17.264      160.691      116.004       82.238    25821.441    13456.993     6763.014        6.979        2.302      305.396       66.552        0.047      336.750        8.258      872.336
01/14/2022  12:44:00      255.461      -20.335      -34.999      195.727      140.441      102.366    38308.933    19723.556    10478.709        6.769        3.426      256.269       85.968        0.113      336.679        8.139      872.339
01/14/2022  12:45:00      122.705      -51.526       -4.117      136.243      104.998       99.406    18562.174    11024.491     9881.520        2.859        1.973      133.085       73.901        0.308      336.632        8.062      872.317
01/14/2022  12:46:00      182.748      -13.194      -46.845      165.396      166.756      118.473    27355.975    27807.577    14035.945        5.247        3.460      183.223       87.815        0.230      336.669        8.124      872.287
01/14/2022  12:47:00      277.050       -3.424      -29.378      197.802      141.489       89.141    39125.454    20019.253     7946.158        7.235        3.355      277.071       81.641        0.087      336.510        7.858      872.287
01/14/2022  12:48:00      190.670        8.733      -16.193      186.374      105.126       76.762    34735.216    11051.475     5892.340        4.418        2.584      190.870       71.024        0.138      336.735        8.234      872.275
01/14/2022  12:49:00      230.382       35.467      -25.956      133.585      120.634       84.259    17844.897    14552.463     7099.531        4.724        1.975      233.096       71.605        0.094      336.701        8.178      872.262
01/14/2022  12:50:00      394.031        4.963      -19.139      218.990      108.014       89.724    47956.653    11666.924     8050.370       11.165        3.384      394.062       98.047        0.062      336.569        7.955      872.280
01/14/2022  12:51:00      339.399       -7.988      -32.188      158.307      132.907       75.163    25061.177    17664.206     5649.544        8.232        2.419      339.493       64.807        0.036      336.407        7.685      872.304
01/14/2022  12:52:00      287.033       84.706      -15.087      140.491       95.750       65.025    19737.794     9168.127     4228.284        6.146        1.657      299.271       50.339        0.028      336.577        7.969      872.288
01/14/2022  12:53:00      310.119       87.843      -21.175      131.626       82.981       49.933    17325.281     6885.775     2493.344        6.552        1.335      322.320       26.899        0.007      336.563        7.947      872.280
01/14/2022  12:54:00      169.462      -34.232      -22.190      121.617       89.127       60.507    14790.812     7943.541     3661.067        2.838        1.320      172.885       42.252        0.060      336.898        8.506      872.256
01/14/2022  12:55:00      201.084       -4.997      -18.411      195.161      137.212       83.005    38087.864    18827.118     6889.750        5.229        3.190      201.147       65.477        0.106      336.770        8.292      872.250
01/14/2022  12:56:00      208.820      -33.406      -18.009      178.683      109.659       83.730    31927.648    12025.200     7010.680        4.800        2.548      211.476       74.303        0.123      336.862        8.447      872.235
01/14/2022  12:57:00      180.909      -19.408      -12.969      168.034      125.906       92.358    28235.304    15852.445     8530.068        4.294        2.631      181.947       78.113        0.184      336.874        8.467      872.240
01/14/2022  12:58:00      180.422      -65.871      -46.563      179.498      118.909       93.585    32219.501    14139.381     8758.081        4.708        2.756      192.070       86.866        0.205      336.722        8.212      872.229
01/14/2022  12:59:00      246.890       13.113      -14.502      189.076      136.993       87.831    35749.674    18767.075     7714.222        6.177        3.112      247.238       88.329        0.128      336.700        8.175      872.260
01/14/2022  13:00:00      221.984       15.192       -4.979      224.175      143.483       93.853    50254.513    20587.285     8808.461        6.458        3.983      222.503       90.213        0.164      336.545        7.918      872.248
01/14/2022  13:01:00      315.607       60.643      -35.533      136.181       97.493       52.442    18545.396     9504.975     2750.128        6.767        1.540      321.381       34.810        0.012      336.607        8.018      872.231
01/14/2022  13:02:00      156.343      -97.446      -10.764      175.416      141.056      100.008    30770.699    19896.778    10001.542        4.735        3.033      184.225       78.932        0.184      336.715        8.201      872.180
01/14/2022  13:03:00      189.433      -61.007      -22.591      175.337      126.374      101.289    30743.053    15970.454    10259.365        4.853        2.849      199.014       83.666        0.177      336.650        8.093      872.166
01/14/2022  13:04:00      205.655      -53.950      -39.642      143.605      143.475      109.727    20622.429    20585.069    12040.003        5.000        2.662      212.614       89.189        0.176      336.618        8.038      872.158
01/14/2022  13:05:00      177.608      -50.970        7.286      176.866      137.690      115.380    31281.517    18958.459    13312.518        4.886        3.178      184.777       95.312        0.266      336.534        7.898      872.151
01/14/2022  13:06:00      140.917      -39.750      -30.474      157.857      124.968       89.981    24918.861    15616.895     8096.583        3.549        2.432      146.416       74.941        0.262      336.488        7.822      872.168
01/14/2022  13:07:00      152.883      -45.603      -18.640      138.845       94.337       66.656    19278.049     8899.414     4442.978        2.920        1.631      159.540       68.411        0.184      336.649        8.091      872.152
01/14/2022  13:08:00       68.808       33.695      -28.195       85.882       94.651       64.415     7375.704     8958.747     4149.277        1.357        1.024       76.616       50.250        0.430      337.134        8.903      872.146
01/14/2022  13:09:00      253.284      -57.299      -44.313      194.630      156.702      128.602    37881.004    24555.490    16538.474        7.417        3.949      259.685      109.439        0.178      336.607        8.020      872.089
01/14/2022  13:10:00      271.767      -16.571      -29.688      218.300      142.274      111.084    47654.795    20241.838    12339.716        7.761        4.012      272.271       96.708        0.126      336.578        7.972      872.102
01/14/2022  13:11:00      302.608        3.679      -31.048      195.889      109.315       84.240    38372.335    11949.875     7096.450        7.497        2.871      302.630       73.913        0.060      336.584        7.981      872.116
01/14/2022  13:12:00      288.645       42.275      -33.687      196.156      139.373       73.912    38476.992    19424.902     5462.927        7.479        3.168      291.725       69.245        0.056      336.659        8.105      872.119
01/14/2022  13:13:00      468.051      116.540      -27.936      142.733      122.937       71.502    20372.642    15113.495     5112.558       13.701        2.030      482.341       64.589        0.018      336.340        7.572      872.113
01/14/2022  13:14:00      214.124       19.611      -16.963      135.033      118.157       72.752    18234.022    13961.024     5292.860        4.200        1.874      215.020       32.108        0.022      336.731        8.227      872.116
01/14/2022  13:15:00      334.698        9.849      -23.584      184.940      115.603       83.076    34202.877    13363.939     6901.696        8.356        2.723      334.843       87.774        0.069      336.679        8.139      872.098
01/14/2022  13:16:00      230.482       35.932      -46.409      109.785      111.742       76.030    12052.729    12486.174     5780.563        4.344        1.516      233.266       25.655        0.012      336.818        8.370      872.094
01/14/2022  13:17:00      215.280       28.801      -11.777      186.988      104.898       73.626    34964.604    11003.590     5420.747        4.934        2.569      217.198       64.643        0.089      336.871        8.461      872.083
01/14/2022  13:18:00      307.330       11.640      -33.881      148.135      124.271       63.570    21943.943    15443.207     4041.141        6.857        2.071      307.550       39.712        0.017      336.540        7.908      872.068
01/14/2022  13:19:00      181.493      -45.855      -27.989      149.095       92.617       77.422    22229.324     8577.964     5994.097        3.631        1.840      187.196       57.728        0.095      336.864        8.451      872.048
01/14/2022  13:20:00      253.155       12.556      -31.348      183.500      130.375       78.677    33672.233    16997.565     6190.105        6.103        2.843      253.467       63.543        0.063      336.760        8.275      872.044
01/14/2022  13:21:00      410.387       73.387      -29.027      153.381      127.431       80.415    23525.793    16238.774     6466.563       11.043        2.312      416.897       68.731        0.027      336.563        7.947      872.048
01/14/2022  13:22:00      403.891       22.736      -22.525      155.984      148.959       82.427    24331.152    22188.856     6794.163       10.872        2.666      404.531       79.506        0.039      336.569        7.956      872.050
01/14/2022  13:23:00      262.988       53.019      -21.066      158.978       99.554       74.819    25274.078     9911.006     5597.939        5.659        2.039      268.279       65.121        0.059      336.743        8.246      872.069
01/14/2022  13:24:00      349.284       13.642      -35.045      199.609      145.570       80.318    39843.934    21190.557     6450.964        9.544        3.374      349.550       64.966        0.035      336.594        7.998      872.071
01/14/2022  13:25:00      389.467       58.191      -27.868      169.963      124.569       76.598    28887.475    15517.553     5867.309       10.305        2.514      393.790       76.448        0.038      336.518        7.870      872.072
01/14/2022  13:26:00      285.517       32.826      -21.598      165.275       92.641       58.158    27315.814     8582.296     3382.396        6.116        1.964      287.397       40.965        0.020      336.762        8.279      872.086
01/14/2022  13:27:00      416.973       12.941      -20.866      241.424      137.131      100.371    58285.323    18804.836    10074.302       13.080        4.358      417.174       96.310        0.053      336.679        8.139      872.054
01/14/2022  13:28:00      305.143      -38.022      -27.003      227.254      135.106       92.253    51644.578    18253.524     8510.557        8.683        3.920      307.503       99.735        0.105      336.620        8.040      872.054
01/14/2022  13:29:00      344.604      -15.646      -14.421      269.165      155.693       97.037    72449.546    24240.257     9416.161       11.264        5.305      344.959       85.073        0.061      336.587        7.987      872.068
01/14/2022  13:30:00      387.831       23.732      -25.414      155.583      149.687       77.043    24206.182    22406.167     5935.675       10.208        2.627      388.557       53.421        0.019      336.592        7.995      872.084
01/14/2022  13:31:00      175.378      -16.257      -30.547      125.281      142.712       77.012    15695.305    20366.602     5930.925        3.697        2.100      176.130       43.000        0.060      336.722        8.213      872.071
01/14/2022  13:32:00      245.489       30.320      -15.574      149.414      148.250       64.671    22324.475    21978.012     4182.349        5.495        2.424      247.354       54.039        0.048      336.817        8.370      872.052
01/14/2022  13:33:00      437.031       46.805      -25.396      204.923      169.581       94.309    41993.459    28757.619     8894.203       13.672        3.982      439.530       95.384        0.047      336.527        7.884      872.022
01/14/2022  13:34:00      395.085       46.789      -29.384      161.948      122.577       73.271    26227.218    15025.160     5368.692       10.287        2.331      397.846       48.449        0.015      336.554        7.930      872.000
01/14/2022  13:35:00      328.118      110.343      -33.240      145.924      103.322       62.079    21293.780    10675.378     3853.780        7.838        1.791      346.175       38.890        0.013      336.695        8.165      871.982
01/14/2022  13:36:00      425.869       34.091      -42.569      147.592      128.281       62.954    21783.460    16456.140     3963.257       11.326        2.110      427.232       48.425        0.013      336.574        7.963      871.957
01/14/2022  13:37:00      419.738       62.663      -20.916      183.317      144.632       85.661    33605.183    20918.426     7337.755       12.119        3.093      424.390       90.397        0.045      336.637        8.070      871.964
01/14/2022  13:38:00      411.034      -42.434       -8.316      216.705      171.276      103.956    46960.957    29335.569    10806.856       12.894        4.355      413.218      107.331        0.067      336.681        8.144      871.947
01/14/2022  13:39:00      381.656      -32.360      -42.569      208.100      150.122       90.243    43305.758    22536.647     8143.737       11.124        3.699      383.025       62.199        0.026      336.547        7.920      871.948
01/14/2022  13:40:00      289.614      -36.135      -39.231      142.804      127.347       77.785    20393.078    16217.141     6050.508        6.468        2.133      291.859       76.596        0.069      336.772        8.295      871.960
01/14/2022  13:41:00      157.196      -41.154      -28.775      141.728      162.644      103.305    20086.816    26453.228    10671.961        4.221        2.861      162.494       79.699        0.241      336.841        8.412      871.962
01/14/2022  13:42:00      163.519      -27.769      -38.579      144.135      149.076       88.404    20774.982    22223.749     7815.271        3.990        2.541      165.860       69.405        0.175      336.886        8.486      871.966
01/14/2022  13:43:00      397.163       74.212      -33.635      214.139      118.366       80.177    45855.599    14010.418     6428.408       11.532        3.315      404.037       73.419        0.033      336.779        8.307      871.933
01/14/2022  13:44:00      443.852      140.727      -33.693      139.018      110.352       62.979    19326.015    12177.553     3966.398       12.670        1.773      465.627       59.411        0.016      336.633        8.062      871.938
01/14/2022  13:45:00      373.198       73.172      -42.264      177.215      126.035       71.552    31404.988    15884.762     5119.655        9.940        2.620      380.304        9.114        0.001      336.765        8.283      871.929
01/14/2022  13:46:00      436.098      114.739      -39.926      179.020      112.831       73.215    32048.148    12730.906     5360.393       12.753        2.507      450.939       62.052        0.019      336.649        8.088      871.911
01/14/2022  13:47:00      466.837       76.044      -32.631      189.686      111.722       77.742    35980.945    12481.862     6043.811       13.964        2.725      472.990       33.236        0.005      336.684        8.148      871.900
01/14/2022  13:48:00      476.138      115.809      -27.558      151.184      159.355       82.130    22856.696    25394.084     6745.257       14.793        2.750      490.020       55.400        0.013      336.636        8.068      871.901
01/14/2022  13:49:00      380.371        1.194      -32.724      146.886      123.524       71.400    21575.387    15258.260     5098.024        9.384        2.097      380.373       59.200        0.024      336.701        8.177      871.893
01/14/2022  13:50:00      195.885      -40.151       -3.152      166.839      108.272       91.852    27835.102    11722.768     8436.811        4.398        2.400      199.957       86.880        0.189      336.867        8.455      871.876
01/14/2022  13:51:00      162.713     -104.923      -40.356      116.798      105.294       63.570    13641.762    11086.824     4041.134        3.394        1.438      193.609       51.455        0.071      336.831        8.394      871.888
01/14/2022  13:52:00       93.536      -62.297      -43.352       91.647       87.295       67.620     8399.097     7620.416     4572.433        1.755        1.030      112.383       52.556        0.219      336.850        8.428      871.872
01/14/2022  13:53:00      252.921      -65.605      -71.089      162.774      169.938       90.846    26495.411    28878.846     8253.063        6.847        3.181      261.292       80.571        0.095      336.806        8.351      871.852
01/14/2022  13:54:00      214.546      -26.837      -20.630      198.320      124.743      109.911    39330.646    15560.788    12080.485        5.706        3.349      216.218       99.696        0.213      336.649        8.092      871.845
01/14/2022  13:55:00      289.166      -42.359       -4.284      192.265      161.223      108.564    36965.907    25992.699    11786.165        8.007        3.737      292.252       96.352        0.109      336.686        8.152      871.853
01/14/2022  13:56:00      246.160       -7.436      -27.016      152.868      123.918       67.902    23368.763    15355.623     4610.646        5.235        2.167      246.272       63.715        0.067      336.667        8.119      871.883
01/14/2022  13:57:00      213.109       63.235      -21.755       84.019      105.552       53.253     7059.264    11141.219     2835.858        3.546        1.052      222.293       25.519        0.013      336.811        8.361      871.859
01/14/2022  13:58:00      289.134        3.426      -23.113      114.134       78.797       54.343    13026.514     6208.961     2953.187        5.316        1.109      289.154       39.731        0.019      336.991        8.661      871.817
01/14/2022  13:59:00      226.754       -1.619       -7.129      132.191      106.452       68.112    17474.502    11331.944     4639.265        4.245        1.672      226.760       60.100        0.070      337.120        8.877      871.780
01/14/2022  14:00:00      126.521      -38.539       -0.675      137.875      116.026       95.132    19009.527    13462.119     9050.125        2.950        2.076      132.260       88.530        0.448      337.170        8.962      871.762
01/14/2022  14:01:00      211.219       10.035      -13.904      211.010      148.247      103.676    44525.116    21977.274    10748.752        6.107        3.863      211.458       96.115        0.207      336.834        8.398      871.748
01/14/2022  14:02:00      228.982      -32.552      -43.779      185.210      164.306       85.640    34302.777    26996.528     7334.193        6.201        3.432      231.284       76.854        0.110      336.790        8.325      871.706
01/14/2022  14:03:00      278.132      -25.616      -37.557      210.329      130.969       90.370    44238.134    17152.895     8166.720        7.448        3.478      279.309       75.777        0.074      336.794        8.332      871.706
01/14/2022  14:04:00      436.069       76.871      -42.911      172.877      105.140       59.302    29886.288    11054.479     3516.692       12.117        2.223      442.792       10.857        0.001      336.696        8.169      871.738
01/14/2022  14:05:00      180.526      -20.990        1.317      159.639      153.444      105.577    25484.480    23544.985    11146.457        4.659        3.009      181.742       86.273        0.225      336.820        8.375      871.727
01/14/2022  14:06:00      168.250       36.456      -19.974      127.864       89.527       71.080    16349.251     8015.149     5052.311        2.972        1.471      172.155       54.432        0.100      336.985        8.651      871.776
01/14/2022  14:07:00      166.610      -10.520      -18.463      111.081       85.088       54.264    12339.078     7240.002     2944.603        2.536        1.126      166.942       38.553        0.053      337.018        8.707      871.791
01/14/2022  14:08:00      235.199      -26.580      -20.078      173.149      129.231       81.221    29980.673    16700.752     6596.775        5.484        2.664      236.696       63.610        0.072      336.861        8.445      871.803
01/14/2022  14:09:00      388.386       69.741      -15.984      199.222      128.850       79.102    39689.557    16602.383     6257.085       10.924        3.127      394.597       73.357        0.035      336.718        8.205      871.819
01/14/2022  14:10:00      320.254       14.247      -21.351      178.465      142.266       96.266    31849.687    20239.753     9267.138        8.228        3.068      320.571       80.473        0.063      336.748        8.256      871.855
01/14/2022  14:11:00      251.160       -7.921      -16.796      128.526      127.464       67.942    16518.811    16247.145     4616.131        5.040        1.869      251.285       43.206        0.030      336.762        8.279      871.866
01/14/2022  14:12:00      387.497       23.007      -21.128      210.229      139.941       80.580    44196.390    19583.344     6493.144       11.069        3.514      388.179       97.808        0.063      336.758        8.271      871.826
01/14/2022  14:13:00      324.426       17.566      -20.638      172.038      150.921       91.254    29597.093    22777.033     8327.358        8.333        3.035      324.901       86.188        0.070      336.788        8.321      871.801
01/14/2022  14:14:00      316.467      -62.673      -42.013      173.278      126.831       76.381    30025.289    16086.025     5834.117        7.889        2.597      322.613       54.083        0.028      336.725        8.217      871.793
01/14/2022  14:15:00      221.101      -85.462      -25.588      203.975      119.109       85.648    41605.616    14186.983     7335.517        5.997        3.156      237.043       73.976        0.097      336.767        8.287      871.798
01/14/2022  14:16:00      215.499        2.868      -17.684      138.335      107.776       62.474    19136.533    11615.612     3902.993        4.070        1.733      215.518       51.979        0.058      336.932        8.562      871.806
01/14/2022  14:17:00      365.968       63.024      -22.609      113.408      115.495       64.535    12861.401    13339.021     4164.786        8.438        1.518      371.355       61.854        0.028      336.792        8.329      871.808
01/14/2022  14:18:00      205.313      -11.421      -31.772      204.230      131.654       77.891    41709.977    17332.710     6067.074        5.419        3.255      205.631       59.871        0.085      336.916        8.537      871.798
01/14/2022  14:19:00      297.965      -82.734      -31.152      238.171      137.039       96.042    56725.257    18779.708     9224.013        9.065        4.236      309.238       72.493        0.055      336.810        8.359      871.768
01/14/2022  14:20:00      207.828      -16.190      -40.631      172.558      155.287       96.294    29776.281    24114.198     9272.490        5.412        3.158      208.458       69.530        0.111      336.774        8.299      871.802
01/14/2022  14:21:00      428.176       65.077      -34.376      136.882      131.470       77.472    18736.605    17284.239     6001.919       11.538        2.101      433.094       48.071        0.012      336.654        8.097      871.822
01/14/2022  14:22:00      313.186       -0.102      -16.088      190.410      124.650       82.161    36255.926    15537.693     6750.418        7.843        2.927      313.187       78.433        0.063      336.738        8.240      871.851
01/14/2022  14:23:00      379.427       70.653      -28.658      156.174      128.337       68.378    24390.461    16470.290     4675.607        9.765        2.277      385.949       53.435        0.019      336.635        8.065      871.883
01/14/2022  14:24:00      207.760       35.218      -17.145      145.304      115.027       69.341    21113.229    13231.286     4808.230        4.192        1.958      210.724       57.285        0.074      336.830        8.392      871.899
01/14/2022  14:25:00      351.507       37.692      -22.654      166.676      132.523       63.889    27780.894    17562.383     4081.822        8.745        2.471      353.522       60.669        0.029      336.731        8.227      871.881
01/14/2022  14:26:00      337.163       60.090      -28.199      186.900      172.828       71.963    34931.572    29869.588     5178.707        9.402        3.499      342.476       81.327        0.056      336.705        8.183      871.892
01/14/2022  14:27:00      309.676       54.503      -18.899      159.964      164.568       70.692    25588.595    27082.717     4997.406        7.844        2.883      314.436       63.877        0.041      336.786        8.319      871.895
01/14/2022  14:28:00      140.664      -68.545       -8.289      187.396      148.375      135.088    35117.353    22015.054    18248.796        4.995        3.769      156.476      117.510        0.564      336.823        8.381      871.905
01/14/2022  14:29:00      218.653      -75.761      -37.240      166.453      141.313       95.736    27706.528    19969.257     9165.416        5.588        2.842      231.407       84.791        0.134      336.795        8.333      871.904
01/14/2022  14:30:00      317.426      -38.452      -23.716      219.663      134.707      107.867    48251.636    18145.885    11635.338        9.040        3.902      319.747      101.107        0.100      336.735        8.234      871.939
01/14/2022  14:31:00      303.037      -28.658      -12.323      216.467      123.406       78.006    46857.890    15229.017     6084.884        8.048        3.409      304.389       85.556        0.079      336.769        8.290      871.970
01/14/2022  14:32:00      249.188      -48.567       -0.399      223.952      140.846      123.872    50154.509    19837.506    15344.260        7.488        4.267      253.876      123.215        0.236      336.651        8.093      871.931
01/14/2022  14:33:00      283.411      -42.633      -20.642      236.157      115.310      104.898    55770.110    13296.419    11003.691        8.130        4.004      286.600      109.693        0.146      336.654        8.099      871.938
01/14/2022  14:34:00      203.365        3.693      -40.939      124.464      104.537       68.190    15491.193    10927.910     4649.881        3.705        1.553      203.399       49.888        0.060      336.842        8.413      871.957
01/14/2022  14:35:00      337.167      -14.378      -27.406      203.025      135.832       95.825    41219.020    18450.357     9182.485        9.173        3.443      337.473       84.757        0.063      336.713        8.197      871.949
01/14/2022  14:36:00      160.875      -42.128      -25.025      141.297      156.496       98.213    19964.744    24490.862     9645.826        4.118        2.705      166.299       80.035        0.232      336.800        8.343      871.989
01/14/2022  14:37:00      287.308      -36.731      -12.161      202.397      141.910      104.238    40964.618    20138.325    10865.658        7.799        3.598      289.647      104.763        0.131      336.648        8.088      871.964
01/14/2022  14:38:00      487.556       44.466      -34.994      217.238      141.043       90.278    47192.262    19893.172     8150.175       15.806        3.762      489.580       77.347        0.025      336.523        7.879      871.964
01/14/2022  14:39:00      532.319       79.270      -32.297      189.434      139.792       74.731    35885.206    19541.825     5584.776       17.584        3.051      538.189       74.986        0.019      336.550        7.923      871.973
01/14/2022  14:40:00      311.441       38.867      -21.272      189.081      135.280       75.120    35751.477    18300.736     5643.043        7.932        2.985      313.857       65.492        0.044      336.670        8.127      872.001
01/14/2022  14:41:00      283.854       36.428      -33.744      150.363      124.240       66.612    22609.076    15435.540     4437.128        6.275        2.124      286.182       51.693        0.033      336.740        8.240      872.026
01/14/2022  14:42:00      299.766      -45.451      -27.028      162.887      139.224       84.389    26532.122    19383.187     7121.566        7.284        2.652      303.192       66.651        0.048      336.833        8.398      872.056
01/14/2022  14:43:00      165.797      -29.227        4.700      185.666      133.129      112.671    34471.907    17723.297    12694.768        4.662        3.244      168.353       97.819        0.338      336.829        8.393      872.036
01/14/2022  14:44:00      521.536       36.325      -45.662      190.867      167.050       82.774    36430.230    27905.684     6851.587       17.328        3.559      522.800       75.201        0.021      336.640        8.076      872.091
01/14/2022  14:45:00      349.050       13.618      -25.869      221.910      141.133       79.611    49243.924    19918.665     6337.929        9.908        3.775      349.316       85.519        0.060      336.700        8.176      872.134
01/14/2022  14:46:00      377.521       66.788      -33.116      143.542      135.387       64.764    20604.248    18329.681     4194.411        9.560        2.156      383.383       40.585        0.011      336.749        8.257      872.144
01/14/2022  14:47:00      403.700       37.866      -30.666      188.578      147.482       75.483    35561.645    21750.974     5697.671       11.417        3.151      405.472       65.566        0.026      336.691        8.160      872.157
01/14/2022  14:48:00      327.190       31.761      -27.537      167.687      134.653       76.905    28119.096    18131.459     5914.387        8.048        2.608      328.728       55.059        0.028      336.725        8.218      872.164
01/14/2022  14:49:00      258.571      -86.057      -23.006      144.059      136.360       76.975    20752.858    18593.948     5925.176        6.002        2.264      272.516       62.427        0.052      336.829        8.392      872.141
01/14/2022  14:50:00      375.158      -47.864      -27.265      195.340      154.308       91.388    38157.774    23811.043     8351.857       10.704        3.516      378.199       85.159        0.051      336.669        8.123      872.138
01/14/2022  14:51:00      337.144       -2.335      -15.094      191.777      120.097       88.376    36778.441    14423.397     7810.313        8.644        2.951      337.152       84.610        0.063      336.665        8.117      872.123
01/14/2022  14:52:00      214.490      -47.235      -22.899      194.914      154.039      110.473    37991.287    23727.907    12204.355        6.133        3.696      219.630       96.581        0.193      336.713        8.197      872.098
01/14/2022  14:53:00      256.138       42.928      -12.538      159.472      110.470       81.460    25431.310    12203.558     6635.676        5.593        2.214      259.710       78.568        0.092      336.766        8.286      872.117
01/14/2022  14:54:00      274.878      -58.732      -44.310      149.147      139.277       75.070    22244.776    19397.954     5635.566        6.412        2.364      281.082       62.069        0.049      336.808        8.355      872.127
01/14/2022  14:55:00      292.499      -31.941      -23.871      187.129      124.436       94.682    35017.234    15484.441     8964.604        7.329        2.973      294.237       86.486        0.086      336.741        8.244      872.094
01/14/2022  14:56:00      140.173      -47.076      -14.658      152.936      124.260       99.433    23389.457    15440.465     9886.968        3.539        2.436      147.867       88.975        0.362      336.855        8.434      872.099
01/14/2022  14:57:00      226.412      -37.357      -14.063      182.657      130.019      109.369    33363.620    16904.864    11961.549        5.753        3.112      229.473      104.074        0.206      336.724        8.216      872.095
01/14/2022  14:58:00      213.709      -34.277      -43.051      156.431      138.431       89.428    24470.788    19163.220     7997.412        5.016        2.582      216.440       66.791        0.095      336.688        8.157      872.089
01/14/2022  14:59:00      147.876      -16.988      -26.971      108.372      118.158       72.143    11744.413    13961.246     5204.596        2.689        1.546      148.848       51.378        0.119      336.907        8.522      872.118
01/14/2022  15:00:00      265.870       38.505      -18.228      166.235       76.429       57.324    27634.046     5841.435     3286.006        5.462        1.838      268.644       65.783        0.060      336.776        8.302      872.130
01/14/2022  15:01:00      299.329       31.306      -19.812      161.708      138.358       71.979    26149.396    19142.833     5180.997        7.071        2.524      300.961       55.894        0.034      336.804        8.348      872.118
01/14/2022  15:02:00      432.410      102.943      -28.625      154.638      118.524       67.914    23912.970    14048.005     4612.347       12.048        2.129      444.494       46.376        0.011      336.689        8.156      872.110
01/14/2022  15:03:00      400.284      -66.278      -40.719      204.999      123.989       94.958    42024.566    15373.246     9016.984       11.633        3.321      405.734       90.976        0.050      336.676        8.134      872.122
01/14/2022  15:04:00      233.395       -5.269      -42.577      130.693      113.354       74.475    17080.639    12849.193     5546.498        4.589        1.774      233.455       62.681        0.072      336.797        8.337      872.115
01/14/2022  15:05:00      288.184       48.139      -23.357      139.924      101.629       69.786    19578.794    10328.526     4870.142        6.034        1.739      292.177       55.619        0.036      336.795        8.333      872.155
01/14/2022  15:06:00      344.000      -24.405      -26.689      205.293      128.632       83.849    42145.328    16546.177     7030.610        9.267        3.286      344.865       78.074        0.051      336.643        8.081      872.150
01/14/2022  15:07:00      145.767      -29.184      -29.909      117.235      126.628       77.747    13744.025    16034.600     6044.641        2.940        1.791      148.660       56.573        0.145      336.725        8.217      872.152
01/14/2022  15:08:00      374.723       -7.561      -31.088      140.666      112.329       57.061    19786.962    12617.708     3255.973        8.854        1.783      374.799       54.351        0.021      336.635        8.066      872.142
01/14/2022  15:09:00      191.155        1.228      -13.511      127.708       94.254       61.704    16309.327     8883.760     3807.406        3.286        1.450      191.159       37.920        0.039      336.800        8.342      872.130
01/14/2022  15:10:00      243.355       -6.125      -15.930      187.807      122.129       81.956    35271.350    14915.422     6716.831        5.820        2.845      243.432       69.261        0.081      336.773        8.296      872.119
01/14/2022  15:11:00      337.960        7.620      -27.052      161.560      120.851       71.824    26101.551    14604.944     5158.742        8.043        2.293      338.046       70.150        0.043      336.638        8.072      872.115
01/14/2022  15:12:00      221.080        3.526       -7.927      164.638       91.537       64.349    27105.738     8378.950     4140.733        4.428        1.981      221.108       65.804        0.089      336.813        8.364      872.122
01/14/2022  15:13:00      292.739       47.417      -21.372      169.737      131.061       85.757    28810.815    17177.024     7354.340        7.086        2.667      296.554       43.281        0.021      336.726        8.218      872.099
01/14/2022  15:14:00      273.301       49.588      -17.964      162.337       91.547       63.680    26353.180     8380.874     4055.163        5.813        1.939      277.763       62.022        0.050      336.723        8.215      872.126
01/14/2022  15:15:00      257.517      -25.165      -19.572      179.393      137.804       76.348    32181.792    18990.026     5828.972        6.216        2.850      258.743       63.012        0.059      336.711        8.194      872.144
01/14/2022  15:16:00      181.186      -50.858       -9.562      186.096      116.849      102.971    34631.576    13653.629    10603.012        4.719        2.944      188.189       84.802        0.203      336.779        8.307      872.140
01/14/2022  15:17:00      307.605      -31.233      -40.305      212.203      142.546       87.504    45029.939    20319.424     7657.021        8.510        3.650      309.186       64.105        0.043      336.696        8.168      872.144
01/14/2022  15:18:00      261.758      -20.837      -36.169      171.496      143.216       78.937    29410.750    20510.909     6231.061        6.320        2.808      262.586       59.219        0.051      336.660        8.109      872.126
01/14/2022  15:19:00      203.494       26.718      -26.064      105.745       92.875       64.617    11181.976     8625.790     4175.300        3.339        1.199      205.240       38.642        0.035      336.686        8.151      872.128
01/14/2022  15:20:00      264.509        4.519      -28.248      138.241       89.520       68.094    19110.531     8013.844     4636.820        5.127        1.588      264.547       50.809        0.037      336.649        8.090      872.136
01/14/2022  15:21:00      152.790      -48.103      -21.946      138.545      105.623       83.165    19194.687    11156.309     6916.373        3.170        1.863      160.183       69.860        0.190      336.743        8.246      872.134
01/14/2022  15:22:00      107.766      -42.987      -26.816      110.918      184.515       71.055    12302.814    34045.904     5048.868        3.278        2.570      116.024       54.426        0.220      336.755        8.267      872.129
01/14/2022  15:23:00      137.666      -22.381      -13.218      134.575      111.959       74.934    18110.461    12534.859     5615.170        2.794        1.813      139.474       47.397        0.115      336.860        8.443      872.126
01/14/2022  15:24:00      188.035      -34.509      -32.325      145.962      116.744       97.962    21305.044    13629.078     9596.519        4.105        2.227      191.175       79.272        0.172      336.772        8.295      872.103
01/14/2022  15:25:00      188.386      -57.815      -37.816      153.939      149.219       94.719    23697.174    22266.285     8971.779        4.759        2.747      197.058       74.446        0.143      336.763        8.282      872.078
01/14/2022  15:26:00      140.787      -53.208      -15.213      160.055      122.586       94.397    25617.623    15027.213     8910.755        3.621        2.478      150.506       79.187        0.277      336.783        8.314      872.066
01/14/2022  15:27:00      190.921      -57.893      -31.167      169.165      140.825       77.442    28616.856    19831.590     5997.311        4.760        2.722      199.506       71.470        0.128      336.760        8.276      872.070
01/14/2022  15:28:00      208.215      -70.323       -6.446      170.481      150.152      101.053    29063.715    22545.680    10211.692        5.507        3.091      219.770       79.354        0.130      336.686        8.154      872.051
01/14/2022  15:29:00      230.573      -21.738      -18.413      143.786      108.679       80.342    20674.396    11811.154     6454.816        4.645        1.947      231.595       65.082        0.079      336.678        8.140      872.060
01/14/2022  15:30:00      258.887       -4.983      -50.026      191.792      110.843       75.143    36784.066    12286.201     5646.469        6.212        2.736      258.935       27.960        0.012      336.670        8.125      872.061
01/14/2022  15:31:00      235.980      -61.053      -21.368      173.561      130.084       90.672    30123.290    16921.873     8221.386        5.756        2.763      243.750       86.740        0.127      336.762        8.278      872.068
01/14/2022  15:32:00      219.132      -41.621       -8.595      182.470      113.490      104.530    33295.175    12879.870    10926.445        5.345        2.855      223.050       95.620        0.184      336.653        8.098      872.046
01/14/2022  15:33:00      264.003      -35.867       -8.328      185.245       86.062       75.431    34315.792     7406.702     5689.900        5.922        2.371      266.429       57.651        0.047      336.656        8.101      872.052
01/14/2022  15:34:00       96.593        7.501       -8.442      136.787      102.922       74.615    18710.777    10593.000     5567.392        2.216        1.744       96.884       55.446        0.328      336.715        8.200      872.058
01/14/2022  15:35:00      287.684       19.550      -20.301      157.864      119.318       71.052    24921.114    14236.856     5048.368        6.387        2.210      288.348       60.883        0.045      336.680        8.143      872.043
01/14/2022  15:36:00      216.222      -20.924      -24.665      115.951      103.957       71.838    13444.696    10807.095     5160.655        3.860        1.471      217.232       55.754        0.066      336.728        8.222      872.036
01/14/2022  15:37:00      170.395      -26.472      -33.963      152.531      115.202       80.050    23265.700    13271.503     6408.010        3.691        2.147      172.439       75.989        0.194      336.787        8.321      872.036
01/14/2022  15:38:00      175.561      -50.035      -16.786      153.325      112.149       96.049    23508.676    12577.406     9225.484        3.945        2.266      182.552       86.202        0.223      336.745        8.252      872.004
01/14/2022  15:39:00       85.021        5.510      -33.703       88.873       79.099       54.575     7898.358     6256.576     2978.431        1.276        0.857       85.200       33.553        0.155      336.835        8.401      872.014
01/14/2022  15:40:00      170.321      -15.840      -21.363      108.655       84.761       55.142    11805.857     7184.344     3040.585        2.587        1.102      171.056       38.303        0.050      336.804        8.349      872.026
01/14/2022  15:41:00      168.003      -28.406      -22.648      132.346       88.161       59.749    17515.588     7772.422     3569.992        2.920        1.443      170.388       54.119        0.101      336.794        8.332      872.026
01/14/2022  15:42:00      257.192      -91.538      -33.417      179.055      134.550       94.796    32060.651    18103.734     8986.297        6.739        2.958      272.996       79.348        0.084      336.640        8.076      871.990
01/14/2022  15:43:00      243.304      -60.611      -22.609      141.473      101.771       63.338    20014.719    10357.370     4011.687        4.888        1.719      250.740       59.868        0.057      336.643        8.080      872.001
01/14/2022  15:44:00      175.787      -32.012      -21.916      143.133      125.944       77.652    20487.121    15861.927     6029.909        3.738        2.119      178.678       68.708        0.148      336.685        8.152      872.008
01/14/2022  15:45:00      311.780       19.819      -29.057      130.349      114.308       78.442    16990.987    13066.222     6153.222        6.732        1.811      312.410       50.100        0.026      336.619        8.042      871.985
01/14/2022  15:46:00      261.489      -19.061      -22.867      163.537      105.237       67.404    26744.475    11074.737     4543.312        5.580        2.118      262.183       64.200        0.060      336.644        8.081      871.977
01/14/2022  15:47:00      226.157        5.413      -19.171      163.844       83.639       57.847    26844.765     6995.485     3346.289        4.436        1.859      226.222       55.834        0.061      336.635        8.067      871.972
01/14/2022  15:48:00      279.098       40.284      -19.684      145.165      154.253       69.180    21073.002    23794.057     4785.822        6.477        2.483      281.991       56.703        0.040      336.670        8.125      871.945
01/14/2022  15:49:00      248.487      -11.600      -34.961      155.622      102.049       71.328    24218.155    10413.967     5087.624        5.140        1.986      248.757       56.715        0.052      336.654        8.099      871.947
01/14/2022  15:50:00      137.031       -9.920      -23.746      122.364      111.503       77.617    14972.869    12432.979     6024.440        2.643        1.672      137.389       45.859        0.111      336.669        8.125      871.945
01/14/2022  15:51:00      165.086      -25.965      -10.119      106.401       97.060       64.669    11321.219     9420.662     4182.057        2.647        1.246      167.115       47.871        0.082      336.679        8.141      871.968
01/14/2022  15:52:00      174.759      -22.627       -6.587      164.454      113.479       95.736    27045.103    12877.443     9165.375        4.008        2.454      176.218       85.537        0.236      336.614        8.034      871.968
01/14/2022  15:53:00      198.120      -22.232      -26.636      151.038      117.334       90.524    22812.337    13767.332     8194.627        4.261        2.239      199.364       83.459        0.175      336.589        7.993      871.994
01/14/2022  15:54:00      267.591      -27.883      -21.013      164.395      107.837       81.869    27025.857    11628.771     6702.513        5.908        2.268      269.040       76.748        0.081      336.546        7.919      872.006
01/14/2022  15:55:00      142.207      -46.922      -15.916      144.340       86.145       59.600    20833.914     7420.926     3552.141        2.724        1.590      149.748       54.551        0.133      336.561        7.945      872.050
01/14/2022  15:56:00      247.064      -48.654      -17.501      162.570      117.714       86.298    26429.123    13856.658     7447.366        5.571        2.387      251.809       68.829        0.075      336.496        7.834      872.058
01/14/2022  15:57:00      225.302      -55.773      -18.467      160.870      139.769       89.412    25879.045    19535.509     7994.550        5.380        2.670      232.103       77.619        0.112      336.498        7.837      872.041
01/14/2022  15:58:00      247.568      -90.544      -33.724      159.812      129.452      106.965    25539.979    16757.769    11441.538        6.217        2.687      263.606       87.706        0.111      336.460        7.772      872.035
01/14/2022  15:59:00      237.683      -33.391      -15.186      157.504      105.822       89.103    24807.640    11198.354     7939.431        5.088        2.197      240.017       79.642        0.110      336.445        7.749      872.015
01/14/2022  16:00:00      200.643      -86.214      -16.698      137.785      121.202       74.550    18984.763    14690.044     5557.639        4.359        1.962      218.382       68.738        0.099      336.478        7.803      872.033
01/14/2022  16:01:00      123.339       -5.799       -1.906      117.816      105.452       75.175    13880.623    11120.175     5651.251        2.295        1.533      123.475       71.782        0.338      336.510        7.859      872.074
01/14/2022  16:02:00       81.174        8.536      -17.996       98.797       97.205       52.334     9760.918     9448.795     2738.809        1.446        1.097       81.621       23.103        0.080      336.516        7.869      872.110
01/14/2022  16:03:00      268.837      -25.952      -30.069      141.552      135.414       69.722    20037.043    18336.828     4861.142        5.854        2.162      270.087       62.008        0.053      336.400        7.672      872.112
01/14/2022  16:04:00      172.869      -32.849       -4.764      131.883       97.041       72.967    17393.060     9416.888     5324.200        3.155        1.607      175.963       59.676        0.115      336.385        7.648      872.123
01/14/2022  16:05:00      265.699      -56.663      -25.796      169.243      131.003       79.584    28643.288    17161.690     6333.606        6.330        2.607      271.674       78.378        0.083      336.347        7.584      872.104
01/14/2022  16:06:00      194.948        5.958      -22.039      121.166      111.792       65.980    14681.199    12497.472     4353.399        3.502        1.577      195.039       48.379        0.062      336.310        7.523      872.112
01/14/2022  16:07:00      316.283     -100.867      -25.217      150.422      121.160       74.898    22626.875    14679.688     5609.715        7.687        2.146      331.978       69.621        0.044      336.299        7.504      872.103
01/14/2022  16:08:00      290.748       60.047      -18.788      127.775      105.578       71.824    16326.429    11146.816     5158.674        6.056        1.632      296.884       39.119        0.017      336.284        7.480      872.126
01/14/2022  16:09:00      346.501      -57.565      -39.790      103.594       99.701       59.570    10731.619     9940.327     3548.527        7.459        1.211      351.250       32.632        0.009      336.268        7.452      872.168
01/14/2022  16:10:00      342.176      -22.585      -29.200      171.769      111.944       85.629    29504.490    12531.511     7332.356        8.390        2.468      342.921       79.342        0.054      336.245        7.414      872.173
01/14/2022  16:11:00      361.950       -6.896      -30.335      134.997      109.229       61.572    18224.212    11931.043     3791.080        8.295        1.697      362.015       52.972        0.021      336.232        7.391      872.166
01/14/2022  16:12:00      279.689        8.259      -26.402      127.030      112.287       58.957    16136.537    12608.353     3475.952        5.560        1.611      279.811       42.017        0.023      336.204        7.344      872.146
01/14/2022  16:13:00      197.370      -22.102      -24.323      122.619      109.865       63.291    15035.489    12070.301     4005.749        3.557        1.556      198.603       51.450        0.067      336.243        7.410      872.133
01/14/2022  16:14:00      187.477       35.669        1.358      122.380       89.279       63.459    14976.778     7970.730     4027.059        3.169        1.349      190.840       57.515        0.091      336.239        7.406      872.146
01/14/2022  16:15:00      191.833       11.683      -16.507      115.397       75.328       57.739    13316.498     5674.299     3333.743        2.976        1.116      192.188       46.570        0.059      336.218        7.370      872.176
01/14/2022  16:16:00      258.332      -11.297      -22.868      105.294       88.327       36.057    11086.918     7801.680     1300.100        4.378        1.009      258.579       16.019        0.004      336.188        7.319      872.203
01/14/2022  16:17:00      188.083       13.741       -7.590       89.093       71.058       46.262     7937.598     5049.221     2140.162        2.537        0.756      188.584       39.779        0.044      336.193        7.327      872.219
01/14/2022  16:18:00      239.489      -12.059      -11.515      130.091      108.463       63.946    16923.620    11764.258     4089.091        4.520        1.639      239.792       65.421        0.074      336.171        7.289      872.222
01/14/2022  16:19:00      188.764       26.943      -11.734      118.192      114.206       64.179    13969.264    13043.101     4118.896        3.381        1.557      190.677       39.693        0.043      336.155        7.263      872.232
01/14/2022  16:20:00      261.921      -16.130       -9.030      156.982       88.893       65.921    24643.281     7901.921     4345.587        5.291        1.845      262.417       51.478        0.038      336.150        7.256      872.236
01/14/2022  16:21:00      220.822       -9.776      -22.591      104.491      109.490       56.204    10918.356    11988.078     3158.918        3.771        1.303      221.038       38.254        0.030      336.118        7.200      872.269
01/14/2022  16:22:00      238.605       11.081       -9.863      108.287       83.888       57.889    11726.162     7037.211     3351.079        3.963        1.106      238.863       41.144        0.030      336.091        7.156      872.310
01/14/2022  16:23:00      199.784      -16.372      -10.167       96.436       78.058       51.079     9299.935     6093.005     2609.077        2.914        0.900      200.454       42.715        0.045      336.106        7.182      872.327
01/14/2022  16:24:00      234.210      -31.411      -28.945      113.943       83.453       45.514    12982.919     6964.400     2071.568        3.934        1.101      236.307       33.895        0.021      336.121        7.207      872.337
01/14/2022  16:25:00      240.457       -4.705      -15.412      150.049       95.399       54.685    22514.693     9100.962     2990.410        4.634        1.730      240.504       40.451        0.028      336.124        7.212      872.359
01/14/2022  16:26:00      271.139      -37.451      -19.757      196.629       83.358       51.677    38662.838     6948.530     2670.545        6.179        2.414      273.713       56.258        0.042      336.111        7.191      872.362
01/14/2022  16:27:00      187.073      -12.610       -6.444      100.563       85.666       59.264    10112.837     7338.604     3512.218        2.808        1.048      187.498       48.704        0.067      336.067        7.116      872.388
01/14/2022  16:28:00      257.120       13.859      -22.693      105.872       77.826       52.228    11208.878     6056.912     2727.759        4.340        1.000      257.493       32.165        0.016      336.058        7.101      872.379
01/14/2022  16:29:00      230.973       -6.621      -15.260      112.348       85.625       48.669    12621.983     7331.560     2368.664        3.797        1.116      231.068       49.043        0.045      336.051        7.090      872.379
01/14/2022  16:30:00      242.170       33.764      -21.894      128.249       85.213       53.412    16447.788     7261.247     2852.861        4.341        1.328      244.512       36.132        0.022      336.052        7.091      872.381
01/14/2022  16:31:00      257.224       -9.129      -16.561      120.337       94.756       55.722    14481.047     8978.655     3104.969        4.654        1.328      257.386       46.629        0.033      336.034        7.062      872.390
01/14/2022  16:32:00      182.291       -5.015       -6.540       81.085       64.160       39.150     6574.721     4116.473     1532.697        2.276        0.611      182.360       33.732        0.034      336.005        7.014      872.402
01/14/2022  16:33:00      105.062       -5.513      -33.969       73.399       81.555       39.895     5387.394     6651.297     1591.609        1.292        0.682      105.207       31.901        0.092      336.019        7.039      872.401
01/14/2022  16:34:00      104.072       -8.096      -24.517       74.063       59.592       40.381     5485.344     3551.183     1630.633        1.108        0.533      104.386       24.268        0.054      335.998        7.005      872.410
01/14/2022  16:35:00       94.047      -38.653      -28.180       52.630       57.358       33.503     2769.937     3289.976     1122.459        0.916        0.359      101.680       17.464        0.029      335.982        6.978      872.432
01/14/2022  16:36:00       75.464      -45.277      -20.937       62.578       62.242       35.272     3916.015     3874.101     1244.146        0.861        0.452       88.004       28.305        0.103      336.001        7.011      872.431
01/14/2022  16:37:00       98.745        0.208      -19.524       70.210       67.655       38.885     4929.390     4577.225     1512.066        1.057        0.551       98.745       28.639        0.084      336.022        7.045      872.415
01/14/2022  16:38:00      189.116      -20.523      -12.259      100.462       53.851       44.837    10092.657     2899.902     2010.337        2.567        0.750      190.226       28.332        0.022      336.002        7.010      872.395
01/14/2022  16:39:00      168.521      -12.042       -6.092       86.830       65.927       50.412     7539.524     4346.381     2541.381        2.150        0.721      168.951       44.336        0.069      335.961        6.941      872.380
01/14/2022  16:40:00      170.557      -33.357      -14.194      112.524       58.143       46.639    12661.681     3380.605     2175.159        2.431        0.911      173.788       45.777        0.069      335.928        6.888      872.386
01/14/2022  16:41:00      139.365      -29.759      -11.107       85.815       59.879       51.675     7364.194     3585.511     2670.278        1.702        0.681      142.507       46.086        0.105      335.947        6.919      872.397
01/14/2022  16:42:00      106.983      -18.122      -11.912       98.300       57.180       62.670     9662.876     3269.518     3927.575        1.438        0.843      108.507       57.125        0.277      335.921        6.876      872.398
01/14/2022  16:43:00      176.449      -73.568      -23.565       93.549       75.279       59.584     8751.473     5666.898     3550.307        2.753        0.898      191.171       54.971        0.083      335.913        6.861      872.394
01/14/2022  16:44:00       83.559      -61.202      -31.319       58.397       71.498       37.149     3410.192     5111.974     1380.031        1.080        0.495      103.575        8.108        0.006      335.918        6.872      872.416
01/14/2022  16:45:00      142.607       -4.976      -11.928       81.658       69.725       41.441     6668.014     4861.528     1717.345        1.687        0.662      142.694       32.644        0.052      335.900        6.840      872.426
01/14/2022  16:46:00      122.379      -41.962       -5.155      113.985       70.403       52.073    12992.584     4956.604     2711.578        1.871        1.033      129.373       58.950        0.208      335.869        6.790      872.458
01/14/2022  16:47:00       66.380      -32.989      -15.928       59.692       59.513       38.980     3563.141     3541.839     1519.452        0.718        0.431       74.125       24.376        0.108      335.866        6.786      872.481
01/14/2022  16:48:00      159.653      -13.207       -4.690      104.496       56.805       51.508    10919.473     3226.822     2653.084        2.124        0.840      160.198       43.552        0.074      335.890        6.825      872.472
01/14/2022  16:49:00      146.051      -17.060      -12.212       91.654       55.855       44.703     8400.540     3119.799     1998.370        1.764        0.676      147.044       39.121        0.071      335.885        6.817      872.475
01/14/2022  16:50:00      146.082      -48.192      -38.229       88.328       79.773       45.550     7801.751     6363.708     2074.769        2.068        0.812      153.826       27.563        0.032      335.959        6.939      872.471
01/14/2022  16:51:00      139.224      -58.686      -29.497       99.099       75.325       48.792     9820.540     5673.868     2380.613        2.078        0.894      151.087       44.911        0.088      335.915        6.866      872.452
01/14/2022  16:52:00      120.886      -54.000       -9.099       57.473       79.763       48.712     3303.199     6362.122     2372.826        1.482        0.602      132.398       44.710        0.114      335.917        6.870      872.446
01/14/2022  16:53:00      166.161      -62.602      -18.805      115.860      100.545       69.808    13423.512    10109.380     4873.147        3.014        1.420      177.563       61.349        0.119      335.888        6.820      872.429
01/14/2022  16:54:00      111.143      -50.340       -9.597      124.524      100.513       55.478    15506.233    10102.949     3077.862        2.183        1.434      122.012       61.377        0.253      335.928        6.887      872.435
01/14/2022  16:55:00       79.497      -68.176       -9.263       84.832       90.676       50.566     7196.439     8222.161     2556.903        1.451        0.899      104.727       52.212        0.249      335.949        6.922      872.450
01/14/2022  16:56:00      113.599      -41.878      -24.112       75.268       97.330       45.460     5665.279     9473.198     2066.573        1.622        0.860      121.072       53.898        0.198      335.941        6.908      872.464
01/14/2022  16:57:00      142.086     -149.192      -46.441       66.878       91.938       49.705     4472.720     8452.639     2470.568        3.000        0.770      206.026       47.186        0.052      336.002        7.010      872.465
01/14/2022  16:58:00      164.906     -125.310      -48.883       83.990       76.735       54.196     7054.262     5888.304     2937.195        3.058        0.794      207.115       37.713        0.033      336.009        7.019      872.475
01/14/2022  16:59:00      133.669     -130.106      -27.510       73.560       75.129       40.294     5411.081     5644.411     1623.638        2.411        0.634      186.534       36.408        0.038      336.039        7.069      872.485
01/14/2022  17:00:00       87.829      -72.616      -35.550       69.220       87.638       41.466     4791.440     7680.378     1719.468        1.422        0.710      113.961       41.525        0.133      335.978        6.971      872.496
01/14/2022  17:01:00      146.348      -99.864      -37.173       67.600       92.843       50.424     4569.783     8619.755     2542.534        2.425        0.787      177.174       43.357        0.060      336.000        7.007      872.492
01/14/2022  17:02:00      165.162     -110.265      -22.028      105.088       86.120       58.655    11043.487     7416.736     3440.433        3.091        1.095      198.587       46.359        0.054      335.996        6.998      872.474
01/14/2022  17:03:00      174.789      -80.302      -25.425      134.066       98.096       46.196    17973.626     9622.808     2134.026        3.368        1.487      192.353       57.128        0.088      335.972        6.959      872.470
01/14/2022  17:04:00       59.550      -91.979      -33.639       54.988       82.244       47.668     3023.659     6764.137     2272.220        1.260        0.603      109.574       16.029        0.021      335.971        6.960      872.472
01/14/2022  17:05:00      117.090     -123.320      -41.264       62.853       79.730       37.390     3950.462     6356.818     1398.030        2.116        0.585      170.053       34.880        0.042      335.979        6.970      872.490
01/14/2022  17:06:00      125.437      -82.598      -37.222       63.041       61.368       35.837     3974.177     3766.086     1284.282        1.648        0.451      150.190       30.628        0.042      335.944        6.915      872.499
01/14/2022  17:07:00       75.926      -83.823      -44.124       59.102       79.256       39.634     3492.999     6281.475     1570.817        1.304        0.567      113.098       30.334        0.072      335.968        6.954      872.510
01/14/2022  17:08:00      100.906     -128.028      -32.923       44.700       73.234       36.876     1998.102     5363.253     1359.834        1.819        0.436      163.013       27.736        0.029      335.951        6.926      872.519
01/14/2022  17:09:00      129.259     -117.807      -36.908       64.090       59.656       39.962     4107.582     3558.780     1596.989        2.060        0.463      174.890       29.112        0.028      335.939        6.906      872.507
01/14/2022  17:10:00      104.556     -113.416      -42.665       78.950       56.749       38.352     6233.132     3220.460     1470.872        1.827        0.546      154.257       35.889        0.054      335.956        6.935      872.508
01/14/2022  17:11:00      116.933     -129.630      -35.699       77.153      111.939       43.755     5952.643    12530.248     1914.527        2.607        1.020      174.577       15.798        0.008      335.896        6.834      872.520
01/14/2022  17:12:00       89.259     -164.186      -33.506       68.162      129.072       57.617     4646.124    16659.666     3319.743        3.033        1.231      186.880       32.359        0.030      335.873        6.795      872.519
01/14/2022  17:13:00       60.952      -60.793      -14.582       88.725       76.754       64.049     7872.079     5891.141     4102.248        1.274        0.893       86.086       55.084        0.409      335.829        6.723      872.505
01/14/2022  17:14:00       37.305      -50.673       -9.082       77.723       71.491       48.643     6040.868     5110.904     2366.151        0.878        0.676       62.924       26.473        0.177      335.850        6.759      872.497
01/14/2022  17:15:00       69.648      -44.843      -35.429       51.953       75.499       48.470     2699.157     5700.043     2349.337        0.943        0.537       82.835       26.555        0.103      335.844        6.749      872.495
01/14/2022  17:16:00       96.937      -78.265      -38.782       58.471       95.869       30.918     3418.830     9190.864      955.945        1.529        0.678      124.588       24.078        0.037      335.756        6.601      872.489
01/14/2022  17:17:00       91.061     -175.162      -41.872       76.052       86.902       44.251     5783.943     7551.975     1958.137        2.801        0.765      197.418       47.658        0.058      335.809        6.687      872.482
01/14/2022  17:18:00       90.220     -160.473      -40.218       60.885       98.833       41.376     3706.999     9767.993     1711.966        2.535        0.759      184.095       33.598        0.033      335.784        6.645      872.495
01/14/2022  17:19:00      132.349      -96.116      -29.420       81.724       80.655       45.726     6678.854     6505.181     2090.844        2.144        0.764      163.568       39.479        0.058      335.718        6.536      872.497
01/14/2022  17:20:00       75.003      -42.541      -45.043       84.977       81.954       42.624     7221.157     6716.461     1816.775        1.261        0.788       86.228       38.591        0.200      335.707        6.518      872.506
01/14/2022  17:21:00      129.091     -132.696      -35.777      125.706      104.767       52.902    15801.999    10976.100     2798.582        3.256        1.479      185.129       25.946        0.020      335.746        6.583      872.521
01/14/2022  17:22:00       65.394      -60.147      -27.647       83.764       98.496       43.377     7016.450     9701.481     1881.593        1.363        0.930       88.849       41.659        0.220      335.705        6.515      872.533
01/14/2022  17:23:00       82.916      -27.380      -10.877       79.761       53.104       41.644     6361.742     2820.082     1734.207        0.933        0.546       87.319       30.007        0.118      335.697        6.501      872.538
01/14/2022  17:24:00       81.100      -54.577      -18.654       73.647       68.022       48.647     5423.915     4626.987     2366.521        1.116        0.621       97.754       48.844        0.250      335.692        6.493      872.541
01/14/2022  17:25:00      105.006        2.699       -0.595       77.651       82.638       55.759     6029.628     6829.013     3109.014        1.350        0.798      105.040       40.811        0.151      335.608        6.353      872.541
01/14/2022  17:26:00      107.549      -38.568      -29.242       88.337       86.212       50.363     7803.501     7432.513     2536.415        1.584        0.889      114.255       29.064        0.065      335.657        6.435      872.533
01/14/2022  17:27:00       79.423      -55.763      -21.010       63.273       92.753       43.980     4003.436     8603.187     1934.203        1.220        0.727       97.044       34.778        0.128      335.722        6.545      872.527
01/14/2022  17:28:00       78.536      -22.280      -10.327       94.707       79.340       57.586     8969.447     6294.807     3316.177        1.267        0.929       81.635       58.848        0.520      335.585        6.315      872.535
01/14/2022  17:29:00      151.116      -71.726      -15.543      109.722       83.903       58.259    12039.012     7039.660     3394.169        2.534        1.124      167.274       56.408        0.114      335.612        6.360      872.542
01/14/2022  17:30:00      132.156     -104.124      -49.718       78.961       99.984       49.746     6234.810     9996.861     2474.686        2.474        0.935      168.247       43.754        0.068      335.626        6.382      872.564
01/14/2022  17:31:00       91.900     -118.730      -36.628       51.731       77.967       44.424     2676.048     6078.822     1973.517        1.730        0.536      150.142       32.515        0.047      335.618        6.371      872.586
01/14/2022  17:32:00       51.772      -44.458      -31.130       60.661       78.987       37.516     3679.745     6238.984     1407.421        0.847        0.566       68.241       24.977        0.134      335.526        6.218      872.613
01/14/2022  17:33:00       50.121      -77.574      -24.059       37.826       74.917       34.891     1430.823     5612.597     1217.394        0.868        0.413       92.357        7.273        0.006      335.545        6.250      872.636
01/14/2022  17:34:00       76.024      -77.750      -37.591       56.873       86.706       44.495     3234.521     7518.012     1979.803        1.298        0.637      108.741       32.992        0.092      335.555        6.266      872.629
01/14/2022  17:35:00       77.165      -95.220      -41.353       54.404      102.801       43.487     2959.743    10568.123     1891.151        1.607        0.771      122.561       28.630        0.055      335.559        6.272      872.645
01/14/2022  17:36:00       89.974      -66.664      -28.335       63.629       79.603       53.255     4048.613     6336.577     2836.105        1.328        0.661      111.979       34.657        0.096      335.561        6.276      872.642
01/14/2022  17:37:00       65.580      -90.173      -21.101       46.018       73.669       36.562     2117.643     5427.174     1336.771        1.088        0.444      111.498       31.557        0.080      335.543        6.248      872.646
01/14/2022  17:38:00       55.652      -68.746      -42.410       65.138       92.977       50.281     4242.958     8644.728     2528.156        1.252        0.771       88.448       36.026        0.166      335.537        6.237      872.646
01/14/2022  17:39:00       47.570      -61.806      -22.672       38.351       67.064       41.428     1470.790     4497.583     1716.315        0.714        0.384       77.993       15.989        0.042      335.544        6.249      872.655
01/14/2022  17:40:00       68.189      -32.451      -18.841       52.929       66.359       42.565     2801.513     4403.460     1811.790        0.754        0.451       75.517       33.550        0.197      335.485        6.149      872.675
01/14/2022  17:41:00       90.620      -16.076       -3.474       80.597       65.068       60.906     6495.823     4233.837     3709.557        1.146        0.722       92.034       50.409        0.300      335.361        5.943      872.692
01/14/2022  17:42:00       72.586      -24.738      -11.580       83.071       76.006       56.643     6900.803     5776.985     3208.425        1.095        0.794       76.686       55.770        0.529      335.373        5.963      872.710
01/14/2022  17:43:00       25.397      -36.728      -16.220       56.761       71.412       41.490     3221.854     5099.721     1721.461        0.615        0.502       44.653       35.201        0.621      335.414        6.033      872.729
01/14/2022  17:44:00       75.880     -101.004      -28.307       73.623       75.970       48.170     5420.359     5771.378     2320.339        1.513        0.676      126.331       25.894        0.042      335.475        6.134      872.746
01/14/2022  17:45:00      155.422     -177.502      -40.931       84.249      107.812       50.848     7097.877    11623.331     2585.481        3.932        1.065      235.930       46.849        0.039      335.474        6.128      872.763
01/14/2022  17:46:00       95.544      -93.059      -44.576       76.686       82.532       52.077     5880.789     6811.584     2711.970        1.759        0.770      133.374       37.821        0.080      335.445        6.083      872.774
01/14/2022  17:47:00       50.793      -20.337       -8.642       79.190       50.473       34.648     6271.000     2547.491     1200.476        0.654        0.501       54.713       29.203        0.285      335.415        6.034      872.775
01/14/2022  17:48:00       58.341     -103.405      -31.610       54.251       77.869       32.876     2943.212     6063.511     1080.859        1.259        0.504      118.727       27.834        0.055      335.482        6.144      872.795
01/14/2022  17:49:00      114.153      -55.423      -30.634       95.966       66.450       37.746     9209.401     4415.637     1424.743        1.604        0.752      126.896       37.318        0.086      335.480        6.140      872.809
01/14/2022  17:50:00       91.302     -133.229      -25.563       65.364       96.645       50.644     4272.453     9340.169     2564.849        2.146        0.809      161.512       51.388        0.101      335.455        6.098      872.839
01/14/2022  17:51:00      116.403     -212.745      -49.091       50.432       59.101       41.845     2543.424     3492.897     1750.966        3.450        0.389      242.508       29.801        0.015      335.464        6.110      872.864
01/14/2022  17:52:00      138.896      -91.516      -34.631       91.798      106.599       56.829     8426.825    11363.291     3229.500        2.594        1.151      166.335       53.268        0.103      335.462        6.112      872.875
01/14/2022  17:53:00       88.340     -135.708      -30.975       62.127       76.500       44.648     3859.708     5852.197     1993.404        1.944        0.585      161.928       32.487        0.040      335.458        6.106      872.878
01/14/2022  17:54:00       70.313      -74.788      -21.628       66.874       78.681       48.627     4472.197     6190.750     2364.598        1.201        0.651      102.651       33.807        0.108      335.453        6.096      872.866
01/14/2022  17:55:00       20.283      -43.541      -20.892       87.673       46.214       34.776     7686.574     2135.688     1209.380        0.689        0.552       48.034       27.330        0.324      335.456        6.102      872.865
01/14/2022  17:56:00       44.032      -41.345      -22.775       47.822       58.436       28.907     2286.937     3414.741      835.639        0.535        0.327       60.400       22.459        0.138      335.411        6.027      872.876
01/14/2022  17:57:00       43.333      -89.745      -23.518       57.985       41.802       26.568     3362.236     1747.435      705.866        0.815        0.291       99.659       25.507        0.066      335.445        6.084      872.886
01/14/2022  17:58:00       62.659     -124.298      -30.903       46.319       86.727       32.651     2145.487     7521.612     1066.085        1.553        0.537      139.198       28.616        0.042      335.381        5.975      872.885
01/14/2022  17:59:00       28.924      -18.296      -20.016       47.642       48.298       31.639     2269.737     2332.657     1001.026        0.359        0.280       34.225       27.046        0.625      335.361        5.944      872.867
01/14/2022  18:00:00       99.289      -60.407      -20.758       70.202       69.735       37.130     4928.287     4863.022     1378.617        1.255        0.558      116.221       29.247        0.063      335.347        5.919      872.854
01/14/2022  18:01:00       15.220      -38.158      -27.179       67.908       54.322       40.895     4611.521     2950.874     1672.433        0.583        0.462       41.082       34.801        0.718      335.362        5.945      872.854
01/14/2022  18:02:00      127.139      -67.417      -31.046      110.971       84.896       55.785    12314.583     7207.324     3111.951        2.215        1.132      143.907       46.874        0.106      335.358        5.936      872.852
01/14/2022  18:03:00       36.854      -72.466      -23.068       40.492       66.959       41.362     1639.568     4483.572     1710.845        0.749        0.392       81.299       38.573        0.225      335.398        6.003      872.890
01/14/2022  18:04:00       76.464      -83.691      -30.739       69.964       86.861       42.678     4895.000     7544.847     1821.382        1.403        0.713      113.362       39.014        0.118      335.328        5.888      872.893
01/14/2022  18:05:00       53.756     -125.182      -32.943       77.204       57.814       43.034     5960.493     3342.417     1851.905        1.540        0.558      136.236       33.739        0.061      335.343        5.912      872.890
01/14/2022  18:06:00      -10.470      -29.902      -30.146       45.302       47.377       24.371     2052.316     2244.559      593.941        0.340        0.245       31.682       13.437        0.180      335.284        5.815      872.887
01/14/2022  18:07:00       56.555      -48.823      -20.543       63.554       74.064       38.480     4039.096     5485.507     1480.743        0.850        0.550       74.714       19.811        0.070      335.312        5.862      872.881
01/14/2022  18:08:00       48.042      -15.261      -21.198       39.772       39.770       21.462     1581.785     1581.635      460.603        0.331        0.181       50.408        6.536        0.017      335.258        5.771      872.883
01/14/2022  18:09:00       -0.485      -17.690      -12.819       39.424       26.785       22.236     1554.290      717.423      494.448        0.162        0.138       17.696        6.703        0.143      335.358        5.939      872.882
01/14/2022  18:10:00       81.153      -27.009      -12.935       87.195       40.783       36.235     7602.968     1663.220     1312.998        0.903        0.529       85.529       40.603        0.225      335.215        5.701      872.894
01/14/2022  18:11:00       16.317       -7.369       -6.919       25.139       38.796       24.761      631.994     1505.140      613.087        0.156        0.138       17.904       21.067        1.385      335.219        5.708      872.935
01/14/2022  18:12:00       40.495      -94.027      -22.912       51.626       67.068       33.545     2665.214     4498.131     1125.247        0.965        0.414      102.376       24.615        0.058      335.374        5.965      872.955
01/14/2022  18:13:00       88.778      -34.628      -22.039       47.576       49.794       29.461     2263.517     2479.486      867.966        0.759        0.281       95.292       18.257        0.037      335.266        5.785      872.963
01/14/2022  18:14:00       -3.091       18.083      -12.143       41.751       31.623       14.047     1743.109     1000.004      197.323        0.171        0.147       18.346       17.648        0.925      335.176        5.637      872.960
01/14/2022  18:15:00      -38.824      -31.147      -14.984       21.044       25.368       14.139      442.858      643.514      199.898        0.199        0.064       49.774       12.842        0.067      335.234        5.731      872.959
01/14/2022  18:16:00       13.675      -41.935      -15.020       17.620       27.506       13.357      310.453      756.566      178.409        0.171        0.062       44.109       10.174        0.053      335.334        5.900      872.982
01/14/2022  18:17:00       13.756      -61.454      -23.677       48.473       30.145       22.296     2349.594      908.704      497.116        0.414        0.188       62.975       11.072        0.031      335.402        6.011      872.997
01/14/2022  18:18:00       37.614      -71.731      -19.062       43.589       33.396       24.262     1899.996     1115.324      588.646        0.526        0.180       80.995       13.797        0.029      335.435        6.066      872.995
01/14/2022  18:19:00       52.801      -79.449      -18.044       29.748       45.707       23.284      884.923     2089.128      542.147        0.647        0.176       95.394       20.520        0.046      335.388        5.990      872.999
01/14/2022  18:20:00       94.223      -83.248      -27.237       62.430       70.619       44.879     3897.552     4987.062     2014.095        1.372        0.545      125.731       42.184        0.113      335.311        5.859      872.999
01/14/2022  18:21:00       48.664     -216.699      -26.631       60.975       80.707       41.635     3718.006     6513.652     1733.508        3.100        0.598      222.096       32.088        0.021      335.407        6.019      872.992
01/14/2022  18:22:00       80.484     -232.804      -30.554       51.334       57.462       29.242     2635.225     3301.921      855.085        3.420        0.340      246.324       20.814        0.007      335.337        5.900      873.010
01/14/2022  18:23:00       66.940     -199.470      -30.146       32.229       58.334       33.187     1038.725     3402.864     1101.388        2.536        0.277      210.403       20.744        0.010      335.310        5.858      873.004
01/14/2022  18:24:00       58.732     -108.532      -24.667       58.096       64.702       30.892     3375.198     4186.327      954.331        1.217        0.426      123.404        9.304        0.006      335.390        5.991      872.997
01/14/2022  18:25:00       79.121      -68.126      -38.405       57.406       71.089       44.804     3295.470     5053.655     2007.361        1.136        0.518      104.410       24.460        0.055      335.372        5.962      872.980
01/14/2022  18:26:00       87.962     -101.601      -31.940       63.956       65.894       35.608     4090.418     4341.955     1267.933        1.439        0.485      134.388       24.788        0.034      335.330        5.891      872.984
01/14/2022  18:27:00       97.932     -102.812      -22.894       70.993       57.379       39.503     5040.070     3292.375     1560.523        1.529        0.495      141.989       38.147        0.072      335.299        5.839      872.988
01/14/2022  18:28:00       78.868     -167.110      -24.424       47.273       77.291       33.904     2234.691     5973.948     1149.452        2.205        0.468      184.786       27.569        0.022      335.321        5.876      873.010
01/14/2022  18:29:00      102.684     -186.917      -37.015       50.689       76.132       38.298     2569.395     5796.023     1466.707        2.834        0.492      213.265       34.045        0.025      335.298        5.836      873.010
01/14/2022  18:30:00       72.769     -169.608      -31.249       52.686       71.415       39.497     2775.839     5100.119     1560.026        2.224        0.472      184.559       35.901        0.038      335.268        5.788      873.010
01/14/2022  18:31:00       90.929     -139.795      -33.967       40.966       62.350       38.045     1678.242     3887.488     1447.452        1.799        0.351      166.766       27.191        0.027      335.283        5.811      873.015
01/14/2022  18:32:00       62.205     -105.222      -23.728       56.731       54.971       39.362     3218.426     3021.827     1549.371        1.165        0.389      122.234       31.795        0.068      335.291        5.825      873.007
01/14/2022  18:33:00       46.196      -88.796      -37.060       33.000       64.008       25.375     1089.021     4097.048      643.898        0.861        0.291      100.094       17.620        0.031      335.292        5.829      873.011
01/14/2022  18:34:00       47.481     -116.547      -19.408       39.957       71.456       35.067     1596.579     5105.905     1229.717        1.207        0.397      125.847       30.683        0.059      335.333        5.896      873.004
01/14/2022  18:35:00      103.011     -230.063      -43.816       51.152       69.009       35.104     2616.518     4762.306     1232.318        3.703        0.431      252.072       22.003        0.008      335.274        5.796      872.995
01/14/2022  18:36:00      110.255     -214.598      -47.969       52.229       54.873       32.761     2727.871     3011.061     1073.313        3.366        0.341      241.264       23.971        0.010      335.259        5.770      872.987
01/14/2022  18:37:00      112.966     -117.844      -36.879       65.299       46.884       43.199     4263.963     2198.120     1866.189        1.817        0.416      163.243       27.761        0.029      335.306        5.852      873.014
01/14/2022  18:38:00       34.069     -190.718      -16.631       66.062       54.960       37.918     4364.239     3020.623     1437.774        2.331        0.441      193.737       29.072        0.023      335.352        5.926      873.035
01/14/2022  18:39:00       62.608     -183.992      -32.446       43.374       43.728       28.490     1881.297     1912.172      811.660        2.171        0.230      194.352       18.207        0.009      335.325        5.881      873.050
01/14/2022  18:40:00       82.164     -135.692      -30.229       45.461       50.057       29.188     2066.677     2505.715      851.912        1.575        0.271      158.629       17.740        0.013      335.286        5.817      873.034
01/14/2022  18:41:00       99.305      -85.569      -27.277       58.839       56.006       39.784     3462.040     3136.704     1582.735        1.305        0.409      131.086       31.250        0.057      335.247        5.751      873.029
01/14/2022  18:42:00      123.141     -111.600      -30.444       47.329       68.712       33.748     2239.992     4721.381     1138.933        1.832        0.405      166.187       28.861        0.030      335.230        5.725      873.036
01/14/2022  18:43:00       78.083      -96.324      -31.237       31.377       56.635       33.003      984.499     3207.570     1089.221        1.082        0.264      123.996       18.166        0.021      335.221        5.707      873.053
01/14/2022  18:44:00       28.182      -52.444      -23.771       34.417       52.185       24.288     1184.507     2723.244      589.925        0.430        0.225       59.537       17.295        0.084      335.246        5.750      873.073
01/14/2022  18:45:00       54.150      -77.875      -18.577       37.872       42.953       23.001     1434.289     1844.943      529.057        0.657        0.190       94.851       17.382        0.034      335.281        5.809      873.107
01/14/2022  18:46:00       76.893     -116.096      -21.779       39.187       36.526       22.014     1535.638     1334.156      484.597        1.161        0.168      139.251       16.672        0.014      335.272        5.794      873.113
01/14/2022  18:47:00       93.990      -98.154      -33.774       41.697       42.279       28.776     1738.654     1787.483      828.038        1.198        0.218      135.898       18.704        0.019      335.230        5.724      873.109
01/14/2022  18:48:00       66.666     -116.758      -31.062       45.801       97.190       40.279     2097.702     9445.810     1622.391        1.610        0.658      134.450       24.735        0.034      335.233        5.729      873.105
01/14/2022  18:49:00      102.487     -209.268      -39.356       34.622       52.160       22.976     1198.688     2720.689      527.888        3.015        0.222      233.017       16.129        0.005      335.236        5.731      873.101
01/14/2022  18:50:00      124.144     -145.527      -48.074       59.986       58.103       38.901     3598.289     3376.010     1513.262        2.369        0.424      191.285       42.017        0.048      335.212        5.693      873.083
01/14/2022  18:51:00       51.429      -84.684      -24.233       40.529       49.840       21.735     1642.590     2484.075      472.398        0.750        0.230       99.077       18.240        0.034      335.343        5.912      873.092
01/14/2022  18:52:00      101.057     -175.743      -39.931       40.549       50.040       27.878     1644.189     2504.033      777.195        2.381        0.246      202.727       17.594        0.008      335.199        5.672      873.074
01/14/2022  18:53:00       92.777     -108.674      -24.368       48.599       46.505       38.914     2361.864     2162.697     1514.331        1.352        0.302      142.890       26.003        0.033      335.203        5.678      873.073
01/14/2022  18:54:00       54.185     -106.462      -24.841       37.001       47.081       30.512     1369.050     2216.582      931.002        0.970        0.226      119.457       20.599        0.030      335.208        5.688      873.070
01/14/2022  18:55:00       42.282     -123.469      -25.161       36.405       39.823       26.527     1325.338     1585.853      703.698        1.064        0.181      130.508       21.998        0.028      335.218        5.705      873.081
01/14/2022  18:56:00       43.468      -91.314      -17.694       36.758       70.605       25.478     1351.162     4985.076      649.133        0.876        0.349      101.132       17.950        0.032      335.227        5.720      873.092
01/14/2022  18:57:00       49.551      -50.335      -18.302       33.886       40.795       24.008     1148.231     1664.221      576.379        0.436        0.169       70.632       15.538        0.048      335.238        5.737      873.096
01/14/2022  18:58:00       25.611      -15.226      -10.363       38.831       36.825       25.760     1507.813     1356.093      663.584        0.226        0.176       29.795       16.715        0.315      335.180        5.642      873.113
01/14/2022  18:59:00       61.309      -91.938      -20.998       51.917       46.072       33.243     2695.420     2122.600     1105.129        0.929        0.296      110.505       25.461        0.053      335.207        5.688      873.131
01/14/2022  19:00:00       42.716      -21.705       -8.334       62.751       73.187       37.049     3937.707     5356.357     1372.616        0.651        0.533       47.914       31.872        0.442      335.120        5.543      873.147
01/14/2022  19:01:00       49.143      -30.114      -24.091       43.826       69.806       29.059     1920.733     4872.857      844.419        0.577        0.382       57.636       25.795        0.200      335.191        5.660      873.157
01/14/2022  19:02:00       77.408      -53.501      -25.675       47.351       98.722       31.825     2242.115     9746.050     1012.838        1.125        0.650       94.097       31.045        0.109      335.190        5.658      873.163
01/14/2022  19:03:00       53.176      -10.879      -18.658       53.310       41.887       30.202     2841.933     1754.532      912.146        0.440        0.275       54.277       11.152        0.042      335.148        5.589      873.160
01/14/2022  19:04:00      102.559      -57.361      -28.858       35.755       70.395       33.661     1278.436     4955.394     1133.033        1.100        0.368      117.510       31.755        0.073      335.096        5.503      873.164
01/14/2022  19:05:00       21.024      -51.036      -15.466       52.232       49.395       31.935     2728.229     2439.833     1019.830        0.474        0.309       55.197       34.047        0.380      335.161        5.610      873.170
01/14/2022  19:06:00       29.421      -36.086      -28.715       45.980       44.288       26.992     2114.178     1961.386      728.549        0.390        0.240       46.559       14.118        0.092      335.184        5.649      873.184
01/14/2022  19:07:00       43.187     -114.395      -22.131       36.787       36.632       21.910     1353.273     1341.903      480.063        0.931        0.159      122.276       18.451        0.023      335.216        5.701      873.192
01/14/2022  19:08:00       72.471     -152.904      -25.425       55.306       68.654       31.798     3058.767     4713.381     1011.132        1.903        0.439      169.209       31.408        0.034      335.188        5.655      873.204
01/14/2022  19:09:00       81.948      -77.321      -35.403       56.746       47.522       31.620     3220.060     2258.320      999.795        1.021        0.324      112.668       25.842        0.053      335.190        5.658      873.223
01/14/2022  19:10:00       81.779      -79.533      -25.336       47.428       76.775       33.309     2249.437     5894.383     1109.477        1.145        0.463      114.076       31.780        0.078      335.178        5.639      873.237
01/14/2022  19:11:00       41.666      -42.495      -11.702       55.596       60.685       38.673     3090.928     3682.719     1495.611        0.597        0.413       59.514       34.355        0.333      335.161        5.611      873.227
01/14/2022  19:12:00       54.050      -73.153      -25.993       59.869       71.625       34.590     3584.316     5130.168     1196.455        0.943        0.496       90.955       28.754        0.100      335.208        5.690      873.216
01/14/2022  19:13:00       43.650      -21.033      -16.964       60.247       55.668       39.732     3629.731     3098.892     1578.606        0.547        0.415       48.453       16.059        0.110      335.142        5.579      873.192
01/14/2022  19:14:00       44.924      -19.521      -15.851       60.499       59.536       32.194     3660.122     3544.522     1036.450        0.544        0.412       48.983       34.441        0.494      335.101        5.512      873.178
01/14/2022  19:15:00       40.384      -37.902      -14.662       58.569       80.738       51.377     3430.363     6518.557     2639.612        0.793        0.629       55.384       35.427        0.409      335.137        5.572      873.168
01/14/2022  19:16:00       79.342      -61.729      -34.125       68.482       88.739       38.644     4689.842     7874.567     1493.393        1.266        0.703      100.526       26.448        0.069      335.148        5.589      873.167
01/14/2022  19:17:00       59.966      -20.020       -3.162      105.421       75.740       48.370    11113.489     5736.566     2339.665        1.159        0.959       63.219       42.188        0.445      335.080        5.476      873.170
01/14/2022  19:18:00      181.912      -71.817      -32.256      145.966       89.045       49.461    21306.196     7929.068     2446.397        3.548        1.584      195.575       60.919        0.097      335.060        5.441      873.174
01/14/2022  19:19:00       59.911      -73.909      -23.871       93.923       79.012       33.724     8821.542     6242.909     1137.337        1.291        0.810       95.142       33.246        0.122      335.077        5.472      873.187
01/14/2022  19:20:00       76.157     -148.388      -32.339       44.754       47.907       27.127     2002.952     2295.094      735.849        1.695        0.252      166.790       24.625        0.022      335.132        5.563      873.195
01/14/2022  19:21:00      105.840      -99.095      -41.321       53.201      105.172       49.807     2830.339    11061.174     2480.774        1.955        0.819      144.990       43.759        0.091      335.113        5.531      873.202
01/14/2022  19:22:00       51.679      -62.471      -28.351       94.840       58.319       38.616     8994.539     3401.112     1491.197        1.063        0.694       81.076       25.405        0.098      335.125        5.551      873.194
01/14/2022  19:23:00      108.849       -9.912       -7.263       84.731       60.364       35.926     7179.304     3643.870     1290.707        1.205        0.606      109.300       35.525        0.106      335.048        5.423      873.188
01/14/2022  19:24:00       71.359      -12.900       -9.767       68.841       51.658       38.999     4739.111     2668.558     1520.897        0.714        0.446       72.515       31.399        0.187      335.034        5.401      873.176
01/14/2022  19:25:00       45.407      -39.141      -19.747       52.385       64.148       39.099     2744.223     4114.922     1528.728        0.618        0.419       59.949       36.160        0.364      335.005        5.353      873.195
01/14/2022  19:26:00       50.628       25.230        1.480       57.871       63.998       41.495     3349.073     4095.724     1721.859        0.618        0.458       56.567       27.577        0.238      334.944        5.252      873.225
01/14/2022  19:27:00       59.104       -0.694      -10.245       54.214       58.237       34.812     2939.154     3391.568     1211.894        0.557        0.377       59.108       30.727        0.270      334.911        5.197      873.250
01/14/2022  19:28:00       95.314      -32.365       -9.496       83.284       62.919       41.037     6936.172     3958.748     1684.045        1.140        0.629      100.659       35.628        0.125      334.911        5.196      873.264
01/14/2022  19:29:00      162.124      -17.784      -20.824       85.748       87.983       33.500     7352.752     7740.982     1122.240        2.162        0.811      163.096       20.937        0.016      334.956        5.270      873.275
01/14/2022  19:30:00       48.675      -50.147      -12.532       36.533       40.781       27.449     1334.628     1663.109      753.448        0.440        0.188       69.886       18.877        0.073      335.068        5.458      873.279
01/14/2022  19:31:00       32.798      -19.677      -20.387       36.987       41.861       31.125     1368.021     1752.363      968.796        0.298        0.204       38.248       28.499        0.555      334.979        5.310      873.290
01/14/2022  19:32:00       16.781        0.519        8.384       25.535       28.675       22.359      652.031      822.256      499.935        0.116        0.099       16.789       17.372        1.071      334.779        4.977      873.302
01/14/2022  19:33:00       58.690       -5.313      -16.591       37.950       52.286       26.738     1440.166     2733.829      714.936        0.432        0.244       58.930       10.864        0.034      334.920        5.212      873.330
01/14/2022  19:34:00       84.614       17.359      -13.361       35.663       45.141       21.458     1271.865     2037.719      460.433        0.570        0.189       86.376       12.144        0.020      334.861        5.113      873.356
01/14/2022  19:35:00       70.879       15.837      -18.464       33.604       28.333       22.117     1129.203      802.734      489.144        0.402        0.121       72.627        5.434        0.006      334.758        4.944      873.369
01/14/2022  19:36:00       34.706       13.535       -5.687       16.184       21.127       13.084      261.923      446.365      171.180        0.115        0.044       37.252        6.048        0.026      334.691        4.829      873.380
01/14/2022  19:37:00        7.983      -26.809       -2.326       22.081       28.600       14.647      487.552      817.964      214.533        0.115        0.076       27.973       12.392        0.196      334.856        5.104      873.382
01/14/2022  19:38:00       23.238      -90.652      -11.532       33.634       40.409       28.354     1131.248     1632.908      803.978        0.623        0.178       93.583       24.166        0.067      335.080        5.477      873.391
01/14/2022  19:39:00       11.854      -57.559       -5.438       27.531       34.397       22.410      757.981     1183.121      502.197        0.296        0.122       58.767       18.323        0.097      335.132        5.563      873.375
01/14/2022  19:40:00       53.390      -83.893      -26.465       30.737       35.910       25.635      944.766     1289.509      657.175        0.674        0.145       99.441       14.112        0.020      335.125        5.552      873.351
01/14/2022  19:41:00       25.095      -15.388      -13.281       23.989       47.216       21.284      575.472     2229.316      452.991        0.215        0.163       29.437        6.986        0.056      334.900        5.179      873.327
01/14/2022  19:42:00       41.037        8.173      -19.169       26.330       30.728       16.951      693.283      944.180      287.332        0.202        0.096       41.843       11.954        0.082      334.763        4.949      873.318
01/14/2022  19:43:00       30.762        5.844      -14.573       25.381       24.933       17.603      644.207      621.651      309.872        0.138        0.079       31.312        9.960        0.101      334.754        4.934      873.328
01/14/2022  19:44:00       33.931       26.769       -6.745       28.701       29.834       21.514      823.719      890.045      462.849        0.204        0.109       43.219       13.562        0.098      334.691        4.830      873.326
01/14/2022  19:45:00       65.742        6.650      -11.272       49.391       40.502       26.967     2439.484     1640.418      727.234        0.465        0.240       66.077        8.792        0.018      334.760        4.946      873.317
01/14/2022  19:46:00       81.397       10.205      -15.100       40.161       31.177       15.232     1612.946      972.016      232.005        0.489        0.141       82.034       12.580        0.024      334.747        4.924      873.313
01/14/2022  19:47:00       80.100      -16.761      -18.194       44.987       33.558       21.677     2023.858     1126.116      469.895        0.532        0.181       81.835       16.469        0.040      334.733        4.899      873.313
01/14/2022  19:48:00       68.121       31.635      -16.369       22.970       16.656       16.382      527.625      277.421      268.368        0.349        0.054       75.108       10.270        0.019      334.709        4.860      873.320
01/14/2022  19:49:00       67.253       48.345       -7.935       27.193       22.310       14.483      739.454      497.738      209.759        0.418        0.072       82.826       15.651        0.036      334.678        4.808      873.337
01/14/2022  19:50:00       50.882       37.000       -6.396       32.227       23.515       17.740     1038.572      552.955      314.702        0.295        0.095       62.912        8.724        0.019      334.778        4.975      873.349
01/14/2022  19:51:00       56.415       20.952       -0.709       28.237       24.478       19.335      797.313      599.182      373.853        0.270        0.089       60.180       11.651        0.037      334.667        4.790      873.359
01/14/2022  19:52:00       64.981       10.641       -9.850       40.635       39.027       19.120     1651.239     1523.131      365.582        0.399        0.177       65.846       13.367        0.041      334.797        5.006      873.366
01/14/2022  19:53:00       70.599        0.164       -2.798       30.131       29.816       19.741      907.861      889.017      389.708        0.359        0.109       70.600       10.616        0.023      334.710        4.860      873.375
01/14/2022  19:54:00       77.101       20.744       -9.410       29.195       16.434       14.834      852.357      270.068      220.038        0.390        0.067       79.843       13.120        0.027      334.681        4.814      873.363
01/14/2022  19:55:00       83.276       11.671      -12.815       18.320       18.752       14.000      335.631      351.654      196.009        0.406        0.044       84.089       10.517        0.016      334.671        4.798      873.352
01/14/2022  19:56:00      101.439       12.156       -6.142       31.170       27.278       17.510      971.575      744.114      306.613        0.625        0.101      102.165       12.879        0.016      334.673        4.800      873.368
01/14/2022  19:57:00       97.098       22.919      -11.422       24.755       19.909       14.863      612.796      396.349      220.909        0.566        0.062       99.766       15.487        0.024      334.748        4.926      873.381
01/14/2022  19:58:00       75.132       47.725      -11.676       19.606       12.939        8.928      384.403      167.425       79.707        0.435        0.032       89.008        4.917        0.003      334.763        4.950      873.382
01/14/2022  19:59:00       46.567       47.372       -3.350       29.763       20.088       16.941      885.842      403.521      286.995        0.300        0.079       66.427       14.969        0.051      334.732        4.899      873.368
01/14/2022  20:00:00       51.677       64.275       -2.766       20.994       26.508       15.572      440.747      702.683      242.486        0.410        0.069       82.473       12.443        0.023      334.731        4.897      873.371
01/14/2022  20:01:00       43.587       54.722       -8.588       22.262       11.953       13.610      495.591      142.868      185.245        0.290        0.041       69.960       10.364        0.022      334.619        4.709      873.386
01/14/2022  20:02:00       16.897       56.741       -3.053       15.241       27.193       10.557      232.301      739.439      111.441        0.230        0.054       59.203       10.834        0.033      334.618        4.707      873.388
01/14/2022  20:03:00      -16.079       15.063       -7.722       20.067       17.287       10.054      402.674      298.855      101.087        0.067        0.040       22.033        6.566        0.089      334.341        4.247      873.392
01/14/2022  20:04:00       -7.324       37.182      -13.453       17.833       18.144       12.801      318.033      329.197      163.869        0.121        0.041       37.897        7.169        0.036      334.335        4.239      873.395
01/14/2022  20:05:00      -31.999       54.605       -7.287       20.869       17.545       12.464      435.515      307.831      155.359        0.248        0.045       63.290        8.076        0.016      334.226        4.059      873.383
01/14/2022  20:06:00      -36.361       48.244      -14.324       20.439       13.365       11.564      417.744      178.615      133.723        0.229        0.037       60.412        7.588        0.016      334.238        4.078      873.358
01/14/2022  20:07:00      -11.831       24.075       -6.094       16.536       14.120       13.288      273.456      199.374      176.561        0.070        0.032       26.825        7.229        0.073      334.252        4.102      873.352
01/14/2022  20:08:00      -16.092        7.132      -10.059       18.769       19.444       12.980      352.261      378.063      168.471        0.065        0.045       17.601       10.457        0.353      334.154        3.939      873.359
01/14/2022  20:09:00      -43.935       18.452       -7.891       40.895       26.988       22.949     1672.375      728.329      526.652        0.263        0.146       47.652       24.110        0.256      333.987        3.663      873.376
01/14/2022  20:10:00      -36.418       36.734      -16.596       42.348       39.177       17.186     1793.333     1534.871      295.358        0.329        0.181       51.727       13.797        0.071      333.914        3.543      873.400
01/14/2022  20:11:00        8.184      -19.328      -15.385       36.115       27.474       20.245     1304.295      754.812      409.880        0.157        0.123       20.989       18.118        0.745      333.933        3.575      873.428
01/14/2022  20:12:00        8.756      -12.098       -8.342       12.200       21.200       16.508      148.846      449.430      272.524        0.058        0.044       14.934        7.540        0.255      334.068        3.797      873.440
01/14/2022  20:13:00      -15.652       31.441       -9.183       21.774       24.626       14.816      474.116      606.461      219.526        0.131        0.065       35.121       16.897        0.231      334.059        3.781      873.447
01/14/2022  20:14:00       14.700       65.765      -11.675       31.172       18.939       13.171      971.682      358.688      173.482        0.309        0.075       67.388        8.733        0.017      334.354        4.269      873.457
01/14/2022  20:15:00        4.180       72.473      -10.768       17.140       21.905       11.084      293.771      479.819      122.852        0.314        0.045       72.593        5.329        0.005      334.485        4.487      873.464
01/14/2022  20:16:00       -8.226       69.860       -8.896       17.091       23.368       16.712      292.106      546.073      279.297        0.307        0.056       70.343        8.667        0.015      334.386        4.324      873.462
01/14/2022  20:17:00      -10.808       19.599       -6.962       15.191       14.608       10.911      230.761      213.393      119.054        0.056        0.028       22.382        6.030        0.073      334.243        4.086      873.466
01/14/2022  20:18:00       17.690       92.852      -16.195       27.852       38.661       17.314      775.759     1494.698      299.774        0.588        0.129       94.522       13.110        0.019      334.521        4.548      873.481
01/14/2022  20:19:00       12.734       84.365      -10.099       18.123       15.680       14.565      328.449      245.859      212.152        0.408        0.039       85.320        8.063        0.009      334.531        4.563      873.491
01/14/2022  20:20:00       12.362       99.941      -12.126       18.906       23.329       17.148      357.449      544.223      294.044        0.574        0.060      100.702       11.275        0.013      334.415        4.373      873.501
01/14/2022  20:21:00       38.848      114.385      -10.022       25.931       24.689       17.720      672.424      609.525      313.993        0.814        0.080      120.802       11.134        0.008      334.536        4.572      873.520
01/14/2022  20:22:00       62.367       84.838      -11.205       24.914       28.869       17.750      620.687      833.425      315.065        0.649        0.088      105.296       13.860        0.017      334.453        4.435      873.547
01/14/2022  20:23:00       83.129       60.777       -9.019       33.851       21.696       18.537     1145.859      470.725      343.637        0.632        0.098      102.977       12.036        0.014      334.454        4.438      873.563
01/14/2022  20:24:00       69.073       61.973       -9.725       30.587       22.997       17.531      935.577      528.852      307.323        0.524        0.089       92.799       13.157        0.020      334.442        4.419      873.576
01/14/2022  20:25:00       83.370       64.737      -10.817       36.585       16.440       16.182     1338.497      270.258      261.861        0.656        0.094      105.552       17.204        0.027      334.478        4.475      873.560
01/14/2022  20:26:00      125.785       76.556      -12.960       36.050       27.112       17.793     1299.623      735.041      316.579        1.210        0.118      147.250        9.826        0.004      334.533        4.569      873.551
01/14/2022  20:27:00      131.085       47.288      -20.183       54.486       42.164       19.287     2968.716     1777.764      371.984        1.247        0.256      139.354       18.581        0.018      334.624        4.720      873.545
01/14/2022  20:28:00       88.771       26.153      -11.876       46.642       47.673       29.867     2175.451     2272.743      892.032        0.702        0.267       92.544       19.261        0.043      334.537        4.574      873.546
01/14/2022  20:29:00      132.569       41.402      -14.933       45.146       33.387       22.536     2038.160     1114.685      507.888        1.159        0.183      138.883       17.794        0.016      334.523        4.551      873.557
01/14/2022  20:30:00      164.237       29.777       -8.253       40.982       47.272       24.502     1679.505     2234.595      600.355        1.622        0.226      166.915       15.869        0.009      334.595        4.670      873.559
01/14/2022  20:31:00      116.889       24.269      -18.127       53.403       41.478       26.271     2851.909     1720.438      690.159        0.992        0.263      119.382       22.432        0.035      334.525        4.553      873.559
01/14/2022  20:32:00       98.689       -8.944       -4.436       49.697       34.233       24.466     2469.818     1171.918      598.561        0.704        0.212       99.093       18.520        0.035      334.346        4.259      873.564
01/14/2022  20:33:00      158.971       16.765       -8.123       31.895       24.883       23.990     1017.320      619.174      575.498        1.391        0.111      159.852       16.534        0.011      334.430        4.397      873.576
01/14/2022  20:34:00      176.275       33.105      -17.819       43.536       30.088       18.795     1895.390      905.268      353.268        1.782        0.158      179.356       11.373        0.004      334.533        4.567      873.581
01/14/2022  20:35:00      103.859       20.149       -2.114       51.739       35.052       21.700     2676.968     1228.646      470.885        0.779        0.219      105.795       20.199        0.036      334.387        4.325      873.589
01/14/2022  20:36:00      113.331        8.037      -16.764       36.749       43.600       27.942     1350.467     1900.953      780.737        0.861        0.202      113.615       16.907        0.022      334.509        4.527      873.592
01/14/2022  20:37:00      126.351       53.614      -18.911       19.314       21.143       14.934      373.018      447.028      223.030        1.012        0.052      137.255        6.171        0.002      334.507        4.523      873.604
01/14/2022  20:38:00      100.996       46.805      -16.747       30.305       30.869       16.812      918.414      952.905      282.643        0.741        0.108      111.314       10.841        0.009      334.474        4.470      873.620
01/14/2022  20:39:00      102.180       73.072      -10.065       29.717       19.868       12.971      883.085      394.723      168.254        0.866        0.072      125.619        8.700        0.005      334.486        4.490      873.633
01/14/2022  20:40:00       44.158       59.353      -10.748       35.949       26.362       17.128     1292.319      694.978      293.379        0.393        0.114       73.978       18.981        0.066      334.385        4.322      873.640
01/14/2022  20:41:00       80.095       48.707      -12.249       61.269       34.653       19.507     3753.905     1200.812      380.534        0.714        0.267       93.742       21.085        0.051      334.416        4.374      873.650
01/14/2022  20:42:00      154.660       35.320      -22.418       61.304       67.324       22.053     3758.171     4532.564      486.323        1.722        0.439      158.642       14.050        0.008      334.692        4.832      873.651
01/14/2022  20:43:00       47.543       44.647      -14.530       44.199       41.871       20.473     1953.539     1753.211      419.153        0.429        0.206       65.220       11.977        0.034      334.439        4.411      873.667
01/14/2022  20:44:00      -32.121       16.224       -7.969       23.504       21.453       12.284      552.457      460.230      150.900        0.126        0.058       35.986       12.155        0.114      334.128        3.896      873.691
01/14/2022  20:45:00      -64.673        8.600       -8.017       38.739       23.887       19.399     1500.744      570.605      376.331        0.338        0.122       65.242       10.394        0.025      333.838        3.416      873.715
01/14/2022  20:46:00     -101.744       25.261      -10.142       34.001       19.308       17.258     1156.079      372.810      297.822        0.646        0.091      104.833       15.209        0.021      333.872        3.473      873.735
01/14/2022  20:47:00      -67.767       13.572       -9.854       49.158       28.304       17.856     2416.520      801.090      318.852        0.420        0.177       69.113       25.671        0.138      333.937        3.579      873.752
01/14/2022  20:48:00      -27.414        8.589       -3.332       31.362       29.372       19.185      983.571      862.692      368.076        0.152        0.111       28.728       15.689        0.298      333.798        3.348      873.759
01/14/2022  20:49:00      -79.827       36.518       -8.548       36.896       21.061       15.884     1361.313      443.553      252.306        0.492        0.103       87.784       17.606        0.040      333.718        3.217      873.758
01/14/2022  20:50:00      -94.667       24.185       -4.750       26.940       20.526       17.847      725.755      421.306      318.520        0.552        0.073       97.708       14.089        0.021      333.718        3.217      873.765
01/14/2022  20:51:00      -88.590       30.713       -6.834       37.027       18.007       14.456     1370.990      324.244      208.966        0.537        0.095       93.763       14.643        0.024      333.631        3.073      873.769
01/14/2022  20:52:00     -105.270       43.435      -12.920       26.137       19.330       15.249      683.155      373.661      232.523        0.721        0.064      113.879       13.364        0.014      333.614        3.045      873.780
01/14/2022  20:53:00     -102.661       33.068      -22.899       26.064       20.282       16.972      679.339      411.366      288.049        0.677        0.069      107.855       14.427        0.018      333.503        2.862      873.783
01/14/2022  20:54:00      -87.665       39.282      -10.175       29.329       27.259       21.569      860.162      743.057      465.243        0.570        0.103       96.063       15.606        0.026      333.435        2.748      873.782
01/14/2022  20:55:00      -67.962       51.858      -10.798       12.422       15.632       12.980      154.303      244.362      168.488        0.400        0.028       85.487        3.043        0.001      333.515        2.882      873.773
01/14/2022  20:56:00      -59.734       28.429      -15.046       15.115       17.678       12.634      228.456      312.514      159.622        0.265        0.035       66.154        7.258        0.012      333.564        2.963      873.770
01/14/2022  20:57:00      -65.641       12.527      -21.126       12.893       11.111       12.042      166.227      123.459      144.999        0.267        0.022       66.825        4.963        0.006      333.481        2.824      873.765
01/14/2022  20:58:00      -32.018      -10.732       -9.777       25.600       17.104       15.309      655.375      292.556      234.360        0.121        0.059       33.769       12.279        0.132      333.449        2.772      873.767
01/14/2022  20:59:00      -23.207       -4.758       -6.351       11.875       10.785       12.462      141.021      116.309      155.310        0.051        0.021       23.689        8.346        0.124      333.460        2.789      873.764
01/14/2022  21:00:00      -18.406       25.987      -10.490       16.350        9.424       10.055      267.335       88.807      101.100        0.079        0.023       31.845       10.241        0.103      333.989        3.666      873.741
01/14/2022  21:01:00        4.689       28.745        0.985       14.251       11.573        6.025      203.094      133.940       36.300        0.061        0.019       29.125        3.146        0.012      333.976        3.643      873.746
01/14/2022  21:02:00        1.594       25.692       -0.639       24.348       13.920       12.013      592.822      193.768      144.316        0.080        0.047       25.741        6.234        0.059      334.008        3.698      873.773
01/14/2022  21:03:00       -3.997       44.006        0.810       17.506       21.410       16.123      306.458      458.375      259.962        0.149        0.051       44.187       10.861        0.060      334.269        4.130      873.778
01/14/2022  21:04:00        3.603       47.087       -5.595       15.950       11.273       10.043      254.401      127.075      100.853        0.137        0.024       47.225        9.259        0.038      334.530        4.560      873.779
01/14/2022  21:05:00       18.348       54.134       -0.691       11.141       15.207        9.884      124.124      231.265       97.686        0.186        0.023       57.159        7.204        0.016      334.454        4.436      873.771
01/14/2022  21:06:00       40.367       81.812      -11.266       22.606       21.271       11.627      511.017      452.436      135.199        0.477        0.055       91.229        8.721        0.009      334.401        4.349      873.766
01/14/2022  21:07:00       42.053       64.408       -2.804       22.002       27.234       15.432      484.086      741.702      238.148        0.369        0.073       76.921       13.525        0.031      334.316        4.207      873.771
01/14/2022  21:08:00       50.373       94.867       -7.832       22.418       18.274       13.810      502.578      333.956      190.707        0.631        0.051      107.411       10.441        0.009      334.426        4.390      873.771
01/14/2022  21:09:00       43.401       56.679       -6.370       18.429       20.204       10.249      339.644      408.219      105.043        0.299        0.043       71.388        9.270        0.017      334.399        4.343      873.790
01/14/2022  21:10:00       32.137       53.212        1.715       19.291       21.637       13.972      372.131      468.177      195.221        0.245        0.052       62.164        9.782        0.025      334.324        4.220      873.801
01/14/2022  21:11:00       29.720       73.470       -8.731       15.674       23.764       13.590      245.681      564.748      184.684        0.368        0.050       79.253        7.470        0.009      334.427        4.391      873.808
01/14/2022  21:12:00       40.448       48.311       -5.703       21.245       27.943       19.313      451.365      780.828      373.004        0.280        0.080       63.008       16.816        0.071      334.317        4.209      873.815
01/14/2022  21:13:00       36.303       22.055       -4.260       23.228       19.455       12.775      539.521      378.511      163.189        0.145        0.054       42.478       10.628        0.063      334.190        3.999      873.828
01/14/2022  21:14:00       22.583       10.446       -4.585       15.900       16.106       12.106      252.821      259.399      146.552        0.065        0.033       24.882        7.504        0.091      333.919        3.549      873.827
01/14/2022  21:15:00       52.981       38.340      -19.623        8.741       13.969       12.414       76.404      195.131      154.115        0.254        0.021       65.399        6.081        0.009      334.073        3.806      873.832
01/14/2022  21:16:00       41.504       29.011      -10.534       13.645       10.101        9.249      186.188      102.026       85.552        0.152        0.019       50.639        9.842        0.038      333.939        3.582      873.824
01/14/2022  21:17:00       37.850       33.398       -5.871       18.910       21.822       12.639      357.599      476.201      159.737        0.179        0.050       50.478       10.182        0.041      333.931        3.571      873.830
01/14/2022  21:18:00       39.212       57.735       -9.685       13.675       15.244       11.555      187.019      232.373      133.520        0.276        0.028       69.792        8.298        0.014      334.000        3.683      873.842
01/14/2022  21:19:00       37.711       78.884       -5.665       18.201       14.808       11.268      331.294      219.271      126.960        0.418        0.034       87.434        9.702        0.012      334.251        4.099      873.842
01/14/2022  21:20:00       48.903       83.288       -6.273       16.891       11.935        9.685      285.290      142.446       93.795        0.494        0.026       96.583        8.486        0.008      334.223        4.054      873.860
01/14/2022  21:21:00       27.443       69.612       -7.197       20.245       21.887       10.104      409.862      479.046      102.085        0.332        0.050       74.826        8.220        0.012      334.156        3.943      873.881
01/14/2022  21:22:00      -18.670       16.103      -10.373       42.730       26.286       13.863     1825.822      690.931      192.178        0.171        0.135       24.655       12.693        0.265      333.602        3.025      873.895
01/14/2022  21:23:00      -67.932       30.856      -14.130       16.838       18.743        9.888      283.528      351.308       97.771        0.325        0.037       74.611        3.945        0.003      333.079        2.159      873.903
01/14/2022  21:24:00      -74.446       11.783      -22.833       30.135       28.560       18.196      908.123      815.651      331.076        0.413        0.103       75.373       13.109        0.030      332.944        1.938      873.887
01/14/2022  21:25:00      -89.228       29.362      -18.300       45.585       36.119       21.217     2077.987     1304.597      450.169        0.649        0.192       93.935       14.914        0.025      332.860        1.799      873.869
01/14/2022  21:26:00     -119.778       35.920      -15.657       23.604       15.840       11.440      557.139      250.920      130.877        0.841        0.047      125.048        9.738        0.006      332.910        1.880      873.863
01/14/2022  21:27:00      -92.371       37.553      -13.673       32.177       15.953       15.414     1035.338      254.491      237.598        0.583        0.076       99.713       11.478        0.013      332.826        1.742      873.872
01/14/2022  21:28:00     -130.787       35.260       -7.242       34.468       19.987       16.219     1188.071      399.483      263.060        1.013        0.093      135.457       11.912        0.008      332.880        1.831      873.883
01/14/2022  21:29:00      -66.680        9.572      -10.211       36.349       30.299       24.162     1321.280      918.038      583.798        0.373        0.141       67.363       10.593        0.025      332.914        1.888      873.889
01/14/2022  21:30:00      -58.952       12.882       -5.500       51.846       21.743       19.855     2688.032      472.749      394.233        0.361        0.178       60.343       22.224        0.136      332.924        1.905      873.905
01/14/2022  21:31:00      -48.947        7.554       -9.005       30.875       25.314       17.470      953.255      640.781      305.210        0.222        0.095       49.526       10.867        0.048      332.963        1.969      873.912
01/14/2022  21:32:00      -13.494       -2.683       -2.561       17.891       14.758       12.222      320.076      217.799      149.385        0.044        0.034       13.758        8.690        0.399      332.953        1.951      873.907
01/14/2022  21:33:00      -78.975       34.873      -21.265       14.461       12.335        8.869      209.125      152.157       78.664        0.417        0.022       86.332        4.695        0.003      332.967        1.974      873.898
01/14/2022  21:34:00     -106.734       50.006      -16.276       29.725       21.200       21.294      883.603      449.447      453.432        0.797        0.089      117.867       17.773        0.023      332.929        1.912      873.909
01/14/2022  21:35:00     -107.828       48.840      -19.962       21.762       17.000       14.863      473.579      289.004      220.915        0.770        0.049      118.373        5.425        0.002      332.857        1.794      873.908
01/14/2022  21:36:00      -50.583        4.221      -18.542       31.205       22.039       20.885      973.730      485.703      436.163        0.241        0.095       50.759       17.967        0.125      332.858        1.796      873.908
01/14/2022  21:37:00      -49.128       17.973      -22.026       18.148       13.627       15.771      329.341      185.700      248.738        0.199        0.038       52.312        7.086        0.018      332.945        1.938      873.906
01/14/2022  21:38:00      -60.191       19.612      -20.997       11.196        8.512        9.927      125.359       72.462       98.544        0.237        0.015       63.305        4.276        0.005      332.972        1.982      873.882
01/14/2022  21:39:00      -56.058       10.081      -15.566       22.962       15.526       14.674      527.260      241.060      215.320        0.223        0.049       56.958        6.979        0.015      333.022        2.065      873.863
01/14/2022  21:40:00      -51.938       18.669       -9.339       22.042       20.102       19.871      485.833      404.085      394.868        0.221        0.064       55.192        5.907        0.011      332.918        1.894      873.871
01/14/2022  21:41:00      -77.817       19.485      -17.160       20.132       20.247       12.420      405.304      409.926      154.249        0.385        0.048       80.220        9.219        0.013      332.874        1.821      873.895
01/14/2022  21:42:00      -78.486        4.829      -24.214       27.173       27.173       18.361      738.360      738.346      337.119        0.429        0.091       78.634       15.819        0.040      332.842        1.768      873.918
01/14/2022  21:43:00      -84.504      -16.636      -14.593       28.030       20.881       20.500      785.705      436.003      420.256        0.464        0.082       86.126       11.663        0.018      332.881        1.834      873.933
01/14/2022  21:44:00      -68.429       18.763      -13.022       38.791       33.601       26.309     1504.709     1129.039      692.144        0.426        0.166       70.955       25.336        0.128      332.870        1.815      873.953
01/14/2022  21:45:00     -122.376       40.104      -21.377       23.817       24.058       16.957      567.226      578.768      287.549        0.924        0.072      128.780        9.586        0.006      332.767        1.643      873.965
01/14/2022  21:46:00      -88.956       26.507      -10.810       21.237       20.208       18.140      451.022      408.353      329.078        0.496        0.059       92.821       13.193        0.020      332.745        1.609      873.962
01/14/2022  21:47:00      -95.694       34.895      -14.411       14.349       13.071       10.800      205.894      170.861      116.647        0.554        0.025      101.857        7.155        0.005      332.803        1.704      873.953
01/14/2022  21:48:00     -105.735       39.969      -20.041        8.090       10.220        9.951       65.442      104.443       99.028        0.672        0.013      113.038        4.525        0.002      332.893        1.852      873.948
01/14/2022  21:49:00      -89.261       39.072      -18.541       21.615       13.843       13.937      467.194      191.623      194.233        0.535        0.043       97.438       10.703        0.012      332.829        1.747      873.954
01/14/2022  21:50:00      -95.073       47.900      -11.871       20.063       17.169       14.214      402.510      294.773      202.046        0.619        0.045      106.458       10.963        0.011      332.771        1.650      873.962
01/14/2022  21:51:00     -115.919       67.008      -14.726       18.004       18.040       17.245      324.146      325.450      297.385        0.955        0.047      133.893       11.682        0.008      332.765        1.641      873.970
01/14/2022  21:52:00     -104.792       47.890      -11.435       32.243       19.546       21.163     1039.581      382.062      447.859        0.764        0.093      115.216       17.829        0.024      332.786        1.676      873.971
01/14/2022  21:53:00      -92.828       41.249      -15.643       19.775       18.904       13.301      391.056      357.358      176.922        0.574        0.046      101.580        6.797        0.004      332.798        1.696      873.980
01/14/2022  21:54:00      -83.719       49.398      -17.716       22.518       13.813       14.231      507.041      190.794      202.516        0.533        0.045       97.206        6.117        0.004      332.925        1.904      873.990
01/14/2022  21:55:00      -76.737       48.527      -21.800       12.675       10.113       11.906      160.651      102.263      141.747        0.456        0.020       90.793        5.844        0.004      333.083        2.167      873.994
01/14/2022  21:56:00      -82.393       29.827      -16.345       15.611       13.507       11.493      243.714      182.447      132.081        0.425        0.028       87.625        7.229        0.007      333.178        2.324      873.991
01/14/2022  21:57:00      -70.397        2.222      -22.522       20.689       19.678       14.676      428.042      387.239      215.394        0.325        0.052       70.432        7.191        0.010      332.961        1.965      873.991
01/14/2022  21:58:00      -30.526       -0.408      -17.525       22.976       15.276       14.945      527.907      233.343      223.352        0.111        0.049       30.528       12.080        0.157      332.934        1.921      873.992
01/14/2022  21:59:00      -25.953       10.976      -13.687       16.977       19.040       14.836      288.227      362.518      220.096        0.093        0.044       28.178       10.085        0.128      332.942        1.934      873.989
01/14/2022  22:00:00       -4.375        9.075        5.485       21.744       24.520       14.628      472.788      601.225      213.984        0.071        0.064       10.074       10.043        0.994      332.849        1.780      873.992
01/14/2022  22:01:00      -69.473       -0.669      -15.813       33.426       22.696       20.564     1117.270      515.096      422.882        0.357        0.103       69.477       16.375        0.056      332.930        1.915      874.005
01/14/2022  22:02:00      -11.669       -2.127        2.059       39.357       24.257       25.459     1549.006      588.396      648.148        0.146        0.139       11.861       24.214        4.168      332.746        1.608      874.010
01/14/2022  22:03:00      -63.480        0.753      -14.810       37.143       24.069       20.164     1379.622      579.329      406.584        0.331        0.118       63.484       21.876        0.119      332.792        1.685      874.013
01/14/2022  22:04:00     -107.845       29.107      -21.900       23.780       23.506       15.258      565.507      552.521      232.805        0.715        0.068      111.703        6.941        0.004      332.823        1.738      874.003
01/14/2022  22:05:00     -126.652       31.801      -20.001       28.319       29.300       19.221      801.947      858.481      369.466        0.974        0.101      130.584       16.226        0.015      332.775        1.659      873.994
01/14/2022  22:06:00     -101.332       30.379      -10.090       43.772       31.459       23.143     1915.991      989.654      535.591        0.737        0.172      105.788       20.173        0.036      332.750        1.615      873.984
01/14/2022  22:07:00     -125.954       37.594      -17.454       38.702       29.392       27.873     1497.855      863.885      776.905        1.036        0.157      131.444       22.966        0.031      332.719        1.566      873.980
01/14/2022  22:08:00      -99.425       24.964       -5.314       50.650       30.483       27.651     2565.403      929.207      764.585        0.740        0.213      102.511       23.735        0.054      332.685        1.508      873.977
01/14/2022  22:09:00      -83.058       24.225      -13.785       38.489       27.228       20.878     1481.417      741.370      435.873        0.517        0.133       86.518       16.132        0.035      332.658        1.464      873.974
01/14/2022  22:10:00      -71.548        7.772      -10.156       61.239       39.159       29.206     3750.267     1533.421      852.970        0.571        0.307       71.969       27.004        0.141      332.711        1.551      873.975
01/14/2022  22:11:00      -97.743        0.185      -12.703       60.642       37.359       27.691     3677.495     1395.694      766.807        0.778        0.292       97.744       24.024        0.060      332.724        1.573      873.974
01/14/2022  22:12:00       -5.729        0.331       -5.188       37.863       34.479       22.099     1433.641     1188.772      488.384        0.158        0.156        5.738       12.693        4.893      332.712        1.553      873.969
01/14/2022  22:13:00       -2.155       18.394       -2.252       35.592       31.289       25.038     1266.765      979.030      626.892        0.161        0.144       18.520       16.940        0.837      332.725        1.574      873.959
01/14/2022  22:14:00      -69.505       25.696      -20.840       43.518       38.297       23.608     1893.788     1466.624      557.334        0.492        0.196       74.103       16.521        0.050      332.756        1.626      873.948
01/14/2022  22:15:00      -87.646        2.169      -10.870       59.542       46.356       33.370     3545.272     2148.850     1113.569        0.730        0.340       87.673       32.264        0.135      332.707        1.545      873.953
01/14/2022  22:16:00      -77.657        5.861        2.641       69.797       33.998       31.664     4871.624     1155.871     1002.602        0.655        0.352       77.878       32.923        0.179      332.667        1.479      873.969
01/14/2022  22:17:00      -89.451       23.031       -3.976       64.893       37.421       36.539     4211.113     1400.357     1335.117        0.775        0.347       92.368       33.405        0.131      332.691        1.518      873.988
01/14/2022  22:18:00     -136.160       23.081      -11.182       68.470       44.001       36.343     4688.132     1936.087     1320.798        1.357        0.397      138.103       28.520        0.043      332.750        1.616      874.001
01/14/2022  22:19:00     -149.966       86.083       -8.923       52.211       43.437       30.174     2725.977     1886.802      910.483        1.775        0.276      172.917       27.675        0.026      332.590        1.351      874.009
01/14/2022  22:20:00     -134.215       65.913       -9.362       60.467       40.452       26.629     3656.226     1636.347      709.097        1.422        0.300      149.526       29.312        0.038      332.525        1.243      874.026
01/14/2022  22:21:00     -120.170       58.745      -11.559       47.165       38.683       24.483     2224.494     1496.359      599.404        1.117        0.216      133.760       21.395        0.026      332.563        1.307      874.041
01/14/2022  22:22:00     -118.117       52.417      -11.415       36.131       34.047       25.282     1305.444     1159.182      639.188        0.997        0.155      129.225       20.155        0.024      332.527        1.248      874.046
01/14/2022  22:23:00     -122.064       53.202      -12.567       41.522       34.795       24.376     1724.067     1210.697      594.193        1.071        0.176      133.154       23.648        0.032      332.627        1.412      874.035
01/14/2022  22:24:00     -131.975       58.112      -17.325       44.107       36.613       26.966     1945.451     1340.513      727.162        1.255        0.201      144.202       22.599        0.025      332.696        1.527      874.019
01/14/2022  22:25:00     -136.632       85.790      -26.741       33.538       38.588       24.381     1124.770     1489.054      594.413        1.498        0.160      161.332       18.313        0.013      332.893        1.852      874.006
01/14/2022  22:26:00     -111.297       82.216      -24.917       24.456       25.395       18.437      598.113      644.912      339.908        1.067        0.079      138.371       12.641        0.008      332.793        1.688      874.002
01/14/2022  22:27:00     -112.194       33.284      -32.256       33.186       31.951       28.270     1101.313     1020.861      799.192        0.883        0.146      117.027       19.668        0.028      332.832        1.751      874.001
01/14/2022  22:28:00      -58.164        7.787       -9.457       57.109       38.157       37.394     3261.453     1455.944     1398.310        0.482        0.306       58.683       33.882        0.333      332.825        1.741      874.003
01/14/2022  22:29:00      -62.093       26.858      -11.751       45.150       36.205       30.888     2038.495     1310.810      954.042        0.451        0.215       67.653       28.678        0.180      332.864        1.806      874.004
01/14/2022  22:30:00      -85.737       35.691      -12.001       38.318       27.897       25.126     1468.250      778.261      631.310        0.582        0.144       92.870       18.688        0.040      332.844        1.774      874.006
01/14/2022  22:31:00     -117.652       24.819      -12.230       64.778       39.980       35.301     4196.128     1598.399     1246.167        1.082        0.352      120.242       35.031        0.085      332.786        1.676      874.018
01/14/2022  22:32:00     -113.147       42.914       -4.586       67.709       39.453       31.682     4584.547     1556.524     1003.750        1.090        0.357      121.012       37.665        0.097      332.785        1.674      874.015
01/14/2022  22:33:00     -110.302       67.901      -19.347       44.607       45.374       26.821     1989.821     2058.777      719.387        1.096        0.238      129.527       25.495        0.039      332.758        1.629      874.012
01/14/2022  22:34:00     -169.596       58.098      -23.714       35.847       34.620       27.783     1284.978     1198.566      771.889        1.798        0.163      179.271       16.627        0.009      332.779        1.664      874.002
01/14/2022  22:35:00     -107.316       26.930       -7.293       51.036       43.482       32.051     2604.677     1890.643     1027.293        0.891        0.276      110.643       23.336        0.044      332.749        1.615      873.997
01/14/2022  22:36:00     -128.739       47.202      -20.238       46.916       31.103       27.683     2201.101      967.367      766.342        1.157        0.197      137.120       19.212        0.020      332.701        1.535      873.995
01/14/2022  22:37:00     -123.134       17.549      -24.658       48.601       35.457       35.717     2362.067     1257.188     1275.680        1.049        0.245      124.378       25.264        0.041      332.689        1.515      873.989
01/14/2022  22:38:00     -119.075       50.229      -30.871       41.593       37.065       35.794     1729.970     1373.795     1281.209        1.102        0.219      129.236       18.832        0.021      332.709        1.548      873.975
01/14/2022  22:39:00     -110.236       90.224      -27.239       41.076       37.616       24.302     1687.278     1414.989      590.600        1.236        0.185      142.451       23.201        0.027      332.714        1.556      873.968
01/14/2022  22:40:00     -103.132       53.635      -25.212       36.624       32.694       23.274     1341.336     1068.876      541.697        0.855        0.148      116.245       18.711        0.026      332.723        1.572      873.963
01/14/2022  22:41:00     -100.017       41.501      -10.269       47.772       33.904       23.821     2282.132     1149.454      567.437        0.791        0.200      108.286       25.304        0.055      332.705        1.541      873.971
01/14/2022  22:42:00     -106.596       38.709      -24.987       42.035       25.066       21.953     1766.940      628.310      481.922        0.818        0.144      113.407       14.760        0.017      332.741        1.602      873.961
01/14/2022  22:43:00      -98.183       38.144      -24.146       34.491       28.445       22.313     1189.643      809.138      497.854        0.709        0.125      105.332       15.439        0.021      332.758        1.629      873.943
01/14/2022  22:44:00     -101.243       25.750      -34.088       35.308       31.135       22.085     1246.623      969.416      487.760        0.739        0.135      104.466        8.223        0.006      332.748        1.613      873.928
01/14/2022  22:45:00     -102.395       40.226      -21.070       37.367       29.253       23.885     1396.295      855.721      570.493        0.768        0.141      110.012       14.482        0.017      332.758        1.628      873.920
01/14/2022  22:46:00      -79.048       47.156      -28.588       29.556       32.559       23.775      873.549     1060.094      565.247        0.589        0.125       92.045       16.194        0.031      332.780        1.665      873.914
01/14/2022  22:47:00     -112.204       20.299      -19.614       38.633       27.992       26.927     1492.476      783.541      725.087        0.819        0.150      114.025       15.051        0.017      332.789        1.680      873.911
01/14/2022  22:48:00      -99.056       24.499      -17.800       44.511       29.787       27.309     1981.267      887.275      745.797        0.717        0.181      102.041       25.491        0.062      332.856        1.793      873.896
01/14/2022  22:49:00      -96.806       39.807      -23.527       33.969       26.240       24.720     1153.899      688.515      611.097        0.698        0.123      104.671       17.701        0.029      332.860        1.799      873.865
01/14/2022  22:50:00      -82.245       19.505      -13.751       44.041       30.531       23.840     1939.626      932.138      568.353        0.539        0.172       84.526       19.062        0.051      332.843        1.772      873.849
01/14/2022  22:51:00      -87.611       23.621      -21.923       39.165       29.629       21.847     1533.897      877.892      477.310        0.580        0.144       90.739       15.285        0.028      332.791        1.685      873.853
01/14/2022  22:52:00      -58.821       16.994      -11.210       36.213       27.886       25.119     1311.416      777.630      630.941        0.330        0.136       61.227       17.080        0.078      332.749        1.614      873.858
01/14/2022  22:53:00      -39.157        9.139       -8.567       40.116       25.268       27.125     1609.255      638.469      735.758        0.234        0.149       40.210       17.342        0.186      332.730        1.584      873.864
01/14/2022  22:54:00      -26.523       -0.463       -7.677       18.296       18.092       19.682      334.751      327.320      387.365        0.091        0.052       26.528       10.589        0.159      332.672        1.488      873.879
01/14/2022  22:55:00      -44.564        9.125      -10.246       38.056       25.531       21.699     1448.249      651.830      470.844        0.237        0.129       45.488       19.028        0.175      332.582        1.339      873.885
01/14/2022  22:56:00      -53.926       11.043      -12.728       32.232       21.614       15.832     1038.923      467.156      250.637        0.247        0.088       55.045       11.664        0.045      332.628        1.416      873.877
01/14/2022  22:57:00      -36.398        5.610      -14.035       32.516       24.802       21.080     1057.274      615.115      444.350        0.183        0.106       36.828       10.346        0.079      332.559        1.301      873.872
01/14/2022  22:58:00      -80.413       20.355      -12.070       34.833       29.476       20.569     1213.322      868.852      423.080        0.477        0.125       82.949        9.810        0.014      332.496        1.197      873.859
01/14/2022  22:59:00      -59.930        7.791      -14.521       32.146       23.311       17.981     1033.394      543.419      323.325        0.288        0.095       60.435       15.295        0.064      332.533        1.257      873.844
01/14/2022  23:00:00      -41.572        4.878       -4.484       39.116       24.651       29.485     1530.082      607.695      869.367        0.239        0.150       41.857       25.916        0.383      332.498        1.199      873.833
01/14/2022  23:01:00     -100.393       23.498      -15.785       39.034       33.727       23.296     1523.648     1137.542      542.682        0.704        0.160      103.106       19.352        0.035      332.517        1.232      873.831
01/14/2022  23:02:00     -116.388       51.526      -16.447       33.804       22.689       20.056     1142.681      514.780      402.240        0.927        0.103      127.283        8.785        0.005      332.459        1.135      873.820
01/14/2022  23:03:00     -113.628       33.599      -20.986       39.320       32.773       22.818     1546.054     1074.056      520.674        0.881        0.157      118.492       11.892        0.010      332.436        1.097      873.806
01/14/2022  23:04:00     -121.375       33.581      -20.021       30.182       25.256       18.966      910.966      637.873      359.705        0.908        0.095      125.935       10.930        0.008      332.355        0.963      873.810
01/14/2022  23:05:00      -80.436        5.093      -18.189       54.441       30.844       22.484     2963.859      951.322      505.548        0.562        0.221       80.598       14.182        0.031      332.405        1.044      873.824
01/14/2022  23:06:00      -54.033       11.561      -10.987       57.061       26.174       27.092     3255.915      685.070      733.957        0.392        0.234       55.256       26.185        0.225      332.347        0.950      873.820
01/14/2022  23:07:00      -88.453       26.798      -17.650       37.165       23.002       20.914     1381.263      529.081      437.379        0.560        0.117       92.423       18.495        0.040      332.350        0.955      873.803
01/14/2022  23:08:00     -102.854       26.590      -19.048       24.966       17.912       16.385      623.296      320.834      268.462        0.643        0.061      106.235       10.863        0.010      332.387        1.016      873.783
01/14/2022  23:09:00      -42.308        8.504      -11.321       38.589       28.657       24.551     1489.120      821.221      602.744        0.245        0.146       43.154       17.434        0.163      332.467        1.148      873.753
01/14/2022  23:10:00      -66.189       15.513      -13.441       40.793       32.015       23.151     1664.063     1024.990      535.961        0.401        0.161       67.982       11.037        0.026      332.365        0.980      873.729
01/14/2022  23:11:00      -47.148        4.511      -19.983       25.342       36.108       26.105      642.239     1303.819      681.463        0.263        0.131       47.364       13.987        0.087      332.409        1.053      873.699
01/14/2022  23:12:00      -77.772       19.312      -10.832       44.628       35.633       27.597     1991.625     1269.704      761.590        0.528        0.201       80.134       28.681        0.128      332.402        1.040      873.677
01/14/2022  23:13:00      -82.637       23.322      -13.106       35.330       29.536       16.003     1248.174      872.371      256.107        0.496        0.119       85.865       14.183        0.027      332.428        1.084      873.670
01/14/2022  23:14:00      -70.680       27.827       -7.144       36.951       24.481       16.183     1365.374      599.298      261.877        0.402        0.111       75.961       18.850        0.062      332.434        1.094      873.671
01/14/2022  23:15:00      -44.481       23.152       -3.885       28.458       21.390       16.190      809.834      457.524      262.130        0.203        0.076       50.146        9.924        0.039      332.500        1.201      873.670
01/14/2022  23:16:00      -38.021       29.116       -5.334       29.471       18.596       12.923      868.548      345.804      166.994        0.185        0.069       47.889       10.046        0.044      332.587        1.347      873.675
01/14/2022  23:17:00      -21.670       33.333      -10.020       28.153       27.081       15.025      792.617      733.356      225.740        0.172        0.088       39.758       10.781        0.074      332.782        1.669      873.685
01/14/2022  23:18:00      -52.531       32.373      -19.817       20.525       16.201       12.852      421.288      262.461      165.167        0.252        0.042       61.705        7.085        0.013      332.600        1.370      873.697
01/14/2022  23:19:00      -41.038       35.632      -17.934       26.729       22.215       14.648      714.464      493.521      214.552        0.235        0.071       54.348       14.179        0.068      332.587        1.346      873.709
01/14/2022  23:20:00      -35.908       41.969      -10.676       20.301       18.614       15.408      412.122      346.463      237.403        0.208        0.050       55.234       12.617        0.052      332.545        1.277      873.706
01/14/2022  23:21:00      -12.792       62.532       -0.459       30.747       29.087       23.278      945.402      846.056      541.884        0.320        0.117       63.827       16.435        0.066      333.067        2.140      873.706
01/14/2022  23:22:00      -28.001       65.056       -9.350       24.002       39.320       21.828      576.078     1546.079      476.466        0.385        0.130       70.826        7.319        0.011      333.138        2.258      873.706
01/14/2022  23:23:00      -10.594       53.443       -9.512       26.285       32.607       14.524      690.901     1063.186      210.932        0.251        0.098       54.483       16.098        0.087      333.052        2.116      873.714
01/14/2022  23:24:00       -8.948       39.692       -5.985       17.113       24.972       11.936      292.841      623.618      142.480        0.137        0.053       40.688        8.694        0.046      332.917        1.892      873.715
01/14/2022  23:25:00      -25.988       41.827       -4.498       30.319       27.307       18.274      919.265      745.684      333.952        0.222        0.100       49.243       14.226        0.083      332.970        1.980      873.706
01/14/2022  23:26:00      -49.935       38.639      -12.341       24.271       18.596       13.928      589.072      345.830      193.995        0.263        0.056       63.138       13.890        0.048      332.724        1.574      873.689
01/14/2022  23:27:00      -38.628       59.736      -14.793       24.634       20.080       12.452      606.856      403.213      155.056        0.322        0.058       71.137        9.414        0.018      332.918        1.895      873.670
01/14/2022  23:28:00      -37.730       44.125      -15.753       26.087       18.434       14.018      680.532      339.794      196.512        0.242        0.061       58.057        4.852        0.007      332.734        1.591      873.650
01/14/2022  23:29:00      -21.240       55.750      -10.176       26.815       32.674       13.859      719.065     1067.575      192.078        0.282        0.099       59.659       10.132        0.029      332.928        1.909      873.647
01/14/2022  23:30:00      -14.092       59.672       -9.063       20.137       53.710       16.146      405.508     2884.716      260.685        0.370        0.178       61.314       15.323        0.062      332.921        1.899      873.655
01/14/2022  23:31:00        1.487       65.642       -9.000       38.187       50.241       22.685     1458.216     2524.122      514.631        0.444        0.225       65.659       17.202        0.069      333.183        2.331      873.663
01/14/2022  23:32:00       -7.152       25.308       -4.546       29.509       30.277       19.715      870.775      916.697      388.663        0.144        0.109       26.299       11.569        0.194      332.956        1.957      873.648
01/14/2022  23:33:00      -25.361       51.831      -11.774       34.448       30.880       20.299     1186.672      953.588      412.036        0.301        0.128       57.703       11.042        0.037      333.120        2.229      873.636
01/14/2022  23:34:00      -17.922       54.163       -3.768       30.352       29.511       19.401      921.236      870.919      376.401        0.272        0.108       57.051        4.900        0.007      332.998        2.028      873.626
01/14/2022  23:35:00       -5.113       78.918      -14.144       37.328       38.375       17.839     1393.408     1472.663      318.219        0.482        0.159       79.084       11.639        0.022      333.165        2.303      873.632
01/14/2022  23:36:00        1.405       33.298       -6.660       22.162       17.565       16.938      491.165      308.545      286.911        0.112        0.054       33.328       11.494        0.119      333.188        2.341      873.624
01/14/2022  23:37:00       -2.716       18.832       -5.285       18.532       13.831       14.540      343.447      191.305      211.414        0.057        0.037       19.027        9.558        0.252      333.205        2.368      873.623
01/14/2022  23:38:00        7.781       10.693       -7.634       15.249       13.762       12.446      232.525      189.382      154.891        0.040        0.029       13.225        8.886        0.451      333.173        2.314      873.616
01/14/2022  23:39:00      -18.382       11.172      -12.435       12.541       11.442        8.327      157.289      130.918       69.344        0.049        0.018       21.511        4.417        0.042      333.050        2.113      873.600
01/14/2022  23:40:00      -21.526       22.697      -11.128       33.162       21.960       13.669     1099.692      482.226      186.844        0.144        0.088       31.281       11.129        0.127      333.128        2.241      873.581
01/14/2022  23:41:00      -12.021       36.319      -15.455       26.344       22.170       12.618      694.028      491.517      159.214        0.152        0.067       38.257        8.365        0.048      333.231        2.412      873.557
01/14/2022  23:42:00       -3.111       56.506      -12.889       22.597       37.689       22.007      510.638     1420.477      484.330        0.289        0.121       56.591       15.687        0.077      333.290        2.509      873.550
01/14/2022  23:43:00       15.610       87.602      -13.316       35.300       29.902       20.776     1246.109      894.143      431.645        0.533        0.129       88.982       17.469        0.039      333.501        2.859      873.544
01/14/2022  23:44:00       17.038      103.500      -14.092       29.748       30.496       20.730      884.947      930.008      429.745        0.672        0.112      104.893       13.866        0.017      333.587        3.000      873.541
01/14/2022  23:45:00       39.172      105.948      -14.656       25.738       38.641       23.352      662.422     1493.115      545.336        0.784        0.135      112.958       12.857        0.013      333.672        3.142      873.542
01/14/2022  23:46:00       18.469       93.810      -17.404       32.343       40.356       25.006     1046.082     1628.619      625.318        0.637        0.165       95.611       23.354        0.060      333.567        2.968      873.527
01/14/2022  23:47:00       35.838      105.250      -13.573       30.589       45.224       29.900      935.709     2045.191      893.994        0.821        0.194      111.184       29.178        0.069      333.596        3.016      873.510
01/14/2022  23:48:00       41.566      123.816      -13.981       25.103       36.085       24.800      630.182     1302.120      615.039        0.990        0.127      130.606       16.603        0.016      333.732        3.241      873.488
01/14/2022  23:49:00       39.675      146.883      -18.091       23.265       21.188       20.839      541.266      448.913      434.275        1.245        0.071      152.147       15.383        0.010      333.639        3.087      873.472
01/14/2022  23:50:00       36.740      112.193       -2.609       25.132       33.430       22.388      631.601     1117.544      501.242        0.810        0.113      118.055       19.998        0.029      333.639        3.086      873.467
01/14/2022  23:51:00       43.439      126.689       -9.459       23.961       25.080       20.280      574.108      628.995      411.270        0.982        0.081      133.929       16.728        0.016      333.757        3.280      873.463
01/14/2022  23:52:00       35.345      110.339      -12.380       26.205       25.762       18.613      686.685      663.687      346.432        0.764        0.085      115.862       14.579        0.016      333.653        3.110      873.476
01/14/2022  23:53:00       36.037      115.461      -13.628       18.367       31.598       22.126      337.331      998.415      489.553        0.832        0.091      120.954       20.642        0.029      333.739        3.253      873.476
01/14/2022  23:54:00       35.932      122.667      -15.858       24.407       19.560       18.667      595.706      382.604      348.472        0.896        0.066      127.821       10.850        0.007      333.743        3.257      873.472
01/14/2022  23:55:00       32.703      102.623      -17.723       19.778       19.576       21.263      391.150      383.227      452.102        0.657        0.061      107.708        6.654        0.004      333.692        3.173      873.473
01/14/2022  23:56:00       27.593       98.510       -4.973       21.516       40.175       20.212      462.946     1614.007      408.521        0.649        0.124      102.301       19.434        0.036      333.689        3.169      873.477
01/14/2022  23:57:00       32.841      121.376      -11.463       16.714       22.348       21.015      279.362      499.444      441.610        0.858        0.061      125.741       15.374        0.015      333.796        3.346      873.484
01/14/2022  23:58:00       43.637      115.152       -9.111       23.754       25.098       17.218      564.239      629.912      296.467        0.837        0.075      123.143       10.897        0.008      333.779        3.318      873.480
01/14/2022  23:59:00       58.970      118.571      -10.517       32.670       22.502       17.649     1067.343      506.348      311.477        0.977        0.094      132.425       12.534        0.009      333.677        3.151      873.477
01/15/2022  00:00:00       75.231       96.353      -17.170       25.162       26.744       14.546      633.137      715.231      211.597        0.840        0.078      122.244       14.040        0.013      333.584        2.997      873.474
01/15/2022  00:01:00       75.292       91.840      -15.069       24.972       26.192       14.174      623.626      686.044      200.911        0.792        0.076      118.758       11.132        0.009      333.519        2.889      873.475
01/15/2022  00:02:00       76.780       67.988      -16.726       21.150       27.482       19.099      447.320      755.285      364.774        0.618        0.078      102.555       12.426        0.015      333.413        2.713      873.469
01/15/2022  00:03:00       74.800       79.549      -13.676       30.923       29.402       22.816      956.239      864.492      520.554        0.723        0.117      109.193       18.116        0.028      333.388        2.673      873.459
01/15/2022  00:04:00       58.499       70.740      -12.105       31.446       36.950       22.195      988.833     1365.302      492.626        0.571        0.142       91.795       18.623        0.041      333.341        2.594      873.446
01/15/2022  00:05:00       74.855       57.682       -5.605       35.868       20.721       18.361     1286.533      429.352      337.143        0.551        0.103       94.501        8.716        0.009      333.325        2.567      873.457
01/15/2022  00:06:00       80.544       51.532       -9.597       34.103       23.058       18.517     1163.017      531.678      342.885        0.564        0.102       95.619       13.667        0.020      333.317        2.554      873.457
01/15/2022  00:07:00       80.529       44.597       -9.934       22.699       20.259       13.720      515.256      410.408      188.240        0.484        0.056       92.053        6.732        0.005      333.311        2.544      873.453
01/15/2022  00:08:00      116.046       36.134       -9.111       23.169       19.596       16.240      536.822      383.988      263.726        0.802        0.059      121.542       10.973        0.008      333.363        2.630      873.444
01/15/2022  00:09:00      102.322       45.573       -4.004       35.604       28.201       14.150     1267.611      795.283      200.214        0.741        0.113      112.012       15.018        0.018      333.368        2.638      873.428
01/15/2022  00:10:00      100.277       23.641      -13.138       29.456       23.366       15.956      867.681      545.961      254.583        0.623        0.083      103.026       12.168        0.014      333.318        2.555      873.425
01/15/2022  00:11:00       95.845       26.082       -6.633       32.218       29.798       18.840     1037.968      887.932      354.953        0.610        0.114       99.330        9.631        0.009      333.261        2.462      873.425
01/15/2022  00:12:00       68.380       13.337       -9.219       55.085       37.395       17.157     3034.318     1398.402      294.367        0.483        0.236       69.668       15.590        0.050      333.282        2.495      873.430
01/15/2022  00:13:00       48.934       -7.902       -3.056       40.433       25.856       19.925     1634.823      668.517      396.998        0.258        0.135       49.568       11.114        0.050      333.177        2.322      873.432
01/15/2022  00:14:00       38.301      -12.290       -7.924       36.276       30.835       23.524     1315.977      950.782      553.372        0.225        0.141       40.225       14.310        0.127      333.119        2.225      873.430
01/15/2022  00:15:00       29.673       27.157        2.343       38.269       35.273       22.697     1464.521     1244.191      515.134        0.242        0.161       40.224        8.635        0.046      333.157        2.289      873.431
01/15/2022  00:16:00       26.842       16.257        2.223       29.942       42.637       31.679      896.551     1817.886     1003.568        0.235        0.186       31.382       16.122        0.264      333.206        2.369      873.433
01/15/2022  00:17:00       73.050      -20.353       -3.027       51.133       29.503       20.810     2614.548      870.411      433.054        0.484        0.196       75.832       16.086        0.045      333.118        2.226      873.429
01/15/2022  00:18:00       82.051      -10.139        1.767       47.010       21.899       22.776     2209.912      479.552      518.767        0.502        0.160       82.676       23.429        0.080      333.124        2.234      873.425
01/15/2022  00:19:00       93.261      -10.224       -7.264       52.502       23.291       25.342     2756.506      542.461      642.196        0.640        0.197       93.820       24.767        0.070      333.061        2.132      873.424
01/15/2022  00:20:00       75.361       -5.790        4.701       52.441       26.822       23.857     2750.026      719.419      569.176        0.489        0.202       75.583       26.891        0.127      333.022        2.066      873.419
01/15/2022  00:21:00       73.220       -0.822        0.579       37.237       25.046       24.433     1386.595      627.291      596.953        0.399        0.131       73.224       22.794        0.097      333.041        2.098      873.416
01/15/2022  00:22:00       53.590       -1.884        1.513       24.619       28.666       22.474      606.093      821.733      505.089        0.240        0.097       53.623       14.847        0.077      332.980        1.997      873.420
01/15/2022  00:23:00       80.857       -8.347       -3.386       31.641       24.497       20.665     1001.165      600.090      427.033        0.432        0.101       81.286       12.122        0.022      332.956        1.957      873.429
01/15/2022  00:24:00       82.769      -21.397      -11.662       26.120       31.571       22.605      682.238      996.752      510.984        0.482        0.109       85.490        9.671        0.013      332.923        1.903      873.440
01/15/2022  00:25:00       99.326      -11.658        0.550       52.713       34.416       27.501     2778.650     1184.466      756.328        0.736        0.236      100.008       24.694        0.061      332.889        1.846      873.447
01/15/2022  00:26:00      110.090        7.861       -2.515       60.011       29.544       23.213     3601.325      872.827      538.857        0.860        0.251      110.370       23.917        0.047      332.846        1.774      873.442
01/15/2022  00:27:00       77.257       -4.646       -7.914       50.075       40.319       29.472     2507.491     1625.655      868.605        0.553        0.250       77.397       24.290        0.098      332.860        1.799      873.442
01/15/2022  00:28:00       43.860       13.319        0.194       40.395       42.003       32.851     1631.771     1764.283     1079.218        0.329        0.224       45.837       19.179        0.175      332.983        2.000      873.446
01/15/2022  00:29:00      116.552      -17.556       -5.350       54.016       42.847       24.664     2917.757     1835.850      608.307        0.964        0.268      117.867       17.106        0.021      332.894        1.853      873.435
01/15/2022  00:30:00      136.079        8.694       -6.266       43.169       21.576       23.434     1863.587      465.506      549.136        1.075        0.144      136.356       21.371        0.025      332.753        1.622      873.424
01/15/2022  00:31:00      137.063        6.375      -13.164       21.646       25.354       19.308      468.529      642.849      372.810        1.024        0.074      137.211       13.291        0.009      332.726        1.576      873.421
01/15/2022  00:32:00       94.486       -0.246       -6.806       37.898       28.445       19.986     1436.242      809.143      399.459        0.581        0.132       94.486       17.467        0.034      332.683        1.506      873.413
01/15/2022  00:33:00       85.547      -12.501       -1.860       45.306       25.435       24.624     2052.595      646.937      606.335        0.539        0.165       86.456       22.625        0.068      332.691        1.519      873.404
01/15/2022  00:34:00      113.243      -14.690       -3.058       34.412       31.376       18.402     1184.188      984.484      338.638        0.778        0.125      114.192       17.106        0.022      332.690        1.517      873.395
01/15/2022  00:35:00       99.406        4.311       -3.506       43.323       33.660       25.095     1876.888     1133.022      629.736        0.678        0.182       99.500       20.754        0.044      332.595        1.360      873.387
01/15/2022  00:36:00      115.402       -7.436       -7.194       59.948       46.279       31.787     3593.784     2141.791     1010.431        1.008        0.337      115.641       25.150        0.047      332.626        1.411      873.383
01/15/2022  00:37:00      138.697       -7.542      -12.178       46.562       28.263       24.884     2168.029      798.806      619.236        1.151        0.179      138.902       21.963        0.025      332.629        1.415      873.389
01/15/2022  00:38:00      109.355       -8.382       -6.965       46.757       35.933       19.475     2186.259     1291.192      379.268        0.797        0.193      109.676       20.673        0.036      332.572        1.322      873.387
01/15/2022  00:39:00       87.247      -13.052      -10.666       51.323       35.040       22.601     2634.018     1227.808      510.785        0.613        0.219       88.218       26.255        0.089      332.588        1.349      873.394
01/15/2022  00:40:00       44.197       18.659      -10.474       40.514       36.334       28.950     1641.393     1320.161      838.074        0.310        0.190       47.975       17.917        0.139      332.696        1.528      873.401
01/15/2022  00:41:00       40.832       21.944       -5.630       34.165       38.029       24.706     1167.224     1446.211      610.365        0.270        0.161       46.355       13.905        0.090      332.539        1.267      873.400
01/15/2022  00:42:00       87.891        2.968       -2.587       39.855       26.792       18.420     1588.448      717.838      339.297        0.519        0.132       87.941       15.771        0.032      332.516        1.229      873.394
01/15/2022  00:43:00       88.375        1.105       -4.912       41.379       19.699       19.928     1712.206      388.041      397.127        0.517        0.125       88.382       17.847        0.041      332.530        1.253      873.389
01/15/2022  00:44:00       68.303        6.767       -8.304       33.900       32.105       19.217     1149.222     1030.741      369.279        0.366        0.127       68.638       12.955        0.036      332.512        1.222      873.388
01/15/2022  00:45:00       55.279        5.460       -1.548       45.577       24.446       18.029     2077.304      597.619      325.046        0.304        0.150       55.548       18.921        0.116      332.477        1.164      873.301
01/15/2022  00:46:00       41.256       15.778        4.273       35.380       30.049       22.663     1251.766      902.950      513.610        0.232        0.133       44.170       17.273        0.153      332.470        1.153      873.305
01/15/2022  00:47:00       33.455       -0.336       -7.541       34.436       29.323       19.518     1185.813      859.837      380.946        0.180        0.121       33.457       11.669        0.122      332.437        1.099      873.299
01/15/2022  00:48:00       31.843       10.470        0.163       26.303       27.260       20.854      691.868      743.119      434.881        0.150        0.093       33.520       15.975        0.227      332.404        1.044      873.283
01/15/2022  00:49:00       44.659      -10.350        1.269       32.546       22.633       18.635     1059.232      512.247      347.269        0.201        0.096       45.842       15.012        0.107      332.410        1.053      873.266
01/15/2022  00:50:00       45.441      -19.636       -9.499       30.027       23.757       20.119      901.636      564.411      404.771        0.221        0.094       49.502       12.024        0.059      332.409        1.052      873.252
01/15/2022  00:51:00       25.594      -14.859      -25.260       35.351       33.900       21.254     1249.666     1149.244      451.752        0.218        0.143       29.594       18.068        0.373      332.479        1.169      873.234
01/15/2022  00:52:00       21.114       -9.061      -23.202       23.397       26.025       20.979      547.414      677.298      440.125        0.137        0.083       22.976       11.112        0.234      332.481        1.171      873.218
01/15/2022  00:53:00       32.960      -10.048      -13.565       22.609       26.718       19.106      511.158      713.835      365.057        0.148        0.080       34.457       11.601        0.113      332.449        1.117      873.187
01/15/2022  00:54:00       25.397        1.092       -4.447       21.154       17.772       11.132      447.475      315.828      123.913        0.078        0.044       25.421        6.436        0.064      332.362        0.973      873.171
01/15/2022  00:55:00       59.011       12.032      -12.140       15.531       20.252       11.254      241.211      410.151      126.647        0.228        0.039       60.225        5.924        0.010      332.325        0.914      873.158
01/15/2022  00:56:00       47.867       -8.956       -7.236       21.852       21.655        9.920      477.505      468.928       98.408        0.173        0.052       48.698        9.479        0.038      332.323        0.909      873.137
01/15/2022  00:57:00       10.118       -5.695       -5.300       17.882       14.572       11.018      319.758      212.348      121.405        0.041        0.033       11.611        9.593        0.683      332.365        0.978      873.122
01/15/2022  00:58:00        4.750      -19.953      -13.197       11.393       13.925       10.064      129.796      193.914      101.286        0.051        0.021       20.511        8.377        0.167      332.394        1.027      873.114
01/15/2022  00:59:00       14.951       -6.661       -8.713       12.252        7.056        7.543      150.122       49.783       56.890        0.030        0.013       16.368        4.851        0.088      332.412        1.057      873.114
01/15/2022  01:00:00       35.708        8.583       -8.152       10.251       12.160        8.655      105.080      147.858       74.906        0.087        0.016       36.725        3.380        0.008      332.504        1.209      873.116
01/15/2022  01:01:00       27.091        8.373       -4.218       14.984       24.166       11.084      224.518      583.991      122.864        0.088        0.047       28.356       10.058        0.126      332.357        0.966      873.109
01/15/2022  01:02:00       42.058       19.596       -7.146       14.433       13.789        8.672      208.314      190.143       75.204        0.134        0.024       46.399        5.287        0.013      332.261        0.806      873.099
01/15/2022  01:03:00       37.215       27.779       -1.719       13.578       10.708        6.280      184.349      114.660       39.443        0.125        0.017       46.440        3.870        0.007      332.245        0.781      873.078
01/15/2022  01:04:00       32.380       18.511       -2.745       16.154       23.505        8.528      260.967      552.477       72.727        0.114        0.044       37.298        8.908        0.057      332.329        0.920      873.060
01/15/2022  01:05:00       18.308       10.987       -9.428       11.481       10.796        7.075      131.807      116.558       50.057        0.042        0.015       21.351        4.636        0.047      332.299        0.870      873.041
01/15/2022  01:06:00       27.035       11.764       -7.660       16.288       13.459        7.740      265.313      181.144       59.902        0.072        0.025       29.483        7.244        0.060      332.304        0.878      873.032
01/15/2022  01:07:00       29.944        9.280       -6.010       17.057       19.153       12.755      290.947      366.833      162.694        0.092        0.041       31.349       12.863        0.168      332.441        1.106      873.033
01/15/2022  01:08:00       12.837      -14.657      -17.616       12.112       14.821        9.762      146.702      219.674       95.299        0.058        0.023       19.484        5.211        0.072      332.430        1.088      873.021
01/15/2022  01:09:00       25.679       11.808       -4.948       10.945        9.789       10.330      119.796       95.819      106.708        0.057        0.016       28.264        3.338        0.014      332.343        0.943      873.020
01/15/2022  01:10:00        3.852        7.632       -7.789       11.908        8.411        9.334      141.811       70.744       87.127        0.022        0.015        8.549        8.038        0.884      332.333        0.927      873.011
01/15/2022  01:11:00      -21.498       15.940       -7.070       27.026       14.137        8.057      730.383      199.867       64.921        0.088        0.050       26.763        8.660        0.105      332.332        0.927      873.015
01/15/2022  01:12:00      -23.282       37.096      -14.572       16.476       12.376        9.981      271.445      153.163       99.626        0.133        0.026       43.797        6.023        0.019      332.264        0.813      873.012
01/15/2022  01:13:00      -10.451       32.026      -10.907       18.573       10.826        5.934      344.949      117.212       35.210        0.088        0.025       33.688        6.323        0.035      332.284        0.845      873.012
01/15/2022  01:14:00       -2.621       17.801      -10.157        9.303        9.606        5.927       86.550       92.279       35.131        0.032        0.011       17.993        4.356        0.059      332.256        0.800      873.014
01/15/2022  01:15:00        8.884       14.415       -6.947       11.755        8.708       11.485      138.180       75.823      131.908        0.034        0.017       16.932        7.959        0.221      332.293        0.861      873.012
01/15/2022  01:16:00        6.548        1.117       -1.173        6.558       12.639       10.848       43.010      159.745      117.673        0.018        0.016        6.643        7.101        1.143      332.219        0.739      873.026
01/15/2022  01:17:00      -59.070      -15.004      -13.706       48.127       26.422       23.402     2316.184      698.098      547.635        0.373        0.178       60.946       20.307        0.111      332.142        0.612      873.037
01/15/2022  01:18:00      -52.354       -0.469        1.154       38.956       33.202       24.359     1517.537     1102.364      593.377        0.298        0.161       52.357       24.819        0.225      332.157        0.636      873.042
01/15/2022  01:19:00     -108.839       33.976        0.922       42.277       28.870       27.423     1787.319      833.485      752.033        0.819        0.169      114.019       24.080        0.045      332.154        0.631      873.056
01/15/2022  01:20:00     -124.831       27.310       -0.342       45.542       35.287       26.782     2074.073     1245.139      717.257        1.018        0.202      127.783       14.911        0.014      332.098        0.539      873.051
01/15/2022  01:21:00     -105.614       21.256      -11.735       49.923       27.578       23.353     2492.306      760.566      545.345        0.777        0.190      107.732       19.453        0.033      332.130        0.591      873.043
01/15/2022  01:22:00      -88.293       24.559       -3.474       49.584       34.569       24.899     2458.572     1195.050      619.976        0.634        0.214       91.645       16.614        0.033      332.162        0.644      873.034
01/15/2022  01:23:00     -117.939       45.638       -8.779       28.367       29.198       18.842      804.700      852.509      355.035        0.904        0.101      126.462       14.781        0.014      332.069        0.493      873.031
01/15/2022  01:24:00     -137.179       70.472      -15.988       31.173       24.788       21.582      971.764      614.453      465.781        1.305        0.103      154.222       15.767        0.010      332.111        0.561      873.024
01/15/2022  01:25:00     -140.571       41.386      -12.293       41.576       42.202       24.014     1728.527     1781.050      576.676        1.285        0.204      146.537       11.258        0.006      332.079        0.509      873.023
01/15/2022  01:26:00      -96.790       24.288       -8.847       68.390       33.657       23.084     4677.177     1132.802      532.867        0.819        0.317       99.791       29.462        0.087      332.076        0.504      873.020
01/15/2022  01:27:00      -84.234       18.018       -5.567       46.398       28.568       31.181     2152.800      816.105      972.285        0.570        0.197       86.139       27.428        0.101      332.056        0.469      873.029
01/15/2022  01:28:00      -96.799       30.861       -3.574       44.277       23.501       27.167     1960.445      552.278      738.037        0.679        0.163      101.599       24.441        0.058      332.027        0.423      873.044
01/15/2022  01:29:00      -52.286        7.749       -8.703       36.209       23.872       20.389     1311.110      569.852      415.695        0.258        0.115       52.857       17.282        0.107      332.040        0.445      873.050
01/15/2022  01:30:00      -85.230       25.026      -12.404       44.886       29.827       26.657     2014.772      889.621      710.575        0.583        0.181       88.828       25.063        0.080      332.079        0.507      873.031
01/15/2022  01:31:00      -92.353       22.400       -2.269       38.089       27.490       22.619     1450.745      755.705      511.632        0.588        0.136       95.030       19.190        0.041      331.953        0.301      873.020
01/15/2022  01:32:00      -65.304        5.104        2.406       37.376       23.082       22.533     1396.944      532.792      507.720        0.337        0.122       65.504       20.618        0.099      332.082        0.514      873.017
01/15/2022  01:33:00      -82.327       12.035       -2.788       42.650       24.867       20.641     1818.997      618.368      426.051        0.490        0.143       83.202       19.436        0.055      332.172        0.661      872.999
01/15/2022  01:34:00     -101.530        8.143       -4.257       37.046       27.567       16.422     1372.378      759.955      269.668        0.640        0.120      101.856       15.673        0.024      332.277        0.835      872.986
01/15/2022  01:35:00      -90.893       15.408        1.009       25.767       19.063       15.424      663.961      363.379      237.895        0.488        0.063       92.190       12.993        0.020      332.263        0.811      872.974
01/15/2022  01:36:00      -96.315       16.876       -4.253       21.885       22.650       13.727      478.947      513.015      188.433        0.538        0.059       97.782       10.142        0.011      332.287        0.851      872.966
01/15/2022  01:37:00      -76.238       38.450      -12.399       17.521       18.344       11.902      306.989      336.507      141.662        0.411        0.039       85.385        9.303        0.012      332.189        0.690      872.949
01/15/2022  01:38:00      -64.584       18.181       -7.281       31.781       23.642       17.109     1010.042      558.937      292.715        0.321        0.093       67.094       14.442        0.046      332.278        0.835      872.933
01/15/2022  01:39:00      -63.894       20.802      -13.677       31.569       20.281       17.072      996.590      411.330      291.460        0.320        0.085       67.195       11.470        0.029      332.285        0.849      872.941
01/15/2022  01:40:00      -38.972       13.796      -12.851       20.526       18.662       12.433      421.331      348.260      154.579        0.140        0.046       41.342       10.208        0.061      332.258        0.804      872.954
01/15/2022  01:41:00       -5.678       -0.153       -1.680       24.805       17.426       18.783      615.271      303.680      352.814        0.065        0.064        5.680       17.008        8.966      332.186        0.684      872.966
01/15/2022  01:42:00      -17.379        8.417       -1.527       46.196       16.085       19.157     2134.038      258.721      366.996        0.157        0.138       19.310       20.160        1.090      332.083        0.514      872.978
01/15/2022  01:43:00      -32.937      -13.215      -10.234       29.891       24.723       16.361      893.489      611.251      267.682        0.157        0.089       35.489       16.812        0.224      332.118        0.571      872.990
01/15/2022  01:44:00        8.214      -13.545       -1.011       15.177       17.483       18.934      230.349      305.641      358.482        0.057        0.045       15.841        8.261        0.272      332.061        0.478      873.003
01/15/2022  01:45:00      -14.234        6.211      -17.780       35.908       21.504       15.436     1289.417      462.435      238.268        0.127        0.100       15.530        8.735        0.316      332.028        0.423      873.011
01/15/2022  01:46:00     -111.528       10.367      -18.441       31.802       23.973       17.061     1011.391      574.707      291.073        0.738        0.094      112.009        6.332        0.003      331.969        0.326      873.006
01/15/2022  01:47:00      -92.609       12.122       -2.219       43.608       34.433       23.670     1901.672     1185.616      560.245        0.619        0.182       93.399       23.050        0.061      331.938        0.276      873.009
01/15/2022  01:48:00     -103.387       17.937       -4.758       42.810       39.306       26.583     1832.681     1544.971      706.640        0.756        0.204      104.932       19.085        0.033      331.777        0.011      873.006
01/15/2022  01:49:00     -114.112       31.215      -24.905       45.074       22.990       23.784     2031.685      528.520      565.695        0.887        0.156      118.304       10.188        0.007      331.820        0.081      873.014
01/15/2022  01:50:00     -110.973       28.636      -22.155       31.450       20.820       21.768      989.076      433.480      473.834        0.776        0.095      114.608       12.250        0.011      331.798        0.046      873.019
01/15/2022  01:51:00      -80.393       42.222      -14.529       38.289       24.379       24.770     1466.077      594.322      613.576        0.556        0.134       90.806       18.497        0.041      331.852        0.135      873.011
01/15/2022  01:52:00      -75.029       47.858       -7.642       39.704       27.766       15.792     1576.369      770.968      249.388        0.529        0.130       88.994       18.588        0.044      331.928        0.261      873.009
01/15/2022  01:53:00      -48.897        6.990       -4.492       32.688       29.124       19.370     1068.521      848.218      375.195        0.238        0.115       49.394       13.657        0.076      331.954        0.302      873.010
01/15/2022  01:54:00       -8.340        6.763       -1.467       27.663       21.707       22.660      765.251      471.185      513.453        0.093        0.087       10.737       14.995        1.950      331.921        0.248      872.999
01/15/2022  01:55:00        0.948      -15.339       -3.777       17.796       18.872       13.962      316.689      356.153      194.931        0.056        0.043       15.368        8.386        0.298      331.980        0.344      872.995
01/15/2022  01:56:00        0.277      -12.130       -4.936       15.311       24.489       14.318      234.436      599.691      205.009        0.061        0.052       12.134        7.384        0.370      331.974        0.335      873.003
01/15/2022  01:57:00      -13.888      -18.338      -15.114       17.760       19.544       13.596      315.434      381.950      184.847        0.082        0.044       23.003        9.047        0.155      331.912        0.234      873.017
01/15/2022  01:58:00      -13.926      -39.157      -13.602       12.730       16.187        8.950      162.060      262.014       80.109        0.121        0.025       41.559        4.175        0.010      331.834        0.106      873.018
01/15/2022  01:59:00      -14.268      -24.917      -11.174       11.554       11.675       14.364      133.492      136.311      206.311        0.071        0.024       28.713        9.127        0.101      331.898        0.212      873.011
01/15/2022  02:00:00      -12.094      -13.511      -13.289       12.571       18.423       11.371      158.034      339.405      129.303        0.057        0.031       18.134        6.438        0.126      332.044        0.451      873.007
01/15/2022  02:01:00       20.755      -32.439      -16.456       20.019       13.737        8.643      400.754      188.703       74.705        0.121        0.033       38.510        7.073        0.034      332.101        0.542      873.013
01/15/2022  02:02:00       43.710      -38.006      -12.211       23.189       18.742       16.090      537.730      351.245      258.888        0.233        0.057       57.923       13.996        0.058      332.110        0.561      873.014
01/15/2022  02:03:00       34.292      -43.895      -17.158       18.812       26.159       16.137      353.903      684.308      260.393        0.235        0.065       55.702       15.160        0.074      332.166        0.651      873.016
01/15/2022  02:04:00        8.342      -58.807      -20.083       24.977       30.560       19.306      623.843      933.937      372.710        0.293        0.097       59.396       17.601        0.088      332.235        0.766      873.030
01/15/2022  02:05:00       20.479      -19.405      -18.990       27.002       23.351       19.934      729.108      545.279      397.374        0.141        0.084       28.213       15.709        0.310      332.216        0.732      873.061
01/15/2022  02:06:00       14.952      -10.554       -6.517       21.878       18.101       13.390      478.632      327.647      179.293        0.068        0.049       18.301        3.021        0.027      332.106        0.551      873.074
01/15/2022  02:07:00      -23.030        3.793       -3.428       11.248       18.063        8.923      126.515      326.264       79.621        0.054        0.027       23.341        7.636        0.107      332.101        0.545      873.076
01/15/2022  02:08:00      -38.257       27.183      -11.046       13.006       12.001       10.707      169.158      144.028      114.631        0.138        0.021       46.931        2.784        0.004      332.058        0.475      873.073
01/15/2022  02:09:00      -37.237        5.337       -6.226       29.050       24.740       14.748      843.901      612.051      217.497        0.156        0.084       37.618       11.550        0.094      331.938        0.277      873.076
01/15/2022  02:10:00      -25.883        1.261       -3.143       20.685       21.353       10.669      427.880      455.956      113.818        0.084        0.050       25.914       12.111        0.218      331.873        0.171      873.083
01/15/2022  02:11:00      -10.144        4.800        0.067       14.212       10.962        7.915      201.986      120.175       62.647        0.026        0.019       11.222        7.321        0.426      331.887        0.194      873.092
01/15/2022  02:12:00       -6.805       -5.470       -3.479        9.594        9.922        7.469       92.048       98.440       55.784        0.017        0.012        8.731        4.886        0.313      332.003        0.382      873.100
01/15/2022  02:13:00       -5.399        4.961       -1.980        6.515        8.203        9.065       42.450       67.284       82.166        0.012        0.010        7.332        6.882        0.881      331.938        0.278      873.108
01/15/2022  02:14:00        5.750       15.256       -1.868        7.687        8.500        5.058       59.084       72.256       25.585        0.021        0.008       16.304        2.337        0.021      331.954        0.301      873.095
01/15/2022  02:15:00       13.261       20.065       -6.165        7.106        9.820        5.358       50.491       96.428       28.707        0.040        0.009       24.051        3.340        0.019      331.988        0.359      873.077
01/15/2022  02:16:00       22.350       34.450       -3.669       10.147        7.056        4.915      102.967       49.783       24.154        0.094        0.009       41.065        2.124        0.003      332.085        0.517      873.064
01/15/2022  02:17:00       28.366       35.542       -7.350        5.394        6.840        4.139       29.096       46.783       17.133        0.111        0.005       45.474        0.834        0.000      332.091        0.526      873.059
01/15/2022  02:18:00       28.718       21.544       -5.426        7.602        7.393        5.817       57.787       54.657       33.837        0.073        0.007       35.900        2.641        0.005      332.050        0.463      873.065
01/15/2022  02:19:00       19.234       16.634       -8.542       15.084       15.057       12.454      227.527      226.703      155.099        0.066        0.030       25.429        5.265        0.043      331.858        0.145      873.071
01/15/2022  02:20:00       28.644       -1.952      -10.880        9.584       13.129        6.555       91.848      172.359       42.972        0.062        0.015       28.710        4.374        0.023      331.626       -0.238      873.062
01/15/2022  02:21:00       45.192       32.517       -7.757        7.590        6.692        4.924       57.611       44.784       24.243        0.164        0.006       55.675        1.780        0.001      331.684       -0.141      873.053
01/15/2022  02:22:00       34.633       33.228       -7.422        5.852        4.377        5.090       34.251       19.157       25.907        0.122        0.004       47.995        1.437        0.001      331.942        0.282      873.035
01/15/2022  02:23:00       29.218       31.112       -6.039        3.134        3.302        3.030        9.821       10.905        9.182        0.094        0.001       42.681        1.718        0.002      332.178        0.668      873.023
01/15/2022  02:24:00       41.932       19.865       -2.966        6.004        5.557        2.118       36.048       30.877        4.484        0.112        0.004       46.400        0.663        0.000      332.282        0.843      873.002
01/15/2022  02:25:00       23.691        8.102       -3.076       15.621        9.324        6.515      244.019       86.938       42.442        0.050        0.019       25.038        3.949        0.025      332.194        0.697      872.999
01/15/2022  02:26:00        3.678      -16.846      -12.007       13.284       12.213        7.616      176.457      149.146       58.003        0.041        0.019       17.243        7.469        0.188      332.087        0.521      872.992
01/15/2022  02:27:00       11.032      -26.066      -15.762       12.059        7.177        6.823      145.415       51.504       46.553        0.065        0.012       28.304        6.151        0.047      331.953        0.302      872.995
01/15/2022  02:28:00       -3.595      -18.332       -5.315       14.299        8.106        8.544      204.460       65.700       73.002        0.036        0.017       18.682        5.959        0.102      332.004        0.386      872.991
01/15/2022  02:29:00       -9.972       -3.335       -5.340        9.624       15.811        7.042       92.616      249.995       49.585        0.027        0.020       10.515        4.572        0.189      332.080        0.508      872.990
01/15/2022  02:30:00       -1.511       10.261        1.043        6.448        6.967        5.395       41.577       48.533       29.106        0.011        0.006       10.372        3.144        0.092      332.053        0.464      872.983
01/15/2022  02:31:00      -11.223       -0.729       -1.596       10.892        9.452        5.435      118.644       89.338       29.540        0.018        0.012       11.246        3.923        0.122      331.990        0.360      872.973
01/15/2022  02:32:00      -48.025       16.712      -12.428       23.206       16.367       10.520      538.539      267.882      110.681        0.183        0.046       50.850        3.263        0.004      331.803        0.054      872.976
01/15/2022  02:33:00      -67.496       33.177       -8.138       19.747       14.352       10.793      389.941      205.983      116.491        0.322        0.036       75.209       10.682        0.020      331.707       -0.104      872.970
01/15/2022  02:34:00      -66.217       18.446       -9.118       21.357       14.438       10.553      456.117      208.457      111.362        0.279        0.039       68.738        8.986        0.017      331.750       -0.032      872.956
01/15/2022  02:35:00      -27.648       15.282       -9.318       13.395       18.209        9.206      179.432      331.562       84.742        0.084        0.030       31.590        7.339        0.054      331.706       -0.105      872.944
01/15/2022  02:36:00      -21.329       14.590       -8.055       11.661       10.178        7.406      135.969      103.589       54.845        0.051        0.015       25.842        4.791        0.034      331.791        0.034      872.929
01/15/2022  02:37:00      -33.357       12.751      -11.930       16.659       17.210       12.963      277.513      296.188      168.042        0.108        0.037       35.711        5.611        0.025      331.850        0.131      872.917
01/15/2022  02:38:00      -39.567       14.012       -8.510       43.454       15.389       14.882     1888.248      236.835      221.464        0.209        0.117       41.975       18.366        0.191      331.659       -0.182      872.904
01/15/2022  02:39:00      -79.047       29.396      -11.699       15.890       15.117       11.372      252.501      228.533      129.327        0.393        0.031       84.335        7.505        0.008      331.556       -0.352      872.890
01/15/2022  02:40:00      -62.310       28.716       -5.952       19.806       16.088       11.977      392.274      258.814      143.448        0.277        0.040       68.609       10.320        0.023      331.598       -0.284      872.889
01/15/2022  02:41:00      -25.847       12.806      -11.700       14.966       10.418       13.774      223.979      108.544      189.724        0.075        0.026       28.845       10.914        0.143      331.660       -0.180      872.892
01/15/2022  02:42:00      -24.751       28.346       -8.661       16.275       10.152        6.705      264.890      103.064       44.964        0.095        0.021       37.631        3.468        0.008      331.766       -0.007      872.889
01/15/2022  02:43:00      -30.538       18.350      -15.500       16.102       20.235       13.289      259.263      409.474      176.592        0.118        0.042       35.628       12.044        0.114      331.766       -0.007      872.891
01/15/2022  02:44:00      -22.461        7.112       -4.851       18.803       18.276       15.220      353.562      334.008      231.658        0.075        0.046       23.560       11.133        0.223      331.676       -0.154      872.895
01/15/2022  02:45:00      -52.243       18.029       -9.354       41.393       21.007       12.053     1713.356      441.312      145.285        0.272        0.115       55.267       18.101        0.107      331.636       -0.221      872.894
01/15/2022  02:46:00     -107.766       54.380      -14.063       21.391       16.970       14.268      457.585      287.967      203.568        0.786        0.047      120.709       10.211        0.007      331.648       -0.201      872.879
01/15/2022  02:47:00      -80.417       28.555      -14.088       24.510       18.212       18.163      600.737      331.661      329.886        0.437        0.063       85.336        9.819        0.013      331.639       -0.217      872.869
01/15/2022  02:48:00      -76.404       20.093      -18.645       26.504       13.356       12.154      702.477      178.392      147.725        0.381        0.051       79.002        6.785        0.007      331.746       -0.040      872.872
01/15/2022  02:49:00      -10.683        5.508        2.122       17.731       24.356       13.352      314.376      593.232      178.285        0.062        0.054       12.019        5.548        0.213      331.666       -0.172      872.872
01/15/2022  02:50:00      -11.513      -42.992      -34.656       31.400       20.353       19.359      985.932      414.245      374.771        0.248        0.089       44.507        8.433        0.036      331.889        0.196      872.888
01/15/2022  02:51:00       52.523        9.155      -10.760       39.882       49.005       22.188     1590.570     2401.532      492.303        0.372        0.224       53.315       17.335        0.106      331.878        0.177      872.874
01/15/2022  02:52:00       -0.319       21.524        1.290       30.390       18.038       21.622      923.565      325.365      467.527        0.109        0.086       21.527        8.338        0.150      331.940        0.280      872.824
01/15/2022  02:53:00      -14.703       66.633       -5.451       14.309       29.340        9.884      204.750      860.835       97.693        0.292        0.058       68.235        7.944        0.014      331.937        0.276      872.789
01/15/2022  02:54:00      -14.088      103.332      -11.609       11.649       13.242        7.256      135.708      175.340       52.648        0.569        0.018      104.288        4.367        0.002      332.036        0.437      872.783
01/15/2022  02:55:00        7.846       28.616       -5.786       22.991       28.884       12.413      528.600      834.291      154.087        0.122        0.076       29.672       12.179        0.168      331.925        0.255      872.792
01/15/2022  02:56:00        7.236      -33.930      -25.940       26.305       43.982       15.595      691.953     1934.398      243.189        0.237        0.143       34.693        8.877        0.065      331.942        0.284      872.815
01/15/2022  02:57:00        5.176       -6.199      -16.013       16.282       22.186       13.022      265.098      492.211      169.560        0.062        0.046        8.076       11.527        2.037      331.929        0.261      872.826
01/15/2022  02:58:00      -26.930       23.363       -1.827       30.999       17.295       11.905      960.942      299.120      141.726        0.134        0.070       35.652        9.749        0.075      331.826        0.093      872.812
01/15/2022  02:59:00      -48.331       10.948       -7.575       20.726       20.739       13.129      429.576      430.110      172.365        0.177        0.052       49.555        3.512        0.005      331.840        0.115      872.804
01/15/2022  03:00:00      -51.664       46.722      -10.380       11.784        8.924        9.113      138.871       79.634       83.046        0.263        0.015       69.657        6.098        0.008      331.956        0.307      872.796
01/15/2022  03:01:00      -22.111       37.052       -5.974       15.396       17.524        7.361      237.047      307.081       54.178        0.125        0.030       43.148        8.346        0.037      331.969        0.328      872.794
01/15/2022  03:02:00       -4.332        1.282       -3.977        9.217       15.880        5.585       84.955      252.159       31.191        0.020        0.018        4.518        4.058        0.807      331.997        0.374      872.797
01/15/2022  03:03:00       -5.628      -15.860       -8.611       23.913       15.611       10.676      571.830      243.696      113.981        0.064        0.046       16.829        7.033        0.175      332.061        0.478      872.804
01/15/2022  03:04:00      -38.754       15.506      -11.710       41.142       19.832       20.567     1692.688      393.317      422.996        0.219        0.125       41.741       21.588        0.267      331.775        0.008      872.801
01/15/2022  03:05:00      -33.293       -2.352       -8.986       44.244       19.081       19.781     1957.556      364.068      391.295        0.195        0.136       33.376       12.468        0.140      331.730       -0.066      872.802
01/15/2022  03:06:00      -71.579       -4.112      -10.574       53.228       34.773       25.436     2833.175     1209.176      646.986        0.497        0.234       71.697       27.867        0.151      331.641       -0.213      872.793
01/15/2022  03:07:00     -109.242       36.496       -6.204       56.935       33.146       24.281     3241.639     1098.677      589.555        0.912        0.246      115.177       20.659        0.032      331.537       -0.384      872.771
01/15/2022  03:08:00      -96.936       18.017       -3.937       38.752       30.323       19.660     1501.691      919.488      386.499        0.627        0.140       98.597       12.746        0.017      331.463       -0.508      872.758
01/15/2022  03:09:00      -50.080        5.879       -9.148       35.320       23.697       20.950     1247.483      561.540      438.911        0.244        0.112       50.424       13.671        0.074      331.485       -0.469      872.761
01/15/2022  03:10:00      -40.616       -1.148      -11.394       32.853       20.942       19.750     1079.323      438.560      390.057        0.184        0.095       40.632       17.362        0.183      331.521       -0.412      872.763
01/15/2022  03:11:00        0.272        0.843        3.206       28.954       24.201       23.334      838.310      585.688      544.464        0.099        0.098        0.885       10.546      141.905      331.431       -0.560      872.776
01/15/2022  03:12:00      -74.989        4.098       -5.286       55.244       19.329       18.385     3051.885      373.604      338.022        0.472        0.188       75.101       19.108        0.065      331.381       -0.641      872.768
01/15/2022  03:13:00      -33.583       -3.139       -3.246       35.732       24.966       23.943     1276.804      623.281      573.270        0.181        0.124       33.730       17.640        0.274      331.344       -0.703      872.756
01/15/2022  03:14:00      -36.167       26.433       -8.329       24.969       24.341       17.711      623.475      592.488      313.696        0.180        0.076       44.797       10.531        0.055      331.404       -0.603      872.746
01/15/2022  03:15:00      -63.389       22.586      -19.147       10.488       11.456       13.085      109.991      131.233      171.208        0.265        0.021       67.293        6.709        0.010      331.423       -0.572      872.747
01/15/2022  03:16:00      -72.285       28.479      -11.872       19.840       18.678       13.482      393.628      348.864      181.776        0.355        0.046       77.693        7.546        0.009      331.393       -0.621      872.736
01/15/2022  03:17:00      -80.718       50.864      -18.247       16.645       20.770       10.347      277.063      431.390      107.059        0.513        0.041       95.407        6.207        0.004      331.346       -0.699      872.723
01/15/2022  03:18:00      -39.647       12.438      -13.123       26.905       15.816       15.393      723.853      250.157      236.931        0.155        0.061       41.552       15.047        0.131      331.385       -0.635      872.714
01/15/2022  03:19:00      -21.989        7.183       -3.808       24.932       14.504       10.009      621.594      210.374      100.180        0.074        0.047       23.133        6.662        0.083      331.394       -0.619      872.719
01/15/2022  03:20:00      -59.064       13.661      -19.021       18.331       11.006       12.018      336.015      121.128      144.438        0.232        0.030       60.623        7.039        0.013      331.497       -0.451      872.721
01/15/2022  03:21:00      -54.700       -0.551      -20.035       30.613       26.740       18.755      937.156      715.018      351.758        0.270        0.100       54.703       19.748        0.130      331.398       -0.614      872.720
01/15/2022  03:22:00      -44.890        8.754       -9.845       27.298       23.162       15.216      745.194      536.492      231.522        0.185        0.076       45.736       14.798        0.105      331.359       -0.677      872.707
01/15/2022  03:23:00      -61.428       14.473      -13.426       23.449       19.573       16.071      549.849      383.099      258.273        0.268        0.060       63.111       10.304        0.027      331.343       -0.704      872.701
01/15/2022  03:24:00      -80.141       16.085      -15.301       13.308       13.048        7.938      177.111      170.263       63.007        0.366        0.021       81.739        6.340        0.006      331.322       -0.737      872.698
01/15/2022  03:25:00      -61.170        4.439      -14.826       18.030       17.047       11.680      325.074      290.600      136.432        0.237        0.038       61.331        6.140        0.010      331.350       -0.691      872.692
01/15/2022  03:26:00      -76.095       24.985      -17.077        9.835        7.914        8.553       96.732       62.624       73.146        0.347        0.012       80.091        4.089        0.003      331.313       -0.751      872.680
01/15/2022  03:27:00      -60.140       14.929      -19.369        7.021        5.804        6.865       49.289       33.682       47.126        0.217        0.007       61.966        3.352        0.003      331.348       -0.695      872.679
01/15/2022  03:28:00      -56.268       25.179      -12.711        8.869        7.040        6.782       78.659       49.568       45.991        0.207        0.009       61.645        2.741        0.002      331.389       -0.628      872.668
01/15/2022  03:29:00      -50.995       23.424      -15.047       12.689       10.512       10.007      161.000      110.505      100.149        0.187        0.019       56.118        5.997        0.011      331.369       -0.660      872.678
01/15/2022  03:30:00      -68.101       12.350      -18.137       11.454       10.162       10.197      131.203      103.259      103.981        0.273        0.017       69.212        4.354        0.004      331.501       -0.445      872.684
01/15/2022  03:31:00      -63.536       12.895      -12.792       16.077       12.597       11.705      258.463      158.676      137.013        0.246        0.028       64.831        6.800        0.011      331.414       -0.587      872.683
01/15/2022  03:32:00      -74.145       15.108      -22.894       26.800       17.463       12.728      718.234      304.951      162.015        0.372        0.059       75.669        9.001        0.014      331.367       -0.663      872.677
01/15/2022  03:33:00      -62.912        8.773      -21.988       30.083       25.790       19.075      905.001      665.126      363.854        0.323        0.097       63.520        7.688        0.015      331.308       -0.761      872.669
01/15/2022  03:34:00      -96.858       30.630      -19.755       24.648       24.777       13.473      607.508      613.896      181.520        0.606        0.070      101.586        8.427        0.007      331.233       -0.884      872.685
01/15/2022  03:35:00     -113.901       35.793      -19.248       32.862       26.408       16.539     1079.892      697.359      273.524        0.834        0.103      119.393        9.817        0.007      331.141       -1.034      872.691
01/15/2022  03:36:00     -109.230       25.396       -9.804       51.210       40.177       25.094     2622.460     1614.181      629.693        0.877        0.243      112.143       17.827        0.025      331.218       -0.907      872.702
01/15/2022  03:37:00     -116.621       29.076       -6.903       35.065       31.160       21.662     1229.534      970.945      469.235        0.858        0.133      120.191       19.546        0.026      331.240       -0.872      872.707
01/15/2022  03:38:00      -79.398       15.581       -5.072       44.836       30.916       20.726     2010.226      955.816      429.565        0.498        0.170       80.912       22.880        0.080      331.236       -0.879      872.697
01/15/2022  03:39:00      -54.836       -0.923       -0.811       45.071       28.320       28.571     2031.371      802.029      816.317        0.333        0.182       54.843       20.942        0.146      331.219       -0.907      872.697
01/15/2022  03:40:00      -90.071        7.083        1.380       42.996       27.375       20.516     1848.677      749.399      420.915        0.559        0.151       90.349       13.139        0.021      331.354       -0.685      872.688
01/15/2022  03:41:00     -102.710       19.905       -3.118       53.859       32.911       25.719     2900.771     1083.105      661.459        0.780        0.232      104.621       22.805        0.048      331.416       -0.585      872.681
01/15/2022  03:42:00      -69.132       11.301       -7.605       39.596       27.535       16.849     1567.819      758.178      283.906        0.379        0.130       70.049       10.991        0.025      331.419       -0.578      872.683
01/15/2022  03:43:00      -86.675       12.568      -16.718       20.567       21.927       20.195      423.012      480.779      407.842        0.463        0.066       87.581       14.376        0.027      331.374       -0.651      872.682
01/15/2022  03:44:00     -103.187       36.876      -14.766       32.734       30.751       24.244     1071.501      945.635      587.765        0.741        0.130      109.578       15.985        0.021      331.359       -0.676      872.686
01/15/2022  03:45:00     -131.010       42.140       -8.929       47.446       34.569       24.464     2251.164     1195.040      598.501        1.153        0.202      137.620       17.375        0.016      331.335       -0.715      872.689
01/15/2022  03:46:00     -160.208       68.021       -6.064       39.394       26.146       23.903     1551.858      683.639      571.345        1.657        0.140      174.050       14.752        0.007      331.337       -0.712      872.687
01/15/2022  03:47:00     -130.008       51.809       -5.850       64.025       40.421       30.328     4099.218     1633.862      919.780        1.314        0.333      139.951       27.495        0.039      331.302       -0.770      872.697
01/15/2022  03:48:00      -86.491       42.177       -7.279       66.380       38.759       26.740     4406.250     1502.254      715.034        0.797        0.331       96.227       26.114        0.074      331.278       -0.810      872.700
01/15/2022  03:49:00     -116.204       36.319        0.698       75.655       34.321       29.602     5723.727     1177.913      876.306        1.130        0.389      121.747       38.428        0.100      331.262       -0.835      872.689
01/15/2022  03:50:00     -161.628       34.224      -17.196       39.941       33.780       19.992     1595.295     1141.116      399.670        1.536        0.157      165.212       17.744        0.012      331.289       -0.792      872.701
01/15/2022  03:51:00      -73.420        3.630       -7.296       49.951       32.866       24.176     2495.133     1080.156      584.479        0.481        0.208       73.510       18.816        0.066      331.384       -0.636      872.711
01/15/2022  03:52:00       -7.815        3.406       -9.535       33.853       28.262       19.069     1146.052      798.724      363.620        0.124        0.115        8.525       14.217        2.781      331.412       -0.591      872.709
01/15/2022  03:53:00      -20.682       -1.142      -15.792       42.131       54.021       24.823     1775.056     2918.215      616.172        0.299        0.265       20.714       14.850        0.514      331.474       -0.489      872.727
01/15/2022  03:54:00      -14.891        5.378       -9.747       37.287       21.829       22.634     1390.286      476.510      512.283        0.136        0.119       15.832       14.857        0.881      331.467       -0.500      872.724
01/15/2022  03:55:00       -7.023      -10.304      -16.896       31.324       22.312       20.767      981.195      497.804      431.254        0.118        0.096       12.470       11.009        0.779      331.518       -0.415      872.727
01/15/2022  03:56:00      -10.354      -16.569       -3.259       17.835       21.402       16.536      318.076      458.031      273.424        0.072        0.052       19.538        8.172        0.175      331.501       -0.443      872.740
01/15/2022  03:57:00       -5.323      -10.292      -16.560       10.887       13.390       10.443      118.535      179.302      109.051        0.041        0.020       11.587        5.346        0.213      331.525       -0.404      872.760
01/15/2022  03:58:00        0.979       -3.890      -13.567        6.848        9.209       10.102       46.897       84.803      102.056        0.022        0.012        4.012        2.543        0.402      331.554       -0.357      872.789
01/15/2022  03:59:00       -3.122       -8.063       -6.193       11.999        8.752        7.477      143.984       76.602       55.902        0.019        0.014        8.646        6.552        0.574      331.560       -0.346      872.825
01/15/2022  04:00:00       -8.651       -9.785       -5.843       10.687       12.712       10.342      114.204      161.591      106.956        0.029        0.019       13.061        8.507        0.424      331.737       -0.053      872.856
01/15/2022  04:01:00      -15.424      -10.238       -8.826       19.557       16.962       19.253      382.492      287.724      370.689        0.073        0.052       18.513       16.280        0.773      331.637       -0.218      872.873
01/15/2022  04:02:00      -16.803        2.459      -12.893       31.892       15.845       15.920     1017.096      251.050      253.435        0.099        0.076       16.982       16.501        0.944      331.540       -0.379      872.896
01/15/2022  04:03:00      -17.225       -3.149      -11.361       19.052       17.997       18.079      362.968      323.898      326.857        0.072        0.051       17.511       14.219        0.659      331.472       -0.491      872.907
01/15/2022  04:04:00      -64.586      -17.272      -12.805       36.908       29.923       24.996     1362.176      895.382      624.789        0.376        0.144       66.856       21.707        0.105      331.436       -0.552      872.914
01/15/2022  04:05:00      -72.167       -7.520       -6.940       43.225       30.991       24.363     1868.412      960.464      593.569        0.437        0.171       72.558       22.755        0.098      331.466       -0.502      872.902
01/15/2022  04:06:00      -93.783       19.844       -3.215       44.203       27.193       23.824     1953.901      739.479      567.575        0.623        0.163       95.859       21.259        0.049      331.493       -0.456      872.912
01/15/2022  04:07:00      -57.991        4.040       -2.572       43.833       27.482       19.834     1921.354      755.244      393.391        0.323        0.153       58.131       12.523        0.046      331.519       -0.415      872.974
01/15/2022  04:08:00      -40.648      -11.468        4.386       50.844       32.953       26.791     2585.080     1085.893      717.772        0.310        0.219       42.235       16.424        0.151      331.602       -0.278      873.077
01/15/2022  04:09:00      -55.094        7.909        2.254       44.726       22.570       18.899     2000.444      509.403      357.159        0.298        0.143       55.659       14.501        0.068      331.659       -0.184      873.163
01/15/2022  04:10:00       -4.409      -13.034       -1.560       20.229       27.616       12.706      409.230      762.616      161.444        0.076        0.067       13.759        8.122        0.348      331.655       -0.189      873.244
01/15/2022  04:11:00       -2.742      -16.493       -8.227       14.655       10.937        8.547      214.760      119.619       73.054        0.038        0.020       16.720        5.042        0.091      331.685       -0.140      873.297
01/15/2022  04:12:00      -23.808       -2.098       -5.272       17.627        9.604       10.280      310.703       92.233      105.686        0.055        0.025       23.901        9.016        0.142      331.697       -0.120      873.257
01/15/2022  04:13:00      -40.309        6.972      -12.004       17.048       10.912       12.843      290.637      119.064      164.940        0.120        0.029       40.908        8.861        0.047      331.718       -0.085      873.192
01/15/2022  04:14:00        0.788       -9.004       -3.218       12.918       11.505        8.436      166.878      132.376       71.168        0.023        0.019        9.038        9.060        1.005      331.661       -0.179      873.325
01/15/2022  04:15:00       -9.813       -6.874       -5.935        8.943       15.538       11.483       79.982      241.425      131.869        0.032        0.023       11.981        4.855        0.164      331.830        0.101      873.483
01/15/2022  04:16:00      -12.326        2.430       -6.502       11.099        9.780        7.105      123.197       95.654       50.475        0.023        0.013       12.564        4.763        0.144      331.646       -0.206      873.227
01/15/2022  04:17:00       -1.578       -9.101       -5.963       13.847       13.633       14.270      191.733      185.869      203.633        0.035        0.029        9.237        9.896        1.148      331.646       -0.203      873.086
01/15/2022  04:18:00        7.882       -5.261       -0.175       11.213       15.233       15.245      125.737      232.041      232.396        0.034        0.030        9.477        7.915        0.698      331.548       -0.366      873.761
01/15/2022  04:19:00      -43.022       -9.747       -5.007       15.577       16.014       11.768      242.654      256.462      138.486        0.130        0.032       44.113        8.369        0.036      331.588       -0.302      873.898
01/15/2022  04:20:00      -10.566       -5.722       -9.194       13.241       10.685        8.947      175.332      114.172       80.045        0.030        0.018       12.016        5.468        0.207      331.573       -0.325      873.216
01/15/2022  04:21:00        2.360      -13.026       -9.453        5.788       13.420        9.519       33.502      180.098       90.616        0.028        0.015       13.238        9.334        0.497      331.599       -0.282      873.386
01/15/2022  04:22:00        5.749       -1.875        1.115        5.324       11.048        5.292       28.349      122.048       28.008        0.011        0.009        6.048        4.461        0.544      331.699       -0.118      873.384
01/15/2022  04:23:00       -1.547       11.455       -6.495        8.360        5.514        5.951       69.887       30.407       35.413        0.016        0.007       11.559        3.309        0.082      331.657       -0.188      873.087
01/15/2022  04:24:00       -6.233        2.598       -9.548       11.289        9.605        6.131      127.442       92.250       37.587        0.020        0.013        6.753        5.711        0.715      331.662       -0.178      873.246
01/15/2022  04:25:00        6.967       -2.877       -4.207        8.573       10.478        7.486       73.491      109.789       56.037        0.016        0.012        7.537        4.007        0.283      331.664       -0.174      873.208
01/15/2022  04:26:00       13.122      -14.840      -15.195       13.031       10.702        9.134      169.819      114.525       83.423        0.050        0.018       19.809        7.232        0.133      331.576       -0.319      872.887
01/15/2022  04:27:00        1.447       -5.986       -5.236        6.729        7.345        7.657       45.278       53.948       58.626        0.011        0.008        6.158        5.157        0.701      331.583       -0.309      872.776
01/15/2022  04:28:00       12.066       -0.235       -7.667        6.616        8.880        7.179       43.776       78.863       51.545        0.019        0.009       12.068        3.765        0.097      331.741       -0.048      872.325
01/15/2022  04:29:00       -3.434      -16.179       -0.396       11.620        9.034        7.234      135.022       81.613       52.324        0.027        0.013       16.540        5.705        0.119      331.876        0.173      872.241
01/15/2022  04:30:00       -0.638      -13.887       -5.644        8.043       15.643       10.563       64.682      244.702      111.587        0.032        0.021       13.902        9.148        0.433      331.699       -0.116      872.245
01/15/2022  04:31:00        1.939      -43.449      -10.234       11.971       23.974       18.104      143.294      574.767      327.742        0.152        0.052       43.492       15.354        0.125      331.612       -0.260      871.880
01/15/2022  04:32:00       10.410      -41.762       -5.028       17.565       24.763       18.487      308.522      613.227      341.783        0.157        0.063       43.040        8.479        0.039      331.557       -0.352      871.770
01/15/2022  04:33:00       13.329       -0.585       -9.311       13.164       18.125       10.866      173.294      328.513      118.068        0.044        0.031       13.342       10.210        0.586      331.376       -0.649      871.755
01/15/2022  04:34:00        3.173        4.241      -11.187        5.453        7.184        5.893       29.737       51.612       34.723        0.013        0.006        5.297        5.373        1.029      331.347       -0.697      871.536
01/15/2022  04:35:00      -13.535      -11.518      -12.768        7.397       17.085        9.503       54.712      291.904       90.313        0.046        0.022       17.773        3.273        0.034      331.501       -0.444      871.596
01/15/2022  04:36:00       -7.700       -8.141       -2.472        8.475        6.965        5.328       71.823       48.510       28.391        0.014        0.007       11.206        3.864        0.119      331.456       -0.518      871.536
01/15/2022  04:37:00      -11.820      -14.756       -9.493       12.086        9.295        9.097      146.081       86.389       82.758        0.038        0.016       18.906        5.861        0.096      331.522       -0.409      871.699
01/15/2022  04:38:00      -21.650       -9.874      -14.940       18.688        9.185        5.705      349.225       84.370       32.545        0.063        0.023       23.796        7.793        0.107      331.341       -0.707      872.090
01/15/2022  04:39:00        8.584       -7.606       -6.574        9.473       10.709        6.555       89.741      114.679       42.970        0.021        0.012       11.468        5.769        0.253      331.475       -0.486      871.797
01/15/2022  04:40:00      -35.102       11.742      -11.308       40.026        9.684        9.705     1602.048       93.776       94.186        0.164        0.090       37.014        9.847        0.071      331.505       -0.437      871.722
01/15/2022  04:41:00      -15.467      -11.371       -4.487       16.067       16.218        9.866      258.152      263.008       97.344        0.050        0.031       19.197        3.367        0.031      331.410       -0.593      872.170
01/15/2022  04:42:00      -28.849      -16.681       -4.127       27.399       22.869       18.077      750.701      522.974      326.770        0.136        0.080       33.324       14.643        0.193      331.414       -0.585      872.223
01/15/2022  04:43:00      -39.855      -48.909       -8.728       34.639       25.989       21.886     1199.830      675.427      478.999        0.321        0.118       63.091       16.198        0.066      331.569       -0.332      872.125
01/15/2022  04:44:00      -40.293       -4.614      -11.310       31.983       24.573       16.958     1022.940      603.834      287.563        0.184        0.096       40.556       13.885        0.117      331.475       -0.485      871.910
01/15/2022  04:45:00      -46.914      -22.152      -12.644       35.367       25.542       20.702     1250.826      652.400      428.561        0.259        0.117       51.881       19.733        0.145      331.579       -0.317      872.216
01/15/2022  04:46:00      -67.920      -10.892       -8.894       51.963       27.081       24.378     2700.141      733.380      594.265        0.442        0.201       68.788       18.763        0.074      331.456       -0.519      872.141
01/15/2022  04:47:00      -51.543       -0.373      -12.193       50.715       31.338       22.894     2571.989      982.055      524.134        0.344        0.204       51.544       25.834        0.251      331.448       -0.531      872.195
01/15/2022  04:48:00      -36.341      -15.625        4.575       35.362       24.917       20.855     1250.475      620.858      434.945        0.195        0.115       39.557       15.187        0.147      331.417       -0.583      871.929
01/15/2022  04:49:00      -52.062       -0.061       -5.876       47.752       30.223       21.875     2280.211      913.431      478.525        0.321        0.184       52.062       21.520        0.171      331.379       -0.645      872.231
01/15/2022  04:50:00      -13.052       -4.604        3.667       28.385       26.452       24.743      805.720      699.694      612.239        0.116        0.106       13.840       20.125        2.114      331.287       -0.796      872.231
01/15/2022  04:51:00      -23.332       -3.372       -9.494       48.599       33.580       24.432     2361.859     1127.593      596.917        0.237        0.204       23.574       20.011        0.721      331.222       -0.901      872.305
01/15/2022  04:52:00      -45.741       -3.790       -4.948       57.241       38.118       32.793     3276.562     1452.954     1075.412        0.397        0.290       45.898       32.254        0.494      331.155       -1.013      872.236
01/15/2022  04:53:00      -59.177       -4.647        1.935       57.167       25.942       24.902     3268.032      673.007      620.108        0.404        0.228       59.359       24.212        0.166      331.224       -0.898      872.293
01/15/2022  04:54:00      -86.920       11.523       -4.898       54.607       30.618       25.459     2981.942      937.490      648.137        0.614        0.228       87.680       23.345        0.071      331.153       -1.015      872.221
01/15/2022  04:55:00      -69.590        5.649        0.766       35.231       31.864       23.541     1241.226     1015.293      554.171        0.384        0.141       69.819       17.092        0.060      331.225       -0.897      872.377
01/15/2022  04:56:00      -73.767        7.278       -2.082       50.937       29.106       20.584     2594.619      847.142      423.685        0.468        0.193       74.126       11.255        0.023      331.242       -0.867      872.277
01/15/2022  04:57:00      -35.105        7.542       -0.892       30.542       23.501       16.718      932.806      552.276      279.506        0.153        0.088       35.906       16.168        0.203      331.256       -0.845      872.255
01/15/2022  04:58:00      -56.787      -12.420      -15.370       29.251       20.217       18.733      855.610      408.747      350.926        0.261        0.081       58.129       17.363        0.089      331.368       -0.663      872.096
01/15/2022  04:59:00      -14.109      -19.207       -6.796       21.108       35.054       18.865      445.560     1228.764      355.885        0.132        0.102       23.832       12.825        0.290      331.367       -0.663      872.160
01/15/2022  05:00:00      -13.593       -5.825        5.486       15.372       31.521       21.244      236.288      993.545      451.303        0.096        0.084       14.789        8.058        0.297      331.296       -0.779      872.088
01/15/2022  05:01:00      -44.987      -27.892       -9.490       29.519       48.470       17.367      871.352     2349.370      301.619        0.321        0.176       52.932        9.408        0.032      331.287       -0.794      871.869
01/15/2022  05:02:00      -58.617      -16.989       -9.392       24.887       34.749       25.680      619.371     1207.497      659.485        0.315        0.124       61.030       14.528        0.057      331.225       -0.896      872.023
01/15/2022  05:03:00      -55.064      -14.873       -7.903       31.617       36.467       19.778      999.627     1329.859      391.165        0.302        0.136       57.037       10.965        0.037      331.247       -0.861      872.073
01/15/2022  05:04:00       -2.503        2.509        3.587       20.455       18.654       17.194      418.408      347.972      295.637        0.054        0.053        3.544        8.614        5.907      331.245       -0.863      872.025
01/15/2022  05:05:00      -19.330      -11.842        2.246       22.365       19.988       16.462      500.212      399.529      271.012        0.084        0.059       22.669       13.867        0.374      331.267       -0.827      872.025
01/15/2022  05:06:00       -4.551       12.252        1.196       20.989       22.151       16.759      440.553      490.677      280.858        0.069        0.061       13.070       10.251        0.615      331.188       -0.956      871.973
01/15/2022  05:07:00        6.150      -28.357       -2.597       26.546       18.789       22.537      704.702      353.008      507.898        0.121        0.078       29.016        8.872        0.093      331.201       -0.935      871.994
01/15/2022  05:08:00      -36.158       -9.833       -0.889       36.465       18.853       18.543     1329.679      355.425      343.827        0.172        0.101       37.471       16.313        0.190      331.190       -0.954      871.934
01/15/2022  05:09:00      -64.231       -9.736        0.591       59.233       34.012       21.166     3508.574     1156.792      448.012        0.467        0.256       64.965       16.517        0.065      331.132       -1.050      872.018
01/15/2022  05:10:00     -108.858       -2.201      -15.847       51.752       27.041       31.763     2678.287      731.236     1008.918        0.826        0.221      108.880       35.188        0.104      331.040       -1.202      872.137
01/15/2022  05:11:00      -56.828       24.092        0.522       45.172       33.543       23.550     2040.465     1125.130      554.592        0.376        0.186       61.724       18.549        0.090      330.975       -1.308      872.231
01/15/2022  05:12:00     -100.102       42.935        2.342       46.692       37.315       26.967     2180.139     1392.400      727.229        0.808        0.215      108.922       19.506        0.032      330.822       -1.558      872.128
01/15/2022  05:13:00     -101.677       40.796       -2.950       50.243       39.221       26.703     2524.326     1538.306      713.073        0.839        0.239      109.556       25.172        0.053      330.787       -1.616      871.878
01/15/2022  05:14:00     -103.135       17.003       -9.957       40.391       34.351       20.050     1631.429     1179.969      402.011        0.712        0.161      104.527       13.006        0.015      330.873       -1.475      871.972
01/15/2022  05:15:00      -47.734       -0.454        1.073       45.656       42.174       22.428     2084.468     1778.617      502.999        0.332        0.218       47.736       22.309        0.218      330.888       -1.450      872.067
01/15/2022  05:16:00      -31.138       -6.902       -2.447       39.516       28.618       27.673     1561.485      818.993      765.796        0.208        0.157       31.893       22.895        0.515      330.791       -1.610      872.043
01/15/2022  05:17:00      -24.708       31.365      -16.749       30.010       28.348       16.751      900.594      803.632      280.588        0.193        0.099       39.928       15.075        0.143      330.884       -1.459      872.095
01/15/2022  05:18:00      -35.197        4.188       -9.656       39.799       30.297       26.939     1583.984      917.936      725.683        0.229        0.161       35.446       23.840        0.452      330.883       -1.459      872.205
01/15/2022  05:19:00      -18.406       -2.364       -3.824       35.657       36.586       29.830     1271.407     1338.558      889.817        0.193        0.175       18.557       21.396        1.329      330.899       -1.433      872.240
01/15/2022  05:20:00      -16.381       12.770       -7.087       35.565       22.979       19.369     1264.890      528.056      375.161        0.132        0.108       20.770       17.580        0.716      330.965       -1.325      872.156
01/15/2022  05:21:00     -107.891       37.880      -11.865       28.386       25.823       22.231      805.748      666.830      494.222        0.759        0.098      114.347       17.708        0.024      330.929       -1.384      872.355
01/15/2022  05:22:00      -86.577       44.288       -3.009       44.440       29.381       23.556     1974.916      863.243      554.899        0.643        0.170       97.247       25.254        0.067      330.878       -1.467      872.198
01/15/2022  05:23:00      -96.883       25.580       -9.799       36.173       34.005       21.805     1308.500     1156.308      475.461        0.654        0.147      100.203       15.302        0.023      330.912       -1.411      872.087
01/15/2022  05:24:00     -120.720       59.444       -9.266       43.567       31.288       29.544     1898.092      978.930      872.841        1.097        0.187      134.562       20.968        0.024      330.912       -1.412      872.266
01/15/2022  05:25:00     -131.501       84.713      -18.425       38.098       39.799       22.151     1451.482     1583.965      490.666        1.417        0.176      156.425       21.138        0.018      331.025       -1.226      872.309
01/15/2022  05:26:00     -112.851       83.772      -13.452       47.572       48.174       28.655     2263.123     2320.718      821.129        1.267        0.270      140.546       23.368        0.028      331.087       -1.124      872.285
01/15/2022  05:27:00     -101.793       54.004      -27.730       35.662       37.142       33.301     1271.788     1379.513     1108.950        0.890        0.188      115.231       21.765        0.036      331.173       -0.981      872.267
01/15/2022  05:28:00      -81.655       46.326      -23.528       30.629       44.112       24.032      938.154     1945.837      577.544        0.641        0.173       93.881       19.670        0.044      331.304       -0.767      872.227
01/15/2022  05:29:00        1.737        7.169       -8.133       22.184       26.218       20.417      492.115      687.405      416.866        0.086        0.080        7.377        5.243        0.505      331.253       -0.851      872.377
01/15/2022  05:30:00       -0.345      -17.228       -7.578       11.740       22.535       13.367      137.832      507.819      178.678        0.059        0.041       17.231       10.916        0.401      331.234       -0.882      872.292
01/15/2022  05:31:00      -37.055       17.097      -14.673       21.040       36.086       24.203      442.689     1302.226      585.786        0.211        0.117       40.809       15.484        0.144      331.227       -0.893      872.138
01/15/2022  05:32:00      -47.170        1.417      -19.079       36.521       28.543       21.934     1333.800      814.713      481.079        0.261        0.131       47.191       19.336        0.168      331.306       -0.764      872.147
01/15/2022  05:33:00       -0.683       -1.350        5.031       27.625       17.770       19.031      763.118      315.786      362.183        0.073        0.072        1.513       17.292      130.624      331.254       -0.847      872.182
01/15/2022  05:34:00       -8.542        4.828       -1.458       16.047       17.327       12.050      257.510      300.208      145.207        0.040        0.035        9.812        6.241        0.405      331.262       -0.836      872.239
01/15/2022  05:35:00      -59.397        0.817      -15.876       19.446       18.490       13.968      378.133      341.863      195.115        0.235        0.046       59.402       11.503        0.038      331.412       -0.589      872.241
01/15/2022  05:36:00      -79.836       17.640       -4.585       39.351       19.252       12.394     1548.493      370.641      153.616        0.439        0.104       81.762       13.434        0.027      331.463       -0.506      872.184
01/15/2022  05:37:00      -84.055       11.696       -3.479       32.464       21.473       13.633     1053.914      461.091      185.854        0.446        0.085       84.865       14.830        0.031      331.482       -0.476      872.117
01/15/2022  05:38:00      -51.354       10.288       -5.651       40.960       23.154       22.097     1677.718      536.122      488.293        0.274        0.135       52.374       17.512        0.112      331.401       -0.608      872.030
01/15/2022  05:39:00      -87.614       14.374       -6.176       44.477       22.826       18.788     1978.182      521.017      352.995        0.539        0.143       88.785       23.501        0.070      331.303       -0.769      872.021
01/15/2022  05:40:00       -7.664       15.959       -4.506       24.217       19.840       16.205      586.445      393.622      262.590        0.079        0.062       17.704        8.921        0.254      331.196       -0.943      872.111
01/15/2022  05:41:00      -16.951        7.448        1.198       39.576       26.489       20.599     1566.298      701.655      424.308        0.152        0.135       18.515       20.426        1.217      331.142       -1.032      872.061
01/15/2022  05:42:00      -75.258       11.301      -16.168       22.528       24.656       18.973      507.503      607.937      359.988        0.376        0.074       76.102        6.694        0.008      331.209       -0.922      872.247
01/15/2022  05:43:00      -50.285       23.151       -0.813       17.674       18.542       13.053      312.378      343.806      170.373        0.195        0.041       55.358        9.868        0.032      331.258       -0.843      872.115
01/15/2022  05:44:00      -59.734       14.303       -9.325       20.910       19.247       13.532      437.249      370.430      183.123        0.243        0.050       61.422        2.391        0.002      331.302       -0.771      872.057
01/15/2022  05:45:00      -49.167       -1.600      -13.920       28.282       18.222       14.234      799.856      332.042      202.604        0.197        0.067       49.193        7.821        0.025      331.282       -0.802      872.098
01/15/2022  05:46:00       -4.600       -6.365       -7.242       21.253       21.604       13.484      451.703      466.729      181.810        0.061        0.055        7.853        9.099        1.342      331.258       -0.843      872.087
01/15/2022  05:47:00      -14.203      -14.807       -5.120       16.104        8.749       13.446      259.335       76.543      180.800        0.048        0.026       20.518        9.244        0.203      331.275       -0.814      872.195
01/15/2022  05:48:00      -16.785      -33.544      -20.042       14.805       11.997       10.760      219.194      143.924      115.782        0.114        0.024       37.509        5.098        0.018      331.182       -0.967      872.286
01/15/2022  05:49:00       -2.652      -18.508      -11.028       10.762       10.721        9.133      115.814      114.943       83.404        0.039        0.016       18.697        5.756        0.095      331.174       -0.982      872.311
01/15/2022  05:50:00       -8.425      -17.856       -9.451       22.746       17.412       13.784      517.388      303.188      190.009        0.074        0.051       19.743        9.792        0.246      331.195       -0.945      872.371
01/15/2022  05:51:00      -52.318      -41.312      -10.004       30.075       33.475       17.679      904.523     1120.590      312.560        0.344        0.117       66.662       12.035        0.033      331.128       -1.056      872.359
01/15/2022  05:52:00     -101.877      -13.537      -12.355       53.238       42.827       27.824     2834.261     1834.112      774.149        0.808        0.272      102.772       17.164        0.028      331.118       -1.073      872.462
01/15/2022  05:53:00      -60.821      -16.561       -4.392       50.914       49.382       22.945     2592.205     2438.573      526.477        0.477        0.278       63.035       16.757        0.071      331.057       -1.174      872.534
01/15/2022  05:54:00      -63.012      -12.420       -7.476       50.039       38.226       29.558     2503.928     1461.199      873.650        0.451        0.242       64.224       24.207        0.142      331.143       -1.032      872.560
01/15/2022  05:55:00      -64.550        1.306       -1.223       51.628       39.845       27.604     2665.447     1587.643      761.955        0.459        0.251       64.563       21.255        0.108      331.041       -1.201      872.622
01/15/2022  05:56:00      -22.202      -35.233        0.269       31.537       34.729       27.084      994.562     1206.113      733.527        0.233        0.147       41.645       18.530        0.198      331.095       -1.111      872.619
01/15/2022  05:57:00      -63.034      -13.930       -8.237       41.278       44.933       25.009     1703.888     2018.938      625.427        0.429        0.217       64.555       18.348        0.081      331.040       -1.201      872.553
01/15/2022  05:58:00      -32.960      -10.782       -3.628       26.466       37.640       18.239      700.457     1416.748      332.677        0.183        0.122       34.679       14.413        0.173      331.011       -1.249      872.573
01/15/2022  05:59:00      -26.219      -16.965       -0.602       41.523       31.770       20.674     1724.181     1009.311      427.414        0.207        0.158       31.229       19.394        0.386      331.044       -1.196      872.567
01/15/2022  06:00:00      -34.187      -13.915       -5.643       38.872       21.580       21.168     1511.071      465.718      448.075        0.191        0.121       36.911       18.088        0.240      331.050       -1.186      872.564
01/15/2022  06:01:00      -32.384       -4.186        0.367       33.411       33.957       18.181     1116.306     1153.076      330.558        0.183        0.130       32.654       10.606        0.105      330.929       -1.385      872.541
01/15/2022  06:02:00      -24.782       -8.386        1.436       26.788       24.942       16.176      717.605      622.079      261.647        0.114        0.080       26.162       12.431        0.226      330.942       -1.363      872.444
01/15/2022  06:03:00      -13.581       -6.680       -0.444       20.644       14.436       13.058      426.188      208.394      170.517        0.052        0.040       15.135        6.219        0.169      330.944       -1.359      872.344
01/15/2022  06:04:00      -10.869        0.176        0.022       14.143       20.458       12.701      200.035      418.519      161.313        0.045        0.039       10.870        7.770        0.511      331.058       -1.171      872.224
01/15/2022  06:05:00      -10.226        2.109       -2.293       22.665       18.987       14.163      513.722      360.503      200.591        0.059        0.054       10.441        7.096        0.462      330.978       -1.303      872.219
01/15/2022  06:06:00      -41.154       -2.849      -10.259       34.349       21.083       17.009     1179.845      444.513      289.302        0.186        0.096       41.253       16.481        0.160      330.967       -1.321      872.303
01/15/2022  06:07:00      -24.101      -13.057        4.950       40.934       24.587       22.018     1675.582      604.539      484.797        0.177        0.138       27.410       18.705        0.466      330.977       -1.305      872.374
01/15/2022  06:08:00      -54.646      -26.244      -13.501       34.516       30.964       20.373     1191.359      958.756      415.063        0.321        0.128       60.621       11.777        0.038      330.924       -1.393      872.453
01/15/2022  06:09:00      -37.408      -27.603      -12.547       45.294       46.286       22.968     2051.554     2142.386      527.527        0.352        0.236       46.489       15.055        0.105      330.915       -1.406      872.507
01/15/2022  06:10:00      -29.981      -12.454      -12.248       27.996       28.729       23.291      783.800      825.372      542.448        0.168        0.108       32.465       15.138        0.217      330.947       -1.355      872.599
01/15/2022  06:11:00       -9.774      -23.794       -9.027       42.172       26.591       17.837     1778.492      707.075      318.176        0.177        0.140       25.724        7.353        0.082      330.977       -1.306      872.677
01/15/2022  06:12:00      -70.233       -0.207        2.339       51.466       39.167       38.002     2648.717     1534.079     1444.157        0.528        0.281       70.233       36.928        0.276      330.841       -1.527      872.810
01/15/2022  06:13:00      -76.032      -14.614       -9.670       52.102       31.191       17.318     2714.599      972.885      299.899        0.504        0.199       77.423       14.659        0.036      330.912       -1.413      872.900
01/15/2022  06:14:00      -63.046       -8.963       -5.056       42.576       20.176       21.963     1812.695      407.070      482.359        0.339        0.135       63.680       22.845        0.129      330.937       -1.370      872.975
01/15/2022  06:15:00      -94.387        4.810        4.030       56.827       24.854       28.443     3229.318      617.728      809.007        0.680        0.233       94.510       28.097        0.088      330.901       -1.430      873.001
01/15/2022  06:16:00      -47.078       -4.322       -6.093       34.530       26.841       22.554     1192.323      720.438      508.678        0.235        0.121       47.275       10.306        0.048      330.943       -1.361      872.954
01/15/2022  06:17:00      -22.015      -18.004       -4.612       21.976       19.428       17.000      482.952      377.432      288.990        0.099        0.057       28.439       10.911        0.147      330.972       -1.312      872.855
01/15/2022  06:18:00       -0.850       -3.743        1.917       11.376       17.785       17.100      129.422      316.310      292.423        0.038        0.037        3.838        6.304        2.698      330.927       -1.386      872.748
01/15/2022  06:19:00      -27.673        1.411       -2.851       22.304       25.084       14.664      497.473      629.207      215.034        0.106        0.067       27.709       12.087        0.190      330.938       -1.368      872.622
01/15/2022  06:20:00      -25.759       15.403        7.014       24.385       23.929       16.241      594.649      572.615      263.785        0.119        0.072       30.013       12.357        0.170      330.828       -1.549      872.511
01/15/2022  06:21:00       -9.118        0.331        9.653       34.114       21.522       16.978     1163.778      463.195      288.262        0.105        0.096        9.124        5.365        0.346      330.866       -1.487      872.412
01/15/2022  06:22:00      -18.563      -21.448      -12.111       18.622       25.791       11.277      346.766      665.157      127.165        0.104        0.057       28.365        4.261        0.023      330.988       -1.287      872.399
01/15/2022  06:23:00        1.375        8.724       -0.775       13.095       13.676       14.019      171.478      187.034      196.527        0.032        0.028        8.831        8.299        0.883      330.915       -1.407      872.401
01/15/2022  06:24:00       -2.542       -8.047       -9.735       32.897       28.928       20.364     1082.210      836.854      414.699        0.125        0.117        8.439       14.265        2.857      330.925       -1.390      872.448
01/15/2022  06:25:00      -32.942       -7.993        3.871       37.073       33.582       20.731     1374.421     1127.782      429.766        0.205        0.147       33.897       17.892        0.279      330.906       -1.421      872.581
01/15/2022  06:26:00      -82.132      -15.047       -7.524       52.369       30.608       22.896     2742.517      936.833      524.246        0.562        0.210       83.499       21.765        0.068      330.912       -1.410      872.711
01/15/2022  06:27:00     -153.614       11.802       -7.098       68.286       45.960       35.252     4663.007     2112.325     1242.733        1.590        0.401      154.067       33.390        0.047      330.793       -1.607      872.825
01/15/2022  06:28:00     -146.361      -37.507      -10.581       46.813       27.048       31.314     2191.466      731.569      980.544        1.342        0.195      151.090       21.410        0.020      330.772       -1.640      872.890
01/15/2022  06:29:00      -85.063       14.428      -15.723       27.696       31.301       23.908      767.044      979.774      571.607        0.500        0.116       86.278       14.598        0.029      330.728       -1.712      872.895
01/15/2022  06:30:00      -87.475       24.151       -4.422       71.506       40.046       33.419     5113.139     1603.665     1116.862        0.804        0.392       90.747       30.377        0.112      330.578       -1.961      872.837
01/15/2022  06:31:00     -136.256       29.320       -9.086       60.133       38.365       23.893     3615.960     1471.883      570.871        1.258        0.283      139.375       19.676        0.020      330.523       -2.050      872.769
01/15/2022  06:32:00     -110.625       29.564        2.088       61.251       33.006       25.817     3751.659     1089.393      666.503        0.931        0.275      114.508       29.117        0.065      330.545       -2.015      872.664
01/15/2022  06:33:00      -28.008       -4.524       -2.868       60.587       28.229       30.873     3670.794      796.880      953.125        0.312        0.271       28.371       31.355        1.221      330.573       -1.969      872.571
01/15/2022  06:34:00      -28.866       -4.907       -0.804       30.166       22.391       23.064      910.003      501.342      531.956        0.140        0.097       29.280       21.158        0.522      330.571       -1.971      872.537
01/15/2022  06:35:00      -28.619       -3.683       -8.657       38.808       27.780       22.433     1506.096      771.745      503.242        0.184        0.139       28.855       20.986        0.529      330.591       -1.940      872.510
01/15/2022  06:36:00      -36.327       35.408      -10.673       34.306       33.536       17.480     1176.881     1124.648      305.551        0.265        0.130       50.729       10.374        0.042      330.606       -1.913      872.526
01/15/2022  06:37:00      -70.468       30.656      -14.757       21.236       19.873       23.257      450.975      394.949      540.899        0.375        0.069       76.848       12.162        0.025      330.655       -1.833      872.619
01/15/2022  06:38:00      -74.252       14.013      -21.806       34.862       27.613       18.842     1215.385      762.493      355.012        0.426        0.117       75.563       15.649        0.043      330.748       -1.681      872.728
01/15/2022  06:39:00      -99.689       32.604      -22.360       30.733       20.647       19.450      944.526      426.281      378.285        0.662        0.087      104.885       12.799        0.015      330.768       -1.647      872.820
01/15/2022  06:40:00      -90.111       24.757       -3.919       55.633       29.714       30.669     3095.075      882.943      940.598        0.683        0.246       93.450       27.664        0.088      330.734       -1.701      872.844
01/15/2022  06:41:00      -10.119        8.050       -6.310       29.427       29.812       27.314      865.935      888.771      746.046        0.135        0.125       12.930       12.376        0.916      330.749       -1.678      872.805
01/15/2022  06:42:00      -36.380       30.917       -6.337       69.321       33.078       29.854     4805.380     1094.168      891.252        0.455        0.340       47.743       33.296        0.486      330.795       -1.602      872.762
01/15/2022  06:43:00      -93.634       63.667      -17.371       36.656       22.607       25.107     1343.698      511.057      630.343        0.780        0.124      113.229       20.354        0.032      330.749       -1.679      872.657
01/15/2022  06:44:00      -75.441       26.793      -22.204       60.969       29.103       29.035     3717.203      846.994      843.016        0.615        0.270       80.058       30.397        0.144      330.786       -1.618      872.552
01/15/2022  06:45:00       -4.797        5.374      -10.785       37.920       32.405       22.113     1437.915     1050.109      488.966        0.157        0.149        7.204       16.158        5.031      330.765       -1.653      872.499
01/15/2022  06:46:00      -30.738        9.095      -10.853       50.529       29.323       27.430     2553.177      859.813      752.389        0.265        0.208       32.056       21.464        0.448      330.791       -1.608      872.490
01/15/2022  06:47:00       -7.885      -10.441       -7.152       39.707       33.834       21.723     1576.636     1144.772      471.905        0.171        0.160       13.084        7.530        0.331      330.846       -1.519      872.505
01/15/2022  06:48:00      -21.188        2.174       -7.678       71.267       40.166       24.885     5079.044     1613.315      619.287        0.391        0.366       21.299       16.689        0.614      330.789       -1.613      872.586
01/15/2022  06:49:00     -118.624       38.221      -18.210       28.402       28.470       17.834      806.656      810.562      318.069        0.890        0.097      124.630       14.174        0.013      330.753       -1.670      872.659
01/15/2022  06:50:00      -94.532       47.848      -12.786       33.587       26.582       19.460     1128.064      706.616      378.696        0.680        0.111      105.951       12.435        0.014      330.694       -1.769      872.752
01/15/2022  06:51:00      -84.486       48.773       -9.624       29.693       27.379       20.237      881.655      749.607      409.524        0.582        0.102       97.554       13.393        0.019      330.645       -1.849      872.767
01/15/2022  06:52:00     -107.300       32.920       -7.334       24.443       24.892       18.285      597.452      619.622      334.327        0.710        0.078      112.237       11.931        0.011      330.722       -1.722      872.753
01/15/2022  06:53:00      -32.715       11.591       -1.081       29.952       29.769       19.673      897.111      886.220      387.015        0.169        0.109       34.707       16.782        0.234      330.779       -1.630      872.710
01/15/2022  06:54:00      -99.294       17.660       -4.011       30.556       21.466       18.516      933.649      460.788      342.824        0.596        0.087      100.852       13.883        0.019      330.815       -1.569      872.671
01/15/2022  06:55:00      -38.738       18.142       -3.111       52.398       27.280       19.760     2745.601      744.210      390.451        0.286        0.194       42.776       26.768        0.392      330.840       -1.529      872.669
01/15/2022  06:56:00      -58.637        5.904      -10.631       47.074       26.745       22.095     2215.933      715.299      488.209        0.350        0.171       58.933        6.710        0.013      330.857       -1.503      872.650
01/15/2022  06:57:00      -84.193       20.329       -6.877       55.795       37.761       21.532     3113.132     1425.884      463.624        0.627        0.250       86.612       16.436        0.036      330.735       -1.701      872.707
01/15/2022  06:58:00      -60.588        4.858       -8.787       69.619       32.352       22.105     4846.759     1046.658      488.637        0.508        0.319       60.782       20.513        0.114      330.721       -1.724      872.760
01/15/2022  06:59:00      -29.228        2.615       -0.685       51.956       41.433       30.531     2699.402     1716.686      932.150        0.310        0.267       29.345       27.280        0.864      330.710       -1.743      872.788
01/15/2022  07:00:00      -42.200       15.464       -2.629       55.865       39.509       25.696     3120.857     1560.941      660.286        0.368        0.267       44.944       23.018        0.262      330.671       -1.806      872.773
01/15/2022  07:01:00      -67.316        9.086       -4.402       41.020       36.998       21.167     1682.647     1368.840      448.047        0.407        0.175       67.926       20.143        0.088      330.714       -1.736      872.714
01/15/2022  07:02:00      -37.379       -6.451       -4.510       28.311       35.362       17.940      801.487     1250.503      321.852        0.192        0.119       37.931       15.159        0.160      330.737       -1.698      872.684
01/15/2022  07:03:00      -13.120        3.713       -2.834       16.473       19.717       15.403      271.345      388.777      237.254        0.055        0.045       13.635        8.302        0.371      330.685       -1.783      872.669
01/15/2022  07:04:00      -32.759        6.652      -10.760       25.063       25.623       18.255      628.154      656.548      333.252        0.143        0.081       33.427       14.500        0.188      330.733       -1.704      872.656
01/15/2022  07:05:00        5.255        7.885        0.579       19.015       18.266       14.807      361.586      333.665      219.262        0.050        0.046        9.476        5.227        0.304      330.716       -1.732      872.675
01/15/2022  07:06:00       18.327      -10.056        5.124       14.581       20.234       17.201      212.596      409.419      295.874        0.069        0.046       20.905       10.469        0.251      330.737       -1.696      872.697
01/15/2022  07:07:00       -6.826        3.353      -14.824       18.767       17.755       14.402      352.211      315.241      207.404        0.058        0.044        7.605        9.530        1.571      330.817       -1.565      872.702
01/15/2022  07:08:00      -12.647       -2.932        0.244       25.454       20.323       13.736      647.907      413.021      188.671        0.071        0.062       12.983        7.292        0.315      330.810       -1.579      872.712
01/15/2022  07:09:00       -7.897       -7.564       -6.614       16.798       14.889       11.358      282.170      221.669      129.001        0.040        0.032       10.935        7.535        0.475      330.828       -1.548      872.689
01/15/2022  07:10:00      -30.865      -14.404       -7.222       33.207       15.417       13.444     1102.691      237.687      180.750        0.137        0.076       34.060       13.925        0.167      330.787       -1.616      872.636
01/15/2022  07:11:00      -42.291       -3.665       -4.269       25.872       17.603       11.945      669.351      309.862      142.678        0.147        0.056       42.450        6.872        0.026      330.779       -1.628      872.578
01/15/2022  07:12:00      -54.104       -4.215       -7.019       37.292       18.702       19.430     1390.667      349.755      377.516        0.256        0.106       54.268       19.218        0.125      330.801       -1.593      872.519
01/15/2022  07:13:00      -38.437       -4.180       -4.193       25.192       18.480       14.806      634.616      341.524      219.225        0.135        0.060       38.664       13.844        0.128      330.863       -1.490      872.497
01/15/2022  07:14:00      -44.524       -1.786       -7.484       36.146       24.467       25.720     1306.544      598.633      661.512        0.230        0.128       44.560       22.745        0.261      330.842       -1.526      872.475
01/15/2022  07:15:00      -24.821       -0.335      -10.186       35.390       24.523       27.879     1252.465      601.401      777.239        0.168        0.132       24.823       20.382        0.674      330.765       -1.653      872.493
01/15/2022  07:16:00      -71.469       -4.338      -11.419       36.944       30.821       28.708     1364.831      949.920      824.133        0.420        0.157       71.601       22.326        0.097      330.721       -1.724      872.493
01/15/2022  07:17:00      -67.585       -9.870       -7.204       30.449       33.152       23.631      927.171     1099.055      558.445        0.365        0.129       68.302       15.649        0.052      330.693       -1.769      872.521
01/15/2022  07:18:00      -29.394      -17.755       -2.139       34.965       27.647       28.516     1222.549      764.337      813.166        0.199        0.140       34.340       20.575        0.359      330.751       -1.675      872.555
01/15/2022  07:19:00      -67.711      -10.400       -0.450       58.024       43.912       30.126     3366.748     1928.255      907.564        0.545        0.310       68.505       26.473        0.149      330.728       -1.713      872.553
01/15/2022  07:20:00      -44.657       -3.070        1.129       52.355       29.444       25.768     2741.083      866.936      663.999        0.314        0.214       44.762       26.715        0.356      330.715       -1.734      872.528
01/15/2022  07:21:00     -122.680       -0.702        1.227       63.239       30.027       27.411     3999.216      901.604      751.373        1.035        0.283      122.682       31.630        0.066      330.642       -1.854      872.503
01/15/2022  07:22:00      -71.762      -10.396       -3.078       38.105       31.822       21.957     1451.998     1012.619      482.125        0.411        0.147       72.511       13.349        0.034      330.676       -1.798      872.493
01/15/2022  07:23:00      -73.751        2.062       -2.900       52.894       28.063       23.124     2797.801      787.526      534.713        0.479        0.206       73.780       17.831        0.058      330.650       -1.841      872.505
01/15/2022  07:24:00      -95.257      -18.218       -9.613       30.603       24.117       20.081      936.527      581.635      403.235        0.571        0.096       96.984       13.555        0.020      330.647       -1.845      872.512
01/15/2022  07:25:00      -39.393        7.297       -5.838       27.370       35.318       19.507      749.090     1247.369      380.517        0.201        0.119       40.064       11.655        0.085      330.732       -1.706      872.511
01/15/2022  07:26:00       10.571        5.532        0.654       20.811       19.072       18.264      433.079      363.733      333.569        0.064        0.057       11.931        8.780        0.541      330.733       -1.705      872.530
01/15/2022  07:27:00      -19.254       -5.277       -1.900       24.010       22.436       14.140      576.473      503.370      199.943        0.084        0.064       19.964       13.027        0.426      330.770       -1.644      872.559
01/15/2022  07:28:00      -30.455        5.288        2.709       29.351       22.740       14.087      861.456      517.111      198.447        0.127        0.079       30.910       12.517        0.164      330.743       -1.689      872.593
01/15/2022  07:29:00      -49.304       -1.652       -6.496       33.999       28.473       23.006     1155.910      810.736      529.280        0.249        0.125       49.332       18.846        0.146      330.713       -1.735      872.606
01/15/2022  07:30:00      -37.550       -7.547        3.340       42.455       34.433       22.290     1802.424     1185.627      496.840        0.248        0.174       38.301       20.294        0.281      330.596       -1.930      872.596
01/15/2022  07:31:00       -7.981        0.429       -6.118       24.373       21.854       18.463      594.036      477.586      340.878        0.076        0.071        7.993       13.407        2.814      330.635       -1.867      872.593
01/15/2022  07:32:00      -65.604       -3.553       -9.280       38.789       29.056       17.034     1504.625      844.249      290.169        0.352        0.132       65.700       12.116        0.034      330.559       -1.991      872.609
01/15/2022  07:33:00      -70.508      -17.534      -11.417       55.452       27.039       23.155     3074.971      731.104      536.176        0.487        0.217       72.656       15.649        0.046      330.631       -1.872      872.629
01/15/2022  07:34:00      -45.597      -11.670       -5.473       40.359       30.246       14.399     1628.863      914.796      207.326        0.250        0.138       47.067       12.643        0.072      330.615       -1.899      872.627
01/15/2022  07:35:00      -24.052       -5.024       -6.438       30.434       29.640       16.410      926.242      878.514      269.301        0.136        0.104       24.571        8.005        0.106      330.655       -1.832      872.623
01/15/2022  07:36:00      -57.387       15.649       -5.767       38.758       18.576       17.914     1502.203      345.052      320.914        0.287        0.108       59.482       20.157        0.115      330.597       -1.929      872.622
01/15/2022  07:37:00      -35.642        1.232       -1.639       33.626       31.670       21.749     1130.694     1002.960      473.017        0.194        0.130       35.663       15.619        0.192      330.551       -2.004      872.621
01/15/2022  07:38:00      -94.701       32.840       -7.908       29.101       23.568       17.329      846.844      555.461      300.278        0.591        0.085      100.234       15.369        0.024      330.495       -2.097      872.619
01/15/2022  07:39:00      -38.520        6.517      -10.594       58.501       29.740       23.279     3422.407      884.471      541.914        0.324        0.242       39.067       18.387        0.222      330.568       -1.976      872.611
01/15/2022  07:40:00      -72.331       14.508       -3.222       52.314       24.423       20.422     2736.739      596.459      417.073        0.460        0.188       73.772       24.828        0.113      330.520       -2.055      872.635
01/15/2022  07:41:00      -25.861       -8.926      -10.180       31.424       27.133       14.363      987.443      736.173      206.296        0.139        0.096       27.358        9.435        0.119      330.640       -1.858      872.652
01/15/2022  07:42:00      -44.056       -4.049       -1.210       44.305       25.819       23.935     1962.892      666.631      572.884        0.258        0.160       44.241       23.664        0.286      330.699       -1.759      872.666
01/15/2022  07:43:00      -62.196       -6.353       -5.729       38.397       26.299       18.057     1474.309      691.633      326.053        0.322        0.125       62.520       20.821        0.111      330.705       -1.750      872.694
01/15/2022  07:44:00       -3.422        3.094       -3.192       34.136       23.483       13.496     1165.298      551.435      182.151        0.096        0.095        4.613        6.815        2.182      330.744       -1.686      872.712
01/15/2022  07:45:00       -7.257        5.746       -0.314       14.412       12.529       18.370      207.711      156.967      337.471        0.039        0.035        9.256        9.413        1.034      330.778       -1.630      872.719
01/15/2022  07:46:00      -49.252       13.503      -10.351       15.625       13.406        9.149      244.143      179.733       83.699        0.161        0.025       51.069        4.917        0.009      330.776       -1.633      872.706
01/15/2022  07:47:00      -32.708        1.763      -12.667       16.287       15.264       11.162      265.251      232.997      124.592        0.093        0.031       32.756        5.735        0.031      330.900       -1.432      872.685
01/15/2022  07:48:00      -44.267       11.506       -9.904       29.070       21.593        9.452      845.046      466.250       89.346        0.180        0.070       45.738        8.122        0.032      330.904       -1.425      872.663
01/15/2022  07:49:00      -77.635       23.964       -9.471       29.489       21.223       16.115      869.624      450.426      259.684        0.414        0.079       81.249       15.362        0.036      330.788       -1.615      872.642
01/15/2022  07:50:00      -69.264       27.748      -11.718       20.888       18.620       13.211      436.329      346.709      174.539        0.333        0.048       74.615        6.883        0.009      330.801       -1.593      872.638
01/15/2022  07:51:00      -15.468        0.004       -9.681       34.179       22.663       18.646     1168.180      513.605      347.665        0.118        0.101       15.468       18.492        1.429      330.833       -1.540      872.648
01/15/2022  07:52:00      -39.604       13.543      -11.026       20.836       19.927       14.326      434.142      397.078      205.242        0.145        0.052       41.856        6.623        0.025      330.843       -1.524      872.651
01/15/2022  07:53:00      -23.389        6.881       -9.176       34.821       17.479       10.313     1212.515      305.516      106.363        0.115        0.081       24.380        9.326        0.146      330.819       -1.563      872.642
01/15/2022  07:54:00      -11.657        3.736       -8.291       12.586       17.153       11.632      158.410      294.225      135.296        0.040        0.029       12.241        6.463        0.279      330.840       -1.530      872.656
01/15/2022  07:55:00      -11.381       -2.637       -8.939       15.367       13.574       11.970      236.135      184.241      143.271        0.039        0.028       11.682        4.857        0.173      330.913       -1.410      872.672
01/15/2022  07:56:00        2.403       -2.434        5.730       11.922       12.032       14.421      142.138      144.772      207.968        0.027        0.025        3.420       11.460       11.225      330.889       -1.449      872.668
01/15/2022  07:57:00      -41.632       20.571      -10.113       25.018       11.122        8.502      625.915      123.697       72.290        0.154        0.041       46.437        8.697        0.035      330.809       -1.581      872.681
01/15/2022  07:58:00      -61.533       19.970      -10.607       28.317       15.286       13.544      801.832      233.657      183.440        0.276        0.061       64.692        5.753        0.008      330.791       -1.608      872.679
01/15/2022  07:59:00      -47.513       12.800      -10.877       19.284       16.714       14.496      371.888      279.359      210.130        0.170        0.043       49.207        7.348        0.022      330.853       -1.509      872.688
01/15/2022  08:00:00      -45.915       17.063       -4.288       24.557       18.417       11.578      603.061      339.175      134.061        0.175        0.054       48.983        5.079        0.011      330.784       -1.620      872.688
01/15/2022  08:01:00      -77.577       22.576      -11.528       17.419       21.438        8.826      303.411      459.575       77.893        0.375        0.042       80.796        7.237        0.008      330.752       -1.673      872.686
01/15/2022  08:02:00      -81.438       25.757       -8.319       16.629       16.595       13.270      276.514      275.384      176.095        0.405        0.036       85.414        6.836        0.006      330.742       -1.689      872.674
01/15/2022  08:03:00      -83.568       22.966      -10.701       21.978       14.554       12.986      483.041      211.819      168.630        0.424        0.043       86.667       12.329        0.020      330.743       -1.687      872.680
01/15/2022  08:04:00      -54.064        0.239      -10.723       35.058       25.010       14.999     1229.071      625.522      224.962        0.256        0.104       54.064        7.733        0.020      330.779       -1.628      872.708
01/15/2022  08:05:00      -61.239       18.577       -7.112       26.209       18.675       16.037      686.905      348.752      257.185        0.272        0.065       63.995       13.453        0.044      330.754       -1.669      872.741
01/15/2022  08:06:00      -56.682        9.444       -7.526       24.962       19.563       18.281      623.078      382.696      334.195        0.235        0.067       57.463       14.745        0.066      330.811       -1.578      872.749
01/15/2022  08:07:00      -34.483        2.592       -8.511       25.592       24.548       15.859      654.972      602.580      251.499        0.139        0.075       34.581       12.018        0.121      330.841       -1.526      872.753
01/15/2022  08:08:00        3.243       -6.952       -4.868       16.838       10.729       11.880      283.516      115.114      141.141        0.031        0.027        7.672        5.494        0.513      330.951       -1.347      872.733
01/15/2022  08:09:00       -7.791       -2.161       -7.365       10.475       12.082        9.659      109.735      145.972       93.292        0.023        0.017        8.086        4.501        0.310      331.059       -1.170      872.718
01/15/2022  08:10:00      -10.975        2.510       -5.884       11.014       11.679       10.385      121.311      136.404      107.838        0.026        0.018       11.258        8.171        0.527      330.955       -1.342      872.729
01/15/2022  08:11:00      -21.103        5.139      -10.380       10.123       22.579        8.912      102.476      509.820       79.416        0.064        0.035       21.720        8.506        0.153      330.929       -1.384      872.737
01/15/2022  08:12:00      -21.540       25.681       -7.454       14.927       11.633        8.336      222.817      135.330       69.488        0.080        0.021       33.518        4.786        0.020      330.931       -1.381      872.732
01/15/2022  08:13:00      -20.903        5.063       -3.129        9.510       12.372       10.425       90.442      153.069      108.674        0.041        0.018       21.507        5.294        0.061      331.005       -1.259      872.750
01/15/2022  08:14:00      -23.802      -15.369       -4.703       13.243       10.089        9.671      175.378      101.797       93.531        0.060        0.019       28.333        9.567        0.114      331.076       -1.142      872.780
01/15/2022  08:15:00      -12.934       -6.995       -5.369       12.073        9.550       10.239      145.757       91.196      104.830        0.029        0.017       14.704        7.080        0.232      331.156       -1.011      872.802
01/15/2022  08:16:00      -11.459        1.620       -6.177        8.619       11.121        7.648       74.280      123.681       58.496        0.021        0.013       11.573        6.914        0.357      331.005       -1.259      872.817
01/15/2022  08:17:00      -13.364        1.836      -13.546        8.765        8.489        5.772       76.830       72.056       33.318        0.027        0.009       13.489        3.706        0.075      331.041       -1.201      872.814
01/15/2022  08:18:00      -16.554       10.613       -3.505       12.737        6.332        7.894      162.224       40.092       62.318        0.033        0.013       19.665        3.797        0.037      331.138       -1.040      872.807
01/15/2022  08:19:00       -9.650       -0.668        0.110       14.581       10.060        9.238      212.616      101.211       85.347        0.025        0.020        9.673        8.971        0.860      331.235       -0.881      872.813
01/15/2022  08:20:00       -5.068       -1.209       -7.228        9.053        8.986        7.959       81.962       80.746       63.339        0.015        0.011        5.210        4.179        0.643      331.245       -0.863      872.811
01/15/2022  08:21:00      -25.405       -2.079      -11.024       23.162       11.023       11.672      536.479      121.497      136.247        0.078        0.040       25.490       10.585        0.172      331.163       -0.998      872.792
01/15/2022  08:22:00      -32.545        4.335      -11.550       13.319       13.852        9.335      177.399      191.876       87.134        0.083        0.023       32.832        3.158        0.009      331.141       -1.036      872.766
01/15/2022  08:23:00      -57.552        7.012      -12.638       29.336       19.064       16.819      860.625      363.419      282.893        0.251        0.075       57.977        7.987        0.019      331.089       -1.121      872.759
01/15/2022  08:24:00      -59.679        2.602       -4.590       25.172       19.761       17.620      633.648      390.505      310.455        0.246        0.067       59.736        9.403        0.025      331.121       -1.066      872.770
01/15/2022  08:25:00      -31.556       -2.124       -3.150       14.938       18.693       12.106      223.135      349.441      146.547        0.086        0.036       31.628        7.129        0.051      331.280       -0.806      872.793
01/15/2022  08:26:00      -37.731       -6.331       -9.279       19.433       24.115       14.288      377.653      581.523      204.155        0.136        0.058       38.259        8.096        0.045      331.219       -0.906      872.818
01/15/2022  08:27:00      -14.778       -9.176      -12.006       17.360       18.095       16.039      301.373      327.447      257.259        0.067        0.044       17.395       11.083        0.406      331.272       -0.819      872.858
01/15/2022  08:28:00       -5.815       -8.361       -0.741       17.899        9.678       12.057      320.362       93.661      145.364        0.033        0.028       10.184        9.628        0.894      331.400       -0.610      872.861
01/15/2022  08:29:00       -3.812        6.400      -12.541       15.724       19.247       13.624      247.250      370.441      185.616        0.051        0.040        7.449        6.102        0.671      331.298       -0.776      872.789
01/15/2022  08:30:00      -27.960      -18.052      -12.089       31.345       18.154       14.109      982.497      329.570      199.065        0.138        0.076       33.281       10.876        0.107      331.238       -0.876      872.750
01/15/2022  08:31:00      -18.620      -13.133        0.465       17.537       22.596       15.677      307.543      510.591      245.770        0.079        0.053       22.786        6.967        0.093      331.277       -0.812      872.746
01/15/2022  08:32:00      -29.006        6.442        1.360       29.829       18.214       20.510      889.798      331.741      420.671        0.126        0.082       29.713        9.869        0.110      331.173       -0.982      872.757
01/15/2022  08:33:00      -32.875        3.153        0.265       23.021       22.861       17.507      529.960      522.603      306.482        0.122        0.068       33.025        8.641        0.068      331.172       -0.984      872.730
01/15/2022  08:34:00      -12.312       -5.645      -13.879       24.979       16.172       11.119      623.974      261.522      123.621        0.069        0.050       13.544        9.799        0.523      331.239       -0.875      872.735
01/15/2022  08:35:00      -63.767       15.877      -14.274       34.237       21.324       11.680     1172.181      454.710      136.429        0.314        0.088       65.714        8.568        0.017      331.089       -1.121      872.772
01/15/2022  08:36:00      -56.363       17.253       -9.410       25.834       32.451       16.954      667.389     1053.041      287.426        0.279        0.100       58.944       13.564        0.053      331.060       -1.167      872.758
01/15/2022  08:37:00      -31.965        7.972       -1.936       33.458       17.606       13.995     1119.406      309.955      195.849        0.136        0.081       32.944       13.381        0.165      331.199       -0.940      872.717
01/15/2022  08:38:00      -15.167      -12.924       -3.763       25.684       16.652       11.020      659.666      277.284      121.436        0.073        0.053       19.927        8.262        0.172      331.306       -0.762      872.706
01/15/2022  08:39:00      -43.903       11.327       -9.703       21.805       18.066       14.684      475.458      326.391      215.628        0.158        0.051       45.341        5.615        0.015      331.243       -0.867      872.708
01/15/2022  08:40:00      -11.969        2.095       -2.911       15.868       16.120       12.038      251.780      259.855      144.908        0.041        0.033       12.151        8.593        0.500      331.541       -0.377      872.677
01/15/2022  08:41:00       -3.410       11.108       -5.036        7.244       12.269       11.954       52.479      150.530      142.891        0.025        0.017       11.620        6.711        0.334      331.545       -0.371      872.677
01/15/2022  08:42:00      -13.791       -2.921       -2.046       15.799       19.512       13.447      249.610      380.728      180.821        0.051        0.041       14.097        9.127        0.419      331.513       -0.423      872.753
01/15/2022  08:43:00       -3.186       -1.912       -4.401        9.045       13.735        8.641       81.804      188.654       74.660        0.019        0.017        3.716        6.002        2.609      331.585       -0.305      872.819
01/15/2022  08:44:00       -2.828        4.232       -7.402        8.818       14.183       13.042       77.765      201.167      170.098        0.026        0.022        5.090       10.085        3.926      331.547       -0.368      872.803
01/15/2022  08:45:00       14.702       -2.303        3.725       12.987       13.968       14.866      168.657      195.114      221.005        0.041        0.029       14.882        8.675        0.340      331.645       -0.205      872.810
01/15/2022  08:46:00       -5.760       -1.171      -12.343       13.845       18.814       15.211      191.680      353.980      231.388        0.048        0.039        5.877        8.675        2.178      331.702       -0.112      872.795
01/15/2022  08:47:00      -26.946       -4.013      -13.320       19.884       14.181       14.201      395.374      201.087      201.663        0.086        0.040       27.243        7.163        0.069      331.624       -0.240      872.732
01/15/2022  08:48:00       -6.204      -10.898       -5.444       13.065       13.274        9.216      170.700      176.209       84.942        0.031        0.022       12.540        5.000        0.159      331.801        0.050      872.698
01/15/2022  08:49:00       -3.838       -4.154      -10.904       12.186       15.274        9.962      148.505      233.304       99.237        0.032        0.024        5.655        5.163        0.834      331.910        0.231      872.745
01/15/2022  08:50:00       -3.099       -2.532       -1.876       11.151       11.101       10.586      124.355      123.231      112.062        0.019        0.018        4.002        6.557        2.685      331.924        0.253      872.776
01/15/2022  08:51:00       -0.422      -15.341        3.279        8.313       13.692       11.229       69.101      187.480      126.093        0.031        0.019       15.346        5.802        0.143      332.054        0.467      872.805
01/15/2022  08:52:00       -9.650      -14.997        1.926       11.028       26.103        8.170      121.622      681.386       66.749        0.060        0.043       17.834        3.335        0.035      331.884        0.187      872.823
01/15/2022  08:53:00       -1.172      -16.418        2.750        8.473       17.628       12.181       71.788      310.731      148.372        0.040        0.027       16.460        6.336        0.148      332.081        0.513      872.781
01/15/2022  08:54:00       16.108      -13.351       -7.945       20.507       16.198       14.173      420.556      262.365      200.866        0.069        0.044       20.922       10.988        0.276      332.178        0.671      872.762
01/15/2022  08:55:00      -24.370      -26.981       -8.756       16.442       16.728       11.684      270.336      279.815      136.525        0.104        0.034       36.358        5.275        0.021      331.960        0.312      872.775
01/15/2022  08:56:00      -16.443       -7.827       -6.046       18.170       19.154       12.922      330.134      366.869      166.975        0.062        0.043       18.211        7.622        0.175      331.875        0.173      872.773
01/15/2022  08:57:00       22.679      -42.942      -14.998       21.909       33.067       24.602      480.006     1093.403      605.277        0.238        0.109       48.562       12.274        0.064      332.063        0.481      872.788
01/15/2022  08:58:00       67.245      -46.280      -25.806       29.177       42.386       29.358      851.287     1796.562      861.912        0.542        0.175       81.631       12.705        0.024      332.086        0.520      872.815
01/15/2022  08:59:00       45.847      -16.775      -25.883       33.226       33.339       30.803     1103.957     1111.505      948.851        0.311        0.158       48.820       25.032        0.263      332.151        0.627      872.793
01/15/2022  09:00:00       69.657      -21.022      -21.255       31.869       31.941       22.400     1015.644     1020.237      501.780        0.414        0.127       72.760       12.704        0.030      331.965        0.320      872.800
01/15/2022  09:01:00       93.542      -19.563      -20.253       33.059       31.549       23.812     1092.887      995.325      567.006        0.610        0.133       95.566       16.712        0.031      331.876        0.174      872.762
01/15/2022  09:02:00       44.357        7.582      -11.688       26.348       47.055       24.247      694.235     2214.186      587.919        0.283        0.175       45.001       18.187        0.163      332.026        0.421      872.797
01/15/2022  09:03:00       36.109       19.290       -2.301       24.051       20.581       15.108      578.464      423.563      228.247        0.146        0.062       40.938       13.406        0.107      332.058        0.475      872.770
01/15/2022  09:04:00       22.067      -24.408      -19.932       28.294       42.724       19.265      800.571     1825.368      371.147        0.224        0.150       32.904       12.109        0.135      332.181        0.678      872.784
01/15/2022  09:05:00       58.766      -41.415      -17.122       40.524       33.550       24.874     1642.215     1125.604      618.741        0.442        0.169       71.893       18.616        0.067      332.048        0.457      872.759
01/15/2022  09:06:00       46.947      -38.330      -14.824       21.641       24.759       19.480      468.349      613.009      379.475        0.268        0.073       60.607        9.905        0.027      332.208        0.722      872.756
01/15/2022  09:07:00       50.857        3.999      -21.182       36.126       30.230       15.943     1305.071      913.824      254.172        0.276        0.124       51.014       12.988        0.065      332.179        0.674      872.788
01/15/2022  09:08:00       42.603      -26.215      -17.609       29.718       25.544       20.260      883.185      652.471      410.461        0.238        0.097       50.022       18.693        0.140      332.174        0.664      872.796
01/15/2022  09:09:00       62.586      -13.650      -18.275       35.600       36.400       23.758     1267.380     1324.963      564.464        0.380        0.158       64.057       16.888        0.070      332.233        0.762      872.802
01/15/2022  09:10:00       20.092       -7.105      -15.728       37.151       38.575       30.055     1380.165     1488.017      903.308        0.224        0.189       21.311       14.002        0.432      332.457        1.131      872.805
01/15/2022  09:11:00       83.584      -22.376      -42.794       38.585       48.693       29.390     1488.766     2370.999      863.744        0.702        0.236       86.527       18.715        0.047      332.349        0.953      872.783
01/15/2022  09:12:00       44.841      -13.909      -15.542       43.003       34.492       30.832     1849.247     1189.731      950.584        0.322        0.199       46.949       24.125        0.264      332.420        1.070      872.765
01/15/2022  09:13:00       47.209      -26.892       -5.520       38.653       32.106       25.111     1494.064     1030.819      630.561        0.307        0.158       54.332       15.463        0.081      332.245        0.780      872.741
01/15/2022  09:14:00       58.018       24.293      -15.581       31.812       29.140       23.924     1011.996      849.134      572.355        0.332        0.122       62.899        6.979        0.012      332.379        1.002      872.744
01/15/2022  09:15:00       56.363       35.015      -17.054       33.345       50.583       24.885     1111.867     2558.610      619.285        0.449        0.214       66.354       12.851        0.038      332.337        0.935      872.745
01/15/2022  09:16:00       40.350      -64.369      -31.789       33.410       25.510       19.799     1116.221      650.777      392.013        0.447        0.108       75.971       11.675        0.024      332.308        0.887      872.755
01/15/2022  09:17:00        9.133      -38.425       -9.891       42.147       45.078       27.489     1776.350     2032.054      755.642        0.311        0.228       39.496       35.042        0.787      332.355        0.964      872.764
01/15/2022  09:18:00       10.783      -19.602       -8.767       22.369       43.071       23.629      500.373     1855.072      558.326        0.175        0.146       22.372       11.964        0.286      332.710        1.550      872.787
01/15/2022  09:19:00       50.280      -33.975      -35.277       35.294       54.982       25.728     1245.684     3022.973      661.916        0.493        0.247       60.683       20.185        0.111      332.617        1.397      872.799
01/15/2022  09:20:00       52.019       -3.135      -21.761       46.439       53.193       35.013     2156.538     2829.458     1225.893        0.470        0.311       52.114       32.407        0.387      332.557        1.298      872.812
01/15/2022  09:21:00       28.715      -27.762      -19.356       33.935       41.222       28.328     1151.600     1699.280      802.449        0.281        0.183       39.941       15.893        0.158      332.495        1.194      872.783
01/15/2022  09:22:00       74.804      -54.575      -34.550       45.501       48.594       26.501     2070.375     2361.424      702.280        0.745        0.257       92.596       18.525        0.040      332.592        1.357      872.742
01/15/2022  09:23:00       74.650      -39.194      -28.046       39.268       46.761       40.495     1541.973     2186.587     1639.809        0.663        0.268       84.314       27.739        0.108      332.558        1.300      872.730
01/15/2022  09:24:00       76.930      -21.426      -19.842       59.953       47.566       35.225     3594.362     2262.530     1240.820        0.693        0.355       79.858       30.308        0.144      332.486        1.181      872.739
01/15/2022  09:25:00       54.038      -21.444      -22.602       58.218       38.576       30.848     3389.307     1488.088      951.629        0.486        0.291       58.137       27.121        0.218      332.490        1.186      872.773
01/15/2022  09:26:00       73.117        0.529      -16.870       53.297       55.392       44.817     2840.566     3068.292     2008.531        0.677        0.396       73.119       36.259        0.246      332.635        1.426      872.777
01/15/2022  09:27:00       75.809      -30.613      -28.383       31.021       47.427       31.186      962.333     2249.339      972.553        0.584        0.209       81.756       14.445        0.031      332.556        1.295      872.759
01/15/2022  09:28:00       99.150       -8.549      -14.370       55.546       39.376       35.539     3085.391     1550.436     1263.004        0.800        0.295       99.518       19.717        0.039      332.474        1.160      872.757
01/15/2022  09:29:00       77.966      -19.192      -33.631       66.251       70.981       34.626     4389.234     5038.248     1198.988        0.910        0.531       80.294       27.653        0.119      332.478        1.168      872.752
01/15/2022  09:30:00      126.102      -65.431      -39.758       33.171       42.267       24.784     1100.296     1786.460      614.259        1.263        0.175      142.067       22.653        0.025      332.306        0.881      872.736
01/15/2022  09:31:00       65.199      -33.871      -10.272       54.193       40.706       33.658     2936.855     1656.950     1132.841        0.561        0.286       73.472       25.040        0.116      332.671        1.486      872.762
01/15/2022  09:32:00       69.286      -53.931      -31.926       60.131       46.594       37.587     3615.709     2170.992     1412.781        0.796        0.360       87.801       34.127        0.151      332.725        1.575      872.753
01/15/2022  09:33:00      115.166      -30.422      -18.167       33.385       24.677       23.861     1114.529      608.934      569.352        0.841        0.115      119.116       17.579        0.022      332.375        0.996      872.732
01/15/2022  09:34:00      102.696      -12.426      -35.578       42.980       55.046       30.289     1847.289     3030.047      917.440        0.888        0.290      103.445       14.074        0.019      332.512        1.223      872.712
01/15/2022  09:35:00       83.785      -23.891      -32.544       39.910       51.949       35.082     1592.824     2698.703     1230.756        0.708        0.276       87.124       23.149        0.071      332.670        1.484      872.703
01/15/2022  09:36:00       41.374       15.814       11.257       47.466       39.657       31.356     2253.025     1572.682      983.188        0.345        0.240       44.293       19.061        0.185      332.804        1.706      872.720
01/15/2022  09:37:00       56.850       16.518      -11.310       55.013       51.829       37.811     3026.434     2686.279     1429.674        0.539        0.357       59.201       30.920        0.273      332.877        1.827      872.735
01/15/2022  09:38:00       27.864      -43.300      -12.483       51.136       46.547       34.855     2614.941     2166.617     1214.869        0.440        0.300       51.491       22.441        0.190      332.930        1.913      872.738
01/15/2022  09:39:00       64.803       54.280       -8.553       41.593       32.841       23.327     1729.979     1078.518      544.155        0.529        0.168       84.532       13.024        0.024      332.883        1.836      872.724
01/15/2022  09:40:00      117.314       54.147      -17.001       52.496       44.885       27.936     2755.878     2014.696      780.417        1.127        0.278      129.207       25.120        0.038      332.554        1.292      872.688
01/15/2022  09:41:00       54.961       11.880      -18.143       64.587       56.071       35.918     4171.429     3143.965     1290.110        0.605        0.430       56.231       21.522        0.146      333.034        2.086      872.664
01/15/2022  09:42:00       85.853      -44.019      -31.373       59.347       90.028       30.745     3522.047     8105.007      945.246        1.143        0.629       96.480       24.991        0.067      333.024        2.068      872.653
01/15/2022  09:43:00       81.859      -52.042      -54.189       46.565       70.715       40.184     2168.319     5000.600     1614.734        1.056        0.439       97.001       25.484        0.069      332.802        1.701      872.670
01/15/2022  09:44:00       83.950      -26.262      -46.865       60.502       50.574       37.017     3660.519     2557.761     1370.277        0.876        0.379       87.961       28.154        0.102      332.704        1.541      872.687
01/15/2022  09:45:00       97.485      -34.256      -44.364       54.994       51.260       37.029     3024.319     2627.558     1371.140        0.983        0.351      103.329       30.010        0.084      332.710        1.549      872.706
01/15/2022  09:46:00      134.880      -70.211      -40.959       47.315       57.684       27.189     2238.733     3327.460      739.247        1.555        0.315      152.060       20.834        0.019      332.715        1.558      872.721
01/15/2022  09:47:00       60.821      -17.903      -24.281       44.569       43.916       36.157     1986.376     1928.595     1307.362        0.491        0.261       63.401       22.108        0.122      333.138        2.258      872.711
01/15/2022  09:48:00       82.941       -4.520      -20.213       49.697       50.244       42.761     2469.804     2524.444     1828.536        0.706        0.341       83.064       29.428        0.126      332.908        1.877      872.722
01/15/2022  09:49:00       43.813       -6.110      -17.409       43.864       46.468       25.770     1924.040     2159.303      664.109        0.350        0.237       44.237        8.955        0.041      333.247        2.437      872.727
01/15/2022  09:50:00       56.457       -5.996      -14.493       61.932       72.221       49.269     3835.586     5215.862     2427.433        0.745        0.574       56.775       39.140        0.475      333.335        2.582      872.724
01/15/2022  09:51:00       89.162      -28.823      -14.565       57.199       60.341       37.636     3271.682     3641.042     1416.481        0.866        0.416       93.705       33.419        0.127      332.925        1.906      872.715
01/15/2022  09:52:00       80.121      -77.019      -44.850       40.549       59.065       36.119     1644.259     3488.719     1304.611        1.040        0.322      111.137       21.277        0.037      332.885        1.839      872.706
01/15/2022  09:53:00      131.107      -68.047      -28.025       48.190       42.801       36.909     2322.298     1831.889     1362.275        1.406        0.276      147.714       30.216        0.042      332.765        1.639      872.722
01/15/2022  09:54:00      109.884      -82.854      -24.904       37.990       25.334       21.475     1443.239      641.827      461.194        1.105        0.127      137.620       10.448        0.006      332.789        1.681      872.741
01/15/2022  09:55:00       77.850     -157.497      -28.436       37.730       61.574       24.966     1423.571     3791.397      623.318        1.876        0.292      175.687       19.559        0.012      332.966        1.973      872.762
01/15/2022  09:56:00       72.937      -11.672      -26.814       40.164       50.448       38.707     1613.160     2545.023     1498.212        0.591        0.283       73.865       18.656        0.064      333.377        2.653      872.793
01/15/2022  09:57:00       41.198      -14.350      -12.627       48.401       44.252       39.140     2342.659     1958.274     1531.952        0.395        0.292       43.626       32.402        0.552      333.358        2.622      872.809
01/15/2022  09:58:00      -28.354      -42.339       -6.514       49.566       51.469       30.235     2456.808     2649.018      914.168        0.433        0.301       50.956       18.751        0.135      333.374        2.647      872.811
01/15/2022  09:59:00       27.420      -54.702      -13.870       77.899       62.280       36.362     6068.270     3878.749     1322.173        0.760        0.563       61.190       46.674        0.582      333.210        2.375      872.790
01/15/2022  10:00:00       76.886      -47.001      -28.453       49.808       47.217       29.726     2480.812     2229.447      883.623        0.726        0.280       90.114       26.790        0.088      333.223        2.399      872.767
01/15/2022  10:01:00       74.532      -42.914      -19.471       47.527       39.185       34.972     2258.829     1535.438     1223.058        0.640        0.251       86.004       32.317        0.141      333.098        2.190      872.729
01/15/2022  10:02:00       60.082       19.275      -24.916       31.135       45.999       27.419      969.407     2115.872      751.797        0.422        0.192       63.098       12.598        0.040      333.220        2.393      872.712
01/15/2022  10:03:00       12.330      -13.752       -7.898       46.243       36.714       31.967     2138.425     1347.882     1021.862        0.246        0.225       18.470       29.997        2.638      333.677        3.149      872.706
01/15/2022  10:04:00        2.755        0.266      -10.968       58.599       27.759       21.218     3433.795      770.536      450.195        0.239        0.233        2.767       16.566       35.835      333.449        2.772      872.716
01/15/2022  10:05:00      146.954       72.061      -20.270       27.744       26.650       20.323      769.726      710.208      413.011        1.455        0.095      163.671       12.305        0.006      332.947        1.940      872.717
01/15/2022  10:06:00      135.707       66.409      -26.548       36.521       36.339       18.137     1333.812     1320.533      328.964        1.326        0.149      151.084       12.306        0.007      332.896        1.856      872.699
01/15/2022  10:07:00      119.277       25.303      -22.191       78.734       50.084       23.286     6198.974     2508.360      542.229        1.230        0.462      121.931       32.420        0.071      332.939        1.926      872.673
01/15/2022  10:08:00       16.155       29.752      -10.826       44.999       43.462       27.193     2024.919     1888.910      739.466        0.296        0.233       33.855       21.532        0.405      333.689        3.170      872.648
01/15/2022  10:09:00       95.214       -0.952      -25.274       49.061       58.239       37.483     2406.962     3391.745     1404.974        0.845        0.360       95.219       30.017        0.099      333.374        2.648      872.638
01/15/2022  10:10:00       56.625      -13.479       -5.146       39.466       33.219       23.375     1557.558     1103.479      546.382        0.331        0.160       58.207       25.324        0.189      333.445        2.766      872.614
01/15/2022  10:11:00       52.273        3.729      -14.213       52.019       65.384       41.159     2705.955     4275.085     1694.072        0.581        0.434       52.405       19.578        0.140      333.726        3.229      872.590
01/15/2022  10:12:00       69.084      -10.104      -14.053       54.061       46.995       42.725     2922.540     2208.569     1825.451        0.601        0.348       69.818       31.280        0.201      333.499        2.856      872.593
01/15/2022  10:13:00       81.580        9.123      -21.317       51.999       46.885       33.536     2703.852     2198.157     1124.644        0.661        0.301       82.089       13.992        0.029      333.617        3.049      872.603
01/15/2022  10:14:00       69.825       29.032       -6.966       74.864       49.840       23.453     5604.676     2483.986      550.049        0.720        0.432       75.619       16.053        0.045      333.416        2.718      872.627
01/15/2022  10:15:00      124.691       41.941      -21.282       43.812       45.732       23.230     1919.491     2091.460      539.630        1.115        0.228      131.555       23.359        0.032      333.267        2.471      872.644
01/15/2022  10:16:00       54.036       37.889      -27.230       42.749       29.751       27.385     1827.449      885.152      749.949        0.428        0.173       65.996       17.239        0.068      333.908        3.532      872.631
01/15/2022  10:17:00       60.599     -109.351      -34.166       64.317       64.556       20.992     4136.675     4167.531      440.665        1.277        0.437      125.019       27.778        0.049      333.375        2.650      872.610
01/15/2022  10:18:00       95.229      -71.007      -33.305       21.183       46.327       15.830      448.719     2146.149      250.603        0.903        0.142      118.787       15.089        0.016      333.192        2.348      872.579
01/15/2022  10:19:00       71.305      -62.703      -20.149       32.062       50.952       21.280     1027.955     2596.086      452.851        0.675        0.204       94.953       20.471        0.046      333.516        2.883      872.561
01/15/2022  10:20:00       90.072     -190.598      -45.616       33.418       35.969       24.825     1116.772     1293.777      616.291        2.477        0.151      210.809       21.893        0.011      333.289        2.504      872.536
01/15/2022  10:21:00      113.922     -168.521      -52.789       20.452       42.784       16.659      418.269     1830.446      277.524        2.334        0.126      203.415        9.169        0.002      333.164        2.299      872.561
01/15/2022  10:22:00       91.864     -153.697      -39.214       29.589       55.785       19.892      875.514     3112.013      395.707        1.899        0.219      179.058       16.247        0.008      333.368        2.637      872.627
01/15/2022  10:23:00       83.256      -79.051      -31.023       20.532       29.666       20.347      421.572      880.072      413.995        0.793        0.086      114.807       12.925        0.013      333.349        2.608      872.617
01/15/2022  10:24:00       54.151      -26.820      -25.321       37.728       41.119       32.783     1423.419     1690.795     1074.736        0.424        0.209       60.429       17.866        0.087      333.938        3.583      872.622
01/15/2022  10:25:00       15.369       20.621       -4.185       29.758       42.565       23.092      885.515     1811.785      533.236        0.195        0.162       25.718       17.080        0.441      334.051        3.769      872.612
01/15/2022  10:26:00       45.052      -15.766      -21.047       50.820       51.632       31.424     2582.708     2665.875      987.449        0.448        0.312       47.731       26.259        0.303      334.091        3.834      872.591
01/15/2022  10:27:00       86.123        7.077      -22.081       42.952       39.668       25.741     1844.864     1573.554      662.583        0.602        0.204       86.414       17.268        0.040      333.742        3.256      872.580
01/15/2022  10:28:00       74.219      -24.417      -21.380       26.311       35.661       26.264      692.269     1271.680      689.812        0.461        0.133       78.132       13.327        0.029      333.723        3.226      872.556
01/15/2022  10:29:00       94.797     -141.150      -41.122       53.490       48.713       33.227     2861.172     2372.929     1104.024        1.847        0.317      170.029       25.883        0.023      333.731        3.238      872.520
01/15/2022  10:30:00       55.751      -57.298       -7.446       48.085       52.518       34.450     2312.125     2758.133     1186.779        0.635        0.313       79.945       28.338        0.126      333.689        3.170      872.481
01/15/2022  10:31:00       64.756      -40.476      -29.619       74.050       61.670       30.311     5483.391     3803.182      918.761        0.846        0.510       76.365       21.992        0.083      333.767        3.299      872.453
01/15/2022  10:32:00       58.145       95.580      -10.125       47.263       44.719       35.708     2233.812     1999.823     1275.079        0.906        0.275      111.877       28.312        0.064      333.721        3.222      872.450
01/15/2022  10:33:00       29.354       68.402       10.457       33.318       57.428       29.020     1110.109     3297.974      842.182        0.545        0.263       74.434       31.616        0.180      333.987        3.663      872.436
01/15/2022  10:34:00       61.925      -54.845      -15.856       35.850       27.636       26.065     1285.234      763.735      679.394        0.491        0.136       82.720       25.195        0.093      334.093        3.839      872.427
01/15/2022  10:35:00       34.666      -19.198      -19.176       45.437       43.022       36.563     2064.551     1850.931     1336.858        0.359        0.263       39.627       21.120        0.284      334.298        4.179      872.423
01/15/2022  10:36:00       31.977      -60.965      -27.497       46.782       65.615       39.559     2188.534     4305.377     1564.875        0.678        0.403       68.842       30.794        0.200      334.450        4.430      872.432
01/15/2022  10:37:00       20.687      -38.895       -9.709       48.528       63.134       38.110     2355.006     3985.890     1452.339        0.491        0.390       44.055       29.388        0.445      334.356        4.274      872.440
01/15/2022  10:38:00       51.792      -62.762      -20.109       53.749       66.530       34.801     2888.909     4426.270     1211.080        0.777        0.426       81.373       35.233        0.187      334.046        3.761      872.425
01/15/2022  10:39:00       20.746       -3.544       -7.710       22.791       42.626       21.248      519.410     1816.961      451.466        0.164        0.139       21.047       12.597        0.358      334.294        4.171      872.392
01/15/2022  10:40:00       33.527      -16.352      -11.180       37.564       38.621       26.958     1411.057     1491.553      726.733        0.257        0.181       37.303       19.531        0.274      334.453        4.434      872.377
01/15/2022  10:41:00       15.002      -34.658      -18.304       42.796       50.942       31.420     1831.463     2595.037      987.240        0.359        0.271       37.765       22.563        0.357      334.298        4.177      872.373
01/15/2022  10:42:00       56.079      -29.156       -6.773       61.430       64.696       37.745     3773.675     4185.582     1424.660        0.671        0.469       63.206       32.991        0.272      334.234        4.071      872.368
01/15/2022  10:43:00       58.793        7.197        1.809       46.984       49.982       33.581     2207.539     2498.200     1127.689        0.467        0.292       59.232       22.263        0.141      334.247        4.092      872.355
01/15/2022  10:44:00      135.606       42.481      -14.137       55.849       53.351       31.388     3119.157     2846.323      985.221        1.367        0.348      142.104       21.450        0.023      333.914        3.541      872.350
01/15/2022  10:45:00      149.863       70.122      -31.281       29.164       34.273       19.002      850.559     1174.660      361.075        1.537        0.119      165.457       13.104        0.006      333.611        3.039      872.335
01/15/2022  10:46:00       70.657       25.522      -33.009       21.316       32.697       20.443      454.391     1069.070      417.901        0.434        0.097       75.125        8.585        0.013      333.608        3.035      872.318
01/15/2022  10:47:00      -13.745       12.051      -13.547       39.975       39.668       23.082     1598.002     1573.581      532.777        0.211        0.185       18.280       14.105        0.595      333.675        3.147      872.286
01/15/2022  10:48:00        4.076       49.616      -18.315       26.075       33.010       17.008      679.880     1089.682      289.264        0.244        0.103       49.783       14.208        0.081      333.754        3.278      872.270
01/15/2022  10:49:00       34.672       73.686       -9.413       38.953       36.064       29.646     1517.352     1300.643      878.891        0.521        0.185       81.435       25.467        0.098      333.996        3.678      872.281
01/15/2022  10:50:00       48.804       61.145       -5.730       45.472       35.020       29.822     2067.745     1226.370      889.354        0.517        0.209       78.234       29.903        0.146      334.009        3.698      872.270
01/15/2022  10:51:00       96.942       72.966      -18.455       54.448       46.320       37.400     2964.616     2145.557     1398.740        1.078        0.325      121.334       29.304        0.058      334.278        4.145      872.254
01/15/2022  10:52:00      117.983       32.607      -26.464       58.058       51.017       29.684     3370.737     2602.720      881.126        1.127        0.343      122.406       22.300        0.033      334.181        3.984      872.239
01/15/2022  10:53:00       40.998      -14.406      -20.201       42.534       54.727       33.361     1809.115     2995.028     1112.958        0.411        0.296       43.455       17.322        0.159      334.439        4.412      872.226
01/15/2022  10:54:00       43.721       18.505      -17.275       48.632       58.548       36.941     2365.097     3427.905     1364.669        0.485        0.358       47.476       25.459        0.288      334.313        4.202      872.230
01/15/2022  10:55:00       96.644      -10.120       -7.463       75.625       53.041       41.293     5719.147     2813.374     1705.142        0.987        0.512       97.173       36.562        0.142      334.040        3.751      872.238
01/15/2022  10:56:00       66.611      -21.786      -16.168       68.221       46.719       30.503     4654.112     2182.692      930.459        0.647        0.388       70.083        8.654        0.015      333.949        3.599      872.252
01/15/2022  10:57:00       70.351        3.027      -11.603       48.735       61.788       35.342     2375.063     3817.797     1249.076        0.627        0.372       70.416       24.750        0.124      334.170        3.966      872.255
01/15/2022  10:58:00       81.105       45.756      -24.374       62.764       60.144       38.700     3939.297     3617.247     1497.672        0.916        0.453       93.121       33.304        0.128      334.085        3.824      872.256
01/15/2022  10:59:00       67.619       26.527      -13.725       55.395       72.305       34.636     3068.627     5228.082     1199.670        0.748        0.475       72.636       32.970        0.206      334.141        3.917      872.242
01/15/2022  11:00:00      118.558       71.322      -14.294       33.043       32.777       19.606     1091.853     1074.302      384.380        1.095        0.128      138.357       14.492        0.011      333.895        3.509      872.221
01/15/2022  11:01:00       76.182       72.749      -20.845       31.186       23.419       16.809      972.570      548.435      282.545        0.667        0.090      105.339        7.037        0.004      333.807        3.365      872.224
01/15/2022  11:02:00      105.122       67.054      -25.714       22.707       19.480       12.741      515.630      379.490      162.335        0.863        0.053      124.687        7.556        0.004      333.692        3.176      872.211
01/15/2022  11:03:00       46.983        9.450      -24.347       19.832       34.809       21.625      393.319     1211.661      467.619        0.248        0.104       47.924        9.650        0.041      333.830        3.402      872.205
01/15/2022  11:04:00       52.825      -28.566      -16.742       38.599       34.102       25.115     1489.895     1162.945      630.772        0.358        0.164       60.054       24.473        0.166      334.082        3.819      872.199
01/15/2022  11:05:00       80.234      -44.195      -18.580       27.913       28.163       21.604      779.114      793.129      466.745        0.539        0.102       91.601       19.222        0.044      334.089        3.832      872.185
01/15/2022  11:06:00       89.388      -88.819      -38.727       34.621       38.678       22.752     1198.638     1495.960      517.663        1.029        0.161      126.012       22.678        0.032      333.955        3.609      872.142
01/15/2022  11:07:00       88.393      -79.855      -35.766       20.550       38.736       19.773      422.297     1500.507      390.984        0.889        0.116      119.122       15.113        0.016      333.906        3.529      872.121
01/15/2022  11:08:00       46.041     -102.008      -40.675       30.699       39.023       27.999      942.443     1522.761      783.950        0.871        0.162      111.917       17.959        0.026      334.028        3.733      872.113
01/15/2022  11:09:00       91.574      -59.356      -25.385       33.686       48.882       23.739     1134.729     2389.447      563.541        0.832        0.204      109.128       25.475        0.054      334.007        3.696      872.113
01/15/2022  11:10:00       68.524       58.087      -23.092       28.972       35.284       26.679      839.365     1244.951      711.784        0.570        0.140       89.831        8.214        0.008      334.058        3.780      872.104
01/15/2022  11:11:00       24.769       10.734       -3.186       37.852       47.532       28.878     1432.737     2259.292      833.939        0.263        0.226       26.995       22.140        0.673      334.387        4.325      872.077
01/15/2022  11:12:00        5.108       -5.861      -11.734       19.291       32.572       20.647      372.140     1060.952      426.307        0.103        0.093        7.774       11.088        2.034      334.614        4.703      872.058
01/15/2022  11:13:00       57.090       -2.739      -16.641       67.214       47.838       31.973     4517.747     2288.478     1022.280        0.568        0.391       57.156       21.102        0.136      334.425        4.389      872.028
01/15/2022  11:14:00       95.635      -68.865      -27.737       57.258       41.942       32.886     3278.533     1759.156     1081.502        1.039        0.306      117.849       15.191        0.017      334.195        4.006      871.995
01/15/2022  11:15:00       77.491      -60.326      -39.669       59.250       53.473       34.700     3510.602     2859.385     1204.120        0.939        0.379       98.204       12.118        0.015      334.320        4.215      871.982
01/15/2022  11:16:00       90.974       -4.633      -20.403       80.660       52.853       43.814     6506.038     2793.435     1919.686        0.996        0.561       91.092       40.582        0.198      334.242        4.083      871.979
01/15/2022  11:17:00       77.906      -26.903      -26.566       67.839       58.766       39.846     4602.084     3453.470     1587.692        0.857        0.482       82.420       28.937        0.123      334.481        4.482      871.963
01/15/2022  11:18:00       71.446      -23.919      -10.998       44.726       29.698       29.022     2000.375      881.969      842.303        0.476        0.186       75.343       28.081        0.139      334.406        4.358      871.955
01/15/2022  11:19:00       66.975       15.539      -17.103       27.633       35.334       22.402      763.595     1248.502      501.867        0.377        0.126       68.754        6.375        0.009      334.071        3.803      871.946
01/15/2022  11:20:00       10.219       12.490       -5.546       19.091       22.670       19.748      364.474      513.910      390.001        0.078        0.063       16.138       14.204        0.775      334.491        4.498      871.928
01/15/2022  11:21:00       53.424      -78.331      -21.216       57.898       67.570       33.228     3352.192     4565.751     1104.092        0.923        0.451       94.815       26.592        0.079      334.614        4.703      871.907
01/15/2022  11:22:00       94.164       17.479      -19.594       37.855       47.819       24.617     1432.970     2286.660      605.977        0.694        0.216       95.772       12.865        0.018      334.197        4.010      871.909
01/15/2022  11:23:00       52.244      -13.005      -18.339       44.881       73.467       37.979     2014.278     5397.410     1442.367        0.604        0.443       53.838       28.983        0.290      334.649        4.761      871.905
01/15/2022  11:24:00      -15.656       -0.455      -13.091       40.525       48.061       27.671     1642.275     2309.894      765.699        0.257        0.236       15.663       14.459        0.852      334.892        5.165      871.891
01/15/2022  11:25:00        8.404      -12.546      -11.807       49.987       59.747       33.552     2498.677     3569.685     1125.737        0.378        0.360       15.101       25.852        2.931      335.024        5.384      871.863
01/15/2022  11:26:00       33.127     -148.130      -20.702       42.220       65.838       31.843     1782.512     4334.703     1013.982        1.530        0.357      151.790       28.964        0.036      334.660        4.778      871.821
01/15/2022  11:27:00        2.932     -162.112      -36.722       37.906       42.876       37.870     1436.833     1838.309     1434.143        1.617        0.235      162.139       21.693        0.018      334.535        4.571      871.774
01/15/2022  11:28:00       24.035      -58.259      -23.282       46.855       53.057       30.073     2195.434     2815.062      904.413        0.521        0.296       63.022       32.823        0.271      334.886        5.155      871.751
01/15/2022  11:29:00       -4.905        9.500       -8.353       34.814       39.288       33.547     1212.028     1543.510     1125.401        0.203        0.194       10.691       13.617        1.622      334.930        5.228      871.734
01/15/2022  11:30:00        2.340       -1.529      -29.307       36.142       32.323       23.161     1306.262     1044.765      536.436        0.188        0.144        2.795       10.049       12.925      334.771        4.965      871.720
01/15/2022  11:31:00        6.974      -35.837       -8.981       23.196       28.387       19.182      538.068      805.825      367.937        0.156        0.086       36.509       14.383        0.155      334.997        5.341      871.726
01/15/2022  11:32:00      -18.589      -39.926      -21.744       33.964       28.883       21.489     1153.567      834.237      461.785        0.243        0.122       44.041       18.829        0.183      334.839        5.077      871.703
01/15/2022  11:33:00       -6.668       -0.722      -20.250       15.537       21.775       16.753      241.386      474.133      280.652        0.073        0.050        6.707       11.175        2.777      334.882        5.148      871.678
01/15/2022  11:34:00      -23.846       23.943       -7.612       20.385       20.823       19.146      415.537      433.582      366.552        0.121        0.061       33.792       18.227        0.291      334.777        4.973      871.645
01/15/2022  11:35:00      -14.012       -6.189      -10.845       26.411       44.454       25.020      697.561     1976.121      625.987        0.183        0.165       15.318       10.014        0.427      334.838        5.076      871.640
01/15/2022  11:36:00      -30.787      -16.618      -15.684       35.860       57.541       36.182     1285.916     3310.915     1309.136        0.369        0.295       34.986       16.436        0.221      334.860        5.111      871.617
01/15/2022  11:37:00       -5.003        1.478      -20.889       20.789       28.464       17.868      432.170      810.193      319.277        0.101        0.078        5.216        8.868        2.890      334.894        5.169      871.611
01/15/2022  11:38:00      -18.034      -12.979      -14.449       33.110       24.284       21.723     1096.260      589.731      471.867        0.143        0.108       22.219       16.124        0.527      334.807        5.023      871.594
01/15/2022  11:39:00      -58.183      -22.043      -15.068       39.024       36.342       31.351     1522.849     1320.743      982.909        0.396        0.191       62.219       26.485        0.181      334.827        5.055      871.576
01/15/2022  11:40:00      -35.370       23.849       -5.521       31.511       19.936       14.461      992.927      397.462      209.116        0.172        0.080       42.659        8.916        0.044      334.875        5.136      871.554
01/15/2022  11:41:00      -37.523       26.674      -17.653       25.057       23.548       15.546      627.863      554.495      241.689        0.193        0.071       46.038        7.230        0.025      334.968        5.290      871.520
01/15/2022  11:42:00       11.491      -45.168      -23.233       50.764       57.885       26.106     2576.973     3350.669      681.515        0.466        0.330       46.607       20.050        0.185      334.977        5.306      871.484
01/15/2022  11:43:00       31.431      -31.739      -18.623       40.974       37.571       24.365     1678.875     1411.574      593.633        0.301        0.184       44.668       20.297        0.206      335.007        5.355      871.468
01/15/2022  11:44:00       45.470      -35.376      -20.440       42.710       26.991       26.880     1824.167      728.493      722.560        0.351        0.164       57.610       21.093        0.134      334.895        5.170      871.460
01/15/2022  11:45:00       19.124       -6.710       -0.359       41.908       38.715       27.933     1756.298     1498.881      780.233        0.222        0.202       20.267       18.568        0.839      335.096        5.504      871.457
01/15/2022  11:46:00       83.637       44.437       -5.144       39.131       37.739       23.002     1531.197     1424.265      529.076        0.624        0.174       94.709       17.610        0.035      334.685        4.819      871.445
01/15/2022  11:47:00       19.242       22.066      -13.583       46.551       29.774       18.622     2166.964      886.488      346.773        0.222        0.170       29.277       12.378        0.179      335.002        5.346      871.441
01/15/2022  11:48:00        5.152      -80.290      -22.408       60.672       54.803       31.865     3681.046     3003.415     1015.366        0.734        0.385       80.455       34.951        0.189      335.030        5.392      871.420
01/15/2022  11:49:00       17.812      -98.851      -37.202       68.888       81.777       35.084     4745.613     6687.529     1230.918        1.207        0.633      100.443       35.971        0.128      335.002        5.346      871.393
01/15/2022  11:50:00      106.404     -107.749      -31.084       44.265       44.474       24.937     1959.372     1977.923      621.859        1.423        0.228      151.432       18.127        0.014      334.652        4.766      871.382
01/15/2022  11:51:00       68.069      -93.785      -17.137       38.718       45.844       32.475     1499.120     2101.658     1054.605        0.919        0.233      115.884       28.573        0.061      334.764        4.952      871.372
01/15/2022  11:52:00       40.768      -78.950      -17.497       40.580       35.279       28.694     1646.767     1244.621      823.362        0.596        0.186       88.855       23.260        0.069      334.811        5.030      871.357
01/15/2022  11:53:00       44.105     -102.749      -30.050       47.872       45.139       22.471     2291.708     2037.558      504.953        0.912        0.242      111.815        7.780        0.005      334.918        5.208      871.328
01/15/2022  11:54:00      102.872     -115.284      -49.756       50.131       70.585       39.779     2513.101     4982.263     1582.373        1.771        0.454      154.509       35.076        0.052      334.725        4.886      871.312
01/15/2022  11:55:00       50.682       25.449      -17.136       40.332       58.681       24.918     1626.674     3443.422      620.914        0.460        0.285       56.712       18.162        0.103      334.817        5.041      871.289
01/15/2022  11:56:00       91.186       34.778      -16.954       49.085       43.863       27.282     2409.366     1923.972      744.308        0.744        0.254       97.594       15.811        0.026      334.701        4.846      871.259
01/15/2022  11:57:00       75.854      -17.243      -16.904       53.672       61.324       35.325     2880.685     3760.593     1247.850        0.711        0.394       77.789       28.356        0.133      334.855        5.103      871.249
01/15/2022  11:58:00       56.360     -119.554      -33.015       43.953       77.516       30.398     1931.850     6008.671      924.010        1.371        0.443      132.173       24.070        0.033      334.828        5.057      871.239
01/15/2022  11:59:00       88.242     -172.634      -41.958       46.986       46.125       23.006     2207.655     2127.473      529.257        2.211        0.243      193.879       17.179        0.008      334.697        4.839      871.229
01/15/2022  12:00:00      131.791     -170.525      -49.612       39.662       69.819       30.824     1573.049     4874.737      950.100        2.815        0.370      215.517       28.843        0.018      334.690        4.827      871.214
01/15/2022  12:01:00      111.130      -90.233      -29.977       55.414       59.165       28.734     3070.722     3500.473      825.650        1.439        0.370      143.150       28.363        0.039      334.771        4.963      871.203
01/15/2022  12:02:00       78.155     -187.152      -44.628       32.178       37.152       27.765     1035.414     1380.289      770.914        2.316        0.159      202.815       22.528        0.012      334.636        4.738      871.180
01/15/2022  12:03:00      108.665      -47.382      -33.057       52.012       54.896       20.182     2705.287     3013.541      407.298        1.063        0.306      118.546       17.360        0.021      334.750        4.929      871.146
01/15/2022  12:04:00       59.961     -118.943      -28.802       33.096       42.197       25.741     1095.360     1780.573      662.611        1.105        0.177      133.202       21.826        0.027      335.045        5.419      871.111
01/15/2022  12:05:00       36.407      -17.837      -11.444       61.790       45.016       36.588     3818.024     2026.398     1338.698        0.448        0.359       40.542       29.627        0.534      334.983        5.316      871.081
01/15/2022  12:06:00       23.092        9.548      -16.713       22.394       39.186       17.169      501.505     1535.578      294.788        0.162        0.117       24.988        6.730        0.073      334.934        5.234      871.069
01/15/2022  12:07:00       15.554      -33.435      -13.195       54.617       48.512       34.294     2983.049     2353.449     1176.065        0.402        0.326       36.876       28.325        0.590      335.158        5.605      871.051
01/15/2022  12:08:00       92.588      -74.086      -25.280       43.390       41.704       23.366     1882.651     1739.212      545.974        0.943        0.208      118.580       17.272        0.021      334.763        4.951      871.036
01/15/2022  12:09:00       60.406      -99.469      -31.418       52.722       48.930       32.428     2779.658     2394.104     1051.602        1.038        0.311      116.374       29.099        0.063      334.944        5.249      871.020
01/15/2022  12:10:00       87.433      -81.268      -21.895       36.996       34.757       21.049     1368.714     1208.016      443.055        0.887        0.151      119.369       17.708        0.022      334.805        5.020      871.005
01/15/2022  12:11:00       96.883      -92.841      -35.029       58.118       58.561       31.066     3377.751     3429.384      965.096        1.350        0.389      134.185       36.056        0.072      334.766        4.954      870.979
01/15/2022  12:12:00       17.653      -66.346      -19.453       36.599       52.247       36.036     1339.478     2729.709     1298.594        0.523        0.268       68.654       26.271        0.146      335.054        5.435      870.966
01/15/2022  12:13:00      -19.018      -19.097       -5.145       31.487       45.261       24.659      991.462     2048.580      608.044        0.220        0.182       26.952       24.004        0.793      335.196        5.669      870.945
01/15/2022  12:14:00      -44.568       -3.483       -5.619       18.300       24.089       17.715      334.875      580.282      313.821        0.163        0.061       44.704       12.870        0.083      335.236        5.735      870.913
01/15/2022  12:15:00      -40.991       43.205       20.269       27.789       31.004       24.993      772.230      961.243      624.645        0.316        0.118       59.556       11.631        0.038      335.414        6.033      870.887
01/15/2022  12:16:00      -21.271       -2.921       -8.541       34.745       53.872       27.604     1207.247     2902.172      761.998        0.270        0.244       21.471       29.837        1.931      335.301        5.843      870.873
01/15/2022  12:17:00      -53.907      -33.293      -14.079       26.696       40.021       25.765      712.665     1601.684      663.821        0.359        0.149       63.359       11.601        0.034      334.966        5.289      870.878
01/15/2022  12:18:00      -35.133      -11.040        2.069       38.543       36.056       28.451     1485.567     1300.051      809.457        0.248        0.180       36.827       24.772        0.452      335.468        6.123      870.882
01/15/2022  12:19:00      -42.029      -23.558      -25.136       37.167       39.731       27.768     1381.378     1578.522      771.070        0.334        0.187       48.181       14.978        0.097      335.285        5.818      870.881
01/15/2022  12:20:00      -32.555      -23.943      -10.812       55.599       42.750       40.537     3091.290     1827.562     1643.247        0.415        0.328       40.412       21.897        0.294      335.258        5.773      870.872
01/15/2022  12:21:00      -82.678       -5.071      -12.014       52.891       50.556       35.954     2797.481     2555.924     1292.696        0.682        0.332       82.834       19.878        0.058      335.151        5.594      870.864
01/15/2022  12:22:00     -102.212      -83.694      -10.958       47.704       69.163       26.491     2275.674     4783.480      701.789        1.267        0.388      132.106       26.262        0.040      334.975        5.300      870.858
01/15/2022  12:23:00     -123.486      -91.444      -16.038       42.951       44.541       23.567     1844.830     1983.879      555.401        1.413        0.219      153.658       20.985        0.019      334.887        5.157      870.826
01/15/2022  12:24:00      -74.413       -3.461       -9.065       66.650       52.582       36.119     4442.231     2764.826     1304.616        0.707        0.426       74.494       29.362        0.155      335.205        5.686      870.739
01/15/2022  12:25:00      -21.490      -14.618      -11.856       34.790       37.231       21.793     1210.368     1386.135      474.922        0.194        0.154       25.991        4.698        0.033      335.411        6.027      870.698
01/15/2022  12:26:00      -19.819        7.311       -5.547       37.240       28.817       19.457     1386.834      830.435      378.570        0.154        0.130       21.124       18.521        0.769      335.368        5.953      870.692
01/15/2022  12:27:00      -19.426        9.170       -4.722       24.206       21.114       20.378      585.946      445.799      415.250        0.097        0.072       21.481       12.573        0.343      335.451        6.094      870.700
01/15/2022  12:28:00       26.953       -7.731      -13.257       42.577       53.883       39.394     1812.792     2903.363     1551.859        0.361        0.313       28.039       19.744        0.496      335.585        6.318      870.707
01/15/2022  12:29:00      -35.230      -16.244      -19.986       57.746       43.151       31.005     3334.655     1861.998      961.331        0.403        0.308       38.795       28.815        0.552      335.723        6.547      870.688
01/15/2022  12:30:00       27.491      -30.575      -13.398       40.721       45.779       29.604     1658.224     2095.742      876.404        0.325        0.232       41.117       19.434        0.223      335.717        6.537      870.677
01/15/2022  12:31:00       79.576       -0.155      -14.884       46.474       47.161       27.780     2159.827     2224.151      771.705        0.585        0.258       79.577       17.291        0.047      335.382        5.978      870.665
01/15/2022  12:32:00       60.759      -15.079        1.744       52.205       51.476       34.425     2725.350     2649.785     1185.072        0.524        0.328       62.602       31.574        0.254      335.715        6.534      870.651
01/15/2022  12:33:00       95.323        4.499      -21.495       54.275       67.834       30.788     2945.797     4601.429      947.871        0.903        0.425       95.429       27.756        0.085      335.339        5.907      870.646
01/15/2022  12:34:00       71.553       34.732      -17.244       44.209       33.463       28.505     1954.415     1119.790      812.555        0.525        0.194       79.537       22.975        0.083      335.318        5.872      870.630
01/15/2022  12:35:00       37.496       -1.009      -22.387       45.285       52.917       30.374     2050.742     2800.158      922.558        0.384        0.289       37.510       16.936        0.204      335.511        6.194      870.625
01/15/2022  12:36:00       54.837       -5.465      -13.135       52.614       73.857       33.092     2768.191     5454.919     1095.049        0.626        0.466       55.108       39.072        0.503      335.587        6.319      870.622
01/15/2022  12:37:00       47.691      -19.095      -24.424       25.488       59.285       21.359      649.641     3514.728      456.198        0.393        0.231       51.372       20.638        0.161      335.469        6.122      870.633
01/15/2022  12:38:00       91.838       39.521      -22.723       45.159       32.622       23.977     2039.293     1064.191      574.918        0.709        0.184       99.981       14.995        0.022      335.268        5.789      870.622
01/15/2022  12:39:00       43.048      -70.125      -18.499       41.052       22.389       21.686     1685.260      501.276      470.266        0.488        0.133       82.284       14.739        0.032      335.401        6.009      870.596
01/15/2022  12:40:00        6.562      -85.214      -16.945       41.740       35.812       25.422     1742.257     1282.526      646.272        0.563        0.184       85.466       21.394        0.063      335.551        6.259      870.580
01/15/2022  12:41:00       34.390      -30.113      -23.641       29.151       23.125       23.490      849.763      534.773      551.782        0.229        0.097       45.710        9.022        0.039      335.451        6.093      870.556
01/15/2022  12:42:00       -5.609      -12.310        1.382       13.866       17.590       22.168      192.253      309.403      491.429        0.059        0.050       13.527       13.270        0.962      335.829        6.725      870.551
01/15/2022  12:43:00       41.794       12.340      -14.435       40.096       31.030       21.580     1607.684      962.835      465.678        0.257        0.152       43.577       18.112        0.173      335.757        6.604      870.536
01/15/2022  12:44:00      -49.691      -37.987      -17.379       36.957       31.244       24.510     1365.840      976.176      600.734        0.358        0.147       62.548       20.246        0.105      335.761        6.610      870.538
01/15/2022  12:45:00      -21.069      -53.896      -11.957       53.198       60.879       38.762     2830.060     3706.197     1502.480        0.576        0.402       57.867       17.803        0.095      335.697        6.503      870.539
01/15/2022  12:46:00       69.390      -90.322      -26.461       62.796       80.625       39.761     3943.361     6500.361     1580.940        1.285        0.601      113.899       44.360        0.152      335.566        6.284      870.525
01/15/2022  12:47:00       84.280     -152.507      -31.613       46.287       46.896       36.753     2142.451     2199.192     1350.757        1.853        0.285      174.245       27.354        0.025      335.326        5.886      870.491
01/15/2022  12:48:00       98.457     -130.085      -44.177       32.221       44.344       19.669     1038.187     1966.348      386.870        1.598        0.170      163.143       19.223        0.014      335.188        5.657      870.474
01/15/2022  12:49:00       86.286     -102.346      -37.567       37.644       55.171       26.152     1417.103     3043.849      683.942        1.224        0.257      133.866       23.538        0.031      335.341        5.910      870.456
01/15/2022  12:50:00      102.229      -61.350      -35.040       34.974       46.764       27.152     1223.161     2186.902      737.225        0.979        0.207      119.225       22.113        0.034      335.510        6.192      870.447
01/15/2022  12:51:00       85.429        1.129      -25.153       23.475       29.425       15.548      551.078      865.842      241.753        0.480        0.083       85.436       12.113        0.020      335.335        5.901      870.426
01/15/2022  12:52:00       40.699       -8.731      -16.682       49.466       48.033       37.114     2446.854     2307.211     1377.418        0.407        0.307       41.625       26.818        0.415      335.698        6.506      870.401
01/15/2022  12:53:00       29.915       -6.059      -13.755       41.067       49.332       45.106     1686.474     2433.615     2034.579        0.364        0.308       30.522       29.131        0.911      335.712        6.529      870.379
01/15/2022  12:54:00        9.308      -26.483       -3.467       40.508       35.184       30.495     1640.906     1237.939      929.917        0.230        0.190       28.071       14.518        0.267      335.900        6.842      870.370
01/15/2022  12:55:00       19.154       -1.393      -27.039       38.733       45.218       29.947     1500.280     2044.655      896.846        0.277        0.222       19.204       17.938        0.872      336.078        7.139      870.348
01/15/2022  12:56:00       25.533      -59.835      -23.894       52.960       50.405       35.780     2804.762     2540.673     1280.176        0.571        0.331       65.055       22.718        0.122      335.776        6.635      870.321
01/15/2022  12:57:00        2.334      -33.495      -28.086       22.950       43.045       23.498      526.712     1852.902      552.165        0.242        0.147       33.576        5.917        0.031      335.850        6.759      870.298
01/15/2022  12:58:00      -25.334      -37.764      -25.323       46.256       33.259       27.081     2139.600     1106.159      733.364        0.334        0.199       45.474       22.743        0.250      335.881        6.809      870.272
01/15/2022  12:59:00       26.021      -23.208      -12.426       51.937       50.779       28.662     2697.464     2578.461      821.510        0.373        0.305       34.867       23.935        0.471      335.822        6.712      870.260
01/15/2022  13:00:00       54.364       19.029      -21.788       44.843       47.968       24.463     2010.926     2300.937      598.457        0.435        0.246       57.598       20.429        0.126      335.667        6.455      870.233
01/15/2022  13:01:00       22.420       -0.419       -5.610       25.350       41.663       24.171      642.635     1735.813      584.247        0.175        0.148       22.424       16.961        0.572      335.821        6.709      870.215
01/15/2022  13:02:00       68.027      -58.309      -20.293       29.625       28.752       26.378      877.638      826.683      695.819        0.542        0.120       89.597       13.678        0.023      335.448        6.088      870.184
01/15/2022  13:03:00       17.739       -7.065        1.545       26.231       30.666       26.490      688.091      940.419      701.745        0.135        0.117       19.094       17.596        0.849      335.749        6.591      870.154
01/15/2022  13:04:00       52.910       62.791       -1.245       46.353       32.468       26.573     2148.572     1054.196      706.132        0.533        0.195       82.110       20.972        0.065      335.493        6.163      870.130
01/15/2022  13:05:00       29.489       46.031      -18.662       26.081       32.299       17.737      680.244     1043.225      314.601        0.269        0.102       54.667       10.982        0.040      335.414        6.032      870.105
01/15/2022  13:06:00       23.443      -15.582      -10.758       18.111       25.445       19.390      328.010      647.448      375.967        0.113        0.068       28.149       17.056        0.367      335.713        6.530      870.086
01/15/2022  13:07:00       32.308       -4.835      -13.403       19.459       37.586       16.719      378.638     1412.731      279.521        0.166        0.104       32.667       18.153        0.309      335.677        6.470      870.075
01/15/2022  13:08:00       70.971      -38.954      -26.204       59.510       57.468       38.113     3541.382     3302.587     1452.614        0.777        0.415       80.958       34.617        0.183      335.736        6.567      870.076
01/15/2022  13:09:00      115.347     -130.640      -47.994       77.664       79.129       47.902     6031.766     6261.455     2294.645        2.363        0.729      174.275       48.804        0.078      335.549        6.255      870.050
01/15/2022  13:10:00       89.516     -106.861      -23.401       42.282       49.048       34.972     1787.787     2405.733     1223.015        1.270        0.271      139.400       29.535        0.045      335.410        6.026      870.051
01/15/2022  13:11:00       84.516     -142.075      -41.895       39.333       59.273       31.195     1547.078     3513.341      973.109        1.756        0.302      165.313       23.956        0.021      335.483        6.147      870.034
01/15/2022  13:12:00       67.222      -70.350      -29.136       54.826       51.386       34.997     3005.914     2640.557     1224.797        0.859        0.344       97.304       34.401        0.125      335.724        6.548      870.009
01/15/2022  13:13:00       30.856      -75.259      -22.311       42.886       38.293       27.645     1839.241     1466.377      764.239        0.559        0.203       81.339       29.071        0.128      335.887        6.821      869.981
01/15/2022  13:14:00       57.354      -93.296      -26.786       35.051       37.138       25.439     1228.591     1379.260      647.118        0.798        0.163      109.515       16.616        0.023      335.634        6.398      869.961
01/15/2022  13:15:00       70.674      -79.206      -26.574       41.042       34.858       24.625     1684.428     1215.101      606.391        0.774        0.175      106.152       20.920        0.039      335.616        6.369      869.957
01/15/2022  13:16:00       13.053      -45.670      -25.688       50.382       68.905       28.492     2538.396     4747.856      811.774        0.551        0.405       47.499       11.488        0.058      335.935        6.901      869.946
01/15/2022  13:17:00      101.979     -100.657      -27.785       53.352       75.390       38.665     2846.479     5683.622     1494.977        1.566        0.501      143.288       43.154        0.091      335.486        6.151      869.938
01/15/2022  13:18:00        9.645      -49.053      -18.064       61.288       57.505       34.334     3756.240     3306.855     1178.846        0.553        0.412       49.993       29.428        0.347      335.821        6.710      869.916
01/15/2022  13:19:00       43.813      -26.273      -23.925       54.862       56.087       32.219     3009.831     3145.791     1038.060        0.519        0.360       51.086        6.019        0.014      335.672        6.461      869.894
01/15/2022  13:20:00       73.946       10.008      -18.510       34.567       27.814       18.279     1194.861      773.613      334.116        0.411        0.115       74.620       12.831        0.030      335.446        6.086      869.859
01/15/2022  13:21:00       55.518       33.321      -12.950       22.721       15.360       13.878      516.222      235.924      192.607        0.265        0.047       64.750       12.825        0.039      335.366        5.953      869.830
01/15/2022  13:22:00       60.652       25.484      -11.164       26.612       31.225       17.668      708.208      975.010      312.168        0.322        0.100       65.789       12.563        0.036      335.544        6.250      869.801
01/15/2022  13:23:00       17.397       -3.535       -8.852       57.108       49.434       31.232     3261.325     2443.738      975.421        0.354        0.334       17.753       29.860        2.829      335.814        6.698      869.791
01/15/2022  13:24:00       93.375     -124.661      -45.235       58.928       47.964       24.306     3472.564     2300.531      590.772        1.633        0.318      155.754       17.294        0.012      335.580        6.308      869.798
01/15/2022  13:25:00       87.433     -102.465      -31.759       28.216       54.529       31.651      796.166     2973.442     1001.784        1.196        0.239      134.698       21.206        0.025      335.550        6.257      869.794
01/15/2022  13:26:00       78.596     -109.994      -36.166       20.057       30.760       17.755      402.278      946.187      315.256        1.062        0.083      135.189       13.034        0.009      335.439        6.070      869.768
01/15/2022  13:27:00      100.184     -124.290      -33.738       29.380       31.265       20.751      863.211      977.476      430.622        1.445        0.114      159.640       17.119        0.011      335.420        6.043      869.729
01/15/2022  13:28:00       35.819      -31.588      -12.187       37.601       49.183       20.949     1413.856     2418.951      438.845        0.335        0.214       47.758       25.039        0.275      335.660        6.443      869.702
01/15/2022  13:29:00       30.252      -22.026      -16.786       53.774       30.968       17.192     2891.695      959.009      295.556        0.291        0.207       37.421       17.526        0.219      335.823        6.714      869.680
01/15/2022  13:30:00       35.336      -43.005      -18.653       27.984       28.927       26.784      783.125      836.791      717.379        0.289        0.117       55.660       10.972        0.039      335.818        6.705      869.675
01/15/2022  13:31:00        1.915      -40.776      -24.601       16.160       22.345       18.419      261.160      499.304      339.277        0.169        0.055       40.821       13.120        0.103      335.944        6.916      869.669
01/15/2022  13:32:00        1.084      -10.872       -6.217       10.489       20.518       15.397      110.011      420.973      237.070        0.046        0.038       10.926       12.654        1.341      336.358        7.605      869.660
01/15/2022  13:33:00      -31.924       26.120       -2.428       31.462       28.532       15.587      989.832      814.060      242.945        0.188        0.102       41.248       14.179        0.118      336.225        7.384      869.637
01/15/2022  13:34:00       20.071       40.851        6.677       53.308       34.002       19.336     2841.707     1156.102      373.862        0.324        0.219       45.516       13.983        0.094      336.031        7.060      869.622
01/15/2022  13:35:00       57.495       35.189       -4.710       41.929       29.150       20.609     1758.071      849.694      424.735        0.380        0.152       67.409       18.195        0.073      335.676        6.467      869.591
01/15/2022  13:36:00       85.731       42.465      -17.006       38.482       24.325       17.448     1480.860      591.687      304.423        0.591        0.119       95.671       12.037        0.016      335.573        6.297      869.574
01/15/2022  13:37:00       69.380       62.336      -19.399       27.913       18.739       14.706      779.155      351.135      216.266        0.521        0.067       93.271       11.272        0.015      335.565        6.284      869.571
01/15/2022  13:38:00       58.505       50.795      -16.387       21.518       11.498       11.820      463.030      132.204      139.714        0.350        0.037       77.479        9.272        0.014      335.613        6.364      869.561
01/15/2022  13:39:00       11.117       28.249      -15.595       34.372       16.506       18.744     1181.465      272.443      351.337        0.148        0.090       30.357       19.469        0.411      335.779        6.640      869.568
01/15/2022  13:40:00       27.706      -30.199      -21.066       36.217       29.102       18.251     1311.674      846.902      333.082        0.231        0.125       40.983       14.207        0.120      336.217        7.370      869.576
01/15/2022  13:41:00       59.508      -22.363      -18.688       44.896       56.295       32.638     2015.654     3169.079     1065.240        0.532        0.312       63.571       15.902        0.063      335.928        6.889      869.576
01/15/2022  13:42:00      101.774     -149.351      -40.007       56.102       52.523       31.906     3147.421     2758.689     1017.987        2.059        0.346      180.731       31.144        0.030      335.952        6.927      869.553
01/15/2022  13:43:00       72.068     -161.398      -32.584       41.235       54.414       34.663     1700.304     2960.840     1201.556        1.908        0.293      176.757       29.445        0.028      335.824        6.713      869.529
01/15/2022  13:44:00       93.995     -193.305      -46.301       50.263       41.134       24.414     2526.415     1691.968      596.036        2.658        0.241      214.946       21.002        0.010      335.722        6.542      869.496
01/15/2022  13:45:00       63.920     -156.214      -26.076       55.959       82.390       43.418     3131.456     6788.048     1885.135        2.048        0.590      168.785       42.025        0.062      335.849        6.756      869.477
01/15/2022  13:46:00       71.626      -48.301      -33.195       73.963       57.289       39.071     5470.544     3282.075     1526.552        0.942        0.514       86.390       15.175        0.031      335.970        6.958      869.468
01/15/2022  13:47:00       29.002      -12.652       -6.886       32.319       31.213       26.443     1044.535      974.241      699.216        0.188        0.136       31.642       19.762        0.390      335.941        6.910      869.458
01/15/2022  13:48:00       51.562       -2.872      -12.821       52.759       47.220       44.004     2783.485     2229.761     1936.368        0.489        0.347       51.642       35.916        0.484      336.063        7.113      869.427
01/15/2022  13:49:00       19.580       -9.817      -31.083       44.060       81.258       30.461     1941.252     6602.903      927.869        0.546        0.474       21.903       16.986        0.601      335.899        6.841      869.403
01/15/2022  13:50:00       -2.898       -6.432      -17.517       41.037       39.816       27.746     1684.022     1585.339      769.851        0.220        0.202        7.055       24.222       11.787      335.952        6.930      869.384
01/15/2022  13:51:00       78.738       28.443      -23.650       40.588       32.240       22.133     1647.360     1039.398      489.875        0.537        0.159       83.718       17.276        0.043      335.732        6.562      869.376
01/15/2022  13:52:00       28.147       64.649       -6.863       27.596       22.268       16.680      761.516      495.878      278.218        0.328        0.077       70.511       13.326        0.036      335.705        6.517      869.367
01/15/2022  13:53:00       26.511       83.047      -19.115       27.054       30.068       15.480      731.916      904.075      239.631        0.492        0.094       87.176       11.028        0.016      335.831        6.727      869.355
01/15/2022  13:54:00       -9.594       61.428       -3.832       26.213       20.617       19.640      687.141      425.043      385.731        0.269        0.075       62.173        7.766        0.016      336.090        7.158      869.347
01/15/2022  13:55:00       41.303       40.346       -8.325       29.230       28.330       25.143      854.416      802.607      632.184        0.285        0.114       57.739        9.134        0.025      335.780        6.641      869.343
01/15/2022  13:56:00       67.818       20.966      -11.625       14.769       18.709       12.370      218.112      350.041      153.020        0.295        0.036       70.985        9.456        0.018      335.704        6.514      869.334
01/15/2022  13:57:00       48.473        2.893      -20.430       19.097       20.552       12.671      364.686      422.373      160.547        0.186        0.047       48.559       10.501        0.047      335.823        6.714      869.326
01/15/2022  13:58:00       -1.539       25.500      -12.810       33.797       24.316       15.909     1142.205      591.254      253.093        0.140        0.099       25.547       11.610        0.207      335.984        6.982      869.333
01/15/2022  13:59:00       -1.715      -13.423       -9.546       19.773       34.253       19.940      390.969     1173.247      397.612        0.112        0.098       13.532       16.269        1.445      336.277        7.472      869.338
01/15/2022  14:00:00       61.214       -8.375      -22.869       44.994       47.915       22.074     2024.484     2295.884      487.273        0.457        0.240       61.784       12.603        0.042      335.963        6.945      869.343
01/15/2022  14:01:00       -9.518      -82.703      -37.071       51.158       46.424       37.668     2617.174     2155.229     1418.915        0.725        0.310       83.249       24.896        0.089      336.017        7.037      869.314
01/15/2022  14:02:00      -31.154      -21.574      -18.322       51.302       47.788       34.941     2631.934     2283.659     1220.851        0.395        0.307       37.895       20.019        0.279      336.121        7.209      869.304
01/15/2022  14:03:00       43.288      -32.471      -18.893       59.276       54.577       37.248     3513.653     2978.653     1387.413        0.558        0.394       54.113       38.048        0.494      336.101        7.177      869.271
01/15/2022  14:04:00       15.109      -17.796      -18.025       31.408       29.409       22.260      986.449      864.885      495.519        0.161        0.117       23.345       13.342        0.327      336.116        7.201      869.252
01/15/2022  14:05:00        9.144        5.743       -4.344       16.889       26.028       21.609      285.239      677.480      466.959        0.078        0.071       10.798       17.663        2.676      336.286        7.486      869.244
01/15/2022  14:06:00      -20.708      -12.228      -15.191       21.077       27.843       16.886      444.229      775.217      285.125        0.116        0.075       24.049        8.335        0.120      336.214        7.365      869.248
01/15/2022  14:07:00      -15.899       -9.949       -6.258       25.995       20.446       25.604      675.718      418.026      655.580        0.107        0.087       18.755       17.919        0.913      336.324        7.550      869.241
01/15/2022  14:08:00      -47.769      -32.548      -23.721       37.867       37.145       23.698     1433.889     1379.750      561.618        0.364        0.169       57.804       19.702        0.116      336.198        7.339      869.240
01/15/2022  14:09:00       29.803      -13.384      -15.600       48.466       43.372       23.602     2348.918     1881.170      557.069        0.305        0.239       32.670       19.496        0.356      336.099        7.173      869.232
01/15/2022  14:10:00      -10.903       15.297       -0.616       24.557       20.543       20.459      603.070      421.999      418.582        0.090        0.072       18.785       17.170        0.835      336.369        7.624      869.227
01/15/2022  14:11:00       40.923       22.583      -17.905       36.362       47.145       24.338     1322.219     2222.621      592.353        0.332        0.207       46.741       16.555        0.125      336.223        7.379      869.223
01/15/2022  14:12:00       41.471      -70.754      -23.616       57.952       53.147       28.463     3358.446     2824.597      810.124        0.714        0.350       82.012       29.929        0.133      336.038        7.072      869.231
01/15/2022  14:13:00       56.842      -98.263      -32.466       13.791       21.127       13.731      190.182      446.330      188.538        0.738        0.041      113.520        7.419        0.004      335.739        6.573      869.229
01/15/2022  14:14:00       48.860     -126.010      -28.924       40.051       31.338       26.942     1604.046      982.056      725.879        1.121        0.166      135.151       24.673        0.033      336.011        7.027      869.216
01/15/2022  14:15:00       58.450      -29.226      -28.166       33.874       80.273       31.730     1147.425     6443.747     1006.779        0.683        0.430       65.349       22.042        0.114      336.181        7.311      869.212
01/15/2022  14:16:00       25.261       13.585       -4.828       31.147       34.948       25.526      970.115     1221.349      651.577        0.184        0.142       28.682       15.900        0.307      336.151        7.261      869.205
01/15/2022  14:17:00       47.746        8.517      -12.645       33.095       22.545       17.228     1095.259      508.296      296.802        0.221        0.095       48.499        2.379        0.002      335.959        6.939      869.203
01/15/2022  14:18:00       55.476      -50.801      -23.005       65.920       96.584       34.967     4345.512     9328.391     1222.720        1.054        0.745       75.222       50.022        0.442      336.134        7.230      869.191
01/15/2022  14:19:00       94.746     -242.080      -41.476       39.289       34.913       29.286     1543.638     1218.903      857.689        3.646        0.181      259.960       25.768        0.010      335.819        6.702      869.168
01/15/2022  14:20:00      100.841     -164.061      -44.193       27.248       36.038       20.560      742.467     1298.720      422.724        2.075        0.123      192.575       21.944        0.013      335.734        6.562      869.172
01/15/2022  14:21:00       14.599      -23.923      -28.225       21.848       29.588       17.378      477.319      875.456      301.983        0.162        0.083       28.026       10.191        0.132      335.961        6.944      869.170
01/15/2022  14:22:00       23.280       -7.299       -3.341       21.863       21.895       18.575      477.999      479.375      345.037        0.095        0.065       24.398       16.141        0.438      336.166        7.285      869.149
01/15/2022  14:23:00       71.844     -104.553      -23.625       39.943       53.309       33.822     1595.446     2841.874     1143.933        1.112        0.279      126.858       18.576        0.021      336.009        7.024      869.141
01/15/2022  14:24:00       63.733     -129.090      -24.044       52.411       54.768       30.897     2746.945     2999.502      954.638        1.400        0.335      143.965       26.813        0.035      335.935        6.898      869.128
01/15/2022  14:25:00       29.257     -104.908      -25.059       43.208       33.484       28.889     1866.897     1121.204      834.554        0.816        0.191      108.911       19.695        0.033      336.155        7.266      869.125
01/15/2022  14:26:00       -0.409      -58.730      -18.103       44.812       52.722       35.938     2008.117     2779.565     1291.538        0.493        0.304       58.731       27.974        0.227      336.436        7.736      869.124
01/15/2022  14:27:00       15.234      -73.706      -18.458       66.543       39.912       33.152     4428.029     1592.931     1099.055        0.656        0.356       75.264       20.520        0.074      336.366        7.619      869.126
01/15/2022  14:28:00        4.227     -114.864      -20.460       50.121       47.417       24.895     2512.132     2248.368      619.748        0.950        0.269      114.942       14.457        0.016      336.307        7.521      869.131
01/15/2022  14:29:00      -63.502      -59.388      -14.782       51.119       35.463       29.636     2613.147     1257.642      878.265        0.626        0.237       86.945       20.732        0.057      336.365        7.617      869.146
01/15/2022  14:30:00       26.464      -41.315       -7.617       49.116       36.951       28.611     2412.425     1365.362      818.568        0.353        0.230       49.064       19.746        0.162      336.481        7.813      869.153
01/15/2022  14:31:00      -25.087      -49.475      -15.416       37.049       52.359       27.090     1372.626     2741.495      733.854        0.408        0.242       55.472       24.710        0.198      336.478        7.805      869.158
01/15/2022  14:32:00       31.890      -93.363      -26.739       54.902       60.324       30.337     3014.232     3638.976      920.322        0.901        0.379       98.660       37.540        0.145      336.156        7.270      869.171
01/15/2022  14:33:00       94.633     -103.142      -36.850       36.865       34.130       20.187     1359.056     1164.862      407.528        1.194        0.147      139.977       15.276        0.012      335.851        6.760      869.176
01/15/2022  14:34:00       51.903      -34.648      -23.840       14.605       26.392       18.208      213.306      696.563      331.534        0.285        0.062       62.406       14.018        0.050      335.804        6.681      869.190
01/15/2022  14:35:00       54.852      -60.979      -20.545       33.067       66.679       24.132     1093.456     4446.137      582.368        0.663        0.306       82.019       15.959        0.038      336.001        7.010      869.179
01/15/2022  14:36:00       32.452     -122.748      -30.438       37.520       39.004       23.085     1407.772     1521.315      532.901        1.025        0.173      126.966       17.507        0.019      336.039        7.073      869.160
01/15/2022  14:37:00       43.528      -29.652      -31.717       36.534       43.432       30.877     1334.747     1886.372      953.397        0.398        0.209       52.668        7.810        0.022      336.286        7.486      869.155
01/15/2022  14:38:00       45.504        3.095       -8.082       41.624       45.083       37.072     1732.529     2032.433     1374.317        0.364        0.257       45.609       22.222        0.237      336.284        7.482      869.140
01/15/2022  14:39:00       31.937       -0.246      -14.099       33.238       44.934       27.568     1104.774     2019.023      759.998        0.255        0.194       31.938       18.342        0.330      336.287        7.487      869.132
01/15/2022  14:40:00      115.222       -7.263      -30.858       80.574       69.672       30.701     6492.147     4854.234      942.561        1.328        0.614      115.450        7.012        0.004      336.057        7.103      869.131
01/15/2022  14:41:00       37.800     -103.061      -37.357       79.018       68.387       39.534     6243.794     4676.723     1562.948        1.296        0.624      109.774       41.685        0.144      336.083        7.147      869.143
01/15/2022  14:42:00      105.909     -105.158      -50.813       41.628       72.082       28.120     1732.930     5195.843      790.715        1.629        0.386      149.248       15.011        0.010      335.949        6.922      869.155
01/15/2022  14:43:00       84.543      -57.892      -39.789       23.768       42.874       19.607      564.915     1838.191      384.418        0.743        0.139      102.464       14.238        0.019      335.925        6.883      869.175
01/15/2022  14:44:00       44.747      -31.291      -28.791       48.766       48.653       26.233     2378.120     2367.070      688.181        0.462        0.272       54.603       20.670        0.143      336.004        7.015      869.182
01/15/2022  14:45:00       28.143     -106.482      -41.173       74.003       45.663       31.892     5476.377     2085.072     1017.080        1.120        0.429      110.138        9.376        0.007      336.193        7.330      869.187
01/15/2022  14:46:00       65.647     -146.953      -24.804       43.167       65.075       31.731     1863.411     4234.768     1006.857        1.681        0.355      160.949       38.807        0.058      336.039        7.074      869.189
01/15/2022  14:47:00       70.061      -92.119      -34.670       44.444       84.962       35.426     1975.256     7218.516     1254.970        1.252        0.522      115.735       27.192        0.055      335.986        6.985      869.175
01/15/2022  14:48:00       20.869      -43.957      -22.744       31.197       51.435       40.968      973.229     2645.603     1678.343        0.409        0.265       48.659       21.047        0.187      336.199        7.342      869.168
01/15/2022  14:49:00       65.082      -83.191      -38.607       30.756       61.997       25.039      945.947     3843.580      626.937        0.903        0.271      105.624       13.781        0.017      336.162        7.278      869.176
01/15/2022  14:50:00       67.779      -40.938      -10.801       20.997       35.612       24.485      440.856     1268.192      599.519        0.435        0.115       79.183       22.243        0.079      336.060        7.109      869.190
01/15/2022  14:51:00       20.749       26.602       -7.614       21.150       35.269       18.167      447.325     1243.899      330.034        0.161        0.101       33.737       15.400        0.208      336.093        7.163      869.187
01/15/2022  14:52:00       68.617       33.479       -9.021       13.350       15.155       12.907      178.219      229.673      166.588        0.324        0.029       76.349        4.405        0.003      335.916        6.868      869.174
01/15/2022  14:53:00       29.456       31.946        1.331       27.691       18.785       13.259      766.799      352.867      175.788        0.159        0.065       43.453       14.325        0.109      335.943        6.912      869.159
01/15/2022  14:54:00       36.479       28.177       -8.833       19.226       15.117       15.304      369.649      228.531      234.220        0.152        0.042       46.094       10.392        0.051      335.921        6.877      869.147
01/15/2022  14:55:00       10.939       32.607       -1.844       13.585       22.240       15.034      184.548      494.595      226.027        0.105        0.045       34.393        9.878        0.082      336.278        7.473      869.140
01/15/2022  14:56:00       14.438       10.710      -12.905       18.232       18.545       12.412      332.419      343.925      154.070        0.066        0.042       17.977        7.733        0.185      336.117        7.203      869.128
01/15/2022  14:57:00       42.701       18.555      -10.495       14.611       30.175       14.754      213.485      910.505      217.671        0.181        0.067       46.558        6.540        0.020      336.031        7.061      869.124
01/15/2022  14:58:00       17.329      -20.082      -18.252       22.266       14.247       15.834      495.754      202.978      250.706        0.099        0.047       26.525       16.129        0.370      335.980        6.977      869.115
01/15/2022  14:59:00       -1.707      -11.433      -18.554       10.246       11.261        7.749      104.974      126.816       60.043        0.038        0.015       11.559        6.890        0.355      336.043        7.080      869.107
01/15/2022  15:00:00       17.652       23.801      -14.923       16.745       17.817       10.362      280.408      317.453      107.370        0.090        0.035       29.632        7.290        0.061      336.065        7.118      869.112
01/15/2022  15:01:00       17.634       43.688       -6.453       36.831       21.962       20.339     1356.491      482.311      413.693        0.226        0.113       47.112       19.837        0.177      336.027        7.054      869.108
01/15/2022  15:02:00       16.497       24.264       -4.670       30.222       22.599       20.913      913.392      510.710      437.339        0.137        0.093       29.341       19.677        0.450      336.031        7.061      869.104
01/15/2022  15:03:00       18.660       20.557      -12.977       21.209       16.053       13.913      449.828      257.710      193.574        0.092        0.045       27.763        5.506        0.039      336.118        7.204      869.090
01/15/2022  15:04:00        4.909      -12.885       -1.777       22.867       21.370       12.905      522.894      456.671      166.530        0.067        0.057       13.788        8.647        0.393      336.205        7.350      869.076
01/15/2022  15:05:00       26.735       16.724       -4.598       48.282       26.639       20.643     2331.187      709.629      426.145        0.224        0.173       31.535       23.590        0.560      336.208        7.356      869.066
01/15/2022  15:06:00       91.983       27.805      -15.437       39.039       36.181       28.340     1524.051     1309.085      803.159        0.655        0.182       96.094       22.151        0.053      335.996        7.002      869.061
01/15/2022  15:07:00       99.917       26.383      -11.177       27.572       22.131       18.531      760.220      489.764      343.394        0.620        0.080      103.342       15.267        0.022      335.920        6.876      869.066
01/15/2022  15:08:00       55.408       18.055       -7.573       32.382       26.221       22.963     1048.586      687.561      527.311        0.286        0.113       58.276       11.594        0.040      336.001        7.011      869.073
01/15/2022  15:09:00       28.959        8.611       -6.741       18.391       17.555       15.160      338.238      308.189      229.830        0.092        0.044       30.212        9.238        0.093      336.041        7.077      869.068
01/15/2022  15:10:00       72.697       31.365      -20.234       17.775       14.593       10.917      315.967      212.969      119.175        0.366        0.032       79.174        9.830        0.015      335.952        6.929      869.059
01/15/2022  15:11:00       42.933        0.812       -8.407       24.703       33.651       15.684      610.225     1132.379      245.977        0.195        0.099       42.941        8.610        0.040      336.080        7.142      869.058
01/15/2022  15:12:00       50.175       -0.414      -13.876       36.709       40.232       25.583     1347.570     1618.574      654.473        0.316        0.181       50.176       19.547        0.152      336.123        7.213      869.059
01/15/2022  15:13:00       49.397       15.979      -11.266       33.085       45.990       29.470     1094.643     2115.123      868.493        0.345        0.204       51.917       22.970        0.196      336.159        7.272      869.066
01/15/2022  15:14:00       12.952       12.327      -24.297       38.964       42.382       25.708     1518.163     1796.242      660.911        0.244        0.199       17.881       17.225        0.928      336.145        7.251      869.078
01/15/2022  15:15:00       10.355      -66.170      -18.141       39.083       29.674       27.034     1527.506      880.529      730.842        0.398        0.157       66.976       17.337        0.067      336.191        7.327      869.093
01/15/2022  15:16:00       36.460      -24.718      -23.221       23.734       23.869       17.154      563.302      569.731      294.274        0.195        0.071       44.049        7.686        0.030      336.108        7.190      869.093
01/15/2022  15:17:00       16.845      -11.366       -2.574       19.380       16.644       17.397      375.598      277.036      302.655        0.069        0.048       20.321       11.098        0.298      336.160        7.276      869.084
01/15/2022  15:18:00       48.377       -7.572      -11.280       24.556       21.499       14.825      603.021      462.202      219.795        0.190        0.064       48.966       13.523        0.076      336.043        7.081      869.071
01/15/2022  15:19:00       70.420       56.844      -22.999       16.946       15.977       13.540      287.167      255.279      183.329        0.472        0.036       90.500       10.914        0.015      335.899        6.841      869.058
01/15/2022  15:20:00       23.134       22.886       -6.582       10.692       15.309        8.636      114.321      234.364       74.574        0.076        0.021       32.542        7.954        0.060      335.889        6.827      869.037
01/15/2022  15:21:00       50.441       23.365      -14.753       13.982       16.197       13.342      195.501      262.334      178.001        0.197        0.032       55.589        7.487        0.018      335.907        6.856      869.032
01/15/2022  15:22:00       58.515        8.028       -3.761       35.400       29.359       16.779     1253.162      861.935      281.536        0.295        0.120       59.063        5.612        0.009      335.960        6.941      869.041
01/15/2022  15:23:00       58.157       -2.264      -22.949       30.882       52.571       29.242      953.711     2763.729      855.095        0.424        0.229       58.201       25.626        0.194      336.039        7.073      869.041
01/15/2022  15:24:00       58.107      -36.249      -31.309       20.726       35.211       21.376      429.571     1239.839      456.946        0.390        0.106       68.487        4.229        0.004      335.959        6.942      869.050
01/15/2022  15:25:00       42.787      -20.176      -17.686       23.894       33.338       19.720      570.908     1111.435      388.861        0.231        0.104       47.305       16.390        0.120      335.987        6.986      869.045
01/15/2022  15:26:00       24.465        4.059      -12.132       25.895       39.713       21.026      670.558     1577.108      442.089        0.173        0.134       24.799       19.664        0.629      336.061        7.110      869.033
01/15/2022  15:27:00       43.428       60.649      -10.070       33.570       19.791       16.363     1126.912      391.675      267.735        0.373        0.089       74.594       16.758        0.050      335.927        6.888      869.024
01/15/2022  15:28:00       64.742       66.864      -11.451       25.603       20.022       15.984      655.517      400.896      255.476        0.505        0.066       93.071       11.474        0.015      335.891        6.831      869.020
01/15/2022  15:29:00       20.278       91.422       -8.933       18.498       27.448       13.961      342.167      753.420      194.921        0.507        0.065       93.644        9.113        0.009      336.004        7.015      869.012
01/15/2022  15:30:00       18.131       65.701        0.131       21.189       24.447       14.374      448.971      597.661      206.609        0.295        0.063       68.157       11.940        0.031      336.083        7.148      869.003
01/15/2022  15:31:00       28.134       53.637       -3.566       19.797       23.783       13.742      391.909      565.633      188.843        0.241        0.057       60.568        8.066        0.018      336.010        7.025      868.996
01/15/2022  15:32:00       27.794       55.694      -11.672       19.118       17.061       12.110      365.494      291.071      146.646        0.241        0.040       62.244       10.327        0.028      336.012        7.029      868.985
01/15/2022  15:33:00       37.727       29.964       -8.607       14.654       15.361       12.272      214.749      235.954      150.614        0.150        0.030       48.179        7.499        0.024      335.942        6.912      868.978
01/15/2022  15:34:00       43.419       17.632       -4.560       24.112       14.925       15.610      581.384      222.756      243.676        0.163        0.052       46.863        9.605        0.042      335.941        6.909      868.965
01/15/2022  15:35:00       54.367       21.091      -12.221       18.809       17.658       11.644      353.788      311.819      135.590        0.218        0.040       58.315       12.432        0.045      335.914        6.861      868.947
01/15/2022  15:36:00       24.760       16.986       -7.056       13.336        8.508        6.970      177.862       72.392       48.578        0.063        0.015       30.026        3.854        0.016      335.923        6.878      868.935
01/15/2022  15:37:00       10.963        3.053       -6.948       10.772       19.456       11.071      116.038      378.551      122.573        0.040        0.031       11.380       12.943        1.294      336.004        7.017      868.929
01/15/2022  15:38:00        6.842      -52.619      -33.360       19.560       17.461       13.103      382.594      304.876      171.686        0.239        0.043       53.062       10.232        0.037      336.116        7.201      868.923
01/15/2022  15:39:00      -34.828      -37.479      -41.266       37.418       40.735       28.059     1400.075     1659.380      787.282        0.408        0.192       51.163       20.264        0.157      336.132        7.228      868.920
01/15/2022  15:40:00      -28.286       -4.961      -12.810       23.719       50.285       27.498      562.585     2528.547      756.126        0.242        0.192       28.718       27.336        0.906      336.129        7.223      868.931
01/15/2022  15:41:00      -47.624        8.231        5.811       41.812       19.455       20.187     1748.248      378.492      407.497        0.245        0.127       48.330       23.144        0.229      336.097        7.169      868.940
01/15/2022  15:42:00      -63.020        4.925       -4.439       37.718       20.716       18.544     1422.678      429.155      343.875        0.311        0.110       63.212       12.527        0.039      336.071        7.128      868.943
01/15/2022  15:43:00      -37.535        4.122        2.056       35.007       24.377       19.290     1225.474      594.251      372.093        0.181        0.110       37.760       14.070        0.139      336.165        7.283      868.933
01/15/2022  15:44:00      -16.540      -14.936       -6.317       33.288       18.786       17.136     1108.095      352.904      293.645        0.115        0.088       22.286        8.765        0.155      336.137        7.236      868.926
01/15/2022  15:45:00        0.263       -6.317       -4.672        9.536       13.128        7.393       90.935      172.357       54.662        0.019        0.016        6.322        4.816        0.580      336.191        7.326      868.918
01/15/2022  15:46:00       -9.748       -2.019      -14.293       15.772       23.535       10.594      248.754      553.904      112.238        0.061        0.046        9.955        7.429        0.557      336.258        7.438      868.912
01/15/2022  15:47:00      -28.184       11.951       -7.180       24.401       19.273       16.218      595.423      371.449      263.033        0.111        0.061       30.613        8.383        0.075      336.099        7.173      868.909
01/15/2022  15:48:00      -34.834        8.379      -17.401       16.288       24.078       12.645      265.312      579.751      159.908        0.130        0.050       35.828       10.186        0.081      336.098        7.172      868.908
01/15/2022  15:49:00      -27.057       11.308       -2.314       33.552       22.242       18.099     1125.732      494.716      327.567        0.141        0.097       29.325       18.929        0.417      336.049        7.092      868.900
01/15/2022  15:50:00      -54.241       31.326      -12.723       40.454       24.832       13.607     1636.540      616.641      185.155        0.326        0.122       62.637        6.258        0.010      336.028        7.055      868.899
01/15/2022  15:51:00      -23.570      -24.784       -9.306       20.063       19.256       26.296      402.535      370.805      691.484        0.136        0.073       34.202       16.502        0.233      336.140        7.240      868.900
01/15/2022  15:52:00      -13.026      -14.894      -13.098       14.518       22.505       14.657      210.768      506.469      214.823        0.075        0.047       19.787        4.521        0.052      336.167        7.285      868.899
01/15/2022  15:53:00      -16.788        6.917       -8.930       29.183       29.239       15.457      851.652      854.930      238.920        0.118        0.097       18.157       14.865        0.670      336.155        7.265      868.905
01/15/2022  15:54:00      -87.312       27.951      -16.894       34.503       32.836       21.167     1190.476     1078.208      448.029        0.570        0.136       91.677       15.119        0.027      336.056        7.103      868.921
01/15/2022  15:55:00      -57.227       -4.738       -8.876       46.547       26.243       25.354     2166.599      688.714      642.843        0.344        0.175       57.423       26.020        0.205      336.114        7.200      868.923
01/15/2022  15:56:00      -81.925        6.172      -11.993       36.145       29.892       23.755     1306.457      893.532      564.283        0.483        0.138       82.157       22.021        0.072      336.076        7.134      868.922
01/15/2022  15:57:00      -19.880        0.494       -8.942       38.305       28.990       21.850     1467.300      840.420      477.403        0.163        0.139       19.887       20.550        1.068      336.123        7.212      868.944
01/15/2022  15:58:00      -80.091       19.257       -3.827       41.690       40.355       23.428     1738.039     1628.540      548.858        0.536        0.196       82.373       17.743        0.046      336.066        7.119      868.945
01/15/2022  15:59:00      -14.972        0.241       -0.080       36.503       26.366       20.176     1332.454      695.141      407.061        0.133        0.122       14.974       16.240        1.176      336.102        7.177      868.938
01/15/2022  16:00:00      -32.586      -25.766      -23.005       32.138       24.420       18.985     1032.872      596.328      360.434        0.212        0.099       41.542       13.692        0.109      336.153        7.262      868.917
01/15/2022  16:01:00      -26.735       -7.269      -11.605       15.719       18.958       13.074      247.087      359.407      170.922        0.084        0.039       27.706        8.310        0.090      336.173        7.296      868.898
01/15/2022  16:02:00      -20.452       -7.250      -10.874       29.641       20.138       15.486      878.609      405.553      239.813        0.106        0.076       21.699       12.299        0.321      336.124        7.215      868.869
01/15/2022  16:03:00      -18.345        3.744       -3.782       38.407       27.151       17.403     1475.130      737.191      302.870        0.144        0.126       18.723       12.450        0.442      336.082        7.143      868.854
01/15/2022  16:04:00        1.456       21.752       -8.230       26.416       27.000       21.708      697.806      729.003      471.232        0.122        0.095       21.800       10.582        0.236      336.055        7.099      868.848
01/15/2022  16:05:00      -24.323       -8.848      -17.137       21.709       18.636       12.928      471.263      347.302      167.135        0.097        0.049       25.882        4.794        0.034      336.077        7.136      868.841
01/15/2022  16:06:00        5.504       -7.528      -10.271       13.397       10.106        8.710      179.489      102.139       75.868        0.027        0.018        9.325        5.948        0.407      336.148        7.253      868.841
01/15/2022  16:07:00      -27.166      -16.247       -7.292       36.152       22.064       15.434     1306.954      486.819      238.221        0.154        0.102       31.654       12.073        0.145      336.117        7.203      868.845
01/15/2022  16:08:00      -24.878        4.097       -3.379       30.195       23.661       18.456      911.742      559.856      340.635        0.123        0.091       25.213       16.804        0.444      336.016        7.035      868.853
01/15/2022  16:09:00      -16.852       -1.856       -3.332       20.730       17.187       15.289      429.737      295.392      233.744        0.063        0.048       16.954        8.712        0.264      336.034        7.066      868.859
01/15/2022  16:10:00      -19.049       -1.639       -6.328       25.629       20.162       14.517      656.853      406.493      210.755        0.084        0.064       19.120        6.105        0.102      336.009        7.025      868.862
01/15/2022  16:11:00       -8.601      -10.178       -2.608       15.926       14.417       14.480      253.633      207.846      209.659        0.043        0.034       13.325        5.629        0.178      336.084        7.147      868.866
01/15/2022  16:12:00      -24.700       -8.317        0.917       20.720       23.579       15.451      429.330      555.974      238.746        0.095        0.061       26.063       11.619        0.199      336.092        7.162      868.870
01/15/2022  16:13:00        4.382      -16.443      -10.037       18.231       15.952       12.878      332.385      254.456      165.854        0.057        0.038       17.017       14.351        0.711      336.078        7.138      868.872
01/15/2022  16:14:00      -20.422       -6.401       -9.974       12.245       19.201       14.067      149.934      368.697      197.889        0.064        0.036       21.401       10.810        0.255      336.074        7.132      868.866
01/15/2022  16:15:00      -16.679        8.209       -9.188       15.370       10.924        9.421      236.252      119.329       88.763        0.044        0.022       18.590        6.279        0.114      336.052        7.094      868.864
01/15/2022  16:16:00      -16.194      -17.923       -4.817       21.560       17.792       12.168      464.812      316.540      148.071        0.077        0.046       24.155       11.038        0.209      336.141        7.244      868.858
01/15/2022  16:17:00       21.196      -30.516      -19.171       14.204        9.799       10.971      201.746       96.016      120.368        0.108        0.021       37.155        7.837        0.044      335.994        7.001      868.867
01/15/2022  16:18:00      -18.481       -6.297        1.759       28.237       21.772       16.005      797.311      474.024      256.149        0.096        0.076       19.524       13.229        0.459      336.070        7.124      868.879
01/15/2022  16:19:00        1.925       15.111       -5.604       22.395       14.256       18.234      501.523      203.224      332.483        0.065        0.052       15.233       11.170        0.538      335.965        6.950      868.886
01/15/2022  16:20:00      -66.682       21.054       -0.828       32.695       17.429       19.111     1068.988      303.784      365.243        0.331        0.087       69.927       12.371        0.031      335.971        6.962      868.890
01/15/2022  16:21:00      -78.400       23.678       -6.879       25.799       18.555       18.040      665.570      344.297      325.435        0.404        0.067       81.898        8.673        0.011      335.963        6.949      868.900
01/15/2022  16:22:00      -69.301       15.193      -14.482       15.144       12.391       12.280      229.326      153.527      150.792        0.289        0.027       70.947        8.592        0.015      335.927        6.888      868.899
01/15/2022  16:23:00      -55.166      -13.623      -10.175       28.008       23.582       14.587      784.431      556.100      212.790        0.244        0.078       56.823       19.896        0.123      335.973        6.962      868.885
01/15/2022  16:24:00      -38.263        4.249        4.524       27.256       22.969       14.394      742.883      527.570      207.193        0.149        0.074       38.498       15.672        0.166      335.995        7.001      868.875
01/15/2022  16:25:00      -39.860       31.494      -12.294       23.589       14.373       10.546      556.450      206.569      111.212        0.180        0.044       50.801        7.529        0.022      335.938        6.906      868.865
01/15/2022  16:26:00      -16.490       29.126       -8.114       14.351       17.813       13.837      205.944      317.319      191.461        0.095        0.036       33.470        9.495        0.080      335.931        6.894      868.856
01/15/2022  16:27:00       15.759        5.108       -4.980       11.550       16.500        8.823      133.397      272.243       77.837        0.039        0.024       16.566        6.181        0.139      335.898        6.840      868.860
01/15/2022  16:28:00       31.054       19.009       -3.625       16.115       11.170       13.964      259.692      124.776      194.997        0.096        0.029       36.410        9.743        0.072      335.857        6.771      868.864
01/15/2022  16:29:00       19.613        4.594       -6.567       11.013        9.477        7.866      121.295       89.822       61.880        0.036        0.014       20.144        6.271        0.097      335.856        6.769      868.872
01/15/2022  16:30:00       42.882      -11.494      -16.192       22.039       15.969       14.775      485.699      255.021      218.287        0.160        0.048       44.395       11.249        0.064      335.881        6.810      868.870
01/15/2022  16:31:00       33.332       -3.788       -3.410       17.577       17.046       11.728      308.953      290.562      137.551        0.094        0.037       33.546        3.554        0.011      335.900        6.842      868.867
01/15/2022  16:32:00       36.015      -16.923       -9.369       29.879       19.166       14.340      892.727      367.332      205.621        0.157        0.073       39.792       13.316        0.112      335.871        6.793      868.870
01/15/2022  16:33:00       46.727        3.981       -6.060       23.292       21.861       19.740      542.507      477.919      389.682        0.182        0.071       46.897       10.974        0.055      335.783        6.646      868.861
01/15/2022  16:34:00       23.669      -15.460      -11.860       24.058       21.716       15.658      578.778      471.596      245.169        0.112        0.065       28.271        9.564        0.114      335.816        6.700      868.867
01/15/2022  16:35:00       35.151       -4.055       -6.787       34.649       31.163       22.609     1200.565      971.113      511.181        0.199        0.134       35.384       17.880        0.255      335.795        6.667      868.882
01/15/2022  16:36:00       33.441      -26.462       -2.291       36.340       25.254       17.938     1320.579      637.766      321.761        0.205        0.114       42.644       16.967        0.158      335.731        6.559      868.903
01/15/2022  16:37:00       -1.950        3.704       -3.983       34.336       23.066       15.312     1178.949      532.052      234.457        0.099        0.097        4.186        5.953        2.023      335.782        6.644      868.918
01/15/2022  16:38:00      -12.981       16.766       -3.366       14.547       21.585       13.783      211.613      465.892      189.975        0.066        0.043       21.204        9.885        0.217      335.790        6.658      868.931
01/15/2022  16:39:00       -5.027      -22.934       -1.896       16.996       22.590       27.319      288.873      510.328      746.347        0.105        0.077       23.479       12.191        0.270      335.826        6.720      868.932
01/15/2022  16:40:00        1.647      -23.598        4.564       11.222       26.309       17.590      125.931      692.179      309.415        0.085        0.056       23.655       10.054        0.181      335.859        6.772      868.935
01/15/2022  16:41:00       67.036      -88.589      -24.966       43.697       62.933       27.906     1909.414     3960.566      778.745        0.981        0.332      111.094       36.058        0.105      335.817        6.703      868.927
01/15/2022  16:42:00       87.825     -150.740      -36.231       22.481       34.485       21.201      505.402     1189.181      449.474        1.695        0.107      174.459       12.951        0.006      335.784        6.648      868.913
01/15/2022  16:43:00       77.638      -44.997      -22.959       45.169       42.413       34.493     2040.196     1798.837     1189.773        0.680        0.251       89.735       25.900        0.083      335.752        6.594      868.913
01/15/2022  16:44:00       44.703      -30.269      -29.407       34.145       50.294       25.416     1165.882     2529.444      645.962        0.406        0.217       53.987       15.400        0.081      335.766        6.617      868.910
01/15/2022  16:45:00      105.440     -112.546      -32.012       33.040       36.755       22.068     1091.636     1350.893      487.005        1.387        0.146      154.221       16.154        0.011      335.756        6.601      868.905
01/15/2022  16:46:00       64.759      -76.682      -21.390       39.261       46.295       28.516     1541.387     2143.249      813.157        0.751        0.225      100.368       26.422        0.069      335.792        6.660      868.911
01/15/2022  16:47:00       47.746      -35.979      -28.212       38.915       41.401       21.810     1514.408     1714.025      475.677        0.404        0.185       59.784       13.661        0.052      335.740        6.573      868.912
01/15/2022  16:48:00       70.359      -78.454      -24.907       39.358       41.152       23.270     1549.038     1693.459      541.508        0.775        0.189      105.382       15.837        0.023      335.769        6.623      868.925
01/15/2022  16:49:00       71.346     -136.538      -35.748       38.479       34.854       33.580     1480.612     1214.781     1127.592        1.442        0.191      154.054       16.189        0.011      335.800        6.675      868.944
01/15/2022  16:50:00       67.859      -93.563      -23.793       32.039       37.145       19.953     1026.489     1379.783      398.123        0.836        0.140      115.581       17.491        0.023      335.730        6.558      868.972
01/15/2022  16:51:00       73.411      -84.570      -28.262       37.182       41.012       17.321     1382.522     1681.949      300.019        0.835        0.168      111.988       11.053        0.010      335.731        6.558      868.993
01/15/2022  16:52:00       80.374     -136.623      -29.876       29.439       43.921       20.388      866.661     1929.053      415.657        1.461        0.161      158.511       15.610        0.010      335.728        6.554      869.007
01/15/2022  16:53:00       92.730      -61.080      -32.868       43.848       51.072       32.606     1922.687     2608.361     1063.182        0.950        0.280      111.039       25.011        0.051      335.660        6.440      868.997
01/15/2022  16:54:00        5.440      -30.499      -19.910       40.781       39.705       18.492     1663.102     1576.507      341.950        0.247        0.179       30.981       15.174        0.240      335.619        6.373      868.989
01/15/2022  16:55:00       33.626      -36.827       -8.741       34.655       47.583       32.721     1200.994     2264.097     1070.666        0.355        0.227       49.869       26.937        0.292      335.671        6.459      868.976
01/15/2022  16:56:00       54.761      -63.833      -15.605       37.208       44.938       27.915     1384.411     2019.390      779.233        0.575        0.209       84.103       28.057        0.111      335.648        6.421      868.975
01/15/2022  16:57:00       62.455      -86.568      -28.262       29.921       42.690       20.887      895.238     1822.427      436.275        0.767        0.158      106.746       18.159        0.029      335.719        6.539      868.996
01/15/2022  16:58:00       81.396      -64.752      -20.347       38.929       40.112       32.448     1515.498     1608.967     1052.875        0.770        0.209      104.010       23.947        0.053      335.590        6.325      869.001
01/15/2022  16:59:00       52.482      -95.830      -23.947       39.220       35.801       24.310     1538.216     1281.744      590.954        0.796        0.171      109.260       14.731        0.018      335.653        6.428      869.007
01/15/2022  17:00:00       63.718     -111.639      -20.375       32.577       45.030       20.361     1061.230     2027.732      414.588        1.022        0.175      128.543       16.731        0.017      335.673        6.462      869.017
01/15/2022  17:01:00       20.662      -49.561      -11.476       39.219       42.220       22.357     1538.154     1782.504      499.818        0.342        0.191       53.696       22.076        0.169      335.650        6.426      869.025
01/15/2022  17:02:00       82.219      -69.919      -28.679       32.613       44.909       25.232     1063.580     2016.835      636.648        0.809        0.186      107.929       25.583        0.056      335.607        6.353      869.039
01/15/2022  17:03:00       63.275      -82.950      -31.250       34.500       52.308       26.160     1190.250     2736.096      684.369        0.824        0.231      104.329       22.602        0.047      335.628        6.389      869.054
01/15/2022  17:04:00       11.603      -34.623      -15.334       59.192       48.985       35.625     3503.751     2399.490     1269.167        0.437        0.359       36.515       31.194        0.730      335.660        6.442      869.051
01/15/2022  17:05:00       28.814      -25.179      -12.697       33.718       40.149       24.841     1136.875     1611.973      617.060        0.250        0.168       38.266       17.854        0.218      335.609        6.356      869.060
01/15/2022  17:06:00       40.093      -43.348      -10.082       28.311       29.124       23.828      801.529      848.215      567.766        0.290        0.111       59.047       16.954        0.082      335.631        6.393      869.076
01/15/2022  17:07:00        1.934      -24.176       -7.750       35.610       30.268       25.048     1268.074      916.177      627.391        0.173        0.141       24.254       24.398        1.012      335.601        6.345      869.084
01/15/2022  17:08:00       28.850      -49.141       -7.280       42.770       32.963       22.191     1829.309     1086.534      492.419        0.335        0.170       56.984       16.141        0.080      335.593        6.330      869.092
01/15/2022  17:09:00       -8.263      -21.201      -11.781       35.188       19.067       18.640     1238.221      363.545      347.448        0.130        0.097       22.754       13.890        0.373      335.532        6.228      869.098
01/15/2022  17:10:00       27.539      -36.925      -14.719       26.485       26.406       15.464      701.464      697.293      239.148        0.199        0.082       46.063       14.034        0.093      335.571        6.293      869.097
01/15/2022  17:11:00      -37.061      -10.136      -15.717       25.558       26.852       13.632      653.233      721.008      185.839        0.164        0.078       38.422        5.486        0.020      335.476        6.135      869.087
01/15/2022  17:12:00      -44.394       32.479        3.872       15.002       17.921       14.399      225.067      321.156      207.345        0.190        0.038       55.006       10.737        0.038      335.421        6.042      869.089
01/15/2022  17:13:00      -13.317        3.843       -4.077       37.075       30.716       14.036     1374.526      943.498      197.023        0.136        0.126       13.860       12.935        0.871      335.371        5.959      869.086
01/15/2022  17:14:00      -18.704       29.700       -1.149       22.960       30.641       14.068      527.168      938.845      197.901        0.145        0.083       35.098       13.323        0.144      335.097        5.507      869.097
01/15/2022  17:15:00        8.317       49.334      -19.458       21.334       30.133       26.220      455.134      908.003      687.466        0.247        0.103       50.030       22.073        0.195      335.259        5.771      869.090
01/15/2022  17:16:00       -6.604       24.611       -6.775       20.277       23.431       14.138      411.147      549.029      199.894        0.093        0.058       25.481        9.933        0.152      335.091        5.496      869.083
01/15/2022  17:17:00       -9.684      -13.161       -5.833       20.507       27.072       15.836      420.538      732.877      250.784        0.085        0.070       16.340       12.620        0.597      335.056        5.436      869.088
01/15/2022  17:18:00       -0.975       12.704       -6.524       27.457       24.024       19.078      753.865      577.152      363.965        0.095        0.085       12.742       16.169        1.610      334.940        5.245      869.091
01/15/2022  17:19:00      -41.204        9.536      -19.858       27.542       24.965       15.880      758.578      623.269      252.168        0.191        0.082       42.293        9.408        0.049      334.861        5.115      869.104
01/15/2022  17:20:00      -54.530        5.712      -19.019       35.527       28.100       19.239     1262.196      789.635      370.120        0.289        0.121       54.828       13.112        0.057      334.843        5.083      869.114
01/15/2022  17:21:00      -10.803        2.451      -13.819       24.437       30.597       19.984      597.144      936.169      399.357        0.112        0.097       11.077       18.066        2.660      334.816        5.039      869.125
01/15/2022  17:22:00      -74.615        9.377      -18.397       46.650       27.714       20.499     2176.192      768.075      420.191        0.468        0.168       75.202       16.335        0.047      334.830        5.063      869.133
01/15/2022  17:23:00        0.393        4.175       -4.028       21.356       20.865       21.409      456.082      435.331      458.326        0.069        0.067        4.193       13.370       10.168      334.796        5.006      869.147
01/15/2022  17:24:00      -82.774        9.462      -14.186       48.565       27.916       16.148     2358.604      779.275      260.745        0.527        0.170       83.313       19.596        0.055      334.827        5.059      869.158
01/15/2022  17:25:00      -98.670       23.272       -6.368       30.923       25.266       19.683      956.245      638.371      387.416        0.615        0.099      101.377       13.628        0.018      334.718        4.876      869.162
01/15/2022  17:26:00      -53.632       20.368       -1.924       46.064       18.498       15.282     2121.901      342.182      233.525        0.300        0.135       57.369       18.320        0.102      334.759        4.943      869.161
01/15/2022  17:27:00     -116.466       31.547       -7.578       35.450       20.476       20.404     1256.672      419.272      416.313        0.835        0.105      120.663       14.715        0.015      334.636        4.737      869.148
01/15/2022  17:28:00      -94.528       43.637      -10.630       41.504       28.123       22.409     1722.545      790.878      502.171        0.698        0.151      104.114       21.715        0.044      334.659        4.777      869.141
01/15/2022  17:29:00     -103.525       41.474      -10.657       48.782       34.402       28.328     2379.720     1183.500      802.486        0.846        0.218      111.524       29.647        0.071      334.670        4.794      869.142
01/15/2022  17:30:00      -95.977       59.392       -1.890       64.147       31.670       31.997     4114.842     1002.993     1023.811        0.944        0.307      112.867       35.745        0.100      334.679        4.810      869.142
01/15/2022  17:31:00      -82.480       34.540       -5.906       49.664       34.583       29.257     2466.465     1195.992      855.947        0.627        0.226       89.421       26.727        0.089      334.730        4.895      869.144
01/15/2022  17:32:00      -87.347       17.848      -11.598       39.021       30.329       26.286     1522.646      919.837      690.961        0.561        0.157       89.152       20.577        0.053      334.669        4.794      869.151
01/15/2022  17:33:00      -71.164        0.626       -4.262       44.935       26.530       17.604     2019.175      703.850      309.915        0.406        0.152       71.167       13.505        0.036      334.612        4.697      869.169
01/15/2022  17:34:00      -41.535       -1.100       -5.637       38.666       19.949       22.057     1495.071      397.962      486.518        0.207        0.119       41.549       20.135        0.235      334.594        4.669      869.186
01/15/2022  17:35:00      -53.931        4.250       -6.528       47.385       24.182       22.293     2245.327      584.771      496.956        0.315        0.166       54.098       21.058        0.152      334.644        4.753      869.197
01/15/2022  17:36:00      -77.796       13.007      -11.574       23.396       22.215       15.756      547.350      493.510      248.255        0.382        0.064       78.876        9.783        0.015      334.663        4.784      869.211
01/15/2022  17:37:00      -33.552       -8.640       -3.406       28.195       17.853       20.841      794.970      318.714      434.349        0.138        0.077       34.646       18.571        0.287      334.680        4.811      869.215
01/15/2022  17:38:00      -26.036        1.744      -10.248       29.959       24.381       17.139      897.563      594.453      293.744        0.129        0.089       26.095       13.330        0.261      334.579        4.642      869.219
01/15/2022  17:39:00      -22.641       -6.190       -9.846       28.742       23.163       18.411      826.086      536.519      338.965        0.117        0.085       23.472        8.458        0.130      334.593        4.667      869.219
01/15/2022  17:40:00      -33.263       -1.054      -11.410       31.032       17.058       15.296      962.970      290.973      233.963        0.136        0.074       33.280       12.992        0.152      334.572        4.631      869.217
01/15/2022  17:41:00      -35.911        1.599      -11.803       24.292       21.282       22.587      590.089      452.921      510.160        0.149        0.078       35.947       17.121        0.227      334.518        4.542      869.204
01/15/2022  17:42:00      -48.569       -1.554      -17.356       32.345       27.294       16.324     1046.174      744.959      266.479        0.236        0.103       48.594       17.430        0.129      334.440        4.413      869.199
01/15/2022  17:43:00      -21.853        8.376       -5.375       27.924       24.196       20.295      779.722      585.439      411.889        0.118        0.089       23.403       17.118        0.535      334.429        4.394      869.204
01/15/2022  17:44:00        8.402      -11.367       -7.360       14.334       14.231       14.528      205.464      202.522      211.069        0.044        0.031       14.135       11.533        0.666      334.433        4.403      869.203
01/15/2022  17:45:00       -2.939      -13.598       -2.066       11.115       18.934       11.119      123.543      358.494      123.625        0.040        0.030       13.912        7.502        0.291      334.406        4.357      869.196
01/15/2022  17:46:00      -48.022       11.328       -8.097       19.698       14.644       14.876      388.020      214.441      221.283        0.166        0.041       49.340       11.636        0.056      334.415        4.371      869.185
01/15/2022  17:47:00      -40.041        8.030      -11.986       26.521       20.692       14.681      703.340      428.149      215.523        0.158        0.067       40.838        7.517        0.034      334.394        4.338      869.177
01/15/2022  17:48:00      -25.330        0.013       -1.074       23.237       19.412       14.293      539.953      376.835      204.277        0.088        0.056       25.330       15.616        0.380      334.312        4.199      869.177
01/15/2022  17:49:00      -28.985       -4.850      -11.098       19.537       25.095       11.353      381.684      629.749      128.888        0.106        0.057       29.388        9.245        0.099      334.354        4.272      869.174
01/15/2022  17:50:00       -9.334       17.972        6.965       14.122       17.223       15.465      199.440      296.630      239.177        0.060        0.037       20.251        9.326        0.212      334.306        4.191      869.172
01/15/2022  17:51:00      -32.249        1.396      -11.759       16.128       17.328       18.278      260.105      300.250      334.076        0.104        0.045       32.280       10.730        0.111      334.319        4.213      869.169
01/15/2022  17:52:00      -29.266        8.464       -9.479       21.164       22.908       12.186      447.897      524.758      148.500        0.107        0.056       30.466        9.593        0.099      334.340        4.246      869.157
01/15/2022  17:53:00      -30.230        7.110       -8.447       26.236       18.687       15.636      688.342      349.215      244.498        0.116        0.064       31.055       15.414        0.246      334.287        4.160      869.135
01/15/2022  17:54:00      -28.434        6.589        0.449       30.413       16.530       16.474      924.932      273.252      271.407        0.116        0.073       29.187       17.910        0.377      334.178        3.980      869.112
01/15/2022  17:55:00      -29.285        4.736       -6.294       29.663       16.430       15.347      879.917      269.938      235.538        0.115        0.069       29.665       15.838        0.285      334.179        3.981      869.116
01/15/2022  17:56:00      -41.404       -4.456       -8.145       31.565       23.847       14.382      996.324      568.682      206.834        0.179        0.089       41.643       11.411        0.075      334.181        3.982      869.121
01/15/2022  17:57:00      -37.300       10.952      -14.151       20.150       14.895       13.030      406.033      221.858      169.778        0.125        0.040       38.874        8.284        0.045      334.156        3.942      869.136
01/15/2022  17:58:00      -24.629        3.377      -10.365       22.462       14.464       12.965      504.551      209.196      168.088        0.080        0.044       24.859       10.439        0.176      334.107        3.862      869.150
01/15/2022  17:59:00      -17.645        5.887       -9.915       15.867       16.207        8.453      251.752      262.661       71.452        0.051        0.029       18.601        6.422        0.119      334.138        3.913      869.150
01/15/2022  18:00:00      -11.151        2.915       -0.388       20.650        9.140       11.449      426.426       83.543      131.072        0.039        0.032       11.526       12.939        1.260      334.068        3.798      869.157
01/15/2022  18:01:00      -21.520       11.163       -3.288       27.899       10.823       12.921      778.376      117.142      166.945        0.083        0.053       24.243       12.023        0.246      334.059        3.782      869.159
01/15/2022  18:02:00      -21.847       -6.633       -9.954       14.641       23.296       12.968      214.371      542.708      168.171        0.077        0.046       22.831       10.703        0.220      334.128        3.896      869.171
01/15/2022  18:03:00      -34.975       12.398       -5.377       34.309       21.101       20.177     1177.075      445.251      407.093        0.172        0.101       37.108       21.975        0.351      334.041        3.753      869.186
01/15/2022  18:04:00       -6.370        5.214       -7.666       18.353       15.642       14.036      336.836      244.673      197.023        0.045        0.039        8.232        4.353        0.280      333.975        3.643      869.188
01/15/2022  18:05:00      -35.173       -2.994       -5.266       27.629       18.567       20.008      763.380      344.749      400.326        0.139        0.075       35.300       17.930        0.258      333.970        3.636      869.191
01/15/2022  18:06:00      -32.260        8.032       -6.000       26.536       25.105       17.800      704.141      630.274      316.858        0.140        0.083       33.245       13.850        0.174      333.965        3.626      869.190
01/15/2022  18:07:00      -12.391        8.013       -9.691       25.409       17.817       11.613      645.596      317.441      134.853        0.070        0.055       14.756        7.384        0.250      333.931        3.571      869.191
01/15/2022  18:08:00        4.082        9.128       -5.196       17.868       23.513       16.621      319.252      552.882      276.269        0.064        0.057        9.999        6.645        0.442      333.924        3.559      869.196
01/15/2022  18:09:00      -14.906        8.128       -6.499       24.606       22.716       23.191      605.476      515.996      537.816        0.099        0.083       16.978       17.873        1.108      333.895        3.512      869.194
01/15/2022  18:10:00      -60.979        5.981      -23.530       17.386       20.839       18.268      302.270      434.273      333.718        0.269        0.054       61.272       12.784        0.044      333.984        3.658      869.188
01/15/2022  18:11:00      -52.455        2.247      -13.892       23.440       24.327       15.564      549.455      591.793      242.251        0.217        0.069       52.503       12.148        0.054      333.979        3.651      869.183
01/15/2022  18:12:00      -39.377       -3.150      -11.466       20.085       21.420       15.828      403.425      458.811      250.528        0.140        0.056       39.503        8.047        0.041      333.974        3.640      869.185
01/15/2022  18:13:00      -58.931        4.763      -16.092       18.918       20.621       16.548      357.888      425.242      273.846        0.241        0.053       59.123        8.918        0.023      333.970        3.635      869.189
01/15/2022  18:14:00      -71.113       20.617      -22.804       18.987       15.474       12.608      360.512      239.452      158.949        0.338        0.038       74.042        7.301        0.010      333.864        3.459      869.201
01/15/2022  18:15:00      -41.457       -1.506      -15.044       25.128       19.261       17.179      631.427      370.983      295.133        0.162        0.065       41.485       15.762        0.144      333.914        3.543      869.204
01/15/2022  18:16:00      -38.655        5.654      -17.215       17.797       18.684       14.273      316.718      349.098      203.722        0.135        0.043       39.066       11.432        0.086      333.892        3.506      869.219
01/15/2022  18:17:00      -28.306       -4.926       -4.931       14.692       16.135       12.125      215.867      260.351      147.026        0.074        0.031       28.731        5.693        0.039      333.864        3.460      869.229
01/15/2022  18:18:00      -47.050       -4.415      -22.473       16.416       13.871       16.393      269.477      192.398      268.739        0.173        0.037       47.257        7.577        0.026      333.929        3.569      869.238
01/15/2022  18:19:00      -32.113       -2.296       -6.530       19.592       18.068       16.754      383.843      326.458      280.702        0.103        0.050       32.195       11.904        0.137      333.893        3.508      869.240
01/15/2022  18:20:00      -45.193      -16.074      -19.661       17.644       16.544       19.217      311.318      273.691      369.305        0.182        0.048       47.966       13.744        0.082      333.889        3.501      869.240
01/15/2022  18:21:00      -28.286       -3.261       -8.989       21.983       17.865       14.273      483.273      319.147      203.728        0.095        0.050       28.473       12.762        0.201      333.900        3.519      869.244
01/15/2022  18:22:00      -54.250        6.292      -15.021       12.154       14.174       11.736      147.727      200.909      137.730        0.185        0.024       54.614        9.587        0.031      333.939        3.585      869.245
01/15/2022  18:23:00      -46.385       15.765       -8.833       14.117       12.488       12.047      199.304      155.951      145.133        0.149        0.025       48.991        7.395        0.023      333.936        3.579      869.255
01/15/2022  18:24:00      -26.466        9.201       -8.648       14.036       12.608       11.132      197.012      158.958      123.918        0.067        0.024       28.020        7.053        0.063      333.993        3.673      869.259
01/15/2022  18:25:00       -1.902       14.733      -10.475       14.290       12.863       13.693      204.190      165.454      187.508        0.044        0.028       14.855        6.734        0.205      334.068        3.798      869.260
01/15/2022  18:26:00       -1.287       11.207       -7.439        8.066        8.662        8.811       65.060       75.025       77.631        0.020        0.011       11.280        3.526        0.098      334.226        4.057      869.265
01/15/2022  18:27:00        1.919       24.277       -6.336        8.372       10.907       10.580       70.089      118.972      111.935        0.047        0.015       24.353        6.452        0.070      334.318        4.211      869.276
01/15/2022  18:28:00       28.536       32.556       -2.965       20.562       12.751       11.496      422.801      162.598      132.169        0.130        0.036       43.292       10.600        0.060      334.397        4.342      869.284
01/15/2022  18:29:00       35.967       37.974       -5.613       15.498       11.517       10.535      240.198      132.635      110.987        0.163        0.024       52.303        7.318        0.020      334.449        4.430      869.298
01/15/2022  18:30:00       29.243       15.884       -4.167       19.607       11.058       10.502      384.423      122.276      110.299        0.087        0.031       33.278        9.741        0.086      334.373        4.302      869.302
01/15/2022  18:31:00       27.186        6.837       -4.659       14.623       11.298        6.069      213.833      127.653       36.829        0.059        0.019       28.033        4.714        0.028      334.348        4.260      869.315
01/15/2022  18:32:00       18.961       18.292       -0.041       13.984       18.591       12.745      195.545      345.642      162.441        0.070        0.035       26.346        9.625        0.133      334.324        4.221      869.331
01/15/2022  18:33:00       23.801       43.990       -5.496       23.043       40.251       12.002      531.001     1620.163      144.047        0.241        0.115       50.016       11.185        0.050      334.381        4.315      869.347
01/15/2022  18:34:00       32.160       75.242       -4.739       19.407       27.937       13.786      376.633      780.485      190.052        0.403        0.067       81.827       10.613        0.017      334.457        4.440      869.362
01/15/2022  18:35:00       14.703       60.684       -5.765       21.873       31.211       16.853      478.410      974.111      284.031        0.283        0.087       62.440       12.228        0.038      334.426        4.389      869.383
01/15/2022  18:36:00       -8.667       10.218       -3.087       12.718       14.688       10.056      161.743      215.750      101.116        0.033        0.024       13.399        5.980        0.199      334.021        3.720      869.404
01/15/2022  18:37:00       15.868       65.486       -5.358       26.520       24.345       18.008      703.328      592.664      324.274        0.309        0.081       67.381       13.573        0.041      334.339        4.245      869.409
01/15/2022  18:38:00        3.957       54.901       -6.385       22.263       20.096       14.096      495.634      403.838      198.699        0.208        0.055       55.043        8.706        0.025      334.399        4.346      869.412
01/15/2022  18:39:00       11.912       46.086      -12.486       39.519       22.931       17.243     1561.768      525.844      297.337        0.240        0.119       47.600        8.711        0.033      334.235        4.073      869.412
01/15/2022  18:40:00       32.982       60.344       -8.398       24.937       18.780       15.801      621.853      352.705      249.657        0.301        0.061       68.770        9.741        0.020      334.538        4.576      869.417
01/15/2022  18:41:00       77.546       46.642      -14.423       14.366       14.078       11.218      206.383      198.204      125.834        0.446        0.027       90.493        5.542        0.004      334.459        4.443      869.424
01/15/2022  18:42:00       31.924       58.781       -3.637       26.526       22.589       21.034      703.612      510.284      442.410        0.307        0.083       66.890       15.095        0.051      334.428        4.393      869.426
01/15/2022  18:43:00       51.551       65.206      -11.050       27.638       15.454       12.527      763.850      238.835      156.936        0.410        0.058       83.123       11.169        0.018      334.493        4.502      869.426
01/15/2022  18:44:00       40.672       67.218       -5.332       22.815       15.612       14.133      520.528      243.725      199.752        0.358        0.048       78.566        8.696        0.012      334.552        4.597      869.424
01/15/2022  18:45:00       63.000       68.270      -15.143       17.445       15.140       11.706      304.317      229.231      137.026        0.476        0.034       92.896        7.255        0.006      334.504        4.519      869.423
01/15/2022  18:46:00       38.887       46.353      -10.846       23.435       12.368       13.220      549.212      152.969      174.758        0.233        0.044       60.505       12.342        0.042      334.443        4.419      869.422
01/15/2022  18:47:00       32.519       34.706       -6.560       18.596       18.652       13.026      345.813      347.889      169.686        0.158        0.043       47.561        9.102        0.037      334.380        4.315      869.430
01/15/2022  18:48:00       35.622       31.694       -5.461       16.828       15.391       14.092      283.197      236.877      198.593        0.151        0.036       47.681       11.477        0.058      334.373        4.303      869.432
01/15/2022  18:49:00       60.164       48.405      -11.852       26.894       17.803       15.702      723.272      316.937      246.549        0.369        0.064       77.219       14.703        0.036      334.418        4.376      869.423
01/15/2022  18:50:00       68.448       43.581       -8.843       36.253       20.704       14.891     1314.309      428.645      221.755        0.431        0.098       81.144        6.402        0.006      334.390        4.334      869.425
01/15/2022  18:51:00       83.559       32.552      -13.796       20.879       19.861       14.030      435.920      394.443      196.836        0.463        0.051       89.676        7.127        0.006      334.412        4.369      869.440
01/15/2022  18:52:00       76.621       52.145      -14.847       14.407       15.377       15.204      207.555      236.464      231.158        0.474        0.034       92.681        9.525        0.011      334.430        4.396      869.456
01/15/2022  18:53:00       54.141       38.254      -10.253       22.502       21.613       12.416      506.361      467.142      154.155        0.281        0.056       66.291        7.592        0.013      334.405        4.355      869.465
01/15/2022  18:54:00       56.253       33.441       -5.387       17.688       10.989        9.254      312.849      120.754       85.643        0.242        0.026       65.442        4.938        0.006      334.421        4.382      869.470
01/15/2022  18:55:00       54.248       25.766       -7.133       13.841       11.724        6.433      191.567      137.447       41.377        0.201        0.019       60.056        4.590        0.006      334.395        4.339      869.477
01/15/2022  18:56:00       63.322       26.680       -5.648       10.931        6.513        5.624      119.490       42.423       31.625        0.247        0.010       68.713        2.609        0.001      334.372        4.303      869.482
01/15/2022  18:57:00       48.155        9.587       -7.267       10.883       10.360        7.094      118.442      107.325       50.328        0.137        0.014       49.100        2.514        0.003      334.340        4.248      869.488
01/15/2022  18:58:00       59.378        7.012       -8.992        6.913        7.193        4.933       47.795       51.735       24.332        0.189        0.006       59.791        3.878        0.004      334.363        4.287      869.498
01/15/2022  18:59:00       62.574        7.251       -8.076       10.101        7.636        7.473      102.023       58.316       55.851        0.212        0.011       62.993        4.068        0.004      334.387        4.327      869.506
01/15/2022  19:00:00       31.267       -9.550       -3.743       13.154       17.108        8.356      173.028      292.670       69.826        0.081        0.027       32.693        5.425        0.028      334.359        4.281      869.507
01/15/2022  19:01:00       26.403        3.014       -5.962       16.959       15.999        9.900      287.614      255.970       98.014        0.069        0.032       26.574        9.552        0.129      334.323        4.221      869.496
01/15/2022  19:02:00       62.639        6.746       -9.002       13.681       10.224        9.186      187.163      104.530       84.383        0.221        0.019       63.001        6.245        0.010      334.368        4.295      869.483
01/15/2022  19:03:00       52.464       -1.440       -5.938       19.318       12.647        9.398      373.188      159.938       88.317        0.171        0.031       52.484        9.941        0.036      334.320        4.214      869.485
01/15/2022  19:04:00       51.882       29.247       -0.586       15.604       19.500        7.957      243.470      380.258       63.311        0.212        0.034       59.558        6.829        0.013      334.282        4.151      869.486
01/15/2022  19:05:00       77.938       39.022       -4.381       15.120       19.519       15.260      228.624      380.983      232.862        0.423        0.042       87.161        7.236        0.007      334.356        4.274      869.505
01/15/2022  19:06:00       62.994       22.998       -4.757       21.196       25.301       17.392      449.274      640.145      302.497        0.296        0.070       67.061        9.697        0.021      334.330        4.232      869.516
01/15/2022  19:07:00       52.434       15.571       -5.269       12.714       13.898       12.909      161.634      193.144      166.635        0.177        0.026       54.697        9.096        0.028      334.313        4.202      869.523
01/15/2022  19:08:00       27.610        4.250       -6.140       12.334       10.721        9.015      152.132      114.938       81.273        0.058        0.017       27.935        6.738        0.058      334.309        4.195      869.526
01/15/2022  19:09:00        9.512       11.825       -0.937        9.022        6.126        4.250       81.392       37.529       18.064        0.018        0.007       15.176        4.420        0.085      334.248        4.093      869.525
01/15/2022  19:10:00      -16.573        3.927       -5.132       21.542        8.403        4.293      464.057       70.618       18.432        0.043        0.028       17.032        3.338        0.038      334.133        3.904      869.522
01/15/2022  19:11:00      -55.197       16.295      -15.914       10.545       11.786       11.281      111.202      138.910      127.254        0.197        0.019       57.552        5.216        0.008      333.933        3.575      869.528
01/15/2022  19:12:00      -69.970       18.237      -14.200       22.411       18.569       13.477      502.275      344.812      181.625        0.323        0.051       72.307       11.785        0.027      333.725        3.229      869.522
01/15/2022  19:13:00      -98.499       40.259      -10.168       17.240       14.714       11.681      297.232      216.501      136.445        0.604        0.033      106.409        5.287        0.002      333.480        2.822      869.521
01/15/2022  19:14:00     -112.475       56.612      -14.948       30.156       21.325       17.657      909.371      454.754      311.779        0.888        0.084      125.919        9.732        0.006      333.460        2.789      869.525
01/15/2022  19:15:00      -95.723       38.549      -15.835       23.393       27.074       15.829      547.239      733.003      250.557        0.621        0.077      103.194        9.065        0.008      333.428        2.737      869.523
01/15/2022  19:16:00      -97.524       44.897      -11.416       32.198       30.322       13.092     1036.735      919.428      171.406        0.689        0.106      107.363       12.807        0.014      333.376        2.650      869.532
01/15/2022  19:17:00      -90.001       37.031       -7.534       29.448       23.809       18.266      867.160      566.868      333.658        0.565        0.088       97.322       15.949        0.027      333.336        2.585      869.544
01/15/2022  19:18:00      -67.585       17.131      -21.377       19.287       19.449       11.704      371.996      378.276      136.974        0.310        0.044       69.722        6.799        0.010      333.408        2.704      869.545
01/15/2022  19:19:00      -87.366       27.418      -13.254       24.390       13.955       15.183      594.883      194.748      230.536        0.479        0.051       91.567       10.014        0.012      333.366        2.635      869.550
01/15/2022  19:20:00      -83.020       21.887      -15.414       23.667       18.819       11.929      560.123      354.173      142.305        0.433        0.053       85.857        7.476        0.008      333.421        2.725      869.555
01/15/2022  19:21:00      -53.803        9.492      -12.689       31.604       19.442       14.681      998.840      377.997      215.530        0.237        0.080       54.634       12.059        0.049      333.434        2.748      869.559
01/15/2022  19:22:00      -15.544        5.934       -8.999       25.208       23.097       15.874      635.451      533.473      251.983        0.089        0.071       16.639       11.731        0.497      333.401        2.691      869.565
01/15/2022  19:23:00       -5.717       -1.504       -6.410       14.638       25.140       11.672      214.269      631.997      136.242        0.053        0.049        5.912       11.517        3.795      333.408        2.704      869.571
01/15/2022  19:24:00      -23.436      -12.541      -14.529       20.109       12.614       13.192      404.391      159.104      174.030        0.083        0.037       26.581        7.289        0.075      333.466        2.801      869.566
01/15/2022  19:25:00      -17.494      -24.105      -13.788       17.112       14.848       11.208      292.830      220.455      125.611        0.086        0.032       29.785        9.582        0.103      333.442        2.761      869.564
01/15/2022  19:26:00      -41.643        5.508      -16.572       15.703       15.256       15.407      246.584      232.750      237.369        0.138        0.036       42.005       11.103        0.070      333.526        2.899      869.561
01/15/2022  19:27:00      -13.186       -8.155      -14.655       16.248       12.141       16.142      263.989      147.407      260.570        0.056        0.034       15.504       13.509        0.759      333.572        2.975      869.564
01/15/2022  19:28:00      -12.584       -2.768       -6.048       13.839        6.168        9.338      191.531       38.049       87.204        0.026        0.016       12.885        5.073        0.155      333.552        2.942      869.567
01/15/2022  19:29:00       -3.711        2.744       -7.066        8.649       11.970        8.341       74.811      143.275       69.570        0.018        0.014        4.616        4.143        0.806      333.499        2.855      869.567
01/15/2022  19:30:00      -20.612        5.219      -13.193       16.958       10.080       13.093      287.578      101.612      171.414        0.059        0.028       21.263        8.069        0.144      333.640        3.089      869.570
01/15/2022  19:31:00       -5.950       -5.532       -4.502        8.150        9.851       14.881       66.425       97.045      221.442        0.024        0.019        8.125       10.285        1.603      333.529        2.906      869.572
01/15/2022  19:32:00       -7.484        4.518      -13.335       10.462        7.438       10.171      109.458       55.330      103.455        0.026        0.013        8.742        8.361        0.915      333.779        3.317      869.573
01/15/2022  19:33:00      -13.997        9.212       -2.993       10.476       11.985       12.427      109.746      143.639      154.426        0.035        0.020       16.756        6.524        0.152      333.870        3.469      869.566
01/15/2022  19:34:00       16.535       20.895       -7.414       14.753        8.160       10.567      217.662       66.592      111.667        0.058        0.020       26.646        6.216        0.054      334.119        3.881      869.560
01/15/2022  19:35:00       17.749       20.820       -5.457       19.541       11.563        6.226      381.845      133.704       38.765        0.067        0.028       27.359        8.125        0.088      334.239        4.077      869.560
01/15/2022  19:36:00       29.386        6.074       -6.199       16.697       17.137       12.482      278.794      293.675      155.809        0.083        0.036       30.007       12.527        0.174      334.242        4.084      869.559
01/15/2022  19:37:00       36.000       -2.053       -7.365       12.694       18.096        6.982      161.140      327.480       48.748        0.095        0.027       36.059        7.656        0.045      334.155        3.940      869.551
01/15/2022  19:38:00       36.229        2.809       -1.249       17.601       10.543        8.075      309.780      111.157       65.203        0.090        0.024       36.337        2.914        0.006      334.137        3.912      869.538
01/15/2022  19:39:00       50.267       -0.964       -4.035       15.878       13.290        8.612      252.108      176.628       74.160        0.152        0.025       50.276        7.537        0.022      334.209        4.030      869.537
01/15/2022  19:40:00       34.829        7.373       -6.017        7.580        9.664        7.830       57.463       93.390       61.301        0.076        0.011       35.601        5.635        0.025      334.147        3.927      869.539
01/15/2022  19:41:00       14.990       10.235        1.260       24.197        9.428        7.353      585.511       88.884       54.072        0.053        0.036       18.151        5.727        0.100      334.107        3.860      869.546
01/15/2022  19:42:00       -9.992        0.815        7.030       17.274       11.410        9.392      298.381      130.183       88.202        0.033        0.026       10.025        9.462        0.891      333.563        2.961      869.549
01/15/2022  19:43:00      -41.459        7.233       -7.970       23.124       19.405       13.367      534.702      376.554      178.685        0.146        0.054       42.085        8.669        0.042      333.380        2.657      869.548
01/15/2022  19:44:00      -43.431      -12.230       -8.379       31.175       17.797       19.054      971.890      316.740      363.040        0.188        0.083       45.120       17.339        0.148      333.311        2.545      869.553
01/15/2022  19:45:00      -55.789       -9.657      -10.728       25.065       24.683       23.745      628.247      609.245      563.834        0.256        0.090       56.618       17.736        0.098      333.272        2.480      869.550
01/15/2022  19:46:00      -58.968        2.009      -13.125       30.562       20.790       18.463      934.032      432.239      340.894        0.268        0.085       59.002       13.041        0.049      333.250        2.443      869.550
01/15/2022  19:47:00      -80.102        5.424      -18.735       34.122       26.950       22.234     1164.286      726.286      494.369        0.459        0.119       80.285       17.041        0.045      333.277        2.487      869.544
01/15/2022  19:48:00      -44.483       10.196      -11.085       43.073       28.237       15.519     1855.316      797.308      240.841        0.255        0.145       45.637       11.773        0.067      333.217        2.389      869.541
01/15/2022  19:49:00      -54.310       12.990       -9.802       26.409       25.961       16.696      697.416      673.963      278.772        0.243        0.083       55.842        6.052        0.012      333.185        2.334      869.538
01/15/2022  19:50:00      -82.070       32.491       -9.535       25.421       18.653       17.704      646.241      347.937      313.432        0.459        0.065       88.267        6.812        0.006      333.165        2.302      869.532
01/15/2022  19:51:00      -88.728       22.303      -15.592       19.386       19.931       13.085      375.833      397.262      171.223        0.478        0.047       91.488       11.515        0.016      333.166        2.302      869.528
01/15/2022  19:52:00      -57.677       20.349       -4.949       31.022       26.283       16.312      962.366      690.786      266.092        0.284        0.096       61.161       14.613        0.057      333.162        2.296      869.516
01/15/2022  19:53:00      -41.948        5.854       -2.210       49.281       20.299       16.136     2428.573      412.046      260.381        0.245        0.155       42.355       21.066        0.247      333.149        2.277      869.505
01/15/2022  19:54:00        0.071        8.337       -7.435       39.954       25.990       21.101     1596.361      675.505      445.249        0.142        0.136        8.337       19.022        5.206      333.122        2.231      869.505
01/15/2022  19:55:00      -77.735       11.236      -16.570       45.885       31.560       22.052     2105.393      996.051      486.283        0.501        0.179       78.543       13.103        0.028      333.138        2.258      869.499
01/15/2022  19:56:00     -105.664       39.757       -5.025       46.260       32.916       19.767     2139.988     1083.453      390.721        0.819        0.181      112.896       17.529        0.024      333.063        2.133      869.500
01/15/2022  19:57:00     -107.960       53.917       -5.718       44.561       36.847       21.959     1985.695     1357.683      482.205        0.921        0.191      120.675       21.385        0.031      332.962        1.967      869.500
01/15/2022  19:58:00      -89.450       36.679       -3.334       64.348       32.087       24.821     4140.634     1029.605      616.100        0.757        0.289       96.678       25.976        0.072      332.971        1.980      869.497
01/15/2022  19:59:00     -114.533       27.560       -9.412       33.688       31.985       23.194     1134.899     1023.039      537.984        0.833        0.135      117.802       10.943        0.009      332.997        2.024      869.499
01/15/2022  20:00:00      -71.780       21.304       -4.581       51.301       32.004       26.637     2631.799     1024.259      709.523        0.500        0.218       74.875       28.822        0.148      332.994        2.019      869.498
01/15/2022  20:01:00      -71.893       29.036      -10.621       48.366       37.679       21.141     2339.261     1419.736      446.943        0.516        0.210       77.535       21.610        0.078      332.996        2.025      869.497
01/15/2022  20:02:00      -39.457       17.153       -6.466       52.655       26.993       23.569     2772.509      728.638      555.492        0.297        0.203       43.024       11.150        0.067      332.941        1.932      869.500
01/15/2022  20:03:00      -52.226       -2.387       -9.400       51.349       26.448       21.107     2636.679      699.482      445.520        0.330        0.189       52.280       20.727        0.157      332.999        2.029      869.508
01/15/2022  20:04:00      -76.095       19.205       -4.794       57.730       37.285       26.707     3332.785     1390.152      713.288        0.581        0.272       78.481       29.493        0.141      332.998        2.027      869.519
01/15/2022  20:05:00      -56.648        9.735      -18.544       61.181       34.370       25.635     3743.162     1181.307      657.140        0.461        0.279       57.478       25.309        0.194      332.989        2.010      869.522
01/15/2022  20:06:00       -8.257       -1.421       -2.887       52.314       23.768       20.867     2736.752      564.917      435.433        0.191        0.187        8.379       22.919        7.483      332.973        1.985      869.514
01/15/2022  20:07:00      -62.582       18.107      -11.694       41.704       34.280       25.542     1739.264     1175.144      652.370        0.397        0.178       65.149       21.547        0.109      332.951        1.949      869.503
01/15/2022  20:08:00     -128.754       34.951      -12.876       41.205       33.523       19.225     1697.860     1123.809      369.619        1.058        0.160      133.414       16.382        0.015      332.908        1.878      869.494
01/15/2022  20:09:00     -125.188       49.859      -12.446       31.365       25.902       20.111      983.734      670.896      404.450        1.019        0.103      134.751       16.626        0.015      332.871        1.816      869.493
01/15/2022  20:10:00     -122.364       65.059       -0.969       63.541       30.603       26.755     4037.476      936.529      715.838        1.245        0.284      138.585       26.540        0.037      332.801        1.700      869.495
01/15/2022  20:11:00      -97.353       33.138       -8.660       65.102       50.566       32.918     4238.246     2556.921     1083.591        0.926        0.394      102.839       31.466        0.094      332.776        1.659      869.495
01/15/2022  20:12:00      -98.680       27.212       -1.518       54.572       35.790       29.100     2978.073     1280.919      846.788        0.779        0.255      102.364       27.056        0.070      332.722        1.570      869.498
01/15/2022  20:13:00     -119.346       32.679       -2.811       52.815       38.538       26.801     2789.424     1485.147      718.284        1.016        0.250      123.739       23.548        0.036      332.690        1.518      869.491
01/15/2022  20:14:00     -117.756       26.811       -6.814       46.725       37.053       26.633     2183.245     1372.891      709.304        0.945        0.213      120.769       24.552        0.041      332.702        1.537      869.491
01/15/2022  20:15:00     -108.508       55.971      -17.386       51.943       42.132       29.811     2698.059     1775.066      888.697        1.028        0.268      122.093        8.658        0.005      332.735        1.592      869.488
01/15/2022  20:16:00     -109.732       29.708       -8.121       61.959       37.792       30.226     3838.955     1428.218      913.638        0.958        0.309      113.682       23.780        0.044      332.697        1.528      869.474
01/15/2022  20:17:00     -105.410       30.268       -4.923       59.306       34.058       24.063     3517.196     1159.934      579.042        0.865        0.263      109.669       24.035        0.048      332.671        1.486      869.462
01/15/2022  20:18:00     -111.422       32.539      -16.453       45.068       30.002       17.308     2031.092      900.126      299.562        0.849        0.162      116.076        9.790        0.007      332.738        1.596      869.462
01/15/2022  20:19:00      -71.584       12.679      -11.232       58.955       40.868       22.994     3475.680     1670.207      528.704        0.554        0.284       72.699       26.877        0.137      332.801        1.701      869.468
01/15/2022  20:20:00      -27.946       10.790      -12.402       64.688       16.913       25.213     4184.539      286.058      635.686        0.308        0.255       29.957       18.095        0.365      332.771        1.652      869.473
01/15/2022  20:21:00      -27.987       -3.532       -2.543       33.668       24.771       25.756     1133.551      613.599      663.393        0.161        0.121       28.209       21.035        0.556      332.833        1.753      869.463
01/15/2022  20:22:00       -2.522        8.011       -0.840       26.541       32.173       16.464      704.400     1035.096      271.067        0.104        0.101        8.399       12.683        2.280      332.804        1.706      869.451
01/15/2022  20:23:00        4.088       -5.825      -13.182       22.114       24.160       17.189      489.048      583.707      295.455        0.080        0.068        7.116       11.259        2.503      332.810        1.715      869.448
01/15/2022  20:24:00       10.581       14.602        2.996       14.178       12.513       13.410      201.025      156.581      179.834        0.044        0.027       18.032        8.476        0.221      332.735        1.591      869.445
01/15/2022  20:25:00       -7.741       -7.960       -6.324       14.762       25.714       17.923      217.904      661.211      321.234        0.068        0.060       11.104        9.059        0.666      332.757        1.628      869.436
01/15/2022  20:26:00      -25.410       -0.264       -7.267       28.491       20.793       20.569      811.728      432.367      423.073        0.118        0.083       25.411       20.695        0.663      332.731        1.585      869.444
01/15/2022  20:27:00      -54.130       18.483      -13.019       45.940       23.934       22.234     2110.510      572.822      494.333        0.331        0.159       57.199       28.416        0.247      332.735        1.589      869.438
01/15/2022  20:28:00      -33.761        7.845        0.305       38.824       37.981       21.847     1507.334     1442.531      477.291        0.231        0.171       34.660       21.732        0.393      332.795        1.690      869.434
01/15/2022  20:29:00      -69.475       17.966      -16.753       17.437       25.092       21.709      304.063      629.615      471.299        0.342        0.070       71.760       14.961        0.043      332.762        1.636      869.436
01/15/2022  20:30:00      -48.405       10.922       -7.508       32.302       21.479       20.624     1043.394      461.333      425.368        0.222        0.097       49.622       19.076        0.148      332.755        1.625      869.444
01/15/2022  20:31:00       -8.298      -12.490       -6.208       28.435       17.425       17.737      808.543      303.614      314.603        0.084        0.071       14.995       15.676        1.093      332.785        1.675      869.454
01/15/2022  20:32:00       -9.601        4.537       -5.215       20.531       21.605       13.547      421.514      466.795      183.514        0.061        0.054       10.620        8.539        0.647      332.768        1.645      869.464
01/15/2022  20:33:00      -22.285        0.907      -11.728       31.599       18.292       13.006      998.501      334.593      169.149        0.107        0.075       22.303       13.418        0.362      332.795        1.688      869.467
01/15/2022  20:34:00        1.221       -5.743      -10.494       15.612       15.923       11.459      243.721      253.557      131.312        0.039        0.031        5.871        6.067        1.068      332.794        1.688      869.469
01/15/2022  20:35:00      -16.193       13.495       -9.439       19.975       28.097       17.732      398.998      789.445      314.434        0.102        0.075       21.079       14.841        0.496      332.811        1.718      869.474
01/15/2022  20:36:00      -28.804      -25.353      -17.833       24.239       18.557       19.337      587.521      344.366      373.916        0.155        0.065       38.372       17.488        0.208      332.815        1.725      869.468
01/15/2022  20:37:00      -47.414        2.058      -16.772       19.363       18.331       14.120      374.944      336.018      199.368        0.172        0.046       47.459       11.196        0.056      332.845        1.774      869.466
01/15/2022  20:38:00      -59.687       18.750      -21.845       14.388       11.749        9.039      207.023      138.030       81.700        0.241        0.021       62.562        4.905        0.006      332.861        1.800      869.457
01/15/2022  20:39:00      -26.990       10.801      -13.869       19.489       20.909       11.277      379.836      437.204      127.179        0.099        0.047       29.071        3.055        0.011      332.873        1.818      869.449
01/15/2022  20:40:00      -28.939      -19.889      -14.379       19.920       13.351       11.742      396.796      178.258      137.876        0.108        0.036       35.114        3.593        0.010      332.827        1.743      869.444
01/15/2022  20:41:00      -34.721       -3.148       -6.045       25.744       19.313       12.770      662.737      372.974      163.068        0.123        0.060       34.864       13.132        0.142      332.810        1.716      869.449
01/15/2022  20:42:00      -53.525       10.026       -4.567       29.873       17.167       12.152      892.408      294.698      147.668        0.216        0.067       54.456       15.640        0.082      332.800        1.699      869.463
01/15/2022  20:43:00        5.753      -11.067        1.035        9.189       10.241        7.894       84.446      104.883       62.321        0.020        0.013       12.473        4.274        0.117      332.912        1.884      869.463
01/15/2022  20:44:00      -23.499       -0.256       -7.855       14.000       12.777        7.021      196.009      163.239       49.293        0.051        0.020       23.500        4.023        0.029      332.905        1.873      869.461
01/15/2022  20:45:00      -26.990        3.046       -7.355       10.546       11.883        7.235      111.217      141.197       52.346        0.055        0.015       27.161        3.338        0.015      332.964        1.970      869.463
01/15/2022  20:46:00      -22.837       -0.906       -5.591       14.199       16.404        7.288      201.624      269.082       53.112        0.054        0.026       22.855        7.194        0.099      332.963        1.968      869.452
01/15/2022  20:47:00      -36.252        5.198       -8.448       21.900       13.625       13.698      479.619      185.652      187.645        0.113        0.043       36.623        6.549        0.032      332.893        1.853      869.454
01/15/2022  20:48:00        2.532        1.875        0.173       24.376       16.378       11.877      594.168      268.253      141.073        0.051        0.050        3.151       12.302       15.244      332.899        1.863      869.452
01/15/2022  20:49:00      -44.365        7.064       -1.132       36.420       21.596       17.349     1326.384      466.393      300.986        0.206        0.105       44.924       16.036        0.127      332.860        1.799      869.448
01/15/2022  20:50:00      -23.394        4.236       -0.015       31.409       16.210       13.062      986.534      262.769      170.608        0.099        0.071       23.775       12.584        0.280      332.803        1.705      869.453
01/15/2022  20:51:00      -75.179       12.456        0.459       31.743       27.886       24.143     1007.597      777.631      582.903        0.409        0.118       76.204       19.286        0.064      332.702        1.537      869.446
01/15/2022  20:52:00      -65.427       17.502       -2.161       33.103       20.720       20.001     1095.777      429.308      400.035        0.326        0.096       67.728       19.543        0.083      332.740        1.600      869.460
01/15/2022  20:53:00      -47.648       13.922        5.880       36.532       28.345       20.402     1334.620      803.444      416.222        0.253        0.128       49.641       21.174        0.182      332.739        1.598      869.464
01/15/2022  20:54:00      -69.393       22.101       -0.854       34.814       24.901       21.420     1212.014      620.080      458.827        0.380        0.115       72.827       14.448        0.039      332.610        1.385      869.466
01/15/2022  20:55:00      -42.186       -1.453        6.988       49.743       24.853       18.538     2474.382      617.680      343.643        0.263        0.172       42.211       20.546        0.237      332.593        1.357      869.465
01/15/2022  20:56:00      -67.468       -9.038       -1.183       57.171       35.062       24.134     3268.544     1229.322      582.462        0.486        0.254       68.071       23.327        0.117      332.635        1.426      869.469
01/15/2022  20:57:00      -59.612       -3.288        0.391       34.896       31.908       21.995     1217.717     1018.129      483.780        0.314        0.136       59.702       12.466        0.044      332.698        1.531      869.460
01/15/2022  20:58:00      -97.060        6.801      -11.487       39.704       28.254       22.381     1576.400      798.285      500.925        0.624        0.144       97.298       10.992        0.013      332.585        1.344      869.465
01/15/2022  20:59:00      -93.713       17.448      -10.162       45.108       30.983       21.381     2034.745      959.950      457.167        0.632        0.173       95.324        5.002        0.003      332.583        1.340      869.473
01/15/2022  21:00:00      -78.101       22.058        1.423       43.222       32.091       21.435     1868.147     1029.805      459.440        0.497        0.168       81.156       21.909        0.073      332.523        1.241      869.466
01/15/2022  21:01:00     -104.753       25.661       -6.017       51.316       35.230       21.839     2633.340     1241.164      476.930        0.801        0.218      107.850       20.817        0.037      332.516        1.229      869.465
01/15/2022  21:02:00      -43.573       -6.769        6.760       37.700       30.362       21.879     1421.323      921.844      478.690        0.241        0.141       44.096       17.352        0.155      332.604        1.375      869.463
01/15/2022  21:03:00      -81.490       19.120       -2.684       32.393       24.431       20.690     1049.325      596.879      428.061        0.454        0.104       83.703       13.241        0.025      332.539        1.267      869.463
01/15/2022  21:04:00      -96.406       15.420       -0.325       31.896       24.243       19.113     1017.331      587.719      365.305        0.575        0.099       97.631       12.657        0.017      332.526        1.245      869.457
01/15/2022  21:05:00      -74.315        4.222       -5.104       36.786       31.598       16.077     1353.195      998.442      258.455        0.409        0.131       74.435       12.460        0.028      332.574        1.326      869.455
01/15/2022  21:06:00      -77.202       22.335       -7.492       25.781       17.152       14.756      664.651      294.194      217.748        0.385        0.059       80.368       12.060        0.023      332.516        1.230      869.454
01/15/2022  21:07:00      -45.857        3.341       -5.861       30.461       19.315       16.186      927.852      373.076      261.991        0.186        0.078       45.979       15.776        0.118      332.489        1.186      869.458
01/15/2022  21:08:00      -72.331       15.204       -1.509       37.225       22.277       19.297     1385.712      496.284      372.363        0.386        0.113       73.912       20.904        0.080      332.428        1.084      869.456
01/15/2022  21:09:00      -60.992       13.580       -4.770       28.773       26.527       17.978      827.914      703.693      323.209        0.289        0.093       62.485       13.983        0.050      332.433        1.092      869.462
01/15/2022  21:10:00      -78.818       30.650      -10.897       29.496       22.403       20.578      870.043      501.908      423.450        0.453        0.090       84.568       18.537        0.048      332.413        1.060      869.457
01/15/2022  21:11:00      -87.570       28.479      -13.440       10.169       14.446       12.239      103.406      208.685      149.789        0.456        0.023       92.084        6.129        0.004      332.376        0.997      869.453
01/15/2022  21:12:00      -63.938       17.304      -13.522       20.138       15.933       13.560      405.528      253.845      183.867        0.271        0.042       66.238        8.751        0.017      332.404        1.043      869.453
01/15/2022  21:13:00      -68.443       31.079      -12.991       23.105       19.753       13.918      533.836      390.174      193.706        0.347        0.056       75.169       11.289        0.023      332.400        1.038      869.412
01/15/2022  21:14:00      -80.085       32.316      -21.934       15.357       15.240        9.836      235.842      232.259       96.738        0.425        0.028       86.359        4.662        0.003      332.369        0.987      869.356
01/15/2022  21:15:00      -59.127        8.537      -15.923       31.702       21.219       14.783     1005.041      450.257      218.532        0.275        0.084       59.740       13.993        0.055      332.304        0.879      869.346
01/15/2022  21:16:00      -85.365       30.022      -14.395       34.111       21.777       19.091     1163.536      474.252      364.472        0.520        0.100       90.490       13.035        0.021      332.254        0.796      869.335
01/15/2022  21:17:00      -85.378       37.284      -12.149       28.771       15.761       10.228      827.749      248.399      104.620        0.500        0.059       93.164        5.790        0.004      332.278        0.838      869.327
01/15/2022  21:18:00      -54.986       19.338      -18.705       12.892        7.153        8.011      166.203       51.164       64.171        0.201        0.014       58.288        4.993        0.007      332.315        0.899      869.320
01/15/2022  21:19:00      -38.151       22.573      -15.129       15.304        7.752        9.097      234.211       60.088       82.750        0.129        0.019       44.329        7.323        0.027      332.452        1.124      869.307
01/15/2022  21:20:00      -34.092       12.680      -15.293       17.074       14.037       12.410      291.518      197.043      154.003        0.110        0.032       36.374        8.809        0.059      332.734        1.590      869.296
01/15/2022  21:21:00      -12.501       -6.452       -3.380       13.902       21.381       13.085      193.268      457.163      171.211        0.052        0.041       14.068       13.462        0.916      332.314        0.896      869.283
01/15/2022  21:22:00      -30.819       -2.999      -10.766       27.435       16.064       14.571      752.700      258.057      212.311        0.115        0.061       30.964       12.667        0.167      332.248        0.787      869.272
01/15/2022  21:23:00      -53.336       -3.191      -15.544       25.208       17.623       15.459      635.434      310.566      238.978        0.214        0.059       53.432        9.055        0.029      332.270        0.823      869.269
01/15/2022  21:24:00     -101.201       18.011      -14.112       16.286       12.510       11.784      265.240      156.491      138.864        0.566        0.028      102.792        3.887        0.001      332.276        0.834      869.261
01/15/2022  21:25:00      -73.791        9.003      -12.567       26.497       15.406       12.916      702.104      237.332      166.819        0.339        0.055       74.338        7.419        0.010      332.365        0.979      869.248
01/15/2022  21:26:00      -46.766       -0.928       -8.101       23.185       22.099       16.155      537.567      488.348      260.992        0.177        0.064       46.775       11.581        0.061      332.422        1.073      869.247
01/15/2022  21:27:00      -38.436        4.429       -2.162       25.099       19.033       15.569      629.948      362.259      242.394        0.137        0.062       38.691        8.513        0.048      332.326        0.915      869.238
01/15/2022  21:28:00      -47.337       -5.940       -5.946       37.974       27.078       16.856     1442.031      733.234      284.141        0.238        0.123       47.708       13.271        0.077      332.375        0.995      869.243
01/15/2022  21:29:00      -30.851       -0.844       -0.940       25.990       21.764       16.708      675.490      473.666      279.148        0.119        0.071       30.862       15.559        0.254      332.431        1.089      869.250
01/15/2022  21:30:00      -18.171       -1.023       -5.793       21.501       15.230       13.943      462.287      231.954      194.417        0.063        0.044       18.199       10.889        0.358      332.425        1.079      869.245
01/15/2022  21:31:00      -57.897       -5.813      -12.544       20.042       16.215       14.005      401.689      262.924      196.139        0.220        0.043       58.188        7.292        0.016      332.480        1.171      869.239
01/15/2022  21:32:00      -48.947       -1.369       -3.898       24.351       21.683       12.538      592.980      470.145      157.204        0.182        0.061       48.966       13.555        0.077      332.437        1.099      869.241
01/15/2022  21:33:00      -51.570       18.966       -6.312       19.828       21.975       11.872      393.168      482.894      140.949        0.204        0.051       54.947        7.462        0.018      332.366        0.980      869.229
01/15/2022  21:34:00      -30.456        9.427       -3.828       24.687       16.364       14.647      609.457      267.771      214.541        0.106        0.055       31.881       12.926        0.164      332.293        0.859      869.222
01/15/2022  21:35:00      -58.486        0.552      -11.868       19.102       14.771       14.839      364.894      218.170      220.183        0.218        0.040       58.488        2.758        0.002      332.338        0.935      869.210
01/15/2022  21:36:00      -19.836        5.676        3.899       28.827       17.791       14.214      830.981      316.535      202.038        0.089        0.067       20.632       14.624        0.502      332.247        0.784      869.199
01/15/2022  21:37:00      -57.584       32.059       -7.071       19.834       15.532       12.619      393.395      241.258      159.227        0.259        0.040       65.907        4.011        0.004      332.218        0.737      869.190
01/15/2022  21:38:00      -88.115       32.379       -8.810       26.622       17.797       15.514      708.712      316.746      240.676        0.508        0.063       93.876        5.398        0.003      332.149        0.622      869.186
01/15/2022  21:39:00      -86.541       17.652      -11.044       41.387       24.714       17.963     1712.886      610.790      322.678        0.528        0.132       88.323       15.084        0.029      332.165        0.650      869.178
01/15/2022  21:40:00       -1.763      -10.202       -2.909       28.327       27.816       21.766      802.427      773.705      473.748        0.108        0.102       10.353       10.195        0.970      332.198        0.704      869.163
01/15/2022  21:41:00      -53.281       -8.312       -0.344       54.416       32.969       25.055     2961.100     1086.922      627.750        0.379        0.234       53.926       24.361        0.204      332.193        0.696      869.149
01/15/2022  21:42:00      -23.525       -6.074        2.531       48.789       37.648       29.993     2380.339     1417.336      899.572        0.265        0.235       24.297       29.584        1.483      332.226        0.750      869.139
01/15/2022  21:43:00      -87.600        9.983       -0.052       63.563       46.540       29.542     4040.239     2165.983      872.754        0.742        0.354       88.167       26.175        0.088      332.179        0.672      869.127
01/15/2022  21:44:00     -118.626       25.380        6.105       59.060       34.773       30.290     3488.041     1209.179      917.492        1.018        0.281      121.310       31.162        0.066      332.090        0.526      869.123
01/15/2022  21:45:00     -106.452       15.949        3.259       55.239       32.993       24.818     3051.307     1088.530      615.946        0.818        0.238      107.640       25.576        0.056      332.090        0.526      869.122
01/15/2022  21:46:00     -148.403      -12.650      -10.428       36.884       23.336       26.941     1360.441      544.583      725.809        1.246        0.132      148.942       18.953        0.016      332.174        0.667      869.117
01/15/2022  21:47:00     -112.846       21.114       -5.597       46.879       41.395       26.894     2197.670     1713.519      723.277        0.892        0.232      114.804       24.636        0.046      332.143        0.613      869.112
01/15/2022  21:48:00      -85.985       -2.531       -8.908       41.221       36.802       28.984     1699.178     1354.388      840.078        0.569        0.195       86.022       22.702        0.070      332.194        0.697      869.100
01/15/2022  21:49:00     -109.599       28.869       -5.877       51.693       32.818       23.459     2672.175     1076.990      550.330        0.859        0.215      113.338       25.705        0.051      332.149        0.623      869.090
01/15/2022  21:50:00      -78.946       13.710        2.041       45.063       27.000       20.935     2030.658      729.010      438.284        0.481        0.160       80.127       20.891        0.068      332.088        0.525      869.078
01/15/2022  21:51:00      -85.645       -2.028       -6.151       36.245       31.850       19.790     1313.676     1014.417      391.658        0.505        0.136       85.669       17.163        0.040      332.207        0.719      869.078
01/15/2022  21:52:00      -60.597       11.510       -4.785       39.410       25.830       23.529     1553.166      667.197      553.600        0.330        0.139       61.680       15.052        0.060      332.204        0.713      869.078
01/15/2022  21:53:00      -64.563       16.457        0.736       48.756       26.487       19.575     2377.129      701.544      383.163        0.395        0.173       66.627       11.230        0.028      332.181        0.674      869.079
01/15/2022  21:54:00      -79.378        4.255       -7.137       43.462       33.674       23.113     1888.920     1133.939      534.228        0.496        0.178       79.492       20.372        0.066      332.114        0.565      869.085
01/15/2022  21:55:00      -80.906       10.855        0.534       59.444       26.441       21.655     3533.629      699.123      468.953        0.568        0.235       81.631       22.261        0.074      332.151        0.627      869.079
01/15/2022  21:56:00      -30.478       -0.316       -0.853       29.753       26.430       23.310      885.234      698.570      543.348        0.153        0.106       30.480       18.045        0.351      332.168        0.653      869.066
01/15/2022  21:57:00      -42.176        0.778       -8.962       46.615       27.407       20.383     2172.949      751.144      415.470        0.260        0.167       42.183       15.062        0.127      332.116        0.569      869.043
01/15/2022  21:58:00      -20.385        9.213        1.709       39.865       29.616       19.876     1589.252      877.094      395.056        0.168        0.143       22.370       15.602        0.486      332.035        0.437      869.039
01/15/2022  21:59:00       -8.851        9.613       -6.345       32.007       22.155       19.178     1024.418      490.845      367.789        0.105        0.094       13.068       14.291        1.196      332.024        0.416      869.040
01/15/2022  22:00:00      -47.234       13.029       -4.814       46.298       26.123       18.192     2143.540      682.430      330.965        0.279        0.158       48.998       17.572        0.129      332.053        0.466      869.049
01/15/2022  22:01:00      -32.655       -6.564       -2.754       46.785       29.388       27.009     2188.811      863.632      729.464        0.245        0.189       33.308       21.634        0.422      332.092        0.528      869.058
01/15/2022  22:02:00      -64.258      -13.680      -11.124       47.316       30.304       30.812     2238.826      918.315      949.405        0.427        0.205       65.698       23.795        0.131      331.979        0.342      869.062
01/15/2022  22:03:00        0.754        3.479        7.014       23.121       20.574       20.624      534.579      423.305      425.342        0.072        0.069        3.560       15.838       19.796      332.032        0.431      869.057
01/15/2022  22:04:00       -4.920       -0.352       -4.055       38.300       18.039       16.503     1466.923      325.405      272.353        0.105        0.103        4.932       17.467       12.541      332.116        0.570      869.056
01/15/2022  22:05:00      -77.427        9.563       -4.094       29.673       26.714       15.189      880.504      713.640      230.706        0.396        0.091       78.016        5.485        0.005      332.081        0.512      869.049
01/15/2022  22:06:00      -61.818       23.578       -1.847       31.889       23.360       16.234     1016.898      545.675      263.548        0.310        0.091       66.161       15.308        0.054      332.091        0.529      869.046
01/15/2022  22:07:00      -69.912       21.633       -2.124       42.659       20.683       17.651     1819.812      427.799      311.559        0.396        0.128       73.182       19.967        0.074      332.038        0.440      869.052
01/15/2022  22:08:00      -83.368       20.639       -9.068       20.860       11.719       11.516      435.147      137.338      132.625        0.408        0.035       85.884       10.476        0.015      332.077        0.505      869.054
01/15/2022  22:09:00      -73.652       25.497      -16.254       18.452        8.792        7.844      340.491       77.303       61.529        0.341        0.024       77.941        5.132        0.004      332.023        0.416      869.045
01/15/2022  22:10:00      -51.846       21.099      -11.281       28.623       14.929       14.609      819.253      222.877      213.434        0.226        0.063       55.974       14.045        0.063      332.039        0.443      869.034
01/15/2022  22:11:00      -59.380       21.109      -17.443       12.558       10.852       13.087      157.707      117.774      171.277        0.236        0.022       63.020        6.652        0.011      332.082        0.514      869.030
01/15/2022  22:12:00      -69.898       17.231      -18.705       12.373       15.467       11.591      153.091      239.213      134.342        0.303        0.026       71.991        7.595        0.011      332.048        0.459      869.022
01/15/2022  22:13:00      -73.992       15.839      -11.231       14.834       17.339        8.638      220.045      300.643       74.617        0.322        0.030       75.669        4.554        0.004      332.067        0.488      869.023
01/15/2022  22:14:00      -61.646       26.980       -9.989       12.269       15.129       11.925      150.526      228.875      142.213        0.257        0.026       67.291        3.170        0.002      332.010        0.394      869.023
01/15/2022  22:15:00      -70.665       23.672      -12.871        9.979       17.157       10.747       99.590      294.375      115.490        0.311        0.025       74.525        6.099        0.007      331.993        0.368      869.014
01/15/2022  22:16:00      -68.819       13.911      -19.240        5.626        7.675        4.737       31.654       58.906       22.442        0.271        0.006       70.211        2.600        0.001      331.941        0.283      869.005
01/15/2022  22:17:00      -45.316        4.720       -9.665       20.943       19.258       10.551      438.625      370.876      111.332        0.154        0.046       45.562        8.225        0.033      332.013        0.400      868.993
01/15/2022  22:18:00      -22.442        7.339       -3.204       20.974       17.568       11.421      439.898      308.646      130.440        0.072        0.044       23.612        5.862        0.062      331.974        0.335      868.989
01/15/2022  22:19:00      -41.485       22.403      -10.369       13.094        7.110        7.295      171.464       50.547       53.222        0.130        0.014       47.147        4.005        0.007      331.992        0.366      868.990
01/15/2022  22:20:00       12.625       16.489       -6.931       10.138        7.580        5.828      102.778       57.458       33.963        0.034        0.010       20.767        4.011        0.037      331.985        0.352      868.995
01/15/2022  22:21:00        9.708       23.059       -8.354        9.449        8.865        8.419       89.279       78.594       70.873        0.047        0.012       25.020        5.371        0.046      332.053        0.465      869.003
01/15/2022  22:22:00        9.111       23.405       -6.913       12.626       10.175       10.361      159.416      103.539      107.358        0.052        0.019       25.116        3.731        0.022      332.136        0.600      869.014
01/15/2022  22:23:00      -14.386       22.255       -2.680       19.937        9.742        8.516      397.474       94.903       72.526        0.064        0.028       26.500        8.967        0.115      332.015        0.403      869.022
01/15/2022  22:24:00      -36.375       18.159      -10.206        7.366        7.848        8.461       54.251       61.588       71.580        0.097        0.009       40.656        3.808        0.009      331.909        0.228      869.040
01/15/2022  22:25:00      -50.603       17.411      -11.076       11.180        9.779        7.966      124.988       95.632       63.453        0.164        0.014       53.515        3.498        0.004      331.979        0.345      869.051
01/15/2022  22:26:00      -37.312        8.775      -10.736       14.823        8.454        9.539      219.714       71.469       90.988        0.098        0.019       38.330        8.760        0.052      331.964        0.319      869.062
01/15/2022  22:27:00       -9.265        2.957       -7.446       13.206        9.561        9.010      174.407       91.411       81.180        0.025        0.017        9.726        9.152        0.886      332.020        0.410      869.065
01/15/2022  22:28:00        0.269       -1.702       -9.631        4.189        3.710        5.683       17.548       13.761       32.297        0.008        0.003        1.723        3.803        4.873      332.013        0.398      869.063
01/15/2022  22:29:00      -26.361        8.286       -6.086       18.848       10.345        5.903      355.242      107.009       34.847        0.065        0.025       27.632        4.404        0.025      332.018        0.409      869.063
01/15/2022  22:30:00      -33.127       16.581      -10.428       10.395        6.837        6.753      108.050       46.738       45.602        0.084        0.010       37.045        5.255        0.020      331.953        0.301      869.056
01/15/2022  22:31:00      -62.269       17.734      -12.290        9.584       11.026        9.018       91.845      121.581       81.328        0.232        0.015       64.745        5.956        0.008      332.001        0.381      869.059
01/15/2022  22:32:00      -51.157       20.219       -6.590       11.562        7.251        5.408      133.682       52.584       29.243        0.164        0.011       55.008        4.290        0.006      331.993        0.367      869.059
01/15/2022  22:33:00      -17.570       17.906       -5.282       10.708        7.230        6.587      114.651       52.279       43.394        0.043        0.011       25.087        5.334        0.045      332.068        0.490      869.061
01/15/2022  22:34:00       -0.122        2.692       -4.211        7.781        3.637        4.447       60.549       13.231       19.773        0.006        0.005        2.695        3.193        1.404      332.082        0.513      869.071
01/15/2022  22:35:00        9.943       16.517        0.338       14.250       11.912        7.891      203.051      141.899       62.262        0.039        0.020       19.278        7.251        0.141      332.109        0.556      869.083
01/15/2022  22:36:00        1.878       17.412       -4.750       18.017       11.437        5.795      324.604      130.794       33.584        0.041        0.024       17.513        5.756        0.108      332.087        0.523      869.078
01/15/2022  22:37:00       -5.282       32.372       -7.221       19.001       19.833       10.743      361.033      393.351      115.420        0.100        0.043       32.800        7.051        0.046      332.106        0.552      869.082
01/15/2022  22:38:00        3.647        5.974        0.386        7.345        8.493        8.102       53.949       72.124       65.649        0.012        0.010        6.999        5.015        0.513      332.006        0.389      869.069
01/15/2022  22:39:00       -6.462       -2.162       -1.179        6.398       12.358        5.901       40.931      152.722       34.827        0.014        0.011        6.814        4.366        0.410      331.999        0.377      869.066
01/15/2022  22:40:00      -27.979       13.074       -8.454       23.306       12.866       10.706      543.178      165.546      114.611        0.092        0.041       30.883        5.955        0.037      331.930        0.263      869.055
01/15/2022  22:41:00      -44.613        7.395      -16.864       14.533       15.773       13.169      211.214      248.802      173.427        0.148        0.032       45.221        6.001        0.018      331.868        0.161      869.044
01/15/2022  22:42:00      -52.536       10.587      -10.192       23.806       18.316       11.668      566.738      335.475      136.132        0.201        0.052       53.592       10.303        0.037      331.787        0.029      869.023
01/15/2022  22:43:00      -68.861       20.192      -10.481       23.216       20.705       12.720      538.965      428.693      161.793        0.319        0.056       71.761       11.376        0.025      331.806        0.059      869.010
01/15/2022  22:44:00      -27.474       20.949       -2.989       22.171       13.252       12.883      491.563      175.613      165.977        0.102        0.042       34.550        6.406        0.034      331.745       -0.041      868.994
01/15/2022  22:45:00      -19.962       14.475      -15.912       15.157       10.042       10.026      229.724      100.843      100.520        0.065        0.022       24.657        7.454        0.091      331.784        0.023      868.984
01/15/2022  22:46:00      -32.577       20.498      -17.561       19.306       13.918       10.654      372.739      193.713      113.517        0.123        0.034       38.489        8.534        0.049      331.726       -0.072      868.972
01/15/2022  22:47:00      -36.896       27.569      -12.996       31.567       21.451       15.274      996.489      460.154      233.304        0.199        0.084       46.058        8.692        0.036      331.737       -0.054      868.958
01/15/2022  22:48:00      -39.184       16.028      -18.281       32.315       20.289       16.434     1044.250      411.640      270.061        0.193        0.086       42.336        4.028        0.009      331.719       -0.085      868.952
01/15/2022  22:49:00      -57.877       20.733       -8.381       35.440       20.991       13.047     1256.014      440.602      170.217        0.286        0.093       61.478       11.954        0.038      331.722       -0.078      868.954
01/15/2022  22:50:00      -29.792       -5.750       -6.070       36.839       18.907       17.233     1357.087      357.468      296.974        0.148        0.101       30.342       21.627        0.508      331.733       -0.060      868.951
01/15/2022  22:51:00       -9.600       -2.475       -6.182       14.650       16.203       13.176      214.631      262.533      173.606        0.039        0.033        9.914        8.542        0.742      331.764       -0.010      868.951
01/15/2022  22:52:00       -1.993        6.686       -1.133        9.880       24.349       12.663       97.617      592.877      160.358        0.045        0.043        6.976        8.738        1.569      331.657       -0.186      868.943
01/15/2022  22:53:00      -43.283        9.621      -11.331       32.119       21.045       21.588     1031.607      442.877      466.060        0.202        0.097       44.339       20.157        0.207      331.787        0.027      868.931
01/15/2022  22:54:00      -70.667       21.834      -23.870       10.177       11.543       10.711      103.576      133.238      114.727        0.320        0.018       73.963        5.499        0.006      331.824        0.088      868.918
01/15/2022  22:55:00      -47.558       14.003      -16.757       18.810       13.007       10.573      353.804      169.177      111.780        0.169        0.032       49.576        8.724        0.031      331.829        0.097      868.907
01/15/2022  22:56:00      -45.406       16.832      -12.373       18.101       12.029       10.424      327.647      144.702      108.666        0.154        0.029       48.425        4.644        0.009      331.855        0.139      868.896
01/15/2022  22:57:00      -56.408        8.484      -12.959       19.602       18.692        8.910      384.239      349.379       79.397        0.212        0.041       57.043        9.897        0.030      331.824        0.088      868.891
01/15/2022  22:58:00      -62.775       11.233      -11.204       21.821       20.546       12.828      476.155      422.123      164.546        0.263        0.053       63.772        9.016        0.020      331.861        0.151      868.882
01/15/2022  22:59:00      -68.297       24.272      -14.081       12.822       13.809       13.671      164.412      190.675      186.899        0.300        0.027       72.481        8.424        0.014      331.787        0.027      868.880
01/15/2022  23:00:00      -68.771       28.759      -11.658       15.224       12.691        9.170      231.778      161.065       84.087        0.308        0.024       74.542        5.464        0.005      331.860        0.147      868.881
01/15/2022  23:01:00      -73.144       23.286       -9.777       15.237       13.239        9.166      232.163      175.262       84.007        0.324        0.025       76.761        3.910        0.003      331.847        0.126      868.883
01/15/2022  23:02:00      -64.593       14.607       -8.566       16.658       13.549       11.840      277.505      183.568      140.196        0.253        0.030       66.224        9.993        0.023      331.900        0.214      868.880
01/15/2022  23:03:00      -81.377       17.504       -9.249       10.936       11.755       10.658      119.586      138.180      113.584        0.369        0.019       83.238        7.972        0.009      331.915        0.238      868.878
01/15/2022  23:04:00      -49.972       12.250       -5.777       31.269       15.190       14.706      977.747      230.744      216.278        0.205        0.071       51.452       18.018        0.123      331.962        0.314      868.884
01/15/2022  23:05:00      -67.704        3.948       -7.576       21.990       16.060       14.234      483.573      257.913      202.594        0.280        0.047       67.819       12.083        0.032      332.039        0.442      868.895
01/15/2022  23:06:00      -15.056        7.077        0.278       18.412       12.674        9.722      338.992      160.626       94.523        0.044        0.030       16.636        5.202        0.098      332.023        0.414      868.897
01/15/2022  23:07:00      -15.698        3.201       -4.152       14.820       15.253        9.661      219.647      232.642       93.325        0.041        0.027       16.022        8.475        0.280      332.005        0.386      868.906
01/15/2022  23:08:00      -16.966       -1.959       -9.241       18.608       18.192       10.070      346.262      330.933      101.407        0.058        0.039       17.079        5.697        0.111      331.946        0.288      868.918
01/15/2022  23:09:00      -40.348       13.667      -11.525        5.330        5.869        7.164       28.412       34.446       51.330        0.103        0.006       42.600        4.576        0.012      331.967        0.324      868.929
01/15/2022  23:10:00      -25.493        1.798       -5.636       10.940        9.300       11.566      119.677       86.496      133.783        0.051        0.017       25.557        4.357        0.029      332.097        0.537      868.927
01/15/2022  23:11:00      -32.003        1.599       -4.358       19.170       15.060        7.937      367.502      226.813       63.003        0.085        0.033       32.042        5.341        0.028      332.066        0.487      868.919
01/15/2022  23:12:00       -6.398       -4.617        3.225       10.760        8.720        8.177      115.785       76.041       66.861        0.017        0.013        7.890        5.156        0.427      332.056        0.470      868.916
01/15/2022  23:13:00      -24.944       -3.415       -7.393       12.698       11.351       10.380      161.236      128.847      107.739        0.054        0.020       25.177        6.857        0.074      332.049        0.458      868.914
01/15/2022  23:14:00      -40.720        8.860      -10.033       21.331       14.004        9.493      455.010      196.125       90.125        0.129        0.037       41.673       10.284        0.061      332.000        0.378      868.906
01/15/2022  23:15:00      -37.908       10.025      -10.314       22.587       18.182       13.872      510.160      330.589      192.442        0.134        0.052       39.211        7.705        0.039      331.983        0.351      868.899
01/15/2022  23:16:00      -18.927        7.382       -4.349       20.507       16.460       11.368      420.524      270.923      129.225        0.063        0.041       20.316        6.983        0.118      331.909        0.229      868.897
01/15/2022  23:17:00      -27.743       -0.655       -9.093       17.891       10.328       12.783      320.078      106.660      163.415        0.072        0.030       27.751       10.492        0.143      331.942        0.283      868.903
01/15/2022  23:18:00      -35.942       -3.660       -6.932       20.917       20.837       10.657      437.508      434.161      113.577        0.117        0.049       36.128       10.164        0.079      331.950        0.294      868.902
01/15/2022  23:19:00      -27.509       12.410       -9.505       11.583        8.975        8.719      134.161       80.557       76.025        0.065        0.015       30.179        4.768        0.025      331.894        0.205      868.901
01/15/2022  23:20:00      -39.633       12.565      -16.386       12.671        8.186        9.336      160.553       67.010       87.163        0.116        0.016       41.577        8.532        0.042      331.893        0.202      868.892
01/15/2022  23:21:00      -49.619       15.829      -13.853        8.893       10.565       11.204       79.085      111.622      125.522        0.161        0.016       52.083        4.900        0.009      331.890        0.198      868.886
01/15/2022  23:22:00      -50.155       23.054      -12.766       13.489        9.937        9.264      181.949       98.741       85.823        0.179        0.018       55.200        4.546        0.007      331.856        0.142      868.871
01/15/2022  23:23:00      -79.097       30.196      -16.421       12.448       12.208       11.046      154.940      149.045      122.017        0.393        0.021       84.665        9.034        0.011      331.832        0.103      868.855
01/15/2022  23:24:00      -78.599       15.770      -11.282       27.322       15.475       15.021      746.511      239.472      225.624        0.388        0.061       80.166       14.984        0.035      331.758       -0.021      868.838
01/15/2022  23:25:00      -45.357       12.159       -5.510       31.721       20.654       17.260     1006.214      426.584      297.895        0.198        0.087       46.959       12.610        0.072      331.789        0.032      868.829
01/15/2022  23:26:00      -13.794        5.238       -8.426       24.165       18.302       12.311      583.966      334.957      151.551        0.068        0.054       14.755        8.090        0.301      331.789        0.032      868.820
01/15/2022  23:27:00        0.478       -9.545        0.276       24.095       12.465       16.165      580.582      155.367      261.322        0.054        0.050        9.556       15.360        2.584      331.708       -0.101      868.802
01/15/2022  23:28:00      -16.789       -5.448       -4.649       36.587       27.011       20.007     1338.573      729.615      400.291        0.140        0.123       17.651       18.153        1.058      331.662       -0.178      868.798
01/15/2022  23:29:00      -27.226        0.697        3.689       41.948       27.315       24.361     1759.673      746.098      593.451        0.193        0.155       27.235       19.735        0.525      331.665       -0.173      868.786
01/15/2022  23:30:00      -90.049       13.481       -1.985       34.324       26.792       14.286     1178.104      717.815      204.081        0.520        0.105       91.052        7.875        0.007      331.695       -0.122      868.782
01/15/2022  23:31:00     -104.794       14.542       -4.801       27.199       20.583       17.240      739.801      423.676      297.211        0.634        0.073      105.799       14.375        0.018      331.713       -0.095      868.780
01/15/2022  23:32:00      -76.059       16.764       -2.809       37.132       25.927       17.808     1378.767      672.233      317.111        0.422        0.118       77.885       17.728        0.052      331.686       -0.137      868.777
01/15/2022  23:33:00      -74.569       11.548       -4.186       33.633       22.802       17.113     1131.212      519.933      292.856        0.383        0.097       75.458       17.309        0.053      331.724       -0.074      868.773
01/15/2022  23:34:00      -76.944        3.601       -4.347       27.661       28.140       16.976      765.121      791.839      288.186        0.390        0.092       77.029       11.754        0.023      331.742       -0.045      868.768
01/15/2022  23:35:00      -82.118        7.684       -7.789       46.828       18.147       17.602     2192.901      329.319      309.822        0.485        0.142       82.476       20.180        0.060      331.732       -0.062      868.769
01/15/2022  23:36:00      -64.147       -3.317       -5.855       28.290       24.483       22.525      800.308      599.402      507.359        0.303        0.095       64.233       19.500        0.092      331.725       -0.073      868.767
01/15/2022  23:37:00      -49.121       -1.852       -4.084       57.493       23.061       14.344     3305.442      531.791      205.750        0.324        0.202       49.156        8.749        0.032      331.792        0.037      868.765
01/15/2022  23:38:00      -49.274        4.176       -3.037       35.224       25.397       20.578     1240.709      644.984      423.437        0.238        0.115       49.450       14.202        0.082      331.806        0.059      868.769
01/15/2022  23:39:00      -33.154      -12.377        5.155       26.859       26.012       19.138      721.399      676.624      366.279        0.152        0.088       35.389       18.293        0.267      331.906        0.223      868.769
01/15/2022  23:40:00      -36.141        4.436       -8.209       36.771       14.703       15.721     1352.140      216.184      247.152        0.160        0.091       36.412       11.015        0.092      331.849        0.131      868.758
01/15/2022  23:41:00      -27.618        2.974       -1.030       25.695       26.712       13.256      660.244      713.549      175.725        0.116        0.077       27.777       11.168        0.162      331.740       -0.049      868.755
01/15/2022  23:42:00      -39.665        2.974       -4.327       32.007       16.240       18.098     1024.445      263.753      327.521        0.161        0.081       39.776       13.971        0.123      331.758       -0.019      868.755
01/15/2022  23:43:00      -47.486       -2.848       -4.205       30.485       19.791       13.213      929.309      391.682      174.589        0.189        0.075       47.571       14.522        0.093      331.758       -0.020      868.754
01/15/2022  23:44:00      -74.029        8.873      -11.821       29.461       18.628       15.430      867.935      347.008      238.086        0.358        0.073       74.559       10.811        0.021      331.686       -0.137      868.752
01/15/2022  23:45:00      -75.676       18.186       -0.524       32.899       21.720       17.150     1082.351      471.763      294.113        0.395        0.092       77.830       15.716        0.041      331.567       -0.334      868.759
01/15/2022  23:46:00      -74.044        9.337       -0.993       37.772       25.892       18.695     1426.754      670.391      349.493        0.401        0.122       74.630       14.593        0.038      331.613       -0.259      868.768
01/15/2022  23:47:00      -80.638        9.144       -8.426       39.722       26.426       20.092     1577.859      698.329      403.700        0.467        0.134       81.155       18.148        0.050      331.694       -0.124      868.779
01/15/2022  23:48:00      -74.509       13.157       -6.925       32.935       23.788       18.384     1084.721      565.860      337.975        0.388        0.099       75.662       19.765        0.068      331.655       -0.189      868.789
01/15/2022  23:49:00      -79.164       17.368       -5.178       27.232       22.832       15.649      741.590      521.311      244.888        0.405        0.075       81.047       12.155        0.022      331.655       -0.190      868.786
01/15/2022  23:50:00      -69.568       10.375       -5.721       41.219       31.605       17.395     1699.011      998.885      302.592        0.399        0.150       70.337       15.773        0.050      331.609       -0.265      868.788
01/15/2022  23:51:00      -80.096       13.839       -4.227       27.560       22.632       18.817      759.533      512.192      354.071        0.413        0.081       81.283        9.722        0.014      331.584       -0.307      868.774
01/15/2022  23:52:00      -76.080       22.964       -0.179       33.451       24.725       22.683     1118.963      611.322      514.514        0.428        0.112       79.471       14.955        0.035      331.566       -0.337      868.761
01/15/2022  23:53:00      -44.203        8.680        3.585       34.869       21.864       19.814     1215.845      478.030      392.601        0.206        0.104       45.047       16.658        0.137      331.563       -0.342      868.747
01/15/2022  23:54:00      -84.301       25.842       -2.531       30.918       21.220       17.018      955.931      450.287      289.629        0.474        0.085       88.173       14.588        0.027      331.503       -0.440      868.746
01/15/2022  23:55:00      -88.687       18.751      -10.407       26.468       18.293       16.862      700.542      334.625      284.334        0.482        0.066       90.648       15.246        0.028      331.490       -0.462      868.738
01/15/2022  23:56:00      -85.340       22.796       -6.580       24.921       18.611       17.361      621.054      346.381      301.402        0.456        0.063       88.333       14.513        0.027      331.483       -0.475      868.732
01/15/2022  23:57:00      -71.828       11.810       -6.545       27.724       24.852       17.844      768.639      617.618      318.403        0.352        0.085       72.792       17.653        0.059      331.537       -0.384      868.732
01/15/2022  23:58:00      -79.332       19.194       -9.178       18.596       15.214       10.153      345.818      231.472      103.089        0.371        0.034       81.621       11.181        0.019      331.504       -0.438      868.730
01/15/2022  23:59:00      -81.451       11.746      -11.246       23.914       17.149       11.663      571.897      294.075      136.022        0.395        0.050       82.293        5.548        0.005      331.559       -0.349      868.732
01/16/2022  00:00:00      -82.235       18.664       -7.406       25.549       18.269       11.515      652.744      333.773      132.588        0.414        0.056       84.327        9.700        0.013      331.536       -0.386      868.741
01/16/2022  00:01:00      -68.924       32.005      -11.935       11.817       10.343        7.603      139.635      106.986       57.803        0.311        0.015       75.992        5.779        0.006      331.479       -0.481      868.747
01/16/2022  00:02:00      -63.880       21.505      -15.481       17.125       10.013        9.312      293.249      100.254       86.709        0.263        0.024       67.403        8.187        0.015      331.491       -0.459      868.757
01/16/2022  00:03:00      -82.432       20.945      -12.889       16.255       11.118       10.918      264.225      123.613      119.203        0.395        0.025       85.051        8.411        0.010      331.466       -0.501      868.764
01/16/2022  00:04:00      -68.796       27.104       -2.973       18.059       17.380       14.850      326.110      302.073      220.515        0.316        0.042       73.943       11.624        0.025      331.450       -0.527      868.764
01/16/2022  00:05:00      -34.740       15.923       -3.025       23.172       16.604       13.483      536.922      275.679      181.798        0.123        0.050       38.215       11.144        0.085      331.382       -0.640      868.759
01/16/2022  00:06:00      -53.145       25.121      -12.904       12.543        7.488        6.945      157.331       56.074       48.233        0.194        0.013       58.783        3.577        0.004      331.517       -0.417      868.747
01/16/2022  00:07:00      -58.141       42.547      -13.970        9.629        9.271        6.391       92.713       85.944       40.843        0.280        0.011       72.046        4.053        0.003      331.523       -0.408      868.731
01/16/2022  00:08:00      -70.234       35.875      -17.588       16.284       13.092       12.078      265.175      171.409      145.876        0.356        0.029       78.866        3.254        0.002      331.514       -0.422      868.725
01/16/2022  00:09:00      -70.540       31.484      -17.249       20.521       12.896       10.753      421.110      166.309      115.620        0.348        0.035       77.247        4.443        0.003      331.431       -0.559      868.736
01/16/2022  00:10:00      -71.384       30.400      -20.174       25.758       19.323       17.163      663.493      373.378      294.554        0.388        0.067       77.588       11.606        0.022      331.415       -0.584      868.748
01/16/2022  00:11:00      -99.107       33.184      -17.171       31.430       16.989       14.048      987.846      288.610      197.344        0.635        0.074      104.515        6.721        0.004      331.439       -0.544      868.762
01/16/2022  00:12:00      -94.706       12.748      -10.744       26.445       27.446       15.542      699.345      753.284      241.565        0.547        0.085       95.561       14.724        0.024      331.403       -0.605      868.764
01/16/2022  00:13:00      -34.729        3.234       -3.032       33.339       21.727       16.836     1111.514      472.080      283.443        0.155        0.093       34.879       16.163        0.215      331.367       -0.665      868.768
01/16/2022  00:14:00      -54.242       18.163      -10.725       25.440       26.350       25.655      647.181      694.346      658.157        0.269        0.100       57.202       20.871        0.133      331.387       -0.632      868.772
01/16/2022  00:15:00      -73.430       25.090       -9.158       24.767       19.249       18.034      613.421      370.539      325.210        0.371        0.065       77.598        8.839        0.013      331.370       -0.658      868.781
01/16/2022  00:16:00      -93.687        7.766      -15.330       41.326       19.717       20.679     1707.813      388.770      427.620        0.580        0.126       94.009       22.747        0.059      331.317       -0.745      868.787
01/16/2022  00:17:00      -87.692       12.840      -17.266       32.719       29.593       25.505     1070.504      875.769      650.484        0.537        0.130       88.627       20.373        0.053      331.331       -0.723      868.795
01/16/2022  00:18:00      -61.776        1.054       -7.725       25.361       33.069       21.536      643.169     1093.578      463.802        0.304        0.110       61.785       12.550        0.041      331.360       -0.675      868.811
01/16/2022  00:19:00      -52.112       19.637       -8.066       29.675       32.816       20.700      880.627     1076.888      428.476        0.278        0.119       55.689        9.132        0.027      331.321       -0.739      868.843
01/16/2022  00:20:00        8.902       -1.699        0.392       32.925       23.921       14.558     1084.070      572.191      211.945        0.097        0.093        9.062       11.879        1.718      331.298       -0.778      868.885
01/16/2022  00:21:00      -61.667        3.104      -11.999       40.050       24.321       23.415     1604.012      591.490      548.272        0.335        0.137       61.745       17.646        0.082      331.309       -0.760      868.915
01/16/2022  00:22:00      -72.560       -7.244      -14.977       41.968       30.919       18.269     1761.347      955.973      333.763        0.430        0.153       72.921       18.612        0.065      331.294       -0.784      868.929
01/16/2022  00:23:00      -27.281        2.547        5.116       48.735       28.175       18.861     2375.101      793.806      355.733        0.215        0.176       27.400       19.858        0.525      331.348       -0.696      868.903
01/16/2022  00:24:00      -71.496        7.749       -7.594       33.649       26.670       16.819     1132.274      711.308      282.894        0.368        0.106       71.915       14.126        0.039      331.257       -0.844      868.824
01/16/2022  00:25:00      -85.236       24.388      -10.045       32.195       24.325       14.698     1036.519      591.693      216.041        0.490        0.092       88.656       11.404        0.017      331.197       -0.942      868.685
01/16/2022  00:26:00      -89.585       19.018      -10.360       40.773       21.774       15.988     1662.402      474.103      255.614        0.544        0.120       91.581       18.520        0.041      331.196       -0.944      868.506
01/16/2022  00:27:00      -33.688       -1.799       -2.912       25.057       20.095       13.743      627.842      403.827      188.856        0.118        0.061       33.736        6.831        0.041      331.221       -0.903      868.318
01/16/2022  00:28:00       -9.319      -18.054      -15.956       25.212       28.842       17.746      635.637      831.847      314.922        0.122        0.089       20.317       10.459        0.265      331.208       -0.925      868.155
01/16/2022  00:29:00      -20.623       -6.596      -14.027       23.550       31.509       18.979      554.610      992.840      360.190        0.129        0.095       21.652       13.919        0.413      331.187       -0.960      868.033
01/16/2022  00:30:00      -34.195       -6.204      -15.410       19.218       29.787       16.479      369.323      887.292      271.547        0.149        0.076       34.753       14.338        0.170      331.178       -0.974      867.963
01/16/2022  00:31:00      -54.425      -13.353      -12.250       28.596       24.003       19.593      817.712      576.124      383.887        0.253        0.089       56.039       12.570        0.050      331.147       -1.025      867.931
01/16/2022  00:32:00      -73.585       -2.605       -9.465       24.021       16.941       15.034      576.999      287.004      226.033        0.330        0.055       73.631        9.052        0.015      331.186       -0.962      867.904
01/16/2022  00:33:00      -37.443       -7.546       -6.618       36.960       19.755       20.699     1366.076      390.268      428.433        0.184        0.109       38.196       20.307        0.283      331.122       -1.065      867.867
01/16/2022  00:34:00      -10.840        3.180        2.989       37.605       19.038       15.413     1414.102      362.448      237.567        0.107        0.101       11.296       18.820        2.776      331.164       -0.999      867.811
01/16/2022  00:35:00      -41.207      -13.922       -1.112       30.211       19.680       21.351      912.690      387.305      455.878        0.182        0.088       43.495       18.653        0.184      331.192       -0.951      867.764
01/16/2022  00:36:00      -69.616        2.775       -6.809       29.388       26.144       17.866      863.630      683.494      319.207        0.338        0.093       69.672       17.300        0.062      331.216       -0.912      867.751
01/16/2022  00:37:00      -26.513       -7.083       -8.360       22.328       23.297       13.251      498.538      542.773      175.594        0.102        0.061       27.443        8.562        0.097      331.246       -0.861      867.772
01/16/2022  00:38:00      -31.077        3.298       -3.833       17.103       23.892       12.399      292.526      570.827      153.739        0.100        0.051       31.251        6.375        0.042      331.184       -0.964      867.823
01/16/2022  00:39:00      -11.945       -3.979        0.813       14.218       19.185       14.231      202.157      368.063      202.535        0.047        0.039       12.590        9.420        0.560      331.174       -0.980      867.858
01/16/2022  00:40:00      -48.334       22.690      -11.944       12.903       12.822       11.552      166.493      164.397      133.453        0.173        0.023       53.395        8.019        0.023      331.140       -1.036      867.861
01/16/2022  00:41:00      -48.624       14.948      -10.077       12.341       11.670       11.418      152.306      136.198      130.378        0.155        0.021       50.870       10.531        0.043      331.078       -1.138      867.828
01/16/2022  00:42:00      -50.054       16.406      -19.632       13.070       14.097       10.924      170.825      198.724      119.332        0.182        0.024       52.674        7.030        0.018      331.020       -1.235      867.802
01/16/2022  00:43:00      -56.325       21.473      -11.362       20.871       18.642       16.211      435.596      347.538      262.796        0.240        0.052       60.280       11.233        0.035      330.990       -1.283      867.804
01/16/2022  00:44:00      -66.225       24.002      -11.335       13.665       17.489       10.754      186.742      305.880      115.647        0.285        0.030       70.440        7.145        0.010      330.984       -1.293      867.818
01/16/2022  00:45:00      -58.938       24.750      -13.702       16.030       14.489       12.175      256.967      209.923      148.237        0.244        0.031       63.923        6.513        0.010      330.943       -1.361      867.814
01/16/2022  00:46:00      -84.850       34.502      -16.416       19.511       11.812       12.710      380.697      139.516      161.541        0.467        0.034       91.597        5.022        0.003      330.947       -1.354      867.781
01/16/2022  00:47:00      -84.188       12.802      -12.701       29.796       20.284       14.819      887.820      411.441      219.610        0.447        0.076       85.156       11.973        0.020      330.990       -1.285      867.724
01/16/2022  00:48:00     -105.672       26.561      -18.167       15.120       16.523       10.934      228.607      272.999      119.557        0.641        0.031      108.959        5.119        0.002      330.982       -1.298      867.654
01/16/2022  00:49:00      -92.618       30.079      -16.891       14.279       11.730        9.528      203.902      137.590       90.777        0.510        0.022       97.380        6.386        0.004      330.932       -1.379      867.616
01/16/2022  00:50:00      -85.600       25.221      -16.934       28.396       16.858       17.706      806.316      284.203      313.506        0.483        0.070       89.238       16.956        0.036      330.848       -1.516      867.613
01/16/2022  00:51:00      -81.077       15.187      -22.618       19.932       18.295       18.393      397.274      334.707      338.291        0.419        0.054       82.487       15.494        0.035      330.825       -1.553      867.650
01/16/2022  00:52:00      -66.584       20.299      -15.381       33.725       21.342       25.587     1137.370      455.485      654.710        0.366        0.112       69.610       22.943        0.109      330.870       -1.479      867.719
01/16/2022  00:53:00      -76.226       28.376      -24.865       26.380       26.557       20.560      695.916      705.282      422.714        0.453        0.091       81.337       20.052        0.061      330.874       -1.474      867.822
01/16/2022  00:54:00     -101.847       28.321      -15.104       20.231       15.753       13.800      409.274      248.156      190.439        0.613        0.042      105.711        6.647        0.004      330.792       -1.607      867.930
01/16/2022  00:55:00     -106.171       33.133      -22.000       20.063       12.631       14.263      402.519      159.534      203.443        0.681        0.038      111.221        3.460        0.001      330.760       -1.660      868.003
01/16/2022  00:56:00      -88.976        3.176      -21.586       26.426       20.780       14.414      698.317      431.826      207.759        0.487        0.067       89.033       11.477        0.017      330.837       -1.534      868.016
01/16/2022  00:57:00      -77.212        4.116      -16.489       27.342       30.804       25.079      747.599      948.879      628.954        0.429        0.116       77.322       19.596        0.064      330.875       -1.470      867.992
01/16/2022  00:58:00      -78.203       13.367      -19.141       23.212       22.836       15.569      538.810      521.491      242.390        0.398        0.065       79.337        8.085        0.010      330.870       -1.479      867.972
01/16/2022  00:59:00      -79.207       21.207      -21.210       20.284       16.631       16.967      411.447      276.580      287.887        0.407        0.049       81.997       10.153        0.015      330.899       -1.433      867.968
01/16/2022  01:00:00      -68.620       19.367      -15.994       34.807       19.105       17.021     1211.525      364.989      289.710        0.360        0.093       71.301       13.896        0.038      330.835       -1.538      867.994
01/16/2022  01:01:00      -88.312       37.030      -16.634       33.689       19.224       18.558     1134.939      369.564      344.402        0.565        0.092       95.762       18.492        0.037      330.790       -1.610      868.015
01/16/2022  01:02:00      -73.288       33.332      -25.706       17.702       14.817       14.073      313.371      219.548      198.058        0.394        0.037       80.512        9.055        0.013      330.851       -1.510      868.048
01/16/2022  01:03:00      -78.745        8.438      -21.673       30.955       25.176       23.460      958.186      633.839      550.377        0.444        0.107       79.196       21.287        0.072      330.878       -1.467      868.098
01/16/2022  01:04:00      -59.602       32.251       -7.865       31.943       24.054       25.448     1020.376      578.604      647.609        0.345        0.112       67.768       18.333        0.073      330.884       -1.459      868.145
01/16/2022  01:05:00      -60.573       27.720       -7.144       41.125       34.738       18.044     1691.252     1206.719      325.586        0.386        0.161       66.614        7.570        0.013      330.849       -1.515      868.164
01/16/2022  01:06:00      -74.371       21.543      -12.672       28.570       29.799       18.627      816.254      887.995      346.956        0.410        0.103       77.428       10.220        0.017      330.801       -1.592      868.137
01/16/2022  01:07:00      -97.075       33.795      -16.547       17.482       19.752       19.464      305.614      390.161      378.853        0.596        0.054      102.790        7.849        0.006      330.788       -1.615      868.080
01/16/2022  01:08:00      -61.541       13.903      -13.800       36.329       23.438       16.049     1319.805      549.317      257.563        0.315        0.106       63.091       16.126        0.065      330.820       -1.560      868.006
01/16/2022  01:09:00      -64.176       17.380      -13.896       34.441       27.714       22.537     1186.161      768.052      507.917        0.354        0.123       66.488       24.453        0.135      330.823       -1.557      867.940
01/16/2022  01:10:00      -92.241       30.377      -17.827       13.510       13.156       13.137      182.529      173.070      172.582        0.514        0.026       97.114        5.084        0.003      330.795       -1.603      867.917
01/16/2022  01:11:00     -102.238       53.370      -14.280       23.779       23.349       15.941      565.443      545.166      254.129        0.743        0.068      115.330       10.135        0.008      330.765       -1.651      867.931
01/16/2022  01:12:00     -104.072       58.429       -9.499       27.736       24.954       16.066      769.303      622.692      258.109        0.799        0.083      119.352        9.061        0.006      330.744       -1.686      867.982
01/16/2022  01:13:00     -114.734       50.731      -19.282       14.091       11.777        9.918      198.544      138.704       98.372        0.827        0.022      125.449        4.195        0.001      330.743       -1.687      868.001
01/16/2022  01:14:00     -102.743       31.847      -21.655       25.954       24.805       14.146      673.622      615.291      200.099        0.676        0.074      107.566        5.527        0.003      330.720       -1.726      867.964
01/16/2022  01:15:00     -110.778       42.857      -13.850       13.821       14.878       11.435      191.026      221.363      130.756        0.742        0.027      118.779        5.728        0.002      330.686       -1.782      867.877
01/16/2022  01:16:00     -118.558       49.449      -16.337       20.149       14.970       13.496      405.999      224.093      182.155        0.879        0.041      128.457        7.004        0.003      330.731       -1.708      867.796
01/16/2022  01:17:00      -92.201       39.840      -20.354       25.071       18.087       14.879      628.545      327.137      221.383        0.584        0.059      100.440        9.921        0.010      330.719       -1.729      867.793
01/16/2022  01:18:00      -84.166       25.848      -18.589       23.707       18.717       15.647      562.020      350.339      244.817        0.463        0.058       88.045       11.163        0.016      330.799       -1.596      867.859
01/16/2022  01:19:00      -88.900       30.170      -22.961       18.991       18.546       15.134      360.663      343.937      229.029        0.514        0.047       93.880        8.954        0.009      330.759       -1.661      867.940
01/16/2022  01:20:00      -52.238        6.012      -18.689       28.785       26.357       24.637      828.596      694.695      606.985        0.262        0.107       52.583       17.920        0.116      330.801       -1.593      867.989
01/16/2022  01:21:00      -75.965       12.965      -19.343       35.666       27.022       21.130     1272.030      730.215      446.494        0.438        0.122       77.064       14.228        0.034      330.768       -1.649      867.999
01/16/2022  01:22:00      -40.238       -5.296      -14.384       39.079       21.134       22.661     1527.191      446.665      513.539        0.217        0.124       40.585       22.062        0.295      330.776       -1.634      868.014
01/16/2022  01:23:00      -86.346        5.067      -20.160       29.907       19.156       20.317      894.408      366.941      412.769        0.478        0.084       86.495       13.298        0.024      330.790       -1.611      868.078
01/16/2022  01:24:00      -44.118        7.913      -10.166       33.881       27.231       13.382     1147.903      741.515      179.068        0.209        0.103       44.822       12.842        0.082      330.797       -1.599      868.136
01/16/2022  01:25:00      -48.550       -0.132       -6.045       28.405       28.304       15.455      806.822      801.135      238.855        0.212        0.092       48.551        5.314        0.012      330.793       -1.607      868.125
01/16/2022  01:26:00     -114.025       -0.830      -16.610       20.829       21.168       16.776      433.862      448.092      281.446        0.722        0.058      114.028        8.031        0.005      330.852       -1.508      868.044
01/16/2022  01:27:00      -74.991      -14.184      -10.729       48.422       23.334       22.953     2344.722      544.497      526.829        0.468        0.171       76.320       23.056        0.091      330.848       -1.518      867.958
01/16/2022  01:28:00      -54.171       -5.783      -19.045       43.322       23.428       27.242     1876.821      548.888      742.148        0.325        0.158       54.479       25.316        0.216      330.834       -1.539      867.940
01/16/2022  01:29:00      -14.499       -1.657       -7.392       19.904       19.892       14.129      396.168      395.690      199.616        0.063        0.050       14.593       10.801        0.548      330.848       -1.516      867.989
01/16/2022  01:30:00      -44.054       10.095      -13.228       10.908       13.130        9.588      118.991      172.402       91.927        0.130        0.019       45.195        6.928        0.023      330.892       -1.444      868.026
01/16/2022  01:31:00        4.893       -9.534       -1.394        7.225       13.619       11.267       52.197      185.487      126.944        0.024        0.018       10.716        4.681        0.191      331.016       -1.241      868.018
01/16/2022  01:32:00      -14.323       -3.000      -10.949       11.444       12.172        8.283      130.972      148.148       68.615        0.034        0.017       14.634        3.500        0.057      331.019       -1.236      867.979
01/16/2022  01:33:00      -17.551        0.697       -3.320       30.883       15.297       11.467      953.753      234.013      131.485        0.082        0.066       17.565        8.975        0.261      330.896       -1.439      867.962
01/16/2022  01:34:00      -69.850        5.320       -8.647       36.085       23.016       15.208     1302.094      529.759      231.293        0.352        0.103       70.053       12.304        0.031      330.965       -1.325      867.990
01/16/2022  01:35:00      -76.981       25.167       -6.234       21.307       22.688       17.551      453.987      514.739      308.030        0.394        0.064       80.990       13.446        0.028      330.817       -1.567      868.012
01/16/2022  01:36:00      -94.597       30.305      -10.760       19.212       14.710       10.794      369.100      216.386      116.503        0.534        0.035       99.333        7.750        0.006      330.770       -1.643      867.975
01/16/2022  01:37:00      -11.512       -4.360      -10.382       38.989       26.980       19.396     1520.175      727.937      376.197        0.144        0.131       12.310       13.324        1.171      330.746       -1.684      867.902
01/16/2022  01:38:00      -41.595        0.021       -6.343       37.279       31.134       25.417     1389.736      969.302      646.000        0.239        0.150       41.595       14.588        0.123      330.727       -1.713      867.859
01/16/2022  01:39:00      -40.210       -4.420       -7.498       38.823       36.821       20.814     1507.233     1355.762      433.243        0.249        0.165       40.452       12.304        0.093      330.764       -1.653      867.879
01/16/2022  01:40:00       -6.902       18.815       -2.442       49.087       28.786       24.980     2409.488      828.608      624.012        0.213        0.193       20.041       11.454        0.327      330.743       -1.689      867.946
01/16/2022  01:41:00      -47.150       22.603      -10.326       47.726       30.714       14.849     2277.727      943.367      220.496        0.314        0.172       52.287        9.070        0.030      330.694       -1.768      868.005
01/16/2022  01:42:00      -26.555       -3.204       -4.293       24.995       25.943       19.068      624.770      673.051      363.578        0.120        0.083       26.748       14.138        0.279      330.719       -1.727      868.031
01/16/2022  01:43:00      -26.924       -6.158       -6.890       26.679       26.315       14.484      711.768      692.490      209.786        0.121        0.081       27.619        5.524        0.040      330.704       -1.753      868.034
01/16/2022  01:44:00      -46.125        9.310       -4.601       35.137       20.564       14.066     1234.609      422.874      197.848        0.204        0.093       47.055       15.048        0.102      330.709       -1.743      868.054
01/16/2022  01:45:00      -64.477       10.334       -8.415       31.193       18.765       15.441      972.999      352.138      238.435        0.295        0.078       65.300       14.907        0.052      330.723       -1.721      868.114
01/16/2022  01:46:00      -70.416        8.842      -10.718       24.351       15.688       15.037      592.993      246.121      226.112        0.311        0.053       70.969        9.738        0.019      330.749       -1.678      868.171
01/16/2022  01:47:00      -61.386       22.601      -11.660       20.214       21.078       11.872      408.591      444.284      140.939        0.270        0.050       65.414       10.928        0.028      330.713       -1.737      868.188
01/16/2022  01:48:00      -76.439       26.609      -10.331       14.584       13.961       11.468      212.704      194.903      131.513        0.360        0.027       80.938        7.070        0.008      330.730       -1.709      868.166
01/16/2022  01:49:00      -98.182       16.871      -17.045       24.979       18.489       13.063      623.933      341.834      170.648        0.568        0.057       99.620        7.742        0.006      330.738       -1.697      868.131
01/16/2022  01:50:00     -112.749       43.860      -16.656       24.719       18.863       13.705      611.006      355.798      187.822        0.803        0.058      120.979        8.995        0.006      330.599       -1.925      868.089
01/16/2022  01:51:00     -106.381       27.152      -15.028       27.731       27.892       18.152      769.004      777.979      329.508        0.708        0.094      109.792       12.901        0.014      330.620       -1.890      868.070
01/16/2022  01:52:00      -89.693       44.125       -2.816       31.337       20.055       19.897      981.990      402.196      395.876        0.589        0.089       99.959       16.823        0.028      330.561       -1.989      868.095
01/16/2022  01:53:00      -56.098       15.246      -17.437       26.493       29.489       16.026      701.891      869.592      256.824        0.276        0.091       58.133       11.935        0.042      330.645       -1.850      868.137
01/16/2022  01:54:00      -55.606      -11.043      -11.865       53.966       27.742       25.800     2912.335      769.623      665.645        0.385        0.217       56.692       29.283        0.267      330.614       -1.900      868.168
01/16/2022  01:55:00      -32.312       -6.599       -2.278       37.492       25.810       24.053     1405.619      666.177      578.547        0.187        0.133       32.979       19.771        0.359      330.628       -1.878      868.180
01/16/2022  01:56:00      -48.611       -1.970       -3.236       42.862       25.410       24.023     1837.157      645.666      577.126        0.272        0.153       48.651       25.146        0.267      330.599       -1.927      868.187
01/16/2022  01:57:00     -101.398       17.552       -7.857       33.095       20.731       16.615     1095.255      429.762      276.053        0.623        0.090      102.906       10.721        0.011      330.673       -1.804      868.216
01/16/2022  01:58:00     -105.664       17.423       -9.463       35.834       22.881       19.658     1284.063      523.537      386.436        0.688        0.110      107.091       19.434        0.033      330.630       -1.873      868.242
01/16/2022  01:59:00       -6.125        5.108        3.660       24.040       25.288       22.163      577.926      639.478      491.204        0.089        0.085        7.975       16.536        4.299      330.551       -2.004      868.256
01/16/2022  02:00:00      -39.712       33.989       -6.729       20.579       29.667       15.777      423.510      880.104      248.927        0.216        0.078       52.272       13.703        0.069      330.567       -1.976      868.306
01/16/2022  02:01:00      -73.511       32.176      -11.342       27.823       24.599       16.049      774.134      605.108      257.561        0.410        0.082       80.245       12.837        0.026      330.605       -1.914      868.349
01/16/2022  02:02:00      -75.520       35.660      -12.349       30.171       21.022       19.537      910.301      441.933      381.681        0.443        0.087       83.516       15.594        0.035      330.537       -2.028      868.339
01/16/2022  02:03:00     -102.331       37.776       -7.115       32.370       24.078       22.299     1047.825      579.741      497.247        0.704        0.106      109.081       20.154        0.034      330.502       -2.083      868.349
01/16/2022  02:04:00      -54.825        9.178        1.831       38.157       23.830       12.667     1455.966      567.852      160.440        0.264        0.109       55.587       12.948        0.054      330.621       -1.890      868.350
01/16/2022  02:05:00      -48.848       12.456       -9.692       24.675       23.247       15.606      608.837      540.423      243.554        0.201        0.070       50.411       12.184        0.058      330.648       -1.845      868.306
01/16/2022  02:06:00      -73.477       23.880       -8.089       35.027       28.486       13.145     1226.903      811.466      172.781        0.412        0.111       77.260       16.054        0.043      330.616       -1.898      868.286
01/16/2022  02:07:00     -103.315       35.288      -17.686       15.896       16.413       14.567      252.680      269.381      212.188        0.648        0.037      109.176       10.068        0.009      330.567       -1.977      868.289
01/16/2022  02:08:00     -104.069       40.201      -16.608       15.360       14.051       13.215      235.928      197.423      174.635        0.667        0.030      111.564        3.786        0.001      330.533       -2.035      868.270
01/16/2022  02:09:00      -69.935       22.809      -13.720       34.310       19.574       15.330     1177.208      383.148      235.017        0.370        0.090       73.560        6.199        0.007      330.558       -1.994      868.240
01/16/2022  02:10:00      -63.948       19.189      -20.297       31.185       23.867       17.450      972.481      569.654      304.501        0.336        0.092       66.765       16.702        0.063      330.605       -1.916      868.227
01/16/2022  02:11:00      -57.406       14.424      -20.396       23.710       19.775       17.983      562.154      391.061      323.399        0.260        0.064       59.190       13.653        0.053      330.590       -1.940      868.212
01/16/2022  02:12:00      -15.025        1.585      -13.726       24.047       18.444       16.226      578.250      340.165      263.289        0.080        0.059       15.109       10.300        0.465      330.646       -1.848      868.218
01/16/2022  02:13:00        2.430      -10.012       -5.468       11.432       11.624        7.682      130.694      135.119       59.012        0.023        0.016       10.302        5.904        0.328      330.694       -1.770      868.236
01/16/2022  02:14:00       -8.702       -0.344       -9.239       18.357       18.001       16.179      336.987      324.047      261.773        0.054        0.046        8.709        9.119        1.096      330.724       -1.719      868.246
01/16/2022  02:15:00      -18.102        0.597      -10.885       20.706       14.437       21.073      428.723      208.418      444.087        0.076        0.054       18.112       16.127        0.793      330.681       -1.791      868.230
01/16/2022  02:16:00      -35.532        7.318      -20.768       25.125       23.964       21.534      631.243      574.252      463.696        0.171        0.083       36.278       14.872        0.168      330.649       -1.843      868.243
01/16/2022  02:17:00      -53.291        9.460      -19.721       42.053       15.380       15.678     1768.426      236.536      245.814        0.278        0.113       54.124       16.143        0.089      330.599       -1.926      868.259
01/16/2022  02:18:00      -77.043       13.299      -25.878       20.546       13.748       13.347      422.120      189.014      178.147        0.379        0.039       78.183        8.759        0.013      330.586       -1.947      868.256
01/16/2022  02:19:00      -82.178       26.491      -17.632       22.665       18.063       16.523      513.718      326.258      272.996        0.444        0.056       86.342        6.568        0.006      330.584       -1.949      868.251
01/16/2022  02:20:00     -100.738       45.014       -8.711       15.627       12.456       14.560      244.193      155.164      211.995        0.643        0.031      110.337       10.214        0.009      330.556       -1.996      868.252
01/16/2022  02:21:00      -99.915       40.771      -15.827       12.021       11.811       10.267      144.506      139.510      105.414        0.614        0.019      107.913        2.121        0.000      330.606       -1.913      868.241
01/16/2022  02:22:00      -76.576       32.473      -12.052       23.161       16.126       16.807      536.422      260.036      282.468        0.407        0.054       83.177       13.136        0.025      330.568       -1.976      868.255
01/16/2022  02:23:00     -100.438       40.181      -17.525       15.175       12.905       11.131      230.293      166.537      123.892        0.626        0.026      108.177        6.272        0.003      330.603       -1.919      868.278
01/16/2022  02:24:00      -96.156       49.056       -9.552       16.088       11.317       11.988      258.826      128.075      143.710        0.614        0.027      107.947        8.709        0.007      330.622       -1.887      868.268
01/16/2022  02:25:00      -95.800       41.471      -15.072       27.439       12.812       13.648      752.904      164.140      186.273        0.611        0.055      104.391        2.572        0.001      330.602       -1.920      868.262
01/16/2022  02:26:00     -100.155       40.464      -16.274       12.959       13.140       10.949      167.942      172.653      119.881        0.620        0.023      108.020        5.514        0.003      330.612       -1.904      868.220
01/16/2022  02:27:00      -79.412       28.170      -15.272       16.442       15.609       10.579      270.353      243.652      111.916        0.398        0.031       84.260        8.342        0.010      330.614       -1.901      868.197
01/16/2022  02:28:00      -75.829       29.931      -11.861       11.263        9.545        8.304      126.849       91.099       68.948        0.354        0.014       81.523        5.901        0.005      330.665       -1.818      868.213
01/16/2022  02:29:00      -95.338       18.514      -10.423       14.818       15.296       12.792      219.572      233.981      163.640        0.508        0.031       97.119        5.116        0.003      330.719       -1.726      868.207
01/16/2022  02:30:00      -89.295       11.859       -0.566       32.972       28.459       18.938     1087.135      809.915      358.650        0.518        0.113       90.079       18.396        0.042      330.658       -1.828      868.226
01/16/2022  02:31:00      -62.221       -5.427       -4.061       35.317       25.608       19.123     1247.315      655.749      365.678        0.309        0.113       62.458       16.421        0.069      330.684       -1.786      868.245
01/16/2022  02:32:00      -68.563       22.023      -11.423       33.549       22.260       19.507     1125.556      495.498      380.526        0.366        0.100       72.013       18.253        0.064      330.596       -1.929      868.231
01/16/2022  02:33:00      -67.781       15.623       -7.218       18.452       12.369       15.024      340.482      152.985      225.725        0.280        0.036       69.558        8.984        0.017      330.620       -1.889      868.229
01/16/2022  02:34:00      -66.172        8.280       -9.746       28.013       22.291       15.180      784.715      496.901      230.446        0.303        0.076       66.688        9.312        0.020      330.661       -1.824      868.217
01/16/2022  02:35:00     -100.990       24.235       -8.953       24.543       17.849       18.055      602.364      318.577      325.976        0.606        0.062      103.857       14.020        0.018      330.534       -2.033      868.175
01/16/2022  02:36:00      -94.168       28.564       -7.778       23.419       21.791       18.755      548.442      474.833      351.739        0.556        0.069       98.405       13.408        0.019      330.522       -2.053      868.131
01/16/2022  02:37:00      -66.778       19.136      -14.619       34.203       28.215       20.285     1169.837      796.071      411.480        0.371        0.119       69.465       19.171        0.076      330.523       -2.050      868.061
01/16/2022  02:38:00      -69.506       20.917       -7.158       38.559       23.890       15.657     1486.758      570.721      245.149        0.381        0.115       72.585       16.361        0.051      330.499       -2.090      868.006
01/16/2022  02:39:00      -24.464       -2.584       -3.952       26.280       25.465       21.587      690.643      648.488      465.989        0.121        0.090       24.600       16.769        0.465      330.563       -1.985      868.002
01/16/2022  02:40:00      -12.320       -9.867       -9.102       17.702       19.548       15.260      313.368      382.130      232.865        0.063        0.046       15.785       10.418        0.436      330.571       -1.972      867.973
01/16/2022  02:41:00        5.728        3.708       -3.123       18.330       16.984       12.580      335.998      288.445      158.259        0.042        0.039        6.824       11.578        2.879      330.495       -2.097      867.961
01/16/2022  02:42:00       13.245        0.785       -6.227       10.254       11.537        8.740      105.153      133.097       76.386        0.026        0.016       13.269        6.033        0.207      330.500       -2.088      867.960
01/16/2022  02:43:00        4.650        1.895        5.387       25.498       16.972       22.765      650.152      288.040      518.256        0.076        0.073        5.021       19.100       14.471      330.406       -2.241      867.937
01/16/2022  02:44:00      -71.473      -11.522      -13.466       27.546       23.194       20.431      758.776      537.949      417.412        0.357        0.086       72.396       11.190        0.024      330.439       -2.188      867.908
01/16/2022  02:45:00      -77.232        7.334      -17.400       28.408       17.144       20.646      807.039      293.916      426.244        0.392        0.076       77.579       15.305        0.039      330.470       -2.137      867.879
01/16/2022  02:46:00      -57.526        9.299      -10.264       16.028       16.758       12.089      256.899      280.819      146.150        0.209        0.034       58.273        7.192        0.015      330.532       -2.036      867.844
01/16/2022  02:47:00      -67.015       24.197      -11.243       20.104       17.342       11.782      404.153      300.757      138.808        0.302        0.042       71.250       11.470        0.026      330.494       -2.098      867.795
01/16/2022  02:48:00      -67.695       20.891      -12.574       16.287       16.435       11.960      265.267      270.117      143.039        0.293        0.034       70.845        6.206        0.008      330.421       -2.218      867.775
01/16/2022  02:49:00      -69.932       25.601      -11.416       15.757       17.336        9.444      248.276      300.522       89.184        0.316        0.032       74.470        5.059        0.005      330.467       -2.142      867.750
01/16/2022  02:50:00      -51.623        3.370       -4.796       29.632       21.435       10.919      878.031      459.466      119.234        0.208        0.073       51.733       12.394        0.057      330.479       -2.122      867.725
01/16/2022  02:51:00      -49.169        6.727      -15.543       19.555       10.932       13.926      382.399      119.504      193.946        0.170        0.035       49.627       10.805        0.047      330.482       -2.118      867.720
01/16/2022  02:52:00      -47.675       20.392      -12.030       11.619       11.128       11.032      135.007      123.838      121.701        0.161        0.019       51.853        4.598        0.008      330.480       -2.120      867.703
01/16/2022  02:53:00      -52.845       14.992      -15.218        9.009        8.295        8.444       81.167       68.800       71.304        0.174        0.011       54.930        4.498        0.007      330.544       -2.017      867.701
01/16/2022  02:54:00      -43.790        4.349       -9.684       22.186       16.854       11.209      492.239      284.055      125.641        0.147        0.045       44.005       10.106        0.053      330.510       -2.072      867.691
01/16/2022  02:55:00       -1.633        3.486        3.608       13.191       14.740        8.419      174.009      217.261       70.873        0.024        0.023        3.850        3.952        1.054      330.530       -2.039      867.671
01/16/2022  02:56:00      -13.022       12.068       -7.750       11.367       10.891        8.474      129.214      118.618       71.803        0.035        0.016       17.754        3.034        0.029      330.566       -1.980      867.666
01/16/2022  02:57:00      -25.716        6.039       -5.627       13.804        9.813       12.072      190.539       96.288      145.744        0.058        0.022       26.416        4.186        0.025      330.597       -1.928      867.647
01/16/2022  02:58:00      -15.550        3.072       -7.648        9.707       10.139       10.058       94.231      102.802      101.154        0.030        0.015       15.850        3.407        0.046      330.612       -1.905      867.654
01/16/2022  02:59:00      -15.529        6.241       -2.920        9.463       12.208        8.896       89.556      149.046       79.145        0.030        0.016       16.736        5.730        0.117      330.582       -1.953      867.665
01/16/2022  03:00:00        0.184       -4.731       -2.540        6.569        8.851        7.008       43.147       78.346       49.115        0.010        0.009        4.734        5.035        1.131      330.610       -1.905      867.695
01/16/2022  03:01:00      -16.867       -1.313       -1.353       15.012       15.761       11.952      225.359      248.420      142.861        0.045        0.031       16.918        7.882        0.217      330.632       -1.870      867.748
01/16/2022  03:02:00      -14.545        0.788       -3.391       20.131       16.110       11.603      405.272      259.537      134.628        0.051        0.040       14.566        7.463        0.263      330.618       -1.894      867.775
01/16/2022  03:03:00      -40.504        1.919       -0.998       36.050       26.619       16.895     1299.634      708.589      285.428        0.197        0.115       40.549        7.993        0.039      330.558       -1.991      867.812
01/16/2022  03:04:00       -5.417       -3.222        7.502       16.690       16.409       16.229      278.549      269.245      263.370        0.045        0.041        6.303        5.587        0.786      330.566       -1.981      867.822
01/16/2022  03:05:00        3.932      -15.588       -2.726       18.555       16.825       11.876      344.299      283.087      141.031        0.052        0.038       16.077        9.245        0.331      330.726       -1.716      867.817
01/16/2022  03:06:00       -1.180      -21.788       -4.573       12.059       16.861       17.055      145.411      284.292      290.879        0.061        0.036       21.820        8.456        0.150      330.664       -1.818      867.797
01/16/2022  03:07:00       -0.772      -23.049      -21.530       10.704        9.188        8.624      114.574       84.424       74.370        0.063        0.014       23.062        4.230        0.034      330.744       -1.687      867.787
01/16/2022  03:08:00      -15.121      -13.472       -6.312       19.447       13.489       15.228      378.171      181.959      231.882        0.062        0.040       20.252        9.813        0.235      330.758       -1.663      867.769
01/16/2022  03:09:00      -28.915       -0.834       -4.473       21.805       24.547       14.692      475.458      602.573      215.844        0.108        0.065       28.927       13.343        0.213      330.684       -1.784      867.784
01/16/2022  03:10:00      -42.150        5.448       -2.019       22.867       16.712       12.540      522.908      279.303      157.254        0.138        0.048       42.501        5.994        0.020      330.611       -1.904      867.775
01/16/2022  03:11:00      -21.428       -7.741       -7.827       30.192       18.656       14.704      911.538      348.051      216.219        0.103        0.074       22.784        9.400        0.170      330.594       -1.933      867.803
01/16/2022  03:12:00      -51.000       21.314       -3.996       26.113       16.973       13.379      681.886      288.075      178.995        0.211        0.057       55.275       14.045        0.065      330.391       -2.266      867.830
01/16/2022  03:13:00      -57.528       33.649       -1.428       19.591       16.367       12.420      383.793      267.892      154.251        0.262        0.040       66.646        7.965        0.014      330.395       -2.259      867.893
01/16/2022  03:14:00      -65.162       42.798       -7.936       20.578       18.208       14.758      423.459      331.535      217.795        0.356        0.049       77.960        8.667        0.012      330.458       -2.155      867.930
01/16/2022  03:15:00      -64.549       44.322      -14.850       18.730       19.862       11.468      350.828      394.507      131.517        0.361        0.044       78.301       10.899        0.019      330.556       -1.996      867.937
01/16/2022  03:16:00      -48.452       27.854      -12.402       13.925       14.822       10.043      193.899      219.701      100.863        0.190        0.026       55.888        4.573        0.007      330.488       -2.107      867.892
01/16/2022  03:17:00      -64.739       23.743       -7.864       17.013       20.684       12.600      289.457      427.834      158.766        0.285        0.044       68.955       10.721        0.024      330.393       -2.264      867.827
01/16/2022  03:18:00      -66.015       37.751      -10.770       20.262       19.356       12.720      410.543      374.642      161.808        0.342        0.047       76.047       10.821        0.020      330.428       -2.205      867.728
01/16/2022  03:19:00      -71.128       25.371      -17.105       18.849       17.894       13.504      355.289      320.197      182.370        0.343        0.043       75.518        7.794        0.011      330.497       -2.093      867.679
01/16/2022  03:20:00      -45.146       20.554      -20.307       18.153       17.952       15.326      329.533      322.268      234.897        0.188        0.044       49.605        8.691        0.031      330.466       -2.143      867.664
01/16/2022  03:21:00      -42.134        8.955      -11.577       28.505       14.208       16.909      812.520      201.854      285.925        0.164        0.065       43.075        2.030        0.002      330.384       -2.277      867.676
01/16/2022  03:22:00      -14.984       -3.467       -5.867       25.253       14.575       10.760      637.694      212.441      115.775        0.062        0.048       15.380       11.376        0.547      330.401       -2.249      867.710
01/16/2022  03:23:00      -18.559        1.633       -6.742       39.052       12.960       15.110     1525.065      167.953      228.323        0.116        0.096       18.630        8.830        0.225      330.333       -2.361      867.716
01/16/2022  03:24:00      -13.879       -8.630      -10.774       23.403       17.611       12.878      547.694      310.163      165.831        0.070        0.051       16.343        6.185        0.143      330.336       -2.356      867.700
01/16/2022  03:25:00       -7.939      -11.045       -3.788       21.415       23.584       12.346      458.601      556.193      152.425        0.068        0.058       13.602       12.505        0.845      330.255       -2.489      867.659
01/16/2022  03:26:00      -20.563       12.491      -11.002       19.943       14.079       10.063      397.722      198.225      101.262        0.070        0.035       24.060        6.969        0.084      330.294       -2.425      867.625
01/16/2022  03:27:00      -13.176       -2.445       -3.590       16.168       13.175        8.917      261.390      173.578       79.514        0.035        0.026       13.401        7.987        0.355      330.278       -2.450      867.577
01/16/2022  03:28:00      -18.312        0.466       -4.497       10.514       13.093        6.656      110.546      171.426       44.299        0.034        0.016       18.318        6.961        0.144      330.337       -2.354      867.604
01/16/2022  03:29:00      -33.416        6.591      -10.830       15.788       10.480        9.612      249.264      109.821       92.384        0.086        0.023       34.060        5.842        0.029      330.347       -2.338      867.631
01/16/2022  03:30:00      -44.067       10.353      -12.291       14.015       15.388        8.298      196.415      236.777       68.860        0.135        0.025       45.267        7.956        0.031      330.352       -2.331      867.664
01/16/2022  03:31:00      -20.354       11.743       -4.231       13.803       12.368       10.045      190.519      152.960      100.905        0.051        0.022       23.499        5.854        0.062      330.387       -2.273      867.638
01/16/2022  03:32:00      -34.564       26.347       -8.191        8.178        8.294        7.615       66.877       68.792       57.986        0.107        0.010       43.461        3.254        0.006      330.281       -2.445      867.584
01/16/2022  03:33:00      -24.199       22.700       -7.113        9.806       11.383        6.718       96.149      129.567       45.128        0.071        0.014       33.179        3.414        0.011      330.272       -2.458      867.549
01/16/2022  03:34:00      -26.033       24.097      -12.372        9.612        8.411        6.416       92.395       70.749       41.167        0.081        0.010       35.474        1.792        0.003      330.338       -2.353      867.527
01/16/2022  03:35:00      -29.596       25.574      -10.640        9.102       12.108        7.150       82.839      146.610       51.118        0.096        0.014       39.115        5.193        0.018      330.398       -2.256      867.524
01/16/2022  03:36:00        2.130       23.136       -7.857       12.234        6.318        6.364      149.681       39.916       40.497        0.042        0.012       23.234        5.291        0.052      330.403       -2.246      867.516
01/16/2022  03:37:00       16.750       20.772       -3.796       11.025       10.196        5.906      121.546      103.954       34.881        0.049        0.013       26.684        5.056        0.036      330.508       -2.077      867.491
01/16/2022  03:38:00       31.122       29.557       -4.015       15.887        8.305        7.388      252.397       68.970       54.583        0.112        0.019       42.921        4.378        0.010      330.535       -2.031      867.473
01/16/2022  03:39:00       39.968       21.297       -6.122       13.565        7.202        9.668      184.019       51.868       93.462        0.121        0.016       45.288        7.536        0.028      330.514       -2.067      867.428
01/16/2022  03:40:00       21.921       18.231      -11.810       12.298        8.770        9.823      151.229       76.914       96.497        0.064        0.016       28.512        8.733        0.094      330.488       -2.110      867.407
01/16/2022  03:41:00       37.814       27.961       -5.160       10.142        8.179        6.769      102.866       66.898       45.815        0.123        0.011       47.029        4.237        0.008      330.514       -2.068      867.423
01/16/2022  03:42:00       10.626       22.451       -7.028       13.638        5.797        7.842      185.997       33.601       61.501        0.047        0.014       24.838        7.806        0.099      330.494       -2.100      867.448
01/16/2022  03:43:00      -27.789       28.398      -11.958       10.088        7.831        7.188      101.765       61.318       51.668        0.097        0.011       39.732        4.889        0.015      330.343       -2.343      867.500
01/16/2022  03:44:00      -34.660       24.066      -12.519       19.475       17.674        8.817      379.294      312.366       77.731        0.135        0.038       42.196        6.291        0.022      330.277       -2.451      867.528
01/16/2022  03:45:00      -32.080       12.440      -11.710       12.719       11.594        6.596      161.767      134.425       43.501        0.083        0.017       34.408        3.956        0.013      330.286       -2.438      867.551
01/16/2022  03:46:00      -14.087        5.576       -2.572        5.398       10.166        6.395       29.135      103.345       40.900        0.020        0.009       15.151        5.074        0.112      330.362       -2.315      867.543
01/16/2022  03:47:00       -1.660        5.792       -3.451        6.347        7.306        6.470       40.280       53.385       41.859        0.009        0.007        6.025        4.876        0.655      330.331       -2.364      867.545
01/16/2022  03:48:00       -6.998       23.763       -7.955        9.391        8.713        5.130       88.184       75.921       26.312        0.043        0.010       24.772        4.188        0.029      330.399       -2.254      867.524
01/16/2022  03:49:00      -21.603       16.706      -14.694        8.096        5.927        6.558       65.547       35.128       43.009        0.055        0.007       27.309        5.361        0.039      330.433       -2.198      867.498
01/16/2022  03:50:00      -24.526       17.337      -14.271       10.174        7.553        7.105      103.518       57.055       50.474        0.066        0.011       30.035        4.084        0.018      330.308       -2.400      867.464
01/16/2022  03:51:00      -16.370        9.426      -12.109        7.962        8.355        5.721       63.391       69.800       32.731        0.033        0.008       18.889        3.927        0.043      330.243       -2.510      867.437
01/16/2022  03:52:00        5.495       15.327       -2.324       10.206        8.936        8.952      104.154       79.849       80.129        0.027        0.013       16.282        5.886        0.131      330.447       -2.175      867.428
01/16/2022  03:53:00        2.312       36.654       -5.011       17.910       12.598        9.999      320.783      158.719       99.985        0.098        0.029       36.726        7.272        0.039      330.465       -2.146      867.408
01/16/2022  03:54:00        6.805       36.908       -1.421       30.960       14.592        9.893      958.531      212.926       97.876        0.134        0.063       37.530        9.039        0.058      330.493       -2.100      867.423
01/16/2022  03:55:00       -7.087       19.697      -11.762       12.222        8.037        8.294      149.377       64.593       68.797        0.043        0.014       20.933        5.658        0.073      330.376       -2.291      867.422
01/16/2022  03:56:00        8.893       18.592       -3.674       16.299       12.243       10.596      265.649      149.891      112.273        0.048        0.026       20.610        6.188        0.090      330.478       -2.123      867.423
01/16/2022  03:57:00       16.857        9.319        3.492       13.168        7.429       12.918      173.409       55.192      166.863        0.039        0.020       19.261        4.354        0.051      330.452       -2.167      867.407
01/16/2022  03:58:00      -10.096        8.470       -9.798        9.182        9.101        9.048       84.308       82.828       81.864        0.026        0.012       13.178        2.723        0.043      330.392       -2.265      867.385
01/16/2022  03:59:00      -34.602       18.165      -12.075       13.901       12.769       11.935      193.231      163.052      142.447        0.109        0.025       39.080        7.854        0.040      330.236       -2.520      867.377
01/16/2022  04:00:00      -18.577       24.754       -7.157       20.200       11.884        8.216      408.050      141.232       67.498        0.081        0.031       30.949        7.394        0.057      330.161       -2.644      867.365
01/16/2022  04:01:00      -38.111       23.094       -7.007       24.673       10.973       14.079      608.757      120.397      198.226        0.148        0.046       44.562       13.705        0.095      330.150       -2.662      867.387
01/16/2022  04:02:00      -40.230       12.350      -13.397       27.306       19.532       13.407      745.602      381.487      179.743        0.163        0.065       42.083       10.018        0.057      330.176       -2.619      867.388
01/16/2022  04:03:00      -25.536       10.437       -8.701       19.548       23.926       12.061      382.135      572.430      145.465        0.097        0.055       27.586       11.112        0.162      330.117       -2.717      867.388
01/16/2022  04:04:00      -16.078        8.534       -1.938       14.936       14.540       10.044      223.099      211.414      100.890        0.044        0.027       18.202        6.153        0.114      329.993       -2.919      867.388
01/16/2022  04:05:00      -58.383       16.998      -10.012       47.662       26.717       15.299     2271.682      713.776      234.051        0.351        0.161       60.807       11.410        0.035      330.040       -2.843      867.385
01/16/2022  04:06:00      -95.148       21.712      -28.568       40.170       26.491       24.548     1613.653      701.791      602.600        0.663        0.146       97.594       11.526        0.014      330.045       -2.831      867.372
01/16/2022  04:07:00      -59.050       16.696      -22.996       69.286       36.530       20.489     4800.528     1334.455      419.783        0.542        0.328       61.365       15.880        0.067      329.962       -2.969      867.358
01/16/2022  04:08:00      -47.080        9.082      -26.688       58.442       31.059       18.107     3415.422      964.670      327.879        0.386        0.235       47.948       15.954        0.111      329.991       -2.922      867.353
01/16/2022  04:09:00      -22.287       -9.595       -6.541       31.336       29.854       13.640      981.971      891.269      186.061        0.135        0.103       24.265        8.464        0.122      329.989       -2.926      867.376
01/16/2022  04:10:00      -34.227        7.689       -8.858       47.779       18.197       22.927     2282.875      331.145      525.658        0.222        0.157       35.080       14.003        0.159      330.014       -2.886      867.397
01/16/2022  04:11:00      -22.596       -9.967       -5.015       32.237       23.645       20.084     1039.251      559.080      403.352        0.132        0.100       24.696       14.485        0.344      330.047       -2.829      867.401
01/16/2022  04:12:00        1.535       -0.145       -9.508       20.136       23.442       14.033      405.461      549.513      196.934        0.062        0.058        1.542       10.839       49.424      329.968       -2.960      867.405
01/16/2022  04:13:00       19.700       -7.133      -11.341       22.622       22.779       15.604      511.754      518.866      243.495        0.092        0.064       20.951        9.070        0.187      329.966       -2.962      867.407
01/16/2022  04:14:00        6.439        4.173       -4.706       18.899       19.306       16.118      357.162      372.721      259.802        0.054        0.049        7.673       10.952        2.037      329.946       -2.996      867.373
01/16/2022  04:15:00      -58.015       10.274      -22.980       20.305       26.310       15.951      412.312      692.199      254.443        0.268        0.068       58.917       14.685        0.062      329.988       -2.928      867.362
01/16/2022  04:16:00      -63.807        6.737      -11.375       20.945       18.092       11.211      438.692      327.331      125.676        0.257        0.045       64.162        5.834        0.008      329.976       -2.946      867.348
01/16/2022  04:17:00      -29.544        7.217        2.593       31.308       23.499       18.757      980.162      552.209      351.829        0.141        0.094       30.413       18.980        0.389      329.987       -2.928      867.353
01/16/2022  04:18:00      -41.772       21.744      -14.239       23.628       16.313       13.072      558.270      266.118      170.884        0.171        0.050       47.092        9.806        0.043      329.938       -3.009      867.343
01/16/2022  04:19:00      -23.719        7.129      -12.022       27.828       17.460        8.672      774.394      304.840       75.196        0.096        0.058       24.767        5.096        0.042      329.992       -2.921      867.310
01/16/2022  04:20:00      -17.570        5.527       -8.087       14.637       14.916        7.013      214.246      222.489       49.179        0.045        0.024       18.419        5.562        0.091      330.035       -2.852      867.299
01/16/2022  04:21:00        1.709       -2.904       -3.273        4.036        4.871        4.585       16.286       23.726       21.020        0.004        0.003        3.370        2.614        0.602      330.064       -2.802      867.305
01/16/2022  04:22:00       -1.380        2.336       -9.627       14.619        9.573       18.057      213.720       91.651      326.038        0.037        0.032        2.713       12.548       21.390      330.238       -2.517      867.324
01/16/2022  04:23:00       -4.811        7.566      -20.187        9.990       10.352        9.488       99.792      107.158       90.029        0.039        0.015        8.966        2.648        0.087      330.205       -2.572      867.328
01/16/2022  04:24:00      -26.058        6.154       -9.883       22.623       17.517       12.223      511.778      306.851      149.412        0.089        0.048       26.775        7.888        0.087      330.091       -2.760      867.321
01/16/2022  04:25:00      -73.556       17.306      -23.868       10.405        7.935        7.242      108.259       62.959       52.451        0.325        0.011       75.565        4.514        0.004      330.077       -2.780      867.313
01/16/2022  04:26:00      -79.114       23.673      -18.617       11.867        8.640        8.595      140.825       74.654       73.877        0.373        0.014       82.580        4.448        0.003      330.080       -2.776      867.286
01/16/2022  04:27:00      -75.580       23.096      -20.508        9.084        9.077        9.222       82.520       82.398       85.043        0.346        0.012       79.030        4.245        0.003      330.108       -2.733      867.257
01/16/2022  04:28:00      -63.396        8.562      -15.604       33.508       24.133       17.355     1122.778      582.395      301.189        0.317        0.100       63.971       18.801        0.086      330.097       -2.749      867.234
01/16/2022  04:29:00      -36.510       10.460        2.001       27.741       31.228       22.322      769.578      975.193      498.250        0.184        0.112       37.979       19.180        0.255      330.040       -2.843      867.234
01/16/2022  04:30:00      -78.798        2.960      -10.198       38.928       27.979       18.865     1515.386      782.849      355.903        0.449        0.133       78.853       13.316        0.029      330.085       -2.768      867.247
01/16/2022  04:31:00      -61.872       26.405        2.363       35.763       25.025       19.827     1278.972      626.258      393.090        0.341        0.115       67.271       21.131        0.099      330.015       -2.883      867.279
01/16/2022  04:32:00      -69.820       20.763       -7.578       14.173       17.596       11.964      200.871      309.637      143.134        0.301        0.033       72.842        7.149        0.010      330.007       -2.895      867.297
01/16/2022  04:33:00      -80.014       21.830      -15.370       13.906       11.680        7.709      193.364      136.432       59.430        0.375        0.019       82.938        6.258        0.006      330.125       -2.703      867.289
01/16/2022  04:34:00      -84.371       29.229      -10.256       19.949       12.740       15.783      397.955      162.313      249.097        0.444        0.040       89.291       11.685        0.017      330.048       -2.829      867.270
01/16/2022  04:35:00      -85.423       36.222      -15.362       25.945       17.059       13.019      673.136      291.013      169.500        0.499        0.057       92.785        8.546        0.008      330.019       -2.876      867.242
01/16/2022  04:36:00      -99.194       31.254       -6.486       38.756       21.770       18.049     1502.057      473.943      325.753        0.658        0.115      104.002       14.995        0.021      329.940       -3.006      867.208
01/16/2022  04:37:00     -118.113       39.239       -9.084       52.705       37.628       20.901     2777.829     1415.847      436.835        1.010        0.232      124.460       23.604        0.036      329.968       -2.959      867.180
01/16/2022  04:38:00      -99.793       15.224       -5.590       43.950       29.341       25.305     1931.572      860.874      640.324        0.683        0.172      100.947       27.299        0.073      329.957       -2.978      867.164
01/16/2022  04:39:00      -94.585       29.102      -11.376       38.953       27.084       21.826     1517.313      733.566      476.357        0.632        0.136       98.961       19.271        0.038      329.901       -3.070      867.156
01/16/2022  04:40:00     -122.367       53.218       -8.635       23.564       16.358       15.822      555.240      267.574      250.323        0.948        0.054      133.438       12.439        0.009      329.821       -3.201      867.134
01/16/2022  04:41:00     -111.514       33.114      -15.700       11.307       16.571       11.003      127.843      274.600      121.072        0.715        0.026      116.326        4.130        0.001      329.924       -3.033      867.137
01/16/2022  04:42:00      -56.097       -5.534      -15.116       26.509       26.531       19.458      702.747      703.868      378.608        0.260        0.089       56.370       15.886        0.079      329.983       -2.934      867.129
01/16/2022  04:43:00      -45.483       24.172       -4.690       26.708       24.931       15.022      713.341      621.536      225.657        0.212        0.078       51.508        9.654        0.035      329.971       -2.955      867.138
01/16/2022  04:44:00       -7.440       -6.927      -16.495       22.373       25.190       19.575      500.542      634.524      383.169        0.095        0.076       10.166       14.018        1.902      329.983       -2.935      867.140
01/16/2022  04:45:00      -33.813       17.007       -2.404       36.435       29.213       15.776     1327.509      853.371      248.883        0.193        0.121       37.849        9.790        0.067      329.932       -3.019      867.150
01/16/2022  04:46:00      -80.230       34.153      -14.392       14.551       16.159       11.416      211.725      261.117      130.324        0.421        0.030       87.197        8.858        0.010      329.857       -3.142      867.128
01/16/2022  04:47:00      -71.683       33.752      -11.150       23.613       22.578       16.448      557.551      509.780      270.550        0.387        0.067       79.232        9.432        0.014      329.840       -3.170      867.131
01/16/2022  04:48:00     -104.508       66.476      -19.291       21.638       26.262       19.280      468.181      689.672      371.728        0.862        0.076      123.859       13.064        0.011      329.849       -3.154      867.128
01/16/2022  04:49:00      -90.585       26.061      -10.883       21.113       22.026       15.299      445.778      485.153      234.060        0.508        0.058       94.259       10.702        0.013      329.921       -3.035      867.138
01/16/2022  04:50:00     -102.588       48.700       -8.381       26.146       25.335       16.324      683.603      641.866      266.459        0.728        0.080      113.560       14.735        0.017      329.884       -3.097      867.159
01/16/2022  04:51:00     -102.801       41.982      -12.754       16.264       17.917       12.142      264.525      321.027      147.422        0.661        0.037      111.043        4.567        0.002      329.899       -3.073      867.158
01/16/2022  04:52:00      -87.356       38.526      -15.809       15.489       19.819       13.075      239.910      392.780      170.949        0.508        0.040       95.474        7.330        0.006      329.930       -3.022      867.149
01/16/2022  04:53:00      -44.284       10.660      -11.621       28.550       27.793       20.567      815.104      772.456      422.994        0.211        0.101       45.549       15.903        0.122      329.969       -2.957      867.150
01/16/2022  04:54:00      -68.903       31.510      -16.258       31.468       35.608       17.955      990.245     1267.910      322.380        0.429        0.129       75.766       15.351        0.041      329.917       -3.043      867.148
01/16/2022  04:55:00      -44.104       18.380      -16.049       33.051       22.439       19.112     1092.359      503.498      365.274        0.225        0.098       47.781        8.386        0.031      329.888       -3.092      867.155
01/16/2022  04:56:00      -34.993       -0.674      -14.397       32.153       21.749       16.677     1033.804      472.999      278.119        0.161        0.089       34.999        9.778        0.078      329.932       -3.017      867.170
01/16/2022  04:57:00      -43.885        2.326      -16.671       29.491       23.204       17.611      869.733      538.412      310.132        0.196        0.086       43.947       13.348        0.092      329.975       -2.948      867.186
01/16/2022  04:58:00      -58.028       16.282      -13.093       29.426       32.263       23.047      865.897     1040.896      531.179        0.312        0.122       60.269       14.159        0.055      329.970       -2.956      867.199
01/16/2022  04:59:00      -67.880       12.769       -9.524       23.175       11.901       15.375      537.068      141.631      236.376        0.289        0.046       69.070       13.064        0.036      329.890       -3.087      867.206
01/16/2022  05:00:00      -75.648       26.165      -17.823       14.283       13.804       12.526      203.994      190.549      156.911        0.364        0.028       80.045        6.655        0.007      329.943       -3.001      867.203
01/16/2022  05:01:00      -71.481       21.551      -13.929       15.527       13.640       12.151      241.088      186.055      147.639        0.317        0.029       74.659        7.075        0.009      329.921       -3.036      867.200
01/16/2022  05:02:00      -56.149       15.281      -12.379       24.986       14.722       14.180      624.303      216.741      201.085        0.229        0.052       58.191       14.783        0.065      329.954       -2.984      867.201
01/16/2022  05:03:00      -75.489       12.963      -10.970       22.128       22.250       14.784      489.627      495.041      218.573        0.359        0.060       76.594       13.466        0.031      329.974       -2.949      867.218
01/16/2022  05:04:00      -58.286       12.681      -10.746       26.535       23.694       16.002      704.123      561.416      256.050        0.260        0.076       59.649        7.356        0.015      329.952       -2.986      867.223
01/16/2022  05:05:00      -77.151       15.336      -14.525       19.505       23.079       11.475      380.426      532.645      131.671        0.372        0.052       78.660        4.865        0.004      329.963       -2.968      867.240
01/16/2022  05:06:00      -64.228       41.829       -6.672       28.175       19.113       13.330      793.834      365.291      177.691        0.363        0.067       76.648        6.168        0.006      329.906       -3.061      867.240
01/16/2022  05:07:00      -62.301       31.045       -3.007       32.442       23.202       16.639     1052.504      538.345      276.852        0.336        0.093       69.608       14.778        0.045      329.855       -3.145      867.247
01/16/2022  05:08:00      -88.039       37.675       -5.690       41.697       31.456       18.241     1738.674      989.463      332.745        0.613        0.153       95.761       15.599        0.027      329.853       -3.147      867.246
01/16/2022  05:09:00      -97.716       35.216       -8.273       37.747       33.676       16.873     1424.856     1134.065      284.699        0.685        0.142      103.868       15.014        0.021      329.863       -3.133      867.238
01/16/2022  05:10:00      -95.816       29.080      -14.883       24.007       14.854       12.759      576.352      220.635      162.780        0.560        0.048      100.132        3.308        0.001      329.895       -3.080      867.220
01/16/2022  05:11:00      -31.595       10.432      -16.396       35.823       20.335       15.907     1283.264      413.514      253.034        0.166        0.097       33.272        9.973        0.090      329.995       -2.917      867.209
01/16/2022  05:12:00      -25.814      -12.378      -14.319       43.421       30.076       17.546     1885.361      904.538      307.853        0.206        0.155       28.629       14.518        0.257      330.013       -2.886      867.199
01/16/2022  05:13:00      -20.340        9.671      -11.551       37.088       13.367       16.364     1375.533      178.679      267.792        0.123        0.091       22.522       10.422        0.214      330.005       -2.898      867.198
01/16/2022  05:14:00      -40.976       16.493       -8.206       32.144       25.404       22.150     1033.217      645.350      490.628        0.209        0.108       44.171       13.068        0.088      329.956       -2.979      867.191
01/16/2022  05:15:00      -20.855       -6.728       -8.776       35.961       21.404       20.385     1293.172      458.136      415.561        0.136        0.108       21.914       16.687        0.580      330.016       -2.880      867.199
01/16/2022  05:16:00      -36.477       12.591      -14.464       48.439       21.969       15.840     2346.323      482.633      250.900        0.239        0.154       38.588       15.253        0.156      330.079       -2.780      867.180
01/16/2022  05:17:00      -36.633       15.334      -16.398       32.327       28.830       17.961     1045.032      831.169      322.588        0.202        0.110       39.713       11.685        0.087      330.029       -2.861      867.188
01/16/2022  05:18:00      -20.268       12.510       -7.967       28.143       18.939       16.249      792.039      358.699      264.039        0.102        0.071       23.818       10.553        0.196      330.053       -2.821      867.192
01/16/2022  05:19:00       -9.871       -2.590       -4.416       24.319       22.682       20.728      591.412      514.469      429.659        0.083        0.077       10.205        9.368        0.843      329.961       -2.970      867.192
01/16/2022  05:20:00      -70.128       18.600      -13.827       25.684       21.375       19.420      659.683      456.901      377.138        0.347        0.075       72.552       13.233        0.033      330.007       -2.896      867.182
01/16/2022  05:21:00      -76.354       26.390      -20.822       19.891       20.106       13.421      395.638      404.247      180.121        0.397        0.049       80.786        6.790        0.007      330.023       -2.870      867.178
01/16/2022  05:22:00      -97.518       47.415      -14.268       17.947       21.648       17.884      322.080      468.619      319.848        0.654        0.056      108.434        8.604        0.006      330.016       -2.881      867.164
01/16/2022  05:23:00      -85.356       58.149       -8.297       24.701       22.729       19.400      610.134      516.588      376.343        0.612        0.075      103.281       12.856        0.015      329.964       -2.966      867.171
01/16/2022  05:24:00      -87.303       50.906       -9.309       31.959       23.202       19.875     1021.405      538.330      395.010        0.613        0.098      101.061       15.601        0.024      329.951       -2.988      867.186
01/16/2022  05:25:00      -99.253       51.347       -9.398       26.002       16.481       16.599      676.100      271.611      275.536        0.690        0.061      111.748       10.328        0.009      329.980       -2.940      867.194
01/16/2022  05:26:00      -76.950       35.793       -4.977       24.637       25.384       18.175      607.002      644.358      330.343        0.440        0.079       84.867       10.679        0.016      330.032       -2.855      867.207
01/16/2022  05:27:00      -82.315       33.783       -9.190       32.885       25.700       14.789     1081.448      660.507      218.715        0.498        0.098       88.978        8.557        0.009      330.019       -2.875      867.223
01/16/2022  05:28:00      -49.270        5.670      -14.669       28.236       29.378       20.798      797.252      863.067      432.568        0.238        0.105       49.595       10.595        0.046      330.083       -2.772      867.240
01/16/2022  05:29:00      -49.063      -21.593       -4.834       42.019       28.728       23.718     1765.637      825.276      562.542        0.302        0.158       53.604       19.786        0.136      330.075       -2.785      867.244
01/16/2022  05:30:00      -29.370       -3.925       -1.418       39.453       24.886       23.711     1556.536      619.316      562.210        0.181        0.137       29.631       24.921        0.707      330.073       -2.787      867.244
01/16/2022  05:31:00      -53.782        1.819      -11.687       50.686       22.220       20.917     2569.021      493.731      437.520        0.327        0.175       53.812       23.042        0.183      330.077       -2.783      867.243
01/16/2022  05:32:00      -52.084       -8.508       -5.704       44.204       23.052       19.752     1953.983      531.410      390.122        0.285        0.144       52.775       15.387        0.085      330.103       -2.740      867.244
01/16/2022  05:33:00      -66.571       11.137      -14.197       34.268       27.400       21.423     1174.317      750.756      458.933        0.357        0.119       67.496       15.531        0.053      330.111       -2.726      867.242
01/16/2022  05:34:00      -65.616       20.700       -8.463       25.989       22.883       15.661      675.402      523.645      245.252        0.312        0.072       68.804       15.354        0.050      330.081       -2.777      867.245
01/16/2022  05:35:00      -39.572        4.921       -1.027       28.236       24.346       15.664      797.261      592.742      245.372        0.161        0.082       39.877       15.060        0.143      330.109       -2.730      867.238
01/16/2022  05:36:00      -48.051       -5.516       -7.624       25.654       22.373       17.586      658.114      500.545      309.250        0.193        0.073       48.367       11.940        0.061      330.122       -2.708      867.226
01/16/2022  05:37:00      -14.280      -16.502       -5.203       32.891       17.433       19.547     1081.804      303.923      382.081        0.114        0.088       21.823       19.965        0.837      330.117       -2.717      867.216
01/16/2022  05:38:00      -26.942      -26.967      -13.882       17.641       25.820       16.313      311.194      666.658      266.119        0.144        0.062       38.119       16.598        0.190      330.201       -2.579      867.221
01/16/2022  05:39:00       -5.663       -3.790       -1.576       16.727       18.271       12.203      279.791      333.839      148.911        0.041        0.038        6.814        7.816        1.315      330.163       -2.641      867.233
01/16/2022  05:40:00      -37.680       11.805      -12.652       24.050       17.153       15.886      578.386      294.218      252.351        0.142        0.056       39.486       14.027        0.126      330.124       -2.704      867.242
01/16/2022  05:41:00      -32.963       13.269      -13.037       13.432       12.333        8.164      180.432      152.113       66.649        0.092        0.020       35.533        5.343        0.023      330.078       -2.780      867.248
01/16/2022  05:42:00      -55.814       -2.704      -12.852       25.805       13.217       14.743      665.872      174.677      217.356        0.217        0.053       55.880       12.289        0.048      330.170       -2.631      867.263
01/16/2022  05:43:00       -2.421       -3.092        0.861       10.574       10.757       10.265      111.817      115.711      105.361        0.017        0.017        3.927        7.305        3.460      330.201       -2.578      867.271
01/16/2022  05:44:00       -7.339      -12.122       -7.726        7.735       12.952       13.933       59.834      167.751      194.119        0.034        0.021       14.171       10.147        0.513      330.305       -2.407      867.282
01/16/2022  05:45:00       -3.918       -9.440       -2.854       13.117       10.949        8.213      172.065      119.884       67.450        0.024        0.018       10.221        2.688        0.069      330.403       -2.246      867.300
01/16/2022  05:46:00       -9.827        0.223       -1.807        7.566       17.075       10.868       57.239      291.560      118.111        0.028        0.023        9.829        8.880        0.816      330.294       -2.424      867.328
01/16/2022  05:47:00       -6.669       19.572       -6.982       16.069       11.000        7.769      258.203      120.999       60.351        0.046        0.022       20.677        7.709        0.139      330.269       -2.466      867.346
01/16/2022  05:48:00       60.189       24.783       -8.380       13.120       17.325        9.864      172.138      300.165       97.289        0.244        0.028       65.092        7.357        0.013      330.001       -2.906      867.365
01/16/2022  05:49:00       62.876       40.866      -15.507       10.317       10.482       10.383      106.442      109.876      107.815        0.309        0.016       74.990        2.568        0.001      330.043       -2.838      867.378
01/16/2022  05:50:00       62.656       48.608      -10.470       12.624        7.313        7.925      159.366       53.483       62.808        0.334        0.014       79.300        5.154        0.004      330.039       -2.845      867.386
01/16/2022  05:51:00       56.812       36.878      -10.044        8.319        9.713        6.958       69.203       94.352       48.420        0.245        0.011       67.732        3.432        0.003      329.910       -3.054      867.372
01/16/2022  05:52:00       47.445       23.100       -4.975        7.918        7.254        5.158       62.688       52.617       26.608        0.148        0.007       52.770        1.903        0.001      329.871       -3.118      867.371
01/16/2022  05:53:00       64.264       35.615       -6.810        6.731        5.774        4.883       45.313       33.343       23.843        0.277        0.005       73.473        2.821        0.001      329.921       -3.035      867.365
01/16/2022  05:54:00       67.304       40.401      -12.587        7.612        7.633        5.516       57.939       58.269       30.428        0.323        0.007       78.499        2.962        0.001      329.883       -3.098      867.363
01/16/2022  05:55:00       58.180       40.181       -8.269       10.742        7.276        7.660      115.397       52.942       58.669        0.265        0.011       70.706        4.431        0.004      329.856       -3.143      867.359
01/16/2022  05:56:00       60.900       44.484       -9.904        8.384        5.725        6.334       70.288       32.776       40.116        0.296        0.007       75.416        3.439        0.002      329.874       -3.112      867.356
01/16/2022  05:57:00       64.124       43.764       -9.110       11.047       10.682        8.790      122.028      114.102       77.261        0.321        0.016       77.635        2.076        0.001      329.850       -3.153      867.348
01/16/2022  05:58:00       73.811       47.440      -11.907       10.384        7.853        7.456      107.823       61.665       55.587        0.403        0.011       87.742        3.206        0.001      329.889       -3.086      867.359
01/16/2022  05:59:00       44.715       40.814       -7.527       12.865       11.456        8.576      165.498      131.240       73.540        0.205        0.019       60.541        6.497        0.012      329.919       -3.039      867.366
01/16/2022  06:00:00       33.254       42.628       -9.099       10.049       11.021       10.303      100.973      121.460      106.159        0.167        0.016       54.065        7.399        0.019      329.940       -3.005      867.380
01/16/2022  06:01:00       37.843       43.079       -5.573       14.845       15.450       10.436      220.365      238.711      108.915        0.194        0.028       57.341        9.581        0.028      329.991       -2.923      867.388
01/16/2022  06:02:00       39.920       52.351       -9.666       15.464       14.207       11.190      239.136      201.825      125.212        0.250        0.028       65.835        8.847        0.018      330.018       -2.878      867.396
01/16/2022  06:03:00       30.073       33.729       -7.323       19.614       15.241       12.398      384.720      232.275      153.698        0.143        0.039       45.189       11.035        0.060      329.992       -2.920      867.410
01/16/2022  06:04:00       38.624       31.144       -4.865       12.793        8.603        8.762      163.663       74.011       76.764        0.140        0.016       49.616        6.359        0.016      330.079       -2.778      867.410
01/16/2022  06:05:00       32.173       23.778       -8.076       16.119       13.412       10.763      259.821      179.891      115.837        0.111        0.028       40.006        9.174        0.053      330.124       -2.706      867.419
01/16/2022  06:06:00       50.750       19.986       -4.617        7.612        8.182        5.682       57.937       66.937       32.288        0.158        0.008       54.544        3.816        0.005      330.165       -2.639      867.419
01/16/2022  06:07:00       58.978       34.293       -6.908        7.056        7.550        6.628       49.786       56.999       43.924        0.243        0.008       68.223        3.038        0.002      330.146       -2.668      867.430
01/16/2022  06:08:00       51.036       37.661       -8.892       10.340       10.693        7.793      106.913      114.332       60.735        0.219        0.014       63.428        4.921        0.006      330.133       -2.691      867.421
01/16/2022  06:09:00       26.299       31.443       -4.267       11.325       18.027       10.782      128.248      324.987      116.259        0.113        0.028       40.991        7.072        0.030      330.133       -2.690      867.419
01/16/2022  06:10:00       27.324       30.491       -8.764       12.731       13.106        9.080      162.085      171.771       82.445        0.108        0.021       40.943        5.967        0.021      330.146       -2.670      867.417
01/16/2022  06:11:00       26.642       17.665       -4.579       12.242       10.567        9.264      149.856      111.666       85.813        0.070        0.017       31.967        5.433        0.029      330.131       -2.694      867.423
01/16/2022  06:12:00       21.430       15.880       -5.044       14.544       11.795       11.252      211.516      139.124      126.603        0.061        0.024       26.672        8.732        0.107      330.090       -2.759      867.415
01/16/2022  06:13:00       27.687       23.458       -0.523       13.812        9.435        7.600      190.779       89.021       57.764        0.083        0.017       36.288        6.932        0.036      330.107       -2.732      867.419
01/16/2022  06:14:00       24.190       27.280       -0.401       13.887       12.763       10.214      192.846      162.882      104.334        0.089        0.023       36.460        8.284        0.052      330.121       -2.709      867.423
01/16/2022  06:15:00       11.325       26.805        1.733       14.474       13.998       11.065      209.509      195.947      122.432        0.069        0.026       29.100        9.009        0.096      330.125       -2.703      867.443
01/16/2022  06:16:00       42.905       44.982       -3.033       17.247       13.079        6.778      297.470      171.072       45.938        0.219        0.026       62.163        6.952        0.013      330.167       -2.634      867.447
01/16/2022  06:17:00       30.166       33.445       -1.224       13.688       10.970        6.790      187.373      120.346       46.108        0.119        0.018       45.040        3.758        0.007      330.170       -2.631      867.485
01/16/2022  06:18:00        7.978       23.954       -1.720       13.523       11.767       10.722      182.882      138.456      114.954        0.054        0.022       25.247        6.311        0.062      330.134       -2.689      867.486
01/16/2022  06:19:00       -7.615       10.520       -5.343        7.542        7.620        6.093       56.888       58.065       37.125        0.017        0.008       12.987        4.667        0.129      330.139       -2.684      867.479
01/16/2022  06:20:00       -8.523       20.178       -7.322        8.003        7.554        6.563       64.047       57.069       43.071        0.035        0.008       21.904        2.023        0.009      330.196       -2.586      867.485
01/16/2022  06:21:00      -21.816       12.174       -7.755       11.638        9.900        7.195      135.434       98.013       51.769        0.048        0.014       24.983        4.162        0.028      330.248       -2.499      867.499
01/16/2022  06:22:00      -13.346       -9.058       -6.858        6.514       10.755        8.049       42.433      115.659       64.787        0.026        0.011       16.129        5.277        0.107      330.261       -2.476      867.521
01/16/2022  06:23:00      -22.294       10.049       -6.155       14.549       15.251        8.779      211.675      232.589       77.074        0.058        0.026       24.454        7.573        0.096      330.156       -2.653      867.538
01/16/2022  06:24:00      -20.432       -1.791       -4.252       14.664       14.676       12.216      215.043      215.372      149.230        0.051        0.029       20.511        6.670        0.106      330.101       -2.741      867.552
01/16/2022  06:25:00       -5.825        0.356       -2.482       20.647        9.794        9.593      426.306       95.922       92.024        0.033        0.031        5.836       10.211        3.061      330.123       -2.706      867.554
01/16/2022  06:26:00      -17.489       14.090       -9.241       15.101       15.427       12.384      228.031      237.982      153.358        0.060        0.031       22.459        9.280        0.171      330.170       -2.630      867.557
01/16/2022  06:27:00      -28.049       12.086      -11.752       18.729       18.726        7.613      350.758      350.661       57.960        0.092        0.038       30.543        4.855        0.025      330.153       -2.657      867.559
01/16/2022  06:28:00       -9.752        0.467       -2.666       26.026       15.785       11.838      677.370      249.151      140.140        0.058        0.053        9.763        4.603        0.222      330.160       -2.647      867.544
01/16/2022  06:29:00       -5.063        0.103       -3.405       13.685       13.834       10.532      187.278      191.385      110.922        0.026        0.024        5.064        5.286        1.089      330.202       -2.576      867.536
01/16/2022  06:30:00      -27.293       -7.998       -6.129       35.045       23.635       15.356     1228.134      558.633      235.810        0.143        0.101       28.441       15.917        0.313      330.186       -2.603      867.525
01/16/2022  06:31:00      -12.917      -19.331        5.001       19.138       22.566       22.314      366.248      509.205      497.924        0.097        0.069       23.249       11.598        0.249      330.152       -2.661      867.531
01/16/2022  06:32:00        4.734        5.791        9.504       15.584       18.390       14.467      242.849      338.204      209.283        0.047        0.040        7.480        3.964        0.281      330.087       -2.765      867.531
01/16/2022  06:33:00      -30.818        2.113       -3.237       41.342       26.301       19.020     1709.147      691.733      361.765        0.186        0.138       30.890       15.161        0.241      330.048       -2.828      867.530
01/16/2022  06:34:00      -79.324       18.677       -2.507       33.820       31.286       19.104     1143.819      978.811      364.970        0.457        0.124       81.493       16.104        0.039      330.041       -2.840      867.523
01/16/2022  06:35:00      -84.099       23.354       -0.474       39.324       23.197       24.702     1546.339      538.081      610.184        0.516        0.135       87.281       24.526        0.079      329.930       -3.022      867.500
01/16/2022  06:36:00      -77.539       11.654       -0.168       30.376       31.588       17.861      922.675      997.782      319.011        0.419        0.112       78.410       13.612        0.030      329.995       -2.916      867.488
01/16/2022  06:37:00      -36.092        5.056        2.465       32.603       21.047       16.116     1062.980      442.962      259.712        0.155        0.088       36.444       14.506        0.158      330.018       -2.878      867.493
01/16/2022  06:38:00      -47.915        7.450       -8.564       32.839       22.064       18.234     1078.425      486.803      332.492        0.216        0.095       48.490       13.001        0.072      330.036       -2.849      867.498
01/16/2022  06:39:00      -48.628        0.585       -0.460       51.946       25.815       19.139     2698.361      666.427      366.317        0.305        0.187       48.631       24.018        0.244      330.139       -2.680      867.507
01/16/2022  06:40:00      -28.632        2.218       -0.465       34.351       25.410       19.480     1180.014      645.656      379.471        0.151        0.110       28.717       18.574        0.418      330.191       -2.595      867.515
01/16/2022  06:41:00      -39.777        3.370      -18.270       27.790       30.892       16.699      772.277      954.324      278.850        0.197        0.100       39.919        6.360        0.025      330.188       -2.600      867.505
01/16/2022  06:42:00      -40.452       13.890       -8.789       28.538       32.359       21.799      814.407     1047.077      475.187        0.212        0.117       42.770       16.832        0.155      330.100       -2.743      867.507
01/16/2022  06:43:00      -41.995        9.783       -4.844       34.046       26.580       18.073     1159.100      706.517      326.617        0.204        0.110       43.120       17.424        0.163      330.124       -2.706      867.486
01/16/2022  06:44:00      -79.957        3.754      -14.960       27.010       18.110       13.571      729.533      327.959      184.171        0.394        0.062       80.046        5.870        0.005      330.213       -2.559      867.482
01/16/2022  06:45:00      -31.314       -0.295       -5.861       33.339       24.077       17.990     1111.490      579.719      323.636        0.151        0.101       31.316       17.830        0.324      330.179       -2.614      867.473
01/16/2022  06:46:00      -36.062       15.094       -6.468       21.006       15.960        9.113      441.259      254.706       83.054        0.117        0.039       39.093       10.314        0.070      330.162       -2.641      867.467
01/16/2022  06:47:00      -44.808       11.487       -9.022       13.528       14.924        9.259      183.016      222.734       85.727        0.136        0.025       46.257        7.485        0.026      330.153       -2.657      867.459
01/16/2022  06:48:00      -58.774        9.064      -12.485       17.527       17.236       13.129      307.178      297.091      172.371        0.223        0.039       59.469       10.349        0.030      330.180       -2.613      867.453
01/16/2022  06:49:00      -50.922       13.865       -6.372       21.621       14.253       11.953      467.450      203.150      142.886        0.182        0.041       52.776        8.585        0.026      330.160       -2.646      867.440
01/16/2022  06:50:00      -45.654       12.578       -4.709       21.962       12.987       11.061      482.317      168.671      122.356        0.152        0.039       47.355        8.792        0.034      330.172       -2.626      867.413
01/16/2022  06:51:00      -45.737       14.674       -4.904       14.193       14.142       13.197      201.453      200.001      174.167        0.145        0.029       48.034        8.710        0.033      330.146       -2.669      867.405
01/16/2022  06:52:00      -39.823       11.202       -7.204       16.351       14.942        8.373      267.359      223.261       70.101        0.116        0.028       41.368        8.508        0.042      330.306       -2.405      867.397
01/16/2022  06:53:00       -9.437       -4.449       -0.303       14.652       17.710       10.876      214.668      313.661      118.285        0.038        0.032       10.433        7.275        0.486      330.304       -2.409      867.397
01/16/2022  06:54:00      -23.234       -7.997      -11.939       11.138       14.313       10.724      124.055      204.868      115.014        0.060        0.022       24.572        6.885        0.079      330.208       -2.565      867.375
01/16/2022  06:55:00      -16.479      -18.433      -13.362       13.241       10.781       11.522      175.324      116.238      132.760        0.061        0.021       24.725        6.361        0.066      330.217       -2.552      867.382
01/16/2022  06:56:00      -12.129      -17.651      -20.820       10.605       10.842        8.787      112.469      117.551       77.214        0.060        0.015       21.417        4.699        0.048      330.216       -2.553      867.373
01/16/2022  06:57:00       -5.289        1.612       -7.624       11.958       12.250       12.916      142.989      150.065      166.825        0.027        0.023        5.529       10.332        3.492      330.174       -2.622      867.384
01/16/2022  06:58:00       -4.921       -1.215       -5.362       11.107       15.158       11.042      123.364      229.775      121.921        0.026        0.024        5.069        4.997        0.972      330.032       -2.854      867.403
01/16/2022  06:59:00      -12.646       -1.017       -2.372       20.198       12.191       13.498      407.975      148.632      182.195        0.045        0.037       12.687       13.761        1.176      330.015       -2.883      867.400
01/16/2022  07:00:00      -35.881        9.264       -6.472       26.796       15.973        9.772      718.049      255.148       95.489        0.124        0.053       37.057       10.049        0.074      330.085       -2.769      867.388
01/16/2022  07:01:00      -31.950       19.977       -1.661       25.904       12.072        9.849      671.015      145.743       97.009        0.117        0.046       37.681       10.070        0.071      330.101       -2.743      867.394
01/16/2022  07:02:00      -23.892        1.386       -8.372       22.102       12.131        6.341      488.506      147.150       40.210        0.066        0.034       23.932        5.188        0.047      330.066       -2.800      867.394
01/16/2022  07:03:00      -19.080        1.916       -8.565       16.321       11.013        7.158      266.363      121.294       51.234        0.044        0.022       19.176        5.511        0.083      330.145       -2.670      867.388
01/16/2022  07:04:00       -5.941       -2.439       -4.209       16.608       11.637        9.056      275.829      135.417       82.005        0.028        0.025        6.422        4.356        0.460      330.147       -2.666      867.407
01/16/2022  07:05:00       -3.041        1.842       -3.432       14.923       16.581       13.800      222.699      274.922      190.436        0.036        0.034        3.555        5.018        1.992      330.086       -2.768      867.411
01/16/2022  07:06:00      -27.042        0.655       -6.638       31.108       20.404       17.298      967.706      416.337      299.204        0.123        0.084       27.050       11.947        0.195      330.041       -2.841      867.414
01/16/2022  07:07:00      -64.059        7.616      -12.599       25.519       23.457       17.634      651.225      550.231      310.957        0.292        0.076       64.510        7.610        0.014      330.015       -2.882      867.420
01/16/2022  07:08:00      -66.687       25.364       -4.742       24.740       18.214       16.012      612.087      331.760      256.372        0.316        0.060       71.348       12.414        0.030      329.905       -3.063      867.413
01/16/2022  07:09:00      -86.060       27.300      -11.557       26.185       15.750       14.304      685.664      248.073      204.610        0.471        0.057       90.286       13.162        0.021      329.922       -3.035      867.422
01/16/2022  07:10:00      -87.465       27.829      -16.270       22.261       20.470       14.942      495.567      419.002      223.262        0.491        0.057       91.786        8.533        0.009      329.934       -3.016      867.411
01/16/2022  07:11:00      -86.137       28.103      -10.377       27.158       20.854       16.453      737.560      434.889      270.711        0.488        0.072       90.606       11.415        0.016      329.942       -3.002      867.398
01/16/2022  07:12:00      -78.734       36.367       -8.882       31.865       23.676       18.940     1015.364      560.549      358.714        0.477        0.097       86.727       16.461        0.036      329.818       -3.204      867.401
01/16/2022  07:13:00      -90.689       46.176       -3.952       29.347       20.104       19.526      861.228      404.186      381.258        0.601        0.082      101.768       18.898        0.034      329.841       -3.168      867.393
01/16/2022  07:14:00      -89.847       30.543       -8.724       23.487       18.041       13.064      551.659      325.482      170.660        0.506        0.052       94.897       12.215        0.017      329.867       -3.125      867.391
01/16/2022  07:15:00      -92.013       29.500       -8.172       29.676       24.591       18.616      880.668      604.725      346.570        0.562        0.092       96.626       14.356        0.022      329.856       -3.143      867.387
01/16/2022  07:16:00     -112.201       42.456       -7.188       26.142       21.688       16.864      683.389      470.349      284.389        0.794        0.072      119.964       15.682        0.017      329.794       -3.244      867.381
01/16/2022  07:17:00      -83.928       14.725      -10.902       44.511       22.170       18.514     1981.191      491.492      342.759        0.510        0.141       85.209       19.149        0.051      329.841       -3.169      867.371
01/16/2022  07:18:00      -79.900       16.512      -13.586       42.488       25.797       19.685     1805.245      665.494      387.485        0.485        0.143       81.588       19.091        0.055      329.884       -3.098      867.371
01/16/2022  07:19:00      -78.476       23.152      -16.559       31.601       26.945       18.704      998.596      726.025      349.856        0.452        0.104       81.820       19.938        0.059      329.897       -3.076      867.369
01/16/2022  07:20:00      -82.237       22.021      -17.764       21.520       13.879       13.586      463.111      192.618      184.589        0.420        0.042       85.134        9.340        0.012      329.948       -2.992      867.358
01/16/2022  07:21:00      -65.099        6.023      -11.924       42.330       21.555       19.180     1791.812      464.597      367.856        0.352        0.131       65.377       18.775        0.082      329.966       -2.962      867.357
01/16/2022  07:22:00      -54.704        6.792      -12.729       35.179       32.632       16.747     1237.565     1064.845      280.468        0.289        0.129       55.124       22.032        0.160      329.978       -2.943      867.364
01/16/2022  07:23:00      -52.553        2.001       -8.647       22.763       18.329       12.783      518.161      335.936      163.398        0.193        0.051       52.591       12.220        0.054      330.014       -2.884      867.378
01/16/2022  07:24:00      -27.437       -6.243      -14.472       29.843       19.587        8.394      890.578      383.666       70.457        0.117        0.067       28.138        8.052        0.082      330.024       -2.868      867.374
01/16/2022  07:25:00       -4.181       -5.986       -1.363        9.606       10.098       10.630       92.276      101.974      112.996        0.018        0.015        7.301        4.812        0.434      330.084       -2.770      867.364
01/16/2022  07:26:00      -13.620       -8.530       -8.775       17.045       16.867       11.816      290.536      284.480      139.618        0.052        0.036       16.071        6.577        0.168      330.062       -2.806      867.353
01/16/2022  07:27:00       -0.220       -7.704       -7.591       12.560       15.540        7.571      157.763      241.503       57.317        0.029        0.023        7.707        4.761        0.382      330.005       -2.899      867.330
01/16/2022  07:28:00       -2.694       -7.729       -4.862        8.402        9.104        9.024       70.589       82.877       81.436        0.016        0.012        8.185        4.274        0.273      330.067       -2.798      867.329
01/16/2022  07:29:00      -18.006      -14.733      -12.215       15.172       15.018       12.158      230.196      225.538      147.823        0.065        0.030       23.265        7.301        0.098      330.105       -2.737      867.322
01/16/2022  07:30:00      -15.128      -21.420      -10.795       12.516       15.669       13.181      156.656      245.511      173.731        0.069        0.029       26.223        7.469        0.081      330.126       -2.703      867.310
01/16/2022  07:31:00       -7.913       -6.615       -9.835       10.734       18.875        9.059      115.218      356.267       82.060        0.038        0.028       10.314        3.755        0.133      330.193       -2.591      867.300
01/16/2022  07:32:00        2.253        2.920      -11.108        8.309       10.640       10.707       69.039      113.206      114.648        0.022        0.015        3.688        3.591        0.948      330.134       -2.689      867.286
01/16/2022  07:33:00      -20.327        7.110       -4.753       19.148       12.766       10.459      366.635      162.972      109.385        0.056        0.032       21.535        7.715        0.128      330.173       -2.624      867.290
01/16/2022  07:34:00      -11.108       -9.085       -5.214        7.311       15.518        7.524       53.451      240.794       56.608        0.029        0.018       14.350        5.226        0.133      330.208       -2.567      867.284
01/16/2022  07:35:00       -5.420       -2.611       -1.708        6.315        8.599        8.139       39.878       73.935       66.247        0.011        0.009        6.016        4.706        0.612      330.285       -2.440      867.287
01/16/2022  07:36:00        6.653        4.948       -7.051       13.411        9.788        5.840      179.867       95.798       34.109        0.021        0.015        8.291        7.515        0.821      330.245       -2.506      867.282
01/16/2022  07:37:00       46.800       25.966      -10.220       13.882        7.481        8.013      192.696       55.972       64.201        0.164        0.016       53.520        6.386        0.014      330.130       -2.695      867.289
01/16/2022  07:38:00       66.430       13.754      -12.254       17.924       15.602       13.627      321.272      243.421      185.702        0.275        0.038       67.839       10.287        0.023      330.082       -2.773      867.291
01/16/2022  07:39:00       84.354       26.145      -18.775       12.862       14.499       12.795      165.430      210.228      163.719        0.435        0.027       88.313       10.141        0.013      330.106       -2.733      867.287
01/16/2022  07:40:00       85.822       38.182      -13.807       11.131       20.314        9.231      123.904      412.672       85.220        0.482        0.031       93.933        8.861        0.009      330.089       -2.762      867.300
01/16/2022  07:41:00       85.768       59.372      -21.882       12.933       13.688       12.827      167.266      187.363      164.522        0.594        0.026      104.312        5.321        0.003      330.129       -2.696      867.311
01/16/2022  07:42:00       71.100       30.801      -26.162       29.391       27.698       18.606      863.832      767.201      346.165        0.433        0.099       77.485        8.247        0.011      330.258       -2.484      867.318
01/16/2022  07:43:00       81.136       16.510      -19.721        9.547       11.228        8.990       91.137      126.074       80.826        0.377        0.015       82.799        4.099        0.002      330.115       -2.719      867.341
01/16/2022  07:44:00       70.762        4.793      -12.487       19.670       18.136       14.640      386.891      328.921      214.341        0.306        0.047       70.924        5.178        0.005      330.197       -2.584      867.366
01/16/2022  07:45:00       66.897      -10.880       -7.655       31.923       23.612       18.772     1019.108      557.541      352.394        0.329        0.096       67.776       17.034        0.063      330.255       -2.490      867.388
01/16/2022  07:46:00       66.801      -24.167      -12.656       19.521       18.400       13.813      381.084      338.562      190.804        0.306        0.046       71.038        8.862        0.016      330.223       -2.541      867.386
01/16/2022  07:47:00       68.232      -18.322       -8.026       21.572       21.082       15.351      465.367      444.440      235.657        0.310        0.057       70.649       12.528        0.031      330.246       -2.504      867.396
01/16/2022  07:48:00       88.166      -18.898      -15.061       15.213       12.931       13.159      231.447      167.222      173.156        0.446        0.029       90.169        9.693        0.012      330.159       -2.647      867.413
01/16/2022  07:49:00       76.125       14.285      -18.781       23.228       36.736       16.337      539.553     1349.552      266.894        0.425        0.108       77.454       12.319        0.025      330.224       -2.540      867.419
01/16/2022  07:50:00       48.948       32.065      -18.724       35.447       35.858       24.744     1256.517     1285.829      612.270        0.346        0.158       58.516       16.247        0.077      330.291       -2.430      867.427
01/16/2022  07:51:00       15.562        0.022      -28.048       32.738       33.832       21.010     1071.762     1144.614      441.401        0.184        0.133       15.562       12.889        0.686      330.368       -2.303      867.439
01/16/2022  07:52:00      -27.457      -23.666      -16.809       26.952       23.967       24.143      726.413      574.410      582.888        0.174        0.094       36.248       10.043        0.077      330.476       -2.127      867.448
01/16/2022  07:53:00      -40.853      -29.721      -14.280       19.431       30.713       16.754      377.551      943.269      280.695        0.218        0.080       50.520       15.225        0.091      330.391       -2.266      867.453
01/16/2022  07:54:00       -0.976       -2.261        4.720       29.962       21.387       20.179      897.735      457.391      407.185        0.090        0.088        2.463        8.414       11.673      330.431       -2.201      867.448
01/16/2022  07:55:00      -10.709      -11.319       -5.278       11.479       11.957       15.633      131.765      142.981      244.394        0.039        0.026       15.582        6.220        0.159      330.547       -2.011      867.440
01/16/2022  07:56:00        3.892       -7.337       -5.789       10.713       17.695       12.702      114.778      313.126      161.349        0.035        0.029        8.306       10.435        1.578      330.596       -1.930      867.431
01/16/2022  07:57:00      -28.827      -19.162      -14.990       12.575       12.445        8.455      158.130      154.875       71.487        0.090        0.019       34.615        7.267        0.044      330.450       -2.170      867.434
01/16/2022  07:58:00      -21.687      -24.928      -12.970       14.995       16.364       12.665      224.862      267.792      160.401        0.096        0.033       33.041        3.987        0.015      330.574       -1.965      867.449
01/16/2022  07:59:00        0.801       -1.780      -17.103       19.112       15.221       15.914      365.270      231.670      253.264        0.057        0.043        1.952       13.667       49.037      330.636       -1.865      867.465
01/16/2022  08:00:00      -34.749       -6.350      -18.430       15.165       19.695       10.872      229.977      387.906      118.207        0.116        0.037       35.325        9.076        0.066      330.555       -1.998      867.485
01/16/2022  08:01:00        1.564       -7.568      -14.447       16.989       16.149       16.519      288.621      260.777      272.891        0.055        0.041        7.728        9.944        1.656      330.628       -1.878      867.502
01/16/2022  08:02:00       66.549       12.189      -10.609       29.547       24.636       17.592      873.039      606.914      309.489        0.324        0.089       67.656        6.404        0.009      330.367       -2.305      867.516
01/16/2022  08:03:00       72.441       17.200      -20.460       30.906       39.228       24.627      955.154     1538.835      606.486        0.453        0.155       74.455        9.359        0.016      330.427       -2.207      867.536
01/16/2022  08:04:00       44.826       17.422      -15.346       23.819       36.927       22.237      567.334     1363.569      494.470        0.249        0.121       48.093       16.495        0.118      330.433       -2.198      867.555
01/16/2022  08:05:00       55.076       48.021      -19.819       39.405       40.230       28.177     1552.772     1618.475      793.954        0.485        0.198       73.071       15.841        0.047      330.482       -2.117      867.572
01/16/2022  08:06:00       25.479       45.921       -5.262       35.247       53.794       28.950     1242.333     2893.843      838.116        0.388        0.249       52.516       23.787        0.205      330.408       -2.239      867.591
01/16/2022  08:07:00       15.020       22.776       -4.929       37.392       38.762       24.144     1398.197     1502.524      582.923        0.213        0.174       27.283       21.415        0.616      330.518       -2.058      867.589
01/16/2022  08:08:00       56.673       32.241      -14.900       32.860       40.290       23.745     1079.759     1623.316      563.839        0.387        0.163       65.202       15.615        0.057      330.422       -2.215      867.595
01/16/2022  08:09:00       59.758       53.394      -17.604       42.847       44.961       30.458     1835.844     2021.521      927.674        0.576        0.239       80.137       19.353        0.058      330.407       -2.240      867.602
01/16/2022  08:10:00       72.639       30.297      -23.326       35.105       44.908       23.148     1232.335     2016.722      535.850        0.526        0.189       78.704       11.365        0.021      330.390       -2.267      867.614
01/16/2022  08:11:00       76.536       16.233      -22.905       36.282       39.115       22.511     1316.374     1529.948      506.744        0.500        0.168       78.238       15.621        0.040      330.346       -2.340      867.626
01/16/2022  08:12:00      104.842       42.307      -21.198       25.311       37.959       19.398      640.631     1440.923      376.279        0.784        0.123      113.056       12.880        0.013      330.334       -2.359      867.624
01/16/2022  08:13:00       78.581       19.105      -19.504       31.848       30.309       21.402     1014.300      918.607      458.052        0.466        0.120       80.870        8.248        0.010      330.394       -2.262      867.627
01/16/2022  08:14:00       81.684       14.732      -19.959       27.328       19.393       17.757      746.809      376.078      315.297        0.436        0.072       83.002       10.666        0.017      330.389       -2.270      867.627
01/16/2022  08:15:00       81.358       30.633      -12.294       21.370       21.590       15.672      456.665      466.139      245.620        0.444        0.058       86.934        9.661        0.012      330.303       -2.413      867.634
01/16/2022  08:16:00       89.737       24.920      -14.396       18.404       13.628       11.749      338.719      185.727      138.036        0.477        0.033       93.133        6.259        0.005      330.321       -2.381      867.648
01/16/2022  08:17:00       74.812       12.979      -15.530       28.775       30.610       19.811      827.981      936.943      392.459        0.408        0.108       75.929       11.415        0.023      330.436       -2.192      867.661
01/16/2022  08:18:00       15.304        3.973       -5.172       34.708       35.846       29.306     1204.630     1284.960      858.829        0.181        0.167       15.811       17.351        1.204      330.637       -1.863      867.683
01/16/2022  08:19:00       40.698        9.833       -8.356       38.156       36.525       20.984     1455.915     1334.084      440.324        0.253        0.162       41.869       18.647        0.198      330.580       -1.955      867.701
01/16/2022  08:20:00       81.144       -1.483      -15.335       38.790       33.696       20.535     1504.630     1135.447      421.688        0.494        0.153       81.157       13.801        0.029      330.448       -2.174      867.719
01/16/2022  08:21:00       95.021       21.538      -27.294       18.386       21.805       13.334      338.057      475.471      177.801        0.561        0.050       97.432       10.502        0.012      330.288       -2.434      867.733
01/16/2022  08:22:00       69.060       75.208       -9.365       28.479       22.130       18.980      811.079      489.754      360.230        0.609        0.083      102.106       15.961        0.024      330.306       -2.405      867.744
01/16/2022  08:23:00       80.023       16.300      -12.387       26.168       32.313       16.221      684.750     1044.140      263.121        0.441        0.100       81.666        7.360        0.008      330.403       -2.248      867.743
01/16/2022  08:24:00       98.846       26.537      -17.640       11.867       13.357       10.126      140.819      178.412      102.540        0.560        0.021      102.346        6.630        0.004      330.315       -2.392      867.745
01/16/2022  08:25:00       83.579       11.653      -19.795       25.585       20.863       14.438      654.595      435.249      208.461        0.441        0.065       84.387       10.007        0.014      330.375       -2.291      867.739
01/16/2022  08:26:00       63.465       29.540      -16.418       18.680       24.085       15.972      348.958      580.090      255.112        0.318        0.059       70.003        9.268        0.018      330.468       -2.141      867.720
01/16/2022  08:27:00       30.469        2.911      -11.518       19.057       29.290       15.440      363.185      857.890      238.380        0.126        0.073       30.608        5.837        0.036      330.554       -2.000      867.703
01/16/2022  08:28:00       45.887       25.002      -13.427       18.820       20.048       11.403      354.204      401.916      130.035        0.190        0.044       52.256        3.820        0.005      330.482       -2.118      867.693
01/16/2022  08:29:00       29.343       20.123       -9.223       19.269       28.816       13.917      371.291      830.357      193.680        0.137        0.070       35.580        9.543        0.072      330.503       -2.082      867.692
01/16/2022  08:30:00        2.679       27.949       -3.034       22.721       17.694       14.237      516.236      313.094      202.690        0.091        0.052       28.078       12.991        0.214      330.553       -2.002      867.693
01/16/2022  08:31:00        1.392       15.773       -3.791       15.214       11.554       11.044      231.470      133.493      121.969        0.038        0.024       15.834        7.738        0.239      330.606       -1.912      867.708
01/16/2022  08:32:00       -1.855        6.047       -6.334       10.805        9.867        8.339      116.748       97.359       69.537        0.018        0.014        6.325        4.599        0.529      330.651       -1.840      867.717
01/16/2022  08:33:00       18.027       20.646       -0.320       15.355       20.573       14.630      235.767      423.235      214.042        0.081        0.044       27.409       11.141        0.165      330.665       -1.815      867.719
01/16/2022  08:34:00        9.902       22.672       -3.200       19.509       12.594       13.699      380.616      158.617      187.650        0.067        0.036       24.740        4.475        0.033      330.583       -1.950      867.706
01/16/2022  08:35:00        7.816       34.828      -14.581       10.161       16.751       11.633      103.253      280.609      135.333        0.100        0.026       35.694        9.726        0.074      330.587       -1.946      867.696
01/16/2022  08:36:00       12.808       46.294       -8.718       21.982       14.632        8.699      483.224      214.094       75.679        0.158        0.039       48.033        6.332        0.017      330.684       -1.785      867.698
01/16/2022  08:37:00        4.051       13.659        6.306       14.556       13.265       13.514      211.884      175.967      182.617        0.041        0.029       14.247       10.852        0.580      331.025       -1.226      867.704
01/16/2022  08:38:00       -3.709        9.826        2.376        9.369       12.018       11.540       87.787      144.443      133.170        0.024        0.018       10.502        5.743        0.299      330.976       -1.305      867.716
01/16/2022  08:39:00      -65.508      -12.124      -12.766       44.821       22.412       19.717     2008.918      502.310      388.759        0.375        0.145       66.621       17.437        0.069      330.833       -1.541      867.723
01/16/2022  08:40:00      -80.056       -7.410      -18.285       25.203       24.914       23.242      635.190      620.706      540.209        0.430        0.090       80.398       14.335        0.032      330.785       -1.620      867.725
01/16/2022  08:41:00      -30.341       31.220        3.794       34.013       27.894       21.031     1156.876      778.084      442.296        0.214        0.119       43.535       20.819        0.229      330.713       -1.737      867.731
01/16/2022  08:42:00      -73.349      -17.902      -10.425       29.580       27.012       22.107      874.988      729.667      488.738        0.395        0.105       75.502       12.640        0.028      330.703       -1.754      867.737
01/16/2022  08:43:00      -54.280        6.672       -4.811       26.578       19.108       18.504      706.375      365.116      342.398        0.221        0.071       54.688       14.236        0.068      330.704       -1.752      867.747
01/16/2022  08:44:00      -67.787      -12.331      -11.818       32.928       23.204       19.079     1084.282      538.428      363.997        0.344        0.099       68.900       16.350        0.056      330.758       -1.663      867.763
01/16/2022  08:45:00      -41.358       -9.299       -0.312       37.386       24.071       23.702     1397.690      579.397      561.778        0.217        0.127       42.391       21.575        0.259      330.822       -1.559      867.774
01/16/2022  08:46:00      -38.697       14.910       -5.542       42.192       20.150       20.054     1780.129      406.013      402.146        0.217        0.129       41.470       23.313        0.316      330.782       -1.624      867.780
01/16/2022  08:47:00      -44.996      -15.070      -18.471       20.438       28.517       17.545      417.712      813.198      307.835        0.207        0.077       47.453       13.555        0.082      330.802       -1.591      867.791
01/16/2022  08:48:00      -68.745       17.745       -4.957       32.746       25.121       21.327     1072.268      631.057      454.835        0.361        0.108       70.998       18.440        0.067      330.773       -1.637      867.800
01/16/2022  08:49:00      -61.275        5.304       -4.043       37.435       28.570       22.229     1401.344      816.218      494.138        0.325        0.136       61.505       20.033        0.106      330.764       -1.653      867.805
01/16/2022  08:50:00      -73.230       20.905       -3.145       30.350       25.187       18.152      921.102      634.365      329.508        0.385        0.094       76.156       13.979        0.034      330.720       -1.726      867.809
01/16/2022  08:51:00       -7.412      -30.703        4.497       38.761       40.161       22.183     1502.439     1612.907      492.083        0.231        0.180       31.585       20.736        0.431      330.961       -1.331      867.813
01/16/2022  08:52:00      -82.808        3.409        0.663       43.636       32.314       22.750     1904.089     1044.198      517.567        0.517        0.173       82.878       21.038        0.064      330.770       -1.644      867.817
01/16/2022  08:53:00      -71.440        1.631        0.121       23.496       25.093       16.048      552.077      629.639      257.540        0.327        0.072       71.459       10.667        0.022      330.645       -1.849      867.822
01/16/2022  08:54:00      -59.016        4.619      -15.178       31.085       32.014       20.582      966.291     1024.870      423.604        0.307        0.121       59.197       17.553        0.088      330.713       -1.737      867.825
01/16/2022  08:55:00      -70.753       16.050       -4.892       40.036       36.175       15.913     1602.920     1308.650      253.226        0.423        0.158       72.550       19.075        0.069      330.690       -1.775      867.821
01/16/2022  08:56:00      -66.082        3.183       -6.969       30.231       27.236       25.834      913.920      741.800      667.395        0.337        0.116       66.159       20.577        0.097      330.773       -1.639      867.804
01/16/2022  08:57:00      -46.074       -5.811      -11.386       33.073       29.365       14.876     1093.844      862.321      221.297        0.223        0.109       46.439        7.272        0.025      330.776       -1.635      867.787
01/16/2022  08:58:00      -41.986       -6.629      -13.169       21.613       20.903       17.996      467.140      436.947      323.853        0.160        0.061       42.506       15.371        0.131      330.834       -1.540      867.772
01/16/2022  08:59:00       11.529        4.385       -1.092       28.932       16.216       16.283      837.040      262.965      265.145        0.076        0.068       12.335       11.214        0.827      330.899       -1.433      867.760
01/16/2022  09:00:00      -65.519       21.167      -13.209       35.291       15.098       14.088     1245.434      227.937      198.468        0.329        0.084       68.853       16.838        0.060      330.695       -1.765      867.754
01/16/2022  09:01:00      -68.498       21.011      -17.461       19.487       15.889       13.783      379.755      252.475      189.967        0.313        0.041       71.648        6.405        0.008      330.766       -1.652      867.747
01/16/2022  09:02:00      -48.332       36.922       -7.891       20.342       17.288       11.266      413.800      298.864      126.923        0.230        0.042       60.821        8.722        0.021      330.777       -1.632      867.734
01/16/2022  09:03:00      -39.996       33.448       -9.618       20.201       13.304        8.273      408.086      176.992       68.440        0.173        0.033       52.139        5.800        0.012      330.780       -1.625      867.717
01/16/2022  09:04:00      -29.115        4.132      -12.803       18.772       21.419       16.374      352.383      458.777      268.108        0.105        0.054       29.407       11.572        0.155      330.928       -1.384      867.707
01/16/2022  09:05:00       -9.545        0.912       -6.185       30.619       29.291       13.013      937.514      857.991      169.327        0.105        0.098        9.588        5.461        0.324      331.004       -1.260      867.706
01/16/2022  09:06:00      -46.707       21.777      -13.351       17.262       13.299        9.557      297.985      176.862       91.340        0.170        0.028       51.534        6.953        0.018      330.911       -1.414      867.715
01/16/2022  09:07:00      -43.202        3.444       -7.063       30.309       14.223       11.098      918.666      202.293      123.176        0.159        0.062       43.339        9.203        0.045      331.059       -1.171      867.710
01/16/2022  09:08:00      -29.655       -2.139      -13.952       23.809       16.723        9.784      566.866      279.669       95.720        0.101        0.047       29.732        8.423        0.080      331.138       -1.041      867.697
01/16/2022  09:09:00      -81.598       45.893       -8.603       29.404       31.899       13.349      864.587     1017.570      178.195        0.545        0.103       93.619       12.840        0.019      330.962       -1.331      867.690
01/16/2022  09:10:00      -81.781       54.140      -14.526       28.650       19.371       17.999      820.821      375.239      323.962        0.567        0.076       98.078       11.792        0.014      331.005       -1.260      867.690
01/16/2022  09:11:00      -70.747       46.579      -10.822       25.613       17.367       16.383      656.031      301.616      268.390        0.426        0.061       84.703        9.873        0.014      331.058       -1.172      867.698
01/16/2022  09:12:00      -73.293       38.040      -11.625       34.866       18.736       18.908     1215.610      351.037      357.513        0.444        0.096       82.577       18.586        0.051      331.071       -1.150      867.705
01/16/2022  09:13:00      -80.693       35.767       -9.297       28.997       29.991       23.535      840.841      899.464      553.919        0.509        0.115       88.265       11.707        0.018      331.116       -1.075      867.706
01/16/2022  09:14:00      -43.672       15.883      -12.318       32.748       18.992       21.366     1072.402      360.703      456.522        0.210        0.094       46.470       14.075        0.092      331.259       -0.841      867.704
01/16/2022  09:15:00      -57.752       26.955      -15.507       31.577       15.286       15.297      997.115      233.664      234.007        0.288        0.073       63.733       10.716        0.028      331.099       -1.104      867.702
01/16/2022  09:16:00      -24.463       12.714       -9.049       16.561        6.281        9.056      274.279       39.453       82.019        0.062        0.020       27.569        4.860        0.031      331.135       -1.045      867.689
01/16/2022  09:17:00       -9.905        6.942      -11.419        8.739       10.497        6.673       76.372      110.192       44.525        0.025        0.012       12.095        6.445        0.284      331.302       -0.770      867.672
01/16/2022  09:18:00       -7.365       15.401      -13.711       10.467       11.129       12.999      109.559      123.846      168.966        0.044        0.020       17.071        5.250        0.095      331.423       -0.571      867.670
01/16/2022  09:19:00      -19.060       27.269      -12.309       11.641       11.367        9.004      135.516      129.219       81.076        0.080        0.017       33.270        5.248        0.025      331.281       -0.805      867.665
01/16/2022  09:20:00      -28.695       -6.835        0.275       13.757       19.530       14.548      189.249      381.404      211.632        0.083        0.039       29.498       10.271        0.121      331.477       -0.484      867.660
01/16/2022  09:21:00        6.941       25.468      -17.163       20.900       21.091       23.390      436.809      444.843      547.073        0.121        0.071       26.397       11.267        0.182      331.637       -0.219      867.664
01/16/2022  09:22:00       11.184       34.772       -8.737       28.448       23.870       16.765      809.298      569.778      281.057        0.154        0.083       36.527       12.288        0.113      331.720       -0.083      867.646
01/16/2022  09:23:00        3.929       13.309       -6.767       16.806       15.004       17.430      282.442      225.130      303.802        0.052        0.041       13.877        9.647        0.483      331.858        0.146      867.640
01/16/2022  09:24:00       -6.453       27.264        2.202       33.297       17.164       16.165     1108.658      294.606      261.293        0.123        0.083       28.017        8.061        0.083      331.882        0.184      867.635
01/16/2022  09:25:00      -18.586       22.494        5.122       15.416       17.069       13.808      237.643      291.353      190.651        0.080        0.036       29.179        6.613        0.051      331.936        0.273      867.633
01/16/2022  09:26:00      -15.468        0.737      -16.105       23.727       40.287       16.153      562.964     1623.074      260.907        0.147        0.122       15.485       16.372        1.118      331.707       -0.104      867.623
01/16/2022  09:27:00      -25.062       14.008        1.718       24.252       20.871       12.182      588.136      435.612      148.400        0.100        0.059       28.711        6.762        0.055      331.917        0.242      867.621
01/16/2022  09:28:00      -49.010       47.849       -3.947       21.049       22.696       14.528      443.062      515.110      211.050        0.294        0.058       68.494       10.921        0.025      331.723       -0.078      867.616
01/16/2022  09:29:00      -39.575       21.713      -13.323       26.904       18.337       16.057      723.834      336.247      257.821        0.177        0.066       45.140       10.333        0.052      331.711       -0.097      867.614
01/16/2022  09:30:00       -6.172       28.167        3.280       29.104       22.115       14.616      847.060      489.084      213.628        0.120        0.077       28.836        7.908        0.075      332.118        0.574      867.613
01/16/2022  09:31:00      -15.795       21.689       -2.034       22.870       16.940       17.363      523.058      286.977      301.472        0.092        0.056       26.831        8.232        0.094      332.072        0.497      867.618
01/16/2022  09:32:00      -33.814      -18.129       -7.330       22.601       20.172       15.658      510.808      406.908      245.162        0.134        0.058       38.367        8.233        0.046      331.848        0.129      867.622
01/16/2022  09:33:00        3.269      -31.855       -7.911       30.213       24.631       21.121      912.824      606.662      446.079        0.153        0.098       32.023        9.615        0.090      332.154        0.632      867.625
01/16/2022  09:34:00       68.196       18.919      -24.093       23.802       46.322       17.547      566.552     2145.687      307.886        0.430        0.151       70.772        8.674        0.015      331.826        0.092      867.617
01/16/2022  09:35:00       38.002       20.914      -11.434       39.233       32.797       20.505     1539.248     1075.653      420.438        0.252        0.152       43.377       16.651        0.147      331.947        0.293      867.609
01/16/2022  09:36:00      -37.566      -13.580      -13.723       10.927       18.434       10.329      119.408      339.820      106.694        0.117        0.028       39.945        6.918        0.030      331.905        0.222      867.602
01/16/2022  09:37:00       24.622      -15.932      -15.714       39.607       26.197       23.892     1568.688      686.281      570.819        0.197        0.141       29.327        7.361        0.063      332.212        0.727      867.591
01/16/2022  09:38:00       52.941       53.513        1.942       44.288       47.017       26.518     1961.400     2210.606      703.210        0.527        0.244       75.276       16.699        0.049      332.086        0.521      867.596
01/16/2022  09:39:00       38.456       15.903      -18.213       25.076       21.397       23.838      628.782      457.819      568.245        0.186        0.083       41.614        7.178        0.030      331.911        0.230      867.599
01/16/2022  09:40:00       50.940       47.431      -26.264       13.760       13.330       18.994      189.327      177.681      360.779        0.313        0.036       69.603        6.321        0.008      331.797        0.045      867.600
01/16/2022  09:41:00       19.637       64.694      -13.117       31.104       22.277       19.973      967.446      496.266      398.919        0.330        0.093       67.609       16.402        0.059      332.055        0.468      867.591
01/16/2022  09:42:00      -18.867       31.871       -3.591       34.100       36.639       19.294     1162.838     1342.384      372.250        0.213        0.144       37.037        8.126        0.048      332.332        0.926      867.585
01/16/2022  09:43:00       86.239       83.766       -3.596       35.585       29.793       19.523     1266.305      887.641      381.147        0.850        0.127      120.224        8.606        0.005      332.076        0.504      867.585
01/16/2022  09:44:00       21.407      -22.152      -15.869       56.396       68.210       35.725     3180.552     4652.597     1276.252        0.515        0.455       30.805       21.910        0.506      332.368        0.986      867.585
01/16/2022  09:45:00       75.096      -73.718      -37.754       32.411       59.967       26.395     1050.502     3596.053      696.721        0.892        0.267      105.231       17.602        0.028      332.247        0.785      867.593
01/16/2022  09:46:00       42.715     -114.350      -22.072       39.561       41.991       29.692     1565.108     1763.237      881.602        0.980        0.210      122.067       19.443        0.025      332.350        0.955      867.604
01/16/2022  09:47:00       23.991      -44.229      -22.927       49.620       51.743       36.849     2462.105     2677.365     1357.835        0.478        0.325       50.317       31.838        0.400      332.507        1.215      867.606
01/16/2022  09:48:00      -27.780       43.216        7.167       51.423       53.453       32.904     2644.302     2857.246     1082.695        0.464        0.329       51.375       26.543        0.267      332.384        1.012      867.605
01/16/2022  09:49:00       10.249       -8.683      -19.852       35.369       49.342       30.873     1250.977     2434.661      953.154        0.261        0.232       13.433       20.139        2.248      332.636        1.428      867.597
01/16/2022  09:50:00        4.976        4.341       -4.666       57.478       52.811       25.869     3303.755     2788.999      669.216        0.341        0.338        6.604       15.381        5.425      332.546        1.278      867.598
01/16/2022  09:51:00      107.618       60.308      -21.131       52.701       71.699       39.330     2777.378     5140.714     1546.875        1.256        0.473      123.363       19.475        0.025      332.213        0.728      867.595
01/16/2022  09:52:00       99.988       35.611      -25.300       58.010       75.343       36.112     3365.152     5676.599     1304.091        1.112        0.517      106.141       29.213        0.076      332.314        0.896      867.583
01/16/2022  09:53:00      126.104       51.923      -21.541       51.958       40.053       24.267     2699.653     1604.274      588.896        1.198        0.245      136.375       12.403        0.008      332.150        0.626      867.588
01/16/2022  09:54:00       48.198      -54.672      -28.363       40.945       73.211       31.320     1676.457     5359.810      980.958        0.707        0.401       72.884       21.597        0.088      332.575        1.327      867.585
01/16/2022  09:55:00       54.845      -67.546      -30.004       45.043       59.172       40.466     2028.875     3501.376     1637.525        0.782        0.358       87.008       19.611        0.051      332.701        1.534      867.588
01/16/2022  09:56:00       41.143      -30.357      -14.396       44.654       53.511       32.906     1993.984     2863.386     1082.832        0.438        0.297       51.131       20.959        0.168      332.620        1.402      867.592
01/16/2022  09:57:00       83.279       36.787      -18.269       40.898       62.790       30.447     1672.645     3942.591      927.031        0.758        0.327       91.043       18.983        0.043      332.364        0.980      867.589
01/16/2022  09:58:00       58.936      -29.500      -10.860       53.954       93.857       39.027     2911.004     8809.067     1523.073        0.885        0.662       65.907       31.059        0.222      332.599        1.367      867.575
01/16/2022  09:59:00       70.872     -129.263      -26.570       44.222       46.572       29.282     1955.592     2168.978      857.430        1.371        0.249      147.417       21.926        0.022      332.368        0.986      867.566
01/16/2022  10:00:00       62.939      -92.189      -30.276       54.081       62.645       46.888     2924.762     3924.401     2198.521        1.121        0.452      111.625       30.729        0.076      332.705        1.541      867.568
01/16/2022  10:01:00       86.232       50.907      -31.490       44.811       52.349       25.991     2008.017     2740.428      675.531        0.822        0.271      100.137       14.858        0.022      332.421        1.072      867.586
01/16/2022  10:02:00       17.951       -5.808      -15.670       42.998       69.636       33.115     1848.828     4849.122     1096.602        0.420        0.390       18.867       25.996        1.899      332.621        1.403      867.590
01/16/2022  10:03:00       74.552      -45.331      -28.954       76.446       62.243       41.405     5844.030     3874.195     1714.405        0.994        0.572       87.252       37.657        0.186      332.579        1.334      867.592
01/16/2022  10:04:00       65.524       14.221      -36.902       41.704       62.079       36.015     1739.230     3853.810     1297.109        0.637        0.345       67.050       24.265        0.131      332.680        1.502      867.593
01/16/2022  10:05:00       83.119      -46.539      -37.284       47.235       46.475       35.441     2231.164     2159.927     1256.039        0.805        0.282       95.261       15.835        0.028      332.856        1.791      867.605
01/16/2022  10:06:00       57.099       15.054      -26.744       48.589       62.931       37.315     2360.905     3960.260     1392.408        0.596        0.386       59.050       25.289        0.183      332.907        1.876      867.621
01/16/2022  10:07:00       79.840      -69.513      -38.435       52.215       78.455       38.977     2726.440     6155.134     1519.180        1.154        0.520      105.860       33.827        0.102      332.864        1.805      867.651
01/16/2022  10:08:00       71.927        1.046      -31.785       56.941       63.558       34.152     3242.334     4039.563     1166.377        0.732        0.422       71.935       13.581        0.036      332.866        1.807      867.674
01/16/2022  10:09:00       63.273      -44.669      -38.778       59.270       70.058       31.505     3512.944     4908.130      992.567        0.846        0.471       77.452       22.120        0.082      332.861        1.799      867.682
01/16/2022  10:10:00       59.025      -88.945      -35.480       46.345       44.313       33.503     2147.875     1963.677     1122.437        0.894        0.262      106.748       19.361        0.033      332.719        1.566      867.706
01/16/2022  10:11:00       42.428      -10.290      -12.658       59.455       58.133       41.291     3534.847     3379.420     1704.909        0.534        0.431       43.658       24.150        0.306      333.099        2.194      867.721
01/16/2022  10:12:00       34.027      -35.039      -19.569       77.010       70.951       48.770     5930.563     5034.057     2378.556        0.805        0.667       48.842       24.794        0.258      332.774        1.657      867.736
01/16/2022  10:13:00       67.520     -123.336      -33.938       45.807       52.437       30.865     2098.265     2749.606      952.651        1.336        0.290      140.608       19.803        0.020      332.631        1.420      867.748
01/16/2022  10:14:00        8.095        4.842      -19.353       59.030       42.346       28.312     3484.540     1793.187      801.567        0.327        0.304        9.433       26.306        7.777      332.830        1.749      867.750
01/16/2022  10:15:00      -23.941       -4.003       -0.568       38.396       34.655       23.200     1474.253     1200.961      538.221        0.190        0.161       24.274       18.228        0.564      332.911        1.882      867.742
01/16/2022  10:16:00       35.025      -74.155      -18.705       45.065       59.719       46.443     2030.887     3566.334     2156.957        0.741        0.388       82.010       29.755        0.132      332.955        1.954      867.742
01/16/2022  10:17:00       92.424      -57.494      -43.721       45.149       65.855       30.549     2038.459     4336.847      933.243        1.053        0.365      108.848       14.583        0.018      332.834        1.754      867.737
01/16/2022  10:18:00       62.305      -90.421      -24.752       41.125       44.361       35.155     1691.225     1967.913     1235.869        0.878        0.245      109.808       30.342        0.076      332.762        1.636      867.740
01/16/2022  10:19:00       85.704     -123.974      -35.905       37.127       37.089       22.594     1378.423     1375.564      510.493        1.363        0.163      150.714       14.759        0.010      332.620        1.401      867.729
01/16/2022  10:20:00       49.526      -85.152      -25.604       35.891       50.881       31.434     1288.161     2588.909      988.084        0.761        0.243       98.507       26.512        0.072      333.376        2.651      867.714
01/16/2022  10:21:00        5.625      -53.964      -12.501       42.846       55.784       33.923     1835.820     3111.892     1150.803        0.460        0.305       54.256       16.493        0.092      333.200        2.360      867.699
01/16/2022  10:22:00       -8.801       -4.309       -8.259       53.968       51.552       31.570     2912.552     2657.657      996.639        0.336        0.328        9.799       16.088        2.695      333.181        2.328      867.691
01/16/2022  10:23:00       74.445      -14.177      -16.489       61.904       59.187       38.621     3832.092     3503.048     1491.574        0.742        0.441       75.783       32.100        0.179      333.169        2.309      867.679
01/16/2022  10:24:00       25.303      -76.685      -34.727       43.903       51.757       31.427     1927.514     2678.830      987.658        0.666        0.280       80.751       22.783        0.080      333.121        2.229      867.684
01/16/2022  10:25:00       64.026      -82.381      -36.167       46.210       66.666       30.128     2135.326     4444.341      907.703        0.984        0.374      104.336       18.934        0.033      332.896        1.857      867.672
01/16/2022  10:26:00       47.429       22.766      -12.163       38.901       59.149       39.151     1513.316     3498.556     1532.808        0.473        0.327       52.609       20.485        0.152      332.865        1.807      867.659
01/16/2022  10:27:00       92.042       13.210      -16.134       53.073       62.458       28.700     2816.795     3900.975      823.675        0.822        0.377       92.985       22.718        0.060      332.948        1.944      867.643
01/16/2022  10:28:00       71.045       26.315      -10.889       40.871       59.815       24.936     1670.437     3577.840      621.829        0.586        0.294       75.762       21.751        0.082      332.761        1.634      867.632
01/16/2022  10:29:00       41.524       73.937      -24.331       28.431       24.204       22.341      808.325      585.848      499.127        0.484        0.095       84.799       17.347        0.042      332.646        1.444      867.622
01/16/2022  10:30:00       43.189       40.402      -14.739       38.184       34.393       21.464     1457.983     1182.860      460.716        0.341        0.155       59.140       17.613        0.089      333.046        2.106      867.612
01/16/2022  10:31:00       38.671      -66.558      -19.832       44.442       53.503       38.133     1975.117     2862.532     1454.131        0.630        0.315       76.977       28.660        0.139      333.192        2.348      867.613
01/16/2022  10:32:00       61.803      -91.029      -42.844       71.756       57.810       25.580     5148.975     3342.051      654.343        1.154        0.457      110.027       29.072        0.070      333.087        2.174      867.596
01/16/2022  10:33:00      -17.705      -27.014      -15.461       38.130       47.963       23.614     1453.923     2300.493      557.621        0.280        0.216       32.298       18.189        0.317      333.232        2.414      867.579
01/16/2022  10:34:00       39.222      -61.517      -26.290       48.001       40.459       24.966     2304.138     1636.912      623.279        0.529        0.228       72.957       18.243        0.063      333.313        2.546      867.548
01/16/2022  10:35:00       23.595      -89.963      -11.796       33.525       53.096       33.141     1123.955     2819.162     1098.317        0.691        0.252       93.006       29.627        0.101      333.208        2.374      867.525
01/16/2022  10:36:00       45.276      -18.089      -18.741       24.278       56.331       24.706      589.423     3173.173      610.393        0.355        0.219       48.756       18.786        0.148      333.334        2.581      867.510
01/16/2022  10:37:00       17.347       24.873       -4.294       24.029       22.450       23.465      577.413      503.996      550.612        0.128        0.082       30.324        7.501        0.061      333.620        3.056      867.477
01/16/2022  10:38:00       26.869      -21.608      -12.984       45.758       25.259       21.762     2093.793      637.999      473.606        0.228        0.160       34.480       15.184        0.194      333.446        2.767      867.444
01/16/2022  10:39:00      -26.848      -20.545       -8.900       36.612       29.484       28.979     1340.413      869.284      839.787        0.214        0.152       33.807       16.792        0.247      333.516        2.883      867.426
01/16/2022  10:40:00       -0.267      -10.601       -5.238       37.727       49.021       30.759     1423.348     2403.075      946.133        0.246        0.239       10.605       25.354        5.716      333.702        3.191      867.411
01/16/2022  10:41:00       59.918      -86.020      -39.934       58.359       62.233       37.373     3405.731     3872.993     1396.741        1.063        0.434      104.831       23.510        0.050      333.464        2.797      867.409
01/16/2022  10:42:00       68.443      -67.301      -36.075       44.402       45.702       21.218     1971.508     2088.683      450.209        0.751        0.226       95.989       14.490        0.023      333.047        2.108      867.393
01/16/2022  10:43:00       77.551      -44.953      -42.900       47.011       56.807       35.872     2210.074     3227.012     1286.804        0.830        0.336       89.637       30.289        0.114      333.277        2.488      867.366
01/16/2022  10:44:00       15.412      -29.849      -14.900       38.856       61.960       34.769     1509.792     3839.051     1208.897        0.395        0.328       33.593       30.529        0.826      333.430        2.741      867.331
01/16/2022  10:45:00       67.099       -3.420      -21.935       50.213       54.233       29.896     2521.386     2941.261      893.765        0.567        0.318       67.186       17.852        0.071      333.599        3.019      867.301
01/16/2022  10:46:00       70.581       10.891      -31.636       41.936       47.903       28.645     1758.636     2294.720      820.545        0.549        0.244       71.416       12.127        0.029      333.479        2.821      867.298
01/16/2022  10:47:00       89.516       45.969      -12.674       29.942       46.290       28.190      896.552     2142.760      794.651        0.706        0.192      100.629       21.923        0.047      333.163        2.300      867.301
01/16/2022  10:48:00       37.753       67.653       -7.801       38.819       27.514       23.338     1506.924      757.000      544.678        0.444        0.140       77.474       14.171        0.033      333.398        2.688      867.296
01/16/2022  10:49:00       55.277       37.454      -12.249       35.468       24.761       20.794     1257.945      613.094      432.399        0.346        0.115       66.771       14.797        0.049      333.330        2.575      867.293
01/16/2022  10:50:00       15.829       45.850       -9.303       34.965       31.724       21.225     1222.518     1006.420      450.516        0.256        0.134       48.506       10.323        0.045      333.502        2.859      867.275
01/16/2022  10:51:00       98.208       41.559      -28.891       31.743       39.766       21.523     1007.648     1581.298      463.254        0.763        0.153      106.640       10.208        0.009      333.439        2.754      867.279
01/16/2022  10:52:00       68.853        6.441      -12.193       29.483       24.215       23.436      869.268      586.372      549.230        0.347        0.100       69.153        8.631        0.016      333.150        2.277      867.278
01/16/2022  10:53:00       39.740       14.471      -17.911       38.824       45.560       26.977     1507.271     2075.755      727.785        0.321        0.216       42.293       24.059        0.324      333.712        3.208      867.265
01/16/2022  10:54:00       33.203       -1.665      -21.560       63.968       45.087       37.992     4091.963     2032.794     1443.359        0.457        0.378       33.245       24.357        0.537      333.753        3.274      867.235
01/16/2022  10:55:00       82.233      -14.659      -21.680       66.250       52.828       42.381     4389.091     2790.801     1796.180        0.821        0.449       83.529       36.084        0.187      333.622        3.060      867.226
01/16/2022  10:56:00       38.873      -10.683      -13.728       45.153       69.784       41.018     2038.814     4869.781     1682.481        0.520        0.430       40.314       28.878        0.513      333.973        3.639      867.210
01/16/2022  10:57:00       77.060       26.277      -27.443       63.932       91.268       33.456     4087.306     8329.858     1119.288        1.046        0.677       81.417       39.827        0.239      333.658        3.118      867.187
01/16/2022  10:58:00      120.258       72.300      -33.013       54.695       44.919       25.757     2991.522     2017.744      663.432        1.322        0.284      140.319       22.351        0.025      333.630        3.072      867.169
01/16/2022  10:59:00      159.789       92.750      -30.705       55.390       52.000       32.855     3068.063     2703.984     1079.423        2.096        0.343      184.756       20.011        0.012      333.683        3.158      867.157
01/16/2022  11:00:00       74.401       44.713      -27.671       38.288       51.116       26.848     1465.964     2612.856      720.799        0.655        0.240       86.803       24.956        0.083      333.627        3.067      867.157
01/16/2022  11:01:00       37.645       33.705       -8.213       34.375       20.328       16.641     1181.633      413.238      276.909        0.225        0.094       50.529        9.570        0.036      333.623        3.061      867.149
01/16/2022  11:02:00       -4.406      -29.709      -20.008       53.240       60.236       29.894     2834.474     3628.337      893.625        0.433        0.368       30.034       19.512        0.422      333.881        3.488      867.131
01/16/2022  11:03:00       37.715     -109.310      -31.579       81.242       61.158       34.497     6600.199     3740.362     1190.073        1.295        0.577      115.634       25.723        0.049      333.551        2.939      867.114
01/16/2022  11:04:00       96.569     -112.686      -49.441       44.913       47.679       26.757     2017.146     2273.242      715.946        1.474        0.250      148.404       10.665        0.005      333.540        2.925      867.085
01/16/2022  11:05:00       86.908       -6.266      -21.413       64.837       63.467       38.704     4203.794     4028.021     1497.964        0.889        0.486       87.134       29.694        0.116      333.899        3.516      867.061
01/16/2022  11:06:00       40.805        7.657      -10.515       47.953       54.803       29.571     2299.472     3003.362      874.420        0.400        0.309       41.517       17.573        0.179      333.819        3.385      867.047
01/16/2022  11:07:00       27.560      -53.202      -13.929       51.056       40.790       30.153     2606.695     1663.841      909.180        0.448        0.259       59.917       16.279        0.074      333.724        3.227      867.031
01/16/2022  11:08:00       22.219      -96.506       -8.924       49.462       66.328       34.503     2446.515     4399.365     1190.481        0.896        0.402       99.030       34.997        0.125      333.636        3.082      867.012
01/16/2022  11:09:00        2.871       23.620        2.257       39.211       42.225       30.300     1537.508     1782.921      918.067        0.240        0.212       23.794       15.496        0.424      333.938        3.582      867.000
01/16/2022  11:10:00       31.098      -87.062      -13.715       51.151       94.692       42.165     2616.425     8966.519     1777.893        1.105        0.668       92.450       56.085        0.368      333.592        3.008      866.984
01/16/2022  11:11:00       90.230     -147.972      -40.923       30.033       22.048       16.886      901.954      486.130      285.132        1.669        0.084      173.312        6.687        0.001      333.155        2.287      866.967
01/16/2022  11:12:00       65.291     -107.371      -33.309       28.524       47.708       21.326      813.605     2276.025      454.806        1.022        0.177      125.664       17.173        0.019      333.504        2.865      866.946
01/16/2022  11:13:00       14.287     -126.811      -33.903       40.548       43.920       31.511     1644.147     1929.008      992.925        1.100        0.228      127.613       22.747        0.032      333.694        3.177      866.926
01/16/2022  11:14:00       41.257     -125.875      -25.209       34.993       37.819       28.493     1224.532     1430.304      811.855        1.082        0.173      132.464       22.248        0.028      333.422        2.727      866.951
01/16/2022  11:15:00        6.812      -36.343      -17.298       34.425       56.040       23.484     1185.097     3140.495      551.494        0.327        0.244       36.976       21.337        0.333      333.482        2.827      866.976
01/16/2022  11:16:00       -8.363      -31.584      -19.734       36.015       42.046       26.109     1297.085     1767.857      681.683        0.260        0.187       32.672       17.688        0.293      333.501        2.858      866.959
01/16/2022  11:17:00       -8.518      -53.781      -31.204       50.023       38.238       23.700     2502.336     1462.152      561.683        0.423        0.226       54.451       18.856        0.120      333.839        3.417      866.951
01/16/2022  11:18:00       76.298      -86.570      -30.269       32.803       29.887       27.336     1076.035      893.246      747.242        0.847        0.136      115.394       21.861        0.036      333.589        3.003      866.940
01/16/2022  11:19:00       50.467      -74.011      -29.519       27.869       39.578       26.071      776.692     1566.441      679.714        0.596        0.151       89.580       13.159        0.022      333.867        3.464      866.916
01/16/2022  11:20:00       69.645      -77.641      -31.696       52.170       63.499       32.718     2721.726     4032.083     1070.481        0.985        0.391      104.300       34.050        0.107      333.992        3.672      866.892
01/16/2022  11:21:00       74.917        7.496      -13.927       58.704       77.503       43.209     3446.139     6006.755     1867.044        0.859        0.566       75.291       29.001        0.148      334.250        4.098      866.873
01/16/2022  11:22:00       91.045       29.750      -13.215       42.216       55.229       34.495     1782.214     3050.224     1189.932        0.768        0.301       95.782       29.327        0.094      333.780        3.318      866.875
01/16/2022  11:23:00       22.826      -40.496      -20.955       25.879       55.335       27.529      669.706     3061.946      757.853        0.354        0.224       46.487       21.527        0.214      333.907        3.531      866.855
01/16/2022  11:24:00       70.941      -26.903      -22.959       70.235       73.998       53.902     4932.988     5475.706     2905.387        0.980        0.666       75.871       45.996        0.368      334.333        4.235      866.833
01/16/2022  11:25:00       87.224      -50.987      -40.791       51.567       52.229       33.197     2659.177     2727.881     1102.057        0.918        0.324      101.033       24.207        0.057      334.150        3.932      866.815
01/16/2022  11:26:00       54.845       -5.133      -29.943       57.658       51.503       31.420     3324.458     2652.609      987.201        0.545        0.348       55.085       17.765        0.104      334.214        4.037      866.778
01/16/2022  11:27:00       84.402        9.112      -23.533       59.608       53.516       36.453     3553.124     2863.923     1328.844        0.775        0.387       84.892       20.555        0.059      334.109        3.864      866.747
01/16/2022  11:28:00      134.136       -8.134      -18.885       68.222       58.579       39.381     4654.221     3431.555     1550.868        1.402        0.482      134.383       33.041        0.060      334.137        3.910      866.726
01/16/2022  11:29:00       60.947      -23.803      -22.145       62.344       68.551       39.016     3886.736     4699.274     1522.252        0.744        0.505       65.430       17.354        0.070      334.170        3.966      866.718
01/16/2022  11:30:00       41.878      -11.509      -17.237       57.633       71.361       45.855     3321.603     5092.325     2102.644        0.635        0.526       43.430       28.385        0.427      334.492        4.499      866.709
01/16/2022  11:31:00       58.667      -32.485      -30.802       70.156       64.001       53.229     4921.920     4096.190     2833.363        0.865        0.593       67.060       47.046        0.492      334.430        4.397      866.711
01/16/2022  11:32:00      122.968      -45.841      -22.738       61.954       59.973       41.674     3838.343     3596.754     1736.750        1.345        0.459      131.235       29.897        0.052      334.184        3.988      866.707
01/16/2022  11:33:00      122.545       18.531      -19.351       36.682       61.612       26.952     1345.602     3796.020      726.433        1.080        0.293      123.938        9.667        0.006      333.870        3.468      866.702
01/16/2022  11:34:00      118.114       94.188       -9.103       46.137       51.269       29.858     2128.583     2628.559      891.508        1.428        0.282      151.070       25.951        0.030      334.057        3.778      866.695
01/16/2022  11:35:00       63.632       36.814      -11.630       47.197       48.132       32.388     2227.576     2316.736     1048.962        0.557        0.280       73.514       19.993        0.074      334.192        4.003      866.686
01/16/2022  11:36:00       99.770       16.984      -32.639       35.123       51.388       27.613     1233.606     2640.703      762.502        0.797        0.232      101.206       24.443        0.058      333.835        3.412      866.660
01/16/2022  11:37:00       57.158      -15.561      -21.331       47.666       38.509       29.150     2272.079     1482.932      849.721        0.428        0.230       59.238       18.089        0.093      334.117        3.878      866.631
01/16/2022  11:38:00       57.347       -9.566      -24.509       41.827       58.234       23.972     1749.492     3391.220      574.654        0.485        0.286       58.139       22.907        0.155      334.395        4.339      866.610
01/16/2022  11:39:00       72.552       10.298      -16.664       61.338       46.847       39.550     3762.308     2194.628     1564.178        0.658        0.376       73.280       30.905        0.178      334.580        4.648      866.600
01/16/2022  11:40:00      142.184      -33.700      -37.173       68.175       61.028       34.407     4647.883     3724.371     1183.812        1.614        0.478      146.123       26.419        0.033      333.973        3.638      866.589
01/16/2022  11:41:00      141.714      -54.235      -22.528       69.582       61.754       47.857     4841.623     3813.552     2290.326        1.724        0.547      151.738       40.499        0.071      334.129        3.897      866.595
01/16/2022  11:42:00       74.122      -87.341      -37.637       69.828       85.251       32.183     4876.000     7267.652     1035.768        1.386        0.659      114.554       38.104        0.111      334.417        4.375      866.582
01/16/2022  11:43:00       96.823     -143.272      -36.023       56.589      105.359       40.072     3202.341    11100.479     1605.759        2.355        0.795      172.921       46.725        0.073      334.105        3.854      866.575
01/16/2022  11:44:00       75.795     -170.005      -55.624       43.457       54.020       34.021     1888.476     2918.146     1157.408        2.185        0.298      186.136       17.799        0.009      334.065        3.791      866.547
01/16/2022  11:45:00       89.062     -123.251      -46.504       40.842       46.622       24.516     1668.081     2173.581      601.043        1.486        0.222      152.062       10.454        0.005      334.138        3.913      866.525
01/16/2022  11:46:00       61.669     -129.230      -31.727       47.299       53.526       43.284     2237.160     2865.047     1873.532        1.424        0.349      143.191       32.453        0.051      334.471        4.465      866.491
01/16/2022  11:47:00       10.863      -41.239      -21.483       55.804       46.235       37.833     3114.078     2137.677     1431.355        0.448        0.334       42.645       21.555        0.255      334.533        4.567      866.460
01/16/2022  11:48:00       78.311      -96.432      -37.562       32.000       82.138       35.394     1024.023     6746.662     1252.704        1.293        0.451      124.224       35.464        0.082      334.081        3.817      866.446
01/16/2022  11:49:00      -13.850      -76.166      -48.019       51.845       55.996       38.151     2687.891     3135.578     1455.488        0.779        0.364       77.415       31.476        0.165      334.608        4.692      866.423
01/16/2022  11:50:00      -17.094      -33.775      -32.932       39.209       61.339       33.737     1537.313     3762.467     1138.210        0.448        0.322       37.854       28.673        0.574      334.472        4.467      866.405
01/16/2022  11:51:00      -73.601      -50.834      -27.397       48.294       36.450       31.428     2332.303     1328.599      987.715        0.670        0.232       89.449       18.058        0.041      334.484        4.486      866.386
01/16/2022  11:52:00      -51.062      -26.811      -14.015       48.244       29.103       29.155     2327.451      847.000      849.994        0.377        0.201       57.673       26.976        0.219      334.406        4.356      866.378
01/16/2022  11:53:00        8.442      -14.965      -12.092       31.984       36.385       34.219     1022.975     1323.900     1170.965        0.198        0.176       17.182       15.584        0.823      334.581        4.646      866.362
01/16/2022  11:54:00      -30.262      -35.273      -20.210       52.086       42.793       35.038     2712.990     1831.277     1227.660        0.417        0.289       46.475       25.216        0.294      334.480        4.480      866.333
01/16/2022  11:55:00      -56.752      -21.852      -24.767       41.870       38.521       41.970     1753.100     1483.835     1761.494        0.465        0.250       60.814       34.845        0.328      334.382        4.317      866.306
01/16/2022  11:56:00      -17.284      -21.405      -15.619       30.334       29.552       30.718      920.133      873.328      943.623        0.187        0.137       27.512       17.881        0.422      334.710        4.863      866.276
01/16/2022  11:57:00      -26.629       -8.214      -23.851       31.382       37.598       21.215      984.839     1413.611      450.078        0.210        0.142       27.867       12.563        0.203      334.587        4.658      866.262
01/16/2022  11:58:00       40.716       10.503       -4.454       53.494       51.784       37.972     2861.652     2681.546     1441.856        0.439        0.349       42.049       32.755        0.607      334.992        5.332      866.231
01/16/2022  11:59:00      100.665       -8.172      -30.595       45.530       59.465       39.967     2072.959     3536.142     1597.329        0.917        0.360      100.996       28.612        0.080      334.663        4.783      866.224
01/16/2022  12:00:00       83.385       36.716      -28.391       39.587       40.348       19.979     1567.126     1627.985      399.173        0.635        0.180       91.110       18.715        0.042      334.092        3.837      866.215
01/16/2022  12:01:00       23.566       48.042      -10.068       38.029       30.546       26.115     1446.182      933.067      681.998        0.301        0.153       53.511       21.742        0.165      334.483        4.485      866.182
01/16/2022  12:02:00       18.260      -32.858      -16.672       61.949       74.981       31.983     3837.645     5622.221     1022.903        0.608        0.524       37.591       42.466        1.276      334.772        4.965      866.151
01/16/2022  12:03:00       67.834     -112.573      -34.972       30.992       20.021       21.262      960.525      400.850      452.063        1.015        0.091      131.431       15.468        0.014      334.124        3.888      866.132
01/16/2022  12:04:00       79.786     -105.842      -44.722       62.226       93.169       37.272     3872.131     8680.477     1389.194        1.675        0.697      132.545       34.802        0.069      334.790        4.993      866.124
01/16/2022  12:05:00      114.870      -70.824      -40.434       46.536       48.485       45.106     2165.556     2350.776     2034.531        1.320        0.328      134.948       22.207        0.027      334.793        5.000      866.126
01/16/2022  12:06:00       66.041       54.014      -17.778       44.005       66.648       28.517     1936.429     4441.954      813.196        0.739        0.360       85.317       32.782        0.148      334.379        4.313      866.114
01/16/2022  12:07:00       91.287       67.003      -16.491       32.635       17.802       17.854     1065.016      316.924      318.781        0.740        0.085      113.237       12.943        0.013      334.214        4.040      866.089
01/16/2022  12:08:00       85.579       58.389      -21.006       25.400       20.692       15.095      645.145      428.152      227.868        0.624        0.065      103.600       12.098        0.014      334.170        3.967      866.071
01/16/2022  12:09:00       59.548       52.392      -17.992       20.851       14.116       14.802      434.762      199.249      219.093        0.373        0.043       79.315        7.987        0.010      334.285        4.155      866.053
01/16/2022  12:10:00       53.236       39.728      -18.722       25.049       22.998       20.798      627.474      528.928      432.551        0.318        0.079       66.425       15.081        0.052      334.300        4.182      866.043
01/16/2022  12:11:00       79.543       57.514       -8.376       50.362       31.946       27.300     2536.347     1020.569      745.273        0.700        0.215       98.157       22.053        0.050      334.620        4.712      866.027
01/16/2022  12:12:00       93.029       65.185      -26.537       48.807       54.806       35.092     2382.085     3003.692     1231.481        1.011        0.331      113.593       19.166        0.028      334.545        4.588      866.026
01/16/2022  12:13:00       54.862       55.734       -9.245       43.739       27.317       20.249     1913.083      746.217      410.006        0.463        0.153       78.205       17.048        0.048      334.727        4.890      866.017
01/16/2022  12:14:00       50.137       45.652       -7.829       49.079       34.491       28.814     2408.745     1189.659      830.267        0.454        0.221       67.807       17.546        0.067      334.748        4.925      865.995
01/16/2022  12:15:00       16.856       -4.075       -2.672       38.147       38.346       31.223     1455.225     1470.431      974.906        0.210        0.195       17.342       25.946        2.239      335.167        5.621      865.976
01/16/2022  12:16:00       97.620       -8.237      -28.756       84.618       51.589       35.710     7160.213     2661.444     1275.234        1.076        0.555       97.967       29.012        0.088      335.017        5.372      865.967
01/16/2022  12:17:00        1.185      -14.139      -15.894       61.480       55.060       46.979     3779.770     3031.596     2207.013        0.473        0.451       14.189       31.738        5.003      335.141        5.579      865.956
01/16/2022  12:18:00       78.821      -86.974      -41.827       58.192       80.562       33.614     3386.285     6490.163     1129.930        1.326        0.550      117.377       25.727        0.048      334.864        5.118      865.952
01/16/2022  12:19:00      132.408       27.298      -38.017       34.461       42.139       20.968     1187.556     1775.718      439.671        1.156        0.170      135.193        8.288        0.004      334.475        4.471      865.950
01/16/2022  12:20:00       87.681       55.236      -14.870       36.340       32.548       22.870     1320.561     1059.367      523.028        0.693        0.145      103.629       13.258        0.016      334.596        4.672      865.942
01/16/2022  12:21:00       55.593       59.800       -6.256       50.536       33.353       18.734     2553.898     1112.431      350.967        0.536        0.201       81.649       23.199        0.081      334.752        4.931      865.931
01/16/2022  12:22:00       93.895       46.939      -15.970       60.255       58.697       39.647     3630.690     3445.313     1571.849        0.996        0.432      104.974       28.380        0.073      334.996        5.337      865.920
01/16/2022  12:23:00       90.265        4.064      -16.268       78.291       68.641       53.134     6129.449     4711.593     2823.220        1.104        0.683       90.356       34.140        0.143      335.356        5.936      865.902
01/16/2022  12:24:00      188.855        1.546      -32.325       83.813       68.925       43.731     7024.535     4750.633     1912.439        2.520        0.684      188.861       39.128        0.043      334.715        4.867      865.898
01/16/2022  12:25:00      117.940     -104.652      -35.620       61.944       70.826       40.480     3837.109     5016.376     1638.593        1.831        0.525      157.676       27.768        0.031      334.927        5.222      865.891
01/16/2022  12:26:00      104.611       17.618      -19.441       35.523       28.216       15.444     1261.910      796.158      238.506        0.696        0.115      106.084        6.290        0.004      334.461        4.447      865.895
01/16/2022  12:27:00      139.300       40.407      -26.476       35.545       39.046       15.619     1263.471     1524.564      243.955        1.238        0.152      145.042       14.845        0.010      334.406        4.355      865.886
01/16/2022  12:28:00       23.877       12.176       -5.027       30.636       18.096       19.116      938.546      327.479      365.419        0.119        0.082       26.802       21.681        0.654      334.837        5.073      865.866
01/16/2022  12:29:00       85.566     -116.337      -38.316       60.048       81.612       42.431     3605.722     6660.556     1800.352        1.719        0.603      144.416       48.526        0.113      334.890        5.159      865.846
01/16/2022  12:30:00       67.328      -82.874      -38.107       43.778       70.014       27.745     1916.554     4901.928      769.788        1.022        0.379      106.776       18.860        0.031      334.883        5.151      865.832
01/16/2022  12:31:00       30.779     -133.308      -29.705       49.221       47.424       38.112     2422.684     2249.053     1452.561        1.286        0.306      136.815       30.537        0.050      334.924        5.217      865.816
01/16/2022  12:32:00        7.790      -97.215      -33.059       27.153       26.197       22.129      737.304      686.293      489.683        0.626        0.096       97.526       14.422        0.022      334.581        4.648      865.811
01/16/2022  12:33:00        9.509      -88.461      -13.638       31.664       29.256       26.996     1002.605      855.914      728.766        0.534        0.129       88.971       19.162        0.046      335.069        5.459      865.780
01/16/2022  12:34:00      -15.813      -60.899      -20.202       43.387       49.920       25.072     1882.470     2491.999      628.587        0.468        0.250       62.918       25.824        0.168      335.255        5.768      865.785
01/16/2022  12:35:00      -12.810       -0.010       -0.738       34.852       29.920       24.464     1214.657      895.191      598.492        0.144        0.135       12.810        9.464        0.546      335.427        6.054      865.762
01/16/2022  12:36:00      -19.085      -14.079      -24.566       27.490       27.046       25.443      755.691      731.470      647.330        0.165        0.107       23.716       14.743        0.386      335.391        5.994      865.750
01/16/2022  12:37:00       -1.341      -12.851      -14.884       42.360       50.033       22.380     1794.384     2503.300      500.852        0.259        0.240       12.921       21.455        2.757      335.522        6.212      865.726
01/16/2022  12:38:00       27.853       27.024      -16.240       57.053       41.042       29.629     3255.040     1684.469      877.856        0.379        0.291       38.809       21.727        0.313      335.485        6.149      865.699
01/16/2022  12:39:00       -9.477      -19.154       -3.120       35.857       55.902       30.569     1285.712     3125.045      934.453        0.290        0.267       21.370       21.887        1.049      335.288        5.824      865.681
01/16/2022  12:40:00       69.636      -33.256      -35.773       57.192      107.896       30.456     3270.942    11641.643      927.592        1.153        0.792       77.169        5.614        0.005      335.066        5.453      865.650
01/16/2022  12:41:00      110.551       55.240      -11.826       63.472       38.480       26.278     4028.713     1480.698      690.514        1.081        0.310      123.584       24.531        0.039      334.825        5.053      865.624
01/16/2022  12:42:00       60.653       39.986        1.802       54.791       40.436       31.027     3002.035     1635.073      962.655        0.544        0.280       72.647       22.220        0.094      335.195        5.669      865.587
01/16/2022  12:43:00        4.265        5.969       -5.465       34.357       48.395       29.145     1180.432     2342.068      849.454        0.223        0.219        7.337       24.862       11.483      335.411        6.028      865.558
01/16/2022  12:44:00       61.762      -75.072      -21.636       65.882       92.106       47.808     4340.408     8483.535     2285.581        1.251        0.755       97.213       47.874        0.243      335.453        6.096      865.538
01/16/2022  12:45:00       73.446     -118.306      -30.561       48.253       51.762       36.086     2328.388     2679.262     1302.166        1.332        0.315      139.250       15.374        0.012      335.036        5.404      865.516
01/16/2022  12:46:00       49.979      -59.851      -34.135       53.374       68.110       38.429     2848.737     4639.032     1476.776        0.810        0.448       77.975       29.153        0.140      335.507        6.186      865.504
01/16/2022  12:47:00       48.917      -42.123      -27.406       75.163       56.214       37.442     5649.417     3159.995     1401.870        0.756        0.511       64.554       12.232        0.036      335.561        6.277      865.502
01/16/2022  12:48:00       44.606      -45.427      -22.640       73.153       64.089       44.987     5351.400     4107.340     2023.812        0.802        0.574       63.666       49.106        0.595      335.384        5.982      865.491
01/16/2022  12:49:00       73.318       55.423      -11.456       68.643       42.949       34.601     4711.803     1844.622     1197.256        0.816        0.388       91.909       15.472        0.028      335.113        5.532      865.485
01/16/2022  12:50:00       55.626     -158.558      -42.928       43.156       74.684       33.337     1862.482     5577.661     1111.340        1.931        0.428      168.033       35.092        0.044      334.913        5.198      865.480
01/16/2022  12:51:00       77.297      -64.314      -34.952       49.389       91.371       44.358     2439.293     8348.699     1967.609        1.204        0.638      100.554       13.602        0.018      334.990        5.328      865.472
01/16/2022  12:52:00       13.797        9.866      -23.148       33.454       72.784       32.691     1119.156     5297.445     1068.728        0.415        0.374       16.962       13.599        0.643      335.095        5.501      865.472
01/16/2022  12:53:00       -3.271      -93.099      -53.991       65.770       43.287       34.096     4325.733     1873.779     1162.552        0.948        0.368       93.156       18.639        0.040      335.450        6.091      865.444
01/16/2022  12:54:00      -89.582      -18.228      -12.481       54.593       62.644       33.037     2980.436     3924.322     1091.469        0.825        0.400       91.418       34.473        0.142      335.431        6.062      865.415
01/16/2022  12:55:00      -72.248       19.665       -1.620       44.509       41.125       39.238     1981.066     1691.248     1539.638        0.541        0.261       74.877       34.233        0.209      335.387        5.988      865.379
01/16/2022  12:56:00      -33.595       44.757       -8.381       48.368       51.506       29.452     2339.423     2652.919      867.393        0.453        0.293       55.962       32.013        0.327      335.229        5.724      865.356
01/16/2022  12:57:00      -21.922      -75.362      -25.429       48.485       45.229       30.072     2350.797     2045.629      904.354        0.605        0.265       78.485       14.951        0.036      335.255        5.768      865.337
01/16/2022  12:58:00       82.240      -66.571      -29.556       91.461       81.958       56.972     8365.136     6717.102     3245.857        1.519        0.916      105.807       41.286        0.152      335.391        5.992      865.319
01/16/2022  12:59:00      125.133     -108.677      -41.903       89.856       72.170       43.447     8074.132     5208.528     1887.624        2.219        0.759      165.738       33.254        0.040      335.328        5.888      865.309
01/16/2022  13:00:00       48.415     -129.465      -41.235       64.272       54.017       38.116     4130.877     2917.890     1452.861        1.465        0.425      138.222       21.973        0.025      335.168        5.623      865.294
01/16/2022  13:01:00       30.947     -112.399      -21.209       50.386       94.299       32.930     2538.714     8892.221     1084.417        1.328        0.626      116.582       23.317        0.040      335.363        5.946      865.278
01/16/2022  13:02:00      120.344     -192.428      -36.125       81.077       98.866       38.518     6573.455     9774.528     1483.599        3.532        0.892      226.961       37.962        0.028      334.828        5.055      865.255
01/16/2022  13:03:00      139.317     -215.836      -55.440       24.523       41.558       16.340      601.376     1727.106      267.001        3.583        0.130      256.894        9.818        0.001      334.700        4.840      865.250
01/16/2022  13:04:00       51.069      -93.722      -39.547       57.745       58.046       29.074     3334.452     3369.285      845.285        1.025        0.377      106.733       23.996        0.051      335.160        5.609      865.262
01/16/2022  13:05:00       83.818     -180.589      -35.816       52.115       38.901       32.793     2715.945     1513.312     1075.367        2.311        0.265      199.093       27.162        0.019      335.146        5.585      865.256
01/16/2022  13:06:00       44.591     -110.073      -18.174       45.296       73.374       36.710     2051.682     5383.672     1347.621        1.161        0.439      118.762       42.057        0.125      335.169        5.625      865.256
01/16/2022  13:07:00        4.537     -104.013      -48.971       40.771       53.943       31.457     1662.302     2909.864      989.535        0.940        0.278      104.111       18.511        0.032      335.471        6.127      865.253
01/16/2022  13:08:00      -18.426      -55.948      -36.915       43.776       51.192       40.564     1916.373     2620.627     1645.452        0.551        0.309       58.905       36.584        0.386      335.644        6.414      865.249
01/16/2022  13:09:00       -7.945      -52.992      -34.653       41.128       30.528       20.134     1691.474      931.981      405.379        0.355        0.151       53.584       13.885        0.067      335.513        6.197      865.233
01/16/2022  13:10:00      -31.287      -35.980      -15.256       48.943       33.876       29.624     2395.465     1147.562      877.589        0.346        0.221       47.681       22.252        0.218      335.691        6.493      865.230
01/16/2022  13:11:00        8.073       33.352      -14.970       51.346       51.066       29.418     2636.451     2607.687      865.425        0.375        0.305       34.315       13.897        0.164      335.704        6.515      865.217
01/16/2022  13:12:00        3.344       -9.806      -13.137       21.502       37.063       22.669      462.327     1373.660      513.881        0.131        0.117       10.361        7.077        0.467      335.917        6.871      865.209
01/16/2022  13:13:00       17.790       39.640       -1.125       30.070       48.873       29.583      904.225     2388.588      875.153        0.303        0.208       43.449       14.014        0.104      335.555        6.266      865.218
01/16/2022  13:14:00       79.785       59.754       -5.538       69.045       42.749       27.933     4767.229     1827.462      780.276        0.867        0.369       99.681       22.098        0.049      335.235        5.732      865.214
01/16/2022  13:15:00       28.444      -16.181      -12.958       45.924       55.746       34.880     2109.025     3107.651     1216.619        0.383        0.322       32.725       19.654        0.361      335.658        6.437      865.195
01/16/2022  13:16:00      120.237       14.217      -23.279       59.333       56.435       33.983     3520.351     3184.959     1154.872        1.153        0.393      121.075       33.664        0.077      335.280        5.809      865.184
01/16/2022  13:17:00      123.050       54.436      -18.821       23.679       22.046       16.424      560.673      486.011      269.743        0.989        0.066      134.553        5.088        0.001      334.997        5.341      865.174
01/16/2022  13:18:00       44.911       56.681       -7.469       40.543       36.077       25.616     1643.705     1301.530      656.185        0.444        0.180       72.317       21.117        0.085      335.224        5.716      865.154
01/16/2022  13:19:00       42.270       45.174      -10.055       35.038       32.585       30.677     1227.695     1061.809      941.061        0.358        0.162       61.867       14.637        0.056      335.311        5.861      865.143
01/16/2022  13:20:00       21.145      -17.467      -23.555       51.801       40.070       39.921     2683.302     1605.616     1593.704        0.359        0.294       27.427       21.908        0.638      335.768        6.622      865.128
01/16/2022  13:21:00       30.084      -12.024        1.495       59.017       87.689       46.297     3482.951     7689.410     2143.396        0.718        0.666       32.398       44.674        1.901      335.735        6.568      865.121
01/16/2022  13:22:00       34.508       -5.709      -14.199       42.766       53.591       36.157     1828.928     2871.999     1307.304        0.372        0.300       34.977       16.474        0.222      335.741        6.577      865.117
01/16/2022  13:23:00       88.385       19.300      -13.656       64.458       62.661       41.050     4154.807     3926.350     1685.118        0.907        0.488       90.467       34.949        0.149      335.569        6.290      865.104
01/16/2022  13:24:00       97.165       54.343      -12.183       46.826       50.581       30.085     2192.697     2558.435      905.122        0.910        0.283      111.329       19.585        0.031      335.386        5.984      865.104
01/16/2022  13:25:00      104.645       12.272      -18.586       39.223       52.123       30.535     1538.458     2716.826      932.405        0.832        0.259      105.362       17.977        0.029      335.344        5.917      865.093
01/16/2022  13:26:00       21.588       33.405      -10.652       31.030       24.375       23.326      962.858      594.140      544.095        0.190        0.105       39.774       16.838        0.179      335.395        5.999      865.095
01/16/2022  13:27:00      109.138       35.685      -24.325       50.301       30.507       25.320     2530.206      930.694      641.080        0.894        0.205      114.823       13.060        0.013      335.247        5.754      865.080
01/16/2022  13:28:00       51.813       13.848      -10.843       38.912       23.579       26.549     1514.125      555.950      704.854        0.288        0.139       53.631       22.113        0.170      335.265        5.786      865.078
01/16/2022  13:29:00       29.604       72.945      -13.043       32.454       28.233       20.920     1053.233      797.079      437.666        0.433        0.114       78.723       12.182        0.024      335.256        5.767      865.069
01/16/2022  13:30:00       31.034       42.613       -0.915       33.003       31.896       17.601     1089.227     1017.344      309.786        0.260        0.121       52.716       17.515        0.110      335.588        6.322      865.054
01/16/2022  13:31:00       34.748       22.654      -10.617       16.522       18.674       14.371      272.964      348.737      206.539        0.133        0.041       41.480        6.892        0.028      335.442        6.079      865.044
01/16/2022  13:32:00        5.867        3.669       -6.528       14.778       16.346       15.703      218.391      267.192      246.584        0.041        0.037        6.920       12.019        3.017      335.814        6.700      865.045
01/16/2022  13:33:00       17.431        0.193        0.206       24.516       36.928       27.524      601.022     1363.691      757.564        0.151        0.136       17.432       11.274        0.418      335.813        6.695      865.055
01/16/2022  13:34:00       89.940     -107.227      -22.457       49.962       58.836       35.200     2496.235     3461.692     1239.034        1.364        0.360      139.953       31.478        0.051      335.524        6.215      865.050
01/16/2022  13:35:00       74.326      -11.875      -23.999       50.687       62.396       47.739     2569.140     3893.316     2278.972        0.749        0.437       75.269       34.218        0.207      335.724        6.549      865.031
01/16/2022  13:36:00       -0.324      -20.379      -12.761       48.583       58.905       37.045     2360.265     3469.785     1372.366        0.389        0.360       20.381       27.650        1.840      335.820        6.709      865.020
01/16/2022  13:37:00       -2.968      -16.426      -16.163       41.280       28.345       27.581     1704.019      803.428      760.703        0.190        0.163       16.692       11.284        0.457      335.973        6.963      864.994
01/16/2022  13:38:00      -37.491        9.725      -23.912       34.105       46.020       28.528     1163.147     2117.846      813.856        0.308        0.205       38.732       23.279        0.361      336.000        7.010      864.979
01/16/2022  13:39:00       15.004      -59.353       -9.278       43.148       42.338       27.721     1861.779     1792.475      768.438        0.413        0.221       61.220       26.577        0.188      335.907        6.853      864.989
01/16/2022  13:40:00       22.873      -71.495      -35.482       54.250       45.619       35.969     2943.103     2081.089     1293.796        0.660        0.316       75.065       15.637        0.043      335.987        6.987      864.993
01/16/2022  13:41:00       48.608     -104.355      -51.378       47.038       69.332       29.070     2212.538     4806.918      845.067        1.188        0.393      115.120       24.399        0.045      335.679        6.473      864.992
01/16/2022  13:42:00       64.408     -156.403      -46.851       50.196       53.559       39.166     2519.624     2868.594     1534.010        1.886        0.346      169.146       28.197        0.028      335.510        6.189      864.980
01/16/2022  13:43:00       65.302     -148.736      -30.883       34.377       60.479       25.662     1181.812     3657.766      658.556        1.642        0.275      162.440       15.451        0.009      335.590        6.324      864.966
01/16/2022  13:44:00       97.600     -194.294      -47.077       40.603       47.056       27.957     1648.624     2214.245      781.616        2.707        0.232      217.430       23.133        0.011      335.463        6.110      864.931
01/16/2022  13:45:00      100.449     -145.266      -45.880       35.903       41.275       16.927     1289.049     1703.609      286.522        1.829        0.164      176.613       20.056        0.013      335.182        5.647      864.929
01/16/2022  13:46:00       52.230      -81.483      -26.888       18.194       17.970       16.588      331.010      322.915      275.160        0.551        0.046       96.785       12.348        0.016      335.236        5.735      864.921
01/16/2022  13:47:00       22.413      -44.341      -22.012       22.576       40.107       25.521      509.698     1608.559      651.345        0.286        0.138       49.684       28.200        0.322      335.439        6.073      864.915
01/16/2022  13:48:00       -7.173       45.822      -17.866       16.809       30.461       24.118      282.530      927.857      581.692        0.213        0.090       46.380       18.165        0.153      335.494        6.165      864.911
01/16/2022  13:49:00        9.591       59.174      -15.306       16.828       22.954       21.386      283.182      526.885      457.361        0.255        0.063       59.946       16.200        0.073      335.424        6.049      864.898
01/16/2022  13:50:00      -15.680       37.515       -7.240       39.151       55.113       23.283     1532.820     3037.485      542.110        0.341        0.256       40.660       18.291        0.202      335.962        6.946      864.881
01/16/2022  13:51:00       42.436       20.808      -20.644       27.410       42.891       17.274      751.322     1839.647      298.376        0.277        0.144       47.264        9.884        0.044      335.588        6.321      864.880
01/16/2022  13:52:00        1.699       57.028        3.629       43.235       37.167       25.908     1869.260     1381.351      671.238        0.359        0.196       57.053       16.113        0.080      335.917        6.870      864.875
01/16/2022  13:53:00      -15.692       -4.990       -6.608       42.286       30.871       23.904     1788.090      953.018      571.378        0.181        0.166       16.467        8.071        0.240      336.245        7.416      864.859
01/16/2022  13:54:00       33.450        6.104      -12.274       47.521       59.195       25.782     2258.250     3504.030      664.701        0.387        0.321       34.003       10.187        0.090      335.914        6.864      864.863
01/16/2022  13:55:00       71.237       49.430      -22.157       39.341       22.128       20.379     1547.719      489.633      415.304        0.523        0.123       86.706       15.232        0.031      335.463        6.114      864.853
01/16/2022  13:56:00       20.033       41.895       -5.067       35.601       22.776       14.950     1267.426      518.737      223.517        0.210        0.100       46.438        8.801        0.036      335.664        6.449      864.839
01/16/2022  13:57:00       13.229      -68.137      -21.793       51.282       46.873       28.106     2629.833     2197.072      789.960        0.545        0.281       69.409       28.178        0.165      335.899        6.840      864.819
01/16/2022  13:58:00       42.362     -114.354      -26.008       50.154       53.361       29.735     2515.467     2847.426      884.172        1.090        0.312      121.948       27.987        0.053      335.699        6.507      864.808
01/16/2022  13:59:00      -33.644      -53.127      -41.173       60.183       61.148       25.293     3621.993     3739.091      639.724        0.682        0.400       62.884        9.157        0.021      335.943        6.913      864.808
01/16/2022  14:00:00      -26.665      -15.928      -14.945       24.529       40.838       24.326      601.670     1667.743      591.735        0.202        0.143       31.060       12.317        0.157      336.042        7.079      864.806
01/16/2022  14:01:00       16.510      -71.900      -15.830       48.513       67.829       43.110     2353.468     4600.725     1858.510        0.725        0.441       73.771       41.464        0.316      336.201        7.345      864.812
01/16/2022  14:02:00       13.996      -52.343      -10.245       53.860       68.887       30.480     2900.909     4745.454      929.027        0.581        0.429       54.182       24.639        0.207      336.080        7.142      864.813
01/16/2022  14:03:00       83.088      -25.693      -29.784       56.871       67.076       35.693     3234.326     4499.133     1274.024        0.873        0.450       86.970       21.015        0.058      335.851        6.760      864.810
01/16/2022  14:04:00      114.395       33.401      -19.486       53.641       61.101       33.494     2877.310     3733.333     1121.868        1.116        0.387      119.171       20.538        0.030      335.897        6.838      864.806
01/16/2022  14:05:00       58.331       28.835       -6.712       79.038       46.737       23.146     6246.958     2184.316      535.727        0.662        0.448       65.069       32.026        0.242      335.946        6.918      864.806
01/16/2022  14:06:00       67.458       15.668       -4.668       43.578       54.828       28.143     1899.002     3006.082      792.028        0.526        0.285       69.253       20.547        0.088      335.917        6.869      864.801
01/16/2022  14:07:00       71.858       41.699      -22.783       60.233       55.154       42.070     3628.008     3041.989     1769.922        0.793        0.422       83.080       29.445        0.126      335.980        6.975      864.797
01/16/2022  14:08:00       38.684      -54.427      -26.555       58.694      104.734       42.426     3445.014    10969.218     1799.926        1.069        0.811       66.774       35.433        0.282      335.967        6.954      864.795
01/16/2022  14:09:00       54.372      -45.014      -30.925       56.175       68.113       47.524     3155.670     4639.442     2258.491        0.799        0.503       70.587       28.901        0.168      335.920        6.875      864.784
01/16/2022  14:10:00       89.305      -24.518      -46.185       63.924       79.256       36.960     4086.250     6281.517     1366.060        1.122        0.587       92.609       27.291        0.087      335.839        6.740      864.786
01/16/2022  14:11:00       72.949       58.644      -17.815       45.048       50.507       31.699     2029.303     2550.987     1004.841        0.733        0.279       93.598       11.069        0.014      335.759        6.606      864.795
01/16/2022  14:12:00       20.604       17.586        1.385       38.780       28.630       15.334     1503.887      819.686      235.131        0.165        0.128       27.089        9.988        0.136      335.945        6.916      864.791
01/16/2022  14:13:00        6.556      -55.661      -19.651       29.934       42.373       22.790      896.049     1795.495      519.395        0.337        0.161       56.046        8.420        0.023      336.021        7.044      864.790
01/16/2022  14:14:00      145.208       38.989      -17.578       65.771       42.464       25.986     4325.797     1803.193      675.248        1.486        0.340      150.352       18.614        0.015      335.817        6.704      864.775
01/16/2022  14:15:00      133.453       84.718      -13.423       41.593       29.221       28.003     1729.949      853.857      784.192        1.427        0.168      158.072       24.673        0.024      335.635        6.400      864.771
01/16/2022  14:16:00       90.015       25.428      -19.235       49.748       47.635       30.551     2474.818     2269.073      933.379        0.740        0.284       93.537       20.061        0.046      335.941        6.910      864.768
01/16/2022  14:17:00       18.924       -0.389      -15.590       31.853       24.891       25.502     1014.602      619.557      650.364        0.144        0.114       18.928       15.538        0.674      336.130        7.226      864.776
01/16/2022  14:18:00       39.976        8.403      -12.416       30.254       26.109       22.706      915.329      681.676      515.577        0.197        0.106       40.850       18.216        0.199      336.000        7.007      864.782
01/16/2022  14:19:00      106.764       75.020      -11.527       50.317       26.977       26.571     2531.844      727.769      706.027        1.056        0.198      130.486       18.217        0.019      335.937        6.904      864.791
01/16/2022  14:20:00       73.837      102.107       -6.138       55.638       49.769       32.524     3095.561     2476.979     1057.841        1.127        0.332      126.007       17.173        0.019      335.938        6.905      864.791
01/16/2022  14:21:00      136.517       83.502      -21.712       61.246       41.532       27.501     3751.017     1724.882      756.323        1.616        0.312      160.029       22.656        0.020      335.814        6.697      864.784
01/16/2022  14:22:00       77.959       57.951       -8.793       54.827       47.114       32.386     3005.954     2219.720     1048.863        0.789        0.314       97.139       24.850        0.065      335.944        6.916      864.765
01/16/2022  14:23:00      154.668       47.258      -18.519       88.257       47.515       36.025     7789.251     2257.702     1297.789        1.892        0.567      161.726       27.726        0.029      335.974        6.963      864.720
01/16/2022  14:24:00      178.341       48.001      -15.333       82.370       80.326       30.829     6784.838     6452.330      950.400        2.426        0.709      184.688       32.767        0.031      335.873        6.793      864.660
01/16/2022  14:25:00      146.313       31.145      -30.468       77.852       74.414       47.153     6060.996     5537.426     2223.383        1.856        0.691      149.591       32.002        0.046      336.141        7.242      864.582
01/16/2022  14:26:00       52.335       38.908      -14.419       51.835       67.408       32.265     2686.876     4543.902     1041.037        0.636        0.414       65.214       20.109        0.095      336.146        7.250      864.488
01/16/2022  14:27:00       74.388       10.190      -18.473       46.315       63.573       34.854     2145.110     4041.587     1214.815        0.669        0.370       75.083       24.833        0.109      336.125        7.217      864.385
01/16/2022  14:28:00       93.271       10.799      -42.891       50.348       86.095       35.703     2534.876     7412.356     1274.731        1.094        0.561       93.894       23.413        0.062      336.031        7.060      864.274
01/16/2022  14:29:00       94.621       64.106      -34.624       48.124       34.260       25.162     2315.956     1173.739      633.138        0.919        0.206      114.293       20.886        0.033      335.920        6.875      864.163
01/16/2022  14:30:00      135.845       35.790      -17.220       49.938       46.411       25.936     2493.842     2153.987      672.677        1.267        0.266      140.481       12.095        0.007      336.051        7.093      864.050
01/16/2022  14:31:00      122.067       54.292      -28.518       59.712       50.131       39.719     3565.531     2513.121     1577.603        1.316        0.383      133.596       14.738        0.012      336.031        7.058      863.970
01/16/2022  14:32:00       84.754       49.907       -5.181       69.359       38.267       24.901     4810.709     1464.359      620.059        0.830        0.345       98.357       29.815        0.092      336.040        7.075      863.926
01/16/2022  14:33:00       67.129       62.851       -5.721       36.102       19.076       20.568     1303.345      363.905      423.057        0.529        0.105       91.959       14.989        0.027      335.915        6.866      863.912
01/16/2022  14:34:00      -17.640       11.701      -17.062       30.301       22.216       14.512      918.131      493.564      210.607        0.118        0.081       21.167       13.999        0.437      336.137        7.237      863.924
01/16/2022  14:35:00       26.192      -19.487      -24.506       24.511       36.571       18.929      600.777     1337.403      358.289        0.198        0.115       32.646       11.817        0.131      335.964        6.949      863.951
01/16/2022  14:36:00      -37.876       15.040      -22.139       23.712       22.759       15.193      562.253      517.954      230.838        0.173        0.066       40.753       14.070        0.119      335.785        6.649      863.983
01/16/2022  14:37:00       16.287       22.999       -2.623       41.844       40.366       23.589     1750.936     1629.443      556.457        0.237        0.197       28.181       15.669        0.309      336.151        7.259      864.012
01/16/2022  14:38:00       36.490       49.570       -9.956       21.752       14.327       19.297      473.129      205.273      372.382        0.247        0.053       61.552       13.870        0.051      335.920        6.875      864.055
01/16/2022  14:39:00       17.662       36.943       -2.879       24.028       15.271       16.550      577.360      233.206      273.890        0.138        0.054       40.948       13.808        0.114      335.999        7.006      864.085
01/16/2022  14:40:00       72.897       50.738       -6.796       35.755       27.540       24.521     1278.421      758.438      601.296        0.529        0.132       88.816       12.230        0.019      336.039        7.074      864.111
01/16/2022  14:41:00       43.765       95.032      -11.719       43.047       48.482       22.058     1853.055     2350.494      486.571        0.789        0.235      104.625       15.446        0.022      336.018        7.038      864.136
01/16/2022  14:42:00      104.461       76.146       -4.876       62.166       43.405       32.116     3864.619     1883.955     1031.461        1.176        0.339      129.268       27.943        0.047      335.895        6.834      864.162
01/16/2022  14:43:00       63.795       30.665       -3.578       51.162       45.097       25.488     2617.574     2033.695      649.636        0.516        0.265       70.783       22.007        0.097      336.144        7.247      864.193
01/16/2022  14:44:00      120.060       30.262      -40.059       60.977       70.117       31.284     3718.222     4916.331      978.714        1.327        0.481      123.815       20.152        0.026      336.164        7.281      864.233
01/16/2022  14:45:00       73.034      -32.605      -39.468       51.607       88.311       50.623     2663.268     7798.806     2562.704        1.049        0.651       79.981       22.299        0.078      336.214        7.365      864.268
01/16/2022  14:46:00       43.751      -55.270      -39.207       44.364       73.253       37.130     1968.192     5365.935     1378.660        0.761        0.436       70.490       24.066        0.117      336.276        7.470      864.314
01/16/2022  14:47:00        0.798       -8.346       -8.700       32.518       44.131       26.866     1057.436     1947.566      721.790        0.194        0.186        8.384        6.745        0.647      336.560        7.943      864.344
01/16/2022  14:48:00       40.429       16.057      -37.686       49.919       59.106       42.427     2491.901     3493.461     1800.055        0.555        0.389       43.501       32.994        0.575      336.236        7.403      864.379
01/16/2022  14:49:00      -17.306      -48.173       -6.081       22.873       48.761       20.681      523.157     2377.628      427.693        0.299        0.166       51.188       15.858        0.096      336.136        7.238      864.400
01/16/2022  14:50:00       37.885      -75.736      -15.299       56.008       71.903       33.846     3136.868     5170.111     1145.539        0.843        0.473       84.683       29.355        0.120      336.325        7.551      864.419
01/16/2022  14:51:00       22.804      -38.329      -12.177       48.771       63.374       30.605     2378.651     4016.249      936.681        0.473        0.367       44.600       25.695        0.332      336.480        7.811      864.413
01/16/2022  14:52:00       26.141      -28.130      -19.156       51.026       63.320       36.929     2603.608     4009.475     1363.756        0.491        0.399       38.401       24.275        0.400      336.581        7.979      864.410
01/16/2022  14:53:00       87.595       19.746      -23.826       52.045       59.567       31.522     2708.692     3548.221      993.616        0.794        0.363       89.793       29.039        0.105      336.274        7.464      864.377
01/16/2022  14:54:00       86.546      -17.398      -23.238       53.119       68.206       36.751     2821.640     4652.022     1350.601        0.858        0.441       88.277       24.850        0.079      336.271        7.462      864.346
01/16/2022  14:55:00       97.201       40.001      -28.270       52.871       52.039       26.365     2795.303     2708.073      695.132        0.902        0.310      105.110       30.783        0.086      335.973        6.964      864.309
01/16/2022  14:56:00       92.816       47.666      -21.290       47.971       39.624       25.888     2301.209     1570.041      670.189        0.794        0.227      104.340       15.051        0.021      336.086        7.151      864.247
01/16/2022  14:57:00       67.070       49.478      -22.183       62.426       58.905       34.753     3897.004     3469.842     1207.761        0.801        0.429       83.345       27.625        0.110      336.334        7.566      864.191
01/16/2022  14:58:00       17.975        9.608      -18.921       47.040       45.971       31.442     2212.766     2113.293      988.582        0.304        0.266       20.382       19.706        0.935      336.328        7.556      864.132
01/16/2022  14:59:00       75.896       20.669      -11.227       47.410       35.473       20.463     2247.711     1258.344      418.731        0.512        0.196       78.660       15.759        0.040      336.123        7.214      864.080
01/16/2022  15:00:00      138.184       11.287      -14.640       78.423       59.114       33.933     6150.197     3494.460     1151.436        1.511        0.540      138.644       20.225        0.021      336.181        7.310      864.038
01/16/2022  15:01:00      100.406       52.541      -33.880       69.207       34.408       29.607     4789.650     1183.936      876.567        1.042        0.343      113.322       29.603        0.068      336.057        7.103      864.036
01/16/2022  15:02:00      137.937       62.623      -24.953       42.930       24.983       17.234     1842.946      624.161      297.002        1.317        0.138      151.486        8.383        0.003      336.050        7.091      864.041
01/16/2022  15:03:00      118.633       80.812      -15.795       41.982       33.991       25.760     1762.522     1155.368      663.603        1.222        0.179      143.542       17.054        0.014      336.123        7.212      864.055
01/16/2022  15:04:00      200.600       43.363      -21.716       47.343       55.758       20.324     2241.400     3108.943      413.066        2.418        0.288      205.234       18.221        0.008      336.065        7.115      864.058
01/16/2022  15:05:00      116.459      -26.751      -24.574       66.984       51.047       35.510     4486.920     2605.830     1260.979        1.162        0.418      119.492       22.490        0.035      336.203        7.346      864.043
01/16/2022  15:06:00      112.968       19.983      -15.434       59.308       47.950       35.135     3517.485     2299.221     1234.443        1.022        0.353      114.722       18.288        0.025      336.212        7.361      864.023
01/16/2022  15:07:00      147.283       27.233      -14.522       63.460       61.582       38.411     4027.150     3792.331     1475.382        1.597        0.465      149.780       28.568        0.036      336.112        7.193      863.988
01/16/2022  15:08:00      121.175       40.402      -23.796       53.166       39.744       29.943     2826.585     1579.610      896.576        1.109        0.265      127.733       19.237        0.023      336.140        7.240      863.941
01/16/2022  15:09:00       34.556       10.191      -20.370       61.470       35.455       25.899     3778.536     1257.075      670.777        0.371        0.285       36.027       21.219        0.347      336.297        7.503      863.890
01/16/2022  15:10:00       -5.128       10.661      -34.580       43.461       37.260       24.923     1888.826     1388.283      621.139        0.262        0.195       11.830       21.680        3.358      336.629        8.059      863.858
01/16/2022  15:11:00      -17.826        9.364      -12.722       34.025       38.334       30.711     1157.690     1469.518      943.189        0.207        0.179       20.136       13.292        0.436      336.749        8.260      863.852
01/16/2022  15:12:00       82.322       36.609       -4.544       44.346       30.350       31.674     1966.536      921.141     1003.255        0.601        0.195       90.095       15.073        0.028      336.288        7.490      863.871
01/16/2022  15:13:00       90.504       58.904      -18.435       26.505       23.229       17.446      702.489      539.570      304.375        0.677        0.077      107.985        9.426        0.008      336.053        7.097      863.905
01/16/2022  15:14:00       44.112       35.965      -13.821       18.668       19.026       20.542      348.497      362.008      421.967        0.228        0.057       56.915       13.151        0.053      336.107        7.185      863.922
01/16/2022  15:15:00       55.559       50.903      -10.484       40.239       26.855       20.399     1619.189      721.165      416.114        0.427        0.138       75.352       17.992        0.057      336.261        7.443      863.905
01/16/2022  15:16:00       77.243       48.061      -10.225       29.349       26.024       17.290      861.355      677.267      298.927        0.511        0.092       90.975        9.924        0.012      336.162        7.279      863.856
01/16/2022  15:17:00       43.307       57.388        0.297       24.350       31.067       17.031      592.932      965.132      290.066        0.351        0.092       71.895       11.594        0.026      336.185        7.315      863.798
01/16/2022  15:18:00       10.464       42.865       -5.644       44.935       49.014       35.794     2019.130     2402.396     1281.217        0.384        0.285       44.123       18.696        0.180      336.433        7.731      863.748
01/16/2022  15:19:00      -43.402        4.945      -41.494       34.844       29.615       22.911     1214.125      877.037      524.933        0.312        0.131       43.683       17.595        0.162      336.555        7.935      863.720
01/16/2022  15:20:00       -9.021       15.075      -36.044       39.910       38.999       29.190     1592.773     1520.945      852.056        0.279        0.198       17.567       19.865        1.279      336.629        8.061      863.738
01/16/2022  15:21:00       67.750      -82.734      -28.205       66.693       51.516       38.250     4447.995     2653.900     1463.048        1.040        0.428      106.934       33.462        0.098      336.392        7.663      863.788
01/16/2022  15:22:00       50.391      -77.929      -23.386       50.809       48.090       30.746     2581.531     2312.629      945.328        0.750        0.292       92.802       28.143        0.092      336.493        7.832      863.851
01/16/2022  15:23:00       58.094     -114.391      -26.448       44.448       51.590       33.511     1975.619     2661.562     1122.974        1.146        0.288      128.298        6.170        0.002      336.427        7.720      863.907
01/16/2022  15:24:00       55.982     -130.807      -18.026       31.206       37.131       30.468      973.827     1378.733      928.306        1.192        0.164      142.283       21.469        0.023      336.396        7.669      863.936
01/16/2022  15:25:00       52.284      -87.802      -17.134       29.657       38.734       22.465      879.517     1500.296      504.698        0.681        0.144      102.190       20.668        0.041      336.370        7.627      863.945
01/16/2022  15:26:00       23.497      -72.488      -19.275       41.785       43.019       24.898     1745.970     1850.650      619.935        0.520        0.211       76.201       22.165        0.085      336.631        8.061      863.929
01/16/2022  15:27:00        6.305      -67.938      -27.038       68.033       64.647       34.627     4628.549     4179.242     1198.996        0.769        0.500       68.230       44.631        0.428      336.653        8.100      863.924
01/16/2022  15:28:00       44.888     -116.523      -37.743       30.961       35.131       22.595      958.562     1234.216      510.524        0.986        0.135      124.870       15.600        0.016      336.197        7.336      863.928
01/16/2022  15:29:00       36.429     -102.531      -24.737       28.500       32.751       24.025      812.230     1072.607      577.222        0.746        0.123      108.810       11.210        0.011      336.260        7.441      863.962
01/16/2022  15:30:00        4.887       21.127       -4.054       28.320       56.991       25.738      802.026     3247.947      662.443        0.260        0.236       21.685       17.466        0.649      336.523        7.882      863.991
01/16/2022  15:31:00       78.813       51.480      -22.351       42.284       37.782       29.179     1787.912     1427.456      851.396        0.671        0.203       94.136       18.846        0.040      336.253        7.430      864.008
01/16/2022  15:32:00      103.509       69.294      -10.655       26.674       29.241       17.243      711.526      855.025      297.333        0.875        0.093      124.563       12.781        0.011      336.189        7.322      863.997
01/16/2022  15:33:00      118.107       68.493       -9.845       27.211       18.575       20.957      740.454      345.042      439.182        1.013        0.076      136.530       16.366        0.014      336.200        7.340      863.971
01/16/2022  15:34:00      127.623       66.251      -10.724       27.025       36.638       22.018      730.351     1342.340      484.807        1.167        0.128      143.795       14.412        0.010      336.188        7.320      863.917
01/16/2022  15:35:00      100.560       77.079      -13.616       42.424       21.341       17.215     1799.820      455.441      296.343        0.939        0.128      126.702       13.083        0.011      336.176        7.300      863.884
01/16/2022  15:36:00       84.334       44.621      -10.267       29.093       24.221       19.181      846.428      586.655      367.925        0.550        0.090       95.411        8.991        0.009      336.197        7.335      863.874
01/16/2022  15:37:00      -41.083        8.764       -6.529       46.317       41.230       23.196     2145.242     1699.939      538.039        0.309        0.219       42.007       14.391        0.117      336.604        8.017      863.868
01/16/2022  15:38:00       47.182      -54.927      -22.228       60.564       55.700       31.378     3667.940     3102.507      984.553        0.674        0.388       72.409       39.150        0.292      336.462        7.782      863.871
01/16/2022  15:39:00       62.552     -144.973      -38.837       36.536       52.933       33.839     1334.860     2801.866     1145.051        1.586        0.264      157.892       22.045        0.019      336.376        7.635      863.861
01/16/2022  15:40:00       16.821      -34.214       -8.195       43.395       50.907       23.548     1883.114     2591.472      554.490        0.327        0.251       38.126       15.491        0.165      336.624        8.051      863.866
01/16/2022  15:41:00       30.589      -23.784      -11.788       37.579       39.794       30.134     1412.167     1583.564      908.079        0.277        0.195       38.748       21.166        0.298      336.639        8.076      863.875
01/16/2022  15:42:00      -10.734      -46.204      -15.484       43.710       48.071       23.612     1910.528     2310.829      557.530        0.363        0.239       47.434       19.734        0.173      336.576        7.971      863.888
01/16/2022  15:43:00      -10.145       18.255      -10.776       32.272       34.566       18.979     1041.513     1194.797      360.211        0.157        0.130       20.885       16.820        0.649      336.823        8.384      863.876
01/16/2022  15:44:00       33.297       26.591       -9.778       37.514       42.754       26.217     1407.274     1827.865      687.338        0.292        0.196       42.612       14.322        0.113      336.550        7.928      863.878
01/16/2022  15:45:00       68.521       56.869      -13.759       40.427       45.104       32.698     1634.325     2034.390     1069.143        0.643        0.237       89.047       25.010        0.079      336.363        7.614      863.858
01/16/2022  15:46:00       23.072       32.845       -9.948       41.172       33.855       24.581     1695.125     1146.172      604.218        0.258        0.172       40.139       13.264        0.109      336.436        7.736      863.862
01/16/2022  15:47:00       31.592      -95.555      -22.058       40.301       45.992       26.825     1624.178     2115.300      719.572        0.754        0.223      100.642       14.867        0.022      336.465        7.784      863.885
01/16/2022  15:48:00       55.529     -119.215      -23.787       24.961       44.399       22.427      623.035     1971.305      502.957        1.048        0.155      131.513       12.057        0.008      336.451        7.762      863.934
01/16/2022  15:49:00       50.935     -143.876      -19.768       32.112       29.457       23.866     1031.209      867.728      569.591        1.308        0.123      152.626       21.427        0.020      336.404        7.683      863.996
01/16/2022  15:50:00        7.948      -69.404       -0.923       35.929       57.043       28.427     1290.872     3253.863      808.112        0.512        0.268       69.857       22.956        0.108      336.688        8.157      864.045
01/16/2022  15:51:00       -8.045       15.105       -8.185       29.928       30.917       31.606      895.659      955.848      998.944        0.160        0.143       17.113       17.575        1.055      336.774        8.302      864.061
01/16/2022  15:52:00       14.207        2.312       -4.540       64.506       48.285       33.086     4161.088     2331.458     1094.684        0.391        0.379       14.393       24.095        2.802      336.743        8.250      864.048
01/16/2022  15:53:00      137.640       25.014      -29.143       49.922       45.549       26.940     2492.170     2074.670      725.777        1.286        0.265      139.895       12.796        0.008      336.380        7.643      864.035
01/16/2022  15:54:00      103.239       -6.042      -26.221       60.962       73.481       28.405     3716.380     5399.399      806.829        1.065        0.496      103.416       19.890        0.037      336.460        7.777      864.033
01/16/2022  15:55:00       35.816       11.116      -22.208       35.242       57.877       36.719     1242.023     3349.710     1348.310        0.392        0.297       37.502       15.882        0.179      336.511        7.861      864.067
01/16/2022  15:56:00      114.828       70.322      -17.134       32.837       35.676       19.521     1078.287     1272.783      381.065        1.058        0.137      134.650       13.333        0.010      336.316        7.536      864.094
01/16/2022  15:57:00       63.784       47.799      -19.474       41.990       44.322       25.438     1763.121     1964.482      647.112        0.555        0.219       79.706       15.593        0.038      336.403        7.682      864.099
01/16/2022  15:58:00       13.722        0.712      -10.817       42.359       40.502       30.029     1794.320     1640.401      901.717        0.232        0.217       13.741       20.554        2.238      336.492        7.830      864.080
01/16/2022  15:59:00      -19.169       -4.283        1.071       58.281       50.167       27.302     3396.679     2516.684      745.403        0.352        0.333       19.642       17.518        0.795      336.602        8.016      864.037
01/16/2022  16:00:00      -13.680      -13.371        4.382       34.855       42.640       28.102     1214.902     1818.197      789.748        0.210        0.191       19.129       14.760        0.595      336.704        8.185      864.017
01/16/2022  16:01:00      -39.770      -20.039       -5.099       31.093       35.489       24.147      966.803     1259.496      583.082        0.241        0.140       44.534       16.377        0.135      336.802        8.349      864.037
01/16/2022  16:02:00       13.367      -55.554      -22.094       27.827       54.178       27.143      774.318     2935.279      736.743        0.410        0.222       57.140       18.625        0.106      336.529        7.893      864.052
01/16/2022  16:03:00       48.405     -116.356      -35.037       41.695       63.118       41.910     1738.487     3983.845     1756.451        1.229        0.374      126.023       27.512        0.048      336.483        7.816      864.070
01/16/2022  16:04:00      -10.468      -34.915        3.770       45.780       59.565       31.757     2095.792     3547.944     1008.483        0.400        0.333       36.450       29.068        0.636      336.658        8.107      864.077
01/16/2022  16:05:00       10.298       27.916       -2.187       41.755       48.398       29.341     1743.506     2342.392      860.885        0.292        0.247       29.755       24.769        0.693      336.563        7.949      864.059
01/16/2022  16:06:00      -19.273      -44.120      -21.325       42.462       49.575       36.338     1802.991     2457.707     1320.454        0.418        0.279       48.146       30.720        0.407      336.618        8.041      864.034
01/16/2022  16:07:00       55.541       53.559       -7.453       63.179       47.242       33.649     3991.555     2231.801     1132.269        0.668        0.368       77.158       25.886        0.113      336.526        7.887      864.012
01/16/2022  16:08:00       90.208       62.552      -17.091       52.551       39.606       28.740     2761.587     1568.647      825.960        0.875        0.258      109.774       23.597        0.046      336.374        7.631      863.997
01/16/2022  16:09:00       -4.907       23.081       -7.791       31.276       24.292       24.500      978.172      590.080      600.253        0.139        0.108       23.597       16.468        0.487      336.460        7.775      863.982
01/16/2022  16:10:00      -22.688        5.952       -5.800       26.172       29.106       19.079      684.958      847.146      364.025        0.124        0.095       23.456       15.064        0.412      336.579        7.976      863.974
01/16/2022  16:11:00       37.744       18.344      -11.899       18.602       13.657       10.119      346.028      186.519      102.403        0.127        0.032       41.965        5.178        0.015      336.274        7.467      863.971
01/16/2022  16:12:00       59.186       51.621       -6.909       14.876       13.491       13.359      221.292      182.007      178.455        0.340        0.029       78.535        8.481        0.012      336.319        7.539      863.955
01/16/2022  16:13:00       73.481       27.826      -12.151       28.843       14.112       11.088      831.921      199.154      122.948        0.374        0.058       78.573        9.053        0.013      336.307        7.520      863.939
01/16/2022  16:14:00      115.932       46.200      -17.961       16.394       15.162       14.363      268.765      229.897      206.305        0.830        0.035      124.799        7.781        0.004      336.292        7.495      863.929
01/16/2022  16:15:00       76.663       40.755      -17.401       29.517       25.883       24.934      871.234      669.913      621.728        0.500        0.108       86.823       11.815        0.019      336.291        7.495      863.920
01/16/2022  16:16:00       93.975       52.228      -31.477       26.566       15.242       18.377      705.745      232.327      337.717        0.691        0.064      107.513       13.083        0.015      336.310        7.526      863.920
01/16/2022  16:17:00       56.429       47.163      -22.759       12.246       13.709       11.749      149.962      187.924      138.046        0.320        0.024       73.543        2.640        0.001      336.324        7.551      863.933
01/16/2022  16:18:00       41.246       50.734       -1.612       30.094       32.134       15.234      905.654     1032.571      232.069        0.322        0.109       65.385       16.030        0.060      336.334        7.567      863.938
01/16/2022  16:19:00       22.229       42.118      -12.813       24.022       25.686       15.858      577.059      659.767      251.489        0.196        0.074       47.624       11.399        0.057      336.338        7.571      863.945
01/16/2022  16:20:00       67.339       25.368       -7.769       23.306       14.718       10.828      543.184      216.631      117.245        0.306        0.044       71.958       11.789        0.027      336.303        7.514      863.948
01/16/2022  16:21:00       75.492       35.039       -7.958       26.331       29.470       20.396      693.304      868.471      416.002        0.448        0.099       83.227        8.383        0.010      336.286        7.485      863.950
01/16/2022  16:22:00      124.838       60.117      -22.655       17.133       23.228       16.336      293.548      539.536      266.875        1.041        0.055      138.559       11.482        0.007      336.288        7.489      863.945
01/16/2022  16:23:00       88.974       30.228      -27.718       24.735       40.516       22.119      611.823     1641.524      489.249        0.617        0.137       93.969        5.870        0.004      336.319        7.540      863.947
01/16/2022  16:24:00       90.961       26.568       -8.275       18.639       22.486        9.682      347.396      505.601       93.742        0.500        0.047       94.762        6.813        0.005      336.291        7.493      863.969
01/16/2022  16:25:00       77.422       41.927       -9.217       16.885       16.366        7.861      285.090      267.835       61.790        0.423        0.031       88.046        4.276        0.002      336.286        7.486      863.996
01/16/2022  16:26:00       88.624       46.110       -5.671       24.894       17.801       20.454      619.694      316.869      418.382        0.568        0.068       99.901       13.191        0.017      336.270        7.461      864.015
01/16/2022  16:27:00       58.530       33.013      -18.791       23.817       24.269       12.408      567.241      589.004      153.957        0.309        0.066       67.198        5.920        0.008      336.297        7.505      864.026
01/16/2022  16:28:00       19.577       47.235       -0.319       57.176       37.734       19.704     3269.091     1423.884      388.234        0.385        0.254       51.131        8.725        0.029      336.330        7.558      864.030
01/16/2022  16:29:00       51.634       58.406        0.711       45.768       23.353       20.487     2094.693      545.370      419.728        0.457        0.153       77.958       18.553        0.057      336.267        7.454      864.029
01/16/2022  16:30:00       69.169       18.090      -20.591       21.096       24.018       18.062      445.054      576.845      326.240        0.344        0.067       71.496        9.563        0.018      336.302        7.513      864.049
01/16/2022  16:31:00       58.622       14.226      -23.581       29.155       19.826       16.629      850.011      393.055      276.516        0.286        0.076       60.323       11.961        0.039      336.323        7.546      864.076
01/16/2022  16:32:00       38.440       38.339       -9.332       21.006       25.553       18.330      441.241      652.936      335.996        0.223        0.072       54.291        3.179        0.003      336.285        7.483      864.101
01/16/2022  16:33:00       21.381       11.408      -18.660       19.174       22.347       17.067      367.637      499.378      291.298        0.105        0.058       24.234       10.842        0.200      336.307        7.521      864.127
01/16/2022  16:34:00       -6.243        6.383       -6.342       11.267       10.001       10.839      126.952      100.025      117.484        0.023        0.017        8.929        5.066        0.322      336.422        7.712      864.145
01/16/2022  16:35:00        1.973        7.401       -6.149       10.189        7.903        9.639      103.817       62.450       92.911        0.018        0.013        7.659        6.591        0.740      336.369        7.625      864.156
01/16/2022  16:36:00      -11.503      -12.886       -8.432       15.773       14.401       11.810      248.779      207.388      139.469        0.048        0.030       17.274        5.133        0.088      336.532        7.897      864.171
01/16/2022  16:37:00       -2.709       15.478      -11.286       22.511       26.205       10.782      506.743      686.690      116.259        0.084        0.065       15.713        5.331        0.115      336.439        7.742      864.203
01/16/2022  16:38:00       -4.998       38.396       -0.809       36.724       32.149       19.276     1348.684     1033.588      371.552        0.213        0.138       38.720       12.435        0.103      336.348        7.589      864.219
01/16/2022  16:39:00        9.042       21.064       -7.087       20.613       32.035       21.817      424.904     1026.213      476.003        0.125        0.096       22.923       10.610        0.214      336.288        7.489      864.224
01/16/2022  16:40:00       21.755       53.299        5.313       40.018       35.194       22.919     1601.449     1238.602      525.284        0.335        0.168       57.568        3.839        0.004      336.205        7.350      864.243
01/16/2022  16:41:00      -21.836       22.590       -9.508       41.398       29.651       28.452     1713.770      879.177      809.544        0.224        0.170       31.418       12.280        0.153      336.273        7.463      864.254
01/16/2022  16:42:00      -30.374       -8.298      -17.856       28.230       21.652       22.964      796.924      468.814      527.334        0.155        0.090       31.488        5.294        0.028      336.279        7.473      864.253
01/16/2022  16:43:00       21.639       29.366       -9.654       43.745       40.454       17.647     1913.600     1636.556      311.418        0.264        0.193       36.478       14.120        0.150      336.311        7.527      864.253
01/16/2022  16:44:00       64.699       31.187      -20.005       33.601       43.335       22.353     1129.031     1877.901      499.656        0.453        0.175       71.823       22.742        0.100      336.231        7.393      864.253
01/16/2022  16:45:00       71.513       40.854      -17.246       33.806       43.858       24.516     1142.865     1923.508      601.040        0.537        0.183       82.360       19.837        0.058      336.234        7.397      864.257
01/16/2022  16:46:00       57.384       37.066      -16.277       22.987       34.194       28.065      528.398     1169.259      787.641        0.371        0.124       68.315       21.028        0.095      336.206        7.351      864.262
01/16/2022  16:47:00       51.923       33.103      -11.332       28.248       27.883       24.661      797.932      777.480      608.183        0.305        0.109       61.578       14.894        0.059      336.231        7.393      864.274
01/16/2022  16:48:00        1.142       20.246      -14.450       24.993       27.869       24.682      624.642      776.704      609.197        0.131        0.101       20.278       17.327        0.730      336.237        7.403      864.276
01/16/2022  16:49:00      -15.995        6.165      -10.537       17.699       18.455       19.502      313.262      340.573      380.345        0.072        0.052       17.142        5.670        0.109      336.311        7.528      864.267
01/16/2022  16:50:00       -9.424        2.339       -2.638       17.975       19.896       22.186      323.116      395.859      492.205        0.066        0.061        9.709        9.940        1.048      336.291        7.492      864.290
01/16/2022  16:51:00       -1.497       25.395        3.463       31.030       31.625       17.059      962.891     1000.154      290.998        0.146        0.113       25.439       12.860        0.256      336.328        7.557      864.293
01/16/2022  16:52:00       -4.797       20.176      -11.478       26.001       33.601       18.620      676.034     1129.037      346.715        0.136        0.108       20.738       14.687        0.502      336.190        7.324      864.299
01/16/2022  16:53:00      -40.175        7.071       -3.988       24.362       21.000       23.758      593.491      441.015      564.462        0.164        0.080       40.793       14.687        0.130      336.280        7.475      864.315
01/16/2022  16:54:00      -41.994        4.508      -21.573       38.934       25.078       24.866     1515.881      628.895      618.335        0.251        0.138       42.235       14.679        0.121      336.186        7.318      864.326
01/16/2022  16:55:00      -33.564        7.027      -17.601       20.627       15.975       17.615      425.484      255.209      310.284        0.124        0.050       34.292        6.204        0.033      336.245        7.416      864.334
01/16/2022  16:56:00      -22.890      -15.468        7.182       34.504       23.977       28.719     1190.500      574.909      824.784        0.170        0.130       27.626       17.000        0.379      336.306        7.519      864.344
01/16/2022  16:57:00       34.716      -87.642       -8.881       37.199       41.697       28.654     1383.789     1738.640      821.077        0.645        0.197       94.267       22.366        0.056      336.396        7.671      864.345
01/16/2022  16:58:00        6.384      -69.826      -18.640       33.993       33.809       25.091     1155.503     1143.076      629.576        0.410        0.146       70.118       12.637        0.032      336.421        7.711      864.330
01/16/2022  16:59:00       11.074      -77.542      -35.256       55.426       34.849       23.618     3072.027     1214.435      557.800        0.611        0.242       78.329       18.272        0.054      336.312        7.528      864.311
01/16/2022  17:00:00       30.637      -62.629      -16.931       30.242       45.728       25.066      914.552     2091.089      628.311        0.439        0.182       69.721       15.876        0.052      336.377        7.638      864.294
01/16/2022  17:01:00      -22.234      -36.224       -2.079       30.169       34.464       21.086      910.174     1187.785      444.633        0.218        0.127       42.503       12.675        0.089      336.383        7.648      864.275
01/16/2022  17:02:00       27.824      -97.797      -11.939       28.952       37.309       24.436      838.222     1391.952      597.107        0.665        0.141      101.678       19.123        0.035      336.367        7.620      864.251
01/16/2022  17:03:00       30.939      -80.593      -21.426       43.899       36.642       29.691     1927.160     1342.630      881.531        0.603        0.208       86.328       23.085        0.072      336.347        7.586      864.235
01/16/2022  17:04:00       22.227      -66.277      -10.574       26.356       45.055       21.622      694.665     2029.979      467.497        0.409        0.160       69.905       21.642        0.096      336.360        7.608      864.217
01/16/2022  17:05:00       19.736      -72.616      -19.068       34.180       34.516       24.166     1168.302     1191.329      583.984        0.448        0.147       75.251       18.754        0.062      336.293        7.497      864.215
01/16/2022  17:06:00       45.384      -86.971      -27.775       32.907       38.705       27.039     1082.839     1498.049      731.115        0.685        0.166       98.100       12.452        0.016      336.362        7.611      864.217
01/16/2022  17:07:00       59.339     -135.858      -35.223       30.050       34.213       26.125      903.010     1170.551      682.490        1.299        0.138      148.252       16.487        0.012      336.340        7.574      864.227
01/16/2022  17:08:00       66.798     -137.916      -31.138       25.483       26.938       25.986      649.400      725.681      675.259        1.325        0.103      153.241       19.603        0.016      336.330        7.558      864.233
01/16/2022  17:09:00       72.032     -115.925      -31.505       24.597       30.326       19.103      605.032      919.673      364.924        1.075        0.094      136.481       13.956        0.010      336.325        7.552      864.229
01/16/2022  17:10:00       59.639     -145.920      -25.628       17.871       29.703       18.567      319.358      882.257      344.745        1.353        0.077      157.637       10.607        0.005      336.304        7.518      864.216
01/16/2022  17:11:00       38.094     -127.990      -15.233       31.349       42.205       24.527      982.762     1781.232      601.573        1.071        0.168      133.539       22.035        0.027      336.354        7.600      864.206
01/16/2022  17:12:00       27.342      -80.899       -6.757       23.826       42.399       22.699      567.693     1797.672      515.233        0.511        0.144       85.395       21.444        0.063      336.297        7.504      864.205
01/16/2022  17:13:00        2.260      -42.953       -8.856       28.071       36.770       21.396      787.989     1352.029      457.771        0.226        0.130       43.013       11.424        0.071      336.256        7.436      864.207
01/16/2022  17:14:00      -12.212      -77.889      -19.585       23.814       23.121       20.436      567.114      534.581      417.629        0.406        0.076       78.841        9.038        0.013      336.273        7.464      864.213
01/16/2022  17:15:00       10.883      -70.195      -17.734       37.218       46.401       19.271     1385.175     2153.031      371.388        0.463        0.195       71.033       16.898        0.057      336.285        7.484      864.205
01/16/2022  17:16:00       29.669     -141.029      -14.097       23.013       29.089       20.706      529.618      846.169      428.748        1.139        0.090      144.116       17.780        0.015      336.258        7.437      864.183
01/16/2022  17:17:00       20.278      -88.766      -25.673       33.557       42.817       26.811     1126.055     1833.323      718.842        0.631        0.184       91.052       25.361        0.078      336.262        7.445      864.178
01/16/2022  17:18:00        0.065      -55.418      -17.290       39.952       40.597       20.176     1596.187     1648.082      407.068        0.351        0.183       55.418       17.339        0.098      336.171        7.293      864.173
01/16/2022  17:19:00      -27.158       12.323       -7.925       19.890       15.799        9.501      395.629      249.607       90.265        0.084        0.037       29.823        4.970        0.028      336.021        7.043      864.166
01/16/2022  17:20:00      -41.592       20.623       -8.662       10.590        9.362       11.163      112.140       87.648      124.608        0.128        0.016       46.424        6.960        0.022      335.855        6.768      864.159
01/16/2022  17:21:00      -57.074       13.543      -10.490       17.831       17.236       12.075      317.930      297.077      145.815        0.216        0.038       58.659        8.366        0.020      335.813        6.697      864.139
01/16/2022  17:22:00      -64.826        5.739        0.424       41.135       23.764       15.667     1692.056      564.739      245.457        0.337        0.125       65.079       16.323        0.063      335.820        6.707      864.139
01/16/2022  17:23:00      -60.608        8.386       -7.413       37.630       25.514       17.331     1415.983      650.971      300.354        0.308        0.118       61.186       19.261        0.099      335.937        6.903      864.149
01/16/2022  17:24:00      -66.997        3.068       -8.108       44.107       19.401       19.067     1945.463      376.418      363.548        0.362        0.134       67.067       24.936        0.138      335.689        6.490      864.146
01/16/2022  17:25:00      -64.194       17.801      -17.215       34.441       31.016       15.048     1186.203      961.993      226.454        0.355        0.119       66.616        5.498        0.007      335.648        6.421      864.147
01/16/2022  17:26:00      -37.164       10.627       -3.416       39.400       29.140       20.712     1552.375      849.131      428.989        0.217        0.142       38.654       13.847        0.128      335.659        6.440      864.144
01/16/2022  17:27:00      -22.802        3.983       -4.880       40.303       31.894       20.707     1624.337     1017.221      428.795        0.181        0.154       23.147       19.457        0.707      335.527        6.220      864.141
01/16/2022  17:28:00      -10.918       -0.838       -3.338       31.460       19.475       24.484      989.755      379.293      599.460        0.105        0.098       10.950       12.107        1.222      335.472        6.129      864.129
01/16/2022  17:29:00      -54.349        5.371      -10.455       43.505       29.988       27.640     1892.645      899.296      763.957        0.332        0.178       54.613       19.649        0.129      335.530        6.226      864.119
01/16/2022  17:30:00      -73.370       10.651       -8.121       33.376       23.740       19.572     1113.936      563.577      383.070        0.381        0.103       74.139       16.130        0.047      335.506        6.185      864.121
01/16/2022  17:31:00      -57.010        2.880       -4.033       29.067       29.770       22.510      844.872      886.252      506.688        0.276        0.112       57.083       15.765        0.076      335.534        6.233      864.124
01/16/2022  17:32:00      -54.269        8.823       -4.216       40.701       22.867       18.993     1656.554      522.899      360.736        0.279        0.127       54.982       18.973        0.119      335.483        6.146      864.123
01/16/2022  17:33:00      -73.945       30.512       -1.335       43.530       27.934       19.207     1894.833      780.317      368.903        0.472        0.152       79.992       18.203        0.052      335.585        6.317      864.114
01/16/2022  17:34:00      -42.231        6.287        0.438       38.776       20.623       22.161     1503.552      425.306      491.125        0.212        0.121       42.696       23.370        0.300      335.567        6.287      864.112
01/16/2022  17:35:00      -38.108        2.376       -5.943       35.430       14.417       16.186     1255.293      207.844      261.989        0.161        0.086       38.182       15.584        0.167      335.547        6.256      864.114
01/16/2022  17:36:00      -62.435        3.449       -3.361       34.290       21.021       17.761     1175.784      441.881      315.444        0.293        0.097       62.531       17.277        0.076      335.663        6.447      864.126
01/16/2022  17:37:00      -63.548        5.234       -9.365       26.046       23.943       23.581      678.389      573.275      556.081        0.298        0.090       63.764       14.967        0.055      335.667        6.452      864.140
01/16/2022  17:38:00      -24.021       -3.216       -3.743       22.417       23.457       16.300      502.529      550.230      265.697        0.096        0.066       24.235        7.434        0.094      335.542        6.245      864.163
01/16/2022  17:39:00      -39.448       16.133      -13.529       29.121       20.631       20.923      848.012      425.632      437.755        0.186        0.086       42.620       17.117        0.161      335.415        6.033      864.184
01/16/2022  17:40:00      -60.175       32.452      -13.474       24.805       29.353       13.763      615.310      861.580      189.415        0.326        0.083       68.368       10.311        0.023      335.152        5.596      864.189
01/16/2022  17:41:00      -80.737       48.271      -19.362       27.593       17.196       12.287      761.364      295.719      150.978        0.522        0.060       94.067        4.784        0.003      335.122        5.547      864.178
01/16/2022  17:42:00      -93.390       53.915      -11.948       24.369       22.077       15.064      593.867      487.374      226.933        0.654        0.065      107.836       11.518        0.011      335.152        5.596      864.162
01/16/2022  17:43:00      -97.336       29.921      -10.098       33.813       29.556       14.939     1143.313      873.568      223.188        0.636        0.112      101.831       12.776        0.016      335.055        5.436      864.148
01/16/2022  17:44:00      -86.216       17.961       -5.704       42.597       31.320       19.301     1814.533      980.933      372.535        0.548        0.158       88.067       17.838        0.041      334.908        5.194      864.142
01/16/2022  17:45:00      -84.548       38.554       -4.123       39.737       26.300       14.863     1579.020      691.676      220.906        0.557        0.125       92.924       14.709        0.025      334.940        5.243      864.143
01/16/2022  17:46:00      -59.268       26.745       -7.034       23.918       21.881       13.591      572.072      478.766      184.718        0.276        0.062       65.023       10.153        0.024      334.960        5.278      864.144
01/16/2022  17:47:00      -34.643       20.068       -2.022       17.946       17.231       13.226      322.074      296.891      174.920        0.120        0.040       40.036       10.454        0.068      334.887        5.157      864.149
01/16/2022  17:48:00      -20.267        6.059       -2.698       15.158        8.025        8.449      229.777       64.397       71.386        0.041        0.018       21.153        3.577        0.029      334.970        5.294      864.154
01/16/2022  17:49:00       -0.807        4.323       -4.850        4.924        3.735        4.921       24.249       13.950       24.218        0.005        0.003        4.397        3.359        0.583      335.069        5.458      864.165
01/16/2022  17:50:00        4.076        8.465       -8.144        8.310        5.971        8.259       69.052       35.651       68.207        0.016        0.009        9.395        7.430        0.625      335.399        6.006      864.168
01/16/2022  17:51:00       86.618       47.485      -14.340       70.918       38.506       18.649     5029.428     1482.729      347.776        0.841        0.343       98.780       18.662        0.036      334.888        5.158      864.180
01/16/2022  17:52:00       29.538       51.634       -3.139       21.146       20.046       15.465      447.158      401.851      239.166        0.232        0.054       59.486       12.383        0.043      335.199        5.675      864.182
01/16/2022  17:53:00       -3.281       -2.150       -9.382        8.306       15.274       14.842       68.993      233.286      220.272        0.031        0.026        3.923        9.258        5.570      335.355        5.933      864.182
01/16/2022  17:54:00       22.149       16.006       -0.849       33.211       18.321       12.319     1102.953      335.651      151.748        0.117        0.080       27.327       10.049        0.135      335.285        5.816      864.196
01/16/2022  17:55:00       10.915       12.372       -2.292       23.190       14.391       14.243      537.787      207.103      202.872        0.061        0.047       16.499        8.420        0.260      335.299        5.841      864.198
01/16/2022  17:56:00      -20.146      -12.893      -16.115       10.368       11.733       13.427      107.489      137.665      180.286        0.063        0.021       23.918        6.534        0.075      335.104        5.516      864.205
01/16/2022  17:57:00      -17.213       -0.053       -8.410       17.682        9.691       11.795      312.648       93.922      139.110        0.046        0.027       17.213        9.733        0.320      335.097        5.505      864.210
01/16/2022  17:58:00      -30.114      -11.192      -15.740       12.665       14.132       14.814      160.405      199.701      219.458        0.093        0.029       32.127        8.354        0.068      335.011        5.362      864.227
01/16/2022  17:59:00      -26.691        2.618       -8.359       22.424       14.810       18.843      502.836      219.334      355.075        0.093        0.054       26.819        5.393        0.040      335.080        5.475      864.231
01/16/2022  18:00:00      -14.380       -2.325       -8.085       12.546       13.341        7.115      157.404      177.983       50.625        0.033        0.019       14.567        3.811        0.068      335.027        5.387      864.235
01/16/2022  18:01:00       25.888      -48.810      -10.924       26.177       39.644       24.826      685.248     1571.624      616.346        0.302        0.144       55.250       22.379        0.164      335.505        6.184      864.250
01/16/2022  18:02:00       36.842      -48.183       -7.793       32.735       46.709       23.146     1071.590     2181.732      535.751        0.376        0.189       60.655       23.075        0.145      335.360        5.943      864.263
01/16/2022  18:03:00       21.425      -72.765       -3.891       23.300       31.227       19.978      542.898      975.113      399.127        0.384        0.096       75.853       20.900        0.076      335.550        6.258      864.284
01/16/2022  18:04:00       32.544      -12.333      -12.337       28.148       42.951       14.057      792.299     1844.767      197.599        0.210        0.142       34.802       13.685        0.155      335.216        5.704      864.304
01/16/2022  18:05:00        8.825      -49.230       -8.811       26.557       34.866       18.356      705.280     1215.662      336.928        0.242        0.113       50.015        9.900        0.039      335.195        5.667      864.317
01/16/2022  18:06:00       10.524      -49.788       -7.545       31.641       29.011       22.373     1001.173      841.645      500.558        0.249        0.117       50.888       18.069        0.126      335.275        5.802      864.321
01/16/2022  18:07:00       18.754      -74.645      -11.322       45.404       32.468       25.205     2061.520     1054.156      635.270        0.490        0.188       76.965       19.968        0.067      335.403        6.015      864.319
01/16/2022  18:08:00       -5.747      -78.469      -13.755       34.946       33.769       25.116     1221.196     1140.320      630.809        0.469        0.150       78.679       15.188        0.037      335.199        5.676      864.319
01/16/2022  18:09:00      -15.174      -79.840      -17.741       30.173       22.689       17.603      910.416      514.796      309.866        0.433        0.087       81.269       15.213        0.035      335.217        5.704      864.334
01/16/2022  18:10:00        2.180      -74.533      -24.967       21.999       28.886       18.302      483.935      834.429      334.960        0.392        0.083       74.565        6.268        0.007      335.249        5.755      864.343
01/16/2022  18:11:00      -21.908      -19.380      -16.741       15.460       17.962       13.624      239.014      322.627      185.616        0.094        0.037       29.250       10.197        0.122      335.014        5.367      864.354
01/16/2022  18:12:00      -15.949      -10.502       -0.058       19.827       16.927       20.656      393.105      286.539      426.674        0.074        0.055       19.097       12.162        0.406      335.055        5.436      864.357
01/16/2022  18:13:00      -20.302      -25.447       -1.587       25.774       35.831       14.760      664.303     1283.855      217.853        0.161        0.108       32.553       10.016        0.095      335.091        5.497      864.371
01/16/2022  18:14:00      -14.709      -46.831        5.698       32.013       28.271       22.591     1024.813      799.248      510.354        0.239        0.117       49.087       15.047        0.094      335.166        5.619      864.380
01/16/2022  18:15:00      -29.825      -15.786       11.199       34.041       27.409       22.406     1158.817      751.264      502.019        0.184        0.121       33.745       13.324        0.156      335.029        5.392      864.380
01/16/2022  18:16:00      -38.668       -2.363        4.456       24.507       23.866       19.656      600.614      569.601      386.343        0.154        0.078       38.741        5.502        0.020      334.860        5.112      864.385
01/16/2022  18:17:00       -5.456      -27.125       21.967       24.758       41.779       24.806      612.951     1745.518      615.362        0.211        0.149       27.668       15.698        0.322      335.005        5.351      864.393
01/16/2022  18:18:00       -8.608       -4.814       -6.490       20.734       33.657       17.782      429.886     1132.779      316.183        0.101        0.094        9.863       16.271        2.722      335.009        5.359      864.411
01/16/2022  18:19:00       -5.563      -11.514       -0.940       24.786       55.503       30.265      614.330     3080.548      915.992        0.239        0.231       12.787       12.180        0.907      335.073        5.465      864.415
01/16/2022  18:20:00       -6.160       -3.667      -11.857       23.304       18.693       19.664      543.062      349.415      386.683        0.074        0.064        7.169       13.668        3.635      334.949        5.258      864.422
01/16/2022  18:21:00      -21.250       -3.585      -14.478       11.654       14.416        8.344      135.826      207.823       69.624        0.054        0.021       21.551        7.302        0.115      334.745        4.920      864.438
01/16/2022  18:22:00       -7.680       -7.214      -15.312       25.718       18.642       12.798      661.439      347.508      163.800        0.076        0.059       10.537       10.210        0.939      334.867        5.124      864.446
01/16/2022  18:23:00       24.039        9.600      -15.390       26.212       32.560       19.371      687.073     1060.174      375.221        0.151        0.106       25.885       13.441        0.270      334.843        5.084      864.464
01/16/2022  18:24:00       32.927       13.100      -10.712       54.706       28.891       18.445     2992.782      834.706      340.235        0.277        0.208       35.437       15.520        0.192      334.781        4.981      864.476
01/16/2022  18:25:00       75.113       48.584      -25.491       32.010       45.535       24.229     1024.620     2073.427      587.024        0.617        0.184       89.456       20.224        0.051      334.952        5.265      864.472
01/16/2022  18:26:00       -1.752       14.168       -8.121       28.191       21.998       19.980      794.706      483.905      399.191        0.097        0.084       14.276        6.177        0.187      334.815        5.038      864.461
01/16/2022  18:27:00       14.483       33.889        1.036       33.025       36.804       22.234     1090.647     1354.504      494.357        0.215        0.147       36.854       17.881        0.235      334.851        5.096      864.461
01/16/2022  18:28:00      -17.158       -9.140       -7.080       21.659       14.762       17.374      469.107      217.909      301.867        0.071        0.049       19.441        1.059        0.003      334.701        4.848      864.472
01/16/2022  18:29:00       11.439        8.983       -9.144       35.714       26.474       16.274     1275.482      700.868      264.858        0.127        0.112       14.545        6.216        0.183      334.746        4.923      864.480
01/16/2022  18:30:00       66.011       38.390      -21.879       30.835       29.887       21.429      950.809      893.213      459.198        0.431        0.115       76.363       17.192        0.051      334.843        5.083      864.474
01/16/2022  18:31:00       17.042        9.870      -22.826       26.168       23.034       20.298      684.777      530.553      412.008        0.127        0.081       19.694       10.617        0.291      334.842        5.081      864.474
01/16/2022  18:32:00       10.697       33.969        2.774       28.176       26.573       15.962      793.877      706.122      254.777        0.152        0.088       35.614        8.381        0.055      334.695        4.838      864.466
01/16/2022  18:33:00       -0.517       -5.043       -5.189       16.065       23.803       13.364      258.079      566.604      178.603        0.053        0.050        5.069        9.020        3.166      334.761        4.947      864.481
01/16/2022  18:34:00       34.508       25.179      -12.097       21.370       21.624       19.025      456.693      467.596      361.961        0.163        0.064       42.718        5.459        0.016      334.701        4.848      864.489
01/16/2022  18:35:00       56.483       30.523      -14.274       17.543       23.507       13.333      307.743      552.572      177.761        0.268        0.052       64.202       11.727        0.033      334.711        4.864      864.499
01/16/2022  18:36:00       66.380       32.192      -21.202       30.321       24.995       13.912      919.344      624.765      193.535        0.381        0.087       73.774       13.724        0.035      334.655        4.770      864.516
01/16/2022  18:37:00       81.511       27.653      -10.067       21.554       21.973       14.448      464.574      482.811      208.741        0.433        0.058       86.074       10.822        0.016      334.670        4.795      864.514
01/16/2022  18:38:00       83.842       44.362       -5.779       30.207       12.427        9.305      912.484      154.419       86.578        0.509        0.058       94.855       11.769        0.015      334.603        4.685      864.512
01/16/2022  18:39:00       10.242       23.035        0.739       33.839       28.832       19.574     1145.048      831.266      383.143        0.150        0.118       25.209       15.060        0.357      334.519        4.543      864.506
01/16/2022  18:40:00       15.754       25.399        3.643       27.070       27.293       16.614      732.790      744.898      276.016        0.133        0.088       29.888       11.248        0.142      334.543        4.583      864.507
01/16/2022  18:41:00       -9.811        8.778       -0.246       28.539       21.413       18.552      814.451      458.509      344.163        0.089        0.081       13.165       12.998        0.975      334.351        4.265      864.511
01/16/2022  18:42:00        4.487        1.126       -6.574       30.064       20.729       14.938      903.842      429.685      223.154        0.081        0.078        4.626       13.378        8.363      334.502        4.517      864.505
01/16/2022  18:43:00       42.100       34.302       -7.563       24.882       29.127       21.163      619.091      848.411      447.888        0.246        0.096       54.305       17.190        0.100      334.650        4.760      864.503
01/16/2022  18:44:00       91.026       56.979      -13.278       21.281       22.609       14.923      452.887      511.187      222.694        0.645        0.059      107.389        5.106        0.002      334.810        5.030      864.502
01/16/2022  18:45:00       52.773       33.669      -13.111       35.911       33.981       19.183     1289.631     1154.729      367.983        0.345        0.141       62.599       16.624        0.071      334.714        4.868      864.519
01/16/2022  18:46:00        1.743       12.396       -0.652       25.178       30.792       20.329      633.918      948.177      413.278        0.108        0.100       12.518       20.955        2.803      334.662        4.780      864.534
01/16/2022  18:47:00       10.643       25.686       -0.293       29.269       28.912       19.865      856.662      835.883      394.609        0.143        0.104       27.803        6.746        0.059      334.551        4.597      864.541
01/16/2022  18:48:00       -1.938       -4.474      -12.091       19.854       15.538       16.021      394.166      241.444      256.676        0.053        0.045        4.875       12.161        6.222      334.565        4.619      864.546
01/16/2022  18:49:00      -14.079        0.957       -1.830       11.748       13.448        9.334      138.017      180.840       87.115        0.030        0.020       14.111        6.780        0.231      334.493        4.500      864.561
01/16/2022  18:50:00       21.454       16.510       -7.305       34.279       25.699       13.599     1175.083      660.455      184.926        0.140        0.101       27.071       13.085        0.234      334.540        4.579      864.576
01/16/2022  18:51:00      -10.651       13.960      -11.850       31.449       26.503       18.813      989.017      702.420      353.937        0.125        0.102       17.559       15.866        0.817      334.594        4.667      864.586
01/16/2022  18:52:00        5.245       18.313        0.868       37.367       23.792       19.221     1396.302      566.069      369.446        0.135        0.117       19.050       12.443        0.427      334.527        4.558      864.579
01/16/2022  18:53:00       11.006        8.489       -7.512       38.559       26.344       14.374     1486.782      693.998      206.615        0.132        0.119       13.899        6.841        0.242      334.504        4.520      864.569
01/16/2022  18:54:00       25.580        5.112       -3.896       24.305       30.072       19.152      590.754      904.339      366.782        0.128        0.093       26.086        8.166        0.098      334.595        4.669      864.573
01/16/2022  18:55:00       22.714       18.788        1.710       27.335       30.234       15.956      747.209      914.068      254.600        0.139        0.096       29.477       12.564        0.182      334.566        4.623      864.559
01/16/2022  18:56:00       56.029       35.104      -12.107       32.431       22.273        9.283     1051.770      496.073       86.180        0.308        0.082       66.117       10.724        0.026      334.571        4.628      864.562
01/16/2022  18:57:00       62.447       59.973       -3.606       22.483       17.241       14.237      505.463      297.245      202.701        0.426        0.050       86.582        9.384        0.012      334.603        4.683      864.569
01/16/2022  18:58:00       39.827       53.199       -3.830       13.274       12.329       11.084      176.206      151.995      122.858        0.244        0.023       66.456        5.430        0.007      334.513        4.533      864.585
01/16/2022  18:59:00       58.085       57.536       -7.787       20.105       16.917        9.810      404.212      286.200       96.228        0.377        0.039       81.757        6.064        0.006      334.528        4.557      864.597
01/16/2022  19:00:00       56.017       57.629       -8.510       22.068       13.009       14.849      487.018      169.235      220.481        0.370        0.044       80.368       10.672        0.018      334.504        4.518      864.597
01/16/2022  19:01:00       44.634       45.750       -6.512       25.376       13.866       12.279      643.958      192.258      150.776        0.256        0.049       63.916       12.062        0.036      334.466        4.457      864.602
01/16/2022  19:02:00       54.553       45.917       -9.266       18.403       15.637       15.081      338.677      244.512      227.450        0.299        0.041       71.305       12.909        0.033      334.438        4.411      864.587
01/16/2022  19:03:00       53.262       61.950      -16.773       16.529       11.950       12.492      273.192      142.799      156.057        0.376        0.029       81.699       10.931        0.018      334.454        4.436      864.576
01/16/2022  19:04:00       40.942       56.503      -10.442       16.983       19.583       11.945      288.410      383.477      142.694        0.290        0.041       69.777        9.808        0.020      334.489        4.493      864.574
01/16/2022  19:05:00       31.499       48.613       -1.488       25.090       15.432       11.599      629.487      238.137      134.546        0.218        0.050       57.926        9.261        0.026      334.383        4.319      864.579
01/16/2022  19:06:00       -1.927       23.986        4.222       14.101       15.896       13.857      198.836      252.685      192.014        0.062        0.032       24.064        8.391        0.122      334.089        3.832      864.595
01/16/2022  19:07:00      -10.415       35.091      -14.924       23.561       20.491       13.756      555.125      419.878      189.231        0.136        0.058       36.604       12.119        0.110      334.040        3.750      864.592
01/16/2022  19:08:00      -26.615       11.478       -6.857       18.134       10.916       12.232      328.854      119.150      149.615        0.074        0.030       28.985       10.182        0.123      333.725        3.228      864.594
01/16/2022  19:09:00      -57.176        5.601      -17.960       17.484       20.359       20.010      305.706      414.478      400.394        0.237        0.056       57.450       10.556        0.034      333.654        3.111      864.587
01/16/2022  19:10:00      -36.538        6.144       -8.293       26.410       21.898       20.913      697.505      479.529      437.346        0.153        0.081       37.051       19.694        0.283      333.558        2.952      864.583
01/16/2022  19:11:00      -55.284       13.815      -15.678       26.960       24.969       21.721      726.864      623.461      471.794        0.266        0.091       56.985       16.567        0.085      333.566        2.965      864.588
01/16/2022  19:12:00      -70.826        5.978      -13.677       21.734       24.811       14.490      472.388      615.569      209.954        0.327        0.065       71.078        7.817        0.012      333.598        3.018      864.585
01/16/2022  19:13:00      -63.104       17.131       -8.504       18.102       27.857       19.068      327.677      776.032      363.577        0.291        0.073       65.388       10.839        0.027      333.580        2.990      864.588
01/16/2022  19:14:00      -55.814       15.371      -12.813       25.988       23.056       17.089      675.356      531.599      292.040        0.251        0.075       57.892       11.148        0.037      333.628        3.069      864.594
01/16/2022  19:15:00      -72.346       17.251      -17.657       19.226       13.164       11.745      369.636      173.290      137.955        0.326        0.034       74.374        4.649        0.004      333.619        3.053      864.595
01/16/2022  19:16:00      -77.826       17.654      -11.223       13.987       15.999       13.351      195.634      255.960      178.252        0.356        0.031       79.803        5.258        0.004      333.636        3.081      864.609
01/16/2022  19:17:00      -86.205       20.871      -13.898       26.717       23.089       15.701      713.779      533.122      246.519        0.478        0.075       88.695       10.517        0.014      333.581        2.990      864.614
01/16/2022  19:18:00      -85.562       38.772       -8.057       33.750       31.880       21.329     1139.058     1016.308      454.910        0.575        0.131       93.937       16.348        0.030      333.495        2.847      864.611
01/16/2022  19:19:00     -103.835       54.306      -11.358       26.518       22.136       16.055      703.185      490.007      257.761        0.766        0.073      117.179       13.452        0.013      333.391        2.676      864.618
01/16/2022  19:20:00      -98.060       44.882      -13.513       33.996       28.699       19.163     1155.713      823.658      367.238        0.708        0.117      107.843       18.183        0.028      333.397        2.685      864.611
01/16/2022  19:21:00     -100.305       41.119      -16.138       22.730       20.950       16.633      516.674      438.893      276.670        0.662        0.062      108.406       12.227        0.013      333.318        2.555      864.597
01/16/2022  19:22:00     -109.820       37.068      -11.846       27.848       21.459       16.437      775.521      460.505      270.176        0.754        0.075      115.907        7.347        0.004      333.412        2.712      864.588
01/16/2022  19:23:00      -66.596       -1.271      -12.804       27.093       33.624       17.513      734.034     1130.543      306.702        0.339        0.109       66.609       10.722        0.026      333.428        2.735      864.581
01/16/2022  19:24:00      -47.787       25.776       -6.236       31.748       22.207       20.130     1007.919      493.148      405.224        0.245        0.095       54.295       11.190        0.042      333.444        2.764      864.580
01/16/2022  19:25:00      -82.187       12.926      -18.006       45.596       21.713       20.026     2079.007      471.443      401.029        0.510        0.148       83.197       22.994        0.076      333.394        2.682      864.577
01/16/2022  19:26:00      -45.257       24.916        3.598       32.864       17.822       20.582     1080.043      317.610      423.602        0.225        0.091       51.662       20.240        0.153      333.398        2.687      864.596
01/16/2022  19:27:00      -54.663      -14.737      -14.546       39.340       18.654       20.109     1547.666      347.989      404.353        0.286        0.115       56.615       17.551        0.096      333.354        2.615      864.609
01/16/2022  19:28:00      -35.121       -9.323      -14.648       43.545       16.911       19.755     1896.162      285.980      390.270        0.205        0.129       36.338       17.501        0.232      333.398        2.687      864.625
01/16/2022  19:29:00      -41.501       -0.893       -9.175       26.060       29.627       18.190      679.141      877.780      330.859        0.185        0.094       41.511       10.414        0.063      333.419        2.722      864.629
01/16/2022  19:30:00      -41.084        2.647       -7.156       23.852       19.975       15.324      568.906      399.019      234.818        0.147        0.060       41.169       10.634        0.067      333.405        2.699      864.626
01/16/2022  19:31:00      -57.090       -4.839      -23.916       26.883       22.459       20.916      722.692      504.414      437.474        0.276        0.083       57.295       16.883        0.087      333.409        2.707      864.623
01/16/2022  19:32:00      -66.581       -0.902      -26.013       16.752       12.229       15.987      280.631      149.558      255.600        0.290        0.034       66.587        6.613        0.010      333.420        2.725      864.631
01/16/2022  19:33:00      -60.547       -6.815      -18.862       19.184       18.716       15.294      368.034      350.271      233.900        0.251        0.048       60.930       11.959        0.039      333.498        2.853      864.636
01/16/2022  19:34:00      -89.406        1.236      -20.995       21.179       22.308       13.622      448.533      497.665      185.550        0.478        0.057       89.414        8.381        0.009      333.457        2.786      864.651
01/16/2022  19:35:00      -89.587       25.101      -22.352       10.796        7.696        6.544      116.549       59.236       42.822        0.469        0.011       93.037        3.245        0.001      333.430        2.738      864.658
01/16/2022  19:36:00      -66.852       14.667      -17.975       21.614       20.372       17.204      467.145      415.025      295.995        0.309        0.059       68.442       10.851        0.025      333.497        2.850      864.668
01/16/2022  19:37:00      -76.290       15.805      -15.403       22.831       28.044       18.772      521.249      786.445      352.384        0.398        0.083       77.910        8.191        0.011      333.461        2.793      864.678
01/16/2022  19:38:00      -73.569       20.382      -17.656       16.131       31.694       16.565      260.214     1004.507      274.403        0.384        0.077       76.340        9.344        0.015      333.436        2.751      864.682
01/16/2022  19:39:00      -66.102       26.960      -25.503       17.635       19.148       13.170      310.989      366.641      173.443        0.330        0.043       71.388        8.195        0.013      333.377        2.653      864.691
01/16/2022  19:40:00      -64.915       19.290      -11.751       41.686       28.064       18.506     1737.719      787.601      342.463        0.380        0.143       67.721        8.921        0.017      333.371        2.643      864.672
01/16/2022  19:41:00      -90.124       37.671      -12.126       30.429       25.538       20.317      925.947      652.172      412.786        0.584        0.100       97.681       18.552        0.036      333.307        2.537      864.679
01/16/2022  19:42:00      -71.942       21.554      -13.054       22.941       29.249       18.989      526.301      855.519      360.589        0.378        0.087       75.101       12.888        0.029      333.304        2.531      864.681
01/16/2022  19:43:00      -62.317       26.079       -8.756       19.878       24.657       16.360      395.123      607.956      267.637        0.296        0.064       67.553        8.727        0.017      333.295        2.517      864.670
01/16/2022  19:44:00      -49.834       12.395      -18.366       22.204       22.676       17.322      493.019      514.197      300.040        0.214        0.065       51.352        7.815        0.023      333.343        2.596      864.678
01/16/2022  19:45:00      -49.320        5.969       -9.086       30.707       19.375       17.447      942.901      375.392      304.395        0.209        0.081       49.680       18.648        0.141      333.423        2.728      864.694
01/16/2022  19:46:00      -46.627       20.817      -15.057       26.038       19.455       24.433      677.964      378.479      596.967        0.224        0.083       51.063       18.561        0.132      333.356        2.618      864.703
01/16/2022  19:47:00     -102.706       43.791      -17.479       18.458       21.026       17.544      340.715      442.093      307.781        0.693        0.055      111.652        9.236        0.007      333.348        2.604      864.707
01/16/2022  19:48:00      -69.905       17.370      -15.068       25.060       24.036       14.551      628.008      577.749      211.732        0.342        0.071       72.031        4.299        0.004      333.400        2.691      864.700
01/16/2022  19:49:00      -19.449       -4.545       -3.011       25.525       21.604       10.311      651.513      466.728      106.316        0.082        0.061       19.973        8.257        0.171      333.451        2.775      864.693
01/16/2022  19:50:00      -47.833        3.024      -12.423       26.110       18.249       15.698      681.728      333.040      246.424        0.186        0.063       47.928       14.543        0.092      333.496        2.849      864.691
01/16/2022  19:51:00      -65.031       20.224      -15.441       17.822       19.570       15.736      317.636      382.966      247.634        0.291        0.047       68.104        7.439        0.012      333.398        2.689      864.700
01/16/2022  19:52:00      -48.451       11.635      -14.172       23.129       23.033       15.360      534.954      530.533      235.933        0.199        0.065       49.828        7.271        0.021      333.447        2.768      864.712
01/16/2022  19:53:00      -59.856       13.105       -7.226       39.600       24.377       17.761     1568.136      594.216      315.447        0.314        0.124       61.274       20.572        0.113      333.306        2.536      864.721
01/16/2022  19:54:00      -12.636       16.927      -10.493       19.878       14.873       15.066      395.120      221.194      226.989        0.070        0.042       21.124       10.662        0.255      333.349        2.606      864.736
01/16/2022  19:55:00      -21.998       27.681       -3.390       26.278       18.593       11.023      690.529      345.701      121.502        0.121        0.058       35.357       11.938        0.114      333.356        2.620      864.727
01/16/2022  19:56:00      -12.921       10.375      -13.195       18.437       20.841        9.361      339.931      434.348       87.635        0.066        0.043       16.571        5.631        0.115      333.408        2.705      864.727
01/16/2022  19:57:00      -59.060       31.827       -8.640       38.536       19.463       11.531     1485.006      378.812      132.962        0.329        0.100       67.090       13.547        0.041      333.322        2.562      864.724
01/16/2022  19:58:00      -61.983       30.424      -15.703       29.748       20.758       15.617      884.919      430.884      243.888        0.329        0.078       69.048        8.705        0.016      333.308        2.539      864.719
01/16/2022  19:59:00      -18.094       29.752       -9.634       29.311       17.159       10.335      859.120      294.441      106.816        0.128        0.063       34.822        4.115        0.014      333.272        2.479      864.721
01/16/2022  20:00:00      -22.643       22.010      -18.375       15.164       10.817       14.245      229.940      117.008      202.914        0.094        0.027       31.578        7.819        0.061      333.443        2.761      864.721
01/16/2022  20:01:00      -29.632       30.679       -9.034       18.052        9.932       11.631      325.892       98.644      135.283        0.123        0.028       42.653        3.984        0.009      333.635        3.081      864.709
01/16/2022  20:02:00      -30.224       23.077       -9.002       17.028       12.747        9.093      289.962      162.474       82.689        0.103        0.027       38.027        5.413        0.020      333.469        2.805      864.710
01/16/2022  20:03:00       -1.058       46.547       -3.275       15.301       29.715       14.541      234.117      882.955      211.430        0.175        0.066       46.559       15.324        0.108      333.721        3.222      864.717
01/16/2022  20:04:00        9.086       41.682      -11.013       31.241       23.333       19.229      975.989      544.412      369.751        0.192        0.095       42.661        9.436        0.049      333.673        3.143      864.702
01/16/2022  20:05:00       13.623       20.040       -1.843       26.830       14.702       13.947      719.839      216.156      194.516        0.086        0.057       24.232        9.320        0.148      333.623        3.059      864.701
01/16/2022  20:06:00       12.103       15.543       -1.785       19.817       12.480       13.896      392.722      155.754      193.106        0.057        0.037       19.700        8.302        0.178      333.745        3.262      864.715
01/16/2022  20:07:00        5.482        8.808       -5.238        8.553       12.357        8.355       73.153      152.697       69.810        0.022        0.015       10.375        7.250        0.488      333.795        3.346      864.719
01/16/2022  20:08:00       13.513       10.717       -6.414       12.560        9.448       11.665      157.759       89.256      136.077        0.036        0.019       17.247        6.611        0.147      333.873        3.474      864.724
01/16/2022  20:09:00       18.930       48.506       -0.816       24.108       28.611       16.711      581.193      818.613      279.254        0.220        0.084       52.069       13.284        0.065      334.043        3.757      864.730
01/16/2022  20:10:00        5.287       27.825       -0.956       19.138       16.337       11.342      366.256      266.910      128.647        0.078        0.038       28.323        4.851        0.029      333.945        3.594      864.730
01/16/2022  20:11:00       11.429       16.785       -5.980        9.330        9.480        9.733       87.051       89.867       94.736        0.036        0.014       20.306        6.115        0.091      333.925        3.560      864.739
01/16/2022  20:12:00      -10.004       13.969       -9.156       13.161       12.942       11.581      173.206      167.482      134.124        0.043        0.024       17.182        7.049        0.168      333.790        3.337      864.733
01/16/2022  20:13:00       -4.218       10.299       -4.183       24.445       16.507       13.729      597.565      272.478      188.493        0.060        0.053       11.129        9.729        0.764      333.746        3.262      864.730
01/16/2022  20:14:00       -2.606       12.440       -1.787        8.669        9.589        9.506       75.146       91.951       90.366        0.021        0.013       12.710        4.054        0.102      333.717        3.217      864.729
01/16/2022  20:15:00       -8.682       27.688       -2.358       23.008       25.566       12.115      529.360      653.596      146.769        0.109        0.066       29.018       10.809        0.139      333.806        3.364      864.728
01/16/2022  20:16:00       -9.699       43.242      -15.049       17.189       38.052       13.147      295.459     1447.989      172.851        0.205        0.096       44.316       10.531        0.056      333.816        3.380      864.733
01/16/2022  20:17:00      -11.206        8.224      -10.194       17.256       16.771       13.032      297.762      281.283      169.837        0.052        0.037       13.899        5.848        0.177      333.572        2.977      864.741
01/16/2022  20:18:00      -18.382       12.176      -13.747       22.670       17.544       10.072      513.939      307.794      101.442        0.080        0.046       22.049       11.262        0.261      333.554        2.944      864.749
01/16/2022  20:19:00      -16.828       24.010      -10.771       18.384       14.097        9.074      337.972      198.738       82.330        0.080        0.031       29.320        6.418        0.048      333.660        3.121      864.741
01/16/2022  20:20:00       -9.738        3.359       -8.795       13.400       11.919        9.991      179.570      142.066       99.824        0.030        0.021       10.301        6.940        0.454      333.656        3.116      864.746
01/16/2022  20:21:00       -6.574       -6.598       -5.581       10.047       13.565        8.606      100.946      184.005       74.070        0.024        0.018        9.314        4.582        0.242      333.680        3.154      864.757
01/16/2022  20:22:00      -42.643       19.701      -13.679       13.607       13.042        9.382      185.164      170.102       88.015        0.142        0.022       46.974        6.709        0.020      333.688        3.170      864.773
01/16/2022  20:23:00      -23.504       18.593      -10.459       15.596       16.454       10.315      243.245      270.749      106.399        0.081        0.031       29.969        8.127        0.074      333.620        3.055      864.775
01/16/2022  20:24:00      -22.290       27.573      -12.860       22.320       17.444       11.906      498.178      304.294      141.764        0.118        0.047       35.456        6.360        0.032      333.756        3.281      864.789
01/16/2022  20:25:00      -13.114       36.524       -6.024       22.519       27.271       14.472      507.125      743.728      209.426        0.150        0.073       38.807       10.055        0.067      333.759        3.286      864.795
01/16/2022  20:26:00      -19.335       58.349      -15.807       41.510       32.532       17.137     1723.095     1058.345      293.661        0.355        0.154       61.469       14.215        0.053      333.962        3.622      864.780
01/16/2022  20:27:00       -6.123       37.598       -7.818       35.482       29.436       26.665     1259.007      866.450      711.045        0.217        0.142       38.093       23.493        0.380      333.886        3.495      864.793
01/16/2022  20:28:00      -10.994       37.554       -4.419       18.413       17.511       10.071      339.045      306.628      101.432        0.115        0.037       39.130        6.637        0.029      333.863        3.458      864.802
01/16/2022  20:29:00        5.799       33.743       -1.998       21.117       13.964       17.089      445.926      194.979      292.030        0.105        0.047       34.238       11.918        0.121      333.877        3.482      864.813
01/16/2022  20:30:00        4.133       46.212        0.721       18.139       24.393       12.487      329.006      595.003      155.918        0.162        0.054       46.397        8.613        0.034      333.927        3.564      864.806
01/16/2022  20:31:00      -31.917       28.467      -11.078       25.600       19.050       12.864      655.372      362.921      165.478        0.157        0.059       42.767        3.598        0.007      333.855        3.444      864.811
01/16/2022  20:32:00        7.882       46.210        3.619       17.777       26.357       14.755      316.024      694.706      217.697        0.172        0.061       46.877       10.195        0.047      333.906        3.528      864.797
01/16/2022  20:33:00       -5.668       39.186      -15.736       20.250       29.512       20.124      410.050      870.986      404.965        0.175        0.084       39.594        9.917        0.063      333.921        3.556      864.780
01/16/2022  20:34:00       13.196       10.648       -1.976       16.741       13.886        6.653      280.269      192.828       44.268        0.040        0.026       16.956        5.969        0.124      333.855        3.443      864.792
01/16/2022  20:35:00       26.103       11.129       -2.486        7.570        8.447       10.910       57.303       71.352      119.023        0.053        0.012       28.377        6.770        0.057      333.805        3.360      864.792
01/16/2022  20:36:00       27.585       12.738        0.285       10.085        8.980        6.605      101.701       80.634       43.621        0.057        0.011       30.383        3.183        0.011      333.737        3.246      864.793
01/16/2022  20:37:00       25.437       10.116       -6.960        9.294        6.153        4.731       86.380       37.863       22.384        0.047        0.007       27.375        5.074        0.034      333.771        3.305      864.801
01/16/2022  20:38:00       40.219       13.038       -0.356       10.575        9.388        6.749      111.834       88.128       45.545        0.102        0.012       42.280        6.108        0.021      333.734        3.243      864.817
01/16/2022  20:39:00       59.706       25.886      -15.290       12.703       12.781       11.813      161.369      163.353      139.555        0.247        0.023       65.076        7.007        0.012      333.758        3.283      864.823
01/16/2022  20:40:00       44.825       36.216      -13.015       12.397        6.163        6.766      153.691       37.986       45.774        0.186        0.012       57.627        7.227        0.016      333.785        3.329      864.827
01/16/2022  20:41:00       34.221       26.641       -4.979       10.136       11.865       10.225      102.735      140.790      104.560        0.113        0.017       43.368        6.279        0.021      333.794        3.343      864.847
01/16/2022  20:42:00       44.388       28.183       -7.841       13.175       10.419        8.673      173.575      108.553       75.217        0.159        0.018       52.579        7.991        0.023      333.685        3.161      864.860
01/16/2022  20:43:00       78.926       17.573      -15.167       14.832       10.397        6.816      219.988      108.103       46.456        0.357        0.019       80.859        7.140        0.008      333.701        3.190      864.859
01/16/2022  20:44:00       87.652       27.205      -16.117       12.755       11.605        8.463      162.685      134.683       71.626        0.453        0.018       91.776        6.933        0.006      333.640        3.088      864.861
01/16/2022  20:45:00       80.457       28.629      -15.965        7.420        8.994        7.017       55.051       80.900       49.244        0.387        0.009       85.398        3.881        0.002      333.635        3.081      864.850
01/16/2022  20:46:00       92.231       19.257       -9.035       18.796        9.140        9.607      353.290       83.542       92.292        0.474        0.026       94.220        6.107        0.004      333.575        2.981      864.840
01/16/2022  20:47:00      102.407       18.351      -10.433        9.900       11.763       11.625       98.007      138.372      135.146        0.565        0.019      104.038        5.490        0.003      333.583        2.996      864.842
01/16/2022  20:48:00       89.999       24.362      -10.233       12.191       10.972       10.128      148.611      120.382      102.578        0.458        0.019       93.238        5.590        0.004      333.557        2.953      864.853
01/16/2022  20:49:00       78.421       62.603      -11.809       23.413       22.473       22.704      548.158      505.039      515.477        0.589        0.078      100.344       14.947        0.022      333.651        3.106      864.870
01/16/2022  20:50:00       60.181       52.484       -9.536       27.094       18.769       16.479      734.104      352.259      271.545        0.391        0.068       79.852        8.062        0.010      333.702        3.191      864.861
01/16/2022  20:51:00       24.652       80.663       -0.370       23.578       40.401       13.374      555.909     1632.261      178.872        0.474        0.118       84.346       11.061        0.017      333.855        3.443      864.864
01/16/2022  20:52:00       32.444       93.634       -9.851       17.931       26.289       15.698      321.536      691.123      246.438        0.559        0.063       99.095       14.618        0.022      333.936        3.579      864.868
01/16/2022  20:53:00       20.939       77.267       -6.834       16.283       14.171        9.192      265.135      200.805       84.487        0.350        0.028       80.054        5.704        0.005      334.000        3.685      864.881
01/16/2022  20:54:00       -6.409       24.345       -5.794       11.238       15.979       10.367      126.296      255.315      107.466        0.058        0.024       25.174        5.812        0.053      333.674        3.145      864.888
01/16/2022  20:55:00      -24.685       26.353      -14.574       13.629       12.188        9.434      185.749      148.559       88.996        0.097        0.021       36.109        5.330        0.022      333.522        2.894      864.910
01/16/2022  20:56:00      -17.398       28.703      -11.390       20.055       14.964       13.615      402.219      223.934      185.375        0.103        0.041       33.564       10.788        0.103      333.603        3.028      864.911
01/16/2022  20:57:00       -5.583       47.605       -5.982       19.840       19.801       17.797      393.616      392.090      316.738        0.172        0.055       47.932       11.097        0.054      333.720        3.221      864.918
01/16/2022  20:58:00       -2.320      103.070      -15.805       27.484       27.107       18.567      755.373      734.796      344.747        0.636        0.092      103.096       13.115        0.016      333.843        3.424      864.917
01/16/2022  20:59:00       16.233       81.929      -15.094       18.905       21.458       13.635      357.396      460.465      185.917        0.410        0.050       83.522        6.247        0.006      333.856        3.447      864.916
01/16/2022  21:00:00       21.379       49.104       -6.363       15.748       19.651        8.671      248.005      386.145       75.183        0.181        0.035       53.556        6.617        0.015      333.876        3.478      864.902
01/16/2022  21:01:00       24.262       45.384       -4.113       20.071       20.090       11.626      402.856      403.621      135.161        0.180        0.047       51.462        7.420        0.021      333.859        3.452      864.921
01/16/2022  21:02:00       15.515       40.445       -5.376       16.402       13.103       11.349      269.021      171.694      128.806        0.124        0.028       43.319        3.402        0.006      333.862        3.456      864.931
01/16/2022  21:03:00       -3.568       24.689      -10.301       12.904       16.965       11.654      166.519      287.820      135.807        0.066        0.030       24.946        6.748        0.073      333.702        3.192      864.930
01/16/2022  21:04:00       13.225       37.479       -3.138       12.113       16.977       14.374      146.724      288.218      206.625        0.112        0.032       39.744       10.461        0.069      333.828        3.399      864.942
01/16/2022  21:05:00       21.139       48.357       -9.348       25.606       17.903       12.066      655.648      320.519      145.584        0.200        0.056       52.775        9.956        0.036      333.798        3.349      864.938
01/16/2022  21:06:00       24.452       46.337       -8.394       25.412       14.473       15.637      645.766      209.454      244.510        0.196        0.055       52.393        8.677        0.027      333.826        3.396      864.932
01/16/2022  21:07:00       -2.941       14.264        3.672       19.413        9.261       11.472      376.869       85.760      131.606        0.041        0.030       14.564        9.625        0.437      333.643        3.094      864.933
01/16/2022  21:08:00        1.247       21.589       -4.229       15.604       11.250        9.727      243.493      126.553       94.608        0.048        0.023       21.625        8.280        0.147      333.673        3.141      864.929
01/16/2022  21:09:00       -9.801       24.300      -10.852       16.044       11.740        7.093      257.401      137.820       50.307        0.062        0.022       26.202        7.796        0.089      333.696        3.180      864.918
01/16/2022  21:10:00      -12.127       18.311      -14.522       11.719       11.638        6.740      137.335      135.436       45.424        0.051        0.016       21.962        4.305        0.038      333.595        3.015      864.915
01/16/2022  21:11:00      -14.492       11.857       -9.875       10.014       10.500        6.801      100.272      110.244       46.251        0.035        0.013       18.724        5.568        0.088      333.547        2.933      864.907
01/16/2022  21:12:00       -6.063      -17.345       -4.663        6.636       11.489        6.764       44.036      131.992       45.758        0.029        0.011       18.374        3.890        0.045      333.503        2.860      864.913
01/16/2022  21:13:00        5.087      -12.464       -9.791        6.723       10.788        5.957       45.202      116.386       35.489        0.024        0.010       13.462        3.219        0.057      333.426        2.732      864.919
01/16/2022  21:14:00      -17.322       -7.993       -5.364       21.260       13.342        9.386      452.001      178.020       88.098        0.056        0.036       19.077        3.203        0.028      333.341        2.594      864.922
01/16/2022  21:15:00      -32.776       -1.336       -6.134       20.718       15.244       14.856      429.231      232.388      220.714        0.100        0.044       32.803       13.880        0.179      333.259        2.457      864.919
01/16/2022  21:16:00       -5.583       -1.570       -4.166       18.097       12.150        9.326      327.484      147.621       86.970        0.031        0.028        5.800        8.878        2.343      333.284        2.498      864.903
01/16/2022  21:17:00      -13.984      -11.279       -3.299       15.889        9.787        9.606      252.474       95.781       92.272        0.039        0.022       17.966        8.288        0.213      333.340        2.593      864.893
01/16/2022  21:18:00       -4.312        4.765       -2.648       11.642        9.479        8.342      135.525       89.849       69.591        0.017        0.015        6.426        3.624        0.318      333.345        2.600      864.908
01/16/2022  21:19:00       -9.441       -3.186       -3.555       13.078       11.830        8.672      171.042      139.949       75.205        0.025        0.019        9.964        7.067        0.503      333.371        2.644      864.907
01/16/2022  21:20:00        8.408       -6.081       -1.789       15.956        9.540        9.382      254.585       91.018       88.021        0.027        0.022       10.377        8.349        0.647      333.341        2.596      864.923
01/16/2022  21:21:00        6.714       -4.412        8.445       11.251       10.535       12.021      126.582      110.996      144.515        0.026        0.019        8.034        7.065        0.773      333.295        2.519      864.925
01/16/2022  21:22:00       -2.246       -7.867        3.939       10.659        6.534        9.890      113.604       42.689       97.817        0.017        0.013        8.182        6.138        0.563      333.316        2.553      864.922
01/16/2022  21:23:00      -14.768        0.196       -8.089       16.391       14.491       10.214      268.649      210.001      104.336        0.043        0.029       14.769        8.923        0.365      333.283        2.498      864.936
01/16/2022  21:24:00      -53.665       14.638      -15.196       11.962       10.231        8.125      143.092      104.674       66.023        0.182        0.016       55.625        4.223        0.006      333.283        2.497      864.926
01/16/2022  21:25:00      -49.777        6.726      -12.649       17.515       12.919       12.488      306.768      166.905      155.944        0.166        0.031       50.230        6.665        0.018      333.259        2.458      864.926
01/16/2022  21:26:00       -5.573       -1.110        1.247        8.753       19.902       13.460       76.614      396.102      181.182        0.034        0.033        5.682       10.904        3.682      333.243        2.432      864.928
01/16/2022  21:27:00       -7.725        8.469       -2.773       12.264       17.597       11.967      150.412      309.663      143.206        0.037        0.030       11.463        6.801        0.352      333.160        2.294      864.937
01/16/2022  21:28:00       -7.440        2.742       -4.377       14.677       13.119       10.378      215.409      172.095      107.699        0.029        0.025        7.929        5.672        0.512      333.176        2.320      864.947
01/16/2022  21:29:00      -17.629       -0.270       -2.954       16.665       12.916       11.938      277.714      166.835      142.516        0.045        0.029       17.632        5.577        0.100      333.191        2.344      864.971
01/16/2022  21:30:00       -5.377      -29.769        1.303       18.871       22.261       19.804      356.096      495.545      392.181        0.108        0.062       30.251        7.962        0.069      333.183        2.330      864.985
01/16/2022  21:31:00      -46.520       -9.980       -2.856       39.084       28.386       21.408     1527.542      805.757      458.313        0.253        0.140       47.578       21.331        0.201      333.177        2.322      864.987
01/16/2022  21:32:00      -30.077       -6.123       -2.176       27.064       26.028       15.680      732.467      677.449      245.857        0.130        0.083       30.694        6.700        0.048      333.216        2.385      864.975
01/16/2022  21:33:00       -6.083      -14.471       11.175       18.233       23.286       14.725      332.435      542.217      216.830        0.073        0.055       15.698        8.593        0.300      333.154        2.283      864.966
01/16/2022  21:34:00      -39.325        1.028       -2.970       31.146       19.618       16.706      970.089      384.858      279.099        0.159        0.082       39.338       10.803        0.075      333.134        2.250      864.958
01/16/2022  21:35:00      -50.381      -12.260       -5.694       30.323       20.942       15.078      919.504      438.555      227.352        0.215        0.079       51.851        9.648        0.035      333.091        2.180      864.954
01/16/2022  21:36:00      -68.706       -5.553        0.098       39.621       25.694       22.118     1569.831      660.197      489.211        0.373        0.136       68.930       21.325        0.096      333.076        2.155      864.963
01/16/2022  21:37:00      -39.961      -12.715       -7.190       38.904       27.330       18.343     1513.504      746.907      336.461        0.220        0.130       41.935       17.961        0.183      332.990        2.013      864.965
01/16/2022  21:38:00      -19.980      -13.037       -0.902       40.880       23.342       19.794     1671.210      544.865      391.791        0.159        0.130       23.857       14.063        0.347      332.994        2.019      864.961
01/16/2022  21:39:00      -67.331       -7.254       -6.950       35.672       19.392       17.816     1272.508      376.035      317.419        0.330        0.098       67.721       17.069        0.064      332.978        1.994      864.958
01/16/2022  21:40:00      -24.518       -2.449        3.308       42.044       21.488       20.273     1767.735      461.745      410.996        0.163        0.132       24.640       23.145        0.882      333.007        2.040      864.960
01/16/2022  21:41:00      -19.378       11.042       -8.762       27.373       30.825       17.704      749.293      950.176      313.427        0.129        0.101       22.304        8.050        0.130      332.934        1.920      864.955
01/16/2022  21:42:00       -4.940       -9.927       -6.408       18.510       21.433       17.959      342.626      459.375      322.519        0.064        0.056       11.088       10.321        0.866      332.908        1.877      864.954
01/16/2022  21:43:00      -24.939      -12.206       -0.192       40.229       17.423       21.727     1618.344      303.570      472.073        0.158        0.120       27.766       18.290        0.434      332.981        1.997      864.950
01/16/2022  21:44:00      -55.831        9.644       -9.664       43.644       27.727       23.111     1904.772      768.786      534.119        0.325        0.160       56.657       21.941        0.150      332.940        1.929      864.959
01/16/2022  21:45:00      -42.787        6.575       -9.345       41.392       30.714       22.139     1713.290      943.322      490.129        0.255        0.157       43.289       14.459        0.112      332.932        1.918      864.950
01/16/2022  21:46:00      -90.387        8.781       -1.269       39.171       32.217       20.559     1534.331     1037.935      422.688        0.562        0.150       90.812       16.115        0.031      332.886        1.842      864.949
01/16/2022  21:47:00      -99.233        4.929       -2.091       44.278       26.995       20.277     1960.576      728.733      411.145        0.649        0.155       99.356       22.058        0.049      332.824        1.738      864.943
01/16/2022  21:48:00     -118.222       18.055       -5.456       42.405       33.852       20.538     1798.143     1145.926      421.796        0.885        0.168      119.592       22.338        0.035      332.834        1.756      864.930
01/16/2022  21:49:00     -128.910       14.920       -0.918       47.011       27.706       24.017     2210.040      767.619      576.831        1.020        0.178      129.771       19.136        0.022      332.744        1.606      864.932
01/16/2022  21:50:00      -33.528       -3.567        1.612       52.296       28.373       23.558     2734.858      805.033      554.992        0.262        0.205       33.718       24.265        0.518      332.739        1.598      864.946
01/16/2022  21:51:00      -80.197       -4.102      -10.877       47.451       24.331       19.093     2251.644      591.974      364.532        0.489        0.160       80.302       23.810        0.088      332.777        1.660      864.941
01/16/2022  21:52:00      -83.567       37.361       -9.095       32.306       32.672       20.766     1043.653     1067.436      431.213        0.550        0.127       91.538       13.096        0.020      332.796        1.692      864.938
01/16/2022  21:53:00      -78.552       18.487       -1.748       31.682       24.839       16.801     1003.718      616.960      282.273        0.421        0.095       80.698       11.536        0.020      332.737        1.595      864.942
01/16/2022  21:54:00      -98.711       12.514       -4.382       37.904       28.439       21.329     1436.733      808.760      454.918        0.631        0.135       99.501       19.848        0.040      332.817        1.727      864.929
01/16/2022  21:55:00      -98.642       12.277       -5.236       35.736       23.762       23.117     1277.086      564.631      534.375        0.614        0.119       99.403       19.608        0.039      332.827        1.743      864.920
01/16/2022  21:56:00      -85.404       20.417       -5.259       43.854       18.985       21.860     1923.180      360.418      477.859        0.525        0.138       87.810       20.283        0.053      332.800        1.698      864.926
01/16/2022  21:57:00      -89.840       28.543      -14.864       27.338       23.976       17.663      747.391      574.858      311.983        0.537        0.082       94.265       13.915        0.022      332.763        1.637      864.928
01/16/2022  21:58:00     -102.448       28.774      -19.961       22.672       23.106       15.617      514.003      533.894      243.886        0.651        0.065      106.412        8.461        0.006      332.776        1.659      864.922
01/16/2022  21:59:00      -97.161       59.556      -19.394       16.618       23.825       17.980      276.159      567.622      323.285        0.726        0.058      113.961        9.476        0.007      332.745        1.609      864.921
01/16/2022  22:00:00     -102.845       42.371      -24.150       17.438       15.991       15.600      304.080      255.701      243.354        0.688        0.040      111.232        7.638        0.005      332.736        1.593      864.930
01/16/2022  22:01:00      -97.183       14.309      -14.884       25.799       25.845       20.004      665.567      667.988      400.149        0.580        0.087       98.231       13.071        0.018      332.801        1.701      864.929
01/16/2022  22:02:00      -90.565       27.012      -10.278       30.402       26.801       18.886      924.310      718.279      356.662        0.552        0.100       94.507        9.135        0.009      332.770        1.650      864.940
01/16/2022  22:03:00     -112.900       45.250      -10.727       35.735       26.943       24.125     1277.006      725.920      582.038        0.875        0.129      121.631       20.618        0.029      332.711        1.552      864.944
01/16/2022  22:04:00     -106.154       63.706      -15.810       28.753       28.420       22.774      826.760      807.724      518.645        0.886        0.108      123.802       14.445        0.014      332.666        1.480      864.951
01/16/2022  22:05:00     -114.842       63.619      -20.610       31.926       27.815       21.562     1019.267      773.690      464.922        0.996        0.113      131.286       14.624        0.012      332.663        1.472      864.951
01/16/2022  22:06:00      -87.644       63.950      -17.116       33.952       28.807       27.226     1152.723      829.847      741.271        0.739        0.136      108.494       21.997        0.041      332.642        1.438      864.958
01/16/2022  22:07:00     -115.736       33.528      -11.580       22.792       26.869       16.606      519.485      721.962      275.765        0.808        0.076      120.494       11.880        0.010      332.670        1.484      864.965
01/16/2022  22:08:00     -106.618       33.357      -15.853       28.899       27.059       20.821      835.166      732.213      433.524        0.737        0.100      111.715       19.757        0.031      332.708        1.548      864.977
01/16/2022  22:09:00      -92.025       49.863      -14.837       19.317       20.439       15.796      373.140      417.756      249.506        0.611        0.052      104.666        6.825        0.004      332.679        1.499      864.992
01/16/2022  22:10:00      -81.656       65.696      -18.377       14.727       18.332       17.922      216.882      336.058      321.185        0.610        0.044      104.802       14.427        0.019      332.687        1.513      865.002
01/16/2022  22:11:00     -102.324       97.805      -21.024       25.070       23.255       16.892      628.509      540.797      285.326        1.097        0.073      141.548       12.975        0.008      332.703        1.539      865.002
01/16/2022  22:12:00      -88.518       55.764      -10.759       51.127       31.204       26.500     2613.971      973.702      702.243        0.767        0.214      104.619       24.584        0.055      332.647        1.447      865.008
01/16/2022  22:13:00      -97.177       38.784       -9.966       30.953       34.841       21.892      958.083     1213.879      479.278        0.685        0.133      104.631       18.487        0.031      332.699        1.532      865.006
01/16/2022  22:14:00      -86.013       32.900      -10.931       49.396       29.997       21.446     2439.954      899.794      459.919        0.620        0.190       92.091       26.077        0.080      332.754        1.624      865.009
01/16/2022  22:15:00      -67.206       23.201      -17.917       28.224       27.567       21.512      796.620      759.921      462.765        0.370        0.101       71.098       13.909        0.038      332.745        1.609      865.002
01/16/2022  22:16:00      -38.899       -5.139       -9.442       24.070       21.471       21.856      579.342      460.991      477.694        0.157        0.076       39.237       14.226        0.131      332.754        1.623      865.004
01/16/2022  22:17:00      -28.003        7.981       -2.445       53.738       23.837       23.101     2887.732      568.188      533.673        0.242        0.199       29.118       24.070        0.683      332.776        1.659      865.003
01/16/2022  22:18:00      -34.153       10.683      -18.168       36.531       22.626       16.612     1334.515      511.942      275.959        0.187        0.106       35.785       14.876        0.173      332.762        1.638      865.007
01/16/2022  22:19:00      -17.727       -4.832      -14.955       22.987       22.668       18.658      528.423      513.851      348.135        0.098        0.070       18.373        9.426        0.263      332.779        1.663      865.005
01/16/2022  22:20:00      -16.562        4.028        1.076       26.595       21.440       16.912      707.274      459.691      286.001        0.087        0.073       17.045       12.538        0.541      332.754        1.622      864.993
01/16/2022  22:21:00      -20.916       11.751      -13.700       40.725       37.093       19.220     1658.505     1375.868      369.427        0.208        0.170       23.991       20.611        0.738      332.719        1.564      864.984
01/16/2022  22:22:00      -25.333       -2.069       -8.554       39.409       29.805       19.456     1553.063      888.343      378.550        0.177        0.141       25.418       14.577        0.329      332.681        1.503      864.991
01/16/2022  22:23:00      -11.431       -2.501       -0.969       57.039       29.466       23.135     3253.417      868.264      535.207        0.240        0.233       11.702       25.489        4.745      332.610        1.384      864.997
01/16/2022  22:24:00     -127.093       29.958       -8.918       27.234       21.577       18.104      741.696      465.567      327.761        0.933        0.077      130.576       10.318        0.006      332.550        1.286      864.993
01/16/2022  22:25:00      -71.967       11.428       -8.906       37.307       22.481       22.921     1391.822      505.380      525.385        0.391        0.121       72.869       18.975        0.068      332.639        1.432      865.008
01/16/2022  22:26:00      -77.980       18.957       -6.286       44.888       22.600       19.204     2014.975      510.751      368.779        0.469        0.145       80.251       23.271        0.084      332.602        1.373      865.012
01/16/2022  22:27:00      -78.319       16.269       -8.067       38.795       24.979       20.293     1505.085      623.970      411.792        0.450        0.127       79.990       22.736        0.081      332.593        1.356      865.016
01/16/2022  22:28:00      -30.007        4.823        2.559       25.551       25.002       19.373      652.833      625.106      375.330        0.129        0.083       30.392       12.533        0.170      332.636        1.429      865.028
01/16/2022  22:29:00      -62.131       10.277       -5.206       33.368       19.011       13.510     1113.402      361.419      182.529        0.282        0.083       62.975       15.452        0.060      332.630        1.418      865.027
01/16/2022  22:30:00      -29.258        5.665       -3.843       36.388       15.209       18.173     1324.083      231.316      330.259        0.139        0.094       29.801       21.309        0.511      332.697        1.527      865.029
01/16/2022  22:31:00        2.031        4.235       -8.396       17.862       16.086       12.593      319.061      258.757      158.577        0.041        0.037        4.697        7.637        2.644      332.702        1.536      865.033
01/16/2022  22:32:00       -3.935        2.494       -2.649       21.398       12.733       14.492      457.878      162.118      210.021        0.043        0.042        4.658       11.520        6.115      332.683        1.507      865.030
01/16/2022  22:33:00      -12.663       -1.350      -15.172       22.208       13.756       13.066      493.206      189.230      170.711        0.062        0.043       12.734        7.627        0.359      332.653        1.457      865.038
01/16/2022  22:34:00      -18.453        1.670       -6.097       20.098       28.236       16.062      403.913      797.264      258.000        0.092        0.073       18.529       13.002        0.492      332.682        1.504      865.051
01/16/2022  22:35:00      -30.025        1.597       -7.711       26.313       18.181       15.303      692.375      330.537      234.180        0.111        0.063       30.068       13.171        0.192      332.598        1.366      865.072
01/16/2022  22:36:00        4.468        0.714        4.434       19.978       20.106       14.427      399.130      404.253      208.133        0.053        0.051        4.525       11.774        6.771      332.602        1.372      865.080
01/16/2022  22:37:00      -21.092       -1.368       -0.581       22.385       15.260       13.394      501.079      232.859      179.405        0.068        0.046       21.137        8.968        0.180      332.576        1.328      865.076
01/16/2022  22:38:00      -56.950        5.844       -8.471       22.535       24.078       16.885      507.840      579.766      285.117        0.236        0.069       57.250       10.114        0.031      332.548        1.282      865.064
01/16/2022  22:39:00      -57.226       14.589       -8.373       21.618       17.262       11.806      467.330      297.968      139.376        0.223        0.045       59.056        8.755        0.022      332.475        1.160      865.056
01/16/2022  22:40:00      -65.439       18.876      -15.631       11.572        9.126       11.355      133.910       83.277      128.935        0.261        0.017       68.107        9.132        0.018      332.439        1.103      865.049
01/16/2022  22:41:00      -73.430       20.323      -18.270        8.692       11.395        8.203       75.549      129.851       67.285        0.321        0.014       76.190        2.853        0.001      332.411        1.055      865.053
01/16/2022  22:42:00      -68.609       10.621      -13.863       11.987       15.493        9.524      143.681      240.045       90.713        0.274        0.024       69.427        4.799        0.005      332.445        1.111      865.053
01/16/2022  22:43:00      -70.500       -0.823      -14.050       24.042       14.672        9.744      578.020      215.267       94.950        0.303        0.044       70.505       11.394        0.026      332.500        1.202      865.053
01/16/2022  22:44:00      -55.877        5.765       -8.100       34.173       22.036       11.572     1167.814      485.605      133.920        0.250        0.089       56.173       13.880        0.061      332.473        1.158      865.060
01/16/2022  22:45:00      -53.552        2.484       -2.361       27.351       19.974       18.102      748.064      398.963      327.668        0.218        0.074       53.610       17.546        0.107      332.495        1.194      865.061
01/16/2022  22:46:00      -37.672        9.048       -5.399       26.734       18.267       14.920      714.696      333.698      222.606        0.140        0.064       38.743       13.241        0.117      332.487        1.182      865.068
01/16/2022  22:47:00      -16.228        3.566        3.833       21.181       19.162       12.499      448.622      367.188      156.216        0.063        0.049       16.615        8.931        0.289      332.476        1.162      865.072
01/16/2022  22:48:00      -60.898        6.852       -2.557       34.800       24.373       18.279     1211.017      594.050      334.122        0.295        0.107       61.282       13.436        0.048      332.413        1.060      865.073
01/16/2022  22:49:00      -47.171       -8.895      -10.125       17.308       23.678       17.114      299.566      560.649      292.896        0.178        0.058       48.002       14.420        0.090      332.444        1.111      865.057
01/16/2022  22:50:00      -41.696      -11.729       -5.035       30.290       26.126       20.721      917.467      682.592      429.350        0.197        0.101       43.314       12.993        0.090      332.396        1.031      865.054
01/16/2022  22:51:00      -26.080       -4.624       -6.234       24.375       34.378       16.680      594.140     1181.853      278.238        0.140        0.103       26.487       17.274        0.425      332.430        1.087      865.028
01/16/2022  22:52:00      -38.579        9.569       -4.503       25.666       22.044       15.146      658.762      485.938      229.396        0.149        0.069       39.748       10.519        0.070      332.383        1.008      865.016
01/16/2022  22:53:00      -70.190        7.459      -16.726       18.216       22.553       10.676      331.839      508.625      113.971        0.311        0.048       70.585        6.152        0.008      332.305        0.881      865.002
01/16/2022  22:54:00      -70.367        7.332      -11.547       22.575       19.525       16.057      509.621      381.217      257.829        0.314        0.057       70.748       12.687        0.032      332.300        0.872      864.917
01/16/2022  22:55:00      -58.966        1.669       -4.658       32.326       18.226       11.436     1044.945      332.204      130.778        0.250        0.075       58.989       10.555        0.032      332.346        0.948      864.904
01/16/2022  22:56:00      -30.802       -7.203       -1.132       21.450       24.268       16.898      460.088      588.919      285.558        0.117        0.067       31.633       11.537        0.133      332.397        1.033      864.907
01/16/2022  22:57:00      -78.429       19.824       -6.646       23.670       17.091       12.961      560.255      292.114      167.984        0.380        0.051       80.896        9.016        0.012      332.295        0.864      864.909
01/16/2022  22:58:00      -48.667        5.426       -3.346       40.075       23.769       22.374     1606.020      564.957      500.603        0.254        0.134       48.969       16.411        0.112      332.303        0.876      864.924
01/16/2022  22:59:00      -89.599       18.848       -4.682       23.236       19.118       17.084      539.912      365.490      291.873        0.480        0.060       91.560       13.593        0.022      332.316        0.899      864.936
01/16/2022  23:00:00      -76.557       13.098       -5.182       44.029       26.212       16.268     1938.564      687.056      264.662        0.447        0.145       77.670       14.758        0.036      332.305        0.882      864.932
01/16/2022  23:01:00      -72.298       -2.858       -0.360       40.601       26.502       18.742     1648.409      702.348      351.273        0.397        0.135       72.354       18.682        0.067      332.297        0.868      864.930
01/16/2022  23:02:00      -47.242        6.167       -0.032       36.146       29.187       18.775     1306.540      851.885      352.496        0.239        0.126       47.643       15.609        0.107      332.268        0.818      864.922
01/16/2022  23:03:00      -46.445        5.375      -12.289       41.261       21.415       14.929     1702.469      458.619      222.869        0.236        0.119       46.755       19.130        0.167      332.198        0.704      864.917
01/16/2022  23:04:00      -37.367        3.119       -7.621       32.071       17.869       10.370     1028.565      319.311      107.527        0.146        0.073       37.497       10.382        0.077      332.299        0.871      864.910
01/16/2022  23:05:00       -4.392       -2.129       -4.413        7.471       13.436        7.083       55.810      180.529       50.173        0.016        0.014        4.881        1.934        0.157      332.212        0.729      864.907
01/16/2022  23:06:00      -12.765       -1.075       -5.253       12.140       15.005        8.811      147.392      225.135       77.630        0.032        0.023       12.810        6.314        0.243      332.340        0.937      864.913
01/16/2022  23:07:00      -15.269        1.512       -5.561       15.294       14.008       14.705      233.900      196.234      216.249        0.046        0.032       15.344       10.233        0.445      332.339        0.936      864.920
01/16/2022  23:08:00        0.033       -3.084        1.362       33.727       12.085       10.265     1137.501      146.049      105.369        0.070        0.069        3.084       13.686       19.692      332.351        0.958      864.929
01/16/2022  23:09:00      -52.262       -4.402       -4.946       27.716       23.569       14.842      768.156      555.487      220.284        0.216        0.077       52.447        9.011        0.030      332.316        0.899      864.932
01/16/2022  23:10:00      -52.816        0.578       -7.487       39.584       19.364       17.290     1566.863      374.974      298.943        0.254        0.112       52.820       15.904        0.091      332.313        0.893      864.936
01/16/2022  23:11:00      -94.140       15.990       -5.289       33.416       23.481       17.156     1116.615      551.335      294.329        0.555        0.098       95.488       12.310        0.017      332.284        0.846      864.948
01/16/2022  23:12:00      -46.955        2.413        1.325       31.346       22.289       14.878      982.590      496.792      221.362        0.196        0.085       47.017       11.699        0.062      332.329        0.919      864.963
01/16/2022  23:13:00      -42.359        9.560       -6.659       25.757       15.830        8.952      663.426      250.603       80.137        0.146        0.050       43.424        9.079        0.044      332.237        0.769      864.973
01/16/2022  23:14:00      -21.108       13.745       -7.794       16.312       16.060        8.860      266.091      257.935       78.500        0.065        0.030       25.189        7.181        0.081      332.255        0.797      864.971
01/16/2022  23:15:00       -2.328        7.276       -9.719        7.925        6.806        8.269       62.803       46.323       68.370        0.017        0.009        7.639        5.911        0.599      332.233        0.763      864.970
01/16/2022  23:16:00        6.487       11.603       -3.747        5.079        7.419        5.888       25.793       55.043       34.670        0.015        0.006       13.293        4.842        0.133      332.305        0.880      864.970
01/16/2022  23:17:00       -3.312       -3.505       -8.578        8.822        6.402       10.230       77.824       40.983      104.649        0.016        0.011        4.823        6.812        1.995      332.361        0.972      864.960
01/16/2022  23:18:00      -18.844      -13.719      -10.087       14.208       14.646       11.138      201.877      214.513      124.062        0.059        0.027       23.309        9.543        0.168      332.364        0.976      864.961
01/16/2022  23:19:00       -7.627        5.297       -8.209       14.434       12.078        9.050      208.327      145.889       81.905        0.029        0.022        9.286        7.519        0.656      332.344        0.943      864.954
01/16/2022  23:20:00       -6.746       -1.375       -2.742       18.906       14.714       13.393      357.431      216.508      179.361        0.040        0.038        6.885        6.393        0.862      332.278        0.835      864.943
01/16/2022  23:21:00      -54.271      -18.327       -5.549       41.332       23.256       16.213     1708.301      540.831      262.866        0.291        0.126       57.282       11.197        0.038      332.288        0.852      864.925
01/16/2022  23:22:00      -47.690        5.920        4.040       40.889       25.717       20.075     1671.946      661.357      402.989        0.253        0.137       48.056       14.658        0.093      332.190        0.690      864.915
01/16/2022  23:23:00      -70.013       -7.358       -6.052       39.024       30.020       25.352     1522.871      901.218      642.722        0.403        0.153       70.399       21.196        0.091      332.134        0.598      864.891
01/16/2022  23:24:00      -50.811        1.547       -0.693       45.526       25.219       23.566     2072.646      636.000      555.339        0.292        0.163       50.834       21.344        0.176      332.089        0.524      864.865
01/16/2022  23:25:00      -59.632       22.015       -1.712       31.290       22.672       18.509      979.078      514.022      342.570        0.294        0.092       63.566        8.520        0.018      332.131        0.594      864.839
01/16/2022  23:26:00      -25.576       -9.159       -7.214       34.596       24.561       17.873     1196.852      603.227      319.442        0.145        0.106       27.167       14.526        0.286      332.169        0.655      864.822
01/16/2022  23:27:00      -44.121       14.249       -6.137       26.339       19.649       14.248      693.735      386.088      203.000        0.173        0.064       46.365       10.114        0.048      332.163        0.645      864.801
01/16/2022  23:28:00      -70.334       11.598      -14.997       21.204       19.055       13.436      449.624      363.104      180.539        0.315        0.050       71.283        6.095        0.007      332.127        0.588      864.778
01/16/2022  23:29:00      -76.344       20.340       -6.754       27.240       19.872       11.826      742.026      394.887      139.849        0.378        0.064       79.007       10.143        0.016      332.085        0.519      864.769
01/16/2022  23:30:00      -17.403       13.183        9.261       34.386       23.234       17.106     1182.406      539.817      292.630        0.129        0.101       21.832       20.034        0.842      332.090        0.526      864.758
01/16/2022  23:31:00      -30.478       -1.743        1.632       40.450       16.922       14.885     1636.179      286.338      221.554        0.154        0.107       30.528       18.770        0.378      332.164        0.648      864.755
01/16/2022  23:32:00      -34.768      -10.539       -4.672       21.722       21.792       13.506      471.841      474.893      182.417        0.124        0.056       36.331        7.592        0.044      332.222        0.744      864.749
01/16/2022  23:33:00      -52.249        8.559        1.594       30.744       21.600       14.624      945.164      466.542      213.863        0.222        0.081       52.945       11.749        0.049      332.201        0.710      864.747
01/16/2022  23:34:00      -39.882       13.365       -8.666       29.930       18.440       15.999      895.783      340.029      255.957        0.167        0.075       42.062        6.441        0.023      332.152        0.628      864.741
01/16/2022  23:35:00       -2.006      -10.393       -3.505       12.536       17.285       12.632      157.156      298.772      159.575        0.037        0.031       10.585        4.816        0.207      332.140        0.609      864.738
01/16/2022  23:36:00      -21.378       -7.904       -4.893       17.846       12.484        9.891      318.488      155.850       97.822        0.056        0.029       22.792        6.027        0.070      332.137        0.602      864.752
01/16/2022  23:37:00      -10.748        4.895       -1.072       12.551       14.905        8.932      157.523      222.172       79.776        0.030        0.023       11.811        6.089        0.266      332.084        0.515      864.748
01/16/2022  23:38:00      -27.233       10.027      -12.493       32.357       16.722       13.698     1046.972      279.613      187.641        0.126        0.076       29.020       10.301        0.126      332.038        0.441      864.745
01/16/2022  23:39:00      -55.562        8.402       -3.849       23.047       19.946       16.583      531.154      397.824      274.991        0.219        0.060       56.193       14.451        0.066      332.031        0.431      864.745
01/16/2022  23:40:00      -24.020        3.112       -0.990       22.582       17.535       14.175      509.939      307.472      200.943        0.080        0.051       24.221        9.065        0.140      332.092        0.530      864.731
01/16/2022  23:41:00      -44.590        3.710       -4.356       30.367       20.360       18.533      922.157      414.521      343.456        0.185        0.084       44.744       18.776        0.176      332.019        0.410      864.718
01/16/2022  23:42:00      -43.409        4.107       -2.409       34.468       18.613       17.543     1188.052      346.457      307.750        0.187        0.092       43.603       19.863        0.208      331.985        0.353      864.713
01/16/2022  23:43:00      -58.502        4.386       -5.780       43.646       23.164       16.349     1904.986      536.551      267.274        0.309        0.135       58.667       16.031        0.075      332.096        0.536      864.710
01/16/2022  23:44:00      -78.482        3.951      -10.831       40.896       27.226       22.461     1672.483      741.254      504.488        0.460        0.146       78.581       21.498        0.075      332.031        0.429      864.722
01/16/2022  23:45:00      -90.245       21.177       -4.389       32.891       24.121       22.596     1081.817      581.800      510.572        0.539        0.109       92.696       19.868        0.046      331.971        0.331      864.721
01/16/2022  23:46:00      -82.653       26.364       -9.158       25.951       20.090       22.488      673.457      403.601      505.710        0.460        0.079       86.755       16.535        0.036      331.970        0.329      864.727
01/16/2022  23:47:00      -91.937       16.244       -7.910       25.265       21.734       16.506      638.306      472.381      272.446        0.508        0.069       93.361       12.439        0.018      331.959        0.312      864.730
01/16/2022  23:48:00      -51.946        0.316       -8.064       48.473       32.858       16.601     2349.623     1079.648      275.583        0.323        0.185       51.947       16.003        0.095      331.977        0.342      864.748
01/16/2022  23:49:00      -60.594        5.244       -3.490       35.633       19.169       15.921     1269.701      367.458      253.487        0.280        0.095       60.820       12.208        0.040      331.995        0.370      864.765
01/16/2022  23:50:00      -90.047       17.050       -4.433       28.171       22.419       17.146      793.594      502.627      293.998        0.500        0.080       91.647       12.926        0.020      331.959        0.311      864.761
01/16/2022  23:51:00      -49.928       -2.246       -0.446       32.563       24.701       20.238     1060.348      610.140      409.586        0.229        0.104       49.979       22.356        0.200      332.037        0.439      864.771
01/16/2022  23:52:00      -44.084       -2.402       -1.216       29.584       28.641       22.022      875.218      820.302      484.983        0.207        0.109       44.149       16.479        0.139      332.029        0.425      864.785
01/16/2022  23:53:00      -27.235        1.694        3.298       46.463       23.757       23.146     2158.800      564.399      535.736        0.201        0.163       27.288       24.083        0.779      331.986        0.356      864.792
01/16/2022  23:54:00      -49.405        6.123       -1.255       44.051       23.020       14.950     1940.519      529.899      223.501        0.259        0.135       49.783       16.833        0.114      331.957        0.308      864.797
01/16/2022  23:55:00      -55.670       17.145      -12.386       26.718       17.788       15.518      713.851      316.396      240.807        0.241        0.064       58.251        9.212        0.025      331.952        0.300      864.783
01/16/2022  23:56:00      -46.663       13.083      -12.603       22.752       13.871       12.085      517.676      192.391      146.049        0.168        0.043       48.462        5.149        0.011      331.907        0.225      864.765
01/16/2022  23:57:00      -28.970        3.950       -5.486       22.078       11.595       12.142      487.428      134.447      147.418        0.083        0.038       29.238       12.593        0.186      331.954        0.302      864.751
01/16/2022  23:58:00      -34.112       10.003       -9.969       12.305       15.674       12.838      151.415      245.689      164.805        0.096        0.028       35.548        9.304        0.068      331.925        0.254      864.737
01/16/2022  23:59:00      -38.520       13.037      -11.824        8.466        7.732        5.449       71.677       59.787       29.690        0.098        0.008       40.666        4.372        0.012      331.845        0.126      864.731
01/17/2022  00:00:00      -30.051       13.414      -13.164       13.984        6.246        3.290      195.552       39.009       10.827        0.075        0.012       32.909        2.310        0.005      331.898        0.209      864.724
01/17/2022  00:01:00       16.383       12.429       -4.569        9.774        6.460        5.711       95.522       41.733       32.618        0.031        0.008       20.564        2.484        0.015      332.008        0.393      864.710
01/17/2022  00:02:00       25.454       18.599       -5.316       12.442       11.761        6.585      154.807      138.310       43.365        0.068        0.017       31.525        7.189        0.052      332.005        0.386      864.686
01/17/2022  00:03:00       16.048       25.046       -7.639       17.853       14.727       12.559      318.747      216.878      157.730        0.082        0.035       29.746       12.642        0.181      331.982        0.347      864.669
01/17/2022  00:04:00       16.023       45.522       -4.508       16.927       14.996       10.804      286.522      224.870      116.732        0.149        0.031       48.260        9.369        0.038      332.038        0.441      864.648
01/17/2022  00:05:00       16.448       41.341       -4.177       12.178       11.886       11.144      148.293      141.276      124.193        0.121        0.021       44.493        7.005        0.025      332.040        0.443      864.633
01/17/2022  00:06:00       11.288       61.909       -9.669       16.179       20.491       10.734      261.766      419.894      115.219        0.243        0.040       62.930        8.659        0.019      332.113        0.564      864.628
01/17/2022  00:07:00      -31.334       14.316      -10.762       18.813       17.477       12.341      353.916      305.450      152.303        0.106        0.041       34.450        9.711        0.079      331.878        0.176      864.622
01/17/2022  00:08:00      -35.206        9.781      -10.468       26.897       14.248       10.479      723.458      203.019      109.802        0.124        0.052       36.540       10.472        0.082      331.745       -0.042      864.614
01/17/2022  00:09:00        4.455        5.054       -1.431        7.339        4.717        5.383       53.866       22.246       28.976        0.008        0.005        6.737        2.021        0.090      331.709       -0.103      864.604
01/17/2022  00:10:00        4.079        4.610       -5.968        8.015        7.947       10.101       64.232       63.161      102.029        0.015        0.011        6.156        4.567        0.550      331.798        0.045      864.595
01/17/2022  00:11:00       12.961       39.474       -6.758       17.902       31.229        9.496      320.495      975.274       90.178        0.158        0.069       41.547        9.354        0.051      332.006        0.389      864.602
01/17/2022  00:12:00        7.778       17.103        1.517       14.756       21.190       10.410      217.732      449.032      108.377        0.057        0.039       18.789        6.956        0.137      332.059        0.474      864.602
01/17/2022  00:13:00       22.017       31.517       -4.836       24.524       16.453       12.435      601.405      270.715      154.628        0.126        0.051       38.446        6.511        0.029      331.975        0.337      864.610
01/17/2022  00:14:00       35.082       25.572       -5.858       18.589       26.426       13.751      345.557      698.335      189.078        0.158        0.062       43.413       14.471        0.111      332.070        0.494      864.611
01/17/2022  00:15:00       15.617       -7.864        5.631       20.436       17.145       13.134      417.648      293.942      172.500        0.061        0.044       17.486       13.014        0.554      331.984        0.352      864.613
01/17/2022  00:16:00      -22.788       11.195       -4.472        9.330       16.004        9.055       87.048      256.129       81.986        0.054        0.021       25.390        8.126        0.102      331.804        0.058      864.616
01/17/2022  00:17:00      -37.817       13.210       -6.090       13.710       13.069        9.452      187.957      170.794       89.348        0.104        0.022       40.058        3.804        0.009      331.723       -0.078      864.616
01/17/2022  00:18:00      -33.443       12.524       -9.295       15.191        8.892       10.155      230.775       79.063      103.129        0.089        0.021       35.711        7.293        0.042      331.698       -0.119      864.607
01/17/2022  00:19:00       -9.149        4.792      -10.639       11.775       12.098       10.600      138.646      146.352      112.360        0.031        0.020       10.328        6.164        0.356      331.679       -0.149      864.600
01/17/2022  00:20:00       -5.620      -15.501       -3.990       11.748       13.099        8.959      138.021      171.588       80.256        0.034        0.019       16.489        7.293        0.196      331.724       -0.075      864.603
01/17/2022  00:21:00      -11.033       -1.898       -9.543       22.002       13.329       12.581      484.096      177.675      158.275        0.052        0.041       11.195       11.962        1.142      331.746       -0.040      864.594
01/17/2022  00:22:00      -15.458       -5.746      -12.236       32.513       18.500       18.819     1057.116      342.263      354.171        0.109        0.088       16.491       18.104        1.205      331.671       -0.163      864.598
01/17/2022  00:23:00      -40.095        6.165      -11.285       24.507       19.116       18.733      600.617      365.424      350.928        0.154        0.066       40.567       16.971        0.175      331.647       -0.203      864.583
01/17/2022  00:24:00       -2.709        5.677       -4.869       17.065       11.513       13.483      291.209      132.544      181.780        0.033        0.030        6.290        8.531        1.840      331.585       -0.306      864.567
01/17/2022  00:25:00       -3.828       10.757       -6.136       11.275        9.137        9.961      127.121       83.486       99.221        0.024        0.015       11.418        2.728        0.057      331.601       -0.279      864.546
01/17/2022  00:26:00        6.047       -3.853       -4.566        6.509        6.226        5.845       42.366       38.763       34.165        0.009        0.006        7.171        1.647        0.053      331.616       -0.254      864.534
01/17/2022  00:27:00        1.586       -6.399      -13.212       12.275       16.213       10.646      150.679      262.864      113.337        0.037        0.026        6.593        6.490        0.969      331.829        0.098      864.523
01/17/2022  00:28:00       -2.003       -5.928       -9.249       15.726       10.360       13.984      247.300      107.323      195.548        0.034        0.028        6.257       10.325        2.723      331.861        0.150      864.513
01/17/2022  00:29:00       -7.234       -3.691       -6.506        9.033       10.102        5.830       81.593      102.049       33.990        0.016        0.011        8.121        3.141        0.150      331.850        0.132      864.500
01/17/2022  00:30:00        1.388      -14.069      -10.365        7.108        8.898        6.726       50.530       79.173       45.236        0.024        0.009       14.137        2.890        0.042      331.964        0.318      864.489
01/17/2022  00:31:00       -1.499      -25.409      -12.291        8.519       11.177        8.401       72.569      124.934       70.576        0.053        0.013       25.453        5.177        0.041      331.978        0.343      864.471
01/17/2022  00:32:00       -2.678       15.979       -1.924        8.167       20.458       15.127       66.702      418.534      228.837        0.049        0.036       16.202       13.975        0.744      332.013        0.398      864.459
01/17/2022  00:33:00        1.266       19.123        3.494       10.711       15.278       11.091      114.721      233.425      123.006        0.043        0.024       19.165        9.571        0.249      331.920        0.247      864.452
01/17/2022  00:34:00      -25.256       10.623       -8.885       15.058       13.942        9.202      226.753      194.392       84.669        0.067        0.025       27.399        8.128        0.088      331.709       -0.099      864.446
01/17/2022  00:35:00      -12.092       -4.075       -1.539       14.569       11.757        7.920      212.245      138.223       62.720        0.029        0.021       12.760        5.096        0.160      331.765       -0.007      864.446
01/17/2022  00:36:00      -22.400      -10.399       -5.110       12.404       13.209        7.408      153.851      174.473       54.879        0.051        0.019       24.696        4.621        0.035      331.791        0.035      864.444
01/17/2022  00:37:00      -11.699       -7.845       -3.929       15.523       10.599       10.790      240.972      112.347      116.417        0.034        0.023       14.086        8.790        0.389      331.888        0.194      864.435
01/17/2022  00:38:00       -1.029       -9.616      -11.683        8.186        8.956        7.179       67.013       80.205       51.541        0.021        0.010        9.671        2.493        0.066      331.908        0.226      864.424
01/17/2022  00:39:00       -3.202      -19.599       -7.987       11.242       13.866        7.479      126.376      192.275       55.941        0.042        0.019       19.859        4.390        0.049      331.955        0.303      864.412
01/17/2022  00:40:00        5.483      -15.003      -15.874        6.663        9.073        6.052       44.402       82.317       36.626        0.034        0.008       15.974        3.702        0.054      331.996        0.372      864.401
01/17/2022  00:41:00       -5.278      -10.720       -4.697       11.293        6.253        5.791      127.523       39.105       33.537        0.018        0.010       11.949        4.557        0.145      332.071        0.495      864.384
01/17/2022  00:42:00       -4.450        4.285       -9.402        7.012        5.916        7.170       49.164       35.002       51.410        0.013        0.007        6.178        5.008        0.657      331.898        0.210      864.378
01/17/2022  00:43:00      -26.152        1.136       -4.933       18.480       14.569        8.663      341.526      212.258       75.052        0.067        0.031       26.177        7.739        0.087      331.772        0.003      864.365
01/17/2022  00:44:00      -43.347       12.981       -5.288        9.269       15.038        8.563       85.920      226.133       73.321        0.123        0.019       45.249        7.031        0.024      331.748       -0.036      864.351
01/17/2022  00:45:00      -43.687       25.324       -6.110       12.507       17.067        7.961      156.418      291.286       63.375        0.155        0.026       50.496        4.948        0.010      331.709       -0.102      864.333
01/17/2022  00:46:00      -31.226       11.317       -1.864       21.909       10.947        8.130      480.010      119.843       66.100        0.089        0.033       33.213        7.966        0.058      331.662       -0.178      864.317
01/17/2022  00:47:00      -18.460        0.329       -7.697        9.122        7.693        7.622       83.204       59.177       58.102        0.030        0.010       18.463        3.604        0.038      331.793        0.038      864.307
01/17/2022  00:48:00       -3.530        4.652       -6.182        7.737        7.642        3.856       59.864       58.394       14.868        0.010        0.007        5.840        1.600        0.075      331.776        0.012      864.301
01/17/2022  00:49:00      -10.401       -4.665       -2.487        6.459       11.599        6.630       41.723      134.533       43.954        0.018        0.011       11.399        6.569        0.332      331.795        0.042      864.288
01/17/2022  00:50:00       -3.866      -12.600       -8.286        9.327        7.921        5.889       86.988       62.738       34.685        0.021        0.009       13.179        5.302        0.162      331.915        0.238      864.285
01/17/2022  00:51:00       -4.065       -7.062       -0.194        5.963        9.309        5.938       35.557       86.657       35.260        0.011        0.008        8.149        2.662        0.107      331.882        0.185      864.281
01/17/2022  00:52:00      -12.360        2.874       -8.275        8.850       12.580        6.777       78.316      158.267       45.927        0.026        0.014       12.690        5.918        0.217      331.739       -0.051      864.290
01/17/2022  00:53:00       -4.262        1.365       -3.854       14.052        9.512        6.565      197.462       90.474       43.097        0.018        0.017        4.475        4.703        1.104      331.709       -0.103      864.301
01/17/2022  00:54:00       -2.919       -7.624      -10.408        6.436        8.714        5.201       41.428       75.928       27.055        0.016        0.007        8.164        3.517        0.186      331.726       -0.072      864.311
01/17/2022  00:55:00        2.891      -21.695      -12.888       11.946       10.705        8.504      142.700      114.594       72.319        0.049        0.016       21.887        6.264        0.082      331.830        0.099      864.324
01/17/2022  00:56:00       -0.232      -21.386      -12.664        8.862        7.231        9.803       78.535       52.288       96.103        0.042        0.011       21.388        6.824        0.102      331.808        0.063      864.336
01/17/2022  00:57:00      -29.642      -17.816      -11.918       12.846        8.833        9.269      165.018       78.020       85.918        0.083        0.016       34.584        5.224        0.023      331.778        0.014      864.352
01/17/2022  00:58:00      -27.748      -21.393      -12.840       16.499       10.541        8.303      272.228      111.103       68.942        0.092        0.023       35.038        4.005        0.013      331.686       -0.138      864.369
01/17/2022  00:59:00      -39.298       -7.486       -4.758       24.273       20.529       13.942      589.156      421.449      194.377        0.141        0.060       40.005       12.625        0.100      331.600       -0.280      864.375
01/17/2022  01:00:00      -51.027       -5.264      -12.253       30.655       20.555       18.734      939.750      422.498      350.972        0.225        0.086       51.298       13.505        0.069      331.552       -0.359      864.377
01/17/2022  01:01:00      -70.425       -3.709       -6.368       42.538       24.335       24.609     1809.508      592.189      605.588        0.401        0.150       70.522       26.153        0.138      331.661       -0.179      864.383
01/17/2022  01:02:00      -18.823       -9.082       -2.595       16.279       18.861       14.090      265.009      355.722      198.527        0.063        0.041       20.899        9.597        0.211      331.694       -0.124      864.376
01/17/2022  01:03:00      -23.891      -14.763       -2.073       20.951       21.611       14.260      438.925      467.042      203.336        0.095        0.055       28.084        7.237        0.066      331.700       -0.115      864.352
01/17/2022  01:04:00        3.822       -5.439       -8.141       14.504       18.272        9.612      210.373      333.866       92.386        0.037        0.032        6.648        6.646        0.999      331.700       -0.115      864.324
01/17/2022  01:05:00      -28.060        1.373      -11.459       19.751       18.019        9.771      390.096      324.670       95.471        0.087        0.041       28.093        7.222        0.066      331.693       -0.126      864.289
01/17/2022  01:06:00      -47.142       17.300       -6.751       20.739       14.115       12.885      430.107      199.234      166.021        0.168        0.040       50.216        9.065        0.033      331.623       -0.243      864.266
01/17/2022  01:07:00      -36.434        6.081       -9.071       31.132       10.796       14.245      969.215      116.554      202.933        0.137        0.064       36.938       15.693        0.180      331.568       -0.334      864.259
01/17/2022  01:08:00      -50.030       10.842       -2.842       42.230       23.272       17.231     1783.389      541.601      296.897        0.262        0.131       51.191       15.079        0.087      331.520       -0.412      864.254
01/17/2022  01:09:00      -71.196       -3.653       -6.680       36.212       25.731       17.532     1311.321      662.106      307.354        0.370        0.114       71.289       15.518        0.047      331.564       -0.340      864.257
01/17/2022  01:10:00      -62.705        5.187       -4.523       32.170       25.840       19.501     1034.892      667.685      380.273        0.303        0.104       62.920       19.025        0.091      331.512       -0.426      864.245
01/17/2022  01:11:00      -84.365       20.624      -13.372       25.525       25.716       16.208      651.521      661.328      262.701        0.465        0.079       86.849       11.107        0.016      331.466       -0.502      864.245
01/17/2022  01:12:00      -78.843       10.690       -5.597       40.208       20.876       17.374     1616.705      435.793      301.857        0.436        0.118       79.564       12.059        0.023      331.419       -0.580      864.236
01/17/2022  01:13:00      -76.958        5.311       -6.421       39.606       27.808       16.649     1568.605      773.291      277.193        0.431        0.131       77.142       12.271        0.025      331.481       -0.478      864.225
01/17/2022  01:14:00      -64.253        2.595       -6.288       39.790       23.904       22.789     1583.261      571.389      519.356        0.342        0.134       64.305       22.124        0.118      331.484       -0.472      864.208
01/17/2022  01:15:00      -64.163       10.168       -3.904       24.410       22.985       15.696      595.828      528.291      246.362        0.280        0.069       64.964       14.745        0.052      331.455       -0.520      864.173
01/17/2022  01:16:00      -77.704       19.294       -5.372       22.400       17.989       13.706      501.755      323.613      187.854        0.373        0.051       80.064        9.136        0.013      331.383       -0.638      864.141
01/17/2022  01:17:00      -91.291       22.775       -9.175       27.721       20.704       19.100      768.468      428.665      364.798        0.525        0.078       94.089       11.730        0.016      331.421       -0.576      864.113
01/17/2022  01:18:00      -78.098       24.547      -13.475       26.709       23.876       18.138      713.349      570.082      328.981        0.425        0.081       81.865       16.864        0.042      331.388       -0.631      864.086
01/17/2022  01:19:00      -97.098       29.970      -20.501       18.765       23.167       13.098      352.121      536.727      171.547        0.590        0.053      101.618        8.089        0.006      331.418       -0.582      864.066
01/17/2022  01:20:00      -89.484       16.006      -10.542       20.252       18.790       16.361      410.134      353.054      267.677        0.470        0.052       90.904       10.857        0.014      331.358       -0.679      864.057
01/17/2022  01:21:00      -78.716       10.867      -15.403       31.962       24.404       18.598     1021.595      595.542      345.891        0.426        0.098       79.462       14.785        0.035      331.338       -0.711      864.041
01/17/2022  01:22:00      -82.843       17.283      -13.303       34.297       19.476       12.241     1176.269      379.309      149.833        0.452        0.085       84.627        9.594        0.013      331.325       -0.732      864.028
01/17/2022  01:23:00      -19.966       10.662       -8.313       43.544       21.808       19.696     1896.101      475.586      387.931        0.167        0.138       22.635       23.774        1.103      331.341       -0.707      864.023
01/17/2022  01:24:00      -36.753       -2.835      -10.901       31.299       20.028       17.276      979.617      401.103      298.463        0.158        0.084       36.862       15.235        0.171      331.407       -0.600      864.019
01/17/2022  01:25:00      -44.149       14.531       -6.642       44.054       20.899       12.704     1940.792      436.749      161.393        0.237        0.127       46.479       16.046        0.119      331.290       -0.790      864.031
01/17/2022  01:26:00      -74.411       12.096      -14.566       16.190       20.402       12.528      262.119      416.242      156.940        0.337        0.042       75.387        8.884        0.014      331.374       -0.652      864.036
01/17/2022  01:27:00      -17.695        6.468        4.617       23.542       19.424       15.163      554.231      377.295      229.903        0.077        0.058       18.840       13.728        0.531      331.421       -0.575      864.053
01/17/2022  01:28:00      -12.597       14.780       -4.865       19.606       18.971       12.594      384.412      359.880      158.607        0.065        0.045       19.420       10.309        0.282      331.416       -0.583      864.064
01/17/2022  01:29:00      -49.404        8.455      -10.949       28.037       21.231       14.431      786.056      450.745      208.240        0.204        0.072       50.122       10.882        0.047      331.348       -0.696      864.074
01/17/2022  01:30:00      -61.548        8.297       -7.848       24.073       16.712       15.336      579.521      279.306      235.180        0.251        0.055       62.105       12.487        0.040      331.360       -0.676      864.087
01/17/2022  01:31:00      -50.647       12.568       -3.022       24.917       23.634       17.876      620.838      558.588      319.545        0.212        0.075       52.183       15.373        0.087      331.406       -0.601      864.107
01/17/2022  01:32:00      -31.304       -4.781       -3.859       32.114       21.301       20.848     1031.309      453.724      434.633        0.147        0.096       31.667       16.762        0.280      331.411       -0.591      864.118
01/17/2022  01:33:00      -10.722        5.028       -2.376       25.094       25.779       15.228      629.708      664.553      231.893        0.084        0.076       11.842       10.714        0.818      331.425       -0.569      864.117
01/17/2022  01:34:00      -30.885      -10.538       -2.595       34.356       18.777       21.602     1180.351      352.582      466.641        0.154        0.100       32.633       15.367        0.222      331.447       -0.531      864.116
01/17/2022  01:35:00      -42.821       -8.018        3.453       34.630       27.178       22.922     1199.210      738.638      525.441        0.219        0.123       43.565       15.571        0.128      331.423       -0.572      864.111
01/17/2022  01:36:00      -60.520        1.587       -0.249       47.893       28.563       21.919     2293.779      815.860      480.461        0.363        0.180       60.541       25.020        0.171      331.335       -0.716      864.115
01/17/2022  01:37:00      -16.780       -8.180        3.861       35.539       28.117       19.104     1263.018      790.561      364.972        0.139        0.121       18.668       11.936        0.409      331.425       -0.568      864.108
01/17/2022  01:38:00      -46.145       -7.570       -7.670       49.161       35.541       20.313     2416.759     1263.194      412.630        0.317        0.205       46.762       15.186        0.105      331.287       -0.796      864.098
01/17/2022  01:39:00        1.705       -0.503        9.466       26.930       22.099       21.929      725.251      488.386      480.884        0.089        0.085        1.777       17.052       92.038      331.263       -0.834      864.094
01/17/2022  01:40:00      -13.765       -9.440      -16.057       25.815       20.514       10.636      666.415      420.811      113.125        0.087        0.060       16.691        7.674        0.211      331.364       -0.668      864.087
01/17/2022  01:41:00      -47.668       10.032       -9.722       34.247       17.679       14.701     1172.853      312.545      216.129        0.208        0.085       48.713       14.303        0.086      331.295       -0.780      864.083
01/17/2022  01:42:00      -50.169       -1.581       -0.243       49.352       21.086       19.688     2435.650      444.599      387.604        0.289        0.163       50.194       23.519        0.220      331.214       -0.915      864.085
01/17/2022  01:43:00      -41.179        4.875       -2.465       37.490       26.108       19.932     1405.470      681.642      397.304        0.210        0.124       41.466        8.954        0.047      331.180       -0.969      864.086
01/17/2022  01:44:00      -28.624        8.674        0.720       26.093       23.545       18.553      680.867      554.363      344.223        0.124        0.079       29.910       12.037        0.162      331.131       -1.052      864.089
01/17/2022  01:45:00      -59.632        7.146       -4.742       38.176       24.878       26.109     1457.370      618.930      681.703        0.319        0.138       60.059       16.896        0.079      331.215       -0.912      864.077
01/17/2022  01:46:00      -53.365       -6.943       -1.055       35.033       26.243       18.869     1227.304      688.681      356.038        0.258        0.114       53.815       17.086        0.101      331.358       -0.679      864.065
01/17/2022  01:47:00      -53.862       -0.510       -1.322       37.991       24.689       23.981     1443.306      609.555      575.086        0.277        0.131       53.864       20.085        0.139      331.312       -0.754      864.053
01/17/2022  01:48:00       -6.533       -4.871        0.940       24.165       23.021       16.834      583.929      529.971      283.392        0.073        0.070        8.149       15.130        3.447      331.264       -0.831      864.030
01/17/2022  01:49:00      -40.678       10.964        9.556       42.234       21.069       20.467     1783.678      443.904      418.917        0.226        0.132       42.129       22.203        0.278      331.242       -0.868      864.014
01/17/2022  01:50:00      -68.310       15.871       -4.774       41.153       24.634       18.014     1693.548      606.812      324.514        0.378        0.131       70.129       14.688        0.044      331.138       -1.039      864.000
01/17/2022  01:51:00      -92.889       24.358       -7.516       32.669       29.133       21.694     1067.248      848.706      470.625        0.583        0.119       96.030       19.041        0.039      331.106       -1.092      863.986
01/17/2022  01:52:00     -128.684       38.139      -14.223       22.199       21.103       16.188      492.817      445.336      262.041        0.971        0.060      134.216       14.397        0.012      331.012       -1.249      863.983
01/17/2022  01:53:00     -106.654       27.199      -11.662       27.663       25.613       15.688      765.258      656.014      246.117        0.696        0.083      110.068        7.455        0.005      331.055       -1.176      863.977
01/17/2022  01:54:00     -100.170       40.749      -13.917       39.300       24.852       19.095     1544.525      617.640      364.608        0.721        0.126      108.141       14.807        0.019      330.988       -1.287      863.978
01/17/2022  01:55:00      -89.848       36.419       -3.596       40.628       34.486       22.185     1650.638     1189.278      492.188        0.637        0.167       96.949       16.163        0.028      330.995       -1.276      863.964
01/17/2022  01:56:00     -107.609       46.992      -10.292       38.877       26.194       23.177     1511.426      686.118      537.159        0.831        0.137      117.422       20.818        0.031      330.981       -1.299      863.968
01/17/2022  01:57:00     -125.872       29.780      -13.742       46.174       27.813       26.466     2132.025      773.574      700.466        1.026        0.180      129.347       23.429        0.033      331.020       -1.234      863.955
01/17/2022  01:58:00     -109.543       27.040      -15.847       48.440       39.893       26.420     2346.388     1591.440      697.999        0.881        0.232      112.831       26.770        0.056      330.981       -1.298      863.952
01/17/2022  01:59:00      -71.178       20.816       -6.094       54.078       43.743       26.701     2924.468     1913.462      712.953        0.554        0.278       74.159       28.782        0.151      330.939       -1.368      863.950
01/17/2022  02:00:00      -53.322        2.618       -7.475       65.213       30.967       27.809     4252.693      958.924      773.322        0.444        0.299       53.386       29.249        0.300      330.960       -1.333      863.944
01/17/2022  02:01:00      -87.504       19.185       -6.314       67.989       38.921       23.748     4622.562     1514.845      563.989        0.738        0.335       89.583       31.148        0.121      330.934       -1.376      863.955
01/17/2022  02:02:00     -147.621       31.285       -9.885       42.065       26.050       23.512     1769.470      678.583      552.810        1.293        0.150      150.900       22.684        0.023      330.884       -1.457      863.945
01/17/2022  02:03:00     -152.507       34.952      -12.153       17.266       24.780       17.215      298.119      614.041      296.346        1.292        0.060      156.461       11.070        0.005      330.901       -1.429      863.934
01/17/2022  02:04:00     -103.152       13.138       -6.254       43.965       36.193       26.023     1932.963     1309.907      677.176        0.739        0.196      103.985       15.336        0.022      330.966       -1.323      863.930
01/17/2022  02:05:00     -111.537       36.689       -9.976       45.335       30.925       23.277     2055.284      956.341      541.812        0.872        0.178      117.416       21.799        0.034      330.937       -1.371      863.926
01/17/2022  02:06:00      -56.456        4.621        0.030       43.132       26.628       18.039     1860.350      709.065      325.405        0.305        0.145       56.644       19.914        0.124      330.989       -1.285      863.922
01/17/2022  02:07:00      -48.674      -10.813      -10.531       48.357       38.946       20.710     2338.368     1516.753      428.898        0.344        0.214       49.861       17.802        0.127      330.993       -1.279      863.933
01/17/2022  02:08:00      -35.825       -6.631       -4.881       25.004       20.555       13.904      625.199      422.505      193.331        0.130        0.062       36.433       11.384        0.098      331.022       -1.232      863.946
01/17/2022  02:09:00      -58.790       -9.760      -11.412       41.606       29.194       17.930     1731.088      852.261      321.484        0.329        0.145       59.594       14.078        0.056      331.063       -1.163      863.951
01/17/2022  02:10:00      -34.204        5.170       -1.849       32.871       22.137       19.927     1080.481      490.025      397.075        0.158        0.098       34.593       17.836        0.266      331.074       -1.146      863.963
01/17/2022  02:11:00      -21.408       -7.062       -2.212       24.521       17.406       19.105      601.286      302.958      365.010        0.089        0.063       22.542       16.438        0.532      331.067       -1.156      863.973
01/17/2022  02:12:00      -66.291        5.097       -0.719       39.125       24.845       21.535     1530.767      617.267      463.742        0.352        0.131       66.487       19.958        0.090      331.131       -1.052      863.966
01/17/2022  02:13:00      -70.361       17.769        0.430       28.716       26.235       17.004      824.636      688.277      289.145        0.353        0.090       72.570       14.824        0.042      331.208       -0.925      863.960
01/17/2022  02:14:00      -44.957        4.632       -0.426       42.940       19.625       14.948     1843.809      385.143      223.452        0.225        0.123       45.195       17.880        0.157      331.279       -0.809      863.952
01/17/2022  02:15:00      -48.932        6.585       -5.462       31.221       18.608       17.130      974.756      346.261      293.441        0.204        0.081       49.373       11.504        0.054      331.285       -0.797      863.945
01/17/2022  02:16:00      -34.570       -1.175       -0.048       36.305       22.238       15.726     1318.032      494.519      247.321        0.163        0.103       34.590       14.987        0.188      331.155       -1.011      863.943
01/17/2022  02:17:00      -40.592      -11.766       -1.534       38.336       21.069       18.949     1469.663      443.895      359.065        0.203        0.114       42.262       18.531        0.192      331.180       -0.970      863.945
01/17/2022  02:18:00       -0.992       -9.299       -0.060       23.528       18.153       16.143      553.552      329.541      260.590        0.062        0.057        9.352       13.660        2.134      331.120       -1.069      863.942
01/17/2022  02:19:00        6.308       -3.746        0.180       23.504       15.667       11.894      552.425      245.443      141.456        0.050        0.047        7.336       11.116        2.296      331.116       -1.077      863.945
01/17/2022  02:20:00      -16.059       -7.363       -4.033       20.829       21.016       14.239      433.836      441.679      202.735        0.070        0.054       17.667       10.636        0.362      331.096       -1.107      863.946
01/17/2022  02:21:00      -11.179       -2.253       -5.833       28.360       19.510       12.532      804.302      380.652      157.055        0.075        0.067       11.404       10.985        0.928      331.090       -1.119      863.954
01/17/2022  02:22:00      -48.843       -1.842        1.211       38.620       32.303       19.203     1491.477     1043.488      368.739        0.265        0.145       48.878       14.130        0.084      331.051       -1.184      863.963
01/17/2022  02:23:00      -57.830        9.690      -10.120       29.837       18.048       13.102      890.264      325.731      171.675        0.246        0.069       58.636        7.448        0.016      331.068       -1.155      863.966
01/17/2022  02:24:00      -33.140       -5.843       -7.464       30.977       26.782       18.764      959.583      717.276      352.106        0.161        0.101       33.651       18.309        0.296      331.099       -1.105      863.970
01/17/2022  02:25:00      -35.495        9.288       -8.469       26.318       23.612       15.395      692.630      557.541      237.004        0.145        0.074       36.690       13.444        0.134      331.066       -1.159      863.960
01/17/2022  02:26:00      -40.047       -4.847       -5.472       28.331       25.396       20.852      802.668      644.947      434.786        0.177        0.094       40.339        8.719        0.047      331.126       -1.060      863.955
01/17/2022  02:27:00      -68.437        4.862        0.015       46.564       24.596       16.970     2168.161      604.977      287.979        0.388        0.153       68.609       15.883        0.054      331.105       -1.094      863.947
01/17/2022  02:28:00      -44.533       -2.643        3.881       41.588       24.279       22.554     1729.564      589.466      508.664        0.242        0.141       44.611       21.882        0.241      330.948       -1.353      863.920
01/17/2022  02:29:00      -51.260        1.009      -10.074       43.400       30.064       21.069     1883.598      903.869      443.892        0.298        0.162       51.270       12.659        0.061      330.985       -1.290      863.898
01/17/2022  02:30:00      -79.168       23.918      -17.103       46.145       29.257       23.520     2129.395      855.965      553.193        0.533        0.177       82.702        8.778        0.011      330.935       -1.375      863.880
01/17/2022  02:31:00     -121.093       58.519       -9.481       35.325       28.661       23.723     1247.866      821.479      562.759        1.040        0.132      134.491       17.310        0.017      330.863       -1.491      863.863
01/17/2022  02:32:00     -129.092       49.199      -12.940       35.362       30.130       24.081     1250.493      907.842      579.906        1.100        0.137      138.150       15.918        0.013      330.903       -1.426      863.865
01/17/2022  02:33:00     -100.420       62.170       -1.327       49.726       39.744       22.432     2472.684     1579.597      503.197        0.925        0.228      118.107       21.832        0.034      330.792       -1.608      863.858
01/17/2022  02:34:00     -117.565       68.021      -21.072       25.858       28.522       22.858      668.642      813.515      522.487        1.045        0.100      135.825       13.109        0.009      330.813       -1.573      863.843
01/17/2022  02:35:00      -91.545       52.944      -20.174       26.003       23.993       16.369      676.151      575.648      267.953        0.655        0.076      105.752       10.750        0.010      330.776       -1.633      863.829
01/17/2022  02:36:00      -92.660       51.337       -9.674       43.698       38.025       26.599     1909.520     1445.875      707.491        0.769        0.203      105.931       19.874        0.035      330.824       -1.556      863.817
01/17/2022  02:37:00     -116.286       64.703      -11.212       34.345       32.665       21.667     1179.601     1066.992      469.469        1.027        0.136      133.075       15.656        0.014      330.770       -1.644      863.807
01/17/2022  02:38:00     -135.336       64.368       -2.147       48.891       28.877       24.100     2390.326      833.869      580.830        1.313        0.190      149.863       18.525        0.015      330.731       -1.706      863.807
01/17/2022  02:39:00     -120.454       37.134       -9.108       47.298       33.427       24.085     2237.105     1117.336      580.103        0.995        0.197      126.048       25.589        0.041      330.754       -1.671      863.806
01/17/2022  02:40:00     -128.800       47.384       -5.503       48.237       32.757       25.510     2326.778     1073.014      650.772        1.146        0.203      137.240       22.796        0.028      330.727       -1.715      863.800
01/17/2022  02:41:00     -119.095       35.445       -2.610       49.057       30.915       21.345     2406.595      955.727      455.612        0.963        0.191      124.258       23.753        0.037      330.728       -1.714      863.793
01/17/2022  02:42:00     -124.570       42.297       -6.775       39.706       37.277       26.874     1576.540     1389.576      722.189        1.052        0.184      131.555       21.585        0.027      330.732       -1.705      863.785
01/17/2022  02:43:00     -122.297       19.493       -9.512       35.396       28.319       22.920     1252.859      801.945      525.335        0.900        0.129      123.841       20.960        0.029      330.755       -1.669      863.772
01/17/2022  02:44:00     -125.531       37.803      -17.401       33.188       24.135       25.086     1101.473      582.511      629.285        0.990        0.116      131.099       19.959        0.023      330.758       -1.663      863.765
01/17/2022  02:45:00      -69.455       13.776      -10.119       64.009       29.822       32.220     4097.091      889.365     1038.128        0.557        0.301       70.808       40.193        0.322      330.831       -1.543      863.767
01/17/2022  02:46:00      -87.427       47.297      -18.226       16.850       22.022       18.676      283.913      484.975      348.775        0.566        0.056       99.400       14.245        0.021      330.852       -1.511      863.770
01/17/2022  02:47:00      -70.655       28.194      -11.750       31.313       23.645       17.906      980.488      559.065      320.616        0.389        0.093       76.073       10.486        0.019      330.847       -1.517      863.782
01/17/2022  02:48:00      -81.684       13.616       -0.817       41.778       25.569       17.296     1745.371      653.798      299.147        0.478        0.135       82.811       13.035        0.025      330.862       -1.492      863.797
01/17/2022  02:49:00     -109.821       36.023      -15.419       19.824       17.312       11.784      392.980      299.710      138.858        0.721        0.042      115.578        7.771        0.005      330.891       -1.448      863.802
01/17/2022  02:50:00      -97.384       22.503      -17.516       14.384       17.532       14.405      206.891      307.363      207.508        0.551        0.036       99.950        6.360        0.004      330.924       -1.391      863.799
01/17/2022  02:51:00      -87.336       19.262      -13.881       26.563       19.592       14.860      705.589      383.865      220.817        0.475        0.066       89.435        9.683        0.012      330.949       -1.352      863.790
01/17/2022  02:52:00      -97.945       16.027       -9.804       20.890       20.924       13.323      436.391      437.799      177.509        0.550        0.053       99.248        8.684        0.008      330.935       -1.374      863.775
01/17/2022  02:53:00      -88.537       18.332       -5.859       33.205       15.757       17.696     1102.591      248.269      313.147        0.494        0.083       90.415       18.166        0.040      330.950       -1.350      863.769
01/17/2022  02:54:00      -57.216       10.331       -6.620       39.307       21.547       12.954     1545.006      464.272      167.810        0.280        0.109       58.141       13.720        0.056      330.957       -1.338      863.761
01/17/2022  02:55:00      -86.362       18.767       -8.814       36.237       19.914       18.300     1313.084      396.563      334.883        0.497        0.102       88.377       19.502        0.049      330.873       -1.476      863.759
01/17/2022  02:56:00      -83.218       18.151       -0.814       32.501       17.549       19.916     1056.298      307.950      396.631        0.451        0.088       85.175       18.527        0.047      330.795       -1.603      863.748
01/17/2022  02:57:00      -89.768       17.958      -12.114       23.127       22.530       15.205      534.840      507.594      231.177        0.490        0.064       91.546       11.079        0.015      330.845       -1.521      863.735
01/17/2022  02:58:00      -87.507       21.697      -11.590       26.938       24.549       19.227      725.639      602.644      369.672        0.498        0.085       90.157       15.790        0.031      330.869       -1.483      863.712
01/17/2022  02:59:00      -83.275       21.170       -4.045       26.664       23.380       17.499      710.990      546.622      306.213        0.448        0.078       85.924       13.248        0.024      330.816       -1.568      863.703
01/17/2022  03:00:00      -81.754       18.286      -12.675       33.535       23.512       15.485     1124.601      552.800      239.787        0.455        0.096       83.774        5.228        0.004      330.833       -1.539      863.699
01/17/2022  03:01:00      -57.699       15.170       -6.496       40.660       18.630       12.335     1653.242      347.092      152.158        0.288        0.108       59.660       15.050        0.064      330.812       -1.575      863.711
01/17/2022  03:02:00      -58.707        5.102       -4.458       30.334       17.661       17.592      920.172      311.917      309.484        0.252        0.077       58.928       15.458        0.069      330.918       -1.403      863.717
01/17/2022  03:03:00      -36.822        6.929       -3.928       23.126       21.056       18.026      534.798      443.346      324.943        0.136        0.065       37.468       16.996        0.206      330.862       -1.495      863.721
01/17/2022  03:04:00      -71.415       16.668       -0.907       23.179       18.159       16.017      537.256      329.757      256.554        0.325        0.056       73.335       13.984        0.036      330.842       -1.526      863.729
01/17/2022  03:05:00      -74.293        9.252       -8.140       30.949       25.924       12.261      957.825      672.054      150.336        0.373        0.089       74.867       12.331        0.027      330.849       -1.515      863.724
01/17/2022  03:06:00      -60.340       14.853       -3.783       24.468       15.414       14.156      598.706      237.577      200.392        0.246        0.052       62.142       13.529        0.047      330.832       -1.542      863.720
01/17/2022  03:07:00      -60.197       12.365       -7.987       16.602       18.913       13.561      275.630      357.701      183.891        0.233        0.041       61.454        7.087        0.013      330.801       -1.594      863.710
01/17/2022  03:08:00      -43.105       15.133       -7.021       22.127       13.052       10.938      489.587      170.362      119.629        0.146        0.039       45.684       11.113        0.059      330.817       -1.566      863.696
01/17/2022  03:09:00      -37.781       -1.440       -4.219       24.388       24.904       12.945      594.762      620.195      167.577        0.141        0.069       37.809        3.228        0.007      330.897       -1.437      863.679
01/17/2022  03:10:00      -85.106       26.064      -15.121       15.005       15.727       12.936      225.154      247.345      167.349        0.440        0.032       89.008        7.846        0.008      330.808       -1.581      863.666
01/17/2022  03:11:00      -80.231       22.736       -6.239       27.939       27.277       22.233      780.577      744.029      494.320        0.451        0.101       83.390       15.003        0.032      330.697       -1.765      863.658
01/17/2022  03:12:00      -51.900       13.158        1.476       34.779       25.354       18.955     1209.562      642.828      359.281        0.254        0.111       53.542       18.583        0.120      330.674       -1.801      863.653
01/17/2022  03:13:00      -89.235       25.271      -10.305       23.869       22.977       14.508      569.727      527.943      210.485        0.501        0.065       92.744       12.992        0.020      330.665       -1.816      863.643
01/17/2022  03:14:00      -86.125       22.937       -8.839       25.086       21.801       17.139      629.329      475.272      293.744        0.471        0.070       89.127       15.643        0.031      330.644       -1.852      863.633
01/17/2022  03:15:00      -75.255       34.754       -9.668       16.431       17.799       11.333      269.961      316.798      128.428        0.384        0.036       82.893        7.890        0.009      330.605       -1.915      863.621
01/17/2022  03:16:00      -61.583       35.693       -9.297       12.745       14.083       11.104      162.448      198.321      123.306        0.282        0.024       71.179        6.736        0.009      330.588       -1.944      863.607
01/17/2022  03:17:00      -48.927       13.906      -10.623       17.099       15.898        9.481      292.381      252.734       89.890        0.167        0.032       50.865        4.462        0.008      330.634       -1.868      863.608
01/17/2022  03:18:00      -56.566       20.751      -12.992       11.855        9.740        7.788      140.541       94.871       60.646        0.205        0.015       60.252        4.081        0.005      330.603       -1.919      863.612
01/17/2022  03:19:00      -51.479       15.989       -3.115       26.133       22.252       10.436      682.956      495.153      108.905        0.210        0.064       53.905        2.376        0.002      330.688       -1.778      863.612
01/17/2022  03:20:00      -71.201       22.669      -11.747       11.235       11.945       13.880      126.217      142.677      192.658        0.309        0.023       74.722        5.673        0.006      330.622       -1.888      863.602
01/17/2022  03:21:00      -71.579       22.845      -10.192        9.682       10.100        9.401       93.737      102.004       88.372        0.302        0.014       75.137        4.581        0.004      330.643       -1.852      863.598
01/17/2022  03:22:00      -74.131       22.261      -10.254       13.905       12.556       12.259      193.347      157.665      150.276        0.330        0.025       77.401        7.929        0.010      330.614       -1.901      863.598
01/17/2022  03:23:00      -33.856       12.450       -2.142       30.998       11.338       11.248      960.901      128.541      126.527        0.126        0.061       36.073       14.054        0.152      330.634       -1.869      863.602
01/17/2022  03:24:00       -9.196       -0.390       -7.633       13.389       20.015        7.476      179.258      400.588       55.888        0.039        0.032        9.204        9.527        1.071      330.685       -1.784      863.610
01/17/2022  03:25:00      -16.663       18.571       -7.402        8.059        6.895        6.413       64.949       47.535       41.122        0.042        0.008       24.951        5.728        0.053      330.664       -1.817      863.607
01/17/2022  03:26:00      -19.488       16.499      -13.424       11.404       10.347        6.820      130.044      107.068       46.514        0.056        0.014       25.535        5.010        0.038      330.712       -1.740      863.598
01/17/2022  03:27:00      -12.453        1.408      -11.456       13.802       12.884        6.226      190.485      166.004       38.763        0.034        0.020       12.533        7.482        0.356      330.720       -1.725      863.591
01/17/2022  03:28:00       -6.292      -18.237      -10.634        8.767        8.150        8.841       76.859       66.425       78.160        0.035        0.011       19.292        5.347        0.077      330.869       -1.481      863.590
01/17/2022  03:29:00      -17.485      -14.488       -6.036       10.748        9.870        8.143      115.523       97.409       66.315        0.042        0.014       22.708        4.600        0.041      330.848       -1.517      863.586
01/17/2022  03:30:00       -7.126      -13.138      -14.037        9.289        8.877        8.984       86.280       78.810       80.713        0.033        0.012       14.946        5.317        0.127      330.803       -1.590      863.584
01/17/2022  03:31:00      -14.703       -6.221       -6.306       12.183        5.593        9.348      148.427       31.280       87.392        0.028        0.013       15.965        5.129        0.103      330.707       -1.748      863.583
01/17/2022  03:32:00      -10.825        0.525       -3.291        6.599        5.675        7.711       43.542       32.207       59.467        0.013        0.007       10.838        5.395        0.248      330.657       -1.831      863.589
01/17/2022  03:33:00      -10.080       -8.693       -3.994        8.307       10.305        6.640       69.010      106.202       44.085        0.021        0.011       13.311        5.174        0.151      330.758       -1.664      863.595
01/17/2022  03:34:00       -2.650       -0.409       -0.765        4.650        5.799        3.853       21.627       33.628       14.846        0.004        0.004        2.681        1.918        0.512      330.765       -1.653      863.591
01/17/2022  03:35:00       -5.392        6.702       -2.790        7.920        5.840        5.390       62.721       34.111       29.049        0.010        0.006        8.601        4.124        0.230      330.718       -1.728      863.586
01/17/2022  03:36:00      -20.196       14.288      -10.434        8.283        5.224        6.743       68.600       27.289       45.474        0.043        0.007       24.739        4.069        0.027      330.706       -1.749      863.583
01/17/2022  03:37:00      -19.793        9.278       -7.762       11.191       13.649        7.940      125.239      186.307       63.036        0.046        0.019       21.860        8.531        0.152      330.673       -1.803      863.587
01/17/2022  03:38:00      -10.524       -1.141       -7.309       10.407       13.355        5.326      108.304      178.349       28.367        0.024        0.016       10.585        3.257        0.095      330.651       -1.842      863.589
01/17/2022  03:39:00      -20.776       19.174       -9.145        9.237        6.424        6.042       85.326       41.270       36.508        0.052        0.008       28.271        3.530        0.016      330.628       -1.877      863.594
01/17/2022  03:40:00       -6.368       -2.865       -4.968        8.190       17.923        7.674       67.078      321.231       58.884        0.026        0.022        6.983        8.213        1.383      330.618       -1.895      863.601
01/17/2022  03:41:00       -0.268       -7.471       -7.811        4.472        7.504        7.399       20.001       56.303       54.745        0.012        0.007        7.476        3.196        0.183      330.649       -1.842      863.614
01/17/2022  03:42:00      -12.631        5.149       -1.511       14.715       15.139        9.743      216.531      229.183       94.933        0.036        0.027       13.641        7.287        0.285      330.565       -1.981      863.600
01/17/2022  03:43:00      -38.243       17.952      -10.081        9.256        8.517        6.424       85.672       72.537       41.267        0.104        0.010       42.247        4.781        0.013      330.581       -1.956      863.588
01/17/2022  03:44:00      -21.051        8.017       -4.489       11.006        8.779       10.352      121.128       77.064      107.157        0.042        0.015       22.526        3.425        0.023      330.649       -1.842      863.585
01/17/2022  03:45:00      -48.625       18.482       -8.919       13.232       10.930        8.030      175.079      119.465       64.488        0.157        0.018       52.019        2.062        0.002      330.636       -1.864      863.585
01/17/2022  03:46:00      -33.878        8.612       -5.300       17.395       19.898       11.684      302.579      395.946      136.518        0.104        0.042       34.956        6.735        0.037      330.641       -1.855      863.569
01/17/2022  03:47:00      -43.031       25.894       -9.541        9.281        5.744        6.481       86.142       32.996       42.003        0.139        0.008       50.221        3.849        0.006      330.588       -1.944      863.537
01/17/2022  03:48:00      -29.706       23.028      -11.420        6.422        6.509        6.291       41.246       42.369       39.581        0.083        0.006       37.586        3.006        0.006      330.614       -1.898      863.502
01/17/2022  03:49:00      -27.595       16.720       -5.991       11.070       12.199        7.067      122.543      148.804       49.946        0.070        0.016       32.265        5.696        0.031      330.623       -1.885      863.472
01/17/2022  03:50:00      -10.660       12.861       -7.052       10.688       11.744        5.962      114.230      137.920       35.541        0.031        0.014       16.705        5.923        0.126      330.629       -1.876      863.455
01/17/2022  03:51:00      -11.644        4.535      -10.623        8.776        9.945        5.433       77.014       98.894       29.522        0.024        0.010       12.496        2.165        0.030      330.582       -1.954      863.438
01/17/2022  03:52:00        1.644        8.555       -5.846        5.410        8.570        8.270       29.268       73.449       68.392        0.014        0.009        8.712        6.230        0.511      330.582       -1.953      863.436
01/17/2022  03:53:00        6.646       -4.621       -5.223        8.105        6.763        5.986       65.686       45.734       35.827        0.012        0.007        8.095        2.980        0.136      330.674       -1.801      863.436
01/17/2022  03:54:00        0.346      -11.353        0.263        6.410        9.753        7.640       41.091       95.129       58.372        0.016        0.010       11.359        6.700        0.348      330.654       -1.834      863.435
01/17/2022  03:55:00      -11.586       -1.550       -2.791        8.975        8.218        8.760       80.543       67.540       76.741        0.018        0.011       11.690        4.663        0.159      330.640       -1.858      863.424
01/17/2022  03:56:00      -22.022       17.492       -6.879        7.954        6.381        7.306       63.262       40.717       53.371        0.050        0.008       28.124        5.375        0.037      330.524       -2.051      863.410
01/17/2022  03:57:00       -9.950       -1.483       -5.153       10.166       13.149       10.719      103.351      172.893      114.899        0.026        0.020       10.060        5.802        0.333      330.537       -2.028      863.403
01/17/2022  03:58:00      -11.344        3.172      -10.968       12.851       14.558        8.177      165.155      211.941       66.858        0.035        0.022       11.779        4.481        0.145      330.562       -1.987      863.405
01/17/2022  03:59:00      -19.186       -1.383       -6.189       18.684       19.347       15.202      349.107      374.325      231.103        0.068        0.048       19.236        9.319        0.235      330.532       -2.035      863.398
01/17/2022  04:00:00      -33.511       29.328       -6.894       15.363       12.936        7.608      236.034      167.345       57.875        0.125        0.023       44.532        3.401        0.006      330.395       -2.260      863.387
01/17/2022  04:01:00      -26.750       24.386      -10.158        8.135        9.972        6.308       66.176       99.443       39.790        0.081        0.010       36.197        3.790        0.011      330.484       -2.114      863.376
01/17/2022  04:02:00      -28.958       23.677      -10.070       10.552        7.703        7.542      111.337       59.336       56.886        0.086        0.011       37.405        4.893        0.017      330.591       -1.939      863.357
01/17/2022  04:03:00      -15.173       22.555      -11.182       11.078        8.632        8.061      122.712       74.503       64.976        0.056        0.013       27.184        1.245        0.002      330.577       -1.961      863.341
01/17/2022  04:04:00        9.412       12.387      -12.608        9.520        6.392        9.784       90.638       40.853       95.719        0.031        0.011       15.558        4.924        0.100      330.654       -1.835      863.320
01/17/2022  04:05:00       31.400       14.498       -1.845       10.915       13.615        9.932      119.139      185.363       98.652        0.080        0.020       34.585        7.469        0.047      330.665       -1.817      863.296
01/17/2022  04:06:00       21.779       42.796       -6.929       16.532       14.895       10.423      273.319      221.857      108.641        0.148        0.030       48.019        6.655        0.019      330.679       -1.794      863.275
01/17/2022  04:07:00       25.623       42.957       -7.051       13.707       15.118       12.044      187.884      228.554      145.056        0.156        0.028       50.019        8.704        0.030      330.719       -1.726      863.270
01/17/2022  04:08:00       22.584       30.558       -2.883       16.541       19.179       11.497      273.595      367.851      132.183        0.111        0.039       37.998       10.332        0.074      330.694       -1.770      863.266
01/17/2022  04:09:00       31.825       11.277      -10.199       18.780       20.072       10.298      352.701      402.867      106.055        0.105        0.043       33.764       10.177        0.091      330.729       -1.711      863.273
01/17/2022  04:10:00       18.866      -10.448      -10.286       11.364       13.132        9.610      129.133      172.451       92.349        0.048        0.020       21.566        5.867        0.074      330.732       -1.707      863.291
01/17/2022  04:11:00        6.222      -12.710      -14.147        9.447        7.100        7.958       89.255       50.411       63.324        0.030        0.010       14.151        5.252        0.138      330.773       -1.639      863.307
01/17/2022  04:12:00       -1.749       -1.085       -5.134        4.293        4.687        6.840       18.427       21.968       46.791        0.006        0.004        2.058        3.656        3.157      330.664       -1.819      863.306
01/17/2022  04:13:00       -4.427        2.809       -7.787        5.040        5.295        5.589       25.402       28.038       31.239        0.009        0.004        5.243        3.808        0.527      330.578       -1.958      863.291
01/17/2022  04:14:00      -16.421       18.785       -3.115        9.942       12.007        5.965       98.842      144.174       35.581        0.046        0.014       24.951        3.048        0.015      330.600       -1.923      863.254
01/17/2022  04:15:00      -16.560       25.494       -8.082       13.540        7.065        6.673      183.341       49.919       44.531        0.063        0.014       30.400        6.273        0.043      330.642       -1.855      863.238
01/17/2022  04:16:00      -34.702       17.778      -10.460        7.669        6.008        7.091       58.813       36.102       50.280        0.089        0.007       38.991        3.100        0.006      330.580       -1.954      863.231
01/17/2022  04:17:00      -61.346       18.356       -8.066       21.972       16.574       11.154      482.766      274.682      124.420        0.252        0.044       64.033        6.194        0.009      330.572       -1.971      863.224
01/17/2022  04:18:00      -71.172       18.369      -11.919       20.990       17.597       10.861      440.599      309.641      117.965        0.321        0.043       73.504        6.877        0.009      330.508       -2.076      863.226
01/17/2022  04:19:00      -42.432        3.042       -1.717       22.895       19.258       15.723      524.199      370.882      247.202        0.148        0.057       42.541       13.977        0.108      330.563       -1.985      863.235
01/17/2022  04:20:00      -76.753       21.349       -1.245       17.877       19.074       12.790      319.573      363.819      163.584        0.360        0.042       79.667        8.634        0.012      330.465       -2.146      863.231
01/17/2022  04:21:00      -55.102        9.600       -6.577       27.713       18.925       14.737      768.029      358.151      217.187        0.226        0.067       55.932       16.114        0.083      330.403       -2.246      863.231
01/17/2022  04:22:00      -59.831       17.123       -9.014       24.688       19.887       13.710      609.520      395.503      187.964        0.257        0.060       62.233        9.230        0.022      330.409       -2.236      863.224
01/17/2022  04:23:00      -66.475       13.069       -7.087       17.267       12.544       13.554      298.161      157.361      183.711        0.264        0.032       67.747        9.971        0.022      330.495       -2.097      863.212
01/17/2022  04:24:00      -62.750       16.198      -13.274       18.810       17.908        9.456      353.821      320.706       89.411        0.257        0.038       64.807        4.111        0.004      330.502       -2.085      863.213
01/17/2022  04:25:00      -36.876       -3.481       -9.027       18.109       20.354       10.388      327.938      414.281      107.921        0.115        0.043       37.040        5.912        0.025      330.546       -2.012      863.212
01/17/2022  04:26:00      -24.562       -2.583       -4.545       18.059       21.557       13.718      326.140      464.685      188.185        0.080        0.049       24.697        4.688        0.036      330.516       -2.061      863.212
01/17/2022  04:27:00       -3.172      -13.698      -10.666        8.449       12.458        9.514       71.384      155.200       90.525        0.031        0.016       14.060        6.387        0.206      330.638       -1.860      863.204
01/17/2022  04:28:00       -0.222       -1.735       -5.728        9.356       11.647        8.840       87.539      135.657       78.138        0.017        0.015        1.750        7.398       17.878      330.659       -1.825      863.189
01/17/2022  04:29:00      -14.636        9.566       -2.702       18.207       13.240        9.258      331.512      175.298       85.708        0.045        0.030       17.485        8.113        0.215      330.585       -1.948      863.170
01/17/2022  04:30:00      -22.089        4.653       -3.415       16.945       14.968        9.816      287.124      224.034       96.356        0.056        0.030       22.574        6.258        0.077      330.566       -1.980      863.155
01/17/2022  04:31:00      -23.437        4.828       -7.776       21.968       21.415       11.136      482.609      458.598      124.013        0.085        0.053       23.929        5.049        0.045      330.561       -1.989      863.154
01/17/2022  04:32:00      -36.513        2.926       -3.628       32.393       18.132       14.767     1049.317      328.779      218.062        0.148        0.080       36.630       14.216        0.151      330.543       -2.018      863.150
01/17/2022  04:33:00      -35.230       19.426       -3.179       28.365       15.897       13.505      804.556      252.714      182.387        0.143        0.062       40.231       14.918        0.137      330.464       -2.146      863.155
01/17/2022  04:34:00      -51.540       16.139       -2.975       22.456       23.506       13.039      504.254      552.513      170.025        0.208        0.061       54.008       13.670        0.064      330.384       -2.278      863.157
01/17/2022  04:35:00      -29.172       -0.838       -0.245       21.417       20.264       14.012      458.681      410.611      196.337        0.096        0.053       29.184       10.857        0.138      330.485       -2.112      863.162
01/17/2022  04:36:00      -13.120       13.528       -3.083       20.688       17.557       12.182      428.011      308.239      148.411        0.062        0.044       18.845       11.871        0.397      330.396       -2.258      863.175
01/17/2022  04:37:00      -17.841        6.014       -2.126       24.696       23.081       14.857      609.869      532.737      220.725        0.086        0.068       18.827        9.788        0.270      330.296       -2.421      863.192
01/17/2022  04:38:00      -45.325      -19.713        6.251       42.576       29.537       23.824     1812.681      872.453      567.568        0.287        0.163       49.426       21.339        0.186      330.455       -2.161      863.197
01/17/2022  04:39:00      -39.088       -6.518       -1.993       32.554       19.608       17.739     1059.766      384.476      314.681        0.167        0.088       39.627        9.554        0.058      330.465       -2.144      863.203
01/17/2022  04:40:00      -19.715        0.069        0.762       31.974       24.430       19.405     1022.316      596.815      376.566        0.119        0.100       19.715       17.032        0.746      330.400       -2.251      863.199
01/17/2022  04:41:00      -32.789        3.376        0.142       24.382       21.292       13.804      594.487      453.335      190.563        0.116        0.062       32.962       12.831        0.152      330.448       -2.172      863.192
01/17/2022  04:42:00      -30.671        5.786       -0.084       27.707       21.827       15.145      767.693      476.432      229.383        0.122        0.074       31.212       15.897        0.259      330.368       -2.304      863.186
01/17/2022  04:43:00      -38.120       10.337       -9.893       29.906       27.820       10.957      894.343      773.953      120.045        0.172        0.089       39.497       10.233        0.067      330.300       -2.416      863.196
01/17/2022  04:44:00      -37.521       22.405       -7.374        8.811        9.635        8.579       77.637       92.824       73.591        0.110        0.012       43.702        6.242        0.020      330.200       -2.580      863.198
01/17/2022  04:45:00      -34.545       22.083       -4.397        7.588        9.385        6.544       57.574       88.074       42.829        0.094        0.009       41.000        4.036        0.010      330.229       -2.532      863.188
01/17/2022  04:46:00      -55.029       18.865      -11.422       21.826       13.132       10.614      476.395      172.456      112.651        0.214        0.038       58.173       10.779        0.034      330.313       -2.393      863.170
01/17/2022  04:47:00      -90.021       22.906      -12.995       32.559       17.722       17.136     1060.106      314.086      293.654        0.523        0.083       92.890       18.288        0.039      330.286       -2.438      863.165
01/17/2022  04:48:00      -72.587       20.410      -11.516       24.814       23.592       16.628      615.755      556.579      276.491        0.363        0.072       75.402       13.745        0.033      330.319       -2.384      863.162
01/17/2022  04:49:00      -36.606       12.775       -5.653       20.062       19.610       13.636      402.467      384.549      185.943        0.125        0.049       38.771       12.244        0.100      330.367       -2.305      863.156
01/17/2022  04:50:00      -20.632       -1.615       -9.698       23.393       14.147       17.270      547.236      200.148      298.270        0.078        0.052       20.695       14.119        0.465      330.389       -2.269      863.159
01/17/2022  04:51:00        1.866      -12.429      -11.664        7.221        9.750        9.211       52.150       95.071       84.848        0.026        0.012       12.568        4.482        0.127      330.465       -2.146      863.152
01/17/2022  04:52:00        3.483        8.528       -7.987        3.964        7.142        9.102       15.716       51.005       82.848        0.015        0.007        9.212        2.987        0.105      330.413       -2.229      863.166
01/17/2022  04:53:00      -12.225        9.765      -11.370       19.048       11.708        6.345      362.823      137.081       40.260        0.046        0.027       15.647        5.866        0.141      330.355       -2.325      863.167
01/17/2022  04:54:00      -24.917       10.838       -8.152       15.309       15.371       10.652      234.367      236.277      113.459        0.069        0.029       27.172        4.817        0.031      330.270       -2.464      863.169
01/17/2022  04:55:00      -33.503       12.429       -5.686       23.312       18.820       10.918      543.456      354.186      119.193        0.116        0.051       35.734        7.228        0.041      330.279       -2.450      863.173
01/17/2022  04:56:00      -37.201        7.364      -13.374       32.420       15.987       10.045     1051.058      255.595      100.910        0.151        0.070       37.923        8.207        0.047      330.364       -2.310      863.187
01/17/2022  04:57:00      -34.329       13.800       -6.020        8.662        7.885        8.196       75.031       62.171       67.172        0.080        0.010       36.999        6.273        0.029      330.280       -2.446      863.198
01/17/2022  04:58:00      -25.968       -2.475      -13.203        9.987       13.756        7.873       99.747      189.217       61.984        0.060        0.018       26.086        2.223        0.007      330.377       -2.288      863.195
01/17/2022  04:59:00        5.586       -0.354       -3.208        6.349        4.682        4.751       40.312       21.920       22.574        0.006        0.004        5.597        3.655        0.426      330.378       -2.288      863.179
01/17/2022  05:00:00      -13.707       10.293       -7.596        9.542        8.191        6.562       91.058       67.089       43.058        0.028        0.010       17.142        4.165        0.059      330.411       -2.234      863.164
01/17/2022  05:01:00      -46.805       12.332       -8.669       15.824       10.557        8.339      250.395      111.453       69.544        0.142        0.022       48.402        6.133        0.016      330.366       -2.307      863.153
01/17/2022  05:02:00      -74.886       27.850      -11.339       15.751       12.733        8.694      248.085      162.136       75.593        0.350        0.024       79.897        6.609        0.007      330.284       -2.441      863.158
01/17/2022  05:03:00      -87.832       30.837      -10.193       25.221       18.068       16.501      636.102      326.451      272.295        0.500        0.062       93.088       12.844        0.019      330.216       -2.553      863.155
01/17/2022  05:04:00      -81.614       13.005      -12.205       25.708       19.977       15.567      660.891      399.063      242.324        0.414        0.065       82.644       12.890        0.024      330.184       -2.606      863.157
01/17/2022  05:05:00      -75.006       27.081       -8.784       22.739       21.212       13.893      517.073      449.951      193.025        0.380        0.058       79.745        2.834        0.001      330.173       -2.625      863.153
01/17/2022  05:06:00      -92.577       24.541       -8.855       23.950       17.828       13.324      573.616      317.822      177.522        0.516        0.053       95.774       10.601        0.012      330.216       -2.553      863.150
01/17/2022  05:07:00      -69.777       20.377       -6.121       25.225       24.064       14.333      636.279      579.072      205.447        0.337        0.071       72.691       13.888        0.037      330.220       -2.546      863.154
01/17/2022  05:08:00      -25.778       -0.445       -3.632       29.950       18.960       15.583      896.976      359.466      242.834        0.109        0.075       25.782       14.616        0.321      330.351       -2.331      863.164
01/17/2022  05:09:00      -25.825       12.720       -7.329       17.462       13.010       11.151      304.911      169.269      124.347        0.074        0.030       28.788        9.537        0.110      330.225       -2.538      863.162
01/17/2022  05:10:00      -33.956        9.657       -8.212       15.300       10.821        8.180      234.102      117.097       66.915        0.087        0.021       35.302        5.358        0.023      330.274       -2.459      863.157
01/17/2022  05:11:00      -34.949       10.696       -4.964       21.266       12.347       11.211      452.222      152.456      125.676        0.105        0.037       36.549       10.661        0.085      330.294       -2.425      863.148
01/17/2022  05:12:00      -62.609       20.691      -12.230       23.295       19.194       11.354      542.673      368.405      128.915        0.277        0.052       65.940        9.507        0.021      330.334       -2.359      863.142
01/17/2022  05:13:00      -62.519       22.921       -7.766       27.960       19.619       16.109      781.758      384.908      259.507        0.296        0.071       66.588       13.791        0.043      330.271       -2.463      863.135
01/17/2022  05:14:00      -64.693       29.370      -11.805       14.587       12.935       11.274      212.773      167.303      127.102        0.285        0.025       71.047        3.837        0.003      330.238       -2.518      863.128
01/17/2022  05:15:00      -49.750       25.460       -6.375       18.256       13.604       10.726      333.283      185.061      115.038        0.190        0.032       55.886        7.868        0.020      330.290       -2.431      863.128
01/17/2022  05:16:00      -54.626       18.584       -4.860       20.588       14.519       17.408      423.863      210.793      303.027        0.215        0.047       57.700       14.778        0.066      330.309       -2.400      863.135
01/17/2022  05:17:00      -72.791       17.849      -12.423       25.560       19.646       13.903      653.325      385.955      193.282        0.350        0.062       74.948       12.599        0.028      330.331       -2.365      863.131
01/17/2022  05:18:00      -68.977       19.316       -5.842       33.149       25.220       21.320     1098.854      636.058      454.538        0.368        0.109       71.631       15.854        0.049      330.289       -2.433      863.128
01/17/2022  05:19:00     -103.906       39.595       -8.090       25.751       26.379       19.899      663.104      695.867      395.968        0.709        0.088      111.195        9.711        0.008      330.116       -2.718      863.125
01/17/2022  05:20:00     -109.953       33.058      -10.508       36.033       27.246       18.771     1298.344      742.354      352.356        0.784        0.120      114.816       18.138        0.025      330.099       -2.744      863.110
01/17/2022  05:21:00     -103.529       26.030       -2.251       31.471       35.374       19.272      990.414     1251.292      371.408        0.701        0.131      106.752       12.949        0.015      330.106       -2.735      863.105
01/17/2022  05:22:00      -36.522       10.413      -11.146       35.114       22.898       19.664     1232.978      524.314      386.665        0.185        0.107       37.977       10.753        0.080      330.095       -2.753      863.109
01/17/2022  05:23:00       -0.016        0.492       -1.078       20.428       13.563       14.306      417.314      183.942      204.657        0.040        0.040        0.492       13.668      770.741      330.036       -2.848      863.115
01/17/2022  05:24:00      -34.261       -5.430       -7.760       33.509       36.849       20.135     1122.828     1357.871      405.414        0.207        0.144       34.688       17.842        0.265      330.066       -2.801      863.117
01/17/2022  05:25:00      -14.371      -15.875       -0.800       35.937       22.511       24.531     1291.433      506.748      601.751        0.143        0.120       21.414       24.332        1.291      330.057       -2.813      863.128
01/17/2022  05:26:00       -8.550       16.702       -5.336       25.424       23.196       16.762      646.388      538.065      280.980        0.092        0.073       18.763       13.294        0.502      330.037       -2.848      863.140
01/17/2022  05:27:00      -19.253        4.571       -5.186       32.491       22.599       17.705     1055.659      510.706      313.479        0.115        0.094       19.788       15.798        0.637      330.039       -2.844      863.133
01/17/2022  05:28:00      -73.826       31.493      -14.120       22.197       16.976       11.827      492.722      288.192      139.878        0.378        0.046       80.263        6.800        0.007      330.101       -2.740      863.124
01/17/2022  05:29:00      -73.357       39.496      -12.169       20.758       17.979       12.676      430.894      323.236      160.684        0.400        0.046       83.313        6.743        0.007      330.024       -2.868      863.122
01/17/2022  05:30:00      -68.907       38.647      -11.082       18.424       14.418       11.499      339.450      207.876      132.226        0.352        0.034       79.005        6.274        0.006      330.059       -2.810      863.122
01/17/2022  05:31:00      -78.035       41.913      -13.634       15.973       16.033       11.076      255.122      257.056      122.679        0.433        0.032       88.578        7.034        0.006      330.085       -2.769      863.116
01/17/2022  05:32:00      -87.024       58.840       -7.165       28.151       19.066       18.402      792.490      363.494      338.627        0.629        0.075      105.049       11.963        0.013      330.006       -2.898      863.118
01/17/2022  05:33:00      -88.200       42.038       -8.748       23.661       20.313       16.420      559.835      412.605      269.607        0.543        0.062       97.706        4.681        0.002      330.059       -2.811      863.121
01/17/2022  05:34:00      -59.107       11.631      -15.849       24.982       30.122       17.275      624.106      907.360      298.418        0.285        0.091       60.240       10.960        0.033      330.141       -2.677      863.119
01/17/2022  05:35:00      -73.844       41.233       -6.597       18.087       23.413       14.184      327.154      548.160      201.197        0.414        0.054       84.576        8.503        0.010      330.052       -2.824      863.115
01/17/2022  05:36:00      -70.082       39.535       -5.520       19.622       18.723       14.848      385.012      350.554      220.455        0.373        0.048       80.465       11.088        0.019      330.087       -2.766      863.115
01/17/2022  05:37:00      -65.962       17.445      -14.638       20.494       22.220       13.500      419.993      493.718      182.261        0.298        0.055       68.230        9.588        0.020      330.174       -2.622      863.110
01/17/2022  05:38:00      -79.431       22.073      -19.461       31.849       20.047       16.368     1014.356      401.865      267.907        0.443        0.084       82.440       12.344        0.022      330.166       -2.637      863.114
01/17/2022  05:39:00      -39.808       11.800      -18.584       36.927       20.258       19.178     1363.568      410.388      367.807        0.211        0.107       41.520       15.830        0.145      330.151       -2.660      863.107
01/17/2022  05:40:00        3.553      -26.089      -19.250       13.472       14.470       11.235      181.504      209.367      126.233        0.079        0.026       26.330        7.680        0.085      330.158       -2.649      863.107
01/17/2022  05:41:00       -9.350      -26.225      -19.210       14.544       12.672        9.666      211.530      160.577       93.436        0.080        0.023       27.842        4.942        0.032      330.195       -2.588      863.109
01/17/2022  05:42:00      -15.766       -0.396       -9.355       16.738       22.626       13.980      280.173      511.958      195.435        0.066        0.049       15.771       12.915        0.671      330.223       -2.542      863.109
01/17/2022  05:43:00      -12.518       10.169       -6.540       21.479       18.744       13.885      461.344      351.327      192.781        0.065        0.050       16.128       14.320        0.788      330.143       -2.673      863.115
01/17/2022  05:44:00      -61.789       25.716      -12.773       24.694       18.934       16.023      609.816      358.490      256.735        0.293        0.061       66.927        8.689        0.017      330.117       -2.716      863.118
01/17/2022  05:45:00      -88.389       32.949      -10.963       21.473       20.971       11.728      461.086      439.796      137.539        0.503        0.052       94.331        9.866        0.011      330.020       -2.874      863.127
01/17/2022  05:46:00      -85.013       28.581      -13.386       15.816       13.553       10.385      250.139      183.688      107.856        0.438        0.027       89.689        6.380        0.005      330.049       -2.828      863.140
01/17/2022  05:47:00      -37.708       -4.003       -3.978       36.442       23.243       15.467     1328.012      540.234      239.241        0.178        0.105       37.920       20.136        0.282      330.156       -2.653      863.152
01/17/2022  05:48:00      -24.282       10.153       -3.060       31.936       19.948       21.364     1019.939      397.924      456.401        0.129        0.094       26.319       19.046        0.524      330.087       -2.765      863.184
01/17/2022  05:49:00      -28.377       -2.087       -6.523       28.904       23.165       20.238      835.421      536.596      409.597        0.132        0.089       28.453       20.283        0.508      330.058       -2.813      863.212
01/17/2022  05:50:00      -17.962      -15.928      -18.839       14.620       16.279       16.113      213.750      265.020      259.627        0.083        0.037       24.007        6.411        0.071      330.131       -2.693      863.220
01/17/2022  05:51:00      -24.761      -11.382       -5.796       21.187       18.758       16.204      448.903      351.844      262.579        0.092        0.053       27.251        8.077        0.088      330.215       -2.555      863.217
01/17/2022  05:52:00      -38.610       16.979      -10.254       10.602        9.178        9.174      112.392       84.241       84.167        0.108        0.014       42.178        7.346        0.030      330.217       -2.552      863.217
01/17/2022  05:53:00        0.342      -12.079       -5.947       13.013       10.158        9.033      169.326      103.183       81.599        0.027        0.018       12.084        7.549        0.390      330.356       -2.323      863.222
01/17/2022  05:54:00      -14.545        3.559        2.417       13.555       18.905       10.090      183.725      357.416      101.815        0.044        0.032       14.974        8.765        0.343      330.319       -2.384      863.236
01/17/2022  05:55:00      -35.858        8.750      -11.495       21.203       12.493       11.827      449.554      156.086      139.876        0.112        0.037       36.910        7.731        0.044      330.255       -2.488      863.251
01/17/2022  05:56:00      -32.818       -4.344       -9.466       24.542       16.833        9.946      602.331      283.344       98.916        0.108        0.049       33.104        6.604        0.040      330.347       -2.337      863.262
01/17/2022  05:57:00      -28.860        2.837       -5.827       21.757       19.322       14.527      473.385      373.354      211.019        0.097        0.053       28.999       10.014        0.119      330.377       -2.290      863.269
01/17/2022  05:58:00      -45.673       13.511       -3.349       35.794       20.698       18.596     1281.245      428.418      345.809        0.217        0.103       47.629       16.976        0.127      330.221       -2.545      863.277
01/17/2022  05:59:00      -40.620       14.021       -4.907       39.291       36.759       18.629     1543.746     1351.209      347.046        0.256        0.162       42.972       16.939        0.155      330.196       -2.587      863.272
01/17/2022  06:00:00      -68.714       28.032       -4.924       32.702       28.045       17.865     1069.452      786.496      319.153        0.385        0.109       74.212       17.768        0.057      330.120       -2.711      863.261
01/17/2022  06:01:00      -67.588       34.403      -10.418       35.853       20.176       21.666     1285.417      407.077      469.413        0.401        0.108       75.840       14.602        0.037      329.958       -2.976      863.252
01/17/2022  06:02:00      -68.308       22.665       -9.004       18.409       14.624       14.274      338.883      213.855      203.759        0.301        0.038       71.970        8.521        0.014      330.035       -2.850      863.246
01/17/2022  06:03:00      -78.168       29.476       -9.260       15.031       14.327       13.022      225.935      205.255      169.584        0.383        0.030       83.541        9.155        0.012      330.092       -2.759      863.244
01/17/2022  06:04:00      -68.435       26.895       -8.488       27.220       18.241       18.608      740.955      332.732      346.272        0.345        0.071       73.530       14.557        0.039      330.064       -2.803      863.250
01/17/2022  06:05:00      -62.150       30.203       -3.684       27.524       28.038       15.201      757.589      786.115      231.073        0.328        0.089       69.100       11.883        0.030      330.038       -2.844      863.258
01/17/2022  06:06:00      -62.759       34.457      -10.353       19.135       14.079       14.551      366.151      198.214      211.741        0.300        0.039       71.596        7.766        0.012      329.992       -2.921      863.268
01/17/2022  06:07:00      -42.514       30.039       -1.741       23.816       24.827       13.581      567.179      616.359      184.441        0.204        0.068       52.056       10.253        0.039      329.954       -2.983      863.266
01/17/2022  06:08:00      -42.004       12.419       -4.905       23.247       22.038        8.936      540.405      485.693       79.857        0.152        0.055       43.801        9.769        0.050      330.021       -2.875      863.286
01/17/2022  06:09:00      -40.873        6.895      -11.902       15.465       14.487       13.049      239.160      209.866      170.289        0.124        0.031       41.450        7.773        0.035      330.083       -2.771      863.307
01/17/2022  06:10:00       -1.513       -0.058        2.323       20.193       16.170       15.163      407.777      261.475      229.923        0.045        0.045        1.514       13.339       77.656      330.083       -2.771      863.329
01/17/2022  06:11:00      -22.805        4.027      -13.322       21.363       15.323       10.409      456.378      234.809      108.340        0.076        0.040       23.158        6.543        0.080      330.115       -2.720      863.340
01/17/2022  06:12:00      -30.069        7.177       -8.462       28.643       18.153        7.940      820.409      329.528       63.044        0.112        0.061       30.914       12.128        0.154      330.106       -2.734      863.353
01/17/2022  06:13:00      -43.325       24.057       -4.001       17.608       17.504       15.056      310.030      306.382      226.669        0.166        0.042       49.556        9.533        0.037      330.073       -2.788      863.363
01/17/2022  06:14:00      -66.617       31.413       -3.380       20.099       22.596       10.068      403.961      510.592      101.356        0.323        0.051       73.652        9.686        0.017      330.014       -2.884      863.363
01/17/2022  06:15:00      -68.898       27.360       -7.128       18.137       19.756       10.769      328.939      390.301      115.962        0.319        0.042       74.132       10.284        0.019      329.999       -2.907      863.355
01/17/2022  06:16:00      -71.043       22.710      -12.719       16.819       15.736       12.622      282.864      247.619      159.308        0.321        0.034       74.585        7.248        0.009      330.009       -2.893      863.356
01/17/2022  06:17:00      -64.660       16.296       -8.750       26.981       23.408       15.200      727.999      547.919      231.051        0.301        0.075       66.682       14.385        0.047      330.045       -2.834      863.365
01/17/2022  06:18:00      -66.525       22.505       -9.278       25.551       18.038       13.255      652.877      325.353      175.688        0.309        0.058       70.228        7.791        0.012      330.028       -2.863      863.380
01/17/2022  06:19:00      -50.200       10.644       -8.224       20.265       24.917       13.500      410.678      620.834      182.240        0.196        0.061       51.316       11.128        0.047      330.033       -2.851      863.386
01/17/2022  06:20:00      -33.428       30.339       -4.849       11.363       15.331        8.921      129.107      235.029       79.588        0.125        0.022       45.143       10.485        0.054      329.964       -2.965      863.385
01/17/2022  06:21:00      -12.429       21.707       -1.642        8.982        7.336        6.262       80.684       53.813       39.213        0.040        0.009       25.014        1.902        0.006      330.022       -2.869      863.378
01/17/2022  06:22:00      -14.949       18.552      -10.715        8.940        6.513        7.297       79.919       42.421       53.248        0.043        0.009       23.825        5.353        0.050      330.061       -2.809      863.381
01/17/2022  06:23:00      -33.934       15.234      -12.848       11.417       16.958        9.427      130.354      287.586       88.862        0.103        0.025       37.197        9.227        0.062      330.133       -2.689      863.396
01/17/2022  06:24:00      -11.935       -7.384       -9.774       18.341       19.632       10.397      336.378      385.427      108.106        0.056        0.041       14.035        7.007        0.249      330.088       -2.764      863.405
01/17/2022  06:25:00       -7.042       -0.409       -4.912       11.357       16.794       11.079      128.989      282.040      122.752        0.030        0.027        7.053        2.987        0.179      330.030       -2.860      863.398
01/17/2022  06:26:00      -38.452       19.811      -12.790       24.839       14.588        9.004      616.981      212.816       81.064        0.147        0.046       43.255        9.464        0.048      330.093       -2.756      863.386
01/17/2022  06:27:00      -56.673       24.324       -6.826       14.031       12.782       10.431      196.867      163.371      108.798        0.216        0.023       61.673        8.059        0.017      330.017       -2.881      863.373
01/17/2022  06:28:00      -17.476        6.955      -16.238       23.398       17.476        9.225      547.460      305.419       85.102        0.078        0.047       18.809        8.545        0.206      330.124       -2.706      863.379
01/17/2022  06:29:00      -22.030       18.342      -12.759       10.150       15.316        8.700      103.031      234.595       75.692        0.070        0.021       28.666        4.788        0.028      330.050       -2.826      863.390
01/17/2022  06:30:00      -22.273       19.759       -7.592        9.334        9.878        9.359       87.131       97.582       87.590        0.061        0.014       29.774        5.445        0.033      330.115       -2.721      863.398
01/17/2022  06:31:00      -10.965        2.873       -8.495        9.628       12.440       10.986       92.707      154.750      120.694        0.028        0.018       11.335       10.001        0.779      330.204       -2.574      863.393
01/17/2022  06:32:00       -3.932       -4.707       -5.869        7.186        7.808       10.653       51.639       60.966      113.490        0.015        0.011        6.134        6.586        1.153      330.279       -2.450      863.387
01/17/2022  06:33:00      -10.251      -10.583       -5.518       10.938        7.879        6.385      119.645       62.080       40.773        0.023        0.011       14.733        3.159        0.046      330.108       -2.731      863.384
01/17/2022  06:34:00      -11.543        4.575       -5.534       13.712       12.654        6.741      188.014      160.122       45.441        0.029        0.020       12.417        6.922        0.311      330.082       -2.774      863.387
01/17/2022  06:35:00       -2.607       -0.313        2.761        9.851        9.078       10.803       97.039       82.411      116.697        0.016        0.015        2.625        9.026       11.820      330.042       -2.840      863.399
01/17/2022  06:36:00       -3.344       10.703       -0.685       10.757        9.886        9.648      115.714       97.735       93.090        0.022        0.015       11.213        6.706        0.358      330.044       -2.836      863.402
01/17/2022  06:37:00      -63.455       34.027      -12.751       19.011       18.970       16.256      361.432      359.873      264.249        0.317        0.049       72.002        7.895        0.012      330.089       -2.762      863.411
01/17/2022  06:38:00      -56.870       28.628      -10.937       13.159       18.029       10.552      173.149      325.036      111.351        0.239        0.030       63.669        6.003        0.009      330.039       -2.843      863.430
01/17/2022  06:39:00      -27.864       10.081       -8.200       23.513       14.259       14.309      552.874      203.325      204.736        0.095        0.048       29.632       13.161        0.197      330.101       -2.744      863.454
01/17/2022  06:40:00       -7.522       18.415       -3.132       18.491        9.686        8.052      341.914       93.813       64.833        0.045        0.025       19.892        3.424        0.030      330.309       -2.398      863.468
01/17/2022  06:41:00       26.749       -9.486      -11.689       21.135       10.283        7.558      446.676      105.732       57.130        0.078        0.030       28.381        6.020        0.045      330.523       -2.052      863.477
01/17/2022  06:42:00      -22.967      -30.625       -3.756       15.553       20.311       11.855      241.898      412.525      140.537        0.114        0.040       38.281        7.492        0.038      330.581       -1.956      863.475
01/17/2022  06:43:00      -28.868       11.285       -3.361       12.460       19.960        8.672      155.262      398.412       75.198        0.080        0.031       30.996        3.543        0.013      330.464       -2.146      863.469
01/17/2022  06:44:00      -47.175       11.103      -13.162       17.062       18.157       12.193      291.106      329.685      148.675        0.165        0.038       48.464        4.315        0.008      330.201       -2.578      863.470
01/17/2022  06:45:00      -60.027       11.666      -10.558       17.359       22.565       12.664      301.327      509.166      160.388        0.241        0.049       61.150        8.805        0.021      330.140       -2.679      863.477
01/17/2022  06:46:00      -61.406       32.960      -11.499       21.992       16.472       11.116      483.667      271.314      123.576        0.293        0.044       69.692        5.291        0.006      330.100       -2.744      863.484
01/17/2022  06:47:00      -40.941       23.330      -10.185       18.765        9.004       10.928      352.123       81.067      119.420        0.144        0.028       47.122        8.853        0.035      330.199       -2.580      863.486
01/17/2022  06:48:00      -18.053        6.959       -4.784       10.458       10.296        6.710      109.363      105.999       45.030        0.033        0.013       19.347        4.942        0.065      330.258       -2.483      863.491
01/17/2022  06:49:00      -20.867        8.263       -9.048       18.598       12.441        9.037      345.876      154.790       81.661        0.058        0.029       22.443        8.718        0.151      330.329       -2.367      863.495
01/17/2022  06:50:00      -14.608       -0.210        2.244       22.502       14.747        9.152      506.356      217.466       83.751        0.051        0.040       14.609       10.760        0.542      330.355       -2.325      863.495
01/17/2022  06:51:00      -17.034       16.102       -8.448       24.874       21.952        9.263      618.716      481.889       85.803        0.090        0.059       23.440        8.415        0.129      330.345       -2.342      863.491
01/17/2022  06:52:00      -81.936       28.694      -11.531       16.918       16.599       15.599      286.220      275.518      243.325        0.424        0.040       86.815       10.392        0.014      330.203       -2.576      863.487
01/17/2022  06:53:00      -91.647       39.726       -9.711       19.174       17.102       13.679      367.637      292.494      187.118        0.546        0.042       99.887        9.720        0.009      330.133       -2.690      863.474
01/17/2022  06:54:00      -67.000       23.881      -11.634       16.104       21.432       13.236      259.348      459.323      175.180        0.304        0.045       71.128       11.787        0.027      330.195       -2.587      863.474
01/17/2022  06:55:00      -30.169        6.935       -1.101       30.212       17.655       13.046      912.786      311.685      170.209        0.118        0.070       30.956        9.314        0.091      330.239       -2.514      863.486
01/17/2022  06:56:00      -53.176        4.907       -4.565       31.488       30.016       17.730      991.494      900.980      314.351        0.254        0.110       53.402       15.940        0.089      330.252       -2.495      863.496
01/17/2022  06:57:00      -36.658        5.100       -1.495       34.806       24.732       17.274     1211.455      611.654      298.387        0.175        0.106       37.011       13.239        0.128      330.276       -2.455      863.511
01/17/2022  06:58:00       11.423       -5.161        1.635        8.406        8.655       10.024       70.662       74.906      100.489        0.020        0.012       12.534        4.292        0.117      330.273       -2.458      863.516
01/17/2022  06:59:00       -6.647       -7.402       -9.641       10.262        9.007        7.791      105.302       81.118       60.699        0.022        0.012        9.948        6.073        0.373      330.319       -2.384      863.519
01/17/2022  07:00:00       -0.629        3.106       -7.836        7.629        5.119        3.366       58.204       26.203       11.327        0.008        0.005        3.169        2.965        0.875      330.384       -2.276      863.509
01/17/2022  07:01:00      -14.597       25.941       -6.170       15.688       16.316        5.686      246.104      266.204       32.333        0.073        0.027       29.766        7.764        0.068      330.385       -2.277      863.511
01/17/2022  07:02:00      -86.884       32.139      -13.386       20.994       15.619       10.470      440.767      243.964      109.613        0.478        0.040       92.637        4.638        0.003      330.244       -2.508      863.517
01/17/2022  07:03:00      -76.239       17.977      -10.769       18.844       13.512       13.665      355.079      182.582      186.721        0.349        0.036       78.330        9.726        0.015      330.171       -2.628      863.529
01/17/2022  07:04:00      -38.057       -3.491       -3.883       34.708       18.334       15.146     1204.652      336.119      229.399        0.162        0.089       38.217       14.597        0.146      330.303       -2.410      863.527
01/17/2022  07:05:00       -0.272        6.083        6.197       10.076       15.920       10.209      101.523      253.438      104.230        0.027        0.023        6.089        5.694        0.875      330.279       -2.449      863.525
01/17/2022  07:06:00      -14.314       10.981       -9.381       13.190       10.910        6.380      173.980      119.027       40.703        0.037        0.017       18.041        2.825        0.025      330.296       -2.421      863.528
01/17/2022  07:07:00      -13.941        6.922       -6.632       11.594       13.633        7.791      134.420      185.870       60.693        0.033        0.019       15.564        8.355        0.288      330.321       -2.381      863.537
01/17/2022  07:08:00        1.636      -11.157       -6.825        8.765       11.148        8.300       76.823      124.269       68.885        0.022        0.013       11.276        2.917        0.067      330.365       -2.309      863.543
01/17/2022  07:09:00       -6.221        7.000       -7.648       10.653       12.482        9.132      113.485      155.794       83.393        0.025        0.018        9.365        6.755        0.520      330.288       -2.434      863.547
01/17/2022  07:10:00      -37.964       18.720       -9.629       11.240        9.551        6.407      126.346       91.220       41.051        0.107        0.013       42.329        3.004        0.005      330.271       -2.462      863.545
01/17/2022  07:11:00      -31.181       29.602       -6.314       13.052        9.332        6.589      170.363       87.092       43.417        0.109        0.015       42.995        6.334        0.022      330.290       -2.431      863.540
01/17/2022  07:12:00       -2.552       19.996       -4.552        5.639        5.602        5.476       31.801       31.385       29.984        0.026        0.005       20.158        1.491        0.005      330.270       -2.465      863.534
01/17/2022  07:13:00        0.955        3.047       -6.730        1.927        3.813        5.105        3.715       14.542       26.061        0.005        0.002        3.193        2.708        0.719      330.290       -2.430      863.524
01/17/2022  07:14:00       -1.320        4.221       -9.725        8.230        2.979        3.295       67.731        8.877       10.858        0.010        0.004        4.422        2.748        0.386      330.370       -2.302      863.512
01/17/2022  07:15:00        1.540        2.140      -11.888        3.416        2.792        4.368       11.671        7.796       19.080        0.009        0.002        2.636        2.950        1.252      330.305       -2.403      863.506
01/17/2022  07:16:00      -11.174       10.815       -5.957        8.127        7.265        6.397       66.048       52.773       40.919        0.022        0.008       15.551        2.961        0.036      330.296       -2.422      863.504
01/17/2022  07:17:00       -0.286        1.753        2.697        5.355        7.345        4.184       28.677       53.945       17.506        0.006        0.005        1.776        3.958        4.965      330.237       -2.518      863.507
01/17/2022  07:18:00       -4.719       -4.516       -7.646        5.558       15.801        8.601       30.889      249.678       73.983        0.023        0.018        6.532        5.505        0.710      330.340       -2.349      863.511
01/17/2022  07:19:00       -9.214       -1.933       -9.767        8.365        8.247        6.479       69.973       68.010       41.974        0.018        0.009        9.414        4.580        0.237      330.318       -2.385      863.499
01/17/2022  07:20:00      -12.430       11.788       -8.983       11.587       11.608        4.739      134.259      134.745       22.455        0.033        0.015       17.131        3.259        0.036      330.287       -2.436      863.487
01/17/2022  07:21:00        0.211       24.966       -5.691        8.082        6.267        6.865       65.322       39.282       47.127        0.040        0.008       24.967        3.023        0.015      330.331       -2.365      863.487
01/17/2022  07:22:00      -26.772       18.720       -8.959       16.430       15.724        8.059      269.934      247.233       64.943        0.086        0.029       32.667        4.526        0.019      330.346       -2.341      863.509
01/17/2022  07:23:00       -2.304      -10.013       -9.357        9.218       10.848        8.665       84.970      117.677       75.086        0.024        0.014       10.275        6.845        0.444      330.423       -2.216      863.525
01/17/2022  07:24:00       -0.827       -6.027       -0.425        4.416        6.314        7.014       19.504       39.872       49.199        0.007        0.005        6.083        4.026        0.438      330.426       -2.210      863.525
01/17/2022  07:25:00       11.418       -7.859      -11.733        6.713        9.298        7.720       45.066       86.459       59.603        0.026        0.010       13.862        3.863        0.078      330.337       -2.355      863.520
01/17/2022  07:26:00        6.234       -1.999      -11.367       10.115        9.737        8.109      102.308       94.811       65.763        0.022        0.013        6.547        5.622        0.738      330.277       -2.453      863.517
01/17/2022  07:27:00       10.406        5.247       -8.103        6.964        6.557        6.402       48.498       42.995       40.990        0.017        0.007       11.654        4.342        0.139      330.279       -2.449      863.515
01/17/2022  07:28:00        3.086       10.446       -5.463        8.160        6.141        6.548       66.583       37.713       42.876        0.015        0.007       10.892        4.821        0.196      330.231       -2.529      863.519
01/17/2022  07:29:00        2.135       15.534       -5.717        4.226        4.087        4.745       17.863       16.706       22.512        0.017        0.003       15.680        1.312        0.007      330.294       -2.426      863.525
01/17/2022  07:30:00        8.931       16.262       -3.487        7.612        6.881        5.699       57.948       47.344       32.483        0.025        0.007       18.553        2.205        0.014      330.285       -2.438      863.532
01/17/2022  07:31:00       27.002       15.241       -5.249        6.821        5.652        4.442       46.528       31.944       19.732        0.054        0.005       31.007        2.489        0.006      330.306       -2.405      863.536
01/17/2022  07:32:00       18.087       11.410       -6.244        9.568        7.086        7.371       91.545       50.210       54.327        0.035        0.010       21.385        5.958        0.078      330.276       -2.454      863.535
01/17/2022  07:33:00       13.215       27.230       -0.542       18.406       10.912        9.873      338.797      119.074       97.473        0.074        0.028       30.267       10.014        0.109      330.191       -2.593      863.532
01/17/2022  07:34:00       20.850       25.239       -6.425        6.306        8.310        4.808       39.768       69.061       23.121        0.062        0.007       32.737        5.066        0.024      330.169       -2.632      863.528
01/17/2022  07:35:00       15.538       15.299       -6.274        3.209        3.001        3.662       10.296        9.007       13.412        0.027        0.002       21.806        1.574        0.005      330.223       -2.540      863.527
01/17/2022  07:36:00        2.518       10.273       -0.918        7.811        7.580        4.024       61.008       57.461       16.195        0.012        0.007       10.577        3.863        0.133      330.241       -2.512      863.529
01/17/2022  07:37:00       15.538       12.876       -8.321       12.675        6.834        6.322      160.657       46.700       39.969        0.036        0.012       20.180        5.378        0.071      330.273       -2.457      863.526
01/17/2022  07:38:00       32.416       24.037      -11.354        7.171        7.379        5.873       51.419       54.454       34.496        0.095        0.007       40.355        3.387        0.007      330.249       -2.497      863.530
01/17/2022  07:39:00       20.071       15.350       -7.853       11.575        8.505        9.202      133.979       72.328       84.681        0.050        0.015       25.268        2.844        0.013      330.259       -2.481      863.536
01/17/2022  07:40:00       28.433       23.611       -7.754        6.443        7.761        7.064       41.510       60.229       49.907        0.079        0.008       36.958        2.994        0.007      330.250       -2.496      863.542
01/17/2022  07:41:00       26.395       25.250      -10.413        9.166        7.623        9.477       84.018       58.111       89.813        0.084        0.012       36.527        3.167        0.008      330.258       -2.483      863.552
01/17/2022  07:42:00       20.652       16.407       -6.978        7.432        7.981        6.692       55.236       63.700       44.787        0.045        0.008       26.376        4.605        0.030      330.227       -2.534      863.554
01/17/2022  07:43:00       33.189       21.441      -10.314        6.506        5.354        5.829       42.325       28.662       33.976        0.089        0.005       39.513        3.503        0.008      330.238       -2.516      863.548
01/17/2022  07:44:00       38.713       28.414       -8.061        7.139        9.516        4.665       50.961       90.546       21.763        0.127        0.008       48.021        4.887        0.010      330.253       -2.494      863.534
01/17/2022  07:45:00       44.572       38.097       -3.910        9.345        7.947        7.462       87.320       63.156       55.674        0.183        0.010       58.634        5.420        0.009      330.245       -2.505      863.525
01/17/2022  07:46:00       31.765       22.961       -1.555       17.143       19.798       10.968      293.889      391.963      120.308        0.117        0.040       39.195       10.408        0.071      330.261       -2.479      863.528
01/17/2022  07:47:00       28.047       10.661       -8.559       13.951       14.379        9.621      194.622      206.758       92.572        0.073        0.025       30.004        4.089        0.019      330.331       -2.365      863.534
01/17/2022  07:48:00       26.740       11.089       -7.575       13.934       17.219        8.381      194.149      296.491       70.244        0.073        0.028       28.948        4.321        0.022      330.319       -2.384      863.537
01/17/2022  07:49:00       16.096       13.711       -7.286        9.387       10.653        6.784       88.113      113.495       46.027        0.037        0.012       21.144        5.887        0.078      330.309       -2.399      863.538
01/17/2022  07:50:00       10.126       16.484      -10.712        7.811        4.811        5.274       61.010       23.143       27.814        0.030        0.006       19.346        4.196        0.047      330.290       -2.429      863.543
01/17/2022  07:51:00        1.066        9.413       -7.319        3.377        4.721        3.924       11.401       22.283       15.400        0.010        0.002        9.473        2.327        0.060      330.416       -2.226      863.555
01/17/2022  07:52:00       -8.156       24.085       -6.764       10.843       15.771        5.276      117.568      248.722       27.838        0.054        0.020       25.429        5.731        0.051      330.450       -2.170      863.555
01/17/2022  07:53:00      -28.766       33.093       -6.910        8.803        9.594        6.780       77.494       92.052       45.969        0.109        0.011       43.848        2.981        0.005      330.404       -2.245      863.575
01/17/2022  07:54:00      -12.848       16.739       -2.521        8.887        7.363        8.323       78.980       54.214       69.266        0.033        0.010       21.101        4.940        0.055      330.422       -2.215      863.583
01/17/2022  07:55:00      -15.457       18.750       -5.490        8.391       11.745        9.668       70.405      137.939       93.472        0.046        0.015       24.299        8.842        0.132      330.484       -2.114      863.599
01/17/2022  07:56:00      -16.308      -15.814       -9.196       13.943       11.896        8.195      194.418      141.505       67.163        0.050        0.020       22.716        6.397        0.079      330.574       -1.965      863.616
01/17/2022  07:57:00       -8.957      -16.287       -5.570        8.879       11.621        9.075       78.832      135.045       82.359        0.034        0.015       18.588        4.912        0.070      330.667       -1.813      863.627
01/17/2022  07:58:00        2.265       12.725       -2.917        7.562       11.522        6.992       57.177      132.748       48.892        0.021        0.012       12.925        1.910        0.022      330.677       -1.797      863.632
01/17/2022  07:59:00       38.788       28.544       -5.830       12.099       12.307        9.655      146.398      151.473       93.216        0.137        0.020       48.158        5.268        0.012      330.486       -2.110      863.640
01/17/2022  08:00:00       23.139       32.215      -11.293       12.095        9.377        7.875      146.285       87.923       62.009        0.100        0.015       39.664        4.214        0.011      330.505       -2.081      863.667
01/17/2022  08:01:00       15.282       29.758      -14.853        9.243        8.872        7.532       85.440       78.721       56.737        0.078        0.011       33.452        3.057        0.008      330.522       -2.051      863.679
01/17/2022  08:02:00       31.164       24.878       -5.968       10.930        7.022        8.674      119.459       49.306       75.236        0.093        0.012       39.876        4.669        0.014      330.471       -2.135      863.682
01/17/2022  08:03:00       43.102       34.275      -13.469       11.397       10.010       11.697      129.894      100.203      136.817        0.179        0.018       55.068        5.678        0.011      330.482       -2.118      863.676
01/17/2022  08:04:00       45.222       29.916      -19.187       11.591       11.298        7.846      134.357      127.655       61.557        0.182        0.016       54.222        5.707        0.011      330.470       -2.134      863.671
01/17/2022  08:05:00       31.142       30.996       -9.878        9.390        7.853        9.475       88.178       61.673       89.768        0.113        0.012       43.938        3.130        0.005      330.502       -2.085      863.684
01/17/2022  08:06:00       47.553       28.732      -13.194        8.727       12.141        8.804       76.153      147.410       77.511        0.178        0.015       55.559        3.535        0.004      330.552       -2.003      863.692
01/17/2022  08:07:00       48.010       38.169      -14.865        8.163       10.611        9.202       66.639      112.595       84.671        0.212        0.013       61.334        3.649        0.004      330.558       -1.994      863.690
01/17/2022  08:08:00       31.240       33.794      -10.202       10.649       12.758       11.161      113.405      162.775      124.559        0.131        0.020       46.021        7.918        0.030      330.648       -1.845      863.696
01/17/2022  08:09:00        9.802       17.953       -7.780        6.898       11.835       11.950       47.581      140.068      142.808        0.040        0.017       20.455        9.741        0.227      330.679       -1.793      863.700
01/17/2022  08:10:00       53.679       52.780      -10.804       20.253       15.066        8.971      410.165      226.970       80.480        0.325        0.036       75.281        7.181        0.009      330.631       -1.872      863.697
01/17/2022  08:11:00       57.412       57.839       -0.358       27.368       17.823       12.688      749.034      317.664      160.996        0.393        0.061       81.496       11.968        0.022      330.707       -1.748      863.706
01/17/2022  08:12:00       50.550       17.514      -19.147       21.374       31.968       19.698      456.854     1021.931      388.027        0.255        0.093       53.498       20.796        0.151      330.827       -1.551      863.713
01/17/2022  08:13:00       55.387       35.795      -14.205       19.613       22.658       13.967      384.675      513.365      195.075        0.282        0.055       65.946        9.301        0.020      330.785       -1.620      863.729
01/17/2022  08:14:00        4.175        6.484       -1.948       19.720       28.430       17.525      388.883      808.277      307.118        0.078        0.075        7.712       10.176        1.741      330.923       -1.394      863.744
01/17/2022  08:15:00       24.021      -17.428      -14.653       29.590       27.264       23.061      875.548      743.336      531.814        0.162        0.108       29.678       16.668        0.315      330.957       -1.337      863.762
01/17/2022  08:16:00       34.531       -6.345       -8.707       25.585       19.217       18.039      654.602      369.290      325.413        0.133        0.067       35.109       11.733        0.112      330.935       -1.374      863.779
01/17/2022  08:17:00       35.689      -18.369       -9.989       21.770       21.431       22.431      473.941      459.277      503.165        0.157        0.072       40.138       16.632        0.172      330.932       -1.378      863.793
01/17/2022  08:18:00       28.495       11.799      -12.262       29.507       34.776       19.306      870.666     1209.378      372.732        0.178        0.123       30.841       14.710        0.227      330.899       -1.433      863.798
01/17/2022  08:19:00       19.097       16.688       -4.132       18.438       31.726       23.564      339.971     1006.549      555.277        0.128        0.095       25.361       18.687        0.543      330.966       -1.322      863.807
01/17/2022  08:20:00       18.330        1.779       -6.104       22.470       29.138       18.487      504.900      849.037      341.755        0.104        0.085       18.416       13.826        0.564      331.144       -1.029      863.824
01/17/2022  08:21:00       64.251       31.701      -18.337       15.941       16.101       12.360      254.129      259.227      152.758        0.307        0.033       71.646        6.755        0.009      330.905       -1.423      863.845
01/17/2022  08:22:00       81.111       55.374      -15.526       17.267       13.199       13.155      298.137      174.219      173.051        0.527        0.032       98.210        4.252        0.002      330.811       -1.575      863.855
01/17/2022  08:23:00       84.974       58.267      -22.690       17.216       13.920       11.152      296.383      193.775      124.375        0.587        0.031      103.032        7.749        0.006      330.772       -1.640      863.854
01/17/2022  08:24:00       97.948       51.596      -20.353       13.964       15.505       14.035      194.992      240.394      196.983        0.665        0.032      110.707        6.672        0.004      330.772       -1.641      863.853
01/17/2022  08:25:00       76.703       48.626      -17.589       28.705       19.711       19.483      824.000      388.537      379.602        0.507        0.080       90.818       15.925        0.031      330.879       -1.465      863.858
01/17/2022  08:26:00       75.262       36.939      -21.738       23.043       30.569       20.802      530.983      934.490      432.712        0.470        0.095       83.838       10.336        0.015      330.965       -1.325      863.855
01/17/2022  08:27:00       40.789        5.675      -16.571       32.629       36.200       22.736     1064.665     1310.438      516.925        0.243        0.145       41.182       16.001        0.151      331.042       -1.199      863.852
01/17/2022  08:28:00       50.938       29.371       -7.980       31.751       40.591       18.935     1008.119     1647.647      358.535        0.327        0.151       58.799       14.754        0.063      331.014       -1.244      863.840
01/17/2022  08:29:00       83.127       37.538      -22.123       27.680       29.815       16.087      766.195      888.922      258.779        0.536        0.096       91.210       12.123        0.018      330.937       -1.371      863.840
01/17/2022  08:30:00       62.180       32.644      -17.924       28.982       35.664       16.431      839.983     1271.898      269.969        0.382        0.119       70.228       18.239        0.067      330.989       -1.286      863.840
01/17/2022  08:31:00       63.643       23.131       -7.476       32.724       40.780       27.049     1070.875     1662.990      731.650        0.405        0.173       67.716       21.859        0.104      331.164       -0.996      863.842
01/17/2022  08:32:00       85.473       61.148      -16.623       18.002       19.920       17.015      324.064      396.826      289.502        0.617        0.051      105.094        4.892        0.002      330.956       -1.339      863.841
01/17/2022  08:33:00       41.477       33.912      -24.101       28.013       35.063       16.644      784.719     1229.431      277.016        0.287        0.115       53.576        5.780        0.012      331.263       -0.834      863.845
01/17/2022  08:34:00       16.257      -24.826       -1.792       32.484       66.285       24.578     1055.207     4393.639      604.091        0.347        0.303       29.675       19.557        0.434      331.299       -0.775      863.852
01/17/2022  08:35:00       42.084      -19.489      -28.237       35.288       39.174       34.228     1245.226     1534.570     1171.536        0.345        0.198       46.378       21.016        0.205      331.406       -0.599      863.851
01/17/2022  08:36:00       47.739      -15.069      -23.614       30.016       28.335       28.142      900.935      802.855      791.998        0.278        0.125       50.061       17.102        0.117      331.334       -0.718      863.855
01/17/2022  08:37:00       15.786       -6.656       -3.190       36.566       24.181       27.878     1337.092      584.726      777.173        0.150        0.135       17.132       19.739        1.328      331.433       -0.554      863.871
01/17/2022  08:38:00       66.717       -2.691      -14.992       28.357       23.359       17.222      804.139      545.626      296.582        0.316        0.082       66.771        8.714        0.017      331.096       -1.109      863.900
01/17/2022  08:39:00       36.958       -8.932       -4.084       28.552       31.804       18.702      815.200     1011.491      349.763        0.182        0.109       38.022       11.232        0.087      331.349       -0.694      863.913
01/17/2022  08:40:00       17.919       36.426      -15.338       34.078       29.597       16.194     1161.305      875.979      262.247        0.209        0.115       40.595       17.948        0.195      331.194       -0.948      863.912
01/17/2022  08:41:00       28.798      -14.085      -14.415       45.119       40.405       33.547     2035.705     1632.569     1125.372        0.301        0.240       32.058       27.180        0.719      331.337       -0.712      863.894
01/17/2022  08:42:00       28.822      -13.728      -23.780       41.957       38.544       24.483     1760.392     1485.607      599.393        0.271        0.192       31.925       21.054        0.435      331.425       -0.568      863.881
01/17/2022  08:43:00       46.961      -11.479      -13.838       41.971       41.914       33.406     1761.604     1756.823     1115.982        0.358        0.232       48.344       22.155        0.210      331.354       -0.686      863.880
01/17/2022  08:44:00       33.972      -15.049       -2.911       32.255       27.643       29.552     1040.381      764.137      873.316        0.203        0.134       37.156       23.859        0.412      331.376       -0.649      863.879
01/17/2022  08:45:00       84.956      -20.383      -17.163       32.282       25.392       20.425     1042.117      644.743      417.184        0.502        0.105       87.367       14.778        0.029      331.235       -0.879      863.874
01/17/2022  08:46:00       66.687      -15.201      -19.284       29.407       32.623       25.264      864.791     1064.277      638.270        0.381        0.128       68.397       18.495        0.073      331.347       -0.696      863.871
01/17/2022  08:47:00       48.281      -19.831      -15.192       39.007       23.033       23.034     1521.561      530.500      530.582        0.277        0.129       52.195       17.750        0.116      331.416       -0.582      863.876
01/17/2022  08:48:00       29.193       31.059      -10.231       32.763       34.161       23.314     1073.443     1166.991      543.553        0.235        0.139       42.625       10.911        0.066      331.450       -0.527      863.890
01/17/2022  08:49:00       65.625       25.839      -12.508       25.854       37.704       22.140      668.437     1421.589      490.166        0.385        0.129       70.529       15.005        0.045      331.373       -0.654      863.908
01/17/2022  08:50:00       25.955      -29.774       -2.549       28.029       36.707       28.213      785.637     1347.418      795.983        0.225        0.146       39.498       21.263        0.290      331.448       -0.531      863.914
01/17/2022  08:51:00       30.373      -11.425      -11.502       27.438       22.020       17.493      752.855      484.879      306.018        0.136        0.077       32.450        8.350        0.066      331.384       -0.636      863.914
01/17/2022  08:52:00       23.034        4.336      -23.883       22.039       33.819       16.212      485.718     1143.699      262.836        0.151        0.095       23.439        9.112        0.151      331.616       -0.254      863.918
01/17/2022  08:53:00       37.936       -9.170      -18.300       24.055       46.296       23.473      578.628     2143.324      550.990        0.256        0.164       39.028       17.424        0.199      331.599       -0.281      863.920
01/17/2022  08:54:00       25.744        9.746      -13.937       35.659       29.688       21.679     1271.597      881.350      469.983        0.179        0.131       27.527       16.452        0.357      331.552       -0.358      863.922
01/17/2022  08:55:00       69.296       44.624      -24.805       33.234       30.430       19.985     1104.497      925.975      399.391        0.492        0.121       82.421       16.547        0.040      331.460       -0.511      863.930
01/17/2022  08:56:00       53.271      -16.648      -16.331       33.400       44.870       19.612     1115.545     2013.280      384.613        0.345        0.176       55.812       17.992        0.104      331.514       -0.420      863.954
01/17/2022  08:57:00       39.658      -35.702      -20.552       35.154       21.077       15.811     1235.830      444.219      249.986        0.260        0.097       53.361       16.819        0.099      331.443       -0.538      863.967
01/17/2022  08:58:00       30.085        8.966       -3.516       25.941       62.562       30.791      672.943     3913.957      948.086        0.327        0.277       31.393       29.399        0.877      331.798        0.045      863.970
01/17/2022  08:59:00       84.243      -54.556      -34.268       36.160       37.075       21.812     1307.540     1374.521      475.779        0.720        0.158      100.365       21.131        0.044      331.442       -0.540      863.975
01/17/2022  09:00:00       49.190      -30.847      -30.945       38.937       48.825       24.927     1516.098     2383.839      621.367        0.442        0.226       58.062       18.434        0.101      331.628       -0.234      863.968
01/17/2022  09:01:00       18.665      -15.915      -11.817       42.762       35.168       34.375     1828.560     1236.774     1181.643        0.249        0.212       24.529       22.079        0.810      331.882        0.185      863.978
01/17/2022  09:02:00       76.443      -53.429      -18.238       37.360       30.137       25.019     1395.790      908.253      625.957        0.598        0.147       93.264       22.186        0.057      331.496       -0.450      863.994
01/17/2022  09:03:00       69.922      -20.214      -19.223       49.890       39.982       23.965     2489.021     1598.541      574.304        0.516        0.233       72.785        7.946        0.012      331.664       -0.175      863.994
01/17/2022  09:04:00       88.698      -12.713      -10.147       44.102       34.090       32.406     1945.029     1162.113     1050.140        0.614        0.208       89.605       23.594        0.069      331.579       -0.315      864.002
01/17/2022  09:05:00       81.476      -28.532      -28.919       26.122       19.837       13.431      682.350      393.490      180.403        0.477        0.063       86.327        7.881        0.008      331.413       -0.587      864.013
01/17/2022  09:06:00       64.020      -73.303      -27.387       48.750       55.638       25.815     2376.557     3095.605      666.399        0.818        0.307       97.324       18.541        0.036      331.643       -0.209      864.025
01/17/2022  09:07:00       61.538      -25.045       -7.028       65.797       43.408       37.427     4329.251     1884.286     1400.778        0.604        0.381       66.439       38.979        0.344      331.750       -0.034      864.040
01/17/2022  09:08:00       95.304       -5.380      -12.178       39.795       35.657       29.551     1583.618     1271.401      873.261        0.649        0.186       95.456       20.780        0.047      331.593       -0.290      864.041
01/17/2022  09:09:00       96.937       55.999      -15.391       34.613       34.660       19.496     1198.063     1201.326      380.093        0.777        0.139      111.950        6.794        0.004      331.630       -0.231      864.037
01/17/2022  09:10:00       58.166      -37.101      -29.798       39.252       54.531       28.892     1540.732     2973.601      834.720        0.550        0.267       68.991       20.744        0.090      331.929        0.261      864.042
01/17/2022  09:11:00       68.821      -43.973      -16.127       35.449       23.216       23.060     1256.597      538.961      531.774        0.463        0.116       81.670       15.875        0.038      331.619       -0.249      864.052
01/17/2022  09:12:00       47.296        5.482      -11.669       52.518       51.854       35.172     2758.138     2688.848     1237.067        0.454        0.334       47.613       25.995        0.298      332.004        0.385      864.054
01/17/2022  09:13:00       68.081       -4.399      -20.425       42.581       57.603       25.047     1813.129     3318.133      627.362        0.541        0.288       68.223       19.187        0.079      331.812        0.070      864.050
01/17/2022  09:14:00       60.172       25.056      -12.080       43.511       64.198       27.532     1893.250     4121.366      757.996        0.558        0.339       65.181       25.286        0.150      331.897        0.209      864.051
01/17/2022  09:15:00       27.843       29.861       -3.356       36.366       28.835       17.811     1322.473      831.470      317.221        0.207        0.124       40.828        3.957        0.009      331.938        0.277      864.059
01/17/2022  09:16:00       44.294        0.445      -16.444       52.892       41.434       24.838     2797.587     1716.769      616.911        0.368        0.257       44.296       11.868        0.072      332.001        0.379      864.074
01/17/2022  09:17:00       22.319       -6.410      -10.554       46.092       18.166       22.172     2124.463      330.012      491.583        0.180        0.147       23.221       21.666        0.871      331.771        0.002      864.087
01/17/2022  09:18:00        3.492       11.650       -5.529       39.474       28.281       21.390     1558.193      799.819      457.537        0.150        0.141       12.162       16.856        1.921      331.982        0.349      864.096
01/17/2022  09:19:00       35.251       -1.378      -19.719       34.270       33.729       29.752     1174.399     1137.657      885.187        0.241        0.160       35.278       20.505        0.338      332.067        0.488      864.097
01/17/2022  09:20:00       66.231      -17.386      -17.546       32.673       31.668       28.654     1067.521     1002.842      821.047        0.394        0.145       68.475       15.912        0.054      331.930        0.264      864.104
01/17/2022  09:21:00       66.598      -13.261      -15.266       41.519       46.694       27.513     1723.826     2180.334      756.986        0.475        0.233       67.906       22.122        0.106      331.892        0.200      864.111
01/17/2022  09:22:00       63.025      -34.793      -19.137       30.727       31.601       24.906      944.169      998.592      620.312        0.406        0.128       71.991       13.198        0.034      331.927        0.258      864.115
01/17/2022  09:23:00       84.871       -6.167      -12.965       36.847       36.444       27.772     1357.696     1328.158      771.292        0.543        0.173       85.095       21.822        0.066      331.934        0.268      864.123
01/17/2022  09:24:00       70.174       30.174      -20.799       36.627       29.725       24.764     1341.523      883.598      613.261        0.455        0.142       76.386       12.965        0.029      331.774        0.005      864.128
01/17/2022  09:25:00       22.253       28.447      -19.777       15.521       27.266       21.653      240.897      743.420      468.842        0.157        0.073       36.118        4.139        0.013      331.872        0.169      864.132
01/17/2022  09:26:00       62.229      -67.084      -40.821       45.148       59.359       32.785     2038.338     3523.505     1074.840        0.834        0.332       91.503       28.856        0.099      332.133        0.597      864.135
01/17/2022  09:27:00       76.571      -61.904      -43.903       35.756       54.033       35.616     1278.465     2919.512     1268.489        0.854        0.273       98.465       20.965        0.045      332.162        0.645      864.151
01/17/2022  09:28:00       83.932       -5.408      -24.783       41.903       39.879       34.684     1755.830     1590.318     1202.981        0.612        0.227       84.106       21.777        0.067      332.085        0.520      864.165
01/17/2022  09:29:00       79.412       18.994      -27.730       35.424       51.430       25.568     1254.830     2645.024      653.708        0.599        0.228       81.652        7.188        0.008      332.023        0.416      864.180
01/17/2022  09:30:00       43.601       35.272      -18.512       31.120       13.570       14.061      968.474      184.154      197.719        0.242        0.068       56.082       14.756        0.069      331.785        0.026      864.182
01/17/2022  09:31:00       48.776       24.042       -9.564       38.157       43.593       23.973     1455.994     1900.388      574.691        0.349        0.197       54.379       19.635        0.130      332.259        0.805      864.176
01/17/2022  09:32:00       78.124      -64.461      -35.579       40.293       31.097       17.305     1623.565      967.010      299.465        0.721        0.145      101.285       12.976        0.016      332.029        0.427      864.179
01/17/2022  09:33:00       42.165      -73.855      -22.036       26.602       27.940       19.881      707.647      780.634      395.237        0.480        0.094       85.044       17.739        0.044      332.083        0.516      864.183
01/17/2022  09:34:00       51.712      -84.162      -26.113       19.643       13.729       13.117      385.833      188.475      172.060        0.559        0.037       98.779        8.009        0.007      331.863        0.154      864.192
01/17/2022  09:35:00       33.686      -46.131      -25.135       24.486       45.838       20.393      599.574     2101.162      415.891        0.351        0.156       57.121       13.786        0.058      332.226        0.750      864.199
01/17/2022  09:36:00       44.501       -2.150      -22.755       37.569       38.514       28.204     1411.453     1483.319      795.461        0.310        0.185       44.553       13.322        0.089      332.499        1.201      864.206
01/17/2022  09:37:00      101.772      -19.542      -42.795       35.292       43.146       32.384     1245.501     1861.587     1048.751        0.836        0.208      103.631       11.606        0.013      332.172        0.663      864.205
01/17/2022  09:38:00       57.249      -68.846      -24.822       51.938       52.315       21.866     2697.581     2736.872      478.129        0.727        0.296       89.539       13.749        0.024      332.191        0.693      864.204
01/17/2022  09:39:00       49.965      -16.006      -22.281       48.566       35.755       37.546     2358.672     1278.429     1409.688        0.415        0.252       52.466       22.650        0.186      332.725        1.574      864.222
01/17/2022  09:40:00       82.074       29.724       -7.966       46.870       54.741       28.119     2196.796     2996.566      790.665        0.683        0.299       87.291       22.130        0.064      332.314        0.897      864.230
01/17/2022  09:41:00       77.398       30.266      -20.811       30.089       38.981       22.749      905.345     1519.508      517.527        0.514        0.147       83.105        6.134        0.005      332.386        1.016      864.237
01/17/2022  09:42:00       42.557       21.338       -6.869       28.820       38.502       13.364      830.615     1482.377      178.599        0.240        0.125       47.607       12.726        0.071      332.469        1.151      864.234
01/17/2022  09:43:00       59.019      -31.032      -26.404       36.700       56.661       29.996     1346.868     3210.494      899.743        0.530        0.273       66.680       18.489        0.077      332.587        1.347      864.219
01/17/2022  09:44:00       46.616      -47.426      -29.443       43.670       62.869       31.240     1907.099     3952.497      975.947        0.606        0.342       66.500       21.897        0.108      332.701        1.536      864.216
01/17/2022  09:45:00       48.565      -30.815       -1.019       45.085       37.797       31.117     2032.698     1428.616      968.288        0.387        0.221       57.516       29.206        0.258      332.784        1.671      864.223
01/17/2022  09:46:00       76.386      -97.140      -25.173       58.968       59.000       27.231     3477.232     3480.972      741.503        1.180        0.385      123.576       26.230        0.045      332.187        0.686      864.223
01/17/2022  09:47:00       41.874      -50.354      -23.191       41.147       64.781       27.724     1693.095     4196.627      768.601        0.574        0.333       65.490       24.662        0.142      332.640        1.436      864.231
01/17/2022  09:48:00       74.762       54.597      -11.843       36.702       36.129       20.426     1347.031     1305.315      417.208        0.589        0.153       92.575       20.749        0.050      332.395        1.029      864.232
01/17/2022  09:49:00       85.787       46.259      -22.164       38.325       40.332       23.712     1468.841     1626.630      562.235        0.682        0.183       97.465       14.766        0.023      332.425        1.079      864.226
01/17/2022  09:50:00       81.544      -56.490      -24.272       61.139       41.236       34.946     3737.948     1700.387     1221.214        0.854        0.333       99.199       25.950        0.068      332.592        1.355      864.214
01/17/2022  09:51:00       51.362      -29.213      -29.351       35.870       34.031       21.260     1286.680     1158.141      451.994        0.362        0.145       59.089       15.465        0.068      332.622        1.406      864.211
01/17/2022  09:52:00       16.441      -13.094       -1.720       48.757       48.668       29.291     2377.223     2368.602      857.970        0.302        0.280       21.018       22.008        1.096      332.784        1.672      864.193
01/17/2022  09:53:00       45.631      -37.002      -26.782       41.074       44.387       27.723     1687.049     1970.223      768.554        0.430        0.221       58.748       13.162        0.050      332.816        1.725      864.183
01/17/2022  09:54:00       83.009      -18.592      -22.409       35.352       41.940       26.799     1249.773     1758.984      718.160        0.573        0.186       85.066       16.500        0.038      332.607        1.380      864.182
01/17/2022  09:55:00       42.926      -46.122      -19.487       28.952       32.352       16.643      838.224     1046.624      276.991        0.326        0.108       63.006       18.234        0.084      332.566        1.313      864.171
01/17/2022  09:56:00       66.328       15.751      -17.488       79.207       56.202       35.034     6273.775     3158.685     1227.392        0.780        0.533       68.173       36.975        0.294      332.838        1.762      864.161
01/17/2022  09:57:00      123.726       48.395      -27.369       49.297       35.794       32.496     2430.199     1281.237     1055.976        1.158        0.238      132.854       24.577        0.034      332.634        1.423      864.157
01/17/2022  09:58:00      145.579       48.842      -28.227       49.527       44.965       27.252     2452.899     2021.860      742.652        1.480        0.261      153.554       17.951        0.014      332.668        1.480      864.151
01/17/2022  09:59:00      122.992       49.981      -26.996       46.223       42.240       24.320     2136.540     1784.205      591.449        1.143        0.226      132.759       11.216        0.007      332.753        1.621      864.153
01/17/2022  10:00:00       98.868      -60.259      -28.029       56.301       35.344       30.552     3169.769     1249.176      933.448        0.977        0.268      115.785       22.248        0.037      332.703        1.537      864.144
01/17/2022  10:01:00       69.701        8.081      -18.707       42.388       51.069       24.393     1796.783     2608.080      595.025        0.514        0.250       70.168       17.779        0.064      332.761        1.635      864.145
01/17/2022  10:02:00       84.955       47.561      -27.526       18.195       21.962       15.060      331.055      482.344      226.807        0.564        0.052       97.362        9.537        0.010      332.544        1.276      864.146
01/17/2022  10:03:00       65.103       15.051      -23.958       37.570       41.432       27.651     1411.481     1716.590      764.561        0.447        0.195       66.820        5.104        0.006      332.860        1.798      864.148
01/17/2022  10:04:00       80.939       73.671       -2.734       70.350       46.765       38.238     4949.055     2186.961     1462.136        1.029        0.430      109.447       38.078        0.121      333.064        2.135      864.146
01/17/2022  10:05:00      116.603       52.945      -23.858       35.866       48.852       25.959     1286.374     2386.482      673.856        1.066        0.217      128.061       19.519        0.023      332.831        1.750      864.144
01/17/2022  10:06:00       72.718       13.373      -14.134       41.313       48.607       36.991     1706.730     2362.597     1368.332        0.555        0.272       73.938       19.694        0.071      332.943        1.935      864.140
01/17/2022  10:07:00       55.144       14.212      -17.625       72.681       63.826       43.356     5282.520     4073.716     1879.731        0.739        0.562       56.946       29.457        0.268      333.330        2.574      864.130
01/17/2022  10:08:00      114.986      -80.059      -49.545       50.525       77.092       26.257     2552.776     5943.126      689.416        1.563        0.459      140.111       25.606        0.033      332.782        1.668      864.125
01/17/2022  10:09:00       89.661       -1.674      -23.449       41.681       43.727       19.995     1737.342     1912.068      399.798        0.632        0.202       89.677       13.192        0.022      333.075        2.153      864.125
01/17/2022  10:10:00       56.557      -44.968      -25.031       75.859       59.255       41.819     5754.587     3511.164     1748.816        0.843        0.551       72.255       37.350        0.267      333.067        2.140      864.123
01/17/2022  10:11:00       55.967      -22.866      -12.804       34.878       36.191       26.691     1216.506     1309.810      712.424        0.353        0.162       60.458       20.624        0.116      333.093        2.184      864.118
01/17/2022  10:12:00       66.513      -11.808      -31.451       57.127       46.697       41.044     3263.452     2180.570     1684.628        0.634        0.356       67.553       21.809        0.104      333.303        2.531      864.100
01/17/2022  10:13:00       87.546      -35.201      -33.748       66.338       51.669       47.868     4400.683     2669.734     2291.385        0.970        0.468       94.358       37.027        0.154      333.097        2.189      864.090
01/17/2022  10:14:00      104.824      -86.649      -29.291       33.781       31.297       23.062     1141.182      979.533      531.833        1.100        0.133      136.000       22.868        0.028      332.756        1.626      864.093
01/17/2022  10:15:00      106.786      -61.881      -45.194       51.963       47.985       24.956     2700.180     2302.559      622.818        1.145        0.281      123.420       15.166        0.015      332.952        1.951      864.096
01/17/2022  10:16:00       85.931      -53.108      -46.126       40.605       49.245       29.083     1648.732     2425.102      845.798        0.863        0.246      101.018       18.374        0.033      333.302        2.530      864.087
01/17/2022  10:17:00       63.189      -17.688      -21.861       60.074       66.354       49.423     3608.908     4402.823     2442.604        0.762        0.523       65.618       31.527        0.231      333.478        2.819      864.072
01/17/2022  10:18:00      104.603      -48.574      -23.826       54.965       38.756       39.076     3021.136     1502.062     1526.956        0.996        0.303      115.330       28.111        0.059      332.992        2.015      864.069
01/17/2022  10:19:00      108.465      -22.097      -17.232       71.035       60.578       38.407     5045.986     3669.743     1475.067        1.137        0.510      110.693       36.322        0.108      333.026        2.071      864.063
01/17/2022  10:20:00       23.704        5.110      -12.368       49.353       39.190       37.527     2435.690     1535.872     1408.307        0.306        0.269       24.249       24.611        1.030      333.421        2.726      864.064
01/17/2022  10:21:00       52.343      -30.282      -13.703       57.187       64.346       50.065     3270.331     4140.439     2506.456        0.688        0.496       60.471       39.235        0.421      333.311        2.545      864.058
01/17/2022  10:22:00      120.875      -64.261      -31.276       39.774       41.933       31.894     1581.987     1758.351     1017.251        1.204        0.218      136.895       25.964        0.036      332.840        1.766      864.050
01/17/2022  10:23:00      115.679      -50.330      -25.951       67.272       51.539       31.020     4525.474     2656.300      962.240        1.236        0.407      126.154       23.890        0.036      332.976        1.989      864.042
01/17/2022  10:24:00      114.035      -27.374      -26.408       35.663       39.529       27.602     1271.880     1562.534      761.896        0.902        0.180      117.274       15.679        0.018      332.939        1.928      864.039
01/17/2022  10:25:00       76.010        4.441      -14.482       35.320       39.674       25.187     1247.490     1573.998      634.410        0.473        0.173       76.140       13.701        0.032      333.111        2.214      864.028
01/17/2022  10:26:00      108.166      -26.157      -10.748       53.225       47.966       36.562     2832.914     2300.705     1336.815        0.948        0.324      111.283       27.524        0.061      333.208        2.375      864.016
01/17/2022  10:27:00       70.691      -23.360      -27.643       48.764       32.796       23.899     2377.924     1075.551      571.165        0.517        0.201       74.450       23.006        0.095      333.283        2.496      864.014
01/17/2022  10:28:00       41.137      -81.445      -36.121       32.667       63.689       27.430     1067.137     4056.272      752.409        0.775        0.294       91.244       28.460        0.097      333.335        2.584      864.023
01/17/2022  10:29:00       50.103     -128.655      -37.951       25.498       34.555       27.406      650.144     1194.054      751.115        1.155        0.130      138.067        9.689        0.005      333.246        2.437      864.025
01/17/2022  10:30:00       89.108      -76.885      -42.503       35.039       45.379       30.036     1227.734     2059.263      902.168        0.992        0.209      117.693       19.895        0.029      333.280        2.493      864.033
01/17/2022  10:31:00       75.090      -40.232      -20.120       43.176       40.073       26.390     1864.153     1605.840      696.458        0.591        0.208       85.188       24.090        0.080      333.144        2.268      864.037
01/17/2022  10:32:00       80.003       -8.045       -9.719       60.793       50.217       32.477     3695.739     2521.795     1054.757        0.691        0.364       80.406       31.100        0.150      333.365        2.631      864.028
01/17/2022  10:33:00       89.751      -13.771      -23.496       57.382       67.255       46.425     3292.740     4523.208     2155.325        0.938        0.499       90.801       34.383        0.143      333.534        2.914      864.012
01/17/2022  10:34:00       85.527      -47.381      -33.953       69.197       66.529       43.218     4788.192     4426.086     1867.771        1.090        0.554       97.774       27.289        0.078      333.439        2.757      864.048
01/17/2022  10:35:00      131.490      -30.297      -28.276       54.329       49.753       34.297     2951.626     2475.402     1176.300        1.280        0.330      134.935       28.924        0.046      333.232        2.413      864.079
01/17/2022  10:36:00       68.193      -18.253       -1.769       50.584       38.837       32.596     2558.729     1508.305     1062.470        0.506        0.256       70.594       25.581        0.131      333.442        2.760      864.091
01/17/2022  10:37:00        0.063        3.738      -16.142       36.662       42.531       32.917     1344.069     1808.914     1083.524        0.225        0.212        3.738       17.801       22.672      333.630        3.072      864.084
01/17/2022  10:38:00       10.310      -16.191        3.953       32.060       42.942       33.149     1027.852     1844.048     1098.831        0.218        0.199       19.195       18.703        0.949      333.885        3.493      864.081
01/17/2022  10:39:00       68.354      -43.026      -23.857       63.015       50.494       42.285     3970.885     2549.641     1788.049        0.770        0.415       80.768       31.709        0.154      333.638        3.084      864.075
01/17/2022  10:40:00       56.262      -44.064      -28.764       69.869       56.236       50.132     4881.728     3162.523     2513.179        0.824        0.528       71.464       39.289        0.302      333.769        3.302      864.070
01/17/2022  10:41:00       83.085      -40.320      -30.585       86.347       80.892       57.682     7455.747     6543.557     3327.176        1.339        0.866       92.352       56.802        0.378      333.597        3.017      864.057
01/17/2022  10:42:00      118.938       -1.506      -24.373       66.902       73.634       42.468     4475.869     5421.977     1803.557        1.322        0.585      118.947       22.383        0.035      333.476        2.816      864.059
01/17/2022  10:43:00       63.341      -22.199      -19.857       57.562       65.962       38.622     3313.422     4350.993     1491.693        0.703        0.458       67.118       20.346        0.092      333.855        3.445      864.071
01/17/2022  10:44:00       57.095       -9.108      -25.085       49.724       71.083       28.833     2472.432     5052.780      831.341        0.616        0.418       57.817       20.178        0.122      333.468        2.803      864.066
01/17/2022  10:45:00      107.560      -44.459      -27.977       44.113       63.145       39.184     1946.000     3987.277     1535.412        1.090        0.373      116.386       36.054        0.096      333.530        2.906      864.048
01/17/2022  10:46:00       87.165      -18.894      -21.726       44.479       31.421       27.213     1978.354      987.248      740.574        0.607        0.185       89.189       22.372        0.063      333.404        2.698      864.053
01/17/2022  10:47:00       34.328      -70.152      -14.436       25.665       48.827       25.378      658.695     2384.057      644.023        0.500        0.184       78.101       22.535        0.083      333.398        2.688      864.045
01/17/2022  10:48:00       85.272      -75.272      -40.681       41.177       48.179       23.006     1695.507     2321.238      529.260        0.957        0.227      113.742       11.474        0.010      333.669        3.136      864.044
01/17/2022  10:49:00       89.554      -88.023      -29.547       45.631       49.747       30.959     2082.154     2474.718      958.444        1.108        0.276      125.571       21.112        0.028      333.514        2.879      864.030
01/17/2022  10:50:00       58.496     -149.728      -42.659       29.864       17.509       19.461      891.854      306.573      378.726        1.462        0.079      160.749       12.565        0.006      333.218        2.388      864.009
01/17/2022  10:51:00       47.597      -79.737      -19.922       34.658       61.948       25.374     1201.193     3837.586      643.850        0.735        0.284       92.863       25.876        0.078      333.643        3.093      863.990
01/17/2022  10:52:00       29.909      -10.020       -3.075       37.103       72.717       41.051     1376.636     5287.765     1685.169        0.468        0.417       31.543       27.109        0.739      333.939        3.582      863.975
01/17/2022  10:53:00       39.031      -67.711      -20.631       45.874       59.355       48.341     2104.414     3522.969     2336.807        0.725        0.398       78.155       28.001        0.128      334.082        3.819      863.974
01/17/2022  10:54:00       95.010      -15.575      -13.698       51.200       40.792       37.969     2621.434     1663.997     1441.609        0.759        0.286       96.278       24.355        0.064      333.597        3.016      863.990
01/17/2022  10:55:00       17.571      -17.538       -5.148       33.938       38.332       24.788     1151.770     1469.360      614.459        0.194        0.162       24.825       24.553        0.978      333.771        3.306      863.993
01/17/2022  10:56:00       77.301      -93.138      -20.577       40.819       57.258       30.615     1666.194     3278.482      937.301        1.048        0.294      121.038       22.602        0.035      333.671        3.140      863.988
01/17/2022  10:57:00       92.022     -130.876      -38.339       21.039       38.624       17.198      442.625     1491.821      295.783        1.465        0.112      159.989       13.825        0.007      333.336        2.584      863.972
01/17/2022  10:58:00       54.092     -145.220      -36.135       24.542       27.512       20.733      602.290      756.928      429.870        1.355        0.089      154.967       12.367        0.006      333.443        2.761      863.943
01/17/2022  10:59:00       71.811      -77.847      -22.077       39.882       84.775       30.407     1590.553     7186.857      924.598        1.070        0.485      105.910       28.549        0.073      333.833        3.407      863.921
01/17/2022  11:00:00       24.118      -13.312      -20.651       37.773       43.351       21.929     1426.767     1879.303      480.891        0.249        0.189       27.548       13.991        0.258      334.208        4.028      863.908
01/17/2022  11:01:00       36.949       -5.146      -12.773       49.583       53.317       31.163     2458.443     2842.728      971.116        0.391        0.314       37.305       14.501        0.151      334.228        4.061      863.888
01/17/2022  11:02:00      113.431       23.222      -22.128       67.324       54.280       30.477     4532.562     2946.303      928.867        1.115        0.420      115.783       12.222        0.011      333.867        3.464      863.871
01/17/2022  11:03:00      107.717       21.062      -13.129       63.536       51.375       30.511     4036.820     2639.424      930.922        0.991        0.380      109.756       30.150        0.075      333.876        3.479      863.848
01/17/2022  11:04:00       75.606      -16.897      -21.988       64.036      110.636       43.810     4100.592    12240.218     1919.293        1.237        0.913       77.471       34.111        0.194      334.099        3.848      863.833
01/17/2022  11:05:00       88.921       -2.681      -38.526       49.593       54.996       34.134     2459.442     3024.517     1165.108        0.802        0.332       88.961       19.063        0.046      334.236        4.075      863.815
01/17/2022  11:06:00       61.272      -43.299      -23.914       61.035       61.734       44.553     3725.272     3811.084     1984.931        0.786        0.476       75.027       38.250        0.260      334.292        4.168      863.800
01/17/2022  11:07:00      113.359      -35.158      -24.737       61.664       50.015       43.462     3802.435     2501.545     1888.907        1.144        0.410      118.686       37.649        0.101      333.799        3.351      863.781
01/17/2022  11:08:00       80.170      -22.322      -28.169       48.650       69.382       33.209     2366.798     4813.805     1102.834        0.800        0.414       83.220       18.869        0.051      333.956        3.612      863.772
01/17/2022  11:09:00       65.241       -1.874      -13.126       42.449       52.963       30.091     1801.881     2805.087      905.444        0.497        0.276       65.268       21.672        0.110      334.208        4.029      863.772
01/17/2022  11:10:00      117.823      -37.834      -25.949       50.398       53.721       32.150     2539.992     2885.956     1033.650        1.122        0.323      123.749       19.820        0.026      334.053        3.771      863.779
01/17/2022  11:11:00       49.877      -31.464       -9.853       66.249       57.760       44.792     4388.959     3336.173     2006.363        0.665        0.487       58.972       24.561        0.173      334.301        4.184      863.787
01/17/2022  11:12:00       68.975      -39.775      -12.673       70.405       59.315       45.371     4956.806     3518.274     2058.552        0.851        0.527       79.621       36.344        0.208      334.171        3.966      863.805
01/17/2022  11:13:00       86.882      -78.735      -28.864       46.467       62.275       34.822     2159.193     3878.213     1212.565        1.091        0.362      117.251       30.813        0.069      333.968        3.630      863.844
01/17/2022  11:14:00       89.556      -68.667      -31.203       42.170       23.557       25.875     1778.268      554.952      669.493        0.836        0.150      112.851       16.783        0.022      333.806        3.362      863.862
01/17/2022  11:15:00      108.054      -38.483      -13.602       77.645       52.664       43.554     6028.773     2773.529     1896.924        1.202        0.535      114.702       36.552        0.102      334.307        4.192      863.876
01/17/2022  11:16:00       90.442        6.497      -32.231       68.017       92.159       51.055     4626.336     8493.283     2606.603        1.249        0.786       90.675       28.729        0.100      334.274        4.137      863.890
01/17/2022  11:17:00       73.011        5.114      -10.592       92.494       84.409       42.720     8555.182     7124.829     1824.988        1.148        0.875       73.190       24.638        0.113      334.350        4.265      863.905
01/17/2022  11:18:00       84.044      -22.880      -11.595       96.261       50.103       47.437     9266.157     2510.286     2250.315        1.087        0.701       87.103       41.953        0.232      334.306        4.191      863.896
01/17/2022  11:19:00       90.748      -22.512      -36.347       62.796       65.765       39.544     3943.375     4325.039     1563.719        0.995        0.492       93.499       28.063        0.090      334.040        3.750      863.872
01/17/2022  11:20:00       76.653       38.938      -14.786       32.770       98.540       29.911     1073.846     9710.040      894.684        0.964        0.584       85.976       19.574        0.052      333.970        3.634      863.848
01/17/2022  11:21:00       48.052       50.099      -19.121       32.178       33.198       17.538     1035.430     1102.116      307.582        0.381        0.122       69.419       18.507        0.071      334.113        3.871      863.800
01/17/2022  11:22:00       35.147       29.468       -7.211       18.718       35.812       23.155      350.367     1282.490      536.150        0.216        0.108       45.866       11.934        0.068      334.263        4.119      863.730
01/17/2022  11:23:00       19.796      -34.811       -6.514       35.890       36.321       28.998     1288.092     1319.245      840.866        0.255        0.172       40.046       21.302        0.283      334.749        4.926      863.655
01/17/2022  11:24:00       44.636       -2.978      -10.027       44.976       39.373       31.277     2022.848     1550.269      978.234        0.333        0.228       44.735       24.986        0.312      334.524        4.553      863.600
01/17/2022  11:25:00      150.998       41.335      -18.121       59.374       46.464       33.559     3525.327     2158.898     1126.208        1.582        0.341      156.554       23.086        0.022      334.145        3.924      863.560
01/17/2022  11:26:00      214.597       60.756      -27.440       34.150       33.533       16.116     1166.244     1124.443      259.732        2.652        0.128      223.032        9.345        0.002      333.867        3.461      863.535
01/17/2022  11:27:00      116.018        4.700      -28.545       61.434       60.385       28.960     3774.108     3646.398      838.698        1.128        0.413      116.113       14.217        0.015      334.147        3.928      863.532
01/17/2022  11:28:00       89.980      -59.053      -36.990       66.463       66.759       48.198     4417.313     4456.751     2323.067        1.207        0.560      107.628       35.450        0.108      334.549        4.593      863.505
01/17/2022  11:29:00      117.424      -33.302      -46.290       44.811       48.287       33.161     2008.017     2331.607     1099.649        1.124        0.272      122.055       15.247        0.016      334.375        4.305      863.502
01/17/2022  11:30:00       52.821       15.048      -30.123       41.515       49.042       23.681     1723.529     2405.145      560.812        0.431        0.234       54.923       14.799        0.073      334.445        4.422      863.482
01/17/2022  11:31:00       42.866       75.752      -14.354       28.245       26.817       28.344      797.801      719.147      803.380        0.505        0.116       87.039       22.515        0.067      334.238        4.079      863.445
01/17/2022  11:32:00       70.069       67.713      -13.843       45.931       41.942       30.922     2109.657     1759.139      956.144        0.725        0.241       97.441       15.256        0.025      334.431        4.400      863.376
01/17/2022  11:33:00      115.395       30.901      -17.412       41.278       34.153       27.045     1703.877     1166.403      731.422        0.909        0.180      119.461       17.838        0.022      334.416        4.375      863.303
01/17/2022  11:34:00       62.738       60.454      -25.036       25.257       16.016       12.378      637.898      256.519      153.226        0.463        0.052       87.125        2.953        0.001      334.049        3.767      863.252
01/17/2022  11:35:00       26.554       33.016       -4.564       31.128       22.794       21.635      968.982      519.548      468.090        0.189        0.098       42.369       16.422        0.150      334.520        4.545      863.197
01/17/2022  11:36:00       39.330      -10.734       -8.497       41.737       72.772       31.461     1741.999     5295.727      989.816        0.488        0.401       40.768       28.170        0.477      334.780        4.980      863.175
01/17/2022  11:37:00       88.483      -24.348      -25.221       59.122       51.378       41.657     3495.377     2639.720     1735.317        0.846        0.394       91.772       34.331        0.140      334.399        4.346      863.175
01/17/2022  11:38:00       79.460       18.192      -22.062       67.614       63.983       61.693     4571.647     4093.818     3806.088        0.980        0.624       81.516       46.636        0.327      334.777        4.973      863.200
01/17/2022  11:39:00      108.297      -31.723      -33.217       50.967       58.557       37.199     2597.600     3428.898     1383.738        1.062        0.371      112.848       24.335        0.047      334.285        4.155      863.217
01/17/2022  11:40:00       96.610       -5.689      -25.700       55.633       61.971       37.222     3094.984     3840.464     1385.474        0.917        0.416       96.777       28.803        0.089      334.506        4.522      863.216
01/17/2022  11:41:00       39.696       -1.016      -32.293       39.551       45.615       31.990     1564.259     2080.741     1023.365        0.364        0.233       39.709       22.396        0.318      334.698        4.842      863.200
01/17/2022  11:42:00       15.460      -48.012      -20.038       37.950       45.875       32.772     1440.176     2104.489     1074.023        0.378        0.231       50.440       24.863        0.243      334.927        5.223      863.156
01/17/2022  11:43:00       46.467      -93.944      -35.207       43.752       60.861       35.570     1914.251     3704.063     1265.211        0.955        0.344      104.808       37.644        0.129      334.532        4.567      863.121
01/17/2022  11:44:00       68.956        3.337      -23.334       58.614       63.846       34.633     3435.638     4076.278     1199.460        0.701        0.436       69.037       26.593        0.148      334.757        4.941      863.103
01/17/2022  11:45:00       85.369      -32.337      -33.861       50.182       48.020       24.656     2518.219     2305.914      607.919        0.746        0.272       91.288       24.786        0.074      334.485        4.488      863.134
01/17/2022  11:46:00       66.696      -13.188      -11.908       39.928       55.882       31.514     1594.277     3122.771      993.133        0.524        0.286       67.987       28.561        0.176      334.537        4.575      863.167
01/17/2022  11:47:00       88.844       33.835      -22.002       42.980       19.873       19.098     1847.250      394.928      364.746        0.606        0.130       95.068       14.580        0.024      334.286        4.159      863.186
01/17/2022  11:48:00       25.870       -0.635      -15.625       44.234       30.639       24.942     1956.660      938.771      622.126        0.222        0.176       25.877       22.579        0.761      335.050        5.426      863.175
01/17/2022  11:49:00       67.726      -27.535      -42.049       54.122       79.785       38.922     2929.243     6365.710     1514.893        0.896        0.540       73.110       12.851        0.031      335.061        5.445      863.141
01/17/2022  11:50:00       56.202       16.588      -45.682       47.792       67.559       35.513     2284.050     4564.248     1261.208        0.681        0.405       58.599       19.100        0.106      335.045        5.418      863.109
01/17/2022  11:51:00       55.633      -11.573      -18.456       48.801       34.155       34.506     2381.575     1166.540     1190.637        0.415        0.237       56.824       20.464        0.130      334.611        4.698      863.077
01/17/2022  11:52:00       93.706      -38.830      -40.968       52.423       77.436       43.054     2748.136     5996.405     1853.611        1.128        0.530      101.433       32.896        0.105      334.879        5.142      863.058
01/17/2022  11:53:00       94.243       -9.361      -39.741       63.406       56.714       47.759     4020.314     3216.443     2280.893        1.003        0.476       94.707       35.220        0.138      335.013        5.367      863.069
01/17/2022  11:54:00      106.633       66.010      -25.754       41.636       31.846       19.000     1733.557     1014.190      360.991        0.975        0.155      125.411       16.018        0.016      334.468        4.459      863.079
01/17/2022  11:55:00       60.721      -27.430      -20.857       30.637       61.278       18.956      938.655     3754.932      359.323        0.496        0.253       66.629       10.909        0.027      334.963        5.283      863.083
01/17/2022  11:56:00       25.203      -16.977      -23.399       30.680       57.318       23.795      941.271     3285.380      566.186        0.313        0.240       30.387       17.459        0.330      335.158        5.606      863.072
01/17/2022  11:57:00       -1.197      -32.386      -20.571       54.740       35.140       22.330     2996.447     1234.839      498.623        0.310        0.236       32.408       13.116        0.164      335.123        5.550      863.063
01/17/2022  11:58:00        2.617      -18.022      -10.031       30.995       35.011       22.964      960.687     1225.785      527.348        0.157        0.136       18.211       19.738        1.175      335.262        5.781      863.068
01/17/2022  11:59:00       70.697       57.929       -3.542       38.117       35.874       25.276     1452.913     1286.918      638.872        0.587        0.169       91.399       23.147        0.064      335.174        5.633      863.060
01/17/2022  12:00:00      117.363       56.402      -16.679       38.015       25.885       25.202     1445.168      670.038      635.150        0.999        0.138      130.212       19.343        0.022      334.879        5.143      863.028
01/17/2022  12:01:00       74.267       64.356        1.021       43.029       37.925       22.509     1851.494     1438.282      506.662        0.673        0.190       98.272       22.177        0.051      335.077        5.471      862.994
01/17/2022  12:02:00       45.956       31.902       -1.819       53.652       56.984       34.302     2878.514     3247.136     1176.650        0.522        0.365       55.944       26.616        0.226      335.460        6.108      862.935
01/17/2022  12:03:00       44.960        4.205        3.667       52.366       44.820       36.488     2742.191     2008.866     1331.384        0.407        0.304       45.156       24.066        0.284      335.254        5.767      862.898
01/17/2022  12:04:00       80.675        4.032      -11.241       55.636       45.140       39.862     3095.417     2037.651     1588.965        0.669        0.336       80.776       33.471        0.172      335.095        5.502      862.859
01/17/2022  12:05:00       52.473       -1.830      -17.532       54.086       69.295       46.266     2925.260     4801.825     2140.552        0.646        0.493       52.505       28.693        0.299      335.367        5.953      862.801
01/17/2022  12:06:00      115.685       87.642      -20.398       75.413       70.393       40.315     5687.164     4955.134     1625.301        1.687        0.613      145.135       20.622        0.020      335.167        5.621      862.739
01/17/2022  12:07:00       -1.276      -32.801      -22.129       46.357       70.968       31.958     2148.963     5036.502     1021.341        0.489        0.410       32.825       19.786        0.363      335.399        6.007      862.669
01/17/2022  12:08:00       50.729      -60.967      -21.135       73.023       38.752       29.709     5332.396     1501.694      882.631        0.723        0.386       79.312        9.745        0.015      335.126        5.553      862.607
01/17/2022  12:09:00       65.369      -13.489      -21.743       54.033       62.597       37.009     2919.522     3918.439     1369.630        0.657        0.410       66.746       25.098        0.141      335.101        5.511      862.566
01/17/2022  12:10:00       23.958       35.419       -8.843       31.017       26.659       16.775      962.049      710.721      281.403        0.193        0.098       42.760       10.461        0.060      334.983        5.316      862.544
01/17/2022  12:11:00      100.999       67.182      -11.927       68.313       46.529       30.559     4666.645     2164.950      933.871        1.131        0.388      121.302       28.365        0.055      335.131        5.561      862.540
01/17/2022  12:12:00       77.597      -64.750      -38.197       50.697       75.979       41.468     2570.164     5772.746     1719.592        1.087        0.503      101.064       33.087        0.107      335.647        6.419      862.552
01/17/2022  12:13:00      111.813      -21.159      -15.784       78.273       66.828       51.575     6126.693     4465.974     2659.992        1.322        0.663      113.798       46.766        0.169      335.125        5.551      862.552
01/17/2022  12:14:00      139.064      -48.522      -29.838       89.373       71.738       44.450     7987.465     5146.312     1975.763        1.884        0.755      147.286       37.116        0.064      334.992        5.329      862.564
01/17/2022  12:15:00       75.219      -19.960      -13.956       77.240       60.372       47.852     5965.962     3644.771     2289.842        0.907        0.595       77.822       40.356        0.269      335.082        5.481      862.565
01/17/2022  12:16:00      121.683      -19.179      -26.373       63.834       54.509       37.047     4074.830     2971.270     1372.478        1.214        0.421      123.185       20.992        0.029      334.988        5.324      862.556
01/17/2022  12:17:00       89.333       38.353      -17.131       44.744       39.201       23.211     2002.024     1536.727      538.758        0.691        0.204       97.218       16.273        0.028      335.062        5.448      862.551
01/17/2022  12:18:00       87.037       75.891      -12.100       48.016       30.577       15.634     2305.497      934.934      244.436        0.848        0.174      115.477       17.218        0.022      335.132        5.563      862.534
01/17/2022  12:19:00      102.085       66.766      -19.720       37.814       29.196       15.978     1429.931      852.394      255.285        0.890        0.127      121.980       14.842        0.015      334.864        5.119      862.522
01/17/2022  12:20:00       62.616       59.117      -16.036       33.961       43.199       25.247     1153.371     1866.111      637.396        0.566        0.183       86.114       25.063        0.085      334.969        5.294      862.520
01/17/2022  12:21:00       28.929      -22.043      -13.806       29.654       32.297       27.525      879.383     1043.069      757.611        0.210        0.134       36.370       20.460        0.316      335.404        6.015      862.522
01/17/2022  12:22:00       68.146      -13.473      -31.473       82.472       74.389       51.851     6801.632     5533.751     2688.578        1.042        0.751       69.465       49.005        0.498      335.459        6.107      862.536
01/17/2022  12:23:00       11.088       -8.486      -11.629       51.060       41.612       38.036     2607.100     1731.599     1446.730        0.306        0.289       13.963       23.122        2.742      335.708        6.521      862.539
01/17/2022  12:24:00       97.248       27.970      -20.841       82.692       87.011       47.622     6837.999     7570.918     2267.897        1.367        0.834      101.191       29.686        0.086      335.607        6.353      862.562
01/17/2022  12:25:00      132.375       14.926      -24.512       85.568       66.021       41.417     7321.833     4358.815     1715.350        1.587        0.670      133.214       42.473        0.102      335.293        5.829      862.578
01/17/2022  12:26:00      138.414       29.876      -37.741       78.587       58.867       32.120     6175.906     3465.342     1031.682        1.607        0.534      141.602       23.826        0.028      335.256        5.767      862.594
01/17/2022  12:27:00       97.026       63.357      -19.011       50.350       47.052       26.159     2535.165     2213.900      684.271        0.961        0.272      115.880       18.276        0.025      335.265        5.784      862.613
01/17/2022  12:28:00       44.828       37.339      -22.831       26.432       21.744       16.858      698.632      472.823      284.191        0.269        0.073       58.342       13.416        0.053      335.039        5.410      862.625
01/17/2022  12:29:00       28.482       69.222       -9.857       38.311       37.526       20.002     1467.753     1408.212      400.090        0.449        0.164       74.852       15.469        0.043      335.290        5.825      862.645
01/17/2022  12:30:00       38.833       72.553       -0.657       36.171       43.412       32.072     1308.358     1884.623     1028.621        0.550        0.211       82.291       26.160        0.101      335.625        6.384      862.666
01/17/2022  12:31:00       10.271       47.427      -11.456       31.608       30.204       25.693      999.093      912.288      660.109        0.253        0.129       48.527        9.992        0.042      335.444        6.082      862.689
01/17/2022  12:32:00       61.134       53.059      -12.252       31.276       27.456       25.967      978.204      753.816      674.306        0.455        0.120       80.948       15.525        0.037      335.470        6.125      862.713
01/17/2022  12:33:00       28.712       50.866      -13.111       56.229       74.253       38.217     3161.675     5513.553     1460.574        0.686        0.507       58.410       40.074        0.471      335.845        6.749      862.726
01/17/2022  12:34:00      104.081        2.991      -20.258       74.213       58.528       36.335     5507.638     3425.583     1320.237        1.075        0.513      104.124       27.718        0.071      335.364        5.948      862.751
01/17/2022  12:35:00       65.525      -10.991      -12.495       85.291       52.112       46.025     7274.488     2715.638     2118.269        0.834        0.605       66.440       31.425        0.224      335.717        6.535      862.788
01/17/2022  12:36:00       65.930      -39.353      -20.764       92.521       77.368       58.083     8560.048     5985.768     3373.608        1.212        0.896       76.782       44.637        0.338      335.619        6.372      862.834
01/17/2022  12:37:00      110.829      -67.100      -33.835       56.049       69.011       39.601     3141.538     4762.471     1568.209        1.370        0.474      129.559       20.885        0.026      335.451        6.093      862.886
01/17/2022  12:38:00       89.299      -65.302      -27.538       62.167       69.113       37.881     3864.708     4776.605     1434.997        1.153        0.504      110.628       35.693        0.104      335.522        6.210      862.922
01/17/2022  12:39:00       91.409      -69.935      -41.208       62.059       59.114       37.921     3851.359     3494.481     1437.968        1.186        0.439      115.094       20.286        0.031      335.641        6.409      862.887
01/17/2022  12:40:00       87.513      -49.468      -26.657       49.226       49.198       27.448     2423.159     2420.431      753.416        0.821        0.280      100.527       17.402        0.030      335.564        6.281      862.818
01/17/2022  12:41:00       73.325        0.097      -26.550       45.183       50.133       37.256     2041.544     2513.356     1387.990        0.601        0.297       73.325       25.181        0.118      335.830        6.725      862.743
01/17/2022  12:42:00       58.110      -31.023      -19.158       53.722       41.266       33.136     2886.060     1702.893     1097.969        0.520        0.284       65.873       35.698        0.294      335.643        6.412      862.682
01/17/2022  12:43:00       53.454       39.488       -1.479       41.582       50.537       26.916     1729.056     2554.031      724.462        0.471        0.250       66.458       18.249        0.075      335.764        6.615      862.634
01/17/2022  12:44:00       28.657       43.828      -11.540       35.455       41.031       24.483     1257.040     1683.519      599.417        0.321        0.177       52.365       23.346        0.199      335.663        6.447      862.604
01/17/2022  12:45:00      -17.582      -17.388      -27.580       13.313       11.199       11.383      177.237      125.411      129.582        0.090        0.022       24.728        5.220        0.045      335.512        6.194      862.547
01/17/2022  12:46:00       25.673      -76.614      -30.003       41.893       31.806       26.071     1755.032     1011.629      679.672        0.544        0.172       80.801       13.391        0.027      335.683        6.479      862.456
01/17/2022  12:47:00       78.681      -44.887      -17.504       53.548       36.732       36.231     2867.382     1349.266     1312.684        0.702        0.276       90.584       24.445        0.073      335.834        6.732      862.331
01/17/2022  12:48:00       71.991      -56.123      -30.425       48.614       80.062       41.392     2363.279     6409.957     1713.295        0.987        0.524       91.283       39.353        0.186      335.939        6.907      862.191
01/17/2022  12:49:00       41.989      -99.718      -33.024       37.520       66.678       30.744     1407.743     4445.946      945.197        0.980        0.340      108.198       23.809        0.048      335.911        6.861      862.089
01/17/2022  12:50:00       18.968      -50.121       -9.325       35.352       62.065       28.152     1249.755     3852.011      792.550        0.443        0.295       53.590       28.697        0.287      335.931        6.894      862.018
01/17/2022  12:51:00      116.201       63.851      -12.145       60.855       43.751       26.782     3703.340     1914.109      717.291        1.203        0.317      132.588       29.583        0.050      335.532        6.227      861.970
01/17/2022  12:52:00       53.639       44.734       -0.769       48.905       31.124       24.357     2391.739      968.733      593.279        0.442        0.198       69.845       21.657        0.096      335.935        6.900      861.943
01/17/2022  12:53:00      -27.769       -2.057       -6.581       42.174       34.372       25.424     1778.681     1181.432      646.394        0.221        0.180       27.845       18.924        0.462      336.299        7.506      861.915
01/17/2022  12:54:00       22.491      -49.992      -20.402       75.244       58.031       41.098     5661.686     3367.639     1689.077        0.707        0.536       54.818       21.924        0.160      336.255        7.433      861.858
01/17/2022  12:55:00       33.839      -79.943      -25.627       63.118       41.404       31.211     3983.840     1714.252      974.110        0.743        0.334       86.810       16.451        0.036      336.051        7.093      861.788
01/17/2022  12:56:00      106.215        3.546      -44.847       75.379       84.950       41.191     5681.923     7216.555     1696.690        1.395        0.730      106.274       33.379        0.099      335.900        6.841      861.702
01/17/2022  12:57:00       86.165       -9.391      -35.912       64.227       60.108       42.216     4125.148     3612.944     1782.208        0.916        0.476       86.675       31.546        0.132      335.881        6.811      861.628
01/17/2022  12:58:00      114.126      -20.720      -27.165       59.664       60.201       30.230     3559.779     3624.168      913.871        1.114        0.405      115.992       14.600        0.016      335.799        6.673      861.582
01/17/2022  12:59:00       54.920      -11.534      -25.369       88.861       59.509       31.872     7896.345     3541.344     1015.843        0.812        0.623       56.118       33.450        0.355      335.896        6.836      861.564
01/17/2022  13:00:00       74.523      -61.262      -15.529       56.750       53.352       33.885     3220.618     2846.436     1148.206        0.838        0.361       96.471       32.198        0.111      335.800        6.675      861.560
01/17/2022  13:01:00       64.560      -50.308      -23.621       38.271       75.465       30.238     1464.676     5694.991      914.347        0.766        0.404       81.846       22.293        0.074      335.834        6.733      861.590
01/17/2022  13:02:00       19.322       26.473      -15.845       22.715       17.215       14.992      515.968      296.365      224.771        0.118        0.052       32.774        7.495        0.052      335.569        6.291      861.604
01/17/2022  13:03:00       26.248       26.030      -24.597       60.304       26.981       18.354     3636.628      727.986      336.882        0.334        0.235       36.966       15.704        0.180      335.752        6.596      861.590
01/17/2022  13:04:00       33.814       -9.064      -23.633       31.771       32.077       32.168     1009.367     1028.931     1034.790        0.243        0.154       35.008       18.243        0.272      336.029        7.057      861.569
01/17/2022  13:05:00       49.716     -132.416      -29.505       36.731       62.716       27.977     1349.176     3933.292      782.716        1.347        0.303      141.441       24.142        0.029      335.658        6.440      861.563
01/17/2022  13:06:00       27.365      -86.723      -15.534       38.664       45.008       35.708     1494.905     2025.718     1275.079        0.665        0.240       90.938       22.077        0.059      336.087        7.153      861.578
01/17/2022  13:07:00       11.489        0.360       -8.076       19.578       30.431       21.547      383.297      926.036      464.279        0.099        0.089       11.495       11.919        1.075      336.084        7.148      861.624
01/17/2022  13:08:00       23.780       15.044       -3.690       20.516       23.785       28.004      420.914      565.749      784.216        0.129        0.089       28.139        8.821        0.098      335.973        6.964      861.672
01/17/2022  13:09:00       37.387      -27.463      -24.171       28.325       28.915       19.912      802.331      836.050      396.470        0.239        0.102       46.390       10.580        0.052      335.857        6.769      861.696
01/17/2022  13:10:00       63.549       -1.776      -21.006       49.831       39.999       28.188     2483.152     1599.889      794.576        0.468        0.244       63.574       23.019        0.131      335.890        6.826      861.685
01/17/2022  13:11:00      147.496       13.138      -19.907       84.405       85.756       46.543     7124.194     7354.133     2166.242        1.948        0.832      148.080       34.503        0.054      335.969        6.955      861.651
01/17/2022  13:12:00      112.899       65.332      -26.428       51.771       45.266       25.904     2680.250     2049.038      671.004        1.156        0.270      130.440       24.715        0.036      335.757        6.603      861.634
01/17/2022  13:13:00       50.836      -50.013      -35.397       44.943       67.868       35.566     2019.893     4606.022     1264.946        0.711        0.395       71.313       24.300        0.116      336.083        7.146      861.603
01/17/2022  13:14:00       62.382     -140.891      -22.617       40.037       41.426       34.838     1602.983     1716.115     1213.703        1.439        0.227      154.084       23.991        0.024      335.874        6.799      861.577
01/17/2022  13:15:00       72.298       -8.962      -23.903       28.190       25.435       22.184      794.661      646.937      492.128        0.391        0.097       72.852        9.242        0.016      335.885        6.816      861.583
01/17/2022  13:16:00       59.899      -99.991      -30.820       33.906       52.939       25.712     1149.613     2802.501      661.099        0.957        0.231      116.560       17.317        0.022      335.870        6.792      861.579
01/17/2022  13:17:00       83.952     -151.057      -31.651       25.997       36.184       21.570      675.870     1309.299      465.265        1.666        0.123      172.818       22.021        0.016      335.760        6.608      861.581
01/17/2022  13:18:00       53.953      -80.812      -27.632       35.510       38.351       27.334     1260.931     1470.815      747.122        0.684        0.174       97.167       24.403        0.063      336.151        7.260      861.580
01/17/2022  13:19:00        6.658      -65.248      -36.374       52.255       39.163       21.959     2730.592     1533.705      482.203        0.518        0.237       65.587       11.105        0.029      336.326        7.553      861.564
01/17/2022  13:20:00      -15.236      -71.986      -50.865       49.868       45.869       25.319     2486.771     2103.932      641.049        0.662        0.262       73.581       20.926        0.081      336.342        7.579      861.524
01/17/2022  13:21:00       64.958     -118.030      -32.698       52.065       49.405       21.167     2710.783     2440.843      448.040        1.241        0.280      134.724       22.523        0.028      335.909        6.856      861.483
01/17/2022  13:22:00       72.893     -147.581      -33.805       35.215       31.751       27.094     1240.128     1008.096      734.094        1.561        0.149      164.601       14.864        0.008      335.978        6.971      861.441
01/17/2022  13:23:00       75.646      -68.263      -26.796       61.292       83.533       37.752     3756.665     6977.789     1425.212        1.163        0.608      101.893       40.394        0.157      336.084        7.149      861.418
01/17/2022  13:24:00       27.826      -28.416      -20.254       57.964       62.101       43.285     3359.866     3856.481     1873.625        0.554        0.454       39.772       32.627        0.673      336.512        7.864      861.413
01/17/2022  13:25:00       84.509       10.949      -24.130       44.652       36.198       20.601     1993.841     1310.275      424.390        0.579        0.186       85.216       12.418        0.021      336.087        7.154      861.432
01/17/2022  13:26:00       69.283     -100.469      -42.307       38.971       78.419       34.517     1518.700     6149.570     1191.401        1.277        0.443      122.042       23.803        0.038      336.133        7.230      861.416
01/17/2022  13:27:00       75.435     -129.139      -33.921       32.565       32.338       19.826     1060.472     1045.769      393.072        1.301        0.125      149.557       15.818        0.011      335.978        6.972      861.385
01/17/2022  13:28:00       82.822      -94.685      -34.926       39.723       43.820       26.249     1577.924     1920.227      688.991        1.062        0.209      125.796       14.939        0.014      336.153        7.263      861.346
01/17/2022  13:29:00       56.330      -46.722      -14.188       24.885       42.610       21.721      619.259     1815.583      471.799        0.423        0.145       73.185       23.859        0.106      336.156        7.267      861.319
01/17/2022  13:30:00       34.732      -10.701      -23.014       24.707       31.267       18.867      610.434      977.635      355.964        0.190        0.097       36.343        9.936        0.075      336.321        7.545      861.295
01/17/2022  13:31:00       29.938      -33.405      -25.191       23.887       37.429       28.956      570.592     1400.902      838.474        0.273        0.140       44.857       21.195        0.223      336.394        7.667      861.274
01/17/2022  13:32:00       38.024       -9.159      -23.167       35.178       88.852       42.679     1237.483     7894.717     1821.466        0.651        0.548       39.112       25.102        0.412      336.518        7.875      861.251
01/17/2022  13:33:00       24.872      -72.553      -22.301       44.920       46.422       31.496     2017.793     2155.037      992.020        0.577        0.258       76.698       20.323        0.070      336.372        7.629      861.207
01/17/2022  13:34:00       -8.024      -12.072       -8.977       17.415       24.714       19.616      303.273      610.802      384.773        0.079        0.065       14.496        9.930        0.469      336.334        7.566      861.158
01/17/2022  13:35:00       26.573        5.728      -20.906       14.838       21.801       16.137      220.178      475.283      260.417        0.107        0.048       27.183       11.824        0.189      336.534        7.900      861.130
01/17/2022  13:36:00       61.345       47.413       -8.434       50.075       28.185       19.622     2507.531      794.417      385.024        0.488        0.184       77.532       12.345        0.025      336.447        7.755      861.138
01/17/2022  13:37:00       64.774        3.145       -2.245       43.634       44.601       33.802     1903.938     1989.271     1142.589        0.462        0.252       64.851       27.447        0.179      336.533        7.900      861.180
01/17/2022  13:38:00      114.966       37.333      -20.672       46.425       48.398       26.872     2155.272     2342.356      722.126        1.013        0.261      120.876       16.490        0.019      336.326        7.553      861.218
01/17/2022  13:39:00       93.095       31.085      -13.342       34.536       39.770       22.219     1192.734     1581.641      493.663        0.654        0.163       98.148       12.220        0.016      336.398        7.673      861.217
01/17/2022  13:40:00       52.677        0.278      -16.400       47.518       46.279       27.195     2257.969     2141.768      739.591        0.409        0.257       52.678       21.502        0.167      336.653        8.098      861.159
01/17/2022  13:41:00       86.022       41.784      -11.319       61.615       40.874       30.088     3796.436     1670.720      905.312        0.782        0.319       95.633       29.550        0.095      336.523        7.881      861.088
01/17/2022  13:42:00      115.526       57.890      -21.091       16.694       20.614       12.558      278.705      424.918      157.705        0.900        0.043      129.219        6.740        0.003      336.097        7.168      861.035
01/17/2022  13:43:00       27.955       39.504       -8.350       33.643       23.040       17.794     1131.833      530.841      316.637        0.220        0.099       48.395       17.182        0.126      336.318        7.539      861.034
01/17/2022  13:44:00      102.097       80.480      -17.001       41.244       32.513       29.317     1701.097     1057.064      859.500        1.040        0.181      130.003       27.022        0.043      336.267        7.452      861.080
01/17/2022  13:45:00       62.053       59.690      -15.364       31.524       31.942       21.978      993.740     1020.307      483.054        0.507        0.125       86.102       16.933        0.039      336.375        7.635      861.129
01/17/2022  13:46:00       76.905       -5.936      -16.422       71.098       59.244       51.905     5054.862     3509.837     2694.166        0.874        0.563       77.134       41.981        0.296      336.467        7.788      861.148
01/17/2022  13:47:00      112.130      -55.674      -29.937       84.700       60.271       43.944     7174.168     3632.569     1931.085        1.465        0.637      125.190       33.285        0.071      336.613        8.032      861.120
01/17/2022  13:48:00      107.120      -38.815      -20.515       48.823       38.704       33.836     2383.642     1497.970     1144.902        0.921        0.251      113.935       23.461        0.042      336.496        7.838      861.100
01/17/2022  13:49:00       80.319      -37.637      -46.555       67.817       60.822       42.241     4599.107     3699.269     1784.294        1.006        0.504       88.700       22.263        0.063      336.693        8.167      861.071
01/17/2022  13:50:00       91.590      -34.263      -17.821       43.240       41.689       32.000     1869.729     1737.988     1023.997        0.726        0.232       97.789       14.176        0.021      336.574        7.967      861.085
01/17/2022  13:51:00       24.035       -2.213      -13.145       23.097       24.727       16.286      533.474      611.406      265.218        0.108        0.071       24.137       10.845        0.202      336.582        7.981      861.139
01/17/2022  13:52:00      -13.182       -2.777       -0.480       24.394       14.555       15.914      595.087      211.861      253.260        0.062        0.053       13.471        6.232        0.214      336.688        8.158      861.163
01/17/2022  13:53:00       17.280      -51.165      -22.738       49.591       55.274       24.265     2459.236     3055.225      588.807        0.477        0.305       54.004       29.434        0.297      337.001        8.681      861.184
01/17/2022  13:54:00       30.669      -84.728      -11.575       43.458       56.762       35.447     1888.572     3221.921     1256.514        0.731        0.318       90.108       35.512        0.155      336.752        8.265      861.186
01/17/2022  13:55:00       29.379      -90.081      -23.323       36.068       65.030       46.308     1300.889     4228.930     2144.475        0.860        0.384       94.751       28.070        0.088      336.912        8.533      861.170
01/17/2022  13:56:00       42.638      -64.296      -35.121       39.229       45.730       32.684     1538.891     2091.251     1068.267        0.594        0.235       77.149       27.813        0.130      337.038        8.744      861.165
01/17/2022  13:57:00       26.322      -74.100      -17.200       31.659       45.703       33.909     1002.306     2088.785     1149.798        0.536        0.212       78.637       22.798        0.084      336.738        8.241      861.174
01/17/2022  13:58:00       49.934       36.241      -10.583       23.806       27.654       14.242      566.720      764.765      202.832        0.273        0.077       61.699        8.857        0.021      336.675        8.137      861.164
01/17/2022  13:59:00       27.502       41.424       -4.782       31.586       28.703       19.087      997.686      823.844      364.317        0.234        0.109       49.722       13.214        0.071      336.631        8.063      861.138
01/17/2022  14:00:00       24.005       59.621      -13.812       24.037       21.960       19.525      577.770      482.259      381.218        0.288        0.072       64.272       11.315        0.031      336.546        7.921      861.091
01/17/2022  14:01:00       74.297       77.570      -22.752       37.077       30.389       21.529     1374.697      923.486      463.508        0.741        0.138      107.411       15.875        0.022      336.523        7.881      861.040
01/17/2022  14:02:00       14.899       35.338       -9.611       18.906       22.261       20.932      357.430      495.569      438.142        0.143        0.065       38.350       11.236        0.086      336.658        8.108      861.008
01/17/2022  14:03:00       17.508       16.520       -3.935       43.537       68.067       29.247     1895.467     4633.111      855.404        0.399        0.369       24.071       26.291        1.193      336.883        8.484      861.003
01/17/2022  14:04:00       -9.667      -22.675      -13.444       37.307       46.661       37.212     1391.812     2177.223     1384.704        0.287        0.248       24.650       10.209        0.172      336.861        8.447      861.016
01/17/2022  14:05:00      -17.208       20.529      -12.027       51.923       47.189       40.461     2695.955     2226.834     1637.090        0.371        0.328       26.787       32.504        1.472      336.911        8.531      861.045
01/17/2022  14:06:00       56.973       22.673      -15.124       61.882       44.379       30.046     3829.432     1969.529      902.775        0.534        0.335       61.318       27.442        0.200      336.823        8.383      861.045
01/17/2022  14:07:00      106.591       41.582      -26.427       36.004       32.611       21.135     1296.315     1063.497      446.680        0.830        0.140      114.415       10.990        0.009      336.644        8.086      861.015
01/17/2022  14:08:00       55.400       78.077        0.922       42.076       36.958       27.935     1770.381     1365.882      780.354        0.654        0.196       95.735       16.269        0.029      336.723        8.216      860.979
01/17/2022  14:09:00       14.612      -29.358      -15.744       32.716       87.792       32.194     1070.343     7707.389     1036.479        0.557        0.491       32.793       22.955        0.490      336.733        8.233      860.968
01/17/2022  14:10:00       83.168       41.620      -16.907       37.675       33.439       18.604     1419.402     1118.144      346.117        0.591        0.144       93.000       15.932        0.029      336.710        8.194      860.997
01/17/2022  14:11:00      136.619       62.689      -15.816       47.939       31.748       23.209     2298.101     1007.905      538.635        1.334        0.192      150.315       15.277        0.010      336.699        8.177      861.025
01/17/2022  14:12:00      116.540       10.189      -20.871       54.833       53.691       31.085     3006.705     2882.700      966.272        1.049        0.343      116.985       19.348        0.027      336.865        8.453      861.047
01/17/2022  14:13:00       63.569        1.297      -16.363       47.501       42.336       36.141     2256.322     1792.330     1306.157        0.483        0.268       63.582       16.563        0.068      336.863        8.450      861.034
01/17/2022  14:14:00      100.536       49.388      -15.463       49.347       47.226       29.812     2435.091     2230.248      888.732        0.917        0.278      112.012       29.273        0.068      336.763        8.283      861.013
01/17/2022  14:15:00       61.681       72.775      -15.440       22.495       20.695       13.445      506.014      428.271      180.763        0.523        0.056       95.397        7.428        0.006      336.599        8.011      861.001
01/17/2022  14:16:00       49.510       37.831       -9.880       37.182       28.010       23.830     1382.486      784.585      567.859        0.336        0.137       62.309       12.695        0.042      336.738        8.241      861.012
01/17/2022  14:17:00       38.675       -2.207      -16.417       28.663       29.261       22.573      821.562      856.192      509.541        0.198        0.109       38.738       15.751        0.165      337.008        8.692      861.036
01/17/2022  14:18:00       20.907      -10.168      -30.619       35.897       37.117       17.597     1288.588     1377.706      309.668        0.223        0.149       23.249       17.229        0.549      337.001        8.681      861.044
01/17/2022  14:19:00       -2.292        1.054      -21.025       29.866       25.612       25.616      891.987      655.978      656.186        0.133        0.110        2.523       20.591       66.604      337.203        9.019      861.029
01/17/2022  14:20:00       92.168       79.751       -9.348       50.726       41.563       29.178     2573.136     1727.444      851.352        1.005        0.258      121.882       25.033        0.042      336.838        8.408      861.014
01/17/2022  14:21:00      109.652       76.928      -22.480       25.561       33.362       13.513      653.358     1113.039      182.594        1.020        0.097      133.946       12.442        0.009      336.637        8.075      861.021
01/17/2022  14:22:00       23.419       41.599       -5.455       31.901       27.181       21.587     1017.693      738.822      465.990        0.227        0.111       47.738       17.138        0.129      336.925        8.553      861.063
01/17/2022  14:23:00       28.186       34.245      -14.984       44.028       37.044       30.295     1938.445     1372.245      917.787        0.321        0.211       44.353       23.471        0.280      337.117        8.875      861.119
01/17/2022  14:24:00      -17.292       -4.379      -22.981       27.414       29.627       21.688      751.552      877.755      470.348        0.147        0.105       17.838       20.144        1.275      337.190        8.998      861.168
01/17/2022  14:25:00       86.186       46.146      -16.096       62.956       28.611       26.482     3963.447      818.599      701.274        0.765        0.274       97.762       24.378        0.062      336.850        8.427      861.166
01/17/2022  14:26:00       78.427       53.365      -21.110       40.711       18.453       20.010     1657.419      340.515      400.414        0.592        0.120       94.861       11.081        0.014      336.693        8.169      861.147
01/17/2022  14:27:00       52.385       35.888      -16.514       29.895       19.639       24.573      893.700      385.697      603.814        0.309        0.094       63.499       14.663        0.053      336.823        8.384      861.142
01/17/2022  14:28:00       53.975       49.425      -19.983       15.602       13.016       11.081      243.426      169.404      122.792        0.315        0.027       73.185        5.129        0.005      336.716        8.206      861.188
01/17/2022  14:29:00       41.152       41.172      -13.326       20.270       23.678       17.528      410.881      560.642      307.243        0.242        0.064       58.211       12.939        0.049      336.867        8.456      861.253
01/17/2022  14:30:00       34.809       38.641       -7.563       18.505       26.747       15.202      342.423      715.396      231.105        0.203        0.064       52.008        6.691        0.017      336.930        8.561      861.299
01/17/2022  14:31:00       62.990       69.141      -17.040       26.918       21.282       13.972      724.574      452.934      195.222        0.521        0.069       93.532        7.718        0.007      336.830        8.394      861.306
01/17/2022  14:32:00       46.721       47.050      -20.327       13.855       13.086       12.390      191.961      171.252      153.522        0.266        0.026       66.307        5.441        0.007      336.826        8.387      861.289
01/17/2022  14:33:00       69.547       60.391      -17.120       19.894       17.680       14.773      395.768      312.580      218.228        0.485        0.046       92.108        9.856        0.011      336.855        8.435      861.272
01/17/2022  14:34:00       57.601       67.562      -10.375       31.185       27.586       21.918      972.485      760.979      480.387        0.510        0.111       88.783       12.906        0.021      336.904        8.517      861.274
01/17/2022  14:35:00       69.585       40.196      -11.023       40.390       30.952       17.061     1631.362      958.049      291.090        0.473        0.144       80.360       17.513        0.047      336.926        8.555      861.259
01/17/2022  14:36:00       86.408       52.538      -11.143       32.714       23.107       19.311     1070.219      533.933      372.913        0.616        0.099      101.126        4.744        0.002      336.923        8.548      861.212
01/17/2022  14:37:00      105.053       61.764      -20.289       14.987       15.826       12.932      224.622      250.447      167.230        0.795        0.032      121.864        4.921        0.002      336.854        8.435      861.137
01/17/2022  14:38:00       54.473       40.148      -13.663       25.513       28.322       19.828      650.929      802.148      393.139        0.331        0.092       67.670       12.327        0.033      336.970        8.629      861.065
01/17/2022  14:39:00        1.544       36.328        5.064       26.313       24.985       19.587      692.385      624.271      383.649        0.152        0.085       36.361        6.867        0.036      337.211        9.031      861.024
01/17/2022  14:40:00       -2.892       13.115       -1.636       23.308       16.734       13.390      543.259      280.025      179.281        0.059        0.050       13.430       10.125        0.568      337.366        9.291      861.022
01/17/2022  14:41:00       16.824       36.279       -1.875       22.971       24.592       15.948      527.661      604.748      254.348        0.149        0.069       39.990       15.458        0.149      337.322        9.218      861.025
01/17/2022  14:42:00       -4.571       59.114       -2.607       37.494       16.689       22.891     1405.798      278.507      523.996        0.286        0.110       59.290       15.561        0.069      337.350        9.265      860.998
01/17/2022  14:43:00       11.662       41.489       -7.750       16.975       14.236       18.941      288.146      202.660      358.779        0.138        0.042       43.097        9.916        0.053      337.115        8.871      860.925
01/17/2022  14:44:00        1.348        0.476      -10.521       13.938       18.048       15.681      194.257      325.728      245.902        0.044        0.038        1.429       10.571       54.692      337.183        8.985      860.847
01/17/2022  14:45:00       -0.156       54.577       -5.671       24.431       20.577       14.764      596.882      423.410      217.988        0.212        0.062       54.577       12.791        0.055      337.362        9.286      860.810
01/17/2022  14:46:00       52.289       57.414      -15.734       25.326       23.828       13.405      641.391      567.765      179.702        0.383        0.069       77.657        6.816        0.008      337.040        8.748      860.807
01/17/2022  14:47:00       16.320       -8.852      -10.576       14.705       12.043        9.823      216.226      145.024       96.498        0.046        0.023       18.566        8.569        0.213      337.176        8.974      860.811
01/17/2022  14:48:00       24.665       29.385       -2.453       20.031       23.685        8.668      401.231      560.971       75.128        0.126        0.052       38.365        6.271        0.027      337.325        9.225      860.817
01/17/2022  14:49:00       41.011       50.173       -5.888       25.688       20.053       27.019      659.851      402.129      730.050        0.301        0.090       64.801       11.499        0.031      337.312        9.201      860.799
01/17/2022  14:50:00       32.863       26.379      -10.963       12.905       14.214       15.126      166.531      202.025      228.806        0.125        0.030       42.141        6.031        0.020      337.159        8.944      860.784
01/17/2022  14:51:00       40.711       33.624       -6.923       12.582       10.355       10.913      158.296      107.231      119.084        0.161        0.019       52.801        6.929        0.017      337.164        8.955      860.771
01/17/2022  14:52:00       10.229       42.355       -4.778       24.181       19.345       15.427      584.741      374.228      237.991        0.156        0.060       43.573        7.041        0.026      337.318        9.212      860.778
01/17/2022  14:53:00       -9.180       33.366        3.228       28.016       31.668       14.453      784.878     1002.866      208.888        0.160        0.100       34.605        9.956        0.083      337.460        9.449      860.792
01/17/2022  14:54:00       12.566       -0.030      -21.138       38.932       32.491       24.886     1515.683     1055.645      619.302        0.190        0.160       12.566       17.127        1.857      337.502        9.520      860.799
01/17/2022  14:55:00       -4.594      -18.404      -18.016       27.419       44.887       27.975      751.820     2014.881      782.589        0.212        0.177       18.969       22.560        1.415      337.328        9.229      860.810
01/17/2022  14:56:00      -12.149      -12.121      -20.508       50.849       40.513       26.025     2585.570     1641.275      677.317        0.281        0.245       17.162       19.663        1.313      337.374        9.306      860.805
01/17/2022  14:57:00       -9.283       -6.401       -9.022       35.908       37.936       22.652     1289.366     1439.134      513.109        0.172        0.162       11.276       18.343        2.646      337.443        9.421      860.802
01/17/2022  14:58:00       -0.768      -40.561      -10.259       37.726       26.992       24.423     1423.230      728.568      596.478        0.225        0.137       40.568       16.483        0.165      337.291        9.167      860.790
01/17/2022  14:59:00       21.890       24.334      -10.845       24.874       29.516       13.039      618.722      871.195      170.026        0.142        0.083       32.731       13.296        0.165      337.330        9.231      860.783
01/17/2022  15:00:00       56.792       48.895       -9.293       18.039       19.598       15.593      325.400      384.085      243.142        0.333        0.048       74.940        8.393        0.013      337.233        9.070      860.770
01/17/2022  15:01:00       15.976      -28.544      -11.527       25.465       59.306       27.194      648.450     3517.157      739.515        0.305        0.245       32.710       16.955        0.269      337.203        9.018      860.772
01/17/2022  15:02:00       28.903        2.220      -34.753       29.887       31.267       27.051      893.232      977.645      731.757        0.232        0.130       28.989       21.158        0.533      337.292        9.168      860.789
01/17/2022  15:03:00       64.450       19.464      -19.738       27.672       26.110       16.839      765.754      681.708      283.559        0.333        0.087       67.325        7.128        0.011      337.308        9.197      860.818
01/17/2022  15:04:00       52.528       36.738       -6.958       32.251       20.759       19.335     1040.096      430.944      373.844        0.300        0.092       64.100       14.749        0.053      337.338        9.246      860.828
01/17/2022  15:05:00       40.010       40.080        0.715       28.522       37.966       15.847      813.487     1441.419      251.142        0.286        0.125       56.632       15.263        0.073      337.507        9.526      860.829
01/17/2022  15:06:00       13.282       14.647       -2.513       19.826       17.889       13.906      393.057      320.021      193.387        0.065        0.045       19.772        8.671        0.192      337.476        9.474      860.817
01/17/2022  15:07:00        9.694       27.293       -4.985       26.247       28.508       21.556      688.890      812.679      464.677        0.141        0.098       28.963       11.545        0.159      337.516        9.542      860.790
01/17/2022  15:08:00      -19.480       12.651       -9.416       41.937       29.717       21.123     1758.719      883.105      446.196        0.186        0.154       23.228       15.230        0.430      337.710        9.867      860.774
01/17/2022  15:09:00       64.957       58.514      -12.021       33.933       33.560       24.374     1151.465     1126.254      594.095        0.533        0.144       87.426       13.272        0.023      337.363        9.288      860.774
01/17/2022  15:10:00       57.193       53.421      -21.782       30.783       26.809       24.511      947.573      718.722      600.794        0.443        0.113       78.261       13.669        0.031      337.440        9.414      860.773
01/17/2022  15:11:00       71.083       49.349      -13.391       28.255       28.599       13.821      798.336      817.881      191.007        0.474        0.090       86.534       10.944        0.016      337.269        9.129      860.766
01/17/2022  15:12:00       99.501       40.924      -25.797       25.593       36.535       17.453      655.021     1334.801      304.619        0.727        0.115      107.588        8.805        0.007      337.276        9.143      860.728
01/17/2022  15:13:00       85.789       57.581      -15.522       37.707       29.371       20.877     1421.810      862.656      435.840        0.682        0.136      103.322       18.457        0.032      337.276        9.142      860.713
01/17/2022  15:14:00       50.747       68.577      -20.596       18.180       15.052       17.496      330.506      226.572      306.094        0.428        0.043       85.311       10.559        0.015      337.310        9.199      860.713
01/17/2022  15:15:00       60.519       53.585      -19.678       24.086       21.705       17.895      580.136      471.125      320.213        0.415        0.069       80.833       11.431        0.020      337.331        9.233      860.734
01/17/2022  15:16:00       21.303       48.616       -9.841       31.322       26.918       18.251      981.087      724.601      333.093        0.248        0.102       53.079       16.279        0.094      337.438        9.411      860.743
01/17/2022  15:17:00       21.025       17.163        3.325       25.586       16.419       17.320      654.623      269.592      299.996        0.099        0.061       27.141       15.136        0.311      337.509        9.531      860.744
01/17/2022  15:18:00        6.722       18.314      -10.386       12.505       19.182        9.811      156.385      367.946       96.264        0.055        0.031       19.509        4.957        0.065      337.447        9.426      860.731
01/17/2022  15:19:00       -0.971       21.600      -10.988       11.712       14.685        9.854      137.167      215.635       97.108        0.052        0.022       21.622        5.344        0.061      337.441        9.417      860.715
01/17/2022  15:20:00       13.070       14.039        0.799       10.080       11.310       12.895      101.602      127.927      166.282        0.038        0.020       19.181        7.664        0.160      337.556        9.609      860.718
01/17/2022  15:21:00      -14.682       14.789      -10.190       15.873       21.807       15.556      251.941      475.541      241.974        0.075        0.048       20.839        9.681        0.216      337.493        9.504      860.727
01/17/2022  15:22:00       45.964       42.979      -23.617       55.358       14.880       17.056     3064.530      221.407      290.906        0.405        0.179       62.927       16.585        0.069      337.404        9.354      860.732
01/17/2022  15:23:00      158.518        0.154      -21.186       46.372       36.833       32.526     2150.352     1356.647     1057.969        1.507        0.228      158.518       24.377        0.024      337.428        9.394      860.724
01/17/2022  15:24:00       59.934       -4.801      -25.636       36.740       42.353       29.723     1349.816     1793.770      883.432        0.415        0.201       60.126       15.312        0.065      337.421        9.383      860.722
01/17/2022  15:25:00       16.799      -14.124       -6.593       31.242       37.684       24.905      976.068     1420.117      620.261        0.177        0.151       21.947       12.871        0.344      337.385        9.323      860.739
01/17/2022  15:26:00       -2.895      -15.519        0.813       19.934       20.126       17.142      397.362      405.038      293.855        0.067        0.055       15.787       10.033        0.404      337.686        9.829      860.759
01/17/2022  15:27:00       -9.276        2.670      -12.514       18.629       18.617       19.535      347.057      346.586      381.620        0.066        0.054        9.653       14.422        2.232      337.568        9.630      860.773
01/17/2022  15:28:00       57.561       23.795       -7.151       21.078       19.804       19.454      444.272      392.208      378.467        0.257        0.061       62.286        7.521        0.015      337.479        9.480      860.771
01/17/2022  15:29:00       59.829       24.514      -11.522       23.892       28.535       23.233      570.805      814.224      539.756        0.312        0.096       64.656       17.514        0.073      337.475        9.472      860.768
01/17/2022  15:30:00       26.976        1.189      -14.543       21.903       25.454       18.805      479.723      647.905      353.628        0.121        0.074       27.002       13.642        0.255      337.509        9.530      860.768
01/17/2022  15:31:00       16.977       22.308      -16.625       16.091       14.507       13.523      258.932      210.458      182.880        0.086        0.033       28.033        6.221        0.049      337.436        9.409      860.761
01/17/2022  15:32:00       26.782       17.827       -7.664       12.681       12.191       10.844      160.811      148.630      117.593        0.076        0.021       32.173        8.196        0.065      337.477        9.476      860.774
01/17/2022  15:33:00       27.866       11.948       -6.887       17.804       13.969       12.264      316.971      195.133      150.412        0.081        0.033       30.319        5.103        0.028      337.478        9.477      860.775
01/17/2022  15:34:00       77.134       53.804      -12.006       26.259       20.803       17.140      689.524      432.779      293.772        0.520        0.071       94.045        7.727        0.007      337.450        9.432      860.784
01/17/2022  15:35:00       54.319       45.570       -3.578       21.600       18.193       15.476      466.541      330.973      239.515        0.304        0.052       70.903        8.747        0.015      337.462        9.451      860.794
01/17/2022  15:36:00       77.191       33.193      -11.264       23.114       16.923       17.566      534.264      286.395      308.557        0.416        0.056       84.025        8.764        0.011      337.452        9.437      860.798
01/17/2022  15:37:00       33.020       20.218       -9.118        8.674        6.418        6.234       75.241       41.197       38.860        0.087        0.008       38.718        2.233        0.003      337.478        9.471      860.808
01/17/2022  15:38:00       23.206       21.915      -12.252        6.603        8.697        8.808       43.605       75.643       77.576        0.068        0.010       31.919        3.515        0.012      337.487        9.489      860.812
01/17/2022  15:39:00        3.269       22.277      -12.830       10.153       14.229       11.928      103.090      202.460      142.275        0.056        0.022       22.515        8.215        0.133      337.536        9.575      860.802
01/17/2022  15:40:00        9.713        3.634       -3.011       14.934       12.992       13.845      223.026      168.782      191.672        0.035        0.029       10.370       11.285        1.184      337.505        9.523      860.782
01/17/2022  15:41:00       -3.955      -15.654      -11.031       25.618       21.181       18.282      656.305      448.645      334.233        0.091        0.072       16.146       15.903        0.970      337.432        9.401      860.767
01/17/2022  15:42:00      -24.371      -25.326      -18.845       24.730       19.624       23.920      611.595      385.088      572.176        0.158        0.078       35.147       15.300        0.190      337.536        9.575      860.765
01/17/2022  15:43:00        5.758      -38.923      -16.725       27.386       28.278       19.111      750.015      799.623      365.225        0.187        0.096       39.346       11.288        0.082      337.430        9.399      860.757
01/17/2022  15:44:00       -8.814      -10.525      -12.532       13.347       11.860       15.492      178.152      140.668      240.017        0.045        0.028       13.728       10.974        0.639      337.510        9.533      860.745
01/17/2022  15:45:00       66.053       57.246      -11.043       39.701       31.323       20.901     1576.186      981.102      436.845        0.538        0.150       87.408       12.140        0.019      337.431        9.399      860.717
01/17/2022  15:46:00       37.452       73.765       13.659       35.688       27.440       29.058     1273.650      752.953      844.371        0.495        0.144       82.728       25.175        0.093      337.494        9.505      860.687
01/17/2022  15:47:00       12.672       29.668       -8.430       50.090       54.356       20.644     2508.989     2954.548      426.154        0.350        0.294       32.261       14.739        0.209      337.509        9.531      860.674
01/17/2022  15:48:00       25.387       12.620       -7.011       39.054       27.475       22.208     1525.176      754.901      493.177        0.181        0.139       28.350       11.984        0.179      337.589        9.664      860.677
01/17/2022  15:49:00       40.496       15.499      -11.348       27.785       31.924       20.732      772.011     1019.157      429.806        0.211        0.111       43.360       10.792        0.062      337.471        9.466      860.681
01/17/2022  15:50:00       14.668       -0.751      -18.018       22.984       36.239       16.588      528.254     1313.232      275.164        0.133        0.106       14.687        7.254        0.244      337.424        9.389      860.680
01/17/2022  15:51:00       32.381      -57.450      -26.399       24.686       50.174       22.695      609.405     2517.451      515.078        0.434        0.182       65.947       15.315        0.054      337.356        9.276      860.676
01/17/2022  15:52:00       25.970      -56.241      -20.772       33.307       39.132       26.501     1109.338     1531.339      702.324        0.381        0.167       61.947       17.166        0.077      337.318        9.213      860.682
01/17/2022  15:53:00       -1.800       12.705       -7.338       24.107       32.177       23.307      581.152     1035.362      543.218        0.119        0.108       12.832       19.432        2.293      337.434        9.405      860.685
01/17/2022  15:54:00      -27.595       10.600       -8.592       20.914       25.398       22.732      437.405      645.049      516.762        0.127        0.080       29.561       11.699        0.157      337.415        9.375      860.691
01/17/2022  15:55:00      -12.649        8.324        1.883       18.004       16.522       12.810      324.149      272.992      164.085        0.050        0.038       15.142        7.317        0.234      337.443        9.420      860.698
01/17/2022  15:56:00       -9.250        6.278       -5.204       19.964       19.279       13.498      398.543      371.667      182.203        0.055        0.048       11.179       10.777        0.929      337.515        9.540      860.695
01/17/2022  15:57:00       42.768       36.536      -16.126       23.266       20.138       15.322      541.284      405.524      234.763        0.230        0.059       56.249       11.648        0.043      337.439        9.412      860.697
01/17/2022  15:58:00       59.328       44.335      -17.154       35.330       23.136       21.641     1248.176      535.253      468.311        0.402        0.113       74.063       19.410        0.069      337.413        9.370      860.691
01/17/2022  15:59:00        5.909       21.849       -8.313       20.834       32.723       16.024      434.046     1070.818      256.785        0.117        0.088       22.633       16.145        0.509      337.534        9.572      860.694
01/17/2022  16:00:00       28.127       34.118        1.415       16.746       14.423       10.934      280.422      208.035      119.542        0.128        0.030       44.217        9.322        0.044      337.517        9.543      860.701
01/17/2022  16:01:00       16.916       22.633      -13.169       15.986       26.270       16.100      255.566      690.110      259.222        0.109        0.060       28.256       14.759        0.273      337.566        9.626      860.706
01/17/2022  16:02:00       11.867      -15.795       -8.916       20.310       35.000       22.157      412.477     1224.980      490.943        0.130        0.106       19.756       11.174        0.320      337.499        9.514      860.706
01/17/2022  16:03:00       -6.931      -28.284       -3.647       13.123       17.896       18.273      172.204      320.267      333.905        0.084        0.041       29.121        7.020        0.058      337.402        9.352      860.719
01/17/2022  16:04:00      -12.007      -35.741      -21.705       17.313       10.330       13.731      299.739      106.706      188.532        0.124        0.030       37.704        8.129        0.046      337.443        9.418      860.729
01/17/2022  16:05:00       -1.117      -15.766      -21.904       11.500       10.563        8.635      132.257      111.573       74.555        0.052        0.016       15.805        5.613        0.126      337.506        9.525      860.739
01/17/2022  16:06:00       -1.419       -9.504      -16.904       26.039       20.069       20.296      678.049      402.745      411.932        0.094        0.075        9.609       11.728        1.490      337.592        9.669      860.750
01/17/2022  16:07:00      -12.884       -7.859      -13.856       22.554       10.636       10.021      508.685      113.128      100.415        0.057        0.036       15.092        6.181        0.168      337.557        9.612      860.746
01/17/2022  16:08:00       -2.089        7.820        6.006       21.401       15.472        9.747      457.998      239.385       95.000        0.045        0.040        8.094       10.175        1.580      337.622        9.720      860.747
01/17/2022  16:09:00       14.973       -7.936       -7.902       20.414       32.123       18.472      416.721     1031.876      341.203        0.107        0.089       16.946       12.856        0.576      337.453        9.436      860.743
01/17/2022  16:10:00       17.746      -49.718      -18.302       26.037       24.160       16.189      677.935      583.709      262.089        0.232        0.076       52.790        9.906        0.035      337.433        9.403      860.732
01/17/2022  16:11:00       11.959      -40.921      -10.225       17.087       21.093       20.817      291.970      444.908      433.328        0.155        0.059       42.633       13.144        0.095      337.464        9.455      860.728
01/17/2022  16:12:00        6.381      -44.139      -24.893       22.565       31.655       19.754      509.186     1002.048      390.206        0.225        0.095       44.598        9.157        0.042      337.608        9.696      860.719
01/17/2022  16:13:00      -18.802        1.841       -9.325       14.561       13.356       15.116      212.036      178.393      228.507        0.053        0.031       18.891       12.441        0.434      337.861       10.120      860.709
01/17/2022  16:14:00      -19.603       17.043       -3.578       17.847       14.842       11.937      318.507      220.294      142.485        0.068        0.034       25.975        8.475        0.106      337.771        9.970      860.706
01/17/2022  16:15:00       -9.616       10.787      -12.342       21.761       14.656       15.649      473.533      214.785      244.883        0.065        0.047       14.451        8.644        0.358      337.814       10.042      860.699
01/17/2022  16:16:00        4.079      -10.768      -16.300       17.915       13.352       10.814      320.947      178.275      116.936        0.051        0.031       11.515        6.526        0.321      337.771        9.969      860.691
01/17/2022  16:17:00       -2.127      -16.794      -14.872       15.736       15.982       14.107      247.620      255.425      198.994        0.060        0.035       16.929       10.388        0.377      337.711        9.869      860.684
01/17/2022  16:18:00      -20.515      -17.343      -13.327       21.092       18.107       15.921      444.891      327.871      253.484        0.096        0.051       26.863        9.128        0.115      337.697        9.845      860.676
01/17/2022  16:19:00      -32.079      -11.804       -0.625       31.367       19.280       15.345      983.897      371.711      235.469        0.138        0.080       34.182       16.323        0.228      337.742        9.922      860.675
01/17/2022  16:20:00      -53.058       -2.015      -10.419       40.958       28.887       19.072     1677.574      834.485      363.728        0.290        0.144       53.097       16.148        0.092      337.730        9.901      860.678
01/17/2022  16:21:00      -35.137       -9.956       -6.156       26.653       19.139       21.519      710.377      366.308      463.074        0.146        0.077       36.520       13.105        0.129      337.728        9.898      860.687
01/17/2022  16:22:00        7.215      -35.041      -14.606       14.041       20.288       20.318      197.144      411.601      412.841        0.126        0.051       35.776       13.892        0.151      337.548        9.598      860.689
01/17/2022  16:23:00        9.241      -23.832       -8.952       16.949       26.564       20.754      287.262      705.639      430.727        0.108        0.071       25.561       15.025        0.346      337.510        9.531      860.695
01/17/2022  16:24:00       13.769        7.708       -6.916       19.661       16.145       18.781      386.566      260.649      352.719        0.065        0.050       15.780       11.508        0.532      337.509        9.532      860.699
01/17/2022  16:25:00      -21.652      -14.694       -9.761       12.168       14.259        9.248      148.057      203.317       85.520        0.061        0.022       26.167        5.684        0.047      337.582        9.654      860.698
01/17/2022  16:26:00      -32.360        2.283      -13.550       21.351       15.803       10.361      455.873      249.733      107.356        0.102        0.041       32.440        8.575        0.070      337.512        9.537      860.695
01/17/2022  16:27:00       19.047      -11.558      -13.341       14.776       11.830       13.394      218.316      139.945      179.399        0.061        0.027       22.280        8.701        0.153      337.495        9.508      860.696
01/17/2022  16:28:00       37.740      -47.867      -23.824       23.768       29.921       18.267      564.909      895.244      333.678        0.304        0.090       60.955       14.427        0.056      337.417        9.376      860.696
01/17/2022  16:29:00       -8.078      -24.866      -12.896       27.025       29.559       12.338      730.365      873.709      152.227        0.130        0.088       26.146       15.056        0.332      337.509        9.530      860.702
01/17/2022  16:30:00      -30.479       11.218       -6.334       32.469       23.198       22.252     1054.266      538.131      495.142        0.159        0.104       32.478       11.363        0.122      337.581        9.649      860.703
01/17/2022  16:31:00      -29.034       -6.941        8.609       40.278       36.456       30.542     1622.278     1329.052      932.812        0.242        0.194       29.853       27.546        0.851      337.548        9.596      860.715
01/17/2022  16:32:00      -27.357      -11.916       -1.764       33.412       23.894       21.399     1116.330      570.919      457.920        0.152        0.107       29.840       18.127        0.369      337.601        9.684      860.728
01/17/2022  16:33:00      -68.775      -32.343      -10.560       30.025       28.755       19.187      901.488      826.837      368.155        0.399        0.105       76.000       12.126        0.025      337.621        9.719      860.721
01/17/2022  16:34:00      -68.941      -61.751       -9.590       34.943       36.568       15.979     1220.981     1337.215      255.341        0.574        0.141       92.553       12.073        0.017      337.518        9.544      860.722
01/17/2022  16:35:00      -66.299      -46.078       -9.925       23.390       27.250       14.922      547.077      742.554      222.667        0.406        0.076       80.739        9.853        0.015      337.579        9.648      860.728
01/17/2022  16:36:00      -44.368       -8.173       -3.609       37.407       18.543       25.776     1399.272      343.839      664.406        0.223        0.120       45.115       25.605        0.322      337.560        9.618      860.730
01/17/2022  16:37:00      -48.981       -5.470       -2.635       27.996       24.126       21.212      783.792      582.062      449.959        0.213        0.091       49.285       15.977        0.105      337.634        9.740      860.729
01/17/2022  16:38:00      -72.532       -3.113       -4.743       39.778       24.046       19.406     1582.274      578.232      376.575        0.391        0.127       72.599       21.422        0.087      337.551        9.601      860.728
01/17/2022  16:39:00      -89.674      -22.921       -4.932       42.225       24.805       21.797     1782.939      615.276      475.114        0.573        0.144       92.557       16.426        0.031      337.520        9.549      860.733
01/17/2022  16:40:00      -69.244       10.841       -6.604       30.949       36.838       20.043      957.862     1357.035      401.732        0.384        0.136       70.088        8.888        0.016      337.521        9.552      860.735
01/17/2022  16:41:00      -89.643        1.599       -6.032       27.213       27.083       16.324      740.540      733.484      266.467        0.491        0.087       89.657        7.034        0.006      337.565        9.626      860.739
01/17/2022  16:42:00      -71.773      -11.887       -1.549       51.746       24.652       26.039     2677.648      607.735      678.037        0.463        0.198       72.751       31.842        0.192      337.496        9.507      860.732
01/17/2022  16:43:00      -89.953       -2.891       -8.189       31.912       21.889       21.456     1018.352      479.146      460.342        0.506        0.098       89.999       17.540        0.038      337.556        9.610      860.738
01/17/2022  16:44:00      -62.635      -14.138       -9.828       50.502       34.130       23.601     2550.414     1164.859      557.027        0.425        0.214       64.211       21.286        0.110      337.494        9.505      860.732
01/17/2022  16:45:00      -85.670      -18.905       -9.791       40.924       28.551       18.980     1674.758      815.164      360.225        0.532        0.143       87.731       15.662        0.032      337.507        9.528      860.732
01/17/2022  16:46:00      -65.472      -10.405       -6.003       37.019       25.807       28.673     1370.410      666.009      822.117        0.364        0.143       66.293       25.031        0.143      337.525        9.556      860.725
01/17/2022  16:47:00      -33.296       -3.989       -5.941       43.791       18.258       23.094     1917.628      333.368      533.320        0.197        0.139       33.534       11.053        0.109      337.523        9.553      860.720
01/17/2022  16:48:00      -41.506      -14.683       -4.400       33.138       26.157       17.602     1098.100      684.173      309.839        0.202        0.105       44.026       14.388        0.107      337.530        9.566      860.722
01/17/2022  16:49:00      -13.179       -6.648       -1.951       34.496       26.960       21.974     1190.002      726.858      482.840        0.131        0.120       14.760       21.737        2.169      337.500        9.514      860.727
01/17/2022  16:50:00      -24.494       -5.925       -5.748       38.082       25.993       24.787     1450.276      675.623      614.386        0.170        0.137       25.201       23.084        0.839      337.445        9.421      860.728
01/17/2022  16:51:00     -100.526       -4.625       -5.116       34.035       23.519       19.304     1158.349      553.165      372.635        0.612        0.104      100.633       19.474        0.037      337.482        9.484      860.725
01/17/2022  16:52:00      -53.928       -4.551       -0.065       37.224       34.069       24.330     1385.652     1160.722      591.930        0.303        0.157       54.120       19.143        0.125      337.428        9.395      860.737
01/17/2022  16:53:00     -115.398       34.705       -8.647       34.301       30.180       21.368     1176.586      910.824      456.595        0.857        0.127      120.504       19.193        0.025      337.373        9.303      860.744
01/17/2022  16:54:00      -66.608       -4.703       -4.809       44.843       32.592       22.993     2010.905     1062.224      528.683        0.404        0.180       66.773       17.919        0.072      337.388        9.329      860.745
01/17/2022  16:55:00     -100.213       24.350       -0.031       46.689       27.635       23.624     2179.896      763.677      558.109        0.707        0.175      103.129       24.785        0.058      337.345        9.257      860.748
01/17/2022  16:56:00     -100.380        9.879       -8.001       52.956       28.351       25.843     2804.323      803.795      667.874        0.726        0.214      100.865       24.560        0.059      337.355        9.274      860.747
01/17/2022  16:57:00      -86.683       -3.525       -6.996       45.189       31.887       26.671     2042.051     1016.783      711.358        0.567        0.189       86.755       19.884        0.053      337.351        9.267      860.746
01/17/2022  16:58:00      -64.528        9.205       -0.271       52.391       27.180       24.314     2744.819      738.773      591.171        0.416        0.204       65.181       27.901        0.183      337.328        9.229      860.747
01/17/2022  16:59:00      -70.779        8.905       -9.085       40.268       26.471       27.688     1621.540      700.702      766.614        0.413        0.154       71.337       28.370        0.158      337.290        9.166      860.734
01/17/2022  17:00:00      -89.292       18.892      -14.187       31.015       22.022       14.831      961.921      484.982      219.945        0.510        0.083       91.269       14.248        0.024      337.343        9.253      860.726
01/17/2022  17:01:00      -95.503       20.134       -4.564       33.298       25.314       17.988     1108.754      640.818      323.552        0.581        0.104       97.602       16.209        0.028      337.330        9.233      860.727
01/17/2022  17:02:00      -80.394        0.531       -6.052       56.983       28.968       23.830     3247.056      839.146      567.884        0.558        0.233       80.396       17.857        0.049      337.341        9.250      860.739
01/17/2022  17:03:00      -47.582        1.101       -6.774       40.731       25.334       28.810     1658.982      641.836      830.003        0.272        0.157       47.595       20.904        0.193      337.230        9.065      860.751
01/17/2022  17:04:00      -84.622       24.675      -11.778       42.675       25.572       20.498     1821.174      653.941      420.156        0.540        0.145       88.146       24.115        0.075      337.096        8.838      860.746
01/17/2022  17:05:00      -69.730       41.881      -12.143       31.593       24.108       23.477      998.110      581.203      551.170        0.445        0.107       81.340       18.955        0.054      337.082        8.817      860.740
01/17/2022  17:06:00      -60.595        9.308       -4.891       31.096       29.205       20.844      966.985      852.955      434.458        0.302        0.113       61.305       12.604        0.042      337.090        8.829      860.732
01/17/2022  17:07:00      -70.264       20.128       -6.373       35.965       24.234       20.740     1293.493      587.284      430.141        0.385        0.116       73.090       17.913        0.060      337.080        8.812      860.724
01/17/2022  17:08:00      -77.361       27.714      -14.828       37.580       22.643       16.929     1412.262      512.687      286.605        0.459        0.111       82.176       19.155        0.054      336.983        8.649      860.727
01/17/2022  17:09:00      -84.434       12.793      -12.318       26.663       26.944       17.473      710.928      725.980      305.302        0.459        0.087       85.397       16.867        0.039      336.954        8.600      860.725
01/17/2022  17:10:00      -49.284        6.717       -4.933       43.801       23.650       19.263     1918.517      559.338      371.082        0.267        0.142       49.740       21.304        0.183      336.843        8.416      860.723
01/17/2022  17:11:00      -62.768       23.229       -7.947       70.251       31.211       21.152     4935.219      974.134      447.414        0.545        0.318       66.929       25.123        0.141      336.693        8.168      860.725
01/17/2022  17:12:00      -17.202        4.259       -8.051       23.157       25.822       20.295      536.251      666.752      411.904        0.100        0.081       17.721       12.095        0.466      336.634        8.067      860.730
01/17/2022  17:13:00       -5.452        0.892       -6.265       42.216       28.528       23.133     1782.166      813.873      535.113        0.160        0.157        5.525       21.200       14.725      336.605        8.020      860.727
01/17/2022  17:14:00      -92.366       25.933       -7.759       48.397       32.865       22.787     2342.309     1080.102      519.232        0.660        0.197       95.937       21.432        0.050      336.619        8.044      860.732
01/17/2022  17:15:00      -57.468        8.562       -3.247       41.674       33.663       23.201     1736.754     1133.198      538.302        0.340        0.170       58.102       11.443        0.039      336.531        7.897      860.729
01/17/2022  17:16:00      -56.692        6.554       -8.116       34.147       28.382       20.793     1166.001      805.534      432.369        0.286        0.120       57.069       17.703        0.096      336.521        7.879      860.717
01/17/2022  17:17:00      -24.636        3.126       -7.993       27.952       21.670       18.839      781.323      469.575      354.905        0.114        0.080       24.833       18.551        0.558      336.476        7.803      860.713
01/17/2022  17:18:00      -11.074       10.071       -4.209       36.739       22.448       21.639     1349.721      503.925      468.257        0.128        0.116       14.969       23.324        2.428      336.416        7.701      860.716
01/17/2022  17:19:00      -28.269      -25.506        0.811       33.964       26.375       22.590     1153.529      695.652      510.295        0.190        0.118       38.074       19.344        0.258      336.486        7.820      860.736
01/17/2022  17:20:00      -35.316      -13.532       -5.376       33.753       29.475       23.182     1139.284      868.752      537.428        0.200        0.127       37.819       23.498        0.386      336.511        7.862      860.747
01/17/2022  17:21:00      -52.710       -5.143       -4.009       43.101       29.436       25.925     1857.695      866.484      672.100        0.311        0.170       52.960       24.173        0.208      336.443        7.749      860.753
01/17/2022  17:22:00      -80.144        5.887       -7.368       49.721       31.929       26.282     2472.200     1019.457      690.763        0.535        0.209       80.360       25.531        0.101      336.508        7.857      860.752
01/17/2022  17:23:00     -107.460       30.149      -14.363       31.001       28.310       18.701      961.069      801.443      349.744        0.739        0.106      111.609       11.902        0.011      336.492        7.830      860.749
01/17/2022  17:24:00      -94.400       34.857       -9.144       23.466       23.589       16.725      550.672      556.444      279.713        0.580        0.069      100.630       11.675        0.013      336.358        7.606      860.735
01/17/2022  17:25:00      -20.764       23.871       -5.833       37.288       23.917       13.008     1390.407      572.025      169.204        0.158        0.107       31.638       11.363        0.129      336.489        7.826      860.722
01/17/2022  17:26:00        3.141       74.591       -7.374       13.048       18.444       10.438      170.252      340.165      108.950        0.312        0.031       74.658        6.092        0.007      337.095        8.838      860.717
01/17/2022  17:27:00        2.397       30.784      -11.084       32.054       16.655       17.734     1027.436      277.398      314.479        0.135        0.081       30.877       12.353        0.160      336.973        8.633      860.731
01/17/2022  17:28:00        1.285       -8.026       -7.681       45.941       35.362       30.029     2110.611     1250.483      901.718        0.219        0.213        8.128       29.207       12.913      336.471        7.795      860.775
01/17/2022  17:29:00      -57.673      -16.788        3.520       71.858       40.187       42.131     5163.524     1615.013     1775.006        0.609        0.428       60.067       38.682        0.415      336.301        7.510      860.801
01/17/2022  17:30:00     -151.927       22.087       -9.463       65.739       39.084       29.823     4321.580     1527.554      889.413        1.520        0.337      153.524       30.877        0.040      336.262        7.444      860.809
01/17/2022  17:31:00      -25.115       28.920       -9.347       44.490       28.793       18.422     1979.346      829.044      339.352        0.235        0.157       38.303       14.649        0.146      336.365        7.617      860.797
01/17/2022  17:32:00       19.576       44.321       -1.279       31.955       31.022       23.838     1021.153      962.388      568.237        0.245        0.128       48.452       18.044        0.139      336.284        7.481      860.772
01/17/2022  17:33:00       32.650       87.735      -14.412       24.169       30.047       18.692      584.117      902.815      349.402        0.540        0.092       93.613       15.724        0.028      336.518        7.873      860.769
01/17/2022  17:34:00       11.171       55.624      -16.243       30.610       42.693       20.021      936.993     1822.721      400.857        0.332        0.158       56.734       13.637        0.058      336.391        7.662      860.804
01/17/2022  17:35:00        9.829      -25.957      -18.562       21.119       16.164       11.524      446.010      261.290      132.813        0.098        0.042       27.755        5.804        0.044      336.284        7.483      860.818
01/17/2022  17:36:00       28.419      -53.598      -24.350       31.218       39.032       18.304      974.539     1523.510      335.052        0.355        0.142       60.666        9.823        0.026      336.395        7.668      860.811
01/17/2022  17:37:00       37.132      -15.888      -32.234       28.215       40.020       30.895      796.095     1601.561      954.483        0.301        0.168       40.388       18.995        0.221      336.434        7.733      860.804
01/17/2022  17:38:00       -4.118       12.119        0.648       29.064       15.072       16.708      844.698      227.155      279.169        0.076        0.068       12.800       14.013        1.199      336.527        7.889      860.812
01/17/2022  17:39:00      -53.070       48.776      -16.442       40.781       35.703       19.905     1663.069     1274.708      396.195        0.440        0.167       72.080       15.094        0.044      336.604        8.018      860.850
01/17/2022  17:40:00     -103.467       44.463      -19.595       28.360       16.885       13.134      804.301      285.087      172.492        0.716        0.063      112.616        4.282        0.001      336.358        7.606      860.857
01/17/2022  17:41:00      -52.779       23.629       -7.190       37.763       25.302       16.329     1426.076      640.194      266.620        0.286        0.117       57.827       14.394        0.062      336.429        7.723      860.869
01/17/2022  17:42:00      -87.504       18.214      -19.605       17.719       22.584        9.314      313.980      510.044       86.752        0.464        0.046       89.380        6.695        0.006      336.265        7.450      860.893
01/17/2022  17:43:00      -98.833       41.723      -14.157       16.453       23.103        9.820      270.687      533.763       96.431        0.630        0.045      107.279        3.125        0.001      336.284        7.481      860.895
01/17/2022  17:44:00      -69.415       32.994      -13.834       15.296        8.466       12.379      233.966       71.671      153.247        0.328        0.023       76.858        9.230        0.014      336.303        7.513      860.885
01/17/2022  17:45:00      -48.478       16.843       -7.814       35.214       19.140       15.108     1240.060      366.344      228.256        0.226        0.092       51.321       15.791        0.095      336.364        7.616      860.903
01/17/2022  17:46:00      -58.177       12.392      -10.348       27.446       19.376       15.589      753.272      375.426      243.022        0.251        0.069       59.482       13.336        0.050      336.368        7.623      860.921
01/17/2022  17:47:00      -61.227       12.788      -19.072       32.769       23.613       17.403     1073.815      557.570      302.859        0.310        0.097       62.548       11.752        0.035      336.327        7.555      860.936
01/17/2022  17:48:00      -42.702       24.605       -3.062       59.140       38.877       30.461     3497.525     1511.427      927.884        0.419        0.297       49.284       36.598        0.551      336.155        7.266      860.947
01/17/2022  17:49:00     -114.110       57.022       -8.627       53.972       29.404       24.756     2912.933      864.594      612.883        1.037        0.220      127.564       18.475        0.021      336.356        7.601      860.951
01/17/2022  17:50:00      -31.915       14.250        5.581       38.002       22.778       22.949     1444.144      518.859      526.648        0.187        0.124       34.952       18.983        0.295      336.482        7.812      860.944
01/17/2022  17:51:00        9.478      -11.022       -5.048        9.710       13.768       11.514       94.281      189.568      132.580        0.033        0.021       14.537        6.743        0.215      336.538        7.908      860.941
01/17/2022  17:52:00       -6.254        9.051       -5.955       22.695       11.932       12.247      515.081      142.366      149.982        0.048        0.040       11.002       13.050        1.407      336.498        7.841      860.965
01/17/2022  17:53:00      -66.898       15.133      -13.178       34.187       26.984       12.940     1168.719      728.155      167.439        0.347        0.103       68.588       11.616        0.029      336.350        7.593      861.005
01/17/2022  17:54:00     -133.448       47.945      -15.556       28.518       23.342       19.943      813.275      544.828      397.707        1.105        0.088      141.799       12.965        0.008      336.228        7.390      861.043
01/17/2022  17:55:00      -81.217       16.025      -17.208       51.116       32.197       23.471     2612.819     1036.651      550.875        0.567        0.210       82.783       22.031        0.071      336.130        7.224      861.060
01/17/2022  17:56:00      -49.554        9.892       -8.234       54.696       27.867       15.052     2991.677      776.564      226.574        0.331        0.200       50.532       15.283        0.091      336.154        7.265      861.067
01/17/2022  17:57:00       47.590       39.317      -13.137       28.387       23.639       10.186      805.843      558.784      103.757        0.273        0.073       61.730        8.670        0.020      336.451        7.761      861.067
01/17/2022  17:58:00       40.922       23.619       -4.358       22.762       20.491       12.060      518.115      419.885      145.436        0.167        0.054       47.249        7.612        0.026      336.424        7.716      861.068
01/17/2022  17:59:00      -38.645       20.388      -21.004       25.907       49.973       13.957      671.155     2497.267      194.797        0.286        0.168       43.693        9.214        0.044      336.290        7.493      861.093
01/17/2022  18:00:00      -17.426       -8.207       -4.797       30.787       17.925       22.485      947.809      321.289      505.578        0.108        0.089       19.262       20.087        1.088      335.902        6.845      861.089
01/17/2022  18:01:00      -40.460       -9.222       -6.276       28.940       18.837       18.778      837.541      354.833      352.601        0.165        0.077       41.498       16.415        0.156      336.023        7.046      861.090
01/17/2022  18:02:00        6.135        5.235      -11.583       13.000       18.252        8.799      169.002      333.128       77.431        0.039        0.029        8.065        2.932        0.132      336.085        7.149      861.092
01/17/2022  18:03:00       34.164       32.841       -5.899       20.779        9.912        9.165      431.761       98.243       84.000        0.145        0.031       47.389        3.304        0.005      336.325        7.550      861.095
01/17/2022  18:04:00       17.285       50.769      -10.698       23.507       20.454       15.537      552.597      418.377      241.383        0.210        0.061       53.631       10.150        0.036      336.438        7.739      861.113
01/17/2022  18:05:00       21.981       75.977      -13.038       22.909       25.435       17.295      524.822      646.952      299.116        0.395        0.074       79.093        9.183        0.013      336.556        7.937      861.129
01/17/2022  18:06:00       -5.548       62.601      -13.705       29.481       30.804       15.149      869.149      948.890      229.488        0.309        0.102       62.846       14.787        0.055      336.448        7.756      861.131
01/17/2022  18:07:00       -6.850        2.641       -3.479       16.516       14.942       14.573      272.780      223.275      212.374        0.039        0.035        7.342        7.985        1.183      336.108        7.187      861.132
01/17/2022  18:08:00      -81.131       -5.685      -10.085       34.790       21.650       19.349     1210.349      468.724      374.383        0.438        0.103       81.330       17.481        0.046      335.955        6.934      861.151
01/17/2022  18:09:00      -79.680      -14.381      -14.073       46.130       25.788       30.321     2127.952      665.034      919.366        0.523        0.186       80.967       27.674        0.117      335.793        6.663      861.171
01/17/2022  18:10:00      -37.879      -22.379       -9.209       16.610       13.391        9.962      275.879      179.329       99.248        0.129        0.028       43.996        6.373        0.021      336.060        7.108      861.164
01/17/2022  18:11:00      -14.574       -8.589       -7.227       10.510        7.576        8.446      110.464       57.391       71.333        0.029        0.012       16.917        6.977        0.170      336.290        7.491      861.159
01/17/2022  18:12:00       -2.566       -9.394       -3.209       11.397        9.866        7.405      129.895       97.343       54.830        0.019        0.014        9.738        5.634        0.335      336.185        7.317      861.158
01/17/2022  18:13:00       28.279       -8.624       -7.428       20.099       12.743        9.083      403.955      162.390       82.503        0.079        0.032       29.565        8.449        0.082      335.981        6.978      861.158
01/17/2022  18:14:00       19.422      -33.065      -15.677       22.956       21.853       18.444      526.994      477.562      340.175        0.153        0.067       38.347       12.207        0.101      336.224        7.382      861.173
01/17/2022  18:15:00      -23.817       -1.209      -13.455       17.788       18.527       13.940      316.402      343.264      194.336        0.080        0.043       23.848       10.888        0.208      336.139        7.240      861.202
01/17/2022  18:16:00       -0.607        1.123       -3.334        8.213        5.862        7.344       67.456       34.358       53.934        0.008        0.008        1.277        4.889       14.657      335.982        6.980      861.228
01/17/2022  18:17:00      -12.329       10.095       -7.245       10.564        6.518        5.248      111.603       42.481       27.541        0.024        0.009       15.935        3.433        0.046      336.036        7.067      861.247
01/17/2022  18:18:00      -10.864      -11.622       -2.879       13.260        8.836        7.438      175.840       78.071       55.317        0.029        0.015       15.909        6.715        0.178      335.918        6.873      861.256
01/17/2022  18:19:00      -11.029      -11.289       -1.881       12.923        9.044       11.335      166.995       81.786      128.476        0.031        0.019       15.782        8.576        0.295      335.957        6.937      861.259
01/17/2022  18:20:00      -16.083      -19.460       -4.586       14.687       11.627        9.789      215.712      135.185       95.822        0.055        0.022       25.246        5.348        0.045      335.789        6.656      861.255
01/17/2022  18:21:00       10.292       -1.234       -4.818        7.838        8.311        7.855       61.427       69.068       61.698        0.016        0.010       10.365        6.139        0.351      335.796        6.667      861.255
01/17/2022  18:22:00      -21.262        2.547      -10.846       15.076       11.061        6.875      227.296      122.353       47.259        0.049        0.020       21.414        4.549        0.045      335.891        6.827      861.257
01/17/2022  18:23:00      -61.498      -28.078       -3.299       39.430       28.342       23.825     1554.725      803.269      567.622        0.375        0.146       67.604       20.118        0.089      335.782        6.645      861.261
01/17/2022  18:24:00       -6.486      -17.981      -10.430       45.558       50.403       22.464     2075.527     2540.482      504.621        0.280        0.256       19.115       21.486        1.263      335.764        6.614      861.240
01/17/2022  18:25:00       16.606        4.335      -15.229       16.718       21.017       11.283      279.491      441.719      127.299        0.069        0.042       17.162        4.702        0.075      335.673        6.463      861.230
01/17/2022  18:26:00      -20.055       12.157        0.007       21.074       10.614        7.507      444.106      112.661       56.362        0.058        0.031       23.452        5.370        0.052      335.793        6.663      861.242
01/17/2022  18:27:00      -45.839        8.301      -13.391       26.646       16.664       13.829      710.003      277.692      191.236        0.176        0.059       46.584        8.464        0.033      335.940        6.909      861.269
01/17/2022  18:28:00     -100.265       25.942      -15.730       15.213       15.579       11.486      231.424      242.703      131.930        0.579        0.030      103.566        7.145        0.005      335.567        6.286      861.308
01/17/2022  18:29:00      -95.907       16.077      -16.333       23.797       14.431       11.398      566.276      208.246      129.920        0.531        0.045       97.245        2.383        0.001      335.468        6.123      861.328
01/17/2022  18:30:00      -46.802        5.016       -4.400       17.154       18.271       14.427      294.273      333.812      208.131        0.154        0.042       47.070        9.953        0.045      335.489        6.158      861.336
01/17/2022  18:31:00      -44.272        3.793        1.008       24.681       20.098       12.109      609.133      403.916      146.622        0.157        0.058       44.435       13.669        0.095      335.680        6.473      861.326
01/17/2022  18:32:00      -31.997       -1.479       -7.706       24.229       12.857       11.345      587.047      165.311      128.702        0.098        0.044       32.031        8.413        0.069      335.644        6.415      861.332
01/17/2022  18:33:00        3.767        2.513        4.819       12.195        5.819        9.999      148.709       33.862       99.983        0.016        0.014        4.528        5.784        1.631      335.528        6.223      861.347
01/17/2022  18:34:00        4.164       18.801       -5.087       13.693       10.191       10.598      187.499      103.865      112.308        0.040        0.020       19.257       10.266        0.284      335.545        6.249      861.356
01/17/2022  18:35:00      -14.505       18.386       -9.981       13.656        9.628        9.189      186.483       92.698       84.442        0.051        0.018       23.419        3.048        0.017      335.599        6.339      861.376
01/17/2022  18:36:00      -66.407       27.826      -17.856       24.116       16.024       15.934      581.588      256.779      253.900        0.330        0.055       72.001       14.904        0.043      335.622        6.379      861.390
01/17/2022  18:37:00      -66.507       10.284      -11.319       32.135       31.234       19.528     1032.678      975.591      381.349        0.352        0.119       67.297       12.500        0.035      335.554        6.265      861.399
01/17/2022  18:38:00      -11.009      -14.885       -8.340       13.423       13.062        9.514      180.185      170.618       90.515        0.043        0.022       18.514        8.010        0.187      335.533        6.230      861.397
01/17/2022  18:39:00      -19.175       -2.058      -15.954       13.173       15.962        8.678      173.537      254.789       75.309        0.056        0.025       19.285        7.170        0.138      335.560        6.276      861.414
01/17/2022  18:40:00      -33.607        7.433       -5.247       22.603       17.768       13.062      510.900      315.701      170.610        0.110        0.050       34.419        7.270        0.045      335.477        6.137      861.414
01/17/2022  18:41:00      -52.254        7.368      -11.146       21.015       15.710       11.376      441.650      246.802      129.414        0.186        0.041       52.771        6.334        0.014      335.555        6.266      861.408
01/17/2022  18:42:00      -24.494       26.674      -10.765       21.204       13.187       14.257      449.607      173.902      203.249        0.113        0.041       36.214       13.476        0.138      335.744        6.582      861.399
01/17/2022  18:43:00      -17.019      -18.216       -6.709       18.194       14.496       11.292      331.012      210.129      127.506        0.067        0.033       24.929        9.626        0.149      335.768        6.621      861.370
01/17/2022  18:44:00      -19.388        4.745      -12.394       24.841       22.111       13.465      617.087      488.886      181.314        0.092        0.064       19.961       12.792        0.411      335.622        6.378      861.382
01/17/2022  18:45:00      -22.040        7.478        0.441       59.595       21.449       16.472     3551.546      460.065      271.330        0.241        0.214       23.274       12.292        0.279      335.326        5.886      861.410
01/17/2022  18:46:00     -120.990       -3.994       -0.331       53.771       34.867       28.245     2891.336     1215.742      797.779        0.978        0.245      121.056       27.952        0.053      335.367        5.955      861.429
01/17/2022  18:47:00     -109.119       -2.272      -14.138       42.388       28.722       20.356     1796.767      824.978      414.359        0.757        0.152      109.143       18.230        0.028      335.525        6.216      861.433
01/17/2022  18:48:00      -64.833       10.908       -1.977       35.337       17.717       14.874     1248.735      313.905      221.232        0.305        0.089       65.744       13.826        0.044      335.456        6.102      861.438
01/17/2022  18:49:00      -59.608       17.448       -4.585       31.360       31.325       18.730      983.472      981.278      350.831        0.310        0.116       62.110       11.309        0.033      335.405        6.016      861.458
01/17/2022  18:50:00      -99.997       32.062      -17.733       21.171       20.121       17.075      448.191      404.856      291.571        0.624        0.057      105.012        8.708        0.007      335.303        5.847      861.463
01/17/2022  18:51:00      -89.711       41.837      -14.207       22.866       24.073       16.104      522.843      579.494      259.343        0.568        0.068       98.987        9.919        0.010      335.189        5.657      861.461
01/17/2022  18:52:00      -78.269       23.934      -15.308       14.344       14.161       14.249      205.758      200.520      203.035        0.377        0.030       81.846        7.464        0.008      335.284        5.814      861.454
01/17/2022  18:53:00      -83.953       25.755      -17.435       28.307       30.832       14.642      801.294      950.620      214.384        0.499        0.098       87.814        6.437        0.005      335.251        5.760      861.469
01/17/2022  18:54:00      -73.839        4.887       -9.846       36.138       34.306       20.193     1305.987     1176.932      407.749        0.423        0.145       74.000       13.807        0.035      335.073        5.467      861.490
01/17/2022  18:55:00     -111.628       62.445      -19.457       18.439       21.440       17.157      339.998      459.683      294.378        0.892        0.055      127.907       10.610        0.007      335.121        5.543      861.503
01/17/2022  18:56:00     -118.683       39.304      -15.247       33.757       32.714       21.491     1139.564     1070.186      461.855        0.927        0.134      125.021       20.953        0.028      335.084        5.484      861.516
01/17/2022  18:57:00      -34.433        2.797       -6.036       51.371       32.129       25.362     2638.996     1032.300      643.217        0.277        0.216       34.546       18.682        0.292      335.002        5.349      861.527
01/17/2022  18:58:00      -24.970        3.380        2.347       47.425       30.366       24.100     2249.106      922.073      580.807        0.220        0.188       25.198       22.291        0.783      334.952        5.265      861.524
01/17/2022  18:59:00      -61.867        4.187      -14.328       21.797       22.372       24.314      475.098      500.484      591.157        0.281        0.078       62.008       14.439        0.054      335.188        5.658      861.515
01/17/2022  19:00:00     -103.186       20.777      -17.579       42.097       16.231       15.929     1772.189      263.460      253.737        0.684        0.114      105.257        5.999        0.003      335.183        5.647      861.497
01/17/2022  19:01:00      -59.039       -3.304      -17.968       45.273       30.350       24.555     2049.605      921.106      602.960        0.370        0.179       59.131       21.923        0.137      335.008        5.358      861.502
01/17/2022  19:02:00       -9.957       -7.085        8.463       45.717       27.923       25.110     2090.085      779.694      630.501        0.186        0.175       12.221       23.464        3.686      335.025        5.385      861.520
01/17/2022  19:03:00      -73.365        4.455        4.293       44.769       34.608       20.368     2004.228     1197.732      414.870        0.452        0.181       73.500       16.435        0.050      335.113        5.531      861.528
01/17/2022  19:04:00      -47.308       21.671       -9.154       32.161       14.999       13.334     1034.323      224.962      177.787        0.211        0.072       52.035       15.854        0.093      335.129        5.557      861.531
01/17/2022  19:05:00     -107.332       25.071      -12.037       26.471       19.705       13.720      700.710      388.268      188.249        0.679        0.064      110.221        9.928        0.008      335.139        5.576      861.542
01/17/2022  19:06:00     -118.212       27.481      -12.454       31.109       21.214       15.432      967.783      450.024      238.150        0.827        0.083      121.365       10.859        0.008      335.073        5.467      861.550
01/17/2022  19:07:00      -58.534        9.759       -7.939       45.802       27.157       26.476     2097.812      737.509      700.997        0.356        0.177       59.341       17.349        0.085      334.998        5.341      861.563
01/17/2022  19:08:00      -97.442       12.129      -14.129       54.963       21.761       23.955     3020.885      473.563      573.819        0.695        0.203       98.194       29.766        0.092      334.841        5.080      861.572
01/17/2022  19:09:00      -74.122        9.440       -8.705       39.546       25.336       22.808     1563.860      641.930      520.215        0.419        0.136       74.721       22.240        0.089      334.901        5.181      861.556
01/17/2022  19:10:00      -67.720       10.373       -8.086       24.880       21.853       22.359      618.994      477.556      499.936        0.318        0.080       68.509       18.304        0.071      334.927        5.223      861.553
01/17/2022  19:11:00      -63.246       19.422      -17.095       19.062       18.213       18.666      363.373      331.695      348.427        0.286        0.052       66.161       11.252        0.029      335.001        5.347      861.561
01/17/2022  19:12:00      -75.234       20.150       -6.925       18.948       17.231       12.602      359.042      296.913      158.799        0.346        0.041       77.885        8.158        0.011      335.045        5.420      861.570
01/17/2022  19:13:00      -22.740       14.592       -6.419       26.140       11.067       12.518      683.282      122.468      156.694        0.087        0.048       27.019        6.870        0.065      335.070        5.459      861.570
01/17/2022  19:14:00      -13.284       -1.703       -7.784       21.064       14.673       11.954      443.701      215.310      142.889        0.052        0.040       13.393        6.528        0.238      335.235        5.735      861.584
01/17/2022  19:15:00      -39.087       -1.308      -13.456       18.543       22.889       21.640      343.830      523.899      468.269        0.152        0.067       39.109       13.952        0.127      334.895        5.171      861.598
01/17/2022  19:16:00      -18.522      -18.657       -1.825       22.437       25.270       18.724      503.407      638.596      350.600        0.109        0.075       26.290       14.748        0.315      334.785        4.988      861.606
01/17/2022  19:17:00       11.911      -28.563      -13.019       21.656       28.604       21.482      468.998      818.162      461.482        0.144        0.087       30.947       15.790        0.260      335.002        5.349      861.585
01/17/2022  19:18:00        1.032      -11.256       -7.724        9.709        8.662        6.103       94.274       75.029       37.252        0.020        0.010       11.304        3.886        0.118      335.234        5.731      861.597
01/17/2022  19:19:00      -31.569       -7.793      -12.391       15.710        7.859       11.751      246.808       61.763      138.083        0.083        0.022       32.517        6.685        0.042      335.120        5.544      861.605
01/17/2022  19:20:00       -5.947      -12.493       -7.363       15.690        8.138        6.997      246.168       66.226       48.962        0.030        0.018       13.836        2.874        0.043      335.319        5.875      861.604
01/17/2022  19:21:00       18.712       -6.960      -10.640        6.287        8.234        6.173       39.532       67.795       38.104        0.033        0.007       19.964        2.085        0.011      335.393        5.996      861.596
01/17/2022  19:22:00       11.084        9.308       -9.377        9.785        5.824        7.352       95.750       33.922       54.055        0.024        0.009       14.474        2.943        0.041      335.544        6.249      861.585
01/17/2022  19:23:00      -37.702        0.149      -10.508       16.596       16.955       11.502      275.413      287.481      132.293        0.111        0.035       37.703        7.506        0.040      334.998        5.342      861.576
01/17/2022  19:24:00      -51.155       -1.288      -15.295       18.415       11.078       11.530      339.125      122.728      132.952        0.172        0.030       51.172       10.893        0.045      334.884        5.155      861.570
01/17/2022  19:25:00      -29.405      -17.805      -13.010       13.983        8.728       10.800      195.513       76.178      116.639        0.087        0.019       34.375        7.171        0.044      334.978        5.308      861.559
01/17/2022  19:26:00      -30.502      -11.715      -13.786       10.071        8.336        7.006      101.419       69.485       49.091        0.074        0.011       32.675        2.270        0.005      335.028        5.389      861.555
01/17/2022  19:27:00      -21.279      -20.239      -10.990       12.638       15.575        8.081      159.715      242.574       65.300        0.073        0.023       29.367        5.234        0.032      335.342        5.912      861.554
01/17/2022  19:28:00       16.293      -66.539      -17.930       19.713       27.638       19.636      388.592      763.870      385.583        0.328        0.077       68.505       13.505        0.039      335.560        6.276      861.556
01/17/2022  19:29:00       -1.561      -30.511       -9.221       22.736       17.252       11.046      516.948      297.639      122.022        0.098        0.047       30.551        9.346        0.094      335.465        6.118      861.553
01/17/2022  19:30:00       12.564      -35.051       -5.419       16.653       23.874       10.944      277.309      569.987      119.771        0.119        0.048       37.235       10.493        0.079      335.282        5.810      861.539
01/17/2022  19:31:00      -31.325      -11.480      -11.652       10.672       10.556       11.360      113.882      111.425      129.051        0.080        0.018       33.363        6.959        0.044      335.087        5.489      861.536
01/17/2022  19:32:00      -18.912      -13.336      -14.639       11.928        9.591        6.707      142.280       91.994       44.980        0.051        0.014       23.141        4.958        0.046      335.160        5.609      861.534
01/17/2022  19:33:00       11.863      -38.669      -13.599       31.400       26.333       17.286      985.955      693.421      298.792        0.190        0.099       40.448       12.497        0.095      335.142        5.580      861.530
01/17/2022  19:34:00      -49.200       13.319       -5.614       15.564       18.585        9.760      242.240      345.405       95.258        0.166        0.034       50.971        3.083        0.004      335.068        5.459      861.539
01/17/2022  19:35:00      -81.535      -18.740       -5.160       42.651       31.971       19.724     1819.107     1022.146      389.019        0.513        0.162       83.661       16.547        0.039      335.073        5.467      861.535
01/17/2022  19:36:00      -30.326      -11.755       -1.539       28.244       19.852       17.367      797.724      394.114      301.597        0.128        0.075       32.525        6.447        0.039      335.096        5.503      861.526
01/17/2022  19:37:00      -58.721      -16.828        0.413       50.647       29.420       21.014     2565.143      865.564      441.590        0.380        0.194       61.084       11.896        0.038      335.079        5.474      861.534
01/17/2022  19:38:00      -76.804      -12.070        0.943       42.895       30.581       22.675     1839.963      935.180      514.149        0.467        0.164       77.746       15.433        0.039      334.970        5.295      861.549
01/17/2022  19:39:00      -37.311       -3.955       -2.879       45.825       30.163       18.684     2099.915      909.829      349.082        0.239        0.168       37.520       21.792        0.337      334.933        5.232      861.562
01/17/2022  19:40:00      -53.410       -4.886        2.805       41.766       30.319       20.806     1744.363      919.264      432.910        0.299        0.155       53.633       17.585        0.107      334.835        5.073      861.582
01/17/2022  19:41:00      -24.732        3.664        0.161       31.457       22.695       18.430      989.552      515.066      339.650        0.123        0.092       25.002       16.215        0.421      334.837        5.074      861.592
01/17/2022  19:42:00      -18.235      -29.306      -11.460       21.260       20.520       11.626      451.977      421.051      135.158        0.117        0.050       34.516       10.503        0.093      334.886        5.156      861.591
01/17/2022  19:43:00       -3.919       -3.088       -6.838       16.760       14.084        7.615      280.889      198.361       57.989        0.030        0.027        4.990        6.614        1.757      334.980        5.310      861.589
01/17/2022  19:44:00      -45.343        8.358       -4.392       25.226       14.876       12.802      636.329      221.285      163.894        0.158        0.051       46.107        5.324        0.013      334.853        5.101      861.597
01/17/2022  19:45:00      -33.584        5.389       -7.190       33.481       22.813       19.127     1120.962      520.414      365.855        0.161        0.100       34.014       13.427        0.156      334.788        4.992      861.610
01/17/2022  19:46:00      -64.648       11.393      -17.171       25.534       14.653       17.224      652.002      214.719      296.668        0.288        0.058       65.645       13.546        0.043      334.657        4.773      861.611
01/17/2022  19:47:00        3.306       -4.185      -11.981       12.552        9.009        7.202      157.563       81.158       51.868        0.023        0.015        5.333        7.799        2.139      334.784        4.984      861.599
01/17/2022  19:48:00       -2.344       -2.101       -4.741        4.677        4.456        6.856       21.877       19.857       46.999        0.006        0.004        3.147        3.972        1.593      334.755        4.938      861.610
01/17/2022  19:49:00       -4.399       11.787      -10.407       10.049        6.729        5.338      100.981       45.278       28.498        0.022        0.009       12.581        3.211        0.065      334.792        4.999      861.622
01/17/2022  19:50:00      -26.226        4.247      -13.119       10.058       16.352        8.362      101.167      267.402       69.931        0.066        0.022       26.568        7.930        0.089      334.721        4.881      861.634
01/17/2022  19:51:00       -0.685        3.021       -7.643       10.773       10.142        7.118      116.064      102.862       50.667        0.017        0.013        3.097        6.877        4.930      334.598        4.676      861.644
01/17/2022  19:52:00        5.096       17.429      -12.134        9.695        9.448       10.978       93.985       89.263      120.514        0.039        0.015       18.158        8.215        0.205      334.871        5.131      861.645
01/17/2022  19:53:00      -14.749       18.371       -7.630       10.945       10.602        7.221      119.786      112.409       52.146        0.045        0.014       23.559        5.745        0.059      334.666        4.787      861.654
01/17/2022  19:54:00      -31.921        7.700       -9.997       20.401       14.413       13.252      416.187      207.730      175.611        0.099        0.040       32.837       13.651        0.173      334.732        4.899      861.663
01/17/2022  19:55:00       -3.246        3.733        1.553       13.377        8.094       10.308      178.938       65.519      106.252        0.019        0.018        4.947        8.969        3.287      334.508        4.524      861.679
01/17/2022  19:56:00       34.520       -6.202       -6.910       18.463       19.429       10.751      340.887      377.479      115.590        0.106        0.042       35.073        9.636        0.075      334.485        4.486      861.685
01/17/2022  19:57:00       17.238        4.284      -11.245       16.294       17.823       19.457      265.500      317.658      378.592        0.070        0.048       17.762       10.562        0.354      334.210        4.034      861.694
01/17/2022  19:58:00       26.301       -3.427       -5.513       18.754        9.064        7.266      351.729       82.150       52.790        0.061        0.024       26.523        5.887        0.049      334.252        4.101      861.719
01/17/2022  19:59:00       61.708      -23.107      -11.775       41.400       20.935       20.642     1713.965      438.284      426.081        0.353        0.129       65.892       22.907        0.121      334.269        4.129      861.707
01/17/2022  20:00:00       39.539        1.893      -14.461       26.537       23.052       15.701      704.197      531.416      246.535        0.163        0.074       39.584       12.818        0.105      334.263        4.119      861.698
01/17/2022  20:01:00       55.224       21.739       -6.519       13.853       13.307        6.457      191.904      177.079       41.688        0.199        0.021       59.348        3.250        0.003      334.341        4.250      861.702
01/17/2022  20:02:00       57.790       32.464       -9.439       14.022       11.942       10.049      196.619      142.600      100.981        0.246        0.022       66.284        5.245        0.006      334.514        4.536      861.712
01/17/2022  20:03:00       47.597       41.920       -9.840       23.234       12.652       15.758      539.841      160.078      248.304        0.253        0.047       63.425        5.853        0.009      334.597        4.673      861.725
01/17/2022  20:04:00       27.442       38.210      -10.886       13.476       11.405       10.430      181.595      130.081      108.788        0.138        0.021       47.043        1.921        0.002      334.674        4.802      861.758
01/17/2022  20:05:00       62.977       21.580       -5.369       25.399       14.198       11.929      645.106      201.579      142.309        0.272        0.049       66.572       12.149        0.033      334.722        4.882      861.767
01/17/2022  20:06:00       65.734       27.430       -6.921       29.394       16.357       10.097      864.009      267.543      101.949        0.318        0.062       71.227        4.808        0.005      334.562        4.614      861.776
01/17/2022  20:07:00       69.337       42.209       -3.808       35.515       24.847       20.044     1261.342      617.364      401.773        0.444        0.114       81.174       11.756        0.021      334.489        4.495      861.791
01/17/2022  20:08:00       28.765       53.227       -4.591       26.822       26.147       18.133      719.428      683.653      328.794        0.271        0.087       60.502       15.369        0.065      334.495        4.503      861.817
01/17/2022  20:09:00       19.384       75.370       -7.232       16.386       18.338        7.671      268.495      336.280       58.846        0.339        0.033       77.823        3.928        0.003      334.674        4.802      861.830
01/17/2022  20:10:00       25.405       26.544       -7.421        8.945       11.263        8.702       80.016      126.845       75.720        0.084        0.014       36.742        6.340        0.030      334.664        4.785      861.845
01/17/2022  20:11:00       42.845       15.266       -4.785       21.849       13.539        9.156      477.388      183.296       83.826        0.142        0.037       45.484        5.291        0.014      334.558        4.609      861.860
01/17/2022  20:12:00       65.048       -0.823       -5.397       18.264       14.949       11.216      333.576      223.462      125.799        0.247        0.034       65.053        8.064        0.015      334.470        4.462      861.864
01/17/2022  20:13:00       84.380       -5.601       -2.512       30.356       24.228       18.314      921.503      586.986      335.421        0.450        0.092       84.565       16.462        0.038      334.507        4.523      861.849
01/17/2022  20:14:00       58.509        7.992       -6.640       22.167       32.695       15.578      491.370     1068.965      242.665        0.267        0.090       59.052       10.154        0.030      334.440        4.413      861.844
01/17/2022  20:15:00       53.875       28.208       -5.325       20.459       24.755       14.270      418.565      612.792      203.627        0.248        0.062       60.813        6.657        0.012      334.456        4.440      861.819
01/17/2022  20:16:00       38.476       41.792       -2.411       24.040       13.460       12.569      577.944      181.160      157.977        0.207        0.046       56.807        7.439        0.017      334.449        4.428      861.814
01/17/2022  20:17:00       11.082       40.260       -6.075       18.209       14.939       10.852      331.564      223.180      117.774        0.123        0.034       41.758        8.500        0.041      334.616        4.705      861.817
01/17/2022  20:18:00       -7.427       21.914        0.204       14.885       12.819       11.234      221.563      164.322      126.193        0.052        0.026       23.139        7.145        0.095      334.447        4.424      861.823
01/17/2022  20:19:00       11.125       -7.151       -3.173       12.674        9.647        6.678      160.635       93.073       44.600        0.024        0.015       13.226        4.785        0.131      334.606        4.689      861.815
01/17/2022  20:20:00       29.356      -36.002      -12.189       10.267       14.299        8.418      105.416      204.451       70.864        0.134        0.019       46.453        4.596        0.010      334.658        4.775      861.816
01/17/2022  20:21:00       -2.860      -22.484       -5.045       16.595       17.889       11.648      275.409      320.023      135.683        0.064        0.037       22.666        8.494        0.140      334.678        4.808      861.831
01/17/2022  20:22:00      -18.528       23.788      -10.721       12.391       12.989        5.185      153.527      168.719       26.885        0.069        0.017       30.152        6.222        0.043      334.542        4.580      861.841
01/17/2022  20:23:00       -9.340       33.230       -4.553       19.987        9.094        9.591      399.478       82.698       91.994        0.089        0.029       34.518        5.383        0.024      334.565        4.620      861.844
01/17/2022  20:24:00       20.050       17.882       -3.692        9.394        7.924        5.849       88.238       62.787       34.216        0.046        0.009       26.865        4.658        0.030      334.700        4.846      861.850
01/17/2022  20:25:00        5.994        5.752       -2.155        7.748        8.529        5.183       60.033       72.746       26.864        0.012        0.008        8.308        3.673        0.196      334.623        4.716      861.854
01/17/2022  20:26:00       10.187        0.901       -6.483        6.648        5.759        3.809       44.193       33.167       14.510        0.012        0.005       10.227        3.051        0.089      334.657        4.774      861.850
01/17/2022  20:27:00       -4.001       -3.799       -3.704       10.338        8.211        8.361      106.870       67.413       69.908        0.014        0.012        5.517        8.439        2.339      334.562        4.615      861.849
01/17/2022  20:28:00      -43.334       13.755       -6.380       14.009       11.202        7.706      196.251      125.477       59.379        0.124        0.019       45.464        8.578        0.036      334.287        4.160      861.859
01/17/2022  20:29:00      -61.496       28.701       -9.327       19.999        9.818        9.134      399.943       96.390       83.427        0.264        0.029       67.864        9.378        0.019      334.306        4.191      861.854
01/17/2022  20:30:00      -34.990       42.211       -7.764       24.438       12.274        7.397      597.229      150.642       54.717        0.193        0.040       54.828        8.918        0.026      334.345        4.256      861.857
01/17/2022  20:31:00       10.622       16.974       -3.066       11.018       11.837        7.690      121.397      140.124       59.131        0.037        0.016       20.024        4.070        0.041      334.482        4.483      861.851
01/17/2022  20:32:00       -4.062        3.901       -7.383        8.122        7.634        6.389       65.965       58.274       40.821        0.013        0.008        5.632        3.710        0.434      334.496        4.505      861.846
01/17/2022  20:33:00       -3.647       -4.604       -2.346       11.406       14.491       13.301      130.093      209.982      176.922        0.028        0.026        5.874       10.203        3.017      334.465        4.454      861.847
01/17/2022  20:34:00      -28.252        5.347       -2.864       25.851       22.754       17.010      668.295      517.760      289.323        0.115        0.074       28.753       14.510        0.255      334.117        3.877      861.868
01/17/2022  20:35:00      -38.993       -9.405       -4.464       44.884       20.284       18.762     2014.601      411.423      352.017        0.220        0.139       40.112       17.951        0.200      333.959        3.618      861.880
01/17/2022  20:36:00      -67.737       -4.000       -1.157       34.771       23.488       17.980     1209.041      551.688      323.283        0.334        0.104       67.855        8.511        0.016      334.054        3.773      861.891
01/17/2022  20:37:00      -56.548       -9.252        0.575       34.781       23.371       18.295     1209.703      546.206      334.699        0.269        0.105       57.299       14.466        0.064      334.167        3.961      861.907
01/17/2022  20:38:00      -72.124        4.343       -0.194       43.465       29.227       18.580     1889.226      854.193      345.228        0.415        0.154       72.255       19.195        0.071      334.156        3.942      861.918
01/17/2022  20:39:00     -147.628       36.959       -9.205       51.980       35.540       23.968     2701.926     1263.125      574.452        1.389        0.227      152.184       15.449        0.010      333.917        3.546      861.934
01/17/2022  20:40:00      -79.654       20.909       -7.030       45.539       38.024       29.267     2073.830     1445.815      856.560        0.560        0.219       82.352       21.685        0.069      333.763        3.292      861.954
01/17/2022  20:41:00      -94.182       22.652       -4.022       48.138       38.738       29.964     2317.227     1500.643      897.839        0.706        0.236       96.868       22.415        0.054      333.697        3.183      861.961
01/17/2022  20:42:00     -114.148       36.433        2.862       46.925       34.789       25.418     2201.917     1210.298      646.056        0.921        0.203      119.822       22.266        0.035      333.766        3.298      861.948
01/17/2022  20:43:00      -58.743       14.865       -2.594       28.234       23.030       18.192      797.172      530.388      330.937        0.267        0.083       60.595       17.255        0.081      333.857        3.448      861.934
01/17/2022  20:44:00      -88.525       15.737       -6.462       25.418       17.132       15.224      646.088      293.509      231.784        0.465        0.059       89.913       13.577        0.023      333.900        3.518      861.926
01/17/2022  20:45:00      -56.435        8.559       -0.158       35.074       23.302       17.475     1230.208      542.972      305.384        0.267        0.104       57.080       15.160        0.071      333.854        3.443      861.925
01/17/2022  20:46:00      -31.104        0.285        3.149       29.233       22.326       19.155      854.596      498.456      366.901        0.135        0.086       31.105       15.104        0.236      333.788        3.332      861.930
01/17/2022  20:47:00      -74.449       12.197       -8.238       42.546       28.916       19.178     1810.192      836.132      367.801        0.439        0.151       75.442       13.066        0.030      333.934        3.574      861.952
01/17/2022  20:48:00      -68.089       15.368        4.132       34.219       21.369       15.874     1170.961      456.627      251.992        0.338        0.094       69.802       14.575        0.044      334.110        3.866      861.963
01/17/2022  20:49:00      -47.304       12.896       -1.814       27.475       17.662       14.839      754.875      311.951      220.202        0.185        0.064       49.030       12.105        0.061      334.201        4.016      861.966
01/17/2022  20:50:00      -63.175       31.881       -5.505       22.196       17.935       11.180      492.675      321.669      124.984        0.299        0.047       70.764       11.162        0.025      334.210        4.032      861.989
01/17/2022  20:51:00      -92.141       35.484      -15.845       27.738       16.334       17.629      769.388      266.794      310.775        0.567        0.067       98.737       16.057        0.026      334.153        3.938      862.019
01/17/2022  20:52:00     -112.961       45.029      -18.754       36.490       36.457       26.620     1331.506     1329.100      708.631        0.925        0.168      121.605       16.772        0.019      333.871        3.469      862.036
01/17/2022  20:53:00      -79.072       36.040      -18.290       47.501       42.273       28.597     2256.341     1786.997      817.798        0.637        0.243       86.898        9.737        0.013      333.919        3.551      862.032
01/17/2022  20:54:00      -65.864        0.803      -13.489       52.012       36.522       23.397     2705.200     1333.827      547.408        0.455        0.229       65.869       21.398        0.106      333.849        3.434      862.024
01/17/2022  20:55:00       -0.547       10.408        3.464       37.114       20.709       23.418     1377.475      428.849      548.404        0.124        0.118       10.422       20.879        4.013      333.706        3.197      862.011
01/17/2022  20:56:00      -94.431       33.121       -6.052       45.178       28.751       26.375     2041.030      826.615      695.631        0.681        0.178      100.071       19.898        0.040      333.660        3.123      861.983
01/17/2022  20:57:00     -119.286       63.051       -8.547       43.977       37.091       27.121     1934.004     1375.706      735.522        1.116        0.202      134.924       17.678        0.017      333.694        3.177      861.980
01/17/2022  20:58:00     -117.184       58.273      -17.926       22.898       31.359       16.754      524.311      983.389      280.692        0.962        0.089      130.873        7.793        0.004      333.835        3.410      861.970
01/17/2022  20:59:00     -100.399       26.931      -14.850       24.546       29.558       20.373      602.495      873.669      415.063        0.646        0.095      103.948       17.470        0.028      333.889        3.502      861.959
01/17/2022  21:00:00      -64.722        9.268        0.532       26.606       24.151       15.018      707.884      583.282      225.543        0.290        0.076       65.382       13.523        0.043      333.822        3.389      861.954
01/17/2022  21:01:00      -77.434       24.428       -7.255       31.712       22.429       18.034     1005.635      503.082      325.216        0.424        0.092       81.195       16.555        0.042      333.769        3.302      861.968
01/17/2022  21:02:00      -88.254       15.993        6.268       34.580       26.282       21.453     1195.751      690.741      460.248        0.521        0.117       89.691       16.465        0.034      333.746        3.264      861.985
01/17/2022  21:03:00      -93.436        1.422       -0.020       35.248       25.361       21.286     1242.434      643.168      453.081        0.554        0.117       93.446       19.138        0.042      333.927        3.563      861.988
01/17/2022  21:04:00      -77.000      -16.575       -2.776       38.982       30.771       22.875     1519.589      946.861      523.253        0.460        0.149       78.764       15.880        0.041      334.129        3.898      861.981
01/17/2022  21:05:00      -56.278       -9.728      -11.576       32.824       19.200       17.236     1077.424      368.640      297.093        0.257        0.087       57.113       18.572        0.106      334.158        3.947      861.977
01/17/2022  21:06:00      -54.638       13.160       -7.348       13.634        9.927        8.009      185.878       98.537       64.139        0.178        0.017       56.201        5.720        0.010      334.388        4.327      861.974
01/17/2022  21:07:00      -14.477        8.032       -4.242        9.382       12.437        6.205       88.024      154.683       38.498        0.029        0.014       16.555        3.685        0.050      334.277        4.142      861.979
01/17/2022  21:08:00       -9.949       26.827       -4.763       12.147        8.850        5.123      147.561       78.326       26.245        0.055        0.013       28.612        4.459        0.024      334.257        4.108      862.008
01/17/2022  21:09:00      -26.464       21.632       -7.546       11.632        8.662        5.533      135.309       75.032       30.611        0.073        0.012       34.180        3.977        0.014      334.178        3.979      862.019
01/17/2022  21:10:00      -34.201        8.915       -6.438       14.517        9.386       12.848      210.736       88.105      165.062        0.088        0.023       35.343        8.339        0.056      333.914        3.543      862.020
01/17/2022  21:11:00      -28.799        6.395      -11.968       14.787       11.807       12.155      218.652      139.413      147.755        0.076        0.025       29.500        8.124        0.076      333.772        3.305      862.021
01/17/2022  21:12:00      -27.865        7.946      -10.200       11.010        9.912        9.594      121.216       98.241       92.040        0.063        0.016       28.976        7.596        0.069      333.915        3.544      862.015
01/17/2022  21:13:00      -22.110       -9.629       -4.228       17.152       18.163       13.429      294.178      329.889      180.326        0.070        0.040       24.116       12.685        0.277      334.009        3.699      862.014
01/17/2022  21:14:00      -49.913       21.141      -10.107       30.315       16.239       17.293      919.026      263.702      299.040        0.226        0.074       54.205       10.664        0.039      333.819        3.384      862.031
01/17/2022  21:15:00      -22.710       21.347       -0.191       22.634       20.686       11.482      512.317      427.913      131.844        0.102        0.054       31.168       11.480        0.136      333.725        3.229      862.044
01/17/2022  21:16:00       -7.400      -20.129       -2.063       14.925       11.684        9.527      222.750      136.508       90.758        0.046        0.023       21.446        3.520        0.027      333.885        3.494      862.061
01/17/2022  21:17:00      -32.756        5.145      -12.319       26.746       13.559       10.724      715.352      183.835      114.999        0.113        0.051       33.157        6.221        0.035      333.935        3.577      862.079
01/17/2022  21:18:00      -19.432        6.915       -6.468       14.250       19.185       11.076      203.065      368.049      122.688        0.058        0.035       20.625        8.637        0.175      333.851        3.437      862.105
01/17/2022  21:19:00        5.821        7.418       -6.773        7.801        8.244        7.440       60.856       67.963       55.358        0.016        0.009        9.429        6.191        0.431      333.976        3.645      862.119
01/17/2022  21:20:00        1.805       13.238       -5.437        9.500        9.526        7.760       90.250       90.747       60.222        0.022        0.012       13.360        3.799        0.081      334.206        4.027      862.120
01/17/2022  21:21:00      -15.369        3.211      -12.828       11.146        8.213       10.564      124.244       67.452      111.600        0.036        0.015       15.700        4.170        0.071      334.265        4.122      862.144
01/17/2022  21:22:00      -16.758       -5.826      -13.152       14.772        8.933        9.766      218.209       79.794       95.367        0.044        0.020       17.742        7.982        0.202      333.896        3.511      862.148
01/17/2022  21:23:00        5.869       -1.747      -11.897        8.683        8.623        7.308       75.399       74.350       53.406        0.019        0.010        6.124        5.876        0.921      333.860        3.451      862.146
01/17/2022  21:24:00       35.163       21.290       -5.368       12.399       15.781        7.509      153.731      249.029       56.391        0.109        0.023       41.106        3.698        0.008      333.972        3.638      862.128
01/17/2022  21:25:00       20.772       27.664       -2.359       11.216        8.983        8.655      125.800       80.703       74.909        0.074        0.014       34.594        5.522        0.025      334.337        4.242      862.132
01/17/2022  21:26:00       24.290        4.568       -8.412       17.027        7.066        6.446      289.917       49.934       41.546        0.053        0.019       24.716        4.807        0.038      334.566        4.622      862.124
01/17/2022  21:27:00      -37.069       41.913       -8.586       20.661       15.959        7.696      426.897      254.684       59.230        0.197        0.037       55.954        3.182        0.003      334.016        3.711      862.123
01/17/2022  21:28:00      -13.635      -14.831       -8.661       15.902       34.063       11.769      252.881     1160.313      138.514        0.102        0.078       20.146       14.185        0.496      333.910        3.536      862.108
01/17/2022  21:29:00      -37.877      -34.220      -23.012       16.221       24.426       13.032      263.122      596.608      169.825        0.208        0.051       51.046       12.533        0.060      334.099        3.849      862.090
01/17/2022  21:30:00      -45.096       15.017       -6.014       45.794       37.404       26.756     2097.106     1399.088      715.904        0.325        0.211       47.531       20.100        0.179      334.070        3.799      862.118
01/17/2022  21:31:00     -118.157      -24.038       -7.774       62.830       38.598       28.447     3947.654     1489.779      809.212        1.042        0.312      120.577       22.934        0.036      334.350        4.263      862.147
01/17/2022  21:32:00     -110.356        1.520       -5.342       59.591       34.162       26.757     3551.062     1167.042      715.963        0.882        0.272      110.367       23.413        0.045      334.285        4.156      862.165
01/17/2022  21:33:00      -27.809       -0.961       -4.053       30.449       25.569       16.396      927.131      653.792      268.843        0.132        0.092       27.825       11.019        0.157      334.177        3.977      862.141
01/17/2022  21:34:00       13.275       20.541       -8.160       19.281       16.196        9.521      371.740      262.302       90.649        0.069        0.036       24.458        5.492        0.050      334.102        3.853      862.111
01/17/2022  21:35:00       -2.910        6.454       -5.886        7.466        9.031        5.744       55.747       81.551       32.998        0.013        0.009        7.080        3.744        0.280      334.148        3.929      862.097
01/17/2022  21:36:00       20.080      -28.306      -13.598       21.089       32.744       17.198      444.750     1072.142      295.759        0.160        0.091       34.705        7.628        0.048      334.296        4.173      862.088
01/17/2022  21:37:00       23.566       24.376       -6.078       42.738       23.792       11.163     1826.506      566.071      124.609        0.185        0.126       33.905        5.937        0.031      334.006        3.693      862.095
01/17/2022  21:38:00       17.848       10.718      -10.085       15.504        8.264        7.749      240.365       68.291       60.044        0.045        0.018       20.819        7.220        0.120      333.873        3.474      862.101
01/17/2022  21:39:00        0.939      -29.281      -12.787       13.171       19.003       11.304      173.463      361.107      127.782        0.084        0.033       29.296       10.211        0.121      334.064        3.789      862.104
01/17/2022  21:40:00      -44.271       16.319      -19.946       29.935       25.670       12.473      896.100      658.951      155.575        0.217        0.086       47.183        6.194        0.017      334.080        3.816      862.105
01/17/2022  21:41:00      -88.441       35.091        0.457       56.277       30.403       22.884     3167.118      924.319      523.696        0.683        0.231       95.148       19.260        0.041      333.747        3.265      862.133
01/17/2022  21:42:00        4.280       -4.447       -7.942       31.952       21.113       19.662     1020.943      445.761      386.601        0.098        0.093        6.172       10.586        2.942      333.663        3.125      862.139
01/17/2022  21:43:00      -44.526       -5.008       -6.396       30.142       23.154       13.916      908.516      536.104      193.668        0.184        0.082       44.807       14.582        0.106      333.944        3.593      862.151
01/17/2022  21:44:00        3.599      -20.299       -1.623       11.034       14.972       11.621      121.758      224.155      135.048        0.045        0.024       20.615        6.382        0.096      333.978        3.648      862.163
01/17/2022  21:45:00       -3.865       -0.235      -19.805       12.340       16.707       11.096      152.269      279.127      123.119        0.048        0.028        3.872       11.782        9.258      333.981        3.653      862.174
01/17/2022  21:46:00       -4.948       14.843       -6.966        8.288        7.454        5.690       68.686       55.563       32.374        0.022        0.008       15.646        4.329        0.077      333.921        3.554      862.181
01/17/2022  21:47:00      -24.048        3.707       -2.752        9.145        9.448        5.096       83.623       89.268       25.973        0.040        0.010       24.332        2.404        0.010      334.019        3.715      862.191
01/17/2022  21:48:00       -6.321       -3.943       -5.809       10.994        6.997        7.985      120.875       48.954       63.754        0.016        0.012        7.449        2.188        0.086      333.982        3.656      862.191
01/17/2022  21:49:00       42.493       20.891      -13.209       22.123       13.564        8.925      489.443      183.974       79.664        0.158        0.038       47.350        8.345        0.031      333.950        3.601      862.195
01/17/2022  21:50:00       37.240       -6.109      -23.791       18.784       33.397       14.242      352.846     1115.389      202.846        0.183        0.084       37.737       13.692        0.132      333.992        3.671      862.197
01/17/2022  21:51:00       55.454       24.531      -11.025       29.012       22.381       13.626      841.682      500.911      185.659        0.266        0.076       60.638        5.994        0.010      333.683        3.159      862.210
01/17/2022  21:52:00       43.981       33.195      -12.120       14.524       12.130        8.347      210.957      147.143       69.665        0.181        0.021       55.102        2.833        0.003      333.414        2.714      862.222
01/17/2022  21:53:00       17.865       39.468      -15.113       17.443       13.564        9.644      304.242      183.974       93.009        0.134        0.029       43.323        3.797        0.008      333.531        2.908      862.236
01/17/2022  21:54:00       13.763       34.866      -12.142       10.524       10.628       11.918      110.745      112.960      142.049        0.096        0.018       37.484       10.229        0.074      333.732        3.239      862.234
01/17/2022  21:55:00       10.166       17.446       -2.597       11.740       11.370        6.391      137.823      129.286       40.845        0.036        0.015       20.192        5.791        0.082      333.724        3.226      862.224
01/17/2022  21:56:00       26.636       19.177       -5.201        8.521        6.460        5.621       72.614       41.734       31.594        0.063        0.007       32.822        3.144        0.009      333.740        3.254      862.208
01/17/2022  21:57:00       11.794       -3.883       -5.969       10.187       13.795        4.837      103.783      190.303       23.399        0.025        0.016       12.416        4.831        0.151      333.641        3.091      862.188
01/17/2022  21:58:00        5.902        7.079       -8.936        4.196       23.399        5.640       17.608      547.512       31.812        0.038        0.030        9.216        7.357        0.637      333.661        3.124      862.178
01/17/2022  21:59:00       -9.975        7.888       -5.984       13.548       12.421        8.385      183.544      154.294       70.312        0.030        0.020       12.717        8.516        0.448      333.610        3.037      862.165
01/17/2022  22:00:00      -53.248       19.320      -13.512       17.758       11.542        9.921      315.334      133.220       98.426        0.197        0.027       56.645        2.252        0.002      333.699        3.185      862.167
01/17/2022  22:01:00      -83.191       24.238      -13.419       17.108       16.540       16.987      292.678      273.556      288.559        0.427        0.043       86.650       12.286        0.020      333.427        2.736      862.179
01/17/2022  22:02:00      -72.914        9.830       -0.132       34.949       23.584       16.148     1221.449      556.192      260.764        0.373        0.102       73.573       16.659        0.051      333.345        2.602      862.192
01/17/2022  22:03:00      -25.811       25.801        4.470       20.559       23.671       13.633      422.682      560.304      185.870        0.126        0.058       36.496       11.068        0.092      333.317        2.553      862.188
01/17/2022  22:04:00      -25.691       46.624       -0.570       15.686       13.854        9.891      246.057      191.927       97.841        0.168        0.027       53.234        4.242        0.006      333.716        3.215      862.183
01/17/2022  22:05:00      -27.519       10.402       -3.517       18.752       19.082       11.597      351.645      364.120      134.481        0.086        0.043       29.419       10.621        0.130      333.558        2.953      862.197
01/17/2022  22:06:00      -23.414        4.533      -11.688       36.706       34.518       21.658     1347.312     1191.524      469.063        0.186        0.150       23.849        9.437        0.157      333.102        2.199      862.222
01/17/2022  22:07:00      -75.632       20.903        0.383       38.762       33.184       27.116     1502.482     1101.172      735.296        0.475        0.167       78.467       20.168        0.066      333.070        2.146      862.234
01/17/2022  22:08:00     -115.341       44.694       -5.858       35.971       30.801       25.142     1293.910      948.730      632.108        0.910        0.144      123.698       22.584        0.033      333.177        2.323      862.228
01/17/2022  22:09:00     -116.691       37.324      -12.261       33.525       20.855       17.863     1123.936      434.945      319.097        0.852        0.094      122.515       20.769        0.029      333.116        2.221      862.230
01/17/2022  22:10:00     -111.664       51.080      -12.544       34.447       27.118       20.615     1186.626      735.377      424.990        0.879        0.117      122.792       16.650        0.018      333.156        2.287      862.227
01/17/2022  22:11:00     -126.624       47.686      -12.646       49.432       38.371       27.763     2443.494     1472.347      770.783        1.158        0.234      135.305       20.704        0.023      333.171        2.312      862.240
01/17/2022  22:12:00     -159.253       62.384       -6.527       58.678       46.712       33.830     3443.149     2182.018     1144.445        1.803        0.338      171.036       31.933        0.035      333.132        2.246      862.259
01/17/2022  22:13:00     -126.661       73.195      -16.200       58.220       37.638       29.732     3389.542     1416.642      883.972        1.368        0.285      146.289       22.884        0.024      333.158        2.289      862.268
01/17/2022  22:14:00      -80.645       49.582      -11.837       50.092       37.779       23.115     2509.236     1427.218      534.324        0.679        0.224       94.668       19.927        0.044      333.313        2.546      862.275
01/17/2022  22:15:00      -48.890       21.183      -16.863       55.543       35.519       24.421     3085.009     1261.616      596.404        0.403        0.247       53.282       28.107        0.278      333.246        2.435      862.283
01/17/2022  22:16:00      -86.331       26.660      -17.853       23.009       27.819       18.485      529.408      773.903      341.689        0.506        0.082       90.354        8.005        0.008      333.211        2.377      862.281
01/17/2022  22:17:00     -122.068       33.224      -21.701       43.112       36.935       21.093     1858.663     1364.175      444.924        1.007        0.183      126.509       10.819        0.007      333.217        2.388      862.277
01/17/2022  22:18:00      -43.698        9.531       -8.388       69.345       31.345       31.834     4808.791      982.496     1013.377        0.444        0.340       44.726       39.711        0.788      333.198        2.357      862.268
01/17/2022  22:19:00      -60.203       10.493      -14.058       30.546       25.011       20.842      933.053      625.542      434.384        0.296        0.100       61.111       19.152        0.098      333.185        2.335      862.260
01/17/2022  22:20:00      -93.986       14.304       -9.080       53.254       29.786       23.114     2835.983      887.225      534.257        0.669        0.213       95.069       21.058        0.049      333.112        2.215      862.259
01/17/2022  22:21:00     -103.360       28.106       -7.534       43.031       33.858       20.009     1851.706     1146.358      400.343        0.746        0.170      107.113       18.729        0.031      333.039        2.094      862.265
01/17/2022  22:22:00      -62.824       54.786       -5.467       36.833       29.530       21.159     1356.669      872.016      447.715        0.483        0.134       83.357       20.697        0.062      332.992        2.017      862.246
01/17/2022  22:23:00      -82.270       48.162      -14.173       24.454       25.587       14.713      597.979      654.693      216.473        0.538        0.073       95.330       12.568        0.017      333.232        2.414      862.227
01/17/2022  22:24:00      -58.376       10.222      -16.607       44.506       33.733       25.217     1980.787     1137.896      635.899        0.377        0.188       59.265       12.371        0.044      333.252        2.445      862.217
01/17/2022  22:25:00      -61.371       -4.887       -2.877       40.246       27.706       21.340     1619.760      767.638      455.402        0.332        0.142       61.566       18.584        0.091      333.145        2.268      862.227
01/17/2022  22:26:00      -88.486       32.776       -8.991       27.459       14.949       12.472      753.980      223.460      155.545        0.506        0.057       94.361       10.792        0.013      333.085        2.169      862.228
01/17/2022  22:27:00      -33.930       26.849       -1.320       18.292       28.666       10.169      334.585      821.721      103.416        0.157        0.063       43.268        6.953        0.026      333.118        2.224      862.219
01/17/2022  22:28:00      -32.038       59.409        1.045       10.639       10.323        6.808      113.181      106.569       46.349        0.241        0.013       67.497        4.640        0.005      333.305        2.533      862.212
01/17/2022  22:29:00      -23.387       24.024       -6.643       12.398       18.624        8.716      153.701      346.836       75.977        0.087        0.029       33.527        9.707        0.084      333.353        2.614      862.215
01/17/2022  22:30:00       -8.999       12.052       -4.163        8.727        6.860        5.619       76.153       47.053       31.569        0.020        0.008       15.041        5.664        0.142      333.407        2.703      862.227
01/17/2022  22:31:00        6.473        6.324       -3.661        7.495        4.747        3.339       56.180       22.538       11.150        0.009        0.004        9.050        2.675        0.087      333.542        2.927      862.221
01/17/2022  22:32:00       23.907       17.566       -6.830       10.734        8.708        5.102      115.218       75.828       26.035        0.057        0.011       29.666        3.645        0.015      333.497        2.854      862.223
01/17/2022  22:33:00        4.063        8.490       -6.223        5.579        5.807        4.372       31.128       33.717       19.115        0.011        0.004        9.412        2.477        0.069      333.521        2.891      862.216
01/17/2022  22:34:00       -2.759      -13.105       -8.035        6.824        8.363        7.300       46.561       69.934       53.284        0.021        0.008       13.392        4.079        0.093      333.469        2.804      862.209
01/17/2022  22:35:00        9.107        0.887       -6.195       12.892       15.583        8.898      166.204      242.822       79.182        0.031        0.024        9.150        9.013        0.970      333.654        3.112      862.203
01/17/2022  22:36:00       -1.287        8.706      -11.325       10.054        8.784        9.122      101.084       77.150       83.205        0.023        0.013        8.801        8.426        0.917      333.708        3.201      862.196
01/17/2022  22:37:00      -31.035       20.459       -8.310        9.355        8.765        8.301       87.522       76.831       68.906        0.084        0.012       37.172        7.200        0.038      333.429        2.738      862.193
01/17/2022  22:38:00      -46.848       24.440      -15.017        8.967       10.395        6.272       80.410      108.062       39.343        0.162        0.011       52.840        3.601        0.005      333.119        2.226      862.196
01/17/2022  22:39:00      -72.036       26.135      -20.066       19.106        9.136        8.154      365.029       83.462       66.490        0.339        0.026       76.630        7.360        0.009      333.274        2.485      862.198
01/17/2022  22:40:00      -31.673       22.167      -15.869       12.786        9.818        9.123      163.473       96.396       83.228        0.104        0.017       38.659        6.776        0.031      333.638        3.084      862.189
01/17/2022  22:41:00      -21.838       25.383      -11.470       14.198       11.677       11.601      201.579      136.342      134.591        0.086        0.024       33.484       11.490        0.118      333.737        3.249      862.180
01/17/2022  22:42:00      -60.711       24.477      -14.205       16.883        9.837        9.141      285.029       96.775       83.554        0.248        0.023       65.460        5.842        0.008      333.175        2.318      862.174
01/17/2022  22:43:00      -44.598       20.506      -14.164        7.386       10.085        7.008       54.560      101.712       49.113        0.141        0.010       49.086        3.367        0.005      333.132        2.247      862.182
01/17/2022  22:44:00      -38.085       16.922      -15.317        9.616        6.103        5.760       92.471       37.250       33.182        0.107        0.008       41.676        3.989        0.009      333.231        2.411      862.189
01/17/2022  22:45:00      -48.443       -9.522      -12.857       18.717       25.093       12.286      350.328      629.645      150.954        0.187        0.057       49.370       10.128        0.042      332.964        1.970      862.208
01/17/2022  22:46:00      -32.236       -0.948      -11.936       18.097       15.980       13.524      327.492      255.373      182.898        0.097        0.038       32.250       12.131        0.142      332.785        1.675      862.225
01/17/2022  22:47:00      -18.800        7.007      -13.472       13.036        7.707       11.442      169.946       59.397      130.925        0.047        0.018       20.063        8.954        0.199      333.111        2.213      862.230
01/17/2022  22:48:00       13.186      -13.073      -13.989        9.793       10.560        8.199       95.909      111.510       67.226        0.041        0.014       18.568        6.463        0.121      333.832        3.407      862.229
01/17/2022  22:49:00      -29.431       -1.543      -13.609       18.494        9.332       11.385      342.011       87.088      129.628        0.081        0.028       29.472        8.883        0.091      333.334        2.582      862.243
01/17/2022  22:50:00      -67.313       25.299      -21.861       15.631       14.740       10.991      244.330      217.263      120.806        0.312        0.029       71.910        5.966        0.007      332.996        2.023      862.264
01/17/2022  22:51:00      -86.497       33.179      -22.136       10.141       12.069        7.754      102.843      145.665       60.125        0.469        0.015       92.642        4.938        0.003      332.952        1.951      862.283
01/17/2022  22:52:00      -84.653       13.880      -15.525       18.323       14.113       12.609      335.736      199.188      158.991        0.415        0.035       85.784        9.605        0.013      332.913        1.886      862.307
01/17/2022  22:53:00      -76.130       33.231      -12.148       12.281       14.999       10.913      150.824      224.972      119.083        0.377        0.025       83.066        3.694        0.002      333.049        2.110      862.334
01/17/2022  22:54:00      -57.608       21.842      -15.491       10.297        9.629        7.798      106.032       92.723       60.806        0.215        0.013       61.610        5.475        0.008      333.029        2.078      862.343
01/17/2022  22:55:00      -54.014        8.426      -16.289       19.318       12.543       10.338      373.168      157.338      106.873        0.195        0.032       54.668        6.941        0.016      333.087        2.175      862.359
01/17/2022  22:56:00      -78.422       26.286      -22.599       12.980        8.767       11.576      168.490       76.852      134.002        0.387        0.019       82.710        6.949        0.007      333.010        2.047      862.367
01/17/2022  22:57:00      -64.766       24.503      -14.981       19.148       17.856       11.857      366.645      318.838      140.589        0.292        0.041       69.246        7.467        0.012      332.998        2.026      862.372
01/17/2022  22:58:00      -50.489       18.143       -8.768       15.142        9.563       11.524      229.267       91.444      132.803        0.170        0.023       53.649        9.167        0.029      333.165        2.303      862.368
01/17/2022  22:59:00      -59.051        6.410      -11.833       15.397       13.920       10.582      237.075      193.767      111.974        0.211        0.027       59.398        7.221        0.015      333.102        2.199      862.369
01/17/2022  23:00:00      -40.886        3.006      -16.556       29.117       22.962       13.185      847.805      527.266      173.845        0.175        0.077       40.996       10.027        0.060      332.930        1.915      862.380
01/17/2022  23:01:00      -10.642       -3.457       -5.337       15.124       15.452       12.638      228.739      238.761      159.711        0.039        0.031       11.190       11.159        0.995      332.850        1.782      862.387
01/17/2022  23:02:00      -19.001        3.938       -3.069       19.943       15.617       10.903      397.739      243.881      118.868        0.057        0.038       19.405        5.678        0.086      332.902        1.869      862.387
01/17/2022  23:03:00      -58.081       22.280      -13.515       16.406       15.435       13.590      269.149      238.247      184.695        0.237        0.035       62.208        7.853        0.016      332.946        1.941      862.378
01/17/2022  23:04:00      -85.504       18.130       -9.234       17.310       13.846       12.517      299.621      191.700      156.680        0.419        0.032       87.405        7.451        0.007      333.122        2.233      862.375
01/17/2022  23:05:00      -56.305        7.502       -5.851       35.316       20.637       13.703     1247.189      425.894      187.774        0.256        0.093       56.802       17.195        0.092      333.121        2.231      862.382
01/17/2022  23:06:00      -39.944        8.508       -2.169       17.260       13.061        9.536      297.920      170.595       90.927        0.112        0.028       40.840        9.267        0.051      333.008        2.043      862.379
01/17/2022  23:07:00      -30.385        5.056      -10.966       19.237       14.144       10.193      370.059      200.064      103.896        0.087        0.034       30.803        5.913        0.037      333.019        2.061      862.384
01/17/2022  23:08:00      -22.140        7.769       -4.926       11.392       11.292        7.424      129.773      127.508       55.121        0.044        0.016       23.463        4.934        0.044      332.955        1.955      862.381
01/17/2022  23:09:00      -28.586       18.058       -8.739        5.827        6.134        5.056       33.957       37.623       25.566        0.066        0.005       33.812        3.037        0.008      332.994        2.018      862.390
01/17/2022  23:10:00      -21.139       16.798       -4.335       14.104        8.022        6.040      198.927       64.346       36.483        0.052        0.015       27.000        7.665        0.081      333.048        2.112      862.390
01/17/2022  23:11:00       31.119       13.873      -11.843       22.001       13.438        9.574      484.043      180.580       91.653        0.103        0.038       34.072        7.608        0.050      333.029        2.077      862.383
01/17/2022  23:12:00       35.084       11.440      -10.253       12.012        9.490        8.338      144.299       90.067       69.526        0.089        0.015       36.903        3.506        0.009      333.054        2.120      862.385
01/17/2022  23:13:00       12.515        9.702        0.002       15.014       10.315        9.406      225.418      106.397       88.473        0.034        0.021       15.835       10.316        0.424      332.935        1.920      862.399
01/17/2022  23:14:00        5.735        5.154       -8.468       10.771       11.438        7.425      116.008      130.829       55.133        0.022        0.015        7.710        5.150        0.446      333.011        2.047      862.400
01/17/2022  23:15:00      -17.506        6.764      -16.368       17.569        9.684        8.019      308.654       93.783       64.312        0.054        0.023       18.768        7.911        0.178      333.053        2.117      862.395
01/17/2022  23:16:00      -58.288       21.222      -17.303       14.815       15.154       10.420      219.495      229.645      108.585        0.235        0.028       62.032        5.577        0.008      332.911        1.883      862.382
01/17/2022  23:17:00      -41.581        0.873       -9.329       26.388       13.516       11.784      696.348      182.695      138.858        0.142        0.051       41.590       11.829        0.081      332.675        1.490      862.357
01/17/2022  23:18:00      -40.365        5.373      -17.761       26.616       10.527       14.565      708.437      110.811      212.151        0.150        0.052       40.721       14.146        0.121      332.670        1.484      862.346
01/17/2022  23:19:00      -33.746       27.696       -8.920       21.336       21.155       15.148      455.231      447.528      229.471        0.156        0.057       43.656       14.915        0.117      332.657        1.463      862.326
01/17/2022  23:20:00      -59.191       59.872      -10.789       15.345       11.253       10.989      235.468      126.630      120.760        0.384        0.024       84.192        6.044        0.005      332.876        1.824      862.326
01/17/2022  23:21:00      -64.149       33.197      -13.220       14.955       15.119        8.821      223.641      228.579       77.816        0.296        0.027       72.230        5.942        0.007      333.006        2.040      862.328
01/17/2022  23:22:00      -89.117       29.974      -10.756       19.042       14.057       15.032      362.583      197.609      225.957        0.487        0.039       94.023        7.728        0.007      332.986        2.006      862.343
01/17/2022  23:23:00      -68.926       19.701      -14.462       21.448       17.515       15.994      460.022      306.781      255.824        0.319        0.051       71.686        8.177        0.013      332.820        1.731      862.353
01/17/2022  23:24:00     -103.739       25.293      -19.961       21.677       17.415       13.298      469.877      303.278      176.847        0.637        0.048      106.778        3.666        0.001      332.749        1.616      862.374
01/17/2022  23:25:00     -122.361       32.830      -21.160       29.194       29.353       19.970      852.284      861.621      398.801        0.930        0.106      126.688       13.629        0.012      332.537        1.263      862.388
01/17/2022  23:26:00     -163.250       50.694      -15.972       20.877       26.661       17.560      435.831      710.833      308.343        1.547        0.073      170.940        4.158        0.001      332.391        1.022      862.398
01/17/2022  23:27:00     -138.640       48.383      -18.172       27.708       27.173       22.636      767.740      738.357      512.403        1.195        0.101      146.840       15.646        0.011      332.418        1.068      862.406
01/17/2022  23:28:00     -125.560       33.077      -13.729       39.228       27.110       18.980     1538.839      734.954      360.249        0.984        0.132      129.844       16.461        0.016      332.462        1.140      862.412
01/17/2022  23:29:00     -103.178       10.830       -6.483       56.310       29.068       24.600     3170.854      844.934      605.168        0.771        0.231      103.744       23.953        0.053      332.507        1.214      862.416
01/17/2022  23:30:00     -125.384       38.015      -12.123       45.454       23.281       21.574     2066.110      542.028      465.426        1.019        0.154      131.020       23.097        0.031      332.484        1.176      862.418
01/17/2022  23:31:00     -111.609       56.050      -12.836       34.845       22.113       22.020     1214.201      488.996      484.859        0.898        0.109      124.892       14.544        0.014      332.388        1.018      862.414
01/17/2022  23:32:00     -105.956       47.771      -12.050       43.175       36.297       23.403     1864.064     1317.456      547.698        0.869        0.186      116.227       25.078        0.047      332.444        1.112      862.412
01/17/2022  23:33:00     -101.645       31.140       -7.601       53.593       39.391       30.140     2872.187     1551.640      908.442        0.834        0.267      106.308       28.390        0.071      332.437        1.099      862.420
01/17/2022  23:34:00     -102.864       15.594      -16.082       59.554       39.974       30.316     3546.711     1597.891      919.058        0.857        0.303      104.039       25.017        0.058      332.422        1.074      862.432
01/17/2022  23:35:00      -73.876       22.020       -3.127       54.271       37.692       24.154     2945.352     1420.666      583.431        0.545        0.247       77.088       19.505        0.064      332.243        0.777      862.441
01/17/2022  23:36:00      -83.095       50.132        2.095       55.119       32.935       28.436     3038.102     1084.715      808.616        0.718        0.247       97.046       21.295        0.048      332.340        0.940      862.428
01/17/2022  23:37:00      -62.380        9.175       -3.883       50.403       38.089       20.793     2540.502     1450.804      432.348        0.421        0.221       63.051       25.162        0.159      332.383        1.009      862.418
01/17/2022  23:38:00      -64.215       -2.809       -3.426       59.298       37.608       30.321     3516.304     1414.361      919.362        0.500        0.293       64.276       34.746        0.292      332.406        1.047      862.418
01/17/2022  23:39:00      -56.229      -11.817      -15.403       51.016       24.019       27.979     2602.674      576.897      782.831        0.375        0.198       57.458       29.386        0.262      332.362        0.974      862.417
01/17/2022  23:40:00     -105.175       34.507      -21.192       13.917       16.854       12.691      193.684      284.045      161.063        0.667        0.032      110.691        7.607        0.005      332.369        0.986      862.412
01/17/2022  23:41:00     -130.170       54.859      -17.463       32.368       30.002       17.888     1047.671      900.091      319.988        1.126        0.113      141.258       13.289        0.009      332.374        0.995      862.410
01/17/2022  23:42:00     -124.591       43.195      -16.339       34.673       25.433       21.328     1202.246      646.848      454.865        0.998        0.115      131.866       18.759        0.020      332.466        1.145      862.403
01/17/2022  23:43:00      -66.930        5.339      -11.818       46.646       32.525       22.517     2175.862     1057.865      507.033        0.419        0.187       67.143       21.157        0.099      332.406        1.047      862.400
01/17/2022  23:44:00        2.337        2.309        1.223       26.980       21.016       17.837      727.935      441.651      318.161        0.075        0.074        3.286       14.594       19.728      332.401        1.039      862.394
01/17/2022  23:45:00       17.602       -7.845       -1.163       21.092       34.073       22.511      444.865     1160.976      506.742        0.124        0.106       19.271       11.363        0.348      332.442        1.107      862.392
01/17/2022  23:46:00      -32.825       10.895       -5.069       57.686       38.251       29.650     3327.628     1463.131      879.121        0.344        0.283       34.586       27.934        0.652      332.341        0.941      862.391
01/17/2022  23:47:00     -108.924       42.758      -13.792       26.431       24.329       21.806      698.582      591.901      475.502        0.782        0.088      117.016       13.800        0.014      332.222        0.744      862.383
01/17/2022  23:48:00     -121.174       59.013      -19.102       38.078       35.373       27.934     1449.907     1251.254      780.310        1.101        0.174      134.780       18.808        0.019      332.225        0.747      862.382
01/17/2022  23:49:00     -152.209       49.872       -9.947       46.517       34.137       24.884     2163.806     1165.350      619.232        1.485        0.197      160.171       24.148        0.023      332.229        0.754      862.381
01/17/2022  23:50:00     -107.195       42.651       -7.515       51.292       45.704       27.321     2630.827     2088.854      746.449        0.942        0.273      115.368       24.422        0.045      332.301        0.874      862.377
01/17/2022  23:51:00     -114.019       47.528       -2.826       60.185       35.054       29.358     3622.221     1228.816      861.866        1.049        0.286      123.528       26.727        0.047      332.332        0.925      862.375
01/17/2022  23:52:00     -117.174       44.456      -30.438       26.906       30.388       21.595      723.919      923.431      466.330        0.937        0.106      125.324       14.761        0.014      332.372        0.991      862.367
01/17/2022  23:53:00      -63.227       16.199      -26.501       67.463       52.031       34.320     4551.268     2707.227     1177.874        0.670        0.422       65.269       38.269        0.344      332.301        0.875      862.365
01/17/2022  23:54:00     -119.607       59.526      -35.504       41.156       41.345       35.345     1693.804     1709.444     1249.258        1.188        0.233      133.601       16.779        0.016      332.228        0.752      862.362
01/17/2022  23:55:00      -82.033       46.682      -24.198       37.279       28.763       24.992     1389.747      827.290      624.579        0.617        0.142       94.386       14.152        0.022      332.357        0.968      862.348
01/17/2022  23:56:00      -60.822       30.318      -26.695       55.236       42.721       29.722     3050.962     1825.096      883.409        0.554        0.288       67.959       26.306        0.150      332.446        1.113      862.330
01/17/2022  23:57:00       23.545       14.061        5.552       28.207       19.705       25.383      795.640      388.273      644.311        0.131        0.091       27.424       13.626        0.247      332.213        0.728      862.316
01/17/2022  23:58:00      -30.191        1.732      -10.480       34.179       25.453       25.586     1168.195      647.845      654.658        0.175        0.124       30.241       20.299        0.451      332.211        0.725      862.308
01/17/2022  23:59:00     -111.264       53.399      -11.347       36.408       28.997       20.692     1325.562      840.819      428.179        0.898        0.130      123.414       20.349        0.027      332.310        0.890      862.300
01/18/2022  00:00:00     -105.661       62.918       -9.185       27.792       30.879       18.246      772.412      953.494      332.926        0.863        0.103      122.976       17.494        0.020      332.369        0.986      862.299
01/18/2022  00:01:00     -113.156       60.267      -10.661       24.569       19.298       18.289      603.651      372.427      334.483        0.893        0.066      128.205       13.495        0.011      332.351        0.957      862.299
01/18/2022  00:02:00      -80.294       46.840      -15.766       41.482       31.268       18.913     1720.787      977.659      357.686        0.597        0.153       92.957       11.365        0.015      332.326        0.914      862.296
01/18/2022  00:03:00     -136.356       82.365      -15.438       39.852       27.243       21.276     1588.174      742.192      452.656        1.420        0.139      159.302       18.207        0.013      332.354        0.961      862.277
01/18/2022  00:04:00     -156.839       56.160      -16.239       59.947       36.778       27.502     3593.604     1352.641      756.379        1.686        0.285      166.591       27.343        0.027      332.335        0.929      862.263
01/18/2022  00:05:00     -143.076       58.689      -29.661       50.069       33.275       29.599     2506.875     1107.230      876.109        1.464        0.225      154.645       27.108        0.031      332.249        0.788      862.260
01/18/2022  00:06:00     -146.743       21.952      -15.952       53.100       37.286       30.104     2819.624     1390.252      906.228        1.369        0.256      148.376       19.960        0.018      332.160        0.640      862.255
01/18/2022  00:07:00     -132.736       35.170      -16.729       52.678       29.464       29.603     2774.984      868.134      876.356        1.183        0.226      137.316       22.893        0.028      332.121        0.578      862.252
01/18/2022  00:08:00     -131.365       49.809      -13.457       33.056       30.326       19.841     1092.679      919.674      393.675        1.116        0.120      140.491       14.238        0.010      332.103        0.547      862.248
01/18/2022  00:09:00     -112.040       57.656      -11.878       41.157       27.090       21.925     1693.870      733.843      480.711        0.946        0.145      126.004       19.628        0.024      332.141        0.609      862.232
01/18/2022  00:10:00     -109.266       66.190      -20.168       31.064       28.971       19.772      965.001      839.294      390.949        0.946        0.110      127.751        8.892        0.005      332.168        0.655      862.225
01/18/2022  00:11:00     -149.936       80.399      -16.120       41.883       42.164       26.268     1754.170     1777.825      690.026        1.671        0.211      170.131       21.493        0.016      332.231        0.760      862.227
01/18/2022  00:12:00     -146.394       70.565      -10.597       47.321       38.827       32.114     2239.289     1507.548     1031.329        1.565        0.239      162.514       28.622        0.031      332.238        0.769      862.224
01/18/2022  00:13:00     -147.957       68.191       -7.706       45.732       34.541       30.641     2091.423     1193.051      938.872        1.541        0.211      162.915       18.617        0.013      332.275        0.832      862.222
01/18/2022  00:14:00     -182.425       57.957      -21.937       25.692       29.720       18.883      660.076      883.258      356.576        1.951        0.095      191.410       10.025        0.003      332.306        0.882      862.224
01/18/2022  00:15:00     -115.150       57.804       -2.768       53.177       41.055       26.639     2827.821     1685.473      709.614        1.091        0.261      128.844       23.152        0.032      332.251        0.791      862.224
01/18/2022  00:16:00     -113.323       28.627      -16.345       49.662       33.275       23.064     2466.274     1107.230      531.945        0.902        0.205      116.882       20.748        0.032      332.335        0.930      862.212
01/18/2022  00:17:00      -10.306        3.832       -6.185       20.390       21.745       19.743      415.745      472.824      389.796        0.072        0.064       10.995        9.418        0.734      332.310        0.890      862.206
01/18/2022  00:18:00      -11.082      -13.287       -9.880       41.112       18.902       16.069     1690.188      357.294      258.208        0.135        0.115       17.302       23.165        1.793      332.361        0.973      862.205
01/18/2022  00:19:00       -9.268        2.083        3.274       44.626       14.952       20.577     1991.502      223.574      423.414        0.137        0.132        9.499       24.085        6.429      332.343        0.943      862.216
01/18/2022  00:20:00      -50.031       -9.116      -15.717       51.477       30.811       23.044     2649.883      949.308      531.023        0.348        0.207       50.854       22.083        0.189      332.242        0.778      862.235
01/18/2022  00:21:00      -61.067       15.407       -7.632       46.122       18.315       15.700     2127.205      335.440      246.480        0.337        0.135       62.981       17.340        0.076      332.284        0.846      862.237
01/18/2022  00:22:00      -80.373        1.104      -11.986       28.790       15.925       14.387      828.847      253.599      206.984        0.395        0.064       80.381        7.418        0.009      332.314        0.896      862.236
01/18/2022  00:23:00      -35.637        7.326       -7.799       28.514       17.695       18.628      813.038      313.104      346.988        0.143        0.074       36.382       16.574        0.208      332.354        0.961      862.247
01/18/2022  00:24:00      -76.145      -15.220       -8.306       35.708       20.466       20.899     1275.073      418.857      436.787        0.411        0.107       77.651       19.082        0.060      332.320        0.904      862.256
01/18/2022  00:25:00      -50.284       -1.434        2.341       48.440       19.537       18.042     2346.413      381.707      325.519        0.279        0.153       50.305       22.345        0.197      332.419        1.068      862.260
01/18/2022  00:26:00      -51.143       -5.742       -5.553       31.747       19.315       15.100     1007.870      373.064      227.996        0.214        0.080       51.464        8.573        0.028      332.558        1.299      862.256
01/18/2022  00:27:00      -47.023       -2.029      -12.854       24.315       17.670       12.855      591.232      312.213      165.262        0.172        0.053       47.066       14.267        0.092      332.567        1.314      862.249
01/18/2022  00:28:00      -13.212        2.261        2.344       17.687       15.255        9.825      312.839      232.722       96.529        0.041        0.032       13.404       11.313        0.712      332.551        1.287      862.257
01/18/2022  00:29:00      -35.450        4.416       -7.683       18.337        8.565       10.295      336.241       73.366      105.988        0.093        0.026       35.724        3.938        0.012      332.706        1.543      862.278
01/18/2022  00:30:00       62.158       30.594      -12.523       28.624       15.061       13.631      819.351      226.819      185.809        0.309        0.062       69.280        7.224        0.011      332.567        1.314      862.301
01/18/2022  00:31:00       49.673       15.494       -9.948       32.777       34.278       22.505     1074.329     1174.966      506.471        0.278        0.138       52.033       19.262        0.137      332.309        0.886      862.321
01/18/2022  00:32:00       26.961       27.719       -8.649       29.257       20.531       17.058      855.980      421.511      290.980        0.157        0.078       38.668       17.370        0.202      332.175        0.666      862.345
01/18/2022  00:33:00       16.134        2.162       -7.319       10.027       11.463        7.408      100.549      131.408       54.885        0.030        0.014       16.278        3.899        0.057      332.299        0.872      862.343
01/18/2022  00:34:00       60.854       28.833      -14.951       19.920       18.890        8.307      396.816      356.838       69.010        0.279        0.041       67.339        8.319        0.015      332.056        0.470      862.336
01/18/2022  00:35:00       53.029       35.916      -16.293        5.155        6.194        6.840       26.578       38.367       46.789        0.224        0.006       64.047        3.907        0.004      332.198        0.704      862.324
01/18/2022  00:36:00       53.356       21.186      -11.280        8.054       10.788        5.265       64.874      116.373       27.718        0.182        0.010       57.408        2.847        0.002      332.288        0.851      862.320
01/18/2022  00:37:00       32.053       22.591       -5.600       14.314       11.570        7.173      204.889      133.854       51.452        0.098        0.020       39.215        7.366        0.035      332.573        1.323      862.316
01/18/2022  00:38:00      -19.655       17.662       -1.598       23.664       11.329        7.510      559.965      128.352       56.399        0.072        0.037       26.425       10.429        0.156      332.443        1.109      862.326
01/18/2022  00:39:00      -28.263       19.957       -9.735       18.942       12.597       11.191      358.813      158.677      125.246        0.097        0.032       34.599       10.742        0.096      332.085        0.517      862.243
01/18/2022  00:40:00       -2.755        5.723       -7.253        7.266        8.738       10.157       52.788       76.354      103.167        0.016        0.012        6.351        6.429        1.025      332.051        0.462      862.220
01/18/2022  00:41:00      -16.109        4.223      -10.653       12.366       10.359       10.137      152.924      107.309      102.767        0.038        0.018       16.654        6.233        0.140      332.190        0.691      862.225
01/18/2022  00:42:00      -65.143       10.848      -12.152       17.500       13.398       10.547      306.245      179.509      111.231        0.255        0.030       66.040        6.183        0.009      332.279        0.837      862.228
01/18/2022  00:43:00      -54.052       20.685      -10.650       12.371        9.815        9.167      153.049       96.332       84.042        0.190        0.017       57.875        6.769        0.014      332.233        0.763      862.222
01/18/2022  00:44:00      -19.114       19.648       -5.765       21.043       12.408        9.500      442.828      153.949       90.250        0.074        0.034       27.412        5.238        0.037      332.296        0.865      862.209
01/18/2022  00:45:00      -30.292       20.937       -8.573       19.043        8.495        8.761      362.624       72.159       76.747        0.097        0.026       36.823        4.559        0.015      332.306        0.881      862.203
01/18/2022  00:46:00      -47.134       23.423      -14.283       17.173       10.363       10.209      294.916      107.385      104.228        0.174        0.025       52.633        6.827        0.017      332.260        0.807      862.199
01/18/2022  00:47:00      -54.159       12.611       -8.601       27.924       20.634       12.379      779.742      425.782      153.235        0.226        0.068       55.608        8.254        0.022      332.207        0.719      862.197
01/18/2022  00:48:00      -61.514       25.318      -12.483       17.536       10.836        7.990      307.522      117.410       63.840        0.253        0.024       66.520        5.565        0.007      332.128        0.588      862.193
01/18/2022  00:49:00      -48.718       29.307      -11.234       12.023        8.665        7.998      144.559       75.074       63.972        0.182        0.014       56.853        6.758        0.014      332.241        0.775      862.178
01/18/2022  00:50:00      -33.464       34.843       -7.654       19.999       15.527       10.353      399.961      241.101      107.189        0.157        0.037       48.310        7.132        0.022      332.240        0.773      862.180
01/18/2022  00:51:00      -75.964       28.327      -10.940       18.607       14.549       12.286      346.239      211.675      150.940        0.370        0.035       81.073        7.292        0.008      332.180        0.675      862.198
01/18/2022  00:52:00      -84.583       24.804      -15.703       12.200       14.089        9.374      148.847      198.490       87.865        0.423        0.022       88.145        2.643        0.001      332.185        0.682      862.212
01/18/2022  00:53:00      -65.530       18.136      -18.934       22.633       20.535       13.903      512.274      421.677      193.299        0.305        0.056       67.993        5.624        0.007      332.113        0.562      862.222
01/18/2022  00:54:00      -81.011       45.811      -11.824       26.135       25.707       13.388      683.018      660.830      179.247        0.516        0.076       93.067        4.256        0.002      331.966        0.322      862.219
01/18/2022  00:55:00      -30.421       39.260       -9.578       17.238       11.583        9.430      297.132      134.162       88.933        0.154        0.026       49.667        8.047        0.026      332.105        0.550      862.207
01/18/2022  00:56:00       -7.240       27.595       -4.472        7.353        8.987        9.634       54.072       80.767       92.816        0.053        0.011       28.529        5.099        0.032      332.318        0.902      862.209
01/18/2022  00:57:00      -14.797       17.166      -13.376       18.586       15.209       14.790      345.451      231.306      218.745        0.074        0.040       22.663       10.469        0.213      332.216        0.734      862.227
01/18/2022  00:58:00      -41.004        0.022      -17.231       19.079       18.330       16.642      364.000      335.979      276.965        0.148        0.049       41.004        5.100        0.015      331.922        0.249      862.250
01/18/2022  00:59:00      -47.178       23.556      -14.940       18.746       15.796       13.535      351.408      249.528      183.205        0.189        0.039       52.732        6.536        0.015      331.960        0.313      862.252
01/18/2022  01:00:00      -56.859       38.650       -9.666       12.351       14.821        9.388      152.553      219.656       88.137        0.264        0.023       68.752        5.771        0.007      332.063        0.483      862.260
01/18/2022  01:01:00      -78.433       22.677      -11.155       18.923       11.055       12.255      358.069      122.205      150.186        0.371        0.032       81.645        5.634        0.005      331.990        0.361      862.269
01/18/2022  01:02:00      -48.226       37.824       -9.837       33.248       12.128        8.703     1105.448      147.093       75.736        0.259        0.066       61.290        8.330        0.018      331.997        0.374      862.275
01/18/2022  01:03:00      -18.850       43.918      -13.366       15.951        7.999       12.260      254.424       63.985      150.314        0.147        0.023       47.792       10.862        0.052      332.195        0.699      862.277
01/18/2022  01:04:00        5.850       35.768       -3.542       18.119       15.273       12.822      328.299      233.250      164.411        0.103        0.036       36.244       10.748        0.088      332.501        1.205      862.279
01/18/2022  01:05:00       48.527       43.020       -6.118       16.326       10.959        9.005      266.535      120.109       81.098        0.236        0.023       64.850        6.829        0.011      332.571        1.319      862.284
01/18/2022  01:06:00       49.163       51.958       -8.944       19.642       15.754       11.646      385.802      248.203      135.618        0.298        0.038       71.531        8.205        0.013      332.613        1.390      862.292
01/18/2022  01:07:00       61.830       56.645      -10.936       14.071       13.192        9.781      197.996      174.041       95.660        0.381        0.023       83.855        7.007        0.007      332.620        1.401      862.302
01/18/2022  01:08:00       70.742       56.074      -11.399       16.103       11.370        8.340      259.305      129.287       69.548        0.437        0.023       90.270        5.683        0.004      332.614        1.391      862.303
01/18/2022  01:09:00       52.980       48.361       -8.019       19.535       11.386        9.000      381.619      129.637       80.998        0.290        0.030       71.733        9.880        0.019      332.519        1.236      862.307
01/18/2022  01:10:00       35.961       48.664       -7.767       14.817       10.978        9.651      219.555      120.507       93.145        0.208        0.022       60.509        8.007        0.018      332.547        1.280      862.313
01/18/2022  01:11:00       19.779       31.573        0.123       17.326       21.154       10.427      300.174      447.484      108.723        0.112        0.043       37.257        5.544        0.022      332.610        1.385      862.329
01/18/2022  01:12:00      -28.505       14.528      -13.242       18.115       11.522        6.907      328.137      132.746       47.704        0.085        0.025       31.994        6.033        0.036      332.215        0.733      862.337
01/18/2022  01:13:00      -42.788       14.332      -17.625        6.011        7.643        6.819       36.133       58.414       46.505        0.124        0.007       45.125        5.392        0.014      332.124        0.582      862.339
01/18/2022  01:14:00      -42.896        6.038      -11.371       10.791        6.160        7.129      116.453       37.944       50.827        0.111        0.010       43.319        4.282        0.010      332.151        0.625      862.340
01/18/2022  01:15:00       12.644       17.207      -12.641       26.366        8.233        8.924      695.168       67.782       79.645        0.073        0.042       21.353        7.608        0.127      332.857        1.794      862.327
01/18/2022  01:16:00       39.479       20.734       -3.047       10.043       10.646        5.763      100.864      113.344       33.211        0.112        0.012       44.593        3.540        0.006      332.680        1.499      862.320
01/18/2022  01:17:00        8.633       -1.960      -11.935        8.843        7.855        6.991       78.198       61.704       48.869        0.020        0.009        8.853        3.083        0.121      332.553        1.291      862.340
01/18/2022  01:18:00       -1.091        2.695       -5.220       13.669        7.716        6.720      186.850       59.534       45.160        0.016        0.015        2.908        6.814        5.491      332.735        1.592      862.376
01/18/2022  01:19:00      -15.530       18.856       -2.434       12.082       14.006       10.867      145.978      196.168      118.101        0.053        0.023       24.428        9.728        0.159      332.628        1.414      862.406
01/18/2022  01:20:00      -36.230       14.396       -6.845       16.347       13.479        9.545      267.234      181.672       91.113        0.105        0.027       38.986        9.673        0.062      332.330        0.922      862.448
01/18/2022  01:21:00      -30.271        3.571       -5.873       16.836       15.937       12.477      283.439      253.995      155.681        0.083        0.035       30.481       10.674        0.123      332.112        0.562      862.487
01/18/2022  01:22:00      -26.957       14.156       -2.408       16.180        7.404        6.503      261.789       54.820       42.287        0.065        0.018       30.448        6.859        0.051      332.179        0.673      862.501
01/18/2022  01:23:00       17.977       32.690        4.971       19.199       18.042        9.559      368.611      325.517       91.375        0.110        0.039       37.307        9.570        0.066      332.507        1.214      862.502
01/18/2022  01:24:00      -12.618       23.328       -1.218       25.825       16.770       10.518      666.944      281.219      110.635        0.088        0.053       26.522       10.406        0.154      332.502        1.207      862.518
01/18/2022  01:25:00      -41.178      -20.904      -15.341       10.661       13.265       13.018      113.665      175.952      169.469        0.141        0.023       46.180        7.327        0.025      331.966        0.322      862.544
01/18/2022  01:26:00      -45.812        1.709      -15.701       18.936       15.599       13.509      358.577      243.315      182.482        0.157        0.039       45.844        4.943        0.012      331.882        0.184      862.570
01/18/2022  01:27:00      -46.645        5.893      -19.017        8.153        7.427        6.962       66.463       55.153       48.470        0.137        0.009       47.016        4.949        0.011      332.122        0.577      862.592
01/18/2022  01:28:00      -23.007        6.776      -18.631       23.153       11.237        9.107      536.062      126.264       82.937        0.083        0.037       23.984        8.056        0.113      332.502        1.207      862.608
01/18/2022  01:29:00      -40.625        0.705       -9.589       13.589       11.333        9.777      184.664      128.447       95.595        0.108        0.020       40.632        4.707        0.013      332.296        0.866      862.636
01/18/2022  01:30:00      -30.356       13.760      -10.122       10.898        8.143        5.866      118.766       66.315       34.408        0.072        0.011       33.329        3.810        0.013      332.355        0.964      862.658
01/18/2022  01:31:00      -34.475       13.632       -2.765       13.540       17.197       12.410      183.325      295.729      154.010        0.101        0.032       37.072        9.401        0.064      332.738        1.597      862.682
01/18/2022  01:32:00      -16.691       29.055       -0.944       28.525       16.003       10.822      813.697      256.101      117.109        0.116        0.059       33.508        9.535        0.081      332.478        1.168      862.707
01/18/2022  01:33:00      -14.707       44.688       -2.744       11.786       13.450        8.684      138.898      180.913       75.409        0.131        0.020       47.046        3.178        0.005      332.436        1.097      862.713
01/18/2022  01:34:00        7.991       66.444        0.698       19.765       19.030       13.509      390.673      362.125      182.488        0.271        0.047       66.923       11.360        0.029      332.437        1.099      862.694
01/18/2022  01:35:00       14.533       66.935        0.955       28.622       26.089       20.620      819.227      680.610      425.171        0.331        0.096       68.495       17.214        0.063      332.361        0.973      862.678
01/18/2022  01:36:00       -1.784       32.901        1.889       29.389       35.981       20.769      863.740     1294.627      431.366        0.184        0.129       32.950       20.358        0.382      332.081        0.512      862.654
01/18/2022  01:37:00       -8.788       13.182      -11.299       25.138       22.544       13.215      631.909      508.242      174.631        0.085        0.066       15.843        7.474        0.223      332.096        0.535      862.612
01/18/2022  01:38:00      -17.682       -9.315       -5.451       13.707       11.701       15.240      187.895      136.919      232.244        0.049        0.028       19.986       11.195        0.314      331.983        0.350      862.570
01/18/2022  01:39:00      -18.859       -3.357       -7.833       11.166       13.816       11.014      124.682      190.884      121.301        0.043        0.022       19.156        3.848        0.040      332.306        0.882      862.538
01/18/2022  01:40:00       -1.608      -12.935      -14.410       12.825       19.061        9.290      164.475      363.305       86.313        0.050        0.031       13.035        6.863        0.277      332.139        0.607      862.511
01/18/2022  01:41:00        7.742        1.787       -7.418       14.418       21.409       10.037      207.874      458.339      100.736        0.044        0.038        7.946        8.888        1.251      332.323        0.908      862.486
01/18/2022  01:42:00       47.148       -0.874       -2.994       27.524       19.192       13.444      757.580      368.348      180.732        0.177        0.065       47.156       15.749        0.112      332.431        1.089      862.475
01/18/2022  01:43:00       59.357        8.207       -7.064       13.688       15.284        9.121      187.358      233.601       83.195        0.207        0.025       59.922        3.206        0.003      332.569        1.317      862.482
01/18/2022  01:44:00       63.837       39.193        4.883       34.632       26.194       14.702     1199.400      686.131      216.153        0.387        0.105       74.908       15.573        0.043      332.596        1.362      862.500
01/18/2022  01:45:00      -20.651      -29.097      -14.330       27.967       28.662       17.430      782.161      821.517      303.817        0.169        0.095       35.680       14.091        0.156      332.233        0.762      862.524
01/18/2022  01:46:00        9.070      -27.000       -1.935       22.181       33.253       19.842      492.016     1105.795      393.694        0.140        0.100       28.482       12.701        0.199      332.446        1.114      862.556
01/18/2022  01:47:00       17.964      -29.040       -2.958       32.190       37.761       20.224     1036.199     1425.910      409.018        0.202        0.144       34.147       15.227        0.199      332.526        1.246      862.577
01/18/2022  01:48:00      -14.615       -1.084      -15.168       20.065       23.681       14.479      402.606      560.774      209.639        0.081        0.059       14.655        4.667        0.101      332.271        0.824      862.576
01/18/2022  01:49:00      -29.176       -2.551       -5.323       17.133       18.740       13.488      293.523      351.173      181.931        0.086        0.041       29.287       12.202        0.174      332.090        0.527      862.574
01/18/2022  01:50:00      -21.083        5.048       -0.877       15.134       10.902       11.728      229.030      118.845      137.541        0.048        0.024       21.679        3.233        0.022      332.176        0.668      862.559
01/18/2022  01:51:00       -8.669       -1.409        0.975       14.145       10.592       10.085      200.069      112.180      101.709        0.025        0.021        8.782        7.562        0.741      332.152        0.627      862.556
01/18/2022  01:52:00      -24.810       14.218       -7.206       13.911       12.055        8.159      193.522      145.316       66.563        0.064        0.020       28.595        4.020        0.020      332.095        0.535      862.586
01/18/2022  01:53:00        7.405       22.571       -1.217       12.145        9.852       13.156      147.512       97.065      173.068        0.049        0.021       23.754        8.063        0.115      332.073        0.496      862.643
01/18/2022  01:54:00       35.548       42.076       -8.599       21.967       14.627       12.193      482.555      213.944      148.662        0.198        0.042       55.082        4.993        0.008      332.171        0.659      862.685
01/18/2022  01:55:00       81.764       31.325       -9.263       13.593       15.643        7.619      184.782      244.698       58.042        0.412        0.024       87.560        6.326        0.005      332.296        0.865      862.705
01/18/2022  01:56:00       31.144       20.567       -6.246       26.953       14.886       10.925      726.483      221.579      119.346        0.125        0.053       37.322        7.696        0.043      332.129        0.590      862.704
01/18/2022  01:57:00      -15.666       34.178       -4.506       21.754       14.765       11.445      473.231      218.013      130.981        0.113        0.041       37.597        7.372        0.038      332.089        0.525      862.692
01/18/2022  01:58:00      -14.222       11.287        6.224       13.943       11.772       11.921      194.398      138.581      142.111        0.042        0.024       18.156        3.976        0.048      331.977        0.339      862.657
01/18/2022  01:59:00        3.673       -6.412       -7.423       18.136       16.131       12.141      328.931      260.220      147.401        0.042        0.037        7.389        8.110        1.204      332.069        0.491      862.613
01/18/2022  02:00:00       75.997       38.869       -7.692       46.118       40.763       18.049     2126.852     1661.591      325.770        0.573        0.206       85.360        8.953        0.011      332.166        0.650      862.606
01/18/2022  02:01:00       80.835       46.503       -7.248       32.479       21.558       20.153     1054.871      464.768      406.143        0.534        0.096       93.257       15.231        0.027      332.178        0.673      862.626
01/18/2022  02:02:00       50.801       39.048        0.831       23.009       16.344       10.872      529.431      267.112      118.193        0.251        0.046       64.074        9.162        0.020      332.093        0.530      862.663
01/18/2022  02:03:00       40.120       48.134       -0.992       22.841       17.015       14.263      521.707      289.516      203.423        0.247        0.051       62.662       13.371        0.046      332.123        0.581      862.696
01/18/2022  02:04:00       45.619       47.395        0.024       20.282       16.635       16.339      411.360      276.728      266.950        0.264        0.048       65.783       12.564        0.036      332.068        0.490      862.718
01/18/2022  02:05:00       50.388       53.185        2.280       22.765       13.651       12.108      518.243      186.351      146.615        0.311        0.043       73.264        7.606        0.011      332.045        0.451      862.712
01/18/2022  02:06:00       69.429       58.025       -6.637       18.203       12.005       11.828      331.350      144.110      139.904        0.442        0.031       90.484       10.688        0.014      332.069        0.491      862.698
01/18/2022  02:07:00       65.255       40.296      -10.712        9.818       11.281        9.628       96.402      127.255       92.699        0.316        0.016       76.694        4.809        0.004      332.081        0.511      862.677
01/18/2022  02:08:00       49.131       40.126       -6.332       15.029        8.571        9.540      225.874       73.455       91.015        0.223        0.020       63.435        8.536        0.018      332.075        0.503      862.664
01/18/2022  02:09:00       54.404       47.058      -12.764       17.780       11.010       10.318      316.141      121.223      106.468        0.294        0.027       71.932        5.289        0.005      332.117        0.570      862.665
01/18/2022  02:10:00       64.988       36.210      -12.445        9.503       12.083        6.955       90.305      146.009       48.366        0.299        0.014       74.395        5.439        0.005      332.107        0.553      862.658
01/18/2022  02:11:00       84.206       27.130      -14.633       22.844       14.479       12.400      521.868      209.654      153.758        0.446        0.044       88.469        8.405        0.009      332.128        0.589      862.640
01/18/2022  02:12:00       29.047      -25.578      -12.107       34.065       43.287       22.438     1160.453     1873.801      503.456        0.259        0.177       38.704       17.089        0.195      332.065        0.485      862.615
01/18/2022  02:13:00        4.680      -22.823      -14.837       20.955       19.112       12.433      439.097      365.281      154.584        0.086        0.048       23.297        8.479        0.132      332.015        0.404      862.600
01/18/2022  02:14:00      -15.356       -3.835        0.975       20.517       11.682       11.695      420.938      136.474      136.783        0.047        0.035       15.827       11.093        0.491      331.811        0.069      862.592
01/18/2022  02:15:00      -22.624       12.144       -3.079       11.634       24.324        9.679      135.349      591.660       93.674        0.074        0.041       25.678        9.945        0.150      331.792        0.036      862.612
01/18/2022  02:16:00      -18.898       45.872       -6.874       14.186        8.545        6.947      201.235       73.020       48.256        0.142        0.016       49.612        6.951        0.020      331.877        0.175      862.638
01/18/2022  02:17:00       -7.970       28.169       -9.675       10.822       10.772        9.296      117.112      116.044       86.417        0.064        0.016       29.275        5.823        0.040      332.084        0.516      862.657
01/18/2022  02:18:00      -12.732       22.487       -3.542       16.299        7.705        8.539      265.647       59.364       72.922        0.054        0.020       25.841        7.436        0.083      332.049        0.457      862.654
01/18/2022  02:19:00      -50.319        8.428      -12.412       13.596        8.569       12.678      184.859       73.429      160.733        0.159        0.021       51.020        6.652        0.017      331.946        0.289      862.645
01/18/2022  02:20:00      -85.264       27.119      -13.142       12.340       12.117        8.875      152.287      146.814       78.769        0.428        0.019       89.473        2.907        0.001      331.771        0.003      862.638
01/18/2022  02:21:00      -81.000       35.382      -10.256       25.292       14.924       14.386      639.679      222.726      206.958        0.449        0.053       88.390       14.759        0.028      331.711       -0.097      862.647
01/18/2022  02:22:00      -92.275       38.575       -7.246       33.730       18.033       19.122     1137.688      325.172      365.662        0.594        0.091      100.014       20.962        0.044      331.635       -0.222      862.659
01/18/2022  02:23:00      -57.929       32.341      -16.508       29.633       17.851       16.783      878.125      318.647      281.660        0.308        0.074       66.346       10.537        0.025      331.712       -0.096      862.667
01/18/2022  02:24:00      -56.638       28.273       -9.460       15.607       14.292       11.280      243.587      204.264      127.236        0.234        0.029       63.302        9.261        0.021      331.841        0.117      862.650
01/18/2022  02:25:00      -74.449       26.168      -12.376       11.397        7.342        6.152      129.895       53.908       37.852        0.330        0.011       78.914        6.187        0.006      332.009        0.394      862.634
01/18/2022  02:26:00      -60.065        4.254      -11.660       19.568       18.412       16.699      382.923      339.006      278.847        0.238        0.050       60.215       11.365        0.036      331.811        0.068      862.624
01/18/2022  02:27:00      -72.835       13.385       -9.708       25.006       18.654       12.417      625.290      347.975      154.184        0.335        0.056       74.054        8.067        0.012      331.735       -0.056      862.630
01/18/2022  02:28:00      -88.372       11.399       -5.174       31.359       20.100       14.802      983.367      403.991      219.095        0.479        0.080       89.105        9.101        0.010      331.617       -0.251      862.628
01/18/2022  02:29:00      -81.439       25.510       -3.557       20.960       20.675       13.651      439.323      427.441      186.358        0.417        0.053       85.341       12.051        0.020      331.530       -0.397      862.623
01/18/2022  02:30:00      -77.509       25.470       -5.473       31.343       17.899       13.697      982.410      320.384      187.614        0.409        0.075       81.586        7.816        0.009      331.612       -0.259      862.607
01/18/2022  02:31:00     -109.723       22.256       -5.288       28.842       23.080       18.869      831.867      532.709      356.038        0.714        0.086      111.957       16.017        0.020      331.608       -0.268      862.608
01/18/2022  02:32:00     -109.649       21.629       -0.183       46.333       31.259       24.170     2146.708      977.107      584.183        0.810        0.185      111.762       23.569        0.044      331.611       -0.264      862.630
01/18/2022  02:33:00      -75.550        9.228        1.445       38.379       31.371       21.681     1472.981      984.148      470.047        0.436        0.146       76.112       16.809        0.049      331.531       -0.394      862.652
01/18/2022  02:34:00      -95.098       18.331       -8.562       30.956       22.696       18.600      958.264      515.116      345.942        0.564        0.091       96.848       13.776        0.020      331.466       -0.501      862.663
01/18/2022  02:35:00      -97.792       35.689       -9.417       27.115       17.365       16.187      735.223      301.538      262.023        0.611        0.065      104.100       13.817        0.018      331.450       -0.527      862.655
01/18/2022  02:36:00      -64.706       40.324       -4.579       20.442       14.940       13.081      417.861      223.200      171.102        0.332        0.041       76.243        9.664        0.016      331.394       -0.620      862.638
01/18/2022  02:37:00      -74.864       32.522      -17.004       14.577       11.014        9.997      212.495      121.302       99.934        0.369        0.022       81.623        6.405        0.006      331.506       -0.436      862.615
01/18/2022  02:38:00      -87.480       11.530      -16.619       39.231       27.176       23.209     1539.053      738.530      538.676        0.544        0.141       88.237       16.567        0.035      331.558       -0.349      862.611
01/18/2022  02:39:00     -102.992       12.580      -14.834       47.775       29.240       22.397     2282.477      854.972      501.641        0.731        0.182      103.757       18.793        0.033      331.480       -0.478      862.640
01/18/2022  02:40:00     -100.516       76.720      -16.012       40.439       42.195       22.887     1635.341     1780.456      523.824        1.009        0.197      126.449       20.320        0.026      331.593       -0.293      862.645
01/18/2022  02:41:00      -95.186       35.788      -12.252       31.753       31.965       21.667     1008.251     1021.748      469.459        0.649        0.125      101.692       19.208        0.036      331.628       -0.235      862.628
01/18/2022  02:42:00      -86.120       15.494      -16.465       95.158       41.533       38.923     9055.053     1724.956     1515.022        1.011        0.615       87.502       45.237        0.267      331.585       -0.305      862.611
01/18/2022  02:43:00      -94.948       39.180      -14.074       56.406       22.062       27.713     3181.646      486.728      768.035        0.759        0.222      102.714       32.848        0.102      331.461       -0.510      862.600
01/18/2022  02:44:00      -86.385       43.735      -12.759       39.789       31.732       23.043     1583.164     1006.908      530.996        0.633        0.156       96.826       21.857        0.051      331.569       -0.331      862.590
01/18/2022  02:45:00      -83.186        9.417      -15.440       45.674       47.502       30.428     2086.125     2256.472      925.853        0.626        0.263       83.717       26.084        0.097      331.502       -0.442      862.595
01/18/2022  02:46:00      -76.354       33.273       -7.877       74.237       36.602       32.862     5511.178     1339.705     1079.918        0.746        0.397       83.289       40.571        0.237      331.485       -0.471      862.593
01/18/2022  02:47:00      -88.640       60.126      -11.658       26.551       31.662       21.065      704.974     1002.463      443.721        0.688        0.108      107.109       15.937        0.022      331.644       -0.208      862.559
01/18/2022  02:48:00      -81.529       34.810       -6.488       35.233       30.786       17.892     1241.373      947.793      320.119        0.520        0.125       88.650       16.804        0.036      331.725       -0.074      862.519
01/18/2022  02:49:00      -97.446       44.976      -11.333       38.331       19.641       15.979     1469.231      385.777      255.315        0.688        0.106      107.325       12.981        0.015      331.755       -0.025      862.512
01/18/2022  02:50:00     -101.993       15.596      -13.809       32.688       23.470       18.591     1068.476      550.854      345.631        0.640        0.098      103.178       14.387        0.019      331.590       -0.297      862.524
01/18/2022  02:51:00      -96.028       26.298       -6.720       40.225       26.683       18.410     1618.019      711.997      338.912        0.631        0.133       99.564       20.525        0.042      331.625       -0.239      862.538
01/18/2022  02:52:00      -39.754        5.634        1.044       33.449       23.846       21.638     1118.816      568.623      468.195        0.188        0.108       40.151       17.478        0.189      331.768       -0.004      862.542
01/18/2022  02:53:00      -48.777       -3.678       -3.865       40.146       17.613       20.726     1611.712      310.205      429.548        0.238        0.118       48.916       19.227        0.155      331.586       -0.303      862.551
01/18/2022  02:54:00      -38.104        9.256       -1.277       46.784       29.669       19.124     2188.732      880.220      365.715        0.249        0.172       39.212       20.266        0.267      331.537       -0.384      862.554
01/18/2022  02:55:00      -64.750       21.533        5.336       43.210       27.019       20.516     1867.065      730.040      420.916        0.385        0.151       68.237       20.032        0.086      331.552       -0.359      862.555
01/18/2022  02:56:00      -44.529       -0.319       -5.314       27.358       24.307       16.992      748.448      590.822      288.724        0.182        0.081       44.530       13.664        0.094      331.652       -0.195      862.551
01/18/2022  02:57:00      -65.714       25.356       -8.940       27.707       19.698       14.585      767.685      388.008      212.711        0.320        0.068       70.436        8.222        0.014      331.683       -0.142      862.559
01/18/2022  02:58:00      -38.997       27.700      -12.749       25.060       17.184       15.243      627.982      295.296      232.338        0.180        0.058       47.833       13.348        0.078      331.589       -0.299      862.579
01/18/2022  02:59:00      -42.669       -1.842      -18.171       19.663       14.322       13.058      386.622      205.124      170.503        0.146        0.038       42.709       11.790        0.076      331.548       -0.365      862.597
01/18/2022  03:00:00      -10.801       -3.562      -17.073       11.851       12.658       10.016      140.452      160.218      100.314        0.041        0.020       11.373        7.314        0.414      331.518       -0.416      862.603
01/18/2022  03:01:00      -42.329       14.642       -7.383       28.244       25.386       15.258      797.707      644.447      232.799        0.187        0.084       44.789       11.645        0.068      331.521       -0.410      862.606
01/18/2022  03:02:00      -69.194       15.586      -20.995       25.793       16.890       17.439      665.278      285.271      304.128        0.336        0.063       70.928       15.873        0.050      331.595       -0.288      862.601
01/18/2022  03:03:00      -93.238       19.543      -22.273       19.174       22.367       18.995      367.638      500.288      360.821        0.540        0.061       95.264       10.829        0.013      331.396       -0.615      862.606
01/18/2022  03:04:00      -36.562       -2.307       -7.062       41.395       25.632       17.368     1713.576      657.011      301.635        0.203        0.134       36.634       13.201        0.130      331.461       -0.511      862.601
01/18/2022  03:05:00      -47.692        4.939      -12.940       26.708       16.472       12.129      713.297      271.324      147.111        0.180        0.057       47.947       11.591        0.058      331.698       -0.119      862.579
01/18/2022  03:06:00      -64.925       20.709       -9.016       11.252        9.614        7.409      126.613       92.436       54.888        0.250        0.014       68.148        4.344        0.004      331.907        0.225      862.562
01/18/2022  03:07:00      -57.519       10.722      -17.936       12.941        8.643       15.249      167.470       74.708      232.523        0.211        0.024       58.510       10.202        0.030      331.930        0.263      862.557
01/18/2022  03:08:00      -74.764        4.829      -12.009       29.715       27.261       19.176      883.008      743.137      367.719        0.388        0.100       74.920       17.152        0.052      331.665       -0.174      862.587
01/18/2022  03:09:00      -68.128        7.692        0.921       32.893       25.018       18.675     1081.929      625.898      348.745        0.338        0.103       68.561       13.650        0.040      331.561       -0.345      862.612
01/18/2022  03:10:00      -73.873       29.889       -0.568       33.881       15.344       13.698     1147.932      235.441      187.647        0.396        0.079       79.691       10.538        0.017      331.701       -0.113      862.613
01/18/2022  03:11:00      -41.684       33.879       -6.793       25.184        9.288        8.417      634.219       86.259       70.847        0.186        0.040       53.715        7.085        0.017      331.742       -0.047      862.604
01/18/2022  03:12:00      -93.480       40.844      -17.435       24.930       14.806       10.924      621.508      219.228      119.327        0.584        0.048      102.013        6.630        0.004      331.790        0.034      862.605
01/18/2022  03:13:00     -132.280       34.797      -12.354       32.041       22.543       16.633     1026.648      508.204      276.659        1.034        0.091      136.781       12.802        0.009      331.579       -0.316      862.611
01/18/2022  03:14:00     -136.390       47.631      -11.756       37.410       30.232       25.791     1399.505      913.964      665.152        1.199        0.149      144.468       14.395        0.010      331.524       -0.404      862.608
01/18/2022  03:15:00      -92.145       49.910       -8.833       37.428       23.066       18.229     1400.846      532.028      332.300        0.666        0.113      104.793       12.149        0.013      331.517       -0.418      862.598
01/18/2022  03:16:00      -47.470        1.968       -9.990       24.319       29.537       22.458      591.393      872.443      504.357        0.216        0.098       47.510       16.870        0.126      331.506       -0.436      862.593
01/18/2022  03:17:00      -94.237        0.496      -20.995       41.967       30.412       25.225     1761.241      924.912      636.302        0.632        0.166       94.238       20.084        0.045      331.432       -0.557      862.590
01/18/2022  03:18:00      -87.434       30.578      -14.338       55.795       28.822       23.325     3113.055      830.682      544.042        0.664        0.224       92.626       21.134        0.052      331.445       -0.536      862.556
01/18/2022  03:19:00      -56.931       18.046      -17.773       26.258       20.332       18.538      689.457      413.371      343.666        0.266        0.072       59.723       10.105        0.029      331.563       -0.343      862.505
01/18/2022  03:20:00      -42.079       10.741      -23.785       17.929       13.155       15.558      321.432      173.053      242.059        0.159        0.037       43.428        7.894        0.033      331.861        0.150      862.466
01/18/2022  03:21:00      -44.152       20.660      -21.790       18.659       13.372       14.375      348.176      178.812      206.650        0.179        0.037       48.746       10.340        0.045      331.701       -0.114      862.451
01/18/2022  03:22:00      -21.388       13.457      -22.593       17.440       12.012       10.053      304.166      144.282      101.053        0.085        0.027       25.269        8.697        0.118      331.915        0.239      862.450
01/18/2022  03:23:00        8.295        5.384       -1.663       17.549       17.957       13.535      307.982      322.468      183.203        0.046        0.041        9.890       13.950        1.990      332.123        0.579      862.435
01/18/2022  03:24:00       -3.788       -3.987       -7.512        8.552       18.415        9.789       73.143      339.101       95.832        0.030        0.025        5.499        8.501        2.390      332.075        0.501      862.415
01/18/2022  03:25:00      -12.406       -0.095       -6.542       19.630       16.335       13.105      385.343      266.841      171.728        0.051        0.041       12.406        8.677        0.489      331.922        0.249      862.400
01/18/2022  03:26:00      -31.555      -11.959      -11.439       18.146       14.552       14.584      329.273      211.753      212.694        0.101        0.038       33.745       15.014        0.198      331.607       -0.268      862.390
01/18/2022  03:27:00      -37.794      -11.031      -12.482       12.810       12.273       11.976      164.097      150.618      143.433        0.108        0.023       39.371        4.029        0.010      331.620       -0.247      862.389
01/18/2022  03:28:00      -31.834      -11.741       -4.280       14.274       12.539        9.368      203.757      157.236       87.753        0.081        0.022       33.930        7.826        0.053      331.821        0.083      862.393
01/18/2022  03:29:00        1.157      -11.557      -12.455       19.681       15.787       13.600      387.338      249.242      184.962        0.056        0.041       11.615       11.096        0.913      331.953        0.302      862.412
01/18/2022  03:30:00      -14.794        2.210      -13.366        8.850       10.938        6.315       78.325      119.650       39.875        0.032        0.012       14.959        2.283        0.023      331.921        0.249      862.426
01/18/2022  03:31:00      -12.981      -11.398       -7.150       12.578       17.513       11.308      158.198      306.721      127.874        0.047        0.030       17.275        9.451        0.299      331.858        0.146      862.427
01/18/2022  03:32:00       -3.714        0.682        3.764       11.414       14.514        9.574      130.268      210.664       91.659        0.023        0.022        3.776        4.135        1.199      331.681       -0.146      862.429
01/18/2022  03:33:00      -53.992      -17.980       -6.498       44.885       23.544       21.731     2014.692      554.340      472.254        0.316        0.152       56.907       21.218        0.139      331.608       -0.267      862.441
01/18/2022  03:34:00      -99.873      -11.285       -9.423       32.483       25.128       19.050     1055.154      631.396      362.888        0.612        0.102      100.509       13.529        0.018      331.686       -0.138      862.447
01/18/2022  03:35:00      -60.965        7.224        1.059       27.206       22.058       16.274      740.151      486.556      264.836        0.263        0.075       61.392       12.382        0.041      331.780        0.015      862.445
01/18/2022  03:36:00      -56.279       -1.591       -7.741       20.535       23.067       16.099      421.705      532.092      259.163        0.222        0.061       56.302       12.422        0.049      331.794        0.038      862.453
01/18/2022  03:37:00      -15.446       -4.433       -0.822       23.746       21.072       13.972      563.886      444.017      195.222        0.073        0.060       16.069       12.587        0.614      331.696       -0.123      862.458
01/18/2022  03:38:00      -15.935       -1.821       -8.240       12.167       10.447       11.331      148.030      109.130      128.387        0.036        0.019       16.038        9.311        0.337      331.734       -0.059      862.455
01/18/2022  03:39:00      -26.375        6.982       -4.906       18.099       11.809        9.840      327.575      139.457       96.820        0.067        0.028       27.283       10.387        0.145      331.767       -0.004      862.459
01/18/2022  03:40:00      -17.770       -1.797       -2.642       16.366       12.623       10.893      267.859      159.336      118.659        0.044        0.027       17.860        7.918        0.197      331.683       -0.143      862.471
01/18/2022  03:41:00      -12.100       -4.486      -10.402        6.844        7.496        7.407       46.841       56.188       54.868        0.022        0.008       12.905        4.733        0.135      331.798        0.047      862.465
01/18/2022  03:42:00        0.389      -49.663      -28.947       24.984       30.127       18.188      624.210      907.649      330.804        0.258        0.093       49.665       19.303        0.151      331.855        0.140      862.437
01/18/2022  03:43:00       34.937      -28.572      -18.254       12.903       28.016       16.676      166.499      784.872      278.076        0.180        0.061       45.133       18.833        0.174      331.645       -0.205      862.406
01/18/2022  03:44:00        6.644        1.671       -5.148        7.681       19.020       10.853       58.993      361.743      117.795        0.031        0.027        6.851        8.005        1.365      331.544       -0.372      862.382
01/18/2022  03:45:00       22.631       16.946       -6.205       13.718       15.125        7.919      188.196      228.761       62.707        0.066        0.024       28.272        4.538        0.026      331.556       -0.353      862.364
01/18/2022  03:46:00       43.898       27.086       -9.555        9.954       11.014        4.858       99.084      121.318       23.605        0.150        0.012       51.582        4.740        0.008      331.382       -0.639      862.364
01/18/2022  03:47:00       57.850       36.302       -5.403        9.035        6.582        7.920       81.630       43.322       62.731        0.244        0.009       68.297        5.986        0.008      331.296       -0.779      862.371
01/18/2022  03:48:00       69.957       29.552      -10.320       16.114       13.630        8.942      259.662      185.779       79.960        0.320        0.026       75.943        3.459        0.002      331.200       -0.937      862.376
01/18/2022  03:49:00       78.399       47.304      -15.563       10.970        7.673        7.884      120.340       58.875       62.156        0.443        0.012       91.565        3.165        0.001      331.294       -0.784      862.366
01/18/2022  03:50:00       54.400       30.552      -13.508        9.218       14.683        5.668       84.978      215.596       32.121        0.220        0.017       62.392        5.954        0.009      331.479       -0.482      862.348
01/18/2022  03:51:00       14.438      -14.039       -8.397       22.618       22.780        9.535      511.571      518.947       90.915        0.080        0.056       20.138        7.558        0.141      331.435       -0.552      862.328
01/18/2022  03:52:00       -6.491       -7.288       -0.876        6.650       11.262        9.834       44.217      126.829       96.717        0.018        0.013        9.760        7.343        0.566      331.471       -0.493      862.311
01/18/2022  03:53:00      -17.218       -0.663      -10.579       12.830       10.173       10.553      164.617      103.487      111.370        0.039        0.019       17.231        8.924        0.268      331.387       -0.632      862.302
01/18/2022  03:54:00      -23.213      -18.296       -1.410       16.766       13.561       10.966      281.085      183.888      120.263        0.073        0.029       29.557        9.098        0.095      331.386       -0.632      862.301
01/18/2022  03:55:00      -39.314      -15.736       -4.333       21.196       13.700       10.437      449.287      187.677      108.936        0.128        0.037       42.347        9.303        0.048      331.463       -0.506      862.302
01/18/2022  03:56:00      -31.186       -4.657       -3.217       19.105       21.268       11.334      364.988      452.327      128.462        0.098        0.047       31.531        7.626        0.058      331.548       -0.367      862.307
01/18/2022  03:57:00      -24.383      -11.107      -14.161       22.971       21.881       13.761      527.652      478.774      189.356        0.106        0.060       26.794       12.418        0.215      331.569       -0.332      862.311
01/18/2022  03:58:00      -22.614       12.031       -7.900       17.272       11.191        8.642      298.320      125.228       74.690        0.061        0.025       25.616        6.745        0.069      331.585       -0.304      862.307
01/18/2022  03:59:00       -6.476       25.290       -6.169       12.681       11.521        7.821      160.807      132.740       61.176        0.054        0.018       26.106        5.282        0.041      331.503       -0.440      862.312
01/18/2022  04:00:00        9.606        5.051       -4.724       17.727        9.359        7.615      314.262       87.599       57.985        0.030        0.023       10.853        8.050        0.550      331.450       -0.528      862.328
01/18/2022  04:01:00       33.827       31.772      -13.279       18.487       15.430        8.002      341.752      238.100       64.027        0.149        0.032       46.409        4.474        0.009      331.384       -0.636      862.326
01/18/2022  04:02:00        3.864       12.843       -8.903       13.784       19.607        4.977      189.991      384.415       24.769        0.043        0.030       13.411        5.160        0.148      331.337       -0.712      862.343
01/18/2022  04:03:00       -5.447       -0.505       -7.304       14.817       14.144       10.473      219.529      200.054      109.678        0.031        0.026        5.470        6.456        1.393      331.393       -0.621      862.353
01/18/2022  04:04:00       -2.725        8.590       -2.258        6.961        9.543        6.400       48.459       91.064       40.961        0.013        0.009        9.012        4.149        0.212      331.232       -0.884      862.358
01/18/2022  04:05:00      -15.746       43.516       -7.522       11.575       11.180        7.782      133.972      124.984       60.563        0.126        0.016       46.277        2.977        0.004      331.327       -0.730      862.391
01/18/2022  04:06:00        5.091       37.526       -4.003       13.722       15.520       12.006      188.305      240.882      144.140        0.101        0.029       37.870        9.766        0.067      331.261       -0.836      862.430
01/18/2022  04:07:00       -2.446       36.969       -6.179       16.269       15.359       13.405      264.679      235.911      179.699        0.105        0.034       37.050        8.900        0.058      331.349       -0.695      862.460
01/18/2022  04:08:00        4.708       55.095       -7.738       19.945       21.882       16.997      397.822      478.804      288.898        0.214        0.058       55.296       10.919        0.039      331.239       -0.873      862.492
01/18/2022  04:09:00       25.430      102.331       -6.669       31.915       35.042       24.368     1018.586     1227.913      593.798        0.700        0.142      105.443       18.725        0.032      331.113       -1.082      862.509
01/18/2022  04:10:00       24.166       71.371        1.110       29.828       38.805       27.842      889.681     1505.840      775.154        0.442        0.159       75.352       19.604        0.068      331.086       -1.126      862.490
01/18/2022  04:11:00       17.837       30.199       -5.014       23.303       21.898       15.012      543.024      479.521      225.366        0.125        0.062       35.073       11.520        0.108      330.947       -1.353      862.463
01/18/2022  04:12:00       -0.129       21.521       -9.833       17.210       16.041       11.379      296.181      257.321      129.486        0.062        0.034       21.522        6.795        0.100      331.038       -1.205      862.459
01/18/2022  04:13:00      -23.022       22.984      -12.601       15.253       12.302       11.195      232.652      151.334      125.334        0.086        0.025       32.531        8.751        0.072      331.119       -1.072      862.448
01/18/2022  04:14:00       -4.958       22.384       -9.944        6.937       12.190       13.459       48.118      148.597      181.148        0.050        0.019       22.926        8.075        0.124      331.241       -0.873      862.438
01/18/2022  04:15:00       -4.651       22.349       -4.524        6.344       10.912        9.852       40.241      119.071       97.066        0.040        0.013       22.828        8.480        0.138      331.213       -0.915      862.431
01/18/2022  04:16:00       -1.701        1.115       -2.834        7.900        6.593        8.585       62.413       43.464       73.707        0.010        0.009        2.034        6.353        9.759      331.189       -0.956      862.433
01/18/2022  04:17:00       22.068       11.138       -7.085       12.883        8.911        5.660      165.967       79.414       32.034        0.047        0.014       24.719        2.678        0.012      331.283       -0.801      862.433
01/18/2022  04:18:00       71.541       30.036       -9.864        9.119       10.334        8.855       83.153      106.782       78.403        0.319        0.013       77.591        5.260        0.005      331.086       -1.126      862.430
01/18/2022  04:19:00       35.391       22.315       -3.083       19.991       10.502        9.500      399.629      110.297       90.254        0.118        0.030       41.839        8.601        0.042      331.023       -1.229      862.447
01/18/2022  04:20:00       42.240       28.816       -6.957        6.762        6.268        4.205       45.728       39.290       17.683        0.138        0.005       51.133        1.647        0.001      331.093       -1.114      862.445
01/18/2022  04:21:00       85.823       28.246      -10.817       12.127        9.442        5.059      147.057       89.147       25.589        0.427        0.013       90.352        4.222        0.002      331.146       -1.029      862.441
01/18/2022  04:22:00       78.554       13.408       -8.226       16.186       10.018        7.587      262.000      100.368       57.562        0.342        0.021       79.690        6.324        0.006      331.055       -1.176      862.438
01/18/2022  04:23:00       59.082       21.853       -9.790        8.501        6.626        4.715       72.274       43.903       22.232        0.210        0.007       62.994        1.074        0.000      331.057       -1.173      862.445
01/18/2022  04:24:00       65.577       27.339      -11.325       13.230        7.505        5.276      175.041       56.320       27.839        0.272        0.013       71.048        1.714        0.001      331.065       -1.159      862.444
01/18/2022  04:25:00       80.744       36.105      -13.004       27.032       21.179       15.855      730.753      448.556      251.390        0.471        0.072       88.449        5.712        0.004      331.072       -1.150      862.431
01/18/2022  04:26:00       65.248       34.255       -9.646       27.814       27.296       14.462      773.621      745.099      209.139        0.363        0.086       73.694       13.398        0.033      331.097       -1.107      862.433
01/18/2022  04:27:00       78.506       34.873      -12.804       20.910       29.078       13.762      437.236      845.549      189.384        0.451        0.074       85.902       10.814        0.016      331.097       -1.108      862.437
01/18/2022  04:28:00       77.809       13.357      -11.495       17.291       15.685       10.207      298.965      246.010      104.190        0.351        0.032       78.947        4.692        0.004      331.127       -1.058      862.429
01/18/2022  04:29:00       60.085       15.499      -12.183       23.859       17.590       16.456      569.262      309.421      270.810        0.257        0.057       62.051        9.416        0.023      331.085       -1.127      862.441
01/18/2022  04:30:00       52.292       30.987       -5.442       29.913       16.568       12.478      894.789      274.502      155.704        0.252        0.066       60.784       12.340        0.041      331.027       -1.224      862.456
01/18/2022  04:31:00       88.089       41.959       -7.650       12.571       12.989        9.260      158.033      168.710       85.747        0.500        0.021       97.572        4.955        0.003      331.120       -1.071      862.470
01/18/2022  04:32:00       76.827       34.655       -7.112       19.966       17.215       10.532      398.649      296.346      110.933        0.398        0.040       84.281        7.711        0.008      331.129       -1.055      862.473
01/18/2022  04:33:00       38.641       16.299       -8.351       23.337       28.847       17.819      544.636      832.140      317.502        0.176        0.085       41.938       13.537        0.104      331.110       -1.088      862.473
01/18/2022  04:34:00       35.421       16.321       -4.986       17.273       22.670       13.165      298.355      513.937      173.328        0.127        0.049       39.001        9.648        0.061      331.213       -0.917      862.485
01/18/2022  04:35:00      -11.745       18.869       -4.332       19.935        9.477        7.783      397.422       89.820       60.573        0.053        0.027       22.226        4.641        0.044      331.091       -1.118      862.499
01/18/2022  04:36:00      -14.422       32.192       -5.890       15.273        9.350        7.547      233.254       87.416       56.956        0.083        0.019       35.275        8.349        0.056      330.988       -1.287      862.513
01/18/2022  04:37:00       33.328       33.530       -7.719       19.531       15.014       10.414      381.454      225.430      108.443        0.150        0.036       47.276        5.646        0.014      331.171       -0.985      862.519
01/18/2022  04:38:00       31.965       40.766       -9.595       16.407       12.346       14.946      269.173      152.433      223.391        0.171        0.032       51.803       10.813        0.044      331.171       -0.985      862.540
01/18/2022  04:39:00        8.324       13.883       -6.405       10.111        9.934        6.663      102.237       98.685       44.399        0.027        0.012       16.187        5.323        0.108      331.177       -0.978      862.555
01/18/2022  04:40:00      -16.316       18.364       -0.789       21.041        6.788        8.026      442.727       46.081       64.424        0.058        0.028       24.566       10.580        0.185      331.142       -1.032      862.576
01/18/2022  04:41:00      -44.085       17.151      -13.216        9.499        7.136        6.771       90.234       50.926       45.850        0.130        0.009       47.303        5.017        0.011      331.093       -1.115      862.587
01/18/2022  04:42:00      -25.710        8.578       -7.768       21.667       13.186        9.940      469.457      173.860       98.804        0.077        0.037       27.103       11.861        0.192      331.108       -1.091      862.598
01/18/2022  04:43:00       -2.641       -2.006      -10.464       10.948       14.247       11.155      119.853      202.975      124.444        0.028        0.022        3.316        8.439        6.476      331.131       -1.050      862.606
01/18/2022  04:44:00      -14.628       10.983       -2.284       24.814       21.323       15.584      615.732      454.659      242.845        0.083        0.066       18.292        7.514        0.169      331.184       -0.965      862.624
01/18/2022  04:45:00      -23.204        0.682       -5.486       32.305       24.616       17.634     1043.584      605.945      310.968        0.126        0.098       23.214       16.755        0.521      331.133       -1.048      862.626
01/18/2022  04:46:00      -19.180       19.487        0.056       14.740       11.766        9.724      217.268      138.444       94.556        0.060        0.023       27.343        8.688        0.101      331.170       -0.986      862.633
01/18/2022  04:47:00      -11.371        3.149       -7.343        9.276        4.875        4.106       86.035       23.769       16.863        0.016        0.006       11.799        2.756        0.055      331.194       -0.946      862.647
01/18/2022  04:48:00      -26.027        8.439       -9.219       15.811        9.008        8.326      249.984       81.141       69.317        0.062        0.020       27.361        4.355        0.025      331.324       -0.734      862.646
01/18/2022  04:49:00      -19.395        5.149       -6.543       17.463       13.611       10.039      304.954      185.249      100.786        0.052        0.030       20.067        6.938        0.120      331.234       -0.880      862.645
01/18/2022  04:50:00      -29.414        8.254      -11.999        9.244       10.504        9.214       85.446      110.343       84.892        0.068        0.014       30.550        4.953        0.026      331.236       -0.879      862.637
01/18/2022  04:51:00      -37.503       12.395       -9.222       15.505       24.201       13.475      240.398      585.694      181.588        0.133        0.050       39.498       10.159        0.066      331.235       -0.881      862.630
01/18/2022  04:52:00       -1.594       -1.474        5.315       16.803       15.720       11.283      282.324      247.107      127.303        0.034        0.033        2.171        9.903       20.806      331.153       -1.016      862.620
01/18/2022  04:53:00       -6.419       12.238       -4.612       18.320       14.629       15.023      335.624      213.996      225.687        0.049        0.039       13.819       11.939        0.746      331.094       -1.112      862.611
01/18/2022  04:54:00      -63.054       15.755      -14.116       29.726       20.960       20.842      883.613      439.302      434.397        0.309        0.088       64.992        9.714        0.022      331.081       -1.133      862.604
01/18/2022  04:55:00      -91.667       27.440       -1.269       33.700       19.043       17.463     1135.665      362.628      304.952        0.548        0.090       95.686       18.284        0.037      330.954       -1.342      862.588
01/18/2022  04:56:00      -79.683       32.872      -10.989       18.389       13.521       13.574      338.140      182.816      184.242        0.413        0.035       86.197       12.070        0.020      331.003       -1.263      862.580
01/18/2022  04:57:00      -62.508       14.007      -13.794       18.885       14.886       12.832      356.641      221.591      164.648        0.252        0.037       64.058        6.519        0.010      331.054       -1.178      862.585
01/18/2022  04:58:00      -60.465       30.419       -7.043       15.236       11.602        8.297      232.123      134.618       68.842        0.253        0.022       67.685        5.138        0.006      331.107       -1.089      862.602
01/18/2022  04:59:00      -60.431       37.857      -13.879       11.904       12.988        7.899      141.704      168.697       62.392        0.283        0.019       71.309        2.068        0.001      331.089       -1.121      862.615
01/18/2022  05:00:00      -47.847       40.464      -14.720       16.644       15.951        9.994      277.010      254.436       99.878        0.239        0.032       62.663        8.573        0.019      331.152       -1.017      862.611
01/18/2022  05:01:00       -3.720       23.422      -10.108       12.049       17.751        6.999      145.177      315.113       48.984        0.059        0.025       23.716        5.260        0.049      331.335       -0.716      862.596
01/18/2022  05:02:00      -14.550        3.882      -10.916       17.765       11.110        8.429      315.612      123.433       71.050        0.043        0.026       15.059        8.139        0.292      331.382       -0.638      862.583
01/18/2022  05:03:00      -23.251       10.153        1.759       32.513       16.120       14.803     1057.101      259.841      219.144        0.109        0.077       25.371       10.719        0.178      331.073       -1.147      862.580
01/18/2022  05:04:00      -78.395       33.943       -7.076       23.053       15.977       10.218      531.448      255.250      104.399        0.412        0.045       85.428        8.725        0.010      331.017       -1.239      862.578
01/18/2022  05:05:00      -42.420       31.519       -4.336       18.041       14.611       12.725      325.463      213.485      161.931        0.176        0.035       52.848       10.919        0.043      330.985       -1.293      862.567
01/18/2022  05:06:00      -41.050       -3.746       -7.849       22.808       23.371       10.976      520.212      546.193      120.478        0.147        0.059       41.220       11.314        0.075      331.281       -0.804      862.571
01/18/2022  05:07:00      -20.298       -5.560       -4.242       28.900       29.652       16.119      835.215      879.266      259.826        0.122        0.099       21.045       13.458        0.409      331.219       -0.906      862.582
01/18/2022  05:08:00      -52.615       -0.010       -2.323       39.225       24.454       18.425     1538.631      597.979      339.492        0.262        0.124       52.615       20.460        0.151      331.131       -1.052      862.589
01/18/2022  05:09:00      -82.360       36.249       -2.514       16.354       19.372       12.027      267.466      375.266      144.647        0.445        0.039       89.985        5.743        0.004      331.053       -1.179      862.594
01/18/2022  05:10:00      -82.421       45.587      -12.431       27.552       18.411       17.532      759.094      338.976      307.361        0.522        0.070       94.189       10.855        0.013      330.915       -1.406      862.590
01/18/2022  05:11:00      -73.499       27.292       -6.149       28.153       21.152       14.305      792.578      447.412      204.634        0.381        0.072       78.402       11.409        0.021      330.918       -1.402      862.597
01/18/2022  05:12:00      -42.633        2.514       -5.826       30.985       19.481       15.824      960.092      379.526      250.396        0.172        0.080       42.708       17.469        0.167      331.035       -1.211      862.601
01/18/2022  05:13:00      -82.189       18.688      -11.583       35.419       19.444       18.610     1254.525      378.058      346.329        0.461        0.099       84.287       20.920        0.062      331.029       -1.220      862.626
01/18/2022  05:14:00     -102.113       35.951       -4.899       35.887       32.006       20.968     1287.887     1024.397      439.660        0.725        0.138      108.257       15.649        0.021      330.845       -1.521      862.645
01/18/2022  05:15:00      -86.557       19.235       -8.221       39.907       30.395       22.741     1592.547      923.853      517.166        0.548        0.152       88.668       16.270        0.034      330.920       -1.399      862.656
01/18/2022  05:16:00      -88.409       67.024      -15.884       35.212       25.869       20.228     1239.910      669.219      409.182        0.744        0.116      110.943       15.247        0.019      330.781       -1.625      862.665
01/18/2022  05:17:00      -96.057       67.610      -12.547       30.906       25.365       19.176      955.159      643.360      367.735        0.796        0.098      117.465       18.454        0.025      330.789       -1.612      862.655
01/18/2022  05:18:00     -116.466       40.630      -12.306       26.884       28.965       17.825      722.748      838.948      317.726        0.862        0.094      123.349       10.857        0.008      330.804       -1.589      862.650
01/18/2022  05:19:00      -90.456       41.957       -6.678       27.213       16.923       15.852      740.553      286.374      251.284        0.563        0.064       99.713       12.373        0.015      330.879       -1.465      862.650
01/18/2022  05:20:00      -95.584       36.179       -9.946       16.587       20.358       13.762      275.117      414.459      189.381        0.571        0.044      102.202       12.656        0.015      330.923       -1.394      862.646
01/18/2022  05:21:00     -103.313       42.621       -8.028       18.611       15.963       16.362      346.384      254.830      267.707        0.671        0.043      111.759       12.349        0.012      330.974       -1.310      862.642
01/18/2022  05:22:00     -102.689       42.084      -13.153       20.214       14.079       12.503      408.611      198.208      156.331        0.663        0.038      110.978        9.244        0.007      330.965       -1.326      862.637
01/18/2022  05:23:00      -89.777       33.295      -10.924       34.607       21.327       13.357     1197.668      454.857      178.401        0.556        0.092       95.752       11.355        0.014      330.952       -1.345      862.642
01/18/2022  05:24:00      -21.148        3.322       -4.108       36.901       20.145       17.776     1361.709      405.826      316.004        0.128        0.104       21.407       14.790        0.477      330.954       -1.342      862.641
01/18/2022  05:25:00     -104.933       28.504       -6.607       35.058       22.598       15.160     1229.049      510.685      229.816        0.692        0.098      108.736        8.343        0.006      330.991       -1.282      862.650
01/18/2022  05:26:00      -56.315       45.926      -11.442       18.766       12.362       11.779      352.179      152.825      138.740        0.303        0.032       72.667       10.287        0.020      330.990       -1.284      862.669
01/18/2022  05:27:00      -57.803       40.121      -14.096       12.793       11.977        7.991      163.667      143.449       63.859        0.276        0.019       70.362        4.252        0.004      331.024       -1.229      862.686
01/18/2022  05:28:00      -67.486       29.786      -22.756       17.097       14.159       13.715      292.301      200.465      188.101        0.332        0.034       73.767        9.889        0.018      331.112       -1.083      862.701
01/18/2022  05:29:00      -71.805        2.741      -20.728       21.458       22.918       11.668      460.443      525.235      136.153        0.336        0.056       71.857        8.332        0.013      331.071       -1.150      862.715
01/18/2022  05:30:00       14.576       18.645       -3.719       17.566       19.715       25.795      308.563      388.679      665.406        0.097        0.068       23.666       10.210        0.186      330.958       -1.337      862.724
01/18/2022  05:31:00      -41.010       20.641      -14.897       44.112       34.349       17.844     1945.908     1179.848      318.410        0.289        0.172       45.912       16.284        0.126      330.868       -1.484      862.735
01/18/2022  05:32:00      -90.693       33.626       -9.044       39.370       35.049       20.677     1549.968     1228.424      427.541        0.632        0.160       96.726       15.825        0.027      330.852       -1.510      862.748
01/18/2022  05:33:00      -30.174       10.773      -13.660       32.097       14.368       10.248     1030.202      206.453      105.024        0.128        0.067       32.039        5.497        0.029      330.891       -1.446      862.750
01/18/2022  05:34:00       -4.633        1.861      -16.863        8.252       12.465        8.655       68.096      155.373       74.913        0.030        0.015        4.993        6.387        1.637      331.096       -1.109      862.739
01/18/2022  05:35:00        0.021        9.987      -12.616       31.511       26.495       21.727      992.912      701.973      472.069        0.121        0.108        9.987       14.260        2.039      330.984       -1.293      862.740
01/18/2022  05:36:00       -6.913      -13.588       -8.941       46.253       26.536       28.812     2139.336      704.152      830.148        0.199        0.184       15.246       26.595        3.043      330.847       -1.517      862.755
01/18/2022  05:37:00        1.790       15.089       -3.857       13.942       19.403       16.510      194.386      376.470      272.565        0.054        0.042       15.195       11.564        0.579      330.771       -1.642      862.769
01/18/2022  05:38:00      -62.542       26.255      -11.952       34.937       25.838       13.559     1220.576      667.627      183.851        0.341        0.104       67.829        9.381        0.019      330.838       -1.532      862.792
01/18/2022  05:39:00      -92.000       33.008      -11.909       25.827       23.340       14.687      667.023      544.748      215.719        0.556        0.071       97.742       11.532        0.014      330.830       -1.545      862.808
01/18/2022  05:40:00      -38.316       -0.472       -5.163       29.565       19.014       16.444      874.072      361.516      270.396        0.150        0.075       38.319        9.045        0.056      330.917       -1.404      862.827
01/18/2022  05:41:00      -22.918       28.846       -2.573       21.703       18.627       14.346      471.013      346.971      205.809        0.119        0.051       36.842       11.473        0.097      330.807       -1.583      862.839
01/18/2022  05:42:00      -49.633       49.066       -4.817       23.213       17.535       15.288      538.821      307.486      233.719        0.299        0.054       69.792       13.707        0.039      330.829       -1.549      862.849
01/18/2022  05:43:00      -61.848       11.891       -8.134       27.544       20.651       13.093      758.693      426.483      171.428        0.269        0.068       62.981        8.853        0.020      330.993       -1.278      862.856
01/18/2022  05:44:00       -9.952       -4.705       -6.937       17.433       13.965        8.313      303.893      195.034       69.098        0.037        0.028       11.008        5.807        0.278      331.005       -1.260      862.855
01/18/2022  05:45:00       -9.560       -1.832       -9.437       13.331        5.282        9.281      177.704       27.900       86.141        0.024        0.015        9.734        9.058        0.866      331.145       -1.028      862.871
01/18/2022  05:46:00      -15.441      -31.762       -8.948       13.676       14.411       11.217      187.039      207.676      125.823        0.092        0.026       35.316        6.565        0.035      331.113       -1.081      862.892
01/18/2022  05:47:00      -32.257      -18.568      -12.215       11.960       13.996       13.771      143.050      195.877      189.628        0.103        0.026       37.219        5.078        0.019      331.134       -1.046      862.910
01/18/2022  05:48:00      -10.249        4.945       -6.272       10.856       13.254        8.956      117.856      175.677       80.205        0.027        0.019       11.379        6.731        0.350      331.012       -1.247      862.931
01/18/2022  05:49:00       19.297       19.408       -7.446       15.238        7.996        5.541      232.201       63.934       30.706        0.057        0.016       27.369        5.111        0.035      331.070       -1.155      862.949
01/18/2022  05:50:00       75.460       45.592       -6.518       11.752        7.005        3.935      138.116       49.064       15.481        0.401        0.010       88.163        3.788        0.002      331.125       -1.061      862.960
01/18/2022  05:51:00       40.704       32.479       -0.888       17.853       16.924        8.713      318.740      286.415       75.924        0.170        0.034       52.074       10.493        0.041      331.111       -1.085      862.986
01/18/2022  05:52:00       15.133       30.433        1.135       16.333       16.030       11.396      266.776      256.957      129.869        0.090        0.033       33.987        9.450        0.077      331.125       -1.062      863.017
01/18/2022  05:53:00       -6.583       27.153       -4.820       14.212       19.404        7.277      201.967      376.509       52.950        0.072        0.032       27.939        5.996        0.046      331.126       -1.059      863.046
01/18/2022  05:54:00      -32.685       -6.358      -11.321       17.577       16.746        9.450      308.944      280.433       89.304        0.096        0.034       33.298        6.644        0.040      330.886       -1.454      863.069
01/18/2022  05:55:00      -36.253       -5.574      -17.804       10.714       16.665       12.995      114.794      277.724      168.861        0.111        0.028       36.679        8.489        0.054      330.883       -1.459      863.091
01/18/2022  05:56:00      -71.339       12.610       -6.247       19.935       12.407       10.722      397.400      153.937      114.964        0.298        0.033       72.445        8.106        0.013      330.926       -1.388      863.109
01/18/2022  05:57:00      -43.867        9.748      -12.419       15.781       13.020       10.698      249.032      169.531      114.443        0.135        0.027       44.937        9.214        0.042      331.012       -1.248      863.120
01/18/2022  05:58:00      -56.609       15.160      -10.930       14.402       14.738        7.615      207.405      217.195       57.981        0.202        0.024       58.603        5.191        0.008      331.003       -1.263      863.125
01/18/2022  05:59:00      -64.588       10.962      -18.583       18.038       16.751       14.141      325.371      280.611      199.977        0.272        0.040       65.512        8.861        0.018      331.049       -1.186      863.128
01/18/2022  06:00:00      -65.083       22.698       -8.436       20.760       22.330       12.285      430.994      498.610      150.911        0.295        0.054       68.927        8.660        0.016      330.985       -1.292      863.121
01/18/2022  06:01:00      -57.828       13.046       -3.735       32.537       24.477       11.553     1058.671      599.113      133.473        0.266        0.090       59.281        7.455        0.016      331.003       -1.262      863.127
01/18/2022  06:02:00      -41.310        8.881       -8.524       19.592       17.029       10.221      383.833      289.993      104.469        0.132        0.039       42.254        9.123        0.047      331.091       -1.116      863.134
01/18/2022  06:03:00      -32.465       20.717       -6.745       14.492       15.654        9.610      210.008      245.040       92.354        0.104        0.027       38.512        7.759        0.041      331.037       -1.206      863.155
01/18/2022  06:04:00      -19.937       27.881       -9.940       15.089       11.918        8.348      227.690      142.043       69.682        0.086        0.022       34.276        7.444        0.047      330.973       -1.312      863.174
01/18/2022  06:05:00      -26.654       35.835       -8.391       18.100       12.514       11.566      327.623      156.601      133.774        0.134        0.031       44.660        6.812        0.023      330.945       -1.358      863.191
01/18/2022  06:06:00      -27.647       15.867       -7.040       17.865       15.791       10.543      319.169      249.349      111.157        0.087        0.034       31.877        9.788        0.094      330.906       -1.423      863.191
01/18/2022  06:07:00       -9.394       -0.159      -10.720        8.293       17.449        7.666       68.775      304.462       58.763        0.032        0.022        9.395        6.459        0.473      330.914       -1.409      863.185
01/18/2022  06:08:00       -1.864      -38.522      -12.527       14.400       15.300       10.258      207.347      234.080      105.228        0.110        0.027       38.567        7.279        0.036      330.982       -1.298      863.180
01/18/2022  06:09:00        2.962      -28.231      -11.494       18.700       15.085       18.688      349.692      227.558      349.233        0.093        0.046       28.386        8.458        0.089      331.047       -1.190      863.169
01/18/2022  06:10:00      -31.066       17.982       -5.388        9.143        8.878        7.262       83.588       78.812       52.730        0.077        0.011       35.895        7.132        0.039      331.018       -1.238      863.167
01/18/2022  06:11:00      -25.038        8.454       -8.069       11.977       12.949        7.228      143.452      167.666       52.237        0.056        0.018       26.427        2.882        0.012      330.963       -1.328      863.155
01/18/2022  06:12:00       -9.378        9.812       -7.836        5.190        7.276        6.542       26.933       52.943       42.795        0.018        0.006       13.573        4.152        0.094      330.881       -1.461      863.139
01/18/2022  06:13:00       -4.046       -4.051       -3.087       11.022        8.790        8.286      121.482       77.272       68.661        0.015        0.013        5.725        7.123        1.548      330.923       -1.395      863.139
01/18/2022  06:14:00      -14.792        0.286       -3.872       19.530       16.624       12.708      381.412      276.356      161.495        0.053        0.041       14.795       10.053        0.462      330.912       -1.412      863.140
01/18/2022  06:15:00      -18.203        1.822       -8.008       13.750       13.757       10.704      189.052      189.266      114.569        0.045        0.025       18.294        7.297        0.159      330.858       -1.500      863.136
01/18/2022  06:16:00       -9.138        0.523       -9.633       20.632       13.594       10.123      425.684      184.810      102.477        0.044        0.036        9.153        6.754        0.544      330.883       -1.459      863.131
01/18/2022  06:17:00      -46.269       31.763       -8.870       18.457       15.449        9.688      340.657      238.667       93.856        0.195        0.034       56.122        8.461        0.023      330.844       -1.522      863.126
01/18/2022  06:18:00      -65.173       27.687      -11.894       18.060       14.911       11.867      326.152      222.345      140.824        0.292        0.034       70.810        7.917        0.013      330.846       -1.519      863.127
01/18/2022  06:19:00      -93.968       27.264      -11.742       14.641       10.300       10.098      214.361      106.092      101.978        0.507        0.021       97.843        6.916        0.005      330.894       -1.443      863.112
01/18/2022  06:20:00      -54.831       12.568       -3.120       45.682       19.279       17.415     2086.877      371.682      303.297        0.297        0.138       56.253       15.274        0.074      330.807       -1.584      863.109
01/18/2022  06:21:00     -112.206       33.157       -9.620       31.365       20.250       18.701      983.789      410.067      349.715        0.776        0.087      117.002       17.754        0.023      330.711       -1.740      863.121
01/18/2022  06:22:00      -79.015       24.230       -2.631       36.894       21.756       15.315     1361.141      473.318      234.540        0.445        0.103       82.647       13.887        0.028      330.584       -1.949      863.134
01/18/2022  06:23:00      -72.710       19.762       -2.669       36.790       25.554       14.222     1353.522      652.983      202.265        0.395        0.110       75.347        7.018        0.009      330.651       -1.839      863.142
01/18/2022  06:24:00      -44.634       36.101       -7.815       18.360       14.610       11.252      337.103      213.439      126.611        0.202        0.034       57.406        5.721        0.010      330.630       -1.873      863.150
01/18/2022  06:25:00      -36.666       23.232       -5.294       15.963       12.851       10.067      254.821      165.158      101.346        0.122        0.026       43.407        6.976        0.026      330.738       -1.695      863.156
01/18/2022  06:26:00      -60.055       20.484       -8.110       16.956       17.874       10.187      287.489      319.482      103.779        0.240        0.036       63.452        7.277        0.013      330.797       -1.599      863.165
01/18/2022  06:27:00      -97.982       36.300      -15.953       19.118       17.167       10.603      365.492      294.723      112.424        0.597        0.039      104.490        6.578        0.004      330.739       -1.695      863.168
01/18/2022  06:28:00      -84.838       16.596       -9.355       36.876       24.550       17.207     1359.839      602.686      296.082        0.491        0.113       86.446       15.459        0.032      330.696       -1.765      863.158
01/18/2022  06:29:00      -58.998       34.612      -12.148       13.763       12.207        8.425      189.420      149.019       70.973        0.262        0.020       68.401        3.588        0.003      330.676       -1.799      863.121
01/18/2022  06:30:00      -49.032       21.822      -11.590       11.258       14.540        9.238      126.735      211.416       85.336        0.172        0.021       53.669        6.314        0.014      330.791       -1.611      863.093
01/18/2022  06:31:00       -5.513      -24.467       -9.275       11.435       13.471        8.754      130.771      181.457       76.633        0.055        0.019       25.080        5.394        0.046      330.892       -1.445      863.084
01/18/2022  06:32:00       -8.783       -1.230        0.339       10.938       15.983        5.817      119.642      255.445       33.838        0.024        0.020        8.868        4.861        0.300      330.885       -1.456      863.085
01/18/2022  06:33:00      -37.375        9.600      -11.630       21.385       10.891       11.984      457.336      118.606      143.609        0.117        0.036       38.588        7.477        0.038      330.799       -1.595      863.086
01/18/2022  06:34:00      -75.535       34.735      -14.525       12.756        8.884        8.381      162.713       78.932       70.234        0.372        0.016       83.139        5.947        0.005      330.777       -1.633      863.084
01/18/2022  06:35:00      -86.829       31.166      -11.959       29.903       18.479       17.394      894.191      341.470      302.567        0.510        0.077       92.252       16.477        0.032      330.718       -1.729      863.093
01/18/2022  06:36:00      -80.660       24.878      -19.420       18.424       20.753       12.290      339.459      430.678      151.046        0.421        0.046       84.409        8.244        0.010      330.644       -1.851      863.081
01/18/2022  06:37:00      -22.184       -5.195      -12.580       20.288       12.341       13.393      411.613      152.294      179.385        0.071        0.037       22.785       10.164        0.199      330.654       -1.835      863.061
01/18/2022  06:38:00       -1.146       -0.860      -10.156        7.321        5.267        5.978       53.599       27.740       35.733        0.011        0.006        1.433        3.363        5.509      330.956       -1.339      863.037
01/18/2022  06:39:00       38.128       24.421       -5.161       17.771        9.914        7.136      315.822       98.287       50.918        0.127        0.023       45.278        8.038        0.032      331.076       -1.144      863.014
01/18/2022  06:40:00       32.849       25.886       -0.290       25.695       17.172       12.067      660.242      294.877      145.618        0.142        0.055       41.823       13.594        0.106      330.993       -1.280      863.014
01/18/2022  06:41:00       18.252       23.112      -10.532       16.774       14.596       12.784      281.362      213.056      163.430        0.082        0.033       29.450        9.527        0.105      330.889       -1.450      863.032
01/18/2022  06:42:00       13.685       30.397       -9.931       15.327       14.700       13.872      234.925      216.096      192.431        0.093        0.032       33.336        8.069        0.059      330.940       -1.365      863.043
01/18/2022  06:43:00      -28.666        9.461      -13.558       20.441       10.304        9.023      417.853      106.173       81.414        0.085        0.030       30.187        5.946        0.039      330.825       -1.555      863.046
01/18/2022  06:44:00      -23.662       11.906      -12.355       11.552        6.254        6.283      133.439       39.117       39.478        0.053        0.011       26.489        3.383        0.016      330.709       -1.742      863.037
01/18/2022  06:45:00       -4.726        4.297       -6.820       13.272        8.634        5.756      176.140       74.546       33.128        0.019        0.014        6.387        4.405        0.476      330.839       -1.530      863.025
01/18/2022  06:46:00       12.641        0.457       -3.980       13.710       11.075        8.126      187.966      122.666       66.026        0.028        0.019       12.649        2.958        0.055      331.016       -1.240      863.005
01/18/2022  06:47:00       46.149      -10.861       -9.582       16.443       12.829        9.430      270.357      164.590       88.928        0.143        0.026       47.410        6.085        0.016      331.048       -1.188      863.015
01/18/2022  06:48:00       71.382       41.487       -3.423       23.006       15.736       11.001      529.271      247.629      121.027        0.386        0.045       82.562        9.238        0.013      331.083       -1.130      863.031
01/18/2022  06:49:00       66.282       52.574       -4.194       22.792       11.391       10.437      519.479      129.745      108.929        0.397        0.038       84.601        9.764        0.013      330.944       -1.358      863.044
01/18/2022  06:50:00       57.718       64.919       -9.630       18.475       14.541       11.730      341.321      211.455      137.582        0.416        0.035       86.867        8.104        0.009      330.984       -1.295      863.040
01/18/2022  06:51:00       27.989       73.005       -7.528       18.272       12.128       10.828      333.853      147.090      117.252        0.338        0.030       78.186        4.260        0.003      331.105       -1.094      863.034
01/18/2022  06:52:00       20.405       62.359        0.170       14.648       15.210       10.721      214.557      231.330      114.948        0.243        0.028       65.613        4.219        0.004      331.202       -0.935      863.019
01/18/2022  06:53:00       25.901       51.951       -2.616       12.032        9.521        7.824      144.759       90.642       61.221        0.184        0.015       58.050        3.571        0.004      331.246       -0.860      863.016
01/18/2022  06:54:00       14.977       50.795       -2.761       15.828       14.199       11.281      250.516      201.604      127.252        0.170        0.029       52.957        4.895        0.009      331.172       -0.984      863.018
01/18/2022  06:55:00      -10.826       11.588      -15.848       29.843       17.463       13.778      890.604      304.974      189.827        0.094        0.069       15.858       15.094        0.906      331.006       -1.258      863.036
01/18/2022  06:56:00      -44.476        2.858       -9.946       21.987       20.015       13.681      483.450      400.609      187.162        0.158        0.054       44.568       11.752        0.070      330.827       -1.551      863.058
01/18/2022  06:57:00      -45.450       19.743      -12.784       17.880       13.039       11.596      319.701      170.006      134.462        0.162        0.031       49.553        6.170        0.016      330.826       -1.552      863.081
01/18/2022  06:58:00      -47.586       37.106      -11.600       11.393        7.705        8.369      129.804       59.369       70.035        0.202        0.013       60.344        5.355        0.008      330.873       -1.476      863.101
01/18/2022  06:59:00      -19.100       32.699      -15.753       15.223       11.661       10.785      231.727      135.976      116.318        0.108        0.024       37.869        7.991        0.045      330.896       -1.439      863.140
01/18/2022  07:00:00      -33.615       17.751       -5.692       15.562       17.624       12.475      242.180      310.609      155.615        0.109        0.035       38.014        7.585        0.040      330.837       -1.534      863.192
01/18/2022  07:01:00      -54.171       14.054       -9.340       28.260       17.653       13.687      798.603      311.638      187.334        0.226        0.065       55.965        9.923        0.031      330.622       -1.887      863.221
01/18/2022  07:02:00      -56.022       26.695       -6.769       27.153       28.032       14.181      737.268      785.809      201.087        0.281        0.086       62.057       13.145        0.045      330.626       -1.881      863.230
01/18/2022  07:03:00      -25.572       -0.337       -3.171       20.934       22.404       14.639      438.212      501.961      214.303        0.091        0.058       25.574       15.591        0.372      330.767       -1.648      863.227
01/18/2022  07:04:00      -36.458       17.913       -4.772       11.771       15.304       11.000      138.552      234.219      121.009        0.108        0.025       40.621        8.415        0.043      330.835       -1.536      863.226
01/18/2022  07:05:00      -70.972       18.884      -12.591       23.210       15.861        9.745      538.711      251.571       94.968        0.322        0.044       73.441        8.837        0.014      330.838       -1.532      863.238
01/18/2022  07:06:00      -80.761       37.709      -19.597       13.617       12.715        9.401      185.421      161.675       88.375        0.438        0.022       89.130        4.855        0.003      330.702       -1.753      863.265
01/18/2022  07:07:00      -75.044       41.419      -18.671       21.363       20.611       13.879      456.377      424.833      192.639        0.438        0.054       85.715        9.837        0.013      330.637       -1.863      863.287
01/18/2022  07:08:00      -76.151       32.005      -14.591       15.966       12.636        6.839      254.925      159.666       46.770        0.375        0.023       82.603        2.779        0.001      330.707       -1.748      863.288
01/18/2022  07:09:00      -65.483       28.591      -12.162       13.383       10.797        8.761      179.096      116.573       76.759        0.281        0.019       71.453        5.603        0.006      330.723       -1.721      863.293
01/18/2022  07:10:00      -28.960       16.232       -5.004       17.216       11.612        6.246      296.392      134.828       39.013        0.080        0.024       33.199        7.513        0.051      330.675       -1.800      863.309
01/18/2022  07:11:00        3.304      -11.519      -10.423       14.604       13.768       10.084      213.276      189.555      101.689        0.038        0.025       11.983        6.611        0.304      330.972       -1.311      863.334
01/18/2022  07:12:00        1.514      -29.302      -14.426       31.279       33.974       18.869      978.359     1154.212      356.058        0.178        0.124       29.341       18.404        0.393      331.035       -1.209      863.344
01/18/2022  07:13:00       56.214      -94.338      -23.678       21.960       28.551       15.180      482.257      815.156      230.421        0.707        0.076      109.817       10.829        0.010      331.046       -1.193      863.337
01/18/2022  07:14:00       54.280     -125.845      -20.494       32.210       29.861       23.432     1037.498      891.673      549.052        1.084        0.124      137.052       21.770        0.025      331.165       -0.995      863.321
01/18/2022  07:15:00       43.941     -108.427      -11.373       28.794       27.576       22.543      829.115      760.440      508.208        0.796        0.105      116.992       17.519        0.022      331.200       -0.938      863.325
01/18/2022  07:16:00       15.662      -27.954      -14.410       41.933       38.257       18.625     1758.390     1463.606      346.897        0.240        0.178       32.043       20.797        0.421      331.204       -0.931      863.332
01/18/2022  07:17:00      -22.746        2.625       -6.302       12.491       13.265        9.046      156.030      175.954       81.824        0.049        0.021       22.897        4.331        0.036      330.997       -1.272      863.342
01/18/2022  07:18:00      -11.600       20.955      -13.030       16.592       22.686        7.136      275.299      514.661       50.920        0.079        0.042       23.952        6.047        0.064      330.903       -1.426      863.360
01/18/2022  07:19:00      -19.381       12.079      -18.473       22.608       17.222       15.124      511.101      296.595      228.740        0.095        0.052       22.837        8.326        0.133      330.926       -1.389      863.369
01/18/2022  07:20:00      -48.899        9.240      -22.881       21.767       15.242       14.706      473.795      232.327      216.269        0.196        0.046       49.764       10.213        0.042      330.925       -1.391      863.381
01/18/2022  07:21:00       12.718        3.108       -1.607       19.463       21.398       16.616      378.819      457.878      276.098        0.064        0.056       13.092        9.658        0.544      330.851       -1.511      863.391
01/18/2022  07:22:00       48.915        4.041       -3.239       46.976       26.766       16.291     2206.782      716.404      265.387        0.280        0.159       49.082        6.901        0.020      330.869       -1.481      863.410
01/18/2022  07:23:00      104.321        8.209      -15.159       32.252       22.578       18.988     1040.221      509.762      360.532        0.654        0.096      104.644        7.550        0.005      330.795       -1.602      863.431
01/18/2022  07:24:00       57.239       28.330      -10.758       44.473       37.485       16.749     1977.811     1405.160      280.527        0.393        0.183       63.866       15.251        0.057      330.752       -1.674      863.447
01/18/2022  07:25:00       -2.066       19.406      -21.834       33.144       24.110       19.601     1098.539      581.270      384.188        0.146        0.103       19.516       20.650        1.120      330.710       -1.743      863.450
01/18/2022  07:26:00       -5.017       25.217       -4.082       14.069       10.460        8.761      197.931      109.416       76.760        0.053        0.019       25.711        2.436        0.009      330.590       -1.941      863.435
01/18/2022  07:27:00       18.910       14.747      -11.211       13.042       11.701       10.911      170.097      136.906      119.059        0.056        0.021       23.981        8.379        0.122      330.655       -1.832      863.413
01/18/2022  07:28:00       32.772       38.876      -11.547       12.831        9.776       10.601      164.641       95.563      112.374        0.155        0.019       50.846        5.658        0.012      330.724       -1.720      863.391
01/18/2022  07:29:00       18.398       23.000       -2.160       14.728       20.486       15.346      216.924      419.668      235.513        0.087        0.044       29.453       10.445        0.126      330.691       -1.773      863.388
01/18/2022  07:30:00       34.730       14.564       -5.491       26.558       18.080       12.401      705.338      326.885      153.781        0.132        0.059       37.660       12.752        0.115      330.618       -1.894      863.395
01/18/2022  07:31:00       30.898       35.621       -1.236       17.534       16.421       12.806      307.452      269.644      163.996        0.148        0.037       47.154       10.431        0.049      330.629       -1.876      863.412
01/18/2022  07:32:00       -3.278       19.312       -2.648       13.633       12.169       10.053      185.847      148.081      101.065        0.041        0.022       19.588        8.769        0.200      330.634       -1.868      863.423
01/18/2022  07:33:00       24.080       19.230       -3.522       16.321       11.599        5.437      266.379      134.534       29.562        0.070        0.022       30.816        4.212        0.019      330.696       -1.765      863.424
01/18/2022  07:34:00       41.152       32.917       -7.959        9.818        8.343        6.182       96.384       69.610       38.215        0.152        0.010       52.698        5.476        0.011      330.720       -1.723      863.418
01/18/2022  07:35:00       42.476       27.642       -9.547        8.396        8.778        8.118       70.494       77.056       65.898        0.144        0.011       50.678        4.788        0.009      330.748       -1.680      863.417
01/18/2022  07:36:00       25.039       25.868      -11.282       11.844        8.257        6.974      140.283       68.176       48.630        0.084        0.013       36.001        4.203        0.014      330.774       -1.637      863.428
01/18/2022  07:37:00       10.384       15.836       -5.987        9.592        6.995        7.475       92.015       48.929       55.875        0.030        0.010       18.937        4.291        0.051      330.808       -1.583      863.440
01/18/2022  07:38:00      -53.560       15.664      -12.158       20.300       11.885        9.628      412.091      141.262       92.702        0.195        0.032       55.804        8.274        0.022      330.887       -1.452      863.455
01/18/2022  07:39:00      -34.590       -7.547       -0.401       35.330       19.173       14.259     1248.189      367.608      203.329        0.154        0.091       35.403       17.030        0.231      330.963       -1.328      863.454
01/18/2022  07:40:00      -52.496       11.815       -0.618       30.855       18.746       16.714      952.040      351.417      279.351        0.224        0.079       53.809       12.173        0.051      331.026       -1.226      863.450
01/18/2022  07:41:00      -40.478        1.482      -11.815       22.836       18.399       16.136      521.482      338.523      260.368        0.145        0.056       40.506       10.343        0.065      331.136       -1.043      863.439
01/18/2022  07:42:00      -33.959       -5.998      -12.509       31.648       16.922       12.377     1001.592      286.365      153.199        0.139        0.072       34.484       10.267        0.089      331.226       -0.894      863.447
01/18/2022  07:43:00      -71.778       14.392      -18.271       14.653       14.470       11.441      214.699      209.370      130.888        0.312        0.028       73.207        5.475        0.006      331.026       -1.225      863.459
01/18/2022  07:44:00      -61.637       13.393      -17.273       13.472       16.513       17.726      181.484      272.690      314.210        0.252        0.038       63.075        8.610        0.019      331.062       -1.165      863.469
01/18/2022  07:45:00      -53.423        5.087      -11.229       26.109       18.920       13.368      681.670      357.976      178.716        0.211        0.061       53.665       12.926        0.058      331.084       -1.129      863.485
01/18/2022  07:46:00      -62.203       14.486       -4.114       35.606       26.681       17.826     1267.805      711.874      317.749        0.320        0.115       63.867       17.541        0.075      331.093       -1.114      863.507
01/18/2022  07:47:00      -43.567        5.821       -5.084       50.218       32.803       25.567     2521.881     1076.058      653.694        0.310        0.213       43.954       19.389        0.195      331.056       -1.175      863.534
01/18/2022  07:48:00        0.317        2.253       -7.962       42.842       37.076       29.530     1835.397     1374.608      872.044        0.207        0.204        2.275       21.509       89.410      331.021       -1.233      863.561
01/18/2022  07:49:00      -48.653       15.129       -5.006       43.212       25.883       15.868     1867.234      669.909      251.782        0.270        0.139       50.951        8.469        0.028      330.999       -1.269      863.579
01/18/2022  07:50:00      -88.726       41.626       -8.426       28.480       25.033       21.289      811.110      626.645      453.232        0.578        0.095       98.006       14.630        0.022      330.954       -1.343      863.595
01/18/2022  07:51:00      -87.185       10.434       -2.690       66.158       34.624       27.356     4376.907     1198.828      748.368        0.702        0.316       87.807       20.823        0.056      330.993       -1.279      863.620
01/18/2022  07:52:00     -115.378       41.311      -20.592       39.954       35.527       27.460     1596.318     1262.174      754.041        0.953        0.181      122.550       15.142        0.015      331.029       -1.219      863.619
01/18/2022  07:53:00     -137.617       34.020      -11.418       41.509       35.146       22.593     1723.000     1235.255      510.445        1.185        0.173      141.760       17.687        0.016      331.099       -1.105      863.601
01/18/2022  07:54:00      -69.567       28.628       -6.611       34.682       32.637       21.351     1202.833     1065.166      455.883        0.421        0.136       75.227       16.127        0.046      331.134       -1.046      863.564
01/18/2022  07:55:00      -63.063       21.463      -21.507       37.289       37.631       23.479     1390.478     1416.079      551.245        0.413        0.168       66.616       17.140        0.066      331.159       -1.006      863.536
01/18/2022  07:56:00      -86.538       32.352      -16.297       19.753       20.058       14.350      390.184      402.307      205.919        0.490        0.050       92.387        7.235        0.006      331.174       -0.980      863.521
01/18/2022  07:57:00      -97.273       58.547      -12.662       31.958       22.341       17.262     1021.330      499.105      297.986        0.743        0.091      113.534       14.567        0.016      331.191       -0.952      863.537
01/18/2022  07:58:00     -107.882       56.229       -5.568       40.267       35.632       25.612     1621.468     1269.621      655.975        0.919        0.177      121.656       20.078        0.027      331.180       -0.971      863.566
01/18/2022  07:59:00      -84.462       61.925      -24.890       38.701       24.679       21.264     1497.760      609.066      452.140        0.707        0.128      104.731       17.201        0.027      331.193       -0.949      863.590
01/18/2022  08:00:00      -64.072       58.413      -13.803       30.629       17.250       13.999      938.158      297.568      195.977        0.457        0.072       86.703       14.073        0.026      331.248       -0.856      863.607
01/18/2022  08:01:00      -57.895        8.049      -19.013       34.864       32.577       19.371     1215.464     1061.284      375.226        0.321        0.133       58.452       12.078        0.043      331.391       -0.624      863.630
01/18/2022  08:02:00      -59.322       26.141      -21.400       26.936       25.791       26.566      725.550      665.194      705.750        0.338        0.105       64.826       17.416        0.072      331.434       -0.553      863.666
01/18/2022  08:03:00      -40.611        6.997      -11.582       32.468       35.150       14.367     1054.201     1235.501      206.411        0.216        0.125       41.209       16.101        0.153      331.426       -0.566      863.698
01/18/2022  08:04:00       -4.955       68.352      -15.563       20.787       37.142       20.168      432.109     1379.525      406.739        0.358        0.111       68.532       15.075        0.048      331.507       -0.435      863.729
01/18/2022  08:05:00      -21.775       51.743      -16.375       35.865       31.724       17.471     1286.312     1006.417      305.231        0.301        0.130       56.138       14.044        0.063      331.648       -0.199      863.750
01/18/2022  08:06:00      -15.058      105.984      -15.077       26.761       37.192       19.545      716.143     1383.250      381.991        0.708        0.124      107.049       13.512        0.016      331.626       -0.237      863.761
01/18/2022  08:07:00       32.303       44.802       -2.161       33.680       22.453       18.743     1134.362      504.159      351.313        0.252        0.099       55.233       15.883        0.083      331.809        0.064      863.759
01/18/2022  08:08:00      -19.538       46.906      -14.869       32.058       28.243       17.032     1027.720      797.687      290.085        0.246        0.106       50.812       13.010        0.066      331.823        0.086      863.751
01/18/2022  08:09:00      -42.776       35.065      -13.512       15.889       20.279       12.415      252.450      411.239      154.132        0.203        0.041       55.312        6.587        0.014      331.704       -0.109      863.743
01/18/2022  08:10:00      -43.137       27.043      -14.815       24.251       18.127       12.217      588.096      328.583      149.260        0.194        0.053       50.912        9.154        0.032      331.725       -0.074      863.742
01/18/2022  08:11:00      -64.292       11.303      -13.607       21.104       16.617       11.805      445.366      276.114      139.346        0.265        0.043       65.278        8.342        0.016      331.701       -0.113      863.757
01/18/2022  08:12:00      -53.218       20.700       -3.776       26.647       17.167       14.233      710.041      294.706      202.576        0.224        0.060       57.102        9.053        0.025      331.782        0.019      863.767
01/18/2022  08:13:00      -28.275       16.401       -5.031       16.011       11.793        8.866      256.341      139.074       78.610        0.078        0.024       32.687        9.943        0.093      331.776        0.010      863.773
01/18/2022  08:14:00      -13.313       14.312       -7.212        8.055        7.744        5.793       64.884       59.963       33.557        0.030        0.008       19.547        4.517        0.053      331.830        0.098      863.780
01/18/2022  08:15:00       15.907       15.414       -5.278       21.012        9.339        6.183      441.521       87.209       38.234        0.054        0.028       22.150        6.547        0.087      331.900        0.215      863.796
01/18/2022  08:16:00       55.822       34.877      -10.442       12.759       11.606       13.364      162.795      134.698      178.606        0.246        0.024       65.822        5.555        0.007      331.910        0.230      863.802
01/18/2022  08:17:00       65.231       31.901      -16.235       12.729       12.868       11.498      162.023      165.575      132.207        0.300        0.023       72.614        4.689        0.004      331.918        0.243      863.810
01/18/2022  08:18:00       52.062       20.517      -15.957       13.338       14.173       10.391      177.904      200.876      107.982        0.194        0.024       55.959        8.676        0.024      331.937        0.273      863.799
01/18/2022  08:19:00        8.130       16.816       -9.617       22.218        8.313        7.475      493.655       69.100       55.882        0.053        0.031       18.679        7.842        0.176      331.908        0.227      863.792
01/18/2022  08:20:00      -51.888       17.817      -14.983       22.712       17.021       10.764      515.825      289.722      115.857        0.208        0.046       54.862        9.925        0.033      331.964        0.319      863.789
01/18/2022  08:21:00      -48.057       10.235      -11.151       31.045       17.463       16.531      963.808      304.965      273.280        0.204        0.077       49.135        9.878        0.040      331.985        0.353      863.787
01/18/2022  08:22:00      -16.536        3.624       -4.255       15.196       14.643       13.241      230.931      214.424      175.320        0.046        0.031       16.929        5.766        0.116      331.978        0.341      863.797
01/18/2022  08:23:00      -44.993       -4.956       -8.507       29.155       26.729       15.530      850.019      714.440      241.183        0.196        0.090       45.265       15.618        0.119      332.019        0.409      863.806
01/18/2022  08:24:00      -71.810        0.188       -4.403       44.722       22.300       16.867     2000.057      497.277      284.491        0.398        0.139       71.810       12.904        0.032      332.097        0.538      863.814
01/18/2022  08:25:00      -36.846       -4.690      -10.758       36.316       12.588       11.167     1318.875      158.465      124.697        0.155        0.080       37.143        8.885        0.057      332.161        0.642      863.821
01/18/2022  08:26:00       -4.366        4.901        2.688       22.494       17.306       17.048      505.980      299.513      290.619        0.057        0.055        6.564       10.295        2.460      332.192        0.695      863.841
01/18/2022  08:27:00      -60.082        3.471        0.117       47.304       26.403       19.446     2237.638      697.112      378.146        0.347        0.166       60.182       17.100        0.081      332.185        0.683      863.864
01/18/2022  08:28:00      -36.995        7.202       -3.990       33.884       21.441       20.744     1148.152      459.708      430.311        0.174        0.102       37.690       19.356        0.264      332.172        0.660      863.879
01/18/2022  08:29:00      -40.438        4.541       -8.432       14.583        7.174        7.567      212.659       51.467       57.264        0.102        0.016       40.693        2.102        0.003      332.201        0.710      863.883
01/18/2022  08:30:00      -13.997       -1.504       -3.856       15.917       11.222       10.172      253.352      125.939      103.468        0.035        0.024       14.078        7.667        0.297      332.330        0.918      863.901
01/18/2022  08:31:00      -22.559       -5.925       -6.772       17.657       11.656       11.707      311.758      135.870      137.052        0.059        0.029       23.324        8.731        0.140      332.324        0.912      863.935
01/18/2022  08:32:00        0.460       -6.032       -4.557       11.008       12.962       11.661      121.178      168.002      135.989        0.024        0.021        6.050        6.124        1.025      332.380        1.005      863.974
01/18/2022  08:33:00      -15.354       -3.205       -7.861        9.019       15.310       14.470       81.343      234.388      209.372        0.042        0.026       15.685        7.138        0.207      332.264        0.814      863.998
01/18/2022  08:34:00      -47.972       -8.602      -20.722       25.590       18.269       17.439      654.842      333.756      304.113        0.205        0.065       48.737        8.990        0.034      332.397        1.032      864.018
01/18/2022  08:35:00      -47.183      -35.833       -4.115       27.614       17.046       13.554      762.547      290.551      183.705        0.238        0.062       59.247        7.869        0.018      332.412        1.058      864.044
01/18/2022  08:36:00       -1.783      -21.449        0.657       22.712       28.237       26.516      515.847      797.325      703.093        0.124        0.101       21.523        7.137        0.110      332.503        1.209      864.050
01/18/2022  08:37:00       38.169      -53.191      -15.530       30.600       25.803       22.571      936.388      665.780      509.434        0.332        0.106       65.469       21.074        0.104      332.492        1.190      864.050
01/18/2022  08:38:00      -10.641      -51.083       -8.409       42.870       25.213       17.235     1837.820      635.689      297.035        0.278        0.139       52.180       14.654        0.079      332.472        1.159      864.058
01/18/2022  08:39:00      -26.842      -20.487       -4.148       28.523       24.697       21.376      813.566      609.944      456.935        0.152        0.094       33.767       12.946        0.147      332.457        1.133      864.058
01/18/2022  08:40:00      -19.846      -17.726      -14.793       20.372       21.233       16.454      415.004      450.830      270.748        0.103        0.057       26.610        5.570        0.044      332.542        1.271      864.072
01/18/2022  08:41:00      -38.254      -22.528      -16.339       22.877       16.924       14.135      523.370      286.431      199.788        0.162        0.050       44.394        5.867        0.017      332.551        1.288      864.082
01/18/2022  08:42:00      -33.730       -1.877      -18.550       31.324       18.158       21.633      981.186      329.727      467.980        0.163        0.089       33.782       20.333        0.362      332.440        1.103      864.086
01/18/2022  08:43:00      -29.762       -9.028      -11.555       31.480       22.264       20.598      990.989      495.673      424.279        0.151        0.096       31.101        8.782        0.080      332.505        1.210      864.076
01/18/2022  08:44:00      -41.739      -29.327      -13.938       45.267       41.644       27.576     2049.105     1734.257      760.458        0.367        0.227       51.012       20.836        0.167      332.578        1.332      864.075
01/18/2022  08:45:00        8.144      -91.610      -17.508       58.682       55.985       42.299     3443.522     3134.348     1789.196        0.856        0.418       91.971       34.764        0.143      332.646        1.443      864.042
01/18/2022  08:46:00      -27.389      -83.911      -12.034       82.345       64.331       29.889     6780.701     4138.501      893.359        0.987        0.591       88.268       26.354        0.089      332.640        1.434      864.024
01/18/2022  08:47:00      100.704     -153.365      -41.775       44.037       37.187       31.285     1939.216     1382.869      978.734        1.985        0.215      183.473       28.416        0.024      332.435        1.094      864.012
01/18/2022  08:48:00       94.919     -139.011      -42.647       45.325       56.124       24.572     2054.372     3149.957      603.792        1.798        0.290      168.326       19.360        0.013      332.558        1.297      864.007
01/18/2022  08:49:00       63.092     -138.662      -26.906       36.514       31.600       29.611     1333.257      998.550      876.782        1.357        0.160      152.341       23.306        0.023      332.512        1.222      864.024
01/18/2022  08:50:00       62.365     -133.485      -35.016       24.126       24.739       16.089      582.085      612.014      258.850        1.219        0.073      147.335       13.820        0.009      332.310        0.889      864.046
01/18/2022  08:51:00       50.271      -87.935      -28.500       37.577       63.834       26.418     1412.063     4074.841      697.935        0.863        0.309      101.291       24.276        0.057      332.578        1.332      864.065
01/18/2022  08:52:00      119.944      -12.665      -15.210       87.617       48.280       44.463     7676.798     2330.953     1976.918        1.338        0.599      120.611       34.353        0.081      332.622        1.403      864.088
01/18/2022  08:53:00       86.073        4.257      -19.891       48.932       49.039       36.966     2394.314     2404.809     1366.457        0.699        0.308       86.178       14.861        0.030      332.570        1.318      864.111
01/18/2022  08:54:00      128.899      -25.907      -16.720       47.067       30.872       30.376     2215.312      953.086      922.719        1.083        0.205      131.476       24.109        0.034      332.438        1.100      864.116
01/18/2022  08:55:00       46.826      -57.745      -23.487       40.033       58.188       28.791     1602.619     3385.882      828.943        0.595        0.291       74.345       19.008        0.065      332.721        1.567      864.113
01/18/2022  08:56:00       48.171      -16.125      -12.677       38.211       56.499       29.908     1460.062     3192.140      894.500        0.414        0.277       50.798       12.342        0.059      332.835        1.755      864.129
01/18/2022  08:57:00       23.104      -32.116      -24.116       40.981       51.047       23.494     1679.402     2605.772      551.959        0.349        0.242       39.563       17.329        0.192      332.829        1.747      864.160
01/18/2022  08:58:00        8.004      -51.871      -19.386       26.543       38.327       25.904      704.546     1468.938      671.027        0.299        0.142       52.485       12.577        0.057      333.050        2.112      864.180
01/18/2022  08:59:00       -0.739       -5.650       -9.393       33.406       30.615       27.070     1115.946      937.255      732.801        0.145        0.139        5.698       12.461        4.782      332.916        1.889      864.175
01/18/2022  09:00:00      127.191       19.874      -16.871       37.192       36.375       21.527     1383.271     1323.137      463.408        1.001        0.158      128.735        7.454        0.003      332.473        1.159      864.182
01/18/2022  09:01:00      140.450       38.940      -11.961       39.019       40.543       30.229     1522.480     1643.695      913.817        1.273        0.204      145.748       11.155        0.006      332.496        1.196      864.173
01/18/2022  09:02:00      117.531       46.699      -16.055       22.039       19.535       17.061      485.727      381.615      291.080        0.871        0.058      126.469        7.642        0.004      332.302        0.877      864.182
01/18/2022  09:03:00      105.120       24.020      -13.509       42.252       31.029       22.937     1785.228      962.827      526.091        0.754        0.164      107.829       18.905        0.031      332.537        1.266      864.183
01/18/2022  09:04:00      120.656       16.384      -27.821       20.142       35.330       15.836      405.710     1248.222      250.778        0.875        0.095      121.763       11.290        0.009      332.413        1.058      864.190
01/18/2022  09:05:00       82.362       27.299      -20.340       18.786       33.918       21.573      352.903     1150.450      465.400        0.496        0.098       86.768       17.774        0.042      332.444        1.110      864.190
01/18/2022  09:06:00       75.568       45.215      -10.433       20.115       16.982       16.326      404.610      288.393      266.525        0.441        0.048       88.061       11.938        0.018      332.398        1.035      864.188
01/18/2022  09:07:00       48.459       46.623      -23.777       33.417       40.575       26.246     1116.687     1646.346      688.863        0.427        0.173       67.246       10.832        0.026      332.645        1.443      864.186
01/18/2022  09:08:00       27.032       -0.315      -15.275       35.442       48.533       35.868     1256.145     2355.407     1286.524        0.293        0.245       27.034       22.495        0.692      332.762        1.636      864.180
01/18/2022  09:09:00       54.720       61.902      -24.120       34.793       51.724       35.957     1210.519     2675.326     1292.904        0.629        0.259       82.621       18.339        0.049      332.657        1.462      864.182
01/18/2022  09:10:00       82.926       39.782      -19.190       57.848       62.579       24.162     3346.360     3916.179      583.781        0.834        0.392       91.974       10.868        0.014      332.640        1.433      864.184
01/18/2022  09:11:00       78.359       53.268      -23.090       41.302       37.560       23.022     1705.839     1410.732      530.009        0.658        0.182       94.751       17.152        0.033      332.658        1.465      864.180
01/18/2022  09:12:00       34.154       39.067      -12.703       28.071       33.688       25.682      787.988     1134.911      659.541        0.272        0.129       51.892        9.673        0.035      332.850        1.781      864.173
01/18/2022  09:13:00       59.089        2.215      -22.786       41.100       64.613       27.244     1689.179     4174.864      742.219        0.531        0.330       59.131       10.679        0.033      332.828        1.745      864.162
01/18/2022  09:14:00       59.910       26.327      -20.038       43.879       45.419       28.078     1925.401     2062.920      788.383        0.473        0.239       65.440       22.489        0.118      332.615        1.394      864.151
01/18/2022  09:15:00       79.451       33.067      -14.621       36.087       42.444       25.611     1302.246     1801.452      655.918        0.569        0.188       86.057       11.885        0.019      332.588        1.348      864.125
01/18/2022  09:16:00       61.267       -5.555      -20.190       29.376       31.716       29.219      862.974     1005.902      853.766        0.346        0.136       61.518       16.054        0.068      332.671        1.486      864.121
01/18/2022  09:17:00       55.455       20.468      -13.656       32.922       43.717       20.749     1083.862     1911.199      430.506        0.355        0.171       59.112       13.660        0.053      332.708        1.547      864.112
01/18/2022  09:18:00       72.405       -2.141      -19.301       35.656       48.263       26.373     1271.317     2329.281      695.529        0.496        0.215       72.437       14.871        0.042      332.648        1.448      864.112
01/18/2022  09:19:00      129.467       25.347      -14.372       17.386       19.520       13.163      302.270      381.044      173.275        0.923        0.043      131.925        5.256        0.002      332.380        1.004      864.105
01/18/2022  09:20:00      120.525       56.957      -17.833       13.559       19.478        8.939      183.843      379.399       79.901        0.937        0.032      133.305        3.679        0.001      332.420        1.069      864.101
01/18/2022  09:21:00       95.515       23.664      -20.928       32.367       36.492       22.718     1047.636     1331.632      516.097        0.651        0.145       98.403       16.047        0.027      332.665        1.476      864.091
01/18/2022  09:22:00       85.975       22.162      -19.771       29.859       28.745       15.798      891.552      826.299      249.563        0.512        0.098       88.785       12.806        0.021      332.575        1.325      864.107
01/18/2022  09:23:00       47.155       48.844       -8.477       28.360       19.077       16.710      804.299      363.949      279.221        0.306        0.072       67.892       12.637        0.035      332.715        1.558      864.144
01/18/2022  09:24:00       77.950       48.207      -22.406       17.090       26.632       20.136      292.060      709.273      405.465        0.515        0.070       91.652        7.897        0.007      332.701        1.535      864.181
01/18/2022  09:25:00       57.539       25.103      -14.461       17.326       14.045       12.298      300.182      197.259      151.239        0.240        0.032       62.776        8.031        0.016      332.580        1.335      864.204
01/18/2022  09:26:00       43.115        1.458      -12.557       19.483       10.171       10.140      379.596      103.442      102.812        0.130        0.029       43.140        8.094        0.035      332.574        1.327      864.225
01/18/2022  09:27:00       41.961       26.301       -9.445       23.841       21.146       16.495      568.381      447.148      272.078        0.191        0.064       49.523       11.117        0.050      332.703        1.539      864.239
01/18/2022  09:28:00       76.753       36.235      -16.698       13.413       15.612       12.103      179.907      243.750      146.472        0.403        0.029       84.876        6.221        0.005      332.693        1.523      864.242
01/18/2022  09:29:00       74.751       18.847      -18.305       16.817       16.636       14.541      282.805      276.741      211.444        0.352        0.039       77.090        6.960        0.008      332.674        1.491      864.252
01/18/2022  09:30:00       73.851       25.564      -19.791       21.904       26.190       20.928      479.780      685.916      437.986        0.405        0.080       78.151        5.313        0.005      332.856        1.791      864.250
01/18/2022  09:31:00       65.991       38.126      -17.803       26.395       34.013       20.343      696.695     1156.901      413.847        0.420        0.113       76.214        8.586        0.013      332.854        1.788      864.252
01/18/2022  09:32:00       39.810       59.099       -7.237       17.239       22.877       12.167      297.193      523.373      148.040        0.305        0.048       71.257       10.833        0.023      332.773        1.653      864.244
01/18/2022  09:33:00       20.609       23.602       -8.534       35.490       38.024       17.019     1259.563     1445.821      289.663        0.202        0.150       31.334       12.491        0.159      332.922        1.900      864.241
01/18/2022  09:34:00       11.980      -18.004      -22.239       19.720       20.775       16.196      388.894      431.621      262.321        0.102        0.054       21.626       10.539        0.237      333.139        2.259      864.241
01/18/2022  09:35:00       30.767        8.253      -12.950       26.983       35.790       23.583      728.094     1280.914      556.151        0.187        0.128       31.855       15.561        0.239      333.019        2.061      864.244
01/18/2022  09:36:00        4.560       44.706      -11.486       21.084       13.217        9.211      444.524      174.682       84.841        0.143        0.035       44.938        6.337        0.020      332.800        1.699      864.255
01/18/2022  09:37:00      -20.312       38.942       -6.769       15.450       17.819       13.266      238.717      317.525      175.989        0.135        0.037       43.921        4.273        0.009      332.923        1.902      864.256
01/18/2022  09:38:00      -18.817        9.832      -11.912       16.869       20.766        9.273      284.557      431.233       85.986        0.070        0.040       21.231        5.611        0.070      332.987        2.008      864.243
01/18/2022  09:39:00      -26.496       -3.657       -7.772       15.353       18.023       13.776      235.729      324.835      189.785        0.076        0.038       26.747        6.779        0.064      333.020        2.062      864.225
01/18/2022  09:40:00      -35.541        1.800       -7.458       19.885       18.335       11.414      395.412      336.168      130.291        0.109        0.043       35.586        7.900        0.049      333.017        2.058      864.228
01/18/2022  09:41:00        5.291        7.863       -6.663       31.182       13.225       11.315      972.307      174.904      128.034        0.070        0.064        9.477       10.043        1.123      333.133        2.249      864.236
01/18/2022  09:42:00       -2.545       12.162       -6.974       19.576       31.323       15.089      383.215      981.147      227.677        0.090        0.080       12.425       13.370        1.158      333.183        2.331      864.239
01/18/2022  09:43:00       67.188       20.413      -16.680       43.126       28.750       22.216     1859.885      826.585      493.557        0.419        0.159       70.220       11.191        0.025      333.049        2.111      864.247
01/18/2022  09:44:00       78.982       32.076      -11.025       18.052       20.109       12.976      325.868      404.375      168.373        0.414        0.045       85.247        3.421        0.002      332.927        1.911      864.252
01/18/2022  09:45:00       72.566       49.038      -19.440       31.491       24.525       18.476      991.697      601.477      341.345        0.499        0.097       87.582       10.999        0.016      333.044        2.101      864.243
01/18/2022  09:46:00       21.106       23.844      -18.064       31.570       32.294       33.613      996.643     1042.923     1129.833        0.225        0.158       31.843       21.516        0.457      333.210        2.376      864.208
01/18/2022  09:47:00      -21.124       -2.397      -12.564       32.949       20.646       20.932     1085.646      426.262      438.136        0.128        0.098       21.260       16.813        0.625      333.270        2.474      864.201
01/18/2022  09:48:00       24.484       13.812       -7.339       43.544       35.779       26.136     1896.064     1280.155      683.069        0.235        0.193       28.111       14.962        0.283      333.267        2.471      864.234
01/18/2022  09:49:00       47.537       10.197       -9.630       43.998       46.785       32.502     1935.867     2188.808     1056.411        0.382        0.259       48.618       22.018        0.205      333.227        2.404      864.264
01/18/2022  09:50:00       42.476       31.108      -22.436       45.210       41.929       21.842     2043.919     1758.031      477.087        0.378        0.214       52.649       11.135        0.045      333.280        2.493      864.270
01/18/2022  09:51:00       40.460       16.977      -10.992       35.548       39.656       21.856     1263.649     1572.567      477.666        0.268        0.166       43.878       14.763        0.113      333.168        2.307      864.277
01/18/2022  09:52:00      100.882       39.504      -23.247       18.468       14.887       15.096      341.058      221.634      227.889        0.653        0.040      108.341        8.416        0.006      333.023        2.067      864.276
01/18/2022  09:53:00       89.129       28.257      -14.953       36.189       32.642       19.456     1309.678     1065.499      378.548        0.586        0.138       93.502       14.783        0.025      333.101        2.194      864.253
01/18/2022  09:54:00       69.339        3.160      -11.806       43.889       32.190       20.958     1926.266     1036.184      439.221        0.418        0.170       69.411       22.082        0.101      333.120        2.228      864.245
01/18/2022  09:55:00       82.489       38.675      -15.989       30.259       32.435       18.836      915.626     1052.055      354.785        0.544        0.116       91.106        9.227        0.010      333.163        2.298      864.256
01/18/2022  09:56:00       99.070       31.236      -23.124       21.332       18.387       17.007      455.072      338.080      289.234        0.620        0.054      103.878       11.121        0.011      333.069        2.142      864.284
01/18/2022  09:57:00       71.018       24.097      -13.029       33.393       29.443       18.320     1115.113      866.882      335.637        0.406        0.116       74.995       10.305        0.019      333.264        2.467      864.305
01/18/2022  09:58:00       54.652       31.241      -12.239       31.224       26.984       19.471      974.915      728.123      379.118        0.310        0.104       62.951       12.719        0.041      333.375        2.649      864.325
01/18/2022  09:59:00       64.101       58.016       -7.040       34.787       27.620       19.820     1210.134      762.890      392.835        0.494        0.118       86.457        8.902        0.011      333.346        2.602      864.352
01/18/2022  10:00:00       23.067       -5.122       -7.340       32.716       22.149       18.064     1070.344      490.556      326.292        0.125        0.094       23.629       16.185        0.469      333.520        2.889      864.353
01/18/2022  10:01:00       32.888       26.405      -17.315       29.060       34.632       21.707      844.512     1199.381      471.187        0.230        0.126       42.177       10.957        0.067      333.496        2.850      864.352
01/18/2022  10:02:00       36.479       20.200        2.421       47.530       44.651       21.050     2259.118     1993.702      443.106        0.322        0.235       41.698       20.832        0.250      333.488        2.836      864.346
01/18/2022  10:03:00       37.461      -12.004      -19.168       28.322       29.853       20.365      802.149      891.215      414.714        0.201        0.105       39.337       13.419        0.116      333.605        3.030      864.338
01/18/2022  10:04:00        4.984       -6.580      -15.255       24.698       20.763       20.502      610.010      431.084      420.346        0.088        0.073        8.254       14.167        2.946      333.583        2.993      864.332
01/18/2022  10:05:00        1.885      -15.525      -20.750       19.344       24.873       19.981      374.209      618.684      399.260        0.103        0.070       15.639        3.077        0.039      333.832        3.407      864.326
01/18/2022  10:06:00       10.112        1.555       -7.360       21.945       24.807       18.481      481.575      615.381      341.546        0.080        0.072       10.230       17.352        2.877      333.822        3.388      864.329
01/18/2022  10:07:00       46.241       12.033       -3.161       32.632       19.380       20.631     1064.827      375.594      425.644        0.208        0.093       47.780       13.583        0.081      333.731        3.238      864.323
01/18/2022  10:08:00       64.723       29.771      -18.141       35.998       21.968       21.033     1295.863      482.602      442.378        0.381        0.111       71.242       12.952        0.033      333.609        3.036      864.326
01/18/2022  10:09:00       91.561       61.155      -20.268       29.250       20.881       15.705      855.549      436.034      246.648        0.704        0.077      110.106        9.953        0.008      333.443        2.762      864.328
01/18/2022  10:10:00      109.362       55.413      -18.209       26.372       18.378       16.417      695.491      337.765      269.522        0.833        0.065      122.599       10.561        0.007      333.495        2.849      864.354
01/18/2022  10:11:00       64.838       48.583      -10.494       27.614       28.330       20.975      762.517      802.614      439.944        0.434        0.100       81.020       15.019        0.034      333.585        2.997      864.364
01/18/2022  10:12:00       64.403       -5.130      -14.517       41.914       54.996       33.420     1756.818     3024.561     1116.892        0.514        0.295       64.607       20.486        0.101      333.885        3.494      864.367
01/18/2022  10:13:00       39.438      -46.140      -41.408       41.685       72.487       38.872     1737.616     5254.391     1511.062        0.695        0.425       60.698       35.772        0.347      334.123        3.888      864.358
01/18/2022  10:14:00       34.069      -71.208      -27.634       38.039       56.393       37.938     1446.975     3180.132     1439.265        0.653        0.303       78.939       25.677        0.106      334.096        3.845      864.367
01/18/2022  10:15:00       -0.340      -51.297      -20.523       47.631       43.120       31.566     2268.689     1859.339      996.385        0.409        0.256       51.298       31.237        0.371      333.866        3.462      864.363
01/18/2022  10:16:00       51.911        0.140      -27.991       42.888       54.890       25.045     1839.345     3012.894      627.236        0.448        0.274       51.911       30.528        0.346      333.951        3.603      864.359
01/18/2022  10:17:00       28.901       14.189      -10.135       28.678       37.440       21.906      822.441     1401.787      479.894        0.192        0.135       32.197        5.362        0.028      334.050        3.767      864.355
01/18/2022  10:18:00       24.973      -36.309      -14.523       30.766       51.462       45.367      946.532     2648.298     2058.192        0.390        0.283       44.068       16.572        0.141      334.181        3.983      864.336
01/18/2022  10:19:00       72.813      -90.139      -22.517       54.551       43.470       30.820     2975.782     1889.665      949.879        0.987        0.291      115.874       26.250        0.051      334.091        3.835      864.321
01/18/2022  10:20:00       37.616      -49.352      -32.583       43.361       51.672       35.084     1880.143     2669.975     1230.892        0.535        0.289       62.053       22.683        0.134      334.240        4.083      864.317
01/18/2022  10:21:00        6.726       -3.504       -1.271       32.731       43.417       23.291     1071.335     1885.063      542.488        0.178        0.175        7.585       21.783        8.249      334.287        4.160      864.315
01/18/2022  10:22:00       46.916       17.711      -20.160       30.723       58.499       26.457      943.905     3422.092      699.968        0.399        0.253       50.148       25.087        0.250      334.277        4.143      864.306
01/18/2022  10:23:00       24.026        3.373      -25.844       48.413       46.064       23.031     2343.863     2121.925      530.413        0.313        0.250       24.262       16.662        0.472      334.398        4.343      864.308
01/18/2022  10:24:00       33.093        0.126      -16.960       61.648       46.085       28.781     3800.523     2123.789      828.329        0.407        0.338       33.093       20.054        0.367      334.445        4.421      864.321
01/18/2022  10:25:00       45.423      -29.754      -19.709       56.403       79.248       40.647     3181.313     6280.175     1652.186        0.722        0.556       54.301       23.549        0.188      334.511        4.531      864.358
01/18/2022  10:26:00       62.604        1.554      -33.044       47.055       78.767       32.454     2214.206     6204.186     1053.239        0.724        0.474       62.624       12.579        0.040      334.485        4.488      864.344
01/18/2022  10:27:00       61.042      -14.994      -17.443       50.833       40.350       34.842     2584.001     1628.104     1213.950        0.484        0.271       62.857       25.481        0.164      334.230        4.066      864.329
01/18/2022  10:28:00       57.742       22.092      -16.569       46.717       55.913       34.855     2182.474     3126.304     1214.905        0.531        0.326       61.824       27.649        0.200      334.366        4.292      864.334
01/18/2022  10:29:00       59.631     -105.010      -17.127       50.473       59.862       36.828     2547.554     3583.504     1356.335        1.118        0.374      120.760       28.502        0.056      334.294        4.171      864.316
01/18/2022  10:30:00       47.462      -28.410      -12.677       46.359       42.349       43.675     2149.154     1793.423     1907.464        0.453        0.293       55.315       34.534        0.390      334.638        4.742      864.308
01/18/2022  10:31:00      111.333      -29.029      -29.797       53.724       52.464       40.275     2886.220     2752.447     1622.062        1.069        0.363      115.055       28.680        0.062      334.321        4.216      864.303
01/18/2022  10:32:00       66.645       -5.896       -6.260       71.581       71.635       57.731     5123.863     5131.553     3332.843        0.905        0.679       66.906       41.639        0.387      334.465        4.454      864.294
01/18/2022  10:33:00       71.512      -14.442      -21.353       64.331       51.273       46.555     4138.429     2628.921     2167.331        0.735        0.447       72.955       37.832        0.269      334.214        4.039      864.304
01/18/2022  10:34:00       17.977      -34.727      -30.811       37.516       59.025       34.253     1407.464     3484.001     1173.251        0.427        0.303       39.104       21.499        0.302      334.643        4.751      864.324
01/18/2022  10:35:00       68.440      -14.032      -11.763       64.268       55.819       55.083     4130.422     3115.812     3034.104        0.765        0.514       69.863       42.602        0.372      334.430        4.398      864.336
01/18/2022  10:36:00      116.237       -5.126      -27.217       59.760       61.748       42.640     3571.295     3812.868     1818.129        1.174        0.460      116.350       29.479        0.064      334.109        3.865      864.362
01/18/2022  10:37:00       83.899       31.066      -13.195       59.077       40.083       23.672     3490.122     1606.624      560.379        0.692        0.283       89.466       13.492        0.023      334.083        3.821      864.384
01/18/2022  10:38:00       33.364        8.910      -12.917       31.786       55.480       29.243     1010.368     3078.063      855.145        0.315        0.247       34.533       16.195        0.220      334.474        4.469      864.399
01/18/2022  10:39:00       46.073       57.935        4.212       67.224       45.084       28.599     4519.118     2032.600      817.894        0.643        0.368       74.021       30.492        0.170      334.514        4.537      864.405
01/18/2022  10:40:00      119.560       42.799      -22.935       58.144       65.415       31.744     3380.757     4279.162     1007.711        1.266        0.433      126.989       24.908        0.038      334.586        4.656      864.405
01/18/2022  10:41:00       69.075       38.184      -16.730       69.157       49.966       21.647     4782.622     2496.553      468.614        0.713        0.387       78.927       20.756        0.069      334.490        4.495      864.417
01/18/2022  10:42:00      -38.878       -1.910      -15.821       40.041       39.547       26.201     1603.263     1563.980      686.483        0.281        0.193       38.924       20.424        0.275      334.579        4.644      864.425
01/18/2022  10:43:00       31.722       13.955      -25.564       40.289       50.371       41.599     1623.236     2537.195     1730.438        0.387        0.295       34.655       28.206        0.662      334.476        4.472      864.428
01/18/2022  10:44:00       35.889      -11.631      -18.684       40.170       54.811       38.518     1613.645     3004.230     1483.632        0.394        0.305       37.727       30.271        0.644      334.525        4.554      864.426
01/18/2022  10:45:00       -2.535      -25.084      -19.846       28.253       25.578       22.842      798.226      654.219      521.753        0.150        0.099       25.212       13.762        0.298      334.500        4.512      864.424
01/18/2022  10:46:00      -21.742      -53.866       -8.298       45.163       45.199       31.839     2039.700     2042.940     1013.713        0.427        0.255       58.089       23.458        0.163      334.605        4.688      864.426
01/18/2022  10:47:00        1.943      -46.082      -26.699       33.080       48.206       27.335     1094.315     2323.807      747.221        0.350        0.208       46.123       25.244        0.300      334.683        4.816      864.424
01/18/2022  10:48:00       18.342       -5.524      -18.147       36.226       36.885       18.348     1312.330     1360.532      336.642        0.185        0.150       19.156       17.297        0.815      334.696        4.839      864.419
01/18/2022  10:49:00      100.868       49.397      -23.154       49.984       53.190       35.488     2498.437     2829.204     1259.421        0.987        0.329      112.314       18.196        0.026      334.526        4.557      864.416
01/18/2022  10:50:00        8.027       68.778        5.850       54.213       37.042       37.080     2939.025     1372.083     1374.921        0.526        0.284       69.244       20.161        0.085      334.639        4.745      864.398
01/18/2022  10:51:00      -23.595       -5.888       -7.787       41.827       32.655       27.763     1749.481     1066.354      770.777        0.212        0.179       24.319       17.294        0.506      334.822        5.049      864.391
01/18/2022  10:52:00       44.750      -64.914      -19.352       39.561       57.427       29.171     1565.038     3297.819      850.973        0.615        0.286       78.845       18.788        0.057      334.889        5.159      864.394
01/18/2022  10:53:00       84.553      -94.659      -37.004       45.586       51.372       29.816     2078.120     2639.046      889.013        1.154        0.280      126.924       24.370        0.037      334.739        4.911      864.381
01/18/2022  10:54:00      118.356      -98.069      -38.393       56.474       56.243       32.875     3189.307     3163.302     1080.735        1.627        0.372      153.706       26.926        0.031      334.582        4.648      864.368
01/18/2022  10:55:00       11.289      -68.492      -20.290       34.795       43.678       23.593     1210.689     1907.791      556.614        0.445        0.184       69.416       18.530        0.071      334.885        5.152      864.353
01/18/2022  10:56:00       30.594      -67.159      -13.601       36.372       48.197       31.503     1322.893     2322.912      992.460        0.513        0.232       73.799       27.595        0.140      334.939        5.244      864.335
01/18/2022  10:57:00       -2.250      -62.776       -8.032       63.364       55.738       33.372     4015.011     3106.750     1113.708        0.612        0.412       62.816       27.761        0.195      335.021        5.379      864.321
01/18/2022  10:58:00       37.516       53.280       -1.303       33.309       41.795       27.400     1109.461     1746.809      750.776        0.393        0.180       65.163       16.536        0.064      334.783        4.984      864.323
01/18/2022  10:59:00       37.084       61.272       14.495       47.075       56.738       38.831     2216.061     3219.192     1507.869        0.614        0.347       71.620       15.863        0.049      334.892        5.164      864.298
01/18/2022  11:00:00       45.105       -2.822      -26.732       55.541       54.271       26.643     3084.748     2945.340      709.840        0.475        0.337       45.193       12.011        0.071      334.831        5.064      864.275
01/18/2022  11:01:00       76.925      -88.351      -27.829       66.122       59.896       45.643     4372.084     3587.579     2083.270        1.227        0.502      117.146       35.966        0.094      334.922        5.216      864.250
01/18/2022  11:02:00       43.187       -1.865      -11.282       38.986       61.175       32.539     1519.887     3742.419     1058.805        0.416        0.316       43.228       17.706        0.168      335.096        5.503      864.228
01/18/2022  11:03:00       48.829      -18.553      -20.017       48.491       79.036       41.515     2351.417     6246.766     1723.502        0.672        0.516       52.234       25.095        0.231      335.207        5.688      864.194
01/18/2022  11:04:00       62.224      -27.867      -47.819       50.176       50.221       34.278     2517.610     2522.198     1174.970        0.657        0.311       68.179       24.002        0.124      335.073        5.465      864.185
01/18/2022  11:05:00       56.068       16.443      -23.314       39.147       56.782       42.082     1532.486     3224.159     1770.912        0.524        0.326       58.429       22.200        0.144      334.766        4.954      864.185
01/18/2022  11:06:00       73.207       34.038      -20.548       25.309       24.285       15.360      640.540      589.778      235.922        0.420        0.073       80.733        9.036        0.013      334.499        4.514      864.190
01/18/2022  11:07:00       53.656      -91.217      -24.098       31.800       46.650       24.056     1011.239     2176.217      578.705        0.777        0.188      105.828       16.473        0.024      334.791        4.997      864.181
01/18/2022  11:08:00       16.010      -52.457       -0.025       36.238       67.079       28.532     1313.165     4499.634      814.094        0.482        0.331       54.846       29.560        0.290      334.996        5.337      864.164
01/18/2022  11:09:00       76.191       52.212      -13.936       43.336       44.417       22.760     1878.006     1972.900      518.006        0.655        0.218       92.364       10.447        0.013      334.728        4.891      864.155
01/18/2022  11:10:00       68.539       52.114      -11.982       18.013       20.003       13.692      324.460      400.103      187.475        0.423        0.046       86.102        5.525        0.004      334.571        4.632      864.126
01/18/2022  11:11:00       55.453       78.934        0.123       25.286       24.958       20.396      639.396      622.906      415.986        0.549        0.084       96.466       12.111        0.016      334.746        4.922      864.093
01/18/2022  11:12:00       31.819       52.448        2.842       28.804       24.612       19.585      829.687      605.738      383.566        0.279        0.091       61.345       14.477        0.056      334.843        5.082      864.066
01/18/2022  11:13:00       -0.359      -46.470       -6.623       37.586       39.940       22.281     1412.739     1595.167      496.442        0.285        0.175       46.471       10.139        0.048      335.193        5.665      864.040
01/18/2022  11:14:00        9.301        3.834      -12.177       49.237       47.174       29.817     2424.235     2225.431      889.033        0.289        0.277       10.061       20.378        4.103      335.189        5.657      864.015
01/18/2022  11:15:00       75.749       21.096      -22.862       43.755       63.876       32.373     1914.497     4080.099     1048.038        0.687        0.352       78.632       16.947        0.046      335.056        5.437      863.998
01/18/2022  11:16:00       95.614       79.531      -12.593       27.543       30.465       20.115      758.633      928.118      404.618        0.886        0.105      124.367       11.186        0.008      334.850        5.095      863.992
01/18/2022  11:17:00       50.746        6.839      -22.996       44.416       58.424       27.717     1972.818     3413.361      768.237        0.465        0.308       51.204       26.578        0.269      335.246        5.753      863.971
01/18/2022  11:18:00       59.011       41.288      -22.663       37.919       40.921       31.939     1437.813     1674.499     1020.088        0.492        0.207       72.021       18.164        0.064      335.193        5.663      863.955
01/18/2022  11:19:00       18.279       13.581      -24.755       45.201       52.388       25.772     2043.130     2744.468      664.208        0.329        0.273       22.772       19.911        0.764      335.364        5.949      863.941
01/18/2022  11:20:00      -24.560      -18.836      -16.436       33.020       34.818       24.569     1090.306     1212.272      603.644        0.207        0.145       30.952       17.931        0.336      335.373        5.962      863.927
01/18/2022  11:21:00       32.298      -42.931      -11.867       40.544       63.424       37.453     1643.788     4022.553     1402.731        0.505        0.353       53.724       28.680        0.285      335.458        6.105      863.920
01/18/2022  11:22:00       97.769      -22.116      -23.982       73.168       59.574       34.517     5353.625     3549.028     1191.442        1.036        0.505      100.239       27.867        0.077      335.067        5.455      863.917
01/18/2022  11:23:00       75.293       25.342      -23.237       39.382       25.011       25.469     1550.964      625.526      648.684        0.484        0.141       79.444       24.098        0.092      334.835        5.070      863.940
01/18/2022  11:24:00       -8.931        3.452      -15.728       47.946       42.553       22.055     2298.790     1810.764      486.411        0.247        0.230        9.575       19.637        4.207      335.348        5.923      863.933
01/18/2022  11:25:00       54.515      -73.260      -28.510       60.735       75.522       43.705     3688.699     5703.617     1910.108        1.022        0.565       91.318       37.048        0.165      335.415        6.035      863.937
01/18/2022  11:26:00       69.546     -106.641      -35.682       55.599       61.882       37.871     3091.303     3829.433     1434.182        1.292        0.418      127.314       36.678        0.083      335.259        5.774      863.926
01/18/2022  11:27:00        4.103      -66.071      -11.514       42.045       65.379       27.383     1767.784     4274.410      749.844        0.565        0.340       66.199       23.890        0.130      335.055        5.436      863.933
01/18/2022  11:28:00      -10.084       27.390       -4.212       33.859       37.186       21.884     1146.403     1382.822      478.897        0.194        0.150       29.187       17.554        0.362      335.443        6.080      863.926
01/18/2022  11:29:00       59.943       56.114      -12.195       45.082       45.237       37.647     2032.378     2046.414     1417.291        0.619        0.275       82.109       24.073        0.086      335.526        6.218      863.915
01/18/2022  11:30:00       47.745       40.114      -21.404       37.522       56.512       34.837     1407.906     3193.599     1213.618        0.508        0.291       62.360       17.960        0.083      335.469        6.125      863.920
01/18/2022  11:31:00       55.079       27.830      -25.699       58.503       61.593       41.993     3422.592     3793.643     1763.373        0.672        0.449       61.711       25.283        0.168      335.479        6.140      863.924
01/18/2022  11:32:00      145.290       61.049      -19.098       53.581       46.385       35.259     2870.886     2151.528     1243.190        1.573        0.313      157.595       28.016        0.032      335.223        5.714      863.935
01/18/2022  11:33:00      122.730       48.274      -27.751       30.075       29.354       17.997      904.526      861.653      323.901        1.013        0.105      131.883       11.628        0.008      335.075        5.468      863.947
01/18/2022  11:34:00       38.386       37.288      -15.072       77.925       42.008       33.503     6072.358     1764.700     1122.424        0.602        0.448       53.515       28.516        0.284      335.658        6.438      863.951
01/18/2022  11:35:00       16.754       29.657       -5.845       63.058       38.246       33.032     3976.340     1462.727     1091.086        0.386        0.327       34.062       13.628        0.160      335.912        6.862      863.963
01/18/2022  11:36:00       41.190       26.798       -6.570       61.677       58.127       29.734     3804.019     3378.748      884.090        0.526        0.403       49.140       16.336        0.111      335.736        6.568      863.973
01/18/2022  11:37:00      109.311       84.954      -20.550       42.535       43.292       26.369     1809.192     1874.232      695.310        1.198        0.219      138.442       14.655        0.011      335.406        6.018      863.982
01/18/2022  11:38:00       19.676       -1.826      -14.097       41.586       41.002       33.519     1729.391     1681.172     1123.541        0.256        0.227       19.761       20.567        1.083      335.846        6.752      863.976
01/18/2022  11:39:00       42.628       48.389       -0.680       30.673       25.974       22.426      940.822      674.647      502.935        0.314        0.106       64.488       14.403        0.050      335.591        6.327      863.974
01/18/2022  11:40:00       -9.399       25.440       -2.511       49.017       49.273       22.765     2402.678     2427.830      518.223        0.304        0.267       27.120        2.913        0.012      335.910        6.859      863.940
01/18/2022  11:41:00       29.976      -15.120       -4.922       46.288       29.841       25.776     2142.624      890.465      664.396        0.242        0.185       33.573       19.322        0.331      335.877        6.804      863.915
01/18/2022  11:42:00       24.712       32.674      -13.950       28.516       47.569       29.895      813.162     2262.803      893.732        0.292        0.198       40.966       20.403        0.248      335.832        6.728      863.888
01/18/2022  11:43:00       40.827      -24.383      -43.819       38.003       59.146       31.965     1444.227     3498.245     1021.757        0.507        0.298       47.554       16.164        0.116      335.767        6.620      863.865
01/18/2022  11:44:00       40.871      -38.407      -34.082       41.421      100.515       38.400     1715.702    10103.364     1474.555        0.880        0.665       56.085       24.631        0.193      335.674        6.464      863.859
01/18/2022  11:45:00       15.447      -37.687      -23.575       40.174       84.105       37.693     1613.916     7073.682     1420.733        0.616        0.505       40.730       21.731        0.285      335.692        6.495      863.854
01/18/2022  11:46:00       27.602      -62.640      -28.070       49.040       69.222       33.364     2404.962     4791.661     1113.188        0.689        0.415       68.452       22.965        0.113      335.669        6.457      863.859
01/18/2022  11:47:00       -9.915      -47.680      -27.970       24.104       53.914       30.976      581.002     2906.701      959.499        0.380        0.222       48.701       25.258        0.269      335.521        6.210      863.857
01/18/2022  11:48:00       67.995       39.673      -11.960       69.451       45.869       27.892     4823.393     2103.979      777.949        0.702        0.385       78.723       27.875        0.125      335.812        6.696      863.854
01/18/2022  11:49:00       85.083       71.743       -9.198       46.907       28.025       37.791     2200.252      785.418     1428.175        0.844        0.221      111.293       24.009        0.047      335.702        6.512      863.866
01/18/2022  11:50:00      133.165       93.111      -27.123       27.324       26.284       22.830      746.614      690.865      521.205        1.455        0.098      162.489       11.071        0.005      335.683        6.480      863.877
01/18/2022  11:51:00       89.350       72.819      -28.398       18.134       18.359       15.286      328.857      337.059      233.670        0.750        0.045      115.265        8.282        0.005      335.644        6.416      863.883
01/18/2022  11:52:00       54.480       61.300      -13.173       25.753       27.873       20.487      663.222      776.925      419.723        0.438        0.093       82.010        6.825        0.007      335.756        6.602      863.870
01/18/2022  11:53:00       15.030      -26.028       -2.082       33.238       82.388       35.032     1104.781     6787.733     1227.215        0.501        0.456       30.056       24.203        0.648      336.056        7.102      863.860
01/18/2022  11:54:00       50.434      -96.215      -30.599       56.964       62.717       45.301     3244.874     3933.423     2052.201        1.098        0.462      108.632       35.508        0.107      336.167        7.286      863.835
01/18/2022  11:55:00       85.216     -117.834      -42.877       57.120       55.071       36.122     3262.651     3032.851     1304.833        1.529        0.380      145.419       35.401        0.059      335.850        6.758      863.822
01/18/2022  11:56:00       77.433       63.625      -16.093       62.689       64.781       41.096     3929.920     4196.542     1688.866        1.006        0.491      100.220       22.079        0.049      336.042        7.078      863.821
01/18/2022  11:57:00       73.147       63.826       -8.009       52.876       31.663       23.028     2795.871     1002.566      530.311        0.691        0.216       97.078       24.795        0.065      335.772        6.629      863.816
01/18/2022  11:58:00      -42.605      -18.824       -4.590       37.586       30.558       24.635     1412.673      933.806      606.899        0.257        0.148       46.578       18.526        0.158      336.356        7.603      863.807
01/18/2022  11:59:00      -36.388        2.575       -7.472       30.878       30.160       23.131      953.457      909.601      535.052        0.189        0.120       36.479       20.891        0.328      336.526        7.888      863.809
01/18/2022  12:00:00      -31.036       20.935      -25.143       39.265       36.695       20.651     1541.729     1346.499      426.466        0.267        0.166       37.437       14.359        0.147      336.404        7.682      863.811
01/18/2022  12:01:00       66.474       30.043      -14.487       56.450       46.327       30.570     3186.554     2146.236      934.518        0.590        0.313       72.948       13.853        0.036      336.061        7.110      863.824
01/18/2022  12:02:00       20.016      -13.485      -26.054       42.458       41.416       31.483     1802.668     1715.286      991.197        0.288        0.225       24.134       19.758        0.670      336.354        7.599      863.827
01/18/2022  12:03:00       74.442     -142.735      -37.127       49.126       41.427       24.698     2413.318     1716.227      609.986        1.602        0.237      160.981       10.886        0.005      335.835        6.733      863.826
01/18/2022  12:04:00      116.130     -151.880      -53.270       45.346       46.164       29.257     2056.261     2131.128      855.981        2.222        0.252      191.190       27.732        0.021      335.762        6.610      863.808
01/18/2022  12:05:00       85.763      -42.152      -41.465       64.607       94.530       33.129     4174.067     8935.986     1097.548        1.253        0.710       95.562       23.757        0.062      336.015        7.032      863.795
01/18/2022  12:06:00       62.030       31.922      -25.410       48.937       52.955       36.096     2394.782     2804.285     1302.929        0.601        0.325       69.762       27.162        0.152      336.153        7.263      863.777
01/18/2022  12:07:00       91.922       31.447      -31.934       43.501       73.211       33.041     1892.306     5359.867     1091.709        0.940        0.417       97.152       22.862        0.055      336.028        7.054      863.755
01/18/2022  12:08:00        2.771       10.305      -13.193       50.986       61.044       31.964     2599.586     3726.340     1021.686        0.382        0.367       10.671       21.615        4.103      336.425        7.718      863.742
01/18/2022  12:09:00       60.076     -138.520      -41.190       69.006       68.131       30.660     4761.862     4641.786      940.032        1.742        0.517      150.986       34.796        0.053      336.017        7.036      863.741
01/18/2022  12:10:00       72.466      -67.806      -31.706       36.102       54.560       29.084     1303.333     2976.806      845.899        0.799        0.256       99.242       29.349        0.087      336.164        7.283      863.743
01/18/2022  12:11:00       17.958      -25.431       -8.689       29.623       41.968       22.787      877.515     1761.342      519.226        0.210        0.158       31.132       17.239        0.307      336.695        8.171      863.764
01/18/2022  12:12:00        6.457       -5.074       -6.182       50.345       29.924       23.874     2534.621      895.433      569.962        0.205        0.200        8.212       13.679        2.775      336.587        7.990      863.749
01/18/2022  12:13:00       77.761       69.190       -8.500       52.252       28.859       27.205     2730.288      832.849      740.104        0.760        0.215      104.087       19.937        0.037      336.190        7.324      863.746
01/18/2022  12:14:00      -20.529      -29.002      -12.723       58.635       82.647       38.912     3438.094     6830.573     1514.123        0.660        0.589       35.532       42.744        1.447      336.567        7.957      863.727
01/18/2022  12:15:00       55.860     -103.509      -31.807       63.403       56.340       45.293     4019.882     3174.197     2051.460        1.204        0.462      117.621       29.739        0.064      336.554        7.933      863.714
01/18/2022  12:16:00        2.163      -28.792      -26.330       87.502       76.791       51.138     7656.561     5896.860     2615.113        0.884        0.808       28.874       49.136        2.896      336.626        8.055      863.717
01/18/2022  12:17:00      -15.322      -29.485      -12.128       56.387       48.830       44.247     3179.472     2384.378     1957.836        0.439        0.376       33.228       32.512        0.957      336.689        8.159      863.732
01/18/2022  12:18:00       68.155     -135.437      -33.498       44.127       27.473       27.759     1947.210      754.790      770.537        1.379        0.174      151.619       20.516        0.018      336.059        7.106      863.741
01/18/2022  12:19:00       49.347     -103.142      -28.641       38.608       48.244       38.827     1490.588     2327.493     1507.516        0.961        0.266      114.339       19.815        0.030      336.389        7.659      863.738
01/18/2022  12:20:00      -29.532      -21.499       -9.247       52.089       36.683       29.755     2713.242     1345.612      885.353        0.318        0.247       36.528       22.616        0.383      336.714        8.202      863.735
01/18/2022  12:21:00      -35.467      -13.969      -10.189       37.058       22.133       34.350     1373.309      489.883     1179.936        0.230        0.152       38.119       20.405        0.287      336.801        8.348      863.738
01/18/2022  12:22:00       43.809      -54.776      -39.595       40.915       87.038       34.564     1674.069     7575.641     1194.702        0.846        0.522       70.140       11.928        0.029      336.455        7.769      863.734
01/18/2022  12:23:00        0.393      -10.341      -10.103       33.937       51.913       28.079     1151.718     2694.924      788.436        0.242        0.232       10.348       19.611        3.591      336.669        8.127      863.717
01/18/2022  12:24:00       10.419      -11.237      -23.228       33.257       48.531       33.272     1106.056     2355.295     1107.038        0.267        0.228       15.324       20.979        1.874      336.720        8.211      863.692
01/18/2022  12:25:00       19.943        8.018      -21.413       58.317       63.773       38.250     3400.826     4067.020     1463.076        0.492        0.447       21.494       29.133        1.837      336.573        7.965      863.676
01/18/2022  12:26:00       39.039       55.120      -11.978       86.330       60.940       31.334     7452.901     3713.685      981.817        0.842        0.607       67.544       26.496        0.154      336.522        7.880      863.649
01/18/2022  12:27:00       67.653       63.595       -7.210       42.085       29.494       26.411     1771.142      869.900      697.530        0.601        0.167       92.851       17.803        0.037      336.460        7.777      863.628
01/18/2022  12:28:00       45.658       14.005      -22.279       38.436       62.400       37.444     1477.292     3893.762     1402.040        0.477        0.339       47.757       34.693        0.528      336.645        8.087      863.602
01/18/2022  12:29:00       60.864     -141.272      -20.249       28.149       41.095       26.362      792.382     1688.803      694.970        1.362        0.159      153.825       18.469        0.014      336.435        7.735      863.584
01/18/2022  12:30:00       80.507     -136.113      -41.603       30.225       42.320       23.668      913.525     1791.018      560.184        1.500        0.163      158.140       19.792        0.016      336.360        7.610      863.561
01/18/2022  12:31:00      125.199     -183.320      -52.128       79.125       88.168       54.428     6260.690     7773.572     2962.391        3.449        0.850      221.993       50.237        0.051      336.430        7.723      863.539
01/18/2022  12:32:00      133.959     -224.187      -49.108       54.007       50.334       33.426     2916.717     2533.503     1117.301        3.859        0.328      261.161       27.435        0.011      336.182        7.309      863.526
01/18/2022  12:33:00      116.536     -123.847      -41.281       67.110       83.072       38.606     4503.724     6901.016     1490.443        2.176        0.645      170.055       46.167        0.074      336.383        7.645      863.506
01/18/2022  12:34:00       52.572     -121.539      -24.623       54.361       68.871       37.527     2955.119     4743.257     1408.313        1.362        0.455      132.421       30.522        0.053      336.675        8.135      863.488
01/18/2022  12:35:00      135.534     -177.288      -50.662       77.162       82.290       49.599     5953.977     6771.610     2460.106        3.377        0.759      223.160       38.870        0.030      336.632        8.060      863.456
01/18/2022  12:36:00       69.805     -151.064      -27.483       71.014       83.392       41.968     5042.998     6954.249     1761.286        2.110        0.688      166.413       33.464        0.040      336.731        8.227      863.442
01/18/2022  12:37:00       64.413     -153.299      -33.032       56.200       52.128       42.244     3158.439     2717.379     1784.530        1.820        0.383      166.282       31.208        0.035      336.793        8.331      863.433
01/18/2022  12:38:00       96.900     -131.087      -44.458       70.484       65.607       41.248     4967.943     4304.331     1701.436        1.976        0.549      163.014       45.056        0.076      336.708        8.190      863.427
01/18/2022  12:39:00      111.682     -174.589      -51.459       54.619       70.874       35.399     2983.206     5023.114     1253.057        2.743        0.463      207.254       24.308        0.014      336.689        8.157      863.411
01/18/2022  12:40:00       99.861     -163.084      -43.050       57.533       41.589       28.974     3310.037     1729.637      839.519        2.215        0.294      191.229       25.191        0.017      336.725        8.218      863.393
01/18/2022  12:41:00      -48.629      -17.242       -3.196       40.822       37.176       29.122     1666.475     1382.040      848.072        0.328        0.195       51.595       17.629        0.117      337.191        8.999      863.387
01/18/2022  12:42:00       35.244      -90.363      -33.129       83.322       87.258       40.570     6942.632     7613.982     1645.920        1.335        0.810       96.993       37.376        0.148      336.816        8.371      863.361
01/18/2022  12:43:00       81.338     -173.753      -28.977       41.550       43.764       30.302     1726.409     1915.255      918.240        2.110        0.228      191.848       17.954        0.009      336.572        7.962      863.337
01/18/2022  12:44:00       -5.354      -64.688      -21.705       64.893       50.534       29.010     4211.050     2553.678      841.565        0.614        0.380       64.909       12.664        0.038      336.859        8.443      863.321
01/18/2022  12:45:00      -22.454      -11.641      -19.898       39.133       47.810       30.298     1531.375     2285.842      917.981        0.288        0.237       25.292       23.544        0.867      337.066        8.791      863.305
01/18/2022  12:46:00       31.063      -92.976      -32.720       54.761       50.925       27.511     2998.765     2593.326      756.874        0.851        0.317       98.028       21.605        0.049      337.161        8.948      863.281
01/18/2022  12:47:00       87.277     -176.642      -39.526       48.189       52.355       35.900     2322.188     2741.019     1288.811        2.337        0.318      197.027       30.578        0.024      337.001        8.680      863.281
01/18/2022  12:48:00      125.825     -131.886      -37.356       66.598       67.104       51.242     4435.243     4502.971     2625.712        2.309        0.578      182.279       51.146        0.079      336.782        8.313      863.275
01/18/2022  12:49:00      110.235     -178.202      -39.028       34.708       59.510       22.145     1204.660     3541.446      490.390        2.533        0.262      209.542       21.426        0.010      336.548        7.920      863.309
01/18/2022  12:50:00      127.395     -132.381      -41.213       60.344       55.212       37.591     3641.338     3048.340     1413.111        2.178        0.405      183.723       42.371        0.053      336.659        8.110      863.317
01/18/2022  12:51:00      147.120     -168.617      -53.842       52.686       55.532       36.904     2775.793     3083.846     1361.922        3.010        0.361      223.776       31.202        0.019      336.633        8.062      863.314
01/18/2022  12:52:00       71.852     -125.656      -30.022       57.664       44.570       37.020     3325.178     1986.455     1370.484        1.427        0.334      144.748       27.350        0.036      336.881        8.480      863.333
01/18/2022  12:53:00       72.109      -79.415      -41.585       29.351       59.476       28.569      861.459     3537.405      816.159        0.922        0.261      107.268       23.992        0.050      336.681        8.146      863.324
01/18/2022  12:54:00       73.334      -38.972      -24.400       54.375       59.784       42.176     2956.684     3574.140     1778.805        0.790        0.415       83.046       37.056        0.199      336.992        8.666      863.316
01/18/2022  12:55:00       48.187     -115.659      -26.605       25.969       33.332       21.546      674.385     1111.001      464.235        0.933        0.112      125.296       16.070        0.016      336.868        8.458      863.298
01/18/2022  12:56:00       57.305     -132.799      -36.465       43.881       50.019       30.946     1925.540     2501.894      957.634        1.382        0.269      144.636       24.244        0.028      337.036        8.740      863.285
01/18/2022  12:57:00       70.874     -118.105      -32.206       58.546       75.194       33.131     3427.653     5654.211     1097.655        1.509        0.509      137.738       34.157        0.061      337.037        8.741      863.265
01/18/2022  12:58:00      135.453     -132.758      -51.863       60.878       86.429       38.052     3706.165     7469.900     1447.957        2.564        0.631      189.663       35.015        0.034      336.929        8.559      863.241
01/18/2022  12:59:00       93.729     -109.460      -34.632       57.743       65.652       37.364     3334.282     4310.129     1396.068        1.550        0.452      144.106       35.406        0.060      336.996        8.672      863.220
01/18/2022  13:00:00       97.279     -165.217      -50.367       65.971       51.339       34.488     4352.156     2635.656     1189.419        2.374        0.409      191.728       28.823        0.023      337.114        8.866      863.184
01/18/2022  13:01:00      120.990     -107.833      -31.150       58.906       54.632       39.393     3469.932     2984.681     1551.801        1.762        0.400      162.070       38.127        0.055      337.120        8.879      863.136
01/18/2022  13:02:00       99.143      -93.840      -22.673      100.296       96.658       66.447    10059.326     9342.819     4415.163        2.148        1.191      136.511       67.732        0.246      337.224        9.053      863.091
01/18/2022  13:03:00       93.279     -224.427      -43.872       50.433       65.099       36.573     2543.463     4237.901     1337.609        3.455        0.406      243.040       24.442        0.010      336.826        8.385      863.082
01/18/2022  13:04:00       49.303     -166.836      -31.218       72.562       84.510       36.391     5265.284     7141.961     1324.326        2.248        0.687      173.969       40.440        0.054      337.013        8.698      863.069
01/18/2022  13:05:00      114.146     -190.209      -58.638       44.827       64.585       28.002     2009.481     4171.186      784.111        2.980        0.348      221.831       17.447        0.006      336.977        8.638      863.062
01/18/2022  13:06:00       91.803     -106.296      -46.663       63.714      114.443       52.901     4059.447    13097.119     2798.529        2.093        0.998      140.452       54.057        0.148      337.093        8.835      863.061
01/18/2022  13:07:00       90.528     -186.362      -43.286       54.205       72.510       35.009     2938.230     5257.705     1225.622        2.711        0.471      207.186       33.985        0.027      337.019        8.708      863.051
01/18/2022  13:08:00       80.245     -130.033      -40.613       45.918       59.573       28.590     2108.467     3548.917      817.369        1.573        0.324      152.800       10.157        0.004      337.192        9.001      863.035
01/18/2022  13:09:00       65.859      -17.712      -27.702       48.603       83.679       38.390     2362.288     7002.092     1473.821        0.813        0.542       68.199       19.664        0.083      337.234        9.070      863.016
01/18/2022  13:10:00       70.596      -65.131      -22.809       56.538       91.423       44.129     3196.554     8358.214     1947.377        1.162        0.675       96.051       25.797        0.072      337.223        9.053      863.000
01/18/2022  13:11:00      109.265     -242.151      -52.989       31.593       45.209       27.269      998.110     2043.837      743.613        3.858        0.189      265.662       16.436        0.004      336.868        8.452      862.979
01/18/2022  13:12:00       67.167     -226.157      -47.205       28.827       51.891       25.884      831.017     2692.680      669.959        3.104        0.210      235.921       10.560        0.002      336.884        8.481      862.961
01/18/2022  13:13:00       84.461      -95.501      -32.936       55.765       75.237       47.729     3109.704     5660.587     2278.037        1.419        0.552      127.491       28.686        0.051      337.241        9.083      862.944
01/18/2022  13:14:00       99.244     -214.915      -39.338       68.570       71.338       42.445     4701.871     5089.076     1801.580        3.459        0.580      236.723       35.148        0.022      337.232        9.063      862.939
01/18/2022  13:15:00       63.125     -218.165      -43.045       30.094       43.055       22.657      905.660     1853.769      513.341        2.835        0.164      227.114       13.830        0.004      336.935        8.567      862.941
01/18/2022  13:16:00       30.941      -78.316      -13.604       29.580       51.627       27.492      874.950     2665.337      755.797        0.579        0.215       84.206       27.964        0.110      337.141        8.916      862.931
01/18/2022  13:17:00        2.449      -19.782      -11.889       38.956       51.867       25.541     1517.566     2690.157      652.367        0.270        0.243       19.933       21.300        1.142      337.310        9.198      862.899
01/18/2022  13:18:00       50.673     -125.216      -28.003       65.971       75.818       30.656     4352.182     5748.389      939.820        1.503        0.552      135.081       36.746        0.074      337.207        9.024      862.862
01/18/2022  13:19:00       59.473     -134.645      -31.926       39.266       52.201       30.001     1541.792     2724.937      900.044        1.393        0.258      147.195       14.875        0.010      337.231        9.065      862.830
01/18/2022  13:20:00      105.213       14.418      -14.764       80.958       43.020       41.630     6554.242     1850.759     1733.018        1.081        0.507      106.196       32.450        0.093      337.222        9.050      862.789
01/18/2022  13:21:00       80.934       -6.980      -30.491      108.058       82.193       46.085    11676.505     6755.751     2123.858        1.404        1.028       81.234       32.470        0.160      337.309        9.195      862.744
01/18/2022  13:22:00       72.322      -22.322      -34.354       78.192      100.185       43.655     6113.953    10037.096     1905.751        1.248        0.903       75.688       31.177        0.170      337.219        9.046      862.734
01/18/2022  13:23:00       75.079      -38.343      -27.364       60.282       83.385       35.432     3633.937     6953.055     1255.414        0.985        0.592       84.304       31.316        0.138      337.232        9.067      862.731
01/18/2022  13:24:00       73.646      -41.945      -25.957       84.355       72.374       47.507     7115.729     5237.924     2256.926        1.123        0.731       84.753       40.931        0.233      337.390        9.331      862.725
01/18/2022  13:25:00      160.255       15.282      -20.609       83.345       63.604       32.596     6946.326     4045.459     1062.492        1.919        0.603      160.982       30.370        0.036      337.219        9.046      862.717
01/18/2022  13:26:00        6.323      -21.706       -8.220       64.626       89.037       40.735     4176.461     7927.517     1659.346        0.717        0.688       22.608       25.768        1.299      337.682        9.821      862.723
01/18/2022  13:27:00      113.094     -195.803      -44.162       56.542       55.999       37.587     3197.046     3135.934     1412.818        3.041        0.387      226.117       20.807        0.008      337.252        9.097      862.734
01/18/2022  13:28:00       31.718      -42.495      -31.184       74.276       45.991       31.586     5516.974     2115.190      997.654        0.621        0.431       53.027       27.300        0.265      337.436        9.409      862.718
01/18/2022  13:29:00       -8.529       13.304       -9.726       53.259       72.058       33.722     2836.474     5192.305     1137.169        0.475        0.458       15.804       22.036        1.944      337.717        9.880      862.713
01/18/2022  13:30:00      162.241     -205.425      -49.421       65.311       95.688       47.157     4265.583     9156.211     2223.813        4.330        0.782      261.766       44.906        0.029      337.113        8.864      862.717
01/18/2022  13:31:00      110.724      -64.856      -28.301       66.089       78.841       48.750     4367.748     6215.938     2376.515        1.511        0.648      128.320       41.428        0.104      337.119        8.878      862.726
01/18/2022  13:32:00      119.117       32.582      -30.350       53.284       58.770       29.831     2839.202     3453.911      889.917        1.168        0.359      123.493        9.188        0.006      337.173        8.967      862.728
01/18/2022  13:33:00       41.595      -46.722      -28.692       39.644       50.855       31.134     1571.644     2586.189      969.295        0.493        0.256       62.555       23.100        0.136      337.543        9.588      862.723
01/18/2022  13:34:00       22.607      -64.484      -28.493       47.983       78.852       34.440     2302.354     6217.704     1186.111        0.759        0.485       68.332       25.051        0.134      337.423        9.388      862.732
01/18/2022  13:35:00       15.568      -95.109      -17.877       39.632       63.254       28.609     1570.680     4001.090      818.469        0.800        0.320       96.375       18.999        0.039      337.516        9.545      862.726
01/18/2022  13:36:00       60.084      -85.684      -35.002       48.230       90.853       34.844     2326.094     8254.306     1214.087        1.198        0.590      104.652       26.917        0.066      337.619        9.714      862.706
01/18/2022  13:37:00      100.268     -174.549      -42.436       33.053       47.990       23.224     1092.472     2303.044      539.345        2.313        0.197      201.299       12.806        0.004      337.199        9.009      862.678
01/18/2022  13:38:00      -50.019     -149.413      -27.701       95.424       61.666       46.474     9105.752     3802.681     2159.859        2.033        0.753      157.563       29.567        0.035      337.537        9.575      862.650
01/18/2022  13:39:00       78.916     -213.734      -42.697       55.012       47.550       32.119     3026.374     2261.049     1031.661        3.002        0.316      227.838       26.315        0.013      337.505        9.520      862.629
01/18/2022  13:40:00       67.694      -77.783      -29.589       72.863       57.956       41.841     5308.967     3358.893     1750.692        1.096        0.521      103.115       42.976        0.174      337.485        9.491      862.623
01/18/2022  13:41:00       56.618      -21.973      -19.705       48.476       36.657       30.225     2349.915     1343.725      913.562        0.434        0.230       60.732        8.793        0.021      337.540        9.583      862.612
01/18/2022  13:42:00        3.779      -54.421      -10.094       28.108       43.226       31.800      790.050     1868.510     1011.218        0.337        0.183       54.552       20.584        0.142      337.899       10.186      862.618
01/18/2022  13:43:00       10.803      -22.497      -16.720       49.059       41.201       31.175     2406.776     1697.521      971.889        0.299        0.254       24.956       14.456        0.336      337.992       10.341      862.617
01/18/2022  13:44:00       26.467      -20.596      -13.272       55.702       54.357       36.370     3102.754     2954.630     1322.757        0.434        0.369       33.537       22.250        0.440      337.849       10.100      862.621
01/18/2022  13:45:00       73.207      -22.683      -12.335       54.446       50.779       35.725     2964.390     2578.493     1276.265        0.642        0.341       76.641       26.749        0.122      337.525        9.557      862.627
01/18/2022  13:46:00       65.168      -81.356      -37.394       48.704       78.400       32.608     2372.123     6146.492     1063.256        1.092        0.479      104.239       29.055        0.078      337.591        9.668      862.624
01/18/2022  13:47:00       93.860     -162.260      -52.486       44.876       70.300       34.857     2013.813     4942.084     1214.989        2.303        0.409      187.451       22.174        0.014      337.378        9.310      862.608
01/18/2022  13:48:00       40.971      -91.179      -34.203       78.042       70.592       44.663     6090.587     4983.285     1994.746        1.211        0.653       99.962       20.541        0.042      337.564        9.623      862.620
01/18/2022  13:49:00       77.765      -95.201      -35.483       52.643       61.880       28.858     2771.252     3829.108      832.805        1.190        0.372      122.926       23.473        0.036      337.615        9.708      862.635
01/18/2022  13:50:00       38.682      -34.836      -23.854       48.289       61.404       32.010     2331.844     3770.501     1024.633        0.520        0.356       52.056       23.190        0.198      337.778        9.982      862.642
01/18/2022  13:51:00       26.629      -18.999      -20.941       54.071       32.030       26.918     2923.638     1025.906      724.587        0.309        0.234       32.711       15.570        0.227      337.780        9.985      862.663
01/18/2022  13:52:00      -30.672      -46.383      -13.360       35.512       36.188       22.040     1261.086     1309.604      485.772        0.316        0.153       55.607       14.290        0.066      337.939       10.252      862.661
01/18/2022  13:53:00       20.497       19.132      -18.847       18.904       34.874       20.279      357.362     1216.208      411.233        0.156        0.099       28.039       11.930        0.181      337.914       10.210      862.668
01/18/2022  13:54:00       54.809      -29.623      -20.664       40.187       35.141       31.162     1614.962     1234.894      971.061        0.406        0.191       62.302        8.019        0.017      337.762        9.955      862.672
01/18/2022  13:55:00       34.244      -48.450      -14.662       45.146       57.083       39.892     2038.171     3258.443     1591.393        0.531        0.344       59.330       28.874        0.237      337.619        9.714      862.674
01/18/2022  13:56:00       42.549       11.423      -12.217       55.362       19.459       20.287     3064.919      378.638      411.566        0.297        0.193       44.056        9.479        0.046      337.553        9.604      862.698
01/18/2022  13:57:00       40.512       14.581      -11.235       39.848       19.953       22.093     1587.882      398.116      488.118        0.223        0.124       43.056       15.454        0.129      337.512        9.535      862.707
01/18/2022  13:58:00       41.539      -27.048      -11.106       20.197       30.833       20.745      407.923      950.661      430.375        0.218        0.089       49.569        8.249        0.028      337.645        9.758      862.710
01/18/2022  13:59:00        2.258        7.711        0.765       28.291       25.066       24.183      800.376      628.319      584.819        0.104        0.101        8.035       13.625        2.876      337.936       10.247      862.701
01/18/2022  14:00:00      -18.928       13.524        3.603       19.572       24.477       17.671      383.078      599.127      312.282        0.092        0.065       23.263        9.112        0.153      337.980       10.319      862.696
01/18/2022  14:01:00       41.803      -63.888      -27.193       58.696       67.864       39.412     3445.201     4605.520     1553.288        0.808        0.480       76.349       35.566        0.217      337.879       10.153      862.690
01/18/2022  14:02:00       58.143      -96.913      -33.434       57.725       93.841       49.395     3332.217     8806.159     2439.820        1.423        0.729      113.017       34.625        0.094      337.750        9.935      862.684
01/18/2022  14:03:00        7.595      -81.104      -36.246       87.275       70.209       39.449     7616.988     4929.312     1556.231        1.102        0.705       81.459       28.509        0.122      337.730        9.901      862.683
01/18/2022  14:04:00      -23.809      -47.144      -10.023       53.811       34.731       27.984     2895.587     1206.276      783.087        0.389        0.244       52.815       20.119        0.145      337.976       10.315      862.702
01/18/2022  14:05:00       -0.860        1.387      -17.407       24.122       34.795       19.788      581.878     1210.717      391.574        0.124        0.109        1.632       12.641       60.014      337.992       10.340      862.709
01/18/2022  14:06:00      -59.048        3.235      -12.350       43.907       41.602       22.891     1927.834     1730.750      524.018        0.392        0.209       59.137       18.213        0.095      337.727        9.897      862.704
01/18/2022  14:07:00      -56.834      -59.207      -20.408       47.010       33.756       25.928     2209.941     1139.469      672.238        0.559        0.201       82.070       23.240        0.080      337.750        9.935      862.702
01/18/2022  14:08:00      -38.671      -55.575      -25.369       35.310       28.338       19.392     1246.783      803.041      376.056        0.383        0.121       67.705       13.733        0.041      337.725        9.892      862.691
01/18/2022  14:09:00      -11.336      -15.057      -18.237       29.531       28.772       22.751      872.068      827.815      517.627        0.145        0.111       18.847       14.418        0.585      337.942       10.258      862.688
01/18/2022  14:10:00      120.937     -174.251      -51.414       46.846       91.131       28.187     2194.592     8304.812      794.526        2.946        0.565      212.106       35.348        0.028      337.582        9.649      862.662
01/18/2022  14:11:00      132.986     -193.700      -54.382       36.113       67.572       25.593     1304.163     4565.955      654.984        3.234        0.326      234.958       16.240        0.005      337.393        9.332      862.636
01/18/2022  14:12:00       95.755     -179.139      -48.972       38.895       57.811       25.123     1512.810     3342.143      631.182        2.457        0.274      203.126       16.034        0.006      337.554        9.603      862.634
01/18/2022  14:13:00       57.870     -111.308      -29.827       61.854       64.452       40.688     3825.909     4153.999     1655.477        1.313        0.482      125.453       34.496        0.076      337.851       10.105      862.636
01/18/2022  14:14:00       50.159     -150.278      -28.175       39.319       55.470       33.623     1545.990     3076.968     1130.474        1.582        0.288      158.428       24.646        0.024      337.888       10.165      862.657
01/18/2022  14:15:00       68.121     -107.498      -20.734       47.437       46.808       30.506     2250.277     2191.019      930.643        1.100        0.269      127.265       25.261        0.039      337.824       10.059      862.671
01/18/2022  14:16:00        4.012      -47.248       -8.263       37.979       41.928       33.468     1442.427     1757.979     1120.114        0.332        0.216       47.418       12.204        0.066      337.985       10.329      862.669
01/18/2022  14:17:00       14.264       18.950      -17.994       25.104       31.701       20.933      630.222     1004.962      438.176        0.148        0.104       23.719       14.842        0.392      337.994       10.345      862.669
01/18/2022  14:18:00       59.086      -86.511      -17.522       45.725       60.154       31.656     2090.746     3618.469     1002.103        0.900        0.336      104.764       15.770        0.023      337.751        9.937      862.666
01/18/2022  14:19:00       50.002      -59.011      -34.174       32.384       79.996       29.625     1048.741     6399.405      877.648        0.774        0.416       77.347       17.411        0.051      337.792       10.005      862.659
01/18/2022  14:20:00       40.446       -5.512       -7.575       43.481       48.547       37.082     1890.568     2356.767     1375.050        0.367        0.281       40.819       22.254        0.297      338.058       10.452      862.662
01/18/2022  14:21:00       93.075      -79.189      -34.181       56.016       54.430       34.059     3137.737     2962.679     1160.009        1.168        0.363      122.204       23.343        0.036      337.779        9.984      862.663
01/18/2022  14:22:00       78.649     -186.700      -29.361       40.885       68.629       37.486     1671.584     4710.000     1405.198        2.484        0.389      202.590       20.894        0.011      337.716        9.876      862.657
01/18/2022  14:23:00      158.763     -245.369      -65.629       45.806       50.869       30.710     2098.202     2587.696      943.080        4.767        0.281      292.253       27.021        0.009      337.624        9.718      862.638
01/18/2022  14:24:00      119.210     -168.409      -42.056       51.461       58.548       30.506     2648.230     3427.827      930.593        2.567        0.350      206.331       33.550        0.026      337.511        9.533      862.631
01/18/2022  14:25:00       71.876     -116.622      -40.880       34.700       60.782       32.309     1204.095     3694.477     1043.843        1.319        0.297      136.992       21.485        0.025      337.767        9.963      862.626
01/18/2022  14:26:00       29.075      -22.904       -9.106       66.263       71.201       52.574     4390.778     5069.529     2763.994        0.684        0.611       37.013       43.623        1.389      337.882       10.155      862.617
01/18/2022  14:27:00       94.114        1.109       -5.158       58.985       37.981       36.351     3479.240     1442.521     1321.359        0.756        0.312       94.121       19.010        0.041      337.656        9.777      862.619
01/18/2022  14:28:00       74.487      -87.028      -24.599       66.649       88.859       41.474     4442.145     7895.972     1720.077        1.389        0.703      114.552       32.045        0.078      337.823       10.055      862.617
01/18/2022  14:29:00      104.650     -128.469      -38.667       51.357       52.289       33.385     2637.552     2734.124     1114.546        1.772        0.324      165.698       24.118        0.021      337.681        9.818      862.625
01/18/2022  14:30:00      105.594     -101.521      -42.094       46.286       56.664       43.569     2142.368     3210.837     1898.266        1.524        0.363      146.481       33.625        0.053      337.753        9.939      862.626
01/18/2022  14:31:00       38.725      -86.102      -17.147       47.224       45.666       26.969     2230.081     2085.343      727.307        0.712        0.252       94.410       20.075        0.045      337.961       10.289      862.645
01/18/2022  14:32:00       -9.232      -78.589      -38.311       57.766       44.039       31.024     3336.932     1939.428      962.464        0.698        0.312       79.130       20.637        0.068      337.968       10.302      862.647
01/18/2022  14:33:00       34.447      -98.094      -24.862       55.429       40.706       26.389     3072.415     1656.955      696.400        0.843        0.271      103.966       28.493        0.075      337.843       10.089      862.653
01/18/2022  14:34:00       51.987      -58.828      -21.176       23.013       26.278       20.104      529.603      690.538      404.171        0.412        0.081       78.507       19.207        0.060      337.735        9.912      862.657
01/18/2022  14:35:00        6.591      -40.251      -29.022       24.459       30.664       18.085      598.265      940.277      327.051        0.219        0.093       40.787        4.200        0.011      337.919       10.219      862.655
01/18/2022  14:36:00       23.873      -82.629      -11.806       33.730       49.340       26.061     1137.722     2434.399      679.156        0.589        0.213       86.009       20.084        0.055      338.017       10.382      862.646
01/18/2022  14:37:00       -5.818      -51.992      -11.088       39.873       56.937       24.591     1589.838     3241.807      604.714        0.415        0.272       52.317       25.931        0.246      338.005       10.362      862.648
01/18/2022  14:38:00       52.293     -121.567      -34.628       50.531       59.012       39.374     2553.396     3482.438     1550.307        1.315        0.379      132.337       42.357        0.102      338.020       10.388      862.654
01/18/2022  14:39:00       51.026       19.147       -6.873       43.319       35.669       23.861     1876.513     1272.273      569.333        0.337        0.186       54.500       21.940        0.162      337.884       10.160      862.662
01/18/2022  14:40:00       50.060      -19.790       -2.333       68.572       32.728       31.572     4702.132     1071.151      996.765        0.484        0.339       53.830       36.854        0.469      337.951       10.272      862.663
01/18/2022  14:41:00       75.378       -5.913       -6.515       47.131       31.427       26.571     2221.373      987.668      706.033        0.484        0.196       75.610       25.175        0.111      337.869       10.134      862.678
01/18/2022  14:42:00      109.592      -11.851      -16.863       41.298       23.496       20.235     1705.536      552.067      409.469        0.755        0.133      110.231       12.053        0.012      337.714        9.875      862.679
01/18/2022  14:43:00       67.721      -21.170       -6.023       48.664       35.437       30.585     2368.183     1255.778      935.425        0.481        0.228       70.953       28.647        0.163      337.807       10.031      862.678
01/18/2022  14:44:00       41.886       -8.647      -29.841       46.127       43.446       33.033     2127.688     1887.541     1091.185        0.391        0.255       42.770       17.838        0.174      338.009       10.369      862.674
01/18/2022  14:45:00       40.120        3.675       -9.197       53.457       43.950       41.513     2857.626     1931.569     1723.338        0.411        0.326       40.288       32.893        0.667      338.110       10.540      862.677
01/18/2022  14:46:00       64.456       -9.894      -11.816       35.163       32.751       25.391     1236.415     1072.608      644.687        0.367        0.148       65.211       22.441        0.118      337.899       10.186      862.705
01/18/2022  14:47:00       37.457      -12.504       -4.573       41.741       32.953       26.005     1742.319     1085.869      676.240        0.254        0.175       39.489       24.661        0.390      338.006       10.365      862.731
01/18/2022  14:48:00       58.970      -27.127       -5.883       24.333       18.882       19.493      592.088      356.547      379.992        0.279        0.066       64.910        8.104        0.016      337.927       10.231      862.750
01/18/2022  14:49:00       46.558      -12.203       -3.953       67.014       53.462       39.073     4490.813     2858.134     1526.722        0.560        0.444       48.131       40.353        0.703      337.909       10.202      862.745
01/18/2022  14:50:00       53.478      -13.705      -39.956       57.918       66.006       39.544     3354.526     4356.839     1563.766        0.696        0.464       55.206       31.416        0.324      337.968       10.301      862.757
01/18/2022  14:51:00       54.625      -25.810      -19.386       55.435       53.213       40.196     3072.993     2831.625     1615.729        0.577        0.376       60.415       30.963        0.263      337.918       10.217      862.743
01/18/2022  14:52:00       82.944       11.554      -22.265       36.784       34.143       21.029     1353.046     1165.731      442.213        0.523        0.148       83.745        9.119        0.012      337.834       10.078      862.755
01/18/2022  14:53:00      138.393       39.606      -10.093       25.282       28.750       22.232      639.191      826.535      494.274        1.139        0.098      143.948       14.126        0.010      337.799       10.018      862.748
01/18/2022  14:54:00       85.104        6.297      -11.825       48.354       36.248       13.425     2338.134     1313.890      180.236        0.563        0.192       85.337       17.117        0.040      337.830       10.070      862.739
01/18/2022  14:55:00       66.673       41.670       -6.915       40.792       33.020       21.128     1663.964     1090.323      446.402        0.471        0.160       78.624       17.644        0.050      337.851       10.105      862.726
01/18/2022  14:56:00       26.217      -11.949      -12.750       30.718       38.413       23.611      943.573     1475.579      557.475        0.198        0.149       28.811       13.058        0.205      338.088       10.502      862.709
01/18/2022  14:57:00       23.933      -11.933      -18.583       27.746       37.302       28.583      769.849     1391.435      817.005        0.202        0.149       26.742       18.062        0.456      338.130       10.572      862.688
01/18/2022  14:58:00       72.842      -94.522      -26.085       34.077       57.394       20.293     1161.241     3294.015      411.793        0.989        0.243      119.333       18.171        0.023      337.975       10.313      862.675
01/18/2022  14:59:00       75.916      -66.514      -28.161       28.497       28.662       23.487      812.097      821.514      551.646        0.658        0.109      100.933       17.263        0.029      338.026       10.400      862.668
01/18/2022  15:00:00       37.299      -41.333      -19.491       21.494       33.986       16.867      461.982     1155.070      284.504        0.269        0.095       55.675       10.974        0.039      338.216       10.716      862.666
01/18/2022  15:01:00       10.054      -22.944       -8.739       29.852       35.112       19.847      891.149     1232.870      393.906        0.161        0.126       25.050       11.350        0.205      338.439       11.091      862.669
01/18/2022  15:02:00       44.071      -49.132      -26.269       31.285       39.783       26.254      978.727     1582.679      689.253        0.415        0.163       66.001       15.421        0.055      338.182       10.660      862.679
01/18/2022  15:03:00       39.909      -49.677      -25.332       20.015       41.379       15.631      400.596     1712.235      244.335        0.353        0.118       63.722        9.238        0.021      338.117       10.552      862.676
01/18/2022  15:04:00       34.733     -133.862      -20.460       33.952       39.519       27.908     1152.753     1561.746      778.839        1.152        0.175      138.294       13.355        0.009      338.043       10.427      862.685
01/18/2022  15:05:00       44.050     -153.227      -26.896       45.457       43.753       30.505     2066.334     1914.355      930.526        1.553        0.246      159.433       25.529        0.026      338.129       10.569      862.681
01/18/2022  15:06:00       29.855     -102.430      -31.898       34.047       31.291       25.282     1159.191      979.137      639.161        0.759        0.139      106.692       17.383        0.027      338.114       10.546      862.689
01/18/2022  15:07:00       27.960      -90.980      -18.436       42.742       55.188       32.914     1826.882     3045.664     1083.364        0.768        0.298       95.179       24.347        0.065      338.285       10.833      862.696
01/18/2022  15:08:00       -3.239      -10.477      -21.627       41.111       26.515       28.973     1690.084      703.025      839.418        0.191        0.162       10.966       26.705        5.930      338.432       11.080      862.711
01/18/2022  15:09:00      -40.324      -31.573      -26.452       25.621       22.079       17.164      656.455      487.467      294.614        0.238        0.072       51.214       11.547        0.051      338.367       10.969      862.724
01/18/2022  15:10:00        7.380      -31.444      -13.216       31.612       21.280       19.256      999.288      452.824      370.777        0.152        0.091       32.299       12.832        0.158      338.317       10.887      862.741
01/18/2022  15:11:00       20.424      -38.220        0.955       33.370       44.607       21.152     1113.571     1989.758      447.394        0.271        0.178       43.335       15.129        0.122      338.431       11.077      862.743
01/18/2022  15:12:00       16.796      -35.354       -8.003       35.737       34.982       24.986     1277.162     1223.715      624.308        0.236        0.156       39.141       21.176        0.293      338.320       10.890      862.737
01/18/2022  15:13:00      -44.379      -25.466      -13.987       21.883       17.668       15.596      478.863      312.141      243.229        0.192        0.052       51.167       10.692        0.044      338.371       10.975      862.734
01/18/2022  15:14:00       -0.116       -9.632       -0.478       44.980       38.880       24.452     2023.207     1511.684      597.880        0.211        0.207        9.632       17.016        3.121      338.396       11.019      862.736
01/18/2022  15:15:00        4.804      -15.847      -18.887       39.008       30.113       22.207     1521.638      906.823      493.172        0.178        0.146       16.560       13.328        0.648      338.351       10.944      862.729
01/18/2022  15:16:00      102.264       -7.761      -18.059       55.031       52.907       31.156     3028.454     2799.102      970.670        0.882        0.340      102.558       20.091        0.038      338.108       10.535      862.718
01/18/2022  15:17:00       -7.438      -64.437      -22.005       50.198       57.420       36.833     2519.872     3297.103     1356.693        0.593        0.359       64.865       22.306        0.118      338.288       10.838      862.721
01/18/2022  15:18:00       49.495      -85.112      -28.457       57.423       81.271       40.101     3297.423     6605.055     1608.122        1.100        0.576       98.457       35.557        0.130      338.352       10.944      862.720
01/18/2022  15:19:00       80.670     -130.906      -27.156       30.028       56.238       21.074      901.705     3162.658      444.118        1.444        0.225      153.766       12.863        0.007      338.207       10.701      862.731
01/18/2022  15:20:00       62.497     -103.174      -32.884       36.547       48.263       26.596     1335.655     2329.276      707.344        1.000        0.219      120.626       17.442        0.021      338.197       10.685      862.727
01/18/2022  15:21:00       35.410     -105.298      -35.154       42.706       38.943       38.049     1823.790     1516.561     1447.762        0.918        0.239      111.093       33.786        0.092      338.119       10.554      862.729
01/18/2022  15:22:00      115.314     -169.003      -53.577       36.726       90.510       31.279     1348.820     8191.973      978.356        2.762        0.526      204.595       26.218        0.016      338.044       10.425      862.721
01/18/2022  15:23:00       77.771      -71.062      -16.724       56.319       66.717       34.947     3171.837     4451.117     1221.326        1.011        0.442      105.348       33.046        0.098      338.243       10.761      862.731
01/18/2022  15:24:00       95.490     -170.653      -44.960       20.253       29.937       16.788      410.197      896.204      281.821        2.092        0.079      195.552       12.500        0.004      337.993       10.341      862.750
01/18/2022  15:25:00       46.937      -79.530      -29.171       39.803       53.579       25.506     1584.290     2870.658      650.573        0.724        0.255       92.348       24.645        0.071      338.222       10.727      862.756
01/18/2022  15:26:00      -35.097      -28.210       -6.989       45.479       22.327       20.156     2068.360      498.509      406.275        0.252        0.149       45.029        9.720        0.047      338.520       11.227      862.770
01/18/2022  15:27:00      -43.106      -14.252      -27.532       35.439       20.646       20.745     1255.934      426.240      430.347        0.247        0.106       45.400       16.126        0.126      338.528       11.241      862.770
01/18/2022  15:28:00       -1.622        7.712       -4.078       22.830       36.364       16.901      521.205     1322.335      285.629        0.110        0.106        7.881       13.676        3.011      338.534       11.250      862.777
01/18/2022  15:29:00      -12.430      -14.007      -11.106       26.579       21.901       16.468      706.470      479.634      271.191        0.097        0.073       18.727       11.956        0.408      338.574       11.317      862.784
01/18/2022  15:30:00      -28.228       -6.405       -9.105       24.952       22.309       20.816      622.587      497.673      433.288        0.124        0.078       28.946        9.506        0.108      338.590       11.344      862.786
01/18/2022  15:31:00       19.692      -44.124      -14.485       49.420       40.106       39.992     2442.362     1608.472     1599.371        0.410        0.283       48.319       26.243        0.295      338.332       10.911      862.784
01/18/2022  15:32:00      -31.952      -71.942      -24.531       46.055       36.498       34.782     2121.099     1332.095     1209.759        0.573        0.233       78.719       24.989        0.101      338.347       10.937      862.793
01/18/2022  15:33:00       16.214      -77.359      -26.625       63.400       55.306       38.015     4019.619     3058.739     1445.148        0.774        0.426       79.040       27.333        0.120      338.359       10.956      862.803
01/18/2022  15:34:00        7.172      -54.178      -23.679       50.466       41.905       24.925     2546.792     1756.011      621.232        0.423        0.246       54.651       25.430        0.217      338.391       11.011      862.808
01/18/2022  15:35:00      -24.868      -17.177       -8.251       38.568       29.020       26.864     1487.460      842.134      721.660        0.202        0.153       30.224       16.575        0.301      338.592       11.348      862.815
01/18/2022  15:36:00      -47.886      -23.046       -6.104       40.021       32.868       34.078     1601.655     1080.278     1161.318        0.335        0.192       53.143       26.418        0.247      338.512       11.213      862.816
01/18/2022  15:37:00     -112.026        3.819      -17.047       30.754       54.862       25.236      945.806     3009.832      636.877        0.872        0.230      112.091       13.998        0.016      338.205       10.698      862.827
01/18/2022  15:38:00      -16.143       -6.630        0.265       44.619       42.047       25.607     1990.867     1767.966      655.701        0.236        0.221       17.452        5.443        0.097      338.623       11.400      862.838
01/18/2022  15:39:00        7.276      -51.643      -12.650       17.623       23.846       17.752      310.571      568.618      315.118        0.204        0.060       52.153        3.752        0.005      338.428       11.073      862.836
01/18/2022  15:40:00      -13.984      -26.373      -13.083       23.908       24.409       15.066      571.585      595.804      226.988        0.123        0.070       29.851       11.482        0.148      338.467       11.139      862.838
01/18/2022  15:41:00      -62.877      -38.426      -16.522       36.362       22.364       23.809     1322.208      500.131      566.890        0.405        0.119       73.689       10.906        0.022      338.403       11.031      862.844
01/18/2022  15:42:00       13.501      -21.814      -14.275       22.597       26.839       18.513      510.626      720.357      342.725        0.122        0.079       25.654        9.116        0.126      338.493       11.183      862.846
01/18/2022  15:43:00       -0.287      -11.846        4.142       37.233       26.960       21.826     1386.321      726.857      476.390        0.137        0.129       11.849       17.287        2.128      338.587       11.339      862.848
01/18/2022  15:44:00      -18.501      -28.307        3.211       28.988       23.482       26.435      840.324      551.412      698.825        0.162        0.105       33.817       14.203        0.176      338.541       11.262      862.845
01/18/2022  15:45:00      -12.189       -5.729       -7.774       16.671       24.800       15.523      277.926      615.029      240.967        0.069        0.057       13.468       10.359        0.592      338.539       11.258      862.834
01/18/2022  15:46:00      -13.875      -23.570      -20.850       20.222       31.362       17.332      408.916      983.560      300.401        0.144        0.085       27.351       11.064        0.164      338.467       11.139      862.829
01/18/2022  15:47:00       -2.296      -40.217      -12.623       52.214       42.581       31.988     2726.261     1813.106     1023.225        0.367        0.278       40.282       23.304        0.335      338.428       11.073      862.817
01/18/2022  15:48:00       70.696      -41.039      -20.357       48.162       34.033       28.260     2319.554     1158.217      798.631        0.569        0.214       81.744       23.633        0.084      338.201       10.691      862.810
01/18/2022  15:49:00       94.684      -22.800      -12.244       42.238       25.048       20.830     1784.053      627.383      433.879        0.624        0.142       97.390       22.125        0.052      338.170       10.639      862.817
01/18/2022  15:50:00       32.107      -45.715      -21.224       30.511       38.587       28.799      930.946     1488.983      829.370        0.341        0.162       55.863       21.725        0.151      338.268       10.805      862.834
01/18/2022  15:51:00      -45.851      -65.676      -16.172       49.481       33.737       31.795     2448.394     1138.217     1010.926        0.564        0.230       80.098       20.492        0.065      338.393       11.015      862.849
01/18/2022  15:52:00      -44.173      -33.430      -11.815       42.101       30.646       23.602     1772.490      939.194      557.037        0.324        0.163       55.397       18.714        0.114      338.480       11.159      862.867
01/18/2022  15:53:00       34.081      -21.935      -32.921       28.712       34.078       21.399      824.400     1161.297      457.900        0.258        0.122       40.529       17.410        0.185      338.299       10.857      862.878
01/18/2022  15:54:00        2.717      -24.565      -19.109       13.351       13.567       10.816      178.257      184.071      116.977        0.073        0.024       24.715        6.207        0.063      338.412       11.046      862.870
01/18/2022  15:55:00       -8.530      -39.508      -29.986       18.553       19.322       13.258      344.205      373.339      175.768        0.171        0.045       40.419        7.519        0.035      338.338       10.922      862.861
01/18/2022  15:56:00       25.164      -78.710      -23.067       33.918       43.676       28.753     1150.430     1907.561      826.733        0.562        0.194       82.635       17.743        0.046      338.461       11.128      862.848
01/18/2022  15:57:00       27.579      -59.868      -20.724       33.201       60.740       28.481     1102.302     3689.362      811.174        0.519        0.280       65.915       18.914        0.082      338.438       11.088      862.833
01/18/2022  15:58:00      -16.342      -11.480      -18.333       45.613       27.796       24.110     2080.532      772.601      581.290        0.208        0.172       19.972       15.694        0.618      338.476       11.154      862.832
01/18/2022  15:59:00      -46.760      -47.362      -32.849       31.634       36.264       34.589     1000.735     1315.103     1196.430        0.451        0.176       66.555       16.531        0.062      338.454       11.117      862.849
01/18/2022  16:00:00       17.876       12.459      -16.061       32.616       19.486       17.871     1063.806      379.712      319.364        0.125        0.088       21.789       16.975        0.607      338.413       11.049      862.864
01/18/2022  16:01:00       44.279       -9.690      -15.080       25.636       22.524       17.560      657.186      507.345      308.363        0.188        0.074       45.327       13.737        0.092      338.250       10.773      862.877
01/18/2022  16:02:00       36.742      -29.115      -17.007       42.479       39.691       22.278     1804.458     1575.375      496.299        0.318        0.194       46.879       18.302        0.152      338.276       10.819      862.890
01/18/2022  16:03:00       30.987      -11.109       -8.986       40.726       37.033       30.231     1658.577     1371.454      913.927        0.255        0.197       32.918       22.627        0.473      338.287       10.835      862.887
01/18/2022  16:04:00       30.380      -15.208       -7.426       44.046       34.701       33.332     1940.056     1204.172     1111.050        0.273        0.213       33.974       24.676        0.528      338.273       10.812      862.880
01/18/2022  16:05:00       56.584      -75.112      -12.582       39.120       47.336       25.696     1530.396     2240.669      660.310        0.672        0.222       94.040       23.370        0.062      338.245       10.764      862.869
01/18/2022  16:06:00       47.406     -126.612      -30.409       21.246       29.755       19.306      451.402      885.388      372.714        1.046        0.085      135.196        8.165        0.004      338.237       10.751      862.857
01/18/2022  16:07:00       50.996      -39.991      -35.052       35.200       51.877       24.178     1239.053     2691.204      584.570        0.497        0.226       64.806       21.019        0.105      338.225       10.731      862.856
01/18/2022  16:08:00       25.453        5.550       -4.094       45.364       49.488       39.356     2057.926     2449.072     1548.865        0.337        0.303       26.051       28.351        1.184      338.309       10.874      862.844
01/18/2022  16:09:00       47.874      -11.139      -12.015       62.639       49.345       38.531     3923.639     2434.903     1484.611        0.520        0.392       49.153       33.577        0.467      338.278       10.820      862.852
01/18/2022  16:10:00      102.746      -46.123       -8.631       64.632       47.107       43.539     4177.340     2219.111     1895.668        1.052        0.415      112.624       44.843        0.159      338.269       10.806      862.853
01/18/2022  16:11:00       46.885      -12.341      -16.208       40.502       33.919       31.641     1640.385     1150.493     1001.160        0.320        0.190       48.482       24.891        0.264      338.341       10.926      862.864
01/18/2022  16:12:00       78.424       26.005      -15.597       35.888       35.669       21.737     1287.919     1272.306      472.485        0.505        0.152       82.623        7.001        0.007      338.146       10.599      862.878
01/18/2022  16:13:00       96.509        3.208      -10.325       34.891       27.185       22.562     1217.381      738.998      509.039        0.595        0.123       96.562       14.387        0.022      338.126       10.566      862.892
01/18/2022  16:14:00      127.945      -12.036      -15.133       43.636       28.529       19.563     1904.123      813.882      382.708        0.992        0.155      128.510        4.624        0.001      338.097       10.516      862.892
01/18/2022  16:15:00       68.940       -6.638      -12.746       43.457       27.337       20.742     1888.493      747.318      430.212        0.401        0.153       69.259       24.924        0.130      338.109       10.538      862.902
01/18/2022  16:16:00      132.011      -22.495      -13.540       28.094       24.739       24.195      789.266      612.006      585.380        1.005        0.099      133.914       14.841        0.012      338.089       10.505      862.892
01/18/2022  16:17:00       75.856      -43.369       -9.213       33.927       41.600       28.412     1151.072     1730.586      807.226        0.570        0.184       87.378       24.408        0.078      338.142       10.594      862.878
01/18/2022  16:18:00       88.589      -34.481      -22.462       49.602       62.218       42.270     2460.383     3871.102     1786.786        0.883        0.406       95.063       31.975        0.113      338.108       10.537      862.845
01/18/2022  16:19:00       98.109      -34.075      -11.200       58.489       42.619       42.196     3420.987     1816.357     1780.533        0.896        0.351      103.858       36.432        0.123      338.123       10.562      862.833
01/18/2022  16:20:00       41.664      -21.117       -6.058       58.280       48.009       43.401     3396.587     2304.900     1883.629        0.490        0.379       46.710       38.861        0.692      338.126       10.567      862.829
01/18/2022  16:21:00       55.045      -36.092      -16.779       54.429       43.675       38.365     2962.554     1907.545     1471.906        0.548        0.317       65.822       38.499        0.342      338.129       10.573      862.840
01/18/2022  16:22:00      107.515      -31.552      -28.922       52.498       49.572       41.844     2755.988     2457.395     1750.915        1.018        0.348      112.049       32.578        0.085      338.179       10.654      862.819
01/18/2022  16:23:00       37.773        7.249      -36.746       39.490       45.999       35.495     1559.493     2115.910     1259.894        0.388        0.247       38.462        8.147        0.045      338.159       10.622      862.811
01/18/2022  16:24:00      100.403       -9.917      -17.448       74.867       37.458       26.074     5605.096     1403.125      679.848        0.908        0.384      100.891       21.196        0.044      338.112       10.543      862.813
01/18/2022  16:25:00      101.853       -3.279      -12.641       67.476       38.249       32.251     4552.961     1462.964     1040.158        0.880        0.353      101.906       24.062        0.056      338.065       10.463      862.791
01/18/2022  16:26:00       37.272      -10.646       -0.169       70.637       51.166       52.673     4989.551     2617.951     2774.421        0.594        0.519       38.762       44.119        1.295      338.132       10.576      862.770
01/18/2022  16:27:00      132.112      -21.117      -23.308       77.080       41.067       44.094     5941.269     1686.466     1944.255        1.401        0.479      133.789       41.827        0.098      338.101       10.523      862.774
01/18/2022  16:28:00       82.482      -22.714       -7.047       69.545       53.113       37.112     4836.553     2820.950     1377.335        0.820        0.452       85.552       37.275        0.190      338.109       10.539      862.786
01/18/2022  16:29:00      105.595      -16.327       -1.705       82.256       47.049       40.172     6765.990     2213.614     1613.821        1.100        0.530      106.850       35.677        0.111      338.100       10.523      862.815
01/18/2022  16:30:00      138.041      -25.605       -2.898       60.967       39.225       39.887     3716.989     1538.633     1590.952        1.328        0.342      140.396       34.865        0.062      338.099       10.519      862.845
01/18/2022  16:31:00      156.428      -22.896      -21.023       45.740       37.545       31.429     2092.171     1409.612      987.756        1.496        0.224      158.095       28.920        0.033      338.069       10.470      862.867
01/18/2022  16:32:00       69.459      -17.894      -20.594       54.967       35.018       22.953     3021.393     1226.243      526.844        0.517        0.239       71.727       19.779        0.076      338.132       10.575      862.889
01/18/2022  16:33:00       36.781       -3.969       -9.510       33.328       28.031       18.999     1110.724      785.739      360.970        0.186        0.113       36.995       17.481        0.223      338.072       10.477      862.894
01/18/2022  16:34:00       45.355       -3.504       -5.442       41.154       29.927       21.806     1693.669      895.623      475.512        0.258        0.153       45.491       17.062        0.141      338.121       10.558      862.894
01/18/2022  16:35:00       70.321       27.601       -9.034       46.100       35.196       24.568     2125.203     1238.765      603.585        0.488        0.198       75.544       13.855        0.034      338.061       10.458      862.891
01/18/2022  16:36:00      100.251       35.516      -19.876       38.088       32.688       23.145     1450.690     1068.488      535.683        0.738        0.153      106.357       15.228        0.021      338.033       10.411      862.901
01/18/2022  16:37:00       77.624       10.576       -9.070       31.722       25.432       21.115     1006.271      646.793      445.836        0.416        0.105       78.341       11.399        0.021      337.982       10.324      862.912
01/18/2022  16:38:00       61.397        4.554       -8.165       19.568       19.128       12.958      382.888      365.863      167.916        0.239        0.046       61.566        8.376        0.019      337.994       10.346      862.927
01/18/2022  16:39:00       81.490       28.800      -12.912       15.226       15.132       11.634      231.835      228.989      135.352        0.412        0.030       86.429        5.329        0.004      338.025       10.398      862.940
01/18/2022  16:40:00       31.513       -6.236       -6.716       23.898       16.674       11.992      571.122      278.028      143.818        0.103        0.050       32.124        8.979        0.078      337.998       10.352      862.949
01/18/2022  16:41:00       85.227        9.103       -5.380       38.841       24.496       17.439     1508.625      600.057      304.129        0.489        0.121       85.712        9.908        0.013      337.937       10.250      862.946
01/18/2022  16:42:00       86.299       14.747       -4.534       29.459       22.036       19.785      867.819      485.596      391.444        0.471        0.087       87.550       17.129        0.038      337.976       10.316      862.940
01/18/2022  16:43:00      102.638       20.806      -10.754       19.411       20.442       10.820      376.795      417.876      117.064        0.600        0.046      104.725        5.717        0.003      338.002       10.357      862.926
01/18/2022  16:44:00       57.542        8.083       -1.315       36.417       15.963       14.086     1326.226      254.802      198.412        0.258        0.089       58.107       13.002        0.050      337.989       10.338      862.916
01/18/2022  16:45:00       59.299       -0.500       -3.011       33.257       16.345       13.104     1106.002      267.170      171.725        0.254        0.077       59.301       12.855        0.047      337.962       10.292      862.903
01/18/2022  16:46:00       85.755       28.865       -8.464       30.682       28.074       21.953      941.355      788.133      481.925        0.523        0.111       90.483       17.023        0.035      337.960       10.288      862.901
01/18/2022  16:47:00        9.539       12.590       -4.747       21.961       37.720       22.702      482.282     1422.804      515.403        0.135        0.121       15.795       16.096        1.038      337.989       10.337      862.914
01/18/2022  16:48:00       43.862       26.518      -13.832       31.796       30.480       21.111     1010.997      929.050      445.663        0.260        0.119       51.255       13.629        0.071      337.979       10.320      862.925
01/18/2022  16:49:00       23.561        0.258       -8.372       13.446       21.611       11.823      180.802      467.040      139.779        0.071        0.039       23.562        8.037        0.116      337.867       10.131      862.943
01/18/2022  16:50:00       61.044       -2.832       -7.911       26.149       23.639       14.045      683.795      558.782      197.254        0.262        0.072       61.110       13.222        0.047      337.906       10.196      862.955
01/18/2022  16:51:00       77.318       11.692      -13.603       19.275       19.288       12.689      371.536      372.035      161.014        0.360        0.045       78.197        8.093        0.011      337.866       10.130      862.965
01/18/2022  16:52:00       66.901       -5.971       -7.360       21.306       16.716       10.604      453.947      279.441      112.441        0.271        0.042       67.167        5.859        0.008      337.899       10.184      862.969
01/18/2022  16:53:00       83.683       21.010       -5.264       28.008       18.007       14.077      784.430      324.259      198.152        0.439        0.065       86.280        8.693        0.010      337.938       10.252      862.978
01/18/2022  16:54:00      102.797       17.801      -12.287       32.296       25.766       14.031     1043.049      663.909      196.878        0.647        0.095      104.327        8.988        0.007      337.920       10.221      862.984
01/18/2022  16:55:00       67.663      -16.457       -9.062       23.124       23.949       14.537      534.698      573.541      211.316        0.313        0.066       69.635       11.187        0.026      337.827       10.065      862.995
01/18/2022  16:56:00       50.311       -6.512       -7.700       37.714       19.063       18.104     1422.381      363.387      327.758        0.237        0.106       50.730       12.706        0.063      337.808       10.030      863.019
01/18/2022  16:57:00       83.651        5.350       -4.751       47.452       33.099       22.489     2251.738     1095.553      505.744        0.545        0.193       83.822       12.186        0.021      337.782        9.989      863.029
01/18/2022  16:58:00      149.601       27.468      -13.010       42.439       31.593       24.999     1801.086      998.129      624.940        1.336        0.171      152.101       21.663        0.020      337.729        9.901      863.034
01/18/2022  16:59:00      171.890       42.942      -21.286       66.749       45.914       31.785     4455.468     2108.127     1010.297        1.971        0.379      177.173       16.918        0.009      337.717        9.878      863.030
01/18/2022  17:00:00      149.093       69.972      -14.132       45.738       57.123       26.841     2091.991     3263.070      720.458        1.670        0.304      164.696       19.204        0.014      337.724        9.891      863.041
01/18/2022  17:01:00      130.244       26.680      -14.758       51.706       34.367       25.944     2673.521     1181.122      673.093        1.121        0.226      132.948       15.965        0.014      337.644        9.757      863.035
01/18/2022  17:02:00       67.818       44.101      -14.150       29.470       39.344       25.027      868.452     1547.918      626.363        0.489        0.152       80.896       18.568        0.053      337.568        9.631      863.053
01/18/2022  17:03:00       28.911       61.829       -1.361       24.901       29.891       19.672      620.038      893.470      386.998        0.328        0.095       68.254       14.150        0.043      337.632        9.738      863.060
01/18/2022  17:04:00       69.496       67.962      -17.368       25.846       46.489       24.094      668.017     2161.270      580.519        0.658        0.170       97.204       22.327        0.053      337.569        9.631      863.077
01/18/2022  17:05:00       26.156       71.467      -15.349       25.448       44.880       18.205      647.607     2014.232      331.413        0.451        0.150       76.103       15.155        0.040      337.592        9.670      863.090
01/18/2022  17:06:00       -2.170      102.870      -13.853       27.591       29.022       21.967      761.236      842.261      482.565        0.643        0.104      102.892       21.154        0.042      337.637        9.745      863.106
01/18/2022  17:07:00        7.920       89.901       -9.931       34.219       32.532       18.793     1170.949     1058.308      353.174        0.541        0.129       90.249       20.292        0.051      337.745        9.927      863.115
01/18/2022  17:08:00     -114.645       30.842      -18.037       41.608       27.919       20.328     1731.215      779.479      413.241        0.867        0.146      118.722        3.341        0.001      337.423        9.388      863.113
01/18/2022  17:09:00     -134.741       54.768      -25.905       27.445       18.911       24.693      753.247      357.614      609.757        1.177        0.086      145.447       14.808        0.010      337.237        9.077      863.131
01/18/2022  17:10:00     -147.525       45.480      -20.557       19.409       17.629       15.941      376.691      310.767      254.100        1.260        0.047      154.376        9.128        0.003      337.244        9.089      863.149
01/18/2022  17:11:00      -63.575       30.586      -19.783       33.878       20.152       17.615     1147.714      406.100      310.276        0.362        0.093       70.549       10.505        0.022      337.206        9.025      863.178
01/18/2022  17:12:00      -60.918       15.916      -17.088       41.414       23.332       20.580     1715.161      544.394      423.527        0.347        0.134       62.963       12.774        0.041      337.264        9.123      863.197
01/18/2022  17:13:00      -83.423       30.084      -14.546       35.420       24.356       18.970     1254.607      593.210      359.852        0.514        0.110       88.682       10.444        0.014      337.368        9.295      863.224
01/18/2022  17:14:00      -56.071       11.649      -11.949       40.557       31.313       18.272     1644.830      980.511      333.869        0.319        0.148       57.268       14.105        0.061      337.203        9.018      863.252
01/18/2022  17:15:00      -61.467        3.091      -16.447       42.652       25.603       17.387     1819.233      655.539      302.319        0.342        0.139       61.544       18.364        0.089      337.110        8.864      863.277
01/18/2022  17:16:00        6.212      -17.944      -19.153       35.659       26.254       27.061     1271.562      689.248      732.301        0.171        0.135       18.989       21.491        1.281      337.190        8.999      863.286
01/18/2022  17:17:00        5.115       45.407       -0.965       28.178       35.319       24.321      794.023     1247.447      591.496        0.236        0.132       45.694       15.879        0.121      337.219        9.046      863.278
01/18/2022  17:18:00      -18.086       35.114       -4.973       19.640       16.603       10.441      385.739      275.668      109.021        0.118        0.039       39.498        7.918        0.040      337.043        8.751      863.269
01/18/2022  17:19:00       -3.910       14.541      -11.474       15.002       22.095       13.581      225.049      488.190      184.457        0.063        0.045       15.058        7.173        0.227      337.103        8.851      863.238
01/18/2022  17:20:00      -26.095        0.157      -13.601       22.996       21.702       20.819      528.812      470.979      433.428        0.115        0.072       26.096       10.311        0.156      337.011        8.696      863.233
01/18/2022  17:21:00      -10.142       -2.319       -1.210       26.186       23.507       20.204      685.689      552.586      408.182        0.088        0.082       10.403       16.328        2.463      336.985        8.653      863.218
01/18/2022  17:22:00       -5.490        1.914       -5.774       15.790       16.110       14.610      249.326      259.521      213.441        0.039        0.036        5.814        9.744        2.809      336.961        8.613      863.220
01/18/2022  17:23:00      -14.240      -15.829       -9.341       24.148       21.673       16.850      583.124      469.725      283.938        0.094        0.067       21.292        8.664        0.166      336.931        8.563      863.224
01/18/2022  17:24:00      -73.665        7.419      -19.098       36.077       29.307       25.512     1301.515      858.873      650.846        0.433        0.141       74.038       15.435        0.043      337.017        8.708      863.225
01/18/2022  17:25:00      -52.361        7.257       -3.925       53.022       27.327       19.180     2811.308      746.750      367.880        0.337        0.196       52.861       26.251        0.247      336.867        8.455      863.225
01/18/2022  17:26:00      -18.676       14.423       -8.359       35.976       21.435       22.354     1294.239      459.450      499.685        0.144        0.113       23.597       23.079        0.957      336.835        8.402      863.217
01/18/2022  17:27:00      -40.860       12.993      -10.601       38.415       18.004       27.160     1475.744      324.151      737.692        0.224        0.127       42.876       25.213        0.346      336.944        8.585      863.203
01/18/2022  17:28:00      -85.495       27.287      -20.371       21.767       23.385       20.005      473.818      546.877      400.191        0.494        0.071       89.744       10.043        0.013      336.859        8.442      863.202
01/18/2022  17:29:00      -20.596        0.261       -1.487       37.179       21.191       26.020     1382.300      449.059      677.040        0.147        0.125       20.598       22.456        1.189      336.787        8.324      863.202
01/18/2022  17:30:00      -61.269       14.069      -18.484       37.848       28.446       24.454     1432.447      809.203      597.994        0.357        0.142       62.864       23.244        0.137      336.768        8.291      863.196
01/18/2022  17:31:00      -54.111       11.777      -15.376       41.307       21.232       19.763     1706.277      450.801      390.593        0.292        0.127       55.378       18.644        0.113      336.799        8.343      863.208
01/18/2022  17:32:00      -99.338       40.088      -13.299       25.707       18.422       18.547      660.830      339.367      343.978        0.650        0.067      107.122       15.117        0.020      336.769        8.295      863.204
01/18/2022  17:33:00      -85.354       11.867      -15.084       37.714       25.098       15.429     1422.350      629.890      238.053        0.497        0.115       86.175       13.583        0.025      336.754        8.268      863.202
01/18/2022  17:34:00      -72.981       41.418      -13.893       25.580       29.958       19.251      654.350      897.483      370.593        0.458        0.096       83.915       10.792        0.017      336.712        8.200      863.205
01/18/2022  17:35:00      -66.097       20.605      -24.936       43.676       23.969       21.302     1907.626      574.512      453.781        0.418        0.147       69.235       20.646        0.089      336.667        8.124      863.183
01/18/2022  17:36:00     -120.224       40.494      -26.339       25.201       23.849       15.982      635.074      568.775      255.420        0.912        0.073      126.861       13.031        0.011      336.597        8.009      863.182
01/18/2022  17:37:00      -87.544       30.506       -3.492       33.762       24.810       18.722     1139.861      615.558      350.501        0.536        0.105       92.707       18.203        0.039      336.599        8.011      863.186
01/18/2022  17:38:00      -44.970       31.008        7.419       54.428       25.346       24.638     2962.427      642.407      607.038        0.362        0.211       54.624       30.933        0.321      336.613        8.034      863.204
01/18/2022  17:39:00      -47.999        9.668      -10.738       25.746       30.318       20.759      662.870      919.190      430.935        0.226        0.101       48.963       16.515        0.114      336.693        8.166      863.213
01/18/2022  17:40:00      -39.475       21.989      -15.344       26.807       38.630       19.260      718.635     1492.282      370.946        0.243        0.129       45.187       13.257        0.086      336.689        8.161      863.214
01/18/2022  17:41:00      -37.828       12.904      -11.707       46.413       23.791       25.139     2154.188      566.011      631.976        0.254        0.168       39.968       14.775        0.137      336.674        8.135      863.211
01/18/2022  17:42:00        9.083       21.333       -3.671       22.914        9.852        9.312      525.029       97.065       86.722        0.063        0.035       23.186        7.399        0.102      336.615        8.037      863.211
01/18/2022  17:43:00        7.340      -21.158       -6.928       21.685       17.912       12.544      470.256      320.833      157.364        0.075        0.047       22.395       12.311        0.302      336.637        8.074      863.213
01/18/2022  17:44:00       -0.989      -12.065       -5.360       22.012       26.663       19.702      484.528      710.892      388.183        0.088        0.079       12.106       16.626        1.886      336.560        7.945      863.222
01/18/2022  17:45:00       15.059        0.494      -10.492       11.629       14.616        8.338      135.237      213.618       69.526        0.038        0.021       15.067        4.873        0.105      336.560        7.945      863.224
01/18/2022  17:46:00      -21.513      -30.493       -6.333       24.196       24.217       13.513      585.423      586.471      182.602        0.139        0.068       37.318        9.704        0.068      336.572        7.964      863.230
01/18/2022  17:47:00      -32.255      -32.871      -17.362       21.097       25.155       15.044      445.063      632.778      226.320        0.186        0.065       46.053        9.005        0.038      336.549        7.925      863.238
01/18/2022  17:48:00      -10.259      -26.900       -6.612       22.096       31.847       18.275      488.236     1014.213      333.974        0.135        0.092       28.790        8.296        0.083      336.499        7.843      863.244
01/18/2022  17:49:00       -3.820      -15.804       -8.019       13.696       25.434       13.638      187.591      646.877      185.993        0.067        0.051       16.259        7.053        0.188      336.442        7.747      863.245
01/18/2022  17:50:00       -7.023       -5.195       -7.965       20.611       29.483       16.124      424.808      869.250      259.989        0.085        0.078        8.736        6.079        0.484      336.409        7.692      863.252
01/18/2022  17:51:00      -60.923       -4.385       -5.307       59.142       28.354       30.302     3497.752      803.970      918.236        0.449        0.261       61.080       31.914        0.273      336.318        7.538      863.261
01/18/2022  17:52:00       -6.707      -11.051       -5.309       40.139       33.058       23.096     1611.104     1092.858      533.409        0.172        0.162       12.927       18.218        1.986      336.268        7.455      863.274
01/18/2022  17:53:00      -40.136       -6.007      -13.255       48.260       39.293       22.546     2329.016     1543.928      508.303        0.310        0.219       40.583       23.295        0.329      336.178        7.303      863.281
01/18/2022  17:54:00      -15.309       -3.424       -4.564       26.128       24.934       26.720      682.664      621.696      713.955        0.114        0.101       15.687        5.597        0.127      336.241        7.410      863.287
01/18/2022  17:55:00      -41.424       -6.973        1.939       37.358       28.570       16.162     1395.645      816.244      261.209        0.212        0.124       42.007       15.101        0.129      336.263        7.446      863.285
01/18/2022  17:56:00      -74.643       -8.425      -16.120       21.178       27.544       17.560      448.499      758.657      308.365        0.371        0.076       75.117       12.440        0.027      336.325        7.550      863.287
01/18/2022  17:57:00      -44.545      -27.138        0.934       18.686       18.715       12.532      349.177      350.252      157.040        0.179        0.043       52.161        5.715        0.012      336.374        7.633      863.268
01/18/2022  17:58:00        3.793      -15.234      -24.252       12.108       18.668       14.203      146.593      348.507      201.728        0.077        0.035       15.700       11.890        0.574      336.340        7.576      863.259
01/18/2022  17:59:00       -7.434       29.067      -10.322       17.104       13.833       10.875      292.546      191.340      118.262        0.080        0.030       30.002        7.097        0.056      336.456        7.769      863.240
01/18/2022  18:00:00      -39.186        6.240       -9.016       14.629       14.570       12.552      213.996      212.277      157.563        0.112        0.029       39.680        8.181        0.043      336.512        7.863      863.249
01/18/2022  18:01:00      -21.660       -5.712       -9.306       11.984       14.023       13.137      143.606      196.656      172.584        0.055        0.026       22.400        8.675        0.150      336.399        7.674      863.262
01/18/2022  18:02:00      -43.004      -12.304       -7.030       36.022       30.141       18.547     1297.592      908.494      343.999        0.230        0.128       44.729       10.115        0.051      336.478        7.808      863.287
01/18/2022  18:03:00      -45.948        1.320       -8.433       35.084       20.974       19.854     1230.889      439.897      394.168        0.212        0.103       45.967       21.259        0.214      336.536        7.906      863.316
01/18/2022  18:04:00      -49.395        1.911       -3.588       25.050       25.022       12.665      627.484      626.096      160.399        0.193        0.071       49.432       12.223        0.061      336.633        8.068      863.345
01/18/2022  18:05:00      -21.882       -3.389       -4.170       23.630       17.019       14.119      558.361      289.641      199.348        0.078        0.052       22.143       13.866        0.392      336.583        7.984      863.356
01/18/2022  18:06:00      -62.876       12.540       -3.609       22.580       18.873       13.502      509.866      356.175      182.317        0.259        0.052       64.114        9.784        0.023      336.647        8.091      863.370
01/18/2022  18:07:00      -17.607       -7.668       -7.379       31.641       19.841       14.203     1001.169      393.654      201.738        0.101        0.080       19.204       15.221        0.628      336.459        7.776      863.369
01/18/2022  18:08:00      -56.541        3.548      -10.566       41.784       20.611       17.154     1745.913      424.807      294.277        0.289        0.123       56.652        6.212        0.012      336.467        7.790      863.369
01/18/2022  18:09:00      -74.577       16.524       -7.677       26.626       26.736       14.939      708.938      714.792      223.165        0.377        0.082       76.386       13.291        0.030      336.614        8.035      863.360
01/18/2022  18:10:00      -37.614       -4.328      -14.656       41.035       28.114       25.249     1683.856      790.391      637.513        0.238        0.156       37.862       14.212        0.141      336.549        7.926      863.337
01/18/2022  18:11:00      -33.967       -3.526       -1.283       36.533       28.156       22.540     1334.656      792.768      508.066        0.190        0.132       34.149        8.307        0.059      336.411        7.694      863.332
01/18/2022  18:12:00      -62.531        6.755       -4.469       35.991       30.176       22.148     1295.387      910.589      490.528        0.334        0.135       62.895       18.420        0.086      336.399        7.675      863.332
01/18/2022  18:13:00      -36.050       13.452        1.184       44.177       31.949       26.902     1951.589     1020.768      723.715        0.259        0.185       38.478       26.963        0.491      336.502        7.847      863.334
01/18/2022  18:14:00      -77.021        4.177       -7.901       43.293       30.424       22.993     1874.259      925.646      528.656        0.467        0.166       77.134       13.491        0.031      336.558        7.942      863.335
01/18/2022  18:15:00     -107.162       10.743       -7.126       60.812       30.288       25.499     3698.132      917.344      650.177        0.846        0.263      107.699       23.425        0.047      336.637        8.074      863.345
01/18/2022  18:16:00      -66.979       12.518       -0.852       40.326       26.069       20.786     1626.191      679.576      432.076        0.369        0.137       68.138       20.808        0.093      336.646        8.089      863.369
01/18/2022  18:17:00      -95.928       25.582      -11.295       22.063       23.702       17.598      486.773      561.764      309.700        0.567        0.068       99.281       12.613        0.016      336.440        7.743      863.388
01/18/2022  18:18:00      -66.337        7.044       -3.779       38.684       28.685       17.981     1496.420      822.827      323.331        0.355        0.132       66.710       19.859        0.089      336.485        7.818      863.400
01/18/2022  18:19:00      -42.619        0.520       -6.329       31.952       28.142       16.898     1020.905      791.969      285.532        0.198        0.105       42.622       13.213        0.096      336.340        7.577      863.405
01/18/2022  18:20:00      -24.202        5.038       -4.557       29.591       19.512       12.558      875.652      380.702      157.703        0.102        0.071       24.720       11.626        0.221      336.340        7.576      863.398
01/18/2022  18:21:00      -61.163      -18.603      -12.716       31.993       40.937       19.568     1023.559     1675.871      382.891        0.366        0.154       63.929       14.039        0.048      336.398        7.672      863.371
01/18/2022  18:22:00      -98.592      -63.828      -12.666       29.806       41.878       19.724      888.407     1753.737      389.039        0.849        0.152      117.449       16.262        0.019      336.552        7.931      863.347
01/18/2022  18:23:00     -108.903      -41.507      -21.054       30.969       32.011       21.154      959.055     1024.694      447.472        0.823        0.122      116.544       14.198        0.015      336.547        7.923      863.344
01/18/2022  18:24:00      -90.195      -20.434       -7.332       38.147       39.556       20.820     1455.187     1564.676      433.487        0.603        0.173       92.481       20.999        0.052      336.495        7.834      863.368
01/18/2022  18:25:00      -39.053        6.516       -3.209       30.883       14.652       17.753      953.738      214.675      315.185        0.153        0.074       39.593       18.087        0.209      336.493        7.832      863.412
01/18/2022  18:26:00      -19.608       22.012       -2.345       25.771       33.103       14.379      664.141     1095.808      206.750        0.142        0.098       29.479       11.662        0.156      336.437        7.737      863.471
01/18/2022  18:27:00      -22.286      113.372       -7.628       17.724       22.135       14.368      314.127      489.977      206.442        0.721        0.051      115.542       11.442        0.010      336.451        7.762      863.540
01/18/2022  18:28:00      -28.787      105.893      -13.376       35.188       35.057       21.156     1238.184     1228.981      447.578        0.757        0.146      109.736       15.991        0.021      336.460        7.776      863.589
01/18/2022  18:29:00      -35.720       58.537        0.716       28.633       24.432       22.153      819.845      596.946      490.751        0.330        0.095       68.574       15.389        0.050      336.440        7.743      863.615
01/18/2022  18:30:00      -25.547       24.041       -9.324       29.133       28.222       18.310      848.759      796.488      335.272        0.165        0.099       35.080       12.314        0.123      336.156        7.268      863.618
01/18/2022  18:31:00       -9.929       38.896      -10.002       15.330       21.266       15.107      235.012      452.246      228.226        0.131        0.046       40.143       11.150        0.077      336.198        7.339      863.603
01/18/2022  18:32:00      -11.682       37.174       -4.903       20.951       19.550       17.065      438.931      382.195      291.211        0.133        0.056       38.966        4.618        0.014      336.403        7.681      863.574
01/18/2022  18:33:00       10.005       35.788       -1.215       16.744       23.658       14.611      280.349      559.697      213.496        0.122        0.053       37.160       13.358        0.129      336.392        7.661      863.557
01/18/2022  18:34:00       23.651       27.941       -7.819       24.192       21.556       13.894      585.263      464.651      193.037        0.132        0.062       36.607       10.815        0.087      336.300        7.508      863.556
01/18/2022  18:35:00       19.975       16.738       -2.686       17.499       18.271       14.741      306.206      333.846      217.303        0.077        0.043       26.061       12.016        0.213      336.225        7.383      863.574
01/18/2022  18:36:00      -20.898       13.595       -3.961       21.652       15.284       16.421      468.827      233.588      269.648        0.080        0.049       24.931       15.973        0.410      336.000        7.009      863.612
01/18/2022  18:37:00     -106.804       36.760      -19.176       26.965       22.698       14.106      727.093      515.178      198.990        0.728        0.072      112.953        6.927        0.004      335.833        6.730      863.644
01/18/2022  18:38:00     -129.242       59.878      -16.676       26.706       25.564       16.918      713.214      653.523      286.215        1.111        0.083      142.439        8.774        0.004      335.810        6.692      863.671
01/18/2022  18:39:00     -122.579       50.075      -15.126       20.946       18.364       12.003      438.743      337.219      144.084        0.934        0.046      132.413        5.219        0.002      335.743        6.578      863.683
01/18/2022  18:40:00     -101.413       42.828       -4.319       30.045       17.155       16.726      902.721      294.300      279.750        0.681        0.074      110.086       16.619        0.023      335.787        6.653      863.698
01/18/2022  18:41:00      -81.776       41.413       -6.418       37.771       19.505       21.784     1426.658      380.429      474.530        0.536        0.114       91.665       13.137        0.021      335.878        6.804      863.708
01/18/2022  18:42:00      -45.461       32.610       -3.780       42.679       20.470       20.845     1821.498      419.019      434.507        0.291        0.134       55.947       16.479        0.087      336.025        7.051      863.717
01/18/2022  18:43:00      -41.914       26.766       -3.151       30.810       22.859       16.920      949.281      522.548      286.291        0.212        0.088       49.731       13.291        0.071      336.245        7.417      863.737
01/18/2022  18:44:00      -97.500       40.742      -11.684       43.059       27.671       19.373     1854.065      765.697      375.320        0.715        0.150      105.670        9.970        0.009      335.830        6.725      863.744
01/18/2022  18:45:00     -121.061       65.718       -9.746       35.279       25.365       17.151     1244.633      643.358      294.169        1.063        0.109      137.749       11.397        0.007      335.587        6.321      863.787
01/18/2022  18:46:00     -146.386       65.670      -14.078       29.098       30.279       17.235      846.722      916.827      297.040        1.400        0.103      160.441        5.818        0.001      335.548        6.256      863.823
01/18/2022  18:47:00     -156.890       52.437      -19.556       39.814       29.219       25.419     1585.135      853.778      646.102        1.542        0.154      165.421       20.503        0.015      335.610        6.359      863.836
01/18/2022  18:48:00     -119.302       62.127       -7.308       46.988       35.237       29.849     2207.868     1241.632      890.972        1.124        0.217      134.510       23.876        0.032      335.882        6.812      863.846
01/18/2022  18:49:00     -107.726       42.040      -22.725       47.796       40.916       21.930     2284.469     1674.106      480.907        0.916        0.222      115.639       14.806        0.016      336.021        7.043      863.852
01/18/2022  18:50:00     -101.031       50.118      -11.931       36.910       32.741       20.428     1362.359     1071.947      417.305        0.786        0.143      112.779       16.399        0.021      335.892        6.828      863.862
01/18/2022  18:51:00      -45.468       18.339       -7.330       44.529       33.092       23.580     1982.818     1095.084      556.028        0.304        0.182       49.027        9.797        0.040      335.619        6.374      863.877
01/18/2022  18:52:00     -104.542       29.273      -11.543       53.662       34.319       24.992     2879.584     1177.781      624.606        0.830        0.234      108.563       15.754        0.021      335.516        6.202      863.899
01/18/2022  18:53:00     -143.575       54.386      -16.628       41.690       31.706       20.752     1738.039     1005.249      430.638        1.351        0.159      153.530       13.988        0.008      335.376        5.968      863.910
01/18/2022  18:54:00      -95.649       25.047      -18.619       46.317       31.457       22.649     2145.274      989.555      512.991        0.688        0.182       98.874       22.275        0.051      335.445        6.085      863.914
01/18/2022  18:55:00      -29.658       22.662       -9.881       22.596       21.469       17.986      510.586      460.924      323.497        0.139        0.065       37.324        5.658        0.023      335.644        6.416      863.919
01/18/2022  18:56:00      -32.155        6.269      -15.308       30.051       21.469       16.856      903.091      460.904      284.134        0.148        0.082       32.760       12.244        0.140      335.528        6.222      863.917
01/18/2022  18:57:00      -65.638       20.517      -19.678       27.662       19.801       14.975      765.212      392.060      224.239        0.325        0.069       68.770        6.409        0.009      335.430        6.060      863.938
01/18/2022  18:58:00      -48.193       35.778      -14.828       26.052       19.199       13.567      678.720      368.583      184.070        0.253        0.062       60.021        8.988        0.022      335.498        6.173      863.962
01/18/2022  18:59:00      -37.720       45.769       -6.805       51.352       30.700       16.829     2637.053      942.474      283.227        0.371        0.193       59.309       15.628        0.069      335.673        6.463      863.987
01/18/2022  19:00:00      -55.478       30.438      -15.285       27.423       19.304       19.470      752.026      372.644      379.069        0.287        0.075       63.279       15.615        0.061      335.313        5.863      864.014
01/18/2022  19:01:00      -16.927      105.551       -8.117       26.595       78.566       20.631      707.298     6172.547      425.630        0.940        0.365      106.900       25.603        0.057      335.857        6.770      864.053
01/18/2022  19:02:00      -26.742       92.498       -8.530       34.896       54.873       24.741     1217.722     3011.041      612.111        0.709        0.242       96.286       21.614        0.050      336.133        7.230      864.094
01/18/2022  19:03:00      -18.470       49.386       -9.905       34.590       35.706       17.781     1196.458     1274.926      316.149        0.283        0.139       52.727        9.596        0.033      335.830        6.726      864.120
01/18/2022  19:04:00      -52.708       69.047      -12.586       44.004       58.639       29.126     1936.322     3438.578      848.313        0.696        0.311       86.865       19.051        0.048      335.939        6.906      864.129
01/18/2022  19:05:00      -91.961       70.940      -25.427       20.575       43.691       21.926      423.317     1908.864      480.748        0.847        0.141      116.144       16.544        0.020      336.112        7.196      864.143
01/18/2022  19:06:00      -36.480       38.935      -12.185       40.801       48.138       27.602     1664.749     2317.244      761.872        0.387        0.237       53.354       22.796        0.183      335.972        6.961      864.158
01/18/2022  19:07:00      -49.825       88.666      -14.385       62.022       86.128       27.177     3846.681     7418.038      738.607        1.127        0.600      101.706       25.590        0.063      335.945        6.916      864.161
01/18/2022  19:08:00      -38.255       18.372        5.384       38.754       31.762       24.316     1501.842     1008.819      591.287        0.247        0.155       42.438       22.012        0.269      335.940        6.909      864.158
01/18/2022  19:09:00      -46.727       35.782      -14.077       35.180       33.578       22.610     1237.623     1127.478      511.207        0.327        0.144       58.854       14.854        0.064      335.908        6.854      864.147
01/18/2022  19:10:00      -78.528       20.193      -21.217       52.302       40.511       24.900     2735.501     1641.162      620.001        0.601        0.250       81.083        8.563        0.011      335.819        6.706      864.148
01/18/2022  19:11:00     -120.163       46.129      -24.590       41.494       43.888       39.485     1721.744     1926.177     1559.053        1.119        0.260      128.713       23.413        0.033      335.927        6.886      864.147
01/18/2022  19:12:00      -50.280       65.754      -15.663       47.206       50.352       29.383     2228.388     2535.276      863.344        0.636        0.281       82.774       13.373        0.026      335.984        6.980      864.148
01/18/2022  19:13:00      -99.817       66.167      -26.084       53.948       35.067       27.692     2910.343     1229.728      766.872        0.996        0.245      119.757        6.540        0.003      335.901        6.844      864.143
01/18/2022  19:14:00      -49.465       16.088       -7.513       51.028       22.538       23.146     2603.892      507.966      535.743        0.320        0.182       52.016       26.564        0.261      335.811        6.693      864.148
01/18/2022  19:15:00      -28.026       42.387       -7.803       28.914       50.419       24.989      836.008     2542.093      624.444        0.332        0.200       50.815       19.642        0.149      335.928        6.889      864.161
01/18/2022  19:16:00      -53.837       18.479      -20.618       30.223       27.832       22.888      913.438      774.618      523.850        0.294        0.111       56.920       13.609        0.057      335.843        6.747      864.171
01/18/2022  19:17:00       -5.057        6.622       -3.564       17.427       16.579       12.274      303.715      274.870      150.644        0.041        0.036        8.332        7.529        0.817      335.836        6.735      864.175
01/18/2022  19:18:00      -29.177       -9.520      -15.011       37.041       23.122       20.864     1372.037      534.628      435.326        0.175        0.117       30.690       12.465        0.165      335.836        6.735      864.186
01/18/2022  19:19:00      -66.492       23.071      -12.239       49.040       25.634       28.001     2404.881      657.097      784.053        0.447        0.192       70.381       26.091        0.137      335.902        6.844      864.201
01/18/2022  19:20:00     -102.087       28.805      -10.326       20.366       21.922       19.507      414.765      480.556      380.534        0.632        0.064      106.073       10.180        0.009      335.879        6.806      864.216
01/18/2022  19:21:00     -104.615       49.357      -23.194       36.273       29.149       21.759     1315.697      849.674      473.451        0.828        0.132      115.673        7.372        0.004      335.874        6.798      864.232
01/18/2022  19:22:00      -66.117       67.255      -11.693       33.641       35.753       25.089     1131.736     1278.275      629.459        0.603        0.152       94.312       11.361        0.015      335.990        6.992      864.260
01/18/2022  19:23:00      -38.824       41.119       -7.024       50.818       27.738       21.304     2582.512      769.397      453.862        0.353        0.190       56.552       18.423        0.106      335.865        6.784      864.284
01/18/2022  19:24:00      -32.848      106.259       -8.766       35.590       52.590       25.239     1266.665     2765.734      636.991        0.856        0.233      111.220       10.128        0.008      335.913        6.864      864.310
01/18/2022  19:25:00      -31.994      143.207      -11.233       45.355       54.276       27.749     2057.039     2945.860      770.006        1.371        0.289      146.738       13.251        0.008      335.834        6.730      864.329
01/18/2022  19:26:00      -65.147       57.403      -17.058       47.319       50.915       19.784     2239.104     2592.328      391.415        0.653        0.261       86.828       18.702        0.046      335.758        6.605      864.343
01/18/2022  19:27:00      -69.795       11.854       -0.061       83.346       41.312       26.727     6946.516     1706.707      714.332        0.719        0.468       70.794       27.838        0.155      335.486        6.152      864.357
01/18/2022  19:28:00     -112.176      -16.232      -25.057       40.462       39.027       31.127     1637.145     1523.070      968.890        0.880        0.206      113.345       12.817        0.013      335.445        6.085      864.363
01/18/2022  19:29:00     -127.432      -25.567       -6.715       46.217       57.123       31.686     2135.988     3263.086     1004.001        1.167        0.320      129.971       22.283        0.029      335.375        5.967      864.369
01/18/2022  19:30:00     -107.861      -13.427       -3.008       64.115       48.684       32.359     4110.731     2370.158     1047.104        0.967        0.376      108.694       31.460        0.084      335.344        5.915      864.374
01/18/2022  19:31:00      -88.323        3.036        3.280       64.689       35.594       31.123     4184.712     1266.966      968.661        0.712        0.321       88.376       25.247        0.082      335.330        5.892      864.391
01/18/2022  19:32:00      -30.117      -12.669       -6.204       59.975       27.885       20.621     3597.036      777.564      425.216        0.295        0.240       32.674       12.706        0.151      335.325        5.884      864.413
01/18/2022  19:33:00      -52.028      -26.000      -12.485       65.439       29.325       27.572     4282.254      859.982      760.223        0.472        0.295       58.163       20.764        0.127      335.342        5.909      864.431
01/18/2022  19:34:00      -92.287        8.152      -11.301       36.126       44.585       25.321     1305.119     1987.783      641.176        0.632        0.197       92.646       22.562        0.059      335.334        5.898      864.451
01/18/2022  19:35:00     -109.981       -0.692      -16.417       42.571       22.335       20.123     1812.248      498.847      404.928        0.754        0.136      109.984       22.425        0.042      335.375        5.967      864.463
01/18/2022  19:36:00      -65.380        9.022      -15.954       39.747       18.902       20.316     1579.808      357.293      412.752        0.348        0.117       66.000       21.014        0.101      335.401        6.009      864.478
01/18/2022  19:37:00      -81.698       24.488       -5.847       38.551       26.463       20.715     1486.158      700.309      429.110        0.496        0.131       85.289       15.214        0.032      335.286        5.817      864.496
01/18/2022  19:38:00      -72.269       14.030       -5.071       39.461       35.066       21.579     1557.191     1229.640      465.638        0.435        0.163       73.618       18.241        0.061      335.259        5.774      864.505
01/18/2022  19:39:00      -73.395        2.598      -13.242       36.012       24.613       17.846     1296.840      605.797      318.478        0.389        0.111       73.441       14.195        0.037      335.299        5.839      864.515
01/18/2022  19:40:00      -18.164      -19.680        3.739       29.229       18.215       18.721      854.338      331.784      350.476        0.113        0.077       26.781        7.142        0.071      335.399        6.007      864.520
01/18/2022  19:41:00      -30.757       12.923       -6.150       26.378       17.610       13.082      695.822      310.101      171.143        0.116        0.059       33.361        5.871        0.031      335.357        5.936      864.539
01/18/2022  19:42:00       -3.105       46.835       -1.573       20.276       26.214       17.605      411.097      687.198      309.932        0.181        0.070       46.937       11.355        0.059      335.379        5.971      864.567
01/18/2022  19:43:00       15.753       65.987      -15.853       20.574       25.243       15.088      423.271      637.195      227.649        0.307        0.064       67.841       10.233        0.023      335.451        6.093      864.587
01/18/2022  19:44:00        1.722       66.351       -5.649       18.106       22.746       17.364      327.826      517.362      301.521        0.279        0.057       66.373        6.986        0.011      335.480        6.141      864.602
01/18/2022  19:45:00        5.399       79.888       -9.628       15.183       18.588       13.462      230.514      345.529      181.226        0.363        0.038       80.070        5.623        0.005      335.449        6.089      864.616
01/18/2022  19:46:00       46.957       38.677       -9.498       19.700       12.680       11.814      388.084      160.778      139.571        0.224        0.034       60.835        8.339        0.019      335.308        5.853      864.616
01/18/2022  19:47:00       51.962       35.118      -10.516       10.372        9.278        6.189      107.572       86.074       38.305        0.214        0.012       62.717        4.823        0.006      335.314        5.863      864.619
01/18/2022  19:48:00       23.982       35.543       -6.305       19.335       20.793       10.315      373.855      432.352      106.393        0.140        0.046       42.877       10.731        0.063      335.352        5.927      864.623
01/18/2022  19:49:00      -17.322       33.654       -7.666       24.748       16.745       14.910      612.466      280.392      222.299        0.130        0.056       37.850        8.193        0.047      335.304        5.848      864.624
01/18/2022  19:50:00      -38.865       13.349       -7.801       37.940       16.813       15.607     1439.458      282.663      243.576        0.186        0.098       41.094       10.891        0.070      335.371        5.960      864.622
01/18/2022  19:51:00      -17.704       12.877      -10.414       34.591       16.556       15.293     1196.529      274.099      233.890        0.115        0.085       21.892        4.973        0.052      335.300        5.841      864.624
01/18/2022  19:52:00      -20.982        4.519       -8.628       21.569       16.763       11.254      465.237      281.006      126.647        0.070        0.044       21.463        8.357        0.152      335.320        5.875      864.622
01/18/2022  19:53:00      -17.464       13.522      -12.282       18.000       12.743       13.756      323.983      162.384      189.225        0.066        0.034       22.087       11.395        0.266      335.300        5.842      864.624
01/18/2022  19:54:00      -40.522       21.375       -6.786       16.865       15.361       11.481      284.416      235.968      131.822        0.140        0.033       45.814        7.154        0.024      335.300        5.841      864.627
01/18/2022  19:55:00      -39.744       26.118       -7.266       21.464       15.693        9.800      460.723      246.266       96.044        0.156        0.040       47.558        3.864        0.007      335.532        6.229      864.631
01/18/2022  19:56:00      -15.367       12.876      -12.540       12.397       10.336       12.376      153.687      106.826      153.171        0.049        0.021       20.048        5.868        0.086      335.329        5.889      864.649
01/18/2022  19:57:00      -32.923       10.053      -16.841       17.883       20.919       14.184      319.802      437.625      201.191        0.121        0.048       34.423        2.698        0.006      335.303        5.845      864.658
01/18/2022  19:58:00      -57.740       14.123      -17.065       37.099       19.291       11.810     1376.327      372.156      139.480        0.286        0.094       59.443       11.415        0.037      335.205        5.683      864.672
01/18/2022  19:59:00      -79.001       20.140      -18.360       19.349       13.320        9.780      374.387      177.416       95.655        0.382        0.032       81.528        7.004        0.007      335.096        5.505      864.683
01/18/2022  20:00:00      -42.096       17.787       -7.478       21.872       13.757       13.378      478.382      189.257      178.974        0.150        0.042       45.700       13.605        0.089      335.170        5.626      864.694
01/18/2022  20:01:00      -14.380       27.559       -3.264       27.046       17.140       13.663      731.475      293.772      186.681        0.109        0.061       31.085        5.335        0.029      335.207        5.687      864.708
01/18/2022  20:02:00       57.639       37.918      -16.635       20.997       17.445       17.342      440.876      304.318      300.734        0.304        0.052       68.992       13.945        0.041      335.353        5.930      864.720
01/18/2022  20:03:00       28.999       40.595      -13.263       15.912       22.335       10.529      253.177      498.838      110.865        0.176        0.043       49.889        6.951        0.019      335.374        5.964      864.736
01/18/2022  20:04:00       37.103       29.494       -9.587       15.169       15.609       11.963      230.105      243.637      143.113        0.148        0.031       47.398        9.292        0.038      335.077        5.471      864.749
01/18/2022  20:05:00       12.800       27.349       -5.766       41.525       12.375       11.117     1724.309      153.143      123.594        0.147        0.100       30.196       13.535        0.201      335.070        5.461      864.749
01/18/2022  20:06:00      -86.972       19.600      -23.283       23.287       25.737       15.281      542.265      662.403      233.511        0.496        0.072       89.153        7.414        0.007      334.707        4.857      864.757
01/18/2022  20:07:00      -75.498       18.268      -15.333       29.830       23.066       19.607      889.830      532.058      384.445        0.404        0.090       77.677       17.556        0.051      334.799        5.009      864.759
01/18/2022  20:08:00      -67.262       36.622      -22.219       31.394       37.987       22.663      985.556     1443.033      513.629        0.465        0.147       76.586       14.443        0.036      335.006        5.355      864.759
01/18/2022  20:09:00      -55.630       27.867      -12.507       30.594       24.316       15.115      935.995      591.248      228.473        0.289        0.088       62.219        8.787        0.020      334.774        4.967      864.762
01/18/2022  20:10:00      -38.296       10.791       -7.607       25.591       22.045       15.216      654.903      485.964      231.534        0.151        0.069       39.787       10.173        0.065      334.502        4.515      864.771
01/18/2022  20:11:00      -76.565       29.729      -16.588       26.443       27.557       15.764      699.226      759.386      248.517        0.436        0.085       82.135       15.194        0.034      334.569        4.628      864.789
01/18/2022  20:12:00      -25.127       -3.184       -8.880       41.459       28.787       19.618     1718.878      828.671      384.883        0.183        0.147       25.328       15.970        0.398      334.503        4.518      864.797
01/18/2022  20:13:00      -19.044        9.362       -2.326       34.674       20.362       20.451     1202.316      414.627      418.250        0.125        0.102       21.221       14.128        0.443      334.566        4.623      864.792
01/18/2022  20:14:00      -76.432       26.803      -17.911       52.391       28.542       24.539     2744.843      814.644      602.143        0.552        0.208       80.995       13.655        0.028      334.495        4.504      864.792
01/18/2022  20:15:00     -128.548       49.497      -16.785       37.472       22.272       17.087     1404.146      496.036      291.964        1.072        0.110      137.748       11.127        0.007      334.517        4.541      864.784
01/18/2022  20:16:00     -112.879       64.591      -11.914       37.686       25.791       22.510     1420.265      665.160      506.704        0.982        0.130      130.053       21.801        0.028      334.705        4.854      864.783
01/18/2022  20:17:00      -87.719       18.703       -9.040       27.412       17.334       14.246      751.417      300.459      202.944        0.469        0.063       89.690        9.957        0.012      334.709        4.859      864.787
01/18/2022  20:18:00     -103.884       30.990       -9.116       24.263       15.937       11.095      588.678      253.991      123.107        0.640        0.048      108.408        9.392        0.008      334.747        4.924      864.792
01/18/2022  20:19:00     -120.511       71.968      -11.004       32.549       32.859       22.388     1059.457     1079.704      501.210        1.123        0.132      140.365       20.876        0.022      334.795        5.003      864.801
01/18/2022  20:20:00      -96.808       45.493      -12.455       38.419       19.127       15.671     1475.986      365.857      245.583        0.684        0.104      106.964       10.229        0.009      334.742        4.915      864.806
01/18/2022  20:21:00      -82.685       38.871      -16.412       36.931       24.539       15.292     1363.922      602.160      233.839        0.541        0.110       91.366        9.639        0.011      334.781        4.980      864.818
01/18/2022  20:22:00     -118.080       53.900      -14.976       44.178       33.944       23.727     1951.663     1152.200      562.985        1.037        0.183      129.800       21.194        0.027      334.600        4.679      864.831
01/18/2022  20:23:00      -96.751       62.441      -11.586       58.996       36.791       27.761     3480.482     1353.588      770.678        0.950        0.280      115.151       19.667        0.029      334.541        4.581      864.837
01/18/2022  20:24:00      -63.499       34.344       -9.251       39.587       19.093       16.727     1567.133      364.527      279.783        0.375        0.111       72.192       13.836        0.037      334.612        4.698      864.838
01/18/2022  20:25:00       -6.829       22.421       -9.584       16.400       16.796       16.254      268.952      282.102      264.182        0.073        0.041       23.438        8.577        0.134      334.845        5.087      864.830
01/18/2022  20:26:00       -6.801       37.508       -8.339       24.381       27.520       16.153      594.421      757.362      260.928        0.157        0.081       38.119        9.465        0.062      335.006        5.353      864.825
01/18/2022  20:27:00      -10.328       15.541      -12.624       12.767       14.614       10.893      162.986      213.557      118.658        0.050        0.025       18.660        4.372        0.055      334.759        4.944      864.823
01/18/2022  20:28:00       -3.924       23.508      -10.424       21.073       19.467       13.551      444.051      378.983      183.631        0.084        0.050       23.833        9.714        0.166      334.729        4.892      864.820
01/18/2022  20:29:00      -16.411       17.548      -13.179       12.672       15.272       13.436      160.577      233.224      180.523        0.066        0.029       24.026        9.317        0.150      334.766        4.956      864.812
01/18/2022  20:30:00      -33.493       27.285      -19.385       23.855       16.777       14.228      569.064      281.460      202.427        0.165        0.053       43.200       13.152        0.093      334.900        5.177      864.798
01/18/2022  20:31:00      -53.066       18.389      -16.350       25.821       14.916       11.597      666.748      222.481      134.487        0.222        0.051       56.162       11.881        0.045      334.811        5.029      864.789
01/18/2022  20:32:00      -71.931       32.164      -10.181       18.704       15.818       15.277      349.848      250.204      233.372        0.357        0.042       78.795       10.830        0.019      334.605        4.686      864.787
01/18/2022  20:33:00      -97.387       37.793      -18.218       34.813       29.781       16.952     1211.949      886.923      287.362        0.681        0.119      104.463       17.416        0.028      334.478        4.477      864.785
01/18/2022  20:34:00      -91.511       28.727      -10.885       36.578       30.199       24.138     1337.956      911.997      582.635        0.607        0.142       95.914       19.711        0.042      334.361        4.282      864.782
01/18/2022  20:35:00      -77.069       43.306       -3.275       52.958       24.727       18.687     2804.590      611.406      349.220        0.579        0.188       88.403       17.827        0.041      334.572        4.632      864.784
01/18/2022  20:36:00      -44.395        5.722        0.777       44.800       24.854       21.707     2007.058      617.727      471.185        0.255        0.155       44.763       15.824        0.125      334.499        4.511      864.778
01/18/2022  20:37:00     -134.413       29.447      -17.468       40.200       25.860       28.123     1616.035      668.745      790.893        1.116        0.154      137.601       23.307        0.029      334.543        4.584      864.766
01/18/2022  20:38:00     -132.092       64.760      -12.414       57.576       33.742       27.602     3315.003     1138.552      761.853        1.350        0.261      147.113       27.434        0.035      334.360        4.280      864.754
01/18/2022  20:39:00     -117.034       44.460       -2.774       41.249       30.171       21.067     1701.513      910.310      443.803        0.937        0.153      125.195       17.756        0.020      334.259        4.112      864.738
01/18/2022  20:40:00      -95.037       12.215       -5.847       41.397       33.485       25.124     1713.736     1121.241      631.207        0.634        0.173       95.819       19.246        0.040      334.380        4.315      864.726
01/18/2022  20:41:00     -120.414       68.991      -15.126       45.701       45.785       29.901     2088.576     2096.231      894.044        1.228        0.254      138.777       25.360        0.033      334.463        4.452      864.722
01/18/2022  20:42:00     -130.274       66.873      -25.431       34.289       41.255       26.525     1175.757     1702.015      703.581        1.284        0.179      146.436       22.839        0.024      334.398        4.342      864.718
01/18/2022  20:43:00     -119.135       38.513      -12.589       46.811       42.870       21.478     2191.252     1837.818      461.301        1.016        0.225      125.206       19.691        0.025      334.306        4.192      864.718
01/18/2022  20:44:00     -100.894       24.486       -0.154       38.762       28.647       20.696     1502.458      820.663      428.316        0.676        0.138      103.823       20.458        0.039      334.360        4.281      864.724
01/18/2022  20:45:00     -105.988       18.079       -4.598       56.885       32.248       27.814     3235.957     1039.956      773.596        0.831        0.252      107.519       22.678        0.044      334.301        4.182      864.740
01/18/2022  20:46:00      -95.268       47.451      -13.158       56.505       36.980       26.804     3192.783     1367.492      718.441        0.839        0.264      106.431       26.241        0.061      334.290        4.164      864.756
01/18/2022  20:47:00      -69.444       11.790       -3.123       50.180       36.564       21.685     2517.989     1336.920      470.260        0.465        0.216       70.437       18.690        0.070      334.122        3.887      864.761
01/18/2022  20:48:00      -97.416       23.711      -10.295       40.468       27.690       24.169     1637.670      766.743      584.138        0.657        0.149      100.260       22.700        0.051      334.193        4.003      864.772
01/18/2022  20:49:00     -109.288       29.431      -12.080       56.183       36.946       19.647     3156.529     1365.042      386.009        0.893        0.245      113.181       15.048        0.018      334.146        3.926      864.786
01/18/2022  20:50:00      -92.789       -3.405        0.684       71.355       23.854       28.891     5091.596      569.009      834.690        0.756        0.325       92.852       32.281        0.121      334.148        3.930      864.803
01/18/2022  20:51:00      -62.834        1.381      -17.762       38.338       29.603       16.336     1469.767      876.315      266.868        0.344        0.131       62.849       13.811        0.048      334.150        3.934      864.825
01/18/2022  20:52:00      -31.289       -4.697       -3.214       34.058       24.456       22.294     1159.935      598.096      497.023        0.163        0.113       31.639       20.615        0.425      334.225        4.055      864.846
01/18/2022  20:53:00      -82.192      -17.093      -11.577       60.644       22.907       28.484     3677.738      524.746      811.356        0.610        0.251       83.950       28.172        0.113      334.263        4.120      864.867
01/18/2022  20:54:00      -42.428       -1.413       -3.984       38.916       35.684       21.427     1514.441     1273.359      459.107        0.253        0.162       42.451       20.286        0.228      334.226        4.058      864.894
01/18/2022  20:55:00      -15.264       -8.590       -3.128       20.713       28.148       17.468      429.044      792.325      305.130        0.092        0.076       17.515       12.481        0.508      334.332        4.235      864.903
01/18/2022  20:56:00      -11.577      -15.224       -3.954        9.234        8.036       12.795       85.262       64.584      163.709        0.035        0.016       19.125        7.022        0.135      334.393        4.334      864.912
01/18/2022  20:57:00      -13.215        3.558      -18.436       14.041       15.518        9.743      197.159      240.801       94.926        0.053        0.027       13.685        6.163        0.203      334.306        4.191      864.915
01/18/2022  20:58:00      -10.153       17.164       -3.952       16.567       11.208       10.761      274.470      125.619      115.800        0.046        0.026       19.942        8.477        0.181      334.349        4.263      864.916
01/18/2022  20:59:00      -39.824        2.007      -16.007       16.077       19.500       14.239      258.465      380.263      202.748        0.134        0.042       39.874        4.842        0.015      334.327        4.226      864.917
01/18/2022  21:00:00      -22.362       -1.653       -2.640       27.344       19.967       19.828      747.702      398.698      393.164        0.102        0.077       22.423       17.949        0.641      334.260        4.115      864.915
01/18/2022  21:01:00      -25.743        0.723      -10.453       33.915       20.456       25.438     1150.201      418.459      647.095        0.149        0.111       25.753       16.486        0.410      334.268        4.128      864.915
01/18/2022  21:02:00      -38.218       -3.762       -5.143       28.008       13.359       13.353      784.439      178.462      178.314        0.132        0.057       38.402       10.782        0.079      334.206        4.025      864.921
01/18/2022  21:03:00      -54.804       -5.673      -14.695       34.574       25.231       18.932     1195.346      636.619      358.413        0.272        0.110       55.097        9.598        0.030      334.188        3.995      864.925
01/18/2022  21:04:00      -88.894       17.202       -8.282       25.201       25.677       18.755      635.094      659.329      351.735        0.496        0.082       90.543        9.852        0.012      334.243        4.086      864.947
01/18/2022  21:05:00      -96.117        2.147      -22.284       41.765       29.112       21.940     1744.298      847.483      481.356        0.641        0.154       96.141       13.895        0.021      334.291        4.165      864.967
01/18/2022  21:06:00     -120.686       22.001       -1.372       51.524       27.748       24.174     2654.675      769.970      584.404        0.953        0.200      122.675       23.355        0.036      334.126        3.892      864.987
01/18/2022  21:07:00      -34.013       -0.116       -7.177       39.455       18.984       19.395     1556.667      360.405      376.162        0.175        0.115       34.013        6.425        0.036      334.159        3.948      865.000
01/18/2022  21:08:00       -7.313        6.413       -3.262       10.158       15.581       10.412      103.186      242.763      108.407        0.028        0.023        9.727        7.334        0.568      334.142        3.918      865.031
01/18/2022  21:09:00      -83.221       45.754       -8.989       29.833       25.491       13.826      890.009      649.781      191.148        0.542        0.087       94.970       11.855        0.016      334.090        3.834      865.074
01/18/2022  21:10:00      -84.231       32.304       -6.470       36.528       20.371       17.126     1334.286      414.962      293.299        0.511        0.102       90.213       11.748        0.017      334.086        3.828      865.095
01/18/2022  21:11:00      -48.915        7.481       -6.611       35.337       19.502       19.474     1248.700      380.335      379.218        0.225        0.100       49.484       18.013        0.133      334.102        3.853      865.115
01/18/2022  21:12:00      -67.139       12.080      -10.067       28.803       28.444       18.457      829.601      809.051      340.675        0.337        0.099       68.217       16.679        0.060      334.040        3.750      865.127
01/18/2022  21:13:00      -75.553       44.986       -3.671       54.387       30.676       19.723     2957.907      941.011      388.994        0.602        0.214       87.932       25.012        0.081      333.882        3.489      865.142
01/18/2022  21:14:00      -49.463       14.625      -19.104       28.040       20.553       16.597      786.215      422.441      275.469        0.225        0.074       51.579        8.259        0.026      333.877        3.480      865.154
01/18/2022  21:15:00      -21.545       -1.085      -11.183       15.249       14.827       15.061      232.518      219.829      226.825        0.063        0.034       21.572        7.448        0.119      333.954        3.609      865.173
01/18/2022  21:16:00        5.348      -18.584      -11.194       12.444       13.181       14.190      154.857      173.743      201.352        0.051        0.026       19.338        8.451        0.191      334.055        3.776      865.187
01/18/2022  21:17:00       -1.077      -27.386       -9.020       13.429       13.805        9.745      180.347      190.591       94.962        0.065        0.023       27.407        7.746        0.080      334.123        3.887      865.198
01/18/2022  21:18:00       -2.866      -19.462       -4.631       12.336        9.332       14.492      152.189       87.082      210.028        0.043        0.022       19.672        3.253        0.027      334.213        4.036      865.192
01/18/2022  21:19:00      -22.765       -0.627      -14.895       18.407       23.661       16.787      338.810      559.864      281.789        0.096        0.059       22.774       15.296        0.451      334.161        3.950      865.185
01/18/2022  21:20:00      -48.058       -3.476      -12.052       48.000       31.143       29.370     2303.978      969.908      862.570        0.330        0.207       48.183       22.661        0.221      333.901        3.521      865.181
01/18/2022  21:21:00      -62.780        0.602       -3.323       59.423       33.452       28.528     3531.107     1119.063      813.826        0.471        0.273       62.783       26.931        0.184      333.893        3.507      865.186
01/18/2022  21:22:00      -48.198        2.340       -6.799       34.508       24.064       19.904     1190.793      579.062      396.183        0.227        0.108       48.255       14.337        0.088      333.910        3.535      865.202
01/18/2022  21:23:00      -21.924        5.429       -0.477       31.175       12.085       11.995      971.865      146.053      143.890        0.089        0.063       22.586       12.935        0.328      333.915        3.544      865.216
01/18/2022  21:24:00     -109.566       21.036      -13.140       28.481       18.471       19.570      811.168      341.160      382.989        0.708        0.077      111.567       14.571        0.017      333.975        3.643      865.236
01/18/2022  21:25:00      -42.043        2.490       -4.909       51.807       32.116       27.479     2683.930     1031.438      755.103        0.313        0.224       42.117       22.096        0.275      333.822        3.390      865.247
01/18/2022  21:26:00     -101.025      -15.992       -5.809       68.435       29.957       24.654     4683.377      897.445      607.815        0.834        0.309      102.283       25.705        0.063      334.012        3.704      865.259
01/18/2022  21:27:00      -90.422        4.188       -1.546       24.039       18.770       17.708      577.890      352.310      313.577        0.472        0.062       90.519        9.551        0.011      334.198        4.011      865.268
01/18/2022  21:28:00      -25.533       -3.305       -6.946       24.432       18.039       15.209      596.946      325.410      231.311        0.093        0.058       25.746        7.292        0.080      334.149        3.930      865.286
01/18/2022  21:29:00      -60.738        5.177       -5.554       35.083       24.641       22.442     1230.846      607.195      503.628        0.304        0.117       60.958       21.520        0.125      334.021        3.720      865.303
01/18/2022  21:30:00      -49.928       15.817        3.043       39.416       25.373       19.122     1553.605      643.794      365.650        0.266        0.128       52.374       18.809        0.129      333.973        3.641      865.321
01/18/2022  21:31:00      -42.512        6.749       -3.818       31.238       18.774       15.884      975.844      352.475      252.308        0.172        0.079       43.045       15.094        0.123      334.025        3.726      865.331
01/18/2022  21:32:00      -52.907        8.200       -9.225       25.778       20.490       12.924      664.486      419.831      167.021        0.210        0.063       53.539        7.407        0.019      334.021        3.719      865.334
01/18/2022  21:33:00      -48.533       -0.272       -5.677       38.640       25.060       18.359     1493.035      627.998      337.059        0.242        0.123       48.534       13.626        0.079      334.001        3.687      865.342
01/18/2022  21:34:00      -27.238       15.778       -0.197       42.245       25.701       21.627     1784.615      660.563      467.741        0.195        0.146       31.478       19.980        0.403      333.894        3.508      865.350
01/18/2022  21:35:00      -35.409        0.626       -0.409       30.275       34.064       21.527      916.587     1160.371      463.431        0.190        0.127       35.415       18.977        0.287      333.844        3.425      865.359
01/18/2022  21:36:00     -103.175       23.727       -8.224       47.131       30.285       20.565     2221.363      917.202      422.916        0.742        0.178      105.868       15.981        0.023      333.873        3.473      865.364
01/18/2022  21:37:00      -97.821       17.080       -0.289       45.471       28.383       21.422     2067.645      805.570      458.890        0.660        0.167       99.301       19.845        0.040      333.740        3.254      865.384
01/18/2022  21:38:00      -83.748       20.499       -0.150       62.205       33.795       24.655     3869.501     1142.103      607.864        0.653        0.281       86.220       24.173        0.079      333.699        3.185      865.398
01/18/2022  21:39:00     -102.665        4.380      -10.666       28.746       31.918       23.483      826.358     1018.768      551.428        0.653        0.120      102.758       17.200        0.028      333.778        3.318      865.412
01/18/2022  21:40:00      -69.708      -13.292       -9.262       46.754       35.719       20.695     2185.974     1275.866      428.303        0.451        0.195       70.964       19.849        0.078      333.784        3.326      865.419
01/18/2022  21:41:00      -91.334       -9.551       -4.722       49.794       34.840       31.912     2479.418     1213.847     1018.378        0.658        0.236       91.832       30.247        0.108      333.757        3.282      865.439
01/18/2022  21:42:00      -96.398       -2.341       -4.522       58.927       38.458       24.618     3472.383     1478.989      606.041        0.744        0.278       96.427       26.539        0.076      333.788        3.333      865.452
01/18/2022  21:43:00     -154.686      -18.890       -7.433       56.296       46.178       34.226     3169.218     2132.376     1171.411        1.541        0.324      155.835       32.281        0.043      333.743        3.259      865.462
01/18/2022  21:44:00      -96.898       -9.292       -2.500       51.131       37.187       31.872     2614.352     1382.846     1015.793        0.725        0.251       97.343       26.629        0.075      333.693        3.176      865.469
01/18/2022  21:45:00      -83.865      -18.510       -7.683       34.815       33.879       23.037     1212.111     1147.764      530.718        0.516        0.145       85.883       18.681        0.047      333.768        3.299      865.472
01/18/2022  21:46:00      -85.066      -19.592       -8.035       36.566       23.476       18.780     1337.041      551.108      352.680        0.496        0.112       87.293       20.813        0.057      333.729        3.235      865.473
01/18/2022  21:47:00      -93.973       -0.884      -13.917       29.879       36.192       24.168      892.727     1309.876      584.093        0.591        0.139       93.978       11.009        0.014      333.737        3.249      865.478
01/18/2022  21:48:00     -139.555      -11.951      -12.441       54.037       44.672       33.293     2919.976     1995.579     1108.402        1.290        0.301      140.066       19.380        0.019      333.726        3.230      865.483
01/18/2022  21:49:00     -124.056       10.785       -4.456       62.009       27.981       23.849     3845.097      782.910      568.795        1.036        0.260      124.524       29.154        0.055      333.718        3.216      865.486
01/18/2022  21:50:00     -131.339       -5.061      -10.636       47.131       39.615       24.437     2221.375     1569.356      597.156        1.089        0.219      131.436       24.694        0.035      333.612        3.042      865.492
01/18/2022  21:51:00      -88.140      -14.124       -0.563       43.193       36.876       25.956     1865.666     1359.851      673.696        0.593        0.195       89.264       23.167        0.067      333.639        3.086      865.492
01/18/2022  21:52:00     -143.927       11.484       -5.179       44.593       40.383       24.949     1988.535     1630.784      622.440        1.256        0.212      144.384       20.263        0.020      333.590        3.005      865.502
01/18/2022  21:53:00      -98.441       -2.463       -5.388       50.835       36.260       22.150     2584.246     1314.819      490.633        0.706        0.219       98.472       19.291        0.038      333.563        2.960      865.516
01/18/2022  21:54:00      -76.043        1.792       -3.060       45.152       30.884       25.128     2038.733      953.846      631.406        0.471        0.181       76.064       21.563        0.080      333.632        3.075      865.519
01/18/2022  21:55:00      -79.420        3.432       -9.097       39.587       29.076       21.071     1567.119      845.441      444.002        0.463        0.143       79.494       18.953        0.057      333.609        3.037      865.521
01/18/2022  21:56:00      -69.600      -15.966       -2.839       40.483       36.187       25.086     1638.865     1309.472      629.329        0.434        0.179       71.408       22.593        0.100      333.648        3.101      865.513
01/18/2022  21:57:00      -56.992       -8.464       -1.597       49.996       33.307       24.993     2499.646     1109.364      624.645        0.378        0.212       57.617       23.038        0.160      333.603        3.028      865.507
01/18/2022  21:58:00      -78.149      -13.613       -6.814       57.820       43.476       31.629     3343.174     1890.188     1000.368        0.629        0.312       79.326       28.497        0.129      333.664        3.127      865.504
01/18/2022  21:59:00      -54.233       -4.771       -4.799       43.719       33.586       21.256     1911.376     1128.022      451.833        0.324        0.175       54.443       12.161        0.050      333.643        3.094      865.505
01/18/2022  22:00:00      -29.087        2.058       -1.763       32.527       30.949       20.286     1057.991      957.868      411.526        0.164        0.121       29.160       17.203        0.348      333.626        3.067      865.505
01/18/2022  22:01:00      -54.888        0.936       -3.758       29.685       27.355       18.402      881.202      748.276      338.618        0.250        0.098       54.896       12.034        0.048      333.695        3.178      865.510
01/18/2022  22:02:00      -28.145        8.022        6.288       32.619       22.591       20.576     1063.967      510.368      423.385        0.145        0.100       29.266       18.672        0.407      333.689        3.169      865.516
01/18/2022  22:03:00      -33.874       -5.238       -1.618       40.939       24.090       20.574     1676.012      580.309      423.284        0.193        0.134       34.277       20.780        0.368      333.665        3.130      865.519
01/18/2022  22:04:00      -78.886       13.183       -4.978       36.409       26.998       22.480     1325.608      728.876      505.346        0.449        0.128       79.980       16.885        0.045      333.668        3.135      865.515
01/18/2022  22:05:00      -59.207       -9.757       -2.779       49.624       29.280       30.589     2462.567      857.295      935.668        0.393        0.213       60.005       28.615        0.227      333.658        3.119      865.510
01/18/2022  22:06:00     -109.284       19.405       -1.305       39.615       30.597       26.579     1569.309      936.179      706.434        0.777        0.161      110.994       25.007        0.051      333.628        3.068      865.511
01/18/2022  22:07:00     -106.528       23.501        6.823       48.788       34.438       28.214     2380.229     1186.008      796.041        0.815        0.218      109.090       25.905        0.056      333.452        2.778      865.505
01/18/2022  22:08:00       -7.452      -11.925        4.228       52.876       34.385       37.261     2795.847     1182.349     1388.350        0.279        0.268       14.062       33.083        5.535      333.359        2.623      865.511
01/18/2022  22:09:00      -26.024        0.025       -0.690       44.546       37.778       31.600     1984.336     1427.144      998.552        0.254        0.221       26.025       28.214        1.175      333.395        2.683      865.511
01/18/2022  22:10:00      -97.041      -10.189        0.704       81.831       53.585       39.708     6696.233     2871.328     1576.732        1.033        0.557       97.574       39.542        0.164      333.450        2.773      865.515
01/18/2022  22:11:00      -85.063        3.875       -1.545       68.729       38.206       33.034     4723.661     1459.697     1091.226        0.726        0.364       85.151       27.691        0.106      333.526        2.898      865.527
01/18/2022  22:12:00      -96.320      -11.806      -12.140       64.863       37.291       28.476     4207.244     1390.633      810.910        0.799        0.320       97.041       12.284        0.016      333.536        2.917      865.541
01/18/2022  22:13:00     -167.354       26.018      -15.473       40.071       36.559       25.879     1605.690     1336.570      669.738        1.627        0.181      169.364       10.756        0.004      333.496        2.850      865.558
01/18/2022  22:14:00     -128.642       31.220      -13.288       39.030       35.328       31.090     1523.353     1248.059      966.562        1.072        0.187      132.376       20.464        0.024      333.450        2.773      865.579
01/18/2022  22:15:00     -145.858       18.968      -12.614       33.449       23.317       19.583     1118.807      543.667      383.500        1.192        0.102      147.087       14.311        0.009      333.416        2.717      865.594
01/18/2022  22:16:00      -48.982       10.452       -1.979       51.832       37.772       33.067     2686.567     1426.703     1093.408        0.386        0.260       50.085       31.274        0.390      333.386        2.668      865.609
01/18/2022  22:17:00      -26.606       -1.355       -0.622       60.186       28.905       25.063     3622.329      835.491      628.176        0.290        0.254       26.640       25.748        0.934      333.396        2.684      865.623
01/18/2022  22:18:00       14.864        5.057       -0.810       22.401       17.745       17.620      501.796      314.889      310.464        0.069        0.056       15.700       13.741        0.766      333.380        2.657      865.634
01/18/2022  22:19:00      -36.374        7.506       -5.835       52.619       20.141       20.928     2768.802      405.667      437.977        0.251        0.181       37.141       17.663        0.226      333.401        2.692      865.643
01/18/2022  22:20:00      -81.573       -6.984       -5.220       35.512       23.686       19.557     1261.084      561.038      382.480        0.447        0.110       81.872       18.455        0.051      333.477        2.817      865.645
01/18/2022  22:21:00      -52.318       -1.329       -2.524       27.720       24.299       18.124      768.422      590.447      328.472        0.222        0.084       52.334       15.833        0.092      333.511        2.874      865.637
01/18/2022  22:22:00      -57.364       -0.938       -6.967       42.333       28.070       28.329     1792.042      787.923      802.517        0.336        0.169       57.372       25.371        0.196      333.526        2.900      865.632
01/18/2022  22:23:00      -38.965        4.506        5.096       46.075       41.920       37.123     2122.948     1757.280     1378.094        0.341        0.263       39.225       26.284        0.449      333.504        2.863      865.637
01/18/2022  22:24:00      -62.723        6.699       -4.211       53.807       33.671       24.084     2895.143     1133.707      580.044        0.430        0.230       63.079       21.176        0.113      333.467        2.801      865.644
01/18/2022  22:25:00      -79.957        7.834       -3.836       50.527       26.209       22.671     2552.994      686.915      513.975        0.511        0.188       80.340       16.164        0.040      333.535        2.914      865.647
01/18/2022  22:26:00     -116.471       20.922       -3.730       49.540       27.471       21.519     2454.170      754.634      463.072        0.884        0.184      118.335       24.636        0.043      333.519        2.888      865.646
01/18/2022  22:27:00     -125.315       31.645       -2.243       37.369       29.941       23.900     1396.417      896.488      571.231        0.979        0.143      129.248       21.646        0.028      333.464        2.795      865.641
01/18/2022  22:28:00     -124.163       20.291      -12.585       31.491       25.088       22.223      991.656      629.396      493.876        0.905        0.106      125.810        8.899        0.005      333.371        2.644      865.632
01/18/2022  22:29:00     -117.535       37.289       -9.477       46.112       27.617       27.345     2126.324      762.693      747.751        0.947        0.182      123.308       25.690        0.043      333.290        2.510      865.622
01/18/2022  22:30:00      -31.227       -4.787        0.550       31.871       35.953       21.841     1015.735     1292.603      477.032        0.189        0.139       31.591       13.186        0.174      333.312        2.546      865.611
01/18/2022  22:31:00      -55.945        6.572       -8.291       42.238       25.283       22.888     1784.091      639.232      523.841        0.309        0.147       56.330       19.582        0.121      333.370        2.642      865.604
01/18/2022  22:32:00      -89.323       25.785       -1.065       50.439       43.263       24.018     2544.141     1871.686      576.850        0.682        0.250       92.970       23.001        0.061      333.363        2.630      865.603
01/18/2022  22:33:00      -97.288       19.507       -6.265       45.635       30.508       23.235     2082.537      930.760      539.842        0.672        0.178       99.225       19.553        0.039      333.390        2.674      865.599
01/18/2022  22:34:00      -78.261        9.338        3.076       44.246       27.092       22.178     1957.701      733.994      491.863        0.470        0.159       78.816       20.893        0.070      333.340        2.591      865.608
01/18/2022  22:35:00      -84.109       17.698       -0.473       34.981       26.771       19.827     1223.652      716.670      393.096        0.486        0.117       85.951       18.125        0.044      333.366        2.635      865.604
01/18/2022  22:36:00      -24.853       -6.874        0.374       32.565       35.609       18.681     1060.476     1267.986      348.974        0.167        0.134       25.786       11.778        0.209      333.341        2.593      865.599
01/18/2022  22:37:00      -15.390        9.457        1.814       31.057       18.222       18.301      964.561      332.046      334.940        0.098        0.082       18.063       13.782        0.582      333.281        2.494      865.603
01/18/2022  22:38:00      -57.260       33.251      -10.865       22.456       23.085       13.344      504.271      532.916      178.052        0.286        0.061       66.215       11.116        0.028      333.195        2.352      865.601
01/18/2022  22:39:00      -67.781       21.588       -1.217       30.680       25.882       22.008      941.265      669.902      484.360        0.358        0.105       71.136       19.772        0.077      333.247        2.437      865.596
01/18/2022  22:40:00      -86.373       17.969        1.606       31.125       28.770       23.343      968.788      827.727      544.888        0.506        0.117       88.222       17.148        0.038      333.231        2.412      865.593
01/18/2022  22:41:00      -96.530       19.049       -9.793       54.391       22.450       22.110     2958.339      503.985      488.856        0.686        0.198       98.392       27.983        0.081      333.197        2.355      865.595
01/18/2022  22:42:00      -86.099       24.877      -10.967       34.297       21.343       20.895     1176.265      455.529      436.610        0.511        0.103       89.621       19.494        0.047      333.089        2.177      865.599
01/18/2022  22:43:00      -74.261       16.013        1.115       35.358       21.673       20.891     1250.158      469.699      436.453        0.396        0.108       75.968       15.407        0.041      333.077        2.156      865.604
01/18/2022  22:44:00      -92.755       14.939       -3.787       22.671       15.731       12.691      513.956      247.449      161.059        0.488        0.046       93.950       11.815        0.016      333.175        2.317      865.608
01/18/2022  22:45:00     -112.069       41.933       -2.391       27.144       27.514       19.770      736.819      757.015      390.837        0.810        0.094      119.657       16.416        0.019      333.362        2.626      865.611
01/18/2022  22:46:00      -71.658       23.942       -5.744       39.567       22.250       21.353     1565.526      495.049      455.936        0.413        0.126       75.552       14.942        0.039      333.403        2.696      865.624
01/18/2022  22:47:00      -82.896       30.721       -5.078       31.419       20.765       18.060      987.170      431.185      326.170        0.479        0.087       88.405       13.707        0.024      333.497        2.852      865.629
01/18/2022  22:48:00      -59.561       16.995       -2.663       35.257       22.146       16.931     1243.061      490.442      286.652        0.293        0.101       61.938       17.431        0.079      333.522        2.892      865.637
01/18/2022  22:49:00      -52.859       -0.013       -9.085       27.247       31.924       21.119      742.415     1019.117      446.009        0.254        0.110       52.859       11.127        0.044      333.526        2.900      865.650
01/18/2022  22:50:00     -101.013       20.899      -11.018       21.263       22.744       14.781      452.097      517.302      218.492        0.597        0.059      103.152        9.903        0.009      333.432        2.743      865.659
01/18/2022  22:51:00      -80.263       25.765       -4.039       34.280       28.234       21.213     1175.132      797.139      450.006        0.477        0.121       84.297       21.388        0.064      333.344        2.599      865.677
01/18/2022  22:52:00      -70.714       33.712       -1.290       35.722       23.163       15.290     1276.061      536.531      233.782        0.409        0.102       78.339       17.103        0.048      333.264        2.465      865.690
01/18/2022  22:53:00      -65.084       27.523       -6.212       33.424       23.907       19.337     1117.189      571.545      373.932        0.355        0.103       70.664       20.746        0.086      333.349        2.607      865.708
01/18/2022  22:54:00      -64.150       13.553      -11.207       19.976       16.767       14.649      399.060      281.143      214.582        0.266        0.045       65.566        8.224        0.016      333.408        2.704      865.721
01/18/2022  22:55:00      -18.552       17.297      -17.161       19.009       10.755       12.105      361.350      115.663      146.539        0.078        0.031       25.365        9.079        0.128      333.369        2.641      865.724
01/18/2022  22:56:00       -5.126       26.270      -14.201       18.146       12.227       14.584      329.272      149.497      212.698        0.080        0.035       26.766       11.644        0.189      333.594        3.013      865.720
01/18/2022  22:57:00       33.497       15.014       -3.613       12.796       13.518        6.851      163.740      182.742       46.942        0.088        0.020       36.708        5.520        0.023      333.599        3.020      865.714
01/18/2022  22:58:00       34.722       18.780       -8.340       11.855        9.125        5.288      140.543       83.258       27.964        0.094        0.013       39.476        3.028        0.006      333.630        3.074      865.702
01/18/2022  22:59:00       12.649      -17.804      -10.776        9.416       10.245       10.807       88.664      104.964      116.798        0.045        0.016       21.840        7.281        0.111      333.601        3.025      865.702
01/18/2022  23:00:00       -6.056       -1.447       -2.625        5.185       13.171        4.080       26.879      173.480       16.645        0.013        0.011        6.227        4.299        0.477      333.520        2.891      865.705
01/18/2022  23:01:00      -16.199        0.747       -1.747        8.033       12.265        7.430       64.523      150.437       55.204        0.027        0.014       16.216        6.850        0.178      333.384        2.665      865.709
01/18/2022  23:02:00      -18.052      -15.582       -3.358       15.245       10.641        9.396      232.418      113.223       88.281        0.051        0.022       23.847        5.614        0.055      333.305        2.534      865.706
01/18/2022  23:03:00      -13.319        6.303       -3.872        6.505       10.563        7.319       42.312      111.570       53.574        0.022        0.010       14.735        4.425        0.090      333.245        2.433      865.706
01/18/2022  23:04:00      -10.492        8.847       -8.549        8.556        5.043        4.887       73.198       25.435       23.879        0.019        0.006       13.724        1.700        0.015      333.289        2.508      865.703
01/18/2022  23:05:00       -0.389       -1.775       -4.337        2.056        2.782        3.888        4.227        7.738       15.113        0.002        0.001        1.817        1.782        0.962      333.249        2.443      865.695
01/18/2022  23:06:00       -1.203       -5.260       -2.143        6.976       15.606        6.168       48.665      243.537       38.045        0.018        0.017        5.396        4.335        0.645      333.287        2.503      865.708
01/18/2022  23:07:00       -3.871       17.072       -4.212        8.435        7.084        4.701       71.153       50.180       22.095        0.023        0.007       17.506        2.992        0.029      333.263        2.466      865.725
01/18/2022  23:08:00       -3.515        4.342       -9.816        4.339        4.234        3.112       18.828       17.924        9.683        0.009        0.002        5.586        2.912        0.272      333.184        2.335      865.749
01/18/2022  23:09:00       -9.683       -2.924       -4.696       16.252       14.247        6.448      264.122      202.982       41.574        0.032        0.025       10.115        4.056        0.161      333.261        2.461      865.760
01/18/2022  23:10:00      -40.911      -13.657      -11.303       12.713       15.497       13.156      161.622      240.157      173.070        0.128        0.029       43.131        8.588        0.040      333.254        2.450      865.760
01/18/2022  23:11:00       -8.636      -25.806       -3.418       19.608       21.470       16.873      384.479      460.974      284.685        0.094        0.057       27.212       12.425        0.208      333.250        2.441      865.761
01/18/2022  23:12:00       -2.018       -3.864       -5.353       12.224       10.787        8.978      149.438      116.368       80.611        0.020        0.017        4.359        7.630        3.064      333.185        2.334      865.772
01/18/2022  23:13:00       -9.936        0.588       -1.295       19.989       13.621        8.084      399.549      185.537       65.349        0.038        0.033        9.953        8.946        0.808      333.204        2.367      865.786
01/18/2022  23:14:00      -16.392       -7.761       -6.515       20.403       17.561       10.783      416.277      308.392      116.275        0.061        0.042       18.137       11.025        0.370      333.214        2.383      865.783
01/18/2022  23:15:00      -29.916       -6.357       -1.703       30.265       28.780       14.124      915.955      828.315      199.490        0.144        0.097       30.584       13.129        0.184      333.109        2.209      865.783
01/18/2022  23:16:00      -16.062       -7.493        1.789       20.141       19.027       17.176      405.666      362.013      295.020        0.069        0.053       17.724       11.666        0.433      333.074        2.152      865.793
01/18/2022  23:17:00      -46.648       -2.474       -0.168       42.350       26.845       20.846     1793.484      720.634      434.540        0.256        0.147       46.714       22.301        0.228      333.110        2.211      865.801
01/18/2022  23:18:00      -30.769       -7.664        2.091       34.815       20.510       16.250     1212.063      420.669      264.064        0.145        0.095       31.709       15.377        0.235      333.104        2.202      865.818
01/18/2022  23:19:00      -36.781        7.095       -3.276       24.582       27.045       15.890      604.275      731.418      252.507        0.150        0.079       37.459        8.632        0.053      333.102        2.200      865.840
01/18/2022  23:20:00      -34.385      -10.815       -3.301       35.402       17.241       16.449     1253.332      297.246      270.581        0.157        0.091       36.046       14.229        0.156      333.086        2.172      865.843
01/18/2022  23:21:00      -26.720       -5.775       -6.079       14.934       22.170       12.420      223.023      491.521      154.253        0.083        0.043       27.337        4.638        0.029      333.035        2.087      865.855
01/18/2022  23:22:00        3.037      -11.566       -6.044       16.695       12.810        8.727      278.733      164.102       76.160        0.035        0.026       11.958        5.398        0.204      333.032        2.082      865.875
01/18/2022  23:23:00      -23.990       21.145       -8.291       19.755       13.216       11.977      390.258      174.674      143.451        0.090        0.035       31.979        9.549        0.089      332.942        1.933      865.896
01/18/2022  23:24:00      -30.084       25.265       -9.351       13.366       14.346        8.905      178.658      205.814       79.307        0.105        0.023       39.286        8.186        0.043      332.937        1.923      865.912
01/18/2022  23:25:00      -42.842       25.738      -13.770       10.584       11.501        9.629      112.021      132.281       92.716        0.151        0.017       49.979        4.490        0.008      332.949        1.945      865.924
01/18/2022  23:26:00      -40.385       27.674      -10.610       10.085       11.178       11.299      101.716      124.948      127.674        0.143        0.018       48.957        2.845        0.003      332.922        1.901      865.932
01/18/2022  23:27:00      -33.058       18.533       -8.809       12.925       10.237        7.620      167.063      104.803       58.061        0.092        0.016       37.899        3.424        0.008      332.976        1.987      865.945
01/18/2022  23:28:00      -47.301       11.331       -3.311       22.610       12.325       14.474      511.216      151.908      209.506        0.162        0.044       48.639       15.665        0.104      332.940        1.930      865.944
01/18/2022  23:29:00      -75.787       13.141       -6.644       26.217       20.035       16.400      687.347      401.400      268.950        0.366        0.068       76.918       14.886        0.037      332.958        1.961      865.938
01/18/2022  23:30:00      -68.677       20.856       -8.213       43.239       27.869       20.014     1869.568      776.691      400.555        0.413        0.152       71.774       22.014        0.094      332.754        1.624      865.943
01/18/2022  23:31:00      -53.648       17.214      -12.420       19.915       15.310       11.056      396.602      234.398      122.230        0.204        0.038       56.342        7.173        0.016      332.642        1.438      865.950
01/18/2022  23:32:00      -62.506       16.787      -14.156       19.056       12.332       10.846      363.147      152.082      117.632        0.251        0.032       64.721        4.972        0.006      332.753        1.620      865.959
01/18/2022  23:33:00      -28.698        2.363       -7.199       40.466       20.572       17.797     1637.502      423.212      316.734        0.163        0.119       28.795       15.771        0.300      332.604        1.374      865.951
01/18/2022  23:34:00      -13.199       -5.220      -16.086       35.927       33.236       23.759     1290.785     1104.618      564.479        0.171        0.148       14.194       17.630        1.543      332.550        1.286      865.942
01/18/2022  23:35:00      -65.199       10.853       -8.439       31.089       31.517       15.051      966.528      993.310      226.529        0.331        0.109       66.096       15.177        0.053      332.557        1.297      865.930
01/18/2022  23:36:00      -72.400        1.152      -16.661       32.145       25.506       18.287     1033.305      650.543      334.420        0.377        0.101       72.409       18.498        0.065      332.642        1.438      865.917
01/18/2022  23:37:00      -91.986        4.084       -7.069       59.012       31.636       25.618     3482.439     1000.863      656.293        0.683        0.257       92.077       25.871        0.079      332.504        1.210      865.907
01/18/2022  23:38:00      -51.950        8.533       -5.445       39.963       28.715       20.720     1597.032      824.526      429.328        0.283        0.143       52.646       17.130        0.106      332.489        1.184      865.890
01/18/2022  23:39:00      -99.416       31.779      -15.528       38.445       30.257       22.937     1477.992      915.476      526.087        0.703        0.146      104.372       10.063        0.009      332.576        1.328      865.890
01/18/2022  23:40:00     -111.011       54.534        0.315       43.891       29.648       24.810     1926.432      878.999      615.553        0.936        0.171      123.683       21.123        0.029      332.503        1.208      865.890
01/18/2022  23:41:00      -63.990       31.058        0.005       34.563       29.540       19.901     1194.613      872.583      396.061        0.376        0.123       71.129       18.203        0.065      332.548        1.283      865.895
01/18/2022  23:42:00      -52.821       14.586       -0.678       39.457       34.778       21.739     1556.865     1209.542      472.567        0.312        0.162       54.798       25.061        0.209      332.679        1.499      865.899
01/18/2022  23:43:00        2.404        5.083       -1.016       22.600       21.291       15.898      510.764      453.323      252.748        0.062        0.061        5.623       10.704        3.623      332.710        1.550      865.899
01/18/2022  23:44:00      -35.201      -13.644      -14.927       41.603       30.935       17.375     1730.816      956.987      301.882        0.232        0.149       37.753        6.428        0.029      332.745        1.608      865.917
01/18/2022  23:45:00      -77.616       27.850      -10.339       50.500       41.364       17.083     2550.235     1710.985      291.835        0.573        0.228       82.461       21.144        0.066      332.623        1.405      865.928
01/18/2022  23:46:00      -81.879        7.954      -28.128       16.070       21.030       17.243      258.251      442.259      297.331        0.428        0.050       82.265        6.845        0.007      332.657        1.462      865.939
01/18/2022  23:47:00      -73.876        1.846      -21.890       25.001       24.784       18.724      625.054      614.233      350.594        0.376        0.079       73.899       14.083        0.036      332.638        1.432      865.957
01/18/2022  23:48:00      -85.964        3.718      -12.884       21.439       22.222       16.659      459.611      493.816      277.526        0.440        0.062       86.044       10.054        0.014      332.647        1.448      865.970
01/18/2022  23:49:00     -117.742       39.449      -16.952       14.163       17.374       14.971      200.599      301.866      224.125        0.822        0.036      124.174        8.031        0.004      332.724        1.573      865.992
01/18/2022  23:50:00      -95.630       27.632      -17.813       34.366       18.912       18.966     1181.046      357.648      359.708        0.606        0.095       99.542       14.499        0.021      332.721        1.569      866.016
01/18/2022  23:51:00      -80.679       28.358      -14.724       26.002       24.148       12.123      676.118      583.147      146.973        0.447        0.070       85.518       10.783        0.016      332.910        1.880      866.035
01/18/2022  23:52:00      -77.849       44.636      -17.226       35.332       22.267       21.346     1248.371      495.821      455.657        0.527        0.110       89.738       15.826        0.031      332.899        1.864      866.046
01/18/2022  23:53:00      -64.414        8.632      -19.419       31.491       20.550       15.539      991.699      422.296      241.475        0.313        0.083       64.990       14.457        0.049      332.870        1.814      866.045
01/18/2022  23:54:00      -59.701       32.971      -17.818       15.771       24.219       12.286      248.722      586.572      150.937        0.298        0.049       68.200       13.583        0.040      332.856        1.791      866.025
01/18/2022  23:55:00      -50.589       -3.359      -15.321       37.206       25.945       16.526     1384.284      673.167      273.100        0.257        0.117       50.700        9.624        0.036      333.056        2.122      866.010
01/18/2022  23:56:00      -60.898        2.172      -19.069       44.050       22.906       17.795     1940.421      524.682      316.667        0.343        0.139       60.937       22.690        0.139      333.517        2.885      865.969
01/18/2022  23:57:00      -43.340       18.099      -13.655       32.999       31.895       19.063     1088.933     1017.272      363.389        0.243        0.123       46.968       17.340        0.136      333.176        2.321      865.957
01/18/2022  23:58:00       14.262      -13.705       -7.715       30.526       29.070       17.080      931.856      845.085      291.735        0.126        0.103       19.780       16.374        0.685      333.086        2.172      865.952
01/18/2022  23:59:00      -63.426       30.220      -17.167       52.427       17.153       19.117     2748.579      294.217      365.474        0.432        0.170       70.258       26.368        0.141      333.164        2.300      865.959
01/19/2022  00:00:00       -6.285        1.573       -3.493       26.111        8.104       10.681      681.803       65.669      114.080        0.046        0.043        6.479       10.884        2.822      333.336        2.585      865.959
01/19/2022  00:01:00       13.350      -11.822       -6.916       12.777       11.963        9.901      163.247      143.123       98.037        0.039        0.020       17.832        7.267        0.166      333.198        2.357      865.954
01/19/2022  00:02:00      -22.924      -51.660      -27.934       34.682       20.583       13.377     1202.869      423.675      178.952        0.289        0.090       56.518       15.318        0.073      332.943        1.936      865.930
01/19/2022  00:03:00      -21.110      -38.294      -15.384       35.879       37.628       19.142     1287.299     1415.881      366.424        0.261        0.153       43.727       17.807        0.166      333.026        2.072      865.918
01/19/2022  00:04:00      -47.990        9.638      -17.475       32.802       19.796       14.865     1075.998      391.901      220.975        0.219        0.084       48.949       15.201        0.096      333.201        2.361      865.907
01/19/2022  00:05:00      -70.980       23.453      -20.147       13.075       16.684       10.817      170.958      278.372      117.004        0.328        0.028       74.754        7.952        0.011      333.286        2.502      865.890
01/19/2022  00:06:00      -59.874       22.044      -12.586        9.282        9.727        7.656       86.160       94.610       58.611        0.223        0.012       63.803        4.468        0.005      333.138        2.259      865.889
01/19/2022  00:07:00      -43.731       -7.997      -13.851       16.195        7.715        6.820      262.291       59.523       46.517        0.127        0.018       44.457        3.659        0.007      333.695        3.178      865.868
01/19/2022  00:08:00      -41.527        7.257       -7.975       18.644       22.562       10.489      347.607      509.036      110.016        0.140        0.048       42.156        6.136        0.021      333.257        2.454      865.857
01/19/2022  00:09:00      -87.170      -10.898      -24.207       24.872       23.294       16.299      618.602      542.614      265.661        0.486        0.071       87.849        9.254        0.011      333.010        2.046      865.855
01/19/2022  00:10:00      -77.891      -12.607       -9.143       57.864       30.709       24.667     3348.192      943.029      608.474        0.560        0.245       78.904       31.690        0.161      333.154        2.285      865.862
01/19/2022  00:11:00      -91.946      -17.731       -3.442       53.447       34.786       31.677     2856.625     1210.087     1003.426        0.692        0.254       93.640       31.694        0.115      333.133        2.251      865.881
01/19/2022  00:12:00      -97.164       -5.460       -9.369       49.817       34.703       33.758     2481.755     1204.306     1139.624        0.719        0.241       97.317       26.050        0.072      333.399        2.690      865.904
01/19/2022  00:13:00      -21.773      -13.939        6.294       33.837       23.982       20.322     1144.935      575.115      412.969        0.142        0.107       25.852       13.847        0.287      333.540        2.921      865.923
01/19/2022  00:14:00      -43.996       -7.707       -7.854       24.323       24.175       17.118      591.602      584.418      293.015        0.176        0.073       44.666        9.698        0.047      333.545        2.930      865.938
01/19/2022  00:15:00      -62.159      -23.934      -18.531       29.315       21.991       19.033      859.344      483.612      362.244        0.324        0.085       66.607       15.501        0.054      333.583        2.994      865.947
01/19/2022  00:16:00      -14.561        3.635       -1.339       18.227       14.524       13.158      332.237      210.937      173.140        0.047        0.036       15.007       11.419        0.579      333.503        2.862      865.949
01/19/2022  00:17:00      -66.052       -7.941      -20.767       31.565       28.331       25.698      996.336      802.639      660.396        0.366        0.123       66.528       17.958        0.073      333.514        2.879      865.957
01/19/2022  00:18:00      -53.476      -29.680       -6.583       48.282       39.571       21.745     2331.118     1565.829      472.832        0.408        0.218       61.160       24.092        0.155      333.494        2.845      865.965
01/19/2022  00:19:00      -70.019        5.298       -6.278       39.939       28.364       18.121     1595.157      804.493      328.357        0.385        0.136       70.219       17.182        0.060      333.469        2.805      865.976
01/19/2022  00:20:00      -56.193      -15.491      -10.225       38.748       37.040       22.796     1501.417     1371.971      519.655        0.345        0.170       58.289       16.601        0.081      333.460        2.789      865.978
01/19/2022  00:21:00      -18.036      -29.964        5.039       34.567       25.300       24.413     1194.896      640.067      595.985        0.184        0.122       34.974       17.988        0.265      333.504        2.861      865.968
01/19/2022  00:22:00      -47.828      -10.032       -1.830       42.651       35.917       24.072     1819.075     1290.032      579.442        0.304        0.184       48.869       15.870        0.105      333.495        2.849      865.961
01/19/2022  00:23:00      -65.279      -20.974       -8.087       44.327       31.739       22.854     1964.911     1007.379      522.299        0.413        0.175       68.566       16.400        0.057      333.384        2.666      865.967
01/19/2022  00:24:00      -61.677        7.462        4.394       36.731       35.528       20.293     1349.197     1262.260      411.788        0.345        0.151       62.127       15.159        0.060      333.319        2.558      865.990
01/19/2022  00:25:00      -93.976      -28.873      -10.343       29.271       31.295       16.750      856.812      979.347      280.567        0.594        0.106       98.312       10.568        0.012      333.293        2.514      866.014
01/19/2022  00:26:00      -48.244        3.801       -4.887       58.963       35.223       25.831     3476.600     1240.642      667.256        0.387        0.269       48.394       18.090        0.140      333.227        2.403      866.035
01/19/2022  00:27:00      -77.730        5.082       -1.834       39.422       31.973       24.702     1554.096     1022.298      610.209        0.463        0.159       77.896       22.271        0.082      333.155        2.286      866.068
01/19/2022  00:28:00      -68.779       -4.946      -13.282       33.773       18.927       14.385     1140.633      358.243      206.916        0.332        0.085       68.956       11.111        0.026      333.204        2.367      866.091
01/19/2022  00:29:00      -54.937      -10.060       -8.404       31.746       30.422       18.076     1007.788      925.523      326.753        0.272        0.113       55.850        5.154        0.009      333.277        2.487      866.122
01/19/2022  00:30:00      -46.501        0.324       -8.311       30.405       28.886       18.637      924.444      834.411      347.328        0.217        0.105       46.502       15.771        0.115      333.226        2.401      866.151
01/19/2022  00:31:00      -45.570      -17.391       -5.135       49.658       36.958       20.458     2465.877     1365.880      418.517        0.333        0.213       48.776       19.029        0.152      333.154        2.284      866.192
01/19/2022  00:32:00     -127.693      -42.823      -26.523       36.041       30.714       21.567     1298.924      943.348      465.157        1.077        0.135      134.683       13.733        0.010      332.937        1.925      866.224
01/19/2022  00:33:00     -123.424      -13.669      -20.592       62.803       37.805       29.356     3944.261     1429.197      861.759        1.104        0.312      124.179       21.387        0.030      332.893        1.853      866.240
01/19/2022  00:34:00      -39.156      -10.893      -19.660       50.905       33.072       22.795     2591.294     1093.766      519.613        0.312        0.210       40.643       14.367        0.125      332.843        1.770      866.236
01/19/2022  00:35:00       26.315       10.162      -10.329       28.647       31.645       16.851      820.631     1001.420      283.948        0.150        0.105       28.209       13.901        0.243      332.897        1.859      866.214
01/19/2022  00:36:00       14.768       -7.901      -11.463       15.953       19.309       13.570      254.506      372.818      184.151        0.061        0.041       16.748       10.083        0.362      332.893        1.853      866.207
01/19/2022  00:37:00       18.348      -37.362      -18.183       16.528       40.905       12.898      273.177     1673.241      166.346        0.209        0.106       41.624       11.596        0.078      332.914        1.889      866.193
01/19/2022  00:38:00      -17.934      -75.627       -8.710       29.762       25.006       18.370      885.794      625.282      337.468        0.398        0.092       77.724       17.047        0.048      332.989        2.011      866.178
01/19/2022  00:39:00       29.416      -14.286      -12.125       29.618       26.590       18.229      877.240      707.037      332.305        0.157        0.096       32.701       16.870        0.266      332.937        1.926      866.212
01/19/2022  00:40:00       18.376      -42.537      -14.881       28.381       28.528       19.749      805.461      813.828      390.014        0.219        0.100       46.337       15.933        0.118      332.935        1.921      866.211
01/19/2022  00:41:00      -14.814       -5.182       -7.290       31.830       27.113       21.645     1013.137      735.102      468.518        0.126        0.111       15.694       15.601        0.988      333.034        2.086      866.235
01/19/2022  00:42:00       43.095      -10.034       -7.435       17.167       25.979       11.995      294.722      674.916      143.887        0.156        0.056       44.248        5.738        0.017      332.995        2.021      866.256
01/19/2022  00:43:00       29.834        0.188      -11.761       27.400       26.022       12.023      750.781      677.124      144.551        0.130        0.079       29.834       11.012        0.136      333.014        2.054      866.252
01/19/2022  00:44:00      -10.580       -9.699       -6.564       10.663       12.722       11.839      113.692      161.858      140.157        0.033        0.021       14.353        8.557        0.355      333.100        2.195      866.252
01/19/2022  00:45:00        0.332       -5.001       -8.665       10.873       10.230       10.430      118.217      104.646      108.792        0.022        0.017        5.013        4.987        0.990      333.078        2.158      866.255
01/19/2022  00:46:00       -7.810      -10.125      -13.166       15.618       16.173       14.054      243.917      261.565      197.512        0.052        0.035       12.787       10.853        0.720      333.304        2.533      866.256
01/19/2022  00:47:00       -6.806       -3.001       -4.504       13.642       15.051       11.462      186.096      226.538      131.384        0.031        0.027        7.439       10.987        2.181      333.178        2.324      866.270
01/19/2022  00:48:00        8.747       24.551       -5.905       13.617       12.060        7.427      185.417      145.440       55.162        0.055        0.019       26.062        4.082        0.025      333.001        2.031      866.312
01/19/2022  00:49:00       50.674        6.804       -5.334       17.017        7.046        5.225      289.581       49.649       27.300        0.150        0.018       51.129        2.908        0.003      333.070        2.146      866.362
01/19/2022  00:50:00       53.210       -0.366       -7.017       16.025       17.733       11.296      256.812      314.451      127.607        0.179        0.035       53.212        8.012        0.023      333.150        2.277      866.421
01/19/2022  00:51:00       39.972      -17.428       -4.808       14.082        8.347        8.862      198.317       69.671       78.538        0.114        0.017       43.606        3.118        0.005      333.209        2.374      866.488
01/19/2022  00:52:00       27.154       -5.453       -8.558       11.190       12.617        7.763      125.225      159.186       60.270        0.059        0.017       27.696        5.274        0.036      333.166        2.304      866.551
01/19/2022  00:53:00       66.625        6.916       -3.914       15.281        8.093        7.603      233.509       65.490       57.808        0.243        0.018       66.983        5.415        0.007      333.280        2.492      866.604
01/19/2022  00:54:00       80.894       22.200       -3.818       16.669       12.679       10.793      277.855      160.747      116.484        0.380        0.028       83.885        8.264        0.010      333.273        2.481      866.649
01/19/2022  00:55:00       91.497       32.431       -9.409       10.409        5.597        5.589      108.339       31.324       31.239        0.484        0.009       97.074        2.332        0.001      333.424        2.729      866.688
01/19/2022  00:56:00       77.309       20.797       -8.000       21.378       23.283       16.380      457.036      542.084      268.300        0.387        0.063       80.058        9.697        0.015      333.422        2.726      866.724
01/19/2022  00:57:00       57.705       20.752      -20.143       25.646       24.840       20.208      657.697      617.030      408.357        0.292        0.084       61.323       12.994        0.045      333.531        2.907      866.743
01/19/2022  00:58:00       27.598       -3.606      -11.711       30.561       28.689       21.623      933.996      823.080      467.558        0.157        0.111       27.833       16.272        0.342      333.510        2.872      866.753
01/19/2022  00:59:00       43.774      -14.656       -1.844       28.134       13.598       15.611      791.532      184.919      243.693        0.168        0.061       46.162       17.876        0.150      333.456        2.783      866.758
01/19/2022  01:00:00       28.808      -12.014       -5.266       14.849       10.288        7.359      220.481      105.849       54.159        0.069        0.019       31.213        4.970        0.025      333.481        2.823      866.773
01/19/2022  01:01:00       37.843       -7.325       -4.166       10.034        8.670        6.103      100.676       75.161       37.249        0.086        0.011       38.546        3.828        0.010      333.583        2.997      866.795
01/19/2022  01:02:00       55.937      -33.389      -11.313        9.591        9.290        6.768       91.994       86.304       45.803        0.230        0.011       65.144        6.458        0.010      333.618        3.055      866.808
01/19/2022  01:03:00       32.854      -32.601      -17.879       13.102       18.858       13.630      171.668      355.618      185.770        0.159        0.036       46.284       11.793        0.065      333.342        2.594      866.830
01/19/2022  01:04:00        1.669      -15.138       -4.101       15.551       20.107       16.539      241.838      404.301      273.534        0.058        0.046       15.230        7.355        0.233      333.295        2.517      866.861
01/19/2022  01:05:00       11.432        9.085       -8.802       12.466       11.175       12.271      155.402      124.879      150.574        0.036        0.022       14.602        9.409        0.415      333.051        2.113      866.880
01/19/2022  01:06:00       40.897        5.810       -5.608       15.342       12.420        7.576      235.363      154.248       57.389        0.109        0.022       41.307        3.852        0.009      333.005        2.037      866.887
01/19/2022  01:07:00       74.390        3.914      -13.512       42.249       28.262       15.624     1784.994      798.744      244.122        0.428        0.141       74.493       15.393        0.043      332.772        1.652      866.879
01/19/2022  01:08:00       49.694       20.545       -7.936       19.056       18.009       20.664      363.117      324.311      426.989        0.203        0.056       53.774       14.221        0.070      332.598        1.365      866.871
01/19/2022  01:09:00       11.265       25.726      -10.769       11.657        7.046        9.960      135.882       49.642       99.203        0.059        0.014       28.084        8.030        0.082      332.722        1.570      866.855
01/19/2022  01:10:00       12.448       25.247        3.642        9.897       12.234        6.380       97.946      149.663       40.705        0.055        0.014       28.149        3.322        0.014      332.810        1.717      866.861
01/19/2022  01:11:00      -76.058       32.415      -14.109       37.220       14.271       13.933     1385.321      203.661      194.138        0.441        0.089       82.678       14.170        0.029      332.793        1.687      866.859
01/19/2022  01:12:00      -87.018       15.109      -17.257       28.516       18.464       11.277      813.181      340.904      127.162        0.469        0.064       88.320       11.258        0.016      332.820        1.732      866.849
01/19/2022  01:13:00      -56.413        0.531       -7.112       19.918       18.633       14.944      396.734      347.194      223.329        0.210        0.048       56.415       13.087        0.054      332.900        1.864      866.839
01/19/2022  01:14:00      -33.915       12.421       -0.769       29.578       17.011       12.316      874.852      289.358      151.685        0.131        0.066       36.118       13.645        0.143      332.847        1.777      866.840
01/19/2022  01:15:00      -17.781        7.811       -5.160       23.582       15.041       11.603      556.119      226.246      134.618        0.066        0.046       19.421       11.076        0.325      332.892        1.852      866.834
01/19/2022  01:16:00      -13.753      -11.462       -3.601       19.451       11.055        8.891      378.326      122.209       79.050        0.046        0.029       17.903        9.670        0.292      332.938        1.927      866.813
01/19/2022  01:17:00       -6.976       -6.984       -1.008       14.564       13.349        7.587      212.115      178.203       57.567        0.027        0.022        9.871        5.663        0.329      332.902        1.867      866.785
01/19/2022  01:18:00      -35.764       -5.144      -10.997       21.591       16.277       12.656      466.175      264.946      160.187        0.116        0.045       36.132       10.456        0.084      332.826        1.744      866.741
01/19/2022  01:19:00      -24.660       -7.972       -7.475       20.545       15.356       14.279      422.083      235.804      203.903        0.079        0.043       25.916       11.410        0.194      332.765        1.640      866.661
01/19/2022  01:20:00      -25.054      -10.960        3.868       19.667       16.745       16.997      386.798      280.395      288.908        0.086        0.048       27.346       10.178        0.139      332.764        1.639      866.660
01/19/2022  01:21:00      -70.204      -10.694       -3.240       47.090       29.077       27.600     2217.472      845.478      761.736        0.444        0.191       71.013       24.322        0.117      332.694        1.524      866.678
01/19/2022  01:22:00      -50.872      -13.243        5.728       50.217       33.270       21.828     2521.731     1106.869      476.457        0.345        0.205       52.567       20.950        0.159      332.631        1.419      866.715
01/19/2022  01:23:00      -58.333      -14.545       -0.914       48.242       33.391       27.205     2327.292     1114.992      740.115        0.390        0.209       60.119       24.915        0.172      332.600        1.369      866.746
01/19/2022  01:24:00      -58.509        3.957       -0.516       41.455       28.859       23.862     1718.538      832.843      569.385        0.328        0.156       58.642       15.225        0.067      332.549        1.283      866.751
01/19/2022  01:25:00      -95.193       -5.696       -8.294       44.991       31.640       25.653     2024.188     1001.092      658.079        0.642        0.184       95.363       25.886        0.074      332.565        1.310      866.739
01/19/2022  01:26:00      -82.144      -14.976        2.506       36.294       37.500       28.099     1317.224     1406.281      789.572        0.524        0.176       83.498       23.938        0.082      332.495        1.194      866.724
01/19/2022  01:27:00      -31.836      -15.971       -4.000       29.753       24.144       18.715      885.265      582.930      350.246        0.155        0.091       35.618       13.970        0.154      332.512        1.222      866.720
01/19/2022  01:28:00      -23.172      -29.662       -4.709       23.530       28.480       16.595      553.664      811.101      275.408        0.154        0.082       37.640       11.277        0.090      332.518        1.233      866.732
01/19/2022  01:29:00      -52.185      -27.488      -12.502       37.048       32.007       17.745     1372.575     1024.446      314.881        0.317        0.136       58.982       16.812        0.081      332.534        1.258      866.746
01/19/2022  01:30:00     -111.459      -14.028      -13.797       39.332       38.708       29.318     1547.019     1498.299      859.568        0.836        0.195      112.338       23.688        0.044      332.503        1.207      866.752
01/19/2022  01:31:00     -101.528      -13.387       -4.757       49.526       34.725       25.514     2452.817     1205.842      650.972        0.741        0.215      102.407       21.019        0.042      332.518        1.232      866.739
01/19/2022  01:32:00     -145.540      -14.131      -14.414       40.882       28.038       26.179     1671.338      786.156      685.338        1.237        0.157      146.224       17.060        0.014      332.453        1.124      866.723
01/19/2022  01:33:00     -156.258        1.619      -21.238       24.640       28.456       19.944      607.134      809.717      397.744        1.334        0.091      156.266       11.366        0.005      332.436        1.096      866.712
01/19/2022  01:34:00      -98.901        4.193       -1.931       51.477       47.303       24.281     2649.871     2237.556      589.574        0.764        0.274       98.990       25.920        0.069      332.400        1.038      866.717
01/19/2022  01:35:00      -84.423       -7.111       -3.226       53.377       29.479       27.430     2849.147      869.002      752.393        0.583        0.224       84.722       25.429        0.090      332.344        0.944      866.725
01/19/2022  01:36:00      -42.791      -15.557        2.165       53.451       38.408       28.506     2857.021     1475.161      812.607        0.361        0.257       45.532       27.078        0.354      332.355        0.963      866.715
01/19/2022  01:37:00      -55.876       -8.451       -4.164       47.362       34.816       21.329     2243.113     1212.175      454.942        0.356        0.196       56.511       11.945        0.045      332.374        0.994      866.712
01/19/2022  01:38:00      -70.886      -51.088       -8.487       45.010       41.746       25.062     2025.872     1742.694      628.111        0.605        0.220       87.378       27.128        0.096      332.334        0.928      866.699
01/19/2022  01:39:00     -108.625      -96.753      -15.626       46.019       49.291       27.505     2117.785     2429.601      756.536        1.335        0.265      145.466       24.183        0.028      332.248        0.786      866.688
01/19/2022  01:40:00      -88.616      -58.940      -12.131       47.609       53.635       30.419     2266.591     2876.740      925.324        0.877        0.303      106.427       26.719        0.063      332.203        0.711      866.667
01/19/2022  01:41:00      -70.083      -30.746       -7.719       38.312       47.715       24.087     1467.806     2276.731      580.201        0.512        0.216       76.531       13.263        0.030      332.261        0.808      866.646
01/19/2022  01:42:00      -50.331      -46.674      -12.441       26.636       41.608       17.651      709.450     1731.227      311.555        0.381        0.138       68.642        9.161        0.018      332.275        0.829      866.645
01/19/2022  01:43:00     -103.691      -48.515      -13.621       47.407       36.527       25.946     2247.414     1334.208      673.201        0.877        0.213      114.479       16.390        0.020      332.229        0.756      866.654
01/19/2022  01:44:00      -56.247      -21.250       -9.200       41.536       34.427       28.750     1725.199     1185.193      826.562        0.372        0.187       60.127       19.823        0.109      332.227        0.752      866.664
01/19/2022  01:45:00      -68.540      -34.981       -7.856       54.156       50.594       27.894     2932.845     2559.788      778.092        0.613        0.314       76.951       24.558        0.102      332.161        0.643      866.671
01/19/2022  01:46:00      -90.372      -32.971       -5.047       55.739       46.643       34.302     3106.860     2175.614     1176.599        0.787        0.323       96.198       33.118        0.119      332.134        0.599      866.664
01/19/2022  01:47:00      -49.739      -34.856        5.380       73.502       56.463       39.190     5402.475     3188.041     1535.823        0.692        0.506       60.737       30.510        0.252      332.122        0.578      866.640
01/19/2022  01:48:00      -82.235      -20.254       -0.103       58.570       63.489       36.771     3430.387     4030.897     1352.078        0.799        0.441       84.693       29.504        0.121      332.129        0.589      866.628
01/19/2022  01:49:00      -75.483      -18.937      -17.658       46.927       57.330       25.602     2202.178     3286.750      655.465        0.626        0.307       77.823       21.131        0.074      332.180        0.674      866.612
01/19/2022  01:50:00      -48.619      -12.247        2.477       66.519       47.281       29.777     4424.805     2235.526      886.651        0.503        0.377       50.138       28.335        0.319      332.078        0.506      866.596
01/19/2022  01:51:00     -106.997      -20.192      -12.013       64.193       41.363       31.451     4120.719     1710.922      989.157        0.941        0.341      108.885       24.692        0.051      332.035        0.437      866.584
01/19/2022  01:52:00      -86.754      -19.277       -9.761       57.592       45.690       32.596     3316.863     2087.568     1062.477        0.723        0.323       88.870       27.225        0.094      332.090        0.527      866.582
01/19/2022  01:53:00      -66.589      -33.738       -8.325       53.125       56.311       31.813     2822.316     3170.975     1012.043        0.632        0.350       74.649       22.004        0.087      332.120        0.574      866.590
01/19/2022  01:54:00      -84.436        8.561       -4.930       61.426       38.711       36.815     3773.131     1498.576     1355.314        0.693        0.331       84.869       25.122        0.088      332.101        0.546      866.610
01/19/2022  01:55:00      -67.955      -13.882       -4.758       60.199       44.474       32.875     3623.904     1977.910     1080.767        0.576        0.334       69.358       29.058        0.176      332.166        0.651      866.625
01/19/2022  01:56:00     -134.793       -2.177       -7.821       79.796       56.244       42.894     6367.446     3163.353     1839.918        1.480        0.569      134.810       35.924        0.071      332.071        0.494      866.643
01/19/2022  01:57:00     -153.743      -18.836      -10.159       58.818       44.502       31.506     3459.514     1980.413      992.624        1.526        0.322      154.892       31.933        0.043      332.049        0.459      866.640
01/19/2022  01:58:00     -159.556        1.346       -2.534       68.228       48.902       37.070     4655.125     2391.406     1374.174        1.694        0.421      159.562       30.838        0.037      332.061        0.479      866.619
01/19/2022  01:59:00     -160.594        0.500       -7.705       74.208       45.768       39.403     5506.822     2094.710     1552.585        1.750        0.458      160.595       35.390        0.049      332.069        0.490      866.592
01/19/2022  02:00:00     -216.553      -21.555      -15.505       58.638       45.937       34.076     3438.467     2110.227     1161.145        2.715        0.335      217.623       28.044        0.017      332.135        0.598      866.557
01/19/2022  02:01:00     -155.487        4.258      -14.116       75.982       58.062       47.159     5773.338     3371.226     2224.015        1.788        0.568      155.545       37.507        0.058      332.151        0.624      866.553
01/19/2022  02:02:00     -113.806        9.951       -5.028       57.383       53.069       36.656     3292.818     2816.285     1343.633        1.026        0.373      114.240       31.441        0.076      332.166        0.650      866.555
01/19/2022  02:03:00     -131.047       -2.119       -7.426       63.903       64.064       31.924     4083.565     4104.160     1019.144        1.322        0.460      131.064       24.268        0.034      332.152        0.626      866.576
01/19/2022  02:04:00     -119.408       42.470      -15.645       63.809       37.829       31.549     4071.639     1430.997      995.334        1.140        0.325      126.736       29.645        0.055      332.039        0.441      866.604
01/19/2022  02:05:00     -102.162       37.867       -6.131       38.670       33.188       21.857     1495.342     1101.466      477.743        0.749        0.154      108.954       12.767        0.014      332.021        0.411      866.645
01/19/2022  02:06:00      -78.306       43.079      -16.542       28.866       26.954       23.492      833.245      726.522      551.870        0.519        0.106       89.374       11.991        0.018      331.976        0.340      866.683
01/19/2022  02:07:00      -74.712       38.067      -13.846       20.839       29.485       15.659      434.259      869.350      245.214        0.439        0.077       83.851       10.277        0.015      331.978        0.342      866.727
01/19/2022  02:08:00      -16.651       65.136       -9.870       13.866       15.292       13.005      192.272      233.859      169.126        0.261        0.030       67.230        7.955        0.014      331.991        0.364      866.753
01/19/2022  02:09:00      -41.450       24.003       -6.088       16.307       19.899       13.568      265.927      395.955      184.088        0.159        0.042       47.898        6.776        0.020      332.011        0.397      866.764
01/19/2022  02:10:00      -17.394      -30.923       -9.136       18.583       24.322        9.468      345.318      591.564       89.648        0.118        0.051       35.480        7.263        0.042      332.023        0.416      866.774
01/19/2022  02:11:00      -35.112       -8.911       -3.760       19.781       38.608        8.646      391.305     1490.586       74.752        0.164        0.098       36.225        4.974        0.019      332.014        0.402      866.781
01/19/2022  02:12:00       -1.419       -3.107        8.357       14.001       29.190       15.160      196.024      852.083      229.836        0.068        0.064        3.416        4.843        2.011      331.959        0.311      866.794
01/19/2022  02:13:00       -7.489        1.607       -4.539       15.708       19.390       11.917      246.733      375.957      142.013        0.042        0.038        7.659        8.593        1.259      332.076        0.503      866.823
01/19/2022  02:14:00        9.822        8.205        3.589       12.832       13.902       11.934      164.653      193.271      142.415        0.034        0.025       12.798        6.232        0.237      332.041        0.443      866.852
01/19/2022  02:15:00      -27.581       -8.868       -5.438       31.168       21.049       20.493      971.436      443.056      419.974        0.135        0.092       28.971       14.547        0.252      332.079        0.507      866.881
01/19/2022  02:16:00      -63.549        4.160       -7.607       29.609       25.294       20.291      876.699      639.796      411.721        0.302        0.096       63.685        8.244        0.017      332.050        0.460      866.906
01/19/2022  02:17:00      -25.365       -7.764       -3.018       24.283       23.366       18.197      589.663      545.965      331.139        0.109        0.073       26.526       11.566        0.190      332.010        0.396      866.925
01/19/2022  02:18:00      -59.889        4.587       -5.109       27.888       17.671       12.514      777.742      312.274      156.590        0.244        0.062       60.065        6.663        0.012      332.104        0.549      866.941
01/19/2022  02:19:00      -45.578        8.418       -4.393       23.703       21.323       18.140      561.812      454.659      329.048        0.176        0.067       46.348       10.664        0.053      332.027        0.424      866.950
01/19/2022  02:20:00      -70.544       19.345       -2.809       50.261       20.578       19.356     2526.156      423.451      374.665        0.434        0.166       73.148       22.399        0.094      331.946        0.288      866.962
01/19/2022  02:21:00      -83.519        3.999      -16.278       50.234       39.625       21.701     2523.497     1570.136      470.934        0.591        0.228       83.615       14.503        0.030      331.830        0.098      866.961
01/19/2022  02:22:00     -124.460       33.225      -12.322       52.514       34.389       25.956     2757.725     1182.603      673.689        1.068        0.231      128.818       26.077        0.041      331.663       -0.176      866.973
01/19/2022  02:23:00      -92.498       36.689       -3.075       47.523       37.440       27.301     2258.443     1401.776      745.372        0.716        0.220       99.508       26.177        0.069      331.577       -0.318      866.998
01/19/2022  02:24:00      -66.418       27.843       -5.026       31.861       27.746       27.924     1015.150      769.831      779.772        0.389        0.128       72.018       15.968        0.049      331.568       -0.333      867.044
01/19/2022  02:25:00      -64.428       32.964       -7.882       22.463       22.140       17.338      504.591      490.158      300.592        0.330        0.065       72.372       10.536        0.021      331.600       -0.280      867.090
01/19/2022  02:26:00     -116.075       44.317      -13.521       30.245       30.176       16.830      914.747      910.616      283.250        0.886        0.105      124.248       16.119        0.017      331.719       -0.084      867.132
01/19/2022  02:27:00      -53.878       13.598       -5.193       36.453       29.467       20.098     1328.799      868.318      403.927        0.286        0.130       55.567       15.329        0.076      331.775        0.008      867.151
01/19/2022  02:28:00      -43.522        3.902       -1.391       35.905       16.071       14.840     1289.176      258.274      220.218        0.184        0.088       43.696       10.703        0.060      331.875        0.172      867.144
01/19/2022  02:29:00        6.003       -4.020       -2.019       21.637       15.820       12.151      468.143      250.262      147.645        0.046        0.043        7.225       10.390        2.068      331.888        0.194      867.137
01/19/2022  02:30:00      -13.878       -4.553       -6.330       15.051       15.003       10.211      226.543      225.081      104.257        0.040        0.028       14.606        4.371        0.090      331.919        0.245      867.139
01/19/2022  02:31:00       -7.292       -7.332      -12.130        8.802        7.039        7.022       77.471       49.551       49.310        0.022        0.009       10.340        4.432        0.184      331.985        0.354      867.131
01/19/2022  02:32:00       10.049       -0.345       -5.208       13.420       18.569       10.635      180.107      344.808      113.098        0.038        0.032       10.055       11.450        1.297      331.909        0.228      867.123
01/19/2022  02:33:00        2.230       -4.796       -1.154       12.113        9.779        9.498      146.736       95.630       90.216        0.018        0.017        5.289        4.920        0.865      331.881        0.184      867.111
01/19/2022  02:34:00       40.674       -3.350      -17.037       27.069       27.652       22.509      732.713      764.637      506.662        0.198        0.100       40.812       13.598        0.111      331.560       -0.346      867.091
01/19/2022  02:35:00       26.175      -14.357       -8.262       24.036       21.741       16.109      577.721      472.666      259.496        0.113        0.065       29.854       11.187        0.140      331.532       -0.393      867.072
01/19/2022  02:36:00        9.647       -6.662       -7.348        8.494        7.899        5.915       72.147       62.391       34.984        0.018        0.008       11.724        4.258        0.132      331.718       -0.086      867.048
01/19/2022  02:37:00      -20.664      -12.890       -9.034       19.111       11.279       12.314      365.212      127.217      151.639        0.066        0.032       24.355       10.997        0.204      331.711       -0.097      867.030
01/19/2022  02:38:00      -21.734      -12.556      -11.905       15.489       14.778       13.855      239.918      218.402      191.964        0.071        0.033       25.100       10.037        0.160      331.830        0.100      867.020
01/19/2022  02:39:00       -5.226       -4.110       -1.208       22.209       12.591       16.332      493.256      158.536      266.721        0.048        0.046        6.648       14.742        4.917      331.699       -0.118      867.016
01/19/2022  02:40:00      -30.666      -16.289        2.646       40.276       26.594       21.679     1622.193      707.242      469.970        0.201        0.140       34.723       19.604        0.319      331.674       -0.159      867.019
01/19/2022  02:41:00      -94.924      -16.571       -4.410       67.878       36.758       26.960     4607.389     1351.130      726.830        0.799        0.334       96.360       25.259        0.069      331.774        0.008      867.016
01/19/2022  02:42:00      -54.896      -17.339       -4.396       47.207       37.007       24.270     2228.482     1369.518      589.052        0.376        0.209       57.569        9.563        0.028      331.822        0.086      866.983
01/19/2022  02:43:00      -76.899      -18.041       -6.447       43.615       47.362       28.059     1902.281     2243.112      787.327        0.561        0.247       78.987       19.760        0.063      331.827        0.094      866.939
01/19/2022  02:44:00      -75.476       -2.990        4.818       67.698       53.323       35.911     4583.006     2843.367     1289.612        0.722        0.436       75.535       33.144        0.193      331.785        0.025      866.898
01/19/2022  02:45:00      -82.162      -48.273      -17.892       51.676       63.208       32.750     2670.373     3995.205     1072.585        0.857        0.387       95.294       21.782        0.052      331.791        0.035      866.866
01/19/2022  02:46:00      -89.495        6.748       -1.107       53.732       62.479       37.210     2887.134     3903.577     1384.555        0.811        0.409       89.749       27.058        0.091      331.707       -0.104      866.856
01/19/2022  02:47:00     -125.591        5.765       -5.348       44.408       32.806       26.960     1972.058     1076.245      726.819        0.980        0.189      125.724       22.562        0.032      331.778        0.015      866.851
01/19/2022  02:48:00     -131.807       -1.010       -9.570       61.399       39.548       27.753     3769.794     1564.031      770.229        1.178        0.305      131.811       25.037        0.036      331.755       -0.025      866.858
01/19/2022  02:49:00     -142.957      -22.285      -14.070       49.572       35.337       29.881     2457.382     1248.711      892.873        1.286        0.230      144.684       16.065        0.012      331.702       -0.113      866.851
01/19/2022  02:50:00     -112.642      -20.405      -19.820       36.190       33.051       23.758     1309.750     1092.394      564.444        0.823        0.148      114.475       16.038        0.020      331.682       -0.145      866.842
01/19/2022  02:51:00      -56.293      -10.292       -6.055       34.994       22.360       14.687     1224.599      499.960      215.706        0.263        0.097       57.227        4.195        0.005      331.757       -0.021      866.833
01/19/2022  02:52:00      -27.869       -7.667        2.053       24.076       23.732       14.301      579.647      563.204      204.506        0.109        0.067       28.905       13.848        0.230      331.784        0.022      866.826
01/19/2022  02:53:00      -12.424       11.716       -1.140       12.759       19.254       11.378      162.799      370.733      129.449        0.048        0.033       17.077        7.095        0.173      331.657       -0.188      866.826
01/19/2022  02:54:00       -9.989       29.252      -10.449       11.662       12.719        8.118      136.013      161.781       65.900        0.071        0.018       30.910        5.731        0.034      331.544       -0.373      866.828
01/19/2022  02:55:00       -5.982       24.214      -14.385       11.830       15.232        7.582      139.939      232.021       57.485        0.063        0.021       24.942        7.076        0.080      331.539       -0.381      866.842
01/19/2022  02:56:00       -3.242       21.769       -4.301       11.449       11.434        8.704      131.084      130.744       75.752        0.042        0.017       22.009        3.364        0.023      331.484       -0.473      866.841
01/19/2022  02:57:00       -9.591       37.424       -8.034       12.650       10.246        6.949      160.012      104.982       48.289        0.094        0.016       38.633        5.728        0.022      331.464       -0.506      866.838
01/19/2022  02:58:00       -9.598       43.978      -12.557       19.175       10.311       10.037      367.671      106.310      100.751        0.138        0.029       45.013        5.309        0.014      331.396       -0.616      866.827
01/19/2022  02:59:00        1.597       25.169      -10.864        8.487       14.579        7.442       72.025      212.544       55.378        0.055        0.017       25.220        5.578        0.049      331.436       -0.551      866.816
01/19/2022  03:00:00      -19.837       23.941       -7.629       15.474        5.208        6.695      239.443       27.119       44.822        0.067        0.016       31.092        3.795        0.015      331.450       -0.528      866.812
01/19/2022  03:01:00      -62.751       17.325      -16.424       11.466        9.106        7.115      131.465       82.925       50.617        0.239        0.013       65.099        3.690        0.003      331.516       -0.422      866.804
01/19/2022  03:02:00      -50.406       16.685       -1.531       36.146       17.461       18.315     1306.512      304.888      335.441        0.238        0.097       53.095       14.970        0.079      331.489       -0.465      866.797
01/19/2022  03:03:00     -101.630       20.507      -11.437       25.851       20.291       15.670      668.280      411.733      245.556        0.610        0.066      103.678       13.792        0.018      331.404       -0.602      866.795
01/19/2022  03:04:00      -69.385       22.742       -8.426       38.429       38.035       19.878     1476.757     1446.643      395.136        0.436        0.166       73.017       19.744        0.073      331.352       -0.688      866.771
01/19/2022  03:05:00      -58.028        3.351       -3.902       46.298       25.110       17.910     2143.534      630.520      320.760        0.324        0.155       58.125       17.392        0.090      331.418       -0.581      866.763
01/19/2022  03:06:00       14.080       -4.303        2.337       18.502       25.187       17.787      342.324      634.383      316.391        0.076        0.065       14.723       14.697        0.996      331.380       -0.643      866.773
01/19/2022  03:07:00      -32.317       23.304       -3.841       30.961       20.560       11.082      958.564      422.716      122.803        0.155        0.075       39.843        7.934        0.040      331.342       -0.705      866.788
01/19/2022  03:08:00      -74.708       38.979      -14.375       28.871       19.843       16.625      833.552      393.731      276.389        0.441        0.075       84.266       16.608        0.039      331.336       -0.715      866.808
01/19/2022  03:09:00      -63.991       31.280      -20.885       25.238       18.667       13.712      636.949      348.441      188.030        0.334        0.059       71.227       13.237        0.035      331.443       -0.540      866.822
01/19/2022  03:10:00      -45.439       28.936      -11.320       35.004       12.059       14.403     1225.292      145.425      207.448        0.230        0.079       53.870       18.123        0.113      331.477       -0.483      866.838
01/19/2022  03:11:00      -28.912       -0.740      -12.615       38.260       29.493       24.409     1463.815      869.809      595.786        0.196        0.146       28.921       24.201        0.700      331.391       -0.625      866.866
01/19/2022  03:12:00      -51.106        4.501       -9.472       43.926       22.185       23.194     1929.467      492.160      537.971        0.284        0.148       51.303       23.954        0.218      331.396       -0.617      866.888
01/19/2022  03:13:00      -32.634       -9.144      -22.894       34.726       26.741       19.477     1205.865      715.090      379.338        0.199        0.115       33.891        6.906        0.042      331.398       -0.613      866.876
01/19/2022  03:14:00      -20.276       10.542      -21.789       25.799       27.516       22.152      665.564      757.113      490.710        0.145        0.096       22.853       17.057        0.557      331.345       -0.701      866.842
01/19/2022  03:15:00      -12.377        7.409      -10.270       26.525       16.208       21.296      703.574      262.711      453.501        0.087        0.071       14.425       14.688        1.037      331.414       -0.588      866.802
01/19/2022  03:16:00       -1.871       -1.991       -4.700        7.827        8.202        7.147       61.262       67.272       51.073        0.010        0.009        2.732        4.285        2.460      331.489       -0.464      866.777
01/19/2022  03:17:00        1.879      -14.031       -9.725       13.413       17.087       10.664      179.917      291.971      113.718        0.044        0.029       14.157        8.532        0.363      331.554       -0.357      866.780
01/19/2022  03:18:00      -45.235       19.773      -11.378       30.750       14.657       10.127      945.559      214.821      102.557        0.191        0.063       49.368        6.126        0.015      331.355       -0.684      866.792
01/19/2022  03:19:00      -82.894       22.005      -15.115       12.377       13.423       10.685      153.195      180.186      114.165        0.402        0.022       85.765        7.658        0.008      331.351       -0.691      866.797
01/19/2022  03:20:00      -45.897       -1.329       -4.343       31.883       19.823       11.432     1016.554      392.960      130.683        0.183        0.077       45.916       12.243        0.071      331.377       -0.647      866.794
01/19/2022  03:21:00      -20.725       -1.604      -12.016       21.293       24.649       15.755      453.401      607.590      248.229        0.094        0.065       20.787       13.835        0.443      331.468       -0.498      866.797
01/19/2022  03:22:00      -30.394        4.728       -8.333       33.779       14.452       12.448     1140.990      208.866      154.956        0.126        0.075       30.759        7.458        0.059      331.396       -0.615      866.798
01/19/2022  03:23:00      -47.374       10.511       -8.982       14.887       13.727        7.992      221.637      188.417       63.868        0.145        0.024       48.526        6.286        0.017      331.523       -0.406      866.810
01/19/2022  03:24:00        6.092       -1.968       -6.869        6.360        9.027        5.458       40.444       81.487       29.793        0.012        0.008        6.402        1.498        0.055      331.614       -0.258      866.828
01/19/2022  03:25:00       12.916       -8.860      -15.937       17.522       27.046       17.475      307.027      731.460      305.374        0.092        0.067       15.663        8.030        0.263      331.623       -0.243      866.849
01/19/2022  03:26:00       -6.813        5.614      -12.000       27.694       19.768       14.577      766.985      390.781      212.498        0.080        0.069        8.828       12.097        1.878      331.176       -0.977      866.862
01/19/2022  03:27:00      -34.744       -9.056       -8.557       21.791       19.597       15.016      474.843      384.047      225.490        0.122        0.054       35.904        7.783        0.047      331.343       -0.704      866.848
01/19/2022  03:28:00       -9.031       -2.666        1.516       33.785       25.181       24.850     1141.431      634.080      617.506        0.124        0.120        9.416       20.736        4.850      331.305       -0.766      866.841
01/19/2022  03:29:00      -38.975        1.915        0.481       40.172       32.056       30.849     1613.820     1027.564      951.651        0.256        0.180       39.022       27.491        0.496      331.365       -0.668      866.849
01/19/2022  03:30:00        4.165      -14.317       -1.669       32.405       21.890       22.623     1050.058      479.164      511.803        0.113        0.102       14.911       15.516        1.083      331.517       -0.418      866.861
01/19/2022  03:31:00        1.203      -22.120      -16.258       37.143       33.852       19.918     1379.620     1145.976      396.707        0.184        0.146       22.153       19.719        0.792      331.502       -0.442      866.877
01/19/2022  03:32:00        9.432       -6.230      -23.943       26.406       23.566       15.356      697.302      555.346      235.815        0.109        0.074       11.304        6.698        0.351      331.138       -1.041      866.885
01/19/2022  03:33:00       39.130       -9.177      -15.857       16.754       16.281       13.316      280.687      265.076      177.308        0.129        0.036       40.192        3.343        0.007      330.965       -1.324      866.882
01/19/2022  03:34:00       38.110      -32.947      -12.154       19.411       16.009       13.503      376.796      256.281      182.329        0.175        0.041       50.377       12.780        0.064      331.237       -0.877      866.862
01/19/2022  03:35:00       23.290      -37.049       -8.881       31.126       24.511       23.293      968.856      600.771      542.571        0.205        0.106       43.762       15.527        0.126      331.448       -0.530      866.841
01/19/2022  03:36:00      -13.109      -15.797      -15.017       30.144       17.553       14.787      908.668      308.111      218.668        0.104        0.072       20.528       12.047        0.344      331.536       -0.387      866.825
01/19/2022  03:37:00        3.323       17.970        5.914       17.160       22.494       12.788      294.480      505.974      163.539        0.067        0.048       18.274        7.404        0.164      331.425       -0.569      866.814
01/19/2022  03:38:00       -0.293       11.486       -2.975       10.427       11.157        8.935      108.729      124.475       79.829        0.023        0.016       11.489        6.611        0.331      331.412       -0.591      866.809
01/19/2022  03:39:00      -37.925       15.955       -7.078       24.899       16.151       11.942      619.942      260.857      142.609        0.138        0.051       41.145        9.422        0.052      331.448       -0.530      866.822
01/19/2022  03:40:00      -21.181       11.140       -6.125       17.800       26.318       15.368      316.851      692.631      236.170        0.093        0.062       23.931        7.573        0.100      331.465       -0.503      866.842
01/19/2022  03:41:00      -19.037       -8.019       -1.121       21.383       30.505       10.506      457.218      930.534      110.381        0.096        0.075       20.657       10.952        0.281      331.463       -0.505      866.859
01/19/2022  03:42:00      -21.279      -24.485       -0.188       27.053       29.124       14.573      731.845      848.196      212.360        0.142        0.090       32.439       12.278        0.143      331.561       -0.346      866.870
01/19/2022  03:43:00      -80.574      -26.312      -12.248       28.839       41.209       20.855      831.700     1698.218      434.949        0.515        0.148       84.762       13.397        0.025      331.629       -0.232      866.885
01/19/2022  03:44:00      -53.617      -21.240      -10.836       36.213       34.958       24.620     1311.395     1222.086      606.124        0.329        0.157       57.671       21.687        0.141      331.609       -0.265      866.892
01/19/2022  03:45:00      -17.640      -39.364       -3.878       21.467       32.289       23.530      460.838     1042.588      553.664        0.197        0.103       43.136       18.637        0.187      331.659       -0.182      866.897
01/19/2022  03:46:00      -15.066      -27.935        7.559       38.066       43.963       24.284     1449.045     1932.733      589.726        0.252        0.199       31.739       15.307        0.233      331.571       -0.328      866.906
01/19/2022  03:47:00        3.210       27.690      -12.843        9.407       10.100        9.177       88.493      102.011       84.212        0.061        0.014       27.875        4.008        0.021      331.349       -0.694      866.891
01/19/2022  03:48:00      -42.295        9.720      -17.197       38.013       23.129       17.842     1444.999      534.955      318.327        0.224        0.115       43.397       18.607        0.184      331.581       -0.310      866.866
01/19/2022  03:49:00      -23.158      -10.071      -10.563       33.157       17.305       22.908     1099.379      299.476      524.792        0.134        0.096       25.254       12.359        0.240      331.583       -0.308      866.839
01/19/2022  03:50:00      -14.707      -15.011       -3.887       17.640       21.043       15.134      311.159      442.793      229.027        0.072        0.049       21.015        9.258        0.194      331.511       -0.426      866.831
01/19/2022  03:51:00      -42.961      -11.810       -7.482       30.037       22.842       17.035      902.216      521.763      290.190        0.188        0.086       44.555       14.622        0.108      331.549       -0.364      866.844
01/19/2022  03:52:00      -15.949      -24.648       -4.244       20.438       35.215       17.878      417.713     1240.107      319.626        0.143        0.099       29.358       10.484        0.128      331.514       -0.422      866.872
01/19/2022  03:53:00      -41.168       10.607       -3.693       27.682       24.732       12.049      766.310      611.674      145.167        0.167        0.076       42.512        7.780        0.033      331.432       -0.555      866.894
01/19/2022  03:54:00      -13.601        0.635       -0.702       12.728       15.198        9.349      161.999      230.969       87.403        0.033        0.024       13.615        9.201        0.457      331.528       -0.400      866.906
01/19/2022  03:55:00      -15.677        2.599       -2.687       10.994        9.903        8.795      120.858       98.064       77.359        0.028        0.015       15.891        6.609        0.173      331.494       -0.457      866.908
01/19/2022  03:56:00      -13.525        4.093      -10.687       19.445       19.241       12.580      378.113      370.222      158.249        0.061        0.045       14.130        4.743        0.113      331.502       -0.442      866.905
01/19/2022  03:57:00      -73.580       20.627      -17.221       14.641       11.475        7.145      214.360      131.682       51.054        0.327        0.020       76.416        4.696        0.004      331.502       -0.442      866.892
01/19/2022  03:58:00      -65.095       19.060      -15.244       36.620       19.459       21.798     1341.035      378.671      475.162        0.351        0.110       67.828       23.158        0.117      331.449       -0.530      866.878
01/19/2022  03:59:00      -76.117       13.101      -23.948       25.430       20.616       14.486      646.697      425.040      209.850        0.391        0.064       77.236       12.759        0.027      331.424       -0.571      866.873
01/19/2022  04:00:00     -110.449       23.458      -11.688       23.305       18.240       14.313      543.104      332.697      204.860        0.698        0.054      112.912       11.975        0.011      331.373       -0.654      866.870
01/19/2022  04:01:00      -79.035       26.023       -1.120       31.674       23.113       18.520     1003.237      534.198      342.992        0.440        0.094       83.208       17.268        0.043      331.212       -0.917      866.871
01/19/2022  04:02:00      -37.137        8.677      -12.996       38.269       27.039       14.311     1464.505      731.117      204.804        0.201        0.120       38.137        4.930        0.017      331.210       -0.921      866.877
01/19/2022  04:03:00       -8.655       -0.908      -12.296       12.963       10.561       11.315      168.031      111.527      128.036        0.032        0.020        8.702        6.656        0.585      331.244       -0.863      866.888
01/19/2022  04:04:00       -0.395       -2.461       -9.746        7.033       10.572        6.696       49.458      111.761       44.840        0.015        0.010        2.492        4.848        3.785      331.291       -0.788      866.893
01/19/2022  04:05:00       22.113       29.010       -5.069        8.998        7.226        6.735       80.972       52.217       45.364        0.077        0.009       36.477        2.932        0.006      331.315       -0.748      866.891
01/19/2022  04:06:00        5.379       19.439      -11.510       18.077       14.807       11.232      326.793      219.233      126.164        0.061        0.034       20.170       14.076        0.487      331.335       -0.714      866.891
01/19/2022  04:07:00       10.610       23.122       -7.178       13.591       12.161       10.811      184.721      147.896      116.869        0.057        0.022       25.440        7.767        0.093      331.363       -0.671      866.902
01/19/2022  04:08:00       18.678       37.366       -9.438       23.796       15.267       13.137      566.267      233.088      172.589        0.140        0.049       41.774        9.723        0.054      331.271       -0.821      866.932
01/19/2022  04:09:00        6.864       24.385       -0.942       15.898       22.593       13.256      252.741      510.421      175.721        0.079        0.047       25.333        8.513        0.113      331.113       -1.081      866.965
01/19/2022  04:10:00        4.109       54.419       -8.246       21.121       23.553       11.675      446.118      554.731      136.300        0.209        0.057       54.574        6.985        0.016      331.268       -0.826      866.975
01/19/2022  04:11:00      -34.999       15.364       -5.244       17.695       20.105       12.522      313.096      404.215      156.793        0.118        0.044       38.222       11.056        0.084      331.222       -0.901      866.980
01/19/2022  04:12:00       -8.935      -10.482       -9.706       14.289       10.288        9.840      204.188      105.839       96.825        0.035        0.020       13.773        8.764        0.405      331.197       -0.944      866.970
01/19/2022  04:13:00        4.664      -14.773       -4.526        5.904        9.955        6.457       34.858       99.108       41.696        0.022        0.009       15.492        2.513        0.026      331.288       -0.795      866.969
01/19/2022  04:14:00        2.346       -4.061        1.821        8.721        4.957        4.780       76.062       24.572       22.844        0.007        0.006        4.690        2.851        0.370      331.378       -0.645      866.962
01/19/2022  04:15:00       -3.634        9.033       -5.899       14.256       13.717       13.573      203.245      188.165      184.231        0.035        0.029        9.737        9.490        0.950      331.385       -0.635      866.952
01/19/2022  04:16:00        9.330       -0.536        0.506        7.459        9.692       12.563       55.631       93.933      157.840        0.020        0.015        9.345        6.716        0.516      331.416       -0.584      866.952
01/19/2022  04:17:00        8.749       18.224        0.482       15.025       11.498       10.869      225.752      132.203      118.134        0.044        0.024       20.215        7.268        0.129      331.429       -0.561      866.958
01/19/2022  04:18:00       15.052       40.575       -7.359       22.893       18.858        8.681      524.076      355.635       75.365        0.144        0.048       43.277        1.526        0.001      331.572       -0.327      866.941
01/19/2022  04:19:00       -7.775      -13.456       -4.987        8.383       16.136       15.407       70.277      260.383      237.390        0.042        0.028       15.541        5.162        0.110      331.403       -0.604      866.923
01/19/2022  04:20:00       -4.902        2.514       -8.588       11.696       11.575       11.052      136.797      133.971      122.151        0.025        0.020        5.509        4.935        0.802      331.401       -0.610      866.899
01/19/2022  04:21:00      -33.793        7.072      -14.233       27.496       22.757       17.611      756.037      517.875      310.156        0.149        0.079       34.525        7.404        0.046      331.349       -0.693      866.892
01/19/2022  04:22:00      -42.655       10.493       -5.328       19.968       17.018       13.923      398.718      289.604      193.843        0.142        0.044       43.927        8.839        0.040      331.301       -0.773      866.899
01/19/2022  04:23:00      -58.764        9.864       -4.156       26.959       19.521       14.199      726.813      381.056      201.605        0.244        0.065       59.586       11.322        0.036      331.285       -0.798      866.924
01/19/2022  04:24:00      -43.668       21.625       -3.987       26.122       19.368       14.058      682.341      375.127      197.628        0.182        0.063       48.729        7.941        0.027      331.243       -0.867      866.954
01/19/2022  04:25:00      -30.546        4.371        2.557       36.909       19.955       14.438     1362.293      398.209      208.449        0.146        0.098       30.858       16.415        0.283      331.223       -0.900      866.994
01/19/2022  04:26:00      -36.774       24.217       -2.756       18.611       16.407       12.064      346.376      269.192      145.546        0.135        0.038       44.032       11.641        0.070      331.089       -1.120      867.040
01/19/2022  04:27:00      -49.979       24.386       -6.626       20.498       29.416       13.995      420.171      865.323      195.871        0.231        0.074       55.611       11.553        0.043      331.177       -0.976      867.069
01/19/2022  04:28:00      -59.431       35.421      -12.367       18.430       14.509       10.305      339.663      210.518      106.194        0.280        0.033       69.186        6.143        0.008      331.209       -0.922      867.075
01/19/2022  04:29:00      -19.906       12.615      -12.551       13.284       11.300        8.439      176.461      127.684       71.211        0.054        0.019       23.566        4.244        0.032      331.307       -0.762      867.064
01/19/2022  04:30:00       -7.842       -1.908      -14.264        9.708        9.204        5.796       94.250       84.719       33.595        0.024        0.011        8.071        2.774        0.118      331.240       -0.872      867.057
01/19/2022  04:31:00      -15.090      -16.178       -5.081       10.068        7.344       14.365      101.358       53.934      206.358        0.044        0.018       22.123        7.213        0.106      331.338       -0.713      867.056
01/19/2022  04:32:00       -3.889      -18.092       -1.809       15.752        9.446        7.636      248.135       89.224       58.315        0.037        0.020       18.506        7.615        0.169      331.484       -0.470      867.055
01/19/2022  04:33:00       25.285      -27.750      -12.871        9.247        6.988        8.172       85.508       48.835       66.785        0.089        0.010       37.542        4.812        0.016      331.569       -0.330      867.056
01/19/2022  04:34:00       29.504       -9.468       -7.410        8.113       14.104        9.372       65.817      198.914       87.842        0.068        0.018       30.986        5.464        0.031      331.526       -0.403      867.067
01/19/2022  04:35:00       40.133       20.817       -5.759       11.811        7.887        4.799      139.501       62.209       23.031        0.115        0.011       45.211        3.672        0.007      331.469       -0.496      867.089
01/19/2022  04:36:00       59.039       26.553       -2.834        7.314        6.153        6.804       53.488       37.855       46.295        0.217        0.007       64.735        4.893        0.006      331.592       -0.294      867.099
01/19/2022  04:37:00       57.919       21.232       -7.333        6.712        9.973        5.676       45.057       99.461       32.221        0.202        0.009       61.687        2.451        0.002      331.629       -0.231      867.105
01/19/2022  04:38:00       52.185       12.013       -6.808        7.275        8.635        9.325       52.924       74.570       86.957        0.156        0.011       53.550        5.693        0.011      331.699       -0.118      867.109
01/19/2022  04:39:00       23.845       10.113       -5.173       18.551        7.536        6.594      344.141       56.793       43.479        0.057        0.022       25.901        8.184        0.100      331.646       -0.204      867.118
01/19/2022  04:40:00       -8.421       13.822       -2.695        9.737       17.086        5.683       94.807      291.930       32.296        0.034        0.021       16.185        6.604        0.167      331.578       -0.317      867.120
01/19/2022  04:41:00       -2.017       -0.369       -0.870        6.352        7.437        7.762       40.354       55.311       60.255        0.008        0.008        2.050        4.578        4.985      331.300       -0.774      867.110
01/19/2022  04:42:00      -27.005      -14.536      -12.035       15.453        6.289        9.730      238.810       39.554       94.681        0.073        0.019       30.668        3.966        0.017      331.362       -0.672      867.095
01/19/2022  04:43:00      -19.749       -3.665       -5.790       10.944        7.969       11.388      119.776       63.502      129.698        0.037        0.016       20.086        9.333        0.216      331.505       -0.438      867.083
01/19/2022  04:44:00      -22.733        5.237       -8.813       16.572        8.114        5.851      274.633       65.844       34.236        0.050        0.019       23.329        7.033        0.091      331.433       -0.557      867.075
01/19/2022  04:45:00      -22.150        5.851       -9.525       10.313        4.674        6.435      106.359       21.851       41.407        0.039        0.008       22.909        6.483        0.080      331.332       -0.720      867.068
01/19/2022  04:46:00      -16.133        2.323       -7.880        6.841        8.020        9.117       46.796       64.324       83.120        0.026        0.010       16.300        4.069        0.062      331.366       -0.666      867.049
01/19/2022  04:47:00      -35.589        0.899      -10.339       13.030       16.445        8.651      169.771      270.428       74.835        0.094        0.026       35.600        4.822        0.018      331.282       -0.803      867.047
01/19/2022  04:48:00      -56.136       15.043       -7.532       19.289       15.309        9.824      372.074      234.378       96.516        0.207        0.035       58.117        6.099        0.011      331.230       -0.888      867.041
01/19/2022  04:49:00      -43.938       12.736       -3.091       21.058       19.652       12.550      443.455      386.209      157.514        0.154        0.049       45.746        8.704        0.036      331.208       -0.924      867.060
01/19/2022  04:50:00      -79.419       30.139      -10.684       18.076       14.121        9.986      326.734      199.405       99.723        0.398        0.031       84.945        3.442        0.002      331.156       -1.010      867.078
01/19/2022  04:51:00      -81.061       27.808       -4.578       17.230       16.278       10.867      296.876      264.974      118.101        0.402        0.034       85.698        5.627        0.004      331.100       -1.103      867.100
01/19/2022  04:52:00      -89.433       20.637       -7.881       46.092       27.577       15.573     2124.429      760.509      242.532        0.581        0.156       91.783       17.066        0.035      331.096       -1.108      867.116
01/19/2022  04:53:00     -104.694       23.694       -6.928       31.614       25.130       16.329      999.458      631.531      266.634        0.673        0.095      107.342       16.589        0.024      331.066       -1.158      867.128
01/19/2022  04:54:00      -89.315       39.077       -9.040       27.710       18.789       16.740      767.853      353.009      280.229        0.549        0.070       97.490       11.295        0.013      331.004       -1.260      867.138
01/19/2022  04:55:00      -99.227       24.707      -11.581       32.708       31.881       16.831     1069.810     1016.408      283.289        0.648        0.118      102.257       13.040        0.016      330.968       -1.319      867.150
01/19/2022  04:56:00     -102.564       26.146      -14.118       33.725       25.298       18.392     1137.359      640.008      338.267        0.676        0.106      105.844       18.491        0.031      330.989       -1.286      867.153
01/19/2022  04:57:00      -92.222       18.553       -5.442       45.937       22.227       21.521     2110.235      494.044      463.171        0.597        0.153       94.070       18.133        0.037      330.977       -1.305      867.161
01/19/2022  04:58:00      -97.974        3.938       -8.309       51.744       27.635       20.348     2677.481      763.704      414.045        0.677        0.193       98.053       12.659        0.017      331.075       -1.143      867.174
01/19/2022  04:59:00      -89.428        5.633       -4.933       59.093       31.485       18.212     3491.936      991.335      331.694        0.643        0.241       89.605       21.348        0.057      331.003       -1.262      867.203
01/19/2022  05:00:00     -119.375        9.322        3.335       54.067       31.648       26.195     2923.292     1001.581      686.166        0.948        0.231      119.738       28.714        0.058      331.014       -1.244      867.221
01/19/2022  05:01:00      -69.977       12.480       -2.220       52.812       34.746       19.233     2789.149     1207.305      369.895        0.471        0.218       71.081       14.629        0.042      330.933       -1.378      867.237
01/19/2022  05:02:00      -60.961        5.197       -1.221       40.312       20.963       15.265     1625.097      439.428      233.025        0.302        0.115       61.182       14.841        0.059      330.878       -1.467      867.243
01/19/2022  05:03:00      -20.533       -7.069       -4.445       18.663       22.547       14.481      348.315      508.372      209.709        0.078        0.053       21.716        6.723        0.096      330.976       -1.306      867.255
01/19/2022  05:04:00      -15.632      -17.396      -14.058       21.453       21.268       15.891      460.230      452.348      252.523        0.095        0.058       23.388        9.735        0.173      331.052       -1.181      867.268
01/19/2022  05:05:00       -9.309        9.805       -5.067        8.394        9.708       10.510       70.452       94.250      110.469        0.024        0.014       13.520        6.038        0.199      330.975       -1.308      867.276
01/19/2022  05:06:00      -17.994        9.070      -17.668       11.797       12.352       10.025      139.179      152.578      100.500        0.056        0.020       20.151        7.083        0.124      331.100       -1.102      867.273
01/19/2022  05:07:00      -13.193        0.520       -7.387        8.110        7.829        6.749       65.779       61.301       45.553        0.020        0.009       13.203        5.191        0.155      331.144       -1.030      867.249
01/19/2022  05:08:00      -26.547        7.881       -5.572        9.672       10.338        6.981       93.539      106.868       48.731        0.052        0.012       27.693        3.249        0.014      331.101       -1.100      867.217
01/19/2022  05:09:00      -36.936        0.781      -10.750       14.540       12.568       11.197      211.420      157.955      125.365        0.099        0.025       36.944        4.692        0.016      331.061       -1.166      867.177
01/19/2022  05:10:00       -9.714       -9.129       -6.812       10.566       10.235        6.894      111.639      104.757       47.521        0.024        0.013       13.330        3.905        0.086      331.032       -1.213      867.144
01/19/2022  05:11:00      -30.992        7.807       -4.494       15.533       12.120        8.611      241.283      146.897       74.147        0.075        0.023       31.960        7.178        0.050      331.016       -1.242      867.125
01/19/2022  05:12:00      -30.869      -10.874      -10.903       12.934       15.446       11.062      167.298      238.583      122.378        0.086        0.026       32.728        8.408        0.066      331.046       -1.193      867.109
01/19/2022  05:13:00      -19.888       -9.047      -14.653        7.404        8.367       10.990       54.813       70.002      120.789        0.047        0.012       21.849        4.562        0.044      331.054       -1.180      867.097
01/19/2022  05:14:00      -12.538        0.990      -11.088        7.002        5.252        6.556       49.026       27.581       42.987        0.020        0.006       12.577        2.995        0.057      331.231       -0.889      867.083
01/19/2022  05:15:00      -29.496      -13.376       -7.708       11.612       11.377        6.659      134.843      129.430       44.337        0.071        0.015       32.387        5.794        0.032      331.261       -0.838      867.070
01/19/2022  05:16:00      -15.238      -15.636       -7.169        9.916       12.560        8.209       98.332      157.763       67.385        0.043        0.016       21.833        4.830        0.049      331.316       -0.747      867.068
01/19/2022  05:17:00      -13.983      -14.669       -5.167       11.040       12.021       12.182      121.887      144.498      148.400        0.043        0.021       20.265        8.649        0.182      331.380       -0.643      867.072
01/19/2022  05:18:00      -11.506        4.312       -8.395       12.335        8.353        5.088      152.141       69.779       25.891        0.023        0.012       12.287        2.893        0.055      331.247       -0.859      867.082
01/19/2022  05:19:00      -19.974       16.448       -6.302        8.258        7.594        6.816       68.201       57.667       46.457        0.044        0.009       25.874        3.143        0.015      331.294       -0.784      867.094
01/19/2022  05:20:00      -12.066       11.481       -6.142        7.368        6.289        5.866       54.291       39.545       34.407        0.022        0.006       16.656        3.844        0.053      331.262       -0.835      867.108
01/19/2022  05:21:00        1.801       15.140       -5.299        4.395        7.990        3.897       19.312       63.841       15.189        0.018        0.005       15.246        2.671        0.031      331.317       -0.745      867.112
01/19/2022  05:22:00       25.740       18.942       -6.469       13.947        9.471        6.123      194.528       89.708       37.493        0.069        0.016       31.958        4.733        0.022      331.237       -0.879      867.116
01/19/2022  05:23:00       34.287       34.888       -8.509        9.114        7.238        8.065       83.059       52.390       65.040        0.133        0.010       48.916        3.573        0.005      331.193       -0.948      867.124
01/19/2022  05:24:00       29.073       25.399       -3.236       10.323        7.486        8.007      106.568       56.040       64.115        0.086        0.011       38.605        4.798        0.015      331.215       -0.912      867.132
01/19/2022  05:25:00       20.837       18.135       -5.851        8.110       11.342        5.739       65.780      128.639       32.938        0.051        0.011       27.624        4.163        0.023      331.082       -1.133      867.140
01/19/2022  05:26:00        3.049       14.691       -9.210       16.236        8.504        7.628      263.603       72.323       58.188        0.035        0.020       15.004        5.257        0.123      331.119       -1.071      867.144
01/19/2022  05:27:00      -26.546       18.625      -13.760       11.700        9.272        8.439      136.901       85.975       71.213        0.077        0.015       32.428        3.642        0.013      331.181       -0.967      867.143
01/19/2022  05:28:00      -29.013       24.917      -11.380       11.790        8.697        8.499      139.011       75.634       72.238        0.094        0.014       38.244        5.013        0.017      331.036       -1.208      867.152
01/19/2022  05:29:00      -15.433       11.033       -8.328        7.176       13.681        5.369       51.499      187.169       28.825        0.035        0.013       18.971        4.726        0.062      331.090       -1.119      867.169
01/19/2022  05:30:00        1.564       -1.070       -6.110        5.733        6.437        5.287       32.870       41.435       27.951        0.007        0.005        1.895        1.879        0.983      331.083       -1.130      867.195
01/19/2022  05:31:00       -6.772        2.789       -3.111        3.918        4.225        3.941       15.353       17.849       15.535        0.006        0.002        7.324        2.398        0.107      331.155       -1.013      867.211
01/19/2022  05:32:00       -4.733        7.478      -11.918        4.130        6.832        4.673       17.058       46.676       21.841        0.015        0.004        8.850        2.969        0.113      331.164       -0.997      867.225
01/19/2022  05:33:00        2.755        5.053      -12.022        4.157        4.934        4.502       17.279       24.342       20.264        0.012        0.003        5.755        3.330        0.335      331.176       -0.977      867.246
01/19/2022  05:34:00       -4.509       10.058       -9.671       15.336        7.341        6.417      235.204       53.886       41.178        0.027        0.017       11.022        7.171        0.423      331.176       -0.976      867.259
01/19/2022  05:35:00      -25.613       11.384       -5.094       11.789        7.544        7.237      138.988       56.914       52.373        0.053        0.012       28.029        3.942        0.020      331.163       -0.998      867.272
01/19/2022  05:36:00       -3.982      -10.391      -10.941        7.667       10.096        7.850       58.784      101.924       61.630        0.023        0.011       11.128        5.541        0.248      331.143       -1.031      867.271
01/19/2022  05:37:00      -14.421        4.345       -6.077       11.117       10.626        5.321      123.582      112.922       28.312        0.026        0.013       15.062        6.663        0.196      331.165       -0.994      867.280
01/19/2022  05:38:00      -49.039       20.654      -15.321       14.799        7.684        6.067      219.004       59.043       36.812        0.169        0.016       53.211        2.797        0.003      331.121       -1.068      867.293
01/19/2022  05:39:00      -66.113       21.057      -13.839       13.304        8.349       13.391      176.988       69.702      179.312        0.272        0.021       69.385        9.380        0.018      331.042       -1.196      867.312
01/19/2022  05:40:00      -49.894       11.066      -10.773       27.416       12.678       13.000      751.638      160.727      168.996        0.190        0.054       51.106       12.226        0.057      330.960       -1.333      867.336
01/19/2022  05:41:00      -69.444       19.887      -11.496       28.856       17.954       15.753      832.657      322.348      248.172        0.338        0.070       72.235       12.458        0.030      330.900       -1.432      867.350
01/19/2022  05:42:00      -52.818       11.124      -11.398       24.242       20.732       15.948      587.670      429.825      254.344        0.216        0.064       53.977        9.131        0.029      330.928       -1.385      867.358
01/19/2022  05:43:00      -31.857       13.186      -14.021       27.457       21.219       15.186      753.914      450.245      230.607        0.141        0.072       34.478       14.129        0.168      330.938       -1.369      867.382
01/19/2022  05:44:00      -45.529        9.244      -11.100       27.164       21.395       19.478      737.890      457.742      379.378        0.193        0.079       46.458       12.657        0.074      330.968       -1.319      867.417
01/19/2022  05:45:00      -26.821       13.519       -8.633       25.497       13.553       14.807      650.086      183.692      219.240        0.101        0.053       30.036       15.559        0.268      330.944       -1.360      867.468
01/19/2022  05:46:00       -2.626       13.048      -12.577       12.658       13.485        9.602      160.217      181.849       92.195        0.038        0.022       13.310        6.855        0.265      331.053       -1.180      867.519
01/19/2022  05:47:00       -8.426       -2.105       -6.875       11.495       18.328        7.008      132.132      335.907       49.112        0.032        0.026        8.685        6.013        0.479      331.129       -1.055      867.550
01/19/2022  05:48:00       -7.449       -0.579       -4.813       27.461       19.157       26.423      754.128      366.999      698.175        0.095        0.091        7.471       22.603        9.153      330.938       -1.368      867.580
01/19/2022  05:49:00      -81.530       20.480      -20.589       45.746       22.371       18.117     2092.684      500.458      328.213        0.521        0.146       84.063       10.787        0.016      330.832       -1.543      867.595
01/19/2022  05:50:00      -45.885       18.673       -3.847       38.014       33.133       21.415     1445.030     1097.767      458.586        0.273        0.150       49.539        7.977        0.026      330.750       -1.677      867.614
01/19/2022  05:51:00      -47.039        0.723       -7.824       47.321       27.799       21.353     2239.291      772.757      455.940        0.287        0.173       47.044       14.557        0.096      330.714       -1.736      867.628
01/19/2022  05:52:00      -76.813       22.511       -0.383       49.039       35.768       21.870     2404.866     1279.352      478.280        0.528        0.208       80.043       23.056        0.083      330.725       -1.718      867.643
01/19/2022  05:53:00      -64.223       35.249       -5.298       50.075       29.493       23.814     2507.542      869.836      567.097        0.467        0.197       73.261       28.578        0.152      330.719       -1.727      867.659
01/19/2022  05:54:00      -66.171       18.675       -3.401       35.459       25.146       18.989     1257.331      632.318      360.594        0.349        0.113       68.756       18.619        0.073      330.721       -1.724      867.680
01/19/2022  05:55:00      -46.568       37.586       -3.175       24.222       17.183       12.551      586.710      295.252      157.537        0.232        0.052       59.844       11.601        0.038      330.721       -1.724      867.693
01/19/2022  05:56:00     -101.084       46.918       -6.229       33.262       30.986       22.442     1106.375      960.108      503.627        0.751        0.129      111.442       19.023        0.029      330.833       -1.541      867.699
01/19/2022  05:57:00     -103.035       19.498       -6.793       44.209       29.675       23.002     1954.407      880.626      529.096        0.720        0.168      104.864       17.152        0.027      330.842       -1.527      867.711
01/19/2022  05:58:00      -78.122        1.306      -13.048       51.947       32.881       19.153     2698.448     1081.144      366.844        0.521        0.207       78.133       12.022        0.024      330.890       -1.448      867.709
01/19/2022  05:59:00     -114.044       15.025      -13.839       39.533       49.030       17.233     1562.864     2403.910      296.971        0.884        0.213      115.029        6.271        0.003      330.873       -1.474      867.713
01/19/2022  06:00:00      -95.444       16.379       -4.697       42.966       28.905       24.253     1846.120      835.497      588.229        0.633        0.163       96.839       16.791        0.030      330.840       -1.530      867.699
01/19/2022  06:01:00      -91.332       20.295      -10.464       34.336       29.201       20.660     1178.994      852.678      426.838        0.566        0.123       93.560        7.924        0.007      330.877       -1.468      867.690
01/19/2022  06:02:00       -3.704      -17.838       -4.664       16.022       21.352       23.868      256.690      455.905      569.670        0.082        0.064       18.219       15.266        0.702      330.836       -1.536      867.681
01/19/2022  06:03:00      -14.021        6.256        4.514       25.570       21.239       20.678      653.802      451.102      427.573        0.089        0.077       15.354       17.811        1.346      330.829       -1.546      867.684
01/19/2022  06:04:00      -45.405       14.204       -6.969       60.610       21.992       22.089     3673.602      483.640      487.943        0.348        0.232       47.575       29.854        0.394      330.839       -1.531      867.682
01/19/2022  06:05:00      -88.665       16.706      -11.720       31.637       29.528       17.161     1000.926      871.891      294.508        0.522        0.108       90.225        8.429        0.009      330.862       -1.493      867.690
01/19/2022  06:06:00      -81.681       24.579       -7.854       17.068       20.592       13.678      291.319      424.018      187.098        0.412        0.045       85.299        9.855        0.013      330.849       -1.515      867.701
01/19/2022  06:07:00      -68.202       13.392       -9.282       14.147       14.485       10.971      200.140      209.813      120.370        0.272        0.027       69.504        8.249        0.014      330.964       -1.327      867.726
01/19/2022  06:08:00      -57.506       20.703       -9.094       14.518       15.856        9.504      210.774      251.413       90.324        0.219        0.028       61.119        3.705        0.004      331.098       -1.106      867.744
01/19/2022  06:09:00      -50.866       15.678      -13.467       14.812       13.557        8.579      219.409      183.788       73.607        0.175        0.024       53.227        3.967        0.006      331.124       -1.062      867.771
01/19/2022  06:10:00      -30.857        3.002      -10.874       20.835       12.206       13.224      434.102      148.993      174.882        0.092        0.038       31.002       10.345        0.111      331.161       -1.002      867.782
01/19/2022  06:11:00      -15.958        7.418       -3.048       17.887        8.541       10.623      319.948       72.943      112.859        0.041        0.025       17.598        8.664        0.242      331.016       -1.241      867.791
01/19/2022  06:12:00      -73.386       13.309      -12.171       20.214       16.990       12.829      408.609      288.665      164.588        0.329        0.043       74.584       10.140        0.018      331.026       -1.224      867.802
01/19/2022  06:13:00      -46.216       -5.996       -6.566       33.943       31.243       21.950     1152.130      976.149      481.806        0.241        0.131       46.603       14.187        0.093      330.939       -1.367      867.816
01/19/2022  06:14:00      -28.415       -2.785       -3.026       35.847       21.217       19.328     1284.981      450.149      373.564        0.147        0.105       28.551       14.295        0.251      330.963       -1.328      867.829
01/19/2022  06:15:00      -25.056        7.195        3.446       30.700       26.060       18.176      942.505      679.138      330.375        0.132        0.098       26.068       13.368        0.263      331.037       -1.207      867.838
01/19/2022  06:16:00      -43.650       20.197       -2.427       34.886       18.073       14.829     1217.007      326.616      219.907        0.204        0.088       48.097       17.750        0.136      330.907       -1.419      867.846
01/19/2022  06:17:00      -68.347       25.074       -5.556       24.739       24.130       16.111      612.039      582.245      259.557        0.339        0.073       72.801       14.704        0.041      330.814       -1.572      867.862
01/19/2022  06:18:00      -40.332        5.876       -0.116       31.011       17.676       16.652      961.677      312.424      277.286        0.161        0.078       40.758       17.277        0.180      330.987       -1.289      867.872
01/19/2022  06:19:00      -21.312       -5.594        1.000       24.501       19.971       12.655      600.312      398.822      160.145        0.082        0.058       22.034       11.465        0.271      331.069       -1.154      867.898
01/19/2022  06:20:00      -59.180       -2.489       -5.269       39.232       22.148       19.213     1539.174      490.531      369.134        0.297        0.120       59.233       16.663        0.079      331.012       -1.247      867.930
01/19/2022  06:21:00      -43.223       -0.680       -0.224       37.736       28.118       24.979     1424.013      790.634      623.962        0.235        0.142       43.228       22.293        0.266      330.923       -1.394      867.959
01/19/2022  06:22:00      -50.319        9.352        4.510       41.827       32.502       21.137     1749.460     1056.368      446.791        0.295        0.163       51.180       17.981        0.123      330.866       -1.487      867.983
01/19/2022  06:23:00      -36.233       -4.040       -0.345       45.433       27.318       21.950     2064.201      746.279      481.809        0.231        0.165       36.458       19.805        0.295      330.876       -1.471      867.983
01/19/2022  06:24:00      -49.801       -8.698        4.676       39.880       25.296       20.972     1590.452      639.866      439.805        0.262        0.134       50.555       19.377        0.147      330.951       -1.348      867.975
01/19/2022  06:25:00      -53.965       -0.396        2.926       46.078       28.312       27.804     2123.222      801.551      773.068        0.331        0.185       53.966       24.231        0.202      330.980       -1.300      867.969
01/19/2022  06:26:00      -51.591        9.372       -5.288       26.775       23.640       19.253      716.926      558.869      370.667        0.221        0.082       52.435       16.162        0.095      330.998       -1.270      867.981
01/19/2022  06:27:00      -34.351       19.811        2.367       23.619       14.986       13.376      557.872      224.568      178.927        0.127        0.048       39.654       12.742        0.103      330.898       -1.434      868.004
01/19/2022  06:28:00      -22.433        6.207       -0.201       17.309       11.295       11.684      299.594      127.566      136.527        0.055        0.028       23.276        6.957        0.089      330.978       -1.303      868.029
01/19/2022  06:29:00      -58.088       20.411       -3.688       20.826       21.217       14.098      433.703      450.177      198.747        0.244        0.054       61.569        8.805        0.020      331.015       -1.243      868.049
01/19/2022  06:30:00      -29.187        8.886        1.126       29.228       16.015       13.954      854.266      256.485      194.703        0.112        0.065       30.510       12.545        0.169      331.001       -1.265      868.055
01/19/2022  06:31:00      -32.422        7.650      -12.369       23.960       12.561       12.158      574.093      157.790      147.817        0.107        0.044       33.312       10.737        0.104      331.053       -1.180      868.074
01/19/2022  06:32:00      -24.980       18.742      -10.378       11.878       12.432        7.487      141.086      154.554       56.050        0.072        0.018       31.229        4.502        0.021      330.977       -1.305      868.086
01/19/2022  06:33:00      -30.281       26.221       -5.276       22.270       13.719       12.351      495.940      188.213      152.551        0.123        0.042       40.056        3.763        0.009      330.961       -1.331      868.098
01/19/2022  06:34:00      -54.572       20.931      -10.683       19.851       13.940       10.058      394.064      194.328      101.157        0.211        0.034       58.448        6.895        0.014      330.945       -1.358      868.111
01/19/2022  06:35:00      -56.257       24.097       -3.361       30.027       21.861       17.544      901.597      477.883      307.782        0.272        0.084       61.200       12.189        0.040      330.849       -1.515      868.130
01/19/2022  06:36:00      -76.770       35.927      -10.216       24.418       17.833       13.293      596.238      318.012      176.706        0.419        0.055       84.761        9.205        0.012      330.863       -1.490      868.161
01/19/2022  06:37:00      -73.194       27.813       -5.949       32.473       22.282       18.294     1054.482      496.488      334.662        0.403        0.094       78.300       15.237        0.038      330.829       -1.548      868.181
01/19/2022  06:38:00     -107.093       34.762      -11.871       21.173       16.316       16.190      448.312      266.215      262.132        0.690        0.049      112.593       12.538        0.012      330.912       -1.412      868.193
01/19/2022  06:39:00     -139.149       32.573      -13.069       26.481       22.666       18.911      701.236      513.739      357.634        1.108        0.079      142.911        9.795        0.005      330.911       -1.413      868.207
01/19/2022  06:40:00     -114.508       28.437      -10.036       40.783       25.745       21.870     1663.244      662.826      478.275        0.841        0.140      117.986       21.632        0.034      330.812       -1.574      868.212
01/19/2022  06:41:00      -98.685       23.287       -7.813       40.475       31.411       25.221     1638.229      986.671      636.100        0.680        0.163      101.395       20.503        0.041      330.768       -1.648      868.230
01/19/2022  06:42:00      -76.811       34.090       -5.883       43.927       29.150       23.286     1929.569      849.701      542.221        0.521        0.166       84.036       24.565        0.085      330.690       -1.776      868.241
01/19/2022  06:43:00      -74.316       24.447       -1.294       47.285       37.823       26.444     2235.883     1430.579      699.286        0.524        0.218       78.234       28.750        0.135      330.707       -1.748      868.242
01/19/2022  06:44:00      -59.219        7.589      -10.541       26.657       30.707       16.346      710.605      942.921      267.191        0.280        0.096       59.704       10.679        0.032      330.797       -1.600      868.238
01/19/2022  06:45:00      -53.395        4.207      -11.073       55.117       15.592       13.545     3037.872      243.096      183.454        0.323        0.173       53.560       11.933        0.050      330.990       -1.284      868.232
01/19/2022  06:46:00      -83.909        7.388      -11.979       32.491       23.700       21.627     1055.647      561.675      467.736        0.466        0.104       84.233        5.379        0.004      330.958       -1.337      868.222
01/19/2022  06:47:00      -50.805        3.294       -6.827       30.565       19.705       15.670      934.239      388.301      245.551        0.210        0.078       50.912        7.271        0.020      330.902       -1.427      868.218
01/19/2022  06:48:00      -44.016        0.518       -5.223       32.554       16.542       15.326     1059.732      273.646      234.894        0.177        0.078       44.019       15.258        0.120      330.963       -1.328      868.234
01/19/2022  06:49:00      -35.036       -1.220       -2.881       40.965       22.173       17.020     1678.144      491.648      289.697        0.185        0.123       35.057       15.062        0.185      330.977       -1.305      868.248
01/19/2022  06:50:00      -70.209       10.477       -6.122       36.089       21.861       20.086     1302.413      477.904      403.445        0.363        0.109       70.986       16.113        0.052      330.981       -1.299      868.273
01/19/2022  06:51:00      -56.691       15.344       -2.315       26.582       18.153       15.200      706.591      329.534      231.031        0.236        0.063       58.730        3.436        0.003      330.923       -1.393      868.292
01/19/2022  06:52:00      -81.550       31.244        0.142       30.519       25.069       14.866      931.391      628.439      220.995        0.470        0.089       87.330       13.838        0.025      330.756       -1.666      868.320
01/19/2022  06:53:00     -127.801       33.208      -15.147       26.879       21.770       18.230      722.491      473.935      332.342        0.960        0.076      132.045        6.805        0.003      330.822       -1.559      868.338
01/19/2022  06:54:00      -97.796       17.451       -5.129       32.081       26.751       20.969     1029.184      715.620      439.688        0.604        0.109       99.340       14.395        0.021      330.806       -1.584      868.331
01/19/2022  06:55:00      -54.786        6.223        4.128       45.627       22.899       19.213     2081.792      524.362      369.151        0.302        0.149       55.138       10.300        0.035      330.861       -1.496      868.335
01/19/2022  06:56:00     -105.586       21.780       -5.406       29.583       24.149       17.980      875.141      583.196      323.278        0.672        0.089      107.809       16.197        0.023      330.872       -1.477      868.367
01/19/2022  06:57:00      -86.277       14.066        2.933       44.809       22.026       20.328     2007.802      485.136      413.220        0.528        0.145       87.416       20.050        0.053      330.829       -1.549      868.411
01/19/2022  06:58:00      -75.669       10.712        1.850       35.530       25.328       21.708     1262.383      641.531      471.246        0.411        0.119       76.423       18.027        0.056      330.748       -1.680      868.457
01/19/2022  06:59:00     -117.981       29.912       -5.593       36.846       22.062       21.486     1357.637      486.721      461.660        0.858        0.115      121.714       17.158        0.020      330.702       -1.754      868.473
01/19/2022  07:00:00      -96.307       15.056       -3.398       44.987       31.183       27.284     2023.850      972.351      744.444        0.663        0.187       97.477       25.865        0.070      330.768       -1.647      868.463
01/19/2022  07:01:00      -56.386       25.517       10.685       62.712       29.619       27.891     3932.775      877.299      777.913        0.477        0.279       61.891       30.558        0.244      330.789       -1.614      868.443
01/19/2022  07:02:00     -122.353       20.593        2.505       42.594       37.558       27.596     1814.257     1410.626      761.515        0.969        0.199      124.074       20.253        0.027      330.913       -1.410      868.435
01/19/2022  07:03:00     -124.672       33.214        5.453       54.379       30.496       21.871     2957.092      930.023      478.335        1.052        0.218      129.021       20.979        0.026      330.935       -1.375      868.463
01/19/2022  07:04:00      -95.874        7.271        0.738       36.201       30.614       23.402     1310.497      937.191      547.670        0.602        0.140       96.149       17.342        0.033      330.983       -1.295      868.521
01/19/2022  07:05:00      -81.749       13.751       -3.268       33.276       24.310       17.685     1107.282      590.967      312.775        0.445        0.101       82.897       15.852        0.037      331.033       -1.213      868.549
01/19/2022  07:06:00     -106.294       30.021      -10.523       17.969       18.712       13.152      322.879      350.147      172.986        0.658        0.042      110.452        5.283        0.002      331.110       -1.086      868.563
01/19/2022  07:07:00      -92.759       22.818       -9.741       22.448       19.257       22.760      503.897      370.816      518.008        0.531        0.070       95.525       15.913        0.028      331.028       -1.220      868.555
01/19/2022  07:08:00      -97.933       14.786       -6.101       27.631       22.066       19.188      763.458      486.892      368.183        0.573        0.081       99.043       15.352        0.024      331.011       -1.250      868.542
01/19/2022  07:09:00      -48.426       12.087       -1.795       28.821       18.045       15.147      830.670      325.606      229.421        0.194        0.069       49.912       14.207        0.081      331.041       -1.201      868.529
01/19/2022  07:10:00      -32.288        7.055       -2.554       21.050       10.339        9.813      443.092      106.894       96.294        0.087        0.032       33.050        5.602        0.029      331.128       -1.056      868.512
01/19/2022  07:11:00      -61.636        4.159       -7.360       25.058       18.943       14.692      627.900      358.829      215.845        0.254        0.060       61.776       14.856        0.058      331.245       -0.863      868.526
01/19/2022  07:12:00      -46.275       -0.155       -7.028       25.634       16.259       13.660      657.119      264.370      186.603        0.165        0.055       46.275       15.331        0.110      331.311       -0.756      868.565
01/19/2022  07:13:00      -15.786       -2.091       -6.646       23.452       11.523       12.250      550.000      132.782      150.074        0.057        0.042       15.923        6.514        0.167      331.200       -0.938      868.591
01/19/2022  07:14:00      -16.896        3.790       -2.013       17.023       19.036       13.249      289.772      362.376      175.530        0.057        0.041       17.315       10.296        0.354      331.115       -1.078      868.615
01/19/2022  07:15:00      -13.113       -0.756       -2.115       18.897       14.883        9.145      357.101      221.496       83.626        0.042        0.033       13.135        9.410        0.513      331.121       -1.068      868.617
01/19/2022  07:16:00       -9.014        2.887       -5.473       11.936       12.143        8.059      142.468      147.457       64.949        0.024        0.018        9.465        4.076        0.185      331.039       -1.204      868.619
01/19/2022  07:17:00      -53.985       15.519      -16.424       17.132       14.373       14.517      293.501      206.574      210.738        0.207        0.036       56.172       10.780        0.037      330.980       -1.301      868.623
01/19/2022  07:18:00      -74.338       16.907      -11.251       21.908       16.488       12.630      479.961      271.854      159.516        0.342        0.046       76.236        4.909        0.004      330.873       -1.473      868.634
01/19/2022  07:19:00      -77.732       25.845       -8.307       22.676       18.251       13.324      514.219      333.100      177.542        0.390        0.051       81.916        9.111        0.012      330.763       -1.655      868.643
01/19/2022  07:20:00      -80.346       23.622      -14.105       15.004       12.979        9.429      225.112      168.464       88.903        0.385        0.024       83.747        6.095        0.005      330.801       -1.594      868.637
01/19/2022  07:21:00      -78.121       26.132      -12.392       16.350       19.673       11.512      267.325      387.038      132.523        0.386        0.039       82.376        4.799        0.003      330.860       -1.498      868.642
01/19/2022  07:22:00      -62.615       14.794       -2.028       27.109       19.938       16.453      734.915      397.507      270.700        0.277        0.070       64.339       14.732        0.052      330.826       -1.552      868.647
01/19/2022  07:23:00      -65.867       11.745      -11.359       27.870       14.847       12.710      776.734      220.434      161.555        0.288        0.058       66.906       11.845        0.031      330.888       -1.453      868.650
01/19/2022  07:24:00      -31.275        4.589       -8.155       32.036       18.228       13.943     1026.320      332.273      194.421        0.131        0.078       31.610       10.757        0.116      331.012       -1.248      868.646
01/19/2022  07:25:00      -16.845       -4.886       -2.941       22.490       13.312       17.029      505.800      177.198      290.003        0.064        0.049       17.540       10.442        0.354      330.989       -1.286      868.649
01/19/2022  07:26:00      -25.549       -5.744       -1.116       16.188       14.529        9.310      262.057      211.101       86.669        0.062        0.028       26.186        7.051        0.072      331.028       -1.223      868.653
01/19/2022  07:27:00       -1.303       12.919      -12.944        8.797        9.601        7.960       77.390       92.177       63.364        0.028        0.012       12.984        5.232        0.162      330.923       -1.396      868.662
01/19/2022  07:28:00       -7.959        8.100       -6.549        8.996        8.861        7.270       80.921       78.522       52.846        0.019        0.011       11.356        4.772        0.177      330.980       -1.302      868.677
01/19/2022  07:29:00       36.390        9.071       -9.225       19.337        7.740        8.297      373.938       59.904       68.846        0.100        0.025       37.503       10.094        0.072      330.940       -1.365      868.696
01/19/2022  07:30:00       63.809       10.338      -17.507       15.859       16.981       11.084      251.499      288.358      122.851        0.257        0.033       64.641        5.640        0.008      330.781       -1.625      868.709
01/19/2022  07:31:00       38.500      -10.362       -0.374       30.383       26.300       18.762      923.117      691.680      351.998        0.178        0.098       39.870       13.212        0.110      330.825       -1.555      868.715
01/19/2022  07:32:00       43.976       16.357        4.087       38.349       25.686       18.146     1470.654      659.748      329.280        0.234        0.123       46.919       17.636        0.141      330.548       -2.009      868.717
01/19/2022  07:33:00       56.546        6.988       -6.136       25.818       13.131       13.021      666.565      172.427      169.555        0.215        0.050       56.977        8.009        0.020      330.657       -1.829      868.724
01/19/2022  07:34:00       18.079       -3.805       -6.665       22.323       14.948       10.639      498.311      223.434      113.184        0.061        0.042       18.475       10.618        0.330      330.819       -1.563      868.734
01/19/2022  07:35:00       -9.570       -7.544       -4.890        9.457        8.243        7.608       89.426       67.942       57.887        0.019        0.011       12.187        4.153        0.116      330.912       -1.411      868.733
01/19/2022  07:36:00      -12.230      -17.127       -6.617       13.014       17.468       10.366      169.356      305.132      107.445        0.053        0.029       21.045        8.428        0.160      331.007       -1.256      868.741
01/19/2022  07:37:00      -21.624      -37.107      -22.998       18.883       19.401       13.631      356.569      376.389      185.805        0.165        0.046       42.948        5.254        0.015      331.061       -1.167      868.752
01/19/2022  07:38:00      -21.927      -12.401      -15.259       23.669       16.332       16.898      560.225      266.741      285.531        0.099        0.056       25.190       10.785        0.183      330.975       -1.307      868.768
01/19/2022  07:39:00       -7.547        0.046       -3.950       14.100        9.343       11.436      198.805       87.301      130.780        0.024        0.021        7.547        9.512        1.588      331.056       -1.174      868.785
01/19/2022  07:40:00       -9.969       -0.543        2.122       14.002        9.013        7.663      196.046       81.228       58.716        0.022        0.017        9.983        4.712        0.223      331.016       -1.240      868.796
01/19/2022  07:41:00       -1.927      -13.463       -3.490       10.386       10.558        8.274      107.867      111.465       68.451        0.024        0.014       13.600        7.451        0.300      331.066       -1.159      868.805
01/19/2022  07:42:00        8.491       -4.098       -4.362       12.545       11.848        5.085      157.387      140.383       25.857        0.022        0.016        9.428        6.102        0.419      331.124       -1.063      868.823
01/19/2022  07:43:00       20.349        4.485       -6.590        9.579       11.787        5.485       91.748      138.943       30.088        0.037        0.013       20.838        4.305        0.043      330.977       -1.304      868.844
01/19/2022  07:44:00        2.500        5.616       -7.824       13.280       13.613        7.667      176.346      185.310       58.777        0.026        0.021        6.147        8.101        1.737      330.962       -1.329      868.868
01/19/2022  07:45:00       -1.249       17.349       -6.438       10.603        7.970        6.538      112.430       63.528       42.740        0.028        0.011       17.394        5.740        0.109      330.969       -1.316      868.903
01/19/2022  07:46:00       -4.574       22.222       -4.930        9.695        7.634        7.189       93.989       58.278       51.679        0.037        0.010       22.688        5.139        0.051      331.000       -1.270      868.931
01/19/2022  07:47:00       10.453       14.925       -2.184        7.868       14.357        6.903       61.901      206.112       47.657        0.033        0.016       18.222        8.620        0.224      331.006       -1.257      868.953
01/19/2022  07:48:00       13.683        3.414       -8.104        7.961       10.277        5.920       63.380      105.608       35.048        0.023        0.010       14.102        4.523        0.103      331.089       -1.122      868.967
01/19/2022  07:49:00       36.217        3.468      -20.293       11.528       14.492       10.766      132.891      210.032      115.913        0.110        0.023       36.383        5.889        0.026      330.948       -1.352      868.964
01/19/2022  07:50:00       20.950       13.173       -2.096       11.575       16.055        7.941      133.987      257.769       63.063        0.054        0.023       24.747        4.647        0.035      330.918       -1.403      868.956
01/19/2022  07:51:00       25.878       21.568       -7.437       22.129       11.338       10.944      489.691      128.541      119.766        0.096        0.037       33.688        4.674        0.019      330.894       -1.441      868.953
01/19/2022  07:52:00       19.933       39.744       -0.124       10.692       10.705        8.533      114.309      114.605       72.815        0.114        0.015       44.462        7.703        0.030      330.843       -1.523      868.948
01/19/2022  07:53:00        9.950       -3.670       -7.173       10.354       18.702        8.633      107.199      349.767       74.521        0.035        0.027       10.606       10.080        0.903      330.932       -1.378      868.954
01/19/2022  07:54:00       37.136       -8.241       -5.141        9.410       18.576       12.502       88.542      345.064      156.306        0.103        0.029       38.039        9.232        0.059      330.992       -1.281      868.966
01/19/2022  07:55:00       28.449       -2.212       -6.750       20.578       23.111       17.366      423.468      534.117      301.579        0.106        0.063       28.535       13.142        0.212      330.929       -1.383      868.986
01/19/2022  07:56:00       76.767       12.746      -17.244       39.387       36.192       20.385     1551.369     1309.829      415.530        0.481        0.164       77.818        5.171        0.004      330.791       -1.609      869.000
01/19/2022  07:57:00       31.431       -0.349       -7.302       50.934       40.682       25.537     2594.298     1654.998      652.118        0.297        0.245       31.433       19.785        0.396      330.850       -1.514      869.013
01/19/2022  07:58:00       10.056       19.521        7.320       20.817       23.749       17.522      433.341      564.015      307.024        0.092        0.065       21.959       13.586        0.383      330.885       -1.454      869.047
01/19/2022  07:59:00       15.737       13.650        5.569       18.673       21.026       15.468      348.699      442.079      239.274        0.075        0.052       20.832       10.058        0.233      330.887       -1.452      869.066
01/19/2022  08:00:00       32.905       13.622       -3.961       23.586       29.835       22.883      556.288      890.141      523.614        0.163        0.099       35.613        7.914        0.049      330.846       -1.520      869.090
01/19/2022  08:01:00       52.496       29.120      -15.037       20.320       19.128       12.601      412.893      365.869      158.786        0.238        0.047       60.032        5.732        0.009      330.753       -1.673      869.122
01/19/2022  08:02:00       20.662      -12.503       -9.201       26.671       22.860       13.259      711.343      522.568      175.789        0.104        0.070       24.150        5.564        0.053      331.021       -1.233      869.140
01/19/2022  08:03:00       13.050        6.598      -16.841       19.009       19.258       12.616      361.351      370.858      159.166        0.069        0.045       14.623        5.881        0.162      330.976       -1.306      869.147
01/19/2022  08:04:00        9.749       25.492        0.223       14.234       15.767       13.305      202.601      248.583      177.013        0.069        0.031       27.292        8.112        0.088      330.900       -1.431      869.149
01/19/2022  08:05:00       11.350       28.764        1.460       17.161       12.124        9.382      294.485      147.000       88.026        0.074        0.026       30.922        6.748        0.048      330.964       -1.327      869.149
01/19/2022  08:06:00       30.001       37.616       -8.548       16.720       11.710       12.114      279.548      137.135      146.745        0.148        0.028       48.114        8.785        0.033      330.920       -1.399      869.169
01/19/2022  08:07:00       36.874       30.471      -13.295        7.694       12.484       11.062       59.201      155.850      122.378        0.140        0.017       47.834        5.058        0.011      330.882       -1.460      869.192
01/19/2022  08:08:00       55.884       24.361      -15.779        7.887       11.000        9.892       62.201      121.010       97.860        0.212        0.014       60.963        5.187        0.007      330.892       -1.445      869.205
01/19/2022  08:09:00       56.765       33.423      -16.237        8.977       13.216       11.790       80.594      174.674      139.013        0.250        0.020       65.873        3.801        0.003      330.926       -1.388      869.201
01/19/2022  08:10:00       67.015       43.161      -15.723       11.304       10.960       10.238      127.782      120.113      104.821        0.348        0.018       79.711        4.200        0.003      330.941       -1.365      869.194
01/19/2022  08:11:00       63.787       39.973      -23.477       15.810       15.881       10.648      249.971      252.191      113.377        0.342        0.031       75.277        4.451        0.003      331.024       -1.228      869.180
01/19/2022  08:12:00       46.495       38.212      -14.138       19.328       15.743       15.369      373.588      247.852      236.210        0.234        0.043       60.182       11.908        0.039      331.070       -1.153      869.178
01/19/2022  08:13:00       12.421       16.630       -1.256       13.402       12.257       11.824      179.609      150.227      139.801        0.045        0.023       20.756        9.621        0.215      331.079       -1.138      869.190
01/19/2022  08:14:00       35.665       39.703       -9.087       14.653       11.111        9.128      214.700      123.464       83.318        0.168        0.021       53.370        6.914        0.017      331.106       -1.092      869.204
01/19/2022  08:15:00       44.145       37.520      -17.001       10.295        7.683        8.637      105.981       59.024       74.590        0.194        0.012       57.936        6.367        0.012      330.992       -1.280      869.228
01/19/2022  08:16:00       23.420       44.154       -9.246       14.077       11.037       14.076      198.158      121.808      198.123        0.155        0.026       49.981        8.605        0.030      331.093       -1.116      869.245
01/19/2022  08:17:00        4.062       22.966        1.707       10.835       13.173       16.169      117.403      173.534      261.447        0.055        0.028       23.322       12.079        0.268      331.194       -0.947      869.261
01/19/2022  08:18:00        1.828       30.246      -12.102       20.192       10.591       12.709      407.717      112.171      161.512        0.087        0.034       30.301       10.706        0.125      331.179       -0.972      869.281
01/19/2022  08:19:00      -16.624       22.057       -1.656       11.131        9.061        8.086      123.901       82.102       65.380        0.052        0.014       27.620        5.452        0.039      331.245       -0.864      869.296
01/19/2022  08:20:00      -24.691        7.775       -4.741       12.228        8.923        6.824      149.518       79.613       46.572        0.048        0.014       25.886        4.600        0.032      331.302       -0.771      869.304
01/19/2022  08:21:00      -10.319       -4.234      -12.347       16.174        9.775       11.619      261.596       95.547      135.007        0.038        0.025       11.153        9.927        0.792      331.406       -0.600      869.315
01/19/2022  08:22:00        8.323      -32.980       -7.528       14.040       24.753       13.709      197.131      612.721      187.942        0.111        0.050       34.014        5.985        0.031      331.649       -0.200      869.330
01/19/2022  08:23:00        1.707       -0.494       -3.986        8.533       13.830        9.069       72.819      191.280       82.251        0.018        0.017        1.777        4.443        6.250      331.670       -0.164      869.343
01/19/2022  08:24:00        1.883       -0.184       -7.134       14.849       17.562       15.616      220.484      308.428      243.862        0.041        0.039        1.892       10.018       28.042      331.660       -0.181      869.352
01/19/2022  08:25:00      -13.092       -6.518      -16.990       19.335       14.985       12.251      373.846      224.545      150.090        0.063        0.037       14.625        9.441        0.417      331.568       -0.334      869.369
01/19/2022  08:26:00       -6.378       32.129       -2.698       16.254       22.376       16.989      264.204      500.707      288.637        0.107        0.053       32.756        7.941        0.059      331.480       -0.477      869.379
01/19/2022  08:27:00        8.494      -22.223      -15.723       16.858       29.241       15.604      284.188      855.052      243.492        0.110        0.069       23.791       14.346        0.364      331.648       -0.202      869.392
01/19/2022  08:28:00        2.311      -21.148       -9.755       32.539       32.463       24.634     1058.758     1053.863      606.825        0.163        0.136       21.274       17.444        0.672      331.630       -0.232      869.417
01/19/2022  08:29:00      -20.113      -11.663      -11.393       22.615       19.182       19.538      511.448      367.945      381.734        0.097        0.063       23.250       13.240        0.324      331.649       -0.200      869.431
01/19/2022  08:30:00      -20.344      -19.821      -14.832       25.044       32.513       16.896      627.199     1057.126      285.478        0.150        0.098       28.404       10.886        0.147      331.630       -0.232      869.439
01/19/2022  08:31:00       10.221      -13.590      -17.007       22.324       31.847       17.926      498.343     1014.244      321.330        0.121        0.092       17.004       13.248        0.607      331.747       -0.039      869.449
01/19/2022  08:32:00       -0.402      -10.110       -8.210       20.558       28.180       16.528      422.649      794.111      273.170        0.083        0.074       10.118        8.431        0.694      331.749       -0.034      869.472
01/19/2022  08:33:00      -37.814        3.588       -4.144       26.928       27.553       21.765      725.110      759.148      473.705        0.171        0.098       37.984       17.052        0.202      331.526       -0.402      869.481
01/19/2022  08:34:00      -30.799       29.233       -1.263       28.105       30.492       17.334      789.901      929.790      300.477        0.191        0.101       42.463       14.156        0.111      331.444       -0.538      869.492
01/19/2022  08:35:00      -18.681       44.725       -4.557       20.680       16.044       10.645      427.655      257.399      113.310        0.158        0.040       48.470        2.930        0.004      331.409       -0.593      869.498
01/19/2022  08:36:00       -1.512       25.125        2.236       12.065       13.422       13.926      145.573      180.155      193.944        0.058        0.026       25.171        9.055        0.129      331.639       -0.215      869.488
01/19/2022  08:37:00       -8.177       40.664       -1.714        9.418        8.646        9.913       88.701       74.761       98.263        0.099        0.013       41.478        5.325        0.016      331.533       -0.390      869.471
01/19/2022  08:38:00        1.333        7.210       -2.461        9.142       18.703       10.963       83.577      349.816      120.177        0.031        0.028        7.332        6.100        0.692      331.667       -0.170      869.477
01/19/2022  08:39:00      -26.070       27.636       -1.741       18.957       12.668        9.682      359.358      160.488       93.734        0.103        0.031       37.992        6.601        0.030      331.630       -0.230      869.476
01/19/2022  08:40:00       -4.096      -13.195       -1.595       25.376       18.080       14.094      643.955      326.884      198.638        0.068        0.058       13.816       10.561        0.584      331.771        0.002      869.484
01/19/2022  08:41:00       -2.203        3.474       -2.320       20.440       19.343       14.715      417.774      374.162      216.533        0.052        0.050        4.113        4.459        1.175      331.818        0.079      869.500
01/19/2022  08:42:00      -23.042      -13.739       -6.992       27.878       16.047       11.959      777.161      257.492      143.012        0.097        0.059       26.827       11.796        0.193      331.953        0.300      869.513
01/19/2022  08:43:00      -17.257      -10.822        5.649       24.099       25.157       17.028      580.774      632.887      289.958        0.097        0.075       20.369       12.128        0.355      332.066        0.487      869.529
01/19/2022  08:44:00      -58.957       -0.152      -13.427       39.602       32.013       22.439     1568.313     1024.801      503.516        0.338        0.155       58.957       17.387        0.087      331.787        0.028      869.534
01/19/2022  08:45:00      -13.176      -12.500       -2.680       28.013       23.914       18.416      784.749      571.890      339.137        0.102        0.085       18.162       14.005        0.595      332.086        0.519      869.541
01/19/2022  08:46:00      -31.560       -9.313        1.709       36.024       15.893       17.693     1297.721      252.581      313.035        0.147        0.093       32.905       19.221        0.341      332.056        0.472      869.546
01/19/2022  08:47:00      -68.488        0.525       -9.617       30.784       24.541       17.358      947.644      602.256      301.301        0.332        0.093       68.490        9.605        0.020      331.788        0.030      869.564
01/19/2022  08:48:00      -67.664        1.938       -1.053       53.210       23.464       15.130     2831.271      550.556      228.914        0.410        0.181       67.691       12.804        0.036      331.894        0.203      869.574
01/19/2022  08:49:00     -105.274      -11.828      -12.120       34.637       22.989       22.184     1199.751      528.513      492.113        0.679        0.111      105.936       18.963        0.032      331.816        0.075      869.595
01/19/2022  08:50:00      -68.337       -0.451      -10.880       40.493       15.663       17.030     1639.718      245.323      290.006        0.348        0.109       68.339       12.979        0.036      331.849        0.131      869.601
01/19/2022  08:51:00      -35.279       -3.843        0.464       23.255       25.455       14.538      540.773      647.948      211.340        0.133        0.070       35.487       11.390        0.103      331.935        0.273      869.597
01/19/2022  08:52:00      -54.914      -18.139      -16.064       30.568       23.517       25.252      934.391      553.038      637.651        0.286        0.106       57.832       18.918        0.107      331.966        0.321      869.592
01/19/2022  08:53:00      -80.825      -21.069      -16.188       27.185       26.681       20.800      739.001      711.889      432.649        0.456        0.094       83.526        9.812        0.014      331.890        0.199      869.592
01/19/2022  08:54:00      -39.271      -42.548       -8.213       22.836       35.131       12.234      521.500     1234.197      149.665        0.266        0.095       57.901       12.589        0.047      331.951        0.299      869.612
01/19/2022  08:55:00      -51.420      -18.190       -9.771       26.030       24.386       13.870      677.570      594.685      192.388        0.227        0.073       54.542        4.207        0.006      332.124        0.584      869.632
01/19/2022  08:56:00       -7.303      -24.862       -6.366       26.177       34.499       18.552      685.217     1190.163      344.184        0.147        0.111       25.912       11.934        0.212      332.450        1.120      869.645
01/19/2022  08:57:00      -11.732      -17.438      -14.912       14.825       37.432       13.700      219.790     1401.140      187.694        0.124        0.090       21.017       10.440        0.247      332.137        0.603      869.657
01/19/2022  08:58:00        1.907        3.542        4.553       18.857       26.898       16.550      355.583      723.517      273.900        0.069        0.068        4.023       11.706        8.468      332.377        0.998      869.680
01/19/2022  08:59:00       -9.278        4.040       -6.174       28.039       31.124       21.892      786.158      968.687      479.277        0.119        0.112       10.119       14.784        2.135      332.217        0.737      869.704
01/19/2022  09:00:00      -26.229      -25.799      -13.714       29.208       22.573       21.291      853.114      509.544      453.286        0.168        0.091       36.790       12.396        0.114      332.365        0.980      869.723
01/19/2022  09:01:00      -32.863       10.687       -5.166       40.521       34.028       20.386     1641.984     1157.934      415.607        0.222        0.161       34.557       24.789        0.515      332.250        0.791      869.747
01/19/2022  09:02:00      -21.727      -19.840        7.936       37.174       51.253       26.900     1381.915     2626.870      723.619        0.283        0.237       29.422       14.372        0.239      332.437        1.099      869.773
01/19/2022  09:03:00      -22.613        0.827        7.396       25.671       25.657       20.511      658.975      658.292      420.698        0.115        0.087       22.628       10.542        0.217      332.541        1.271      869.800
01/19/2022  09:04:00      -25.456       -7.335       -5.824       22.620       18.281       14.395      511.646      334.184      207.208        0.089        0.053       26.492        7.403        0.078      332.468        1.149      869.830
01/19/2022  09:05:00      -40.512      -14.910      -16.558       27.675       28.951       12.572      765.892      838.153      158.062        0.195        0.088       43.168        9.373        0.047      332.322        0.908      869.853
01/19/2022  09:06:00      -52.236       -8.126      -14.849       31.198       20.482       17.745      973.318      419.504      314.878        0.236        0.085       52.864       11.939        0.051      332.307        0.885      869.865
01/19/2022  09:07:00      -29.486        0.065      -13.786       18.801       20.479       18.238      353.478      419.377      332.609        0.108        0.055       29.486       11.029        0.140      332.532        1.255      869.889
01/19/2022  09:08:00      -43.290      -17.483      -14.725       10.953       17.055       11.023      119.971      290.875      121.517        0.146        0.027       46.687        5.748        0.015      332.286        0.849      869.893
01/19/2022  09:09:00      -33.682        7.442       -9.597       16.914       16.459       14.080      286.082      270.883      198.235        0.102        0.038       34.495       11.950        0.120      332.378        1.000      869.903
01/19/2022  09:10:00      -14.738       -8.984       -7.220       17.759       13.586       15.199      315.376      184.592      231.020        0.054        0.037       17.261       11.682        0.458      332.607        1.379      869.912
01/19/2022  09:11:00       -6.156        0.275       -7.308        8.521        7.133        8.238       72.604       50.875       67.859        0.014        0.010        6.162        5.348        0.753      332.566        1.312      869.934
01/19/2022  09:12:00      -29.151       -8.285      -15.407       15.467       13.915       12.467      239.232      193.624      155.428        0.087        0.029       30.306        6.284        0.043      332.498        1.200      869.940
01/19/2022  09:13:00      -21.924      -10.354        1.286       24.876       22.263       18.458      618.827      495.624      340.681        0.102        0.073       24.246       17.488        0.520      332.807        1.712      869.937
01/19/2022  09:14:00       -3.436      -26.753       -5.750       28.807       36.970       21.689      829.828     1366.817      470.425        0.171        0.133       26.973       12.915        0.229      332.793        1.688      869.939
01/19/2022  09:15:00      -18.015      -17.044       -9.147       27.493       22.304       16.841      755.860      497.476      283.620        0.112        0.077       24.800       12.426        0.251      332.926        1.907      869.946
01/19/2022  09:16:00      -11.871        6.000       -4.923       23.532       23.868       18.645      553.757      569.670      347.640        0.084        0.074       13.301       11.593        0.760      332.916        1.891      869.960
01/19/2022  09:17:00      -19.511       -0.055       -8.105       34.978       26.664       19.757     1223.473      710.971      390.343        0.139        0.116       19.511       14.461        0.549      332.783        1.671      869.966
01/19/2022  09:18:00        2.008       -2.847      -14.012       19.714       19.369       19.991      388.636      375.158      399.627        0.069        0.058        3.484       14.391       17.063      332.916        1.892      869.978
01/19/2022  09:19:00      -15.378       -1.074      -13.859       30.939       23.583       19.639      957.215      556.145      385.707        0.116        0.095       15.416       12.060        0.612      332.852        1.785      870.000
01/19/2022  09:20:00      -29.706        1.108       -7.811       30.387       31.569       18.833      923.344      996.593      354.671        0.161        0.114       29.726       14.012        0.222      332.836        1.758      870.019
01/19/2022  09:21:00      -25.820      -15.720      -16.805       21.795       26.560       16.432      475.037      705.446      269.995        0.132        0.073       30.229       13.175        0.190      332.917        1.892      870.043
01/19/2022  09:22:00      -25.862      -18.314      -12.186       27.986       26.083       19.255      783.239      680.348      370.758        0.149        0.092       31.690       13.159        0.172      333.071        2.147      870.064
01/19/2022  09:23:00      -46.050       16.086       -4.619       31.078       26.498       16.887      965.838      702.128      285.168        0.218        0.098       48.779        5.896        0.015      332.873        1.818      870.087
01/19/2022  09:24:00       -6.826       -5.451        3.601       28.807       23.087       19.506      829.857      533.012      380.496        0.092        0.087        8.735       14.949        2.929      333.180        2.326      870.102
01/19/2022  09:25:00      -12.747      -10.100       -2.120       23.311       12.911       16.643      543.402      166.704      276.991        0.063        0.049       16.263       11.552        0.505      333.290        2.509      870.114
01/19/2022  09:26:00      -28.473        0.397       -2.818       27.686       25.488       13.866      766.507      649.645      192.273        0.121        0.080       28.475        6.498        0.052      333.102        2.197      870.133
01/19/2022  09:27:00      -42.866        4.110      -11.796       22.000       12.056       15.457      483.979      145.359      238.906        0.143        0.043       43.063        8.091        0.035      333.079        2.160      870.145
01/19/2022  09:28:00      -49.031      -32.472       -9.128       24.731       22.430       23.484      611.610      503.095      551.505        0.260        0.083       58.809       16.178        0.076      333.003        2.034      870.163
01/19/2022  09:29:00      -54.594      -15.019       -6.895       19.703       14.861       18.168      388.212      220.850      330.067        0.210        0.047       56.622       11.609        0.042      333.087        2.174      870.197
01/19/2022  09:30:00      -21.100       -1.995       -3.301       19.144       23.356       15.303      366.485      545.484      234.185        0.080        0.057       21.194       12.621        0.355      333.328        2.570      870.227
01/19/2022  09:31:00      -20.996       -3.869      -13.620       27.522       18.467       11.566      757.466      341.039      133.776        0.094        0.062       21.349        8.033        0.142      333.162        2.297      870.244
01/19/2022  09:32:00      -39.286      -10.702       -8.426       28.530       19.503       14.836      813.962      380.358      220.115        0.157        0.071       40.718        8.784        0.047      333.338        2.588      870.257
01/19/2022  09:33:00      -40.502      -14.361        0.409       33.288       25.925       23.517     1108.058      672.112      553.064        0.209        0.117       42.972       16.204        0.142      333.432        2.744      870.259
01/19/2022  09:34:00      -38.404      -13.691       -7.688       35.457       32.958       24.413     1257.190     1086.221      596.013        0.233        0.147       40.771        9.914        0.059      333.363        2.629      870.259
01/19/2022  09:35:00      -64.068        0.385       -7.237       33.832       24.172       18.152     1144.619      584.296      329.509        0.311        0.103       64.069       14.009        0.048      333.286        2.501      870.255
01/19/2022  09:36:00      -20.228      -24.707      -12.866       30.662       48.310       21.652      940.143     2333.831      468.805        0.246        0.187       31.931       18.067        0.320      333.533        2.911      870.261
01/19/2022  09:37:00      -11.807      -30.259      -17.658       41.349       48.408       27.593     1709.767     2343.293      761.381        0.309        0.241       32.481       25.967        0.639      333.622        3.058      870.242
01/19/2022  09:38:00      -27.692        8.670       -5.590       16.879       23.659       11.630      284.915      559.738      135.257        0.093        0.049       29.018        9.978        0.118      333.511        2.875      870.233
01/19/2022  09:39:00      -20.100      -39.689      -22.575       38.374       40.603       30.793     1472.526     1648.618      948.197        0.328        0.203       44.488       21.311        0.229      333.669        3.137      870.234
01/19/2022  09:40:00      -23.615      -28.419      -16.175       31.973       30.941       25.638     1022.275      957.325      657.293        0.213        0.132       36.950       16.614        0.202      333.813        3.375      870.231
01/19/2022  09:41:00       14.340      -48.488      -14.791       61.789       52.305       30.364     3817.879     2735.785      921.958        0.512        0.374       50.564       27.995        0.307      333.791        3.340      870.230
01/19/2022  09:42:00       16.727      -48.367      -23.935       41.965       50.322       22.360     1761.072     2532.254      499.983        0.399        0.240       51.178       22.157        0.187      333.842        3.422      870.223
01/19/2022  09:43:00      -31.748       23.645       -4.488       29.033       23.394       16.968      842.902      547.286      287.914        0.163        0.084       39.585       13.103        0.110      333.709        3.203      870.232
01/19/2022  09:44:00      -30.584        1.471       -5.352       26.754       27.711       20.118      715.768      767.872      404.741        0.143        0.094       30.620       21.542        0.495      333.756        3.281      870.247
01/19/2022  09:45:00      -14.053       -7.033        0.963       26.100       19.333       18.311      681.206      373.762      335.284        0.082        0.070       15.715        8.380        0.284      333.827        3.397      870.250
01/19/2022  09:46:00      -37.901      -18.205      -19.716       32.344       34.857       30.366     1046.122     1214.996      922.077        0.267        0.159       42.046       23.228        0.305      333.783        3.325      870.253
01/19/2022  09:47:00      -43.800      -18.917      -10.032       44.029       25.593       22.335     1938.530      655.004      498.837        0.273        0.155       47.711        9.784        0.042      333.730        3.237      870.276
01/19/2022  09:48:00      -57.331      -39.510       -9.567       31.236       29.166       22.337      975.659      850.638      498.955        0.363        0.116       69.627       14.931        0.046      333.613        3.043      870.285
01/19/2022  09:49:00      -54.900      -19.416      -22.576       59.542       25.066       28.490     3545.219      628.298      811.705        0.444        0.249       58.233       29.690        0.260      333.799        3.352      870.298
01/19/2022  09:50:00      -33.110       -4.800       -4.952       31.830       23.991       23.911     1013.158      575.570      571.748        0.165        0.108       33.456       22.504        0.452      333.900        3.519      870.316
01/19/2022  09:51:00      -44.053       -7.192      -18.397       23.382       18.573       19.536      546.706      344.966      381.637        0.180        0.064       44.636       10.440        0.055      333.686        3.165      870.340
01/19/2022  09:52:00      -22.688        4.078       -4.421       37.666       47.807       26.354     1418.755     2285.492      694.557        0.247        0.220       23.052        9.499        0.170      333.643        3.094      870.356
01/19/2022  09:53:00       45.635      -62.100      -22.837       33.579       39.832       28.697     1127.557     1586.622      823.534        0.500        0.177       77.065       16.209        0.044      333.757        3.281      870.372
01/19/2022  09:54:00       72.554      -88.515      -31.279       26.365       36.520       22.936      695.090     1333.675      526.046        0.832        0.128      114.450       15.059        0.017      333.770        3.304      870.390
01/19/2022  09:55:00       -0.626      -46.874       -9.942       45.899       42.993       26.603     2106.750     1848.375      707.741        0.348        0.233       46.878       14.376        0.094      334.071        3.801      870.398
01/19/2022  09:56:00       11.150      -20.475      -16.718       55.320       46.103       27.749     3060.345     2125.520      770.018        0.339        0.298       23.315       20.376        0.764      334.105        3.858      870.399
01/19/2022  09:57:00       78.626      -92.495      -27.646       39.557       35.906       18.239     1564.732     1289.275      332.643        0.934        0.159      121.398       12.224        0.010      333.729        3.236      870.403
01/19/2022  09:58:00       67.937      -38.952      -33.641       49.493       50.721       33.011     2449.535     2572.638     1089.723        0.669        0.306       78.311       20.730        0.070      334.009        3.699      870.405
01/19/2022  09:59:00       74.281     -101.668      -41.773       28.313       41.364       21.491      801.638     1710.951      461.855        1.029        0.149      125.913       16.283        0.017      333.713        3.209      870.424
01/19/2022  10:00:00       76.175      -63.624      -35.282       28.969       39.106       23.514      839.231     1529.245      552.920        0.701        0.146       99.250       12.540        0.016      333.930        3.567      870.424
01/19/2022  10:01:00       93.699      -69.188      -30.618       32.814       36.714       21.150     1076.778     1347.950      447.322        0.869        0.144      116.476       14.331        0.015      333.898        3.515      870.430
01/19/2022  10:02:00       84.286      -54.897      -33.059       42.973       24.491       25.382     1846.663      599.809      644.233        0.715        0.155      100.587       16.082        0.026      333.900        3.518      870.433
01/19/2022  10:03:00       54.209      -47.860       -8.597       56.142       39.718       30.002     3151.946     1577.480      900.130        0.547        0.281       72.313       27.818        0.148      333.985        3.659      870.414
01/19/2022  10:04:00       16.085       -8.258        0.102       38.330       39.198       35.235     1469.161     1536.461     1241.522        0.229        0.212       18.081       20.814        1.325      334.424        4.387      870.415
01/19/2022  10:05:00       35.755       -2.580      -11.768       36.346       52.888       24.050     1321.028     2797.170      578.386        0.306        0.235       35.847       28.103        0.615      334.188        3.995      870.412
01/19/2022  10:06:00       31.323      -24.483      -10.116       33.260       55.116       30.302     1106.250     3037.784      918.185        0.337        0.253       39.756       18.980        0.228      334.334        4.238      870.404
01/19/2022  10:07:00       72.139       28.496      -16.557       44.570       51.708       33.227     1986.490     2673.689     1104.065        0.603        0.288       77.563       16.168        0.043      334.237        4.077      870.401
01/19/2022  10:08:00       38.365      -62.166      -10.542       51.719       70.872       36.849     2674.892     5022.777     1357.871        0.725        0.453       73.051       37.470        0.263      334.085        3.826      870.392
01/19/2022  10:09:00       42.390      -52.486      -33.853       36.289       32.858       26.006     1316.858     1079.619      676.303        0.438        0.154       67.466       10.487        0.024      333.979        3.651      870.389
01/19/2022  10:10:00       40.173       -9.360      -13.448       57.810       43.234       23.405     3341.970     1869.142      547.808        0.382        0.288       41.249       14.852        0.130      334.289        4.164      870.376
01/19/2022  10:11:00      133.071       33.475      -29.867       39.115       36.159       23.401     1529.976     1307.506      547.623        1.155        0.169      137.217       16.929        0.015      334.119        3.882      870.380
01/19/2022  10:12:00       71.615       40.653      -22.962       39.493       41.616       26.478     1559.684     1731.884      701.092        0.565        0.200       82.349       15.159        0.034      334.259        4.113      870.435
01/19/2022  10:13:00       17.671       -5.592        3.497       33.507       46.086       28.264     1122.711     2123.935      798.852        0.220        0.202       18.535       19.365        1.092      334.757        4.940      870.441
01/19/2022  10:14:00       25.952       -4.671       -9.354       45.508       40.273       21.604     2070.983     1621.932      466.753        0.247        0.208       26.369       20.377        0.597      334.494        4.503      870.410
01/19/2022  10:15:00       61.626      -24.691      -17.794       51.217       66.445       37.164     2623.183     4414.935     1381.152        0.657        0.421       66.388       35.182        0.281      334.424        4.388      870.390
01/19/2022  10:16:00      129.623      -27.526      -27.373       79.234       69.744       45.073     6278.017     4864.169     2031.608        1.574        0.659      132.513       37.526        0.080      334.363        4.284      870.362
01/19/2022  10:17:00      -32.014      -25.174      -28.978       51.487       36.148       33.989     2650.879     1306.648     1155.256        0.380        0.256       40.726       17.113        0.177      334.384        4.319      870.353
01/19/2022  10:18:00       58.133      -18.393       -8.239       58.902       55.838       34.870     3469.504     3117.895     1215.941        0.579        0.390       60.973       30.688        0.253      334.356        4.274      870.355
01/19/2022  10:19:00       44.592        5.118      -18.227       67.468       63.243       51.252     4551.873     3999.725     2626.765        0.676        0.559       44.885       42.441        0.894      334.524        4.553      870.359
01/19/2022  10:20:00      115.720      -34.015      -58.806       70.512       69.288       42.038     4971.986     4800.823     1767.189        1.477        0.577      120.616       27.341        0.051      334.471        4.465      870.368
01/19/2022  10:21:00       39.625      -15.646      -12.324       41.951       40.285       41.345     1759.885     1622.912     1709.418        0.353        0.255       42.602       32.302        0.575      334.579        4.644      870.379
01/19/2022  10:22:00       43.186       -5.958       -5.990       52.183       59.840       25.091     2723.031     3580.865      629.546        0.443        0.347       43.595       30.382        0.486      334.523        4.552      870.370
01/19/2022  10:23:00       64.441        5.363      -21.153       59.846       86.888       38.994     3581.568     7549.565     1520.512        0.864        0.633       64.663       22.874        0.125      334.516        4.539      870.342
01/19/2022  10:24:00      104.546      -38.438      -25.584       62.129       52.438       52.395     3859.978     2749.721     2745.230        1.121        0.468      111.388       43.063        0.149      334.226        4.059      870.317
01/19/2022  10:25:00       84.159      -54.219      -41.583       50.900       58.033       32.148     2590.852     3367.843     1033.515        0.937        0.350      100.112       29.971        0.090      334.423        4.385      870.293
01/19/2022  10:26:00       50.236       23.729      -13.711       67.643       63.292       41.608     4575.523     4005.838     1731.244        0.679        0.516       55.558       21.627        0.152      334.608        4.692      870.291
01/19/2022  10:27:00       86.816       -7.670      -18.945       57.513       48.546       35.428     3307.773     2356.757     1255.166        0.744        0.346       87.154       26.099        0.090      334.401        4.349      870.298
01/19/2022  10:28:00       93.227        0.469      -17.802       48.123       44.452       35.079     2315.843     1975.972     1230.526        0.726        0.276       93.229       28.866        0.096      334.391        4.333      870.311
01/19/2022  10:29:00       74.461      -94.480      -46.695       36.398       76.110       28.794     1324.850     5792.745      829.070        1.230        0.397      120.295       21.990        0.033      334.449        4.429      870.317
01/19/2022  10:30:00       74.631      -96.946      -25.815       41.984       48.551       30.923     1762.651     2357.183      956.207        1.035        0.254      122.345       22.296        0.033      334.391        4.332      870.325
01/19/2022  10:31:00       70.828      -75.200      -32.615       40.259       50.764       21.311     1620.803     2577.020      454.160        0.819        0.233      103.304       20.937        0.041      334.322        4.218      870.324
01/19/2022  10:32:00       60.876      -74.557      -23.281       25.125       51.222       14.130      631.247     2623.722      199.649        0.663        0.173       96.253       20.117        0.044      334.177        3.978      870.318
01/19/2022  10:33:00       61.972      -30.910      -25.349       40.916       34.251       35.163     1674.084     1173.135     1236.434        0.476        0.204       69.253       21.634        0.098      334.686        4.822      870.318
01/19/2022  10:34:00       42.105       49.294       -4.472       25.347       48.851       20.810      642.463     2386.445      433.073        0.384        0.173       64.829       13.578        0.044      334.345        4.257      870.319
01/19/2022  10:35:00      104.447       44.523      -18.665       55.034       40.331       24.792     3028.787     1626.568      614.660        0.925        0.264      113.541       10.725        0.009      334.498        4.510      870.313
01/19/2022  10:36:00       43.301        5.698       -7.501       47.902       51.011       30.442     2294.636     2602.147      926.698        0.389        0.291       43.675       16.761        0.147      334.923        5.216      870.311
01/19/2022  10:37:00       32.100      -36.133      -18.904       38.004       45.690       31.875     1444.321     2087.572     1015.990        0.362        0.227       48.332       11.282        0.054      334.833        5.066      870.307
01/19/2022  10:38:00       89.848      -65.946      -25.634       39.676       48.008       20.868     1574.201     2304.808      435.456        0.870        0.216      111.452       16.464        0.022      334.375        4.306      870.307
01/19/2022  10:39:00       90.449      -55.442      -24.568       43.856       29.851       23.260     1923.372      891.083      541.028        0.761        0.168      106.089       15.247        0.021      334.450        4.429      870.300
01/19/2022  10:40:00      -24.093       -9.206      -30.223       31.355       22.426       21.457      983.157      502.908      460.398        0.176        0.097       25.792        8.194        0.101      334.687        4.823      870.291
01/19/2022  10:41:00       16.519      -28.077      -13.064       28.454       40.807       34.889      809.650     1665.196     1217.233        0.246        0.185       32.576       23.807        0.534      335.075        5.468      870.295
01/19/2022  10:42:00       14.792      -30.637        3.702       40.689       44.853       38.380     1655.564     2011.809     1473.062        0.315        0.257       34.021       25.438        0.559      335.109        5.524      870.290
01/19/2022  10:43:00      -25.727        5.601      -11.866       60.420       41.757       32.406     3650.535     1743.646     1050.145        0.364        0.322       26.330       18.353        0.486      334.811        5.031      870.270
01/19/2022  10:44:00       79.770      -65.553      -38.047       51.872       55.032       34.037     2690.707     3028.522     1158.527        0.949        0.344      103.249       29.294        0.080      334.401        4.349      870.272
01/19/2022  10:45:00      131.697      -95.996      -32.857       43.819       37.425       26.635     1920.071     1400.621      709.443        1.583        0.202      162.970       22.367        0.019      334.278        4.144      870.273
01/19/2022  10:46:00       89.734      -34.452      -29.280       54.172       46.566       41.645     2934.609     2168.394     1734.334        0.847        0.342       96.120       20.588        0.046      334.689        4.829      870.285
01/19/2022  10:47:00       92.107       23.584      -21.895       54.805       76.047       41.648     3003.641     5783.222     1734.559        1.002        0.526       95.079        9.525        0.010      334.662        4.783      870.277
01/19/2022  10:48:00       64.196      -21.305      -37.784       33.266       48.133       33.093     1106.596     2316.772     1095.173        0.526        0.226       67.639       18.220        0.073      334.762        4.948      870.276
01/19/2022  10:49:00       40.187      -40.406      -20.834       33.921       66.373       39.655     1150.612     4405.415     1572.505        0.540        0.356       56.988       33.325        0.342      334.843        5.082      870.277
01/19/2022  10:50:00       87.917      -63.592      -41.192       27.110       43.728       26.408      734.949     1912.150      697.369        0.841        0.167      108.505       16.184        0.022      334.480        4.481      870.284
01/19/2022  10:51:00       57.262      -29.780      -13.546       55.765       26.731       30.996     3109.764      714.520      960.749        0.457        0.239       64.543       34.151        0.280      334.610        4.696      870.275
01/19/2022  10:52:00       50.872       35.395      -26.024       25.322       34.848       24.915      641.214     1214.352      620.760        0.350        0.124       61.974       11.957        0.037      334.791        4.996      870.281
01/19/2022  10:53:00       42.824       26.006      -11.788       41.296       49.755       21.662     1705.375     2475.603      469.255        0.365        0.233       50.102       23.421        0.219      334.748        4.926      870.271
01/19/2022  10:54:00      -17.334      -20.401      -23.286       35.951       43.657       23.318     1292.453     1905.951      543.708        0.250        0.187       26.771       21.549        0.648      335.033        5.400      870.243
01/19/2022  10:55:00       35.276       15.914      -10.486       49.057       42.426       21.317     2406.636     1799.963      454.395        0.313        0.233       38.699       17.904        0.214      335.021        5.378      870.221
01/19/2022  10:56:00      103.099       23.874      -26.334       43.777       56.953       30.077     1916.390     3243.608      904.629        0.898        0.303      105.827       14.552        0.019      334.993        5.332      870.186
01/19/2022  10:57:00       44.944        7.438      -16.600       49.250       54.926       36.443     2425.537     3016.905     1328.091        0.456        0.339       45.555       18.585        0.166      335.341        5.911      870.147
01/19/2022  10:58:00      -27.030      -11.213      -19.451       45.600       32.665       26.294     2079.388     1066.972      691.355        0.254        0.192       29.263       17.578        0.361      335.204        5.683      870.115
01/19/2022  10:59:00       23.352      -80.979      -21.747       56.626       56.001       39.043     3206.543     3136.153     1524.325        0.772        0.393       84.279       32.018        0.144      335.244        5.748      870.098
01/19/2022  11:00:00      108.460     -137.158      -46.460       24.499       37.883       12.572      600.203     1435.086      158.051        1.746        0.110      174.859        6.632        0.001      334.389        4.329      870.079
01/19/2022  11:01:00       68.003     -139.351      -29.512       41.553       69.424       30.389     1726.685     4819.670      923.462        1.619        0.373      155.058       28.184        0.033      334.715        4.868      870.055
01/19/2022  11:02:00       74.542     -136.720      -39.894       45.641       41.079       35.124     2083.067     1687.491     1233.707        1.542        0.250      155.720       20.640        0.018      334.765        4.953      870.025
01/19/2022  11:03:00       35.282      -98.864      -49.893       64.389       53.345       36.446     4145.978     2845.710     1328.308        1.091        0.416      104.971       20.868        0.040      334.878        5.142      870.005
01/19/2022  11:04:00      -24.052      -33.806      -28.094       32.255       44.389       26.514     1040.415     1970.410      702.967        0.311        0.186       41.489       26.866        0.419      335.192        5.663      869.987
01/19/2022  11:05:00       40.131      -65.127      -31.276       56.603       48.273       22.811     3203.935     2330.295      520.319        0.644        0.303       76.498       21.243        0.077      334.951        5.263      869.984
01/19/2022  11:06:00       47.517      -36.457      -26.662       24.518       35.749       23.040      601.137     1277.987      530.837        0.335        0.120       59.891        9.889        0.027      335.212        5.698      869.975
01/19/2022  11:07:00       29.601      -57.561      -21.204       27.752       23.226       20.202      770.160      539.432      408.111        0.318        0.086       64.727       12.259        0.036      334.981        5.314      869.953
01/19/2022  11:08:00      -26.827      -11.215        5.750       23.820       21.120       16.799      567.390      446.066      282.212        0.109        0.065       29.077       10.095        0.121      335.330        5.894      869.923
01/19/2022  11:09:00       11.335      -18.614      -16.084       28.635       36.546       20.838      819.955     1335.612      434.220        0.166        0.129       21.794       13.024        0.357      335.345        5.915      869.895
01/19/2022  11:10:00       37.650      -39.946      -21.474       43.644       41.813       25.694     1904.757     1748.350      660.163        0.389        0.216       54.893       18.003        0.108      335.367        5.953      869.874
01/19/2022  11:11:00       16.965      -60.949      -29.637       65.092       43.163       34.376     4236.909     1863.017     1181.686        0.608        0.364       63.266       32.482        0.264      335.240        5.742      869.855
01/19/2022  11:12:00       34.210      -80.680      -35.860       40.143       67.883       32.236     1611.421     4608.129     1039.146        0.811        0.363       87.633       18.756        0.046      335.181        5.646      869.846
01/19/2022  11:13:00       73.341        0.606      -10.831       75.410       65.054       35.205     5686.690     4231.983     1239.373        0.833        0.558       73.343       16.818        0.053      335.117        5.540      869.837
01/19/2022  11:14:00       66.609       25.990       -4.588       46.533       53.447       29.864     2165.280     2856.561      891.852        0.552        0.296       71.500       15.111        0.045      335.217        5.703      869.851
01/19/2022  11:15:00      125.872       64.620      -28.315       27.138       28.731       17.598      736.462      825.490      309.680        1.135        0.094      141.490       12.497        0.008      334.819        5.045      869.848
01/19/2022  11:16:00       72.454       57.622      -20.857       40.903       24.648       25.364     1673.032      607.518      643.324        0.596        0.146       92.574       21.308        0.053      335.120        5.544      869.855
01/19/2022  11:17:00       85.326       58.462      -21.097       27.192       24.947       21.779      739.386      622.339      474.335        0.649        0.092      103.433       11.059        0.011      335.009        5.358      869.856
01/19/2022  11:18:00       91.702       53.450      -14.344       29.245       31.439       22.884      855.290      988.416      523.658        0.692        0.118      106.142        7.529        0.005      335.224        5.717      869.856
01/19/2022  11:19:00       97.126       85.819      -19.506       41.096       28.326       29.835     1688.901      802.337      890.099        1.028        0.169      129.608       12.154        0.009      335.330        5.893      869.864
01/19/2022  11:20:00      112.351       82.868      -12.697       54.191       33.937       27.682     2936.680     1151.731      766.300        1.225        0.243      139.606       20.276        0.021      335.460        6.109      869.866
01/19/2022  11:21:00      147.276       67.382      -22.998       23.016       26.223       23.706      529.748      687.671      561.971        1.427        0.089      161.958        9.689        0.004      334.827        5.057      869.859
01/19/2022  11:22:00       78.385       37.761      -13.973       42.425       32.131       23.443     1799.911     1032.378      549.556        0.557        0.169       87.007       19.189        0.049      335.255        5.767      869.856
01/19/2022  11:23:00       80.955       69.674      -23.884       30.267       22.367       23.665      916.100      500.282      560.045        0.698        0.099      106.809       13.439        0.016      335.074        5.467      869.842
01/19/2022  11:24:00       41.059       48.983      -14.588       44.942       20.937       32.136     2019.769      438.362     1032.717        0.389        0.175       63.916       30.046        0.221      335.483        6.147      869.841
01/19/2022  11:25:00        8.689       46.805      -13.222       16.433       15.242       14.891      270.041      232.307      221.739        0.158        0.036       47.605        3.851        0.007      335.341        5.910      869.848
01/19/2022  11:26:00       42.715      -27.876      -22.251       43.228       87.852       29.496     1868.669     7717.947      870.001        0.677        0.523       51.006       28.320        0.308      335.415        6.033      869.845
01/19/2022  11:27:00       79.374     -136.223      -32.726       41.062       38.073       23.255     1686.106     1449.554      540.813        1.480        0.184      157.661       14.572        0.009      335.130        5.559      869.825
01/19/2022  11:28:00       82.907      -67.899      -35.600       31.617       54.487       26.765      999.604     2968.787      716.390        0.872        0.234      107.163       21.837        0.042      335.326        5.887      869.821
01/19/2022  11:29:00       64.780       12.616      -20.419       39.166       41.221       20.901     1534.010     1699.153      436.868        0.422        0.184       65.997       13.103        0.039      335.715        6.533      869.818
01/19/2022  11:30:00       50.451      -10.024      -21.748       44.837       62.029       29.222     2010.352     3847.563      853.943        0.491        0.336       51.437       29.624        0.332      335.773        6.629      869.812
01/19/2022  11:31:00       48.717       76.750       -8.828       39.816       31.447       25.528     1585.317      988.938      651.680        0.578        0.161       90.905       21.976        0.058      335.821        6.710      869.821
01/19/2022  11:32:00       10.373      -19.455      -10.473       28.784       85.098       26.597      828.532     7241.717      707.411        0.469        0.439       22.047       33.147        2.260      335.577        6.303      869.813
01/19/2022  11:33:00       47.155       20.529       -8.759       57.460       42.595       19.114     3301.659     1814.340      365.333        0.410        0.274       51.430       17.005        0.109      335.756        6.601      869.811
01/19/2022  11:34:00      136.949       72.720      -39.706       30.259       32.118       24.167      915.629     1031.586      584.068        1.408        0.127      155.059        6.292        0.002      335.381        5.977      869.805
01/19/2022  11:35:00      113.496       88.361      -19.194       50.322       34.699       24.518     2532.281     1204.052      601.122        1.270        0.217      143.837        9.795        0.005      335.493        6.163      869.804
01/19/2022  11:36:00      121.279       77.666      -24.852       48.854       36.651       23.769     2386.735     1343.331      564.967        1.283        0.215      144.016        9.628        0.004      335.416        6.035      869.813
01/19/2022  11:37:00       56.089       57.051      -25.726       35.340       39.092       24.957     1248.908     1528.208      622.849        0.523        0.170       80.005       20.495        0.066      335.339        5.908      869.819
01/19/2022  11:38:00       26.942       61.359      -23.778       42.413       20.042       25.409     1798.859      401.692      645.623        0.395        0.142       67.013       24.691        0.136      335.424        6.048      869.813
01/19/2022  11:39:00       28.277       43.444      -11.789       40.765       45.637       23.437     1661.780     2082.758      549.288        0.356        0.215       51.836       17.378        0.112      335.949        6.923      869.805
01/19/2022  11:40:00       41.372      -48.353      -26.502       77.024       57.067       31.880     5932.733     3256.617     1016.334        0.748        0.510       63.637       35.682        0.314      335.752        6.595      869.785
01/19/2022  11:41:00      130.890      -71.587      -44.247       31.043       37.242       23.260      963.686     1386.934      541.044        1.355        0.145      149.188       14.992        0.010      335.317        5.870      869.788
01/19/2022  11:42:00      115.747      -37.292      -35.649       49.312       45.770       33.265     2431.660     2094.853     1106.582        1.084        0.282      121.606       17.751        0.021      335.569        6.290      869.789
01/19/2022  11:43:00       97.369      -46.632      -28.063       40.091       39.668       18.896     1607.316     1573.512      357.077        0.799        0.177      107.959       15.313        0.020      335.271        5.792      869.795
01/19/2022  11:44:00       68.776      -28.330      -10.816       34.574       39.667       27.586     1195.346     1573.471      760.990        0.459        0.176       74.382       21.444        0.083      335.647        6.420      869.795
01/19/2022  11:45:00       91.301      -48.297      -37.146       44.699       55.921       34.374     1997.971     3127.212     1181.578        0.918        0.315      103.288       23.603        0.052      335.634        6.398      869.791
01/19/2022  11:46:00       87.559      -98.711      -51.072       44.775       45.626       31.851     2004.805     2081.771     1014.502        1.256        0.255      131.949       14.233        0.012      335.629        6.389      869.786
01/19/2022  11:47:00       57.585      -96.265      -32.265       33.997       32.722       26.111     1155.769     1070.706      681.773        0.827        0.145      112.174       19.541        0.030      335.518        6.205      869.780
01/19/2022  11:48:00       87.758      -69.727      -40.615       28.455       38.662       24.809      809.676     1494.732      615.473        0.857        0.146      112.086       19.080        0.029      335.651        6.428      869.771
01/19/2022  11:49:00       33.524      -97.566      -23.345       46.168       49.482       33.870     2131.514     2448.511     1147.205        0.846        0.286      103.165       26.995        0.068      335.830        6.725      869.759
01/19/2022  11:50:00       56.834     -116.644      -26.191       40.530       44.897       30.253     1642.670     2015.784      915.236        1.105        0.229      129.754       30.115        0.054      335.734        6.563      869.750
01/19/2022  11:51:00       49.499      -84.758      -26.620       37.299       33.875       24.594     1391.192     1147.516      604.856        0.674        0.157       98.153       15.435        0.025      335.800        6.673      869.748
01/19/2022  11:52:00       12.083      -94.316      -20.040       36.863       36.613       25.285     1358.855     1340.500      639.349        0.639        0.167       95.087       16.547        0.030      335.865        6.784      869.735
01/19/2022  11:53:00       31.713      -43.135      -13.393       56.542       40.271       32.149     3197.050     1621.786     1033.540        0.445        0.293       53.539       22.634        0.179      336.146        7.252      869.726
01/19/2022  11:54:00       65.395      -24.491      -20.575       66.902       56.879       42.846     4475.903     3235.203     1835.818        0.742        0.477       69.830       40.657        0.339      336.030        7.058      869.719
01/19/2022  11:55:00      113.544      -19.877      -17.961       65.171       53.706       34.953     4247.263     2884.355     1221.746        1.098        0.418      115.271       35.255        0.094      335.863        6.781      869.702
01/19/2022  11:56:00       64.972       18.412      -15.752       67.178       31.077       31.022     4512.946      965.763      962.357        0.562        0.322       67.530       29.536        0.191      335.801        6.677      869.697
01/19/2022  11:57:00      122.294      -15.531      -20.060       47.571       71.174       31.877     2263.030     5065.790     1016.125        1.197        0.417      123.276       27.932        0.051      335.714        6.531      869.668
01/19/2022  11:58:00       35.482      -27.117      -28.950       31.909       51.370       19.888     1018.191     2638.920      395.526        0.344        0.203       44.657       15.070        0.114      335.995        6.998      869.637
01/19/2022  11:59:00       61.635      -20.300       -7.368       60.530       90.323       49.475     3663.904     8158.275     2447.731        0.926        0.713       64.892       34.276        0.279      336.251        7.426      869.614
01/19/2022  12:00:00       95.958       31.586      -16.756       42.174       39.664       22.135     1778.610     1573.261      489.968        0.716        0.192      101.023       23.018        0.052      335.641        6.410      869.592
01/19/2022  12:01:00       53.720      -65.785      -29.364       50.107       85.935       29.093     2510.705     7384.841      846.407        0.941        0.537       84.932       22.810        0.072      335.952        6.928      869.557
01/19/2022  12:02:00       56.514     -101.435      -26.046       34.577       50.564       22.971     1195.550     2556.698      527.648        0.922        0.214      116.116       18.822        0.026      335.698        6.506      869.528
01/19/2022  12:03:00       91.265      -41.269      -19.139       43.782       43.861       26.983     1916.870     1923.753      728.068        0.748        0.228      100.161       25.538        0.065      335.782        6.645      869.511
01/19/2022  12:04:00      -12.489        1.402      -14.771       50.981       44.990       25.573     2599.077     2024.082      653.979        0.283        0.264       12.567        9.430        0.563      336.247        7.421      869.489
01/19/2022  12:05:00       36.797     -117.169      -24.444       60.875      104.778       30.302     3705.757    10978.403      918.239        1.564        0.780      122.811       34.940        0.081      336.114        7.199      869.479
01/19/2022  12:06:00       86.009     -133.752      -33.943       47.219       82.030       30.262     2229.620     6728.851      915.798        1.815        0.494      159.019       36.995        0.054      335.899        6.840      869.466
01/19/2022  12:07:00       66.042      -14.082      -19.998       60.640       62.854       37.442     3677.238     3950.566     1401.909        0.699        0.451       67.527       28.143        0.174      336.290        7.492      869.452
01/19/2022  12:08:00       88.566      -36.042      -29.940       71.381       42.527       43.062     5095.251     1808.537     1854.307        0.940        0.438       95.619       37.616        0.155      336.074        7.131      869.445
01/19/2022  12:09:00       41.126       22.990       -8.999       42.396       51.248       22.954     1797.395     2626.313      526.891        0.362        0.248       47.116       16.036        0.116      336.224        7.381      869.438
01/19/2022  12:10:00       89.851       37.945      -12.488       74.174       67.506       33.055     5501.796     4557.105     1092.613        1.041        0.558       97.534       21.864        0.050      336.495        7.835      869.439
01/19/2022  12:11:00       88.687       24.793      -25.130       56.797       52.194       46.648     3225.858     2724.263     2176.004        0.862        0.406       92.088       20.605        0.050      336.414        7.701      869.464
01/19/2022  12:12:00      109.926       84.186      -22.873       49.959       46.084       29.720     2495.879     2123.721      883.252        1.260        0.275      138.460       20.369        0.022      336.176        7.300      869.487
01/19/2022  12:13:00       57.645      -20.127      -19.166       88.105       50.840       43.891     7762.444     2584.747     1926.463        0.818        0.614       61.058       26.257        0.185      336.545        7.919      869.480
01/19/2022  12:14:00       79.121      -36.838      -19.113       66.148       63.490       43.766     4375.503     4030.978     1915.448        0.915        0.516       87.276       28.283        0.105      336.259        7.441      869.467
01/19/2022  12:15:00       94.099       19.496      -33.759       44.750       61.251       28.913     2002.521     3751.651      835.971        0.848        0.330       96.097       14.883        0.024      336.184        7.314      869.478
01/19/2022  12:16:00       49.153      -77.432      -20.404       54.703       75.275       36.435     2992.432     5666.265     1327.489        0.941        0.499       91.716       28.239        0.095      336.458        7.773      869.468
01/19/2022  12:17:00       82.317     -192.839      -42.899       54.818       51.399       29.727     3004.978     2641.826      883.708        2.617        0.327      209.674       34.791        0.028      335.975        6.965      869.455
01/19/2022  12:18:00       78.008     -158.950      -29.579       27.934       39.193       23.619      780.310     1536.069      557.875        1.755        0.144      177.060       15.237        0.007      336.033        7.063      869.448
01/19/2022  12:19:00       81.156     -116.153      -30.164       29.596       42.956       24.569      875.896     1845.256      603.633        1.216        0.166      141.696       23.987        0.029      335.926        6.884      869.443
01/19/2022  12:20:00      140.191     -126.762      -44.024       45.067       48.364       26.652     2031.012     2339.049      710.353        2.137        0.254      189.003       23.540        0.016      336.028        7.053      869.436
01/19/2022  12:21:00      111.392      -51.109      -30.569       47.175       61.929       34.581     2225.447     3835.163     1195.847        1.160        0.363      122.557       19.231        0.025      336.232        7.395      869.438
01/19/2022  12:22:00       83.148       30.680      -10.715       58.393       46.031       27.304     3409.800     2118.892      745.514        0.712        0.314       88.627       28.913        0.106      336.195        7.333      869.437
01/19/2022  12:23:00       29.451      -79.954      -16.866       39.866       33.153       22.297     1589.297     1099.115      497.137        0.536        0.159       85.206       17.972        0.044      336.302        7.512      869.418
01/19/2022  12:24:00       31.053      -27.478       -3.023       40.544       52.434       44.519     1643.804     2749.350     1981.910        0.405        0.319       41.464       27.659        0.445      336.904        8.519      869.406
01/19/2022  12:25:00      136.249       16.789      -22.942       66.639       64.166       37.068     4440.785     4117.232     1374.035        1.465        0.497      137.280       37.401        0.074      336.328        7.555      869.410
01/19/2022  12:26:00      123.937     -136.570      -21.830       62.700      113.493       42.875     3931.329    12880.741     1838.296        2.657        0.933      184.423       43.833        0.056      336.372        7.628      869.383
01/19/2022  12:27:00       87.036      -65.722      -23.742       83.496      119.958       63.217     6971.595    14389.931     3996.374        1.890        1.268      109.062       49.145        0.203      336.678        8.142      869.366
01/19/2022  12:28:00      107.438      -12.479      -32.188       70.024       88.503       54.027     4903.430     7832.803     2918.925        1.419        0.783      108.160       41.162        0.145      336.548        7.923      869.378
01/19/2022  12:29:00      155.099      -47.433      -16.381       85.832       54.095       36.061     7367.115     2926.217     1300.414        1.908        0.580      162.190       41.233        0.065      336.395        7.667      869.375
01/19/2022  12:30:00       50.748      -31.585        2.913      104.134       78.398       64.675    10843.938     6146.278     4182.799        1.237        1.059       59.774       53.801        0.810      336.506        7.852      869.348
01/19/2022  12:31:00      162.917       -4.231       -6.342      117.102       90.101       60.569    13712.844     8118.233     3668.627        2.605        1.275      162.972       54.139        0.110      336.428        7.721      869.355
01/19/2022  12:32:00       92.422       14.259      -16.040       70.800       60.133       37.886     5012.645     3615.984     1435.379        0.953        0.503       93.515       30.106        0.104      336.425        7.718      869.354
01/19/2022  12:33:00       73.397      -10.994      -15.650       62.778       80.266       37.823     3941.044     6442.596     1430.570        0.878        0.591       74.215       16.224        0.048      336.652        8.098      869.343
01/19/2022  12:34:00       71.944      -12.196      -37.996       57.863       72.712       37.507     3348.076     5287.028     1406.787        0.840        0.502       72.971       19.641        0.072      336.434        7.735      869.308
01/19/2022  12:35:00      103.104      -14.441      -46.144       56.614      100.544       42.577     3205.143    10109.147     1812.763        1.404        0.756      104.111       18.810        0.033      336.592        7.997      869.292
01/19/2022  12:36:00      111.370       29.962      -26.694       72.208       84.500       48.407     5213.975     7140.196     2343.247        1.435        0.735      115.330       26.217        0.052      336.629        8.058      869.292
01/19/2022  12:37:00      162.264       91.135      -27.814       76.787       50.814       33.300     5896.269     2582.071     1108.883        2.250        0.479      186.105       25.936        0.019      336.353        7.596      869.288
01/19/2022  12:38:00       72.068       56.056      -17.146       68.565       24.779       20.661     4701.156      614.003      426.885        0.719        0.287       91.302       26.383        0.084      336.200        7.342      869.296
01/19/2022  12:39:00       10.994       74.078      -10.148       27.676       26.920       24.663      765.939      724.695      608.281        0.390        0.105       74.889        8.892        0.014      336.423        7.715      869.291
01/19/2022  12:40:00       27.609      -46.367      -12.983       40.087       89.564       32.074     1606.960     8021.690     1028.759        0.687        0.533       53.964       21.115        0.153      336.901        8.513      869.284
01/19/2022  12:41:00       80.945      -42.600      -38.690       82.981       84.879       44.490     6885.893     7204.434     1979.358        1.296        0.803       91.471       26.937        0.087      336.750        8.259      869.285
01/19/2022  12:42:00      162.323      -12.035      -31.918       79.634       51.578       42.412     6341.622     2660.259     1798.764        1.915        0.540      162.768        8.544        0.003      336.312        7.527      869.307
01/19/2022  12:43:00       19.674        0.578      -37.299       57.567       70.543       36.974     3314.009     4976.250     1367.054        0.572        0.483       19.682       33.422        2.883      336.608        8.025      869.321
01/19/2022  12:44:00       34.389      -65.043      -25.352       79.604       71.611       56.802     6336.746     5128.113     3226.412        1.037        0.735       73.574       56.728        0.594      336.725        8.219      869.318
01/19/2022  12:45:00       43.830      -75.888      -35.649       55.193       70.212       39.916     3046.313     4929.705     1593.291        0.926        0.478       87.636       30.426        0.121      336.748        8.258      869.320
01/19/2022  12:46:00       59.039      -33.776      -32.125       57.959       56.217       39.070     3359.193     3160.405     1526.467        0.685        0.402       68.018       27.345        0.162      336.526        7.888      869.304
01/19/2022  12:47:00       -2.008      -97.118      -18.175       40.512       38.306       26.842     1641.255     1467.313      720.484        0.680        0.191       97.139       14.622        0.023      336.537        7.906      869.290
01/19/2022  12:48:00       24.687      -12.664      -27.268       52.942       48.749       30.520     2802.858     2376.485      931.490        0.381        0.306       27.745       24.970        0.810      336.633        8.066      869.265
01/19/2022  12:49:00       15.384       11.367      -15.634       32.346       47.956       28.752     1046.244     2299.738      826.702        0.239        0.209       19.127        7.695        0.162      336.856        8.438      869.237
01/19/2022  12:50:00       55.006     -152.269      -41.750       56.179       58.593       45.216     3156.115     3433.157     2044.457        1.829        0.432      161.900       34.672        0.046      336.494        7.832      869.223
01/19/2022  12:51:00       21.438      -64.086      -12.574       35.571       52.587       27.542     1265.286     2765.342      758.580        0.476        0.239       67.576       28.043        0.172      336.806        8.355      869.202
01/19/2022  12:52:00       59.778     -117.065      -35.208       78.969       65.327       56.599     6236.146     4267.590     3203.473        1.611        0.685      131.444       38.321        0.085      336.602        8.013      869.201
01/19/2022  12:53:00       90.487     -165.454      -39.201       80.271       76.157       48.443     6443.455     5799.896     2346.737        2.584        0.730      188.582       41.668        0.049      336.678        8.139      869.187
01/19/2022  12:54:00       66.587     -122.800      -26.745       63.813       86.995       44.785     4072.078     7568.150     2005.733        1.693        0.682      139.692       34.981        0.063      336.730        8.227      869.191
01/19/2022  12:55:00      131.140     -122.760      -25.762       84.803       81.778       48.381     7191.564     6687.669     2340.712        2.457        0.811      179.632       31.162        0.030      336.556        7.935      869.198
01/19/2022  12:56:00       65.672       32.899        3.647       88.309       93.658       47.801     7798.487     8771.734     2284.947        1.213        0.943       73.452       43.231        0.346      336.704        8.184      869.207
01/19/2022  12:57:00      172.527       39.132      -24.353       69.222       87.136       35.388     4791.634     7592.733     1252.324        2.276        0.682      176.909       21.333        0.015      336.579        7.974      869.186
01/19/2022  12:58:00       61.072      -41.097      -33.796       51.557       67.730       43.741     2658.129     4587.404     1913.242        0.786        0.458       73.612       16.837        0.052      337.052        8.765      869.159
01/19/2022  12:59:00       72.239      -31.788      -12.486       67.654       74.927       43.103     4577.073     5614.008     1857.890        0.921        0.602       78.924       34.963        0.196      337.073        8.801      869.150
01/19/2022  13:00:00       90.538      -16.514      -28.272       83.063      113.560       45.489     6899.379    12895.835     2069.272        1.556        1.093       92.032       47.372        0.265      336.727        8.222      869.137
01/19/2022  13:01:00      112.417      -41.528      -23.376       67.898       96.792       49.100     4610.142     9368.629     2410.769        1.565        0.819      119.842       44.489        0.138      336.815        8.369      869.125
01/19/2022  13:02:00       69.557       -1.810      -24.958       51.397       75.771       33.958     2641.630     5741.225     1153.174        0.750        0.477       69.580       28.287        0.165      336.857        8.440      869.122
01/19/2022  13:03:00       88.109      -99.741      -22.832       79.663       93.345       49.101     6346.203     8713.262     2410.915        1.785        0.874      133.084       49.420        0.138      336.770        8.294      869.090
01/19/2022  13:04:00       95.050     -139.456      -38.650       50.306      140.006       38.608     2530.705    19601.682     1490.574        2.680        1.181      168.768       28.849        0.029      336.775        8.302      869.092
01/19/2022  13:05:00       40.866      -21.864      -12.315       46.743      110.507       39.450     2184.891    12211.828     1556.280        0.912        0.798       46.347       31.612        0.465      336.854        8.436      869.096
01/19/2022  13:06:00       65.897     -199.507      -39.659       54.548       55.204       34.285     2975.461     3047.497     1175.432        2.646        0.360      210.109       24.045        0.013      336.618        8.038      869.080
01/19/2022  13:07:00       70.176     -163.127      -63.720       79.227       67.920       34.306     6276.947     4613.150     1176.926        2.383        0.603      177.582       19.023        0.011      336.787        8.323      869.066
01/19/2022  13:08:00       56.430      -38.150      -35.483       65.321      100.222       38.661     4266.786    10044.549     1494.642        1.085        0.790       68.116       43.973        0.417      336.926        8.555      869.075
01/19/2022  13:09:00        6.826       11.765        0.639       56.475       58.299       38.467     3189.449     3398.799     1479.691        0.413        0.403       13.602       34.716        6.514      337.169        8.963      869.089
01/19/2022  13:10:00       22.631      -12.086      -13.817       52.571       61.323       34.415     2763.743     3760.566     1184.407        0.428        0.385       25.656       21.692        0.715      336.999        8.677      869.079
01/19/2022  13:11:00       67.765      -21.799      -25.444       65.352       81.395       50.308     4270.856     6625.142     2530.910        0.957        0.671       71.185       38.991        0.300      337.036        8.739      869.071
01/19/2022  13:12:00      136.444      -74.535      -25.446       72.924       97.366       43.007     5317.908     9480.215     1849.598        2.073        0.832      155.475       38.817        0.062      336.616        8.037      869.069
01/19/2022  13:13:00       45.056       11.766      -16.494       46.484       75.543       39.660     2160.741     5706.703     1572.897        0.594        0.472       46.567       26.378        0.321      336.874        8.468      869.042
01/19/2022  13:14:00       64.049      -57.415      -28.512       40.866       69.410       35.441     1670.007     4817.708     1256.051        0.798        0.387       86.016       27.441        0.102      336.835        8.402      869.031
01/19/2022  13:15:00       91.589     -141.537      -38.278       49.789       69.247       44.845     2478.968     4795.117     2011.059        1.958        0.464      168.586       41.950        0.062      336.722        8.212      869.017
01/19/2022  13:16:00       81.035     -170.555      -46.742       52.093       50.029       34.426     2713.644     2502.900     1185.139        2.212        0.320      188.827       21.946        0.014      336.747        8.255      868.999
01/19/2022  13:17:00       63.755     -126.098      -21.247       45.206       57.196       37.873     2043.616     3271.373     1434.349        1.358        0.337      141.299       30.213        0.046      336.778        8.308      868.993
01/19/2022  13:18:00       11.285       -8.522      -31.973       51.534       44.338       34.257     2655.781     1965.877     1173.508        0.351        0.290       14.142       24.909        3.103      336.969        8.626      868.975
01/19/2022  13:19:00       25.256      -74.555      -39.661       34.775       33.184       30.383     1209.296     1101.199      923.124        0.550        0.162       78.716       21.414        0.074      336.632        8.063      868.948
01/19/2022  13:20:00       -3.968        9.397      -17.512       35.692       21.035       25.090     1273.900      442.478      629.514        0.138        0.117       10.200       15.406        2.281      336.825        8.388      868.916
01/19/2022  13:21:00       -3.677      -13.054      -18.537       24.879       24.039       14.909      618.977      577.862      222.267        0.097        0.071       13.562       11.336        0.699      337.232        9.068      868.885
01/19/2022  13:22:00       10.100        6.039      -14.165       38.810       39.389       27.920     1506.213     1551.506      779.554        0.209        0.192       11.768       15.759        1.793      337.301        9.181      868.861
01/19/2022  13:23:00       72.135       -6.459      -28.787       40.192       61.818       39.700     1615.420     3821.440     1576.053        0.654        0.351       72.423       22.592        0.097      337.014        8.703      868.838
01/19/2022  13:24:00       69.975      -13.335      -19.776       67.241       55.965       38.925     4521.314     3132.126     1515.127        0.732        0.458       71.234       30.233        0.180      337.038        8.743      868.823
01/19/2022  13:25:00       89.867       39.023      -27.197       67.185       84.767       40.443     4513.818     7185.508     1635.633        1.183        0.667       97.974       26.873        0.075      336.917        8.539      868.819
01/19/2022  13:26:00       59.415       31.013      -15.998       54.939       81.271       28.453     3018.294     6604.946      809.583        0.759        0.522       67.022       23.771        0.126      336.864        8.455      868.834
01/19/2022  13:27:00      -25.075      -18.056      -29.242       28.240       27.492       20.736      797.501      755.813      429.968        0.190        0.099       30.900       11.586        0.141      337.449        9.431      868.835
01/19/2022  13:28:00        5.325      -42.059      -20.310       18.840       32.263       18.480      354.929     1040.900      341.497        0.197        0.087       42.395        9.003        0.045      337.261        9.116      868.828
01/19/2022  13:29:00       -9.300       -5.557       -8.356       19.299       37.006       16.847      372.470     1369.449      283.832        0.111        0.101       10.834       14.049        1.682      337.381        9.316      868.826
01/19/2022  13:30:00      -13.940        2.203      -21.649       35.830       23.867       21.829     1283.801      569.654      476.498        0.150        0.116       14.113        3.951        0.078      337.482        9.486      868.835
01/19/2022  13:31:00       18.743      -31.084       -4.258       48.348       36.038       35.328     2337.549     1298.756     1248.087        0.311        0.244       36.298       14.573        0.161      337.247        9.092      868.852
01/19/2022  13:32:00       38.301       34.147      -13.655       51.817       51.828       27.764     2684.996     2686.092      770.863        0.448        0.307       51.313       13.969        0.074      337.114        8.871      868.863
01/19/2022  13:33:00       60.175       48.265      -13.979       54.579       38.658       22.863     2978.896     1494.435      522.729        0.557        0.250       77.140       17.873        0.054      337.255        9.106      868.877
01/19/2022  13:34:00       34.216       -3.739      -15.627       50.814       67.236       36.521     2582.029     4520.725     1333.814        0.493        0.422       34.420       29.357        0.727      337.335        9.240      868.881
01/19/2022  13:35:00      191.062       -0.083      -27.930       77.543       66.821       43.397     6012.904     4465.019     1883.291        2.482        0.618      191.062       24.724        0.017      337.012        8.697      868.890
01/19/2022  13:36:00      182.392       23.268      -12.729       72.189       61.858       33.070     5211.238     3826.466     1093.653        2.205        0.507      183.870       33.453        0.033      336.933        8.565      868.909
01/19/2022  13:37:00      181.056       69.143      -18.138       47.877       31.280       23.890     2292.223      978.441      570.733        2.087        0.192      193.810       21.037        0.012      336.755        8.269      868.925
01/19/2022  13:38:00      170.296       56.845      -24.129       49.877       39.325       22.791     2487.686     1546.453      519.435        1.868        0.228      179.533       14.475        0.007      336.922        8.547      868.922
01/19/2022  13:39:00      125.113       50.316      -24.597       57.874       56.787       33.720     3349.439     3224.740     1137.052        1.325        0.386      134.852       28.106        0.043      337.045        8.755      868.931
01/19/2022  13:40:00      116.965       39.501      -23.285       69.933       61.596       31.460     4890.655     3794.055      989.713        1.273        0.484      123.455       26.442        0.046      337.044        8.752      868.932
01/19/2022  13:41:00       72.441       66.763      -15.584       51.142       39.918       24.123     2615.536     1593.475      581.907        0.737        0.240       98.514       11.228        0.013      337.176        8.975      868.934
01/19/2022  13:42:00       48.986       52.715       -2.114       35.729       31.168       22.682     1276.562      971.419      514.469        0.397        0.138       71.962       15.514        0.046      337.133        8.903      868.938
01/19/2022  13:43:00       71.724       23.615      -11.733       70.717       44.606       24.859     5000.868     1989.735      617.964        0.672        0.380       75.512       15.143        0.040      337.092        8.832      868.929
01/19/2022  13:44:00      149.271       68.221      -20.290       33.855       49.075       26.999     1146.167     2408.316      728.934        1.581        0.214      164.121       15.292        0.009      336.859        8.442      868.934
01/19/2022  13:45:00       66.466      -24.744      -27.761       23.635       34.418       24.889      558.593     1184.584      619.453        0.408        0.118       70.923       17.169        0.059      336.896        8.506      868.920
01/19/2022  13:46:00       47.149       -4.235      -12.235       33.948       43.690       26.603     1152.472     1908.840      707.721        0.308        0.188       47.339       17.939        0.144      337.356        9.274      868.886
01/19/2022  13:47:00       90.852       34.674      -23.702       41.644       37.167       27.144     1734.239     1381.410      736.786        0.693        0.193       97.244       20.072        0.043      337.278        9.143      868.861
01/19/2022  13:48:00       39.793       64.706      -23.769       34.134       25.113       21.885     1165.124      630.669      478.953        0.430        0.114       75.963       14.044        0.034      336.985        8.654      868.842
01/19/2022  13:49:00       66.289       41.833      -12.296       31.297       23.490       14.609      979.528      551.761      213.417        0.402        0.087       78.385        8.621        0.012      336.837        8.407      868.818
01/19/2022  13:50:00       42.333       42.608      -15.781       15.004       18.656       14.788      225.122      348.049      218.694        0.232        0.040       60.063        8.968        0.022      336.848        8.425      868.800
01/19/2022  13:51:00       20.712       44.574        8.190       46.097       29.451       30.220     2124.934      867.362      913.279        0.319        0.195       49.152       29.169        0.352      337.125        8.888      868.777
01/19/2022  13:52:00        2.653       23.006      -11.027       26.883       23.066       21.717      722.707      532.028      471.634        0.119        0.086       23.159       15.114        0.426      337.120        8.880      868.763
01/19/2022  13:53:00       12.860       -8.308      -24.298       18.796       22.847       12.126      353.288      521.977      147.037        0.092        0.051       15.311       13.753        0.807      337.312        9.202      868.753
01/19/2022  13:54:00       22.495       -0.454      -25.785       20.863       30.965       18.365      435.257      958.860      337.256        0.145        0.087       22.500        8.804        0.153      337.250        9.097      868.737
01/19/2022  13:55:00        9.106      -33.111      -15.641       18.720       29.874       21.366      350.434      892.474      456.501        0.156        0.085       34.340       18.275        0.283      337.604        9.691      868.716
01/19/2022  13:56:00       12.508       -7.277      -11.189       38.607       39.885       23.425     1490.462     1590.806      548.750        0.198        0.182       14.471       19.907        1.893      337.578        9.647      868.700
01/19/2022  13:57:00       79.827       54.027      -17.071       19.271       24.307       21.814      371.364      590.844      475.862        0.551        0.072       96.392       11.650        0.015      337.108        8.860      868.675
01/19/2022  13:58:00       40.253        5.096       -2.053       52.905       37.368       26.859     2798.932     1396.343      721.413        0.328        0.246       40.574       31.546        0.604      337.418        9.379      868.655
01/19/2022  13:59:00       92.836      -43.333      -18.943       78.036       44.636       32.273     6089.658     1992.371     1041.539        0.999        0.456      102.451       34.433        0.113      337.354        9.271      868.617
01/19/2022  14:00:00      129.214       46.917      -19.082      106.490       65.067       37.028    11340.147     4233.667     1371.047        1.810        0.847      137.468       31.370        0.052      337.303        9.184      868.631
01/19/2022  14:01:00       -2.162      -24.900       -6.730       41.967       68.747       37.028     1761.243     4726.204     1371.075        0.426        0.393       24.994       26.283        1.106      337.648        9.764      868.632
01/19/2022  14:02:00       48.601       -6.706      -17.539       81.435       61.150       39.437     6631.616     3739.356     1555.240        0.732        0.596       49.062       37.326        0.579      337.452        9.437      868.627
01/19/2022  14:03:00      142.216      -19.358      -22.920       72.061       76.791       46.688     5192.745     5896.876     2179.797        1.719        0.663      143.527       28.757        0.040      337.204        9.020      868.628
01/19/2022  14:04:00      209.897        0.775      -30.361       65.714       60.690       36.184     4318.384     3683.251     1309.314        2.714        0.466      209.899       22.799        0.012      337.165        8.952      868.629
01/19/2022  14:05:00      117.283      -40.539      -21.845       68.208       50.173       37.033     4652.264     2517.300     1371.467        1.221        0.427      124.092       14.233        0.013      337.229        9.062      868.614
01/19/2022  14:06:00       75.473      -25.209      -33.177       41.182       45.243       31.090     1695.937     2046.937      966.586        0.607        0.235       79.572       18.241        0.053      337.108        8.859      868.607
01/19/2022  14:07:00       91.118       19.265      -25.122       38.361       76.376       26.044     1471.586     5833.309      678.276        0.864        0.399       93.132       17.648        0.036      337.119        8.878      868.597
01/19/2022  14:08:00       20.934       40.561       -3.383       37.151       34.932       23.128     1380.162     1220.229      534.892        0.261        0.157       45.645       21.226        0.216      337.277        9.145      868.589
01/19/2022  14:09:00       45.205       27.354      -19.311       17.698       22.510       22.731      313.229      506.679      516.719        0.225        0.067       52.837       11.130        0.044      337.131        8.898      868.565
01/19/2022  14:10:00       57.028       -7.095      -25.242       33.148       35.760       17.480     1098.767     1278.792      305.548        0.331        0.134       57.468        8.879        0.024      337.248        9.095      868.544
01/19/2022  14:11:00       -1.869      -46.189      -20.731       16.771       32.313       22.137      281.279     1044.101      490.041        0.219        0.091       46.227        5.331        0.013      337.264        9.120      868.532
01/19/2022  14:12:00       35.706      -70.676      -23.996       41.940       46.681       25.097     1758.932     2179.085      629.850        0.571        0.228       79.183       25.682        0.105      337.490        9.500      868.523
01/19/2022  14:15:00       32.532      -23.545      -22.203       56.815       47.047       30.598     3227.972     2213.403      936.250        0.424        0.319       40.159       29.848        0.552      337.537        9.578      868.519
01/19/2022  14:16:00       35.865      -60.445      -17.421       49.090       57.172       44.240     2409.838     3268.654     1957.166        0.644        0.382       70.284       33.806        0.231      337.676        9.812      868.522
01/19/2022  14:17:00       62.404     -150.057      -40.987       35.309       59.004       24.266     1246.692     3481.454      588.863        1.670        0.266      162.515       16.370        0.010      337.294        9.170      868.524
01/19/2022  14:18:00       32.610      -18.846      -11.991       62.827       74.338       41.609     3947.234     5526.195     1731.308        0.638        0.560       37.664       11.803        0.098      337.699        9.850      868.512
01/19/2022  14:19:00      113.441      -25.727      -28.926       69.096       44.875       39.786     4774.225     2013.761     1582.965        1.137        0.419      116.321       33.288        0.082      337.379        9.313      868.503
01/19/2022  14:20:00       57.398      -38.311      -29.937       56.380       63.740       35.602     3178.664     4062.800     1267.522        0.708        0.425       69.010       26.969        0.153      337.546        9.593      868.509
01/19/2022  14:21:00      102.831      -13.807      -33.123       65.690       88.830       35.630     4315.213     7890.856     1269.496        1.267        0.674      103.754       21.740        0.044      337.317        9.209      868.507
01/19/2022  14:22:00        2.654      -61.398      -30.603       29.764       40.067       24.332      885.921     1605.332      592.025        0.390        0.154       61.455       17.335        0.080      337.506        9.526      868.526
01/19/2022  14:23:00       61.495       30.858      -10.788       74.160       38.927       24.800     5499.632     1515.290      615.019        0.624        0.381       68.803       28.083        0.167      337.546        9.592      868.523
01/19/2022  14:24:00      124.068       32.251      -20.815       69.750       73.502       39.724     4865.066     5402.473     1578.032        1.435        0.592      128.192       27.507        0.046      337.376        9.307      868.535
01/19/2022  14:25:00      142.139       60.698      -16.350       43.214       41.282       32.070     1867.432     1704.167     1028.464        1.438        0.230      154.556       17.140        0.012      337.112        8.867      868.556
01/19/2022  14:26:00       96.389       56.057      -19.485       28.078       26.000       14.743      788.387      676.021      217.352        0.725        0.084      111.505        7.731        0.005      337.098        8.842      868.561
01/19/2022  14:27:00      106.919       61.609      -18.135       27.776       22.482       14.286      771.493      505.443      204.097        0.852        0.074      123.399        4.744        0.001      337.276        9.141      868.574
01/19/2022  14:28:00       34.550       38.337      -23.253       32.674       37.722       20.407     1067.564     1422.980      416.458        0.306        0.145       51.608       17.003        0.109      337.475        9.474      868.581
01/19/2022  14:29:00        7.713       15.099       -8.318       38.375       35.478       27.486     1472.645     1258.663      755.507        0.192        0.174       16.955       13.334        0.619      337.875       10.145      868.578
01/19/2022  14:30:00       70.918       63.497      -13.719       77.597       58.373       40.214     6021.295     3407.438     1617.182        1.015        0.552       95.190       37.485        0.155      337.608        9.697      868.609
01/19/2022  14:31:00      111.806       80.496      -12.302       55.312       44.234       32.023     3059.462     1956.659     1025.445        1.259        0.302      137.769       17.034        0.015      337.180        8.982      868.629
01/19/2022  14:32:00      119.023       59.698      -14.108       46.426       26.218       28.111     2155.403      687.368      790.240        1.078        0.182      133.156       17.230        0.017      337.117        8.874      868.647
01/19/2022  14:33:00      177.799       40.835      -14.755       55.775       36.471       28.658     3110.901     1330.139      821.303        1.938        0.263      182.428       27.239        0.022      337.187        8.990      868.657
01/19/2022  14:34:00      116.380       37.835      -12.507       61.241       58.514       36.284     3750.460     3423.842     1316.536        1.181        0.425      122.375       26.851        0.048      337.374        9.305      868.664
01/19/2022  14:35:00      128.910       48.631      -26.860       80.931       50.657       32.430     6549.828     2566.116     1051.722        1.493        0.508      137.778       31.549        0.052      337.405        9.356      868.650
01/19/2022  14:36:00       44.463       51.864      -15.700       34.117       35.064       25.498     1163.956     1229.493      650.158        0.398        0.152       68.314       17.679        0.067      337.341        9.251      868.695
01/19/2022  14:37:00       62.651        0.535      -17.526       59.539       27.217       20.359     3544.867      740.777      414.470        0.447        0.235       62.653       25.560        0.166      337.240        9.080      868.704
01/19/2022  14:38:00       43.386       11.867      -13.227       35.204       18.679       13.732     1239.333      348.907      188.580        0.199        0.089       44.979       11.968        0.071      337.230        9.067      868.711
01/19/2022  14:39:00      129.501       49.201      -24.175       71.916       47.778       28.088     5171.905     2282.776      788.921        1.401        0.412      138.532       13.743        0.010      337.348        9.260      868.723
01/19/2022  14:40:00       66.393       58.706       -7.092       40.979       48.313       28.247     1679.271     2334.186      797.868        0.636        0.241       88.625       20.114        0.052      337.461        9.449      868.738
01/19/2022  14:41:00       51.309       62.677      -20.867       40.596       29.913       23.512     1648.015      894.758      552.822        0.505        0.155       81.000       21.163        0.068      337.415        9.373      868.744
01/19/2022  14:42:00       11.381       77.574      -13.889       34.078       22.014       26.764     1161.300      484.609      716.336        0.435        0.118       78.404       23.154        0.087      337.471        9.467      868.741
01/19/2022  14:43:00       18.867       88.720      -17.754       27.590       20.166       17.636      761.209      406.661      311.030        0.501        0.074       90.704        6.639        0.005      337.551        9.601      868.733
01/19/2022  14:44:00       18.132       71.041        2.601       37.370       30.024       19.377     1396.549      901.430      375.479        0.403        0.134       73.319       14.691        0.040      337.584        9.657      868.724
01/19/2022  14:45:00       56.948       61.003      -15.332       20.633       31.825       17.140      425.731     1012.811      293.790        0.447        0.087       83.453       13.312        0.025      337.426        9.391      868.720
01/19/2022  14:46:00       49.961       57.690      -14.732       22.536       18.470       22.461      507.849      341.146      504.506        0.370        0.068       76.317       11.196        0.022      337.390        9.331      868.719
01/19/2022  14:47:00       45.971       30.896       -7.421       43.085       42.088       20.316     1856.305     1771.413      412.743        0.358        0.202       55.389       10.603        0.037      337.622        9.719      868.725
01/19/2022  14:48:00       33.926      102.791      -18.569       30.889       40.049       27.726      954.132     1603.888      768.751        0.769        0.166      108.245       24.084        0.050      337.522        9.552      868.730
01/19/2022  14:49:00       -9.394       79.064      -19.356       51.087       51.060       22.975     2609.858     2607.151      527.873        0.623        0.287       79.620       17.707        0.049      337.612        9.703      868.735
01/19/2022  14:50:00       78.820       78.574      -28.954       29.283       34.618       21.658      857.495     1198.372      469.065        0.787        0.126      111.294        7.989        0.005      337.287        9.162      868.739
01/19/2022  14:51:00       68.215       40.439      -15.565       28.255       22.501       17.147      798.349      506.315      294.032        0.406        0.080       79.301       10.261        0.017      337.326        9.224      868.741
01/19/2022  14:52:00       75.302       72.171      -23.099       30.115       24.505       19.274      906.922      600.471      371.477        0.665        0.094      104.303        8.410        0.007      337.338        9.246      868.757
01/19/2022  14:53:00       87.816       33.421      -18.626       46.841       52.540       25.139     2194.106     2760.458      631.980        0.738        0.279       93.961        4.468        0.002      337.617        9.712      868.772
01/19/2022  14:54:00       80.818      -10.095       -1.048       80.486       38.553       36.837     6477.973     1486.341     1356.988        0.798        0.466       81.446       41.637        0.261      337.571        9.634      868.772
01/19/2022  14:55:00      130.468       47.326      -16.424       47.683       45.568       22.981     2273.674     2076.436      528.106        1.220        0.244      138.786       23.562        0.029      337.337        9.244      868.802
01/19/2022  14:56:00       97.541        7.224       -6.183       36.791       36.209       23.291     1353.587     1311.070      542.489        0.641        0.160       97.808       12.891        0.017      337.458        9.445      868.796
01/19/2022  14:57:00       63.360      -66.605      -34.936       31.133       55.663       28.168      969.266     3098.315      793.434        0.727        0.243       91.928       28.581        0.097      337.472        9.470      868.780
01/19/2022  14:58:00       80.052       -3.122       -7.902       48.158       44.717       29.702     2319.168     1999.577      882.184        0.584        0.260       80.113       23.144        0.083      337.602        9.686      868.763
01/19/2022  14:59:00       45.330        2.821       -8.380       73.021       42.700       30.648     5332.043     1823.315      939.280        0.511        0.405       45.417       30.853        0.461      337.766        9.961      868.761
01/19/2022  15:00:00       -8.849        0.545      -11.766       22.461       26.816       18.542      504.484      719.080      343.808        0.089        0.078        8.865        8.985        1.027      338.040       10.421      868.765
01/19/2022  15:01:00        1.816       24.433      -20.328       13.858       27.836       24.390      192.051      774.817      594.887        0.129        0.078       24.501       13.841        0.319      338.023       10.393      868.776
01/19/2022  15:02:00       46.620       64.570       -6.362       44.579       28.267       21.301     1987.279      799.048      453.750        0.481        0.162       79.641       11.393        0.020      337.659        9.782      868.790
01/19/2022  15:03:00      -12.849       88.099        3.711       46.369       62.850       34.194     2150.124     3950.155     1169.260        0.760        0.363       89.031       34.859        0.153      337.937       10.249      868.793
01/19/2022  15:04:00       62.342       36.591        0.973       48.031       53.146       29.216     2306.979     2824.477      853.581        0.560        0.299       72.288       22.188        0.094      337.854       10.110      868.798
01/19/2022  15:05:00       94.610       84.547      -18.452       52.622       52.990       35.929     2769.036     2807.913     1290.874        1.165        0.343      126.883       32.420        0.065      337.656        9.777      868.810
01/19/2022  15:06:00      103.843       22.280       -6.726       57.426       59.457       28.283     3297.695     3535.158      799.909        0.948        0.382      106.206       28.327        0.071      337.627        9.729      868.821
01/19/2022  15:07:00       31.796       -6.682       -6.701       52.441       38.915       20.211     2750.033     1514.347      408.470        0.289        0.234       32.490       11.931        0.135      337.679        9.815      868.830
01/19/2022  15:08:00       22.687        0.260       -5.242       46.855       37.968       23.280     2195.424     1441.551      541.935        0.236        0.209       22.688       17.610        0.602      337.740        9.919      868.831
01/19/2022  15:09:00      145.973       60.600      -22.203       39.932       30.864       26.708     1594.574      952.562      713.292        1.437        0.163      158.052       22.493        0.020      337.536        9.575      868.827
01/19/2022  15:10:00       90.006       45.536      -14.473       51.209       43.666       24.128     2622.338     1906.692      582.169        0.775        0.256      100.869       20.219        0.040      337.527        9.560      868.826
01/19/2022  15:11:00       94.229       58.893      -10.010       66.398       39.524       29.809     4408.717     1562.128      888.553        0.965        0.343      111.120       29.229        0.069      337.529        9.564      868.825
01/19/2022  15:12:00      174.162       56.815      -25.576       25.739       27.407       19.426      662.510      751.128      377.385        1.800        0.090      183.195       11.696        0.004      337.402        9.353      868.827
01/19/2022  15:13:00      168.479       46.746      -12.996       67.638       49.126       29.712     4574.887     2413.350      882.804        1.930        0.394      174.844       27.108        0.024      337.548        9.594      868.840
01/19/2022  15:14:00      133.626      -24.371      -16.022       71.925       46.847       38.868     5173.168     2194.660     1510.732        1.379        0.444      135.830       15.439        0.013      337.528        9.562      868.853
01/19/2022  15:15:00       44.909      -17.674      -16.429       75.268       46.130       39.040     5665.251     2127.958     1524.085        0.596        0.466       48.262       44.227        0.840      337.606        9.693      868.854
01/19/2022  15:16:00       69.743       36.436      -10.723       58.265       50.528       22.236     3394.772     2553.084      494.427        0.637        0.322       78.688       15.701        0.040      337.662        9.788      868.869
01/19/2022  15:17:00       73.202       92.759       -6.835       60.184       56.874       33.756     3622.112     3234.596     1139.469        1.100        0.400      118.164       28.391        0.058      337.692        9.838      868.884
01/19/2022  15:18:00      125.760       45.007      -19.594       77.917       73.173       33.824     6071.000     5354.255     1144.089        1.539        0.628      133.571       17.159        0.017      337.632        9.736      868.882
01/19/2022  15:19:00      210.094       70.034      -31.970       84.702       68.073       45.082     7174.443     4633.877     2032.418        3.195        0.692      221.459       23.218        0.011      337.512        9.532      868.864
01/19/2022  15:20:00      176.241      107.525      -28.500       61.685       49.629       33.716     3805.090     2463.050     1136.782        2.542        0.370      206.452       27.974        0.018      337.541        9.582      868.888
01/19/2022  15:21:00      185.340       78.761      -23.588       57.669       40.888       25.641     3325.741     1671.827      657.459        2.338        0.283      201.381       12.687        0.004      337.425        9.387      868.896
01/19/2022  15:22:00      165.688       23.125      -17.626       85.549       66.764       47.304     7318.702     4457.458     2237.703        2.115        0.701      167.294       37.421        0.050      337.557        9.610      868.887
01/19/2022  15:23:00      200.403       47.178      -16.426       64.640       45.581       35.267     4178.366     2077.592     1243.759        2.508        0.375      205.882       25.550        0.015      337.520        9.545      868.893
01/19/2022  15:24:00      124.136       58.311      -22.097       94.459       56.194       40.268     8922.548     3157.770     1621.544        1.650        0.685      137.149       43.003        0.098      337.595        9.675      868.918
01/19/2022  15:25:00      151.071       65.662      -23.138       85.435       65.275       39.384     7299.208     4260.790     1551.092        2.039        0.656      164.724       33.831        0.042      337.546        9.592      868.927
01/19/2022  15:26:00       70.887       63.662        0.765       54.758       55.357       30.689     2998.438     3064.370      941.833        0.804        0.350       95.277       22.401        0.055      337.581        9.651      868.930
01/19/2022  15:27:00       51.622       54.695      -18.337       53.678       53.912       28.428     2881.302     2906.503      808.178        0.629        0.330       75.209       21.054        0.078      337.621        9.718      868.921
01/19/2022  15:28:00      112.562      125.440      -17.570       64.115       67.783       35.989     4110.681     4594.541     1295.177        1.936        0.500      168.539       30.423        0.033      337.657        9.778      868.934
01/19/2022  15:29:00      175.334      122.476      -25.932       76.591       36.867       30.419     5866.175     1359.181      925.301        2.728        0.408      213.875       17.736        0.007      337.516        9.539      868.944
01/19/2022  15:30:00      -12.164      126.658      -13.652       74.033       55.850       46.436     5480.905     3119.200     2156.292        1.356        0.538      127.241       34.559        0.074      337.852       10.105      868.964
01/19/2022  15:31:00       24.038       91.762      -16.182       45.454       39.758       21.342     2066.023     1580.731      455.470        0.668        0.205       94.859       11.717        0.015      337.644        9.758      868.973
01/19/2022  15:32:00       60.681      131.429      -13.963       46.827       48.380       28.050     2192.779     2340.605      786.804        1.323        0.266      144.761       22.023        0.023      337.577        9.645      868.983
01/19/2022  15:33:00      100.087      219.396      -31.934       44.094       63.491       30.409     1944.319     4031.074      924.693        3.303        0.345      241.148       18.747        0.006      337.444        9.417      868.985
01/19/2022  15:34:00       52.089      169.613      -25.119       67.766       68.083       27.393     4592.270     4635.254      750.391        2.104        0.499      177.431       23.336        0.017      337.723        9.887      868.993
01/19/2022  15:35:00      -48.946      123.038      -16.493       52.995       47.489       34.375     2808.471     2255.199     1181.667        1.202        0.312      132.416       10.329        0.006      338.105       10.530      868.997
01/19/2022  15:36:00      -26.032      145.184      -14.685       74.454       63.827       40.623     5543.353     4073.866     1650.219        1.662        0.563      147.499       33.856        0.053      337.859       10.117      869.000
01/19/2022  15:37:00       66.601      182.817      -12.691       40.007       72.854       29.151     1600.557     5307.726      849.802        2.289        0.388      194.571       25.827        0.018      337.615        9.705      869.022
01/19/2022  15:38:00      119.750       80.745      -13.196       81.659       73.859       30.745     6668.266     5455.080      945.262        1.705        0.653      144.429       34.084        0.056      337.641        9.753      869.022
01/19/2022  15:39:00      109.174      118.089      -21.640       63.349       95.336       38.894     4013.118     9088.984     1512.733        2.047        0.731      160.823       40.452        0.063      337.678        9.812      869.041
01/19/2022  15:40:00       77.670      108.443       -9.174       66.895       48.779       33.670     4474.906     2379.385     1133.649        1.293        0.399      133.388       25.990        0.038      337.684        9.823      869.048
01/19/2022  15:41:00      130.879      137.364      -35.384       68.320       47.470       35.222     4667.596     2253.414     1240.613        2.270        0.408      189.732       33.537        0.031      337.499        9.513      869.058
01/19/2022  15:42:00       89.628      167.861      -26.863       46.506       69.136       31.729     2162.762     4779.801     1006.748        2.244        0.397      190.291       26.174        0.019      337.522        9.552      869.053
01/19/2022  15:43:00      -24.403      137.531      -21.188       43.842       62.713       23.576     1922.101     3932.874      555.831        1.318        0.321      139.679       11.504        0.007      337.724        9.892      869.045
01/19/2022  15:44:00       51.748      111.513      -14.534       42.033       50.882       28.663     1766.744     2589.025      821.560        1.025        0.259      122.935       28.251        0.053      337.690        9.834      869.037
01/19/2022  15:45:00       81.855      190.962      -25.351       54.232       79.734       34.162     2941.113     6357.448     1167.010        2.714        0.523      207.766       22.922        0.012      337.650        9.765      869.046
01/19/2022  15:46:00      104.519      179.216      -22.393       55.411       67.603       31.618     3070.406     4570.158      999.697        2.609        0.432      207.467       35.267        0.029      337.605        9.689      869.053
01/19/2022  15:47:00       97.314       93.417      -24.089       28.467       37.590       25.544      810.354     1413.018      652.491        1.083        0.144      134.895       21.287        0.025      337.516        9.543      869.054
01/19/2022  15:48:00       22.068       99.122      -14.075       40.192       45.231       28.793     1615.430     2045.803      829.010        0.750        0.225      101.549       16.052        0.025      337.684        9.823      869.064
01/19/2022  15:49:00      -13.435      114.120      -13.774       39.728       41.097       23.456     1578.278     1688.969      550.204        0.860        0.191      114.908       21.866        0.036      337.753        9.940      869.059
01/19/2022  15:50:00       57.830       56.337      -17.668       56.613       53.952       19.719     3204.987     2910.864      388.830        0.667        0.325       80.735       16.057        0.040      337.632        9.737      869.072
01/19/2022  15:51:00      119.159       34.716       -6.791       91.319       57.974       34.357     8339.212     3360.993     1180.412        1.416        0.644      124.113       32.342        0.068      337.607        9.694      869.074
01/19/2022  15:52:00       93.423       90.733      -14.598       54.693       38.707       34.718     2991.378     1498.204     1205.367        1.143        0.285      130.232       31.852        0.060      337.486        9.492      869.069
01/19/2022  15:53:00       95.554      183.698      -23.339       43.448       71.267       29.854     1887.755     5079.041      891.249        2.564        0.393      207.064       28.256        0.019      337.573        9.635      869.066
01/19/2022  15:54:00       54.843       63.487       -7.943       44.066       36.812       27.029     1941.801     1355.119      730.552        0.556        0.201       83.895       20.204        0.058      337.596        9.677      869.061
01/19/2022  15:55:00       22.993       71.547       -9.495       44.620       67.626       29.254     1990.983     4573.270      855.803        0.658        0.371       75.151       27.998        0.139      337.665        9.792      869.059
01/19/2022  15:56:00       99.157       72.778      -15.214       49.764       61.628       28.993     2476.440     3798.045      840.596        1.124        0.356      122.999       32.021        0.068      337.622        9.720      869.053
01/19/2022  15:57:00      121.327       34.831      -13.504       64.380       55.806       35.236     4144.748     3114.293     1241.572        1.231        0.425      126.228       31.176        0.061      337.548        9.595      869.050
01/19/2022  15:58:00      101.098       95.400      -23.915       63.157       45.271       38.490     3988.796     2049.480     1481.497        1.371        0.376      139.004       36.201        0.068      337.490        9.498      869.065
01/19/2022  15:59:00       66.249       93.373      -21.227       29.619       53.317       25.399      877.265     2842.729      645.093        0.896        0.218      114.488       11.418        0.010      337.579        9.648      869.066
01/19/2022  16:00:00       88.085      184.577      -26.835       37.944       37.507       25.748     1439.778     1406.806      662.968        2.303        0.175      204.518       19.389        0.009      337.498        9.510      869.081
01/19/2022  16:01:00      114.093      168.677      -28.488       63.920       64.052       36.502     4085.773     4102.672     1332.403        2.590        0.476      203.640       33.829        0.028      337.492        9.499      869.094
01/19/2022  16:02:00       65.049      138.620      -21.968       46.291       38.869       27.764     2142.876     1510.804      770.842        1.418        0.221      153.124       16.635        0.012      337.550        9.599      869.113
01/19/2022  16:03:00       86.079      175.260      -25.422       41.211       58.665       27.780     1698.354     3441.557      771.746        2.234        0.296      195.258       22.789        0.014      337.535        9.572      869.118
01/19/2022  16:04:00       82.126      137.399      -12.876       43.572       68.798       27.561     1898.552     4733.154      759.607        1.659        0.370      160.072       31.994        0.040      337.560        9.616      869.123
01/19/2022  16:05:00       90.529       43.428      -16.085       50.878       52.866       24.198     2588.613     2794.856      585.557        0.815        0.298      100.407       20.098        0.040      337.571        9.633      869.120
01/19/2022  16:06:00       48.885      -48.812       -7.816       48.179       42.853       26.879     2321.199     1836.386      722.493        0.486        0.244       69.082       21.237        0.095      337.692        9.837      869.112
01/19/2022  16:07:00       77.482       60.336      -11.513       32.479       28.768       19.867     1054.855      827.598      394.705        0.603        0.114       98.203       10.735        0.012      337.466        9.457      869.113
01/19/2022  16:08:00       29.485       48.628       -4.215       29.793       25.002       20.481      887.643      625.109      419.491        0.259        0.097       56.869       19.030        0.112      337.571        9.635      869.119
01/19/2022  16:09:00       65.728      135.289      -15.211       65.986       67.167       31.611     4354.130     4511.367      999.224        1.636        0.493      150.410       31.135        0.043      337.596        9.676      869.130
01/19/2022  16:10:00      116.591      134.032      -28.285       65.500       53.229       34.636     4290.220     2833.279     1199.620        2.034        0.416      177.646       19.738        0.012      337.563        9.621      869.130
01/19/2022  16:11:00       90.213      106.336      -17.022       44.471       44.730       25.624     1977.705     2000.808      656.570        1.218        0.232      139.448       17.525        0.016      337.534        9.571      869.136
01/19/2022  16:12:00      104.407       75.474      -13.665       77.328       40.418       31.026     5979.659     1633.615      962.622        1.268        0.429      128.829       24.040        0.035      337.515        9.538      869.137
01/19/2022  16:13:00       60.574       80.997      -13.912       47.582       40.130       30.034     2264.001     1610.385      902.033        0.760        0.239      101.142       22.219        0.048      337.546        9.592      869.146
01/19/2022  16:14:00       44.488       89.431       -6.352       32.273       79.015       24.231     1041.559     6243.402      587.131        0.894        0.394       99.886       31.740        0.101      337.549        9.596      869.138
01/19/2022  16:15:00       92.325       96.177       -9.680       43.013       45.593       26.241     1850.078     2078.699      688.588        1.124        0.231      133.319       19.653        0.022      337.500        9.516      869.129
01/19/2022  16:16:00      100.097      109.689      -21.498       42.280       50.089       27.444     1787.633     2508.872      753.190        1.378        0.252      148.496       17.649        0.014      337.489        9.496      869.136
01/19/2022  16:17:00      121.875       96.776      -13.569       68.503       62.250       38.203     4692.638     3875.110     1459.438        1.721        0.501      155.624       36.931        0.056      337.443        9.418      869.134
01/19/2022  16:18:00       93.107      167.360      -25.235       54.519       94.997       37.074     2972.300     9024.359     1374.475        2.534        0.669      191.516       35.659        0.035      337.460        9.446      869.142
01/19/2022  16:19:00       80.866      204.180      -29.758       48.192       58.710       25.798     2322.452     3446.873      665.554        2.777        0.322      219.611       21.677        0.010      337.467        9.456      869.156
01/19/2022  16:20:00       75.683      181.788      -25.350       36.171       58.031       24.881     1308.376     3367.631      619.088        2.236        0.265      196.913       21.636        0.012      337.445        9.422      869.164
01/19/2022  16:21:00       67.239       94.580      -10.406       44.592       52.574       31.308     1988.445     2764.058      980.192        0.965        0.287      116.045       22.171        0.037      337.409        9.361      869.169
01/19/2022  16:22:00       62.048      113.239      -19.936       50.966       47.342       30.762     2597.524     2241.310      946.308        1.143        0.289      129.124       28.433        0.048      337.452        9.435      869.164
01/19/2022  16:23:00       71.596       84.138      -12.465       43.982       45.200       33.846     1934.437     2043.073     1145.539        0.874        0.256      110.477       25.903        0.055      337.442        9.417      869.160
01/19/2022  16:24:00       74.510      164.505      -19.884       51.251       40.890       22.447     2626.697     1671.964      503.875        1.890        0.240      180.593       26.349        0.021      337.411        9.366      869.163
01/19/2022  16:25:00      125.734      151.184      -27.607       69.912       65.745       40.409     4887.700     4322.389     1632.872        2.513        0.542      196.636       44.818        0.052      337.378        9.308      869.169
01/19/2022  16:26:00       63.496      162.664      -26.560       39.002       40.350       25.370     1521.152     1628.139      643.622        1.749        0.190      174.617       19.906        0.013      337.410        9.364      869.182
01/19/2022  16:27:00      106.554      124.608      -20.738       41.863       56.112       33.366     1752.505     3148.605     1113.320        1.666        0.301      163.954       27.627        0.028      337.387        9.325      869.190
01/19/2022  16:28:00       94.180      142.451      -23.841       42.433       39.611       27.080     1800.563     1568.993      733.348        1.692        0.205      170.770       24.263        0.020      337.463        9.454      869.197
01/19/2022  16:29:00      144.935       92.313      -25.214       62.324       33.742       26.688     3884.300     1138.535      712.252        1.795        0.287      171.837       22.613        0.017      337.388        9.328      869.205
01/19/2022  16:30:00      143.331       93.123      -16.245       75.827       45.736       37.528     5749.786     2091.768     1408.379        1.936        0.462      170.925       35.019        0.042      337.350        9.264      869.202
01/19/2022  16:31:00       43.873       90.751       -6.358       34.585       45.985       25.037     1196.094     2114.612      626.874        0.707        0.197      100.799       25.720        0.065      337.381        9.317      869.206
01/19/2022  16:32:00       80.937      132.556      -24.999       47.374       59.528       32.480     2244.281     3543.618     1054.921        1.579        0.342      155.312       30.714        0.039      337.345        9.256      869.215
01/19/2022  16:33:00       66.626      122.988      -10.427       45.578       61.729       28.663     2077.338     3810.521      821.554        1.319        0.335      139.875       27.946        0.040      337.382        9.317      869.231
01/19/2022  16:34:00       85.728      219.203      -25.053       29.579       33.809       21.421      874.926     1143.067      458.876        2.925        0.124      235.370       16.297        0.005      337.363        9.281      869.249
01/19/2022  16:35:00       67.988      127.362      -11.615       43.636       61.945       33.826     1904.120     3837.216     1144.193        1.393        0.344      144.373       29.448        0.042      337.341        9.249      869.276
01/19/2022  16:36:00       44.037       66.330      -15.166       51.472       39.779       25.922     2649.383     1582.375      671.970        0.574        0.245       79.617       26.516        0.111      337.323        9.221      869.293
01/19/2022  16:37:00       53.320      108.239      -12.249       41.697       55.042       22.735     1738.656     3029.633      516.880        1.000        0.264      120.659       19.660        0.027      337.350        9.264      869.300
01/19/2022  16:38:00       44.149       76.709       -0.652       49.520       43.710       31.558     2452.217     1910.589      995.916        0.660        0.268       88.507       25.777        0.085      337.313        9.205      869.313
01/19/2022  16:39:00       65.394      133.663      -18.802       38.563       43.405       25.092     1487.074     1883.989      629.621        1.325        0.200      148.802       13.000        0.008      337.341        9.250      869.322
01/19/2022  16:40:00       80.970      135.492      -21.634       35.355       68.589       30.325     1249.985     4704.414      919.621        1.613        0.344      157.842       33.520        0.045      337.307        9.192      869.331
01/19/2022  16:41:00       53.352       99.013      -19.849       35.423       40.710       22.091     1254.812     1657.304      488.016        0.822        0.170      112.473       13.825        0.015      337.322        9.219      869.347
01/19/2022  16:42:00       79.460      149.120      -15.228       46.688       47.180       31.776     2179.765     2225.952     1009.689        1.710        0.271      168.969       29.999        0.032      337.379        9.312      869.353
01/19/2022  16:43:00       63.701      140.296      -18.584       48.296       41.499       25.567     2332.491     1722.175      653.675        1.440        0.235      154.080       21.317        0.019      337.383        9.319      869.361
01/19/2022  16:44:00       75.694      129.597      -11.257       38.407       53.290       32.690     1475.130     2839.837     1068.650        1.402        0.269      150.083       29.915        0.040      337.309        9.197      869.366
01/19/2022  16:45:00       90.371      149.673      -21.305       35.707       64.716       27.824     1274.983     4188.199      774.158        1.863        0.312      174.840       29.305        0.028      337.330        9.229      869.377
01/19/2022  16:46:00       64.515       85.489      -13.131       37.765       46.459       22.607     1426.223     2158.412      511.095        0.787        0.205      107.100       15.733        0.022      337.247        9.093      869.372
01/19/2022  16:47:00       82.596       67.754       -4.695       50.239       44.444       27.727     2523.975     1975.238      768.803        0.835        0.263      106.830       19.570        0.034      337.196        9.007      869.368
01/19/2022  16:48:00       56.854      150.076      -26.853       28.186       43.083       30.522      794.433     1856.104      931.575        1.503        0.179      160.485       25.894        0.026      337.275        9.140      869.368
01/19/2022  16:49:00       78.022      153.669      -24.407       43.339       80.962       30.178     1878.282     6554.896      910.698        1.982        0.467      172.342       34.009        0.039      337.234        9.068      869.364
01/19/2022  16:50:00       63.364      129.099      -19.495       38.705       42.056       24.914     1498.070     1768.731      620.720        1.247        0.194      143.811       26.379        0.034      337.244        9.088      869.362
01/19/2022  16:51:00       39.299       85.058      -13.614       39.951       47.113       25.334     1596.058     2219.670      641.787        0.671        0.223       93.698       21.235        0.051      337.167        8.959      869.369
01/19/2022  16:52:00       62.641      105.850      -17.758       47.053       44.496       27.944     2213.954     1979.884      780.884        1.021        0.249      122.996       22.449        0.033      337.156        8.939      869.371
01/19/2022  16:53:00       38.931       57.815       -3.103       29.709       31.919       19.803      882.629     1018.807      392.161        0.358        0.115       69.701       10.673        0.023      337.094        8.837      869.382
01/19/2022  16:54:00       61.639       94.574       -9.544       49.730       60.007       30.184     2473.071     3600.881      911.084        0.991        0.349      112.887       26.881        0.057      337.147        8.924      869.385
01/19/2022  16:55:00       95.605       96.358      -17.666       55.369       45.277       31.240     3065.761     2050.043      975.926        1.241        0.305      135.739       33.437        0.061      337.088        8.826      869.395
01/19/2022  16:56:00       46.445      145.351      -24.458       59.666       49.708       29.294     3560.046     2470.868      858.123        1.538        0.344      152.591       16.585        0.012      337.115        8.871      869.410
01/19/2022  16:57:00       88.829       99.699      -15.517       55.889       44.945       33.072     3123.604     2020.060     1093.749        1.215        0.312      133.531       22.541        0.028      337.031        8.731      869.420
01/19/2022  16:58:00       66.636      131.682      -23.867       42.266       45.385       23.631     1786.388     2059.810      558.404        1.338        0.220      147.582       17.924        0.015      337.039        8.743      869.430
01/19/2022  16:59:00       46.583      121.725      -19.959       40.166       52.985       30.673     1613.283     2807.389      940.812        1.137        0.268      130.334       19.727        0.023      337.046        8.755      869.441
01/19/2022  17:00:00       29.376      113.329      -19.121       29.337       34.348       22.184      860.634     1179.769      492.129        0.830        0.127      117.075       18.417        0.025      337.054        8.769      869.445
01/19/2022  17:01:00       23.010      117.089      -13.867       34.103       29.112       21.408     1163.048      847.533      458.284        0.845        0.123      119.329       11.336        0.009      337.117        8.875      869.458
01/19/2022  17:02:00       29.646      120.941      -20.179       28.731       43.061       21.738      825.477     1854.210      472.545        0.953        0.158      124.521       22.980        0.034      337.029        8.727      869.463
01/19/2022  17:03:00      -26.559      108.844      -11.723       52.125       44.370       23.555     2717.065     1968.655      554.830        0.896        0.262      112.038       18.762        0.028      337.319        9.213      869.460
01/19/2022  17:04:00      -36.035      122.755      -15.849       30.086       38.906       20.793      905.145     1513.647      432.355        0.973        0.143      127.935        8.919        0.005      337.107        8.858      869.459
01/19/2022  17:05:00       17.394       85.295      -13.657       30.852       28.727       21.515      951.823      825.269      462.875        0.500        0.112       87.050       15.018        0.030      337.043        8.751      869.465
01/19/2022  17:06:00       11.059       93.661      -14.726       24.498       32.095       21.026      600.173     1030.100      442.089        0.559        0.104       94.312       10.403        0.012      337.065        8.788      869.465
01/19/2022  17:07:00       -9.061       67.640       -7.321       39.515       32.662       24.623     1561.417     1066.790      606.313        0.397        0.162       68.244       19.921        0.085      337.042        8.749      869.477
01/19/2022  17:08:00      -10.051       75.092      -16.992       33.534       27.386       18.126     1124.541      749.976      328.567        0.412        0.110       75.761       17.448        0.053      337.009        8.695      869.480
01/19/2022  17:09:00      -29.346       58.532      -12.580       35.160       31.020       24.203     1236.215      962.228      585.797        0.361        0.139       65.477       17.048        0.068      337.158        8.944      869.491
01/19/2022  17:10:00      -40.480       25.372       -7.705       46.832       21.953       16.443     2193.214      481.947      270.379        0.264        0.147       47.774       15.904        0.111      336.993        8.667      869.510
01/19/2022  17:11:00        2.923       57.496      -13.525       15.296       40.555       17.327      233.977     1644.695      300.215        0.284        0.109       57.570       12.230        0.045      336.864        8.451      869.514
01/19/2022  17:12:00      -30.100       78.854      -11.546       26.673       25.769       23.704      711.427      664.048      561.894        0.460        0.097       84.404       12.401        0.022      337.050        8.764      869.527
01/19/2022  17:13:00      -18.764       52.898      -10.954       27.850       33.669       18.444      775.623     1133.610      340.171        0.276        0.112       56.127       11.311        0.041      336.867        8.457      869.544
01/19/2022  17:14:00      -83.393       12.119      -19.948       28.572       36.659       18.220      816.384     1343.849      331.976        0.500        0.125       84.269       13.579        0.026      336.741        8.246      869.558
01/19/2022  17:15:00      -38.503       34.125       -4.197       28.005       23.274       25.735      784.266      541.701      662.310        0.233        0.099       51.449       18.701        0.132      336.699        8.177      869.574
01/19/2022  17:16:00      -88.221       20.434      -24.692       50.874       28.999       29.077     2588.212      840.926      845.490        0.654        0.214       90.557       24.183        0.071      336.593        8.001      869.589
01/19/2022  17:17:00      -92.484       37.065      -19.645       51.515       30.262       28.540     2653.813      915.818      814.534        0.735        0.219       99.635       29.668        0.089      336.481        7.811      869.595
01/19/2022  17:18:00     -126.169       46.018      -28.917       39.010       31.191       22.466     1521.795      972.879      504.717        1.094        0.150      134.300        9.230        0.005      336.520        7.876      869.617
01/19/2022  17:19:00      -45.973       28.858      -22.058       50.903       38.934       33.793     2591.138     1515.823     1141.953        0.434        0.262       54.280       25.291        0.217      336.486        7.819      869.633
01/19/2022  17:20:00      -41.623       -1.866      -21.856      100.023       40.838       26.673    10004.579     1667.750      711.431        0.730        0.619       41.665       33.127        0.632      336.335        7.567      869.648
01/19/2022  17:21:00     -122.483       43.564      -22.525       62.892       54.356       41.527     3955.358     2954.605     1724.476        1.302        0.432      130.000       13.855        0.011      336.243        7.412      869.665
01/19/2022  17:22:00      -76.904       64.102      -26.069       58.734       34.294       33.472     3449.679     1176.071     1120.354        0.822        0.287      100.117       28.636        0.082      336.262        7.444      869.681
01/19/2022  17:23:00      -33.080       51.526      -20.467       29.370       55.022       33.838      862.603     3027.404     1145.009        0.460        0.252       61.231       28.637        0.219      336.434        7.732      869.694
01/19/2022  17:24:00      -18.882       63.023      -12.959       38.602       45.773       32.454     1490.099     2095.160     1053.262        0.457        0.232       65.790       26.560        0.163      336.341        7.576      869.702
01/19/2022  17:25:00       14.995       -0.503        6.981       33.818       44.920       27.623     1143.627     2017.840      763.055        0.210        0.196       15.004       12.720        0.719      336.145        7.249      869.711
01/19/2022  17:26:00       -6.229       11.965      -16.359       41.787       40.087       28.059     1746.192     1606.985      787.300        0.229        0.207       13.489       12.335        0.836      336.153        7.263      869.714
01/19/2022  17:27:00      -50.769       11.196       -9.478       58.846       32.956       27.002     3462.793     1086.103      729.130        0.403        0.264       51.988       31.896        0.376      336.146        7.251      869.731
01/19/2022  17:28:00      -24.825       21.854       -5.430       32.272       24.786       21.484     1041.458      614.350      461.566        0.162        0.106       33.074       16.958        0.263      336.367        7.622      869.732
01/19/2022  17:29:00       15.695        0.143        2.217       18.570       16.180       24.202      344.857      261.793      585.739        0.072        0.060       15.695        5.398        0.118      336.133        7.230      869.737
01/19/2022  17:30:00      -62.026        4.190      -18.641       41.974       50.515       24.545     1761.788     2551.754      602.455        0.456        0.246       62.168       19.490        0.098      336.099        7.171      869.749
01/19/2022  17:31:00      -26.620       19.952       -4.528       31.775       37.046       25.551     1009.626     1372.406      652.870        0.208        0.152       33.267       18.059        0.295      336.151        7.259      869.765
01/19/2022  17:32:00      -10.300        0.494       -4.423       40.217       30.194       19.666     1617.391      911.669      386.744        0.152        0.146       10.312       12.187        1.397      336.031        7.059      869.775
01/19/2022  17:33:00      -43.848      -15.400      -29.472       45.275       49.680       25.894     2049.809     2468.135      670.500        0.411        0.259       46.474       23.422        0.254      336.132        7.229      869.792
01/19/2022  17:34:00      -39.269       16.739      -11.853       51.020       41.701       29.133     2603.072     1738.954      848.729        0.358        0.260       42.688       24.770        0.337      336.067        7.119      869.808
01/19/2022  17:35:00      -97.371       26.065      -14.720       63.924       40.687       26.277     4086.232     1655.471      690.476        0.840        0.322      100.799       13.279        0.017      336.034        7.065      869.816
01/19/2022  17:36:00      -54.962       18.573      -14.620       36.998       35.819       26.674     1368.868     1283.025      711.495        0.347        0.168       58.015       21.740        0.140      336.049        7.089      869.845
01/19/2022  17:37:00      -49.509       35.811       -6.683       55.344       55.514       27.452     3062.940     3081.822      753.593        0.534        0.345       61.103       24.788        0.165      336.069        7.122      869.863
01/19/2022  17:38:00      -56.189       92.896      -17.367       58.240       33.407       28.394     3391.935     1116.054      806.234        0.870        0.266      108.567       25.047        0.053      336.064        7.116      869.888
01/19/2022  17:39:00      -45.301      167.325      -25.864       51.498       68.720       39.935     2652.082     4722.393     1594.772        1.984        0.448      173.349       24.297        0.020      335.903        6.845      869.905
01/19/2022  17:40:00      -56.252      132.610      -18.220       45.513       83.244       35.719     2071.423     6929.511     1275.855        1.568        0.514      144.048       33.542        0.054      336.096        7.166      869.912
01/19/2022  17:41:00      -57.941      128.063      -19.679       40.014       83.773       30.378     1601.086     7017.984      922.833        1.484        0.477      140.561       20.578        0.021      336.076        7.134      869.917
01/19/2022  17:42:00      -69.044       27.581      -12.826       58.436       37.171       32.653     3414.809     1381.715     1066.228        0.578        0.293       74.349       23.659        0.101      336.165        7.285      869.919
01/19/2022  17:43:00      -42.780       92.459      -11.125       40.034       41.427       29.896     1602.713     1716.229      893.785        0.736        0.211      101.876       24.574        0.058      336.219        7.373      869.926
01/19/2022  17:44:00      -49.108       89.563      -12.186       35.579       44.144       31.682     1265.896     1948.700     1003.741        0.740        0.211      102.143       10.363        0.010      336.164        7.282      869.938
01/19/2022  17:45:00      -58.774       93.958      -17.885       60.584       50.617       38.167     3670.453     2562.063     1456.722        1.014        0.384      110.826       30.877        0.078      336.158        7.272      869.962
01/19/2022  17:46:00      -33.013      127.884      -13.687       47.286       66.257       20.539     2235.942     4390.005      421.856        1.234        0.352      132.077       15.111        0.013      336.064        7.116      869.982
01/19/2022  17:47:00      -40.667      140.403      -13.034       63.899       45.018       27.699     4083.026     2026.655      767.238        1.421        0.344      146.174       18.432        0.016      336.134        7.233      870.008
01/19/2022  17:48:00      -12.405      159.393      -15.017       49.755       52.789       31.914     2475.517     2786.658     1018.525        1.603        0.314      159.875       27.424        0.029      335.992        6.996      870.024
01/19/2022  17:49:00      -31.599       55.459      -17.682       44.389       45.909       27.077     1970.396     2107.624      733.165        0.460        0.241       63.829       20.224        0.100      336.165        7.282      870.040
01/19/2022  17:50:00       -7.502       74.970      -15.930       32.168       33.927       27.320     1034.759     1151.025      746.391        0.443        0.147       75.344        6.799        0.008      336.031        7.060      870.051
01/19/2022  17:51:00      -10.820      156.435      -20.013       49.836       51.159       26.739     2483.615     2617.292      714.975        1.540        0.291      156.809       12.521        0.006      336.036        7.068      870.059
01/19/2022  17:52:00       -5.882       22.200      -13.535       21.762       39.049       17.994      473.564     1524.824      323.777        0.152        0.116       22.966       14.965        0.425      335.939        6.908      870.064
01/19/2022  17:53:00        1.233       72.662       -9.190       20.638       45.685       18.404      425.920     2087.147      338.703        0.411        0.143       72.672       13.288        0.033      335.955        6.933      870.071
01/19/2022  17:54:00        3.180       92.892      -10.869       35.633       39.337       18.496     1269.729     1547.368      342.097        0.596        0.158       92.946       17.634        0.036      335.968        6.956      870.075
01/19/2022  17:55:00        0.620      110.741       -3.378       48.856       39.241       28.711     2386.912     1539.836      824.349        0.851        0.238      110.743       16.181        0.021      336.020        7.041      870.080
01/19/2022  17:56:00       11.173       92.751      -13.455       23.870       31.228       16.721      569.796      975.209      279.579        0.537        0.091       93.421       10.790        0.013      335.995        6.999      870.079
01/19/2022  17:57:00        1.775       66.723       -6.746       39.626       34.766       21.569     1570.190     1208.681      465.217        0.387        0.162       66.747       18.426        0.076      336.070        7.125      870.075
01/19/2022  17:58:00      -27.460       46.398       -0.549       31.500       38.700       18.209      992.244     1497.691      331.582        0.286        0.141       53.915       15.745        0.085      336.189        7.323      870.088
01/19/2022  17:59:00      -25.703      131.667      -19.970       50.544       51.551       33.270     2554.673     2657.475     1106.861        1.236        0.316      134.152       15.337        0.013      336.082        7.145      870.099
01/19/2022  18:00:00      -45.418      106.450      -18.623       36.660       46.262       28.117     1343.941     2140.147      790.568        0.901        0.214      115.734       14.162        0.015      336.041        7.076      870.121
01/19/2022  18:01:00      -25.186      124.123      -16.023       39.609       38.070       27.599     1568.908     1449.302      761.721        1.004        0.189      126.652        7.914        0.004      336.049        7.090      870.147
01/19/2022  18:02:00      -25.900      135.798      -17.202       47.217       56.539       27.517     2229.433     3196.616      757.167        1.279        0.309      138.246       17.206        0.015      336.011        7.027      870.164
01/19/2022  18:03:00        1.917       45.455        1.465       23.996       34.462       23.368      575.796     1187.646      546.068        0.219        0.115       45.495       18.509        0.166      335.893        6.830      870.192
01/19/2022  18:04:00       30.790       31.974      -10.787       16.962       34.372       12.341      287.694     1181.443      152.311        0.185        0.081       44.389        8.232        0.034      335.792        6.661      870.210
01/19/2022  18:05:00       32.327       11.615       -1.721       20.299       38.506       14.486      412.041     1482.680      209.858        0.164        0.105       34.351       15.136        0.194      335.726        6.551      870.241
01/19/2022  18:06:00       36.421       20.727       -2.664       36.536       28.525       23.979     1334.911      813.673      575.010        0.224        0.136       41.906       18.695        0.199      335.631        6.394      870.264
01/19/2022  18:07:00       47.924       -3.474      -16.585       38.586       27.938       26.847     1488.854      780.536      720.748        0.279        0.150       48.050       17.271        0.129      335.531        6.226      870.280
01/19/2022  18:08:00       67.058      -23.312      -14.444       29.688       25.005       19.484      881.404      625.236      379.627        0.357        0.094       70.995       13.060        0.034      335.547        6.253      870.298
01/19/2022  18:09:00       32.619       10.868       -6.778       23.455       32.623       29.098      550.129     1064.247      846.678        0.184        0.123       34.382        6.222        0.033      335.650        6.426      870.313
01/19/2022  18:10:00      -10.806      -25.105       -4.689       22.966       26.928       15.871      527.447      725.124      251.875        0.114        0.075       27.331       13.382        0.240      335.845        6.751      870.338
01/19/2022  18:11:00       25.442       -4.340       -2.371       18.150       19.249       17.217      329.425      370.515      296.434        0.083        0.050       25.810       11.372        0.194      335.771        6.624      870.358
01/19/2022  18:12:00       14.332       14.094       -8.886       14.650       15.433        8.244      214.614      238.178       67.959        0.050        0.026       20.101        6.576        0.107      335.659        6.438      870.380
01/19/2022  18:13:00       -5.875      -14.723      -11.665        9.973       11.766       10.970       99.467      138.444      120.330        0.037        0.018       15.851        5.124        0.104      335.687        6.488      870.397
01/19/2022  18:14:00       -6.483      -37.850      -11.800       15.175       13.127        9.989      230.269      172.324       99.776        0.106        0.025       38.401        4.821        0.016      335.760        6.608      870.406
01/19/2022  18:15:00       17.208      -22.384      -17.300       10.801       11.049        9.062      116.664      122.081       82.124        0.071        0.016       28.234        5.983        0.045      335.686        6.484      870.432
01/19/2022  18:16:00       26.571      -24.203      -11.235       14.146        8.614        9.162      200.115       74.209       83.938        0.089        0.018       35.941        8.918        0.062      335.731        6.558      870.449
01/19/2022  18:17:00       40.471      -28.848      -18.928       14.677       15.980       15.624      215.403      255.359      244.098        0.177        0.036       49.700        6.843        0.019      335.647        6.419      870.455
01/19/2022  18:18:00       21.244        3.083       -5.667       15.157       16.855       20.125      229.745      284.088      405.001        0.071        0.046       21.467       12.831        0.357      335.572        6.294      870.461
01/19/2022  18:19:00      -29.527      -24.769      -17.323       23.220       23.436       19.122      539.153      549.241      365.663        0.162        0.073       38.541       14.213        0.136      335.732        6.561      870.458
01/19/2022  18:20:00      -28.535      -23.338       -3.963       23.527       14.094       15.568      553.522      198.645      242.364        0.118        0.050       36.863       12.694        0.119      335.753        6.597      870.470
01/19/2022  18:21:00       31.864        7.706       -8.783       14.493       27.628       12.817      210.038      763.280      164.267        0.114        0.057       32.782        5.180        0.025      335.650        6.424      870.488
01/19/2022  18:22:00        5.031       11.041       -4.284       10.936       18.246       11.276      119.602      332.907      127.144        0.037        0.029       12.133        3.571        0.087      335.485        6.151      870.516
01/19/2022  18:23:00       21.842       -9.116       -9.281       30.915       24.376       20.055      955.750      594.185      402.201        0.130        0.098       23.668       12.540        0.281      335.571        6.293      870.519
01/19/2022  18:24:00        8.589       -3.286       -2.827       31.865       14.681       15.833     1015.392      215.527      250.669        0.079        0.074        9.196       17.871        3.776      335.427        6.054      870.534
01/19/2022  18:25:00        3.108      -15.821      -12.398       20.793       28.569       20.418      432.345      816.169      416.912        0.104        0.083       16.123       13.349        0.686      335.450        6.091      870.543
01/19/2022  18:26:00       22.809        9.930      -10.242       23.999       23.936       17.413      575.956      572.939      303.197        0.109        0.073       24.877       14.436        0.337      335.368        5.955      870.553
01/19/2022  18:27:00       48.486       18.276       -7.245       20.860       21.711       18.981      435.122      471.386      360.269        0.200        0.063       51.816        7.824        0.023      335.330        5.891      870.575
01/19/2022  18:28:00       41.354       -9.277      -15.832       27.259       25.234       14.144      743.060      636.759      200.054        0.181        0.079       42.382        7.414        0.031      335.399        6.006      870.578
01/19/2022  18:29:00       39.893      -12.801      -15.175       36.170       17.386       18.460     1308.233      302.263      340.779        0.197        0.098       41.897       13.107        0.098      335.304        5.848      870.589
01/19/2022  18:30:00        8.017      -11.865      -19.275        9.937       14.078       10.168       98.748      198.194      103.396        0.049        0.020       14.320        4.839        0.114      335.404        6.014      870.610
01/19/2022  18:31:00       17.924       -2.746      -13.521       27.065       19.504       19.113      732.497      380.391      365.313        0.099        0.074       18.134       14.669        0.654      335.342        5.912      870.616
01/19/2022  18:32:00        7.331        9.275       -3.838       27.457       29.290       20.365      753.875      857.878      414.718        0.109        0.101       11.823       15.026        1.615      335.357        5.935      870.642
01/19/2022  18:33:00       86.398        5.649       -8.366       53.003       34.623       17.961     2809.316     1198.729      322.603        0.595        0.217       86.583       14.421        0.028      335.185        5.651      870.671
01/19/2022  18:34:00       96.294       55.862      -25.207       24.982       20.773       16.474      624.123      431.512      271.405        0.718        0.066      111.325       12.222        0.012      335.239        5.740      870.691
01/19/2022  18:35:00       28.571       76.655       -7.490       36.423       45.250       22.020     1326.645     2047.553      484.864        0.530        0.193       81.806       21.717        0.070      335.299        5.842      870.710
01/19/2022  18:36:00       -6.520       80.390      -17.138       42.661       41.160       26.787     1819.945     1694.132      717.559        0.551        0.212       80.654       19.199        0.057      335.482        6.147      870.710
01/19/2022  18:37:00      -27.816      158.091      -26.194       42.002       55.626       23.185     1764.205     3094.220      537.529        1.592        0.270      160.519       16.504        0.011      335.556        6.267      870.703
01/19/2022  18:38:00      -30.974      119.317       -6.732       26.064       43.484       24.267      679.346     1890.848      588.906        0.920        0.158      123.271       20.876        0.029      335.555        6.267      870.703
01/19/2022  18:39:00      -35.634      115.670      -13.120       37.780      108.807       23.042     1427.333    11838.881      530.916        1.431        0.690      121.034       31.218        0.067      335.578        6.304      870.716
01/19/2022  18:40:00       -6.588      173.051      -21.494       50.718       64.856       23.567     2572.360     4206.241      555.384        1.889        0.367      173.176       18.584        0.012      335.632        6.394      870.731
01/19/2022  18:41:00       10.287      152.580      -26.351       53.110       77.146       35.551     2820.653     5951.578     1263.861        1.706        0.502      152.926       23.578        0.024      335.581        6.309      870.745
01/19/2022  18:42:00      -23.471      140.975      -12.298       53.186       61.924       46.036     2828.803     3834.580     2119.328        1.468        0.439      142.915       36.973        0.067      335.610        6.357      870.756
01/19/2022  18:43:00      -45.344      127.805      -13.845       48.266       49.464       27.706     2329.567     2446.638      767.621        1.206        0.277      135.610       14.910        0.012      335.680        6.474      870.762
01/19/2022  18:44:00      -20.863      111.219      -21.347       54.883       37.519       30.602     3012.177     1407.665      936.509        0.931        0.268      113.158       14.920        0.017      335.637        6.404      870.771
01/19/2022  18:45:00      -27.668      109.763      -18.338       46.145       42.782       33.204     2129.392     1830.290     1102.490        0.910        0.253      113.196       23.276        0.042      335.692        6.495      870.783
01/19/2022  18:46:00       12.999      156.942      -12.099       57.211       57.835       27.886     3273.114     3344.903      777.601        1.617        0.370      157.479       23.866        0.023      335.608        6.354      870.793
01/19/2022  18:47:00      -54.458      138.982      -21.529       65.960       62.194       33.596     4350.711     3868.104     1128.709        1.604        0.467      149.270       21.146        0.020      335.653        6.430      870.811
01/19/2022  18:48:00        1.689      142.507      -15.123       61.516       72.223       35.091     3784.177     5216.229     1231.379        1.538        0.512      142.517       32.434        0.052      335.586        6.317      870.820
01/19/2022  18:49:00      -37.978      134.047      -20.750       54.989       47.943       34.332     3023.800     2298.542     1178.718        1.317        0.325      139.323       29.089        0.044      335.691        6.493      870.823
01/19/2022  18:50:00        0.336      195.646      -17.942       48.725       47.080       31.033     2374.174     2216.517      963.041        2.208        0.278      195.646       17.310        0.008      335.577        6.302      870.835
01/19/2022  18:51:00      -14.799      155.057      -21.872       49.171       63.538       37.158     2417.768     4037.137     1380.722        1.629        0.392      155.761       28.523        0.034      335.631        6.391      870.840
01/19/2022  18:52:00      -15.314      151.031      -18.700       68.864       69.293       40.004     4742.298     4801.522     1600.311        1.727        0.557      151.805       25.990        0.029      335.661        6.440      870.857
01/19/2022  18:53:00      -45.420      186.785      -30.454       54.819       76.877       38.493     3005.117     5910.141     1481.713        2.414        0.520      192.228       27.044        0.020      335.640        6.405      870.870
01/19/2022  18:54:00       -4.329      217.893      -26.198       61.625       84.077       37.170     3797.612     7068.961     1381.595        3.021        0.612      217.936       33.290        0.023      335.692        6.492      870.884
01/19/2022  18:55:00        2.367      122.102      -15.310       59.358       54.101       33.801     3523.386     2926.970     1142.521        1.137        0.380      122.125       28.370        0.054      335.639        6.405      870.900
01/19/2022  18:56:00       43.919      172.396      -28.280       64.545       49.435       29.916     4166.003     2443.773      894.984        1.998        0.375      177.902       20.070        0.013      335.618        6.370      870.908
01/19/2022  18:57:00       40.533      172.270      -33.918       81.179       57.244       41.694     6590.079     3276.878     1738.387        2.204        0.580      176.974       34.360        0.038      335.631        6.391      870.912
01/19/2022  18:58:00       31.482      147.285      -21.206       64.031       75.697       39.860     4099.915     5729.993     1588.792        1.727        0.571      150.612       39.962        0.070      335.542        6.245      870.920
01/19/2022  18:59:00       11.144      170.809      -27.553       84.557       53.599       36.747     7149.948     2872.811     1350.341        2.071        0.569      171.172       21.342        0.016      335.598        6.337      870.930
01/19/2022  19:00:00      -10.755      101.421      -24.611       44.083       39.313       26.447     1943.279     1545.528      699.428        0.760        0.209      101.990       15.618        0.023      335.673        6.463      870.939
01/19/2022  19:01:00       11.379      123.628      -13.274       41.541       39.440       26.715     1725.664     1555.539      713.674        0.979        0.200      124.151       16.235        0.017      335.549        6.257      870.945
01/19/2022  19:02:00       -5.914      133.391      -23.757       33.291       37.749       28.499     1108.319     1425.003      812.171        1.087        0.167      133.522       21.986        0.027      335.625        6.383      870.962
01/19/2022  19:03:00      -34.753      153.931      -19.228       51.944       49.508       43.433     2698.191     2450.994     1886.421        1.615        0.352      157.806       23.946        0.023      335.621        6.375      870.979
01/19/2022  19:04:00      -36.915      109.487      -20.754       47.694       69.269       27.018     2274.747     4798.141      729.955        1.079        0.390      115.543       10.512        0.008      335.675        6.467      870.995
01/19/2022  19:05:00      -42.055      152.656      -27.134       40.000       73.099       31.997     1600.013     5343.478     1023.830        1.689        0.398      158.343       34.102        0.046      335.699        6.505      871.004
01/19/2022  19:06:00      -52.355      161.108      -12.905       51.738       70.620       34.428     2676.851     4987.220     1185.270        1.885        0.442      169.402       23.570        0.019      335.678        6.470      871.018
01/19/2022  19:07:00      -19.199      180.026      -12.187       57.086       48.172       36.186     3258.848     2320.561     1309.425        1.991        0.344      181.047       26.871        0.022      335.569        6.289      871.038
01/19/2022  19:08:00      -44.339      146.823      -24.834       53.952       57.738       29.255     2910.780     3333.730      855.837        1.562        0.355      153.372       16.592        0.012      335.732        6.561      871.052
01/19/2022  19:09:00      -48.298      155.709      -13.183       33.690       73.648       33.364     1134.996     5423.980     1113.153        1.721        0.384      163.028       33.075        0.041      335.744        6.580      871.060
01/19/2022  19:10:00      -13.570      106.590      -13.140       46.815       59.195       28.104     2191.616     3504.052      789.828        0.910        0.324      107.450       14.608        0.018      335.591        6.328      871.072
01/19/2022  19:11:00      -45.369      118.306      -27.459       68.697       82.731       28.995     4719.266     6844.345      840.728        1.460        0.620      126.707       18.962        0.022      335.536        6.233      871.088
01/19/2022  19:12:00      -36.803       82.813      -21.044       60.065       40.882       25.426     3607.748     1671.369      646.478        0.729        0.296       90.622       10.896        0.014      335.502        6.179      871.102
01/19/2022  19:13:00      -28.884       77.632      -13.898       43.444       55.932       26.583     1887.370     3128.379      706.633        0.639        0.286       82.831       25.338        0.094      335.545        6.251      871.113
01/19/2022  19:14:00      -41.365       85.326      -23.254       40.188       56.070       30.910     1615.061     3143.866      955.453        0.762        0.286       94.824       18.349        0.037      335.674        6.465      871.120
01/19/2022  19:15:00       -7.480       57.216       -5.993       36.180       41.260       31.586     1309.018     1702.384      997.662        0.369        0.200       57.703       25.490        0.195      335.486        6.151      871.125
01/19/2022  19:16:00      -46.568       46.066      -17.489       49.450       42.950       32.498     2445.311     1844.715     1056.101        0.497        0.267       65.503       29.499        0.203      335.517        6.204      871.136
01/19/2022  19:17:00        5.448      114.140      -11.731       36.098       39.650       21.562     1303.050     1572.124      464.934        0.827        0.167      114.269       17.061        0.022      335.502        6.179      871.150
01/19/2022  19:18:00      -24.885      124.277      -24.560       56.032       57.150       25.031     3139.531     3266.178      626.567        1.185        0.352      126.744       16.271        0.016      335.554        6.264      871.171
01/19/2022  19:19:00      -11.233       42.741       -9.477       60.393       36.049       22.307     3647.261     1299.532      497.606        0.374        0.272       44.193       16.402        0.138      335.532        6.229      871.180
01/19/2022  19:20:00      -53.678       70.471      -14.289       62.720       40.279       30.123     3933.747     1622.415      907.383        0.726        0.323       88.586        9.722        0.012      335.470        6.124      871.188
01/19/2022  19:21:00      -26.996      116.147      -13.274       58.511       55.602       29.961     3423.563     3091.623      897.676        1.090        0.371      119.243       20.009        0.028      335.586        6.318      871.194
01/19/2022  19:22:00       18.793      147.110      -18.453       56.236       81.019       25.211     3162.468     6564.000      635.594        1.635        0.518      148.306       30.546        0.042      335.502        6.178      871.197
01/19/2022  19:23:00       -0.588      115.564      -19.110       26.509       48.370       21.132      702.722     2339.692      446.565        0.860        0.174      115.566       10.022        0.008      335.492        6.162      871.203
01/19/2022  19:24:00       -9.635       56.737       -5.571       56.330       52.039       33.591     3173.099     2708.072     1128.349        0.517        0.350       57.549       25.984        0.204      335.521        6.211      871.206
01/19/2022  19:25:00      -20.544      164.823      -25.846       29.810       78.721       27.575      888.614     6197.058      760.389        1.805        0.392      166.098       18.825        0.013      335.520        6.207      871.202
01/19/2022  19:26:00      -15.896       91.629      -18.188       57.570       35.716       30.846     3314.272     1275.631      951.464        0.726        0.277       92.998       24.723        0.071      335.569        6.291      871.204
01/19/2022  19:27:00      -23.098       68.521      -19.528       41.780       41.947       24.225     1745.539     1759.559      586.870        0.485        0.205       72.309       13.929        0.037      335.530        6.227      871.202
01/19/2022  19:28:00      -29.854      108.841      -18.115       43.770       38.742       34.613     1915.846     1500.968     1198.051        0.884        0.231      112.861       27.540        0.060      335.634        6.398      871.203
01/19/2022  19:29:00       -9.158      122.292       -3.541       60.128       68.886       34.747     3615.401     4745.299     1207.329        1.231        0.478      122.634       31.340        0.065      335.549        6.255      871.215
01/19/2022  19:30:00       -3.412      116.876      -17.995       59.129       49.594       29.396     3496.239     2459.559      864.112        1.041        0.341      116.926       16.552        0.020      335.533        6.231      871.239
01/19/2022  19:31:00      -50.077       58.582       -9.881       37.277       37.719       27.463     1389.538     1422.756      754.230        0.480        0.178       77.068       11.990        0.024      335.586        6.318      871.252
01/19/2022  19:32:00      -16.065       24.605       -6.617       60.593       45.226       26.877     3671.507     2045.395      722.355        0.367        0.322       29.385       28.912        0.968      335.468        6.121      871.262
01/19/2022  19:33:00      -19.497       84.395      -14.689       41.102       70.903       25.905     1689.376     5027.218      671.050        0.755        0.369       86.618       31.796        0.135      335.514        6.198      871.282
01/19/2022  19:34:00      -46.506       50.637      -11.031       39.371       45.594       26.623     1550.039     2078.843      708.784        0.459        0.217       68.753       22.246        0.105      335.518        6.204      871.292
01/19/2022  19:35:00      -42.246       61.728      -13.287       41.057       54.158       31.812     1685.702     2933.134     1011.987        0.570        0.282       74.800       18.704        0.063      335.573        6.296      871.293
01/19/2022  19:36:00      -33.767      104.803      -10.814       46.842       64.306       31.357     2194.184     4135.214      983.240        0.978        0.366      110.109       27.240        0.061      335.533        6.229      871.287
01/19/2022  19:37:00      -26.610       94.733      -23.251       42.764       60.702       32.041     1828.784     3684.792     1026.607        0.838        0.327       98.399       19.197        0.038      335.338        5.905      871.289
01/19/2022  19:38:00      -38.304       30.549      -12.482       47.148       34.045       28.713     2222.962     1159.091      824.422        0.338        0.210       48.994       17.584        0.129      335.338        5.906      871.290
01/19/2022  19:39:00      -67.519      103.317      -16.810       39.304       46.109       26.748     1544.771     2126.008      715.440        0.995        0.219      123.423        8.525        0.005      335.480        6.142      871.288
01/19/2022  19:40:00      -18.462      122.339       -8.887       43.051       43.404       28.191     1853.410     1883.898      794.705        0.996        0.227      123.724       17.940        0.021      335.321        5.876      871.299
01/19/2022  19:41:00      -65.846      127.873      -27.648       59.603       56.240       35.255     3552.475     3162.993     1242.899        1.470        0.398      143.830       12.430        0.007      335.392        5.994      871.301
01/19/2022  19:42:00      -63.810      114.378      -14.206       59.800       56.568       37.934     3576.007     3199.954     1438.981        1.278        0.411      130.973       19.702        0.023      335.398        6.005      871.307
01/19/2022  19:43:00      -76.896      124.020       -8.602       52.784       41.358       32.813     2786.126     1710.459     1076.684        1.347        0.279      145.924       25.070        0.030      335.381        5.975      871.310
01/19/2022  19:44:00      -39.683      109.367      -10.117       62.427       67.616       29.162     3897.099     4571.955      850.445        1.148        0.466      116.343       20.595        0.031      335.238        5.738      871.317
01/19/2022  19:45:00      -19.454      185.406      -25.312       55.848       64.563       39.047     3118.980     4168.338     1524.656        2.210        0.441      186.423       31.417        0.028      335.384        5.979      871.315
01/19/2022  19:46:00      -11.217      104.812      -13.643       31.927       40.496       28.678     1019.321     1639.965      822.437        0.739        0.174      105.411       15.231        0.021      335.363        5.947      871.318
01/19/2022  19:47:00      -64.993       36.254      -12.585       30.265       28.548       21.291      915.984      815.008      453.294        0.394        0.109       74.421       12.802        0.030      335.324        5.881      871.331
01/19/2022  19:48:00      -45.684        9.242      -27.169       32.187       27.606       16.749     1036.003      762.082      280.525        0.249        0.104       46.609       12.167        0.068      335.182        5.644      871.333
01/19/2022  19:49:00      -74.348       48.498      -12.163       35.532       43.228       28.221     1262.506     1868.660      796.451        0.598        0.196       88.768       24.019        0.073      335.297        5.836      871.334
01/19/2022  19:50:00      -51.498       55.517       -2.048       43.379       36.544       24.126     1881.729     1335.434      582.085        0.477        0.190       75.725       17.943        0.056      335.337        5.905      871.325
01/19/2022  19:51:00      -13.946        3.836       -0.357       26.679       30.211       24.042      711.792      912.714      578.034        0.121        0.110       14.464        7.822        0.292      335.277        5.805      871.315
01/19/2022  19:52:00      -13.543      -10.850       -4.878       16.402       15.529       13.012      269.022      241.159      169.316        0.050        0.034       17.353        3.596        0.043      335.125        5.552      871.321
01/19/2022  19:53:00      -18.457      -16.310       -7.118       19.821       22.461       14.872      392.882      504.514      221.180        0.089        0.056       24.631       17.559        0.508      335.077        5.472      871.313
01/19/2022  19:54:00      -19.749      -15.195       -8.303       17.852       21.416       13.029      318.698      458.653      169.762        0.082        0.047       24.918       11.808        0.225      335.138        5.572      871.304
01/19/2022  19:55:00      -18.702      -13.674      -12.163       14.040       11.674       11.339      197.110      136.291      128.569        0.057        0.023       23.168        8.380        0.131      335.102        5.514      871.297
01/19/2022  19:56:00      -33.767      -19.904      -16.989       16.300       19.881        8.926      265.701      395.260       79.668        0.128        0.037       39.197        8.487        0.047      335.116        5.536      871.298
01/19/2022  19:57:00      -35.753        5.903       -8.941       36.269       21.192       13.990     1315.421      449.111      195.711        0.168        0.098       36.237        6.393        0.031      335.077        5.473      871.309
01/19/2022  19:58:00       -8.872       -9.958       -4.082       27.433       13.754       12.867      752.566      189.182      165.571        0.065        0.055       13.337       14.765        1.226      335.036        5.403      871.314
01/19/2022  19:59:00      -36.201      -14.646       -8.600       24.422       17.317       19.718      596.443      299.876      388.798        0.144        0.064       39.052       13.178        0.114      335.089        5.491      871.322
01/19/2022  20:00:00      -21.695      -37.053      -14.909       14.347       15.493       12.079      205.823      240.044      145.899        0.133        0.030       42.937        9.280        0.047      335.063        5.451      871.326
01/19/2022  20:01:00      -32.941      -34.104      -21.446       29.877       19.254       10.746      892.642      370.705      115.469        0.204        0.069       47.415       14.864        0.098      335.024        5.384      871.328
01/19/2022  20:02:00        7.444       -0.117       -7.943       20.262       18.977       14.592      410.530      360.142      212.927        0.055        0.049        7.445       13.157        3.123      334.949        5.259      871.333
01/19/2022  20:03:00      -24.698        1.552      -11.851       17.070       19.231       13.545      291.385      369.815      183.466        0.080        0.042       24.747        7.978        0.104      334.927        5.224      871.344
01/19/2022  20:04:00        6.430      -11.137       -3.393        8.305        9.162        6.995       68.970       83.939       48.926        0.019        0.010       12.860        4.535        0.124      334.918        5.209      871.352
01/19/2022  20:05:00       -1.946       -7.797       -5.272        7.125       19.696        6.835       50.765      387.950       46.721        0.029        0.024        8.036        6.164        0.588      334.884        5.152      871.361
01/19/2022  20:06:00      -36.884       17.368       -1.605       20.903       14.811       11.922      436.949      219.374      142.125        0.123        0.040       40.768        9.013        0.049      334.834        5.070      871.373
01/19/2022  20:07:00        3.060      -10.272       -1.627       12.138        8.023       10.805      147.320       64.374      116.748        0.022        0.016       10.719        6.589        0.378      334.762        4.947      871.380
01/19/2022  20:08:00        1.024       -0.885        2.014       19.715       15.450        8.627      388.666      238.706       74.422        0.035        0.035        1.353        4.066        9.028      334.683        4.817      871.384
01/19/2022  20:09:00      -19.712       -0.617      -14.547       25.170       21.565       10.457      633.512      465.048      109.357        0.090        0.060       19.721       13.437        0.464      334.557        4.605      871.387
01/19/2022  20:10:00       -8.600      -10.625      -12.508       16.982       16.502       10.470      288.395      272.321      109.613        0.051        0.034       13.670        8.653        0.401      334.537        4.573      871.384
01/19/2022  20:11:00      -18.834      -12.801      -12.024       13.189       14.463        9.613      173.946      209.177       92.411        0.057        0.024       22.773        5.501        0.058      334.540        4.579      871.389
01/19/2022  20:12:00        1.020        0.215       -9.928       10.077       10.394        7.701      101.547      108.033       59.302        0.018        0.013        1.042        5.583       28.688      334.547        4.591      871.408
01/19/2022  20:13:00      -13.188       -9.670       -2.847       14.736       13.375        9.160      217.141      178.893       83.900        0.038        0.024       16.353        7.322        0.200      334.646        4.756      871.418
01/19/2022  20:14:00      -37.555       -6.665       -8.797       26.965       16.424       20.025      727.124      269.749      401.007        0.146        0.070       38.142       14.755        0.150      334.613        4.700      871.430
01/19/2022  20:15:00      -20.384        7.177       -4.060       36.585       24.252       26.842     1338.496      588.166      720.481        0.156        0.132       21.611       18.679        0.747      334.461        4.447      871.436
01/19/2022  20:16:00      -40.214      -17.068       -6.672       30.689       27.566       22.332      941.801      759.886      498.702        0.208        0.110       43.686       15.275        0.122      334.438        4.409      871.444
01/19/2022  20:17:00      -61.946        8.700       -3.320       41.093       33.712       21.536     1688.634     1136.498      463.811        0.361        0.164       62.554       18.270        0.085      334.453        4.437      871.451
01/19/2022  20:18:00      -61.624       12.265        2.412       41.398       35.665       21.796     1713.831     1271.968      475.054        0.371        0.173       62.833       15.503        0.061      334.474        4.469      871.466
01/19/2022  20:19:00     -103.589       27.768      -11.493       44.882       30.995       22.443     2014.387      960.700      503.700        0.756        0.174      107.246       18.150        0.029      334.476        4.473      871.489
01/19/2022  20:20:00      -63.242       -5.394       -4.195       43.146       36.433       23.062     1861.611     1327.395      531.851        0.388        0.186       63.471       18.917        0.089      334.357        4.276      871.506
01/19/2022  20:21:00     -107.374       14.754        1.167       54.024       30.707       24.620     2918.588      942.940      606.121        0.811        0.223      108.383       19.517        0.032      334.227        4.060      871.527
01/19/2022  20:22:00      -68.538        6.288        1.427       52.709       38.263       22.549     2778.224     1464.050      508.440        0.474        0.238       68.826       18.557        0.073      334.241        4.083      871.549
01/19/2022  20:23:00      -66.354        5.182       -5.437       39.225       27.492       25.047     1538.590      755.801      627.350        0.369        0.146       66.556       21.468        0.104      334.197        4.010      871.564
01/19/2022  20:24:00      -86.170        2.292       -5.200       50.233       31.509       22.799     2523.308      992.839      519.774        0.575        0.202       86.200       17.910        0.043      334.179        3.980      871.578
01/19/2022  20:25:00     -130.171       -7.111      -12.848       73.053       31.396       25.320     5336.687      985.730      641.094        1.206        0.348      130.365       30.329        0.054      334.163        3.953      871.594
01/19/2022  20:26:00     -102.523        8.633       -4.746       71.032       36.149       28.847     5045.481     1306.748      832.128        0.889        0.359      102.886       35.970        0.122      334.096        3.843      871.606
01/19/2022  20:27:00     -138.161       23.695       -5.561       63.514       45.501       28.327     4034.011     2070.310      802.434        1.329        0.345      140.178       22.289        0.025      334.135        3.907      871.603
01/19/2022  20:28:00     -127.863       23.992        6.755       72.309       40.862       33.820     5228.548     1669.673     1143.790        1.250        0.402      130.094       30.170        0.054      334.061        3.784      871.613
01/19/2022  20:29:00     -139.048       32.779        6.244       65.131       40.826       37.136     4242.019     1666.789     1379.052        1.387        0.364      142.859       33.553        0.055      334.017        3.713      871.618
01/19/2022  20:30:00     -146.410       32.252       -4.794       65.471       44.234       26.821     4286.394     1956.656      719.352        1.473        0.348      149.921       22.325        0.022      334.105        3.857      871.623
01/19/2022  20:31:00     -130.272       42.540       -0.647       53.109       42.887       26.901     2820.617     1839.270      723.648        1.208        0.269      137.042       21.053        0.024      334.084        3.824      871.638
01/19/2022  20:32:00     -130.218       22.839       -5.581       58.734       32.802       23.840     3449.725     1075.941      568.364        1.130        0.255      132.206       26.143        0.039      334.202        4.018      871.659
01/19/2022  20:33:00      -80.835        8.657       -4.578       35.897       40.314       24.552     1288.569     1625.195      602.781        0.507        0.176       81.298       17.964        0.049      334.201        4.017      871.681
01/19/2022  20:34:00      -82.184       14.418       -7.395       36.747       28.500       19.103     1350.351      812.274      364.933        0.477        0.126       83.439       16.014        0.037      334.249        4.097      871.698
01/19/2022  20:35:00      -68.398       16.360       -0.343       43.616       26.193       21.530     1902.381      686.075      463.546        0.400        0.153       70.328       19.174        0.074      334.211        4.033      871.713
01/19/2022  20:36:00     -131.636       26.708       -7.222       51.967       34.168       26.412     2700.606     1167.429      697.612        1.133        0.228      134.318       24.015        0.032      334.241        4.083      871.720
01/19/2022  20:37:00     -110.749       20.236       -9.637       46.497       32.466       24.918     2161.972     1054.017      620.919        0.830        0.192      112.582       27.389        0.059      334.260        4.115      871.728
01/19/2022  20:38:00     -129.034       32.861        2.876       51.760       38.366       28.149     2679.102     1471.928      792.372        1.134        0.247      133.152       26.495        0.040      334.216        4.043      871.738
01/19/2022  20:39:00     -102.236       19.113        1.436       65.542       27.972       26.445     4295.723      782.446      699.320        0.830        0.289      104.008       25.344        0.059      334.201        4.016      871.748
01/19/2022  20:40:00      -61.017       12.523        3.040       60.185       35.547       27.778     3622.223     1263.583      771.642        0.477        0.283       62.288       25.686        0.170      334.185        3.991      871.761
01/19/2022  20:41:00      -81.090       24.770       -5.664       45.983       36.607       28.990     2114.482     1340.076      840.420        0.576        0.215       84.789       22.122        0.068      334.147        3.926      871.765
01/19/2022  20:42:00      -42.891       22.198       -3.787       39.587       34.877       26.136     1567.126     1216.438      683.083        0.291        0.173       48.295       15.231        0.099      334.103        3.854      871.773
01/19/2022  20:43:00      -57.958       15.293      -12.066       46.398       31.935       26.767     2152.763     1019.839      716.474        0.381        0.194       59.942       22.918        0.146      334.146        3.927      871.774
01/19/2022  20:44:00     -109.142       25.044      -11.602       39.300       28.632       22.855     1544.459      819.797      522.340        0.778        0.144      111.978       23.875        0.045      334.122        3.884      871.774
01/19/2022  20:45:00      -82.988       10.506       -8.119       24.831       33.292       22.736      616.570     1108.371      516.929        0.465        0.112       83.651       15.520        0.034      334.090        3.834      871.769
01/19/2022  20:46:00      -60.375       15.795       -1.301       33.476       24.131       18.628     1120.615      582.286      347.015        0.297        0.102       62.407       14.057        0.051      334.073        3.804      871.761
01/19/2022  20:47:00      -88.947       12.818       -1.859       45.070       23.265       25.156     2031.283      541.255      632.843        0.564        0.160       89.866       20.985        0.055      334.074        3.807      871.754
01/19/2022  20:48:00      -60.672       21.171        1.631       46.261       25.882       20.943     2140.080      669.887      438.592        0.369        0.162       64.259       19.632        0.093      334.044        3.757      871.742
01/19/2022  20:49:00      -98.661       13.883       -5.127       41.355       19.592       20.518     1710.246      383.856      421.006        0.623        0.126       99.633       19.831        0.040      334.040        3.750      871.735
01/19/2022  20:50:00      -93.063       14.607        4.143       36.246       22.689       18.170     1313.773      514.773      330.161        0.552        0.108       94.202       17.687        0.035      334.142        3.920      871.739
01/19/2022  20:51:00      -67.673        9.951       -7.905       40.860       18.129       15.917     1669.522      328.665      253.340        0.350        0.113       68.401       10.462        0.023      334.110        3.864      871.742
01/19/2022  20:52:00      -71.161       25.982        0.843       39.651       32.067       29.093     1572.174     1028.320      846.380        0.459        0.172       75.756       24.364        0.103      334.003        3.690      871.756
01/19/2022  20:53:00      -69.347       34.254       -4.534       25.255       26.290       19.862      637.797      691.154      394.511        0.386        0.086       77.345       15.757        0.042      333.863        3.458      871.762
01/19/2022  20:54:00      -51.802       17.146        0.428       25.985       25.908       14.072      675.245      671.224      198.033        0.226        0.077       54.566       13.867        0.065      333.915        3.544      871.769
01/19/2022  20:55:00      -62.021       26.143       -6.106       18.078       15.685        9.591      326.813      246.020       91.994        0.262        0.033       67.306        7.758        0.013      333.955        3.611      871.777
01/19/2022  20:56:00      -50.224       10.155       -1.272       31.791       25.086       16.593     1010.685      629.314      275.335        0.227        0.096       51.240       18.954        0.137      333.994        3.675      871.790
01/19/2022  20:57:00      -66.443       23.943       -7.182       21.376       17.315       15.331      456.927      299.798      235.040        0.302        0.050       70.625       12.226        0.030      333.945        3.594      871.801
01/19/2022  20:58:00      -65.784       25.052       -6.261       28.135       18.143       14.540      791.599      329.165      211.401        0.316        0.067       70.393       14.488        0.042      333.908        3.533      871.809
01/19/2022  20:59:00      -87.352       35.605       -8.142       19.115       23.361       13.850      365.388      545.751      191.828        0.503        0.055       94.330        7.596        0.006      333.904        3.524      871.814
01/19/2022  21:00:00      -98.643       31.033      -16.594       32.003       21.168       20.336     1024.211      448.099      413.540        0.643        0.094      103.410       17.442        0.028      333.896        3.513      871.814
01/19/2022  21:01:00      -22.807        0.763       -1.359       28.385       21.043       14.789      805.683      442.822      218.707        0.099        0.073       22.820        9.806        0.185      333.874        3.477      871.828
01/19/2022  21:02:00       -7.038        1.142      -17.819       37.959       28.676       13.693     1440.882      822.326      187.503        0.141        0.123        7.130        6.583        0.852      333.845        3.429      871.846
01/19/2022  21:03:00       -9.454      -14.164       -4.228        8.256       11.075       10.815       68.165      122.650      116.963        0.031        0.015       17.030        3.433        0.041      333.862        3.456      871.853
01/19/2022  21:04:00      -33.096       -9.065      -14.368       16.287       23.704        9.794      265.277      561.874       95.931        0.115        0.046       34.314        6.587        0.037      333.880        3.486      871.862
01/19/2022  21:05:00        2.453       -9.935        1.146        9.517       10.052       11.264       90.572      101.034      126.878        0.021        0.016       10.234        6.919        0.457      333.809        3.368      871.874
01/19/2022  21:06:00        6.482       -4.204       -2.747       18.767       13.001       11.294      352.198      169.029      127.547        0.036        0.032        7.726        5.758        0.555      333.828        3.399      871.882
01/19/2022  21:07:00      -50.411       16.333       -8.542       12.013       15.087       13.032      144.317      227.629      169.839        0.171        0.027       52.991        7.382        0.019      333.711        3.205      871.903
01/19/2022  21:08:00      -18.548        8.733       -6.977       10.625       11.568        5.781      112.898      133.823       33.420        0.037        0.014       20.501        6.015        0.086      333.763        3.292      871.917
01/19/2022  21:09:00      -16.293        1.461       -3.045       12.617       17.141       11.946      159.197      293.818      142.719        0.044        0.030       16.359        8.592        0.276      333.791        3.337      871.941
01/19/2022  21:10:00      -48.174       12.825       -9.759       14.466       12.423       11.034      209.253      154.333      121.758        0.153        0.024       49.852        5.219        0.011      333.766        3.296      871.950
01/19/2022  21:11:00       -6.712      -11.599       -6.218       12.654       15.403       10.346      160.130      237.266      107.039        0.036        0.025       13.401        5.268        0.154      333.718        3.216      871.971
01/19/2022  21:12:00      -14.364       -0.360       -7.745       25.465       20.182       13.134      648.483      407.294      172.504        0.075        0.061       14.368       10.841        0.569      333.696        3.180      871.984
01/19/2022  21:13:00      -47.393        5.208       -2.383       21.602       15.769       14.206      466.649      248.654      201.811        0.160        0.046       47.678        9.160        0.037      333.603        3.027      871.997
01/19/2022  21:14:00      -27.175        6.656       -4.822       23.660       14.700        9.580      559.780      216.095       91.783        0.084        0.043       27.978       11.141        0.159      333.628        3.069      871.999
01/19/2022  21:15:00      -46.215       14.089       -8.983       14.951       13.640        7.471      223.540      186.037       55.816        0.144        0.023       48.315        5.719        0.014      333.661        3.123      872.003
01/19/2022  21:16:00      -33.439       10.180       -9.738       12.819       13.830        9.277      164.338      191.261       86.068        0.088        0.022       34.954        5.950        0.029      333.589        3.006      872.008
01/19/2022  21:17:00      -26.740        1.736       -4.461       21.156       18.024       10.023      447.583      324.880      100.454        0.081        0.044       26.796        9.263        0.120      333.540        2.924      872.013
01/19/2022  21:18:00      -17.344        0.660       -5.247       15.944       14.162        9.912      254.211      200.575       98.243        0.044        0.028       17.356        3.685        0.045      333.571        2.975      872.032
01/19/2022  21:19:00        5.587       -5.039       -9.802        9.380       10.336        9.567       87.981      106.833       91.524        0.022        0.014        7.524        1.967        0.068      333.591        3.008      872.047
01/19/2022  21:20:00        1.493        4.569       -7.310        6.041        5.935        7.198       36.489       35.224       51.813        0.010        0.006        4.806        2.296        0.228      333.587        3.000      872.058
01/19/2022  21:21:00       -5.566       -2.665       -5.616        5.348       11.895        6.323       28.598      141.489       39.980        0.014        0.011        6.171        5.788        0.880      333.570        2.971      872.060
01/19/2022  21:22:00       -7.369       -3.191        0.670        6.234        9.351        6.883       38.858       87.441       47.374        0.012        0.009        8.031        4.769        0.353      333.576        2.984      872.062
01/19/2022  21:23:00       -2.502       16.983       -6.749       17.204        5.937        4.529      295.989       35.245       20.513        0.035        0.018       17.166        4.078        0.056      333.467        2.800      872.066
01/19/2022  21:24:00       11.838        7.726       -6.935        8.930        7.450        3.610       79.743       55.498       13.033        0.020        0.007       14.136        2.236        0.025      333.417        2.717      872.065
01/19/2022  21:25:00        6.046        1.637       -3.646        4.272        2.320        2.511       18.249        5.383        6.307        0.004        0.001        6.263        1.661        0.070      333.460        2.788      872.077
01/19/2022  21:26:00        7.807       -9.169       -8.934       11.093        9.295        7.213      123.056       86.400       52.023        0.024        0.013       12.042        4.616        0.147      333.491        2.841      872.094
01/19/2022  21:27:00        7.283        5.354       -5.365       10.177       10.664        7.653      103.574      113.713       58.568        0.019        0.014        9.040        3.602        0.159      333.356        2.620      872.112
01/19/2022  21:28:00       15.632        4.139       -9.863       14.487       22.327       10.866      209.860      498.475      118.075        0.059        0.041       16.171       10.279        0.404      333.336        2.587      872.133
01/19/2022  21:29:00       -2.081        1.564       -5.401       15.347       17.711       10.306      235.537      313.687      106.205        0.035        0.033        2.603        5.255        4.075      333.344        2.598      872.149
01/19/2022  21:30:00       30.486       14.371       -6.106       14.450       12.578       11.400      208.801      158.215      129.970        0.083        0.025       33.703        7.039        0.044      333.248        2.440      872.163
01/19/2022  21:31:00       36.372       16.723       -3.532       13.810       10.919        9.326      190.709      119.227       86.967        0.101        0.020       40.032        5.727        0.020      333.236        2.419      872.173
01/19/2022  21:32:00       32.502        9.159       -2.796       12.715        7.743        4.971      161.672       59.953       24.715        0.070        0.012       33.768        4.220        0.016      333.332        2.580      872.181
01/19/2022  21:33:00       27.868       16.904       -5.954        8.639        8.568        6.778       74.640       73.409       45.936        0.065        0.010       32.595        3.574        0.012      333.394        2.680      872.184
01/19/2022  21:34:00       13.164       27.261       -6.440        8.082        8.818        6.962       65.322       77.753       48.468        0.057        0.010       30.273        5.808        0.037      333.492        2.842      872.188
01/19/2022  21:35:00        7.681       21.192       -4.750       11.240        8.298        8.721      126.348       68.862       76.055        0.040        0.014       22.541        4.425        0.039      333.499        2.854      872.193
01/19/2022  21:36:00       16.030       43.648       -8.665       17.859       10.662        8.863      318.940      113.684       78.545        0.137        0.026       46.499       11.585        0.062      333.644        3.093      872.190
01/19/2022  21:37:00       32.950       47.348        1.977       19.938       14.396       16.124      397.528      207.247      259.971        0.210        0.043       57.685       10.799        0.035      333.698        3.184      872.183
01/19/2022  21:38:00        9.988       20.060        1.964       28.887       19.543       10.181      834.435      381.911      103.662        0.091        0.066       22.409        7.821        0.122      333.648        3.101      872.177
01/19/2022  21:39:00      -12.101        0.662       -0.951        8.326       12.232        8.422       69.326      149.628       70.937        0.022        0.014       12.119        5.609        0.214      333.487        2.834      872.171
01/19/2022  21:40:00       -7.037        0.118       -6.957        7.793        6.527        5.640       60.732       42.607       31.814        0.012        0.007        7.038        3.353        0.227      333.472        2.810      872.175
01/19/2022  21:41:00       12.319      -16.831       -8.067       18.432       13.047       10.122      339.747      170.222      102.447        0.056        0.031       20.858        6.166        0.087      333.688        3.167      872.184
01/19/2022  21:42:00        4.236       -3.114       -3.135        7.074        7.281        8.280       50.047       53.011       68.552        0.010        0.009        5.258        5.916        1.266      333.699        3.184      872.193
01/19/2022  21:43:00       -5.989        4.011       -2.378       11.131        7.527        5.629      123.902       56.662       31.688        0.013        0.011        7.208        4.334        0.361      333.554        2.946      872.207
01/19/2022  21:44:00      -14.844        0.657       -4.561       14.841        8.632        9.893      220.265       74.513       97.875        0.032        0.020       14.858        5.162        0.121      333.390        2.674      872.217
01/19/2022  21:45:00      -27.737       13.691      -10.024        8.927        8.411        8.842       79.683       70.739       78.175        0.064        0.011       30.932        4.142        0.018      333.316        2.552      872.233
01/19/2022  21:46:00      -12.254       14.925      -17.399       12.529        9.684        8.307      156.988       93.787       69.011        0.050        0.016       19.312        6.840        0.125      333.592        3.009      872.252
01/19/2022  21:47:00      -46.320        1.412      -12.534       11.884       16.502       10.043      141.223      272.308      100.869        0.141        0.026       46.342        4.419        0.009      333.375        2.650      872.268
01/19/2022  21:48:00      -17.651        4.762       -5.742       17.071       10.217       10.326      291.429      104.380      106.624        0.043        0.025       18.282        6.217        0.116      333.200        2.360      872.283
01/19/2022  21:49:00      -42.594        3.306       -9.538       27.855       17.937       11.615      775.876      321.719      134.905        0.157        0.062       42.723        3.691        0.007      333.160        2.294      872.297
01/19/2022  21:50:00      -75.878       20.628       -7.578       23.315       14.532       14.889      543.582      211.184      221.685        0.361        0.049       78.632       12.331        0.025      333.091        2.180      872.322
01/19/2022  21:51:00      -56.784       17.339       -1.627       34.342       12.668       12.457     1179.397      160.481      155.170        0.251        0.075       59.372       13.164        0.049      333.039        2.095      872.340
01/19/2022  21:52:00      -86.938       24.648      -10.358       18.622       18.123       15.066      346.795      328.454      226.986        0.459        0.045       90.364       10.339        0.013      333.078        2.158      872.367
01/19/2022  21:53:00      -84.802       20.989       -9.418       28.100       16.254       15.662      789.593      264.200      245.291        0.451        0.065       87.361       15.042        0.030      333.036        2.089      872.385
01/19/2022  21:54:00     -100.470       21.301       -6.060       20.882       17.760       15.225      436.060      315.420      231.814        0.578        0.049      102.703       12.486        0.015      332.953        1.952      872.390
01/19/2022  21:55:00      -81.574        9.415       -6.221       37.588       19.471       15.418     1412.841      379.101      237.702        0.441        0.101       82.116       15.430        0.035      332.979        1.995      872.396
01/19/2022  21:56:00      -70.690        5.680       -5.501       33.433       23.035       14.278     1117.743      530.627      203.874        0.346        0.093       70.917       13.071        0.034      333.045        2.103      872.401
01/19/2022  21:57:00      -39.981        8.565       -6.334       25.974       25.756       20.424      674.639      663.397      417.122        0.173        0.088       40.888       11.407        0.078      333.030        2.079      872.402
01/19/2022  21:58:00      -45.107        1.062      -14.178       30.831       20.152       26.406      950.566      406.084      697.268        0.214        0.103       45.119       16.888        0.140      332.938        1.927      872.402
01/19/2022  21:59:00      -57.378      -20.334      -14.476       32.345       19.194       21.576     1046.192      368.401      465.541        0.290        0.094       60.874       19.493        0.103      332.855        1.790      872.413
01/19/2022  22:00:00      -54.481      -14.788       -8.033       39.373       25.497       23.014     1550.250      650.093      529.636        0.299        0.136       56.452       19.631        0.121      332.890        1.849      872.423
01/19/2022  22:01:00      -40.622      -12.588       -6.968       31.361       22.067       22.906      983.486      486.971      524.683        0.193        0.100       42.527       18.722        0.194      332.870        1.814      872.438
01/19/2022  22:02:00      -52.466        3.932       -6.153       43.043       28.111       18.211     1852.695      790.250      331.646        0.289        0.149       52.613       12.751        0.059      332.905        1.873      872.445
01/19/2022  22:03:00      -58.925       -0.748       -3.581       40.865       30.163       19.672     1669.951      909.802      386.986        0.323        0.148       58.929       18.469        0.098      332.892        1.851      872.453
01/19/2022  22:04:00      -67.942        5.235       -7.155       43.761       29.781       24.022     1915.008      886.881      577.048        0.404        0.169       68.143       17.968        0.070      332.886        1.842      872.459
01/19/2022  22:05:00      -54.764        8.529        2.337       31.916       31.575       22.854     1018.641      996.999      522.324        0.281        0.127       55.424       16.189        0.085      332.863        1.802      872.469
01/19/2022  22:06:00      -85.574        0.925       -4.455       48.446       25.292       21.831     2347.062      639.697      476.590        0.540        0.173       85.579       22.920        0.072      332.851        1.784      872.478
01/19/2022  22:07:00      -42.667        8.070       -5.923       48.808       28.389       22.298     2382.216      805.945      497.201        0.280        0.184       43.423       17.651        0.165      332.725        1.575      872.488
01/19/2022  22:08:00      -95.238       15.596      -13.253       44.070       34.760       21.504     1942.183     1208.237      462.443        0.655        0.181       96.506       12.429        0.017      332.736        1.593      872.489
01/19/2022  22:09:00      -81.528       22.661       -8.358       51.490       21.935       25.586     2651.199      481.123      654.633        0.551        0.189       84.619       28.765        0.116      332.756        1.626      872.496
01/19/2022  22:10:00      -96.867       40.743       -0.664       49.417       35.101       29.688     2442.063     1232.112      881.398        0.780        0.228      105.087       29.306        0.078      332.673        1.489      872.501
01/19/2022  22:11:00      -92.348       43.997       -0.133       41.208       34.104       25.102     1698.063     1163.073      630.099        0.698        0.175      102.293       21.671        0.045      332.665        1.477      872.510
01/19/2022  22:12:00      -98.992       55.354       -0.764       44.848       33.223       29.789     2011.383     1103.792      887.400        0.843        0.200      113.417       26.465        0.054      332.679        1.499      872.524
01/19/2022  22:13:00     -101.561       37.606       -0.271       42.796       41.289       26.503     1831.487     1704.787      702.399        0.798        0.212      108.300       21.319        0.039      332.654        1.456      872.528
01/19/2022  22:14:00     -105.465       20.340      -18.460       53.976       32.528       23.559     2913.413     1058.052      555.020        0.820        0.226      107.408       20.237        0.035      332.821        1.733      872.532
01/19/2022  22:15:00       18.688      -15.657      -15.060       22.223       26.705       20.558      493.846      713.177      422.619        0.123        0.081       24.379       14.981        0.378      332.856        1.792      872.537
01/19/2022  22:16:00       -6.012      -12.694      -16.808       14.155       18.757       16.980      200.352      351.841      288.305        0.066        0.042       14.045        6.678        0.226      332.925        1.906      872.551
01/19/2022  22:17:00      -11.137      -24.838      -12.190       14.000       12.735       16.868      195.992      162.189      284.535        0.077        0.032       27.220        5.769        0.045      332.951        1.949      872.558
01/19/2022  22:18:00      -16.798       -1.187       -7.981        9.979       12.690       10.015       99.576      161.044      100.297        0.035        0.018       16.840        3.254        0.037      332.944        1.938      872.561
01/19/2022  22:19:00      -23.358       -2.791       -8.388       25.057       14.177       16.505      627.849      200.982      272.408        0.086        0.055       23.524       15.154        0.415      332.916        1.890      872.570
01/19/2022  22:20:00      -17.830        4.139       -7.062       18.054       21.156       10.496      325.939      447.597      110.175        0.063        0.044       18.304        6.954        0.144      332.939        1.928      872.582
01/19/2022  22:21:00      -27.391       15.754      -12.732       17.039       17.824       11.555      290.329      317.686      133.512        0.095        0.037       31.598        5.374        0.029      332.968        1.977      872.599
01/19/2022  22:22:00      -39.895       20.476      -17.420        8.275        8.526        6.615       68.484       72.689       43.754        0.125        0.009       44.843        2.557        0.003      332.907        1.877      872.613
01/19/2022  22:23:00      -39.644       28.096      -13.979       12.640       11.771        6.917      159.782      138.556       47.845        0.145        0.017       48.591        4.331        0.008      332.913        1.885      872.619
01/19/2022  22:24:00      -43.595       21.203      -14.715       21.961       14.903       11.620      482.296      222.092      135.023        0.170        0.042       48.477        5.805        0.014      332.879        1.831      872.633
01/19/2022  22:25:00      -40.065       21.362      -12.104       20.318       10.972        9.610      412.828      120.382       92.350        0.142        0.031       45.404        7.675        0.029      332.897        1.859      872.637
01/19/2022  22:26:00      -45.999       24.171      -13.678       10.551       11.791        7.624      111.331      139.030       58.132        0.160        0.015       51.963        6.361        0.015      332.934        1.920      872.652
01/19/2022  22:27:00      -22.585        2.791      -11.064       23.565       16.129       12.046      555.286      260.149      145.114        0.080        0.048       22.757        9.315        0.168      332.947        1.942      872.653
01/19/2022  22:28:00        6.019       -4.972      -10.902        6.343        9.882        9.260       40.233       97.649       85.747        0.020        0.011        7.807        3.764        0.232      332.941        1.932      872.664
01/19/2022  22:29:00        0.779      -12.315       -8.122       10.521       12.452        8.419      110.696      155.050       70.886        0.028        0.017       12.340        6.243        0.256      333.118        2.223      872.671
01/19/2022  22:30:00      -23.178      -18.929      -11.852        9.748       11.493        8.337       95.027      132.099       69.505        0.067        0.015       29.925        3.105        0.011      333.197        2.353      872.670
01/19/2022  22:31:00       -8.677       -3.038       -8.203       16.192        9.723       10.199      262.177       94.533      104.012        0.031        0.023        9.194        6.435        0.490      333.205        2.367      872.663
01/19/2022  22:32:00      -32.420       -9.690       -6.834       19.132       11.877        9.045      366.041      141.071       81.806        0.089        0.029       33.837        8.684        0.066      333.139        2.259      872.655
01/19/2022  22:33:00      -42.684       -0.132       -6.158       16.398       15.798       12.283      268.897      249.571      150.872        0.126        0.033       42.685        5.425        0.016      333.225        2.400      872.655
01/19/2022  22:34:00      -36.801       -8.945       -4.332       18.253       17.965       14.177      333.172      322.758      200.984        0.115        0.043       37.872        8.914        0.055      333.177        2.323      872.653
01/19/2022  22:35:00      -85.593      -15.756       -7.939       37.900       23.334       19.575     1436.420      544.476      383.174        0.500        0.118       87.031       16.738        0.037      333.092        2.181      872.659
01/19/2022  22:36:00      -65.786      -17.723      -11.216       36.508       27.048       26.469     1332.836      731.602      700.634        0.377        0.138       68.132       20.141        0.087      332.990        2.013      872.663
01/19/2022  22:37:00      -69.244       -8.498      -10.847       29.225       18.957       15.608      854.130      359.352      243.607        0.322        0.073       69.763       12.605        0.033      333.000        2.030      872.674
01/19/2022  22:38:00      -92.052       -3.454      -17.813       30.402       27.176       20.137      924.301      738.559      405.510        0.544        0.103       92.117       11.209        0.015      332.997        2.025      872.679
01/19/2022  22:39:00      -37.487        2.687       -2.181       33.272       24.533       19.269     1107.033      601.862      371.304        0.175        0.104       37.583       14.918        0.158      332.897        1.862      872.686
01/19/2022  22:40:00      -42.216      -26.446       -1.944       32.673       31.986       21.389     1067.519     1023.073      457.505        0.252        0.127       49.815       14.244        0.082      332.943        1.934      872.686
01/19/2022  22:41:00      -33.259       -7.565        1.522       35.410       30.263       22.294     1253.881      915.826      497.032        0.192        0.133       34.109       18.932        0.308      332.906        1.874      872.692
01/19/2022  22:42:00        4.328      -15.887       -6.897       15.288       16.057       14.507      233.734      257.826      210.451        0.051        0.035       16.466        7.914        0.231      332.898        1.861      872.702
01/19/2022  22:43:00      -21.277      -22.302        3.513       30.260       18.415       20.329      915.692      339.103      413.285        0.131        0.083       30.823       20.051        0.423      332.890        1.850      872.711
01/19/2022  22:44:00      -28.653       -3.613       -0.314       34.495       26.525       19.062     1189.934      703.562      363.365        0.155        0.113       28.879       21.091        0.533      332.812        1.719      872.707
01/19/2022  22:45:00      -57.040      -10.095       -8.080       44.046       24.842       22.549     1940.057      617.128      508.459        0.324        0.153       57.927       21.706        0.140      332.754        1.624      872.705
01/19/2022  22:46:00      -17.301        0.148       -7.132       31.960       28.527       17.803     1021.411      813.816      316.952        0.125        0.108       17.302       10.654        0.379      332.758        1.630      872.694
01/19/2022  22:47:00      -67.000      -12.807       -6.575       49.954       18.900       21.467     2495.362      357.227      460.841        0.400        0.166       68.213       18.907        0.077      332.636        1.428      872.677
01/19/2022  22:48:00      -64.107      -10.145      -10.063       46.783       36.220       36.652     2188.689     1311.864     1343.347        0.458        0.242       64.905       35.967        0.307      332.630        1.419      872.671
01/19/2022  22:49:00      -86.497        4.941      -14.183       33.716       30.412       22.603     1136.762      924.864      510.883        0.514        0.129       86.638       19.212        0.049      332.636        1.429      872.667
01/19/2022  22:50:00      -93.761       23.272       -3.965       30.542       28.569       14.465      932.823      816.203      209.243        0.565        0.098       96.606        6.392        0.004      332.596        1.362      872.671
01/19/2022  22:51:00      -89.841       25.378       -6.503       42.864       31.959       23.328     1837.345     1021.366      544.179        0.608        0.170       93.357       15.703        0.028      332.631        1.419      872.676
01/19/2022  22:52:00      -72.319        2.211       -8.111       36.094       35.533       18.510     1302.812     1262.593      342.629        0.410        0.145       72.353       17.198        0.056      332.608        1.382      872.687
01/19/2022  22:53:00     -118.641       -2.299      -10.885       32.770       20.717       19.786     1073.877      429.201      391.467        0.805        0.095      118.664       17.293        0.021      332.594        1.358      872.693
01/19/2022  22:54:00      -63.568        9.096       -6.099       60.275       24.159       16.144     3633.042      583.657      260.613        0.432        0.224       64.215       21.271        0.110      332.537        1.264      872.703
01/19/2022  22:55:00      -62.530       -1.830       -1.556       39.635       34.823       20.124     1570.898     1212.652      404.977        0.355        0.159       62.557       21.501        0.118      332.612        1.389      872.708
01/19/2022  22:56:00      -60.002      -10.370       -6.286       42.069       25.146       25.886     1769.774      632.319      670.092        0.341        0.154       60.892       24.668        0.164      332.560        1.303      872.711
01/19/2022  22:57:00      -59.585       -2.493       -2.149       45.395       23.602       26.662     2060.665      557.056      710.887        0.344        0.166       59.637       26.907        0.204      332.566        1.311      872.704
01/19/2022  22:58:00      -73.746      -16.037       -6.044       52.352       23.890       28.763     2740.759      570.738      827.286        0.493        0.207       75.470       32.444        0.185      332.595        1.359      872.703
01/19/2022  22:59:00      -73.721      -21.827      -12.637       46.013       35.238       24.584     2117.210     1241.728      604.367        0.502        0.198       76.885       17.233        0.050      332.551        1.288      872.703
01/19/2022  23:00:00      -39.910       -8.258       -2.026       70.648       21.670       22.514     4991.210      469.592      506.858        0.382        0.298       40.755       28.282        0.482      332.572        1.322      872.704
01/19/2022  23:01:00      -97.656       -7.878      -15.358       49.310       34.788       23.217     2431.516     1210.205      539.019        0.701        0.209       97.973       23.187        0.056      332.612        1.388      872.701
01/19/2022  23:02:00      -24.325      -13.167       -0.308       47.659       28.217       31.609     2271.341      796.195      999.120        0.242        0.203       27.661       31.074        1.262      332.547        1.282      872.701
01/19/2022  23:03:00      -44.576      -19.227      -11.639       56.390       26.079       26.356     3179.860      680.119      694.628        0.352        0.228       48.546       24.607        0.257      332.457        1.132      872.695
01/19/2022  23:04:00      -20.159        6.111       -5.468       46.821       34.174       37.061     2192.186     1167.864     1373.501        0.260        0.237       21.065       34.533        2.687      332.460        1.138      872.613
01/19/2022  23:05:00      -68.278       15.168       -3.830       53.026       29.149       28.307     2811.749      849.642      801.279        0.468        0.223       69.942       29.574        0.179      332.518        1.233      872.601
01/19/2022  23:06:00      -25.462       12.311        7.283       50.561       27.378       27.293     2556.436      749.567      744.932        0.245        0.203       28.281       22.481        0.632      332.555        1.294      872.601
01/19/2022  23:07:00      -91.119       12.921       -5.346       45.846       29.631       21.250     2101.857      877.994      451.554        0.596        0.172       92.031       15.663        0.029      332.551        1.287      872.606
01/19/2022  23:08:00      -41.306       -8.125        1.833       39.546       39.336       24.422     1563.921     1547.359      596.455        0.274        0.185       42.097       21.231        0.254      332.505        1.211      872.616
01/19/2022  23:09:00      -46.726       13.085       -4.462       51.187       30.916       22.306     2620.095      955.815      497.563        0.322        0.204       48.524       19.391        0.160      332.441        1.105      872.636
01/19/2022  23:10:00     -100.916       19.887       -4.073       58.148       39.275       23.858     3381.207     1542.555      569.209        0.804        0.275      102.857       18.782        0.033      332.403        1.042      872.655
01/19/2022  23:11:00      -91.666       22.214       -7.164       61.752       31.455       30.029     3813.303      989.430      901.745        0.732        0.285       94.319       28.358        0.090      332.377        1.000      872.676
01/19/2022  23:12:00      -71.184        2.937       -2.469       56.518       45.894       26.537     3194.311     2106.294      704.188        0.554        0.300       71.244       18.701        0.069      332.407        1.049      872.692
01/19/2022  23:13:00     -128.446        5.788       -2.680       51.359       38.987       31.864     2637.729     1520.006     1015.310        1.086        0.259      128.576       24.808        0.037      332.361        0.972      872.706
01/19/2022  23:14:00     -101.486       32.528       -4.908       69.047       40.652       32.762     4767.536     1652.604     1073.330        0.944        0.375      106.571       29.152        0.075      332.333        0.927      872.717
01/19/2022  23:15:00      -52.146        9.851       -1.871       60.082       31.460       28.951     3609.864      989.713      838.157        0.413        0.272       53.068       32.047        0.365      332.300        0.872      872.730
01/19/2022  23:16:00      -30.836       -1.672      -15.542       54.620       32.482       26.058     2983.358     1055.056      679.010        0.296        0.236       30.881       14.616        0.224      332.390        1.020      872.740
01/19/2022  23:17:00     -111.452        4.529      -13.702       61.559       33.333       24.150     3789.525     1111.070      583.226        0.906        0.274      111.544       22.566        0.041      332.354        0.961      872.756
01/19/2022  23:18:00     -120.188        4.121       -0.866       39.975       33.683       31.673     1598.017     1134.534     1003.152        0.910        0.187      120.259       24.544        0.042      332.315        0.898      872.767
01/19/2022  23:19:00     -148.085       29.581      -16.578       39.474       24.607       22.402     1558.211      605.526      501.832        1.287        0.133      151.011       14.072        0.009      332.297        0.867      872.775
01/19/2022  23:20:00      -17.675       -3.648        2.935       41.597       30.483       25.156     1730.343      929.227      632.813        0.181        0.165       18.047       22.018        1.488      332.276        0.833      872.773
01/19/2022  23:21:00     -101.689       24.247       -9.622       69.227       31.525       32.359     4792.327      993.800     1047.092        0.893        0.342      104.540       35.819        0.117      332.195        0.700      872.768
01/19/2022  23:22:00      -48.086       -5.285        0.395       67.207       30.493       22.677     4516.800      929.801      514.254        0.415        0.298       48.375       26.224        0.294      332.224        0.746      872.766
01/19/2022  23:23:00      -93.479       15.760       -3.469       55.379       34.532       25.461     3066.836     1192.430      648.276        0.695        0.245       94.798       16.401        0.030      332.150        0.624      872.768
01/19/2022  23:24:00     -137.085       13.568       -8.146       36.702       35.576       24.643     1347.048     1265.673      607.258        1.113        0.161      137.755       21.778        0.025      332.159        0.641      872.772
01/19/2022  23:25:00     -129.677       30.151       -7.777       43.956       41.883       22.880     1932.097     1754.222      523.502        1.100        0.210      133.136       23.258        0.031      332.204        0.715      872.783
01/19/2022  23:26:00      -86.523       18.877       -5.822       46.046       28.362       23.668     2120.193      804.394      560.167        0.568        0.174       88.559       21.751        0.060      332.242        0.776      872.794
01/19/2022  23:27:00      -54.456        3.843       -6.401       38.077       32.856       22.613     1449.832     1079.495      511.344        0.303        0.152       54.592       13.164        0.058      332.264        0.813      872.798
01/19/2022  23:28:00      -77.751      -18.700       -5.762       45.848       40.769       28.980     2102.060     1662.148      839.849        0.552        0.230       79.968       27.601        0.119      332.252        0.794      872.807
01/19/2022  23:29:00      -80.078        4.556       -7.256       49.373       26.560       24.822     2437.663      705.453      616.150        0.512        0.188       80.208       26.385        0.108      332.273        0.827      872.810
01/19/2022  23:30:00      -30.220       -1.240      -10.957       29.705       21.281       19.860      882.413      452.895      394.435        0.138        0.086       30.245       10.431        0.119      332.232        0.761      872.812
01/19/2022  23:31:00      -63.040        5.547        1.175       47.134       27.526       24.015     2221.648      757.665      576.736        0.378        0.178       63.284       22.645        0.128      332.281        0.840      872.819
01/19/2022  23:32:00     -113.356       -8.571       -5.694       59.842       29.686       23.917     3581.052      881.239      571.999        0.899        0.252      113.680       24.118        0.045      332.273        0.828      872.826
01/19/2022  23:33:00     -118.372       16.954       -4.198       53.076       37.852       25.522     2817.110     1432.777      651.393        0.961        0.245      119.580       27.213        0.052      332.293        0.861      872.836
01/19/2022  23:34:00      -73.427       -4.903       -4.557       47.700       34.875       26.139     2275.317     1216.251      683.256        0.480        0.209       73.590       17.095        0.054      332.291        0.856      872.842
01/19/2022  23:35:00      -13.393       -6.916       -3.089       32.437       23.803       23.346     1052.191      566.587      545.035        0.120        0.108       15.073       19.469        1.668      332.247        0.784      872.835
01/19/2022  23:36:00      -64.345       -8.509       -0.241       63.648       34.321       32.771     4051.057     1177.911     1073.969        0.526        0.315       64.905       26.419        0.166      332.147        0.618      872.834
01/19/2022  23:37:00      -82.401      -17.646       -3.796       56.405       40.459       32.510     3181.508     1636.905     1056.869        0.649        0.294       84.270       29.679        0.124      332.132        0.594      872.833
01/19/2022  23:38:00      -68.509      -16.788      -10.315       48.072       32.939       27.758     2310.896     1084.979      770.532        0.462        0.208       70.536       21.988        0.097      332.119        0.572      872.838
01/19/2022  23:39:00      -22.266       -4.352       -1.889       42.223       27.172       18.530     1782.748      738.344      343.344        0.169        0.143       22.687       19.062        0.706      332.144        0.613      872.839
01/19/2022  23:40:00      -58.827        2.048       -7.321       50.611       38.150       16.588     2561.476     1455.438      275.159        0.390        0.215       58.863        7.649        0.017      332.104        0.549      872.853
01/19/2022  23:41:00      -52.121        6.405        3.377       47.629       25.034       19.535     2268.479      626.678      381.621        0.302        0.164       52.513       23.987        0.209      332.081        0.513      872.864
01/19/2022  23:42:00     -102.982       -1.892       -2.046       59.244       37.624       25.838     3509.809     1415.552      667.590        0.810        0.280      102.999       25.283        0.060      332.013        0.400      872.871
01/19/2022  23:43:00      -82.638       -0.462        0.824       48.297       31.321       28.648     2332.558      981.004      820.728        0.548        0.207       82.639       24.681        0.089      332.005        0.385      872.887
01/19/2022  23:44:00      -55.582       -7.409        0.564       38.247       26.253       24.432     1462.825      689.216      596.913        0.295        0.137       56.074       19.317        0.119      331.980        0.347      872.902
01/19/2022  23:45:00      -42.594        4.656       -1.867       40.309       23.234       16.503     1624.790      539.836      272.346        0.214        0.122       42.848       14.723        0.118      331.977        0.340      872.910
01/19/2022  23:46:00      -19.365        3.545        1.785       45.652       33.238       27.538     2084.103     1104.779      758.328        0.217        0.197       19.687       21.571        1.201      331.934        0.270      872.913
01/19/2022  23:47:00      -35.881       -4.000       -4.585       45.917       23.915       28.148     2108.393      571.905      792.326        0.240        0.174       36.103       28.842        0.638      332.010        0.395      872.918
01/19/2022  23:48:00      -24.194       -6.611        0.366       41.627       26.294       25.907     1732.813      691.381      671.150        0.186        0.155       25.081       22.974        0.839      331.987        0.356      872.918
01/19/2022  23:49:00      -81.623        7.843       -3.037       53.410       33.424       28.073     2852.630     1117.139      788.073        0.574        0.238       81.999       30.258        0.136      331.955        0.304      872.928
01/19/2022  23:50:00      -59.028        2.406       -3.306       51.428       33.215       28.773     2644.825     1103.249      827.885        0.404        0.229       59.077       26.670        0.204      331.952        0.300      872.938
01/19/2022  23:51:00     -119.289       31.069      -12.353       35.017       32.251       18.513     1226.174     1040.134      342.727        0.898        0.130      123.269       16.633        0.018      331.884        0.188      872.954
01/19/2022  23:52:00     -121.997       19.622       -9.823       56.617       26.182       23.406     3205.501      685.476      547.822        0.990        0.222      123.565       26.348        0.045      331.922        0.250      872.969
01/19/2022  23:53:00     -156.034        4.746      -11.276       48.288       42.763       24.257     2331.730     1828.666      588.418        1.462        0.237      156.107       17.281        0.012      332.044        0.450      872.981
01/19/2022  23:54:00     -113.395      -19.993      -11.555       70.599       33.481       31.387     4984.285     1120.965      985.124        1.024        0.355      115.144       33.273        0.084      332.123        0.580      872.988
01/19/2022  23:55:00      -48.943        8.396       -6.052       60.939       28.797       26.769     3713.598      829.245      716.553        0.388        0.263       49.658       20.588        0.172      332.082        0.513      872.993
01/19/2022  23:56:00      -71.785      -22.293       -6.622       62.678       39.780       21.269     3928.506     1582.448      452.381        0.583        0.298       75.167       22.212        0.087      332.150        0.625      872.988
01/19/2022  23:57:00      -66.975       -2.482        2.973       60.671       38.143       32.454     3680.940     1454.908     1053.271        0.534        0.309       67.021       32.615        0.237      332.123        0.580      872.988
01/19/2022  23:58:00      -57.466        6.649       -2.087       51.652       39.328       34.968     2667.950     1546.683     1222.742        0.439        0.272       57.849       33.781        0.341      332.192        0.692      872.988
01/19/2022  23:59:00      -78.581       12.105       -3.824       48.746       24.348       26.737     2376.219      592.824      714.884        0.501        0.184       79.508       25.354        0.102      332.178        0.672      872.991
01/20/2022  00:00:00      -64.112       -7.436      -13.070       39.049       30.128       26.702     1524.799      907.721      712.971        0.374        0.157       64.542       24.505        0.144      332.168        0.654      872.995
01/20/2022  00:01:00      -73.512        8.681       -7.385       57.578       19.906       22.111     3315.279      396.254      488.895        0.487        0.210       74.023       25.893        0.122      332.179        0.672      872.998
01/20/2022  00:02:00      -61.324       12.670       -2.892       47.921       18.685       19.519     2296.424      349.138      381.004        0.348        0.151       62.619       21.998        0.123      332.161        0.643      873.012
01/20/2022  00:03:00      -75.719       18.807       -8.376       29.201       18.426       17.354      852.672      339.530      301.149        0.383        0.075       78.020       16.462        0.045      332.130        0.592      873.023
01/20/2022  00:04:00      -89.888       16.066      -11.042       32.342       18.818       18.425     1046.000      354.112      339.492        0.510        0.087       91.312       17.492        0.037      332.026        0.421      873.028
01/20/2022  00:05:00      -88.611       28.750      -13.518       24.819       18.290       13.306      615.968      334.515      177.061        0.499        0.056       93.158        8.918        0.009      331.940        0.280      873.032
01/20/2022  00:06:00      -66.138       32.374      -10.866       17.729       10.252        6.885      314.314      105.102       47.408        0.300        0.023       73.637        4.038        0.003      331.844        0.121      873.039
01/20/2022  00:07:00      -25.669       19.966      -16.361       22.217        9.736       10.991      493.573       94.793      120.812        0.102        0.035       32.520        7.713        0.056      331.989        0.362      873.046
01/20/2022  00:08:00       -5.196       21.308       -9.461        5.917        9.230        6.308       35.008       85.188       39.789        0.037        0.008       21.933        4.136        0.036      332.177        0.668      873.055
01/20/2022  00:09:00        4.544       11.607       -9.810       12.179       12.501       12.929      148.326      156.279      167.162        0.036        0.024       12.464        7.691        0.381      332.366        0.980      873.068
01/20/2022  00:10:00      -16.547        5.534      -17.578       14.347       11.036       10.186      205.840      121.787      103.748        0.052        0.022       17.448        7.406        0.180      332.275        0.830      873.072
01/20/2022  00:11:00      -14.209       14.895      -10.936       13.813        7.977       10.523      190.797       63.629      110.733        0.045        0.018       20.586        3.763        0.033      332.250        0.789      873.072
01/20/2022  00:12:00      -17.584       -2.332       -9.182       20.163       11.088        7.363      406.548      122.933       54.207        0.049        0.029       17.738        2.383        0.018      332.076        0.503      873.065
01/20/2022  00:13:00      -32.566      -25.205      -20.780       18.340       14.786       10.288      336.363      218.622      105.842        0.139        0.033       41.180        3.577        0.008      332.028        0.423      873.070
01/20/2022  00:14:00      -41.767      -16.850      -20.888       15.190       18.003       11.495      230.727      324.093      132.136        0.158        0.034       45.037        8.851        0.039      331.998        0.374      873.082
01/20/2022  00:15:00      -27.274        0.645       -6.939       21.051       12.277       12.564      443.139      150.723      157.861        0.077        0.038       27.282        9.191        0.113      331.968        0.326      873.093
01/20/2022  00:16:00      -15.030       -3.678       -0.523       18.000       12.147        9.781      324.015      147.545       95.673        0.040        0.028       15.474        8.871        0.329      331.946        0.289      873.108
01/20/2022  00:17:00      -49.206       -6.470       -5.004       20.354       13.424       18.255      414.290      180.212      333.232        0.171        0.046       49.630       11.337        0.052      332.007        0.391      873.134
01/20/2022  00:18:00      -51.214        8.674       -5.174       21.221       17.841       16.945      450.315      318.293      287.143        0.189        0.053       51.943        7.373        0.020      331.977        0.340      873.165
01/20/2022  00:19:00      -44.938       -1.774       -8.460       18.397       19.545       13.080      338.468      382.019      171.083        0.149        0.045       44.973       10.409        0.054      332.057        0.472      873.193
01/20/2022  00:20:00      -16.904      -11.793      -15.243       16.815       15.033       11.653      282.739      225.978      135.782        0.065        0.032       20.611        5.076        0.061      332.110        0.558      873.219
01/20/2022  00:21:00       -0.998      -19.779       -0.622       22.767       16.496        9.564      518.358      272.126       91.463        0.064        0.044       19.804        7.792        0.155      332.101        0.546      873.235
01/20/2022  00:22:00      -10.487        2.067       -8.439       13.728       13.656       12.069      188.447      186.487      145.660        0.035        0.026       10.688        4.757        0.198      332.036        0.437      873.237
01/20/2022  00:23:00      -32.276        7.394       -4.720       20.254       16.931        9.712      410.226      286.654       94.320        0.095        0.040       33.113        9.360        0.080      332.018        0.408      873.242
01/20/2022  00:24:00      -33.496       10.964      -10.174       17.436       15.069        8.449      304.006      227.065       71.379        0.097        0.030       35.245        6.722        0.036      331.971        0.329      873.253
01/20/2022  00:25:00      -21.848       -6.039      -10.209       13.387       16.898        9.490      179.199      285.555       90.061        0.059        0.028       22.668        6.198        0.075      332.029        0.424      873.258
01/20/2022  00:26:00       -7.728       -2.207       -1.810        9.800       11.733        5.915       96.032      137.653       34.990        0.017        0.013        8.037        4.009        0.249      332.005        0.386      873.265
01/20/2022  00:27:00       -4.908       -2.375       -1.600        6.825        5.681        3.926       46.577       32.273       15.412        0.006        0.005        5.452        2.667        0.239      332.009        0.392      873.272
01/20/2022  00:28:00      -17.897        1.846       -7.323        7.144        9.661        6.894       51.031       93.339       47.530        0.028        0.010       17.992        2.041        0.013      332.019        0.410      873.275
01/20/2022  00:29:00        0.966       25.054      -10.018        8.068        6.667        5.994       65.089       44.452       35.925        0.044        0.007       25.072        2.550        0.010      331.984        0.350      873.283
01/20/2022  00:30:00       11.152       39.737      -14.177        6.247        7.484        6.787       39.028       56.015       46.070        0.102        0.007       41.273        3.950        0.009      331.902        0.216      873.290
01/20/2022  00:31:00       -6.695       26.530       -5.997       10.039        7.106        5.070      100.775       50.492       25.700        0.048        0.009       27.362        2.700        0.010      331.880        0.181      873.297
01/20/2022  00:32:00        9.345       18.148        1.899        7.586       13.332        8.052       57.541      177.733       64.841        0.036        0.015       20.413        3.709        0.033      331.780        0.018      873.299
01/20/2022  00:33:00        9.566       19.361       -4.838        8.979        9.914        5.493       80.623       98.280       30.168        0.035        0.010       21.595        3.904        0.033      331.800        0.050      873.299
01/20/2022  00:34:00        4.679       10.791       -6.180        7.337        9.315        9.625       53.826       86.761       92.636        0.020        0.012       11.762        6.184        0.276      331.883        0.186      873.299
01/20/2022  00:35:00       19.778       17.360       -4.662        7.982        4.374        4.146       63.706       19.133       17.193        0.041        0.005       26.316        3.623        0.019      331.958        0.306      873.292
01/20/2022  00:36:00       31.492       21.296       -7.657        9.053        7.652        6.971       81.962       58.556       48.596        0.085        0.009       38.017        5.781        0.023      331.842        0.117      873.291
01/20/2022  00:37:00       33.675       23.400       -7.740        9.664        6.472        5.381       93.386       41.893       28.956        0.095        0.008       41.007        2.424        0.003      331.697       -0.121      873.291
01/20/2022  00:38:00       38.143       21.549       -5.760        3.657        4.887        5.821       13.373       23.883       33.880        0.101        0.004       43.809        3.115        0.005      331.771        0.003      873.296
01/20/2022  00:39:00       24.857        0.494      -12.009       16.255       16.691        7.607      264.217      278.584       57.865        0.068        0.030       24.862        5.500        0.049      331.828        0.094      873.298
01/20/2022  00:40:00       21.359       -0.845      -10.574       17.856       19.923        7.835      318.827      396.910       61.387        0.067        0.039       21.376        7.399        0.120      331.788        0.029      873.312
01/20/2022  00:41:00       36.829       15.187       -8.352       25.060       19.062       13.871      628.028      363.360      192.403        0.142        0.059       39.837       12.967        0.106      331.734       -0.059      873.332
01/20/2022  00:42:00      -17.012        0.837      -10.654       17.445       11.655       14.015      304.314      135.839      196.432        0.052        0.032       17.033        4.039        0.056      331.826        0.092      873.350
01/20/2022  00:43:00       -7.016       15.261      -16.299       17.226       17.966       11.516      296.743      322.782      132.620        0.065        0.038       16.796        7.335        0.191      331.803        0.055      873.374
01/20/2022  00:44:00       20.850      -75.645      -15.518       27.711       21.210       17.566      767.886      449.885      308.553        0.396        0.076       78.466       11.911        0.023      332.013        0.400      873.395
01/20/2022  00:45:00      -31.334      -21.860      -27.565       27.468       17.549       22.613      754.470      307.978      511.352        0.190        0.079       38.205       17.602        0.212      331.908        0.228      873.413
01/20/2022  00:46:00      -19.210      -19.535       -5.378       18.252       18.986       17.804      333.139      360.486      316.995        0.089        0.051       27.398       13.930        0.258      331.983        0.349      873.434
01/20/2022  00:47:00      -30.616       -6.587      -12.565       14.104       17.009       11.369      198.922      289.291      129.265        0.088        0.031       31.316        5.348        0.029      331.913        0.236      873.447
01/20/2022  00:48:00      -16.420        4.178       -8.055       15.158       11.457       13.956      229.775      131.252      194.778        0.045        0.028       16.943        9.555        0.318      331.797        0.045      873.466
01/20/2022  00:49:00      -16.424       19.406       -4.977       12.273       11.421       12.699      150.622      130.441      161.261        0.056        0.022       25.423        7.693        0.092      331.848        0.128      873.480
01/20/2022  00:50:00      -19.130       11.216      -11.584       13.152        9.909       11.901      172.968       98.194      141.629        0.052        0.021       22.175        8.846        0.159      331.816        0.074      873.495
01/20/2022  00:51:00      -31.199       17.661       -4.056       11.251       14.531       12.926      126.578      211.147      167.084        0.090        0.025       35.851       10.760        0.090      331.894        0.203      873.500
01/20/2022  00:52:00      -21.027       -1.194       -8.620       14.577       12.324        7.588      212.480      151.880       57.571        0.047        0.021       21.061        3.756        0.032      331.861        0.150      873.508
01/20/2022  00:53:00      -34.100       -2.233      -21.407       11.360        7.299       10.990      129.058       53.274      120.785        0.096        0.015       34.173        4.012        0.014      331.898        0.208      873.509
01/20/2022  00:54:00      -21.059       -0.884       -7.900       14.118       14.095        9.237      199.305      198.673       85.321        0.049        0.024       21.077        8.342        0.157      331.955        0.304      873.518
01/20/2022  00:55:00       -5.393      -24.626       10.179       18.720       31.448       27.133      350.434      988.946      736.198        0.141        0.104       25.210       18.044        0.512      331.937        0.276      873.531
01/20/2022  00:56:00      -18.238      -53.449       -2.980       27.802       33.106       23.929      772.977     1095.985      572.594        0.282        0.122       56.475       12.952        0.053      332.019        0.408      873.545
01/20/2022  00:57:00      -43.851        2.666       -7.167       18.238       10.383       10.629      332.627      107.799      112.983        0.127        0.028       43.932       10.096        0.053      331.806        0.058      873.560
01/20/2022  00:58:00      -12.413        3.526       -2.178       16.613        9.274       10.077      275.994       86.001      101.554        0.032        0.023       12.904        8.755        0.460      331.715       -0.092      873.566
01/20/2022  00:59:00       -7.308        6.614       -4.474       16.453        7.580       11.924      270.717       57.454      142.172        0.029        0.024        9.856        8.546        0.752      331.656       -0.188      873.569
01/20/2022  01:00:00       -6.582       27.959       -6.114       14.954       11.559        8.549      223.636      133.613       73.088        0.065        0.022       28.723        5.480        0.036      331.684       -0.142      873.571
01/20/2022  01:01:00      -20.130       14.398       -2.205       11.517        7.628        9.068      132.641       58.187       82.233        0.045        0.014       24.749        6.694        0.073      331.743       -0.046      873.577
01/20/2022  01:02:00      -10.858       26.041       -7.281       16.178       10.423        8.455      261.717      108.639       71.482        0.065        0.022       28.214        5.576        0.039      331.797        0.043      873.585
01/20/2022  01:03:00       -3.817       16.346       -4.600        8.647        8.893        6.100       74.773       79.086       37.213        0.025        0.010       16.786        1.752        0.011      331.745       -0.040      873.589
01/20/2022  01:04:00        2.989       20.241       -2.463        9.063       18.010        6.332       82.142      324.342       40.099        0.044        0.022       20.461        3.309        0.026      331.777        0.011      873.594
01/20/2022  01:05:00       10.603       45.867       -3.631       13.156       12.489        9.449      173.070      155.984       89.285        0.132        0.021       47.077        5.051        0.012      331.887        0.193      873.596
01/20/2022  01:06:00       20.620       48.747       -5.797       18.490       16.046       12.378      341.897      257.470      153.221        0.179        0.038       52.929       11.251        0.045      331.846        0.126      873.612
01/20/2022  01:07:00       25.663       57.649       -7.711       14.162       23.296       12.349      200.573      542.692      152.486        0.247        0.045       63.103        8.110        0.017      331.880        0.179      873.635
01/20/2022  01:08:00       -1.712       76.213       -8.288       13.677       18.312       12.855      187.057      335.325      165.257        0.328        0.034       76.233        5.587        0.005      331.847        0.126      873.645
01/20/2022  01:09:00        4.420       83.900      -10.077       17.527       22.823       12.170      307.200      520.893      148.101        0.407        0.049       84.016        7.253        0.007      331.812        0.069      873.661
01/20/2022  01:10:00       15.025       67.244        0.774       23.755       27.742       18.129      564.277      769.617      328.660        0.321        0.083       68.903       18.927        0.075      331.871        0.168      873.687
01/20/2022  01:11:00       32.001       64.576       -1.899       19.916       25.672       14.066      396.656      659.075      197.853        0.323        0.063       72.070       11.067        0.024      331.778        0.013      873.699
01/20/2022  01:12:00       40.334       58.431       -4.015       20.114       21.341       11.700      404.566      455.419      136.899        0.303        0.050       71.000        8.422        0.014      331.735       -0.057      873.715
01/20/2022  01:13:00       49.314       57.516       -6.014       23.985       22.037       18.368      575.265      485.625      337.374        0.359        0.070       75.762       15.352        0.041      331.744       -0.043      873.731
01/20/2022  01:14:00       48.187       44.678       -7.124       18.072       16.159       11.890      326.613      261.101      141.369        0.255        0.036       65.713        7.871        0.014      331.693       -0.126      873.734
01/20/2022  01:15:00       53.175       29.700       -4.121       15.577       10.749       11.148      242.638      115.545      124.278        0.210        0.024       60.907        6.491        0.011      331.639       -0.216      873.736
01/20/2022  01:16:00       58.137       27.630       -9.253       22.897       13.370       11.278      524.274      178.750      127.196        0.253        0.042       64.369       10.696        0.028      331.646       -0.204      873.740
01/20/2022  01:17:00       55.793       21.521       -3.551       17.979       17.253       11.896      323.233      297.655      141.525        0.218        0.038       59.800       12.198        0.042      331.611       -0.261      873.734
01/20/2022  01:18:00       47.449       28.108       -4.534       21.148       17.339       13.042      447.251      300.646      170.105        0.199        0.046       55.150       11.541        0.044      331.580       -0.313      873.718
01/20/2022  01:19:00       34.524       33.653      -12.474       20.457       15.503       12.454      418.476      240.351      155.092        0.165        0.041       48.212        2.786        0.003      331.631       -0.229      873.701
01/20/2022  01:20:00       21.726       35.838      -12.236       11.074        9.420        9.204      122.637       88.739       84.713        0.110        0.015       41.909        6.688        0.025      331.697       -0.121      873.676
01/20/2022  01:21:00       33.607       42.992       -7.170       19.474       15.030        7.775      379.218      225.910       60.449        0.185        0.033       54.568        7.587        0.019      331.764       -0.010      873.662
01/20/2022  01:22:00       35.509       47.180       -9.202        9.701        9.944        7.819       94.106       98.890       61.138        0.191        0.013       59.050        3.947        0.004      331.778        0.013      873.651
01/20/2022  01:23:00       17.961       54.510       -5.067       13.719       14.563        9.692      188.216      212.073       93.929        0.191        0.025       57.393        5.393        0.009      331.881        0.183      873.658
01/20/2022  01:24:00       -3.956       37.273       -4.639       19.863       15.703       10.704      394.537      246.597      114.576        0.109        0.038       37.482        6.387        0.029      331.753       -0.028      873.673
01/20/2022  01:25:00        5.566       52.583       -9.701       16.949       18.125       17.629      287.278      328.509      310.779        0.191        0.046       52.877        8.973        0.029      331.806        0.059      873.683
01/20/2022  01:26:00       -3.073       39.825       -7.799       13.528       15.950       11.347      182.999      254.395      128.750        0.111        0.028       39.944        7.905        0.039      331.817        0.077      873.694
01/20/2022  01:27:00      -22.587       19.764      -14.383       23.515       15.146       11.553      552.978      229.415      133.470        0.101        0.046       30.014       10.778        0.129      331.671       -0.163      873.709
01/20/2022  01:28:00      -65.458       24.198      -11.382       10.266       11.704        8.394      105.388      136.980       70.455        0.266        0.016       69.787        4.279        0.004      331.663       -0.175      873.732
01/20/2022  01:29:00      -41.328        4.735       -2.824       28.652       11.720       11.881      820.917      137.369      141.170        0.142        0.055       41.599       12.419        0.089      331.664       -0.175      873.754
01/20/2022  01:30:00       -6.292        4.306       -3.010       14.572       14.666       11.603      212.344      215.092      134.619        0.031        0.028        7.625        9.876        1.678      331.742       -0.046      873.770
01/20/2022  01:31:00      -33.293        7.669       -1.356       35.525       15.878       10.860     1262.042      252.100      117.932        0.140        0.082       34.165       11.082        0.105      331.801        0.052      873.780
01/20/2022  01:32:00      -83.787       15.969       -8.629       11.522       12.341       11.852      132.748      152.300      140.462        0.389        0.021       85.295        5.803        0.005      331.761       -0.014      873.790
01/20/2022  01:33:00      -73.077        9.803      -15.904       20.705       21.185       15.733      428.691      448.803      247.539        0.341        0.056       73.732        4.771        0.004      331.784        0.023      873.791
01/20/2022  01:34:00      -34.858        0.244       -5.531       30.351       24.462       17.087      921.173      598.373      291.963        0.153        0.091       34.858        7.311        0.044      331.774        0.008      873.798
01/20/2022  01:35:00      -27.145        8.887        2.635       34.640       27.345       16.920     1199.914      747.760      286.297        0.153        0.112       28.563        8.307        0.085      331.707       -0.105      873.808
01/20/2022  01:36:00      -61.733      -18.619        1.291       36.680       25.064       19.539     1345.388      628.212      381.768        0.326        0.118       64.480       15.672        0.059      331.781        0.018      873.817
01/20/2022  01:37:00      -76.381      -11.044       -1.770       45.927       29.757       28.089     2109.286      885.457      788.978        0.487        0.189       77.175       28.099        0.133      331.804        0.056      873.826
01/20/2022  01:38:00      -83.587      -43.012      -16.006       58.954       54.261       28.911     3475.526     2944.227      835.844        0.817        0.363       94.004       25.946        0.076      331.724       -0.077      873.835
01/20/2022  01:39:00     -140.849        1.397      -10.751       70.549       51.961       35.032     4977.108     2699.939     1227.227        1.443        0.445      140.856       29.494        0.044      331.558       -0.350      873.843
01/20/2022  01:40:00     -104.777       -2.410       -3.098       76.373       44.007       38.049     5832.846     1936.604     1447.723        1.010        0.461      104.805       38.361        0.134      331.563       -0.342      873.844
01/20/2022  01:41:00     -140.864       -4.475      -11.211       57.376       48.914       36.264     3291.989     2392.577     1315.091        1.349        0.350      140.935       36.571        0.067      331.528       -0.400      873.846
01/20/2022  01:42:00     -140.845      -13.837      -14.654       48.115       50.160       30.373     2315.044     2515.988      922.490        1.300        0.288      141.523       23.283        0.027      331.516       -0.420      873.858
01/20/2022  01:43:00     -130.290       -5.552      -13.003       59.340       36.771       34.413     3521.233     1352.143     1184.280        1.162        0.303      130.408       33.346        0.065      331.506       -0.435      873.867
01/20/2022  01:44:00     -178.810      -16.803       -9.312       60.857       48.629       36.040     3703.529     2364.780     1298.885        1.985        0.368      179.597       35.533        0.039      331.566       -0.336      873.873
01/20/2022  01:45:00     -155.808      -15.891      -15.094       45.985       42.952       28.759     2114.654     1844.875      827.051        1.477        0.239      156.616       25.108        0.026      331.585       -0.305      873.881
01/20/2022  01:46:00     -100.075      -13.317      -15.549       73.287       42.506       25.446     5370.930     1806.737      647.498        0.913        0.391      100.957       17.184        0.029      331.602       -0.277      873.885
01/20/2022  01:47:00      -98.899       13.939       -4.198       54.694       42.603       28.833     2991.487     1815.000      831.316        0.781        0.282       99.877       20.867        0.044      331.687       -0.138      873.895
01/20/2022  01:48:00     -156.179       -9.086      -12.119       60.198       40.431       34.479     3623.859     1634.625     1188.822        1.553        0.322      156.443       34.129        0.048      331.652       -0.196      873.905
01/20/2022  01:49:00     -141.933      -21.210      -10.667       49.081       42.168       29.686     2408.967     1778.153      881.240        1.289        0.253      143.509       22.182        0.024      331.656       -0.189      873.905
01/20/2022  01:50:00     -154.144       -7.504      -25.790       37.106       27.993       22.284     1376.845      783.610      496.575        1.357        0.133      154.326       19.846        0.017      331.676       -0.156      873.908
01/20/2022  01:51:00      -69.781        6.931       -2.548       44.451       28.850       21.716     1975.878      832.335      471.605        0.410        0.164       70.124       20.448        0.085      331.657       -0.187      873.905
01/20/2022  01:52:00      -86.827       -9.862       -1.642       40.313       40.123       28.514     1625.141     1609.834      813.044        0.584        0.202       87.385       19.811        0.051      331.720       -0.082      873.904
01/20/2022  01:53:00      -58.434        2.326       -0.634       52.909       40.247       30.945     2799.312     1619.850      957.586        0.440        0.269       58.480       29.736        0.259      331.705       -0.106      873.912
01/20/2022  01:54:00      -75.596       35.464       -6.018       47.089       31.907       28.063     2217.416     1018.037      787.558        0.552        0.201       83.502       26.785        0.103      331.646       -0.205      873.920
01/20/2022  01:55:00     -118.854       15.427       -9.416       31.273       27.319       19.929      978.013      746.309      397.181        0.829        0.106      119.851       15.390        0.016      331.586       -0.305      873.928
01/20/2022  01:56:00      -90.646        3.837      -14.421       54.129       37.710       30.035     2929.944     1422.044      902.126        0.685        0.263       90.727       26.444        0.085      331.639       -0.217      873.938
01/20/2022  01:57:00      -93.984       16.337       -2.253       45.113       39.370       26.264     2035.170     1549.982      689.797        0.669        0.214       95.394       19.568        0.042      331.579       -0.314      873.946
01/20/2022  01:58:00     -120.320       22.578       -8.977       34.845       28.119       19.718     1214.144      790.703      388.787        0.873        0.120      122.420       12.328        0.010      331.515       -0.420      873.950
01/20/2022  01:59:00     -112.605       14.802       -1.136       29.522       22.364       20.675      871.529      500.163      427.435        0.735        0.090      113.574       14.257        0.016      331.534       -0.391      873.956
01/20/2022  02:00:00     -116.894       29.116       -5.611       27.646       23.378       16.896      764.282      546.514      285.480        0.807        0.080      120.465       15.574        0.017      331.494       -0.455      873.957
01/20/2022  02:01:00      -96.539       20.167      -11.112       28.811       22.052       16.996      830.049      486.303      288.863        0.573        0.080       98.623        9.142        0.009      331.492       -0.458      873.959
01/20/2022  02:02:00     -105.612       23.710       -1.457       36.741       26.997       20.489     1349.888      728.852      419.790        0.711        0.125      108.241       18.402        0.029      331.340       -0.708      873.968
01/20/2022  02:03:00     -133.387       27.827       -6.865       29.876       24.026       17.836      892.595      577.271      318.140        1.020        0.089      136.258       15.235        0.013      331.397       -0.614      873.978
01/20/2022  02:04:00     -108.421       20.702       -3.187       50.452       28.458       23.156     2545.402      809.843      536.180        0.804        0.195      110.379       27.712        0.063      331.308       -0.761      873.980
01/20/2022  02:05:00      -64.479       24.252       -9.327       41.927       33.972       15.676     1757.843     1154.089      245.727        0.399        0.158       68.889       19.311        0.079      331.329       -0.727      873.985
01/20/2022  02:06:00      -39.034       -6.508      -16.435       43.717       20.190       17.663     1911.144      407.642      311.987        0.223        0.132       39.573        9.112        0.053      331.420       -0.577      873.979
01/20/2022  02:07:00      -64.952        9.106       -6.316       31.305       25.125       17.194      979.976      631.287      295.629        0.312        0.095       65.587       17.410        0.070      331.461       -0.510      873.977
01/20/2022  02:08:00      -73.700       26.549      -10.462       29.703       17.118       15.154      882.272      293.034      229.634        0.383        0.070       78.336       14.309        0.033      331.407       -0.598      873.972
01/20/2022  02:09:00      -73.011        9.205       -7.750       29.313       26.531       24.501      859.268      703.874      600.282        0.382        0.108       73.589       19.605        0.071      331.396       -0.616      873.971
01/20/2022  02:10:00      -84.039       13.298      -15.975       27.548       18.021       17.711      758.875      324.760      313.663        0.445        0.070       85.084       13.213        0.024      331.436       -0.549      873.976
01/20/2022  02:11:00     -102.621       25.897      -12.707       23.800       20.674       14.448      566.434      427.420      208.743        0.628        0.060      105.838       12.097        0.013      331.365       -0.667      873.976
01/20/2022  02:12:00     -112.497       29.896      -15.626       20.562       18.622       14.925      422.795      346.768      222.765        0.739        0.050      116.401       11.894        0.010      331.281       -0.804      873.974
01/20/2022  02:13:00     -110.562       32.813      -14.656       32.405       23.343       17.143     1050.077      544.876      293.873        0.770        0.094      115.328       15.790        0.019      331.266       -0.830      873.976
01/20/2022  02:14:00      -84.507       18.502       -0.297       30.681       29.637       21.335      941.310      878.376      455.191        0.488        0.114       86.509       12.597        0.021      331.295       -0.782      873.972
01/20/2022  02:15:00      -69.408       15.001        4.604       41.901       24.074       20.731     1755.712      579.577      429.759        0.391        0.138       71.011       18.122        0.065      331.377       -0.648      873.977
01/20/2022  02:16:00     -100.988       23.437       -6.356       24.698       21.386       15.857      610.007      457.343      251.458        0.605        0.066      103.672       11.506        0.012      331.333       -0.719      873.980
01/20/2022  02:17:00      -99.446       16.608       -1.949       32.613       21.562       17.312     1063.636      464.921      299.722        0.600        0.091      100.823       17.870        0.031      331.299       -0.774      873.977
01/20/2022  02:18:00      -89.409       17.060       -0.002       32.377       22.776       18.070     1048.285      518.736      326.523        0.509        0.095       91.022       14.341        0.025      331.399       -0.611      873.962
01/20/2022  02:19:00     -127.399       31.666       -6.867       24.978       17.158       14.023      623.885      294.383      196.652        0.920        0.056      131.275       11.490        0.008      331.394       -0.620      873.943
01/20/2022  02:20:00     -104.917       27.295        0.852       38.207       20.530       19.855     1459.749      421.500      394.205        0.701        0.114      108.409       17.964        0.027      331.395       -0.618      873.929
01/20/2022  02:21:00      -90.919       30.421        2.968       32.692       22.910       19.545     1068.752      524.866      382.009        0.559        0.099       95.874       18.580        0.038      331.269       -0.824      873.926
01/20/2022  02:22:00      -79.676       15.301       -5.499       35.048       26.738       17.701     1228.375      714.903      313.316        0.443        0.113       81.132       11.012        0.018      331.387       -0.631      873.922
01/20/2022  02:23:00     -100.501       24.314      -10.203       33.254       23.304       15.521     1105.817      543.075      240.889        0.634        0.094      103.400       13.565        0.017      331.383       -0.638      873.918
01/20/2022  02:24:00      -79.385       21.533       -3.370       37.194       20.938       20.892     1383.360      438.419      436.479        0.452        0.113       82.254       23.042        0.078      331.354       -0.686      873.912
01/20/2022  02:25:00      -50.269       13.825        2.853       34.310       20.509       16.500     1177.206      420.634      272.237        0.230        0.094       52.135       14.606        0.078      331.357       -0.681      873.908
01/20/2022  02:26:00      -50.056        7.904      -10.021       28.610       19.866       14.900      818.542      394.639      222.020        0.205        0.072       50.677       15.396        0.092      331.426       -0.568      873.896
01/20/2022  02:27:00      -42.334        9.558       -2.517       30.025       21.189       18.963      901.509      448.976      359.591        0.180        0.086       43.400       13.613        0.098      331.411       -0.590      873.891
01/20/2022  02:28:00      -27.033       12.639       -3.307       27.254       24.821       15.921      742.760      616.063      253.466        0.126        0.081       29.842       11.169        0.140      331.443       -0.541      873.880
01/20/2022  02:29:00      -44.233       10.791      -11.964       34.560       18.033       11.733     1194.386      325.178      137.672        0.194        0.083       45.530        7.841        0.030      331.462       -0.509      873.861
01/20/2022  02:30:00      -62.459        9.633       -7.343       24.922       18.578       14.381      621.117      345.154      206.808        0.261        0.059       63.197        7.889        0.016      331.541       -0.378      873.841
01/20/2022  02:31:00      -66.486       11.647       -7.876       27.543       22.632       14.168      758.595      512.199      200.745        0.304        0.074       67.499        8.243        0.015      331.474       -0.489      873.833
01/20/2022  02:32:00      -81.508       12.560       -7.585       20.713       19.061       15.188      429.032      363.308      230.672        0.394        0.051       82.470        7.151        0.008      331.438       -0.548      873.832
01/20/2022  02:33:00      -94.003       21.953      -11.767       17.502       19.324       12.471      306.306      373.426      155.527        0.515        0.042       96.532        7.754        0.006      331.404       -0.604      873.828
01/20/2022  02:34:00      -68.489       28.463       -5.729       29.024       22.831       17.257      842.376      521.268      297.817        0.360        0.083       74.168       13.272        0.032      331.285       -0.799      873.836
01/20/2022  02:35:00      -68.104       36.340       -7.737       29.370       20.289       18.657      862.609      411.634      348.086        0.382        0.081       77.193       16.591        0.046      331.265       -0.831      873.834
01/20/2022  02:36:00      -62.117       32.338       -6.982       37.506       21.326       19.492     1406.728      454.810      379.957        0.360        0.112       70.030       18.117        0.067      331.237       -0.877      873.831
01/20/2022  02:37:00      -80.562       35.364       -8.725       24.181       19.783       18.165      584.740      391.364      329.954        0.456        0.065       87.982       12.396        0.020      331.282       -0.803      873.815
01/20/2022  02:38:00      -64.372       16.186       -4.199       28.451       17.876       17.613      809.474      319.560      310.228        0.293        0.072       66.376       18.688        0.079      331.343       -0.702      873.796
01/20/2022  02:39:00      -28.685       -0.947       -1.973       32.388       18.280       13.063     1048.975      334.174      170.644        0.119        0.078       28.701       13.473        0.220      331.404       -0.602      873.768
01/20/2022  02:40:00      -16.346       -4.718       -8.852       13.498       11.913       11.207      182.190      141.925      125.603        0.041        0.022       17.013        5.832        0.118      331.521       -0.411      873.757
01/20/2022  02:41:00       -1.766       -1.195       -5.609       16.218       14.087        8.628      263.016      198.451       74.444        0.029        0.027        2.132        7.512       12.415      331.483       -0.473      873.754
01/20/2022  02:42:00      -12.066        6.436      -10.194       15.290       19.128       12.573      233.794      365.881      158.092        0.052        0.038       13.675        6.355        0.216      331.460       -0.511      873.764
01/20/2022  02:43:00      -48.637       -7.517       -4.543       47.663       25.982       18.904     2271.773      675.040      357.364        0.287        0.165       49.214       12.967        0.069      331.268       -0.827      873.781
01/20/2022  02:44:00      -59.003       -8.743       -0.355       45.191       25.609       22.604     2042.234      655.835      510.936        0.338        0.160       59.647       19.776        0.110      331.280       -0.806      873.808
01/20/2022  02:45:00      -49.352        6.632       -3.660       39.435       29.307       26.228     1555.118      858.879      687.928        0.280        0.155       49.795       18.586        0.139      331.294       -0.783      873.828
01/20/2022  02:46:00      -14.771        0.449        6.477       39.626       27.482       25.593     1570.215      755.238      654.977        0.162        0.149       14.778       18.357        1.543      331.333       -0.720      873.845
01/20/2022  02:47:00      -89.671      -11.487       -5.818       38.091       25.912       20.801     1450.949      671.444      432.685        0.538        0.128       90.403       16.045        0.032      331.485       -0.471      873.850
01/20/2022  02:48:00      -83.263      -28.421       -5.831       43.209       23.973       21.417     1866.988      574.727      458.670        0.534        0.145       87.980       18.661        0.045      331.496       -0.452      873.851
01/20/2022  02:49:00      -60.570      -30.578      -11.598       43.431       38.142       27.818     1886.225     1454.818      773.846        0.443        0.206       67.851       23.692        0.122      331.376       -0.649      873.829
01/20/2022  02:50:00      -60.501      -20.472      -11.330       55.901       49.438       35.001     3124.894     2444.141     1225.092        0.550        0.340       63.871       32.840        0.264      331.341       -0.704      873.804
01/20/2022  02:51:00      -43.220      -18.486       -5.687       27.153       31.047       28.395      737.284      963.892      806.271        0.237        0.125       47.008       12.722        0.073      331.430       -0.562      873.771
01/20/2022  02:52:00      -61.340       11.181        2.052       43.286       23.770       22.981     1873.662      565.011      528.110        0.343        0.148       62.351       12.473        0.040      331.391       -0.626      873.746
01/20/2022  02:53:00       -5.873        0.155       -4.905       28.653       16.127       14.760      821.016      260.086      217.872        0.068        0.065        5.875        6.836        1.354      331.340       -0.709      873.722
01/20/2022  02:54:00      -55.518        0.412       -6.133       44.040       24.238       24.332     1939.526      587.478      592.045        0.312        0.156       55.520       20.203        0.132      331.398       -0.614      873.717
01/20/2022  02:55:00      -49.387        2.947        6.103       49.193       31.921       19.212     2420.000     1018.978      369.100        0.315        0.190       49.475       16.166        0.107      331.358       -0.680      873.725
01/20/2022  02:56:00      -81.673       -7.490       -5.932       46.808       30.254       24.969     2190.959      915.314      623.452        0.525        0.186       82.016       17.552        0.046      331.319       -0.742      873.739
01/20/2022  02:57:00      -58.304       -2.172       -1.121       43.022       31.385       23.750     1850.905      985.005      564.056        0.340        0.170       58.345       21.830        0.140      331.296       -0.780      873.751
01/20/2022  02:58:00      -34.839        3.488       -9.304       26.199       24.254       20.669      686.395      588.269      427.224        0.151        0.085       35.013       13.416        0.147      331.313       -0.752      873.762
01/20/2022  02:59:00      -48.874       18.162      -10.193       23.444       14.405       14.709      549.627      207.511      216.352        0.190        0.049       52.140       12.786        0.060      331.263       -0.834      873.761
01/20/2022  03:00:00      -52.716       16.017      -12.671       22.849       20.377       17.165      522.066      415.212      294.652        0.221        0.062       55.095        7.962        0.021      331.204       -0.931      873.758
01/20/2022  03:01:00      -41.450        0.893       -4.780       17.972       15.310       15.606      323.004      234.392      243.535        0.127        0.040       41.459        6.596        0.025      331.203       -0.934      873.746
01/20/2022  03:02:00       -6.481      -15.956       -7.762       18.493       10.671       12.454      342.007      113.871      155.110        0.048        0.031       17.222        9.667        0.315      331.243       -0.867      873.728
01/20/2022  03:03:00      -18.276        6.149       -7.268       12.419       11.338        7.722      154.242      128.546       59.625        0.038        0.017       19.283        5.038        0.068      331.198       -0.943      873.709
01/20/2022  03:04:00      -27.625       14.167       -5.076       14.233       11.768       10.443      202.575      138.493      109.048        0.072        0.023       31.046        7.567        0.059      331.141       -1.035      873.689
01/20/2022  03:05:00      -27.731       -5.077      -13.353       15.363       13.360       10.216      236.025      178.493      104.358        0.075        0.026       28.192        6.767        0.058      331.188       -0.958      873.663
01/20/2022  03:06:00      -43.685       -5.097      -12.537       18.502       18.065       12.969      342.314      326.355      168.202        0.146        0.042       43.982        6.150        0.020      331.277       -0.811      873.649
01/20/2022  03:07:00      -10.416       -4.816       -3.877       24.910       21.647       19.092      620.499      468.600      364.499        0.080        0.073       11.475       15.927        1.926      331.197       -0.942      873.638
01/20/2022  03:08:00      -53.066       -4.536       -2.935       51.141       31.491       22.030     2615.452      991.683      485.304        0.347        0.205       53.260       18.159        0.116      331.220       -0.905      873.630
01/20/2022  03:09:00     -107.286      -11.621        2.057       44.736       31.276       25.996     2001.352      978.213      675.797        0.765        0.183      107.913       21.652        0.040      331.182       -0.968      873.622
01/20/2022  03:10:00      -96.372      -16.394       -8.913       62.005       36.189       29.341     3844.672     1309.617      860.883        0.782        0.301       97.756       26.467        0.073      331.209       -0.923      873.610
01/20/2022  03:11:00      -35.737      -12.092       -0.968       56.367       32.620       26.833     3177.211     1064.084      720.013        0.319        0.248       37.727       22.568        0.358      331.170       -0.987      873.592
01/20/2022  03:12:00      -43.785      -11.338       -8.816       44.347       35.856       27.197     1966.700     1285.629      739.663        0.306        0.200       45.230        5.721        0.016      331.175       -0.979      873.571
01/20/2022  03:13:00      -23.159        3.184       -8.632       33.316       31.004       23.084     1109.968      961.231      532.886        0.161        0.130       23.377       10.735        0.211      331.197       -0.942      873.536
01/20/2022  03:14:00      -67.105       -3.895       -0.314       55.788       33.579       27.694     3112.343     1127.519      766.981        0.476        0.250       67.218       14.631        0.047      331.171       -0.987      873.512
01/20/2022  03:15:00      -90.811       -7.724       -5.360       46.149       23.974       19.574     2129.695      574.760      383.132        0.571        0.154       91.139       17.986        0.039      331.195       -0.946      873.499
01/20/2022  03:16:00      -36.085      -18.664       -0.264       45.669       21.846       20.679     2085.624      477.262      427.627        0.232        0.150       40.626       23.648        0.339      331.257       -0.844      873.506
01/20/2022  03:17:00      -65.507      -16.153       -3.029       53.289       21.526       25.371     2839.746      463.353      643.696        0.425        0.197       67.469       21.492        0.101      331.196       -0.944      873.525
01/20/2022  03:18:00      -63.629      -13.804        8.198       45.092       31.609       26.090     2033.276      999.104      680.682        0.401        0.186       65.109       22.670        0.121      331.240       -0.872      873.541
01/20/2022  03:19:00      -20.173       -0.023       -1.152       28.184       32.000       16.571      794.328     1024.032      274.585        0.125        0.105       20.173        7.381        0.134      331.271       -0.821      873.556
01/20/2022  03:20:00      -53.354       -3.968        1.453       44.041       31.377       22.363     1939.638      984.499      500.095        0.314        0.171       53.502       19.707        0.136      331.197       -0.942      873.575
01/20/2022  03:21:00      -92.262       14.438       -3.871       44.351       20.898       20.348     1967.044      436.723      414.043        0.578        0.141       93.385       17.121        0.034      331.121       -1.069      873.580
01/20/2022  03:22:00      -84.766       11.788        3.765       51.721       31.372       19.857     2675.028      984.214      394.301        0.570        0.203       85.582       20.664        0.058      331.086       -1.125      873.582
01/20/2022  03:23:00      -45.688        7.494       -8.118       26.731       23.211       19.646      714.561      538.730      385.980        0.192        0.082       46.299        7.250        0.025      331.069       -1.154      873.574
01/20/2022  03:24:00      -51.341       30.658       -2.708       23.826       17.347       16.834      567.668      300.918      283.378        0.237        0.058       59.799        8.814        0.022      330.965       -1.326      873.561
01/20/2022  03:25:00      -63.494       21.261       -9.873       15.806       19.256       11.686      249.818      370.780      136.573        0.267        0.038       66.959        7.383        0.012      330.984       -1.293      873.532
01/20/2022  03:26:00      -59.596       20.522       -6.173       12.370       11.679       10.795      153.028      136.405      116.537        0.221        0.020       63.030        4.134        0.004      331.057       -1.173      873.501
01/20/2022  03:27:00      -18.318        0.082       -7.659       26.479       11.879       10.341      701.142      141.101      106.941        0.067        0.047       18.318       12.581        0.472      331.093       -1.114      873.478
01/20/2022  03:28:00      -17.606       27.925       -7.603       14.785       14.623       10.019      218.584      213.834      100.390        0.084        0.027       33.012        7.636        0.053      331.066       -1.159      873.459
01/20/2022  03:29:00       -4.510       22.985       -9.147       13.246       15.806        8.295      175.448      249.831       68.803        0.056        0.025       23.423        9.523        0.165      331.009       -1.254      873.455
01/20/2022  03:30:00       -3.529       17.080       -1.038       11.549       11.025        6.190      133.375      121.550       38.311        0.030        0.015       17.441        3.458        0.039      330.947       -1.354      873.451
01/20/2022  03:31:00      -15.799       25.322       -3.393        8.354       10.373        5.972       69.789      107.604       35.666        0.056        0.011       29.847        3.030        0.010      331.063       -1.165      873.446
01/20/2022  03:32:00       -0.595       16.685       -3.793        8.082        9.266        5.097       65.324       85.862       25.983        0.024        0.009       16.696        5.328        0.102      331.002       -1.265      873.439
01/20/2022  03:33:00       -7.429       18.708       -6.870        6.953        5.553        5.813       48.343       30.840       33.794        0.028        0.006       20.129        2.850        0.020      331.050       -1.186      873.427
01/20/2022  03:34:00      -26.621       15.539       -6.785       15.831       10.037        8.841      250.627      100.741       78.172        0.071        0.021       30.824        5.669        0.034      331.078       -1.138      873.419
01/20/2022  03:35:00      -34.528       12.432       -9.001       12.035       10.770       10.118      144.853      115.983      102.383        0.090        0.018       36.697        6.196        0.029      331.018       -1.238      873.410
01/20/2022  03:36:00       -4.460       -4.788        4.297       10.221       22.031        8.507      104.470      485.370       72.374        0.036        0.033        6.544        2.851        0.190      331.001       -1.265      873.411
01/20/2022  03:37:00      -12.705       -9.361       -3.865       21.494       16.203       11.245      461.992      262.537      126.445        0.056        0.043       15.781        7.628        0.234      331.031       -1.216      873.422
01/20/2022  03:38:00      -30.959       -7.650       -3.110       22.201       17.412       12.828      492.877      303.179      164.556        0.099        0.048       31.890       10.016        0.099      330.996       -1.274      873.443
01/20/2022  03:39:00      -53.895       -8.498        0.234       37.524       34.124       23.640     1408.041     1164.421      558.846        0.305        0.157       54.561       22.625        0.172      331.113       -1.081      873.485
01/20/2022  03:40:00      -51.017      -12.566        0.191       57.733       37.351       27.257     3333.090     1395.096      742.922        0.411        0.274       52.542       19.269        0.135      331.127       -1.057      873.533
01/20/2022  03:41:00      -99.121       -2.300        3.428       64.791       32.324       35.176     4197.931     1044.852     1237.384        0.816        0.324       99.148       35.172        0.126      330.982       -1.298      873.585
01/20/2022  03:42:00      -89.283       22.009       -5.546       49.064       37.006       26.114     2407.317     1369.447      681.959        0.647        0.223       91.956       18.485        0.040      330.921       -1.398      873.639
01/20/2022  03:43:00      -90.191       28.912       -1.259       57.817       31.945       28.893     3342.801     1020.452      834.781        0.708        0.260       94.711       26.285        0.077      330.835       -1.537      873.673
01/20/2022  03:44:00      -49.978       13.729      -13.131       50.474       32.124       19.723     2547.622     1031.974      389.009        0.341        0.198       51.830        7.172        0.019      330.874       -1.473      873.689
01/20/2022  03:45:00     -109.139       28.587      -10.254       40.534       34.099       27.572     1643.007     1162.766      760.192        0.820        0.178      112.821       16.136        0.020      330.846       -1.520      873.710
01/20/2022  03:46:00      -58.441       25.718       -4.575       51.692       35.827       19.488     2672.090     1283.568      379.782        0.422        0.217       63.849       18.999        0.089      330.782       -1.623      873.716
01/20/2022  03:47:00      -71.438       19.548       -8.697       35.210       23.825       22.616     1239.772      567.626      511.468        0.394        0.116       74.064       18.273        0.061      330.839       -1.530      873.716
01/20/2022  03:48:00      -94.794       32.392      -18.108       16.501       25.485       14.213      272.295      649.499      201.997        0.574        0.056      100.176       10.205        0.010      330.842       -1.526      873.719
01/20/2022  03:49:00     -106.457       19.823      -12.132       30.715       21.956       17.389      943.433      482.052      302.379        0.680        0.086      108.287       12.705        0.014      330.836       -1.536      873.718
01/20/2022  03:50:00      -73.374       11.195        5.375       46.423       39.580       22.223     2155.116     1566.613      493.842        0.488        0.211       74.223       26.175        0.124      330.812       -1.575      873.730
01/20/2022  03:51:00      -78.102       29.006       -4.573       49.094       39.707       26.974     2410.193     1576.666      727.590        0.584        0.236       83.314       15.867        0.036      330.793       -1.607      873.738
01/20/2022  03:52:00      -75.879        8.238        8.179       48.748       38.999       21.864     2376.335     1520.945      478.056        0.513        0.219       76.325       24.138        0.100      330.773       -1.639      873.747
01/20/2022  03:53:00      -88.493       21.971        0.178       51.514       36.260       23.293     2653.700     1314.773      542.569        0.641        0.226       91.180       26.567        0.085      330.765       -1.652      873.745
01/20/2022  03:54:00     -109.398      -16.536      -13.365       35.576       32.213       27.374     1265.655     1037.668      749.344        0.774        0.153      110.641       12.553        0.013      330.831       -1.544      873.733
01/20/2022  03:55:00     -116.861       -4.551      -13.206       42.142       23.369       22.815     1775.984      546.114      520.540        0.835        0.142      116.950       18.209        0.024      330.807       -1.584      873.723
01/20/2022  03:56:00     -121.249       -0.048      -16.956       35.047       34.108       25.458     1228.316     1163.340      648.133        0.901        0.152      121.249       20.475        0.029      330.881       -1.462      873.725
01/20/2022  03:57:00     -111.108       -0.798      -14.163       31.630       33.521       18.431     1000.453     1123.683      339.684        0.750        0.123      111.110       17.384        0.024      330.967       -1.322      873.727
01/20/2022  03:58:00     -131.976       30.678       -9.573       33.352       27.790       20.401     1112.340      772.291      416.216        1.038        0.115      135.495       13.282        0.010      330.936       -1.374      873.735
01/20/2022  03:59:00     -121.729       23.112        0.164       48.930       33.918       27.423     2394.167     1150.458      752.024        0.982        0.215      123.903       26.255        0.045      330.927       -1.387      873.746
01/20/2022  04:00:00     -114.442       33.961        2.281       60.653       34.200       33.632     3678.743     1169.650     1131.088        1.012        0.299      119.375       34.357        0.083      331.060       -1.168      873.755
01/20/2022  04:01:00     -131.397       35.866        1.389       53.522       39.088       28.467     2864.569     1527.906      810.358        1.188        0.260      136.204       26.228        0.037      331.150       -1.020      873.754
01/20/2022  04:02:00      -84.521       27.599       -5.522       41.887       24.885       24.640     1754.533      619.246      607.124        0.546        0.149       88.913       25.662        0.083      331.122       -1.066      873.738
01/20/2022  04:03:00     -112.058       22.468       -8.106       31.528       26.807       17.970      994.001      718.619      322.937        0.758        0.102      114.288       14.846        0.017      331.044       -1.194      873.716
01/20/2022  04:04:00      -80.676       29.469      -13.026       19.985       17.539       18.473      399.409      307.632      341.257        0.430        0.052       85.890       12.872        0.022      331.027       -1.222      873.685
01/20/2022  04:05:00      -54.696       21.596       -8.442       15.068       16.739        8.954      227.055      280.197       80.179        0.206        0.029       58.805        6.397        0.012      331.051       -1.183      873.643
01/20/2022  04:06:00      -41.195        9.016       -7.418       20.882       12.104       13.632      436.067      146.508      185.839        0.130        0.038       42.170        9.693        0.053      331.180       -0.969      873.597
01/20/2022  04:07:00      -49.652       11.954       -7.126       15.119        9.246        7.499      228.595       85.490       56.229        0.151        0.019       51.071        4.386        0.007      331.212       -0.918      873.560
01/20/2022  04:08:00      -16.383      -13.052       -9.347        9.155       12.856        5.580       83.811      165.287       31.141        0.040        0.014       20.947        3.350        0.026      331.229       -0.889      873.536
01/20/2022  04:09:00       -0.738       -4.403       -7.055        4.312        6.267        5.410       18.594       39.277       29.273        0.008        0.004        4.464        2.417        0.293      331.299       -0.774      873.511
01/20/2022  04:10:00      -13.355      -14.135       -3.106       18.435       13.188       11.692      339.844      173.926      136.707        0.052        0.033       19.446       12.656        0.424      331.174       -0.980      873.502
01/20/2022  04:11:00       -8.161        8.233       -2.363        8.413        7.786        5.772       70.783       60.629       33.316        0.015        0.008       11.593        2.499        0.046      331.065       -1.161      873.495
01/20/2022  04:12:00       -8.138        6.654       -4.195       13.030        6.054        5.097      169.791       36.646       25.981        0.018        0.012       10.512        3.310        0.099      331.031       -1.216      873.501
01/20/2022  04:13:00      -10.770       -2.574       -8.686       14.264       10.635        6.712      203.462      113.108       45.053        0.028        0.018       11.073        4.953        0.200      331.084       -1.129      873.496
01/20/2022  04:14:00      -18.761        4.310       -6.603       10.283        9.892        9.205      105.730       97.846       84.733        0.035        0.014       19.250        6.571        0.117      331.031       -1.216      873.488
01/20/2022  04:15:00       -0.865        4.958       -0.258        5.780        9.929        6.757       33.406       98.590       45.657        0.010        0.009        5.032        5.182        1.060      331.006       -1.257      873.473
01/20/2022  04:16:00       -3.624        4.143       -5.893        8.473       14.437        9.236       71.799      208.439       85.297        0.022        0.018        5.504        4.263        0.600      330.975       -1.309      873.456
01/20/2022  04:17:00       11.891      -15.197       -3.603       16.260       14.415        9.357      264.395      207.797       87.560        0.047        0.028       19.296        5.765        0.089      331.075       -1.146      873.443
01/20/2022  04:18:00       23.109      -13.254       -6.650       11.185       12.278       12.386      125.102      150.751      153.419        0.059        0.021       26.640        7.331        0.076      331.058       -1.171      873.434
01/20/2022  04:19:00      -20.170      -29.633       -6.480       37.656       22.605       23.537     1417.988      510.977      553.971        0.190        0.124       35.846       15.886        0.196      331.092       -1.115      873.446
01/20/2022  04:20:00      -35.475      -13.278        5.898       36.763       43.062       24.873     1351.513     1854.331      618.658        0.265        0.191       37.879       18.824        0.247      331.112       -1.082      873.462
01/20/2022  04:21:00      -19.967       -9.254       -8.211       17.955       19.037       18.461      322.388      362.422      340.817        0.079        0.051       22.007       12.117        0.303      331.129       -1.054      873.485
01/20/2022  04:22:00      -32.902      -15.322       -5.161       24.018       21.809       15.732      576.885      475.632      247.484        0.132        0.065       36.295        4.545        0.016      331.143       -1.032      873.492
01/20/2022  04:23:00      -13.970      -12.519       -5.360       16.113       14.625       11.642      259.631      213.895      135.541        0.049        0.030       18.759        7.922        0.178      331.121       -1.067      873.493
01/20/2022  04:24:00       -4.636       -4.080       -5.833       14.541       16.287       11.235      211.439      265.273      126.216        0.034        0.030        6.175        9.258        2.248      331.026       -1.224      873.486
01/20/2022  04:25:00       -3.275       -6.428       -8.355       10.295       12.883        6.161      105.997      165.974       37.953        0.022        0.015        7.214        3.203        0.197      331.004       -1.262      873.477
01/20/2022  04:26:00      -18.626      -26.972      -10.738       25.608       28.730       17.578      655.748      825.390      309.000        0.149        0.090       32.779        5.268        0.026      331.013       -1.245      873.469
01/20/2022  04:27:00       -2.998      -10.910       -6.142        6.485       11.810       10.341       42.055      139.475      106.947        0.023        0.014       11.315        6.082        0.289      331.035       -1.209      873.468
01/20/2022  04:28:00        0.639       24.824        4.116       20.607       20.037       13.073      424.647      401.466      170.911        0.082        0.050       24.832       10.761        0.188      330.963       -1.329      873.475
01/20/2022  04:29:00       -4.391       16.472       -4.828       27.457       13.763       11.544      753.873      189.428      133.275        0.070        0.054       17.047       10.561        0.384      330.918       -1.402      873.482
01/20/2022  04:30:00       11.977       17.590       -0.405       17.329       16.285       12.366      300.288      265.206      152.929        0.059        0.036       21.281        7.257        0.116      330.860       -1.497      873.488
01/20/2022  04:31:00       37.827       35.656       -1.489       24.733       16.122       10.906      611.704      259.915      118.936        0.185        0.050       51.983        8.374        0.026      330.797       -1.601      873.488
01/20/2022  04:32:00       56.603       33.670      -16.017       10.658       12.535       12.528      113.598      157.126      156.949        0.251        0.021       65.860        6.554        0.010      330.756       -1.667      873.490
01/20/2022  04:33:00       47.561       26.512      -15.366       10.937        9.747        7.398      119.610       94.995       54.727        0.174        0.013       54.452        3.824        0.005      330.692       -1.773      873.492
01/20/2022  04:34:00       44.200       14.586      -13.408       18.906       18.898       11.609      357.435      357.119      134.770        0.160        0.042       46.545        9.179        0.039      330.583       -1.951      873.489
01/20/2022  04:35:00       39.967        6.534       -7.300       17.516       13.883        8.233      306.818      192.725       67.781        0.113        0.028       40.497        8.124        0.040      330.576       -1.964      873.479
01/20/2022  04:36:00       51.880       14.687      -13.253        8.121        7.300       10.164       65.943       53.290      103.314        0.165        0.011       53.919        3.116        0.003      330.562       -1.987      873.462
01/20/2022  04:37:00       34.198        9.040       -9.142       16.583       13.916        7.619      274.987      193.643       58.056        0.093        0.026       35.373        6.093        0.030      330.605       -1.916      873.445
01/20/2022  04:38:00       44.982       13.282       -7.029       10.396       13.972        9.175      108.068      195.227       84.174        0.132        0.019       46.902        0.940        0.000      330.625       -1.882      873.432
01/20/2022  04:39:00       29.675       29.643      -18.915       16.370       16.580       11.544      267.975      274.891      133.269        0.140        0.034       41.944        8.243        0.039      330.562       -1.985      873.424
01/20/2022  04:40:00       26.504       26.466      -13.407       22.419       29.535       16.986      502.592      872.339      288.513        0.162        0.083       37.456       16.358        0.191      330.596       -1.931      873.411
01/20/2022  04:41:00       41.147        5.672      -14.696       12.751       17.498       14.316      162.585      306.193      204.944        0.131        0.034       41.536       10.103        0.059      330.649       -1.844      873.418
01/20/2022  04:42:00       25.986        7.165       -7.313       31.801       30.777       14.425     1011.300      947.229      208.067        0.147        0.108       26.956       11.422        0.180      330.701       -1.757      873.405
01/20/2022  04:43:00       59.123        6.143      -14.416       27.456       25.773       16.034      753.808      664.265      257.087        0.271        0.084       59.441       10.475        0.031      330.631       -1.872      873.391
01/20/2022  04:44:00       86.833       29.218       -7.325       21.393       19.352        9.543      457.652      374.510       91.070        0.469        0.046       91.617        4.970        0.003      330.644       -1.850      873.381
01/20/2022  04:45:00       99.043       29.206      -13.116       27.351       27.537       13.717      748.087      758.304      188.147        0.626        0.085      103.260        3.993        0.001      330.773       -1.639      873.359
01/20/2022  04:46:00       67.203       20.236      -14.907       31.506       33.542       24.815      992.647     1125.092      615.776        0.394        0.137       70.184       16.927        0.058      330.805       -1.586      873.335
01/20/2022  04:47:00       47.848        9.971       -3.190       41.587       21.883       20.829     1729.518      478.847      433.851        0.252        0.132       48.876       20.333        0.173      330.841       -1.527      873.323
01/20/2022  04:48:00       84.314       29.230      -10.223       19.214       17.557       11.861      369.193      308.258      140.689        0.444        0.041       89.237        2.698        0.001      330.835       -1.538      873.318
01/20/2022  04:49:00       72.796       28.271      -10.555       15.161       13.572        9.134      229.842      184.193       83.438        0.335        0.025       78.093        6.933        0.008      330.839       -1.532      873.327
01/20/2022  04:50:00       38.692       14.486      -10.129       25.390       25.382       13.610      644.673      644.243      185.245        0.164        0.074       41.315       10.983        0.071      330.879       -1.465      873.347
01/20/2022  04:51:00       19.420        6.395       -6.147       15.571       22.342       13.703      242.449      499.171      187.768        0.069        0.046       20.446        9.803        0.230      330.931       -1.380      873.372
01/20/2022  04:52:00       -8.930        8.482       -1.491       17.096       17.159       11.063      292.274      294.431      122.383        0.043        0.035       12.316       10.727        0.759      330.812       -1.575      873.397
01/20/2022  04:53:00      -11.121       17.683       -4.851       12.030        8.930        8.740      144.713       79.736       76.394        0.038        0.015       20.890        4.554        0.048      330.779       -1.630      873.407
01/20/2022  04:54:00      -12.321       14.944      -13.865       10.694        8.495        7.279      114.360       72.162       52.983        0.040        0.012       19.368        5.357        0.077      330.805       -1.588      873.411
01/20/2022  04:55:00      -23.677       19.445       -6.068       17.419       12.501        9.721      303.425      156.271       94.491        0.076        0.028       30.638        3.832        0.016      330.839       -1.531      873.407
01/20/2022  04:56:00      -27.760        1.385      -10.390       15.758       11.950       12.027      248.319      142.800      144.651        0.071        0.027       27.795        7.457        0.072      330.927       -1.387      873.402
01/20/2022  04:57:00        2.154       -6.028       -2.086        9.645       14.276        9.682       93.033      203.805       93.748        0.022        0.020        6.401        1.081        0.029      330.986       -1.292      873.395
01/20/2022  04:58:00       -5.521        0.149        1.985       17.910       22.602       13.768      320.770      510.871      189.545        0.053        0.051        5.523       11.156        4.079      330.948       -1.352      873.384
01/20/2022  04:59:00      -20.633        5.634       -1.685       23.298       18.341       15.879      542.787      336.407      252.153        0.080        0.057       21.388        9.488        0.197      330.882       -1.460      873.382
01/20/2022  05:00:00      -59.019       26.056       -5.408       16.137       17.288        9.715      260.419      298.862       94.383        0.242        0.033       64.515        8.551        0.018      330.858       -1.500      873.380
01/20/2022  05:01:00      -67.386       22.434      -12.018       15.797       13.329       13.497      249.554      177.659      182.170        0.290        0.030       71.022        9.960        0.020      330.904       -1.425      873.383
01/20/2022  05:02:00      -76.449       13.030      -12.250       18.256       13.443       15.334      333.284      180.711      235.132        0.346        0.037       77.552        9.375        0.015      330.920       -1.399      873.390
01/20/2022  05:03:00      -63.724       13.983      -10.857       16.935       14.798       13.094      286.809      218.994      171.458        0.253        0.034       65.240        8.980        0.019      330.826       -1.553      873.377
01/20/2022  05:04:00      -59.491       34.998      -10.312       24.377       19.499       15.396      594.252      380.202      237.048        0.304        0.061       69.022       14.291        0.043      330.847       -1.517      873.362
01/20/2022  05:05:00      -49.216       73.773       -7.748       13.282       15.094        8.770      176.422      227.822       76.915        0.420        0.024       88.683        6.469        0.005      330.912       -1.413      873.334
01/20/2022  05:06:00      -51.019       29.798      -11.830       14.658       24.915       14.813      214.871      620.747      219.411        0.234        0.053       59.084        6.574        0.012      330.976       -1.308      873.324
01/20/2022  05:07:00      -34.417       44.468       -4.945       20.427       26.330       11.860      417.256      693.288      140.657        0.222        0.063       56.231        7.570        0.018      330.973       -1.312      873.316
01/20/2022  05:08:00      -24.051       -5.728       -9.833       14.460       14.908       10.330      209.079      222.243      106.716        0.062        0.027       24.724        5.667        0.053      330.974       -1.311      873.316
01/20/2022  05:09:00      -16.553      -20.066      -19.331       15.155       19.541       11.314      229.685      381.844      128.004        0.089        0.037       26.012        5.856        0.051      330.826       -1.552      873.316
01/20/2022  05:10:00      -15.121      -13.237      -14.041       14.574       15.444       12.544      212.409      238.530      157.340        0.060        0.030       20.097       10.527        0.274      330.824       -1.555      873.306
01/20/2022  05:11:00      -43.960       13.200       -5.656       19.210       13.003        9.719      369.036      169.078       94.457        0.139        0.032       45.899        6.286        0.019      330.712       -1.740      873.298
01/20/2022  05:12:00      -31.240        6.074       -7.662       19.698       16.007       15.398      388.016      256.225      237.090        0.098        0.044       31.825       11.225        0.124      330.801       -1.593      873.293
01/20/2022  05:13:00       -6.270       -1.100      -14.499       14.068       14.074       11.533      197.920      198.069      132.999        0.039        0.026        6.365        4.682        0.541      330.835       -1.538      873.296
01/20/2022  05:14:00        8.914       -0.316       -3.459        5.962        7.044        5.248       35.550       49.624       27.544        0.010        0.006        8.920        2.361        0.070      330.833       -1.541      873.298
01/20/2022  05:15:00      -19.597       27.778      -12.610       20.711        7.804        8.814      428.944       60.905       77.685        0.094        0.028       33.995        4.630        0.019      330.913       -1.410      873.289
01/20/2022  05:16:00      -27.339       -9.428      -10.745       14.221       22.139       10.781      202.237      490.119      116.223        0.088        0.040       28.919        5.086        0.031      330.920       -1.398      873.277
01/20/2022  05:17:00      -25.484      -18.499       -6.581       18.443       27.365       13.068      340.137      748.856      170.783        0.115        0.063       31.490        8.469        0.072      331.025       -1.227      873.269
01/20/2022  05:18:00      -19.179      -10.489      -11.992       19.120       27.222       12.139      365.574      741.011      147.349        0.094        0.063       21.860        7.855        0.129      331.035       -1.211      873.253
01/20/2022  05:19:00       -8.013      -10.654        1.946        9.556       12.142       13.307       91.310      147.436      177.075        0.030        0.021       13.331        9.590        0.518      330.922       -1.394      873.241
01/20/2022  05:20:00      -20.892        8.207      -10.524        8.647       17.095        7.859       74.776      292.249       61.763        0.052        0.021       22.446        8.028        0.128      330.906       -1.422      873.230
01/20/2022  05:21:00      -11.825       -5.116       -3.164       17.949       21.981       11.562      322.167      483.161      133.682        0.056        0.047       12.884        9.806        0.579      330.939       -1.367      873.228
01/20/2022  05:22:00       -6.055      -12.835        8.525       22.674       23.196       15.654      514.115      538.033      245.051        0.079        0.065       14.192       12.412        0.765      330.868       -1.484      873.228
01/20/2022  05:23:00      -15.323      -20.301        2.300       18.396       16.556       14.417      338.423      274.106      207.858        0.074        0.041       25.434       11.457        0.203      330.939       -1.367      873.225
01/20/2022  05:24:00      -23.942      -15.239        0.703       35.913       28.070       20.817     1289.775      787.906      433.349        0.166        0.126       28.380       16.261        0.328      330.909       -1.416      873.209
01/20/2022  05:25:00      -31.171      -11.392       -9.351       24.822       21.019       17.036      616.154      441.778      290.229        0.127        0.067       33.187        7.410        0.050      331.046       -1.192      873.196
01/20/2022  05:26:00      -13.229      -10.566       -3.941       13.981       10.831       12.833      195.471      117.321      164.684        0.039        0.024       16.931        9.814        0.336      331.022       -1.232      873.170
01/20/2022  05:27:00        0.254      -16.818        0.510        9.529       12.831       10.075       90.801      164.646      101.513        0.032        0.018       16.820        4.908        0.085      330.983       -1.295      873.140
01/20/2022  05:28:00       12.384       13.612      -13.243       10.459       13.207        7.724      109.399      174.433       59.668        0.043        0.017       18.403        6.451        0.123      330.906       -1.422      873.116
01/20/2022  05:29:00       -0.384       -0.592      -11.215       15.513       26.029       12.328      240.653      677.517      151.969        0.060        0.054        0.706       11.056      245.303      330.815       -1.570      873.096
01/20/2022  05:30:00      -34.951       -8.471      -10.341       14.890       17.619       15.542      221.699      310.423      241.557        0.109        0.039       35.963       14.110        0.154      330.998       -1.271      873.086
01/20/2022  05:31:00       -6.283        3.766       -4.379        9.276        9.920        7.347       86.036       98.400       53.973        0.016        0.012        7.326        5.229        0.509      330.931       -1.381      873.078
01/20/2022  05:32:00      -26.361       19.615       -5.751       16.610       15.638       12.284      275.903      244.559      150.895        0.089        0.034       32.858        9.101        0.077      330.874       -1.475      873.077
01/20/2022  05:33:00      -23.632       11.303        0.036       23.026       15.922       12.577      530.208      253.523      158.188        0.081        0.047       26.196        9.217        0.124      330.789       -1.612      873.069
01/20/2022  05:34:00      -39.161       -0.912       -5.855       29.681       22.747       18.872      880.959      517.445      356.156        0.166        0.088       39.171        8.887        0.051      330.751       -1.675      873.060
01/20/2022  05:35:00      -40.311        7.228        0.995       28.264       36.150       19.877      798.846     1306.816      395.082        0.209        0.125       40.954       14.592        0.127      330.751       -1.676      873.060
01/20/2022  05:36:00      -69.954       25.255       -7.963       29.087       22.970       18.029      846.055      527.639      325.044        0.365        0.085       74.374       14.824        0.040      330.580       -1.956      873.062
01/20/2022  05:37:00      -57.910       17.419      -10.010       36.212       25.658       15.939     1311.337      658.323      254.040        0.299        0.111       60.473       19.210        0.101      330.612       -1.905      873.063
01/20/2022  05:38:00      -58.275        8.961      -11.369       24.275       24.447       18.292      589.299      597.631      334.606        0.256        0.076       58.960       12.559        0.045      330.658       -1.828      873.059
01/20/2022  05:39:00      -69.942       16.979       -3.643       34.392       30.965       16.259     1182.808      958.801      264.368        0.380        0.120       71.973       16.428        0.052      330.624       -1.886      873.057
01/20/2022  05:40:00      -47.493        9.083       -5.435       31.995       25.401       17.852     1023.666      645.223      318.710        0.218        0.099       48.354       15.662        0.105      330.638       -1.861      873.044
01/20/2022  05:41:00      -26.938      -10.570        0.129       39.630       35.019       24.312     1570.525     1226.296      591.053        0.211        0.169       28.938       19.959        0.476      330.610       -1.907      873.036
01/20/2022  05:42:00       -8.402       -9.011       -0.873       20.680       23.889       24.357      427.647      570.704      593.268        0.087        0.080       12.321       12.952        1.105      330.615       -1.898      873.021
01/20/2022  05:43:00      -44.132        0.306       -4.919       40.414       25.548       17.996     1633.295      652.679      323.866        0.229        0.130       44.133        6.527        0.022      330.675       -1.800      873.011
01/20/2022  05:44:00      -81.101       16.703       -9.156       24.445       28.259       15.047      597.542      798.544      226.411        0.428        0.081       82.803       11.623        0.020      330.580       -1.955      873.004
01/20/2022  05:45:00      -67.298       13.249      -10.248       36.728       26.564       14.876     1348.935      705.624      221.304        0.354        0.114       68.590        8.639        0.016      330.512       -2.068      873.009
01/20/2022  05:46:00     -103.224       34.148       -7.077       27.333       24.852       19.725      747.098      617.608      389.057        0.681        0.088      108.726       19.683        0.033      330.450       -2.169      873.022
01/20/2022  05:47:00      -76.983       16.857       -2.985       58.035       28.201       18.336     3368.076      795.274      336.194        0.536        0.225       78.807       24.420        0.096      330.472       -2.135      873.022
01/20/2022  05:48:00      -73.233        8.797       -8.023       37.141       28.090       22.054     1379.475      789.061      486.360        0.408        0.133       73.760       17.553        0.057      330.480       -2.121      873.028
01/20/2022  05:49:00      -79.116       14.486       -6.965       45.149       25.351       18.265     2038.413      642.663      333.618        0.477        0.151       80.431       21.625        0.072      330.427       -2.209      873.033
01/20/2022  05:50:00      -68.323       20.172      -10.850       45.243       22.655       17.930     2046.955      513.248      321.470        0.404        0.144       71.239       24.439        0.118      330.405       -2.242      873.055
01/20/2022  05:51:00      -74.825       39.998       -8.221       36.542       21.835       18.185     1335.353      476.752      330.705        0.470        0.107       84.845       16.298        0.037      330.310       -2.399      873.087
01/20/2022  05:52:00      -73.919       36.804       -5.603       25.250       17.182       14.312      637.579      295.229      204.844        0.399        0.057       82.575       11.560        0.020      330.278       -2.452      873.095
01/20/2022  05:53:00      -84.095       47.364       -9.691       14.276       13.444       11.483      203.803      180.730      131.852        0.496        0.026       96.516        8.622        0.008      330.316       -2.390      873.100
01/20/2022  05:54:00      -77.216       40.029      -14.162       17.688       18.112       13.032      312.866      328.036      169.838        0.429        0.041       86.975        6.316        0.005      330.445       -2.178      873.094
01/20/2022  05:55:00      -69.329       27.203      -15.642       21.658       20.680       14.218      469.077      427.664      202.150        0.344        0.055       74.475        6.179        0.007      330.506       -2.078      873.087
01/20/2022  05:56:00      -26.163       10.465      -13.763       20.845       22.698       11.461      434.522      515.180      131.360        0.103        0.054       28.178        9.537        0.115      330.441       -2.184      873.092
01/20/2022  05:57:00      -12.065      -13.710       -9.117       11.632       16.309        9.689      135.309      265.997       93.871        0.046        0.025       18.263        3.133        0.029      330.487       -2.108      873.106
01/20/2022  05:58:00        0.105       -0.443       -4.989        7.491        9.431        7.194       56.115       88.939       51.756        0.011        0.010        0.455        4.066       79.800      330.450       -2.170      873.119
01/20/2022  05:59:00      -12.098       10.361      -12.640       17.194       19.487       13.975      295.638      379.755      195.301        0.064        0.044       15.928       10.966        0.474      330.428       -2.207      873.137
01/20/2022  06:00:00      -32.309       26.290      -11.432       43.099       18.210       16.206     1857.556      331.599      262.641        0.216        0.123       41.654       18.709        0.202      330.423       -2.213      873.159
01/20/2022  06:01:00      -31.782        8.601      -13.226       30.072       19.408       16.512      904.347      376.666      272.646        0.141        0.078       32.925        9.421        0.082      330.448       -2.172      873.178
01/20/2022  06:02:00      -39.366       16.347       -8.088       28.611       15.469       13.601      818.585      239.285      184.978        0.156        0.062       42.625       13.142        0.095      330.408       -2.239      873.202
01/20/2022  06:03:00      -63.836       36.639      -19.651       12.302       11.607        9.260      151.340      134.713       85.751        0.309        0.019       73.603        6.089        0.007      330.414       -2.229      873.208
01/20/2022  06:04:00      -60.942       20.455      -12.776       15.936       15.114        9.997      253.957      228.432       99.945        0.244        0.029       64.284        7.346        0.013      330.361       -2.315      873.204
01/20/2022  06:05:00      -60.911       28.530       -7.701       16.680       16.271       17.204      278.226      264.739      295.991        0.271        0.042       67.261       10.197        0.023      330.369       -2.302      873.200
01/20/2022  06:06:00      -60.888       23.691      -10.348       19.469       13.845       12.227      379.054      191.679      149.489        0.255        0.036       65.335        9.839        0.023      330.466       -2.142      873.192
01/20/2022  06:07:00      -34.095       11.999       -3.690       23.601       21.898       11.738      557.010      479.510      137.780        0.125        0.059       36.144        7.619        0.044      330.418       -2.222      873.195
01/20/2022  06:08:00      -49.197       11.973      -10.325       17.118       15.436        8.634      293.016      238.277       74.542        0.164        0.030       50.633        2.859        0.003      330.477       -2.126      873.190
01/20/2022  06:09:00      -51.063       32.510       -3.466       20.571       12.437       10.555      423.180      154.669      111.418        0.218        0.034       60.534        9.010        0.022      330.348       -2.336      873.166
01/20/2022  06:10:00      -59.878       32.976       -8.626       16.053       15.012       10.991      257.713      225.347      120.799        0.268        0.030       68.358        6.548        0.009      330.329       -2.368      873.148
01/20/2022  06:11:00      -54.867       21.924       -7.153       23.626       21.467       11.892      558.208      460.829      141.414        0.235        0.058       59.085        8.559        0.021      330.374       -2.294      873.133
01/20/2022  06:12:00      -34.654        0.087       -6.929       31.287       22.370       16.658      978.869      500.427      277.504        0.150        0.088       34.655       20.094        0.336      330.446       -2.176      873.121
01/20/2022  06:13:00      -57.132       16.568      -12.575       25.576       23.328       16.472      654.129      544.180      271.330        0.258        0.073       59.486       13.113        0.049      330.311       -2.396      873.119
01/20/2022  06:14:00      -64.199       26.600      -14.292       15.114       15.295       14.566      228.438      233.931      212.169        0.285        0.034       69.492        5.033        0.005      330.386       -2.275      873.107
01/20/2022  06:15:00      -24.970        3.561      -20.863       36.524       24.866       13.020     1333.984      618.317      169.513        0.160        0.106       25.223        9.009        0.128      330.396       -2.258      873.111
01/20/2022  06:16:00      -78.082       29.201      -13.124       38.753       21.798       18.153     1501.830      475.159      329.541        0.471        0.115       83.364       14.487        0.030      330.273       -2.459      873.113
01/20/2022  06:17:00     -104.410       22.733       -7.599       39.583       34.784       23.294     1566.799     1209.912      542.629        0.740        0.166      106.856       19.314        0.033      330.246       -2.504      873.124
01/20/2022  06:18:00     -133.088       48.260      -17.866       28.737       25.545       19.383      825.817      652.549      375.694        1.111        0.093      141.568       16.865        0.014      330.170       -2.629      873.132
01/20/2022  06:19:00     -129.867       36.238      -18.666       43.827       30.941       17.810     1920.799      957.343      317.180        1.086        0.160      134.828       14.520        0.012      330.102       -2.740      873.130
01/20/2022  06:20:00     -107.192       32.366      -18.725       42.627       26.875       23.380     1817.102      722.241      546.601        0.799        0.154      111.972       20.110        0.032      330.087       -2.765      873.119
01/20/2022  06:21:00      -82.870       18.027      -12.389       48.647       26.002       18.185     2366.546      676.130      330.682        0.536        0.169       84.808       22.199        0.069      330.128       -2.697      873.096
01/20/2022  06:22:00      -46.763       19.967      -11.698       40.242       18.109       14.958     1619.428      327.929      223.733        0.245        0.109       50.847       13.477        0.070      330.204       -2.573      873.077
01/20/2022  06:23:00      -44.797        1.552      -16.954       28.680       19.861       17.989      822.547      394.440      323.619        0.192        0.077       44.824       11.267        0.063      330.306       -2.405      873.068
01/20/2022  06:24:00      -54.860        5.318      -17.367       28.431       23.556       15.982      808.326      554.905      255.416        0.248        0.081       55.117        5.182        0.009      330.318       -2.385      873.070
01/20/2022  06:25:00      -69.458       21.768      -12.614       18.624       12.120       14.791      346.868      146.887      218.784        0.308        0.036       72.789        9.730        0.018      330.221       -2.545      873.069
01/20/2022  06:26:00      -52.202       21.240      -10.928       15.772       11.403       10.894      248.768      130.024      118.677        0.190        0.025       56.358        6.859        0.015      330.219       -2.548      873.075
01/20/2022  06:27:00      -32.622       24.234      -14.305        9.447        7.528        6.392       89.252       56.671       40.855        0.102        0.009       40.639        2.197        0.003      330.225       -2.539      873.070
01/20/2022  06:28:00       -1.721       -6.848       -7.829        8.183        8.857        9.403       66.966       78.450       88.418        0.017        0.012        7.061        2.977        0.178      330.351       -2.330      873.070
01/20/2022  06:29:00       -7.306      -17.144      -10.017       16.421        9.091        9.778      269.661       82.650       95.615        0.045        0.022       18.636        8.206        0.194      330.446       -2.175      873.076
01/20/2022  06:30:00        3.090        2.313       -8.485       16.842        7.909       13.327      283.654       62.551      177.608        0.031        0.026        3.860       11.460        8.817      330.581       -1.955      873.089
01/20/2022  06:31:00        3.376        3.003       -8.209        4.976        8.560        9.725       24.758       73.276       94.580        0.014        0.010        4.518        3.670        0.660      330.489       -2.107      873.100
01/20/2022  06:32:00      -10.365        9.609      -11.203        8.349        8.388        6.704       69.710       70.358       44.938        0.026        0.009       14.134        4.251        0.090      330.585       -1.947      873.109
01/20/2022  06:33:00        4.484       29.578        8.724       13.796       12.091        8.488      190.324      146.190       72.050        0.069        0.020       29.916        6.152        0.042      330.674       -1.802      873.105
01/20/2022  06:34:00       -2.310       34.178       -2.799       28.387       14.010       12.751      805.803      196.284      162.576        0.117        0.058       34.256        5.044        0.022      330.669       -1.810      873.104
01/20/2022  06:35:00       50.196       29.128       -4.703        8.047        9.909        6.468       64.753       98.196       41.832        0.180        0.010       58.036        3.133        0.003      330.790       -1.612      873.122
01/20/2022  06:36:00       72.214       33.086      -10.031        7.263        7.482        5.402       52.756       55.984       29.186        0.327        0.007       79.433        2.986        0.001      330.793       -1.606      873.110
01/20/2022  06:37:00       62.907       19.515       -9.113       12.387        8.794        6.719      153.438       77.334       45.146        0.235        0.014       65.864        4.728        0.005      330.772       -1.639      873.103
01/20/2022  06:38:00       36.156       23.872       -9.409       12.965        9.572        9.184      168.083       91.630       84.354        0.115        0.017       43.326        8.044        0.034      330.744       -1.685      873.093
01/20/2022  06:39:00       52.178       24.187       -5.168       17.444       11.534        8.405      304.300      133.023       70.640        0.192        0.025       57.511        6.509        0.013      330.757       -1.667      873.077
01/20/2022  06:40:00       87.666       29.542      -15.269        9.266       11.910        6.940       85.862      141.857       48.157        0.453        0.014       92.510        3.295        0.001      330.765       -1.651      873.068
01/20/2022  06:41:00       82.118       14.851      -17.721       25.903       19.388       13.576      670.964      375.890      184.321        0.425        0.062       83.450        9.849        0.014      330.818       -1.565      873.060
01/20/2022  06:42:00       70.561       -6.784      -15.228       37.042       28.983       16.346     1372.114      840.023      267.178        0.387        0.124       70.887       17.321        0.060      330.766       -1.650      873.066
01/20/2022  06:43:00       86.911        6.454       -8.266       15.188       15.734       10.991      230.674      247.568      120.793        0.413        0.030       87.150        6.375        0.005      330.687       -1.781      873.085
01/20/2022  06:44:00       91.209       11.911      -11.874       16.216       11.285       12.087      262.966      127.349      146.091        0.457        0.027       91.984        6.491        0.005      330.616       -1.899      873.116
01/20/2022  06:45:00       64.218       40.968       -8.746       21.082       13.914       18.797      444.433      193.605      353.310        0.343        0.050       76.174       16.166        0.045      330.573       -1.967      873.141
01/20/2022  06:46:00       29.935       35.490       -0.889       18.028       15.597       10.339      324.991      243.255      106.894        0.142        0.034       46.429        6.564        0.020      330.497       -2.093      873.164
01/20/2022  06:47:00       27.717       35.974       -4.891       11.649        8.208       11.153      135.697       67.373      124.394        0.121        0.016       45.413        7.396        0.027      330.593       -1.936      873.170
01/20/2022  06:48:00       42.835       35.492       -6.761       13.249        9.345        6.558      175.549       87.325       43.008        0.172        0.015       55.628        7.023        0.016      330.638       -1.859      873.165
01/20/2022  06:49:00       60.084       33.505       -9.917        9.263        7.000        5.509       85.805       48.994       30.351        0.250        0.008       68.794        3.533        0.003      330.678       -1.795      873.151
01/20/2022  06:50:00       69.382       15.420      -10.727       13.245       13.286        9.396      175.431      176.518       88.277        0.280        0.022       71.075        8.571        0.015      330.725       -1.718      873.130
01/20/2022  06:51:00       24.738        3.156       -3.392       21.098       14.663       15.096      445.118      214.993      227.897        0.076        0.044       24.939        7.259        0.085      330.688       -1.779      873.115
01/20/2022  06:52:00       45.442        6.165       -7.311        9.958        9.071        8.019       99.166       82.290       64.303        0.120        0.012       45.858        5.164        0.013      330.661       -1.823      873.118
01/20/2022  06:53:00       22.116      -12.694       -7.837       17.712        9.775       12.023      313.730       95.557      144.560        0.063        0.028       25.500       11.377        0.199      330.735       -1.702      873.118
01/20/2022  06:54:00        9.933        2.593       -4.668        8.575       12.199       10.041       73.536      148.819      100.822        0.023        0.016       10.266        7.215        0.494      330.721       -1.724      873.137
01/20/2022  06:55:00       14.278       12.962       -8.891        9.775        4.918        5.811       95.546       24.186       33.772        0.030        0.008       19.284        1.543        0.006      330.715       -1.732      873.168
01/20/2022  06:56:00       -6.942        4.437       -3.538        8.565        8.882        7.148       73.360       78.894       51.098        0.014        0.010        8.239        4.557        0.306      330.718       -1.729      873.187
01/20/2022  06:57:00      -25.526      -11.903       -3.146       13.919       11.606        9.853      193.735      134.706       97.075        0.061        0.021       28.165        3.443        0.015      330.720       -1.725      873.198
01/20/2022  06:58:00      -37.649        1.584       -7.562       13.767       14.041       11.152      189.524      197.162      124.370        0.099        0.026       37.683        8.505        0.051      330.777       -1.632      873.209
01/20/2022  06:59:00      -46.019        2.132       -1.751       13.180       15.932       16.939      173.716      253.831      286.941        0.142        0.036       46.068        4.911        0.011      330.768       -1.647      873.207
01/20/2022  07:00:00      -26.659        2.624      -23.760       15.193       12.475       11.651      230.814      155.618      135.751        0.090        0.026       26.788        8.911        0.111      330.690       -1.775      873.203
01/20/2022  07:01:00        5.214       -1.748       -2.639       16.158       14.223       12.085      261.096      202.281      146.042        0.032        0.030        5.500        6.834        1.544      330.590       -1.939      873.214
01/20/2022  07:02:00      -10.752        9.857       -4.952       11.310       12.320        6.959      127.909      151.780       48.435        0.028        0.016       14.587        6.680        0.210      330.627       -1.879      873.236
01/20/2022  07:03:00      -19.994       10.617      -11.403        8.819       13.152        8.082       77.783      172.977       65.319        0.048        0.016       22.638        6.140        0.074      330.583       -1.951      873.283
01/20/2022  07:04:00      -49.234       23.142       -7.313       20.976       11.278        7.877      439.979      127.187       62.040        0.182        0.031       54.402        7.124        0.017      330.475       -2.128      873.342
01/20/2022  07:05:00      -86.600       10.885      -13.282       34.674       22.295       12.126     1202.307      497.046      147.048        0.482        0.092       87.282       11.497        0.017      330.522       -2.052      873.396
01/20/2022  07:06:00      -57.829        7.687        1.703       33.792       25.117       18.301     1141.928      630.874      334.940        0.276        0.105       58.338       12.319        0.045      330.437       -2.191      873.433
01/20/2022  07:07:00      -82.645       12.244       -6.432       36.011       20.218       16.131     1296.826      408.748      260.204        0.449        0.098       83.547       14.397        0.030      330.488       -2.107      873.459
01/20/2022  07:08:00      -72.508       13.697       -6.228       24.961       18.777       16.277      623.046      352.579      264.946        0.336        0.062       73.791       12.231        0.027      330.482       -2.118      873.469
01/20/2022  07:09:00      -68.365       14.147       -7.293       28.337       16.808        9.780      802.961      282.511       95.647        0.305        0.059       69.813       11.377        0.027      330.424       -2.214      873.473
01/20/2022  07:10:00      -28.216       -2.917       -5.469       22.443       14.921        9.822      503.672      222.633       96.472        0.083        0.041       28.366        9.945        0.123      330.541       -2.021      873.462
01/20/2022  07:11:00      -19.382      -18.987       -6.944       24.295       17.931       10.860      590.257      321.508      117.930        0.091        0.051       27.132        6.469        0.057      330.671       -1.806      873.453
01/20/2022  07:12:00      -25.262      -11.643      -10.827       12.269       10.810        7.255      150.530      116.853       52.636        0.061        0.016       27.816        3.628        0.017      330.722       -1.724      873.454
01/20/2022  07:13:00      -26.132        2.556       -6.431       25.819       14.865        9.355      666.609      220.967       87.524        0.085        0.049       26.256        9.173        0.122      330.764       -1.653      873.458
01/20/2022  07:14:00      -40.147        8.929       -9.220       21.704       12.812       12.667      471.081      164.140      160.443        0.129        0.040       41.128        5.677        0.019      330.609       -1.909      873.448
01/20/2022  07:15:00      -34.491       -3.657       -0.502       23.215       30.216       11.805      538.948      913.006      139.361        0.140        0.080       34.685        8.399        0.059      330.625       -1.882      873.438
01/20/2022  07:16:00       -5.075       -1.026       -0.572       15.236       13.042       12.715      232.134      170.094      161.673        0.030        0.028        5.178        8.077        2.433      330.635       -1.865      873.428
01/20/2022  07:17:00       -4.701        0.866       -2.000       12.499       10.155        9.576      156.217      103.133       91.693        0.019        0.018        4.780        4.465        0.873      330.750       -1.676      873.416
01/20/2022  07:18:00      -17.274       15.613      -12.904       17.057       15.273       10.725      290.938      233.265      115.020        0.067        0.032       23.284        5.475        0.055      330.815       -1.570      873.409
01/20/2022  07:19:00        1.612       24.866       -6.711        6.621       10.165        8.805       43.841      103.332       77.523        0.045        0.011       24.919        5.945        0.057      330.858       -1.500      873.399
01/20/2022  07:20:00      -12.429        7.654      -10.771       14.184        8.276       11.984      201.177       68.499      143.605        0.037        0.021       14.597       10.829        0.550      330.797       -1.600      873.408
01/20/2022  07:21:00       -7.736      -14.983       -5.804       25.407       18.262       12.334      645.496      333.505      152.136        0.072        0.057       16.863       12.528        0.552      330.905       -1.423      873.401
01/20/2022  07:22:00        6.426      -43.252      -25.378       20.870       16.657       13.260      435.563      277.458      175.828        0.172        0.044       43.727        6.284        0.021      330.943       -1.360      873.403
01/20/2022  07:23:00        2.489      -41.719       -8.669       24.401       27.269       16.109      595.402      743.613      259.485        0.171        0.080       41.793       12.960        0.096      330.968       -1.319      873.418
01/20/2022  07:24:00       24.936        6.020       -9.660       18.462       35.825       18.434      340.842     1283.449      339.795        0.136        0.098       25.653       14.432        0.317      330.817       -1.566      873.444
01/20/2022  07:25:00        9.242       15.682       -4.766        9.351       12.055        6.914       87.446      145.326       47.808        0.032        0.014       18.202        4.045        0.049      330.708       -1.745      873.468
01/20/2022  07:26:00      -15.893        4.776        1.576       11.373        6.470        8.353      129.341       41.859       69.774        0.026        0.012       16.596        8.048        0.235      330.708       -1.745      873.492
01/20/2022  07:27:00      -21.922       27.893       -2.334       12.621       10.331        6.961      159.284      106.724       48.458        0.079        0.016       35.477        6.686        0.036      330.776       -1.636      873.502
01/20/2022  07:28:00       10.936       22.087       -5.122       14.501       10.189        6.838      210.288      103.809       46.753        0.050        0.018       24.646        4.423        0.032      330.658       -1.829      873.513
01/20/2022  07:29:00       11.038        0.131       -5.154       13.788       13.855        9.643      190.096      191.953       92.984        0.031        0.024       11.039        4.961        0.202      330.620       -1.891      873.506
01/20/2022  07:30:00       11.967       11.025       -9.598        9.333        8.740        8.238       87.098       76.392       67.857        0.029        0.012       16.271        4.917        0.091      330.592       -1.936      873.494
01/20/2022  07:31:00       -5.285        2.017      -12.157        6.400        5.800        4.699       40.966       33.644       22.081        0.014        0.005        5.657        2.753        0.237      330.769       -1.645      873.483
01/20/2022  07:32:00       -7.862       -1.397       -9.972        6.267        6.465        6.345       39.278       41.799       40.265        0.014        0.006        7.985        4.618        0.334      330.878       -1.466      873.463
01/20/2022  07:33:00       -5.410      -13.778        2.129        8.493        8.942        9.511       72.132       79.957       90.450        0.023        0.012       14.802        3.326        0.050      330.910       -1.415      873.446
01/20/2022  07:34:00      -19.916        9.468       -3.642        6.693        9.722        6.760       44.794       94.512       45.696        0.034        0.009       22.052        5.871        0.071      330.931       -1.379      873.437
01/20/2022  07:35:00      -24.520       23.938       -5.079        8.063        7.277        5.240       65.008       52.950       27.459        0.067        0.007       34.267        3.912        0.013      330.824       -1.553      873.420
01/20/2022  07:36:00      -17.934       44.397       -4.396        8.193       10.123        7.004       67.122      102.479       49.060        0.127        0.011       47.883        5.210        0.012      330.817       -1.566      873.407
01/20/2022  07:37:00        0.137       22.241       -2.329        8.526        9.867        5.541       72.687       97.354       30.705        0.035        0.010       22.241        4.447        0.040      330.847       -1.517      873.397
01/20/2022  07:38:00       -8.203       21.603       -8.457        7.766        6.680        6.328       60.303       44.620       40.044        0.038        0.007       23.108        4.510        0.038      330.848       -1.515      873.386
01/20/2022  07:39:00        0.726       13.864       -4.717        7.118       12.845        5.789       50.672      164.988       33.518        0.023        0.012       13.883        3.609        0.068      330.904       -1.424      873.374
01/20/2022  07:40:00       29.512       21.703       -8.088       16.702       11.170        6.404      278.965      124.765       41.011        0.093        0.022       36.633        4.431        0.015      330.889       -1.450      873.365
01/20/2022  07:41:00       45.712       33.192      -13.946       14.986       12.063       14.507      224.580      145.514      210.454        0.198        0.029       56.491        8.897        0.025      330.828       -1.548      873.359
01/20/2022  07:42:00       52.829       33.013      -14.855       11.791        9.804        6.990      139.026       96.113       48.857        0.219        0.014       62.296        4.708        0.006      330.806       -1.586      873.357
01/20/2022  07:43:00       40.200       32.227      -10.831        8.980       10.834       11.202       80.643      117.368      125.489        0.155        0.016       51.523        6.755        0.017      330.843       -1.525      873.363
01/20/2022  07:44:00       44.896       33.921       -8.912       14.596       10.752        9.857      213.047      115.605       97.164        0.184        0.021       56.270        7.388        0.017      330.921       -1.398      873.379
01/20/2022  07:45:00       61.215       35.032      -12.086       13.746       15.935       10.797      188.941      253.913      116.580        0.284        0.028       70.530        4.803        0.005      330.879       -1.464      873.400
01/20/2022  07:46:00       66.562       37.258      -15.188        7.953       11.383        9.067       63.245      129.568       82.214        0.316        0.014       76.280        4.880        0.004      330.817       -1.569      873.432
01/20/2022  07:47:00       68.033       44.727      -12.306       13.027       10.462       11.177      169.715      109.456      124.929        0.359        0.020       81.419        5.919        0.005      330.803       -1.590      873.433
01/20/2022  07:48:00       63.681       52.588      -16.014       12.383        7.895        7.821      153.328       62.330       61.162        0.368        0.014       82.588        5.348        0.004      330.798       -1.598      873.430
01/20/2022  07:49:00       73.408       51.986      -18.315       10.634        9.777        8.198      113.080       95.580       67.211        0.435        0.014       89.951        4.535        0.003      330.787       -1.617      873.432
01/20/2022  07:50:00       68.954       33.983      -16.847       13.603       14.789        9.614      185.042      218.708       92.429        0.334        0.025       76.874        6.387        0.007      330.888       -1.450      873.432
01/20/2022  07:51:00       19.142       10.679       -8.334       16.038       21.117       16.429      257.212      445.913      269.905        0.076        0.049       21.919        3.925        0.032      330.971       -1.314      873.428
01/20/2022  07:52:00       28.601       11.131       -9.815       21.503       12.099       11.024      462.390      146.384      121.523        0.088        0.037       30.691        9.853        0.103      330.975       -1.308      873.424
01/20/2022  07:53:00       24.605       29.007       -6.112       13.933       12.510       11.310      194.133      156.501      127.922        0.098        0.024       38.037        7.397        0.038      330.902       -1.429      873.435
01/20/2022  07:54:00      -14.724       18.079       -5.306       11.770       11.222        9.387      138.522      125.927       88.113        0.046        0.018       23.316        7.913        0.115      330.919       -1.400      873.435
01/20/2022  07:55:00       -0.770       15.210       -6.531        6.400        7.937        5.948       40.960       62.996       35.377        0.021        0.007       15.230        3.940        0.067      330.890       -1.447      873.432
01/20/2022  07:56:00      -21.608        3.333       -6.986       14.950       15.273        8.736      223.500      233.262       76.315        0.053        0.027       21.863        6.775        0.096      330.865       -1.487      873.419
01/20/2022  07:57:00       -8.009      -14.672       -0.790       12.245       10.502       14.039      149.928      110.287      197.083        0.037        0.023       16.716        6.758        0.163      331.070       -1.152      873.407
01/20/2022  07:58:00       -7.284       -2.567       -4.527       10.339       10.635        7.979      106.885      113.095       63.664        0.018        0.014        7.723        7.359        0.908      331.026       -1.224      873.401
01/20/2022  07:59:00       -8.086       -1.186       -1.863        8.665       12.259        6.387       75.088      150.274       40.793        0.017        0.013        8.172        5.819        0.507      331.037       -1.206      873.383
01/20/2022  08:00:00      -26.336        9.899      -12.031        8.934        7.240        7.515       79.823       52.414       56.471        0.056        0.009       28.135        4.257        0.023      331.035       -1.211      873.358
01/20/2022  08:01:00      -33.233       10.105      -10.433       12.691       16.567       15.437      161.068      274.465      238.305        0.099        0.034       34.736        6.782        0.038      331.068       -1.155      873.325
01/20/2022  08:02:00      -22.540       17.034        0.311       22.851       27.488       16.897      522.159      755.567      285.510        0.118        0.078       28.253       14.768        0.273      331.049       -1.187      873.295
01/20/2022  08:03:00      -19.209       -5.733       -5.743       21.140       26.249       16.378      446.890      689.002      268.224        0.092        0.070       20.047       12.830        0.410      331.032       -1.214      873.278
01/20/2022  08:04:00       -8.369      -14.647       -7.748       25.882       32.752       14.947      669.864     1072.707      223.422        0.115        0.098       16.870        6.644        0.155      331.192       -0.950      873.274
01/20/2022  08:05:00      -37.977      -49.826      -33.658       24.676       37.924       19.631      608.918     1438.248      385.374        0.374        0.122       62.649       10.348        0.027      331.190       -0.956      873.289
01/20/2022  08:06:00      -15.801      -53.811      -37.631       30.224       36.166       30.709      913.494     1308.012      943.040        0.386        0.158       56.083       23.103        0.170      331.238       -0.874      873.301
01/20/2022  08:07:00      -20.442      -30.251      -21.375       42.981       30.531       27.291     1847.406      932.158      744.798        0.266        0.176       36.510       17.862        0.239      331.264       -0.832      873.319
01/20/2022  08:08:00      -41.870      -40.835      -32.485       33.327       40.405       32.015     1110.682     1632.589     1024.931        0.412        0.188       58.486       16.233        0.077      331.236       -0.880      873.331
01/20/2022  08:09:00      -54.235       -4.960        1.439       38.314       27.522       27.163     1467.976      757.462      737.839        0.297        0.148       54.461       17.632        0.105      331.128       -1.056      873.324
01/20/2022  08:10:00      -47.993      -10.433       -9.842       44.273       34.978       22.272     1960.098     1223.462      496.049        0.309        0.184       49.114       13.120        0.071      331.108       -1.090      873.332
01/20/2022  08:11:00      -47.158       -8.290       -0.758       73.245       33.074       25.629     5364.768     1093.905      656.861        0.470        0.356       47.881       31.162        0.424      331.126       -1.061      873.335
01/20/2022  08:12:00      -94.598       -8.134        5.864       50.469       47.301       28.955     2547.129     2237.392      838.391        0.734        0.281       94.947       27.573        0.084      331.012       -1.248      873.327
01/20/2022  08:13:00     -108.562       -0.893       -1.417       67.187       49.555       31.263     4514.133     2455.726      977.383        0.987        0.397      108.566       24.250        0.050      330.965       -1.325      873.324
01/20/2022  08:14:00     -151.954      -12.256      -17.896       55.494       39.512       28.013     3079.582     1561.219      784.744        1.449        0.271      152.448       32.272        0.045      330.892       -1.444      873.326
01/20/2022  08:15:00     -140.574       -6.596       -7.138       45.257       32.867       31.084     2048.186     1080.217      966.208        1.197        0.205      140.729       13.453        0.009      330.870       -1.480      873.306
01/20/2022  08:16:00     -121.182      -28.823      -12.052       64.273       34.207       29.375     4131.067     1170.109      862.900        1.091        0.308      124.563       29.179        0.055      330.888       -1.450      873.302
01/20/2022  08:17:00     -126.335      -13.478      -21.449       34.770       39.569       21.432     1208.925     1565.726      459.330        0.992        0.162      127.052       20.209        0.025      330.878       -1.468      873.299
01/20/2022  08:18:00     -113.534        7.271      -10.752       39.431       26.242       22.836     1554.820      688.667      521.482        0.791        0.138      113.766       18.934        0.028      330.868       -1.483      873.293
01/20/2022  08:19:00      -44.447      -15.482       -7.799       41.125       24.248       24.466     1691.238      587.953      598.581        0.258        0.144       47.067       20.129        0.183      330.994       -1.277      873.292
01/20/2022  08:20:00      -25.416       12.003       -9.912       36.339       19.578       21.460     1320.526      383.286      460.534        0.153        0.108       28.108       17.664        0.395      331.034       -1.210      873.290
01/20/2022  08:21:00     -113.333       25.467      -19.282       25.888       23.127       14.440      670.166      534.866      208.518        0.764        0.071      116.159        8.785        0.006      330.939       -1.367      873.286
01/20/2022  08:22:00      -64.712       46.822      -10.940       25.548       20.080       16.799      652.675      403.194      282.215        0.392        0.067       79.875        9.397        0.014      330.933       -1.378      873.280
01/20/2022  08:23:00      -31.274       14.147       -2.293       24.442       17.732       15.199      597.428      314.415      231.008        0.116        0.057       34.324       11.634        0.115      330.966       -1.323      873.273
01/20/2022  08:24:00      -43.964       16.628       -2.572       23.516       21.017       13.881      552.983      441.703      192.692        0.170        0.059       47.003       11.929        0.064      330.976       -1.307      873.269
01/20/2022  08:25:00      -68.422       27.261      -10.496       28.993       21.918       15.985      840.576      480.410      255.517        0.356        0.079       73.653       15.249        0.043      331.012       -1.247      873.261
01/20/2022  08:26:00      -81.799       30.255       -7.168       40.545       18.895       18.385     1643.881      357.003      338.018        0.500        0.117       87.215       21.928        0.063      331.021       -1.233      873.276
01/20/2022  08:27:00      -77.271       12.788       -8.130       46.596       31.712       22.014     2171.178     1005.648      484.634        0.493        0.183       78.322       17.062        0.047      331.082       -1.131      873.259
01/20/2022  08:28:00      -66.816       13.193        0.460       60.262       31.599       22.966     3631.522      998.517      527.459        0.490        0.258       68.106       31.359        0.212      331.199       -0.938      873.261
01/20/2022  08:29:00      -86.188        3.175      -11.741       39.715       37.303       25.649     1577.317     1391.522      657.870        0.560        0.181       86.246        8.759        0.010      331.173       -0.982      873.259
01/20/2022  08:30:00      -75.585        5.526       -7.521       53.791       36.905       18.299     2893.454     1361.962      334.854        0.519        0.230       75.787       19.111        0.064      331.172       -0.984      873.260
01/20/2022  08:31:00      -45.839       46.111       -2.317       22.876       18.445       14.057      523.331      340.211      197.587        0.265        0.053       65.019       10.889        0.028      331.115       -1.077      873.258
01/20/2022  08:32:00      -27.642       -9.797       -3.600       26.938       18.189       13.731      725.670      330.832      188.531        0.106        0.062       29.327       13.208        0.203      331.296       -0.779      873.249
01/20/2022  08:33:00      -44.249       14.445      -14.110       23.376       27.292       12.227      546.437      744.880      149.506        0.190        0.072       46.547        7.289        0.025      331.239       -0.872      873.248
01/20/2022  08:34:00      -66.743       29.051      -14.651       21.366       11.601       14.272      456.494      134.586      203.683        0.315        0.040       72.791       12.352        0.029      331.268       -0.826      873.247
01/20/2022  08:35:00      -41.975        0.269      -20.694       18.737       22.020       18.616      351.057      484.899      346.555        0.169        0.059       41.976       11.599        0.076      331.358       -0.678      873.238
01/20/2022  08:36:00       -0.728       -4.890       -4.348       15.038       10.648       12.567      226.135      113.374      157.925        0.027        0.025        4.944        5.370        1.180      331.692       -0.129      873.237
01/20/2022  08:37:00        5.335        2.227       -3.481       12.162       11.032       10.648      147.909      121.712      113.386        0.021        0.019        5.781        7.139        1.525      331.673       -0.159      873.227
01/20/2022  08:38:00        5.913        1.973      -14.884       13.698       18.534       14.719      187.647      343.503      216.648        0.050        0.037        6.234        6.992        1.258      331.563       -0.342      873.221
01/20/2022  08:39:00        0.510       12.629      -10.485        8.374       16.478       11.904       70.121      271.519      141.694        0.038        0.024       12.639        6.609        0.273      331.566       -0.337      873.217
01/20/2022  08:40:00       -6.251       -0.167      -13.814       10.539        6.304       10.492      111.061       39.736      110.092        0.025        0.013        6.253        8.849        2.003      331.660       -0.180      873.220
01/20/2022  08:41:00      -16.838        5.470      -18.769       11.701        9.586       14.170      136.921       91.889      200.775        0.055        0.021       17.704        7.086        0.160      331.645       -0.207      873.213
01/20/2022  08:42:00      -17.764        6.854      -11.621       16.024       10.863        9.905      256.776      118.001       98.118        0.049        0.024       19.041        6.524        0.117      331.621       -0.246      873.205
01/20/2022  08:43:00       -2.814        4.537       -7.892        6.562        6.526        7.333       43.061       42.593       53.772        0.012        0.007        5.339        3.469        0.422      331.757       -0.023      873.189
01/20/2022  08:44:00       -5.931        3.522       -9.540        8.911       11.941        7.580       79.406      142.583       57.458        0.021        0.014        6.898        4.419        0.410      331.899        0.212      873.177
01/20/2022  08:45:00       -4.947       34.381        7.294       30.162       14.716       12.266      909.738      216.571      150.453        0.127        0.064       34.735        9.516        0.075      331.852        0.134      873.183
01/20/2022  08:46:00      -29.883        1.717       -8.050       22.961       27.965       18.817      527.187      782.041      354.077        0.131        0.083       29.932       11.106        0.138      331.828        0.096      873.187
01/20/2022  08:47:00      -32.411        4.212       -0.291       22.082       12.350       15.005      487.613      152.530      225.149        0.097        0.043       32.683       15.199        0.216      331.877        0.177      873.192
01/20/2022  08:48:00      -42.122       -1.380       -8.303       18.281       16.532       17.582      334.181      273.297      309.137        0.138        0.046       42.145        5.987        0.020      331.816        0.075      873.198
01/20/2022  08:49:00      -13.206       -6.406      -12.719       15.337       17.179       14.045      235.226      295.108      197.267        0.055        0.036       14.678       10.110        0.474      332.064        0.483      873.195
01/20/2022  08:50:00      -24.601       12.236      -15.141       10.505        7.930        7.003      110.362       62.891       49.044        0.060        0.011       27.476        3.283        0.014      331.794        0.038      873.179
01/20/2022  08:51:00       -0.668        6.273       -1.209       16.611       23.052       12.589      275.918      531.381      158.478        0.050        0.048        6.308        7.361        1.362      332.081        0.511      873.167
01/20/2022  08:52:00      -26.036       20.983      -12.890       15.591       18.876        7.742      243.068      356.288       59.933        0.097        0.033       33.439        6.516        0.038      331.875        0.172      873.158
01/20/2022  08:53:00      -26.329       42.853        7.718       24.682       32.335       23.405      609.217     1045.578      547.796        0.240        0.110       50.296       14.893        0.088      331.953        0.300      873.169
01/20/2022  08:54:00       -0.211       53.397       -9.865       21.017       18.018       16.394      441.710      324.659      268.753        0.199        0.052       53.397        9.272        0.030      331.891        0.199      873.181
01/20/2022  08:55:00       38.069       38.042       -7.267       31.608       23.759       15.358      999.071      564.501      235.879        0.237        0.090       53.818        7.972        0.022      332.141        0.609      873.184
01/20/2022  08:56:00       27.443       46.652        7.568       32.009       23.001       21.115     1024.578      529.061      445.857        0.249        0.100       54.126       11.312        0.044      332.144        0.615      873.200
01/20/2022  08:57:00       29.462       39.292      -10.625       22.563       14.490       21.120      509.087      209.959      446.034        0.184        0.058       49.111       13.577        0.076      332.018        0.407      873.215
01/20/2022  08:58:00       29.386       55.908       -1.903       23.590       31.151       20.691      556.509      970.357      428.127        0.297        0.098       63.161       18.454        0.085      332.130        0.593      873.223
01/20/2022  08:59:00        1.548       42.600       -9.450       15.424       25.077       19.081      237.910      628.836      364.080        0.157        0.062       42.628        8.352        0.038      332.100        0.544      873.238
01/20/2022  09:00:00      -49.253        6.344       -6.358       33.336       33.230       16.690     1111.261     1104.239      278.547        0.250        0.125       49.660        7.109        0.020      332.001        0.380      873.259
01/20/2022  09:01:00      -68.221       14.335      -12.613       28.285       20.485       12.700      800.066      419.636      161.280        0.320        0.069       69.711        9.612        0.019      331.984        0.352      873.278
01/20/2022  09:02:00      -47.631      -13.019       -7.170       30.550       21.999       20.288      933.311      483.939      411.606        0.216        0.091       49.378       16.722        0.115      332.081        0.510      873.281
01/20/2022  09:03:00      -80.910      -16.188      -16.840       33.274       20.197       19.775     1107.168      407.918      391.064        0.450        0.095       82.514        9.045        0.012      332.048        0.454      873.280
01/20/2022  09:04:00      -38.173      -10.492      -10.046       34.212       22.016       16.590     1170.456      484.710      275.235        0.180        0.097       39.589       11.154        0.079      332.223        0.746      873.270
01/20/2022  09:05:00      -17.980        2.778      -10.828       24.205       17.771       17.993      585.898      315.819      323.739        0.084        0.061       18.194        6.546        0.129      332.278        0.835      873.270
01/20/2022  09:06:00      -38.601       26.948      -11.397       27.952       10.281       11.402      781.335      105.704      129.999        0.168        0.051       47.077        8.259        0.031      332.043        0.450      873.276
01/20/2022  09:07:00      -44.834       13.949       -9.275       26.715       25.057       15.873      713.666      627.838      251.957        0.194        0.080       46.954       11.043        0.055      332.120        0.576      873.306
01/20/2022  09:08:00      -60.343       23.302       -2.888       53.861       27.655       16.882     2900.971      764.799      284.998        0.407        0.198       64.686       21.766        0.113      332.291        0.858      873.344
01/20/2022  09:09:00      -46.802      -10.623      -10.440       31.167       20.278       17.306      971.375      411.211      299.500        0.205        0.084       47.993       13.741        0.082      332.320        0.907      873.379
01/20/2022  09:10:00      -20.643       22.489      -14.813       40.889       21.278       22.169     1671.889      452.740      491.460        0.188        0.131       30.527       25.207        0.682      332.444        1.110      873.403
01/20/2022  09:11:00      -82.480       89.197      -19.134       51.077       44.627       20.453     2608.906     1991.609      418.332        1.007        0.251      121.487       24.769        0.042      332.169        0.656      873.424
01/20/2022  09:12:00     -103.886       28.787      -19.824       22.758       18.936       13.779      517.909      358.560      189.850        0.654        0.053      107.800        8.737        0.007      332.083        0.516      873.436
01/20/2022  09:13:00      -85.594       22.376      -15.993       31.768       19.380       15.370     1009.229      375.592      236.222        0.485        0.081       88.471       11.542        0.017      332.115        0.569      873.438
01/20/2022  09:14:00      -63.780       11.290      -17.694       18.552        7.760        7.645      344.181       60.222       58.447        0.249        0.023       64.772        5.892        0.008      332.123        0.578      873.432
01/20/2022  09:15:00      -50.953       16.677      -13.114       20.994       12.092       10.745      440.768      146.219      115.450        0.187        0.035       53.613       11.259        0.044      332.202        0.711      873.433
01/20/2022  09:16:00      -25.794       17.366      -17.089       17.002       11.345       14.695      289.082      128.698      215.953        0.095        0.032       31.095        8.595        0.076      332.341        0.941      873.430
01/20/2022  09:17:00       -5.379        1.744       -7.222        7.458        5.749        7.016       55.617       33.055       49.224        0.011        0.007        5.655        4.640        0.673      332.662        1.470      873.435
01/20/2022  09:18:00      -10.097        2.143      -19.570       13.479        4.798       11.464      181.692       23.021      131.425        0.041        0.017       10.322       10.268        0.990      332.527        1.247      873.432
01/20/2022  09:19:00      -44.394      -14.470       -6.868       26.811       17.786       16.787      718.823      316.334      281.801        0.177        0.066       46.693       17.687        0.143      332.447        1.115      873.435
01/20/2022  09:20:00      -41.651        4.240      -20.647       16.301       13.258       19.244      265.710      175.781      370.347        0.150        0.041       41.866        6.304        0.023      332.390        1.020      873.453
01/20/2022  09:21:00      -60.503       -4.717      -13.258       18.037       16.169       11.327      325.323      261.449      128.298        0.229        0.036       60.687        6.961        0.013      332.367        0.982      873.452
01/20/2022  09:22:00      -50.703      -37.191      -20.348       26.855       18.070       16.052      721.166      326.518      257.659        0.284        0.065       62.881       13.269        0.045      332.438        1.101      873.444
01/20/2022  09:23:00       10.697      -27.109      -23.073       13.362       17.438       21.180      178.544      304.099      448.579        0.116        0.047       29.143        7.776        0.071      332.621        1.403      873.450
01/20/2022  09:24:00       30.622       37.868       -9.105       59.638       39.599       21.537     3556.730     1568.120      463.851        0.402        0.279       48.700       19.521        0.161      332.683        1.506      873.450
01/20/2022  09:25:00       17.874       25.495       -8.909       34.274       28.688       21.782     1174.737      822.986      474.459        0.176        0.124       31.137       13.487        0.188      332.934        1.919      873.463
01/20/2022  09:26:00       29.773      -16.570      -10.162       55.173       38.470       33.095     3044.033     1479.908     1095.302        0.344        0.281       34.074       24.338        0.510      333.163        2.300      873.476
01/20/2022  09:27:00        3.005      -51.087      -12.679       60.610       61.898       39.422     3673.615     3831.305     1554.093        0.592        0.453       51.175       28.879        0.318      333.005        2.038      873.485
01/20/2022  09:28:00       21.546      -85.074      -24.507       46.742       38.419       27.785     2184.787     1475.983      771.980        0.637        0.222       87.760       19.228        0.048      333.053        2.117      873.476
01/20/2022  09:29:00       28.203     -110.614      -20.104       46.292       28.450       27.543     2142.925      809.376      758.592        0.857        0.186      114.153       27.153        0.057      332.793        1.687      873.469
01/20/2022  09:30:00        1.344       20.288      -16.532       30.631       30.943       21.464      938.241      957.490      460.701        0.152        0.118       20.333       14.500        0.509      333.138        2.257      873.447
01/20/2022  09:31:00       86.573       58.742      -14.747       42.944       40.768       19.894     1844.155     1662.049      395.786        0.753        0.195      104.620       14.846        0.020      332.841        1.767      873.434
01/20/2022  09:32:00       58.227       61.855      -15.448       52.565       29.936       24.253     2763.108      896.191      588.197        0.585        0.212       84.950       24.804        0.085      333.088        2.174      873.403
01/20/2022  09:33:00       15.233        9.907       -8.779       47.036       60.895       26.048     2212.409     3708.171      678.483        0.350        0.330       18.172       24.713        1.849      333.289        2.507      873.378
01/20/2022  09:34:00       18.513       25.629        7.759       45.246       38.313       25.433     2047.160     1467.911      646.858        0.261        0.208       31.616       19.714        0.389      333.167        2.305      873.372
01/20/2022  09:35:00        2.391       37.090        9.341       45.189       49.162       25.206     2042.035     2416.909      635.334        0.328        0.255       37.167       19.114        0.264      333.282        2.495      873.380
01/20/2022  09:36:00       62.791       10.793      -28.652       79.329       55.618       23.995     6293.014     3093.377      575.747        0.742        0.498       63.711       27.174        0.182      333.147        2.273      873.405
01/20/2022  09:37:00      110.169       67.866      -30.255       29.491       35.788       24.878      869.691     1280.808      618.936        1.021        0.138      129.395       13.410        0.011      333.092        2.180      873.426
01/20/2022  09:38:00       37.751       13.566      -20.959       43.382       57.828       25.167     1881.978     3344.093      633.392        0.395        0.293       40.114       19.851        0.245      333.337        2.588      873.440
01/20/2022  09:39:00       23.344      -10.237      -19.258       21.867       43.074       28.719      478.168     1855.380      824.803        0.209        0.158       25.490       28.232        1.227      333.513        2.878      873.426
01/20/2022  09:40:00       12.545      -32.106      -14.961       49.158       44.799       30.879     2416.528     2006.931      953.536        0.339        0.269       34.469       25.102        0.530      333.707        3.198      873.402
01/20/2022  09:41:00       -0.142      -20.909       -6.179       46.817       45.803       32.515     2191.838     2097.875     1057.216        0.291        0.267       20.909       17.393        0.692      333.635        3.080      873.375
01/20/2022  09:42:00       27.400       -0.643       -2.687       33.161       36.089       26.720     1099.680     1302.433      713.979        0.194        0.156       27.408       12.442        0.206      333.565        2.964      873.352
01/20/2022  09:43:00       40.497       26.957       -6.281       46.324       55.057       26.461     2145.907     3031.229      700.200        0.414        0.294       48.649       23.172        0.227      333.387        2.669      873.352
01/20/2022  09:44:00       36.183       48.721      -23.789       42.378       30.624       21.054     1795.857      937.812      443.260        0.371        0.159       60.687       17.640        0.084      333.164        2.301      873.343
01/20/2022  09:45:00      -26.795      -21.276      -22.043       38.493       24.580       26.930     1481.704      604.179      725.235        0.223        0.141       34.215       12.569        0.135      333.567        2.969      873.341
01/20/2022  09:46:00       40.134       28.246       -5.528       32.579       40.407       32.463     1061.368     1632.733     1053.845        0.309        0.187       49.077       22.269        0.206      333.351        2.611      873.356
01/20/2022  09:47:00       39.852      -95.276      -14.988       38.538       51.515       31.503     1485.171     2653.802      992.459        0.801        0.257      103.275       27.543        0.071      333.443        2.763      873.368
01/20/2022  09:48:00       48.494      -15.388      -32.752       60.423       71.922       37.681     3650.890     5172.795     1419.822        0.695        0.512       50.877       28.147        0.306      333.506        2.867      873.377
01/20/2022  09:49:00      108.863       44.043      -35.269       52.180       38.751       25.106     2722.725     1501.619      630.304        0.994        0.243      117.435        9.454        0.006      333.274        2.483      873.388
01/20/2022  09:50:00       56.496       37.675      -35.604       40.355       49.161       34.106     1628.522     2416.825     1163.194        0.554        0.260       67.906       20.001        0.087      333.410        2.708      873.402
01/20/2022  09:51:00       52.608       36.966      -19.960       56.766       76.828       39.390     3222.340     5902.487     1551.588        0.760        0.534       64.297       16.881        0.069      333.382        2.662      873.406
01/20/2022  09:52:00        5.250       -2.560      -14.897       50.444       38.679       29.411     2544.616     1496.079      864.982        0.258        0.245        5.841       22.930       15.412      333.597        3.017      873.391
01/20/2022  09:53:00       86.073       21.117      -28.738       57.230       44.836       25.030     3275.241     2010.254      626.525        0.730        0.296       88.625       15.428        0.030      333.461        2.792      873.381
01/20/2022  09:54:00      117.956       19.626      -26.703       62.418       53.007       25.849     3896.058     2809.691      668.149        1.119        0.369      119.578       18.680        0.024      333.353        2.614      873.371
01/20/2022  09:55:00      117.781       67.806      -23.171       38.852       40.450       29.545     1509.508     1636.240      872.900        1.151        0.201      135.905       17.464        0.017      333.366        2.634      873.373
01/20/2022  09:56:00      156.817       53.184      -28.099       53.488       49.819       29.570     2860.953     2481.922      874.392        1.721        0.311      165.591       15.502        0.009      333.317        2.554      873.384
01/20/2022  09:57:00      132.346       38.454      -21.131       55.626       54.302       31.066     3094.250     2948.739      965.071        1.322        0.350      137.819       24.126        0.031      333.480        2.822      873.387
01/20/2022  09:58:00      130.805       53.456      -32.446       41.999       35.384       22.969     1763.932     1252.011      527.576        1.228        0.177      141.306       13.551        0.009      333.203        2.365      873.400
01/20/2022  09:59:00      115.712       34.569      -27.992       45.219       35.260       18.091     2044.793     1243.262      327.268        0.949        0.181      120.765       14.871        0.015      333.150        2.278      873.391
01/20/2022  10:00:00        9.824      -20.815       -5.324       46.956       62.329       41.649     2204.890     3884.940     1734.628        0.419        0.391       23.017       30.636        1.772      333.666        3.132      873.379
01/20/2022  10:01:00        6.279       13.180        5.829       61.490       50.317       39.272     3781.056     2531.758     1542.291        0.405        0.393       14.599       14.791        1.026      333.651        3.106      873.376
01/20/2022  10:02:00       93.616       -8.909      -22.596       56.089       78.436       34.697     3146.030     6152.164     1203.872        0.993        0.525       94.039       20.180        0.046      333.674        3.145      873.382
01/20/2022  10:03:00       79.360       42.629       -8.258       70.688       31.910       30.831     4996.802     1018.219      950.549        0.757        0.348       90.084       29.923        0.110      333.443        2.762      873.404
01/20/2022  10:04:00      136.695       20.622      -21.995       39.420       48.856       22.663     1553.922     2386.933      513.589        1.202        0.223      138.242        9.031        0.004      333.372        2.646      873.431
01/20/2022  10:05:00       77.186       45.124      -17.738       44.902       58.493       28.259     2016.169     3421.398      798.562        0.727        0.312       89.408       23.378        0.068      333.702        3.191      873.449
01/20/2022  10:06:00       19.905      -34.564      -20.525       40.677       54.803       26.491     1654.641     3003.412      701.751        0.368        0.268       39.886       30.782        0.596      333.845        3.429      873.451
01/20/2022  10:07:00       48.630      -92.998      -31.776       35.815       47.998       23.048     1282.679     2303.767      531.203        0.807        0.206      104.945       10.251        0.010      333.537        2.918      873.456
01/20/2022  10:08:00       55.876      -47.347      -22.409       55.752       57.733       38.296     3108.242     3333.149     1466.586        0.689        0.395       73.238       29.389        0.161      334.037        3.745      873.450
01/20/2022  10:09:00       65.906       11.087      -23.138       43.037       44.717       24.420     1852.179     1999.579      596.338        0.472        0.222       66.832       15.216        0.052      333.725        3.231      873.460
01/20/2022  10:10:00      100.857       -0.616      -13.913       38.833       36.548       26.326     1507.970     1335.727      693.055        0.695        0.177      100.859       16.408        0.026      333.505        2.866      873.463
01/20/2022  10:11:00       82.616       37.073      -29.610       30.815       39.748       26.636      949.581     1579.920      709.485        0.616        0.162       90.553       19.123        0.045      333.645        3.096      873.478
01/20/2022  10:12:00       90.684      -28.723      -10.915       67.638       50.869       35.643     4574.934     2587.616     1270.426        0.880        0.422       95.124       28.065        0.087      333.895        3.509      873.489
01/20/2022  10:13:00       31.343      -35.447      -19.231       43.981       46.319       34.059     1934.358     2145.480     1159.991        0.392        0.262       47.317       17.309        0.134      333.936        3.579      873.522
01/20/2022  10:14:00        5.186      -25.407      -11.935       37.748       27.302       20.838     1424.876      745.387      434.220        0.171        0.130       25.931        8.886        0.117      334.114        3.873      873.538
01/20/2022  10:15:00       14.695        7.679      -18.778       39.564       35.803       30.090     1565.320     1281.834      905.399        0.219        0.188       16.580       26.910        2.634      333.991        3.670      873.537
01/20/2022  10:16:00       63.409      -22.510      -13.358       69.808       32.784       35.782     4873.208     1074.791     1280.345        0.597        0.361       67.286       31.832        0.224      333.857        3.448      873.544
01/20/2022  10:17:00      101.029        3.519      -31.175       39.009       23.016       18.126     1521.731      529.716      328.550        0.679        0.119      101.090        9.741        0.009      333.370        2.641      873.553
01/20/2022  10:18:00       34.018       31.563      -16.124       33.757       33.980       20.905     1139.568     1154.660      437.016        0.257        0.137       46.405       10.118        0.048      333.730        3.237      873.555
01/20/2022  10:19:00       92.404       37.807      -24.397       47.443       55.213       24.611     2250.834     3048.489      605.715        0.823        0.295       99.839       22.287        0.050      333.943        3.591      873.552
01/20/2022  10:20:00       46.904      -48.671      -19.860       58.009       67.660       40.240     3365.093     4577.824     1619.281        0.726        0.478       67.593       34.481        0.260      334.221        4.050      873.549
01/20/2022  10:21:00       66.221      -99.132      -39.664       44.415       41.615       30.028     1972.698     1731.844      901.681        1.020        0.230      119.216       13.299        0.012      334.073        3.805      873.603
01/20/2022  10:22:00       39.627     -111.498      -38.593       48.644       37.812       31.194     2366.253     1429.712      973.066        1.013        0.238      118.331       22.309        0.036      333.871        3.470      873.613
01/20/2022  10:23:00       31.116      -22.241      -29.258       37.123       38.541       28.652     1378.090     1485.442      820.954        0.300        0.184       38.247       23.197        0.368      334.207        4.028      873.593
01/20/2022  10:24:00       44.755       29.308      -15.664       33.358       49.713       23.868     1112.735     2471.431      569.704        0.363        0.208       53.498       19.063        0.127      334.095        3.841      873.580
01/20/2022  10:25:00       12.607       35.029      -11.001       27.927       28.162       20.775      779.943      793.075      431.593        0.176        0.100       37.229       16.110        0.187      334.128        3.896      873.566
01/20/2022  10:26:00        0.087       16.566       -2.477       31.815       29.903       21.737     1012.179      894.185      472.479        0.133        0.119       16.566       14.262        0.741      334.446        4.423      873.543
01/20/2022  10:27:00       -4.656       22.037       -3.761       39.624       32.873       22.058     1570.100     1080.618      486.566        0.183        0.157       22.524       13.406        0.354      334.190        3.998      873.534
01/20/2022  10:28:00       46.004      -77.654      -24.964       67.373       70.962       34.912     4539.072     5035.614     1218.832        0.978        0.540       90.258       38.254        0.180      333.958        3.615      873.542
01/20/2022  10:29:00       69.558      -13.535      -16.908       57.785       56.052       32.208     3339.094     3141.825     1037.374        0.641        0.376       70.863       14.482        0.042      334.111        3.867      873.541
01/20/2022  10:30:00       67.988        5.670      -25.916       43.636       45.912       18.883     1904.143     2107.868      356.584        0.485        0.218       68.224       18.430        0.073      334.053        3.773      873.541
01/20/2022  10:31:00      101.770       66.405      -21.291       29.171       32.029       22.095      850.968     1025.826      488.187        0.879        0.118      121.518       16.327        0.018      333.937        3.580      873.543
01/20/2022  10:32:00        7.680       48.520      -13.268       37.523       30.951       21.173     1407.956      957.939      448.306        0.270        0.141       49.124       17.982        0.134      333.969        3.632      873.534
01/20/2022  10:33:00      -33.475       27.744      -12.176        9.513       11.174        7.993       90.498      124.848       63.888        0.116        0.014       43.478        4.362        0.010      333.641        3.089      873.519
01/20/2022  10:34:00       28.744       11.262      -12.211       42.715       32.287       29.635     1824.536     1042.465      878.246        0.242        0.187       30.871       20.210        0.429      334.360        4.281      873.495
01/20/2022  10:35:00       24.943      -44.104      -19.220       63.295       58.042       34.156     4006.239     3368.893     1166.655        0.574        0.427       50.669       24.249        0.229      334.322        4.217      873.482
01/20/2022  10:36:00       29.580        0.347      -33.059       34.568       54.307       30.745     1194.976     2949.204      945.283        0.353        0.254       29.582       14.740        0.248      334.364        4.288      873.495
01/20/2022  10:37:00       -3.260       21.908        5.262       31.170       27.375       22.430      971.570      749.386      503.117        0.137        0.111       22.149        7.139        0.104      334.259        4.113      873.506
01/20/2022  10:38:00       18.905      -81.679      -30.366       48.138       36.065       24.701     2317.233     1300.699      610.128        0.609        0.211       83.839       19.454        0.054      334.347        4.260      873.508
01/20/2022  10:39:00       26.008      -95.822      -23.234       44.057       57.556       27.144     1941.007     3312.654      736.805        0.819        0.300       99.289       29.333        0.087      334.329        4.229      873.523
01/20/2022  10:40:00       74.029      -69.704      -31.593       48.469       39.918       28.413     2349.288     1593.474      807.280        0.804        0.238      101.680       10.470        0.011      334.361        4.282      873.523
01/20/2022  10:41:00       64.812      -52.263      -31.719       42.485       60.220       30.299     1804.934     3626.401      918.020        0.714        0.317       83.259       17.861        0.046      334.443        4.417      873.526
01/20/2022  10:42:00       35.971      -26.395      -10.993       41.773       40.880       36.563     1744.970     1671.183     1336.864        0.343        0.238       44.616       27.705        0.386      334.520        4.548      873.520
01/20/2022  10:43:00       81.946        9.952       -2.503       67.518       74.355       46.101     4558.618     5528.620     2125.260        0.951        0.611       82.548       45.371        0.302      334.380        4.314      873.514
01/20/2022  10:44:00      119.225       94.904      -30.556       34.870       25.305       24.333     1215.939      640.368      592.076        1.330        0.122      152.385       13.683        0.008      333.992        3.669      873.527
01/20/2022  10:45:00       49.301       -4.548      -22.981       34.854       53.138       30.059     1214.784     2823.674      903.546        0.396        0.247       49.511       22.965        0.215      334.367        4.292      873.535
01/20/2022  10:46:00       24.635      -12.878      -24.292       33.783       33.270       20.448     1141.269     1106.893      418.115        0.201        0.133       27.798       17.524        0.397      334.565        4.620      873.549
01/20/2022  10:47:00        7.589       -9.201      -21.658       18.451       33.617       22.488      340.452     1130.090      505.707        0.129        0.099       11.927       17.486        2.149      334.800        5.012      873.560
01/20/2022  10:48:00       19.071       -3.884      -31.280       34.079       35.963       25.782     1161.396     1293.325      664.703        0.224        0.156       19.463       15.945        0.671      334.787        4.991      873.559
01/20/2022  10:49:00       13.831       21.071      -31.261       38.118       44.996       29.495     1452.976     2024.683      869.935        0.298        0.217       25.205       26.671        1.120      334.267        4.128      873.561
01/20/2022  10:50:00      -26.623       19.694       -9.903       17.132       23.296       21.602      293.508      542.726      466.658        0.125        0.065       33.116        9.725        0.086      334.411        4.366      873.552
01/20/2022  10:51:00      -24.108      -25.025      -13.804       26.730       36.274       19.840      714.497     1315.813      393.627        0.191        0.121       34.749       18.922        0.297      334.639        4.743      873.534
01/20/2022  10:52:00       17.692     -115.469      -19.768       45.224       43.350       25.475     2045.208     1879.196      648.987        0.930        0.229      116.816       21.849        0.035      334.539        4.578      873.513
01/20/2022  10:53:00       23.811     -110.253      -24.294       33.187       42.403       23.769     1101.361     1798.031      564.965        0.839        0.173      112.795       13.429        0.014      334.563        4.617      873.496
01/20/2022  10:54:00       -2.761      -27.411       -3.532       42.664       54.167       21.791     1820.184     2934.112      474.863        0.300        0.261       27.550       23.125        0.705      334.856        5.105      873.471
01/20/2022  10:55:00       -0.342      -43.679      -11.106       46.734       53.432       31.364     2184.040     2854.940      983.677        0.403        0.301       43.681       31.558        0.522      334.725        4.886      873.444
01/20/2022  10:56:00       31.611      -47.886      -26.104       37.429       67.954       29.053     1400.950     4617.757      844.085        0.542        0.343       57.379       18.469        0.104      334.811        5.030      873.424
01/20/2022  10:57:00       81.829     -174.323      -36.252       40.815       58.946       35.763     1665.849     3474.638     1279.014        2.241        0.321      192.573       36.996        0.037      334.363        4.283      873.409
01/20/2022  10:58:00       70.179     -136.174      -32.831       35.817       28.676       23.763     1282.873      822.329      564.659        1.361        0.133      153.194       18.546        0.015      334.406        4.357      873.397
01/20/2022  10:59:00       93.258     -148.056      -36.701       35.410       39.915       21.097     1253.849     1593.181      445.093        1.763        0.165      174.980       13.799        0.006      334.392        4.334      873.393
01/20/2022  11:00:00       62.556      -90.586      -35.031       27.492       32.569       17.606      755.830     1060.729      309.962        0.774        0.106      110.086       11.030        0.010      334.214        4.036      873.389
01/20/2022  11:01:00       24.120      -57.376      -20.089       48.625       32.860       28.586     2364.365     1079.752      817.171        0.427        0.213       62.240       24.865        0.160      334.907        5.190      873.403
01/20/2022  11:02:00       62.164      -84.668      -35.814       32.607       43.230       25.842     1063.192     1868.814      667.799        0.796        0.180      105.038        7.062        0.005      334.433        4.402      873.417
01/20/2022  11:03:00       39.551      -16.512       -5.628       72.393       25.769       27.059     5240.752      664.024      732.192        0.425        0.332       42.859       33.036        0.594      334.585        4.655      873.422
01/20/2022  11:04:00       54.232        9.526      -10.096       54.683       95.930       34.831     2990.266     9202.554     1213.194        0.827        0.670       55.062       30.032        0.297      334.827        5.056      873.416
01/20/2022  11:05:00       53.380        8.049       -6.443       40.736       58.005       19.561     1659.392     3364.532      382.649        0.418        0.270       53.983       15.899        0.087      335.018        5.376      873.379
01/20/2022  11:06:00      100.923       13.918      -16.457       86.634       71.847       47.360     7505.441     5162.031     2242.953        1.278        0.746      101.878       38.943        0.146      335.002        5.346      873.338
01/20/2022  11:07:00      132.219      -71.508      -30.639       78.429       56.104       47.154     6151.182     3147.644     2223.533        1.753        0.576      150.317       43.314        0.083      335.037        5.404      873.291
01/20/2022  11:08:00      100.954      -96.592      -46.531       61.744       86.959       45.465     3812.268     7561.809     2067.062        1.756        0.672      139.720       48.020        0.118      334.886        5.154      873.248
01/20/2022  11:09:00      108.410      -87.127      -32.941       52.607       48.556       28.344     2767.482     2357.690      803.374        1.318        0.296      139.082       23.671        0.029      334.632        4.731      873.207
01/20/2022  11:10:00       66.445     -116.032      -33.081       35.130       51.634       22.814     1234.094     2666.022      520.464        1.170        0.221      133.710       20.756        0.024      334.484        4.486      873.180
01/20/2022  11:11:00       88.054     -107.752      -37.552       37.703       47.729       17.840     1421.518     2278.091      318.259        1.240        0.201      139.155       22.437        0.026      334.532        4.566      873.158
01/20/2022  11:12:00       36.979       43.406       -5.222       49.435       37.586       23.151     2443.770     1412.681      535.972        0.383        0.220       57.023       21.324        0.140      335.197        5.671      873.153
01/20/2022  11:13:00       40.024       31.523       -8.312       26.561       31.095       24.454      705.510      966.913      597.981        0.247        0.114       50.947       11.366        0.050      335.109        5.526      873.136
01/20/2022  11:14:00       34.592      -65.772      -17.256       48.504       86.338       30.341     2352.655     7454.277      920.560        0.827        0.536       74.314       22.859        0.095      335.171        5.627      873.114
01/20/2022  11:15:00       72.899      -63.463      -32.885       55.000       72.059       40.937     3024.992     5192.555     1675.871        1.016        0.495       96.653       27.770        0.083      335.315        5.866      873.086
01/20/2022  11:16:00       25.145      -40.529      -20.242       39.289       64.206       25.627     1543.639     4122.437      656.728        0.450        0.316       47.696       12.751        0.071      335.229        5.723      873.077
01/20/2022  11:17:00       68.507        7.283       -8.423       77.307       52.769       47.081     5976.361     2784.547     2216.616        0.790        0.549       68.893       42.010        0.372      335.309        5.856      873.052
01/20/2022  11:18:00       17.657      -88.812      -16.293       41.735       76.195       35.553     1741.812     5805.637     1264.006        0.864        0.441       90.550       36.050        0.159      335.236        5.736      873.039
01/20/2022  11:19:00       81.738     -101.148      -29.935       68.084       69.511       37.048     4635.442     4831.786     1372.519        1.432        0.542      130.046       29.827        0.053      335.097        5.503      873.024
01/20/2022  11:20:00       28.378      -64.527      -18.546       50.400       66.661       40.385     2540.178     4443.675     1630.919        0.696        0.431       70.492       34.909        0.245      335.376        5.969      873.013
01/20/2022  11:21:00       88.507     -109.166      -33.448       58.727       85.113       44.210     3448.834     7244.196     1954.512        1.676        0.632      140.537       41.441        0.087      335.090        5.492      873.003
01/20/2022  11:22:00       87.428     -127.049      -42.041       62.185       70.328       39.924     3867.009     4946.052     1593.933        1.798        0.520      154.224       35.681        0.054      335.164        5.615      872.981
01/20/2022  11:23:00      113.586     -176.864      -45.108       61.708       78.250       40.253     3807.866     6123.140     1620.339        2.888        0.578      210.197       33.473        0.025      334.882        5.145      872.942
01/20/2022  11:24:00       72.418     -123.059      -16.479       64.140       95.796       40.955     4113.894     9176.925     1677.325        1.781        0.748      142.786       39.467        0.076      335.259        5.773      872.926
01/20/2022  11:25:00      103.603     -120.656      -39.751       71.132       64.276       49.827     5059.716     4131.354     2482.703        1.927        0.584      159.033       36.519        0.053      335.173        5.630      872.909
01/20/2022  11:26:00       39.014      -30.921      -30.473       60.440       62.982       32.463     3652.977     3966.679     1053.823        0.604        0.434       49.782       18.788        0.142      335.116        5.536      872.884
01/20/2022  11:27:00       33.275       -2.503      -18.003       63.513       67.435       43.641     4033.942     4547.510     1904.569        0.596        0.524       33.369       16.497        0.244      335.568        6.287      872.869
01/20/2022  11:28:00      119.388      -62.373      -35.320       68.290       74.524       50.967     4663.574     5553.817     2597.597        1.610        0.641      134.699       30.707        0.052      335.331        5.894      872.836
01/20/2022  11:29:00       75.021      -60.575      -21.931       63.530       81.235       43.903     4036.033     6599.109     1927.496        1.117        0.628       96.424       37.080        0.148      335.307        5.855      872.796
01/20/2022  11:30:00       81.392        3.587      -17.574       77.627       65.357       55.317     6025.887     4271.545     3059.946        1.015        0.668       81.471       40.801        0.251      335.498        6.171      872.752
01/20/2022  11:31:00       82.184      -50.826      -23.661       76.259       90.649       56.711     5815.480     8217.304     3216.125        1.357        0.862       96.631       43.674        0.204      335.504        6.182      872.712
01/20/2022  11:32:00      175.529     -143.368      -46.654       66.542       56.521       41.813     4427.860     3194.621     1748.325        3.145        0.469      226.638       38.736        0.029      335.040        5.408      872.670
01/20/2022  11:33:00      126.944     -169.724      -62.364       54.218       50.075       34.050     2939.605     2507.491     1159.382        2.771        0.330      211.946       26.725        0.016      335.019        5.374      872.661
01/20/2022  11:34:00       65.078     -100.504      -32.448       51.608       69.439       36.260     2663.400     4821.798     1314.770        1.209        0.440      119.734       33.852        0.080      335.578        6.305      872.666
01/20/2022  11:35:00       27.651       14.955       -5.400       47.672       44.885       21.024     2272.608     2014.668      442.013        0.287        0.236       31.436       17.043        0.294      335.473        6.130      872.661
01/20/2022  11:36:00       94.685       -4.712      -21.438       51.235       55.779       36.083     2624.985     3111.272     1301.968        0.824        0.352       94.802       13.847        0.021      335.528        6.222      872.640
01/20/2022  11:37:00       75.033     -124.350      -33.461       55.224      113.405       42.731     3049.647    12860.622     1825.968        1.997        0.887      145.234       34.853        0.058      335.582        6.308      872.620
01/20/2022  11:38:00      148.298     -167.845      -43.987       49.391       74.434       36.912     2439.445     5540.429     1362.481        3.072        0.467      223.974       34.323        0.023      335.233        5.728      872.604
01/20/2022  11:39:00       90.537     -146.783      -34.568       41.569       56.254       18.957     1727.989     3164.516      359.351        1.809        0.263      172.459       14.565        0.007      334.997        5.339      872.600
01/20/2022  11:40:00      147.676      -50.711      -34.157       90.363       98.973       51.585     8165.510     9795.625     2661.006        2.308        1.031      156.141       38.496        0.061      335.351        5.925      872.586
01/20/2022  11:41:00      115.494     -147.447      -45.198       49.178       78.928       39.620     2418.492     6229.551     1569.714        2.367        0.511      187.295       32.987        0.031      335.315        5.866      872.581
01/20/2022  11:42:00      104.140     -156.168      -44.120       39.084       50.407       29.897     1527.587     2540.876      893.830        2.107        0.248      187.707       27.456        0.021      335.032        5.396      872.573
01/20/2022  11:43:00      108.503     -109.128      -54.510       58.452       88.787       44.684     3416.603     7883.202     1996.685        1.997        0.665      153.889       27.729        0.032      335.399        6.006      872.554
01/20/2022  11:44:00      136.418       -6.891      -20.210       85.288       72.398       55.608     7273.962     5241.429     3092.295        1.733        0.780      136.592       44.287        0.105      335.521        6.209      872.527
01/20/2022  11:45:00      119.101       29.567      -28.451       80.722       75.032       32.081     6516.077     5629.830     1029.218        1.452        0.659      122.716       25.822        0.044      335.316        5.869      872.531
01/20/2022  11:46:00      104.156       33.057      -30.860       63.145       57.787       37.488     3987.282     3339.292     1405.324        1.081        0.437      109.276       20.957        0.037      335.604        6.347      872.496
01/20/2022  11:47:00      119.892     -132.953      -46.818       72.195       82.571       43.819     5212.160     6818.037     1920.127        2.409        0.698      179.027       32.123        0.032      335.683        6.478      872.459
01/20/2022  11:48:00      121.309      -24.650      -29.831       75.355       83.781       43.874     5678.368     7019.271     1924.903        1.542        0.731      123.788       31.592        0.065      335.406        6.018      872.427
01/20/2022  11:49:00      122.321     -114.162      -40.567       60.245       70.108       39.299     3629.507     4915.087     1544.387        1.986        0.504      167.318       38.343        0.053      335.412        6.027      872.404
01/20/2022  11:50:00       73.200     -147.881      -33.705       53.669       49.350       31.996     2880.411     2435.411     1023.762        1.735        0.317      165.006       33.612        0.041      335.350        5.925      872.371
01/20/2022  11:51:00       77.171      -98.959      -30.212       50.478       71.811       37.331     2547.985     5156.810     1393.591        1.288        0.455      125.492       32.208        0.066      335.410        6.024      872.357
01/20/2022  11:52:00       51.597      -19.563      -16.894       46.169       63.128       34.597     2131.611     3985.136     1196.980        0.532        0.366       55.181       34.815        0.398      335.466        6.119      872.329
01/20/2022  11:53:00       30.516       36.029        3.129       34.527       37.810       23.694     1192.137     1429.625      561.400        0.271        0.159       47.216       19.980        0.179      335.657        6.437      872.296
01/20/2022  11:54:00       79.405      -36.967      -27.446       75.258       82.697       49.293     5663.774     6838.785     2429.773        1.168        0.747       87.588       39.326        0.202      335.999        7.005      872.253
01/20/2022  11:55:00       99.545      -30.569      -38.697       74.734       91.339       57.847     5585.242     8342.858     3346.308        1.480        0.864      104.133       31.642        0.092      335.837        6.736      872.228
01/20/2022  11:56:00       65.183      -50.452      -35.366       51.869       91.169       42.867     2690.406     8311.697     1837.593        1.044        0.642       82.427       36.232        0.193      335.749        6.588      872.202
01/20/2022  11:57:00       54.084       -5.906      -27.919       48.929       55.767       39.335     2394.012     3110.006     1547.252        0.539        0.353       54.406       14.782        0.074      335.791        6.660      872.170
01/20/2022  11:58:00      118.230       26.314      -19.726       58.860       61.516       38.561     3464.495     3784.213     1486.945        1.190        0.437      121.123       31.698        0.068      335.694        6.497      872.123
01/20/2022  11:59:00       87.869       34.850       -3.701       63.067       49.154       29.913     3977.461     2416.126      894.765        0.812        0.364       94.528       26.401        0.078      335.704        6.515      872.065
01/20/2022  12:00:00      241.058       55.087      -21.625       56.521       44.523       29.221     3194.626     1982.259      853.861        3.382        0.302      247.273       10.905        0.002      335.386        5.982      872.020
01/20/2022  12:01:00      162.696       45.357      -16.669       55.398       35.433       26.179     3068.944     1255.497      685.324        1.691        0.250      168.901       25.234        0.022      335.494        6.164      871.979
01/20/2022  12:02:00      166.231       83.937      -20.170       32.647       29.161       20.451     1065.853      850.364      418.224        1.871        0.117      186.221       15.148        0.007      335.369        5.957      871.943
01/20/2022  12:03:00       86.796       82.694      -10.576       33.798       36.176       21.377     1142.271     1308.737      456.975        0.870        0.145      119.882       13.335        0.012      335.483        6.145      871.922
01/20/2022  12:04:00       49.761      129.350       -7.231       41.562       37.041       27.504     1727.421     1372.057      756.480        1.156        0.193      138.591       22.068        0.025      335.510        6.192      871.904
01/20/2022  12:05:00       35.037       46.645      -17.871       23.897       42.289       22.860      571.077     1788.374      522.557        0.330        0.144       58.338       22.753        0.152      335.746        6.586      871.886
01/20/2022  12:06:00       28.898       10.931       -1.971       48.170       96.210       38.621     2320.385     9256.292     1491.594        0.701        0.653       30.896       34.690        1.261      336.029        7.058      871.885
01/20/2022  12:07:00       95.255      -31.461      -46.169       64.028       68.321       46.936     4099.614     4667.808     2202.951        1.158        0.549      100.316       28.464        0.081      335.841        6.744      871.893
01/20/2022  12:08:00       91.168       30.213      -35.391       54.058       63.727       32.360     2922.320     4061.140     1047.142        0.925        0.402       96.044       25.291        0.069      335.774        6.632      871.934
01/20/2022  12:09:00       70.183       -1.479      -27.314       60.016       79.331       39.839     3601.965     6293.394     1587.138        0.858        0.574       70.199       31.862        0.206      335.881        6.810      871.953
01/20/2022  12:10:00       48.114      -48.828      -13.186       63.028      106.979       40.626     3972.559    11444.561     1650.458        1.097        0.853       68.550       33.150        0.234      335.821        6.710      871.962
01/20/2022  12:11:00       61.057       62.091       -5.755       36.156       36.198       30.041     1307.272     1310.272      902.441        0.557        0.176       87.082       24.241        0.077      335.875        6.801      871.968
01/20/2022  12:12:00       35.942       64.760        0.028       34.295       25.098       24.842     1176.156      629.932      617.106        0.395        0.121       74.066       12.201        0.027      335.877        6.804      871.953
01/20/2022  12:13:00      106.972      -16.548      -15.955       80.895       67.143       32.577     6543.994     4508.206     1061.238        1.204        0.606      108.244       30.747        0.081      336.094        7.163      871.929
01/20/2022  12:14:00      -23.168       14.211      -12.374       63.169       65.541       36.136     3990.344     4295.592     1305.814        0.524        0.480       27.179       27.701        1.039      336.102        7.178      871.898
01/20/2022  12:15:00       99.861       17.116      -21.012       62.650       43.745       36.621     3924.979     1913.659     1341.088        0.894        0.359      101.317       12.841        0.016      335.949        6.924      871.883
01/20/2022  12:16:00      114.085       32.828      -20.363       29.263       55.592       23.364      856.306     3090.444      545.863        0.950        0.225      118.714       10.452        0.008      335.618        6.373      871.857
01/20/2022  12:17:00       57.317       55.308      -21.447       41.316       18.805       22.333     1706.986      353.626      498.741        0.468        0.128       79.651       22.940        0.083      335.677        6.470      871.823
01/20/2022  12:18:00       35.941       76.510        1.000       31.489       32.874       24.898      991.546     1080.714      619.899        0.492        0.135       84.532       16.650        0.039      335.889        6.824      871.786
01/20/2022  12:19:00      -10.335       22.418      -10.066       43.584       30.007       30.694     1899.529      900.428      942.097        0.223        0.187       24.685       22.132        0.804      336.363        7.614      871.748
01/20/2022  12:20:00      -34.810      -33.005       -7.450       63.858       68.871       40.199     4077.892     4743.249     1615.938        0.639        0.522       47.970       28.416        0.351      336.265        7.452      871.721
01/20/2022  12:21:00       97.596       80.313      -16.272       50.269       43.392       27.390     2526.983     1882.900      750.209        1.070        0.258      126.393       27.567        0.048      335.777        6.638      871.705
01/20/2022  12:22:00      -62.229       -1.525        1.806       54.157       54.170       34.352     2932.933     2934.432     1180.067        0.546        0.352       62.247       20.420        0.108      336.009        7.024      871.673
01/20/2022  12:23:00      -11.044       -5.813        9.124       38.566       36.191       24.762     1487.340     1309.794      613.145        0.182        0.171       12.480       14.634        1.375      336.497        7.839      871.630
01/20/2022  12:24:00       36.387       47.207       -9.053       36.344       30.102       17.965     1320.858      906.144      322.734        0.309        0.127       59.604       10.914        0.034      336.052        7.096      871.572
01/20/2022  12:25:00       48.630      -51.091      -21.884       73.708       78.101       42.400     5432.901     6099.715     1797.744        0.939        0.667       70.535       30.811        0.191      336.187        7.319      871.492
01/20/2022  12:26:00       49.010      -40.157      -13.411       63.893       75.684       48.280     4082.313     5728.021     2330.944        0.817        0.607       63.361       41.377        0.426      336.366        7.617      871.424
01/20/2022  12:27:00       98.827       49.268      -15.141       82.240       51.514       30.424     6763.467     2653.651      925.627        1.138        0.517      110.427       35.419        0.103      335.986        6.984      871.396
01/20/2022  12:28:00       56.029       44.808      -14.013       46.154       39.249       21.829     2130.194     1540.494      476.510        0.474        0.207       71.743       15.280        0.045      335.957        6.936      871.353
01/20/2022  12:29:00      103.034       87.333      -39.259       67.328       69.146       45.696     4532.995     4781.169     2088.093        1.559        0.570      135.067       34.985        0.067      336.296        7.502      871.323
01/20/2022  12:30:00       38.464       -4.637      -24.770       57.918       66.582       41.346     3354.505     4433.168     1709.460        0.580        0.475       38.742       35.364        0.833      336.353        7.598      871.323
01/20/2022  12:31:00       77.768      -76.536      -43.111       47.505       93.252       38.301     2256.742     8695.924     1466.962        1.309        0.621      109.113       22.065        0.041      336.133        7.229      871.322
01/20/2022  12:32:00       20.511      -26.222      -20.340       46.887       69.875       32.415     2198.353     4882.562     1050.723        0.483        0.407       33.291       12.808        0.148      336.062        7.111      871.297
01/20/2022  12:33:00       33.142       31.621      -10.945       55.008       42.179       17.528     3025.870     1779.106      307.248        0.366        0.256       45.807       19.368        0.179      336.104        7.181      871.270
01/20/2022  12:34:00        6.405        6.895        8.911       43.513       29.896       19.884     1893.390      893.761      395.365        0.167        0.159        9.411       13.673        2.111      336.315        7.533      871.245
01/20/2022  12:35:00       15.668       19.485        0.478       15.867       21.424       17.978      251.748      458.986      323.191        0.083        0.052       25.003       13.069        0.273      336.559        7.942      871.235
01/20/2022  12:36:00      -25.592        5.328      -20.699       21.343       21.326       15.645      455.520      454.807      244.767        0.113        0.058       26.141        6.746        0.067      336.475        7.802      871.230
01/20/2022  12:37:00       80.374       26.054      -18.259       70.764       27.034       21.243     5007.597      730.863      451.276        0.683        0.309       84.491       24.670        0.085      336.263        7.450      871.239
01/20/2022  12:38:00       62.245       72.173       -9.268       57.936       37.233       27.246     3356.577     1386.263      742.371        0.733        0.274       95.307       17.235        0.033      336.259        7.440      871.229
01/20/2022  12:39:00       77.450       69.219      -19.925       34.045       31.380       23.874     1159.096      984.692      569.992        0.695        0.136      103.873       14.906        0.021      336.085        7.149      871.202
01/20/2022  12:40:00       41.694        4.227      -17.920       38.340       51.949       29.389     1469.977     2698.653      863.727        0.355        0.252       41.908       24.700        0.347      336.504        7.851      871.168
01/20/2022  12:41:00       43.569      -78.602      -20.599       45.349       43.123       28.635     2056.506     1859.601      819.937        0.662        0.237       89.870       24.907        0.077      336.552        7.931      871.130
01/20/2022  12:42:00       51.635      -89.234      -24.517       49.654       65.339       30.388     2465.546     4269.246      923.425        0.944        0.383      103.096       35.193        0.117      336.403        7.681      871.080
01/20/2022  12:43:00      -42.846      -63.457      -20.888       79.663       99.270       36.093     6346.173     9854.611     1302.689        1.190        0.875       76.568       19.424        0.064      336.653        8.100      871.028
01/20/2022  12:44:00      101.694     -191.390      -38.720       60.009       50.581       24.108     3601.106     2558.463      581.182        2.760        0.337      216.729       24.826        0.013      335.985        6.980      870.995
01/20/2022  12:45:00       29.546      -54.645      -44.683       66.272       60.520       40.911     4391.918     3662.620     1673.740        0.779        0.486       62.121       26.494        0.182      336.418        7.707      870.985
01/20/2022  12:46:00      -21.335      -12.281      -14.120       44.710       49.236       36.744     1998.960     2424.153     1350.152        0.329        0.289       24.617       16.195        0.433      336.599        8.010      870.986
01/20/2022  12:47:00       52.673       35.902       -7.428       37.566       67.340       30.004     1411.202     4534.642      900.256        0.548        0.342       63.744       22.501        0.125      336.246        7.420      871.001
01/20/2022  12:48:00       -1.504      -28.838       -9.217       40.198       59.439       29.159     1615.851     3532.954      850.252        0.346        0.300       28.877       13.343        0.213      336.293        7.498      871.020
01/20/2022  12:49:00       50.724      -39.113      -26.403       51.571       84.155       40.836     2659.523     7082.022     1667.573        0.810        0.570       64.053       25.481        0.158      336.455        7.768      871.029
01/20/2022  12:50:00       74.952      -29.042      -26.472       75.678       58.581       42.360     5727.215     3431.728     1794.403        0.906        0.548       80.382       26.295        0.107      336.525        7.885      871.044
01/20/2022  12:51:00       44.703       -2.140      -22.520       50.195       75.710       44.902     2519.562     5731.984     2016.179        0.639        0.513       44.754       33.562        0.562      336.540        7.910      871.054
01/20/2022  12:52:00       47.291       67.853       -4.226       59.411       42.986       27.529     3529.710     1847.784      757.855        0.650        0.307       82.707        6.454        0.006      336.408        7.690      871.062
01/20/2022  12:53:00       26.839       48.057        4.918       49.254       54.504       22.897     2425.913     2970.647      524.293        0.449        0.296       55.043        9.098        0.027      336.638        8.073      871.045
01/20/2022  12:54:00       43.940       51.199       -6.427       56.982       43.904       36.868     3246.922     1927.553     1359.226        0.556        0.327       67.468       23.101        0.117      336.576        7.972      871.009
01/20/2022  12:55:00      -20.118      -29.120      -15.211       43.569       70.067       23.085     1898.235     4909.359      532.898        0.441        0.367       35.394       18.905        0.285      336.526        7.887      870.968
01/20/2022  12:56:00       -3.857      -80.391       -8.223       54.409       72.104       43.810     2960.302     5198.984     1919.346        0.831        0.504       80.484       33.963        0.178      336.369        7.624      870.937
01/20/2022  12:57:00      -10.462       -2.311       -8.068       25.192       15.109       20.072      634.656      228.277      402.905        0.072        0.063       10.714       12.641        1.392      336.652        8.098      870.929
01/20/2022  12:58:00       -7.226       12.647      -14.936       25.536       26.414       21.532      652.090      697.699      463.606        0.112        0.091       14.566        9.419        0.418      336.832        8.400      870.931
01/20/2022  12:59:00      -30.658       10.308      -15.911       61.313       37.395       24.529     3759.289     1398.375      601.676        0.353        0.288       32.344       14.970        0.214      336.780        8.311      870.919
01/20/2022  13:00:00       77.776       42.350       -7.566       35.936       51.099       24.142     1291.389     2611.077      582.822        0.619        0.224       88.559       16.279        0.034      336.548        7.924      870.909
01/20/2022  13:01:00      -28.590      -10.738      -11.026       32.283       34.202       29.250     1042.188     1169.782      855.578        0.206        0.153       30.540       13.334        0.191      336.916        8.539      870.895
01/20/2022  13:02:00      -22.932       35.152      -32.617       57.628       19.706       19.922     3320.997      388.337      396.897        0.347        0.205       41.970       23.965        0.326      336.317        7.538      870.909
01/20/2022  13:03:00       54.700       37.887      -25.081       21.161       19.971       21.054      447.785      398.837      443.285        0.317        0.064       66.539       16.117        0.059      336.415        7.701      870.944
01/20/2022  13:04:00        4.865       52.143        5.453       39.250       37.423       22.419     1540.524     1400.504      502.593        0.311        0.172       52.369       12.819        0.060      336.892        8.500      870.977
01/20/2022  13:05:00       25.706       31.670       -6.714       48.729       40.343       30.698     2374.499     1627.522      942.359        0.333        0.247       40.790       15.215        0.139      336.853        8.434      870.978
01/20/2022  13:06:00       34.239     -112.034      -30.663       57.848       98.239       36.760     3346.362     9650.977     1351.267        1.450        0.717      117.149       27.260        0.054      336.606        8.020      870.957
01/20/2022  13:07:00      -13.826      -12.287      -16.845       56.835       42.670       39.848     3230.271     1820.762     1587.895        0.363        0.332       18.497       39.186        4.488      336.858        8.441      870.949
01/20/2022  13:08:00       60.007       19.794      -23.620       60.385       59.443       39.899     3646.331     3533.471     1591.964        0.666        0.439       63.187       38.327        0.368      336.870        8.463      870.941
01/20/2022  13:09:00      106.463       65.614      -20.305       70.253       43.287       29.439     4935.499     1873.762      866.637        1.186        0.384      125.058       30.573        0.060      336.516        7.870      870.927
01/20/2022  13:10:00      105.924       51.347      -27.518       42.694       31.363       26.580     1822.742      983.613      706.500        0.906        0.176      117.713       15.940        0.018      336.515        7.870      870.905
01/20/2022  13:11:00       57.123       57.433      -12.482       51.608       46.604       23.081     2663.377     2171.937      532.732        0.604        0.268       81.003        8.879        0.012      337.024        8.719      870.866
01/20/2022  13:12:00       95.742       79.080      -20.903       74.185       39.941       29.998     5503.366     1595.313      899.852        1.193        0.400      124.178       30.201        0.059      336.832        8.399      870.859
01/20/2022  13:13:00       96.985      131.236      -22.740       44.012       43.260       24.646     1937.078     1871.391      607.439        1.578        0.221      163.184       19.891        0.015      336.630        8.061      870.866
01/20/2022  13:14:00       45.689       83.806      -16.402       43.666       41.443       23.529     1906.705     1717.497      553.629        0.678        0.209       95.451       16.664        0.030      336.873        8.466      870.863
01/20/2022  13:15:00       21.004      123.344      -20.791       41.352       60.655       30.600     1709.949     3679.031      936.332        1.121        0.316      125.120       25.203        0.041      336.860        8.445      870.853
01/20/2022  13:16:00      125.423       83.560      -26.285       47.473       37.997       32.979     2253.656     1443.753     1087.616        1.409        0.239      150.709       16.088        0.011      336.694        8.168      870.850
01/20/2022  13:17:00       96.216       61.667      -16.827       31.878       29.406       22.395     1016.196      864.729      501.514        0.786        0.119      114.282       16.663        0.021      336.479        7.810      870.840
01/20/2022  13:18:00       29.464       18.507       -7.939       36.505       20.759       20.928     1332.601      430.932      437.984        0.174        0.110       34.794       24.802        0.508      336.841        8.414      870.834
01/20/2022  13:19:00       21.685       22.943      -22.047       15.485       29.164       17.201      239.799      850.522      295.881        0.143        0.069       31.569        4.971        0.025      336.751        8.265      870.823
01/20/2022  13:20:00       -1.790       23.903       -8.645       14.231       19.807       12.811      202.533      392.302      164.133        0.070        0.038       23.970       10.367        0.187      336.929        8.560      870.811
01/20/2022  13:21:00       -2.195       -6.149      -11.493       13.693       18.489       13.201      187.496      341.853      174.255        0.044        0.035        6.529        7.668        1.380      337.059        8.778      870.786
01/20/2022  13:22:00       -1.386       63.378        3.328       32.227       60.104       21.265     1038.594     3612.507      452.212        0.457        0.255       63.394       19.465        0.094      337.391        9.333      870.756
01/20/2022  13:23:00       34.564      102.957      -15.545       27.494       39.077       24.382      755.902     1527.041      594.498        0.746        0.144      108.604       20.954        0.037      336.933        8.567      870.736
01/20/2022  13:24:00       21.575       86.017       -6.742       30.362       46.835       26.179      921.873     2193.472      685.365        0.585        0.190       88.681       27.131        0.094      336.950        8.596      870.726
01/20/2022  13:25:00       60.476       53.748       -3.454       58.404       29.605       29.132     3410.983      876.479      848.698        0.585        0.257       80.908       30.406        0.141      337.080        8.814      870.713
01/20/2022  13:26:00       69.780       30.189      -10.841       44.176       17.614       18.394     1951.481      310.257      338.331        0.425        0.130       76.031        6.713        0.008      336.791        8.329      870.705
01/20/2022  13:27:00        8.484       22.583       -1.940       30.226       23.401       15.627      913.613      547.626      244.216        0.115        0.085       24.124        9.494        0.155      337.323        9.220      870.677
01/20/2022  13:28:00       10.721       11.223      -17.565       38.029       34.654       21.813     1446.203     1200.873      475.796        0.184        0.156       15.521       22.970        2.190      337.333        9.236      870.646
01/20/2022  13:29:00       27.913      -54.675      -15.826       42.443       38.791       28.914     1801.444     1504.766      836.012        0.408        0.207       61.388       24.746        0.162      337.289        9.162      870.613
01/20/2022  13:30:00       -9.980      -57.643      -34.935       38.941       36.606       26.050     1516.395     1340.001      678.615        0.409        0.177       58.501       18.639        0.102      337.444        9.423      870.580
01/20/2022  13:31:00       19.954     -101.035      -30.431       44.690       58.294       24.575     1997.152     3398.163      603.910        0.876        0.300      102.987       16.898        0.027      337.140        8.914      870.567
01/20/2022  13:32:00      114.811       33.057      -20.251       60.032       54.537       24.401     3603.896     2974.311      595.389        1.093        0.359      119.475       20.560        0.030      337.087        8.826      870.556
01/20/2022  13:33:00       53.173        7.378      -22.176       63.752       47.921       34.349     4064.276     2296.400     1179.842        0.546        0.377       53.682       22.841        0.181      337.345        9.258      870.528
01/20/2022  13:34:00      111.571       87.847       -9.768       60.928       49.146       38.147     3712.187     2415.362     1455.221        1.392        0.379      142.004       23.241        0.027      337.217        9.042      870.484
01/20/2022  13:35:00       45.753       32.757      -15.475       39.266       61.409       39.593     1541.795     3771.042     1567.620        0.514        0.344       56.270       23.926        0.181      337.344        9.253      870.433
01/20/2022  13:36:00      103.184       42.812      -20.429       50.120       39.470       26.383     2511.980     1557.885      696.072        0.883        0.238      111.713       15.226        0.019      337.169        8.961      870.402
01/20/2022  13:37:00       19.702       11.542      -22.654       52.003       34.116       18.918     2704.337     1163.935      357.906        0.263        0.211       22.834       21.885        0.919      337.431        9.400      870.382
01/20/2022  13:38:00       18.387       10.104      -17.390       43.588       66.462       36.268     1899.878     4417.213     1315.370        0.419        0.382       20.980       29.326        1.954      337.462        9.452      870.358
01/20/2022  13:39:00       65.841     -102.236      -27.170       52.078       57.245       37.399     2712.167     3277.010     1398.685        1.146        0.369      121.603       27.782        0.052      337.178        8.976      870.334
01/20/2022  13:40:00        4.830       16.231      -21.879       33.308       41.580       26.808     1109.409     1728.907      718.686        0.216        0.178       16.934       20.419        1.454      337.339        9.247      870.321
01/20/2022  13:41:00       34.516        1.466      -19.810       39.470       52.326       35.381     1557.863     2737.975     1251.785        0.357        0.277       34.547       16.882        0.239      337.356        9.276      870.306
01/20/2022  13:42:00       31.711       12.477      -12.568       46.546       45.093       27.175     2166.514     2033.387      738.461        0.313        0.247       34.077       21.434        0.396      337.187        8.992      870.319
01/20/2022  13:43:00       84.455       87.140      -10.622       56.025       45.100       42.588     3138.856     2034.033     1813.737        1.091        0.349      121.350       26.691        0.048      337.126        8.888      870.316
01/20/2022  13:44:00       -7.928        1.859      -13.298       25.072       28.452       18.243      628.584      809.510      332.803        0.101        0.089        8.143       16.278        3.996      337.283        9.152      870.322
01/20/2022  13:45:00      -11.281       21.208       -4.647       45.962       44.672       24.595     2112.546     1995.588      604.936        0.265        0.236       24.022       12.563        0.273      337.328        9.228      870.317
01/20/2022  13:46:00       47.271       42.731      -21.244       43.485       42.516       36.890     1890.930     1807.577     1360.871        0.478        0.253       63.722       23.305        0.134      337.546        9.592      870.303
01/20/2022  13:47:00       36.758      -14.237      -34.821       47.196       53.408       33.717     2227.461     2852.373     1136.822        0.449        0.311       39.418       24.947        0.401      337.547        9.595      870.282
01/20/2022  13:48:00       55.020       -6.494      -37.196       54.717       81.076       43.972     2993.989     6573.337     1933.535        0.797        0.575       55.402       29.606        0.286      337.405        9.356      870.269
01/20/2022  13:49:00       90.332      -54.510      -40.819       71.947       78.776       42.506     5176.416     6205.630     1806.780        1.299        0.659      105.505       29.298        0.077      337.272        9.134      870.257
01/20/2022  13:50:00       55.843       42.767      -23.006       39.630       71.184       35.579     1570.500     5067.112     1265.892        0.669        0.395       70.338       17.298        0.060      337.346        9.258      870.276
01/20/2022  13:51:00       42.271        0.209      -14.364       51.518       45.985       36.031     2654.134     2114.597     1298.265        0.403        0.303       42.272       20.407        0.233      337.382        9.318      870.271
01/20/2022  13:52:00      126.065       46.681      -19.647       52.877       52.185       27.209     2795.954     2723.285      740.343        1.236        0.313      134.431       18.376        0.019      337.262        9.117      870.252
01/20/2022  13:53:00       51.361       53.862      -12.824       37.725       30.195       20.264     1423.148      911.716      410.620        0.422        0.137       74.425        6.407        0.007      337.240        9.082      870.228
01/20/2022  13:54:00       32.814       44.517       -2.481       53.693       53.770       38.537     2882.931     2891.243     1485.111        0.516        0.363       55.304       28.396        0.264      337.516        9.542      870.182
01/20/2022  13:55:00       18.212        3.615      -16.758       29.122       41.630       23.760      848.069     1733.059      564.557        0.189        0.157       18.567       11.696        0.397      337.514        9.539      870.146
01/20/2022  13:56:00      113.147       48.692      -24.033       96.483       34.752       22.311     9309.050     1207.682      497.787        1.338        0.551      123.179       36.973        0.090      337.200        9.011      870.129
01/20/2022  13:57:00      106.428       31.323      -14.593       47.153       17.280       18.763     2223.421      298.605      352.045        0.770        0.144      110.941       19.156        0.030      337.060        8.779      870.131
01/20/2022  13:58:00      105.478       76.107      -13.610       80.810       46.678       36.381     6530.195     2178.794     1323.578        1.357        0.502      130.069       34.371        0.070      337.451        9.433      870.125
01/20/2022  13:59:00      122.170       63.046      -22.855       46.889       32.832       18.546     2198.569     1077.944      343.966        1.152        0.181      137.478       11.827        0.007      337.169        8.962      870.102
01/20/2022  14:00:00       72.325       69.912      -10.765       32.168       24.729       22.712     1034.768      611.532      515.820        0.620        0.108      100.591       17.655        0.031      337.112        8.869      870.070
01/20/2022  14:01:00      141.708       40.942      -32.262       19.806       26.506       18.099      392.269      702.565      327.578        1.211        0.071      147.504        6.749        0.002      337.077        8.809      870.014
01/20/2022  14:02:00       38.309       51.894       -6.621       28.819       23.395       24.980      830.552      547.331      624.018        0.310        0.100       64.502       17.964        0.078      337.285        9.158      869.973
01/20/2022  14:03:00       20.020       57.862      -10.787       23.388       24.737       22.398      546.996      611.917      501.684        0.276        0.083       61.227       15.003        0.060      337.457        9.444      869.949
01/20/2022  14:04:00       27.915       84.977       -9.187       37.204       42.656       29.579     1384.115     1819.532      874.901        0.608        0.204       89.444       16.262        0.033      337.363        9.286      869.943
01/20/2022  14:05:00       14.745       21.554       -9.227       47.607       37.835       18.999     2266.461     1431.507      360.980        0.241        0.203       26.115       21.511        0.678      337.344        9.254      869.929
01/20/2022  14:06:00       65.074       85.620      -12.826       34.721       26.991       24.468     1205.516      728.518      598.660        0.713        0.127      107.543       15.933        0.022      337.373        9.305      869.917
01/20/2022  14:07:00       45.165       97.714      -19.520       26.368       35.095       21.296      695.296     1231.666      453.500        0.717        0.119      107.648       14.659        0.019      337.293        9.170      869.897
01/20/2022  14:08:00       50.933       46.544       -5.748       25.317       19.860       16.958      640.943      394.425      287.561        0.306        0.066       68.996        9.177        0.018      337.391        9.334      869.868
01/20/2022  14:09:00       56.189       31.033       -9.510       30.339       15.618       16.087      920.447      243.930      258.800        0.282        0.071       64.189        9.597        0.022      337.363        9.287      869.841
01/20/2022  14:10:00       52.804       75.517       -9.227       20.734       26.423       20.164      429.895      698.186      406.584        0.506        0.077       92.147       13.280        0.021      337.364        9.290      869.813
01/20/2022  14:11:00       31.872       65.468       -2.546       35.583       44.895       20.545     1266.185     2015.551      422.116        0.451        0.185       72.814       25.354        0.121      337.488        9.497      869.792
01/20/2022  14:12:00       64.135       38.746       -7.354       39.176       29.310       14.796     1534.744      859.063      218.911        0.414        0.131       74.930        3.529        0.002      337.530        9.566      869.771
01/20/2022  14:13:00       52.996       31.669       -7.152       63.284       37.172       33.024     4004.844     1381.784     1090.555        0.517        0.324       61.737       28.249        0.209      337.680        9.818      869.763
01/20/2022  14:14:00       77.892       12.211      -12.657       64.462       66.360       30.570     4155.405     4403.688      934.500        0.793        0.475       78.843       30.442        0.149      337.694        9.841      869.757
01/20/2022  14:15:00       60.932       48.407      -16.561       41.767       41.727       24.359     1744.517     1741.134      593.341        0.520        0.204       77.820       18.588        0.057      337.855       10.110      869.760
01/20/2022  14:16:00       84.192       53.045      -10.202       51.521       35.670       27.451     2654.437     1272.333      753.579        0.734        0.234       99.509       28.234        0.081      337.624        9.725      869.763
01/20/2022  14:17:00       82.590       68.817      -10.791       58.379       26.962       28.598     3408.131      726.962      817.869        0.831        0.248      107.503       21.631        0.040      337.457        9.444      869.753
01/20/2022  14:18:00       74.083       59.608       -2.236       59.610       38.021       26.114     3553.294     1445.625      681.966        0.736        0.284       95.086       22.505        0.056      337.524        9.555      869.735
01/20/2022  14:19:00       74.255       17.258      -29.871       58.025       70.074       29.575     3366.925     4910.323      874.671        0.793        0.458       76.235       25.426        0.111      337.757        9.947      869.710
01/20/2022  14:20:00       37.661        9.196      -28.368       42.278       59.774       34.169     1787.421     3572.905     1167.495        0.442        0.326       38.768       24.508        0.400      337.928       10.234      869.693
01/20/2022  14:21:00       37.413       26.461      -11.788       49.944       62.545       39.726     2494.401     3911.901     1578.163        0.511        0.399       45.825       27.291        0.355      337.815       10.044      869.680
01/20/2022  14:22:00       37.263      -15.601      -26.267       41.299       41.279       34.164     1705.578     1703.922     1167.187        0.345        0.229       40.397       27.453        0.462      337.779        9.984      869.667
01/20/2022  14:23:00       16.942      -67.475      -17.969       21.017       36.192       26.102      441.731     1309.882      681.297        0.380        0.122       69.569       14.515        0.044      337.626        9.725      869.656
01/20/2022  14:24:00       27.698      -24.007      -12.982       26.577       17.738       17.570      706.339      314.653      308.702        0.142        0.066       36.654       15.223        0.172      337.736        9.911      869.640
01/20/2022  14:25:00        1.285      -12.397        3.698       15.032       28.251       19.033      225.952      798.113      362.248        0.078        0.069       12.464       10.961        0.773      338.150       10.606      869.619
01/20/2022  14:26:00       -3.702      -27.355       -7.484       14.528       32.781       14.556      211.050     1074.563      211.881        0.116        0.075       27.604        7.334        0.071      337.996       10.348      869.597
01/20/2022  14:27:00       46.629       47.328       -6.083       35.048       37.547       20.937     1228.331     1409.775      438.342        0.376        0.154       66.439       17.903        0.073      337.746        9.929      869.575
01/20/2022  14:28:00       28.788       63.423      -14.947       33.658       29.116       28.200     1132.875      847.769      795.243        0.392        0.139       69.651       19.676        0.080      337.742        9.922      869.572
01/20/2022  14:29:00       -8.336       49.150      -17.898       22.175       26.523       19.167      491.749      703.445      367.356        0.218        0.078       49.852        9.645        0.037      337.887       10.165      869.559
01/20/2022  14:30:00       -2.921       -9.970      -11.771       25.635       16.803       21.071      657.135      282.344      443.968        0.081        0.069       10.390       16.940        2.658      338.167       10.634      869.556
01/20/2022  14:31:00       29.013       13.262       -9.216       18.488       15.655       11.215      341.795      245.093      125.780        0.091        0.036       31.901        6.750        0.045      337.851       10.104      869.555
01/20/2022  14:32:00       21.907      -13.690      -13.413       33.385       23.558       19.718     1114.557      554.974      388.808        0.145        0.103       25.833       13.911        0.290      338.043       10.427      869.538
01/20/2022  14:33:00       -3.210        7.116        0.111       31.965       32.818       29.886     1021.744     1076.996      893.193        0.153        0.150        7.807       21.052        7.272      338.239       10.754      869.516
01/20/2022  14:34:00       59.514      -44.238      -12.532       24.480       22.030       20.716      599.293      485.338      429.149        0.358        0.076       74.155       13.902        0.035      337.787        9.998      869.480
01/20/2022  14:35:00       49.327      -27.506        1.486       36.739       24.728       23.031     1349.782      611.472      530.414        0.284        0.125       56.478       21.623        0.147      338.000       10.355      869.442
01/20/2022  14:36:00       30.972      -18.106       -9.883       64.098       60.759       51.237     4108.496     3691.686     2625.218        0.590        0.521       35.876       45.117        1.582      338.022       10.391      869.409
01/20/2022  14:37:00      105.043       42.776      -20.266       34.868       50.314       24.244     1215.795     2531.535      587.789        0.880        0.217      113.419        6.898        0.004      337.655        9.775      869.394
01/20/2022  14:38:00       51.008        2.383       -7.859       42.479       31.274       19.342     1804.430      978.047      374.098        0.291        0.158       51.063       12.242        0.057      337.675        9.810      869.374
01/20/2022  14:39:00       69.237       56.165       -7.247       44.967       27.976       26.913     2022.023      782.635      724.305        0.576        0.176       89.152       18.307        0.042      337.758        9.947      869.356
01/20/2022  14:40:00       78.056       29.160      -11.370       46.604       34.526       23.441     2171.946     1192.033      549.481        0.549        0.196       83.325       20.591        0.061      337.786        9.995      869.333
01/20/2022  14:41:00      121.888       69.395       -9.032       41.853       34.619       24.701     1751.711     1198.486      610.123        1.166        0.178      140.258       19.521        0.019      337.692        9.837      869.306
01/20/2022  14:42:00      118.561       69.156      -16.133       30.987       36.710       21.684      960.222     1347.609      470.187        1.094        0.139      137.256       16.471        0.014      337.647        9.761      869.289
01/20/2022  14:43:00       95.264       28.957      -15.299       37.450       22.289       21.844     1402.504      496.794      477.154        0.626        0.119       99.568       13.655        0.019      337.708        9.864      869.274
01/20/2022  14:44:00      112.114      -40.281       -9.504       86.805       69.962       49.594     7535.073     4894.703     2459.523        1.458        0.744      119.130       47.249        0.157      337.934       10.243      869.254
01/20/2022  14:45:00       76.734       -7.724       -6.240       58.927       38.186       44.258     3472.420     1458.187     1958.772        0.644        0.344       77.122       35.636        0.214      337.941       10.255      869.248
01/20/2022  14:46:00       73.233        8.527      -11.791       31.683       34.344       21.622     1003.798     1179.501      467.523        0.411        0.133       73.728       10.136        0.019      337.800       10.019      869.256
01/20/2022  14:47:00       43.136       16.450       -8.547       31.879       40.419       19.070     1016.282     1633.693      363.676        0.261        0.151       46.166        8.337        0.033      337.861       10.120      869.257
01/20/2022  14:48:00       15.287        8.299       -9.996       25.035       25.837       17.586      626.756      667.564      309.255        0.100        0.080       17.394       12.396        0.508      337.931       10.239      869.253
01/20/2022  14:49:00       19.858      -22.957        1.362       33.560       29.217       26.322     1126.287      853.656      692.846        0.180        0.134       30.354       13.250        0.191      338.202       10.694      869.245
01/20/2022  14:50:00       23.467      -19.417       -6.564       45.231       24.326       26.125     2045.806      591.771      682.527        0.214        0.166       30.459       24.180        0.630      338.248       10.770      869.233
01/20/2022  14:51:00       -4.166      -34.459      -14.304       41.778       47.960       23.584     1745.443     2300.122      556.195        0.300        0.230       34.710       26.408        0.579      338.414       11.049      869.223
01/20/2022  14:52:00       54.721       44.449       -4.163       70.054       39.236       27.180     4907.598     1539.436      738.726        0.609        0.359       70.499        9.220        0.017      338.293       10.846      869.225
01/20/2022  14:53:00       -2.296        2.387       -4.262       52.318       36.335       31.257     2737.150     1320.196      976.984        0.253        0.252        3.312       24.005       52.522      338.613       11.383      869.209
01/20/2022  14:54:00        5.955       32.607       -1.617       36.844       36.425       26.211     1357.451     1326.748      687.034        0.224        0.169       33.146       20.081        0.367      338.581       11.331      869.191
01/20/2022  14:55:00      -29.863      -26.255      -21.748       34.295       37.482       20.916     1176.171     1404.928      437.491        0.254        0.151       39.764        9.577        0.058      338.677       11.492      869.176
01/20/2022  14:56:00      -26.215      -32.598      -14.696       47.277       36.326       33.366     2235.145     1319.605     1113.319        0.332        0.233       41.832       25.271        0.365      338.293       10.847      869.170
01/20/2022  14:57:00       10.683        4.858        1.808       30.414       21.844       16.688      925.015      477.155      278.476        0.091        0.084       11.736       13.281        1.281      338.419       11.057      869.163
01/20/2022  14:58:00       18.125      -11.863      -13.212       29.228       40.420       15.419      854.247     1633.753      237.754        0.168        0.136       21.662       14.189        0.429      338.268       10.806      869.152
01/20/2022  14:59:00       38.766        5.898      -17.580       31.861       26.796       18.161     1015.138      718.033      329.828        0.195        0.103       39.212       15.870        0.164      338.055       10.445      869.141
01/20/2022  15:00:00        2.375        3.749      -17.000       20.212        9.873       19.153      408.518       97.470      366.840        0.059        0.044        4.438       11.999        7.311      338.230       10.739      869.129
01/20/2022  15:01:00      -33.791       37.113       -5.928       52.754       34.104       25.324     2783.017     1163.102      641.292        0.357        0.229       50.191       28.598        0.325      338.337       10.920      869.125
01/20/2022  15:02:00      -72.568       27.783       -9.873       41.837       22.036       19.618     1750.326      485.582      384.859        0.438        0.131       77.704       13.061        0.028      338.151       10.606      869.119
01/20/2022  15:03:00      -23.780       19.388        3.502       31.287       31.907       19.622      978.853     1018.029      385.030        0.167        0.119       30.682       18.817        0.376      338.759       11.630      869.106
01/20/2022  15:04:00       13.822       79.812       -6.358       35.766       36.509       18.583     1279.217     1332.909      345.342        0.478        0.148       81.000       12.771        0.025      338.262       10.795      869.098
01/20/2022  15:05:00      -51.764        0.428      -19.006       53.229       36.578       18.946     2833.354     1337.922      358.945        0.378        0.227       51.766       19.457        0.141      338.502       11.197      869.081
01/20/2022  15:06:00      -28.264        4.875        7.670       41.466       39.105       26.439     1719.395     1529.212      699.041        0.241        0.197       28.681       19.477        0.461      338.853       11.787      869.086
01/20/2022  15:07:00      -89.379      -22.347      -13.787       52.099       31.727       25.356     2714.345     1006.582      642.934        0.652        0.218       92.131       24.495        0.071      338.357       10.954      869.082
01/20/2022  15:08:00      -76.652       17.816        2.939       42.997       39.584       25.558     1848.761     1566.865      653.207        0.513        0.203       78.695       25.256        0.103      338.352       10.944      869.080
01/20/2022  15:09:00      -90.619       42.943       -6.118       27.517       21.889       17.052      757.206      479.115      290.777        0.581        0.076      100.279       11.634        0.013      338.260       10.791      869.092
01/20/2022  15:10:00      -29.201      -21.976      -12.858       29.136       36.363       16.892      848.881     1322.304      285.330        0.198        0.123       36.547       13.665        0.140      338.411       11.044      869.111
01/20/2022  15:11:00       51.025       23.645      -13.280       18.693       22.069       16.349      349.424      487.023      267.292        0.222        0.055       56.237       11.139        0.039      338.209       10.706      869.116
01/20/2022  15:12:00       35.880       -3.290      -13.102       17.782       20.025       10.988      316.200      400.983      120.728        0.115        0.042       36.030        4.151        0.013      338.292       10.844      869.108
01/20/2022  15:13:00       39.874      -11.961      -14.105       22.973       26.173       14.070      527.760      685.005      197.967        0.167        0.071       41.629        7.868        0.036      338.216       10.718      869.097
01/20/2022  15:14:00       71.756       50.674       -3.945       37.669       44.672       21.972     1418.956     1995.597      482.773        0.581        0.195       87.845       17.266        0.039      338.040       10.423      869.086
01/20/2022  15:15:00       94.689       -3.589      -14.510       80.178       55.736       30.028     6428.537     3106.547      901.710        0.981        0.522       94.757       33.569        0.126      338.128       10.568      869.073
01/20/2022  15:16:00       81.150      -33.335      -15.440       77.572       53.897       30.769     6017.410     2904.856      946.747        0.890        0.493       87.729       31.413        0.128      338.259       10.789      869.031
01/20/2022  15:17:00      -24.647      -27.904        0.521       33.752       33.337       22.618     1139.177     1111.339      511.565        0.207        0.138       37.230       14.950        0.161      338.483       11.166      869.025
01/20/2022  15:18:00       40.880      -69.857      -22.680       71.628       41.108       23.176     5130.509     1689.891      537.140        0.721        0.368       80.939       28.096        0.120      338.381       10.993      869.025
01/20/2022  15:19:00       19.733      -43.990       -8.945       45.347       31.843       24.059     2056.345     1013.988      578.823        0.303        0.182       48.214       11.934        0.061      338.347       10.937      869.021
01/20/2022  15:20:00      -12.963       -5.581       -5.312       25.439       37.993       26.790      647.158     1443.466      717.718        0.152        0.140       14.113       26.199        3.446      338.689       11.511      869.020
01/20/2022  15:21:00        9.607        7.021      -11.689       17.604       23.406       23.323      309.901      547.826      543.963        0.084        0.070       11.899       11.685        0.964      338.472       11.146      869.017
01/20/2022  15:22:00       50.798      -32.891      -12.173       37.227       26.027       16.822     1385.847      677.380      282.988        0.308        0.117       60.517       14.822        0.060      338.342       10.929      869.008
01/20/2022  15:23:00       51.709        7.036      -13.884       22.935       30.373       12.181      526.006      922.498      148.365        0.226        0.080       52.186        9.385        0.032      338.147       10.600      869.008
01/20/2022  15:24:00       10.355       -7.804       -8.243       18.672       21.455       14.108      348.632      460.334      199.025        0.062        0.050       12.966        9.763        0.567      338.403       11.030      869.012
01/20/2022  15:25:00       -1.201      -24.135        0.308       26.047       17.425       19.738      678.442      303.622      389.599        0.098        0.069       24.165       14.667        0.368      338.624       11.402      868.999
01/20/2022  15:26:00      -13.321      -14.435       -2.839       28.608       21.968       23.979      818.431      482.590      575.004        0.113        0.094       19.642       17.109        0.759      338.725       11.571      868.975
01/20/2022  15:27:00        0.985      -19.353      -15.483       19.139       27.271       18.817      366.309      743.726      354.071        0.104        0.073       19.378       17.423        0.808      338.787       11.676      868.969
01/20/2022  15:28:00        9.189        1.841       -2.476       39.608       34.375       25.250     1568.822     1181.661      637.539        0.174        0.169        9.371       22.153        5.588      338.516       11.220      868.955
01/20/2022  15:29:00       20.146      -24.137       -5.967       38.639       32.108       28.161     1492.969     1030.941      793.043        0.217        0.166       31.440       20.265        0.415      338.507       11.206      868.944
01/20/2022  15:30:00       51.364       -1.206      -19.410       41.011       49.125       25.568     1681.895     2413.245      653.747        0.388        0.237       51.378       22.955        0.200      338.371       10.978      868.928
01/20/2022  15:31:00       15.481      -12.582       -4.230       25.160       37.071       20.334      633.025     1374.226      413.484        0.142        0.121       19.949       16.951        0.722      338.443       11.098      868.924
01/20/2022  15:32:00       20.102       -4.937      -16.173       44.079       31.912       19.339     1942.991     1018.404      374.010        0.201        0.167       20.700       18.352        0.786      338.384       10.999      868.924
01/20/2022  15:33:00       54.858       -9.784       -7.978       43.986       18.964       18.577     1934.805      359.635      345.111        0.290        0.132       55.724       10.059        0.033      338.307       10.871      868.922
01/20/2022  15:34:00       85.467       26.180       -9.032       29.369       17.343       12.699      862.539      300.776      161.277        0.470        0.066       89.387       11.029        0.015      338.129       10.572      868.916
01/20/2022  15:35:00       31.087      -17.964       -9.920       27.013       15.935       17.102      729.718      253.928      292.472        0.133        0.064       35.904       11.115        0.096      338.298       10.854      868.905
01/20/2022  15:36:00       99.665       15.313       -7.194       41.173       45.023       21.119     1695.208     2027.085      446.029        0.719        0.208      100.835       12.605        0.016      338.200       10.688      868.881
01/20/2022  15:37:00       80.890        3.673      -15.860       38.203       36.588       19.025     1459.468     1338.655      361.956        0.498        0.158       80.974       12.061        0.022      338.181       10.657      868.871
01/20/2022  15:38:00       79.827       37.551      -12.573       23.219       27.954       15.816      539.100      781.449      250.151        0.476        0.079       88.218       14.372        0.027      338.110       10.540      868.857
01/20/2022  15:39:00       50.255       15.595       -3.137       37.198       29.576       23.074     1383.726      874.739      532.412        0.278        0.140       52.619       19.487        0.137      338.239       10.755      868.857
01/20/2022  15:40:00       72.293       11.261       -0.122       40.368       29.061       22.438     1629.573      844.526      503.443        0.416        0.149       73.165       21.168        0.084      338.217       10.717      868.856
01/20/2022  15:41:00       61.020       12.814      -16.738       40.989       26.543       16.878     1680.106      704.550      284.859        0.342        0.133       62.351       10.897        0.031      338.252       10.775      868.857
01/20/2022  15:42:00       94.608       24.983      -13.577       59.272       33.053       34.056     3513.216     1092.480     1159.814        0.776        0.288       97.851       33.287        0.116      338.281       10.825      868.858
01/20/2022  15:43:00       69.979       13.350       -8.115       37.604       51.773       31.394     1414.038     2680.406      985.584        0.511        0.254       71.241       16.272        0.052      338.316       10.886      868.867
01/20/2022  15:44:00       57.347       64.248      -16.423       31.979       28.079       18.044     1022.652      788.450      325.584        0.491        0.107       86.119        8.567        0.010      338.219       10.720      868.887
01/20/2022  15:45:00       73.612       16.676      -25.964       45.407       44.269       20.377     2061.836     1959.783      415.215        0.540        0.222       75.477       18.041        0.057      338.249       10.773      868.899
01/20/2022  15:46:00       47.789       35.958       -2.650       47.052       27.621       24.671     2213.856      762.922      608.651        0.358        0.179       59.805       14.244        0.057      338.256       10.783      868.911
01/20/2022  15:47:00       77.408       51.797      -12.426       31.319       27.076       17.909      980.856      733.116      320.720        0.543        0.102       93.139        9.086        0.010      338.200       10.688      868.924
01/20/2022  15:48:00       48.420       29.265      -11.603       25.556       10.839        8.467      653.118      117.476       71.698        0.209        0.042       56.577       10.645        0.035      338.166       10.633      868.938
01/20/2022  15:49:00       61.346       28.403      -13.678       13.675       16.744       16.276      187.009      280.378      264.903        0.274        0.037       67.602        6.011        0.008      338.241       10.757      868.950
01/20/2022  15:50:00        8.234       31.597       -7.068       19.832       21.214       10.945      393.322      450.033      119.787        0.104        0.048       32.653        6.234        0.036      338.358       10.954      868.962
01/20/2022  15:51:00        0.274       61.454       -6.194       25.549       19.769       13.133      652.729      390.824      172.468        0.252        0.061       61.454        7.394        0.014      338.470       11.142      868.968
01/20/2022  15:52:00       46.027      115.866      -20.275       25.166       33.502       25.625      633.341     1122.417      656.645        0.918        0.121      124.674       21.890        0.031      338.315       10.885      868.978
01/20/2022  15:53:00       27.685      102.236      -17.966       30.009       29.325       20.318      900.567      859.980      412.840        0.686        0.109      105.919       10.252        0.009      338.313       10.881      868.976
01/20/2022  15:54:00       46.012       94.266       -5.727       33.023       36.021       19.120     1090.496     1297.547      365.575        0.689        0.138      104.897       17.525        0.028      338.319       10.889      868.970
01/20/2022  15:55:00       77.462       82.581      -14.106       32.091       30.106       27.867     1029.843      906.400      776.549        0.787        0.136      113.225       18.922        0.028      338.279       10.821      868.954
01/20/2022  15:56:00       65.487       55.566      -20.921       30.986       16.851       13.322      960.116      283.948      177.477        0.462        0.071       85.885        8.300        0.009      338.268       10.804      868.937
01/20/2022  15:57:00       24.953       11.818      -15.367       15.185       17.147       10.189      230.596      294.004      103.814        0.081        0.031       27.610        7.494        0.074      338.298       10.856      868.913
01/20/2022  15:58:00       37.622      -33.224      -11.641       25.103       22.600       20.805      630.137      510.759      432.855        0.211        0.079       50.193       10.845        0.047      338.408       11.039      868.897
01/20/2022  15:59:00       82.367       33.767       -3.299       48.326       28.234       21.626     2335.376      797.167      467.705        0.577        0.180       89.020       23.369        0.069      338.281       10.827      868.920
01/20/2022  16:00:00       99.252       40.448       -9.158       30.590       26.276       21.024      935.764      690.450      442.024        0.682        0.103      107.177       14.907        0.019      338.167       10.634      868.919
01/20/2022  16:01:00       70.621       31.500      -13.233       25.437       23.080       11.023      647.063      532.683      121.501        0.373        0.065       77.328        4.677        0.004      338.217       10.716      868.907
01/20/2022  16:02:00       38.879       -6.811       -5.736       31.199       20.001       15.027      973.377      400.030      225.811        0.159        0.080       39.471        8.296        0.044      338.320       10.892      868.887
01/20/2022  16:03:00       40.940       32.735       -3.476       34.539       33.096       22.992     1192.921     1095.374      528.618        0.279        0.141       52.419       12.531        0.057      338.297       10.854      868.884
01/20/2022  16:04:00       63.234       38.638      -20.831       34.345       38.502       20.818     1179.568     1482.391      433.408        0.451        0.155       74.104       15.829        0.046      338.268       10.806      868.890
01/20/2022  16:05:00       49.359       10.928      -11.281       27.039       18.645       13.888      731.101      347.644      192.884        0.198        0.064       50.554       10.088        0.040      338.229       10.738      868.892
01/20/2022  16:06:00       14.514        3.354      -11.640       17.111        9.994        9.303      292.799       99.873       86.541        0.042        0.024       14.896        5.128        0.118      338.316       10.883      868.881
01/20/2022  16:07:00       10.038       -8.072       -8.153       16.373       22.715       15.164      268.073      515.952      229.932        0.062        0.051       12.880        8.625        0.448      338.461       11.129      868.877
01/20/2022  16:08:00        2.292        8.961       -8.507       12.718       17.800        9.416      161.751      316.843       88.659        0.036        0.028        9.250        4.723        0.261      338.446       11.104      868.909
01/20/2022  16:09:00        9.498       64.644      -15.046       20.889       20.750       15.556      436.340      430.564      241.997        0.280        0.055       65.338        7.236        0.012      338.477       11.155      868.942
01/20/2022  16:10:00       23.056       59.461      -10.766       17.530       19.899       16.319      307.317      395.985      266.321        0.258        0.048       63.775        3.486        0.003      338.383       10.998      868.962
01/20/2022  16:11:00       32.384       21.050       -7.370       19.488       14.663       11.386      379.797      214.991      129.630        0.114        0.036       38.624        9.584        0.062      338.216       10.718      868.987
01/20/2022  16:12:00       21.480       18.343       -1.446       20.862       15.128        9.488      435.229      228.849       90.024        0.078        0.038       28.247        8.520        0.091      338.355       10.949      869.012
01/20/2022  16:13:00       34.470       31.805       -9.825       16.442       14.635       11.544      270.344      214.175      133.253        0.146        0.031       46.901        9.530        0.041      338.292       10.848      869.026
01/20/2022  16:14:00       35.769        4.814       -7.163       18.788       16.273       11.511      352.980      264.800      132.504        0.105        0.038       36.092        8.220        0.052      338.288       10.838      869.008
01/20/2022  16:15:00       38.506       12.655       -7.478       16.443        9.234        7.637      270.373       85.267       58.323        0.106        0.021       40.532        4.903        0.015      338.271       10.808      868.984
01/20/2022  16:16:00       61.942       35.686       -3.925       14.096       13.162        7.367      198.703      173.227       54.274        0.278        0.021       71.486        4.281        0.004      338.275       10.815      868.964
01/20/2022  16:17:00       46.050       33.549       -8.434       22.079       14.133       11.314      487.494      199.750      128.004        0.207        0.041       56.975        9.935        0.030      338.274       10.814      868.963
01/20/2022  16:18:00       18.710        0.872      -10.937       17.157       13.361        6.626      294.372      178.506       43.910        0.049        0.026       18.730        4.943        0.070      338.389       11.009      868.962
01/20/2022  16:19:00       24.773      -14.438       -6.194       29.082       20.790       13.104      845.754      432.240      171.713        0.115        0.072       28.673        9.374        0.107      338.374       10.982      868.961
01/20/2022  16:20:00       18.374       -1.405      -22.761       22.480       21.744       18.699      505.354      472.814      349.653        0.109        0.066       18.428       11.279        0.375      338.329       10.907      868.957
01/20/2022  16:21:00       26.537        5.203        1.323       33.686       32.764       28.394     1134.728     1073.491      806.224        0.187        0.151       27.043       25.440        0.885      338.450       11.108      868.958
01/20/2022  16:22:00       32.152       10.859      -24.623       27.290       39.719       18.084      744.744     1577.573      327.033        0.220        0.132       33.936       11.760        0.120      338.343       10.932      868.960
01/20/2022  16:23:00       27.531       -6.613       -9.797       18.628       15.842       13.885      347.011      250.964      192.797        0.084        0.040       28.314        5.268        0.035      338.332       10.913      868.956
01/20/2022  16:24:00       48.056      -31.567       -6.854       43.490       24.952       19.219     1891.414      622.623      369.374        0.312        0.144       57.497       17.933        0.097      338.371       10.978      868.946
01/20/2022  16:25:00       38.691      -26.068       -8.873       24.211       15.176       15.980      586.171      230.302      255.366        0.166        0.054       46.654       12.434        0.071      338.393       11.014      868.931
01/20/2022  16:26:00       34.284       -0.542       -5.981       20.131       19.457       14.234      405.275      378.566      202.608        0.110        0.049       34.288        9.720        0.080      338.273       10.814      868.923
01/20/2022  16:27:00       16.499      -12.556       -7.306       16.287       20.299       16.837      265.275      412.052      283.473        0.072        0.048       20.733       11.990        0.334      338.446       11.102      868.898
01/20/2022  16:28:00       37.267      -28.227      -14.108       30.842       21.362       21.824      951.227      456.321      476.267        0.213        0.094       46.750       16.228        0.120      338.361       10.960      868.885
01/20/2022  16:29:00       31.211       -8.628      -17.361       26.423       24.402       17.527      698.149      595.468      307.191        0.148        0.080       32.381       10.338        0.102      338.334       10.916      868.880
01/20/2022  16:30:00       44.742      -28.703      -14.099       33.529       22.465       17.712     1124.177      504.678      313.698        0.248        0.097       53.158       15.695        0.087      338.373       10.980      868.883
01/20/2022  16:31:00       55.574      -26.169       -8.889       26.283       16.719       12.572      690.799      279.511      158.049        0.249        0.056       61.427       12.226        0.040      338.322       10.897      868.887
01/20/2022  16:32:00       24.063      -14.223       -4.342       26.430       17.089       18.300      698.554      292.029      334.889        0.106        0.066       27.952       15.473        0.306      338.386       11.003      868.887
01/20/2022  16:33:00       34.786       -4.211      -18.040       27.656       25.728       18.338      764.865      661.944      336.269        0.166        0.088       35.040       17.026        0.236      338.306       10.869      868.878
01/20/2022  16:34:00       -0.870        0.894      -13.445       12.737       18.100       24.267      162.226      327.611      588.877        0.063        0.054        1.247       14.173      129.088      338.477       11.155      868.857
01/20/2022  16:35:00       -3.553        8.698      -12.282       14.689       26.412       22.444      215.774      697.603      503.732        0.083        0.071        9.396       19.814        4.447      338.444       11.099      868.848
01/20/2022  16:36:00       19.225       -3.155       -3.846       19.917       13.727       14.505      396.681      188.442      210.382        0.059        0.040       19.482       10.304        0.280      338.372       10.980      868.842
01/20/2022  16:37:00       18.761      -17.137      -13.330       22.957       11.984       16.245      527.020      143.609      263.892        0.088        0.047       25.410       15.189        0.357      338.322       10.896      868.846
01/20/2022  16:38:00        9.769       -0.246       -6.260       18.989       25.638       14.888      360.570      657.301      221.663        0.069        0.062        9.773       12.747        1.701      338.332       10.912      868.853
01/20/2022  16:39:00       31.591      -16.033      -13.827       25.639       26.924       16.436      657.378      724.887      270.139        0.155        0.083       35.427       14.124        0.159      338.271       10.811      868.869
01/20/2022  16:40:00       50.006      -22.078       -9.646       22.286       15.201       13.454      496.677      231.071      180.998        0.199        0.045       54.663        9.669        0.031      338.275       10.815      868.879
01/20/2022  16:41:00       62.396      -13.983      -16.116       24.263       18.611       15.734      588.715      346.355      247.564        0.277        0.059       63.944       12.071        0.036      338.241       10.760      868.894
01/20/2022  16:42:00       41.654      -15.788      -14.844       32.020       21.645       17.594     1025.253      468.513      309.535        0.200        0.090       44.546       13.244        0.088      338.266       10.801      868.894
01/20/2022  16:43:00       30.764      -11.045       -8.135       30.048       28.589       22.776      902.896      817.324      518.747        0.169        0.112       32.687       16.866        0.266      338.242       10.758      868.884
01/20/2022  16:44:00       15.244       -9.027       -9.836       28.503       25.895       18.585      812.441      670.545      345.386        0.112        0.091       17.716       15.464        0.762      338.187       10.668      868.872
01/20/2022  16:45:00       21.494        8.408      -25.188       20.736       31.505       19.672      429.964      992.589      386.973        0.149        0.090       23.080        8.175        0.125      338.198       10.684      868.855
01/20/2022  16:46:00        9.720        4.551      -11.333       32.087       24.019       27.941     1029.586      576.915      780.680        0.131        0.119       10.733       21.537        4.027      338.198       10.683      868.839
01/20/2022  16:47:00       16.921       -2.515      -14.410       29.801       36.293       29.104      888.077     1317.178      847.025        0.178        0.153       17.107       17.543        1.052      338.252       10.777      868.829
01/20/2022  16:48:00       44.851        0.618      -17.806       25.504       35.823       24.303      650.472     1283.312      590.617        0.243        0.126       44.855       15.375        0.117      338.316       10.886      868.825
01/20/2022  16:49:00       52.893       -8.037      -14.905       27.281       29.339       23.915      744.232      860.780      571.944        0.263        0.109       53.500       18.530        0.120      338.286       10.833      868.835
01/20/2022  16:50:00       43.835       -5.532      -16.515       39.299       24.638       21.398     1544.410      607.010      457.869        0.242        0.130       44.183       18.329        0.172      338.195       10.681      868.840
01/20/2022  16:51:00       27.813      -12.630      -15.999       24.258       23.006       17.685      588.430      529.267      312.774        0.131        0.072       30.547        9.936        0.106      338.179       10.655      868.848
01/20/2022  16:52:00        6.906      -13.314      -10.853       17.943       17.359       13.933      321.946      301.333      194.135        0.058        0.041       14.998        9.808        0.428      338.197       10.685      868.869
01/20/2022  16:53:00       34.048      -11.119      -11.478       25.552       21.384       15.438      652.900      457.283      238.343        0.138        0.067       35.818       15.120        0.178      338.169       10.637      868.877
01/20/2022  16:54:00       44.607      -15.566       -3.439       20.380       11.108       13.488      415.324      123.396      181.938        0.148        0.036       47.245       12.481        0.070      338.214       10.713      868.885
01/20/2022  16:55:00       14.231       -5.248       -5.783       16.893       13.802        9.867      285.377      190.509       97.349        0.042        0.029       15.168        8.299        0.299      338.227       10.736      868.889
01/20/2022  16:56:00       27.976       -7.929       -5.582       25.217       19.197       13.932      635.895      368.537      194.093        0.104        0.060       29.078       10.562        0.132      338.173       10.644      868.898
01/20/2022  16:57:00        9.926       -0.613       -2.246       14.938       15.394       13.274      223.155      236.962      176.206        0.037        0.032        9.945       10.211        1.054      338.107       10.534      868.903
01/20/2022  16:58:00       11.092       -5.393       -2.839       12.614        7.214        6.481      159.107       52.041       41.997        0.021        0.013       12.334        2.839        0.053      338.140       10.589      868.914
01/20/2022  16:59:00      -27.038       16.612       -8.119       12.193       15.484        8.739      148.662      239.745       76.369        0.077        0.023       31.734        3.962        0.016      338.182       10.659      868.925
01/20/2022  17:00:00      -18.513       18.680      -16.890       13.223       13.896        8.155      174.854      193.102       66.510        0.071        0.022       26.299        5.664        0.046      338.002       10.356      868.929
01/20/2022  17:01:00      -29.169        1.027      -21.831       26.726       25.281       18.501      714.277      639.142      342.270        0.151        0.085       29.187       13.017        0.199      337.845       10.093      868.941
01/20/2022  17:02:00      -13.068       -4.749      -19.483       46.029       29.871       23.982     2118.672      892.292      575.150        0.208        0.179       13.904       23.642        2.891      337.620        9.718      868.938
01/20/2022  17:03:00        0.195       -4.908      -14.164       26.229       30.523       26.043      687.956      931.630      678.259        0.126        0.115        4.912       12.903        6.900      337.637        9.744      868.934
01/20/2022  17:04:00      -41.520       -9.112      -16.024       42.341       34.289       25.871     1792.790     1175.732      669.289        0.285        0.182       42.508       14.683        0.119      337.650        9.768      868.933
01/20/2022  17:05:00      -53.353       -8.189      -16.420       44.918       35.149       23.913     2017.620     1235.417      571.848        0.350        0.191       53.978       16.430        0.093      337.629        9.733      868.918
01/20/2022  17:06:00       -0.718       -7.583      -15.912       15.662       26.354       14.315      245.311      694.555      204.922        0.073        0.057        7.617        8.405        1.218      337.574        9.640      868.901
01/20/2022  17:07:00      -27.912       -7.147       -9.337       44.035       28.771       20.875     1939.049      827.777      435.786        0.206        0.160       28.813       16.917        0.345      337.544        9.590      868.885
01/20/2022  17:08:00      -55.885       10.532       -2.202       52.240       22.183       20.064     2729.051      492.101      402.581        0.343        0.181       56.869       17.920        0.099      337.449        9.430      868.870
01/20/2022  17:09:00      -56.245        8.083       -3.049       45.936       25.536       27.059     2110.132      652.074      732.211        0.337        0.175       56.822       27.944        0.242      337.464        9.455      868.858
01/20/2022  17:10:00      -22.104       -6.933       -9.700       26.778       24.927       24.130      717.056      621.351      582.243        0.128        0.096       23.166       12.045        0.270      337.413        9.370      868.848
01/20/2022  17:11:00      -50.353       17.595       -5.287       43.631       18.327       21.414     1903.664      335.867      458.551        0.279        0.135       53.339       23.704        0.197      337.336        9.243      868.850
01/20/2022  17:12:00     -125.860       49.426      -17.924       31.405       17.228       20.934      986.287      296.790      438.227        1.016        0.086      135.218       16.436        0.015      337.317        9.211      868.846
01/20/2022  17:13:00     -119.124       43.081      -11.032       21.924       23.083       17.069      480.663      532.825      291.365        0.874        0.065      126.674        8.357        0.004      337.245        9.090      868.837
01/20/2022  17:14:00      -52.831       10.934      -11.716       39.828       28.498       18.484     1586.302      812.140      341.641        0.289        0.137       53.951       21.319        0.156      337.227        9.060      868.834
01/20/2022  17:15:00      -50.209       11.139      -13.017       32.465       20.312       22.047     1053.972      412.568      486.067        0.238        0.098       51.430       13.059        0.064      337.237        9.076      868.825
01/20/2022  17:16:00      -55.163      -10.857      -19.196       34.507       16.146       24.093     1190.737      260.705      580.470        0.278        0.102       56.221       21.608        0.148      337.149        8.927      868.823
01/20/2022  17:17:00      -23.192        8.368       -5.389       21.223       22.844       17.011      450.409      521.855      289.359        0.095        0.063       24.656       13.021        0.279      337.232        9.068      868.817
01/20/2022  17:18:00      -47.020        7.000       -6.542       31.691       34.664       23.476     1004.310     1201.558      551.133        0.253        0.138       47.538       19.614        0.170      337.127        8.891      868.813
01/20/2022  17:19:00      -33.047       -1.398       -8.484       37.005       27.008       22.660     1369.373      729.430      513.474        0.189        0.131       33.077       21.307        0.415      337.171        8.964      868.813
01/20/2022  17:20:00      -92.057       22.575      -19.385       39.372       31.101       23.099     1550.133      967.299      533.543        0.620        0.153       94.784       21.516        0.052      337.122        8.881      868.815
01/20/2022  17:21:00      -38.766       11.900      -10.314       48.854       35.830       21.681     2386.698     1283.818      470.074        0.294        0.207       40.552       19.051        0.221      337.107        8.858      868.809
01/20/2022  17:22:00      -33.142        7.686      -16.707       60.380       35.156       25.233     3645.710     1235.975      636.690        0.348        0.276       34.021       29.978        0.776      337.089        8.827      868.813
01/20/2022  17:23:00     -129.311       35.197      -24.793       36.419       34.300       26.433     1326.346     1176.490      698.685        1.089        0.160      134.015       20.180        0.023      336.956        8.606      868.827
01/20/2022  17:24:00     -147.075       22.048      -10.858       36.715       41.475       26.522     1348.024     1720.211      703.394        1.300        0.189      148.719       18.034        0.015      336.907        8.522      868.844
01/20/2022  17:25:00      -69.637        7.742       -7.562       57.008       31.601       29.080     3249.968      998.594      845.650        0.503        0.255       70.066       32.069        0.209      336.901        8.513      868.861
01/20/2022  17:26:00      -50.776        5.892      -22.422       67.533       30.594       24.734     4560.769      935.986      611.795        0.461        0.305       51.117       30.244        0.350      336.926        8.556      868.873
01/20/2022  17:27:00     -100.627        1.186      -14.107       52.317       32.305       27.926     2737.019     1043.622      779.870        0.744        0.228      100.634       21.412        0.045      336.984        8.651      868.889
01/20/2022  17:28:00      -21.328      -11.857      -11.155       34.040       43.235       25.718     1158.747     1869.291      661.391        0.220        0.184       24.402       22.857        0.877      336.857        8.439      868.907
01/20/2022  17:29:00      -29.063        5.724        3.381       67.556       38.673       27.370     4563.793     1495.579      749.113        0.385        0.340       29.621       33.484        1.278      336.832        8.399      868.932
01/20/2022  17:30:00        4.836      -22.365      -11.904       19.070       26.111       25.144      363.684      681.773      632.240        0.117        0.084       22.882       17.703        0.599      336.767        8.290      868.945
01/20/2022  17:31:00      -16.884        0.390      -22.643       49.294       39.079       24.724     2429.888     1527.207      611.281        0.268        0.228       16.889       12.465        0.545      336.728        8.225      868.932
01/20/2022  17:32:00      -40.976        3.637      -28.321       57.008       34.726       26.400     3249.894     1205.896      696.962        0.382        0.258       41.137       15.719        0.146      336.710        8.195      868.915
01/20/2022  17:33:00      -13.586       -7.827      -17.452       27.805       22.521       23.500      773.095      507.187      552.260        0.119        0.092       15.679       14.714        0.881      336.668        8.125      868.895
01/20/2022  17:34:00      -89.312       11.373      -17.302       64.046       41.786       27.471     4101.934     1746.057      754.638        0.750        0.330       90.033       17.067        0.036      336.693        8.167      868.901
01/20/2022  17:35:00      -24.906      -20.392      -15.445       39.512       44.374       31.411     1561.170     1969.069      986.680        0.289        0.226       32.189       24.027        0.557      336.742        8.249      868.908
01/20/2022  17:36:00       -4.754      -12.729      -18.062       27.742       28.146       16.906      769.602      792.209      285.812        0.118        0.092       13.588       17.247        1.611      336.723        8.216      868.926
01/20/2022  17:37:00       -2.132        5.803      -14.627       31.111       39.202       19.275      967.904     1536.788      371.520        0.156        0.144        6.183        8.293        1.799      336.689        8.161      868.953
01/20/2022  17:38:00       23.427        6.541       -3.547       28.479       33.382       29.606      811.066     1114.378      876.533        0.170        0.140       24.323       15.872        0.426      336.562        7.949      868.975
01/20/2022  17:39:00       26.078       -2.482       -6.204       24.107       19.820       17.019      581.136      392.842      289.650        0.099        0.063       26.196       14.432        0.303      336.560        7.945      868.997
01/20/2022  17:40:00      -20.933        6.242      -22.910       39.119       31.418       25.538     1530.312      987.073      652.174        0.209        0.158       21.844       12.181        0.311      336.557        7.939      869.007
01/20/2022  17:41:00        8.728      -18.777      -23.842       17.632       19.185       19.763      310.905      368.074      390.564        0.103        0.053       20.706       10.537        0.259      336.558        7.942      869.007
01/20/2022  17:42:00        0.022        5.835       -1.158       33.772       37.278       26.474     1140.521     1389.640      700.886        0.163        0.162        5.835       22.334       14.650      336.545        7.919      869.008
01/20/2022  17:43:00      -92.015       19.411      -10.903       46.360       28.373       20.417     2149.254      805.034      416.834        0.617        0.169       94.040       18.335        0.038      336.504        7.850      869.010
01/20/2022  17:44:00      -25.111        5.436      -14.047       32.835       27.039       21.723     1078.147      731.109      471.902        0.157        0.114       25.693       20.521        0.638      336.593        8.002      869.015
01/20/2022  17:45:00      -36.902        4.051      -18.257       34.101       51.736       21.893     1162.906     2676.650      479.290        0.301        0.216       37.124       18.366        0.245      336.464        7.783      869.019
01/20/2022  17:46:00      -67.084      -36.969      -27.953       36.065       34.007       28.035     1300.719     1156.483      785.951        0.495        0.162       76.596       18.432        0.058      336.425        7.718      869.018
01/20/2022  17:47:00      -28.450       11.365      -11.863       54.206       29.099       22.349     2938.318      846.753      499.481        0.268        0.214       30.636       21.187        0.478      336.486        7.821      869.019
01/20/2022  17:48:00      -26.239      -13.382        1.214       46.719       35.406       25.201     2182.693     1253.596      635.067        0.247        0.204       29.454       24.210        0.676      336.491        7.828      869.024
01/20/2022  17:49:00      -70.015       -8.601       -3.243       57.743       29.105       21.156     3334.301      847.083      447.570        0.481        0.231       70.541       19.793        0.079      336.490        7.827      869.035
01/20/2022  17:50:00      -65.205       10.134      -10.654       58.710       32.551       26.599     3446.885     1059.576      707.491        0.484        0.261       65.988       23.696        0.129      336.520        7.877      869.046
01/20/2022  17:51:00      -55.229       16.537       -6.807       30.761       39.752       21.271      946.262     1580.260      452.451        0.317        0.149       57.651       15.630        0.073      336.514        7.867      869.060
01/20/2022  17:52:00      -71.923       15.132      -23.654       45.060       35.206       20.904     2030.374     1239.471      436.977        0.483        0.185       73.498       23.840        0.105      336.472        7.797      869.066
01/20/2022  17:53:00      -36.105        8.461      -10.581       38.975       25.697       24.590     1519.044      660.348      604.687        0.214        0.139       37.083       23.948        0.417      336.500        7.845      869.058
01/20/2022  17:54:00      -27.182       23.709       -2.515       34.271       28.112       20.329     1174.524      790.284      413.256        0.184        0.119       36.069       16.321        0.205      336.440        7.743      869.059
01/20/2022  17:55:00      -59.890       27.384      -17.789       40.362       27.881       22.996     1629.083      777.334      528.819        0.379        0.147       65.853       13.927        0.045      336.406        7.687      869.041
01/20/2022  17:56:00     -105.074       31.294       -9.942       63.776       44.373       26.225     4067.385     1969.005      687.727        0.942        0.336      109.635       10.087        0.008      336.445        7.751      869.037
01/20/2022  17:57:00      -38.221      -12.982       -4.949       56.045       40.272       28.546     3141.005     1621.821      814.864        0.361        0.279       40.366       19.667        0.237      336.454        7.766      869.023
01/20/2022  17:58:00     -132.882       57.595       -9.070       45.478       27.693       26.307     2068.240      766.913      692.058        1.229        0.176      144.827       23.013        0.025      336.426        7.720      869.016
01/20/2022  17:59:00     -105.752       45.924      -13.885       43.439       43.638       19.317     1886.957     1904.303      373.149        0.882        0.208      115.293       18.701        0.026      336.413        7.697      869.025
01/20/2022  18:00:00     -114.684       17.965      -10.145       50.732       51.651       26.362     2573.774     2667.872      694.953        0.976        0.297      116.082       20.346        0.031      336.396        7.670      869.046
01/20/2022  18:01:00     -103.284       21.001       -1.326       59.985       35.241       31.250     3598.154     1241.913      976.543        0.846        0.291      105.397       24.804        0.055      336.372        7.629      869.069
01/20/2022  18:02:00     -143.668       40.086       -3.719       61.209       37.666       27.128     3746.515     1418.714      735.910        1.408        0.295      149.156       22.876        0.024      336.270        7.458      869.083
01/20/2022  18:03:00      -67.640        2.187      -21.169       49.304       38.366       25.698     2430.847     1471.931      660.365        0.479        0.228       67.676       20.322        0.090      336.269        7.459      869.093
01/20/2022  18:04:00      -87.843       29.314      -22.471       49.768       28.484       25.930     2476.812      811.312      672.341        0.652        0.198       92.605       15.071        0.026      336.343        7.581      869.103
01/20/2022  18:05:00     -134.773       33.431      -23.505       33.364       26.908       19.775     1113.135      724.039      391.065        1.103        0.111      138.857       16.694        0.014      336.318        7.539      869.110
01/20/2022  18:06:00     -164.010       69.048      -22.301       26.212       33.510       22.792      687.076     1122.928      519.471        1.725        0.116      177.952       14.424        0.007      336.254        7.432      869.122
01/20/2022  18:07:00      -94.829       37.464      -12.286       51.232       43.803       26.502     2624.682     1918.710      702.337        0.790        0.262      101.961       26.420        0.067      336.298        7.507      869.128
01/20/2022  18:08:00     -107.992       36.809      -20.394       40.309       31.642       22.660     1624.825     1001.220      513.496        0.829        0.157      114.093       15.208        0.018      336.388        7.656      869.143
01/20/2022  18:09:00     -144.534       33.194      -24.115       21.223       18.376       17.745      450.398      337.663      314.880        1.184        0.055      148.296       11.194        0.006      336.282        7.480      869.145
01/20/2022  18:10:00     -124.351       36.630      -27.098       27.108       35.747       21.648      734.843     1277.817      468.636        1.001        0.124      129.634       16.606        0.016      336.373        7.631      869.137
01/20/2022  18:11:00     -112.524       47.383      -26.162       28.837       25.739       19.999      831.557      662.516      399.965        0.874        0.095      122.093       15.439        0.016      336.390        7.660      869.131
01/20/2022  18:12:00     -123.779       42.212      -17.253       41.105       25.642       25.083     1689.620      657.507      629.176        1.019        0.149      130.778       25.368        0.038      336.379        7.639      869.131
01/20/2022  18:13:00     -135.785       69.247      -11.055       34.930       30.663       27.643     1220.107      940.221      764.159        1.314        0.146      152.423       23.044        0.023      336.324        7.549      869.120
01/20/2022  18:14:00     -126.871       62.947       -8.141       55.585       30.374       30.188     3089.637      922.567      911.305        1.252        0.246      141.628       27.783        0.038      336.439        7.743      869.113
01/20/2022  18:15:00     -113.153       56.431       -9.220       43.679       27.555       20.142     1907.852      759.287      405.683        0.957        0.154      126.444       17.424        0.019      336.375        7.634      869.098
01/20/2022  18:16:00      -83.109       23.368      -14.724       46.348       33.893       24.734     2148.122     1148.720      611.784        0.579        0.195       86.332       19.591        0.051      336.397        7.672      869.073
01/20/2022  18:17:00     -130.653       50.736      -22.366       30.440       37.639       22.502      926.620     1416.670      506.348        1.150        0.142      140.159       13.929        0.010      336.347        7.587      869.058
01/20/2022  18:18:00       -8.847        2.204      -19.798       40.298       20.754       22.892     1623.941      430.720      524.053        0.153        0.129        9.117       19.656        4.648      336.341        7.578      869.040
01/20/2022  18:19:00       -6.579       -2.026        0.646       35.900       27.750       28.461     1288.820      770.060      810.045        0.146        0.143        6.884       19.866        8.329      336.303        7.512      869.030
01/20/2022  18:20:00      -51.497      -11.499       -3.534       54.446       31.875       26.513     2964.343     1016.013      702.913        0.374        0.234       52.765       26.263        0.248      336.363        7.614      869.038
01/20/2022  18:21:00      -45.623      -19.253       -8.713       55.693       36.271       31.270     3101.753     1315.601      977.817        0.396        0.270       49.519       31.421        0.403      336.434        7.732      869.059
01/20/2022  18:22:00     -101.156       -6.740       -4.068       41.662       28.610       20.090     1735.707      818.506      403.621        0.663        0.148      101.380       11.302        0.012      336.502        7.845      869.071
01/20/2022  18:23:00      -54.039       10.973      -10.059       31.627       20.385       19.382     1000.258      415.559      375.669        0.247        0.090       55.142       11.465        0.043      336.444        7.749      869.095
01/20/2022  18:24:00      -91.518       -9.523       -8.902       44.018       25.475       22.511     1937.602      648.954      506.751        0.582        0.155       92.012       14.788        0.026      336.365        7.618      869.104
01/20/2022  18:25:00      -76.317      -11.799       -9.904       48.355       26.760       21.414     2338.179      716.108      458.550        0.479        0.176       77.224       25.073        0.105      336.361        7.610      869.106
01/20/2022  18:26:00      -67.861       -6.261       -2.374       43.500       24.203       22.923     1892.245      585.765      525.469        0.383        0.150       68.149       19.374        0.081      336.330        7.558      869.099
01/20/2022  18:27:00      -57.458      -17.267       -1.819       47.873       26.551       26.828     2291.866      704.941      719.724        0.366        0.186       59.996       23.354        0.152      336.290        7.492      869.100
01/20/2022  18:28:00      -18.486       15.122        0.695       47.272       39.992       32.022     2234.673     1599.321     1025.424        0.271        0.243       23.883       26.605        1.241      336.273        7.463      869.113
01/20/2022  18:29:00      -69.740       -9.823       -7.344       69.634       38.133       27.102     4848.861     1454.123      734.502        0.602        0.352       70.428       24.381        0.120      336.291        7.494      869.128
01/20/2022  18:30:00      -64.220       -9.602       -1.501       56.258       35.397       32.853     3164.997     1252.921     1079.298        0.486        0.275       64.934       28.374        0.191      336.226        7.385      869.150
01/20/2022  18:31:00     -116.134      -33.346       -4.587       66.901       41.068       38.594     4475.705     1686.611     1489.509        1.113        0.383      120.827       40.825        0.114      336.155        7.267      869.183
01/20/2022  18:32:00     -138.227       -7.520       -7.817       66.640       29.316       35.493     4440.874      859.420     1259.743        1.289        0.328      138.432       35.987        0.068      336.202        7.344      869.210
01/20/2022  18:33:00     -111.572       24.562        5.403       78.290       37.430       37.150     6129.331     1401.005     1380.148        1.099        0.446      114.244       41.802        0.134      336.191        7.326      869.222
01/20/2022  18:34:00     -120.667       25.564       -4.904       53.415       35.502       28.550     2853.153     1260.421      815.092        1.008        0.246      123.345       25.705        0.043      336.218        7.371      869.238
01/20/2022  18:35:00      -83.075       23.938        0.579       77.202       37.974       27.053     5960.223     1442.030      731.876        0.780        0.407       86.455       30.832        0.127      336.227        7.387      869.257
01/20/2022  18:36:00      -63.533       12.982       -0.678       62.011       29.257       26.871     3845.368      855.992      722.027        0.481        0.271       64.846       25.663        0.157      336.187        7.320      869.270
01/20/2022  18:37:00      -83.499       10.252       -8.141       52.048       35.626       21.299     2708.950     1269.199      453.657        0.579        0.222       84.126       20.629        0.060      336.272        7.463      869.281
01/20/2022  18:38:00      -83.656        2.549       -5.091       61.530       38.777       31.433     3785.981     1503.650      988.027        0.665        0.314       83.694       28.385        0.115      336.249        7.422      869.288
01/20/2022  18:39:00     -112.277       17.962      -10.323       70.080       44.707       31.278     4911.252     1998.707      978.282        1.046        0.394      113.705       26.880        0.056      336.229        7.391      869.293
01/20/2022  18:40:00     -137.903       36.423       -1.136       68.711       37.423       31.137     4721.157     1400.470      969.514        1.372        0.355      142.632       30.471        0.046      336.172        7.294      869.295
01/20/2022  18:41:00      -78.248       -1.444       -5.522       61.103       40.302       34.864     3733.607     1624.257     1215.479        0.636        0.329       78.262       30.915        0.156      336.158        7.272      869.285
01/20/2022  18:42:00      -99.164       -2.853      -18.590       60.742       43.564       24.551     3689.623     1897.854      602.776        0.819        0.310       99.205       19.972        0.041      336.179        7.306      869.271
01/20/2022  18:43:00      -16.004       -2.356       -2.145       45.149       47.065       39.909     2038.442     2215.140     1592.724        0.306        0.292       16.177       33.439        4.273      336.101        7.176      869.268
01/20/2022  18:44:00      -80.231       14.840       -1.061       72.633       34.277       29.560     5275.504     1174.885      873.774        0.699        0.366       81.592       29.740        0.133      336.049        7.088      869.275
01/20/2022  18:45:00      -81.506       -0.174      -13.357       73.167       38.109       28.359     5353.384     1452.264      804.257        0.721        0.380       81.506       28.051        0.118      336.061        7.110      869.296
01/20/2022  18:46:00      -43.844       17.933       -6.176       59.615       35.473       30.973     3553.979     1258.330      959.327        0.403        0.289       47.370       29.824        0.396      336.077        7.136      869.314
01/20/2022  18:47:00      -92.700       -2.910       -6.882       62.455       33.098       27.197     3900.668     1095.479      739.668        0.719        0.287       92.745       23.455        0.064      336.089        7.156      869.337
01/20/2022  18:48:00      -71.559       15.003        0.526       87.596       28.679       28.947     7673.088      822.511      837.947        0.734        0.467       73.115       33.112        0.205      336.059        7.107      869.359
01/20/2022  18:49:00      -42.485       15.664       -2.807       43.854       31.306       23.509     1923.160      980.046      552.668        0.276        0.173       45.281       20.073        0.197      336.166        7.285      869.377
01/20/2022  18:50:00     -124.024       56.778      -18.294       34.607       35.319       23.645     1197.657     1247.428      559.063        1.097        0.150      136.403       17.070        0.016      336.233        7.397      869.393
01/20/2022  18:51:00     -129.758       55.818       -9.827       55.698       37.714       31.209     3102.250     1422.348      973.993        1.277        0.275      141.254       32.959        0.054      336.034        7.066      869.404
01/20/2022  18:52:00      -68.421       35.693        1.435       56.569       25.132       23.113     3200.054      631.626      534.212        0.516        0.218       77.171       20.372        0.070      336.030        7.058      869.435
01/20/2022  18:53:00       45.792       36.568       -8.600       40.029       33.229       30.295     1602.294     1104.163      917.790        0.357        0.181       58.602       11.095        0.036      335.884        6.815      869.482
01/20/2022  18:54:00      105.130       25.396      -15.570       38.257       32.573       22.230     1463.608     1060.979      494.195        0.748        0.151      108.154       14.725        0.019      335.763        6.614      869.500
01/20/2022  18:55:00       24.463       54.582       -7.994       25.164       17.338       13.637      633.220      300.589      185.979        0.238        0.056       59.813       10.456        0.031      336.007        7.021      869.506
01/20/2022  18:56:00      -61.102        9.276      -20.222       35.837       23.253       18.964     1284.317      540.707      359.624        0.321        0.109       61.802       17.386        0.079      335.979        6.973      869.505
01/20/2022  18:57:00      -80.362       22.620      -12.485       32.958       23.110       17.615     1086.236      534.053      310.290        0.453        0.097       83.485       11.528        0.019      335.778        6.637      869.504
01/20/2022  18:58:00      -62.773       12.981       -6.164       18.814       20.220       12.049      353.977      408.836      145.184        0.253        0.045       64.101        5.820        0.008      335.831        6.727      869.516
01/20/2022  18:59:00      -80.516       30.652      -14.144       32.884       30.911       15.549     1081.373      955.506      241.759        0.495        0.114       86.153        8.762        0.010      335.822        6.712      869.530
01/20/2022  19:00:00      -91.567       32.916      -18.233       26.280       31.136       18.384      690.634      969.457      337.966        0.590        0.100       97.304        7.590        0.006      335.845        6.751      869.549
01/20/2022  19:01:00     -134.713       42.548       -9.777       44.086       36.351       24.937     1943.591     1321.411      621.846        1.197        0.194      141.273       20.399        0.021      336.100        7.175      869.566
01/20/2022  19:02:00      -90.537       34.871      -22.168       44.541       52.520       27.930     1983.898     2758.349      780.081        0.771        0.276       97.020       23.821        0.060      337.345        9.256      869.538
01/20/2022  19:03:00      -25.174       16.004       -7.484       32.161       25.290       19.130     1034.322      639.564      365.966        0.149        0.102       29.831       12.020        0.162      336.526        7.886      869.541
01/20/2022  19:04:00        4.296       22.364       -1.205       18.810       16.240       14.086      353.803      263.751      198.420        0.067        0.041       22.773        9.692        0.181      336.537        7.905      869.555
01/20/2022  19:05:00        8.912       54.109       -9.554       18.654       37.705       13.629      347.960     1421.655      185.738        0.253        0.098       54.837       13.415        0.060      336.619        8.043      869.577
01/20/2022  19:06:00        5.008       91.839       -8.579       28.618       23.351       15.265      818.964      545.292      233.020        0.506        0.080       91.975        3.908        0.002      336.740        8.245      869.612
01/20/2022  19:07:00       59.630       97.148      -20.040       27.354       57.583       34.339      748.258     3315.817     1179.190        0.932        0.262      113.989       19.640        0.030      336.693        8.167      869.638
01/20/2022  19:08:00       90.318      105.119      -13.521       49.184       81.960       30.706     2419.046     6717.373      942.850        1.473        0.504      138.591       32.392        0.055      336.201        7.345      869.660
01/20/2022  19:09:00       71.871       44.927       -4.350       49.499       35.844       24.693     2450.109     1284.793      609.751        0.577        0.217       84.758       23.502        0.077      335.956        6.936      869.686
01/20/2022  19:10:00       84.292      135.359      -28.408       52.739       55.038       34.625     2781.401     3029.193     1198.903        1.662        0.350      159.459       23.775        0.022      336.302        7.511      869.706
01/20/2022  19:11:00       84.630      175.460      -21.156       55.385       72.287       43.388     3067.448     5225.421     1882.527        2.428        0.509      194.804       25.708        0.017      336.450        7.758      869.695
01/20/2022  19:12:00       21.166      153.177      -19.905       62.887       85.911       43.819     3954.787     7380.664     1920.140        1.878        0.663      154.633       35.481        0.053      336.554        7.933      869.687
01/20/2022  19:13:00      -52.751      208.221      -31.817       55.747       93.507       42.291     3107.738     8743.609     1788.549        3.039        0.682      214.799       18.264        0.007      336.612        8.031      869.669
01/20/2022  19:14:00      -12.131      157.804      -19.857       48.626       59.261       36.685     2364.496     3511.820     1345.799        1.633        0.361      158.270       18.652        0.014      336.652        8.096      869.650
01/20/2022  19:15:00      -58.019       51.083      -13.888       88.927       63.477       47.770     7908.086     4029.298     2281.928        1.019        0.711       77.302       25.986        0.113      336.669        8.126      869.623
01/20/2022  19:16:00      -94.136      139.416      -34.202       76.207      110.412       38.832     5807.552    12190.761     1507.887        2.448        0.975      168.221       33.091        0.039      336.597        8.005      869.586
01/20/2022  19:17:00      -32.200       36.419      -15.738       56.361       47.688       46.637     3176.521     2274.103     2174.975        0.512        0.381       48.612       36.858        0.575      336.485        7.817      869.566
01/20/2022  19:18:00      -92.220       76.060      -21.276       62.696       62.687       43.467     3930.785     3929.651     1889.370        1.224        0.487      119.540       25.026        0.044      336.524        7.884      869.551
01/20/2022  19:19:00      -17.495       31.893      -11.664       80.359       70.711       56.819     6457.649     5000.089     3228.360        0.807        0.734       36.376       44.286        1.482      336.478        7.806      869.549
01/20/2022  19:20:00       13.030       -5.533       -2.717       33.195       35.929       30.590     1101.936     1290.895      935.768        0.177        0.166       14.156       13.068        0.852      336.437        7.739      869.570
01/20/2022  19:21:00      -19.122       68.747       -8.832       35.533       95.747       24.411     1262.596     9167.490      595.875        0.810        0.551       71.356       34.639        0.236      336.413        7.697      869.572
01/20/2022  19:22:00       -5.358       57.146       -8.121       60.878       65.543       35.713     3706.126     4295.877     1275.434        0.632        0.464       57.397       31.538        0.302      336.457        7.772      869.521
01/20/2022  19:23:00       23.368      -37.044       -3.270       31.316       43.640       22.359      980.663     1904.470      499.904        0.266        0.169       43.799        7.260        0.027      336.473        7.797      869.496
01/20/2022  19:24:00       36.782        0.165      -20.515       62.828       39.617       36.522     3947.298     1569.502     1333.836        0.431        0.343       36.783       26.297        0.511      336.391        7.660      869.503
01/20/2022  19:25:00       22.105       12.019      -12.440       44.532       41.039       39.840     1983.081     1684.233     1587.209        0.302        0.263       25.161       27.222        1.171      336.143        7.246      869.498
01/20/2022  19:26:00       64.795      -31.537      -18.727       52.624       47.856       32.335     2769.338     2290.239     1045.541        0.582        0.305       72.062       30.229        0.176      336.092        7.160      869.500
01/20/2022  19:27:00       78.128      -85.159      -17.882       35.569       47.029       23.275     1265.158     2211.695      541.722        0.885        0.201      115.568       21.249        0.034      336.197        7.335      869.468
01/20/2022  19:28:00       76.183     -111.654      -31.616       28.935       33.063       21.993      837.224     1093.140      483.703        1.084        0.121      135.168       19.337        0.020      336.341        7.578      869.463
01/20/2022  19:29:00       -0.014      -51.285      -11.553       30.705       30.999       20.589      942.777      960.961      423.901        0.255        0.116       51.285       15.938        0.097      336.393        7.666      869.451
01/20/2022  19:30:00      -28.603      -15.039      -17.059       17.019       31.668       16.392      289.663     1002.874      268.694        0.145        0.078       32.316       13.643        0.178      336.292        7.495      869.445
01/20/2022  19:31:00       -4.466      -17.182       -7.321       19.186       18.502       13.471      368.090      342.334      181.455        0.063        0.045       17.753       11.187        0.397      336.276        7.468      869.434
01/20/2022  19:32:00       -6.568      -35.716      -14.903       59.371       40.755       27.850     3524.866     1660.958      775.607        0.375        0.298       36.315       21.185        0.340      336.422        7.713      869.417
01/20/2022  19:33:00      -83.227      -27.197      -31.898       47.460       40.327       33.856     2252.414     1626.306     1146.231        0.685        0.251       87.558       23.213        0.070      336.506        7.855      869.408
01/20/2022  19:34:00      -37.058      -45.443      -29.010       33.683       33.952       24.889     1134.569     1152.729      619.478        0.359        0.145       58.637       17.225        0.086      336.493        7.831      869.400
01/20/2022  19:35:00      -35.191      -20.555       -6.328       47.074       32.031       26.090     2215.951     1026.008      680.707        0.281        0.196       40.754       18.147        0.198      336.451        7.762      869.392
01/20/2022  19:36:00      -79.348       -8.291      -14.483       45.654       32.367       32.840     2084.285     1047.646     1078.448        0.539        0.211       79.780       16.691        0.044      336.482        7.813      869.398
01/20/2022  19:37:00     -119.664       -7.706      -29.186       62.938       35.706       30.549     3961.255     1274.933      933.250        1.070        0.308      119.912       22.977        0.037      336.604        8.019      869.394
01/20/2022  19:38:00      -91.650       -7.307      -18.776       37.295       28.998       21.980     1390.913      840.892      483.103        0.576        0.136       91.941       13.456        0.021      336.685        8.153      869.405
01/20/2022  19:39:00      -66.975       32.247      -15.694       51.939       24.137       22.103     2697.693      582.607      488.537        0.477        0.188       74.334       20.949        0.079      336.918        8.543      869.413
01/20/2022  19:40:00      -22.240      -18.694      -22.609       27.360       27.899       19.916      748.574      778.333      396.662        0.164        0.096       29.053       12.764        0.193      336.863        8.449      869.411
01/20/2022  19:41:00      -10.104      -26.908      -13.455       20.033       33.621       24.871      401.314     1130.377      618.567        0.158        0.108       28.743       19.800        0.475      336.731        8.231      869.421
01/20/2022  19:42:00      -29.677        5.995       -3.215       28.257       31.958       19.517      798.445     1021.286      380.913        0.156        0.110       30.277       19.046        0.396      336.648        8.092      869.435
01/20/2022  19:43:00      -26.763        1.760      -17.544       21.135       35.672       22.709      446.698     1272.507      515.689        0.163        0.112       26.821       14.655        0.299      336.825        8.387      869.441
01/20/2022  19:44:00      -53.802       -2.259        5.828       86.300       48.672       36.127     7447.714     2368.974     1305.167        0.703        0.556       53.849       23.279        0.187      336.384        7.649      869.440
01/20/2022  19:45:00     -177.343       -7.581       -1.479       91.049       57.172       44.765     8290.002     3268.619     2003.931        2.253        0.678      177.505       44.559        0.063      335.974        6.963      869.433
01/20/2022  19:46:00     -115.156       -5.076       -5.011       73.541       43.410       38.952     5408.323     1884.412     1517.231        1.106        0.440      115.268       39.108        0.115      335.786        6.652      869.447
01/20/2022  19:47:00      -82.011        5.557       -4.111       61.168       51.955       32.111     3741.534     2699.282     1031.109        0.712        0.374       82.199       26.243        0.102      335.745        6.584      869.460
01/20/2022  19:48:00      -52.458      -25.270       -0.739       45.477       58.047       27.842     2068.194     3369.467      775.189        0.480        0.311       58.227       23.892        0.168      335.723        6.546      869.458
01/20/2022  19:49:00     -103.478      -30.157      -11.438       61.891       57.080       45.478     3830.453     3258.141     2068.237        1.045        0.458      107.783       37.927        0.124      335.625        6.382      869.447
01/20/2022  19:50:00      -71.693       -5.304       -1.365       58.743       48.418       41.664     3450.780     2344.267     1735.901        0.635        0.377       71.889       36.268        0.255      335.543        6.248      869.448
01/20/2022  19:51:00      -88.980      -24.334      -18.434       49.448       55.090       34.037     2445.140     3034.952     1158.499        0.774        0.332       92.247       31.479        0.116      335.584        6.316      869.460
01/20/2022  19:52:00     -112.001      -27.777       -9.146       59.000       51.311       32.531     3480.976     2632.851     1058.239        1.028        0.359      115.394       33.960        0.087      335.603        6.346      869.474
01/20/2022  19:53:00     -108.562       -7.086       -0.111       72.542       42.261       33.992     5262.288     1785.959     1155.461        1.002        0.410      108.794       34.949        0.103      335.565        6.283      869.487
01/20/2022  19:54:00      -41.049       18.993       -3.647       69.737       32.336       30.463     4863.193     1045.600      927.964        0.445        0.342       45.230       27.036        0.357      335.568        6.289      869.508
01/20/2022  19:55:00     -127.412       -9.277      -10.635       55.066       43.037       39.346     3032.304     1852.182     1548.135        1.143        0.322      127.749       29.561        0.054      335.472        6.130      869.526
01/20/2022  19:56:00      -29.764       -3.015       -8.317       28.955       40.157       25.939      838.387     1612.585      672.825        0.204        0.156       29.916       19.250        0.414      335.476        6.135      869.528
01/20/2022  19:57:00      -75.742       -0.251      -12.279       35.341       25.555       13.278     1248.972      653.069      176.300        0.398        0.104       75.742        7.957        0.011      335.525        6.215      869.507
01/20/2022  19:58:00      -92.265      -39.428      -20.225       40.506       41.475       21.515     1640.722     1720.134      462.913        0.715        0.191      100.336       16.291        0.026      335.579        6.306      869.483
01/20/2022  19:59:00      -78.648       -3.401      -11.980       42.769       49.125       22.340     1829.165     2413.278      499.081        0.554        0.237       78.721       12.950        0.027      335.637        6.402      869.479
01/20/2022  20:00:00      -15.447       -3.186       -3.674       16.176       18.722       15.802      261.664      350.529      249.696        0.056        0.043       15.772       11.661        0.547      335.661        6.443      869.479
01/20/2022  20:01:00      -34.855      -38.239       -3.007       44.155       46.869       17.369     1949.682     2196.714      301.683        0.357        0.222       51.740        8.339        0.026      335.867        6.786      869.485
01/20/2022  20:02:00      -27.746      -35.774       -9.985       46.490       35.537       17.057     2161.337     1262.856      290.927        0.293        0.186       45.273       13.428        0.088      336.041        7.076      869.489
01/20/2022  20:03:00       12.419      -35.946      -23.154       13.432       27.942       13.645      180.420      780.761      186.179        0.156        0.057       38.031        9.662        0.065      335.765        6.615      869.502
01/20/2022  20:04:00      -25.207        9.754       -3.684       18.970       22.136       16.236      359.846      490.002      263.603        0.093        0.056       27.028        4.821        0.032      335.630        6.392      869.519
01/20/2022  20:05:00      -19.969       -3.132       -5.437       31.836       23.024       17.090     1013.546      530.118      292.064        0.114        0.092       20.213       15.056        0.555      335.503        6.180      869.523
01/20/2022  20:06:00       -6.313      -11.345        0.554       15.929       14.647       12.872      253.732      214.531      165.700        0.040        0.032       12.983        9.191        0.501      335.523        6.215      869.517
01/20/2022  20:07:00       13.566      -37.843      -16.216       25.291       60.349       37.752      639.623     3641.970     1425.196        0.379        0.285       40.201       34.356        0.730      335.559        6.273      869.514
01/20/2022  20:08:00      -13.570      -39.323       -4.160       39.646       34.954       28.057     1571.803     1221.802      787.172        0.266        0.179       41.598       16.621        0.160      335.616        6.368      869.520
01/20/2022  20:09:00      -26.126        0.904      -14.520       19.299       27.169       16.078      372.457      738.145      258.491        0.113        0.068       26.142        7.423        0.081      335.679        6.472      869.509
01/20/2022  20:10:00      -52.136       -1.375      -21.152       39.797       35.641       18.097     1583.785     1270.297      327.519        0.317        0.159       52.154       12.705        0.059      335.636        6.402      869.498
01/20/2022  20:11:00      -40.058      -25.031       -1.016       39.206       30.470       22.954     1537.106      928.437      526.874        0.261        0.150       47.236       23.715        0.252      335.570        6.291      869.487
01/20/2022  20:12:00      -11.193      -18.933      -11.422       22.012       23.433       16.462      484.542      549.121      270.993        0.096        0.065       21.994        9.876        0.202      335.571        6.293      869.487
01/20/2022  20:13:00      -55.145       14.875       -0.956       32.931       32.174       15.684     1084.431     1035.188      245.975        0.281        0.118       57.116       19.779        0.120      335.566        6.285      869.482
01/20/2022  20:14:00      -17.641      -15.593       -1.127       34.514       25.714       13.094     1191.232      661.226      171.459        0.129        0.101       23.544       13.727        0.340      335.634        6.399      869.470
01/20/2022  20:15:00      -18.225      -16.399      -12.686       23.579       26.317       16.029      555.954      692.558      256.914        0.113        0.075       24.517        6.196        0.064      335.592        6.329      869.465
01/20/2022  20:16:00       -1.604       -2.350       -0.401       11.609       14.459        8.205      134.779      209.064       67.330        0.021        0.021        2.845        7.793        7.502      335.505        6.185      869.446
01/20/2022  20:17:00      -19.228       -0.226        0.398       28.598       17.380       14.065      817.827      302.048      197.822        0.084        0.066       19.229        6.311        0.108      335.489        6.156      869.435
01/20/2022  20:18:00      -41.367        1.201       -8.824       47.531       18.827       17.211     2259.208      354.439      296.224        0.235        0.145       41.385       18.203        0.193      335.548        6.256      869.430
01/20/2022  20:19:00      -25.191      -12.590      -15.267       29.117       26.780       17.666      847.804      717.162      312.087        0.145        0.094       28.162        8.983        0.102      335.651        6.425      869.426
01/20/2022  20:20:00       -7.421       -8.394      -10.499       22.518       20.349       15.856      507.043      414.068      251.411        0.070        0.059       11.204       12.628        1.270      335.601        6.342      869.428
01/20/2022  20:21:00       -2.310      -14.721       -8.132        8.039       14.803       13.537       64.628      219.125      183.250        0.038        0.023       14.901       11.745        0.621      335.574        6.299      869.416
01/20/2022  20:22:00       -2.632        5.187       -8.657        9.086        6.956        9.176       82.550       48.391       84.191        0.016        0.011        5.817        7.021        1.457      335.691        6.494      869.405
01/20/2022  20:23:00       17.538       25.565        0.821       14.106       13.891        6.660      198.980      192.952       44.355        0.070        0.022       31.002        6.625        0.046      335.501        6.176      869.401
01/20/2022  20:24:00      -24.146       11.763      -11.022       19.617       18.217        9.538      384.831      331.866       90.972        0.083        0.040       26.859       10.258        0.146      335.567        6.288      869.397
01/20/2022  20:25:00      -15.802      -29.977       -7.264       14.179       20.336       10.526      201.030      413.558      110.788        0.096        0.036       33.887        8.684        0.066      335.339        5.908      869.371
01/20/2022  20:26:00      -17.339      -45.459      -15.852       16.148       15.601       10.919      260.743      243.405      119.226        0.162        0.031       48.653        8.274        0.029      335.325        5.885      869.321
01/20/2022  20:27:00       13.495      -44.979      -20.780       20.817       26.486       26.669      433.357      701.482      711.218        0.224        0.092       46.960       18.743        0.159      335.410        6.027      869.287
01/20/2022  20:28:00       63.597      -81.448      -30.421       34.200       41.520       27.301     1169.637     1723.893      745.323        0.762        0.182      103.336       19.029        0.034      335.430        6.058      869.284
01/20/2022  20:29:00       50.672     -111.173      -21.369       26.061       23.926       14.335      679.195      572.449      205.498        0.842        0.073      122.177       10.605        0.008      335.743        6.580      869.264
01/20/2022  20:30:00       29.234      -87.592      -17.977       33.165       46.014       20.403     1099.945     2117.266      416.288        0.624        0.182       92.342       15.729        0.029      335.574        6.299      869.237
01/20/2022  20:31:00      -38.067      -17.822      -30.040       20.952       41.236       15.758      438.969     1700.440      248.329        0.253        0.119       42.033       10.706        0.065      335.421        6.044      869.231
01/20/2022  20:32:00      -30.255       46.990       -3.926       19.755       32.932       13.212      390.273     1084.501      174.554        0.239        0.082       55.888       11.383        0.041      335.444        6.081      869.250
01/20/2022  20:33:00      -23.766       87.250      -10.463       29.229       22.193       15.288      854.341      492.508      233.709        0.493        0.079       90.429        4.078        0.002      335.629        6.390      869.270
01/20/2022  20:34:00      -20.432       76.444       -1.064       24.863       29.900       16.219      618.161      894.002      263.053        0.402        0.089       79.127        8.113        0.011      335.435        6.068      869.280
01/20/2022  20:35:00      -22.171       32.096       -3.830       27.588       25.528       18.635      761.078      651.681      347.275        0.165        0.088       39.010       11.401        0.085      335.277        5.803      869.269
01/20/2022  20:36:00      -72.283       24.600      -15.789       22.158       21.006       13.416      490.987      441.258      179.976        0.360        0.056       76.355        7.188        0.009      335.221        5.711      869.254
01/20/2022  20:37:00      -15.677      -42.111       -8.460       16.600       18.818       11.041      275.575      354.100      121.895        0.142        0.038       44.935       10.726        0.057      335.082        5.481      869.249
01/20/2022  20:38:00       22.975      -50.570      -17.616       19.873       15.500       10.955      394.946      240.250      120.015        0.208        0.038       55.544        6.245        0.013      335.240        5.742      869.229
01/20/2022  20:39:00       60.853      -63.428      -27.541       22.704       34.977       16.277      515.468     1223.380      264.952        0.524        0.100       87.899       10.323        0.014      335.462        6.111      869.199
01/20/2022  20:40:00       45.337      -27.443      -13.417       42.965       39.836       30.756     1846.022     1586.939      945.929        0.368        0.219       52.996       22.632        0.182      335.365        5.950      869.177
01/20/2022  20:41:00      -27.647       33.221      -16.415       39.380       41.962       17.244     1550.790     1760.827      297.365        0.287        0.180       43.221       18.340        0.180      335.410        6.026      869.189
01/20/2022  20:42:00      -62.597       56.889      -12.054       39.404       28.232       23.786     1552.666      797.069      565.772        0.511        0.146       84.586        3.774        0.002      335.414        6.031      869.217
01/20/2022  20:43:00      -74.340       46.729       -2.954       38.812       25.831       22.777     1506.388      667.226      518.789        0.521        0.135       87.807       21.612        0.061      335.315        5.867      869.233
01/20/2022  20:44:00      -63.829       35.626        0.811       32.439       16.582       17.023     1052.275      274.978      289.790        0.348        0.081       73.098       19.425        0.071      335.270        5.791      869.241
01/20/2022  20:45:00      -51.313       16.396      -15.027       20.636       24.259       14.779      425.847      588.496      218.404        0.218        0.062       53.869        7.269        0.018      335.253        5.763      869.246
01/20/2022  20:46:00       -9.192        0.213       -4.214       11.859       14.940        9.360      140.629      223.191       87.612        0.028        0.023        9.194        6.248        0.462      335.246        5.752      869.244
01/20/2022  20:47:00       -2.895      -12.048       -5.964        7.439       13.249        7.775       55.334      175.548       60.451        0.024        0.015       12.391        3.526        0.081      335.302        5.846      869.246
01/20/2022  20:48:00      -11.033       -2.561      -12.843       10.462        9.187        7.408      109.460       84.406       54.876        0.027        0.012       11.327        5.575        0.242      335.300        5.840      869.255
01/20/2022  20:49:00      -56.321       21.234      -10.341       26.358       18.874       11.830      694.735      356.225      139.949        0.246        0.060       60.191       12.520        0.043      335.058        5.440      869.274
01/20/2022  20:50:00     -118.317       50.933      -10.255       21.143       23.789       15.825      447.016      565.916      250.421        0.898        0.063      128.814        7.652        0.004      334.961        5.280      869.301
01/20/2022  20:51:00     -109.918       30.488      -13.544       21.830       18.015       14.619      476.560      324.525      213.703        0.710        0.051      114.068        6.811        0.004      335.089        5.493      869.307
01/20/2022  20:52:00      -49.048       -5.278       -5.493       27.624       15.212       14.010      763.090      231.397      196.289        0.183        0.060       49.331       11.193        0.051      335.194        5.664      869.298
01/20/2022  20:53:00       26.231      -38.329      -23.515       28.382       35.848       17.859      805.541     1285.045      318.948        0.256        0.120       46.446       18.917        0.166      335.146        5.587      869.284
01/20/2022  20:54:00       40.750       35.323       -7.864       32.634       27.544       20.667     1064.984      758.661      427.144        0.261        0.113       53.929       14.077        0.068      335.029        5.393      869.300
01/20/2022  20:55:00       45.594        5.916       -7.969       13.105       14.143       12.242      171.745      200.017      149.875        0.135        0.026       45.976        8.211        0.032      335.032        5.396      869.329
01/20/2022  20:56:00       29.981       41.706      -12.086       10.805       13.095        8.022      116.758      171.483       64.356        0.157        0.018       51.364        4.812        0.009      335.080        5.477      869.353
01/20/2022  20:57:00       21.536       41.529       -9.514       11.556       12.033        6.210      133.538      144.796       38.563        0.130        0.016       46.781        6.049        0.017      335.262        5.778      869.363
01/20/2022  20:58:00       45.655       27.822       -9.749       21.763       14.317       10.710      473.607      204.988      114.693        0.187        0.040       53.465        9.986        0.035      335.211        5.695      869.369
01/20/2022  20:59:00       61.691       30.855      -10.573       43.257       25.735       17.881     1871.163      662.303      319.716        0.386        0.143       68.977       17.602        0.065      335.277        5.803      869.370
01/20/2022  21:00:00       50.166      -23.422      -27.231       30.960       34.130       26.791      958.501     1164.844      717.735        0.332        0.142       55.365       18.076        0.107      335.264        5.781      869.349
01/20/2022  21:01:00       64.164       -0.586      -12.387       44.619       35.357       30.845     1990.826     1250.099      951.422        0.423        0.210       64.167       18.875        0.087      335.152        5.596      869.339
01/20/2022  21:02:00       62.366       -4.017       -1.134       47.375       25.994       21.556     2244.370      675.687      464.674        0.365        0.169       62.496       22.540        0.130      335.174        5.631      869.327
01/20/2022  21:03:00      105.812       29.542       -5.984       39.029       29.845       21.551     1523.250      890.714      464.437        0.749        0.144      109.858       14.743        0.018      335.060        5.444      869.325
01/20/2022  21:04:00      119.142       52.931      -10.130       30.582       21.111       13.441      935.240      445.686      180.668        0.933        0.078      130.371       13.247        0.010      335.004        5.353      869.326
01/20/2022  21:05:00       63.766        1.026       -5.511       38.664       22.205       20.142     1494.941      493.074      405.719        0.325        0.120       63.775       18.399        0.083      334.977        5.308      869.315
01/20/2022  21:06:00       40.516        3.436      -13.035       24.968       24.882       16.772      623.385      619.099      281.289        0.167        0.076       40.661       12.906        0.101      334.989        5.326      869.306
01/20/2022  21:07:00       78.586        4.258      -16.702       33.821       23.054       23.877     1143.875      531.495      570.120        0.436        0.112       78.701       13.531        0.030      335.130        5.561      869.304
01/20/2022  21:08:00       67.308        0.156       -9.587       37.161       18.346       19.674     1380.918      336.590      387.070        0.336        0.105       67.308       16.472        0.060      335.169        5.624      869.310
01/20/2022  21:09:00       76.600      -13.191      -12.953       37.305       17.533       18.859     1391.680      307.424      355.666        0.413        0.103       77.728        5.586        0.005      335.163        5.613      869.313
01/20/2022  21:10:00       53.960      -14.014       -7.005       37.882       18.657       15.910     1435.034      348.084      253.113        0.260        0.102       55.750       12.383        0.049      335.155        5.601      869.310
01/20/2022  21:11:00       34.454       22.603        5.912       33.955       35.231       29.406     1152.912     1241.198      864.737        0.250        0.163       41.207       14.758        0.128      335.183        5.647      869.321
01/20/2022  21:12:00       40.420       21.053      -13.698       46.599       36.866       22.916     2171.435     1359.076      525.133        0.316        0.203       45.574       11.741        0.066      335.209        5.691      869.334
01/20/2022  21:13:00       56.856      -21.601      -10.638       40.649       22.952       19.152     1652.381      526.779      366.796        0.318        0.127       60.821       10.260        0.028      335.108        5.522      869.332
01/20/2022  21:14:00       50.934      -10.171      -14.038       35.814       39.009       21.485     1282.651     1521.675      461.619        0.308        0.163       51.940       20.692        0.159      335.067        5.454      869.320
01/20/2022  21:15:00       62.835      -41.817      -14.019       33.702       30.211       24.922     1135.826      912.705      621.130        0.428        0.133       75.478       14.220        0.035      335.123        5.550      869.308
01/20/2022  21:16:00       61.881      -38.606       -8.667       38.713       39.499       30.877     1498.694     1560.148      953.367        0.470        0.201       72.936       25.677        0.124      335.037        5.406      869.303
01/20/2022  21:17:00       62.259      -15.381       -6.807       52.560       36.486       30.049     2762.525     1331.223      902.944        0.458        0.250       64.130       28.484        0.197      334.968        5.292      869.301
01/20/2022  21:18:00       36.570      -12.755       -4.414       37.809       29.567       22.387     1429.518      874.187      501.172        0.216        0.140       38.730       20.160        0.271      334.873        5.133      869.305
01/20/2022  21:19:00       63.454       -5.269       -8.090       35.591       16.012       10.456     1266.690      256.399      109.335        0.288        0.082       63.673        7.838        0.015      334.769        4.961      869.298
01/20/2022  21:20:00       80.820      -22.935       -2.386       28.040       20.147       16.394      786.246      405.913      268.756        0.426        0.073       84.012       12.832        0.023      334.847        5.091      869.276
01/20/2022  21:21:00       56.562       -5.204       -8.238       28.634       17.167       10.885      819.914      294.695      118.488        0.226        0.062       56.801        7.031        0.015      334.866        5.122      869.264
01/20/2022  21:22:00       76.762       -5.980       -4.785       22.584       18.829       10.980      510.016      354.542      120.555        0.347        0.049       76.995        8.664        0.013      335.017        5.371      869.275
01/20/2022  21:23:00       78.680       38.761      -11.277       23.339       22.128       11.850      544.719      489.659      140.434        0.450        0.059       87.710       10.476        0.014      334.919        5.211      869.277
01/20/2022  21:24:00       30.285       11.345       -3.333       50.320       48.676       33.386     2532.074     2369.321     1114.649        0.354        0.301       32.341       15.110        0.218      335.050        5.428      869.266
01/20/2022  21:25:00       52.092       -8.507        2.927       41.270       42.899       29.891     1703.180     1840.337      893.486        0.361        0.222       52.782       23.629        0.200      334.964        5.284      869.268
01/20/2022  21:26:00       44.704       -6.157       -9.207       35.155       31.601       23.843     1235.899      998.652      568.474        0.246        0.140       45.126       17.998        0.159      334.740        4.912      869.292
01/20/2022  21:27:00       46.129        0.202        3.655       45.794       19.188       23.501     2097.085      368.177      552.298        0.258        0.151       46.130       24.696        0.287      334.674        4.800      869.321
01/20/2022  21:28:00       62.060       38.715       -6.412       30.494       15.282       13.559      929.895      233.527      183.839        0.337        0.067       73.146       12.820        0.031      334.737        4.907      869.351
01/20/2022  21:29:00       65.929       52.352       -8.229       26.041       19.015       19.343      678.144      361.561      374.139        0.428        0.071       84.187       11.913        0.020      334.910        5.195      869.366
01/20/2022  21:30:00       47.479       48.792       -6.036       24.497       25.398       19.692      600.080      645.082      387.785        0.315        0.082       68.081       16.368        0.058      334.939        5.244      869.353
01/20/2022  21:31:00       56.827       51.755      -11.057       28.998       27.700       19.181      840.876      767.308      367.898        0.400        0.099       76.863       15.084        0.039      335.024        5.384      869.327
01/20/2022  21:32:00       85.448       57.656      -14.557       34.514       23.590       20.774     1191.190      556.492      431.579        0.651        0.109      103.080       12.720        0.015      335.023        5.383      869.307
01/20/2022  21:33:00       52.446       -4.986      -12.139       20.693       27.381       16.340      428.214      749.713      266.994        0.218        0.072       52.682       11.658        0.049      334.948        5.259      869.288
01/20/2022  21:34:00       -2.906       10.496       -9.419       19.792       17.844       15.704      391.740      318.409      246.604        0.058        0.048       10.891        6.479        0.354      334.921        5.213      869.282
01/20/2022  21:35:00      -28.096        0.239       -8.453       22.084       21.987       19.413      487.681      483.431      376.864        0.110        0.067       28.097       15.979        0.323      334.815        5.037      869.305
01/20/2022  21:36:00      -55.925      -46.552      -22.325       24.808       20.231       19.082      615.434      409.308      364.136        0.359        0.069       72.765       12.110        0.028      334.914        5.203      869.316
01/20/2022  21:37:00     -117.080      -33.752      -17.219       46.254       28.269       24.845     2139.418      799.151      617.252        0.935        0.178      121.848       14.054        0.013      335.151        5.595      869.320
01/20/2022  21:38:00     -110.314      -35.277      -10.659       37.017       47.442       26.057     1370.228     2250.754      678.977        0.891        0.215      115.817       19.431        0.028      335.035        5.403      869.328
01/20/2022  21:39:00      -73.863      -68.623      -14.030       50.513       46.510       24.374     2551.526     2163.150      594.090        0.783        0.265      100.821       16.510        0.027      335.033        5.399      869.310
01/20/2022  21:40:00      -45.432      -79.041      -43.164       66.488       46.671       31.790     4420.591     2178.136     1010.584        0.889        0.380       91.168       35.075        0.148      335.048        5.423      869.263
01/20/2022  21:41:00      -24.484      -20.751      -20.835       34.062       30.133       28.229     1160.225      908.022      796.865        0.216        0.143       32.095       15.407        0.230      334.944        5.253      869.239
01/20/2022  21:42:00      -17.710        0.386        7.533       42.755       38.690       25.033     1827.992     1496.884      626.653        0.216        0.198       17.715       17.925        1.024      334.978        5.308      869.248
01/20/2022  21:43:00      -93.537      -83.823      -12.973       53.497       49.122       30.858     2861.908     2412.932      952.245        1.108        0.311      125.601       24.369        0.038      335.173        5.634      869.283
01/20/2022  21:44:00      -68.654      -72.006      -13.188       44.184       23.771       21.504     1952.246      565.080      462.406        0.653        0.149       99.490       21.883        0.048      335.214        5.699      869.337
01/20/2022  21:45:00      -63.823      -74.802      -16.461       39.083       26.675       20.395     1527.458      711.561      415.942        0.630        0.133       98.330       12.407        0.016      335.230        5.725      869.335
01/20/2022  21:46:00      -18.146      -13.222      -10.530       40.808       28.898       26.489     1665.301      835.086      701.660        0.191        0.160       22.452       18.370        0.669      335.184        5.650      869.326
01/20/2022  21:47:00        3.752      -23.810      -12.527       23.005       21.106       14.785      529.210      445.467      218.605        0.097        0.060       24.104       10.702        0.197      335.075        5.468      869.324
01/20/2022  21:48:00      -20.959       -4.955       -9.464       45.949       21.556       23.760     2111.319      464.682      564.531        0.185        0.157       21.536       19.168        0.792      334.992        5.331      869.310
01/20/2022  21:49:00      -45.514        8.162        2.388       38.446       28.798       18.171     1478.120      829.338      330.196        0.239        0.132       46.240       17.239        0.139      334.890        5.162      869.322
01/20/2022  21:50:00      -75.045        4.950      -14.576       39.933       32.999       26.638     1594.631     1088.937      709.595        0.463        0.170       75.208       17.805        0.056      334.759        4.945      869.330
01/20/2022  21:51:00      -23.890      -11.961       -5.483       45.019       35.109       24.476     2026.704     1232.669      599.086        0.230        0.193       26.717       20.620        0.596      334.611        4.696      869.338
01/20/2022  21:52:00      -20.279      -42.606       -8.922       26.198       24.963       18.116      686.319      623.147      328.204        0.197        0.082       47.186        8.518        0.033      334.644        4.751      869.342
01/20/2022  21:53:00      -25.633      -48.383      -12.605       34.395       34.472       23.007     1183.004     1188.329      529.314        0.303        0.145       54.754        8.646        0.025      334.936        5.238      869.301
01/20/2022  21:54:00      -73.751        8.773       -1.343       59.672       52.556       40.736     3560.771     2762.131     1659.437        0.675        0.399       74.271       28.955        0.152      334.932        5.230      869.276
01/20/2022  21:55:00      -75.584      -28.851       -7.336       85.564       36.747       34.126     7321.212     1350.366     1164.590        0.822        0.492       80.903       31.649        0.153      334.750        4.928      869.285
01/20/2022  21:56:00     -193.216      -69.851      -30.488       66.974       43.678       33.361     4485.500     1907.738     1112.946        2.532        0.375      205.455       30.295        0.022      334.679        4.807      869.265
01/20/2022  21:57:00     -127.235      -22.479       -2.528       91.924       63.764       46.867     8450.108     4065.839     2196.503        1.570        0.736      129.205       42.891        0.110      334.660        4.776      869.268
01/20/2022  21:58:00      -80.358      -15.185        0.429       48.522       43.855       32.483     2354.347     1923.221     1055.133        0.601        0.267       81.780       28.098        0.118      334.649        4.762      869.318
01/20/2022  21:59:00      -78.930       -3.329       -9.924       38.147       32.229       21.421     1455.220     1038.711      458.861        0.465        0.148       79.001       20.578        0.068      334.680        4.811      869.332
01/20/2022  22:00:00     -100.036      -73.496      -29.197       23.917       24.944       20.199      572.012      622.217      408.010        0.893        0.080      124.132       10.054        0.007      334.659        4.777      869.312
01/20/2022  22:01:00      -92.915      -81.047      -31.469       59.094       48.871       35.426     3492.066     2388.336     1255.011        1.166        0.357      123.296       28.354        0.053      334.624        4.719      869.300
01/20/2022  22:02:00     -133.302      -32.655      -29.068       63.167       78.111       34.993     3990.010     6101.295     1224.478        1.550        0.566      137.244       25.062        0.033      334.470        4.462      869.321
01/20/2022  22:03:00     -128.477      -38.256      -11.252       80.498       38.987       36.124     6479.856     1520.004     1304.942        1.370        0.465      134.052       36.486        0.074      334.404        4.353      869.332
01/20/2022  22:04:00      -79.234      -50.946       -9.278       41.056       39.411       37.790     1685.586     1553.199     1428.078        0.681        0.233       94.200       27.088        0.083      334.376        4.308      869.332
01/20/2022  22:05:00      -52.896      -10.357        2.066       22.834       44.320       22.253      521.413     1964.287      495.198        0.294        0.149       53.901        7.653        0.020      334.405        4.354      869.337
01/20/2022  22:06:00      -41.881        0.465       -1.900       32.865       45.469       21.881     1080.115     2067.398      478.772        0.269        0.181       41.884       14.790        0.125      334.358        4.277      869.380
01/20/2022  22:07:00      -17.043       -5.034       -5.735       20.721       23.670       12.254      429.358      560.245      150.152        0.074        0.057       17.771        8.330        0.220      334.372        4.300      869.413
01/20/2022  22:08:00      -43.601       -7.613      -11.914       20.874       19.630       18.948      435.725      385.320      359.034        0.164        0.059       44.260        9.253        0.044      334.495        4.507      869.445
01/20/2022  22:09:00      -83.270      -17.873      -10.994       26.697       15.079       21.067      712.755      227.364      443.809        0.438        0.069       85.167       17.191        0.041      334.404        4.353      869.464
01/20/2022  22:10:00      -61.949       14.157      -12.367       41.740       23.893       23.399     1742.197      570.855      547.536        0.353        0.143       63.546       17.406        0.075      334.373        4.303      869.465
01/20/2022  22:11:00      -26.779      -24.708       -4.254       35.654       13.888       16.990     1271.218      192.889      288.669        0.155        0.088       36.437       13.641        0.140      334.309        4.196      869.447
01/20/2022  22:12:00      -12.166       14.222       -9.764       10.621       13.177        5.749      112.797      173.645       33.046        0.038        0.016       18.716        4.925        0.069      334.300        4.182      869.437
01/20/2022  22:13:00      -23.835       12.733       -9.253       22.255        7.773        9.639      495.300       60.416       92.918        0.073        0.032       27.022        9.879        0.134      334.380        4.314      869.424
01/20/2022  22:14:00      -29.066        6.997       -8.575       23.571       14.053        7.501      555.584      197.501       56.264        0.089        0.040       29.896        9.275        0.096      334.379        4.312      869.418
01/20/2022  22:15:00      -15.301      -12.728       -3.243       16.828       21.544       12.791      283.171      464.145      163.617        0.066        0.046       19.903        3.320        0.028      334.365        4.288      869.399
01/20/2022  22:16:00      -13.330       -0.498      -18.477       11.590       10.907       11.175      134.327      118.959      124.885        0.045        0.019       13.339        6.211        0.217      334.476        4.471      869.388
01/20/2022  22:17:00       20.829       -1.094       -7.094       12.616       10.690        9.170      159.175      114.283       84.091        0.042        0.018       20.858        6.473        0.096      334.283        4.153      869.377
01/20/2022  22:18:00       25.213       22.078       -8.353        7.475        9.617        6.137       55.871       92.484       37.666        0.069        0.009       33.513        2.612        0.006      334.254        4.105      869.377
01/20/2022  22:19:00       22.944       29.726       -5.352       12.367        7.623        6.425      152.943       58.106       41.284        0.085        0.013       37.551        4.391        0.014      334.445        4.421      869.394
01/20/2022  22:20:00      -29.816       33.062       -3.018       28.190       17.437       13.610      794.656      304.061      185.226        0.164        0.064       44.520       10.195        0.052      334.462        4.449      869.419
01/20/2022  22:21:00      -51.189       29.884      -14.080       26.192       17.842       10.254      686.026      318.322      105.142        0.241        0.055       59.274        8.184        0.019      334.570        4.629      869.431
01/20/2022  22:22:00       13.577      -30.869      -16.418       18.386       29.100       14.985      338.034      846.803      224.540        0.141        0.070       33.723       18.332        0.295      334.599        4.678      869.407
01/20/2022  22:23:00       26.748      -19.940      -18.251       24.572       32.269       19.747      603.775     1041.304      389.961        0.174        0.102       33.362       20.441        0.375      334.310        4.198      869.385
01/20/2022  22:24:00      -15.073       55.032       -2.355       16.451       23.338       12.391      270.642      544.660      153.544        0.211        0.048       57.059       10.558        0.034      334.382        4.318      869.397
01/20/2022  22:25:00       26.757       43.627       -7.584       22.837       17.980       15.124      521.512      323.282      228.735        0.187        0.054       51.178        7.565        0.022      334.150        3.933      869.405
01/20/2022  22:26:00       49.771        7.234      -10.854       16.729       22.340       13.281      279.873      499.057      176.381        0.180        0.048       50.294       13.270        0.070      334.108        3.863      869.408
01/20/2022  22:27:00       29.887      -41.270      -25.082       28.832       40.122       25.997      831.275     1609.775      675.844        0.317        0.156       50.955       13.144        0.067      334.276        4.142      869.399
01/20/2022  22:28:00       10.741      -27.307      -20.444       19.483       29.509       18.187      379.590      870.766      330.749        0.143        0.079       29.344       10.346        0.124      334.266        4.124      869.397
01/20/2022  22:29:00       20.427        6.340      -14.196       22.329       10.929        7.436      498.588      119.434       55.297        0.067        0.034       21.388        5.105        0.057      334.285        4.156      869.369
01/20/2022  22:30:00       40.579        5.036       -8.040       18.774        5.422        6.237      352.477       29.399       38.905        0.108        0.021       40.891        5.214        0.016      334.289        4.162      869.332
01/20/2022  22:31:00      -16.459      -12.875       -7.557       10.401        9.564       12.407      108.175       91.478      153.927        0.042        0.018       20.897        7.910        0.143      334.398        4.343      869.303
01/20/2022  22:32:00      -24.319        9.093       -6.781       11.907       19.725       10.134      141.766      389.072      102.706        0.068        0.032       25.964        7.879        0.092      334.287        4.160      869.279
01/20/2022  22:33:00       17.974       29.116       -8.138       27.204        9.536        5.531      740.067       90.928       30.590        0.105        0.043       34.217        4.391        0.016      334.230        4.065      869.259
01/20/2022  22:34:00       27.238       32.535       -2.015       29.174       14.896        8.973      851.148      221.881       80.518        0.148        0.058       42.431        8.542        0.041      334.267        4.125      869.250
01/20/2022  22:35:00      -16.331       43.840       -8.274       18.990       19.544        8.982      360.610      381.980       80.682        0.154        0.041       46.783        4.737        0.010      334.391        4.331      869.252
01/20/2022  22:36:00      -34.664       -3.787       -9.772       25.362       21.867       13.941      643.236      478.145      194.353        0.131        0.066       34.870       11.635        0.111      334.255        4.107      869.236
01/20/2022  22:37:00      -18.640        8.822       -1.830       28.655       28.653       21.029      821.111      821.007      442.235        0.126        0.104       20.622        7.311        0.126      334.116        3.876      869.200
01/20/2022  22:38:00      -60.400       15.048       -5.956       32.235       31.474       22.301     1039.091      990.621      497.352        0.322        0.126       62.246       21.304        0.117      334.121        3.886      869.180
01/20/2022  22:39:00      -85.103       33.720       -9.698       19.081       24.610       16.008      364.066      605.653      256.254        0.485        0.061       91.540       10.872        0.014      334.024        3.723      869.153
01/20/2022  22:40:00      -45.902       16.177       -6.067       10.563       12.016        8.712      111.575      144.374       75.901        0.137        0.017       48.669        6.677        0.019      334.141        3.916      869.128
01/20/2022  22:41:00      -65.775       20.108      -16.829       18.877        9.841        6.029      356.329       96.838       36.349        0.275        0.024       68.780        7.114        0.011      334.178        3.978      869.115
01/20/2022  22:42:00     -108.729       22.745      -20.778       15.464       16.184       15.649      239.121      261.926      244.877        0.676        0.037      111.082        9.606        0.007      334.072        3.803      869.111
01/20/2022  22:43:00     -120.431       46.707      -17.733       23.827       22.093       21.236      567.745      488.107      450.957        0.925        0.075      129.171       17.376        0.018      333.920        3.550      869.125
01/20/2022  22:44:00      -49.233       48.983       -8.688       29.072       27.328       17.997      845.172      746.827      323.876        0.341        0.096       69.449       13.804        0.040      333.868        3.466      869.150
01/20/2022  22:45:00      -45.965      -36.115      -14.555       20.402       34.176       19.807      416.250     1167.971      392.312        0.280        0.099       58.456       16.037        0.075      333.792        3.339      869.161
01/20/2022  22:46:00      -42.785      -49.599      -21.275       16.826       24.292       12.357      283.107      590.115      152.686        0.288        0.051       65.502        9.008        0.019      333.860        3.452      869.165
01/20/2022  22:47:00      -36.239        2.586       -6.737       15.577       29.699       11.014      242.654      882.048      121.319        0.131        0.062       36.331        9.686        0.071      334.189        3.997      869.162
01/20/2022  22:48:00      -54.525       42.638      -10.819       15.632       14.845       10.992      244.363      220.378      120.832        0.275        0.029       69.217        8.639        0.016      334.032        3.737      869.182
01/20/2022  22:49:00      -53.447       29.607      -20.059       10.769       17.288       12.804      115.973      298.869      163.941        0.236        0.029       61.100       11.126        0.033      333.983        3.658      869.199
01/20/2022  22:50:00      -45.740       11.957      -14.770        8.711       16.449        8.728       75.875      270.578       76.182        0.144        0.021       47.277        4.047        0.007      333.921        3.553      869.238
01/20/2022  22:51:00      -29.577       31.417      -11.656       11.677        8.130        6.731      136.348       66.097       45.302        0.112        0.012       43.149        4.704        0.012      333.993        3.672      869.278
01/20/2022  22:52:00       16.723       22.304       -4.253       23.896        7.830       10.508      571.022       61.301      110.421        0.077        0.037       27.878        5.449        0.038      334.236        4.075      869.288
01/20/2022  22:53:00       43.066       18.068       -9.705       16.307       30.151       10.286      265.903      909.100      105.810        0.178        0.064       46.702        9.989        0.046      334.106        3.859      869.298
01/20/2022  22:54:00        2.107       13.182      -12.521        9.523       13.597        6.513       90.691      184.873       42.418        0.033        0.016       13.349        3.660        0.075      334.110        3.866      869.301
01/20/2022  22:55:00       13.873       -3.096       -3.577       19.189        6.782       12.872      368.232       45.994      165.689        0.040        0.029       14.214        8.197        0.333      334.018        3.714      869.292
01/20/2022  22:56:00       39.206        0.888      -11.299       28.085       19.551       13.880      788.741      382.234      192.656        0.151        0.068       39.216        1.274        0.001      333.689        3.168      869.274
01/20/2022  22:57:00       58.597        3.023      -10.676       17.443       12.081        9.667      304.272      145.949       93.455        0.205        0.027       58.675        9.220        0.025      333.659        3.118      869.247
01/20/2022  22:58:00       28.141      -19.300       -5.326        9.148        6.446        8.838       83.680       41.556       78.110        0.070        0.010       34.123        5.921        0.030      333.941        3.587      869.208
01/20/2022  22:59:00       11.150      -10.091      -13.227       15.699       11.918       12.371      246.448      142.044      153.041        0.047        0.027       15.038       10.949        0.530      333.828        3.398      869.198
01/20/2022  23:00:00        2.781       -1.051       -7.140       10.354       13.900        5.750      107.198      193.201       33.066        0.020        0.017        2.973        4.588        2.381      333.881        3.487      869.197
01/20/2022  23:01:00       11.690       -6.549       -7.297       10.526       16.998        7.592      110.788      288.936       57.638        0.034        0.023       13.400        8.570        0.409      333.871        3.471      869.211
01/20/2022  23:02:00        6.351        4.480       -4.048        5.993       12.485        4.674       35.920      155.879       21.844        0.015        0.011        7.772        5.494        0.500      333.943        3.590      869.213
01/20/2022  23:03:00        6.902       29.255      -11.208        6.484        9.281        5.873       42.041       86.139       34.494        0.060        0.008       30.058        5.184        0.030      334.131        3.901      869.209
01/20/2022  23:04:00      -16.578       33.830       -4.368        9.105        7.175        4.935       82.907       51.483       24.355        0.080        0.008       37.674        2.139        0.003      334.139        3.915      869.211
01/20/2022  23:05:00       -7.668       40.222       -3.328       22.261       18.857       12.023      495.551      355.574      144.562        0.134        0.050       40.946        9.697        0.056      334.226        4.059      869.229
01/20/2022  23:06:00       -8.068       62.302       -5.023       20.704       22.578       12.308      428.649      509.754      151.486        0.253        0.054       62.822        7.568        0.015      334.470        4.463      869.258
01/20/2022  23:07:00        1.581       85.400      -13.685       15.144       18.055       11.727      229.355      325.972      137.511        0.409        0.035       85.414        6.163        0.005      334.865        5.120      869.281
01/20/2022  23:08:00      -44.265       30.788      -13.284       18.749       16.971       13.412      351.516      288.021      179.885        0.195        0.041       53.919       10.891        0.041      333.951        3.602      869.316
01/20/2022  23:09:00      -12.463       67.618      -14.401       21.989       24.305       11.867      483.516      590.718      140.819        0.307        0.061       68.757        4.390        0.004      334.578        4.644      869.361
01/20/2022  23:10:00      -29.621       36.484      -14.268       18.329       26.389        9.305      335.949      696.383       86.592        0.177        0.056       46.995       11.727        0.062      334.507        4.525      869.409
01/20/2022  23:11:00      -21.884       19.139       -2.229       17.029       13.086       13.835      290.002      171.247      191.402        0.075        0.033       29.072        7.654        0.069      334.314        4.204      869.438
01/20/2022  23:12:00      -34.687       22.755       -7.353       25.302       16.028       11.364      640.206      256.898      129.137        0.140        0.051       41.485        6.447        0.024      334.190        3.999      869.444
01/20/2022  23:13:00      -52.890       27.930       -6.629       24.001       14.116        7.466      576.048      199.248       55.743        0.223        0.042       59.812        3.221        0.003      334.117        3.878      869.437
01/20/2022  23:14:00      -17.841       18.687       -1.174       19.334       27.718       14.539      373.785      768.313      211.388        0.101        0.068       25.836        9.050        0.123      334.492        4.500      869.432
01/20/2022  23:15:00      -32.081       40.276       -3.152       26.005       29.198       17.299      676.236      852.507      299.248        0.224        0.091       51.492       12.892        0.063      334.441        4.415      869.406
01/20/2022  23:16:00      -48.391       27.167      -14.633       22.985       18.381       12.049      528.291      337.871      145.175        0.215        0.051       55.495        5.226        0.009      334.242        4.086      869.383
01/20/2022  23:17:00      -38.821        6.480       -1.014       37.357       19.713       15.379     1395.542      388.611      236.499        0.179        0.101       39.358       18.482        0.221      334.140        3.915      869.351
01/20/2022  23:18:00        1.634       -0.258       -6.791       24.643       15.425       20.259      607.271      237.936      410.422        0.065        0.063        1.655       14.084       72.439      334.165        3.959      869.322
01/20/2022  23:19:00       -3.160       18.956       -0.132       33.754       22.915       23.505     1139.313      525.113      552.488        0.129        0.111       19.218       19.155        0.994      334.107        3.862      869.305
01/20/2022  23:20:00      -31.693       56.528      -15.462       29.173       44.985       21.120      851.036     2023.692      446.046        0.388        0.166       64.807       11.772        0.033      334.540        4.577      869.295
01/20/2022  23:21:00      -36.604       70.757      -13.393       44.018       54.001       22.532     1937.618     2916.113      507.670        0.594        0.268       79.664        8.825        0.012      334.558        4.608      869.278
01/20/2022  23:22:00       -7.660      121.139      -14.983       45.376       52.155       33.784     2059.004     2720.117     1141.371        1.044        0.296      121.381       19.979        0.027      334.582        4.649      869.263
01/20/2022  23:23:00      -37.094       45.318      -12.629       19.499       33.182       19.213      380.220     1101.075      369.134        0.272        0.093       58.563       14.753        0.063      334.346        4.257      869.245
01/20/2022  23:24:00       -2.918       12.846       -6.903       40.949       29.996       22.518     1676.784      899.766      507.062        0.165        0.154       13.173        3.755        0.081      334.514        4.535      869.235
01/20/2022  23:25:00      -48.880       58.585      -14.651       41.960       46.446       27.701     1760.678     2157.244      767.342        0.536        0.234       76.299       15.919        0.044      334.559        4.611      869.233
01/20/2022  23:26:00      -10.499       16.874       -8.760       20.106       19.394       17.089      404.239      376.136      292.046        0.077        0.054       19.874       14.801        0.555      334.284        4.153      869.212
01/20/2022  23:27:00      -17.250        2.318      -12.099       30.235       20.999       17.843      914.134      440.943      318.374        0.106        0.084       17.405       10.173        0.342      334.501        4.514      869.172
01/20/2022  23:28:00      -19.899        5.808       -8.873       22.159       11.337        9.073      491.021      128.530       82.319        0.061        0.035       20.729        7.581        0.134      334.248        4.095      869.131
01/20/2022  23:29:00      -20.611      -29.467      -11.335       13.942       18.282        6.844      194.386      334.219       46.843        0.100        0.029       35.960        1.608        0.002      334.068        3.799      869.100
01/20/2022  23:30:00        1.772       -4.038      -14.954       10.613       10.975       10.785      112.645      120.445      116.322        0.030        0.017        4.410        4.581        1.079      334.022        3.722      869.109
01/20/2022  23:31:00       20.738      -21.504      -14.345       14.837       14.240       12.012      220.123      202.787      144.279        0.083        0.028       29.874        9.169        0.094      333.867        3.464      869.128
01/20/2022  23:32:00       38.357      -36.947      -20.363       23.725       32.673       14.893      562.854     1067.535      221.800        0.255        0.093       53.257        8.912        0.028      333.733        3.241      869.154
01/20/2022  23:33:00       41.472      -42.327      -19.052       15.891       35.433       13.052      252.512     1255.471      170.366        0.278        0.084       59.258        5.354        0.008      333.842        3.423      869.188
01/20/2022  23:34:00       51.466      -40.029      -19.922       23.037       31.547       14.266      530.718      995.187      203.524        0.319        0.086       65.200       12.522        0.037      333.843        3.424      869.213
01/20/2022  23:35:00        6.702      -34.410       -8.243       32.929       28.835       25.895     1084.294      831.461      670.567        0.194        0.129       35.056       11.303        0.104      334.106        3.860      869.238
01/20/2022  23:36:00       23.705      -43.384      -10.603       22.747       17.073       15.884      517.429      291.494      252.303        0.181        0.053       49.438       15.571        0.099      334.005        3.692      869.267
01/20/2022  23:37:00       19.320      -61.717       -6.422       16.696       15.685       15.215      278.743      246.014      231.486        0.249        0.038       64.671       13.589        0.044      333.992        3.672      869.281
01/20/2022  23:38:00       14.552      -58.430      -12.734       18.992       17.783       10.404      360.694      316.253      108.244        0.229        0.039       60.214        5.337        0.008      334.060        3.784      869.279
01/20/2022  23:39:00       20.856      -21.480       -5.411       12.177       28.905        9.604      148.270      835.480       92.235        0.100        0.054       29.939       10.372        0.120      333.924        3.558      869.275
01/20/2022  23:40:00       10.844      -14.503      -12.545       23.727       45.160       27.136      562.960     2039.428      736.344        0.191        0.167       18.109       25.475        1.979      333.850        3.436      869.257
01/20/2022  23:41:00       32.597      -24.529      -14.818       28.626       32.638       23.483      819.462     1065.246      551.470        0.216        0.122       40.795       12.097        0.088      333.834        3.409      869.238
01/20/2022  23:42:00       60.493       -8.496      -12.540       26.731       16.658        8.685      714.536      277.478       75.433        0.248        0.053       61.087        5.284        0.007      333.689        3.170      869.232
01/20/2022  23:43:00       38.536      -20.649       -7.050       17.472       26.411       13.667      305.277      697.531      186.793        0.158        0.059       43.719       12.547        0.082      333.755        3.278      869.225
01/20/2022  23:44:00        9.773        4.911      -10.229       19.269       20.288        8.632      371.278      411.592       74.519        0.054        0.043       10.937        6.184        0.320      333.524        2.895      869.239
01/20/2022  23:45:00       50.446      -70.878      -10.550       29.476       25.944       14.852      868.816      673.096      220.578        0.472        0.088       86.997        9.566        0.012      334.095        3.840      869.234
01/20/2022  23:46:00       44.484      -31.727      -20.656       20.829       27.213       17.708      433.860      740.540      313.577        0.245        0.074       54.639        6.826        0.016      333.652        3.108      869.232
01/20/2022  23:47:00       42.921       -9.546      -13.460       30.220       20.011       16.333      913.236      400.450      266.764        0.185        0.079       43.970       14.631        0.111      333.724        3.229      869.245
01/20/2022  23:48:00       48.046       -8.646      -16.418       17.962       17.733       12.092      322.642      314.467      146.228        0.172        0.039       48.818        5.029        0.011      333.872        3.472      869.249
01/20/2022  23:49:00       58.009       28.850      -12.696       39.341       30.994       16.661     1547.741      960.618      277.577        0.357        0.139       64.787       16.674        0.066      333.911        3.537      869.277
01/20/2022  23:50:00       54.059       89.663       -6.842       51.505       67.907       31.502     2652.816     4611.293      992.386        0.963        0.413      104.698       29.565        0.080      334.323        4.218      869.277
01/20/2022  23:51:00       59.972      160.871      -20.933       45.381       68.216       37.836     2059.478     4653.453     1431.544        1.903        0.407      171.686       31.804        0.034      334.710        4.859      869.284
01/20/2022  23:52:00       52.512      242.060      -22.534       63.370       67.429       39.495     4015.801     4546.703     1559.888        3.599        0.506      247.690       29.009        0.014      334.999        5.339      869.294
01/20/2022  23:53:00       -6.636      201.095      -20.147       53.159       78.981       34.610     2825.857     6237.960     1197.868        2.557        0.513      201.205       37.781        0.035      335.086        5.485      869.291
01/20/2022  23:54:00       -5.542      283.344      -26.068       72.831       73.257       50.118     5304.320     5366.529     2511.806        4.709        0.659      283.398       41.128        0.021      335.203        5.677      869.281
01/20/2022  23:55:00      -44.646      242.644      -25.596       55.352       65.379       34.716     3063.878     4274.407     1205.186        3.503        0.427      246.718       34.318        0.019      335.221        5.706      869.260
01/20/2022  23:56:00      -57.895      222.152      -18.800       65.268       62.849       37.861     4259.858     3949.965     1433.436        3.135        0.482      229.572       18.981        0.007      335.308        5.852      869.241
01/20/2022  23:57:00      -60.251      195.901      -14.120       75.484       95.288       41.106     5697.760     9079.726     1689.692        2.933        0.823      204.957       39.453        0.037      335.233        5.729      869.230
01/20/2022  23:58:00      -53.635      295.435      -20.877       59.231       77.522       43.814     3508.354     6009.659     1919.669        5.101        0.572      300.264       33.201        0.012      335.283        5.810      869.228
01/20/2022  23:59:00      -44.353      273.595      -13.823       87.644      105.553       51.181     7681.387    11141.431     2619.461        4.922        1.072      277.167       44.925        0.026      335.277        5.800      869.234
01/21/2022  00:00:00      -48.812      306.450      -16.204       65.429       69.726       47.525     4280.982     4861.754     2258.586        5.398        0.570      310.313       38.849        0.016      335.353        5.926      869.264
01/21/2022  00:01:00      -94.757      296.122      -28.202       79.095       80.243       44.395     6256.023     6438.938     1970.927        5.606        0.733      310.913       38.238        0.015      335.391        5.990      869.309
01/21/2022  00:02:00      -58.149      296.055      -20.372       64.584       63.760       45.880     4171.152     4065.350     2105.018        5.089        0.517      301.712       37.289        0.015      335.344        5.910      869.367
01/21/2022  00:03:00      -84.152      316.078      -29.666       68.795       79.221       37.482     4732.697     6275.959     1404.930        6.014        0.621      327.089       39.427        0.015      335.311        5.857      869.409
01/21/2022  00:04:00      -49.840      256.641      -25.040       79.565       77.319       47.375     6330.643     5978.298     2244.413        4.176        0.728      261.436       36.185        0.019      335.295        5.829      869.407
01/21/2022  00:05:00      -49.332      205.244      -14.928       61.849       71.383       38.815     3825.316     5095.500     1506.636        2.760        0.521      211.090       30.162        0.020      335.306        5.849      869.365
01/21/2022  00:06:00      -60.543      211.298      -13.920       62.109       90.509       37.326     3857.469     8191.796     1393.195        3.097        0.672      219.800       38.488        0.031      335.314        5.860      869.308
01/21/2022  00:07:00      -73.395      174.610      -10.992       64.290       69.921       28.317     4133.245     4888.985      801.855        2.291        0.491      189.408       18.105        0.009      335.287        5.817      869.238
01/21/2022  00:08:00      -78.909      134.963       -9.655       66.673       81.577       33.459     4445.294     6654.852     1119.484        1.838        0.611      156.339       30.771        0.039      335.251        5.759      869.162
01/21/2022  00:09:00      -86.716      110.373      -12.132       58.122       48.689       32.121     3378.181     2370.660     1031.778        1.331        0.339      140.363       20.312        0.021      335.227        5.720      869.079
01/21/2022  00:10:00      -54.448       85.399       -7.569       56.548       52.184       35.204     3197.644     2723.144     1239.297        0.874        0.358      101.280       25.817        0.065      335.191        5.660      869.018
01/21/2022  00:11:00      -91.567      130.101      -24.465       52.984       60.204       33.726     2807.320     3624.484     1137.451        1.674        0.378      159.094       23.667        0.022      335.246        5.750      868.958
01/21/2022  00:12:00      -58.986       67.708       -7.748       55.965       50.233       33.219     3132.057     2523.306     1103.483        0.744        0.338       89.798       18.197        0.041      335.144        5.584      868.928
01/21/2022  00:13:00      -73.409      114.459      -22.617       52.749       64.262       30.097     2782.468     4129.631      905.818        1.341        0.391      135.977       28.039        0.043      335.210        5.690      868.935
01/21/2022  00:14:00      -62.713      113.519      -13.852       49.334       80.778       29.810     2433.830     6525.148      888.624        1.343        0.492      129.689       17.128        0.017      335.218        5.704      869.018
01/21/2022  00:15:00      -55.454      131.569      -18.882       46.808       65.458       33.668     2191.029     4284.767     1133.507        1.417        0.380      142.777       24.065        0.028      335.175        5.635      869.102
01/21/2022  00:16:00      -67.639      183.324      -23.106       50.815       56.847       41.828     2582.179     3231.569     1749.613        2.314        0.378      195.404       31.594        0.026      335.217        5.701      869.176
01/21/2022  00:17:00      -40.580      149.019       -6.739       41.484       45.596       23.854     1720.913     2079.024      569.031        1.413        0.218      154.446       15.039        0.009      335.156        5.603      869.219
01/21/2022  00:18:00      -65.183      136.684      -19.757       52.274       57.965       35.171     2732.531     3359.914     1236.978        1.532        0.366      151.431       20.426        0.018      335.151        5.594      869.232
01/21/2022  00:19:00      -62.467      113.953       -8.199       56.059       55.975       31.715     3142.660     3133.188     1005.820        1.212        0.364      129.951       20.464        0.025      335.110        5.525      869.217
01/21/2022  00:20:00      -62.569       80.553       -8.826       43.373       64.624       37.282     1881.226     4176.214     1389.920        0.896        0.372      101.998       20.800        0.042      335.007        5.355      869.164
01/21/2022  00:21:00      -42.601      137.269      -13.983       45.098       60.601       34.706     2033.828     3672.539     1204.509        1.388        0.346      143.727       24.339        0.029      335.038        5.407      869.068
01/21/2022  00:22:00      -67.452      165.430      -23.819       37.777       56.545       34.583     1427.132     3197.296     1195.983        1.915        0.291      178.653       23.503        0.017      335.118        5.539      868.934
01/21/2022  00:23:00      -51.898      104.391      -13.312       47.763       34.376       25.585     2281.288     1181.723      654.580        0.894        0.206      116.580        9.516        0.007      335.053        5.432      868.822
01/21/2022  00:24:00      -23.026      136.319      -14.652       32.272       65.562       27.662     1041.513     4298.433      765.212        1.272        0.305      138.250       24.766        0.032      335.015        5.369      868.762
01/21/2022  00:25:00      -47.177      202.374      -17.689       43.887       52.206       33.683     1926.031     2725.479     1134.538        2.464        0.289      207.800       24.241        0.014      335.117        5.538      868.759
01/21/2022  00:26:00      -26.222      217.920      -20.338       53.611       47.802       31.879     2874.181     2285.069     1016.267        2.738        0.309      219.492       23.384        0.011      335.102        5.510      868.797
01/21/2022  00:27:00      -34.677      189.890      -18.128       48.801       78.627       31.932     2381.533     6182.186     1019.646        2.358        0.479      193.031       26.133        0.018      335.115        5.532      868.808
01/21/2022  00:28:00      -29.376      183.686      -22.198       49.600       71.095       34.956     2460.111     5054.448     1221.927        2.191        0.437      186.020       29.261        0.025      335.187        5.653      868.798
01/21/2022  00:29:00       17.905      161.185      -17.802       49.715       55.349       28.320     2471.603     3063.524      802.045        1.648        0.317      162.176       24.946        0.024      335.191        5.660      868.768
01/21/2022  00:30:00       63.937      181.030      -23.364       42.706       50.854       28.752     1823.835     2586.148      826.669        2.132        0.262      191.989       26.097        0.018      335.159        5.605      868.716
01/21/2022  00:31:00       52.846      151.116      -24.782       34.325       45.531       26.035     1178.221     2073.096      677.816        1.509        0.196      160.090       19.342        0.015      335.121        5.544      868.657
01/21/2022  00:32:00       47.605      109.161      -13.805       39.599       43.743       29.168     1568.065     1913.426      850.772        0.935        0.217      119.090       24.206        0.041      335.031        5.395      868.601
01/21/2022  00:33:00       17.107       59.726       -3.575       26.625       32.532       18.640      708.893     1058.346      347.465        0.299        0.106       62.127       10.912        0.031      334.945        5.253      868.594
01/21/2022  00:34:00      -12.744       59.171      -16.026       27.030       31.900       27.218      730.598     1017.619      740.816        0.320        0.124       60.528       15.106        0.062      335.036        5.404      868.618
01/21/2022  00:35:00      -13.790      -38.499      -22.228       28.286       32.386       22.370      800.109     1048.829      500.427        0.226        0.117       40.894       20.230        0.245      334.966        5.288      868.643
01/21/2022  00:36:00      -37.094        0.801      -14.798       23.561       29.755       15.112      555.139      885.350      228.361        0.163        0.083       37.103       12.145        0.107      334.704        4.852      868.662
01/21/2022  00:37:00      -88.193      -28.141       -4.482       89.762       49.809       36.839     8057.207     2480.957     1357.133        1.024        0.595       92.574       39.588        0.183      334.366        4.289      868.628
01/21/2022  00:38:00     -171.857      -20.427      -14.131       71.313       48.151       42.662     5085.504     2318.547     1820.005        1.969        0.461      173.066       37.911        0.048      334.267        4.123      868.557
01/21/2022  00:39:00     -153.450      -14.132       -7.676       62.114       53.458       34.095     3858.208     2857.785     1162.471        1.584        0.394      154.099       31.904        0.043      334.237        4.075      868.531
01/21/2022  00:40:00     -109.437       -2.363       -3.612       52.914       43.346       32.894     2799.839     1878.911     1082.005        0.888        0.288      109.462       29.860        0.074      334.191        4.001      868.553
01/21/2022  00:41:00     -157.786      -31.512      -19.856       40.775       38.580       29.070     1662.621     1488.434      845.067        1.514        0.200      160.902       23.243        0.021      334.150        3.931      868.598
01/21/2022  00:42:00     -117.165      -29.342      -12.556       33.105       34.065       20.762     1095.908     1160.437      431.064        0.872        0.134      120.783       16.931        0.020      334.061        3.785      868.628
01/21/2022  00:43:00     -133.792       -5.114      -18.497       55.591       30.583       26.776     3090.312      935.306      716.953        1.150        0.237      133.890       24.853        0.034      334.048        3.764      868.655
01/21/2022  00:44:00      -98.017      -16.417       -6.232       72.984       32.353       38.291     5326.651     1046.686     1466.223        0.888        0.392       99.382       35.350        0.127      334.118        3.880      868.641
01/21/2022  00:45:00     -112.726      -25.653       -8.107       41.270       35.291       22.040     1703.236     1245.489      485.769        0.843        0.172      115.608       16.952        0.022      334.105        3.858      868.599
01/21/2022  00:46:00      -28.245       -0.697      -15.194       16.484       12.852       12.683      271.714      165.184      160.851        0.081        0.030       28.253        5.687        0.041      334.183        3.987      868.547
01/21/2022  00:47:00       45.932      -11.052      -12.222       17.529       11.567       10.527      307.274      133.785      110.826        0.147        0.028       47.243        7.967        0.028      333.915        3.546      868.542
01/21/2022  00:48:00       18.308        8.717      -14.211       10.518       20.521       11.809      110.625      421.102      139.444        0.064        0.034       20.277       12.199        0.362      334.030        3.733      868.668
01/21/2022  00:49:00       63.843       25.129       -9.895       19.020        7.399        6.868      361.745       54.747       47.168        0.263        0.023       68.611        2.899        0.002      334.037        3.747      868.807
01/21/2022  00:50:00       62.592       41.521       -6.383       20.067       17.537       13.370      402.680      307.555      178.756        0.329        0.044       75.112       13.677        0.033      333.831        3.405      868.913
01/21/2022  00:51:00       94.524       68.829      -14.069       31.827       23.518       25.169     1012.943      553.102      633.476        0.803        0.110      116.928       17.653        0.023      333.557        2.950      868.990
01/21/2022  00:52:00      151.147       99.578      -20.719       52.948       35.727       31.082     2803.465     1276.425      966.080        1.912        0.252      181.001       22.205        0.015      333.529        2.903      868.991
01/21/2022  00:53:00      102.748       34.250       -6.079       66.459       37.405       26.794     4416.856     1399.166      717.930        0.915        0.327      108.306       32.290        0.089      333.471        2.807      868.973
01/21/2022  00:54:00       60.557       18.175      -11.524       35.602       30.674       17.883     1267.528      940.900      319.808        0.333        0.126       63.226       20.904        0.109      333.341        2.592      868.983
01/21/2022  00:55:00       96.457       37.267      -17.939       41.291       38.868       23.398     1704.946     1510.684      547.489        0.739        0.188      103.406       15.082        0.021      333.629        3.069      868.977
01/21/2022  00:56:00       57.820       10.120      -13.223       49.155       57.104       46.896     2416.204     3260.903     2199.202        0.575        0.394       58.699       36.139        0.379      333.435        2.749      868.961
01/21/2022  00:57:00      105.765       22.225      -21.934       67.467       58.483       32.242     4551.779     3420.303     1039.559        1.058        0.451      108.075       25.856        0.057      333.535        2.914      868.975
01/21/2022  00:58:00      134.852       61.716       -0.879       53.051       36.248       33.156     2814.413     1313.921     1099.335        1.361        0.261      148.304       28.277        0.036      333.382        2.662      869.039
01/21/2022  00:59:00       50.387       59.756      -11.394       33.627       23.858       22.165     1130.765      569.208      491.273        0.421        0.110       78.164       17.410        0.050      333.467        2.803      869.040
01/21/2022  01:00:00       58.417       33.825      -11.695       24.286       30.033       22.276      589.833      901.959      496.214        0.334        0.099       67.504       13.412        0.039      333.598        3.020      869.020
01/21/2022  01:01:00       99.923       30.902      -19.490       22.261       21.232       16.352      495.537      450.785      267.400        0.627        0.061      104.592       10.263        0.010      333.654        3.111      868.984
01/21/2022  01:02:00       85.455      -12.303      -11.316       26.407       18.450       18.356      697.315      340.414      336.945        0.448        0.069       86.336       17.162        0.040      333.640        3.089      868.921
01/21/2022  01:03:00       43.102       -2.957       -3.001       38.835       25.122       17.790     1508.185      631.094      316.479        0.217        0.123       43.204       12.284        0.081      333.662        3.126      868.905
01/21/2022  01:04:00      -26.891       27.374       -5.234       21.275       19.267       14.863      452.620      371.215      220.909        0.127        0.052       38.372        7.611        0.039      333.626        3.064      868.952
01/21/2022  01:05:00       -0.626       17.518       -1.791       10.464       12.559        6.237      109.498      157.730       38.895        0.031        0.015       17.529        3.520        0.040      333.723        3.225      868.967
01/21/2022  01:06:00       31.762        1.777       -7.587       14.753       18.187       12.173      217.658      330.757      148.189        0.088        0.035       31.811       11.051        0.121      333.910        3.536      868.974
01/21/2022  01:07:00       28.453        2.112      -16.318       22.295       23.497       13.211      497.059      552.119      174.542        0.115        0.061       28.532        7.058        0.061      333.679        3.151      869.052
01/21/2022  01:08:00       43.773       41.017       -3.790       20.326       23.303       16.045      413.144      543.031      257.436        0.241        0.061       59.987       14.851        0.061      333.757        3.283      869.173
01/21/2022  01:09:00       45.944       63.108       -5.899       25.969       22.738       19.382      674.381      517.009      375.656        0.385        0.078       78.060       16.897        0.047      333.931        3.571      869.270
01/21/2022  01:10:00       45.231       60.319       -6.487       22.952       36.794       19.257      526.780     1353.776      370.849        0.399        0.113       75.394       16.283        0.047      333.976        3.645      869.295
01/21/2022  01:11:00       39.360       87.656       -9.963       22.768       23.482       14.744      518.404      551.402      217.379        0.531        0.064       96.087       11.517        0.014      334.133        3.904      869.298
01/21/2022  01:12:00       29.929      101.263       -6.589       16.385       25.451       12.097      268.472      647.772      146.333        0.613        0.053      105.593       10.168        0.009      334.363        4.287      869.312
01/21/2022  01:13:00       17.884       83.906       -6.202       18.404       17.937       11.957      338.692      321.733      142.965        0.410        0.040       85.791        3.844        0.002      334.416        4.372      869.338
01/21/2022  01:14:00        9.061       65.440       -3.778       18.225       19.810       16.083      332.155      392.442      258.661        0.268        0.049       66.064       11.324        0.029      334.448        4.426      869.348
01/21/2022  01:15:00       -3.438       47.798       -5.751       10.891       19.561       12.069      118.605      382.619      145.652        0.149        0.032       47.921        7.323        0.023      334.344        4.253      869.366
01/21/2022  01:16:00        1.005        6.894       -1.879       17.575        9.467        7.649      308.883       89.625       58.502        0.025        0.023        6.967        5.528        0.630      334.156        3.943      869.402
01/21/2022  01:17:00       45.392       18.155       -5.589        8.756        7.072        5.376       76.673       50.009       28.904        0.129        0.008       48.888        2.932        0.004      334.053        3.774      869.434
01/21/2022  01:18:00       34.527       15.794       -4.924       10.475       12.188        9.818      109.735      148.542       96.402        0.091        0.018       37.967        5.826        0.024      334.326        4.224      869.420
01/21/2022  01:19:00       10.444      -20.419       -8.794        8.930       20.320        9.255       79.744      412.899       85.656        0.059        0.029       22.935       11.159        0.237      334.113        3.871      869.409
01/21/2022  01:20:00      -20.545      -33.940      -16.094       18.506       12.996        7.262      342.483      168.891       52.731        0.120        0.028       39.673        3.199        0.007      333.968        3.632      869.416
01/21/2022  01:21:00      -40.655       -2.104      -12.147       16.199       12.846        7.937      262.421      165.012       62.990        0.115        0.025       40.709        6.490        0.025      333.988        3.665      869.422
01/21/2022  01:22:00      -95.709       -4.813      -15.808       34.831       27.963       23.710     1213.221      781.953      562.145        0.599        0.128       95.829       14.980        0.024      333.732        3.242      869.424
01/21/2022  01:23:00     -106.437      -37.573      -19.298       25.588       27.366       23.549      654.726      748.882      554.570        0.754        0.098      112.874       16.894        0.022      334.019        3.716      869.384
01/21/2022  01:24:00      -85.427      -62.699      -14.706       22.001       23.718       15.414      484.065      562.561      237.602        0.636        0.064      105.967       11.609        0.012      334.359        4.279      869.294
01/21/2022  01:25:00     -122.970        1.926      -11.596       35.295       27.688       22.011     1245.755      766.645      484.463        0.888        0.125      122.986        7.466        0.004      334.243        4.085      869.225
01/21/2022  01:26:00     -154.159       12.149      -22.015       33.084       33.428       21.221     1094.584     1117.417      450.340        1.353        0.133      154.637        7.473        0.002      334.234        4.070      869.201
01/21/2022  01:27:00      -74.458        5.318       -3.813       51.030       31.674       27.864     2604.105     1003.234      776.390        0.498        0.219       74.648       20.726        0.077      333.928        3.563      869.178
01/21/2022  01:28:00     -115.084       -4.573       -7.820       36.692       43.752       28.549     1346.271     1914.225      815.034        0.870        0.204      115.174       13.868        0.014      333.882        3.489      869.155
01/21/2022  01:29:00      -93.952      -23.175       -7.373       54.757       34.370       30.319     2998.370     1181.294      919.269        0.726        0.255       96.769       27.349        0.080      333.909        3.533      869.130
01/21/2022  01:30:00      -79.947       16.384       -5.247       37.306       25.712       22.228     1391.762      661.115      494.080        0.462        0.127       81.609       19.122        0.055      333.925        3.560      869.138
01/21/2022  01:31:00      -38.190       23.718        5.190       38.614       22.426       18.180     1491.041      502.943      330.529        0.219        0.116       44.956       18.398        0.167      333.692        3.175      869.184
01/21/2022  01:32:00      -46.739      -22.145      -10.437       40.202       39.074       16.808     1616.183     1526.804      282.501        0.310        0.171       51.720        7.132        0.019      333.863        3.459      869.219
01/21/2022  01:33:00       -1.701      -20.919      -10.488        9.872       21.533        9.978       97.466      463.669       99.557        0.061        0.033       20.988        8.097        0.149      333.830        3.402      869.180
01/21/2022  01:34:00       -4.667       -4.786       -4.101       20.336       16.045       13.513      413.547      257.453      182.606        0.046        0.043        6.685        3.814        0.325      333.802        3.356      869.093
01/21/2022  01:35:00      -52.792       -0.979        2.976       35.123       22.298       18.595     1233.654      497.211      345.783        0.244        0.104       52.801       14.872        0.079      333.739        3.252      869.076
01/21/2022  01:36:00      -60.640       49.798       -6.567       35.326       22.712       14.178     1247.926      515.825      201.023        0.408        0.098       78.467       15.104        0.037      333.665        3.129      869.157
01/21/2022  01:37:00      -62.767       23.771       -1.585       34.563       19.493       16.881     1194.572      379.976      284.979        0.318        0.093       67.118       19.901        0.088      333.600        3.021      869.232
01/21/2022  01:38:00       -2.725        3.751      -10.579       21.316       25.768       20.632      454.378      664.007      425.695        0.084        0.077        4.636       15.012       10.486      333.607        3.033      869.187
01/21/2022  01:39:00      -55.106       -0.227       -4.288       49.613       31.864       28.025     2461.498     1015.284      785.423        0.366        0.213       55.106       21.752        0.156      333.510        2.873      869.120
01/21/2022  01:40:00      -39.730       -6.795        1.608       36.736       28.057       20.816     1349.536      787.175      433.308        0.210        0.129       40.307       20.995        0.271      333.481        2.824      869.099
01/21/2022  01:41:00      -41.412       38.159       -0.482       38.858       36.884       18.743     1509.916     1360.435      351.288        0.320        0.161       56.312       18.654        0.110      333.421        2.726      869.072
01/21/2022  01:42:00      -98.987       19.338      -14.873       63.759       44.808       28.284     4065.150     2007.734      799.961        0.863        0.344      100.858       17.116        0.029      333.225        2.401      869.011
01/21/2022  01:43:00      -33.940      -14.403      -10.152       78.671       59.129       44.904     6189.175     3496.233     2016.409        0.658        0.585       36.869       30.000        0.662      333.272        2.479      868.961
01/21/2022  01:44:00     -196.119      -98.838      -24.599       46.579       59.936       26.665     2169.646     3592.296      711.026        2.765        0.324      219.617       21.220        0.009      334.377        4.304      868.879
01/21/2022  01:45:00     -131.904     -117.728      -14.397       50.931       49.106       36.804     2594.000     2411.441     1354.552        1.891        0.318      176.801       25.757        0.021      334.637        4.740      868.836
01/21/2022  01:46:00     -181.794      -59.501      -19.811       78.700       49.993       40.389     6193.656     2499.341     1631.290        2.365        0.516      191.284       22.298        0.014      334.612        4.697      868.851
01/21/2022  01:47:00     -109.522      -43.495       -8.215       57.513       45.662       29.361     3307.786     2085.003      862.042        1.010        0.313      117.843       29.633        0.063      334.477        4.476      868.891
01/21/2022  01:48:00      -61.190       14.458       -2.346       35.738       25.885       20.465     1277.225      670.033      418.823        0.316        0.118       62.875       12.333        0.038      334.290        4.165      868.934
01/21/2022  01:49:00      -95.885       26.621      -12.284       31.886       25.532       18.438     1016.702      651.874      339.945        0.603        0.100       99.512       20.112        0.041      334.182        3.984      868.925
01/21/2022  01:50:00     -104.808       38.830      -12.177       25.331       21.484       20.311      641.646      461.543      412.520        0.708        0.076      111.770        9.081        0.007      334.572        4.633      868.897
01/21/2022  01:51:00      -35.047       75.015       -5.049       21.999       15.858       10.021      483.939      251.473      100.425        0.386        0.042       82.798        9.084        0.012      334.622        4.716      868.892
01/21/2022  01:52:00      -40.678       85.169       -3.023       16.652       22.730       11.691      277.279      516.640      136.671        0.492        0.047       94.384        9.411        0.010      334.845        5.085      868.887
01/21/2022  01:53:00      -55.481       23.159      -14.329       16.213       37.360       11.007      262.868     1395.734      121.159        0.280        0.089       60.121        6.581        0.012      334.078        3.814      868.848
01/21/2022  01:54:00      -82.644       26.743      -11.941       23.962       18.482       13.449      574.193      341.586      180.879        0.439        0.055       86.863       10.464        0.015      333.896        3.513      868.836
01/21/2022  01:55:00      -36.589       14.578      -16.793       18.513       15.654       18.231      342.745      245.033      332.382        0.138        0.046       39.386       13.999        0.126      333.589        3.003      868.873
01/21/2022  01:56:00       14.990       82.337       -8.503       22.820       29.411       14.671      520.773      865.016      215.229        0.434        0.080       83.690        7.757        0.009      334.105        3.857      868.964
01/21/2022  01:57:00        9.097       53.869      -12.457       25.861       27.214       14.686      668.784      740.595      215.688        0.238        0.081       54.632       13.271        0.059      333.990        3.668      869.038
01/21/2022  01:58:00       22.764      119.458      -16.867       41.160       44.030       21.286     1694.153     1938.607      453.090        0.958        0.204      121.607        8.794        0.005      333.654        3.111      869.121
01/21/2022  01:59:00       22.248       87.057       -3.788       39.240       53.327       27.688     1539.758     2843.719      766.606        0.662        0.258       89.854       25.009        0.077      333.395        2.682      869.203
01/21/2022  02:00:00       11.353       81.453      -10.164       39.674       62.024       19.557     1573.995     3846.917      382.473        0.633        0.290       82.240       24.369        0.088      333.676        3.146      869.249
01/21/2022  02:01:00       55.020       74.959       -9.411       20.752       46.822       18.192      430.642     2192.284      330.955        0.584        0.148       92.984       19.130        0.042      333.941        3.587      869.278
01/21/2022  02:02:00       45.147        3.858      -16.099       40.741       52.803       31.828     1659.851     2788.126     1012.997        0.389        0.273       45.311       19.190        0.179      333.227        2.405      869.332
01/21/2022  02:03:00       65.257      -15.024       -5.242       77.001       58.704       42.857     5929.216     3446.153     1836.686        0.786        0.561       66.964       34.429        0.264      332.946        1.938      869.404
01/21/2022  02:04:00      159.003        3.181      -11.521      110.290       71.540       41.509    12163.801     5117.951     1722.988        2.221        0.950      159.034       32.836        0.043      332.945        1.936      869.423
01/21/2022  02:05:00       53.213       17.553      -13.699       45.402       39.050       25.965     2061.304     1524.897      674.164        0.379        0.213       56.034       10.554        0.035      332.891        1.849      869.395
01/21/2022  02:06:00      108.987       14.067      -14.175       59.337       49.822       33.572     3520.863     2482.250     1127.062        0.970        0.357      109.891       27.871        0.064      333.138        2.258      869.348
01/21/2022  02:07:00       66.676       74.606       -9.823       39.210       26.059       21.760     1537.458      679.081      473.500        0.640        0.135      100.058       17.378        0.030      333.430        2.742      869.322
01/21/2022  02:08:00       86.084       99.359      -18.462       31.936       36.422       23.631     1019.929     1326.573      558.406        1.026        0.145      131.464       21.509        0.027      333.811        3.371      869.315
01/21/2022  02:09:00       24.162       91.287       -8.486       33.640       37.338       21.729     1131.628     1394.101      472.144        0.599        0.150       94.431       17.244        0.033      333.849        3.434      869.273
01/21/2022  02:10:00       -7.489       31.892       -7.979       33.277       15.330       15.506     1107.357      235.004      240.435        0.136        0.079       32.760        8.729        0.071      333.743        3.258      869.175
01/21/2022  02:11:00      -41.514       23.149      -13.852       20.120       15.239       12.979      404.817      232.225      168.460        0.163        0.040       47.532       11.489        0.058      333.155        2.285      869.117
01/21/2022  02:12:00      -24.694       39.180       -4.628       12.717       10.320       10.879      161.726      106.511      118.362        0.128        0.019       46.313        3.532        0.006      333.530        2.907      869.085
01/21/2022  02:13:00      -83.188       33.827      -18.605       33.559       24.561       21.041     1126.226      603.243      442.707        0.529        0.109       89.802       16.686        0.035      333.466        2.800      869.044
01/21/2022  02:14:00     -105.529       22.747      -17.312       20.240       20.368       14.852      409.657      414.858      220.577        0.650        0.052      107.953       11.026        0.010      333.477        2.818      869.048
01/21/2022  02:15:00      -70.061       54.222      -15.180       18.715       20.853       14.302      350.263      434.856      204.542        0.453        0.049       88.592        4.762        0.003      333.527        2.901      869.086
01/21/2022  02:16:00      -23.963       73.470      -15.259       23.242       40.361       14.882      540.212     1629.025      221.479        0.430        0.120       77.279        9.047        0.014      334.338        4.246      869.107
01/21/2022  02:17:00      -48.723       36.489      -15.224       32.498       32.317       20.618     1056.114     1044.397      425.098        0.323        0.126       60.872       10.659        0.031      333.942        3.590      869.103
01/21/2022  02:18:00      -57.743       12.591      -15.650       68.119       52.863       34.273     4640.226     2794.543     1174.647        0.617        0.430       59.100       34.717        0.345      333.278        2.488      869.093
01/21/2022  02:19:00     -114.697       41.312      -18.077       34.128       30.248       25.540     1164.724      914.924      652.280        0.896        0.137      121.911       12.318        0.010      333.525        2.898      869.091
01/21/2022  02:20:00      -76.707       37.301      -15.305       25.837       19.435       20.041      667.562      377.729      401.660        0.448        0.072       85.296       12.258        0.021      333.531        2.908      869.093
01/21/2022  02:21:00      -51.303       68.464       -7.169       19.011       25.301       13.039      361.426      640.137      170.020        0.427        0.059       85.553        9.254        0.012      334.191        4.001      869.073
01/21/2022  02:22:00      -24.850      117.462       -9.140       19.752       34.800       13.715      390.157     1211.012      188.109        0.814        0.089      120.062       12.736        0.011      334.421        4.382      869.050
01/21/2022  02:23:00      -21.747       98.199      -10.823       26.960       37.174       16.514      726.816     1381.930      272.724        0.631        0.119      100.578       10.428        0.011      334.466        4.457      869.023
01/21/2022  02:24:00      -25.044        2.789      -14.156       13.696       15.034       15.780      187.567      226.030      249.014        0.075        0.033       25.198        8.588        0.116      333.670        3.137      869.005
01/21/2022  02:25:00       29.337       36.642       -5.043       29.659       26.160       11.280      879.669      684.365      127.235        0.196        0.085       46.939       11.170        0.057      334.001        3.686      869.030
01/21/2022  02:26:00       52.930       72.631       -9.181       21.918       23.071       15.472      480.385      532.260      239.379        0.471        0.063       89.872       15.277        0.029      334.370        4.297      869.082
01/21/2022  02:27:00       18.805       43.699       -4.614       21.303       24.246       15.428      453.837      587.862      238.036        0.178        0.064       47.574       15.895        0.112      334.302        4.184      869.105
01/21/2022  02:28:00      -29.616       29.283      -13.612       21.084       14.222       11.703      444.540      202.268      136.959        0.135        0.039       41.648        6.020        0.021      334.078        3.812      869.110
01/21/2022  02:29:00      -59.276       25.606      -12.682       16.751       12.756        6.383      280.589      162.711       40.737        0.241        0.024       64.571        6.081        0.009      334.033        3.738      869.114
01/21/2022  02:30:00      -69.134        1.809      -19.894       14.244       19.095       13.527      202.892      364.622      182.984        0.296        0.038       69.157        9.324        0.018      333.780        3.319      869.133
01/21/2022  02:31:00      -40.057       19.740      -16.314       30.388       22.662       13.177      923.456      513.554      173.621        0.194        0.081       44.657        4.574        0.010      334.556        4.605      869.160
01/21/2022  02:32:00      -16.175       -4.801       -3.303       18.555        9.911       14.551      344.294       98.227      211.734        0.047        0.033       16.872        9.876        0.343      334.187        3.995      869.180
01/21/2022  02:33:00       -2.345       -2.919      -14.706        9.132       13.547       10.150       83.395      183.515      103.024        0.030        0.018        3.744        8.604        5.280      334.374        4.304      869.174
01/21/2022  02:34:00      147.945      -17.229      -20.308       73.813       40.565       24.485     5448.301     1645.538      599.521        1.514        0.385      148.945       12.852        0.007      334.870        5.128      869.149
01/21/2022  02:35:00       96.270      -33.016      -17.248       63.672       50.428       44.803     4054.146     2542.991     2007.300        0.963        0.430      101.774       32.983        0.105      334.953        5.266      869.131
01/21/2022  02:36:00       71.330      -45.315      -26.837       37.649       47.649       25.447     1417.457     2270.429      647.528        0.610        0.217       84.506       16.432        0.038      335.092        5.500      869.143
01/21/2022  02:37:00       45.496      -96.604      -26.333       39.191       67.236       26.892     1535.945     4520.679      723.183        0.944        0.339      106.781       24.107        0.051      335.101        5.513      869.143
01/21/2022  02:38:00      142.819        1.094      -16.881       43.360       39.025       26.179     1880.116     1522.932      685.360        1.239        0.204      142.823       13.544        0.009      334.238        4.077      869.115
01/21/2022  02:39:00       99.506      -32.248       -5.478       58.327       26.385       21.355     3402.045      696.165      456.028        0.776        0.228      104.601       14.965        0.020      334.293        4.170      869.088
01/21/2022  02:40:00       44.252      -18.198       -1.394       57.446       31.523       37.646     3300.060      993.695     1417.241        0.400        0.286       47.848       37.626        0.618      334.263        4.121      869.095
01/21/2022  02:41:00       35.443        1.644        0.729       40.527       28.979       29.503     1642.467      839.797      870.449        0.231        0.168       35.481       21.731        0.375      334.453        4.435      869.106
01/21/2022  02:42:00       29.021       12.951        4.018       33.039       26.231       13.327     1091.588      688.071      177.611        0.149        0.098       31.779        8.589        0.073      334.294        4.172      869.112
01/21/2022  02:43:00      -21.595       66.554       -8.303       23.252       27.973       13.691      540.671      782.513      187.445        0.324        0.076       69.970        8.907        0.016      333.997        3.680      869.087
01/21/2022  02:44:00      -70.641       27.779      -20.646       15.564       12.872       10.306      242.235      165.676      106.218        0.335        0.026       75.907        6.583        0.008      333.340        2.592      869.048
01/21/2022  02:45:00      -94.937       38.962      -22.063       20.900       16.342       14.345      436.806      267.062      205.785        0.596        0.045      102.621        3.494        0.001      333.238        2.422      869.029
01/21/2022  02:46:00      -90.559       38.157      -13.709       20.145       16.662       13.747      405.816      277.624      188.975        0.536        0.044       98.269       11.653        0.014      333.504        2.863      869.009
01/21/2022  02:47:00      -38.311       13.880      -11.365       27.911        9.808       14.140      779.046       96.196      199.942        0.143        0.054       40.748       14.855        0.133      333.563        2.961      869.044
01/21/2022  02:48:00       21.771       23.543       -3.813       23.061       19.068       11.282      531.801      363.597      127.277        0.103        0.051       32.067       10.697        0.111      334.127        3.895      869.087
01/21/2022  02:49:00       44.962       69.796       -8.763       20.365       18.457       10.251      414.716      340.659      105.086        0.392        0.043       83.025        4.991        0.004      333.883        3.491      869.102
01/21/2022  02:50:00       18.967       80.451       -6.263       17.358       15.692       14.561      301.293      246.239      212.014        0.382        0.038       82.657       10.542        0.016      334.313        4.202      869.085
01/21/2022  02:51:00        0.595       65.067       -4.238       27.914       20.904       15.307      779.176      436.991      234.313        0.285        0.073       65.070       10.435        0.026      334.183        3.987      869.081
01/21/2022  02:52:00      -51.513       22.403       -9.595       42.926       21.210       22.692     1842.638      449.880      514.912        0.303        0.140       56.174       19.239        0.117      333.376        2.652      869.071
01/21/2022  02:53:00      -92.301       -4.138      -10.993       61.068       34.529       38.677     3729.333     1192.263     1495.883        0.754        0.321       92.393       31.772        0.118      333.006        2.041      869.053
01/21/2022  02:54:00      -68.985       -3.299        1.351       72.665       49.968       42.273     5280.183     2496.756     1787.032        0.717        0.478       69.064       37.024        0.287      332.937        1.925      869.021
01/21/2022  02:55:00     -171.776       38.335       -7.115       56.090       50.028       35.161     3146.086     2502.771     1236.297        1.895        0.344      176.001       28.560        0.026      332.940        1.929      869.004
01/21/2022  02:56:00     -155.120       70.581        0.665       90.813       71.906       41.544     8246.942     5170.414     1725.910        2.209        0.757      170.423       36.061        0.045      332.986        2.003      868.972
01/21/2022  02:57:00     -106.245       13.895      -17.624      105.278       59.158       41.917    11083.500     3499.639     1757.009        1.406        0.817      107.150       40.801        0.145      333.151        2.278      868.947
01/21/2022  02:58:00      -74.176       20.280       -0.694       97.286       53.129       37.329     9464.535     2822.663     1393.439        0.979        0.684       76.898       38.415        0.250      333.325        2.568      868.949
01/21/2022  02:59:00     -172.760       35.322       -7.084       44.229       48.761       31.787     1956.244     2377.641     1010.395        1.824        0.267      176.334       23.869        0.018      333.486        2.833      868.966
01/21/2022  03:00:00     -133.562       33.371       -8.931       81.572       37.886       31.361     6654.028     1435.381      983.506        1.405        0.454      137.668       35.856        0.068      333.464        2.797      868.978
01/21/2022  03:01:00      -92.779       21.856        1.510       64.921       41.564       33.763     4214.771     1727.535     1139.924        0.808        0.354       95.318       26.392        0.077      333.510        2.873      868.981
01/21/2022  03:02:00     -104.293       47.695      -15.639       50.423       38.358       28.463     2542.526     1471.308      810.129        0.911        0.241      114.681       17.356        0.023      333.327        2.570      868.981
01/21/2022  03:03:00     -122.023       73.855      -11.994       57.070       49.782       27.468     3257.022     2478.257      754.507        1.349        0.324      142.633       22.760        0.025      333.128        2.240      868.959
01/21/2022  03:04:00     -149.099       72.816      -19.341       61.742       50.908       31.858     3812.023     2591.635     1014.929        1.766        0.371      165.929       29.142        0.031      333.084        2.167      868.904
01/21/2022  03:05:00      -96.333       22.462        6.944       63.842       51.328       37.213     4075.801     2634.593     1384.833        0.896        0.405       98.917       26.632        0.072      332.979        1.994      868.839
01/21/2022  03:06:00     -118.026       47.887       -1.362       50.650       38.862       31.644     2565.391     1510.228     1001.322        1.065        0.254      127.371       29.953        0.055      332.927        1.908      868.798
01/21/2022  03:07:00     -100.003       32.623        2.500       51.175       30.915       24.590     2618.843      955.756      604.661        0.762        0.209      105.189       24.542        0.054      333.008        2.043      868.775
01/21/2022  03:08:00     -126.584       16.015       -5.326       58.094       31.530       32.350     3374.918      994.128     1046.491        1.086        0.271      127.593       25.682        0.041      332.972        1.984      868.754
01/21/2022  03:09:00     -154.120       25.661        7.268       81.576       56.876       45.211     6654.711     3234.883     2044.001        1.820        0.597      156.241       37.614        0.058      333.316        2.551      868.720
01/21/2022  03:10:00     -162.492       48.013        3.058       67.302       44.614       37.319     4529.600     1990.428     1392.709        1.831        0.396      169.437       31.683        0.035      333.969        3.631      868.721
01/21/2022  03:11:00      -90.858       74.828      -14.468       37.980       62.051       28.599     1442.505     3850.388      817.896        1.009        0.306      117.705       17.218        0.021      333.591        3.007      868.769
01/21/2022  03:12:00      -79.218       68.793      -23.981       52.812       42.767       30.592     2789.114     1829.006      935.865        0.857        0.278      104.918       25.149        0.057      333.438        2.754      868.799
01/21/2022  03:13:00     -102.366       35.211      -36.478       61.751       61.261       43.760     3813.167     3752.969     1914.944        1.126        0.474      108.252       44.361        0.168      333.346        2.601      868.802
01/21/2022  03:14:00     -133.039       37.136      -27.925       57.639       35.197       33.853     3322.302     1238.827     1146.014        1.278        0.285      138.125       23.803        0.030      333.398        2.687      868.770
01/21/2022  03:15:00      -78.380       35.037       -3.047       38.762       44.918       23.026     1502.524     2017.625      530.183        0.571        0.203       85.855       19.429        0.051      333.324        2.565      868.780
01/21/2022  03:16:00      -22.954      138.335       -8.270       32.289       41.637       21.006     1042.581     1733.612      441.233        1.147        0.161      140.227       15.819        0.013      333.799        3.352      868.820
01/21/2022  03:17:00       -1.708      155.887      -18.431       23.049       30.216       15.002      531.242      912.979      225.051        1.316        0.083      155.896       12.919        0.007      334.754        4.934      868.868
01/21/2022  03:18:00      -21.259      132.792      -15.996       31.925       51.536       17.597     1019.228     2655.986      309.640        1.116        0.199      134.483       18.906        0.020      334.520        4.546      868.894
01/21/2022  03:19:00     -110.802       44.039      -22.752       56.532       49.088       31.781     3195.846     2409.613     1010.018        1.067        0.331      119.233       22.562        0.036      333.381        2.659      868.924
01/21/2022  03:20:00     -163.190       77.861      -11.972       61.049       38.700       29.550     3726.938     1497.706      873.184        1.947        0.305      180.813       31.797        0.031      333.757        3.280      868.953
01/21/2022  03:21:00     -134.024       70.929      -23.471       30.128       32.657       22.205      907.671     1066.457      493.081        1.301        0.123      151.635        6.695        0.002      333.862        3.457      868.962
01/21/2022  03:22:00     -129.349       68.442      -23.098       36.810       41.389       27.322     1355.005     1713.090      746.504        1.288        0.191      146.341       13.789        0.009      333.871        3.471      868.962
01/21/2022  03:23:00     -174.746      103.217      -35.729       45.028       42.155       31.241     2027.489     1777.027      975.993        2.362        0.239      202.953       25.443        0.016      333.796        3.344      868.966
01/21/2022  03:24:00     -116.877       71.766      -17.264       48.284       61.416       36.322     2331.307     3771.979     1319.317        1.326        0.371      137.152       24.401        0.032      333.887        3.497      868.926
01/21/2022  03:25:00      -14.081       -9.282       -5.784       22.907       29.865       19.277      524.737      891.928      371.601        0.105        0.089       16.865       12.749        0.571      333.852        3.438      868.855
01/21/2022  03:26:00     -113.555       19.879       -1.593       55.114       42.536       35.478     3037.547     1809.338     1258.698        0.970        0.305      115.282       26.100        0.051      333.698        3.184      868.842
01/21/2022  03:27:00     -107.190        9.077       -0.148       53.481       36.749       28.816     2860.197     1350.468      830.349        0.831        0.252      107.574       21.007        0.038      333.659        3.119      868.827
01/21/2022  03:28:00     -133.758       45.681      -16.225       42.135       42.776       26.071     1775.364     1829.802      679.703        1.226        0.214      141.343       20.947        0.022      333.673        3.143      868.809
01/21/2022  03:29:00     -148.960       44.447      -12.379       72.068       47.106       25.607     5193.866     2218.992      655.736        1.619        0.403      155.449       22.797        0.022      333.822        3.388      868.801
01/21/2022  03:30:00     -146.563      117.076      -19.615       71.462       56.394       44.338     5106.790     3180.256     1965.863        2.291        0.513      187.583       24.742        0.017      334.188        3.992      868.766
01/21/2022  03:31:00     -163.573       81.087      -16.855       75.648       43.272       26.910     5722.688     1872.490      724.125        2.097        0.416      182.568       18.911        0.011      334.126        3.893      868.748
01/21/2022  03:32:00     -116.361       28.801      -11.694       52.317       52.960       28.699     2737.094     2804.742      823.612        1.043        0.318      119.873       23.790        0.039      333.737        3.248      868.750
01/21/2022  03:33:00     -110.582       64.959       -2.001       64.841       42.880       36.587     4204.297     1838.654     1338.598        1.192        0.369      128.250       28.041        0.048      333.762        3.289      868.760
01/21/2022  03:34:00     -111.873       41.469       -2.319       88.101       47.965       37.220     7761.808     2300.661     1385.345        1.284        0.572      119.312       40.473        0.115      333.772        3.306      868.762
01/21/2022  03:35:00      -56.615        8.162       10.505       81.796       57.752       41.443     6690.588     3335.300     1717.508        0.756        0.587       57.201       31.442        0.302      333.786        3.330      868.761
01/21/2022  03:36:00     -166.877       43.734       -0.978       93.189       76.434       42.094     8684.249     5842.132     1771.879        2.303        0.815      172.513       39.552        0.053      333.945        3.590      868.764
01/21/2022  03:37:00     -157.745       56.671       -7.827       93.212       68.694       38.801     8688.506     4718.912     1505.537        2.153        0.746      167.616       34.941        0.043      334.018        3.712      868.769
01/21/2022  03:38:00     -114.691       27.671      -27.435       53.951       38.609       32.263     2910.669     1490.632     1040.891        1.006        0.272      117.982       18.925        0.026      333.841        3.421      868.785
01/21/2022  03:39:00      -42.018       52.390       -6.943       43.471       30.497       25.530     1889.690      930.070      651.758        0.401        0.174       67.158       20.864        0.097      333.784        3.327      868.774
01/21/2022  03:40:00      -87.906       77.313      -16.397       51.718       44.681       27.215     2674.711     1996.423      740.679        0.969        0.271      117.067       15.577        0.018      333.779        3.318      868.807
01/21/2022  03:41:00      -55.614       89.604       -8.249       45.174       57.525       25.188     2040.725     3309.166      634.450        0.859        0.299      105.460       18.144        0.030      333.849        3.434      868.851
01/21/2022  03:42:00      -47.326      102.839      -23.041       48.731       47.633       27.248     2374.754     2268.884      742.429        0.937        0.269      113.206       20.859        0.034      333.690        3.171      868.876
01/21/2022  03:43:00      -56.330       41.077       -2.966       41.189       45.665       32.324     1696.573     2085.301     1044.849        0.485        0.241       69.717       27.180        0.152      333.651        3.107      868.884
01/21/2022  03:44:00      -34.219       13.630       -0.312       34.547       36.494       26.347     1193.523     1331.838      694.167        0.229        0.161       36.834       19.692        0.286      333.539        2.921      868.888
01/21/2022  03:45:00      -30.070       22.674      -11.003       30.832       22.191       25.460      950.585      492.433      648.210        0.181        0.105       37.660       10.347        0.075      333.452        2.778      868.881
01/21/2022  03:46:00      -32.981       23.588       -5.136       36.838       27.700       24.687     1357.027      767.313      609.437        0.220        0.137       40.548       16.943        0.175      333.310        2.543      868.885
01/21/2022  03:47:00      -68.366       64.503      -26.879       25.031       42.699       19.895      626.565     1823.242      395.822        0.620        0.142       93.992       15.546        0.027      333.333        2.581      868.910
01/21/2022  03:48:00       12.918       92.801      -12.125       53.987       41.381       19.714     2914.565     1712.417      388.647        0.697        0.251       93.696       13.014        0.019      333.498        2.853      868.917
01/21/2022  03:49:00       52.331       61.215      -25.111       48.193       28.388       17.530     2322.610      805.853      307.314        0.528        0.172       80.534       17.713        0.048      333.594        3.010      868.906
01/21/2022  03:50:00      101.335       65.974       -9.331       26.884       21.883       21.094      722.734      478.873      444.956        0.818        0.082      120.919       16.357        0.018      333.467        2.802      868.904
01/21/2022  03:51:00       44.177       -0.804       -7.960       44.960       46.318       37.390     2021.359     2145.361     1397.976        0.379        0.278       44.184       27.159        0.378      333.458        2.785      868.898
01/21/2022  03:52:00       87.268        5.333      -12.204       88.369       73.798       51.622     7809.089     5446.116     2664.816        1.185        0.796       87.431       33.480        0.147      333.140        2.260      868.913
01/21/2022  03:53:00      113.401        4.692        5.654      112.872       60.036       40.723    12740.031     3604.349     1658.334        1.545        0.900      113.498       43.985        0.150      332.919        1.893      868.964
01/21/2022  03:54:00       92.424       -8.806      -10.382       83.308       41.101       39.641     6940.176     1689.328     1571.435        0.946        0.510       92.843       28.058        0.091      333.486        2.832      869.017
01/21/2022  03:55:00       82.880       -0.908      -10.399       44.792       41.538       24.773     2006.334     1725.419      613.680        0.566        0.217       82.885       21.335        0.066      333.526        2.899      869.027
01/21/2022  03:56:00       96.054      -54.651      -14.175       46.013       43.427       28.413     2117.159     1885.899      807.274        0.861        0.241      110.513       29.691        0.072      333.544        2.931      869.017
01/21/2022  03:57:00       65.955      -35.236      -22.344       53.225       39.114       26.671     2832.860     1529.900      711.341        0.558        0.254       74.777       17.493        0.055      333.452        2.778      869.003
01/21/2022  03:58:00       44.696      -16.803      -27.204       31.785       45.133       22.360     1010.277     2036.966      499.954        0.328        0.177       47.750        7.653        0.026      333.446        2.767      868.996
01/21/2022  03:59:00       76.238      -82.801      -30.263       37.809       27.264       23.736     1429.485      743.330      563.386        0.816        0.137      112.554       16.569        0.022      333.513        2.876      868.991
01/21/2022  04:00:00       98.560     -123.367      -20.680       46.150       64.215       34.290     2129.864     4123.597     1175.798        1.639        0.371      157.903       30.253        0.037      333.651        3.106      868.972
01/21/2022  04:01:00      142.836     -146.016      -50.077       47.930       64.578       37.182     2297.285     4170.267     1382.522        2.604        0.393      204.261       10.908        0.003      333.743        3.255      868.934
01/21/2022  04:02:00      135.735     -143.376      -50.156       57.955       58.136       31.045     3358.776     3379.819      963.820        2.460        0.385      197.435        8.665        0.002      333.674        3.141      868.921
01/21/2022  04:03:00      126.988     -198.936      -49.145       45.817       76.629       38.078     2099.223     5872.036     1449.964        3.377        0.471      236.012       25.118        0.011      333.709        3.198      868.933
01/21/2022  04:04:00      109.829     -101.261      -48.863       49.838       79.115       42.293     2483.799     6259.240     1788.713        1.762        0.527      149.386       33.212        0.049      333.593        3.008      868.984
01/21/2022  04:05:00      167.042     -125.818      -29.178       81.265       78.744       42.280     6603.922     6200.634     1787.569        2.959        0.730      209.124       39.474        0.036      333.641        3.086      869.051
01/21/2022  04:06:00      164.654      -99.745      -33.526       73.387       75.411       51.243     5385.619     5686.773     2625.873        2.594        0.685      192.510       35.098        0.033      333.612        3.040      869.122
01/21/2022  04:07:00       84.065      -96.195       -9.971       80.015       78.563       56.355     6402.415     6172.173     3175.855        1.608        0.788      127.751       45.005        0.124      333.691        3.171      869.192
01/21/2022  04:08:00       74.771     -101.814      -33.018       45.968       87.639       30.850     2113.014     7680.581      951.723        1.389        0.537      126.321       17.348        0.019      333.630        3.071      869.233
01/21/2022  04:09:00      105.755     -148.777      -27.075       52.563       90.219       37.680     2762.843     8139.405     1419.753        2.318        0.616      182.534       43.046        0.056      333.698        3.180      869.220
01/21/2022  04:10:00      112.381     -119.140      -37.108       44.498       68.123       36.579     1980.045     4640.782     1338.055        1.808        0.398      163.780       32.902        0.040      333.659        3.118      869.162
01/21/2022  04:11:00       91.527     -112.338      -31.170       35.590       52.149       33.000     1266.663     2719.476     1089.025        1.352        0.254      144.904       29.892        0.043      333.634        3.078      869.121
01/21/2022  04:12:00       57.175      -36.176      -25.305       50.742       26.984       21.969     2574.801      728.125      482.621        0.450        0.189       67.658       23.272        0.118      333.653        3.109      869.114
01/21/2022  04:13:00       31.724      -72.091      -16.977       28.782       40.112       24.139      828.388     1608.984      582.706        0.476        0.151       78.763       12.096        0.024      333.720        3.221      869.123
01/21/2022  04:14:00       20.237      -53.150      -15.710       35.114       44.395       18.899     1233.004     1970.872      357.181        0.352        0.178       56.873       16.356        0.083      333.751        3.271      869.124
01/21/2022  04:15:00       20.973       27.587       -3.905       16.072       16.144        9.443      258.314      260.617       89.173        0.091        0.030       34.654        9.219        0.071      333.404        2.697      869.141
01/21/2022  04:16:00        8.184       12.356       -4.515        8.573       13.109       10.058       73.505      171.855      101.155        0.029        0.017       14.821        7.040        0.226      333.322        2.563      869.171
01/21/2022  04:17:00       50.033       42.194       -9.668       18.640       14.101        8.705      347.459      198.834       75.781        0.250        0.031       65.450        5.817        0.008      333.309        2.540      869.212
01/21/2022  04:18:00       44.548       27.603      -12.667       12.179       12.630        8.143      148.323      159.507       66.301        0.164        0.019       52.407        6.419        0.015      333.383        2.663      869.251
01/21/2022  04:19:00       67.632      -13.767       -6.417       39.807       34.074       20.457     1584.605     1161.023      418.502        0.398        0.158       69.018       21.879        0.100      333.222        2.396      869.285
01/21/2022  04:20:00       91.158        5.563      -13.739       24.622       25.428       14.995      606.231      646.591      224.850        0.500        0.074       91.328        6.897        0.006      333.174        2.316      869.280
01/21/2022  04:21:00       36.424       -0.497        3.184       26.383       17.432       18.751      696.069      303.868      351.607        0.134        0.068       36.427       13.504        0.137      333.122        2.231      869.278
01/21/2022  04:22:00       61.006      -18.285       -2.704       21.184       17.170       11.726      448.781      294.794      137.505        0.247        0.044       63.687        5.554        0.008      333.154        2.283      869.309
01/21/2022  04:23:00       84.078      -19.677      -15.148       39.599       24.210       16.289     1568.086      586.124      265.331        0.505        0.121       86.350       11.843        0.019      333.188        2.342      869.333
01/21/2022  04:24:00       47.153      -37.439      -11.667       26.425       25.146       20.782      698.298      632.312      431.895        0.276        0.088       60.208       17.399        0.084      333.246        2.437      869.336
01/21/2022  04:25:00       -3.601        4.502        3.070       25.007       37.824       10.483      625.338     1430.689      109.900        0.110        0.108        5.765        9.115        2.500      333.177        2.324      869.337
01/21/2022  04:26:00      -68.822       60.561      -15.730       23.545       21.300       10.618      554.370      453.672      112.744        0.489        0.056       91.674        9.634        0.011      332.958        1.960      869.314
01/21/2022  04:27:00      -51.407        2.484      -30.940       40.882       16.792       11.666     1671.303      281.979      136.099        0.285        0.104       51.467        9.185        0.032      333.228        2.405      869.287
01/21/2022  04:28:00      -12.690      -19.151       -7.696       20.153       15.059       16.420      406.160      226.784      269.601        0.074        0.045       22.974        9.806        0.182      333.713        3.208      869.279
01/21/2022  04:29:00       -7.945       17.132        7.392       30.582       31.263       14.355      935.232      977.374      206.057        0.126        0.106       18.884        9.437        0.250      333.724        3.225      869.294
01/21/2022  04:30:00      -13.094       53.446       -7.724       40.970       18.635       10.052     1678.580      347.271      101.044        0.261        0.106       55.027       13.311        0.059      333.586        2.998      869.329
01/21/2022  04:31:00      -50.929       31.078      -11.648       40.252       13.303       11.956     1620.239      176.962      142.936        0.282        0.097       59.662       16.832        0.080      333.386        2.667      869.332
01/21/2022  04:32:00      -66.494       32.095      -11.073       18.049       15.346       10.383      325.771      235.507      107.808        0.312        0.033       73.835        7.080        0.009      333.184        2.333      869.334
01/21/2022  04:33:00      -54.880       47.519      -13.165       28.838       14.058       12.876      831.649      197.616      165.798        0.332        0.060       72.594       11.846        0.027      333.390        2.675      869.340
01/21/2022  04:34:00     -104.018       30.023      -13.524       51.232       35.084       21.147     2624.701     1230.876      447.215        0.810        0.215      108.264       19.943        0.034      333.138        2.259      869.346
01/21/2022  04:35:00      -58.301       -1.503      -12.435       48.528       43.066       23.881     2354.927     1854.654      570.316        0.417        0.239       58.320       18.446        0.100      332.960        1.964      869.361
01/21/2022  04:36:00     -130.427       56.149      -18.506       25.081       29.764       20.142      629.047      885.873      405.689        1.121        0.096      141.999       15.317        0.012      332.944        1.936      869.412
01/21/2022  04:37:00     -136.180       63.014      -22.289       30.628       25.854       17.045      938.090      668.419      290.541        1.245        0.095      150.052       15.115        0.010      333.068        2.142      869.427
01/21/2022  04:38:00     -156.190       48.289      -17.926       25.750       31.484       24.932      663.057      991.244      621.597        1.466        0.114      163.484       20.545        0.016      332.985        2.005      869.365
01/21/2022  04:39:00      -61.659        9.324      -11.084       74.344       43.441       29.087     5527.013     1887.148      846.048        0.613        0.413       62.360       31.868        0.261      332.817        1.728      869.323
01/21/2022  04:40:00     -145.307      104.823      -31.082       47.062       32.752       28.359     2214.843     1072.703      804.216        1.858        0.205      179.170       17.958        0.010      332.798        1.694      869.309
01/21/2022  04:41:00     -142.121       81.278      -22.838       49.911       53.103       34.284     2491.069     2819.916     1175.408        1.691        0.324      163.721       23.021        0.020      332.908        1.877      869.300
01/21/2022  04:42:00     -138.095       84.116      -22.673       46.684       47.285       32.141     2179.396     2235.880     1033.018        1.605        0.272      161.697       15.600        0.009      332.831        1.749      869.303
01/21/2022  04:43:00     -103.822       82.839      -26.191       48.288       50.411       29.395     2331.751     2541.265      864.084        1.203        0.287      132.820       21.792        0.027      332.793        1.687      869.312
01/21/2022  04:44:00     -122.516       30.043      -14.443       42.494       35.553       22.783     1805.730     1264.038      519.056        0.985        0.179      126.146       20.894        0.027      332.706        1.544      869.312
01/21/2022  04:45:00      -54.254       -1.803      -17.096       45.254       44.310       36.806     2047.958     1963.355     1354.670        0.430        0.268       54.284       26.339        0.235      332.763        1.637      869.292
01/21/2022  04:46:00      -71.221       25.011       -7.459       70.787       39.169       26.584     5010.838     1534.172      706.715        0.650        0.363       75.485       24.257        0.103      332.682        1.505      869.273
01/21/2022  04:47:00      -43.046       23.754       -9.720       62.843       31.395       26.536     3949.198      985.633      704.174        0.407        0.282       49.165       19.546        0.158      332.649        1.448      869.281
01/21/2022  04:48:00     -107.021       46.966      -24.154       44.729       39.779       24.619     2000.674     1582.389      606.106        0.922        0.209      116.873       15.553        0.018      332.736        1.593      869.274
01/21/2022  04:49:00      -62.166       63.312      -17.866       32.251       33.355       27.310     1040.116     1112.588      745.812        0.554        0.145       88.731       10.787        0.015      332.863        1.803      869.278
01/21/2022  04:50:00      -47.119       80.201      -18.916       59.332       57.823       35.121     3520.258     3343.481     1233.497        0.855        0.405       93.018       23.182        0.062      332.915        1.888      869.296
01/21/2022  04:51:00      -11.939       38.726      -13.634       56.551       27.420       40.347     3197.987      751.867     1627.869        0.370        0.279       40.525       29.293        0.522      332.973        1.984      869.305
01/21/2022  04:52:00       26.487       84.012      -17.650       42.550       52.676       33.608     1810.509     2774.788     1129.520        0.689        0.286       88.088       20.773        0.056      333.135        2.252      869.314
01/21/2022  04:53:00       10.565      118.933       -9.115       72.767       65.913       42.563     5295.038     4344.499     1811.646        1.289        0.573      119.402       34.878        0.085      333.232        2.413      869.345
01/21/2022  04:54:00       31.534      139.138      -26.553       66.859       61.914       37.825     4470.189     3833.361     1430.729        1.539        0.487      142.666       24.499        0.029      333.339        2.588      869.375
01/21/2022  04:55:00       16.817        4.953      -13.839       26.550       33.174       21.468      704.881     1100.520      460.877        0.138        0.113       17.532       13.414        0.585      333.039        2.094      869.403
01/21/2022  04:56:00       50.701        8.469      -42.887       37.204       65.595       36.197     1384.131     4302.748     1310.221        0.574        0.350       51.403       22.760        0.196      332.973        1.984      869.422
01/21/2022  04:57:00       79.837      -12.042      -24.317       63.578       65.298       37.252     4042.158     4263.851     1387.704        0.840        0.485       80.740       22.594        0.078      332.699        1.532      869.447
01/21/2022  04:58:00       38.444      -40.840      -23.694       47.944       69.738       44.020     2298.648     4863.341     1937.767        0.640        0.455       56.088       27.568        0.242      332.666        1.478      869.477
01/21/2022  04:59:00       61.984      -71.511      -29.025       44.889       43.881       35.679     2014.998     1925.585     1272.981        0.750        0.261       94.635       29.517        0.097      332.550        1.284      869.494
01/21/2022  05:00:00       41.080      -11.637      -26.373       27.318       28.888       16.759      746.267      834.516      280.847        0.219        0.093       42.697        4.819        0.013      332.464        1.144      869.536
01/21/2022  05:01:00       52.552        6.457       -8.309       32.574       28.897       18.981     1061.059      835.056      360.290        0.256        0.113       52.948        9.101        0.030      332.368        0.986      869.568
01/21/2022  05:02:00       18.087      -19.476       -9.594       37.115       41.626       25.960     1377.531     1732.754      673.943        0.229        0.189       26.579       19.171        0.520      332.457        1.133      869.574
01/21/2022  05:03:00      -30.723      -10.882       -9.636       34.473       50.017       27.681     1188.393     2501.739      766.260        0.280        0.223       32.593       14.378        0.195      332.528        1.250      869.570
01/21/2022  05:04:00      -12.735       16.258       -8.772       30.447       33.119       25.151      927.046     1096.879      632.596        0.158        0.133       20.652       17.662        0.731      332.453        1.126      869.581
01/21/2022  05:05:00      -76.501        5.268      -10.663       41.727       29.512       19.719     1741.162      870.953      388.841        0.450        0.150       76.683       16.098        0.044      332.380        1.005      869.588
01/21/2022  05:06:00      -82.615       10.958       -1.438       53.302       32.652       23.969     2841.053     1066.147      574.499        0.571        0.224       83.339       23.624        0.080      332.530        1.252      869.564
01/21/2022  05:07:00      -78.325      -11.321       -3.009       63.723       27.838       23.337     4060.614      774.934      544.599        0.583        0.269       79.139       27.980        0.125      332.575        1.325      869.444
01/21/2022  05:08:00      -94.581       -3.703        4.445       62.792       40.866       32.806     3942.871     1669.997     1076.251        0.783        0.334       94.653       30.824        0.106      332.639        1.432      869.405
01/21/2022  05:09:00     -140.078      -20.754       -1.105       45.283       34.060       30.296     2050.547     1160.056      917.864        1.209        0.206      141.607       27.042        0.036      332.637        1.430      869.400
01/21/2022  05:10:00     -126.756      -29.293      -15.412       42.506       40.895       23.232     1806.723     1672.423      539.747        1.059        0.201      130.097       22.855        0.031      332.733        1.589      869.415
01/21/2022  05:11:00      -67.373       16.924       -5.087       37.491       43.492       23.434     1405.601     1891.548      549.144        0.435        0.192       69.466       19.043        0.075      332.589        1.351      869.469
01/21/2022  05:12:00      -10.559       22.229        5.787       23.526       20.313       22.989      553.485      412.605      528.492        0.107        0.075       24.609       16.857        0.469      332.508        1.216      869.513
01/21/2022  05:13:00      -23.050      -39.162       -9.410       26.143       27.179       17.327      683.464      738.691      300.232        0.194        0.086       45.442        9.743        0.046      332.596        1.362      869.553
01/21/2022  05:14:00      -68.594      -49.870      -17.576       38.908       24.395       19.146     1513.797      595.103      366.576        0.499        0.124       84.806        9.489        0.013      332.737        1.594      869.590
01/21/2022  05:15:00      -37.767       10.339      -10.459       20.476       33.024       19.003      419.286     1090.582      361.128        0.176        0.094       39.156       11.405        0.085      332.616        1.396      869.633
01/21/2022  05:16:00      -45.229       -4.734       -4.937       25.070       17.220       16.031      628.481      296.523      256.978        0.164        0.059       45.476        9.372        0.042      332.595        1.362      869.650
01/21/2022  05:17:00      -20.751       -4.010       -9.220       16.335       24.452       15.776      266.836      597.916      248.887        0.082        0.056       21.135        7.610        0.130      332.551        1.290      869.656
01/21/2022  05:18:00      -23.661        0.545        1.997       23.972       21.681       11.499      574.661      470.068      132.227        0.087        0.059       23.667        9.402        0.158      332.414        1.062      869.674
01/21/2022  05:19:00      -20.010        7.607       -2.506       23.437       16.356       14.597      549.314      267.527      213.067        0.075        0.051       21.407       12.676        0.351      332.397        1.034      869.705
01/21/2022  05:20:00      -28.918        3.226       -3.656       23.064       20.033       10.137      531.929      401.305      102.752        0.095        0.052       29.097        8.384        0.083      332.465        1.145      869.728
01/21/2022  05:21:00      -65.180       10.164       -6.470       38.840       22.800       17.733     1508.574      519.821      314.474        0.337        0.117       65.968       11.077        0.028      332.418        1.067      869.727
01/21/2022  05:22:00      -52.750        5.037       -9.831       31.835       23.131       13.750     1013.472      535.059      189.057        0.232        0.087       52.990        9.774        0.034      332.373        0.992      869.709
01/21/2022  05:23:00      -22.855       -4.058       -4.915       51.641       28.643       18.178     2666.797      820.421      330.422        0.219        0.191       23.213       19.871        0.733      332.311        0.890      869.702
01/21/2022  05:24:00      -86.793        9.969      -15.286       45.723       34.825       19.837     2090.635     1212.774      393.517        0.578        0.185       87.364       18.873        0.047      332.278        0.835      869.690
01/21/2022  05:25:00      -41.356        0.000        0.021       57.174       29.241       26.543     3268.881      855.057      704.548        0.327        0.241       41.356       26.495        0.410      332.230        0.756      869.655
01/21/2022  05:26:00     -103.818        0.254       -5.712       60.192       38.674       34.699     3623.027     1495.682     1204.053        0.857        0.316      103.818       33.611        0.105      332.271        0.825      869.632
01/21/2022  05:27:00      -96.998        7.858       -4.585       60.283       38.413       23.182     3634.049     1475.543      537.391        0.757        0.282       97.316       17.923        0.034      332.311        0.891      869.618
01/21/2022  05:28:00     -195.623       -3.218       -8.673       50.085       49.965       29.133     2508.496     2496.531      848.740        2.210        0.293      195.649       17.666        0.008      332.325        0.911      869.602
01/21/2022  05:29:00     -163.650      -30.896      -23.148       49.570       49.012       37.267     2457.169     2402.215     1388.844        1.726        0.312      166.541       36.355        0.048      332.327        0.915      869.622
01/21/2022  05:30:00     -136.103      -12.237       -6.907       51.649       43.276       26.525     2667.646     1872.847      703.552        1.198        0.262      136.652       23.183        0.029      332.375        0.996      869.673
01/21/2022  05:31:00      -96.494       -2.153       -3.049       54.687       33.966       30.561     2990.643     1153.710      933.968        0.720        0.254       96.518       29.113        0.091      332.432        1.091      869.699
01/21/2022  05:32:00      -99.483       -0.686       -4.545       61.535       39.127       31.650     3786.498     1530.951     1001.709        0.812        0.316       99.485       30.067        0.091      332.526        1.246      869.706
01/21/2022  05:33:00     -102.786       12.398       -3.751       65.772       36.125       28.888     4325.956     1305.015      834.494        0.860        0.323      103.531       29.123        0.079      332.421        1.072      869.706
01/21/2022  05:34:00      -81.479       23.768        3.923       51.757       36.236       28.731     2678.796     1313.019      825.464        0.602        0.241       84.875       27.165        0.102      332.312        0.891      869.699
01/21/2022  05:35:00      -68.474        0.400       -1.631       35.253       30.717       21.294     1242.765      943.507      453.422        0.367        0.132       68.475       16.314        0.057      332.351        0.956      869.702
01/21/2022  05:36:00       -7.608       -6.579        0.282       33.644       23.137       19.580     1131.923      535.341      383.359        0.108        0.103       10.058       12.535        1.553      332.392        1.025      869.732
01/21/2022  05:37:00      -26.270       -0.596       -2.520       39.453       21.555       20.587     1556.510      464.601      423.832        0.157        0.122       26.276       16.156        0.378      332.415        1.064      869.780
01/21/2022  05:38:00      -76.991       -7.620      -14.164       36.735       23.039       25.707     1349.434      530.782      660.853        0.436        0.127       77.367       20.256        0.069      332.507        1.213      869.826
01/21/2022  05:39:00      -18.337       -3.222      -12.156       28.414       23.506       14.365      807.342      552.528      206.367        0.103        0.078       18.618        8.448        0.206      332.501        1.205      869.836
01/21/2022  05:40:00      -18.239      -12.012       -9.100       15.641       19.801       14.658      244.653      392.065      214.849        0.071        0.043       21.839        9.120        0.174      332.544        1.276      869.866
01/21/2022  05:41:00      -12.762      -23.354       -8.278       27.949       19.212       12.047      781.122      369.113      145.132        0.104        0.065       26.614       12.359        0.216      332.572        1.320      869.869
01/21/2022  05:42:00      -19.347        3.160       -6.014       24.073       21.800       14.967      579.510      475.245      224.013        0.085        0.064       19.604       10.273        0.275      332.573        1.323      869.871
01/21/2022  05:43:00      -19.938      -30.625       -4.241       26.237       19.034       15.099      688.376      362.287      227.983        0.132        0.064       36.543       13.914        0.145      332.565        1.311      869.875
01/21/2022  05:44:00      -29.191      -35.289      -10.565       12.051       13.892        7.027      145.226      193.001       49.383        0.130        0.019       45.798        3.059        0.004      332.629        1.418      869.884
01/21/2022  05:45:00       -2.322      -16.370      -16.286        7.086        9.569        9.699       50.218       91.570       94.073        0.039        0.012       16.534        4.013        0.059      332.623        1.407      869.901
01/21/2022  05:46:00        6.545      -24.122       -7.806       14.539       18.337       13.833      211.383      336.244      191.355        0.071        0.037       24.995       11.009        0.194      332.597        1.365      869.907
01/21/2022  05:47:00        4.333      -25.219      -14.111       18.726       23.945       17.152      350.681      573.382      294.181        0.104        0.061       25.588       16.170        0.399      332.601        1.369      869.882
01/21/2022  05:48:00      -19.299       27.527       -3.572       11.047        9.528        9.142      122.032       90.785       83.572        0.072        0.015       33.619        8.337        0.061      332.521        1.237      869.867
01/21/2022  05:49:00        1.749       14.122       -0.388        6.728       19.904        9.081       45.268      396.152       82.469        0.036        0.026       14.230        5.078        0.127      332.431        1.088      869.829
01/21/2022  05:50:00       10.074       -5.800       -2.906       10.534        6.696        8.662      110.965       44.841       75.036        0.019        0.012       11.624        6.759        0.338      332.477        1.165      869.807
01/21/2022  05:51:00      -27.807      -10.914       -5.245       32.355       18.208       16.181     1046.835      331.528      261.826        0.128        0.082       29.872       16.549        0.307      332.465        1.146      869.797
01/21/2022  05:52:00      -52.246       -3.033       -7.310       23.840       15.170       17.154      568.358      230.140      294.263        0.194        0.055       52.334       13.895        0.070      332.329        0.921      869.802
01/21/2022  05:53:00      -84.520       13.238       -5.098       46.421       27.466       20.506     2154.899      754.380      420.496        0.534        0.166       85.550       21.142        0.061      332.392        1.026      869.822
01/21/2022  05:54:00      -36.473       11.572       -8.538       32.271       27.553       27.174     1041.421      759.165      738.415        0.204        0.127       38.265       15.666        0.168      332.297        0.867      869.829
01/21/2022  05:55:00      -12.301       -8.576      -10.945       35.799       30.790       22.696     1281.553      948.047      515.112        0.154        0.137       14.995       12.084        0.649      332.272        0.827      869.835
01/21/2022  05:56:00      -46.527       -5.374        0.989       46.431       25.872       24.293     2155.821      669.340      590.138        0.280        0.171       46.836       22.838        0.238      332.181        0.675      869.823
01/21/2022  05:57:00       -6.651      -21.035       -1.211       36.203       24.925       21.741     1310.681      621.233      472.658        0.145        0.120       22.062       16.175        0.538      332.269        0.820      869.795
01/21/2022  05:58:00      -27.914        2.575       -8.437       18.649       21.494       14.555      347.794      461.973      211.852        0.094        0.051       28.032       10.126        0.130      332.385        1.012      869.808
01/21/2022  05:59:00       -5.464        7.610       -4.220        9.202       13.544        9.934       84.676      183.428       98.691        0.024        0.018        9.369        6.338        0.458      332.298        0.868      869.841
01/21/2022  06:00:00       -1.343       -9.393        0.082        9.294        9.669        4.454       86.374       93.480       19.842        0.014        0.010        9.489        0.729        0.006      332.295        0.865      869.872
01/21/2022  06:01:00      -43.200       16.311      -11.926       23.771       19.003        9.597      565.040      361.104       92.094        0.165        0.051       46.176        8.970        0.038      332.351        0.956      869.886
01/21/2022  06:02:00      -57.963       44.068      -15.331       21.305       19.231       13.869      453.899      369.829      192.344        0.328        0.051       72.813       10.706        0.022      332.266        0.816      869.888
01/21/2022  06:03:00      -64.968       14.117      -12.024       17.458       13.430        9.604      304.793      180.352       92.233        0.257        0.029       66.484        6.310        0.009      332.481        1.173      869.892
01/21/2022  06:04:00      -29.546      -45.566      -13.223       22.511       40.909       12.698      506.726     1673.509      161.231        0.273        0.117       54.307        7.496        0.019      332.583        1.340      869.908
01/21/2022  06:05:00       36.377      -65.358      -11.963       36.087       47.055       22.905     1302.238     2214.161      524.653        0.489        0.202       74.799        4.129        0.003      332.944        1.936      869.935
01/21/2022  06:06:00       63.233       37.658      -11.044       24.145       28.401       17.155      582.990      806.614      294.298        0.361        0.084       73.597       14.214        0.037      332.356        0.964      869.978
01/21/2022  06:07:00       62.159       16.006      -17.453       20.093       20.731       10.961      403.734      429.766      120.135        0.269        0.048       64.187        3.764        0.003      331.994        0.368      869.971
01/21/2022  06:08:00       25.299       14.526       -2.027       20.278        7.319        6.503      411.190       53.569       42.294        0.068        0.025       29.173        8.484        0.085      332.152        0.627      869.930
01/21/2022  06:09:00      -80.166       20.012      -21.153       43.780       17.430       16.151     1916.730      303.812      260.858        0.488        0.124       82.626       18.313        0.049      332.108        0.556      869.884
01/21/2022  06:10:00      -55.646      -10.327       -3.849       71.914       31.804       31.679     5171.604     1011.501     1003.536        0.520        0.359       56.596       34.896        0.380      331.899        0.213      869.851
01/21/2022  06:11:00      -89.566       26.365      -11.085       78.202       39.323       29.439     6115.608     1546.302      866.628        0.868        0.426       93.366       25.352        0.074      331.956        0.306      869.838
01/21/2022  06:12:00     -161.514       89.338      -22.684       47.212       36.699       29.233     2228.989     1346.826      854.596        1.951        0.222      184.576       28.407        0.024      332.071        0.493      869.839
01/21/2022  06:13:00     -135.142       83.280      -21.809       61.121       38.074       34.737     3735.830     1449.626     1206.643        1.603        0.320      158.742       36.561        0.053      332.070        0.492      869.851
01/21/2022  06:14:00      -99.049       48.864      -10.149       39.462       32.970       19.984     1557.242     1087.043      399.345        0.767        0.152      110.446       14.644        0.018      332.171        0.658      869.824
01/21/2022  06:15:00     -128.885       29.948      -10.428       64.851       46.313       31.315     4205.717     2144.858      980.630        1.247        0.367      132.318       19.812        0.022      332.141        0.610      869.808
01/21/2022  06:16:00      -67.565        9.911      -11.282       51.413       42.600       22.834     2643.313     1814.724      521.378        0.488        0.249       68.288       24.877        0.133      332.183        0.680      869.820
01/21/2022  06:17:00      -32.866       44.058      -13.775       19.542       25.135       18.909      381.896      631.777      357.555        0.229        0.069       54.966       12.855        0.055      332.038        0.439      869.906
01/21/2022  06:18:00      -17.677        8.695       -2.389        7.887       16.095        7.032       62.205      259.040       49.456        0.038        0.019       19.699        6.934        0.124      332.292        0.861      870.026
01/21/2022  06:19:00       -6.667       -7.248       -8.202       16.444       11.903        8.887      270.402      141.677       78.983        0.033        0.025        9.848        5.145        0.273      332.406        1.048      870.105
01/21/2022  06:20:00        3.866      -16.017       -7.802       12.978       16.441       12.198      168.434      270.302      148.803        0.046        0.029       16.477       10.203        0.383      332.333        0.928      870.118
01/21/2022  06:21:00        2.390       -7.154      -11.554        8.668       12.823        9.296       75.139      164.417       86.415        0.026        0.016        7.543        7.756        1.057      332.384        1.011      870.113
01/21/2022  06:22:00       16.998       24.407       -1.391       15.886        8.595        6.345      252.354       73.866       40.255        0.063        0.018       29.743        4.644        0.024      332.298        0.869      870.126
01/21/2022  06:23:00       13.501       16.353       -3.536       16.232        7.855        4.167      263.466       61.694       17.361        0.040        0.017       21.206        2.630        0.015      332.327        0.916      870.137
01/21/2022  06:24:00       -5.954       -7.589       -4.162       22.646       16.852       11.972      512.853      283.985      143.319        0.053        0.047        9.646        8.538        0.783      332.378        1.000      870.110
01/21/2022  06:25:00      -59.927       36.798      -11.972       16.619       11.260       13.733      276.184      126.777      188.587        0.284        0.030       70.323        9.332        0.018      332.265        0.815      870.062
01/21/2022  06:26:00      -58.718       49.467      -16.958       23.332       16.515       17.674      544.364      272.738      312.380        0.366        0.056       76.777       11.638        0.023      332.301        0.874      870.022
01/21/2022  06:27:00      -31.384       24.470       -8.842       41.921       33.188       24.640     1757.333     1101.443      607.130        0.256        0.173       39.796       13.531        0.116      332.414        1.059      870.015
01/21/2022  06:28:00      -62.897        3.494       -7.462       51.261       29.540       24.142     2627.705      872.625      582.832        0.405        0.204       62.994       22.630        0.129      332.217        0.736      870.031
01/21/2022  06:29:00      -19.803      -20.619        6.219       36.642       25.913       18.252     1342.653      671.479      333.130        0.160        0.117       28.588       12.570        0.193      332.250        0.790      870.066
01/21/2022  06:30:00      -36.536      -30.658      -18.571       47.335       38.327       25.075     2240.644     1468.944      628.758        0.348        0.217       47.695        7.631        0.026      332.404        1.045      870.062
01/21/2022  06:31:00      -88.016       16.482      -10.824       46.027       50.964       24.613     2118.512     2597.366      605.794        0.673        0.266       89.546       22.200        0.061      332.325        0.915      870.058
01/21/2022  06:32:00      -73.986       10.378       -7.467       37.264       32.296       20.077     1388.581     1043.011      403.088        0.424        0.142       74.710       21.526        0.083      332.109        0.557      870.062
01/21/2022  06:33:00      -27.069       -5.456       -9.651       19.931       24.297       13.553      397.261      590.336      183.677        0.101        0.059       27.613        9.139        0.110      332.127        0.588      870.094
01/21/2022  06:34:00      -26.264      -15.016      -12.407       23.456       18.133       12.310      550.193      328.801      151.530        0.105        0.052       30.253       10.301        0.116      332.346        0.949      870.148
01/21/2022  06:35:00      -11.814       -5.623       -4.721       21.342       18.739       12.226      455.477      351.166      149.471        0.057        0.048       13.084        8.314        0.404      332.350        0.955      870.259
01/21/2022  06:36:00      -32.721      -37.702      -10.739       21.450       16.025       14.914      460.089      256.803      222.432        0.177        0.047       49.921        2.720        0.003      332.348        0.952      870.373
01/21/2022  06:37:00       16.196        2.722       -7.813       22.210       34.847       22.794      493.271     1214.320      519.571        0.128        0.111       16.423       13.184        0.644      332.352        0.959      870.442
01/21/2022  06:38:00       48.349      -68.502      -20.089       32.813       38.882       27.273     1076.714     1511.778      743.808        0.538        0.167       83.846       21.775        0.067      332.377        1.000      870.467
01/21/2022  06:39:00       39.571      -42.203       -3.117       30.100       32.256       26.910      905.994     1040.468      724.171        0.301        0.134       57.853       23.080        0.159      332.378        1.002      870.467
01/21/2022  06:40:00       47.745      -88.856      -18.698       30.279       31.221       24.514      916.799      974.769      600.947        0.651        0.125      100.871       16.591        0.027      332.488        1.183      870.479
01/21/2022  06:41:00       41.472      -32.136      -28.087       30.815       35.100       27.927      949.553     1232.002      779.922        0.325        0.148       52.466       15.532        0.088      332.471        1.155      870.517
01/21/2022  06:42:00       46.237      -83.426      -32.029       26.987       35.129       21.826      728.291     1234.014      476.390        0.628        0.122       95.382       14.444        0.023      332.482        1.172      870.569
01/21/2022  06:43:00       61.417      -35.757      -32.546       35.151       37.670       25.344     1235.614     1419.064      642.299        0.470        0.165       71.068       19.730        0.077      332.305        0.881      870.606
01/21/2022  06:44:00       63.567       -8.783       -1.155       53.279       36.020       30.243     2838.669     1297.445      914.619        0.458        0.253       64.171       24.252        0.143      332.068        0.491      870.629
01/21/2022  06:45:00       86.355      -33.997       -9.052       41.281       28.127       27.893     1704.092      791.104      778.011        0.598        0.164       92.806       24.087        0.067      332.121        0.577      870.650
01/21/2022  06:46:00       26.449      -11.745       -9.198       41.356       30.199       28.139     1710.356      911.992      791.786        0.217        0.171       28.940       23.744        0.673      332.032        0.431      870.668
01/21/2022  06:47:00       44.413        3.767      -16.008       53.769       50.781       39.944     2891.157     2578.712     1595.563        0.465        0.353       44.573       19.614        0.194      332.289        0.853      870.681
01/21/2022  06:48:00       50.417      -45.591      -26.940       47.299       53.227       37.522     2237.157     2833.078     1407.874        0.591        0.324       67.974       34.196        0.253      332.379        1.002      870.701
01/21/2022  06:49:00       86.648      -29.221      -18.633       41.265       50.030       26.912     1702.802     2502.977      724.263        0.682        0.247       91.442       25.325        0.077      332.216        0.734      870.750
01/21/2022  06:50:00      109.250      -20.865       -0.973       30.645       30.990       22.878      939.121      960.383      523.395        0.740        0.121      111.225       19.185        0.030      332.205        0.717      870.784
01/21/2022  06:51:00       84.104      -13.326       -2.921       51.950       36.141       30.722     2698.818     1306.198      943.867        0.610        0.247       85.154       27.943        0.108      332.120        0.575      870.780
01/21/2022  06:52:00      112.590      -16.055      -23.942       61.339       36.463       38.374     3762.470     1329.549     1472.558        1.003        0.328      113.729       28.671        0.064      332.084        0.516      870.769
01/21/2022  06:53:00       53.960       -7.720      -12.086       43.363       51.272       43.427     1880.307     2628.780     1885.879        0.475        0.320       54.510       35.351        0.421      332.098        0.540      870.772
01/21/2022  06:54:00       28.858       -0.208       -6.777       33.801       41.694       30.623     1142.520     1738.389      937.775        0.235        0.191       28.858       27.493        0.908      332.086        0.518      870.777
01/21/2022  06:55:00       85.749      -13.855       -9.543       26.255       20.603       16.636      689.300      424.489      276.756        0.451        0.070       86.861       11.932        0.019      331.959        0.311      870.789
01/21/2022  06:56:00       64.781       -3.782      -15.267       33.214       41.301       22.804     1103.172     1705.746      520.043        0.389        0.166       64.891       18.174        0.078      331.918        0.244      870.826
01/21/2022  06:57:00       57.798       12.126       -0.256       42.239       34.447       24.763     1784.163     1186.626      613.184        0.354        0.179       59.056       22.263        0.142      331.901        0.216      870.872
01/21/2022  06:58:00       61.224        0.611      -11.758       70.208       35.367       15.504     4929.158     1250.836      240.369        0.515        0.321       61.227       14.764        0.058      331.865        0.156      870.888
01/21/2022  06:59:00       79.546        7.064       -4.299       27.976       19.910       14.333      782.633      396.421      205.425        0.389        0.069       79.859        4.540        0.003      331.878        0.178      870.899
01/21/2022  07:00:00       79.139       11.189        1.887       47.936       30.944       24.387     2297.878      957.528      594.737        0.512        0.193       79.926       19.404        0.059      331.894        0.203      870.927
01/21/2022  07:01:00      104.305       40.964      -14.392       30.763       36.439       20.386      946.358     1327.787      415.575        0.773        0.134      112.060       18.986        0.029      332.043        0.449      870.966
01/21/2022  07:02:00      115.113       39.720      -11.765       25.507       31.190       22.832      650.602      972.820      521.295        0.856        0.107      121.773        8.945        0.005      332.063        0.482      870.992
01/21/2022  07:03:00       69.067       49.787      -10.409       24.885       24.780       19.080      619.246      614.038      364.043        0.448        0.080       85.141       14.173        0.028      332.122        0.579      870.993
01/21/2022  07:04:00       48.215       54.181      -12.103       21.297       17.957       13.400      453.565      322.469      179.547        0.318        0.048       72.528        7.468        0.011      332.141        0.609      870.990
01/21/2022  07:05:00       79.379       23.691       -9.056       23.385       16.282       10.646      546.856      265.117      113.339        0.393        0.046       82.839        6.625        0.006      332.211        0.725      870.984
01/21/2022  07:06:00        1.915       -4.715       14.828       25.449       35.402       22.175      647.637     1253.300      491.745        0.132        0.120        5.089       11.073        4.734      332.259        0.804      870.996
01/21/2022  07:07:00       25.319       30.050       -5.820       29.439       33.722       23.141      866.666     1137.146      535.492        0.206        0.127       39.295       19.273        0.241      332.212        0.727      871.031
01/21/2022  07:08:00       51.105       14.886       -8.868       15.054       17.091       10.583      226.610      292.090      111.999        0.177        0.032       53.229        8.317        0.024      332.209        0.723      871.076
01/21/2022  07:09:00       47.694        6.954       -6.436       10.724        8.015        6.581      115.002       64.245       43.313        0.129        0.011       48.199        6.185        0.016      332.329        0.919      871.106
01/21/2022  07:10:00       35.591       -5.154       -4.635       22.442       13.366        9.030      503.646      178.661       81.549        0.104        0.038       35.962        8.716        0.059      332.345        0.946      871.116
01/21/2022  07:11:00       21.141       19.472       -0.687       16.748       14.532        8.604      280.509      211.184       74.031        0.070        0.028       28.742       10.767        0.140      332.470        1.154      871.111
01/21/2022  07:12:00      -32.642       21.081       -8.433       26.790       14.895       10.632      717.725      221.862      113.048        0.132        0.053       38.857       13.572        0.122      332.214        0.732      871.095
01/21/2022  07:13:00      -22.380       45.657       -6.805       35.750       19.386       18.367     1278.094      375.834      337.342        0.231        0.100       50.847        9.810        0.037      332.460        1.136      871.101
01/21/2022  07:14:00      -23.128       31.582      -12.224       18.669       25.569       11.136      348.538      653.788      124.004        0.140        0.056       39.145        8.373        0.046      332.379        1.002      871.123
01/21/2022  07:15:00      -38.646       16.331       -6.543       18.451       14.140       10.922      340.433      199.952      119.291        0.123        0.033       41.955        8.681        0.043      332.211        0.727      871.126
01/21/2022  07:16:00      -48.234       32.533      -11.334       21.293       17.422       10.285      453.396      303.514      105.773        0.219        0.043       58.180        9.409        0.026      332.285        0.849      871.122
01/21/2022  07:17:00       12.835       37.898      -10.804       57.105       49.893       27.839     3260.981     2489.347      774.993        0.412        0.326       40.013       20.210        0.255      332.348        0.951      871.090
01/21/2022  07:18:00       -4.233       42.211       -9.253       33.707       20.170       18.387     1136.142      406.818      338.074        0.188        0.094       42.423       19.593        0.213      332.309        0.887      871.051
01/21/2022  07:19:00      -72.439       12.841       -0.962       58.700       27.120       24.263     3445.734      735.503      588.685        0.509        0.238       73.569       21.946        0.089      332.083        0.515      871.044
01/21/2022  07:20:00      -56.546        7.480        5.316       53.716       24.086       23.052     2885.430      580.135      531.390        0.364        0.200       57.038       27.992        0.241      332.192        0.694      871.044
01/21/2022  07:21:00      -49.155        0.520       -2.769       47.971       36.135       32.811     2301.201     1305.719     1076.539        0.355        0.234       49.158       28.462        0.335      332.201        0.710      871.058
01/21/2022  07:22:00      -70.197       12.525       -3.740       42.162       38.791       30.071     1777.595     1504.718      904.245        0.464        0.209       71.305       21.601        0.092      332.225        0.749      871.068
01/21/2022  07:23:00      -12.820       10.044        7.918       39.432       30.117       20.326     1554.870      907.019      413.147        0.160        0.144       16.287       14.114        0.751      332.115        0.566      871.067
01/21/2022  07:24:00      -16.332        3.650       -5.787       28.590       22.721       21.615      817.414      516.222      467.221        0.106        0.090       16.735       13.276        0.629      332.097        0.537      871.061
01/21/2022  07:25:00      -36.764      -12.481        1.697       49.469       29.996       24.033     2447.227      899.751      577.596        0.272        0.196       38.825       23.471        0.365      332.083        0.514      871.064
01/21/2022  07:26:00     -118.635       38.335       -4.175       56.873       37.582       27.581     3234.585     1412.407      760.693        1.048        0.270      124.675       23.119        0.034      331.954        0.304      871.074
01/21/2022  07:27:00      -98.998       30.316      -15.605       55.596       32.554       25.823     3090.931     1059.764      666.824        0.789        0.241      103.536       16.614        0.026      331.915        0.240      871.069
01/21/2022  07:28:00     -138.382       57.129      -11.451       56.556       33.121       25.643     3198.586     1097.033      657.543        1.375        0.248      149.711       23.212        0.024      331.889        0.196      871.081
01/21/2022  07:29:00     -102.329       23.117      -12.666       60.988       42.174       27.907     3719.494     1778.680      778.806        0.872        0.314      104.907       23.752        0.051      331.862        0.153      871.075
01/21/2022  07:30:00      -25.209       23.574       -4.510       27.935       35.502       25.428      780.373     1260.419      646.576        0.195        0.134       34.514       20.198        0.342      331.875        0.172      871.091
01/21/2022  07:31:00      -17.804       -2.035      -13.510       35.715       31.634       18.238     1275.553     1000.711      332.639        0.156        0.130       17.920       16.751        0.874      331.953        0.301      871.120
01/21/2022  07:32:00      -59.324       28.107       -6.199       51.241       30.146       30.641     2625.617      908.778      938.867        0.441        0.224       65.645       26.321        0.161      331.951        0.297      871.134
01/21/2022  07:33:00     -110.915       50.733       -1.190       47.799       42.221       25.350     2284.776     1782.585      642.618        0.979        0.235      121.967       20.855        0.029      331.820        0.082      871.148
01/21/2022  07:34:00     -104.717       22.146       -5.664       72.873       35.514       25.092     5310.462     1261.251      629.599        0.934        0.360      107.033       25.019        0.055      331.827        0.095      871.146
01/21/2022  07:35:00     -115.929       28.689       -8.302       70.834       31.206       37.882     5017.472      973.825     1435.068        1.088        0.371      119.426       39.097        0.107      331.822        0.086      871.161
01/21/2022  07:36:00     -115.948       24.725      -10.864       41.520       39.554       29.293     1723.917     1564.555      858.089        0.916        0.207      118.555       25.866        0.048      331.832        0.103      871.179
01/21/2022  07:37:00      -80.187       19.523       -9.335       50.254       22.411       22.967     2525.461      502.234      527.468        0.523        0.178       82.530       26.425        0.103      331.824        0.089      871.163
01/21/2022  07:38:00     -112.120       45.799      -21.362       34.719       30.759       24.578     1205.443      946.112      604.062        0.894        0.138      121.114       18.852        0.024      331.811        0.067      871.146
01/21/2022  07:39:00      -63.898       35.869      -19.252       32.095       29.720       23.126     1030.072      883.259      534.826        0.409        0.122       73.277       16.328        0.050      331.917        0.242      871.133
01/21/2022  07:40:00      -61.225        0.431      -18.352       46.781       26.334       19.604     2188.444      693.476      384.325        0.368        0.163       61.226        6.743        0.012      332.031        0.430      871.151
01/21/2022  07:41:00      -22.704        9.512        2.746       36.737       21.732       15.105     1349.595      472.300      228.175        0.133        0.103       24.616       15.287        0.386      332.054        0.466      871.181
01/21/2022  07:42:00      -42.426       24.878      -19.925       29.428       37.945       24.403      865.989     1439.817      595.489        0.286        0.145       49.182       15.701        0.102      332.332        0.926      871.201
01/21/2022  07:43:00      -37.218       18.111       -6.397       24.434       23.819       16.546      597.009      567.359      273.757        0.160        0.072       41.390       13.507        0.106      332.206        0.717      871.213
01/21/2022  07:44:00      -35.158      -10.269       -6.250       18.845       24.547       16.810      355.138      602.550      282.578        0.131        0.062       36.627       10.370        0.080      332.309        0.887      871.204
01/21/2022  07:45:00      -48.911      -17.379      -11.600       33.441       22.947       19.254     1118.329      526.548      370.722        0.242        0.101       51.907       18.088        0.121      332.356        0.966      871.207
01/21/2022  07:46:00      -48.886      -29.328       -6.351       19.726       17.609       19.607      389.125      310.073      384.440        0.219        0.054       57.008       14.526        0.065      332.427        1.082      871.210
01/21/2022  07:47:00       -9.789      -12.551       -5.610       15.735       19.193        9.826      247.591      368.372       96.557        0.050        0.036       15.917        7.599        0.228      332.577        1.331      871.227
01/21/2022  07:48:00        6.453      -34.913      -15.499        9.404       13.769       12.173       88.427      189.596      148.173        0.096        0.021       35.504        8.135        0.053      332.314        0.895      871.224
01/21/2022  07:49:00       -8.075        6.742       -9.465       13.794       17.139       11.311      190.269      293.745      127.937        0.041        0.031       10.519        8.985        0.730      332.485        1.176      871.232
01/21/2022  07:50:00      -22.282       25.056      -17.822       20.271       53.642       20.313      410.929     2877.503      412.600        0.257        0.185       33.530       25.929        0.598      332.593        1.356      871.231
01/21/2022  07:51:00      -19.156       29.969       -1.311       28.722       44.909       17.068      824.925     2016.851      291.316        0.220        0.157       35.568       15.576        0.192      332.652        1.453      871.238
01/21/2022  07:52:00       -3.347      -20.036       -5.084       29.236       23.329       19.498      854.754      544.257      380.185        0.111        0.089       20.314       11.233        0.306      332.783        1.670      871.237
01/21/2022  07:53:00      -12.039       -0.417       -8.831       30.235       38.795       24.157      914.136     1505.042      583.549        0.161        0.150       12.046       16.218        1.813      332.751        1.619      871.261
01/21/2022  07:54:00        3.407       95.919       -6.745       32.155       63.736       26.344     1033.926     4062.283      693.991        0.752        0.290       95.979       23.507        0.060      332.856        1.791      871.279
01/21/2022  07:55:00        1.057       51.369      -10.577       20.907       48.811       22.137      437.083     2382.532      490.053        0.303        0.165       51.380       12.509        0.059      332.778        1.663      871.293
01/21/2022  07:56:00       -7.806       56.477       -5.961       23.790       41.881       15.344      565.948     1753.985      235.444        0.292        0.128       57.014       14.506        0.065      332.902        1.868      871.311
01/21/2022  07:57:00       26.149       -9.525        0.784       23.026       21.238       13.587      530.194      451.067      184.602        0.097        0.058       27.830       10.687        0.147      332.696        1.528      871.324
01/21/2022  07:58:00       14.182      -10.437      -13.121       17.656       24.067       16.641      311.730      579.244      276.916        0.082        0.058       17.608       15.063        0.732      332.573        1.325      871.336
01/21/2022  07:59:00       45.413       63.811      -19.614       23.989       37.102       19.233      575.486     1376.587      369.898        0.442        0.116       78.321        8.865        0.013      333.038        2.093      871.339
01/21/2022  08:00:00       -3.847        7.623       -4.328       21.851       20.809       14.874      477.450      433.002      221.242        0.061        0.057        8.539       11.411        1.786      332.966        1.973      871.336
01/21/2022  08:01:00      -12.603       -1.742       -7.504       14.705       10.771        8.048      216.229      116.024       64.767        0.031        0.020       12.723        3.632        0.081      332.880        1.831      871.353
01/21/2022  08:02:00       18.210       14.423       -4.252       12.122        9.946        8.850      146.941       98.918       78.317        0.044        0.016       23.230        6.482        0.078      332.949        1.945      871.381
01/21/2022  08:03:00       13.457       51.706       -4.591       29.365       54.765       19.333      862.294     2999.172      373.771        0.355        0.212       53.429       20.514        0.147      333.121        2.230      871.409
01/21/2022  08:04:00        7.242      123.821       -3.912       37.950       44.885       29.186     1440.194     2014.633      851.795        0.985        0.215      124.032       17.484        0.020      333.280        2.492      871.440
01/21/2022  08:05:00      -24.967       94.497      -13.559       39.199       40.127       24.957     1536.539     1610.202      622.846        0.675        0.188       97.739       24.805        0.064      333.279        2.493      871.462
01/21/2022  08:06:00       21.416       97.561       -8.905       55.982       32.916       26.673     3134.030     1083.460      711.446        0.749        0.246       99.883       15.178        0.023      333.288        2.505      871.485
01/21/2022  08:07:00       41.057       93.072      -22.627       37.996       42.697       26.104     1443.689     1823.009      681.426        0.740        0.197      101.725       15.438        0.023      333.265        2.467      871.496
01/21/2022  08:08:00        5.593       58.609       -7.365       25.660       28.584       15.555      658.429      817.031      241.962        0.262        0.086       58.875       12.118        0.042      333.414        2.714      871.490
01/21/2022  08:09:00       35.805        3.937       -7.828       34.349       25.444       15.390     1179.844      647.399      236.846        0.171        0.103       36.021        8.908        0.061      333.280        2.492      871.500
01/21/2022  08:10:00       18.795        7.025       -9.007       25.236       45.938       21.863      636.840     2110.289      477.969        0.185        0.161       20.064       10.139        0.255      333.234        2.415      871.499
01/21/2022  08:11:00        8.100       -5.351       -6.202       25.201       24.611       17.492      635.073      605.699      305.976        0.084        0.077        9.708       13.139        1.832      333.131        2.246      871.506
01/21/2022  08:12:00       27.885      -10.823      -16.657       15.454       25.532       16.874      238.828      651.891      284.733        0.117        0.059       29.912       13.150        0.193      332.998        2.026      871.518
01/21/2022  08:13:00       60.266      -13.742      -18.881       26.345       35.254       15.167      694.073     1242.848      230.024        0.317        0.108       61.813       13.152        0.045      332.992        2.018      871.528
01/21/2022  08:14:00       53.001      -11.457      -13.300       37.823       39.315       29.977     1430.568     1545.671      898.604        0.350        0.194       54.226       22.915        0.179      332.987        2.008      871.554
01/21/2022  08:15:00       53.922      -16.490      -11.188       49.306       33.332       35.867     2431.058     1111.018     1286.471        0.407        0.241       56.387       26.416        0.219      332.984        2.003      871.570
01/21/2022  08:16:00       34.933       -5.260       -0.754       38.173       20.554       24.297     1457.173      422.450      590.364        0.186        0.123       35.327       23.690        0.450      333.031        2.081      871.596
01/21/2022  08:17:00       49.499      -19.174       -8.801       35.998       30.120       22.581     1295.881      907.196      509.888        0.280        0.136       53.083       18.417        0.120      333.107        2.206      871.603
01/21/2022  08:18:00       37.759      -47.257      -18.930       41.740       44.833       24.045     1742.188     2010.038      578.172        0.417        0.217       60.490       24.798        0.168      333.229        2.408      871.589
01/21/2022  08:19:00       14.045      -18.711      -26.567       29.762       38.216       24.985      885.775     1460.484      624.258        0.211        0.149       23.396       10.555        0.204      333.355        2.617      871.579
01/21/2022  08:20:00       52.003      -27.751      -16.705       24.652       28.590       20.186      607.745      817.361      407.457        0.279        0.092       58.944       11.191        0.036      333.141        2.261      871.579
01/21/2022  08:21:00       37.528      -27.890      -12.944       30.531       23.941       19.096      932.146      573.188      364.643        0.211        0.093       46.757       13.849        0.088      333.232        2.414      871.571
01/21/2022  08:22:00       35.612      -23.511      -20.270       13.324       21.135       18.548      177.537      446.693      344.034        0.160        0.048       42.672       12.377        0.084      333.192        2.346      871.564
01/21/2022  08:23:00       40.672      -47.485      -25.926       12.425       12.098        9.512      154.380      146.360       90.482        0.249        0.020       62.522        6.460        0.011      333.224        2.400      871.563
01/21/2022  08:24:00       34.829      -73.772      -26.734       32.967       31.355       22.981     1086.834      983.113      528.125        0.498        0.130       81.580       17.603        0.047      333.092        2.181      871.550
01/21/2022  08:25:00       32.201      -56.627      -27.692       21.352       28.705       13.067      455.909      823.986      170.759        0.323        0.073       65.142       12.415        0.036      332.962        1.967      871.546
01/21/2022  08:26:00       20.652      -23.585      -15.423       23.537       25.601       20.459      554.000      655.410      418.567        0.142        0.081       31.349       14.491        0.214      333.090        2.178      871.540
01/21/2022  08:27:00       -4.349        2.073       -7.371       14.110       14.196        9.594      199.079      201.522       92.036        0.028        0.025        4.818        5.945        1.523      333.120        2.228      871.538
01/21/2022  08:28:00      -23.134        0.782       -8.987       11.551       13.686       12.868      133.414      187.304      165.594        0.055        0.024       23.147        5.667        0.060      332.988        2.010      871.530
01/21/2022  08:29:00        1.953      -12.819       -6.525       22.172       32.727       12.779      491.602     1071.077      163.314        0.097        0.086       12.967       11.265        0.755      333.138        2.258      871.528
01/21/2022  08:30:00       27.981       62.571      -12.615       23.877       31.345       25.718      570.102      982.537      661.408        0.354        0.111       68.543       12.267        0.032      333.360        2.624      871.513
01/21/2022  08:31:00       -5.388      129.687      -19.364       73.528       52.567       28.925     5406.406     2763.295      836.627        1.311        0.450      129.799       18.226        0.020      333.623        3.059      871.475
01/21/2022  08:32:00      -14.256      118.794      -14.988       54.366       53.102       25.681     2955.617     2819.800      659.527        1.049        0.322      119.646       19.150        0.026      333.625        3.063      871.444
01/21/2022  08:33:00       23.968      138.614      -16.728       79.302       60.398       35.294     6288.737     3647.934     1245.641        1.562        0.559      140.671       15.552        0.012      333.810        3.369      871.432
01/21/2022  08:34:00       27.984      110.711      -20.638       65.937       63.160       33.367     4347.732     3989.136     1113.353        1.146        0.473      114.193       38.333        0.113      333.854        3.442      871.456
01/21/2022  08:35:00       30.697       45.918        0.494       36.944       33.761       26.348     1364.843     1139.802      694.194        0.312        0.160       55.234       18.186        0.108      333.964        3.625      871.514
01/21/2022  08:36:00       34.311       14.262      -10.918       43.616       33.231       26.077     1902.329     1104.288      680.020        0.259        0.184       37.157        8.351        0.051      333.974        3.642      871.564
01/21/2022  08:37:00       81.865       74.644       -4.508       81.822       54.647       34.349     6694.808     2986.345     1179.870        1.158        0.543      110.786       17.244        0.024      333.920        3.552      871.608
01/21/2022  08:38:00       67.072       22.423       -7.412       35.289       36.868       24.179     1245.323     1359.242      584.634        0.412        0.159       70.720       24.592        0.121      334.009        3.700      871.636
01/21/2022  08:39:00       61.153       84.635      -28.789       56.955       72.071       32.128     3243.836     5194.211     1032.191        1.060        0.474      104.416       33.051        0.100      333.898        3.514      871.653
01/21/2022  08:40:00       26.296       25.532       -8.819       43.181       40.537       23.342     1864.625     1643.281      544.836        0.274        0.203       36.652       20.287        0.306      333.928        3.565      871.667
01/21/2022  08:41:00      -14.785       -7.468      -10.994       33.253       39.426       19.442     1105.729     1554.394      378.006        0.172        0.152       16.564       14.870        0.806      334.090        3.833      871.688
01/21/2022  08:42:00      -26.404       -0.105      -10.379       40.213       22.148       15.557     1617.051      490.534      242.011        0.158        0.117       26.404       12.729        0.232      333.955        3.611      871.730
01/21/2022  08:43:00      -21.918        4.341      -21.191       27.794       48.545       22.268      772.500     2356.583      495.855        0.229        0.181       22.343       26.204        1.375      334.016        3.710      871.765
01/21/2022  08:44:00      149.508     -127.252      -50.840       81.522       92.091       50.055     6645.775     8480.785     2505.521        2.938        0.882      196.331       41.316        0.044      333.241        2.424      871.793
01/21/2022  08:45:00      113.643     -169.358      -41.250       55.781      108.838       42.693     3111.515    11845.673     1822.697        3.004        0.839      203.953       46.969        0.053      332.895        1.852      871.828
01/21/2022  08:46:00      105.651      -10.380      -20.635       83.963       97.618       72.656     7049.821     9529.240     5278.829        1.677        1.093      106.159       43.895        0.171      332.983        2.001      871.856
01/21/2022  08:47:00      105.180      -42.756      -10.916       91.392       61.763       49.262     8352.588     3814.708     2426.703        1.380        0.730      113.539       48.148        0.180      332.986        2.006      871.868
01/21/2022  08:48:00      111.489      -11.737      -13.264       92.024       53.654       40.473     8468.350     2878.765     1638.059        1.286        0.649      112.105       34.232        0.093      333.062        2.131      871.878
01/21/2022  08:49:00      112.871     -108.173      -46.704       58.871       70.504       33.871     3465.746     4970.860     1147.236        1.810        0.479      156.337       44.928        0.083      333.021        2.064      871.876
01/21/2022  08:50:00      152.833     -279.905      -55.975       55.902       75.487       38.732     3125.012     5698.278     1500.172        5.758        0.516      318.912       31.959        0.010      332.783        1.667      871.868
01/21/2022  08:51:00      153.957     -276.905      -65.323       57.461       64.002       27.199     3301.784     4096.207      739.797        5.639        0.407      316.826       28.006        0.008      332.756        1.621      871.861
01/21/2022  08:52:00      158.246     -273.432      -61.606       80.209      107.946       45.682     6433.549    11652.346     2086.847        6.188        1.009      315.923       50.134        0.025      332.802        1.697      871.877
01/21/2022  08:53:00      182.742     -292.809      -75.130       39.577       58.949       25.452     1566.364     3474.960      647.792        6.523        0.284      345.155       18.092        0.003      332.708        1.542      871.894
01/21/2022  08:54:00      133.014     -269.262      -57.658       59.152       63.216       44.347     3498.907     3996.238     1966.683        5.149        0.473      300.324       32.672        0.012      332.903        1.863      871.964
01/21/2022  08:55:00      125.674     -229.076      -56.321       55.465       90.563       43.922     3076.421     8201.692     1929.130        4.232        0.660      261.284       28.091        0.012      332.988        2.005      872.017
01/21/2022  08:56:00      110.665     -152.835      -56.407       42.127       61.608       34.420     1774.643     3795.581     1184.740        2.277        0.338      188.694       21.399        0.013      333.058        2.121      872.039
01/21/2022  08:57:00       47.326      -27.873      -30.871       38.796       51.886       28.463     1505.111     2692.108      810.125        0.449        0.250       54.925       19.454        0.125      333.235        2.417      872.054
01/21/2022  08:58:00       77.372      -88.606      -27.354       36.595       42.498       30.256     1339.161     1806.114      915.400        0.932        0.203      117.632       21.432        0.033      333.150        2.277      872.062
01/21/2022  08:59:00      100.003      -37.235      -31.361       52.421       52.709       23.475     2747.958     2778.226      551.053        0.922        0.304      106.710       16.637        0.024      333.287        2.502      872.080
01/21/2022  09:00:00       88.856      -75.846      -15.687       51.401       94.071       47.371     2642.040     8849.328     2243.984        1.381        0.687      116.825       43.779        0.140      333.400        2.690      872.097
01/21/2022  09:01:00      117.229     -285.908      -59.168       82.747      121.536       47.790     6847.115    14771.083     2283.879        6.144        1.195      309.008       55.301        0.032      333.514        2.877      872.101
01/21/2022  09:02:00      108.624     -253.473      -61.734       65.486       55.567       29.720     4288.359     3087.736      883.290        4.406        0.413      275.767       23.332        0.007      333.550        2.933      872.100
01/21/2022  09:03:00      122.376     -160.997      -36.477       76.268       79.407       51.615     5816.770     6305.530     2664.125        2.850        0.739      202.227       47.248        0.055      333.603        3.023      872.111
01/21/2022  09:04:00       46.658      -54.111      -31.457       51.099       71.064       45.476     2611.143     5050.068     2068.060        0.791        0.486       71.448       26.796        0.141      333.796        3.348      872.110
01/21/2022  09:05:00       68.008      -53.044      -17.400       66.746       58.608       35.236     4455.067     3434.867     1241.599        0.843        0.457       86.248       28.472        0.109      333.556        2.949      872.126
01/21/2022  09:06:00       61.517      -55.479      -27.375       57.002       58.737       41.800     3249.186     3450.070     1747.223        0.803        0.422       82.838       31.317        0.143      333.766        3.296      872.143
01/21/2022  09:07:00       91.995      -62.179      -24.413       48.432       52.141       32.758     2345.671     2718.734     1073.096        0.953        0.307      111.037       24.146        0.047      333.715        3.213      872.184
01/21/2022  09:08:00       24.663      -46.532       -0.066       33.008       47.222       30.135     1089.543     2229.960      908.116        0.350        0.211       52.664       24.383        0.214      333.908        3.532      872.230
01/21/2022  09:09:00       36.940       -8.117       -8.585       40.093       44.858       35.936     1607.483     2012.217     1291.362        0.321        0.246       37.822       27.953        0.546      333.931        3.570      872.259
01/21/2022  09:10:00       22.162       16.153       -5.882       33.738       38.852       27.717     1138.264     1509.502      768.240        0.210        0.171       27.424       20.673        0.568      333.889        3.501      872.258
01/21/2022  09:11:00      159.468        6.880      -15.636      118.624       56.526       43.087    14071.574     3195.142     1856.458        2.242        0.956      159.616       40.955        0.066      333.627        3.064      872.250
01/21/2022  09:12:00      220.815       32.531      -17.268       70.748       51.732       43.030     5005.216     2676.154     1851.611        2.982        0.477      223.198       33.914        0.023      333.460        2.786      872.265
01/21/2022  09:13:00      177.294       42.247      -18.904       81.255       46.415       37.636     6602.397     2154.357     1416.445        2.187        0.509      182.258       26.615        0.021      333.583        2.992      872.270
01/21/2022  09:14:00      182.183       15.011      -25.314       78.233       48.478       45.169     6120.328     2350.115     2040.242        2.228        0.526      182.801       24.447        0.018      333.822        3.386      872.259
01/21/2022  09:15:00       65.862       -5.586      -22.552       71.488       60.152       40.600     5110.504     3618.268     1648.357        0.763        0.519       66.098       10.646        0.026      333.937        3.578      872.253
01/21/2022  09:16:00       78.827      -37.394      -17.473       94.411       86.778       61.403     8913.394     7530.445     3770.313        1.406        1.011       87.247       47.529        0.297      333.920        3.551      872.240
01/21/2022  09:17:00      129.331      -31.275      -30.228       94.299       61.599       44.749     8892.264     3794.475     2002.451        1.665        0.734      133.059       20.231        0.023      333.775        3.310      872.254
01/21/2022  09:18:00       80.719        7.237      -21.750       64.585       66.504       44.930     4171.179     4422.826     2018.727        0.882        0.531       81.043       37.457        0.214      333.813        3.374      872.268
01/21/2022  09:19:00       61.203       -3.446      -35.117       57.013       59.478       39.655     3250.476     3537.634     1572.551        0.667        0.418       61.300       29.453        0.231      334.112        3.868      872.267
01/21/2022  09:20:00       87.149      -61.695      -21.054       75.163       85.971       56.218     5649.474     7390.941     3160.453        1.402        0.810      106.776       50.799        0.226      334.005        3.691      872.254
01/21/2022  09:21:00       70.856     -174.501      -36.940       48.902       65.126       46.871     2391.373     4241.340     2196.886        2.283        0.441      188.338       36.320        0.037      333.828        3.397      872.257
01/21/2022  09:22:00      115.004      -87.609      -27.566       56.316       66.202       50.471     3171.529     4382.762     2547.330        1.588        0.505      144.573       44.734        0.096      333.822        3.391      872.280
01/21/2022  09:23:00       71.303      -29.704      -17.671       79.977       72.761       59.432     6396.294     5294.194     3532.181        1.075        0.761       77.243       44.855        0.337      334.012        3.703      872.313
01/21/2022  09:24:00       77.632      -11.037        4.592       69.864       59.510       50.098     4880.987     3541.478     2509.805        0.855        0.547       78.413       43.138        0.303      334.056        3.777      872.357
01/21/2022  09:25:00       53.954      -13.284       -0.166       54.660       63.692       51.758     2987.705     4056.688     2678.897        0.640        0.486       55.566       34.924        0.395      334.045        3.759      872.437
01/21/2022  09:26:00      108.182      -20.738       -5.202       75.096       54.037       37.671     5639.366     2919.944     1419.089        1.107        0.499      110.152       40.413        0.135      334.008        3.698      872.489
01/21/2022  09:27:00      132.105       21.273      -26.077       90.575       88.661       40.656     8203.790     7860.715     1652.948        1.815        0.886      133.807       16.964        0.016      333.951        3.601      872.548
01/21/2022  09:28:00      154.099       80.730      -23.408      107.214       68.634       37.356    11494.771     4710.637     1395.442        2.420        0.880      173.965       17.636        0.010      334.038        3.745      872.615
01/21/2022  09:29:00       -0.823      -14.631      -11.772       46.541       49.483       32.683     2166.054     2448.614     1068.182        0.302        0.284       14.654       25.381        3.000      334.127        3.894      872.608
01/21/2022  09:30:00       77.840       -0.854      -22.183       77.946       42.280       29.349     6075.584     1787.639      861.358        0.764        0.436       77.845       21.555        0.077      333.999        3.683      872.601
01/21/2022  09:31:00       94.330      145.630      -24.472       51.225       75.905       38.188     2624.012     5761.577     1458.360        2.027        0.492      173.511       31.588        0.033      333.993        3.670      872.619
01/21/2022  09:32:00       78.042       82.235      -23.153       66.648       59.351       27.831     4441.979     3522.584      774.571        1.106        0.437      113.372       16.517        0.021      334.031        3.734      872.638
01/21/2022  09:33:00       58.947      138.908      -14.184       72.208       98.063       38.475     5213.999     9616.427     1480.329        1.964        0.816      150.898       29.142        0.037      334.115        3.872      872.619
01/21/2022  09:34:00      109.608      108.513      -19.137       87.186      117.964       58.840     7601.334    13915.613     3462.197        2.456        1.249      154.237       37.928        0.060      334.239        4.079      872.616
01/21/2022  09:35:00      129.139       28.856      -12.776      136.216      108.704       55.048    18554.768    11816.588     3030.252        2.553        1.670      132.323       46.447        0.123      334.118        3.877      872.626
01/21/2022  09:36:00      158.943       21.115      -22.368      102.421       85.193       48.387    10490.024     7257.769     2341.254        2.315        1.004      160.340       40.280        0.063      334.097        3.842      872.657
01/21/2022  09:37:00      293.062       59.657      -23.599      109.475       60.597       48.757    11984.876     3672.038     2377.216        5.401        0.902      299.072       36.482        0.015      334.074        3.803      872.713
01/21/2022  09:38:00      226.345      128.303      -57.426       97.129       74.451       51.383     9434.067     5542.938     2640.186        4.430        0.881      260.180       22.152        0.007      334.073        3.801      872.772
01/21/2022  09:39:00       35.593      151.824      -16.287       59.695       75.550       49.020     3563.514     5707.842     2402.923        1.813        0.584      155.940       33.710        0.047      334.081        3.817      872.773
01/21/2022  09:40:00      135.254      190.517      -25.437       89.195       92.027       63.884     7955.745     8468.898     4081.106        3.787        1.025      233.646       49.977        0.046      333.994        3.671      872.779
01/21/2022  09:41:00       73.012       74.790      -21.329       52.897       77.341       42.912     2798.112     5981.654     1841.400        1.100        0.531      104.519       32.697        0.098      334.104        3.856      872.772
01/21/2022  09:42:00      222.465       -1.685      -19.465      151.672       75.540       62.119    23004.250     5706.344     3858.819        4.121        1.628      222.472       47.145        0.045      334.078        3.811      872.778
01/21/2022  09:43:00       83.912      -57.669      -27.631       72.415       64.708       50.418     5243.988     4187.087     2542.004        1.155        0.599      101.818       34.815        0.117      334.169        3.965      872.783
01/21/2022  09:44:00       72.781      -38.100      -50.224       52.652       68.312       34.684     2772.229     4666.489     1202.976        0.895        0.432       82.151       13.491        0.027      334.164        3.956      872.779
01/21/2022  09:45:00      191.556       27.274      -36.000       85.753       65.649       34.599     7353.658     4309.840     1197.074        2.579        0.643      193.488       35.012        0.033      333.895        3.507      872.798
01/21/2022  09:46:00      303.973      151.053      -33.822      107.511       83.320       45.495    11558.524     6942.161     2069.817        6.846        1.029      339.436       49.017        0.021      333.844        3.420      872.812
01/21/2022  09:47:00      298.860       78.914      -36.955       78.421       52.084       31.070     6149.883     2712.705      965.341        5.337        0.491      309.103       16.816        0.003      333.668        3.131      872.800
01/21/2022  09:48:00      219.087       59.909      -23.380       51.394       42.327       28.137     2641.306     1791.583      791.665        2.868        0.261      227.130       23.867        0.011      333.713        3.203      872.791
01/21/2022  09:49:00      146.801       51.015      -29.138       84.822       74.486       45.109     7194.763     5548.118     2034.822        1.989        0.739      155.413       20.620        0.018      334.139        3.911      872.777
01/21/2022  09:50:00      315.264      176.451      -30.588      171.467       85.028       48.995    29400.825     7229.762     2400.505        8.524        1.952      361.284       50.205        0.019      334.040        3.748      872.775
01/21/2022  09:51:00      341.842       72.915      -31.149      120.492      124.637       67.984    14518.246    15534.396     4621.849        7.890        1.734      349.532       56.649        0.026      333.995        3.671      872.751
01/21/2022  09:52:00      352.348       88.321      -29.952      108.859      116.235       56.689    11850.209    13510.604     3213.663        8.071        1.429      363.249       54.161        0.022      334.043        3.751      872.769
01/21/2022  09:53:00      313.198       66.395      -24.387      119.759       69.700       62.356    14342.209     4858.023     3888.285        6.309        1.154      320.159       55.081        0.030      333.961        3.617      872.774
01/21/2022  09:54:00      198.879       65.045      -21.595       94.728       77.624       50.753     8973.333     6025.411     2575.887        3.091        0.879      209.246       34.324        0.027      334.232        4.064      872.778
01/21/2022  09:55:00      280.603       93.856      -19.326      119.594       75.892       51.612    14302.662     5759.640     2663.813        5.532        1.136      295.883       34.498        0.014      333.971        3.632      872.791
01/21/2022  09:56:00      315.293       94.200      -38.006      117.196       79.158       49.636    13734.973     6266.026     2463.750        6.609        1.123      329.064        9.617        0.001      333.963        3.618      872.800
01/21/2022  09:57:00      239.877      126.731      -20.360      105.100       92.891       51.006    11046.022     8628.656     2601.582        4.814        1.114      271.297       40.030        0.022      334.162        3.948      872.816
01/21/2022  09:58:00      271.402       66.975      -30.304      103.393      103.843       64.421    10690.154    10783.394     4150.033        5.234        1.281      279.543       41.482        0.022      334.374        4.302      872.833
01/21/2022  09:59:00      127.949       22.652      -12.479      110.124       83.541       61.536    12127.343     6979.164     3786.619        1.996        1.145      129.939       50.386        0.150      334.285        4.154      872.846
01/21/2022  10:00:00      135.857      124.652      -31.516       87.338       72.094       48.052     7627.939     5197.473     2308.950        2.506        0.757      184.378       42.799        0.054      334.155        3.940      872.861
01/21/2022  10:01:00      125.808      116.858       -9.270      116.147      123.393       55.248    13490.126    15225.772     3052.371        3.066        1.588      171.707       61.818        0.130      334.234        4.068      872.869
01/21/2022  10:02:00      176.342      290.564      -44.916       97.181      110.093       70.550     9444.161    12120.390     4977.328        7.204        1.327      339.888       64.977        0.037      334.004        3.686      872.885
01/21/2022  10:03:00      259.429      194.592      -38.766      158.390       87.819       72.172    25087.523     7712.209     5208.737        7.233        1.900      324.298       64.197        0.039      334.032        3.734      872.897
01/21/2022  10:04:00      157.372      134.207      -26.079       97.762       85.107       44.386     9557.381     7243.279     1970.151        3.111        0.939      206.827       42.510        0.042      334.096        3.841      872.902
01/21/2022  10:05:00      112.615      186.728      -31.783       82.868      130.451       57.941     6867.099    17017.545     3357.117        3.790        1.362      218.058       45.514        0.044      334.218        4.041      872.908
01/21/2022  10:06:00      267.351      139.052      -38.910      138.711       90.819       63.352    19240.713     8248.159     4013.426        6.191        1.575      301.350       45.663        0.023      334.258        4.108      872.937
01/21/2022  10:07:00      228.929       87.077      -27.868      128.877      111.867       55.266    16609.213    12514.271     3054.292        4.647        1.609      244.930       62.417        0.065      334.139        3.911      872.963
01/21/2022  10:08:00      173.460       52.838      -12.752       94.176       66.352       48.395     8869.137     4402.615     2342.058        2.433        0.781      181.329       35.395        0.038      334.247        4.090      872.977
01/21/2022  10:09:00      144.477      134.707      -23.102       77.667       74.807       42.658     6032.121     5596.105     1819.704        2.650        0.672      197.534       36.310        0.034      334.192        4.001      872.985
01/21/2022  10:10:00      154.903      164.200      -17.959      127.065       83.370       65.964    16145.521     6950.540     4351.307        3.936        1.372      225.736       48.062        0.045      334.026        3.723      872.964
01/21/2022  10:11:00      176.252      204.323      -37.714       82.061      138.683       58.375     6734.035    19232.871     3407.610        5.180        1.469      269.838       36.591        0.018      334.027        3.724      872.929
01/21/2022  10:12:00      166.295      122.836      -23.534       92.043       71.330       50.634     8471.835     5088.023     2563.837        2.971        0.806      206.743       46.537        0.051      334.251        4.097      872.923
01/21/2022  10:13:00      206.218       94.816      -32.446       78.203       59.254       38.353     6115.701     3511.016     1470.936        3.183        0.555      226.971       30.482        0.018      334.291        4.164      872.940
01/21/2022  10:14:00       73.140       26.088      -22.095       65.851      104.723       38.541     4336.415    10966.824     1485.443        1.165        0.839       77.653       28.310        0.133      334.625        4.721      872.983
01/21/2022  10:15:00      212.757      150.072      -37.151      119.614       85.231       59.968    14307.584     7264.335     3596.179        4.716        1.258      260.360       46.323        0.032      334.264        4.119      873.012
01/21/2022  10:16:00      142.248      138.432      -19.748      106.226       90.145       51.753    11283.999     8126.108     2678.324        3.093        1.104      198.489       41.179        0.043      334.328        4.225      873.018
01/21/2022  10:17:00      168.386       91.253      -14.519       89.548       73.782       52.881     8018.782     5443.816     2796.426        2.657        0.813      191.523       35.653        0.035      334.407        4.356      873.001
01/21/2022  10:18:00       80.666      145.012      -11.233       72.689       91.640       47.752     5283.700     8397.806     2280.292        2.181        0.798      165.939       46.941        0.080      334.469        4.459      872.992
01/21/2022  10:19:00      197.648      252.889      -46.377      124.360      111.584       70.199    15465.507    12451.075     4927.845        6.900        1.642      320.963       55.798        0.030      334.226        4.055      872.978
01/21/2022  10:20:00      321.829       83.585      -13.672      144.118      102.483       64.556    20770.028    10502.857     4167.520        7.309        1.772      332.506       50.517        0.023      334.152        3.931      872.986
01/21/2022  10:21:00      276.992       86.730      -44.524      156.104      109.615       69.187    24368.560    12015.345     4786.841        6.369        2.059      290.253       68.555        0.056      334.259        4.108      872.992
01/21/2022  10:22:00      258.454       77.581      -23.911      108.584       71.371       57.025    11790.527     5093.881     3251.799        4.676        1.007      269.847       40.461        0.022      334.220        4.044      873.000
01/21/2022  10:23:00      200.902       34.107      -17.840      105.287       60.331       48.297    11085.260     3639.889     2332.571        2.945        0.853      203.776       45.205        0.049      334.219        4.045      872.987
01/21/2022  10:24:00       29.134      -12.183      -13.489       84.703       88.587       42.418     7174.657     7847.740     1799.297        0.900        0.841       31.579       37.517        1.411      334.466        4.456      872.980
01/21/2022  10:25:00       90.174       65.644      -28.417       81.895       79.990       50.945     6706.799     6398.377     2595.438        1.447        0.785      111.536       22.907        0.042      334.688        4.825      872.972
01/21/2022  10:26:00      148.052       62.814      -24.937      100.182       76.601       54.186    10036.526     5867.741     2936.105        2.266        0.942      160.826       33.481        0.043      334.746        4.919      872.988
01/21/2022  10:27:00      231.764       96.666      -29.568      102.857       91.814       48.656    10579.581     8429.840     2367.385        4.265        1.069      251.115       44.168        0.031      334.425        4.384      872.995
01/21/2022  10:28:00      186.085      135.658      -44.413       68.799       92.964       48.771     4733.335     8642.310     2378.615        3.538        0.788      230.284       36.775        0.026      334.283        4.151      873.013
01/21/2022  10:29:00      136.997      147.965      -22.620       65.449       88.455       50.464     4283.552     7824.275     2546.568        2.791        0.733      201.648       39.170        0.038      334.287        4.157      873.001
01/21/2022  10:30:00      210.299      161.070      -34.078      106.465       88.653       53.948    11334.772     7859.368     2910.341        4.671        1.105      264.895       57.698        0.047      334.320        4.211      872.991
01/21/2022  10:31:00      322.561       94.466      -17.225      127.445       91.441       64.696    16242.317     8361.528     4185.617        7.102        1.439      336.109       50.815        0.023      334.143        3.918      872.971
01/21/2022  10:32:00      259.080      130.683      -24.597       86.179       78.272       48.981     7426.903     6126.467     2399.178        5.038        0.798      290.173       34.362        0.014      334.288        4.158      872.985
01/21/2022  10:33:00      209.866      111.525      -29.034       65.889       55.162       38.786     4341.369     3042.866     1504.371        3.311        0.444      237.659       28.864        0.015      334.084        3.819      872.995
01/21/2022  10:34:00      263.670      143.362      -33.438      116.436       77.202       42.653    13557.391     5960.097     1819.239        5.626        1.067      300.125       17.730        0.003      334.195        4.004      872.959
01/21/2022  10:35:00      166.819       27.106      -33.450      112.460      108.090       56.356    12647.306    11683.440     3175.975        2.859        1.375      169.006       32.073        0.036      334.656        4.771      872.945
01/21/2022  10:36:00      135.226       20.526      -26.101      124.490       97.125       61.372    15497.639     9433.288     3766.560        2.404        1.435      136.775       39.693        0.084      334.615        4.702      872.936
01/21/2022  10:37:00      253.936       65.890      -16.452       92.199       74.050       53.352     8500.678     5483.360     2846.474        4.296        0.842      262.345       44.440        0.029      334.581        4.646      872.921
01/21/2022  10:38:00      185.213        3.381      -33.171      104.432       89.362       58.826    10906.119     7985.565     3460.469        2.888        1.118      185.244       30.650        0.027      334.654        4.768      872.907
01/21/2022  10:39:00      134.917       -9.676      -24.205      149.095       82.727       69.654    22229.385     6843.724     4851.673        2.640        1.696      135.263       61.020        0.204      334.587        4.655      872.888
01/21/2022  10:40:00      279.033      108.831      -23.934       56.484       61.339       43.561     3190.460     3762.454     1897.587        4.956        0.443      299.506       25.261        0.007      334.024        3.717      872.888
01/21/2022  10:41:00      197.765      122.447      -27.668      108.332       70.757       41.835    11735.900     5006.603     1750.174        3.668        0.925      232.603       28.202        0.015      334.293        4.167      872.874
01/21/2022  10:42:00      143.721      158.949      -21.693       84.092       73.348       48.557     7071.530     5379.975     2357.740        3.060        0.740      214.291       45.562        0.045      334.439        4.409      872.872
01/21/2022  10:43:00      321.588       65.273      -21.608      103.514       60.351       42.797    10715.223     3642.283     1831.551        6.216        0.809      328.146       32.146        0.010      334.213        4.033      872.886
01/21/2022  10:44:00      211.837       39.297      -19.498      150.067       86.599       48.499    22520.002     7499.463     2352.193        3.958        1.619      215.451       46.775        0.047      334.402        4.349      872.908
01/21/2022  10:45:00      263.411      103.802      -17.946      103.405       84.927       52.361    10692.574     7212.631     2741.706        5.056        1.032      283.126       32.071        0.013      334.312        4.198      872.934
01/21/2022  10:46:00      140.083      150.369      -31.882       50.874       57.367       37.285     2588.148     3291.026     1390.200        2.526        0.363      205.510       32.672        0.025      334.102        3.850      872.979
01/21/2022  10:47:00      174.473       63.349      -31.120       69.890       59.728       31.836     4884.566     3567.473     1013.559        2.244        0.473      185.618       10.196        0.003      334.380        4.312      872.950
01/21/2022  10:48:00      161.148      250.303      -29.903      103.011      179.418       71.972    10611.234    32190.927     5180.032        6.874        2.399      297.692       75.933        0.065      334.388        4.326      872.949
01/21/2022  10:49:00      173.640      103.090      -26.151      108.094       79.992       66.227    11684.349     6398.765     4386.004        3.196        1.123      201.937       48.371        0.057      334.682        4.813      872.956
01/21/2022  10:50:00      165.106       55.647      -40.369      122.943       55.902       39.037    15115.006     3125.028     1523.910        2.587        0.988      174.231       30.715        0.031      334.400        4.345      872.955
01/21/2022  10:51:00      215.286       24.596      -18.209      123.531       79.057       55.836    15259.816     6249.943     3117.605        3.595        1.231      216.686       44.858        0.043      334.532        4.564      872.948
01/21/2022  10:52:00      233.709      115.680      -22.621      118.631       68.231       49.778    14073.231     4655.480     2477.817        4.486        1.060      260.772       38.367        0.022      334.448        4.423      872.946
01/21/2022  10:53:00      155.166      108.357      -12.705       90.369       71.977       47.447     8166.467     5180.639     2251.261        2.579        0.780      189.255       44.270        0.055      334.473        4.468      872.947
01/21/2022  10:54:00      109.680       90.807      -11.330       86.263       76.207       45.114     7441.361     5807.454     2035.237        1.784        0.764      142.393       40.124        0.079      334.587        4.657      872.922
01/21/2022  10:55:00      150.043      134.521      -25.366       85.457       81.850       50.132     7302.862     6699.458     2513.180        2.888        0.826      201.517       44.323        0.048      334.607        4.688      872.893
01/21/2022  10:56:00      136.842      115.212      -20.785       78.814       61.281       38.133     6211.689     3755.381     1454.099        2.192        0.571      178.884       31.623        0.031      334.493        4.499      872.879
01/21/2022  10:57:00      136.258       18.798      -23.126       73.608       96.551       41.697     5418.121     9322.189     1738.660        1.796        0.824      137.548       31.893        0.054      334.717        4.872      872.842
01/21/2022  10:58:00      269.569       57.198       -7.953      128.084      105.045       68.571    16405.565    11034.553     4701.945        5.407        1.607      275.570       66.362        0.058      334.502        4.515      872.788
01/21/2022  10:59:00      163.678      141.108      -13.773      120.159       84.451       58.460    14438.189     7131.978     3417.604        3.594        1.249      216.107       54.634        0.064      334.622        4.714      872.788
01/21/2022  11:00:00      158.365      121.515      -31.880       94.060       97.861       52.772     8847.338     9576.751     2784.904        3.103        1.060      199.613       36.938        0.034      334.620        4.710      872.769
01/21/2022  11:01:00      249.631      120.856      -45.123      101.761      116.080       45.445    10355.383    13474.517     2065.238        5.242        1.295      277.348       46.502        0.028      334.310        4.196      872.767
01/21/2022  11:02:00       87.479      -15.400      -34.495       73.504       70.128       42.473     5402.792     4917.944     1803.989        1.060        0.606       88.824       28.184        0.101      334.660        4.777      872.753
01/21/2022  11:03:00       25.777       20.282      -15.003       63.725       51.543       26.628     4060.825     2656.692      709.029        0.436        0.371       32.800       17.623        0.289      334.754        4.936      872.750
01/21/2022  11:04:00      150.525      120.339      -27.831       60.899       62.244       48.114     3708.686     3874.359     2314.916        2.390        0.495      192.715       29.633        0.024      334.503        4.515      872.749
01/21/2022  11:05:00      186.641       88.657      -27.237       75.288       64.523       43.667     5668.356     4163.277     1906.782        2.759        0.587      206.627       33.548        0.026      334.425        4.386      872.736
01/21/2022  11:06:00      124.508       88.011      -17.306       64.373       51.149       26.422     4143.850     2616.217      698.104        1.550        0.373      152.473       22.701        0.022      334.120        3.882      872.725
01/21/2022  11:07:00      100.887      122.785      -37.494       38.287       75.191       32.222     1465.914     5653.645     1038.235        1.741        0.408      158.916       24.999        0.025      334.121        3.882      872.707
01/21/2022  11:08:00       64.366      136.245      -16.152       91.456       83.066       27.057     8364.243     6899.926      732.103        1.948        0.800      150.684       30.760        0.042      334.228        4.060      872.678
01/21/2022  11:09:00      209.544      141.285      -36.539       96.291       95.863       58.125     9271.980     9189.630     3378.535        4.352        1.092      252.725       57.351        0.051      334.309        4.191      872.635
01/21/2022  11:10:00      131.726      168.041      -23.439       76.918       80.563       46.596     5916.393     6490.325     2171.187        3.036        0.729      213.517       40.728        0.036      334.547        4.588      872.620
01/21/2022  11:11:00       90.566       67.316      -30.001       68.588       83.322       55.120     4704.356     6942.475     3038.197        1.416        0.734      112.843       36.501        0.105      334.683        4.817      872.603
01/21/2022  11:12:00      217.775       29.653      -33.130      118.445       97.132       51.873    14029.154     9434.723     2690.802        3.777        1.308      219.785       27.966        0.016      334.644        4.750      872.604
01/21/2022  11:13:00      168.742       35.730      -26.318      115.965       89.500       50.250    13447.776     8010.292     2525.079        2.721        1.199      172.483       21.933        0.016      334.704        4.851      872.611
01/21/2022  11:14:00      188.584       87.366      -22.130      124.227      120.026       70.643    15432.457    14406.187     4990.444        3.925        1.741      207.838       52.966        0.065      334.421        4.378      872.590
01/21/2022  11:15:00      356.785      160.588      -37.799       94.072       91.301       53.232     8849.604     8335.782     2833.603        8.726        1.001      391.259       43.121        0.012      334.238        4.076      872.556
01/21/2022  11:16:00      305.767      160.059      -47.585       57.078       37.583       34.435     3257.927     1412.459     1185.735        6.362        0.293      345.127       18.673        0.003      334.166        3.955      872.511
01/21/2022  11:17:00       80.035      178.224      -21.638       77.109       59.454       43.884     5945.829     3534.837     1925.806        2.502        0.570      195.370       38.444        0.039      334.460        4.445      872.485
01/21/2022  11:18:00       65.575      117.796      -16.986       56.092       68.411       38.053     3146.277     4680.116     1448.027        1.387        0.464      134.819       18.089        0.018      334.511        4.530      872.454
01/21/2022  11:19:00       85.105       21.383      -10.038       86.122       33.027       32.966     7417.000     1090.788     1086.775        0.870        0.480       87.750       35.157        0.161      334.657        4.774      872.440
01/21/2022  11:20:00       34.978       39.589       -7.015       41.200       44.402       31.478     1697.454     1971.497      990.896        0.375        0.233       52.828       23.369        0.196      334.964        5.285      872.438
01/21/2022  11:21:00      128.503       58.638      -12.270       51.756       41.521       29.125     2678.685     1723.966      848.274        1.268        0.263      141.250       15.635        0.012      334.544        4.588      872.439
01/21/2022  11:22:00      159.720       96.751      -27.364       56.646       54.805       37.221     3208.751     3003.637     1385.427        2.161        0.380      186.738       18.005        0.009      334.497        4.505      872.437
01/21/2022  11:23:00      209.231       62.234      -29.194       48.278       53.071       40.197     2330.739     2816.581     1615.832        2.763        0.338      218.291       25.894        0.014      334.560        4.611      872.439
01/21/2022  11:24:00      175.530       56.667       -7.800       86.573       60.203       38.970     7494.912     3624.342     1518.647        2.336        0.632      184.450       40.800        0.049      334.735        4.901      872.427
01/21/2022  11:25:00      158.968      123.961      -17.889       66.271       60.606       43.572     4391.785     3673.077     1898.520        2.546        0.498      201.586       36.891        0.033      334.626        4.718      872.397
01/21/2022  11:26:00      210.376       83.776      -16.475       78.210       63.446       37.117     6116.838     4025.457     1377.686        3.153        0.576      226.443       31.980        0.020      334.520        4.543      872.360
01/21/2022  11:27:00      163.891       73.417      -29.299       71.629       74.579       42.601     5130.673     5561.961     1814.840        2.281        0.625      179.584       28.543        0.025      334.673        4.799      872.317
01/21/2022  11:28:00      143.322       59.501      -23.793       73.811       63.951       41.497     5448.069     4089.749     1721.967        1.795        0.563      155.182       32.314        0.043      334.444        4.419      872.289
01/21/2022  11:29:00      148.743       71.315      -24.395       70.011       59.148       31.236     4901.483     3498.483      975.711        1.859        0.469      164.955       24.042        0.021      334.559        4.610      872.285
01/21/2022  11:30:00      106.011       64.463      -21.422       80.617       53.653       36.980     6499.036     2878.616     1367.542        1.330        0.537      124.072       35.122        0.080      334.704        4.851      872.292
01/21/2022  11:31:00      -21.835       -8.502       -4.111       38.105       35.987       29.894     1452.013     1295.064      893.625        0.210        0.182       23.432       16.365        0.488      335.344        5.915      872.295
01/21/2022  11:32:00       97.777       81.730      -20.568       37.424       47.587       25.058     1400.529     2264.560      627.885        1.048        0.215      127.437       16.717        0.017      334.701        4.846      872.304
01/21/2022  11:33:00       84.188        4.896      -15.302       55.149       54.459       38.177     3041.358     2965.816     1457.463        0.740        0.373       84.330       15.001        0.032      335.100        5.510      872.288
01/21/2022  11:34:00       34.205       35.235      -11.487       61.515       45.508       35.918     3784.078     2070.934     1290.084        0.484        0.357       49.107       27.072        0.304      335.397        6.003      872.277
01/21/2022  11:35:00       63.767       13.294       -5.743       59.100       36.226       34.956     3492.806     1312.292     1221.892        0.515        0.301       65.138       13.825        0.045      335.065        5.452      872.269
01/21/2022  11:36:00      116.855      117.091      -18.904       61.050       66.214       35.429     3727.052     4384.279     1255.245        1.854        0.468      165.425       35.170        0.045      334.561        4.612      872.288
01/21/2022  11:37:00      130.229      177.328      -38.345       77.263       74.834       47.502     5969.637     5600.117     2256.477        3.185        0.691      220.011       39.318        0.032      334.459        4.443      872.297
01/21/2022  11:38:00      167.166      158.535      -30.060       87.642       86.396       51.943     7681.079     7464.284     2698.113        3.591        0.892      230.387       54.145        0.055      334.525        4.552      872.296
01/21/2022  11:39:00      250.932      119.090      -28.526      104.389       76.475       44.240    10897.000     5848.354     1957.213        4.833        0.935      277.757       38.627        0.019      334.558        4.607      872.303
01/21/2022  11:40:00      185.684       79.666      -26.731       54.317       32.641       23.828     2950.390     1065.453      567.791        2.306        0.229      202.052       21.485        0.011      334.234        4.068      872.306
01/21/2022  11:41:00       85.225       78.814      -23.883       49.958       66.729       30.709     2495.767     4452.739      943.035        1.097        0.395      116.082       18.106        0.024      334.441        4.413      872.280
01/21/2022  11:42:00       48.687      170.973       -8.057       54.583       90.397       39.496     2979.325     8171.641     1559.933        2.219        0.636      177.770       45.779        0.066      334.616        4.703      872.254
01/21/2022  11:43:00       62.287      187.544      -19.495       54.661       89.767       43.045     2987.875     8058.100     1852.858        2.616        0.645      197.617       41.535        0.044      334.661        4.780      872.212
01/21/2022  11:44:00      126.913       43.292      -11.085       73.814       89.125       41.084     5448.573     7943.268     1687.862        1.659        0.754      134.093       32.654        0.059      334.748        4.926      872.195
01/21/2022  11:45:00      149.135       47.835      -15.901       77.362       75.198       36.380     5984.819     5654.758     1323.475        1.887        0.648      156.619       32.387        0.043      334.874        5.133      872.182
01/21/2022  11:46:00      114.350        1.004      -20.553       72.790       61.726       39.385     5298.450     3810.151     1551.181        1.208        0.533      114.354       19.802        0.030      334.717        4.872      872.176
01/21/2022  11:47:00      198.361       34.331      -30.557      100.409       68.799       39.742    10081.971     4733.303     1579.411        2.892        0.820      201.310       25.658        0.016      334.716        4.868      872.192
01/21/2022  11:48:00       83.694       21.063      -22.629       52.026       62.509       40.705     2706.728     3907.393     1656.894        0.811        0.414       86.304       35.462        0.169      334.999        5.344      872.196
01/21/2022  11:49:00      217.766       38.666      -21.597       98.749       55.891       33.023     9751.444     3123.784     1090.510        3.167        0.698      221.172       26.238        0.014      334.775        4.969      872.195
01/21/2022  11:50:00      182.362       45.683      -23.474       75.438       62.231       37.256     5690.849     3872.669     1387.977        2.342        0.548      187.997       29.123        0.024      334.610        4.692      872.180
01/21/2022  11:51:00        8.796       34.659       -1.343       53.952       50.394       35.488     2910.858     2539.593     1259.400        0.399        0.335       35.758       22.797        0.406      335.008        5.359      872.150
01/21/2022  11:52:00      103.175       96.567      -15.481       71.309       56.385       27.128     5084.976     3179.247      735.914        1.460        0.450      141.316       22.394        0.025      334.563        4.617      872.147
01/21/2022  11:53:00      122.078       25.367      -18.238       41.480       39.813       36.893     1720.565     1585.065     1361.074        1.027        0.233      124.686       22.802        0.033      334.671        4.797      872.144
01/21/2022  11:54:00      183.449       55.957      -20.972       53.298       47.212       33.440     2840.697     2228.937     1118.261        2.171        0.309      191.793       22.831        0.014      334.534        4.568      872.143
01/21/2022  11:55:00       86.024       87.627      -20.527       44.331       41.656       27.231     1965.229     1735.216      741.545        0.997        0.222      122.795       19.094        0.024      334.514        4.535      872.134
01/21/2022  11:56:00      122.082       36.784        0.157       91.807       61.755       31.802     8428.534     3813.620     1011.374        1.475        0.663      127.503       39.704        0.097      334.772        4.962      872.128
01/21/2022  11:57:00      220.362       97.923      -22.972       64.932       65.194       37.124     4216.130     4250.294     1378.173        3.426        0.492      241.140       32.273        0.018      334.457        4.439      872.121
01/21/2022  11:58:00      123.594       -4.544      -17.718       84.992       68.028       36.615     7223.582     4627.875     1340.662        1.440        0.660      123.678       28.994        0.055      334.905        5.186      872.110
01/21/2022  11:59:00      126.589      -86.929      -34.374       71.553       63.071       40.937     5119.819     3977.935     1675.861        1.777        0.539      153.562       25.567        0.028      334.730        4.895      872.086
01/21/2022  12:00:00       92.595      -39.590      -61.215       61.468      101.062       42.152     3778.301    10213.501     1776.761        1.483        0.788      100.703       15.607        0.024      334.770        4.962      872.065
01/21/2022  12:01:00       28.665      -63.240      -19.139       43.444       60.463       34.063     1887.404     3655.823     1160.295        0.594        0.335       69.433       23.269        0.112      334.939        5.242      872.060
01/21/2022  12:02:00      116.297        7.452       -7.343       68.728       71.176       55.194     4723.546     5066.011     3046.325        1.323        0.642      116.536       35.386        0.092      334.768        4.958      872.042
01/21/2022  12:03:00      138.675       -0.882       -4.789       93.862       65.914       38.035     8810.094     4344.646     1446.686        1.693        0.730      138.678       36.313        0.069      334.707        4.856      872.024
01/21/2022  12:04:00      129.881       33.570      -17.617       83.088       54.535       44.410     6903.613     2974.112     1972.290        1.508        0.593      134.149       39.140        0.085      334.657        4.773      872.013
01/21/2022  12:05:00      225.914       -0.466      -19.002       96.706       88.707       44.741     9352.010     7868.989     2001.757        3.531        0.961      225.914       34.002        0.023      334.652        4.762      872.001
01/21/2022  12:06:00      138.501      -16.087       -9.566       94.673       66.052       51.754     8963.061     4362.931     2678.456        1.777        0.800      139.432       46.740        0.112      334.745        4.920      872.015
01/21/2022  12:07:00      165.752       19.430      -15.699       94.730       61.678       32.218     8973.744     3804.207     1038.020        2.095        0.691      166.887       17.680        0.011      334.740        4.911      872.027
01/21/2022  12:08:00      126.111      -23.639      -11.541       83.186       59.689       51.398     6919.918     3562.817     2641.770        1.486        0.656      128.308       48.464        0.143      334.844        5.084      872.009
01/21/2022  12:09:00      113.090      -67.455      -27.880       75.662       85.661       48.945     5724.712     7337.733     2395.585        1.678        0.773      131.680       42.092        0.102      334.745        4.919      871.968
01/21/2022  12:10:00      104.218      -42.783      -42.184       76.801       80.051       48.694     5898.433     6408.147     2371.131        1.457        0.734      112.657       33.203        0.087      334.873        5.133      871.931
01/21/2022  12:11:00      128.878       -5.012      -32.438       71.656       67.093       38.891     5134.585     4501.520     1512.543        1.442        0.557      128.975       25.910        0.040      334.916        5.204      871.934
01/21/2022  12:12:00       36.419      -16.973      -22.754       55.216       51.881       30.623     3048.776     2691.616      937.738        0.440        0.334       40.180       24.512        0.372      335.195        5.666      871.924
01/21/2022  12:13:00       78.621       -3.424      -16.714       57.428       66.129       33.991     3297.976     4373.029     1155.388        0.765        0.441       78.695       28.741        0.133      334.876        5.138      871.909
01/21/2022  12:14:00       94.184       -0.849      -18.316       86.952       55.539       41.614     7560.679     3084.592     1731.728        1.079        0.619       94.188       40.224        0.182      334.796        5.005      871.885
01/21/2022  12:15:00       94.428      -38.888      -37.886       53.592       66.313       30.993     2872.144     4397.397      960.557        1.005        0.412      102.122       12.697        0.015      334.726        4.889      871.867
01/21/2022  12:16:00       54.364      -14.520      -16.569       50.563       34.992       35.831     2556.617     1224.433     1283.834        0.425        0.253       56.270       19.489        0.120      334.842        5.082      871.848
01/21/2022  12:17:00       68.130       14.865      -10.721       45.616       65.281       39.171     2080.787     4261.643     1534.346        0.643        0.394       69.733       20.765        0.089      334.814        5.035      871.835
01/21/2022  12:18:00       66.112      -27.521      -25.723       65.493       68.534       39.006     4289.352     4696.854     1521.482        0.815        0.525       71.611       27.862        0.151      334.844        5.086      871.808
01/21/2022  12:19:00      131.817       -3.930      -14.786       97.869       84.553       63.434     9578.417     7149.223     4023.814        1.918        1.038      131.875       49.915        0.143      334.683        4.816      871.762
01/21/2022  12:20:00      173.086      -24.716      -11.749       96.360       59.501       47.014     9285.238     3540.380     2210.322        2.287        0.752      174.842       39.895        0.052      334.691        4.829      871.734
01/21/2022  12:21:00      114.985      -47.479      -27.532       77.498       80.674       47.896     6005.915     6508.270     2294.011        1.552        0.740      124.402       37.005        0.088      334.734        4.901      871.707
01/21/2022  12:22:00      122.627      -45.509      -13.961       66.921       51.982       38.688     4478.382     2702.167     1496.727        1.299        0.434      130.799       36.875        0.079      334.599        4.677      871.663
01/21/2022  12:23:00       85.468      -39.695      -17.465       60.435       60.383       31.516     3652.384     3646.149      993.237        0.874        0.415       94.236       18.249        0.038      334.658        4.775      871.637
01/21/2022  12:24:00       97.779       -4.319       -9.572       86.468       60.929       63.628     7476.765     3712.362     4048.562        1.245        0.762       97.874       46.019        0.221      334.816        5.036      871.610
01/21/2022  12:25:00       67.323      -17.718       -6.209       86.354       61.883       46.571     7456.942     3829.529     2168.848        0.917        0.673       69.616       46.849        0.453      334.841        5.081      871.627
01/21/2022  12:26:00       38.243      -22.493      -10.638       34.240       33.319       28.548     1172.404     1110.151      814.985        0.259        0.155       44.367       14.827        0.112      335.006        5.353      871.639
01/21/2022  12:27:00       -6.214       -9.251       -4.327       21.627       17.565       26.236      467.729      308.534      688.338        0.080        0.073       11.145       17.595        2.492      335.240        5.741      871.650
01/21/2022  12:28:00      -10.995      -31.301       -2.438       43.074       28.329       28.070     1855.375      802.530      787.927        0.228        0.172       33.176       24.777        0.558      335.074        5.466      871.651
01/21/2022  12:29:00      102.531        1.063      -23.342       45.110       34.527       19.770     2034.924     1192.113      390.868        0.734        0.181      102.537       17.436        0.029      334.746        4.922      871.658
01/21/2022  12:30:00       32.575      -24.871       -5.165       34.089       19.013       19.612     1162.038      361.493      384.617        0.181        0.095       40.984       18.087        0.195      334.824        5.051      871.660
01/21/2022  12:31:00       -6.035       40.096      -18.687       28.573       55.530       20.394      816.416     3083.599      415.902        0.315        0.216       40.548        9.837        0.059      334.985        5.319      871.644
01/21/2022  12:32:00       28.581       85.183       -5.453       38.874       38.382       28.223     1511.191     1473.208      796.565        0.594        0.189       89.850       27.180        0.092      334.948        5.258      871.627
01/21/2022  12:33:00       56.077      108.883      -17.491       46.126       45.118       26.853     2127.644     2035.622      721.077        1.009        0.244      122.475       26.558        0.047      334.822        5.047      871.611
01/21/2022  12:34:00       54.557       51.011      -12.139       34.149       34.624       20.640     1166.148     1198.807      426.021        0.426        0.140       74.690       17.476        0.055      334.730        4.895      871.572
01/21/2022  12:35:00       82.062       77.877      -16.590       49.681       41.148       32.232     2468.170     1693.183     1038.917        0.914        0.260      113.133       25.219        0.050      334.797        5.007      871.519
01/21/2022  12:36:00      127.073      129.956      -19.268       54.849       55.562       33.229     3008.381     3087.089     1104.197        2.030        0.360      181.759       17.396        0.009      334.828        5.056      871.477
01/21/2022  12:37:00      107.849       84.003      -22.928       37.776       38.043       26.410     1427.030     1447.300      697.481        1.139        0.179      136.704       14.934        0.012      334.812        5.033      871.455
01/21/2022  12:38:00      187.169       51.531      -33.848       78.404       80.627       35.809     6147.243     6500.750     1282.306        2.638        0.697      194.133       14.907        0.006      334.992        5.328      871.447
01/21/2022  12:39:00      165.838       41.586      -19.843       62.874       51.293       26.780     3953.171     2630.921      717.171        1.846        0.365      170.973       16.554        0.009      334.956        5.270      871.447
01/21/2022  12:40:00      295.658       79.197      -23.628       97.709       78.288       36.523     9547.134     6128.964     1333.894        5.562        0.850      306.082       24.397        0.006      334.818        5.037      871.465
01/21/2022  12:41:00      298.216       71.335      -21.290       93.068      105.790       57.580     8661.724    11191.529     3315.484        5.882        1.158      306.629       28.015        0.008      334.857        5.104      871.474
01/21/2022  12:42:00       77.602       48.373      -32.924      114.789       87.197       57.795    13176.533     7603.397     3340.229        1.678        1.206       91.444       39.513        0.187      335.228        5.723      871.508
01/21/2022  12:43:00      178.840       46.468      -28.880      101.156       70.865       42.918    10232.445     5021.855     1841.937        2.603        0.855      184.778       15.549        0.007      335.161        5.608      871.540
01/21/2022  12:44:00       59.952       48.199       -4.232       55.451       36.745       28.521     3074.848     1350.228      813.471        0.559        0.262       76.925       26.633        0.120      335.186        5.653      871.569
01/21/2022  12:45:00       88.700      -15.439      -20.659       69.577       60.052       37.858     4840.925     3606.296     1433.241        0.920        0.494       90.034       29.744        0.109      335.329        5.891      871.552
01/21/2022  12:46:00      127.019      -10.160      -24.692      101.743       95.196       62.381    10351.618     9062.220     3891.359        2.007        1.165      127.425       43.923        0.119      335.350        5.925      871.531
01/21/2022  12:47:00      152.142      -11.943      -23.206       92.148       80.332       47.101     8491.264     6453.239     2218.546        2.049        0.858      152.610       45.441        0.089      335.207        5.686      871.523
01/21/2022  12:48:00       62.427       21.345      -28.092       59.203       76.410       41.910     3505.002     5838.412     1756.464        0.812        0.555       65.975       32.317        0.240      335.347        5.921      871.499
01/21/2022  12:49:00       86.460       50.563      -15.699       48.876       50.182       34.656     2388.841     2518.221     1201.006        0.819        0.305      100.160       31.768        0.101      335.088        5.491      871.480
01/21/2022  12:50:00      130.793       82.406      -29.541       55.497       53.991       34.867     3079.955     2915.073     1215.718        1.599        0.361      154.589       19.589        0.016      335.200        5.675      871.471
01/21/2022  12:51:00       58.111       19.370      -19.963       49.387       75.232       35.254     2439.062     5659.799     1242.873        0.674        0.467       61.255       11.247        0.034      335.598        6.338      871.471
01/21/2022  12:52:00      135.627      201.449      -25.519       98.868       95.569       49.837     9774.917     9133.352     2483.708        4.051        1.070      242.851       57.303        0.056      335.326        5.884      871.489
01/21/2022  12:53:00      174.028      170.670      -27.388       90.545       80.311       56.057     8198.404     6449.925     3142.435        3.897        0.890      243.750       33.539        0.019      335.102        5.510      871.497
01/21/2022  12:54:00      132.870      283.455      -35.527       70.606      136.450       41.177     4985.201    18618.619     1695.551        6.228        1.265      313.052       56.615        0.033      334.932        5.228      871.487
01/21/2022  12:55:00       15.590      257.125      -25.767       90.070       72.374       45.813     8112.585     5237.948     2098.871        4.123        0.772      257.597       38.660        0.023      335.018        5.370      871.477
01/21/2022  12:56:00      193.969      295.329      -38.986       93.690      108.218       53.748     8777.765    11711.087     2888.871        7.487        1.169      353.331       43.724        0.015      334.891        5.158      871.443
01/21/2022  12:57:00      199.931      171.905      -39.275       88.207       85.515       46.338     7780.514     7312.888     2147.226        4.415        0.862      263.674       40.130        0.023      334.951        5.260      871.435
01/21/2022  12:58:00      225.582      228.451      -44.014       97.454       89.831       41.824     9497.211     8069.696     1749.266        6.216        0.966      321.056       33.096        0.011      335.139        5.572      871.448
01/21/2022  12:59:00      340.318      155.517      -38.940      135.991       84.066       52.025    18493.461     7067.174     2706.557        8.489        1.413      374.168       51.017        0.019      335.020        5.375      871.444
01/21/2022  13:00:00      221.009      124.976      -33.369       81.497       73.075       41.837     6641.691     5339.960     1750.301        3.965        0.687      253.898       35.136        0.019      334.992        5.327      871.442
01/21/2022  13:01:00      107.657       96.450      -17.961       55.666       98.809       45.324     3098.758     9763.270     2054.305        1.806        0.746      144.542       33.405        0.053      335.306        5.850      871.434
01/21/2022  13:02:00      110.605      313.252      -26.685       81.538      134.587       61.886     6648.465    18113.528     3829.871        6.983        1.430      332.205       74.746        0.051      335.087        5.485      871.450
01/21/2022  13:03:00      134.011      266.500      -25.515       87.745      101.478       52.200     7699.205    10297.881     2724.864        5.517        1.036      298.297       43.118        0.021      335.108        5.519      871.451
01/21/2022  13:04:00      132.995      341.708      -41.512       73.760       92.465       40.591     5440.470     8549.704     1647.660        7.590        0.782      366.677       28.660        0.006      334.819        5.041      871.437
01/21/2022  13:05:00      120.520      288.906      -32.396       95.806       94.218       46.559     9178.706     8877.080     2167.729        5.963        1.011      313.036       45.641        0.021      335.047        5.418      871.412
01/21/2022  13:06:00      253.120       69.594      -24.852      158.905      103.665       53.681    25250.811    10746.366     2881.598        5.420        1.944      262.513       30.191        0.013      335.161        5.610      871.391
01/21/2022  13:07:00      285.890       20.373      -17.835      107.327       84.497       56.857    11519.006     7139.725     3232.757        5.217        1.095      286.615       46.866        0.027      334.971        5.293      871.355
01/21/2022  13:08:00      218.432      104.227      -21.438      119.803      105.990       53.895    14352.710    11233.780     2904.635        4.376        1.425      242.025       32.306        0.018      335.212        5.694      871.326
01/21/2022  13:09:00      102.883      -21.867      -12.316       90.392      108.548       53.320     8170.769    11782.648     2843.035        1.700        1.140      105.181       48.905        0.216      335.645        6.414      871.315
01/21/2022  13:10:00       88.452       68.763       -8.004      114.568      114.451       56.194    13125.778    13099.108     3157.806        2.099        1.469      112.036       57.929        0.267      335.350        5.924      871.312
01/21/2022  13:11:00       66.513      222.838      -21.973       83.680      122.694       40.576     7002.315    15053.885     1646.410        3.913        1.185      232.553       27.978        0.014      335.330        5.891      871.312
01/21/2022  13:12:00      131.204      171.423      -21.750       83.601       91.184       56.144     6989.053     8314.456     3152.181        3.276        0.923      215.871       44.096        0.042      335.109        5.523      871.307
01/21/2022  13:13:00      155.556      256.665      -42.314       70.387       99.551       44.796     4954.322     9910.473     2006.652        5.437        0.844      300.124       37.607        0.016      334.931        5.225      871.313
01/21/2022  13:14:00      152.665      122.241      -24.054       85.491       46.809       37.944     7308.739     2191.104     1439.736        2.488        0.547      195.575       34.139        0.030      334.956        5.269      871.298
01/21/2022  13:15:00      166.080      131.237      -31.285       71.724       56.493       46.731     5144.274     3191.507     2183.813        2.815        0.526      211.674       41.605        0.039      334.853        5.096      871.271
01/21/2022  13:16:00      199.666       68.123      -16.329       90.300       82.904       44.324     8154.112     6873.037     1964.573        3.088        0.850      210.968       39.419        0.035      335.286        5.816      871.248
01/21/2022  13:17:00      103.915       44.581       -7.641      151.520      109.977       61.616    22958.452    12094.930     3796.506        2.584        1.942      113.074       49.194        0.189      335.400        6.007      871.242
01/21/2022  13:18:00      116.184      255.204      -32.795       47.412       99.526       33.766     2247.908     9905.359     1140.112        4.650        0.665      280.407       35.907        0.016      334.917        5.204      871.242
01/21/2022  13:19:00      132.136       71.132      -16.649      100.048       63.490       39.450    10009.504     4030.964     1556.304        1.919        0.780      150.066       36.088        0.058      335.122        5.543      871.208
01/21/2022  13:20:00       66.566       83.665      -34.229       65.345      108.770       34.208     4269.923    11830.936     1170.205        1.493        0.864      106.915       33.506        0.098      335.047        5.421      871.171
01/21/2022  13:21:00       72.374      135.235       -5.478       74.361       86.637       39.789     5529.532     7505.964     1583.162        1.908        0.731      153.383       37.525        0.060      335.163        5.614      871.153
01/21/2022  13:22:00       71.090      109.850       -8.410       47.781       60.022       37.592     2283.019     3602.587     1413.182        1.224        0.365      130.847       34.277        0.069      335.161        5.611      871.140
01/21/2022  13:23:00      165.132      204.461      -27.947       99.066       85.912       45.376     9814.107     7380.875     2058.940        4.455        0.963      262.817       45.344        0.030      335.162        5.609      871.120
01/21/2022  13:24:00      156.163      129.933      -20.631       89.976       53.077       52.718     8095.702     2817.187     2779.177        2.769        0.685      203.149       44.224        0.047      335.075        5.466      871.120
01/21/2022  13:25:00      174.543      117.734      -21.367       77.197       65.526       45.504     5959.361     4293.679     2070.602        2.855        0.616      210.539       42.335        0.040      335.057        5.436      871.122
01/21/2022  13:26:00      128.123       61.823       -8.961      117.331       67.181       49.635    13766.638     4513.311     2463.615        2.053        1.037      142.259       53.788        0.143      335.361        5.943      871.119
01/21/2022  13:27:00      134.880       96.410      -15.406       87.660       77.536       51.426     7684.357     6011.793     2644.672        2.203        0.817      165.794       37.414        0.051      335.505        6.183      871.125
01/21/2022  13:28:00      246.350      185.888      -29.225      111.098      114.197       61.764    12342.701    13041.067     3814.841        6.264        1.460      308.614       53.866        0.030      335.104        5.514      871.113
01/21/2022  13:29:00      204.921      133.964      -34.942       79.182      106.573       54.711     6269.864    11357.786     2993.312        4.089        1.031      244.825       35.607        0.021      335.391        5.990      871.107
01/21/2022  13:30:00      243.820      161.594      -34.210       93.401       78.881       47.490     8723.713     6222.167     2255.336        5.196        0.860      292.508       37.531        0.016      335.253        5.762      871.108
01/21/2022  13:31:00      135.615      121.091      -30.441       83.425       65.476       41.463     6959.747     4287.138     1719.155        2.347        0.648      181.809       30.740        0.029      335.119        5.539      871.091
01/21/2022  13:32:00      365.184       66.750      -14.635      196.655      121.114       68.598    38673.122    14668.507     4705.637        9.803        2.902      371.234       79.152        0.045      335.192        5.659      871.084
01/21/2022  13:33:00      378.632       84.400      -27.162      136.460       93.460       63.926    18621.420     8734.808     4086.578        9.133        1.572      387.925       53.700        0.019      335.106        5.516      871.111
01/21/2022  13:34:00      329.759      150.478      -42.992      126.829       85.698       56.834    16085.596     7344.082     3230.159        7.994        1.333      362.470       40.542        0.013      335.192        5.660      871.138
01/21/2022  13:35:00      258.105      150.012      -31.946       94.267       97.911       49.909     8886.203     9586.627     2490.921        5.555        1.048      298.533       36.366        0.015      334.914        5.198      871.136
01/21/2022  13:36:00      185.467      166.607      -36.412       94.334       67.847       51.306     8898.883     4603.185     2632.275        3.981        0.807      249.311       41.780        0.028      335.007        5.351      871.124
01/21/2022  13:37:00      205.229      150.326      -32.657       99.841       91.446       50.722     9968.245     8362.389     2572.701        4.334        1.045      254.395       38.293        0.023      335.218        5.702      871.138
01/21/2022  13:38:00      180.389      120.287      -14.131      101.606       81.826       56.430    10323.739     6695.472     3184.297        3.370        1.010      216.816       48.473        0.050      335.325        5.883      871.140
01/21/2022  13:39:00      184.728       94.723      -12.459       71.579       63.148       43.400     5123.622     3987.672     1883.540        2.712        0.550      207.598       25.182        0.015      335.339        5.904      871.136
01/21/2022  13:40:00      229.071       61.505       -9.312      154.047      109.814       65.836    23730.375    12059.064     4334.418        4.823        2.006      237.184       59.838        0.064      335.422        6.042      871.105
01/21/2022  13:41:00      231.329      144.739      -26.899      162.744       91.952       64.818    26485.477     8455.088     4201.396        5.716        1.957      272.879       66.019        0.059      335.246        5.751      871.123
01/21/2022  13:42:00      187.448      165.772      -10.538      126.533       94.675       67.503    16010.588     8963.274     4556.678        4.612        1.477      250.234       53.530        0.046      335.237        5.735      871.106
01/21/2022  13:43:00      212.113      149.327      -34.084       93.421       73.532       57.087     8727.522     5407.026     3258.970        4.292        0.870      259.404       40.035        0.024      335.211        5.691      871.086
01/21/2022  13:44:00      272.896       77.939      -26.540      177.613      103.660       53.234    31546.212    10745.412     2833.836        6.318        2.256      283.808       41.721        0.022      335.296        5.832      871.070
01/21/2022  13:45:00      234.875       37.946       -7.387      183.706      113.199       65.005    33748.016    12813.938     4225.600        5.371        2.539      237.920       67.847        0.081      335.101        5.508      871.055
01/21/2022  13:46:00      216.534       33.193      -17.876      143.561      111.377       61.963    20609.834    12404.748     3839.374        4.257        1.843      219.063       58.955        0.072      335.128        5.555      871.058
01/21/2022  13:47:00      217.506       69.665      -17.427      116.227       65.371       48.285    13508.607     4273.353     2331.486        3.629        1.006      228.390       41.290        0.033      335.060        5.441      871.057
01/21/2022  13:48:00      160.236      113.427      -26.528       91.188       84.874       50.668     8315.331     7203.600     2567.236        2.866        0.904      196.319       24.296        0.015      335.309        5.855      871.067
01/21/2022  13:49:00      201.393      236.962      -54.043      107.212      125.200       51.804    11494.517    15675.152     2683.676        6.474        1.493      310.983       55.168        0.031      335.132        5.560      871.087
01/21/2022  13:50:00      114.543      293.219      -32.896       86.448       98.348       50.444     7473.219     9672.323     2544.589        5.993        0.985      314.798       47.201        0.022      334.978        5.304      871.119
01/21/2022  13:51:00      141.922      229.339      -38.527       80.873       67.957       37.697     6540.416     4618.167     1421.029        4.340        0.629      269.700       37.448        0.019      334.939        5.239      871.137
01/21/2022  13:52:00      190.193      269.590      -53.177      114.795      104.053       47.858    13177.977    10827.062     2290.405        6.898        1.315      329.928       39.804        0.015      334.970        5.292      871.121
01/21/2022  13:53:00      127.532      208.044      -28.371       92.762       87.144       56.699     8604.738     7594.105     3214.778        3.988        0.971      244.022       52.988        0.047      335.185        5.648      871.089
01/21/2022  13:54:00      286.262      130.415      -16.800      165.280       80.573       52.891    27317.545     6491.988     2797.423        6.791        1.830      314.569       63.484        0.041      335.081        5.475      871.061
01/21/2022  13:55:00      342.557       90.072      -16.487      125.167       72.601       60.989    15666.815     5270.973     3719.614        7.519        1.233      354.201       54.660        0.024      334.912        5.194      871.046
01/21/2022  13:56:00      293.070      119.023      -31.640       74.475       58.383       32.380     5546.490     3408.523     1048.467        5.553        0.500      316.317       16.888        0.003      334.918        5.203      871.045
01/21/2022  13:57:00      130.636      173.506      -28.652       79.824       96.777       44.397     6371.851     9365.841     1971.124        3.285        0.885      217.187       47.936        0.049      335.227        5.718      871.071
01/21/2022  13:58:00      109.594      147.803      -34.967       78.069       84.400       54.879     6094.802     7123.438     3011.748        2.565        0.811      184.002       37.466        0.041      335.463        6.112      871.049
01/21/2022  13:59:00      130.241      247.154      -36.165       88.682      111.645       42.154     7864.450    12464.575     1776.961        5.073        1.105      279.371       36.881        0.017      335.083        5.479      871.024
01/21/2022  14:00:00      -27.578      181.075      -27.890       90.501       92.557       49.057     8190.492     8566.836     2406.604        2.674        0.958      183.163       48.872        0.071      335.328        5.886      870.978
01/21/2022  14:01:00      -36.507      183.473      -15.729       55.562       51.555       31.709     3087.095     2657.908     1005.449        2.100        0.338      187.070       19.040        0.010      335.336        5.901      870.935
01/21/2022  14:02:00      163.357      321.954      -46.587       92.474      121.464       52.973     8551.422    14753.511     2806.178        7.931        1.306      361.026       45.706        0.016      334.978        5.304      870.941
01/21/2022  14:03:00      151.952      256.741      -43.666       69.657      116.188       45.322     4852.058    13499.751     2054.093        5.566        1.020      298.338       49.482        0.028      335.037        5.403      870.933
01/21/2022  14:04:00       76.835      167.030      -24.612       43.717       84.838       41.780     1911.213     7197.434     1745.539        2.263        0.543      183.855       38.683        0.044      335.129        5.556      870.928
01/21/2022  14:05:00       77.464      108.953      -24.676       92.157       60.307       49.210     8492.949     3636.938     2421.599        1.651        0.728      133.684       10.395        0.006      335.360        5.942      870.909
01/21/2022  14:06:00      141.405      137.367      -27.806      105.609       72.454       52.039    11153.284     5249.640     2708.025        2.937        0.956      197.142       54.911        0.078      335.392        5.993      870.902
01/21/2022  14:07:00      203.284      117.709      -14.624      124.595      112.376       63.697    15523.811    12628.310     4057.306        4.380        1.610      234.904       55.419        0.056      335.450        6.091      870.893
01/21/2022  14:08:00      226.588       55.441      -23.172      137.090      114.298       53.267    18793.687    13063.963     2837.368        4.482        1.735      233.272       55.707        0.057      335.381        5.976      870.889
01/21/2022  14:09:00      132.267       26.102      -35.624      175.655      102.241       57.199    30854.638    10453.146     3271.761        3.200        2.229      134.818        9.548        0.005      335.309        5.854      870.880
01/21/2022  14:10:00       71.148      161.457       -4.638      107.975      184.975       57.134    11658.560    34215.879     3264.342        4.014        2.457      176.438       77.214        0.192      335.538        6.237      870.890
01/21/2022  14:11:00      163.154      177.291      -26.379       89.378       94.575       65.486     7988.376     8944.410     4288.432        3.998        1.061      240.938       60.210        0.062      335.262        5.777      870.877
01/21/2022  14:12:00      136.704      188.609      -21.529       74.863       97.004       45.416     5604.432     9409.708     2062.613        3.590        0.854      232.940       50.003        0.046      335.287        5.820      870.901
01/21/2022  14:13:00      143.460      153.908      -21.457      100.416      103.211       51.696    10083.289    10652.540     2672.470        3.406        1.170      210.401       45.141        0.046      335.262        5.776      870.912
01/21/2022  14:14:00      205.005      148.761      -17.308      109.713       62.691       50.077    12036.948     3930.114     2507.722        4.146        0.924      253.292       44.909        0.031      335.287        5.818      870.906
01/21/2022  14:15:00      172.132       29.760      -24.407      107.448       77.870       38.868    11545.003     6063.723     1510.738        2.511        0.956      174.685       23.982        0.019      335.402        6.009      870.901
01/21/2022  14:16:00      118.081       89.043      -12.313       84.208       91.012       43.037     7090.926     8283.204     1852.190        1.962        0.861      147.891       37.691        0.065      335.280        5.808      870.896
01/21/2022  14:17:00      280.127      107.756      -27.977      112.803       82.766       55.659    12724.412     6850.223     3097.907        5.676        1.134      300.137       39.804        0.018      335.309        5.855      870.878
01/21/2022  14:18:00      221.826      117.935      -28.480       99.476       95.695       48.548     9895.499     9157.564     2356.860        4.266        1.070      251.227       47.042        0.035      335.196        5.668      870.907
01/21/2022  14:19:00      271.605      153.375      -39.322       90.879       91.607       55.578     8259.064     8391.878     3088.966        5.929        0.987      311.919       31.666        0.010      335.045        5.416      870.919
01/21/2022  14:20:00      267.035      132.257      -40.979       76.921       81.595       44.004     5916.869     6657.723     1936.310        5.249        0.726      297.993       28.932        0.009      335.099        5.504      870.932
01/21/2022  14:21:00      239.880      142.494      -24.000      125.076       62.369       40.603    15643.886     3889.952     1648.628        4.980        1.059      279.011       44.061        0.025      335.062        5.445      870.937
01/21/2022  14:22:00      122.061      174.975      -24.671       68.284       88.037       43.813     4662.730     7750.592     1919.615        3.023        0.717      213.343       37.470        0.031      335.173        5.629      870.922
01/21/2022  14:23:00      182.639       57.767      -35.590      110.810       85.137       48.828    12278.926     7248.346     2384.200        2.993        1.096      191.557       16.764        0.008      335.336        5.901      870.893
01/21/2022  14:24:00      406.107      173.976      -14.688      127.336       90.379       72.980    16214.438     8168.389     5326.129       11.255        1.485      441.804       68.016        0.024      335.004        5.347      870.856
01/21/2022  14:25:00      327.565       74.080      -24.265       96.785      105.088       55.486     9367.309    11043.530     3078.662        6.843        1.174      335.837       30.516        0.008      335.073        5.462      870.852
01/21/2022  14:26:00      123.754       62.234      -10.126       95.402       95.180       66.319     9101.500     9059.319     4398.149        2.092        1.128      138.521       50.588        0.133      335.352        5.927      870.872
01/21/2022  14:27:00      147.314      176.316      -27.235      112.448       75.999       57.032    12644.509     5775.794     3252.706        3.760        1.084      229.758       46.528        0.041      335.283        5.811      870.891
01/21/2022  14:28:00      207.433      129.297      -17.516      143.848       93.796       49.085    20692.104     8797.609     2409.383        4.597        1.595      244.430       58.147        0.057      335.248        5.752      870.900
01/21/2022  14:29:00      190.917      104.879      -28.958      113.848      103.790       56.687    12961.440    10772.414     3213.392        3.761        1.347      217.827       46.449        0.045      335.230        5.724      870.899
01/21/2022  14:30:00      120.173       68.926      -20.930       66.351       83.875       43.932     4402.492     7035.000     1929.977        1.650        0.668      138.536       29.168        0.044      335.331        5.894      870.898
01/21/2022  14:31:00      191.861       47.793      -25.382      144.257       61.798       48.992    20810.075     3818.965     2400.198        3.338        1.351      197.724       54.999        0.077      335.212        5.696      870.871
01/21/2022  14:32:00      294.208       96.482      -10.363      168.171      103.041       66.705    28281.557    10617.448     4449.581        6.965        2.167      309.624       58.555        0.036      335.282        5.809      870.832
01/21/2022  14:33:00      126.311      129.526      -19.898       66.467       75.331       40.634     4417.813     5674.790     1651.111        2.243        0.587      180.918       28.267        0.024      335.399        6.005      870.887
01/21/2022  14:34:00      205.118      273.477      -49.320       87.175       99.840       57.839     7599.511     9968.004     3345.331        7.010        1.046      341.852       43.967        0.017      335.095        5.498      870.878
01/21/2022  14:35:00      190.500      245.624      -35.757       87.853       95.024       64.911     7718.221     9029.600     4213.439        5.943        1.048      310.840       52.256        0.028      335.036        5.400      870.869
01/21/2022  14:36:00      212.288       76.792      -24.549       84.070       76.961       40.473     7067.749     5923.019     1638.082        3.309        0.731      225.750       36.608        0.026      335.133        5.562      870.875
01/21/2022  14:37:00       95.507       25.121        6.155      118.019       74.658       69.633    13928.453     5573.863     4848.738        1.707        1.218       98.756       44.377        0.202      335.337        5.902      870.863
01/21/2022  14:38:00       98.184       44.649      -21.692       51.865       88.071       37.869     2690.017     7756.516     1434.032        1.199        0.594      107.859       22.803        0.045      335.129        5.556      870.877
01/21/2022  14:39:00      188.595       98.137      -26.303      111.084       72.853       45.465    12339.700     5307.631     2067.075        3.280        0.986      212.601       50.869        0.057      335.213        5.695      870.894
01/21/2022  14:40:00      129.782      248.589      -21.859       73.439      152.749       49.061     5393.215    23332.111     2406.961        5.512        1.557      280.428       63.605        0.051      335.051        5.425      870.939
01/21/2022  14:41:00      127.328      294.500      -35.750       47.447       84.593       25.243     2251.188     7155.910      637.209        5.713        0.502      320.847       21.099        0.004      335.066        5.449      870.950
01/21/2022  14:42:00      142.972      125.567      -16.782      107.521      121.500       60.925    11560.823    14762.316     3711.883        3.326        1.502      190.285       60.746        0.102      335.354        5.929      870.953
01/21/2022  14:43:00      387.287      118.999      -35.357      180.125      121.400       66.670    32445.119    14738.021     4444.896       10.851        2.581      405.157       69.574        0.029      335.110        5.524      870.941
01/21/2022  14:44:00      295.307      170.396      -27.876      116.870      110.870       69.470    13658.511    12292.179     4826.111        7.389        1.539      340.942       47.527        0.019      335.107        5.519      870.971
01/21/2022  14:45:00      200.174      143.920      -11.265      107.909       79.144       64.401    11644.434     6263.846     4147.518        4.148        1.103      246.541       45.390        0.034      335.072        5.462      871.004
01/21/2022  14:46:00      162.182      133.978      -24.973       96.212       60.595       47.491     9256.686     3671.745     2255.425        3.003        0.759      210.364       38.407        0.033      335.064        5.447      871.017
01/21/2022  14:47:00      165.385      145.756      -26.427       82.644      101.169       64.474     6830.108    10235.154     4156.858        3.525        1.061      220.447       48.196        0.048      335.199        5.672      871.001
01/21/2022  14:48:00      213.666      132.471      -12.420       96.120       69.532       53.191     9239.127     4834.636     2829.309        4.013        0.845      251.399       41.709        0.028      335.189        5.655      871.016
01/21/2022  14:49:00      275.958      199.632      -40.603      117.548       62.412       52.713    13817.441     3895.199     2778.703        6.907        1.025      340.596       33.116        0.009      335.081        5.477      871.052
01/21/2022  14:50:00      239.700      252.778      -35.144      116.369      143.388       47.991    13541.794    20559.989     2303.125        7.949        1.820      348.357       42.323        0.015      334.991        5.326      871.078
01/21/2022  14:51:00      139.791      180.991      -18.971      104.519       97.103       51.016    10924.281     9429.070     2602.609        3.780        1.148      228.690       51.294        0.050      335.253        5.764      871.100
01/21/2022  14:52:00      183.826      235.807      -33.210       88.042      131.391       55.775     7751.334    17263.714     3110.819        5.931        1.406      298.993       53.814        0.032      335.201        5.675      871.108
01/21/2022  14:53:00      199.436      239.006      -38.860       92.058      111.177       52.941     8474.628    12360.420     2802.746        6.102        1.182      311.285       46.527        0.022      335.165        5.615      871.139
01/21/2022  14:54:00      176.793      268.205      -25.764       90.294      182.343       79.293     8152.936    33249.071     6287.347        7.576        2.384      321.231       83.783        0.068      335.125        5.548      871.133
01/21/2022  14:55:00      199.923      333.545      -39.724       93.679      118.142       65.868     8775.773    13957.541     4338.640        8.993        1.354      388.872       65.541        0.028      335.087        5.486      871.135
01/21/2022  14:56:00      197.861      311.198      -47.541       83.780      143.649       56.143     7019.035    20634.960     3152.016        8.452        1.540      368.773       38.094        0.011      335.136        5.567      871.120
01/21/2022  14:57:00      233.919      198.079      -31.601      126.441       98.903       78.611    15987.425     9781.895     6179.702        6.344        1.597      306.517       53.262        0.030      335.076        5.467      871.114
01/21/2022  14:58:00      181.120      343.544      -40.435       85.696      115.799       58.047     7343.760    13409.448     3369.424        8.829        1.206      388.364       54.661        0.020      334.991        5.326      871.135
01/21/2022  14:59:00      132.790      274.997      -35.283       67.843      113.515       37.781     4602.656    12885.601     1427.432        5.671        0.946      305.379       53.064        0.030      334.988        5.321      871.134
01/21/2022  15:00:00      141.763      168.641      -29.599       94.432      103.656       53.952     8917.325    10744.621     2910.778        3.599        1.129      220.310       57.205        0.067      335.164        5.613      871.130
01/21/2022  15:01:00      161.299      124.482      -29.463      117.014       49.090       40.939    13692.185     2409.822     1676.020        3.008        0.889      203.748       28.165        0.019      335.242        5.745      871.145
01/21/2022  15:02:00      163.220      226.638      -22.696       99.806      149.268       68.163     9961.302    22281.085     4646.148        5.770        1.844      279.295       64.073        0.053      335.174        5.631      871.168
01/21/2022  15:03:00      100.166      175.887      -21.473       87.984      104.446       44.729     7741.130    10908.933     2000.702        3.104        1.033      202.409       48.548        0.058      335.183        5.645      871.190
01/21/2022  15:04:00      209.997      209.336      -40.706       82.694      132.643       57.093     6838.337    17594.053     3259.579        5.863        1.385      296.514       47.650        0.026      335.135        5.565      871.190
01/21/2022  15:05:00      289.973      150.762      -34.483      153.485       86.158       57.646    23557.668     7423.160     3323.096        7.115        1.715      326.823       55.884        0.029      335.086        5.485      871.209
01/21/2022  15:06:00      224.402      164.322      -31.206      140.450       84.615       63.969    19726.305     7159.624     4092.030        5.465        1.549      278.133       57.543        0.043      335.132        5.560      871.231
01/21/2022  15:07:00      158.932       79.122      -18.480      127.992       96.888       58.812    16381.995     9387.301     3458.867        3.054        1.461      177.538       53.260        0.090      335.154        5.598      871.250
01/21/2022  15:08:00      241.197       79.049      -19.486      152.748       98.494       55.439    23331.908     9701.095     3073.467        5.045        1.805      253.820       54.620        0.046      335.171        5.625      871.261
01/21/2022  15:09:00      266.834      159.812      -43.372      167.508       96.944       50.024    28059.007     9398.134     2502.391        6.928        1.998      311.031       63.657        0.042      335.113        5.528      871.286
01/21/2022  15:10:00      328.425      224.484      -36.118      133.732       87.931       72.419    17884.283     7731.883     5244.581        9.521        1.543      397.814       60.124        0.023      334.892        5.161      871.278
01/21/2022  15:11:00      239.350      255.738      -37.685      109.462       98.583       64.384    11981.978     9718.700     4145.295        7.497        1.292      350.271       55.628        0.025      334.951        5.259      871.289
01/21/2022  15:12:00      177.908      278.119      -36.809      110.677      119.708       66.826    12249.329    14330.100     4465.708        7.069        1.552      330.153       71.343        0.047      335.064        5.447      871.294
01/21/2022  15:13:00      130.868      181.249      -17.443       75.611      104.110       55.715     5716.961    10838.910     3104.119        3.497        0.983      223.557       59.413        0.071      335.119        5.540      871.300
01/21/2022  15:14:00      132.954      179.581      -17.169       92.119      101.366       44.014     8485.925    10275.048     1937.217        3.546        1.035      223.441       22.174        0.010      335.231        5.725      871.301
01/21/2022  15:15:00      220.483      150.401      -30.177      112.607       80.564       54.144    12680.293     6490.616     2931.592        4.712        1.105      266.895       46.913        0.031      335.196        5.666      871.309
01/21/2022  15:16:00      274.957       78.822      -25.380      135.104      115.793       65.211    18253.220    13407.978     4252.426        5.918        1.796      286.032       54.177        0.036      335.178        5.637      871.312
01/21/2022  15:17:00      277.992       66.329      -26.780      140.297       88.161       56.707    19683.226     7772.379     3215.690        5.653        1.534      285.796       51.691        0.033      335.148        5.588      871.331
01/21/2022  15:18:00      196.993      140.427      -27.745      114.748      106.275       55.988    13167.043    11294.302     3134.646        4.344        1.380      241.922       38.067        0.025      335.251        5.758      871.350
01/21/2022  15:19:00      300.768      212.526      -44.812      130.154       96.756       63.836    16939.978     9361.688     4075.070        8.400        1.519      368.278       53.390        0.021      335.041        5.409      871.344
01/21/2022  15:20:00      211.020      233.699      -38.110      113.635       86.129       68.907    12912.848     7418.164     4748.149        6.283        1.254      314.872       62.027        0.039      335.138        5.569      871.335
01/21/2022  15:21:00      269.816      216.062      -43.088      128.536      160.592       76.767    16521.448    25789.720     5893.226        8.476        2.410      345.664       66.129        0.037      335.079        5.470      871.332
01/21/2022  15:22:00      169.197      335.010      -45.633      130.721      139.356       72.881    17088.096    19420.014     5311.580        9.237        2.091      375.312       75.297        0.040      335.057        5.435      871.348
01/21/2022  15:23:00      178.935      329.174      -42.359      140.680      134.455       82.655    19790.927    18078.068     6831.824        9.343        2.235      374.664       78.770        0.044      334.931        5.225      871.348
01/21/2022  15:24:00      158.381      254.352      -26.975      112.600      129.027       73.432    12678.717    16647.950     5392.309        6.261        1.736      299.632       65.032        0.047      334.983        5.314      871.345
01/21/2022  15:25:00      210.162      319.860      -29.829      154.780      166.576       81.212    23956.950    27747.412     6595.430       10.282        2.915      382.725       88.978        0.054      334.914        5.198      871.347
01/21/2022  15:26:00      158.824      280.118      -33.822      104.104      141.965       66.106    10837.705    20153.982     4369.976        7.009        1.768      322.011       62.665        0.038      334.928        5.222      871.343
01/21/2022  15:27:00      169.816      221.504      -46.572      101.214       81.438       57.446    10244.327     6632.178     3300.000        5.012        1.009      279.109       40.196        0.021      335.058        5.438      871.313
01/21/2022  15:28:00      289.641      159.443      -34.053      129.223       97.378       61.107    16698.499     9482.405     3734.009        7.019        1.496      330.626       63.176        0.037      335.013        5.364      871.284
01/21/2022  15:29:00      180.394      128.872      -17.952      136.049       72.747       53.467    18509.195     5292.197     2858.682        3.806        1.333      221.698       52.112        0.055      335.131        5.560      871.267
01/21/2022  15:30:00      310.908      252.047      -59.556      164.101      123.833       70.387    26929.127    15334.544     4954.278       10.547        2.361      400.239       63.762        0.025      335.033        5.396      871.250
01/21/2022  15:31:00      247.809      166.544      -22.211      120.379       89.600       71.670    14491.099     8028.221     5136.630        5.864        1.383      298.574       55.589        0.035      335.002        5.345      871.225
01/21/2022  15:32:00      211.198      105.454      -22.365      125.089      109.577       55.908    15647.194    12007.204     3125.658        4.350        1.539      236.062       53.623        0.052      335.099        5.506      871.230
01/21/2022  15:33:00      234.405      137.709      -33.496      114.438       87.787       64.803    13096.153     7706.507     4199.437        5.001        1.250      271.863       34.852        0.016      335.024        5.380      871.227
01/21/2022  15:34:00      304.697      144.639      -28.774      125.184      113.092       63.724    15670.987    12789.798     4060.796        7.355        1.626      337.284       51.035        0.023      334.960        5.275      871.226
01/21/2022  15:35:00      261.749      215.341      -36.973      118.264      104.318       69.198    13986.347    10882.193     4788.352        7.295        1.483      338.945       51.734        0.023      334.862        5.110      871.248
01/21/2022  15:36:00      247.626      166.916      -39.316      117.698       78.891       48.911    13852.937     6223.827     2392.277        5.659        1.123      298.629       38.665        0.017      334.959        5.273      871.266
01/21/2022  15:37:00      175.461       99.873      -22.414       81.507       75.761       49.637     6643.427     5739.799     2463.874        2.805        0.742      201.894       37.627        0.035      335.023        5.380      871.282
01/21/2022  15:38:00      280.684      215.423      -44.343      126.316       99.188       70.791    15955.824     9838.353     5011.339        7.898        1.540      353.823       57.729        0.027      334.929        5.222      871.280
01/21/2022  15:39:00      260.333      170.340      -39.804      108.457       92.990       68.484    11762.944     8647.153     4690.051        6.173        1.255      311.110       40.231        0.017      334.957        5.270      871.288
01/21/2022  15:40:00      213.556      124.377      -19.236      136.822      111.409       59.140    18720.359    12412.059     3497.586        4.803        1.732      247.135       39.339        0.025      334.987        5.320      871.283
01/21/2022  15:41:00      234.027      206.724      -33.099       93.656      108.654       57.434     8771.479    11805.593     3298.685        6.123        1.194      312.255       45.091        0.021      334.866        5.118      871.284
01/21/2022  15:42:00      201.066      181.293      -38.328      114.739       75.614       57.836    13165.047     5717.519     3345.036        4.849        1.111      270.730       48.054        0.032      334.877        5.136      871.231
01/21/2022  15:43:00      159.288      149.972      -28.364       95.069       84.932       54.070     9038.100     7213.412     2923.608        3.392        0.959      218.779       45.906        0.044      334.992        5.327      871.219
01/21/2022  15:44:00      222.548      158.151      -36.198       93.856      110.545       54.899     8808.891    12220.190     3013.860        4.994        1.202      273.019       52.626        0.037      334.949        5.257      871.211
01/21/2022  15:45:00      150.641      205.436      -32.065       70.592      103.272       53.834     4983.222    10665.114     2898.099        4.223        0.927      254.748       52.469        0.042      335.018        5.370      871.222
01/21/2022  15:46:00      204.521      123.466      -35.978      114.293       75.858       52.308    13062.952     5754.510     2736.159        3.996        1.078      238.899       38.091        0.025      334.992        5.328      871.210
01/21/2022  15:47:00      213.978      199.406      -34.382      118.648       84.212       52.810    14077.424     7091.678     2788.940        5.534        1.198      292.488       43.043        0.022      334.934        5.232      871.202
01/21/2022  15:48:00      312.855      179.481      -34.642      125.368      101.427       71.165    15717.011    10287.413     5064.526        8.117        1.553      360.682       61.796        0.029      334.790        4.993      871.203
01/21/2022  15:49:00      263.991      182.602      -26.934       96.645       85.212       60.133     9340.266     7261.105     3616.013        6.199        1.011      320.990       44.814        0.019      334.773        4.963      871.212
01/21/2022  15:50:00      181.827      118.360      -10.208       97.188       84.438       61.834     9445.474     7129.779     3823.393        3.378        1.020      216.957       50.012        0.053      334.862        5.113      871.246
01/21/2022  15:51:00      308.824      190.266      -52.480      118.021      136.667       66.824    13929.017    18678.003     4465.461        8.569        1.854      362.730       65.051        0.032      334.854        5.097      871.286
01/21/2022  15:52:00      285.653      157.916      -29.001      119.683       76.763       60.634    14324.082     5892.590     3676.468        6.563        1.195      326.397       40.115        0.015      334.797        5.002      871.299
01/21/2022  15:53:00      223.669      222.948      -41.403      111.869      105.603       62.591    12514.640    11152.056     3917.591        6.451        1.379      315.806       56.453        0.032      334.794        4.999      871.305
01/21/2022  15:54:00      156.241      105.374      -17.140       98.260       80.045       47.424     9654.994     6407.282     2249.052        2.706        0.916      188.454       46.900        0.062      334.897        5.168      871.303
01/21/2022  15:55:00      165.234       85.233      -21.139       79.959       73.948       48.308     6393.430     5468.300     2333.645        2.460        0.710      185.922       27.213        0.021      334.870        5.125      871.300
01/21/2022  15:56:00      137.343      249.786      -25.093       93.240      146.439       52.614     8693.632    21444.463     2768.275        5.739        1.645      285.055       65.748        0.053      334.898        5.172      871.305
01/21/2022  15:57:00      207.309      160.111      -26.464      102.477      131.291       53.939    10501.467    17237.253     2909.365        4.997        1.532      261.940       53.894        0.042      334.902        5.177      871.332
01/21/2022  15:58:00      276.822      180.275      -45.531       89.711       90.669       54.381     8048.042     8220.803     2957.322        6.521        0.961      330.347       34.731        0.011      334.786        4.985      871.341
01/21/2022  15:59:00      241.874      216.925      -34.982      105.259       93.461       53.152    11079.429     8735.043     2825.169        6.471        1.132      324.900       39.584        0.015      334.781        4.977      871.362
01/21/2022  16:00:00      223.969      172.307      -36.371      122.415       68.381       57.832    14985.498     4675.915     3344.533        5.209        1.150      282.581       41.028        0.021      334.782        4.979      871.356
01/21/2022  16:01:00      198.387      244.760      -32.864      129.938       96.409       64.071    16883.803     9294.637     4105.045        6.531        1.514      315.063       57.922        0.034      334.807        5.020      871.339
01/21/2022  16:02:00      181.292      273.376      -39.482       97.319      127.257       66.795     9470.994    16194.218     4461.565        6.964        1.506      328.026       67.694        0.043      334.739        4.906      871.314
01/21/2022  16:03:00      169.214      188.214      -35.921       74.056       85.641       53.074     5484.299     7334.403     2816.823        4.049        0.782      253.097       36.748        0.021      334.817        5.036      871.285
01/21/2022  16:04:00      183.193      192.816      -36.601       80.627       90.070       53.822     6500.648     8112.667     2896.854        4.479        0.876      265.965       41.949        0.025      334.821        5.045      871.266
01/21/2022  16:05:00      223.580      191.601      -41.777       72.380       96.312       50.159     5238.839     9276.093     2515.957        5.273        0.852      294.447       40.525        0.019      334.801        5.010      871.262
01/21/2022  16:06:00      222.329      123.726      -40.506      123.696       93.499       50.458    15300.821     8742.103     2545.980        4.648        1.329      254.437       41.843        0.027      334.753        4.932      871.260
01/21/2022  16:07:00      365.722      171.754      -38.544      137.793      108.608       64.194    18987.035    11795.733     4120.850        9.981        1.745      404.045       50.844        0.016      334.642        4.745      871.238
01/21/2022  16:08:00      272.205      184.947      -40.641      122.035       95.508       66.809    14892.519     9121.818     4463.508        6.921        1.424      329.091       47.031        0.020      334.640        4.743      871.245
01/21/2022  16:09:00      242.404      203.363      -36.620      119.882      109.264       60.233    14371.813    11938.629     3628.020        6.569        1.497      316.411       43.876        0.019      334.635        4.734      871.229
01/21/2022  16:10:00      266.691      174.266      -40.774      115.451       84.345       58.605    13328.942     7114.074     3434.543        6.351        1.194      318.579       43.264        0.018      334.622        4.712      871.221
01/21/2022  16:11:00      208.204      164.569      -33.580      104.617       92.797       59.060    10944.618     8611.220     3488.143        4.730        1.152      265.390       52.683        0.039      334.650        4.757      871.217
01/21/2022  16:12:00      200.580      106.447      -25.364      135.059       90.913       52.218    18240.908     8265.244     2726.677        4.071        1.462      227.076       38.051        0.028      334.640        4.744      871.207
01/21/2022  16:13:00      162.493      161.083      -32.491       94.160      144.309       52.828     8866.126    20825.113     2790.778        4.294        1.624      228.805       45.101        0.039      334.652        4.762      871.184
01/21/2022  16:14:00      181.216      167.494      -37.404      110.671       98.183       64.992    12247.990     9639.837     4223.946        4.420        1.306      246.766       49.358        0.040      334.628        4.722      871.176
01/21/2022  16:15:00      207.359      204.879      -33.927      113.213      117.683       75.777    12817.261    13849.178     5742.138        5.926        1.620      291.501       71.400        0.060      334.598        4.672      871.156
01/21/2022  16:16:00      204.165      212.674      -28.198       89.681       91.639       46.449     8042.757     8397.757     2157.545        5.315        0.930      294.811       34.780        0.014      334.589        4.655      871.135
01/21/2022  16:17:00      178.679      125.490      -18.667      153.744       71.057       42.688    23637.142     5049.154     1822.250        3.926        1.525      218.344       46.416        0.045      334.602        4.680      871.129
01/21/2022  16:18:00      128.619      145.357      -27.812       69.868       84.370       38.143     4881.522     7118.328     1454.884        2.595        0.673      194.092       29.218        0.023      334.639        4.740      871.120
01/21/2022  16:19:00      254.196      228.481      -50.866      103.857      100.457       48.669    10786.365    10091.547     2368.718        7.132        1.162      341.788       40.093        0.014      334.554        4.598      871.109
01/21/2022  16:20:00      238.773      127.739       -9.902      172.073       96.534       55.689    29609.023     9318.812     3101.216        5.772        2.101      270.795       62.463        0.053      334.541        4.578      871.083
01/21/2022  16:21:00      175.265      176.975      -30.468      102.423       86.827       56.631    10490.416     7539.009     3207.047        4.210        1.062      249.074       43.651        0.031      334.573        4.631      871.072
01/21/2022  16:22:00      170.454       99.416      -35.065       98.828       72.839       53.731     9766.948     5305.488     2886.971        2.906        0.898      197.327       21.892        0.012      334.571        4.629      871.060
01/21/2022  16:23:00      185.206      129.328       -7.402      118.865       75.484       49.879    14128.833     5697.901     2487.867        3.669        1.116      225.892       55.036        0.059      334.579        4.639      871.047
01/21/2022  16:24:00      311.439       95.911      -13.560      130.848       99.590       52.826    17121.203     9918.097     2790.582        6.810        1.491      325.873       53.849        0.027      334.563        4.613      871.004
01/21/2022  16:25:00      336.575      124.770      -42.662      180.840      131.897       77.845    32703.054    17396.925     6059.776        9.340        2.808      358.957       76.364        0.045      334.541        4.578      870.957
01/21/2022  16:26:00      348.716      175.001      -39.281       83.923       88.175       58.651     7043.044     7774.808     3439.904        8.601        0.913      390.165       44.526        0.013      334.494        4.502      870.948
01/21/2022  16:27:00      359.113      122.697      -31.837      135.564       98.925       71.669    18377.646     9786.153     5136.466        8.916        1.665      379.495       55.280        0.021      334.479        4.478      870.937
01/21/2022  16:28:00      160.592      178.669      -21.467      136.162       94.069       57.568    18539.955     8849.068     3314.086        4.443        1.535      240.234       53.518        0.050      334.537        4.573      870.970
01/21/2022  16:29:00      217.155       99.644      -29.270       92.297       68.584       48.554     8518.714     4703.702     2357.509        3.676        0.779      238.925       46.906        0.039      334.513        4.531      870.976
01/21/2022  16:30:00      191.148      203.032      -31.207       96.036       85.756       58.976     9222.828     7354.049     3478.158        4.939        1.003      278.854       51.340        0.034      334.509        4.525      870.970
01/21/2022  16:31:00      308.229      124.655      -27.893      112.256       83.880       47.993    12601.373     7035.877     2303.336        6.663        1.097      332.481       29.373        0.008      334.468        4.459      870.954
01/21/2022  16:32:00      281.757      102.145      -15.608       97.398       64.097       49.572     9486.352     4108.485     2457.342        5.306        0.803      299.700       34.059        0.013      334.455        4.437      870.936
01/21/2022  16:33:00      106.648       29.507      -12.001       85.795       70.631       45.977     7360.724     4988.782     2113.920        1.342        0.723      110.654       32.904        0.088      334.526        4.556      870.947
01/21/2022  16:34:00      210.922       56.529      -29.962      103.965       81.073       48.634    10808.681     6572.850     2365.255        3.416        0.987      218.366       30.799        0.020      334.461        4.447      870.930
01/21/2022  16:35:00      292.918      189.916      -32.976      142.191      118.546       61.599    20218.308    14053.138     3794.497        8.050        1.903      349.097       44.538        0.016      334.438        4.409      870.922
01/21/2022  16:36:00      187.753      109.175      -22.943       74.244       85.722       51.661     5512.154     7348.313     2668.822        3.161        0.776      217.188       44.461        0.042      334.443        4.416      870.936
01/21/2022  16:37:00      137.054       80.839       -9.803       78.939       79.553       41.315     6231.370     6328.734     1706.936        1.984        0.713      159.118       20.499        0.017      334.464        4.452      870.981
01/21/2022  16:38:00      172.922      124.042      -19.049       95.906      107.848       51.913     9198.041    11631.189     2694.969        3.458        1.176      212.811       39.597        0.035      334.473        4.468      871.007
01/21/2022  16:39:00      180.665      142.093      -30.148      109.838       80.825       56.264    12064.445     6532.639     3165.664        3.775        1.088      229.849       41.850        0.033      334.435        4.404      871.024
01/21/2022  16:40:00      312.309      159.784      -44.721      112.590       94.729       55.412    12676.403     8973.617     3070.525        7.489        1.236      350.810       44.634        0.016      334.380        4.311      871.032
01/21/2022  16:41:00      265.420      113.218      -30.119      136.317       97.925       48.688    18582.418     9589.254     2370.496        5.735        1.527      288.559       51.541        0.032      334.383        4.316      871.020
01/21/2022  16:42:00      157.052       51.805      -13.855       93.945       92.315       60.916     8825.696     8522.075     3710.712        2.430        1.053      165.376       43.512        0.069      334.374        4.303      871.019
01/21/2022  16:43:00      189.687       69.807       -8.127      125.536       93.217       54.851    15759.267     8689.318     3008.627        3.418        1.373      202.125       47.596        0.055      334.348        4.257      870.997
01/21/2022  16:44:00      252.625       72.275      -23.128      106.211       80.539       50.529    11280.725     6486.582     2553.210        4.495        1.016      262.760       48.578        0.034      334.332        4.232      870.988
01/21/2022  16:45:00      185.175       66.696      -10.165      100.638       82.172       44.753    10128.004     6752.186     2002.815        2.886        0.944      196.820       35.972        0.033      334.324        4.219      871.000
01/21/2022  16:46:00      277.936      170.321      -30.766      121.662       65.290       44.796    14801.763     4262.756     2006.660        6.413        1.054      325.972       42.839        0.017      334.329        4.226      871.021
01/21/2022  16:47:00      217.202      153.176      -30.118      124.805       77.646       48.646    15576.273     6028.850     2366.398        4.775        1.199      265.781       42.519        0.026      334.307        4.191      871.052
01/21/2022  16:48:00      225.112      174.211      -28.536      107.725       66.474       57.171    11604.771     4418.741     3268.524        5.056        0.965      284.648       44.120        0.024      334.296        4.171      871.070
01/21/2022  16:49:00      169.718      134.541      -27.107       90.985       72.487       55.430     8278.357     5254.342     3072.530        3.212        0.830      216.577       42.824        0.039      334.319        4.209      871.084
01/21/2022  16:50:00      268.793      129.415      -26.854      112.169       81.600       58.469    12581.935     6658.638     3418.616        5.618        1.133      298.325       43.977        0.022      334.308        4.190      871.097
01/21/2022  16:51:00      205.280      103.212      -18.614      112.619      102.417       60.443    12682.958    10489.239     3653.382        3.998        1.341      229.767       55.408        0.058      334.235        4.071      871.110
01/21/2022  16:52:00      205.935      146.007      -30.007       92.004       50.718       46.324     8464.801     2572.319     2145.882        3.890        0.659      252.443       39.066        0.024      334.249        4.094      871.136
01/21/2022  16:53:00      114.875       85.648      -12.274       78.036       98.414       46.664     6089.551     9685.349     2177.533        1.931        0.898      143.290       32.986        0.053      334.240        4.079      871.133
01/21/2022  16:54:00      188.332       98.536      -17.415      116.259       81.625       51.041    13516.093     6662.641     2605.226        3.413        1.139      212.552       41.573        0.038      334.205        4.021      871.150
01/21/2022  16:55:00      204.983       89.736       -7.153      110.753      100.523       59.849    12266.130    10104.889     3581.927        3.803        1.298      223.764       48.313        0.047      334.201        4.013      871.162
01/21/2022  16:56:00      183.897      152.920      -31.472      110.289       74.965       55.429    12163.741     5619.769     3072.389        3.952        1.043      239.171       48.774        0.042      334.192        3.998      871.175
01/21/2022  16:57:00      248.711      226.780      -37.994      119.999      112.902       58.037    14399.703    12746.830     3368.326        7.262        1.526      336.580       46.979        0.019      334.193        4.001      871.167
01/21/2022  16:58:00      210.760      171.467      -30.131      132.517       74.339       64.451    17560.816     5526.319     4153.963        5.098        1.362      271.699       43.336        0.025      334.165        3.952      871.145
01/21/2022  16:59:00      217.559      213.892      -45.727       99.414       85.028       61.660     9883.115     7229.723     3801.973        5.804        1.046      305.092       49.846        0.027      334.169        3.957      871.128
01/21/2022  17:00:00      135.558      135.772      -28.932       62.141       47.081       43.233     3861.487     2216.639     1869.121        2.280        0.397      191.859       36.090        0.035      334.132        3.900      871.100
01/21/2022  17:01:00      219.221      121.980      -35.677       92.172       59.247       38.869     8495.695     3510.184     1510.794        3.886        0.676      250.872       22.101        0.008      334.115        3.870      871.064
01/21/2022  17:02:00      177.689      119.653      -12.299       82.217       81.375       45.762     6759.624     6621.970     2094.120        3.076        0.774      214.220       41.092        0.037      334.099        3.843      871.057
01/21/2022  17:03:00      145.699      148.524       -9.107       92.655       81.896       50.436     8584.895     6706.956     2543.806        3.060        0.892      208.057       52.506        0.064      334.099        3.842      871.061
01/21/2022  17:04:00      169.461      159.378      -19.055      111.956       78.802       47.651    12534.037     6209.712     2270.641        3.774        1.051      232.634       36.269        0.024      334.088        3.826      871.080
01/21/2022  17:05:00      142.792      112.406      -17.163       88.312       56.920       41.855     7799.063     3239.850     1751.864        2.305        0.640      181.727       35.338        0.038      334.050        3.765      871.070
01/21/2022  17:06:00      129.750      125.147      -12.654       63.628       67.557       48.194     4048.468     4563.956     2322.644        2.179        0.547      180.269       36.790        0.042      334.073        3.803      871.068
01/21/2022  17:07:00      122.442      126.912       -4.742      101.726       97.811       41.443    10348.243     9567.045     1717.553        2.637        1.082      176.348       50.710        0.083      334.048        3.760      871.053
01/21/2022  17:08:00      176.971      134.114      -30.832       78.026       59.749       42.384     6088.117     3569.921     1796.381        3.085        0.573      222.048       28.449        0.016      334.032        3.734      871.048
01/21/2022  17:09:00      149.369      108.718      -26.127       59.639       48.716       40.656     3556.792     2373.263     1652.882        2.120        0.379      184.745       27.103        0.022      334.014        3.705      871.030
01/21/2022  17:10:00      141.601      112.715       -8.850       75.560       51.721       35.169     5709.371     2675.098     1236.824        2.123        0.481      180.985       22.706        0.016      333.984        3.656      870.989
01/21/2022  17:11:00      220.517      100.297      -32.737       98.449       82.100       40.176     9692.185     6740.470     1614.086        3.890        0.902      242.254       39.356        0.026      334.006        3.690      870.941
01/21/2022  17:12:00      174.470       97.531      -27.347       90.692       51.693       42.288     8225.029     2672.135     1788.315        2.669        0.634      199.881       33.740        0.028      333.999        3.680      870.917
01/21/2022  17:13:00      120.492      144.370      -29.122       52.864       67.000       44.445     2794.614     4489.066     1975.321        2.273        0.463      188.045       17.525        0.009      333.981        3.651      870.912
01/21/2022  17:14:00      130.501      138.173      -17.074       68.683       67.915       48.545     4717.371     4612.454     2356.662        2.405        0.584      190.058       45.148        0.056      333.956        3.610      870.928
01/21/2022  17:15:00      132.266      108.968      -19.782       64.196       50.922       34.277     4121.168     2593.000     1174.896        1.882        0.394      171.372       30.179        0.031      333.918        3.548      870.929
01/21/2022  17:16:00      149.901      102.929      -19.522       70.759       41.626       32.726     5006.859     1732.750     1070.965        2.063        0.391      181.837       19.739        0.012      333.904        3.522      870.929
01/21/2022  17:17:00      144.869      107.082      -14.564       69.620       59.068       47.371     4846.961     3489.032     2243.994        2.162        0.529      180.149       39.728        0.049      333.900        3.517      870.948
01/21/2022  17:18:00      107.437       98.482      -12.112       84.928       53.693       31.429     7212.755     2882.941      987.762        1.623        0.554      145.745       35.156        0.058      333.934        3.574      870.986
01/21/2022  17:19:00      108.800       54.877      -11.078       73.285       65.167       30.058     5370.682     4246.710      903.494        1.274        0.526      121.856       28.916        0.056      333.906        3.529      871.013
01/21/2022  17:20:00      131.945       93.621      -19.741       67.174       48.720       34.693     4512.386     2373.601     1203.614        1.733        0.404      161.785       28.863        0.032      333.864        3.457      871.040
01/21/2022  17:21:00      164.347      134.608      -29.292       78.699       60.922       43.867     6193.578     3711.545     1924.291        2.891        0.591      212.437       39.234        0.034      333.884        3.490      871.062
01/21/2022  17:22:00      171.040      138.873      -27.529       68.041       56.126       39.621     4629.516     3150.137     1569.790        2.932        0.467      220.319       30.612        0.019      333.863        3.455      871.082
01/21/2022  17:23:00      136.112       86.151      -15.651       77.747       55.588       42.553     6044.541     3090.030     1810.746        1.857        0.547      161.086       24.430        0.023      333.830        3.401      871.077
01/21/2022  17:24:00      176.889      117.609      -28.919       72.308       55.685       49.608     5228.448     3100.780     2460.946        2.837        0.540      212.419       34.906        0.027      333.875        3.474      871.061
01/21/2022  17:25:00      148.711      105.860      -18.990       73.566       43.321       38.225     5411.895     1876.679     1461.121        2.121        0.437      182.541       27.726        0.023      333.828        3.396      871.056
01/21/2022  17:26:00      120.838       81.415      -12.526       64.471       30.665       33.809     4156.535      940.333     1143.068        1.381        0.312      145.706       22.865        0.025      333.802        3.355      871.058
01/21/2022  17:27:00      138.249       85.814      -16.694       58.367       43.639       30.514     3406.736     1904.358      931.110        1.650        0.312      162.717       28.052        0.030      333.795        3.345      871.038
01/21/2022  17:28:00      127.565       97.097      -16.111       59.076       55.106       35.369     3489.965     3036.655     1250.965        1.687        0.389      160.314       29.994        0.035      333.824        3.391      871.027
01/21/2022  17:29:00      129.807      114.538      -19.640       64.258       55.755       42.915     4129.095     3108.596     1841.655        1.972        0.454      173.115       35.376        0.042      333.812        3.371      871.052
01/21/2022  17:30:00      139.480       74.386      -15.997       85.360       36.575       27.588     7286.407     1337.699      761.110        1.731        0.469      158.075       26.218        0.028      333.759        3.283      871.089
01/21/2022  17:31:00      151.660      107.268      -29.677       83.549       44.606       35.638     6980.494     1989.675     1270.035        2.281        0.512      185.761       21.274        0.013      333.811        3.368      871.110
01/21/2022  17:32:00      136.536       99.189      -14.551       68.599       52.437       42.499     4705.786     2749.588     1806.191        1.898        0.463      168.762       28.916        0.029      333.797        3.345      871.126
01/21/2022  17:33:00      126.412      118.360      -16.609       78.549       58.474       38.428     6169.972     3419.251     1476.713        2.066        0.553      173.174       40.151        0.054      333.821        3.384      871.155
01/21/2022  17:34:00      106.753       99.733      -16.362       50.787       40.005       26.761     2579.333     1600.370      716.129        1.325        0.245      146.092       20.683        0.020      333.789        3.333      871.185
01/21/2022  17:35:00      130.486      126.347      -17.929       62.106       64.160       43.807     3857.192     4116.528     1919.095        2.160        0.495      181.632       36.796        0.041      333.844        3.422      871.208
01/21/2022  17:36:00      132.530      101.064      -12.446       65.040       49.138       34.807     4230.213     2414.591     1211.559        1.789        0.393      166.668       29.791        0.032      333.821        3.387      871.205
01/21/2022  17:37:00       99.834      108.586      -13.487       57.047       59.722       40.659     3254.329     3566.689     1653.177        1.521        0.424      147.505       31.651        0.046      333.813        3.374      871.179
01/21/2022  17:38:00      116.741       88.672      -23.722       68.158       56.073       30.977     4645.466     3144.162      959.571        1.540        0.437      146.599       24.548        0.028      333.788        3.332      871.149
01/21/2022  17:39:00      173.291      119.787      -33.401       62.769       63.213       42.192     3939.894     3995.897     1780.173        2.760        0.486      210.663       30.649        0.021      333.788        3.329      871.127
01/21/2022  17:40:00      153.994       75.204      -11.235       53.605       47.664       37.057     2873.543     2271.825     1373.185        1.801        0.326      171.376       26.095        0.023      333.768        3.298      871.114
01/21/2022  17:41:00       99.784       73.965      -17.643       50.028       36.742       33.362     2502.850     1349.960     1112.993        1.035        0.248      124.208       26.196        0.044      333.780        3.320      871.112
01/21/2022  17:42:00      161.474      113.417      -36.233       65.884       45.345       29.241     4340.743     2056.157      855.026        2.375        0.363      197.325       33.050        0.028      333.764        3.291      871.139
01/21/2022  17:43:00      163.988      108.197      -27.045       47.055       59.000       38.019     2214.177     3480.993     1445.423        2.323        0.357      196.465       32.818        0.028      333.746        3.260      871.166
01/21/2022  17:44:00      175.954      135.351      -36.028       77.154       49.389       36.497     5952.747     2439.278     1332.062        3.015        0.486      221.990       25.204        0.013      333.798        3.345      871.185
01/21/2022  17:45:00      134.985      100.190      -24.944       61.903       43.047       36.578     3832.030     1853.084     1337.976        1.795        0.351      168.104       27.642        0.027      333.738        3.249      871.213
01/21/2022  17:46:00      148.159       91.867      -27.457       52.374       33.730       25.863     2743.041     1137.713      668.881        1.785        0.227      174.329       17.940        0.011      333.731        3.238      871.238
01/21/2022  17:47:00      142.806      115.325      -24.943       59.425       45.396       34.333     3531.383     2060.809     1178.728        2.054        0.339      183.558       27.211        0.022      333.773        3.305      871.255
01/21/2022  17:48:00      139.118       88.188      -14.933       59.121       56.885       33.473     3495.247     3235.883     1120.421        1.760        0.393      164.715       29.078        0.031      333.719        3.217      871.275
01/21/2022  17:49:00      120.220       82.810      -19.771       47.138       40.651       30.805     2222.031     1652.508      948.946        1.326        0.241      145.981       21.368        0.021      333.715        3.211      871.265
01/21/2022  17:50:00      133.735       80.222      -13.213       48.892       40.813       33.633     2390.404     1665.706     1131.183        1.484        0.259      155.951       25.097        0.026      333.723        3.225      871.234
01/21/2022  17:51:00      124.223       71.656      -16.728       42.783       55.214       30.305     1830.397     3048.577      918.372        1.332        0.290      143.408       16.040        0.013      333.713        3.208      871.216
01/21/2022  17:52:00      128.828      108.545      -18.971       56.845       48.586       38.671     3231.344     2360.564     1495.474        1.791        0.354      168.460       34.927        0.043      333.727        3.230      871.204
01/21/2022  17:53:00      125.524       92.348      -23.836       45.079       50.469       32.408     2032.139     2547.090     1050.295        1.524        0.281      155.835       29.956        0.037      333.688        3.168      871.201
01/21/2022  17:54:00      153.103      115.145      -29.545       52.320       40.595       30.940     2737.397     1647.991      957.306        2.146        0.267      191.569       25.218        0.017      333.739        3.249      871.195
01/21/2022  17:55:00      153.497       93.563      -21.044       59.167       33.590       26.551     3500.704     1128.306      704.971        1.905        0.267      179.764       20.101        0.013      333.699        3.184      871.196
01/21/2022  17:56:00      151.006      116.151      -24.526       60.820       50.412       37.612     3699.109     2541.364     1414.660        2.227        0.383      190.509       28.737        0.023      333.720        3.217      871.202
01/21/2022  17:57:00      137.019       77.684       -8.371       75.893       44.746       35.565     5759.755     2002.230     1264.863        1.695        0.451      157.508       29.054        0.034      333.697        3.181      871.209
01/21/2022  17:58:00      172.756      122.888      -23.839       74.991       60.074       41.727     5623.722     3608.878     1741.134        2.824        0.549      212.005       32.216        0.023      333.733        3.238      871.213
01/21/2022  17:59:00      143.814      100.835      -23.974       63.625       38.954       36.862     4048.114     1517.391     1358.773        1.917        0.346      175.642       25.925        0.022      333.716        3.212      871.219
01/21/2022  18:00:00      161.335      102.268      -22.395       51.796       37.540       31.886     2682.839     1409.262     1016.705        2.105        0.255      191.018       24.534        0.016      333.705        3.194      871.218
01/21/2022  18:01:00      129.292      101.225      -27.901       67.312       40.188       40.113     4530.964     1615.047     1609.027        1.775        0.388      164.203       22.648        0.019      333.704        3.193      871.216
01/21/2022  18:02:00      124.389      105.374      -22.325       66.528       42.965       39.312     4425.931     1845.987     1545.430        1.744        0.391      163.022       27.646        0.029      333.697        3.182      871.220
01/21/2022  18:03:00      158.464      119.388      -28.141       54.406       55.011       48.238     2960.064     3026.171     2326.952        2.423        0.416      198.405       34.085        0.030      333.701        3.187      871.232
01/21/2022  18:04:00       94.362       82.817      -15.308       54.282       45.535       32.492     2946.590     2073.395     1055.724        1.104        0.304      125.551       23.931        0.036      333.666        3.132      871.255
01/21/2022  18:05:00      126.402      104.390      -17.388       72.368       41.876       28.395     5237.118     1753.564      806.255        1.749        0.390      163.935        9.067        0.003      333.690        3.169      871.266
01/21/2022  18:06:00      145.634      110.188      -26.969       69.486       61.761       42.159     4828.335     3814.389     1777.349        2.225        0.521      182.622       40.062        0.048      333.671        3.135      871.285
01/21/2022  18:07:00      122.639       91.229      -18.282       51.250       38.138       27.793     2626.541     1454.480      772.476        1.427        0.243      152.850       16.881        0.012      333.677        3.149      871.316
01/21/2022  18:08:00      116.692       73.845      -13.219       50.472       33.523       34.233     2547.462     1123.818     1171.883        1.204        0.242      138.094       25.817        0.035      333.684        3.161      871.333
01/21/2022  18:09:00      119.411      103.103      -16.055       59.189       52.771       30.642     3503.314     2784.803      938.953        1.619        0.361      157.763       25.059        0.025      333.695        3.178      871.332
01/21/2022  18:10:00      120.185       88.803      -12.270       51.570       39.420       28.305     2659.420     1553.911      801.187        1.375        0.251      149.434       29.064        0.038      333.675        3.146      871.325
01/21/2022  18:11:00      132.759       70.287      -15.813       48.571       40.019       30.459     2359.116     1601.526      927.728        1.385        0.244      150.217       10.794        0.005      333.639        3.085      871.300
01/21/2022  18:12:00      112.356       88.244      -10.053       48.093       37.311       33.709     2312.968     1392.080     1136.285        1.268        0.242      142.866       27.093        0.036      333.642        3.091      871.283
01/21/2022  18:13:00       84.844       77.347      -13.553       56.201       44.852       30.010     3158.528     2011.744      900.590        0.972        0.304      114.809       20.699        0.033      333.628        3.068      871.276
01/21/2022  18:14:00       82.711      113.026      -15.982       48.956       51.249       30.878     2396.677     2626.409      953.425        1.292        0.299      140.057       20.989        0.022      333.732        3.240      871.285
01/21/2022  18:15:00       88.522      142.513      -20.868       45.202       57.178       31.590     2043.250     3269.277      997.951        1.744        0.316      167.768       19.005        0.013      333.783        3.324      871.301
01/21/2022  18:16:00       69.689      133.954      -20.664       40.837       39.365       30.786     1667.673     1549.597      947.772        1.370        0.208      150.997       18.082        0.014      333.766        3.296      871.323
01/21/2022  18:17:00       87.245      143.259      -22.432       53.228       68.960       38.177     2833.263     4755.496     1457.490        1.884        0.452      167.735       27.741        0.027      333.828        3.399      871.332
01/21/2022  18:18:00       82.387       86.737       -8.443       48.124       40.263       34.387     2315.885     1621.089     1182.459        0.975        0.256      119.628       25.479        0.045      333.751        3.272      871.333
01/21/2022  18:19:00       54.704      103.441      -10.675       35.680       39.016       29.031     1273.036     1522.285      842.791        0.872        0.182      117.015       20.999        0.032      333.831        3.404      871.326
01/21/2022  18:20:00       62.259       96.745      -10.655       33.443       58.129       28.226     1118.436     3378.929      796.727        0.932        0.265      115.047       23.779        0.043      333.781        3.322      871.323
01/21/2022  18:21:00       74.347      117.443      -23.901       51.481       47.465       33.563     2650.312     2252.879     1126.461        1.296        0.301      138.997       35.155        0.064      333.832        3.404      871.329
01/21/2022  18:22:00       94.307      107.181      -18.549       35.040       48.277       28.784     1227.794     2330.667      828.529        1.256        0.219      142.764       26.231        0.034      333.791        3.337      871.360
01/21/2022  18:23:00       67.864       84.666      -15.850       50.281       42.553       24.423     2528.172     1810.765      596.464        0.848        0.247      108.507       26.266        0.059      333.695        3.180      871.397
01/21/2022  18:24:00       78.011      119.387       -8.758       37.207       51.562       29.185     1384.375     2658.660      851.758        1.265        0.245      142.614       22.479        0.025      333.801        3.354      871.446
01/21/2022  18:25:00       60.029      122.854      -13.619       48.771       47.409       31.434     2378.571     2247.637      988.072        1.225        0.281      136.735       27.935        0.042      333.772        3.304      871.489
01/21/2022  18:26:00       56.762      122.454      -18.496       28.863       43.589       22.643      833.100     1899.995      512.686        1.090        0.162      134.970       14.012        0.011      333.830        3.402      871.518
01/21/2022  18:27:00       55.917       93.752      -21.624       42.785       36.440       27.083     1830.589     1327.901      733.489        0.814        0.195      109.161       12.664        0.013      333.761        3.288      871.527
01/21/2022  18:28:00       61.859       99.866      -17.297       32.410       55.339       29.659     1050.437     3062.442      879.634        0.954        0.250      117.472       27.349        0.054      333.810        3.370      871.521
01/21/2022  18:29:00       44.610       81.101      -13.094       37.604       37.053       22.248     1414.040     1372.957      494.984        0.601        0.164       92.561       14.682        0.025      333.815        3.377      871.527
01/21/2022  18:30:00       64.268       69.067       -7.525       37.083       33.443       25.420     1375.163     1118.430      646.176        0.605        0.157       94.343       22.828        0.059      333.761        3.288      871.539
01/21/2022  18:31:00       34.937      112.854      -10.351       40.480       35.781       30.753     1638.646     1280.310      945.745        0.896        0.193      118.138       15.813        0.018      333.850        3.435      871.538
01/21/2022  18:32:00       73.960       50.760      -22.349       38.924       30.543       29.109     1515.055      932.868      847.346        0.592        0.165       89.703       15.936        0.032      333.732        3.240      871.540
01/21/2022  18:33:00       50.525       89.850      -16.312       33.987       76.772       29.482     1155.107     5894.015      869.194        0.940        0.396      103.082       22.391        0.047      333.872        3.473      871.538
01/21/2022  18:34:00       26.096      -10.351       -8.676       14.048       38.169       21.850      197.347     1456.896      477.432        0.150        0.107       28.074       24.441        0.758      333.715        3.211      871.528
01/21/2022  18:35:00       14.746      -14.714        0.255       29.915       21.881       18.838      894.908      478.761      354.871        0.108        0.086       20.831       16.012        0.591      333.603        3.026      871.519
01/21/2022  18:36:00        8.715      -13.283       -2.910       12.385       26.048       13.196      153.392      678.488      174.135        0.063        0.050       15.887       12.674        0.636      333.637        3.084      871.510
01/21/2022  18:37:00       30.402       -4.330       -7.320       22.533       32.207       18.208      507.722     1037.319      331.525        0.144        0.094       30.709       14.824        0.233      333.645        3.097      871.499
01/21/2022  18:38:00       20.184       -2.641      -15.627       22.897       31.255       21.832      524.266      976.902      476.646        0.132        0.099       20.356       15.222        0.559      333.603        3.028      871.485
01/21/2022  18:39:00       46.954      -64.430      -20.824       29.603       30.210       16.486      876.316      912.656      271.797        0.442        0.103       79.724       19.571        0.060      333.622        3.058      871.479
01/21/2022  18:40:00       55.640      -31.742       -9.045       28.484       30.507       16.380      811.320      930.667      268.293        0.310        0.101       64.058       14.143        0.049      333.636        3.081      871.458
01/21/2022  18:41:00       68.227     -120.772      -27.408       22.166       29.526       16.365      491.324      871.801      267.823        1.081        0.082      138.711       10.295        0.006      333.731        3.239      871.453
01/21/2022  18:42:00       59.649     -102.787      -25.076       40.705       40.111       28.942     1656.914     1608.913      837.622        0.943        0.205      118.841       21.576        0.033      333.736        3.245      871.451
01/21/2022  18:43:00       48.201     -123.616      -26.471       52.909       45.180       27.786     2799.383     2041.226      772.052        1.196        0.281      132.681       26.155        0.039      333.754        3.275      871.458
01/21/2022  18:44:00       74.370     -142.047      -28.201       30.237       26.994       22.776      914.285      728.671      518.760        1.433        0.108      160.338       15.158        0.009      333.883        3.490      871.480
01/21/2022  18:45:00       56.334     -149.594      -20.945       38.746       33.723       25.648     1501.253     1137.216      657.829        1.464        0.165      159.850       25.064        0.025      333.816        3.379      871.492
01/21/2022  18:46:00       70.344     -166.138      -28.426       36.984       42.418       27.683     1367.810     1799.308      766.360        1.865        0.197      180.417       24.539        0.018      333.760        3.285      871.506
01/21/2022  18:47:00       92.044     -210.408      -36.042       33.190       43.323       30.331     1101.568     1876.893      919.949        2.897        0.195      229.660       20.336        0.008      333.720        3.215      871.516
01/21/2022  18:48:00      102.851     -189.053      -45.108       41.548       64.498       32.327     1726.273     4159.980     1045.036        2.764        0.347      215.219       20.052        0.009      333.713        3.205      871.538
01/21/2022  18:49:00       68.378     -117.262      -30.543       49.166       54.749       25.876     2417.338     2997.475      669.593        1.272        0.304      135.742       25.244        0.035      333.775        3.310      871.557
01/21/2022  18:50:00       84.596     -127.629      -32.711       32.668       41.947       30.037     1067.214     1759.542      902.222        1.412        0.186      153.120       20.757        0.018      333.735        3.244      871.583
01/21/2022  18:51:00      100.033      -94.951      -29.979       41.766       50.189       29.074     1744.373     2518.922      845.276        1.251        0.255      137.922       17.494        0.016      333.690        3.172      871.604
01/21/2022  18:52:00       91.578      -48.638      -18.217       70.964       59.504       30.988     5035.859     3540.704      960.227        1.031        0.477      103.692       27.529        0.070      333.643        3.094      871.607
01/21/2022  18:53:00       53.696       -9.000       -8.690       46.646       49.126       33.337     2175.877     2413.389     1111.332        0.437        0.285       54.445       26.678        0.240      333.636        3.083      871.593
01/21/2022  18:54:00       42.949       -6.062       -2.039       50.265       36.603       27.138     2526.544     1339.748      736.498        0.324        0.230       43.374       24.636        0.323      333.501        2.858      871.589
01/21/2022  18:55:00       64.894      -24.928       -3.484       55.828       43.219       33.525     3116.738     1867.873     1123.917        0.548        0.305       69.517       36.959        0.283      333.445        2.763      871.571
01/21/2022  18:56:00       78.074      -19.669       -4.534       56.703       54.180       34.554     3215.255     2935.453     1194.008        0.692        0.367       80.513       35.118        0.190      333.553        2.944      871.555
01/21/2022  18:57:00       73.083        8.008      -17.129       40.250       46.345       21.959     1620.035     2147.816      482.213        0.497        0.213       73.521       21.261        0.084      333.433        2.744      871.551
01/21/2022  18:58:00       81.318       58.789      -10.634       24.119       18.195       15.076      581.716      331.062      227.288        0.566        0.057      100.344        5.654        0.003      333.269        2.473      871.547
01/21/2022  18:59:00       96.731        3.576      -16.496       32.839       43.320       14.518     1078.411     1876.610      210.773        0.640        0.158       96.797        3.310        0.001      333.383        2.662      871.529
01/21/2022  19:00:00       89.804       10.696      -12.774       32.397       41.380       18.269     1049.568     1712.336      333.760        0.572        0.155       90.439       13.528        0.022      333.390        2.675      871.519
01/21/2022  19:01:00       45.781        2.360       -4.502       24.948       29.952       20.511      622.408      897.141      420.719        0.203        0.097       45.841       12.072        0.069      333.357        2.619      871.538
01/21/2022  19:02:00       86.504       16.955       -8.797       30.003       25.591       14.621      900.207      654.898      213.781        0.481        0.088       88.150        4.865        0.003      333.439        2.756      871.552
01/21/2022  19:03:00       83.615       28.642      -12.092       27.096       19.326       12.587      734.167      373.487      158.434        0.461        0.063       88.385        9.632        0.012      333.355        2.615      871.550
01/21/2022  19:04:00      105.976        4.477      -11.030       33.080       21.515       19.341     1094.254      462.903      374.063        0.665        0.097      106.070       19.403        0.033      333.532        2.909      871.538
01/21/2022  19:05:00       73.083      -11.421       -2.750       38.824       24.881       25.393     1507.275      619.087      644.811        0.412        0.139       73.970       21.843        0.087      333.522        2.893      871.532
01/21/2022  19:06:00       44.426       -8.197       -5.129       41.693       18.230       21.420     1738.335      332.348      458.824        0.230        0.126       45.176       17.685        0.153      333.408        2.704      871.539
01/21/2022  19:07:00       39.704       -1.554       -7.875       34.305       25.461       18.289     1176.802      648.242      334.487        0.190        0.108       39.735       16.995        0.183      333.434        2.747      871.554
01/21/2022  19:08:00       38.688       17.404        4.239       44.809       33.319       20.311     2007.814     1110.159      412.524        0.267        0.177       42.422       21.037        0.246      333.445        2.765      871.551
01/21/2022  19:09:00       28.053       10.760      -10.307       45.000       33.135       30.971     2025.029     1097.897      959.209        0.254        0.204       30.045       25.409        0.715      333.499        2.854      871.548
01/21/2022  19:10:00       40.199        2.933      -16.028       26.715       29.041       22.612      713.667      843.362      511.314        0.197        0.103       40.306        9.919        0.061      333.388        2.671      871.529
01/21/2022  19:11:00       54.490       10.721       -7.952       35.197       21.201       13.221     1238.807      449.461      174.795        0.250        0.093       55.534       10.668        0.037      333.286        2.501      871.524
01/21/2022  19:12:00       89.385       25.835       -8.021       18.785       18.495       14.085      352.891      342.083      198.376        0.481        0.045       93.044       11.032        0.014      333.269        2.475      871.529
01/21/2022  19:13:00       74.015      -13.758       -1.103       44.224       21.458       20.398     1955.766      460.459      416.079        0.425        0.142       75.283       18.114        0.058      333.322        2.562      871.531
01/21/2022  19:14:00       85.912       -2.262       -0.767       40.766       29.153       18.254     1661.882      849.879      333.192        0.512        0.142       85.942       17.128        0.040      333.340        2.592      871.534
01/21/2022  19:15:00       55.257       12.424        3.807       25.719       23.538       18.785      661.463      554.031      352.868        0.239        0.078       56.636       10.826        0.037      333.248        2.439      871.545
01/21/2022  19:16:00      104.101       32.672       -4.981       20.990       22.302       16.106      440.580      497.389      259.409        0.656        0.060      109.108        6.388        0.003      333.185        2.335      871.551
01/21/2022  19:17:00       90.481       46.052       -5.238       21.314       17.093       12.757      454.276      292.183      162.740        0.562        0.045      101.526        9.919        0.010      333.222        2.396      871.552
01/21/2022  19:18:00       59.807       36.067       -5.112       25.438       17.754       16.020      647.094      315.195      256.637        0.306        0.061       69.841       11.564        0.027      333.204        2.365      871.544
01/21/2022  19:19:00       66.251       40.278       -6.511       29.131       22.060       15.558      848.587      486.638      242.045        0.382        0.079       77.533       12.945        0.028      333.255        2.452      871.536
01/21/2022  19:20:00       61.469       98.692       -6.970       29.908       24.840       17.959      894.473      617.045      322.520        0.770        0.092      116.269       15.758        0.018      333.250        2.443      871.530
01/21/2022  19:21:00       60.862       79.549       -9.900       32.650       29.296       20.746     1066.027      858.259      430.399        0.624        0.118      100.161       16.573        0.027      333.073        2.150      871.538
01/21/2022  19:22:00       66.383       97.495      -15.021       38.839       30.689       22.940     1508.489      941.838      526.233        0.856        0.149      117.949       20.624        0.031      333.131        2.246      871.528
01/21/2022  19:23:00       73.459      112.838      -11.149       33.575       32.215       21.327     1127.290     1037.775      454.851        1.044        0.131      134.643       16.264        0.015      333.215        2.385      871.524
01/21/2022  19:24:00       60.713      112.594      -13.673       35.300       29.969       23.658     1246.097      898.133      559.713        0.963        0.135      127.920       16.220        0.016      333.219        2.393      871.521
01/21/2022  19:25:00       36.703      109.001       -2.486       36.525       32.981       27.177     1334.081     1087.732      738.571        0.820        0.158      115.015       20.172        0.031      333.283        2.497      871.507
01/21/2022  19:26:00       34.840      114.921       -8.068       24.672       30.900       27.790      608.732      954.831      772.304        0.841        0.117      120.086       17.587        0.021      333.307        2.537      871.484
01/21/2022  19:27:00       53.327       91.065       -4.989       33.545       35.724       19.974     1125.251     1276.223      398.962        0.698        0.140      105.530       16.052        0.023      333.213        2.382      871.483
01/21/2022  19:28:00       42.777      112.909       -3.823       29.666       39.711       24.060      880.101     1576.933      578.876        0.881        0.152      120.740       14.683        0.015      333.284        2.498      871.488
01/21/2022  19:29:00       41.065      125.461       -3.774       23.581       33.527       27.694      556.079     1124.027      766.953        0.994        0.122      132.010       17.743        0.018      333.336        2.586      871.487
01/21/2022  19:30:00       41.145      140.748      -20.603       25.117       22.491       22.338      630.864      505.844      498.972        1.178        0.082      146.639        9.951        0.005      333.422        2.726      871.465
01/21/2022  19:31:00       55.853      117.685       -4.148       27.801       28.089       18.910      772.883      788.991      357.585        0.945        0.096      130.266       16.841        0.017      333.364        2.631      871.449
01/21/2022  19:32:00       65.107      116.346       -8.878       27.222       24.519       15.787      741.021      601.186      249.230        0.972        0.080      133.324       11.554        0.008      333.300        2.526      871.458
01/21/2022  19:33:00       69.522      101.705      -10.286       26.914       23.871       18.433      724.375      569.808      339.776        0.846        0.082      123.196       12.582        0.010      333.250        2.443      871.470
01/21/2022  19:34:00       50.545       62.026       -3.664       22.045       30.719       15.920      485.968      943.640      253.447        0.405        0.084       80.012       16.166        0.041      333.103        2.201      871.464
01/21/2022  19:35:00       59.144       88.439       -9.689       27.023       28.843       21.692      730.262      831.923      470.529        0.672        0.102      106.393       15.296        0.021      333.195        2.353      871.453
01/21/2022  19:36:00       56.903       93.363       -9.307       28.120       28.348       17.705      790.752      803.583      313.452        0.697        0.095      109.337       10.351        0.009      333.270        2.476      871.435
01/21/2022  19:37:00       67.028      110.115      -11.188       31.328       24.898       16.273      981.413      619.920      264.804        0.930        0.093      128.911       14.932        0.013      333.370        2.641      871.422
01/21/2022  19:38:00       60.816       72.902      -10.104       22.483       35.029       19.153      505.494     1227.051      366.851        0.561        0.105       94.938       15.071        0.025      333.156        2.288      871.425
01/21/2022  19:39:00       58.778       52.671      -11.811       25.100       23.026       18.301      630.024      530.219      334.910        0.393        0.075       78.924       10.364        0.017      333.126        2.238      871.440
01/21/2022  19:40:00       39.504       37.190       -5.763       15.510       21.514       14.164      240.574      462.867      200.620        0.194        0.045       54.255       12.555        0.054      333.043        2.100      871.456
01/21/2022  19:41:00       51.898       32.762      -10.200       15.389       15.594       11.327      236.832      243.184      128.293        0.224        0.030       61.374        8.503        0.019      333.061        2.129      871.479
01/21/2022  19:42:00       57.716       44.220      -15.373       26.239       16.681       13.309      688.462      278.244      177.136        0.333        0.057       72.709       10.487        0.021      333.111        2.213      871.486
01/21/2022  19:43:00       49.068       44.479       -9.185       24.616       25.348       18.930      605.946      642.519      358.347        0.304        0.080       66.227       17.693        0.071      333.086        2.170      871.486
01/21/2022  19:44:00       48.387       47.262       -7.307       28.406       19.128       16.149      806.893      365.887      260.798        0.303        0.072       67.639       14.373        0.045      333.089        2.176      871.479
01/21/2022  19:45:00       58.070       60.847       -8.042       28.769       30.887       18.293      827.675      953.981      334.637        0.463        0.106       84.110       16.795        0.040      333.104        2.202      871.466
01/21/2022  19:46:00       65.783       57.632       -8.024       24.200       23.051       18.004      585.653      531.335      324.131        0.458        0.072       87.458       12.634        0.021      333.104        2.201      871.450
01/21/2022  19:47:00       66.877       52.041       -8.161       27.545       19.284       15.334      758.701      371.889      235.127        0.431        0.068       84.739        9.793        0.013      333.105        2.204      871.438
01/21/2022  19:48:00       55.850       42.850       -8.728       25.725       26.382       18.442      661.776      696.021      340.104        0.336        0.085       70.394       12.566        0.032      333.087        2.174      871.446
01/21/2022  19:49:00       66.667       50.722       -8.725       29.517       22.331       19.071      871.250      498.687      363.703        0.441        0.087       83.769       15.998        0.036      333.093        2.183      871.465
01/21/2022  19:50:00       46.516       35.164       -2.048       22.726       22.527       19.682      516.485      507.447      387.365        0.241        0.071       58.311       15.422        0.070      333.049        2.110      871.485
01/21/2022  19:51:00      100.809       62.001      -15.146       28.964       28.002       21.720      838.927      784.107      471.772        0.817        0.105      118.350       16.006        0.018      333.064        2.136      871.503
01/21/2022  19:52:00       96.644       65.166      -15.885       25.212       17.953       16.936      635.669      322.309      286.813        0.754        0.062      116.562        9.985        0.007      333.057        2.124      871.500
01/21/2022  19:53:00       62.066       45.588       -6.906       29.868       21.814       18.215      892.089      475.856      331.787        0.384        0.085       77.009       12.200        0.025      332.973        1.984      871.486
01/21/2022  19:54:00       85.485       52.365       -8.377       28.741       27.218       21.515      826.030      740.809      462.902        0.607        0.101      100.248       15.704        0.025      332.977        1.993      871.481
01/21/2022  19:55:00       86.876       45.308       -9.794       21.493       16.830       13.688      461.967      283.241      187.361        0.531        0.047       97.981       11.014        0.013      332.993        2.018      871.481
01/21/2022  19:56:00       58.384       36.421       -9.397       19.633       18.217       11.781      385.458      331.870      138.783        0.284        0.043       68.812        9.861        0.021      332.936        1.925      871.473
01/21/2022  19:57:00       63.712       44.306       -9.602       17.437       17.211       12.082      304.035      296.231      145.972        0.343        0.037       77.603        6.856        0.008      332.955        1.955      871.462
01/21/2022  19:58:00       87.950       49.255      -11.672       18.166       14.194        9.972      329.990      201.467       99.432        0.546        0.032      100.803        5.541        0.003      333.033        2.086      871.443
01/21/2022  19:59:00      109.095       32.060      -20.681       18.934       18.016       11.918      358.499      324.592      142.044        0.709        0.041      113.709        5.683        0.002      333.101        2.197      871.439
01/21/2022  20:00:00      106.280       42.735      -10.879       24.407       16.450       12.384      595.691      270.595      153.356        0.713        0.051      114.550       10.230        0.008      333.045        2.104      871.452
01/21/2022  20:01:00      106.007       34.780       -5.891       18.665       21.183        9.208      348.396      448.739       84.793        0.668        0.044      111.567        6.938        0.004      333.047        2.108      871.446
01/21/2022  20:02:00       74.583       14.637       -6.911       14.047       10.414        9.442      197.319      108.442       89.155        0.311        0.020       76.006        6.322        0.007      332.969        1.980      871.446
01/21/2022  20:03:00       63.280        2.627       -4.824       19.439       11.648       10.848      377.887      135.667      117.679        0.233        0.032       63.335        8.769        0.019      332.970        1.980      871.442
01/21/2022  20:04:00       74.670       14.418       -1.723       11.332       11.551        8.701      128.405      133.420       75.703        0.306        0.017       76.049        6.022        0.006      333.009        2.045      871.435
01/21/2022  20:05:00       76.771       14.581       -7.113        8.320        7.967        5.122       69.223       63.473       26.238        0.316        0.008       78.143        4.469        0.003      333.047        2.108      871.421
01/21/2022  20:06:00       52.007        9.523       -2.813       13.814        9.547        8.782      190.827       91.141       77.115        0.158        0.018       52.872        5.683        0.012      332.983        2.002      871.417
01/21/2022  20:07:00       64.974        7.007       -5.064       14.776       16.588        6.773      218.340      275.149       45.877        0.242        0.027       65.350        4.643        0.005      333.097        2.189      871.417
01/21/2022  20:08:00       51.298      -50.209      -23.570       12.931       30.432       12.358      167.208      926.123      152.728        0.348        0.062       71.781       13.895        0.037      333.036        2.089      871.431
01/21/2022  20:09:00       81.266     -129.522      -43.985       48.544       45.947       31.019     2356.520     2111.101      962.149        1.537        0.271      152.906       20.314        0.018      333.021        2.064      871.459
01/21/2022  20:10:00       51.094     -160.962      -23.443       45.325       65.697       30.823     2054.345     4316.156      950.031        1.819        0.366      168.877       27.305        0.026      333.046        2.104      871.474
01/21/2022  20:11:00       99.286     -142.259      -35.219       39.619       32.590       27.590     1569.649     1062.127      761.187        1.736        0.170      173.480       18.768        0.012      333.102        2.199      871.476
01/21/2022  20:12:00       98.935      -57.406      -36.777       30.414       34.354       24.043      925.042     1180.204      578.071        0.856        0.134      114.383       13.613        0.014      333.270        2.475      871.475
01/21/2022  20:13:00       62.194      -12.094      -24.602       24.777       32.025       21.803      613.908     1025.600      475.361        0.337        0.106       63.359        9.606        0.023      333.155        2.286      871.472
01/21/2022  20:14:00       50.022       -4.959       -5.488       32.333       18.612       20.385     1045.434      346.413      415.541        0.218        0.090       50.268       21.115        0.176      333.152        2.280      871.464
01/21/2022  20:15:00       54.626      -19.275       -9.255       28.252       27.693       21.182      798.157      766.921      448.681        0.273        0.101       57.927       13.171        0.052      333.122        2.230      871.455
01/21/2022  20:16:00       58.671      -12.402       -9.432       31.745       29.373       21.688     1007.722      862.746      470.365        0.301        0.117       59.967       19.782        0.109      333.081        2.164      871.459
01/21/2022  20:17:00       29.356       -3.499       -3.758       26.944       22.123       18.375      725.963      489.438      337.654        0.122        0.078       29.563       16.375        0.307      333.041        2.098      871.444
01/21/2022  20:18:00       62.732      -23.186      -18.126       37.852       29.261       22.873     1432.786      856.208      523.196        0.381        0.141       66.880       19.366        0.084      333.033        2.083      871.434
01/21/2022  20:19:00       53.737      -22.323      -10.791       42.165       23.685       22.866     1777.902      560.993      522.859        0.318        0.143       58.189       21.657        0.139      333.048        2.108      871.437
01/21/2022  20:20:00       38.941        0.921      -11.124       25.739       31.778       29.731      662.493     1009.870      883.947        0.210        0.128       38.951       17.422        0.200      333.036        2.087      871.452
01/21/2022  20:21:00       49.985      -18.777       -8.875       38.506       24.620       19.593     1482.692      606.150      383.880        0.270        0.124       53.395       20.798        0.152      333.056        2.122      871.455
01/21/2022  20:22:00       74.373      -11.310       -4.121       28.623       17.876       14.650      819.292      319.548      214.634        0.351        0.068       75.228       10.218        0.018      333.063        2.135      871.468
01/21/2022  20:23:00       21.011       -5.870        9.920       27.687       29.244       18.011      766.566      855.199      324.394        0.126        0.097       21.816       13.752        0.397      333.030        2.081      871.495
01/21/2022  20:24:00       29.626       22.550       -4.132       34.460       37.994       28.127     1187.492     1443.536      791.130        0.241        0.171       37.232       20.645        0.307      333.040        2.097      871.472
01/21/2022  20:25:00       79.587       35.006        0.987       28.247       41.190       23.598      797.883     1696.656      556.854        0.531        0.153       86.945       16.203        0.035      332.930        1.914      871.482
01/21/2022  20:26:00       91.800        8.292       -1.920       23.488       14.375       15.032      551.683      206.633      225.967        0.474        0.049       92.174       10.543        0.013      332.897        1.860      871.489
01/21/2022  20:27:00       89.247       29.428       -1.739       23.484       27.355       16.061      551.520      748.299      257.962        0.520        0.078       93.973       12.153        0.017      332.812        1.719      871.488
01/21/2022  20:28:00       93.467       44.895       -2.892       25.492       20.799       17.547      649.824      432.605      307.881        0.607        0.070      103.690       14.493        0.020      332.818        1.728      871.491
01/21/2022  20:29:00      102.748       54.329       -8.999       28.041       23.797       13.651      786.279      566.317      186.337        0.756        0.077      116.228       11.196        0.009      332.893        1.854      871.489
01/21/2022  20:30:00       83.940       50.231       -4.512       28.264       16.930       17.255      798.843      286.614      297.719        0.549        0.069       97.822       10.808        0.012      332.899        1.863      871.486
01/21/2022  20:31:00       47.879       45.500       -3.399       25.722       21.327       14.444      661.633      454.834      208.618        0.285        0.066       66.050        8.526        0.017      332.865        1.809      871.491
01/21/2022  20:32:00       52.138       77.141       -6.238       26.400       33.916       17.400      696.977     1150.276      302.753        0.543        0.108       93.108       13.139        0.020      332.876        1.824      871.478
01/21/2022  20:33:00       66.205      123.499       -6.554       29.214       30.319       25.027      853.445      919.232      626.339        1.104        0.120      140.125       18.505        0.017      332.976        1.990      871.478
01/21/2022  20:34:00       73.694      137.196      -11.072       34.680       26.556       22.156     1202.715      705.208      490.885        1.339        0.120      155.735       16.635        0.011      333.024        2.069      871.477
01/21/2022  20:35:00       64.752      115.677       -9.314       35.380       32.080       20.009     1251.763     1029.099      400.340        1.017        0.134      132.567       18.565        0.020      332.973        1.984      871.469
01/21/2022  20:36:00       73.275       91.130       -8.211       31.924       34.813       21.660     1019.171     1211.961      469.140        0.822        0.135      116.936       17.778        0.023      332.892        1.850      871.460
01/21/2022  20:37:00       72.168       97.858      -12.694       33.009       36.499       24.035     1089.610     1332.148      577.700        0.897        0.150      121.591       22.675        0.035      332.932        1.919      871.463
01/21/2022  20:38:00       66.507      125.924       -9.747       27.480       29.265       19.857      755.164      856.441      394.317        1.119        0.100      142.408       14.823        0.011      333.041        2.097      871.462
01/21/2022  20:39:00       67.971      126.653      -14.073       33.711       29.420       19.104     1136.432      865.565      364.948        1.161        0.118      143.740       13.981        0.009      332.959        1.961      871.486
01/21/2022  20:40:00       85.342       85.822      -19.171       29.065       30.019       19.776      844.798      901.156      391.087        0.858        0.107      121.032       13.079        0.012      332.796        1.692      871.510
01/21/2022  20:41:00       75.941       74.595      -16.744       32.667       40.894       24.423     1067.165     1672.290      596.476        0.747        0.167      106.449       23.802        0.050      332.708        1.547      871.528
01/21/2022  20:42:00       75.473       98.118      -13.465       36.252       37.031       19.665     1314.232     1371.288      386.725        0.929        0.154      123.787       18.783        0.023      332.758        1.629      871.544
01/21/2022  20:43:00       27.856       98.397       -3.134       30.188       38.920       26.296      911.290     1514.759      691.489        0.679        0.156      102.263       22.472        0.048      332.841        1.768      871.530
01/21/2022  20:44:00       33.388      142.485       -6.193       17.250       22.070       18.374      297.578      487.090      337.621        1.129        0.056      146.344       13.866        0.009      333.006        2.040      871.504
01/21/2022  20:45:00       53.923      128.221       -9.723       29.964       30.774       22.410      897.843      947.036      502.216        1.089        0.117      139.099       15.396        0.012      332.915        1.888      871.498
01/21/2022  20:46:00       32.325       96.035       -2.494       30.095       35.354       22.127      905.706     1249.883      489.600        0.646        0.132      101.329       20.466        0.041      332.835        1.756      871.489
01/21/2022  20:47:00       48.903       96.190       -5.671       29.686       25.167       25.072      881.239      633.382      628.597        0.691        0.107      107.907       17.875        0.027      332.804        1.705      871.483
01/21/2022  20:48:00       42.380       67.013       -7.688       24.306       26.379       15.515      590.804      695.837      240.727        0.394        0.076       79.289       14.601        0.034      332.802        1.703      871.483
01/21/2022  20:49:00       42.353       54.006      -13.916       16.059       17.062       12.792      257.880      291.105      163.641        0.281        0.036       68.633        6.520        0.009      332.816        1.726      871.492
01/21/2022  20:50:00       27.700       18.532       -5.515       11.722       12.781        9.117      137.414      163.344       83.126        0.076        0.019       33.328        7.381        0.049      332.707        1.545      871.502
01/21/2022  20:51:00       49.791       27.854       -9.459       16.223       12.638        9.809      263.173      159.721       96.222        0.193        0.026       57.052        5.137        0.008      332.706        1.543      871.515
01/21/2022  20:52:00       23.932       21.983       -2.163       15.817       15.367       15.975      250.176      236.139      255.195        0.090        0.037       32.496        9.205        0.080      332.694        1.523      871.535
01/21/2022  20:53:00       17.079       22.836       -7.553       13.413       17.747       11.423      179.914      314.952      130.476        0.075        0.031       28.516        9.306        0.106      332.712        1.553      871.561
01/21/2022  20:54:00       44.666       67.607      -11.535       22.337       16.683       12.625      498.941      278.315      159.385        0.382        0.047       81.029       11.277        0.019      332.823        1.738      871.579
01/21/2022  20:55:00       47.741       61.240       -9.976       16.554       11.239       12.339      274.039      126.324      152.255        0.334        0.028       77.651        8.191        0.011      332.937        1.926      871.601
01/21/2022  20:56:00       51.841       72.276       -4.701       20.863       16.303       12.680      435.284      265.776      160.780        0.440        0.043       88.945       13.500        0.023      332.900        1.865      871.624
01/21/2022  20:57:00       63.633       68.079      -12.573       19.650       23.795       14.174      386.112      566.224      200.904        0.500        0.058       93.187       12.262        0.017      332.867        1.811      871.650
01/21/2022  20:58:00       35.177       32.382       -6.659       21.879       22.466       12.923      478.712      504.715      167.014        0.174        0.058       47.812        3.844        0.006      332.809        1.716      871.670
01/21/2022  20:59:00       40.445       45.320       -6.165       19.610       26.164       14.918      384.561      684.551      222.558        0.251        0.065       60.743        9.935        0.027      332.728        1.580      871.688
01/21/2022  21:00:00       33.528       39.354       -7.552       15.973       19.291       12.816      255.151      372.124      164.238        0.176        0.040       51.700        9.805        0.036      332.684        1.508      871.668
01/21/2022  21:01:00       56.238       53.222       -6.087       20.868       15.566       16.718      435.458      242.302      279.507        0.349        0.048       77.429       10.821        0.020      332.720        1.567      871.673
01/21/2022  21:02:00       67.225       49.232      -11.188       18.915       19.834       14.778      357.781      393.395      218.402        0.402        0.048       83.325       12.515        0.023      332.776        1.660      871.698
01/21/2022  21:03:00       44.094       27.547       -9.432       10.353       12.377        6.840      107.180      153.182       46.789        0.155        0.015       51.991        3.327        0.004      332.715        1.558      871.722
01/21/2022  21:04:00       67.984       37.763       -4.265       18.488       12.653       10.854      341.795      160.088      117.804        0.334        0.031       77.768        8.147        0.011      332.881        1.832      871.734
01/21/2022  21:05:00       75.896       23.092       -2.450       38.082       19.783       18.881     1450.227      391.362      356.474        0.425        0.110       79.331       19.413        0.060      332.849        1.780      871.732
01/21/2022  21:06:00       39.513        4.743       -1.225       36.563       14.430       16.699     1336.834      208.221      278.856        0.170        0.091       39.796       11.595        0.085      332.786        1.674      871.729
01/21/2022  21:07:00       42.379       -0.736       -5.503       38.057       19.278       11.500     1448.311      371.650      132.245        0.189        0.098       42.386        3.804        0.008      332.706        1.543      871.708
01/21/2022  21:08:00       86.954       14.157       -1.216       27.312       15.686       13.617      745.928      246.052      185.411        0.447        0.059       88.099       10.677        0.015      332.778        1.664      871.690
01/21/2022  21:09:00       61.906       -3.248        1.746       32.437       19.906       17.806     1052.178      396.252      317.062        0.281        0.088       61.991       15.380        0.062      332.703        1.539      871.699
01/21/2022  21:10:00       84.248        8.191       -1.492       34.226       20.250       13.521     1171.391      410.052      182.804        0.447        0.088       84.645       10.923        0.017      332.711        1.551      871.725
01/21/2022  21:11:00       79.210      -14.072       -3.691       34.493       29.460       20.308     1189.742      867.894      412.406        0.448        0.124       80.450       12.741        0.025      332.642        1.437      871.743
01/21/2022  21:12:00       71.775      -22.597      -10.315       24.659       24.282       20.726      608.049      589.627      429.583        0.370        0.081       75.248       16.634        0.049      332.604        1.375      871.761
01/21/2022  21:13:00       58.112      -30.700      -17.394       40.679       47.352       24.375     1654.779     2242.177      594.142        0.456        0.225       65.723       24.821        0.143      332.714        1.557      871.774
01/21/2022  21:14:00       71.842      -28.475      -28.388       36.475       50.039       28.125     1330.427     2503.854      791.018        0.570        0.231       77.279       20.432        0.070      332.795        1.690      871.770
01/21/2022  21:15:00       47.629      -11.006      -16.389       48.706       33.035       36.092     2372.241     1091.313     1302.632        0.371        0.238       48.884       30.561        0.391      332.725        1.575      871.763
01/21/2022  21:16:00       62.143        3.952       -6.219       49.886       37.426       31.243     2488.623     1400.679      976.145        0.439        0.243       62.268       26.245        0.178      332.607        1.381      871.763
01/21/2022  21:17:00       94.810       -8.920       -0.044       37.412       26.919       27.528     1399.620      724.612      757.807        0.597        0.144       95.229       24.425        0.066      332.386        1.014      871.754
01/21/2022  21:18:00      139.087        5.376       -8.412       51.025       32.922       24.130     2603.500     1083.876      582.262        1.186        0.213      139.191       26.998        0.038      332.364        0.978      871.748
01/21/2022  21:19:00      148.721       12.388       -4.093       48.845       34.406       27.989     2385.826     1183.775      783.406        1.332        0.218      149.236       28.473        0.036      332.310        0.888      871.752
01/21/2022  21:20:00      135.673        5.043       -6.117       58.774       37.876       29.160     3454.334     1434.565      850.302        1.210        0.287      135.767       29.074        0.046      332.492        1.191      871.748
01/21/2022  21:21:00      138.937       -1.031      -11.405       42.159       28.306       26.060     1777.362      801.207      679.113        1.135        0.163      138.940       25.368        0.033      332.389        1.020      871.765
01/21/2022  21:22:00      135.798       -0.464       -8.598       46.593       24.618       21.642     2170.904      606.031      468.385        1.088        0.162      135.799       21.403        0.025      332.449        1.118      871.768
01/21/2022  21:23:00      152.340       29.610       -7.421       15.116       15.792       11.030      228.492      249.378      121.667        1.237        0.030      155.191        7.519        0.002      332.498        1.198      871.765
01/21/2022  21:24:00      157.923       18.774       -3.458       46.606       29.176       23.540     2172.138      851.242      554.151        1.444        0.179      159.035       25.025        0.025      332.565        1.310      871.751
01/21/2022  21:25:00      118.702       19.682      -16.086       36.318       31.872       19.506     1318.990     1015.793      380.472        0.873        0.136      120.323        8.096        0.005      332.581        1.337      871.745
01/21/2022  21:26:00       94.527       32.817      -21.063       44.671       36.448       22.617     1995.476     1328.443      511.547        0.715        0.192      100.062        9.689        0.009      332.572        1.324      871.759
01/21/2022  21:27:00       88.859       15.527      -23.358       46.623       53.680       25.771     2173.744     2881.509      664.150        0.720        0.286       90.205       23.968        0.071      332.554        1.292      871.777
01/21/2022  21:28:00      110.084       12.621      -10.540       25.857       17.156       19.702      668.575      294.342      388.180        0.687        0.068      110.805       17.524        0.025      332.475        1.161      871.798
01/21/2022  21:29:00      114.310        6.026      -18.446       36.382       31.856       14.544     1323.642     1014.815      211.520        0.800        0.127      114.469       10.413        0.008      332.662        1.471      871.817
01/21/2022  21:30:00      126.216       10.433      -17.307       17.158       14.852       13.818      294.413      220.569      190.933        0.852        0.035      126.646        6.999        0.003      332.545        1.277      871.844
01/21/2022  21:31:00       63.484        8.811      -19.901       50.882       33.861       25.064     2588.959     1146.555      628.182        0.443        0.218       64.093       15.440        0.058      332.541        1.270      871.868
01/21/2022  21:32:00        2.382        6.737      -36.442       48.967       33.746       20.675     2397.794     1138.782      427.458        0.267        0.198        7.146       23.182       10.525      332.656        1.460      871.891
01/21/2022  21:33:00       23.905      -54.373      -13.917       49.306       47.221       35.034     2431.124     2229.820     1227.396        0.480        0.294       59.395       28.560        0.231      332.925        1.907      871.901
01/21/2022  21:34:00       75.058      -67.349      -16.753       38.857       55.213       32.916     1509.870     3048.479     1083.457        0.804        0.282      100.845       20.801        0.043      333.067        2.141      871.922
01/21/2022  21:35:00       21.186      -27.153      -10.072       34.021       47.577       40.452     1157.404     2263.562     1636.368        0.317        0.253       34.440       30.512        0.785      332.961        1.966      871.944
01/21/2022  21:36:00       19.070      -20.176      -12.717       30.714       48.329       30.730      943.322     2335.644      944.314        0.258        0.211       27.762       19.201        0.478      332.782        1.670      871.944
01/21/2022  21:37:00       26.036      -13.535       -7.817       33.411       43.595       28.590     1116.313     1900.544      817.377        0.238        0.192       29.344       19.308        0.433      332.942        1.935      871.945
01/21/2022  21:38:00       32.214        5.332       -4.994       36.790       51.035       31.629     1353.471     2604.553     1000.406        0.302        0.248       32.652       14.801        0.205      332.736        1.593      871.946
01/21/2022  21:39:00       90.919      -40.597      -27.550       36.491       42.997       33.788     1331.579     1848.727     1141.627        0.750        0.216       99.571       22.085        0.049      332.822        1.735      871.938
01/21/2022  21:40:00       70.687      -48.026      -33.452       32.128       44.426       29.135     1032.184     1973.648      848.835        0.614        0.193       85.459       22.564        0.070      332.868        1.812      871.921
01/21/2022  21:41:00       67.466      -37.523      -34.832       36.853       42.118       24.479     1358.156     1773.912      599.233        0.545        0.187       77.198       14.320        0.034      332.872        1.818      871.908
01/21/2022  21:42:00       65.986     -104.191      -25.938       21.324       36.534       19.221      454.704     1334.747      369.444        0.902        0.108      123.329       11.884        0.009      332.792        1.685      871.898
01/21/2022  21:43:00       53.588      -76.068      -23.964       24.535       42.624       17.645      601.972     1816.809      311.330        0.598        0.137       93.048        9.144        0.010      332.713        1.554      871.893
01/21/2022  21:44:00       41.683      -15.092      -20.233       31.541       29.417       20.922      994.832      865.367      437.711        0.234        0.115       44.331       16.486        0.138      332.701        1.536      871.889
01/21/2022  21:45:00       56.969       -9.677      -23.220       33.867       42.117       22.933     1146.957     1773.821      525.922        0.366        0.172       57.786       14.211        0.060      332.692        1.521      871.879
01/21/2022  21:46:00       21.272      -17.907       -8.107       29.291       38.206       25.394      857.977     1459.735      644.849        0.190        0.148       27.806       19.843        0.509      332.736        1.593      871.878
01/21/2022  21:47:00       30.344      -20.003       -1.842       46.603       34.710       30.749     2171.820     1204.815      945.474        0.282        0.216       36.344       26.113        0.516      332.718        1.563      871.890
01/21/2022  21:48:00       26.160       -2.283       -0.141       28.087       36.642       29.726      788.885     1342.661      883.620        0.185        0.151       26.259       22.827        0.756      332.603        1.373      871.900
01/21/2022  21:49:00       78.408       -4.343       -6.066       45.677       31.403       26.454     2086.416      986.148      699.794        0.499        0.189       78.529       19.108        0.059      332.552        1.290      871.898
01/21/2022  21:50:00       58.673      -12.292      -10.388       27.989       22.150       24.214      783.383      490.639      586.326        0.278        0.093       59.947       19.236        0.103      332.485        1.178      871.902
01/21/2022  21:51:00       30.074       -3.194      -16.815       40.628       37.692       27.933     1650.659     1420.670      780.242        0.252        0.193       30.243       24.772        0.671      332.621        1.404      871.914
01/21/2022  21:52:00       51.552       12.461      -22.299       32.344       40.618       22.084     1046.106     1649.817      487.704        0.325        0.159       53.037       16.214        0.093      332.587        1.347      871.937
01/21/2022  21:53:00       55.638      -10.862       -7.921       23.021       28.062       16.712      529.946      787.456      279.297        0.244        0.080       56.688        9.827        0.030      332.412        1.058      871.952
01/21/2022  21:54:00       64.515        1.716       -4.480       35.065       20.022       17.456     1229.551      400.896      304.714        0.306        0.097       64.537       15.110        0.055      332.387        1.015      871.979
01/21/2022  21:55:00       77.785       16.945       -1.016       27.886       25.235       16.277      777.629      636.825      264.947        0.401        0.084       79.609       13.720        0.030      332.292        0.860      872.008
01/21/2022  21:56:00       94.279       27.972       -2.595       30.578       29.176       20.133      935.032      851.263      405.352        0.593        0.110       98.341       14.752        0.023      332.261        0.808      872.024
01/21/2022  21:57:00      107.491       46.083       -5.711       18.823       16.930       13.191      354.287      286.630      174.000        0.726        0.041      116.953        8.046        0.005      332.222        0.745      872.024
01/21/2022  21:58:00      124.721       46.349      -12.610       20.858       27.325       12.084      435.036      746.645      146.012        0.959        0.066      133.055        6.353        0.002      332.274        0.831      872.032
01/21/2022  21:59:00      125.682       53.759      -13.307       20.021       25.229       11.644      400.825      636.514      135.579        1.002        0.059      136.696        5.284        0.001      332.230        0.758      872.039
01/21/2022  22:00:00      110.068       57.134       -9.758       25.565       23.619       13.889      653.582      557.848      192.914        0.844        0.070      124.013       12.838        0.011      332.274        0.828      872.043
01/21/2022  22:01:00      101.829       38.135      -15.144       30.383       20.080       18.518      923.121      403.201      342.930        0.686        0.083      108.736       14.268        0.017      332.247        0.784      872.044
01/21/2022  22:02:00      101.682       26.360      -14.200       16.535       16.108       12.869      273.410      259.469      165.617        0.597        0.035      105.044        7.855        0.006      332.245        0.780      872.055
01/21/2022  22:03:00      121.547       47.994      -16.214       19.833       21.066       14.661      393.361      443.772      214.943        0.920        0.053      130.679        6.785        0.003      332.296        0.866      872.059
01/21/2022  22:04:00      104.728       49.542      -18.615       20.864       20.868       18.264      435.301      435.454      333.563        0.749        0.060      115.854       10.170        0.008      332.272        0.825      872.059
01/21/2022  22:05:00      120.954       15.744      -10.194       20.762       20.851       16.432      431.078      434.757      270.011        0.806        0.057      121.975       11.329        0.009      332.336        0.932      872.061
01/21/2022  22:06:00      115.043       25.946      -11.530       17.236       16.239       14.071      297.070      263.721      198.005        0.740        0.038      117.932       10.512        0.008      332.348        0.953      872.070
01/21/2022  22:07:00      105.086       30.475      -10.050       21.751       19.359       13.628      473.103      374.754      185.732        0.655        0.052      109.416       11.352        0.011      332.317        0.900      872.071
01/21/2022  22:08:00      102.811       48.471       -8.914       24.049       13.542       12.722      578.335      183.379      161.850        0.696        0.046      113.665        9.232        0.007      332.325        0.914      872.054
01/21/2022  22:09:00       79.642       16.609       -7.322       35.266       29.385       17.609     1243.701      863.459      310.069        0.454        0.121       81.356        8.347        0.011      332.335        0.930      872.054
01/21/2022  22:10:00       76.264       25.879       -3.483       29.306       17.972       17.509      858.819      323.009      306.581        0.399        0.074       80.535        7.021        0.008      332.324        0.913      872.054
01/21/2022  22:11:00       20.722        1.116       -4.739       23.758       39.727       12.975      564.440     1578.229      168.347        0.138        0.116       20.752       18.150        0.765      332.302        0.876      872.040
01/21/2022  22:12:00      -24.834       -4.164      -15.883       15.447       19.649       14.545      238.609      386.095      211.544        0.086        0.042       25.181        8.591        0.116      332.291        0.857      872.012
01/21/2022  22:13:00       -5.583      -17.359      -12.036       24.414       15.174       11.613      596.028      230.259      134.854        0.072        0.048       18.235        9.233        0.256      332.394        1.027      872.001
01/21/2022  22:14:00       30.303        6.749      -10.529       22.404       12.948        9.930      501.947      167.656       98.598        0.092        0.038       31.045        8.662        0.078      332.424        1.079      871.988
01/21/2022  22:15:00       70.103       21.615       -9.528       14.088       21.195        9.359      198.459      449.210       87.590        0.310        0.037       73.360        8.481        0.013      332.437        1.099      871.985
01/21/2022  22:16:00       65.793       32.465       -7.341       15.582       25.101        7.189      242.795      630.076       51.687        0.318        0.046       73.367        5.351        0.005      332.411        1.057      871.976
01/21/2022  22:17:00       64.793       32.502       -7.959       15.040       15.775       12.823      226.206      248.843      164.422        0.298        0.032       72.488        9.199        0.016      332.397        1.032      871.964
01/21/2022  22:18:00       42.780       19.705       -2.805       17.123       12.915       11.937      293.200      166.809      142.494        0.141        0.030       47.100        8.986        0.036      332.310        0.889      871.936
01/21/2022  22:19:00       28.765       38.535       -2.926       21.669       21.806       15.647      469.563      475.491      244.822        0.176        0.059       48.087       15.061        0.098      332.368        0.983      871.923
01/21/2022  22:20:00       31.424       37.706       -2.669       17.212       22.248       14.173      296.267      494.956      200.872        0.170        0.050       49.084       10.449        0.045      332.393        1.026      871.947
01/21/2022  22:21:00       35.167       39.149       -5.117       14.389       15.489        8.640      207.056      239.894       74.651        0.166        0.026       52.625        6.899        0.017      332.388        1.018      871.970
01/21/2022  22:22:00       -3.470       18.979       -8.605       22.333       18.090        9.798      498.758      327.247       96.008        0.068        0.046       19.294        8.334        0.187      332.363        0.977      871.985
01/21/2022  22:23:00      -67.743       18.718      -13.340       12.568       10.760       10.788      157.960      115.778      116.375        0.275        0.020       70.281        3.445        0.002      331.819        0.081      871.992
01/21/2022  22:24:00      -61.273       27.559      -11.121       10.931        8.408        9.464      119.482       70.701       89.568        0.246        0.014       67.185        4.024        0.004      331.794        0.040      872.005
01/21/2022  22:25:00      -53.971       38.642      -12.665       23.210       13.190       12.579      538.721      173.987      158.237        0.272        0.044       66.378       13.168        0.039      331.828        0.093      872.013
01/21/2022  22:26:00      -46.563       25.746      -19.435       17.597       20.149        8.274      309.660      405.987       68.465        0.200        0.039       53.207        6.726        0.016      331.861        0.150      872.008
01/21/2022  22:27:00     -104.925       35.931      -15.289       17.868       11.876       14.066      319.266      141.032      197.843        0.660        0.033      110.906        8.021        0.005      331.657       -0.187      871.994
01/21/2022  22:28:00      -61.531       14.509      -16.531       39.063       22.747       17.185     1525.939      517.405      295.333        0.330        0.117       63.218       19.692        0.097      331.622       -0.243      871.990
01/21/2022  22:29:00      -81.528       20.482      -19.408       33.277       21.746       15.361     1107.354      472.876      235.973        0.463        0.091       84.062       10.375        0.015      331.618       -0.250      872.013
01/21/2022  22:30:00      -23.397        3.697      -19.997       23.049       18.677       19.759      531.251      348.828      390.400        0.112        0.064       23.687       11.949        0.254      331.567       -0.334      872.052
01/21/2022  22:31:00      -26.156        5.610      -15.895       32.681       24.479       23.316     1068.061      599.240      543.624        0.159        0.111       26.751       21.329        0.636      331.637       -0.221      872.083
01/21/2022  22:32:00       -0.845        0.985       -9.368       18.962       11.568       11.575      359.542      133.810      133.992        0.036        0.031        1.298        4.960       14.603      331.659       -0.182      872.079
01/21/2022  22:33:00      -14.768        9.262       -8.351       26.392       14.907        9.619      696.515      222.225       92.522        0.069        0.051       17.432        6.839        0.154      331.624       -0.240      872.063
01/21/2022  22:34:00      -19.590        8.408      -13.660       20.496       14.445       14.591      420.096      208.662      212.888        0.074        0.042       21.318        7.213        0.114      331.804        0.056      872.065
01/21/2022  22:35:00        9.751       26.301       -0.283       28.935       11.290       12.568      837.241      127.457      157.963        0.095        0.056       28.050        4.664        0.028      331.992        0.366      872.082
01/21/2022  22:36:00       35.243       44.714        4.483       20.254       20.285       10.674      410.215      411.468      113.930        0.210        0.047       56.933       10.592        0.035      332.204        0.713      872.090
01/21/2022  22:37:00       46.289       40.875        4.360       26.260       12.708        9.811      689.564      161.483       96.251        0.239        0.047       61.753        3.685        0.004      332.440        1.104      872.073
01/21/2022  22:38:00       12.847       40.404        3.822       16.619       17.527       13.923      276.182      307.180      193.852        0.129        0.039       42.397        8.897        0.044      332.412        1.058      872.057
01/21/2022  22:39:00       33.579       27.760        0.247       17.308       12.372       12.366      299.584      153.060      152.928        0.125        0.030       43.568        9.931        0.052      332.378        1.002      872.060
01/21/2022  22:40:00       47.657       28.023       -2.630       15.766       18.811        7.612      248.573      353.839       57.943        0.186        0.033       55.285        1.990        0.001      332.316        0.899      872.084
01/21/2022  22:41:00       18.095       14.054       -0.373       20.583       17.290       10.150      423.674      298.937      103.032        0.068        0.041       22.911        7.031        0.094      332.221        0.741      872.104
01/21/2022  22:42:00       60.484       21.655       -8.195       41.812       20.966       13.434     1748.250      439.554      180.460        0.328        0.118       64.244       13.584        0.045      332.345        0.948      872.116
01/21/2022  22:43:00       57.772       28.444       -3.197       23.024       20.121       11.304      530.084      404.837      127.788        0.261        0.053       64.394       10.456        0.026      332.326        0.914      872.138
01/21/2022  22:44:00       77.586       34.435       -5.960       16.360       17.792       12.797      267.634      316.564      163.775        0.399        0.037       84.885        7.646        0.008      332.377        0.998      872.153
01/21/2022  22:45:00       81.974       33.521       -5.972       27.133       24.124       16.485      736.195      581.977      271.760        0.473        0.079       88.563       10.344        0.014      332.310        0.889      872.154
01/21/2022  22:46:00       63.346       10.368       -5.818       46.861       28.644       18.150     2195.938      820.459      329.409        0.375        0.167       64.189       20.338        0.100      332.330        0.922      872.137
01/21/2022  22:47:00       79.817       11.199      -13.928       24.702       22.050       14.062      610.208      486.217      197.729        0.399        0.065       80.599        6.292        0.006      332.374        0.996      872.120
01/21/2022  22:48:00       41.483       20.729       -4.940       25.719       18.025       14.982      661.457      324.918      224.447        0.169        0.061       46.374        9.911        0.046      332.242        0.776      872.115
01/21/2022  22:49:00       62.796       37.822       -7.973       21.572       21.297       10.070      465.344      453.565      101.397        0.323        0.051       73.306        6.268        0.007      332.354        0.961      872.102
01/21/2022  22:50:00       63.727       63.058      -11.587       27.924       25.513       18.980      779.746      650.904      360.257        0.498        0.090       89.652       16.347        0.033      332.371        0.990      872.081
01/21/2022  22:51:00      100.274       70.015      -14.529       21.933       16.219       13.674      481.060      263.072      186.970        0.805        0.047      122.298        7.997        0.004      332.429        1.084      872.065
01/21/2022  22:52:00       94.401       72.519      -11.162       26.249       15.638       16.126      688.996      244.544      260.038        0.774        0.060      119.040        6.758        0.003      332.412        1.057      872.045
01/21/2022  22:53:00       99.291       63.604       -4.219       16.337       15.956       10.857      266.894      254.602      117.864        0.728        0.032      117.916        8.207        0.005      332.415        1.062      872.022
01/21/2022  22:54:00       93.017       62.311       -5.403       30.641       15.418       17.610      938.874      237.705      310.128        0.703        0.074      111.959       17.761        0.025      332.384        1.011      871.997
01/21/2022  22:55:00      102.976       65.476       -8.659       26.580       23.526       16.942      706.519      553.461      287.036        0.826        0.077      122.029       11.692        0.009      332.414        1.061      871.991
01/21/2022  22:56:00       75.213       60.801       -6.647       27.403       17.644       17.472      750.898      311.327      305.271        0.538        0.068       96.715       14.077        0.021      332.277        0.835      872.001
01/21/2022  22:57:00       61.482       60.092       -6.176       29.841       23.764       13.158      890.512      564.705      173.136        0.453        0.081       85.971        9.071        0.011      332.246        0.783      872.024
01/21/2022  22:58:00       60.783       56.335      -13.097       23.968       18.441       17.078      574.478      340.053      291.659        0.412        0.060       82.874       11.842        0.020      332.261        0.807      872.028
01/21/2022  22:59:00       61.624       60.091       -7.677       21.601       16.440       16.483      466.589      270.278      271.676        0.424        0.050       86.072       11.734        0.019      332.229        0.755      872.021
01/21/2022  23:00:00       66.927       61.231      -11.040       20.386       16.385       10.511      415.591      268.464      110.478        0.457        0.040       90.711        2.871        0.001      332.307        0.885      872.015
01/21/2022  23:01:00       64.016       58.135      -11.570       24.136       19.328       16.279      582.565      373.590      265.002        0.442        0.061       86.474       12.976        0.023      332.304        0.878      872.022
01/21/2022  23:02:00       51.195       60.181       -6.198       18.525       25.245       15.790      343.161      637.326      249.339        0.376        0.061       79.011       12.961        0.027      332.270        0.822      872.027
01/21/2022  23:03:00       58.750       64.057       -7.501       19.632       23.114       13.545      385.423      534.257      183.455        0.436        0.055       86.919        6.815        0.006      332.211        0.725      872.021
01/21/2022  23:04:00       65.118       41.105       -4.644       19.876       11.529        9.888      395.058      132.913       97.769        0.329        0.031       77.006        7.628        0.010      332.174        0.663      871.991
01/21/2022  23:05:00       51.916       49.001       -6.232       18.710       13.379       12.185      350.080      178.989      148.475        0.291        0.034       71.389        8.400        0.014      332.216        0.734      871.981
01/21/2022  23:06:00       52.083       59.339       -6.571        8.845       12.048        7.230       78.242      145.146       52.271        0.328        0.014       78.954        6.529        0.007      332.215        0.732      871.997
01/21/2022  23:07:00       64.362       59.555       -4.336       14.596        9.714        8.439      213.057       94.368       71.211        0.404        0.019       87.688        6.476        0.005      332.313        0.894      872.009
01/21/2022  23:08:00       46.562       59.731       -8.725       13.074       10.721        6.519      170.918      114.930       42.492        0.307        0.016       75.735        4.558        0.004      332.322        0.909      872.016
01/21/2022  23:09:00       53.388       52.700       -9.059       15.013        9.828        8.737      225.386       96.598       76.330        0.305        0.020       75.017        4.086        0.003      332.335        0.931      872.005
01/21/2022  23:10:00       70.004       38.246      -11.629       23.664       26.508       13.819      560.007      702.661      190.971        0.398        0.073       79.771       13.246        0.028      332.349        0.953      871.975
01/21/2022  23:11:00       47.024       54.298       -7.332       10.991       11.648        9.327      120.797      135.670       87.001        0.278        0.017       71.830        3.608        0.003      332.315        0.896      871.945
01/21/2022  23:12:00       44.828       52.078       -4.158       18.592       13.776       10.443      345.644      189.772      109.051        0.269        0.032       68.715       10.679        0.024      332.221        0.742      871.931
01/21/2022  23:13:00       40.359       66.939       -7.150       16.393       22.367       12.065      268.746      500.285      145.557        0.354        0.046       78.165        7.686        0.010      332.358        0.968      871.922
01/21/2022  23:14:00       39.426       62.243       -5.070       21.250       28.461       16.091      451.558      810.048      258.905        0.349        0.076       73.679       14.990        0.041      332.347        0.950      871.920
01/21/2022  23:15:00       47.527       64.476       -5.423       19.036       17.433       12.897      362.358      303.897      166.328        0.364        0.042       80.099        9.514        0.014      332.321        0.907      871.923
01/21/2022  23:16:00       56.144       69.618      -10.676       12.182       11.901        8.558      148.393      141.627       73.232        0.424        0.018       89.436        4.291        0.002      332.355        0.962      871.926
01/21/2022  23:17:00       46.996       65.626       -5.995       16.061       21.963       11.753      257.940      482.366      138.139        0.371        0.044       80.718        9.734        0.015      332.288        0.853      871.932
01/21/2022  23:18:00       83.520       64.503       -4.501       27.949       13.312       13.646      781.159      177.217      186.214        0.615        0.057      105.529        7.489        0.005      332.275        0.831      871.945
01/21/2022  23:19:00       58.973       57.639       -8.738       23.485       15.532       17.462      551.561      241.235      304.939        0.399        0.055       82.463       13.194        0.026      332.236        0.767      871.969
01/21/2022  23:20:00       45.781       64.001       -4.177       25.055       22.547       13.774      627.778      508.384      189.714        0.377        0.066       78.689       11.260        0.020      332.256        0.799      871.986
01/21/2022  23:21:00       81.885       71.215      -15.745       19.689       15.383       14.385      387.664      236.634      206.938        0.643        0.042      108.520        9.626        0.008      332.254        0.797      872.003
01/21/2022  23:22:00       48.826       73.865      -11.108       13.318       12.479       11.242      177.375      155.732      126.378        0.421        0.023       88.544        5.583        0.004      332.278        0.835      872.011
01/21/2022  23:23:00       47.518       65.054       -0.724       23.619       21.842       16.278      557.849      477.083      264.972        0.389        0.065       80.560       15.369        0.036      332.381        1.007      872.013
01/21/2022  23:24:00       -0.962       21.388        1.345       26.183       40.081       15.830      685.535     1606.484      250.578        0.150        0.127       21.410       11.560        0.292      332.104        0.549      872.023
01/21/2022  23:25:00      -28.953        4.732      -16.679       17.530       18.414       13.505      307.303      339.070      182.394        0.098        0.041       29.337       10.326        0.124      331.656       -0.188      872.018
01/21/2022  23:26:00       10.245       35.603        0.412       27.402       17.048       13.882      750.886      290.640      192.719        0.130        0.062       37.047        8.214        0.049      331.995        0.370      872.006
01/21/2022  23:27:00       27.593       43.409        3.399       21.219       27.396       19.963      450.261      750.559      398.504        0.213        0.080       51.436       15.639        0.092      332.181        0.677      871.988
01/21/2022  23:28:00       32.920       41.441        4.816       22.867       21.803       13.385      522.899      475.392      179.146        0.200        0.059       52.925        8.488        0.026      332.201        0.710      871.968
01/21/2022  23:29:00       46.540       53.238        2.800       36.725       19.362       14.729     1348.712      374.902      216.951        0.347        0.097       70.713        8.852        0.016      332.268        0.818      871.958
01/21/2022  23:30:00       16.562       17.792      -10.751       20.580       23.574       10.755      423.516      555.736      115.668        0.090        0.055       24.307        5.338        0.048      332.079        0.508      871.954
01/21/2022  23:31:00       -2.823        6.282       -1.172       19.580       21.619       13.450      383.376      467.398      180.902        0.054        0.052        6.888        6.529        0.898      332.019        0.409      871.958
01/21/2022  23:32:00       18.749       16.229       -1.488       19.052       20.574       12.709      362.996      423.270      161.524        0.078        0.047       24.797        7.598        0.094      332.059        0.475      871.955
01/21/2022  23:33:00       41.617       35.743        4.729       37.798       24.085       19.277     1428.656      580.094      371.603        0.271        0.119       54.860       17.030        0.096      332.203        0.710      871.946
01/21/2022  23:34:00       37.984       36.065        3.958       25.546       21.543       16.073      652.579      464.119      258.346        0.207        0.069       52.378       11.648        0.049      332.167        0.653      871.933
01/21/2022  23:35:00       40.458       41.116        5.558       27.876       21.992       12.520      777.087      483.659      156.747        0.239        0.071       57.683        9.243        0.026      332.182        0.678      871.936
01/21/2022  23:36:00       49.941       50.607        0.259       26.253       21.482       13.011      689.211      461.457      169.275        0.319        0.066       71.100        6.276        0.008      332.267        0.818      871.945
01/21/2022  23:37:00       46.378       37.264        3.494       28.532       32.098       15.458      814.082     1030.251      238.937        0.282        0.104       59.494       12.903        0.047      332.263        0.811      871.954
01/21/2022  23:38:00       55.613       22.989       -5.592       18.037       18.304       11.000      325.332      335.052      121.007        0.222        0.039       60.178        8.397        0.019      332.186        0.685      871.964
01/21/2022  23:39:00       47.849       23.465       -5.287       15.338       14.830       11.781      235.242      219.940      138.787        0.173        0.030       53.293        5.450        0.010      332.182        0.679      871.964
01/21/2022  23:40:00       38.373       -3.800       -7.312       17.746       13.336       10.744      314.912      177.855      115.429        0.107        0.030       38.561        9.719        0.064      332.039        0.443      871.946
01/21/2022  23:41:00       32.395       19.634       -5.730       18.702       18.456       10.684      349.760      340.618      114.140        0.114        0.040       37.880        3.144        0.007      331.980        0.344      871.919
01/21/2022  23:42:00       42.523       46.265       -5.919       13.573        9.093       10.774      184.216       82.678      116.084        0.218        0.019       62.838        8.852        0.020      332.032        0.431      871.907
01/21/2022  23:43:00       47.799       53.120       -6.920       13.335       14.164       10.422      177.822      200.618      108.618        0.282        0.024       71.460        8.000        0.013      332.034        0.435      871.900
01/21/2022  23:44:00       37.916       64.948       -5.840       20.071       18.090       14.053      402.848      327.246      197.473        0.331        0.046       75.205       10.765        0.020      332.058        0.473      871.890
01/21/2022  23:45:00       57.534       73.613       -8.621       18.148       25.857       14.446      329.350      668.582      208.675        0.500        0.060       93.430       10.843        0.013      332.027        0.421      871.875
01/21/2022  23:46:00       66.540       91.456      -13.600       21.927       19.835       13.872      480.775      393.412      192.436        0.702        0.053      113.101        8.610        0.006      332.155        0.634      871.856
01/21/2022  23:47:00       68.258       84.823      -12.355       20.388       19.773       15.017      415.660      390.954      225.506        0.652        0.052      108.877       11.621        0.011      332.172        0.662      871.828
01/21/2022  23:48:00       75.559      102.131      -16.821       22.067       22.397       13.953      486.963      501.640      194.694        0.880        0.059      127.043       11.820        0.009      332.129        0.589      871.800
01/21/2022  23:49:00       62.464       98.201       -5.765       25.407       27.499       13.757      645.515      756.198      189.242        0.758        0.080      116.384       13.421        0.013      332.135        0.600      871.787
01/21/2022  23:50:00       78.653      123.664      -11.209       26.106       24.617       18.814      681.513      606.011      353.949        1.162        0.082      146.558       15.297        0.011      332.242        0.777      871.768
01/21/2022  23:51:00       66.581       99.278       -6.523       41.341       37.244       22.829     1709.044     1387.146      521.185        0.897        0.181      119.537       20.224        0.029      332.317        0.901      871.751
01/21/2022  23:52:00       66.567       82.045      -14.198       37.061       38.189       21.325     1373.546     1458.390      454.743        0.732        0.164      105.653       18.463        0.031      332.190        0.691      871.734
01/21/2022  23:53:00       67.678       82.717      -18.828       25.845       25.799       18.523      667.979      665.607      343.088        0.673        0.084      106.876        8.553        0.006      332.024        0.418      871.718
01/21/2022  23:54:00       69.437       67.493      -16.187       20.256       19.262       13.933      410.304      371.040      194.139        0.531        0.049       96.834       11.407        0.014      331.927        0.258      871.702
01/21/2022  23:55:00       60.027       61.570      -11.262       30.708       23.352       20.698      942.967      545.316      428.408        0.472        0.096       85.989       18.932        0.048      331.903        0.219      871.690
01/21/2022  23:56:00       40.944       37.512       -0.435       26.222       18.401       13.172      687.602      338.584      173.504        0.214        0.060       55.530        9.940        0.032      331.894        0.203      871.677
01/21/2022  23:57:00       -2.514       34.698      -11.689       25.287       15.049       13.681      639.432      226.467      187.174        0.120        0.053       34.789       10.515        0.091      331.806        0.059      871.659
01/21/2022  23:58:00      -35.376      -17.926       -5.793       23.937       32.484       14.839      572.968     1055.221      220.209        0.173        0.092       39.658       11.966        0.091      331.408       -0.596      871.636
01/21/2022  23:59:00      -51.711      -39.703      -15.894       25.747       18.945       17.515      662.889      358.930      306.769        0.292        0.066       65.195        9.204        0.020      331.759       -0.018      871.626
01/22/2022  00:00:00      -14.631       -8.412      -11.497       12.476       21.553       11.380      155.653      464.529      129.504        0.058        0.037       16.877        9.359        0.308      331.843        0.119      871.620
01/22/2022  00:01:00        6.477       -3.944       -1.709       14.626       20.472       16.168      213.921      419.105      261.395        0.048        0.045        7.583        5.188        0.468      331.960        0.310      871.612
01/22/2022  00:02:00       -2.986      -29.562       -6.810       22.441       42.354       21.520      503.617     1793.889      463.117        0.184        0.138       29.713       15.508        0.272      332.231        0.759      871.598
01/22/2022  00:03:00       22.289        9.223      -10.967       30.663       20.948       18.242      940.228      438.818      332.779        0.121        0.086       24.122       11.665        0.234      332.086        0.520      871.582
01/22/2022  00:04:00      -46.125      -20.467        5.871       27.569       28.142       22.444      760.058      791.948      503.727        0.232        0.103       50.462       18.168        0.130      331.849        0.130      871.580
01/22/2022  00:05:00      -36.812       -6.600       -3.623       19.358       18.071       15.879      374.720      326.551      252.145        0.118        0.048       37.399       11.743        0.099      331.741       -0.048      871.590
01/22/2022  00:06:00      -36.604       -0.193       -6.639       30.061       17.608        9.050      903.647      310.041       81.894        0.134        0.065       36.605        5.933        0.026      331.580       -0.314      871.575
01/22/2022  00:07:00      -26.395       -1.720       -7.981       12.044       11.714       13.757      145.069      137.209      189.262        0.062        0.024       26.451        8.393        0.101      331.699       -0.116      871.554
01/22/2022  00:08:00       13.223      -42.182       -4.327       21.349       26.765       18.834      455.761      716.356      354.710        0.175        0.076       44.206       11.847        0.072      332.060        0.478      871.535
01/22/2022  00:09:00        3.061      -16.874        1.267       24.467       25.385       15.724      598.623      644.398      247.233        0.089        0.075       17.149        8.550        0.249      331.926        0.257      871.536
01/22/2022  00:10:00       11.144       -4.162      -17.801       15.458       21.008       14.277      238.960      441.318      203.837        0.067        0.044       11.896       13.981        1.381      331.702       -0.111      871.553
01/22/2022  00:11:00       54.078        6.157      -14.146       54.639       20.870       15.663     2985.457      435.574      245.316        0.341        0.183       54.427       14.001        0.066      331.884        0.187      871.561
01/22/2022  00:12:00       81.663        7.872      -13.429       33.739       28.798       18.440     1138.306      829.328      340.015        0.461        0.115       82.042       13.858        0.029      332.117        0.571      871.546
01/22/2022  00:13:00       81.994       -0.033      -10.545       32.978       18.478       16.600     1087.534      341.429      275.570        0.427        0.085       81.994       16.896        0.042      331.870        0.165      871.531
01/22/2022  00:14:00       99.266        7.464       -5.382       10.930       19.111        8.910      119.459      365.237       79.393        0.525        0.028       99.546        8.018        0.006      331.860        0.150      871.514
01/22/2022  00:15:00      103.146       13.360       -9.482       13.736       13.348        9.950      188.687      178.173       99.004        0.569        0.023      104.008        4.071        0.002      331.830        0.100      871.485
01/22/2022  00:16:00      117.911       17.490      -12.225       10.688       15.996        8.887      114.239      255.887       78.971        0.740        0.022      119.201        6.981        0.003      331.717       -0.088      871.462
01/22/2022  00:17:00      102.421       10.620      -11.219        9.574       12.487        8.147       91.660      155.933       66.379        0.552        0.016      102.970        4.815        0.002      331.674       -0.158      871.452
01/22/2022  00:18:00       94.566       33.741      -20.919       22.163       24.778       17.285      491.188      613.932      298.777        0.596        0.070      100.405       12.347        0.015      331.648       -0.199      871.467
01/22/2022  00:19:00      107.026       46.208      -19.542       17.638       22.357       11.510      311.106      499.853      132.484        0.746        0.047      116.575        4.272        0.001      331.621       -0.245      871.486
01/22/2022  00:20:00       99.116       39.981      -19.267       22.575       19.439       11.879      509.621      377.879      141.099        0.641        0.051      106.876        7.084        0.004      331.590       -0.298      871.487
01/22/2022  00:21:00       97.864       35.328      -10.942       10.161       10.871        6.288      103.252      118.187       39.536        0.560        0.013      104.045        3.378        0.001      331.564       -0.341      871.478
01/22/2022  00:22:00       93.174       30.347      -10.880        8.545       10.225        5.433       73.015      104.550       29.523        0.496        0.010       97.992        3.152        0.001      331.511       -0.427      871.467
01/22/2022  00:23:00       85.364       34.326      -12.255       18.038       16.476        9.714      325.385      271.474       94.363        0.465        0.035       92.007        7.306        0.006      331.473       -0.491      871.464
01/22/2022  00:24:00       66.374       44.028       -9.758       21.657       18.273       13.900      469.033      333.899      193.202        0.372        0.050       79.649       10.789        0.018      331.408       -0.595      871.468
01/22/2022  00:25:00       52.895       42.060       -8.770       23.260       18.959       13.094      541.031      359.430      171.447        0.286        0.054       67.579        9.848        0.021      331.424       -0.571      871.475
01/22/2022  00:26:00       56.233       36.048       -6.193       15.652       20.025       11.978      244.972      400.996      143.465        0.264        0.039       66.796       10.714        0.026      331.404       -0.604      871.473
01/22/2022  00:27:00       43.209       12.641       -3.914       19.545       18.847        9.628      381.999      355.199       92.690        0.144        0.041       45.020        8.268        0.034      331.369       -0.660      871.461
01/22/2022  00:28:00       20.731       15.274       -5.874       17.487       16.875        9.920      305.779      284.752       98.415        0.069        0.034       25.750        9.314        0.131      331.333       -0.722      871.446
01/22/2022  00:29:00       43.633       14.534       -9.666       25.497       18.066        9.998      650.097      326.367       99.965        0.164        0.054       45.990       11.863        0.067      331.445       -0.536      871.431
01/22/2022  00:30:00       58.558       14.670      -11.674       32.913       15.764        9.700     1083.275      248.500       94.092        0.260        0.071       60.367        8.073        0.018      331.511       -0.427      871.427
01/22/2022  00:31:00       88.738       42.825      -12.622       22.631       26.469       15.708      512.184      700.592      246.748        0.566        0.073       98.531       13.459        0.019      331.599       -0.281      871.415
01/22/2022  00:32:00       22.810        2.276       -2.781       39.737       34.415       25.690     1579.037     1184.362      659.989        0.198        0.171       22.924       13.209        0.332      331.591       -0.294      871.427
01/22/2022  00:33:00      101.618        6.351       -1.980       28.313       16.421       17.694      801.599      269.650      313.068        0.588        0.069      101.817       15.677        0.024      331.567       -0.335      871.445
01/22/2022  00:34:00      102.940        7.853       -8.357       26.007       21.380       15.150      676.380      457.084      229.536        0.605        0.068      103.239        8.800        0.007      331.557       -0.352      871.455
01/22/2022  00:35:00       55.565       -4.576       -0.808       39.937       21.430       23.089     1594.993      459.242      533.121        0.285        0.129       55.753       21.653        0.151      331.591       -0.294      871.452
01/22/2022  00:36:00       58.557        3.490      -17.755       29.969       29.552       19.376      898.129      873.325      375.426        0.295        0.107       58.661        7.824        0.018      331.530       -0.397      871.446
01/22/2022  00:37:00      112.689       33.240      -23.150       40.826       45.869       28.950     1666.782     2104.009      838.110        0.947        0.230      117.489       16.849        0.021      331.779        0.015      871.428
01/22/2022  00:38:00       46.250       -3.169      -17.160       36.057       35.628       23.889     1300.115     1269.353      570.691        0.279        0.157       46.359       17.511        0.143      331.596       -0.287      871.408
01/22/2022  00:39:00       50.802        1.062      -15.553       34.319       33.678       19.628     1177.773     1134.241      385.266        0.276        0.135       50.813        7.599        0.022      331.454       -0.521      871.408
01/22/2022  00:40:00       90.746      -13.313       -5.132       35.428       25.817       20.689     1255.176      666.525      428.030        0.539        0.117       91.717       11.921        0.017      331.489       -0.464      871.409
01/22/2022  00:41:00      111.065       -2.014       -9.909       25.989       22.589       26.341      675.441      510.255      693.850        0.716        0.094      111.083        9.717        0.008      331.524       -0.406      871.405
01/22/2022  00:42:00       92.449       20.743       -8.948       46.120       38.424       23.391     2127.072     1476.366      547.159        0.660        0.208       94.747       11.525        0.015      331.579       -0.316      871.392
01/22/2022  00:43:00       91.628       32.161      -12.654       43.042       24.751       26.215     1852.590      612.624      687.221        0.637        0.158       97.109       23.383        0.058      331.593       -0.293      871.385
01/22/2022  00:44:00       91.959        1.118       -9.477       37.486       27.294       18.154     1405.209      744.977      329.574        0.551        0.124       91.966       17.837        0.038      331.659       -0.183      871.368
01/22/2022  00:45:00       92.046       -0.950       -3.427       44.172       28.057       18.200     1951.154      787.198      331.256        0.578        0.153       92.051       17.678        0.037      331.658       -0.185      871.343
01/22/2022  00:46:00      106.460       -0.253       -8.861       27.563       29.514       15.255      759.697      871.100      232.713        0.664        0.093      106.461       10.792        0.010      331.679       -0.150      871.302
01/22/2022  00:47:00      129.244        4.364      -15.670       36.793       23.336       17.828     1353.723      544.587      317.834        0.959        0.111      129.318       17.497        0.018      331.773        0.005      871.275
01/22/2022  00:48:00      102.214       13.716      -14.559       58.214       49.400       24.763     3388.879     2440.329      613.230        0.864        0.322      103.130        7.263        0.005      331.880        0.180      871.275
01/22/2022  00:49:00      107.494       -2.330       -6.822       47.308       37.047       21.948     2238.071     1372.514      481.729        0.785        0.205      107.519       16.746        0.024      331.835        0.109      871.290
01/22/2022  00:50:00       86.558      -12.050       -6.603       45.674       32.043       21.622     2086.108     1026.757      467.525        0.563        0.179       87.392       14.029        0.026      331.667       -0.172      871.298
01/22/2022  00:51:00       89.099      -11.197       -4.093       29.321       27.861       15.268      859.733      776.232      233.120        0.497        0.093       89.800       15.670        0.030      331.546       -0.369      871.310
01/22/2022  00:52:00       82.971       76.283       -0.773       58.861       40.104       28.431     3464.595     1608.360      808.328        0.929        0.294      112.708       27.360        0.059      331.528       -0.399      871.319
01/22/2022  00:53:00       99.513       83.118       -9.395       55.288       43.781       26.128     3056.802     1916.748      682.675        1.128        0.283      129.659       16.164        0.016      331.705       -0.106      871.321
01/22/2022  00:54:00      131.489       44.222      -26.740       32.565       37.586       23.674     1060.480     1412.687      560.444        1.150        0.152      138.726       10.471        0.006      331.608       -0.268      871.328
01/22/2022  00:55:00       94.812       30.976      -15.104       43.252       46.109       23.385     1870.699     2126.028      546.836        0.736        0.227       99.744       13.039        0.017      331.617       -0.252      871.342
01/22/2022  00:56:00       66.294       23.514      -18.217       25.834       39.997       25.539      667.382     1599.780      652.265        0.410        0.146       70.341       16.762        0.057      331.425       -0.569      871.342
01/22/2022  00:57:00       80.706        8.916       -6.394       39.769       29.234       17.616     1581.604      854.641      310.306        0.469        0.137       81.197       19.558        0.058      331.419       -0.577      871.326
01/22/2022  00:58:00       66.350        4.184       -2.840       19.470       22.281       11.992      379.091      496.425      143.813        0.272        0.051       66.481       11.789        0.031      331.243       -0.868      871.321
01/22/2022  00:59:00       89.014       33.684       -4.633       21.286       20.284       12.909      453.102      411.430      166.633        0.506        0.052       95.174        9.359        0.010      331.245       -0.863      871.330
01/22/2022  01:00:00      125.621       69.030      -12.582       22.329       20.097       11.052      498.564      403.880      122.149        1.086        0.051      143.338        9.702        0.005      331.423       -0.572      871.374
01/22/2022  01:01:00      142.875       76.480      -15.056       31.486       21.404       19.258      991.353      458.129      370.860        1.415        0.091      162.056        6.043        0.001      331.437       -0.548      871.402
01/22/2022  01:02:00      121.030       77.861      -15.388       29.795       21.348       23.895      887.738      455.745      570.994        1.143        0.096      143.912       17.546        0.015      331.447       -0.534      871.424
01/22/2022  01:03:00       96.849       61.479      -13.380       31.580       20.824       21.780      997.324      433.643      474.383        0.762        0.095      114.714       12.613        0.012      331.415       -0.585      871.427
01/22/2022  01:04:00      109.553       57.480      -13.839       28.137       22.244       18.531      791.695      494.815      343.385        0.856        0.081      123.717       12.991        0.011      331.476       -0.484      871.398
01/22/2022  01:05:00      102.226       57.559      -11.109       28.355       22.098       17.140      804.016      488.340      293.775        0.774        0.079      117.317       11.220        0.009      331.512       -0.426      871.348
01/22/2022  01:06:00       60.417       39.331       -7.919       22.671       20.706       13.380      513.963      428.740      179.030        0.319        0.056       72.091        8.284        0.013      331.443       -0.538      871.321
01/22/2022  01:07:00       74.435       56.963      -15.050       34.156       25.003       16.333     1166.620      625.135      266.758        0.553        0.103       93.731       11.398        0.015      331.428       -0.563      871.314
01/22/2022  01:08:00       88.748       59.972      -15.445       22.094       15.306       13.787      488.146      234.280      190.078        0.631        0.046      107.112        5.946        0.003      331.434       -0.553      871.307
01/22/2022  01:09:00       98.728       48.813      -11.129       26.755       21.511       16.606      715.816      462.740      275.752        0.685        0.073      110.136       15.198        0.019      331.461       -0.510      871.298
01/22/2022  01:10:00       20.074       19.528      -10.334       42.740       27.532       22.663     1826.671      758.038      513.596        0.199        0.155       28.005       14.485        0.268      331.363       -0.672      871.304
01/22/2022  01:11:00      -21.485      -48.965      -17.286       46.362       44.717       16.102     2149.416     1999.650      259.261        0.378        0.220       53.471        5.532        0.011      331.315       -0.749      871.307
01/22/2022  01:12:00       50.787      -83.401      -11.970       31.547       34.746       26.854      995.187     1207.271      721.123        0.630        0.146       97.648       24.070        0.061      331.485       -0.470      871.317
01/22/2022  01:13:00       64.512      -61.488      -23.150       35.143       71.040       12.454     1235.058     5046.701      155.106        0.746        0.322       89.121       19.165        0.046      331.564       -0.341      871.328
01/22/2022  01:14:00      118.775       45.034      -26.391       18.070       23.780       14.084      326.537      565.476      198.371        0.896        0.055      127.026        5.521        0.002      331.593       -0.293      871.336
01/22/2022  01:15:00      101.847       20.805      -15.895       14.780       13.802       13.669      218.435      190.483      186.838        0.583        0.030      103.951        7.101        0.005      331.454       -0.521      871.321
01/22/2022  01:16:00       92.805       24.637      -15.367        8.282       10.381        8.474       68.594      107.767       71.814        0.485        0.012       96.019        7.200        0.006      331.442       -0.540      871.314
01/22/2022  01:17:00       85.775       44.610      -12.439       11.212       11.329        8.558      125.719      128.343       73.232        0.491        0.016       96.682        7.386        0.006      331.434       -0.553      871.310
01/22/2022  01:18:00       39.468       51.637       -9.273       18.309       13.237        9.727      335.211      175.207       94.612        0.246        0.030       64.993        5.455        0.007      331.367       -0.663      871.320
01/22/2022  01:19:00       67.157       56.319      -14.948       12.899       13.138        8.830      166.392      172.617       77.965        0.416        0.021       87.646        6.628        0.006      331.470       -0.495      871.327
01/22/2022  01:20:00       63.157       54.508      -12.939       12.425       10.746       10.758      154.386      115.470      115.726        0.376        0.019       83.426        8.291        0.010      331.432       -0.558      871.337
01/22/2022  01:21:00       73.354       65.114      -17.886       13.958        8.945        8.244      194.829       80.019       67.966        0.514        0.017       98.085        5.577        0.003      331.470       -0.496      871.342
01/22/2022  01:22:00       52.120       61.636      -11.970       23.073       18.729       14.428      532.355      350.769      208.175        0.387        0.055       80.719        7.964        0.010      331.560       -0.346      871.339
01/22/2022  01:23:00       73.010       74.887      -13.344       23.634       20.581       14.160      558.565      423.582      200.503        0.615        0.059      104.587       12.613        0.015      331.601       -0.277      871.332
01/22/2022  01:24:00       79.121       68.111      -11.832       29.634       21.642       16.695      878.175      468.392      278.730        0.633        0.081      104.399       10.963        0.011      331.507       -0.433      871.337
01/22/2022  01:25:00       52.476       75.189       -8.375       28.176       20.241       15.592      793.871      409.678      243.107        0.496        0.072       91.690       12.130        0.018      331.608       -0.267      871.333
01/22/2022  01:26:00       72.745       68.294       -9.157       39.844       22.201       17.937     1587.536      492.879      321.729        0.622        0.120       99.779       12.065        0.015      331.608       -0.267      871.327
01/22/2022  01:27:00       67.440       61.905       -5.343       24.828       19.011       18.585      616.432      361.413      345.398        0.487        0.066       91.544        8.001        0.008      331.509       -0.430      871.328
01/22/2022  01:28:00       73.182       47.074      -10.448       17.738       15.626       13.239      314.646      244.186      175.282        0.421        0.037       87.015        7.325        0.007      331.535       -0.388      871.327
01/22/2022  01:29:00       80.591       61.265       -6.538       20.066       16.416       15.995      402.651      269.482      255.837        0.561        0.046      101.233       10.459        0.011      331.605       -0.272      871.326
01/22/2022  01:30:00       54.721       18.051      -12.405       16.905       17.096       10.577      285.793      292.288      111.875        0.208        0.034       57.621        8.941        0.024      331.600       -0.279      871.326
01/22/2022  01:31:00       51.598       34.901       -9.026       12.791       16.968        7.105      163.618      287.922       50.482        0.223        0.025       62.293        5.896        0.009      331.587       -0.300      871.333
01/22/2022  01:32:00       27.726       21.304       -1.311       11.053       11.043        4.878      122.178      121.940       23.792        0.075        0.013       34.965        4.116        0.014      331.606       -0.270      871.341
01/22/2022  01:33:00       40.397       44.674       -5.845       11.239       11.299       12.406      126.318      127.665      153.914        0.203        0.020       60.230        7.601        0.016      331.682       -0.145      871.342
01/22/2022  01:34:00       31.503       44.366      -10.076       17.780       11.542        9.208      316.127      133.213       84.791        0.180        0.027       54.413        6.904        0.016      331.655       -0.190      871.338
01/22/2022  01:35:00       23.313       36.707       -5.619       14.699       16.349        8.514      216.068      267.288       72.491        0.124        0.028       43.484        8.739        0.040      331.649       -0.197      871.308
01/22/2022  01:36:00        8.787       26.613       -0.588       11.331       13.435       10.696      128.398      180.499      114.404        0.060        0.021       28.026        6.158        0.048      331.615       -0.255      871.283
01/22/2022  01:37:00       14.040        8.119        3.802       19.980        9.133        8.157      399.183       83.416       66.535        0.041        0.027       16.218        7.765        0.229      331.477       -0.483      871.262
01/22/2022  01:38:00        2.443       15.823       -5.666        7.492        7.401        5.778       56.135       54.769       33.388        0.022        0.007       16.010        4.391        0.075      331.509       -0.429      871.259
01/22/2022  01:39:00       28.036       25.090       -1.316       13.740        9.857        8.556      188.797       97.159       73.205        0.089        0.018       37.624        5.072        0.018      331.612       -0.261      871.273
01/22/2022  01:40:00       14.040       13.533       -3.096       19.242        8.818        6.416      370.242       77.752       41.166        0.044        0.024       19.500        4.796        0.060      331.587       -0.301      871.296
01/22/2022  01:41:00      -28.874       -1.965       -2.565       20.131       19.631        9.840      405.273      385.384       96.818        0.087        0.044       28.941        5.190        0.032      331.200       -0.939      871.312
01/22/2022  01:42:00      -27.173       -3.888      -12.803       11.771       10.998       13.278      138.560      120.965      176.295        0.068        0.022       27.449        5.145        0.035      330.998       -1.272      871.329
01/22/2022  01:43:00      -47.744        4.167       -2.428       19.347       20.335       15.363      374.319      413.508      236.035        0.166        0.051       47.926        7.821        0.027      330.839       -1.531      871.322
01/22/2022  01:44:00      -50.968        7.564      -16.291       20.776       15.306       12.586      431.651      234.281      158.396        0.187        0.041       51.526        5.567        0.012      330.799       -1.596      871.303
01/22/2022  01:45:00      -59.327       18.541      -19.697       12.390       11.687        9.620      153.506      136.584       92.547        0.232        0.019       62.157        7.554        0.015      330.750       -1.678      871.313
01/22/2022  01:46:00      -50.659       30.006      -11.895       11.753       10.248       13.881      138.122      105.014      192.679        0.202        0.022       58.879        6.111        0.011      330.782       -1.625      871.339
01/22/2022  01:47:00        9.377       22.789       -0.924       28.695        9.372        9.313      823.382       87.828       86.729        0.080        0.050       24.643       10.421        0.179      331.295       -0.783      871.344
01/22/2022  01:48:00       28.797       23.127        2.815        9.268        8.145        8.024       85.888       66.341       64.389        0.079        0.011       36.934        5.675        0.024      331.411       -0.592      871.332
01/22/2022  01:49:00       40.785       35.080       -2.994       16.278        8.667       10.413      264.957       75.110      108.440        0.168        0.022       53.796        7.119        0.018      331.585       -0.304      871.327
01/22/2022  01:50:00        7.385       18.429       -2.926       13.283       17.251        8.865      176.434      297.581       78.590        0.048        0.028       19.854        7.011        0.125      331.300       -0.774      871.334
01/22/2022  01:51:00       -8.298        2.427      -11.535        8.441       16.307        8.313       71.243      265.915       69.100        0.031        0.020        8.646        5.406        0.391      331.207       -0.926      871.321
01/22/2022  01:52:00      -34.816       16.588      -10.478       29.848       19.366       15.933      890.881      375.028      253.851        0.156        0.076       38.566        6.251        0.026      331.254       -0.849      871.285
01/22/2022  01:53:00      -16.189        5.968       -4.130       27.983       20.160       13.719      783.063      406.407      188.207        0.085        0.069       17.254       11.297        0.429      331.098       -1.107      871.263
01/22/2022  01:54:00       25.734       23.829        2.610       44.448       30.069       17.722     1975.604      904.161      314.072        0.221        0.160       35.072       18.679        0.284      331.717       -0.087      871.262
01/22/2022  01:55:00      -30.248       12.967      -10.494       23.272       20.323       15.650      541.592      413.005      244.925        0.120        0.060       32.910        7.740        0.055      330.981       -1.298      871.268
01/22/2022  01:56:00      -33.108        3.577      -16.804       17.007       12.936       11.953      289.245      167.329      142.885        0.100        0.030       33.301        7.361        0.049      330.803       -1.591      871.276
01/22/2022  01:57:00      -37.383       12.842      -16.892       18.943       19.820       10.203      358.843      392.819      104.107        0.135        0.043       39.528        3.519        0.008      330.836       -1.535      871.270
01/22/2022  01:58:00      -48.838       21.222      -13.410       22.775       16.857       12.683      518.683      284.160      160.863        0.199        0.048       53.249       11.384        0.046      330.759       -1.662      871.278
01/22/2022  01:59:00      -36.449       11.093      -23.772       17.523       13.680       14.235      307.042      187.134      202.644        0.136        0.035       38.099        7.592        0.040      330.730       -1.710      871.288
01/22/2022  02:00:00      -48.528       11.704      -26.113       28.451       21.250       17.137      809.448      451.558      293.673        0.236        0.078       49.919       10.470        0.044      330.929       -1.385      871.287
01/22/2022  02:01:00      -44.946       24.344      -19.612       18.033       12.835       11.611      325.192      164.739      134.823        0.181        0.031       51.115        8.455        0.027      330.758       -1.664      871.274
01/22/2022  02:02:00      -64.187       21.520      -27.526       14.576       12.441       11.173      212.448      154.778      124.836        0.292        0.025       67.699        4.207        0.004      330.670       -1.810      871.245
01/22/2022  02:03:00      -89.108       12.086      -21.283       22.478       28.040       17.216      505.261      786.232      296.397        0.506        0.079       89.924        9.158        0.010      330.488       -2.107      871.222
01/22/2022  02:04:00      -66.154       -5.541      -11.263       53.582       27.004       24.616     2871.024      729.212      605.961        0.437        0.210       66.386       25.114        0.143      330.479       -2.122      871.210
01/22/2022  02:05:00      -61.270        0.494      -24.972       42.806       29.594       25.878     1832.332      875.796      669.645        0.388        0.169       61.272       26.902        0.193      330.451       -2.169      871.213
01/22/2022  02:06:00     -108.228       50.479      -19.302       42.468       29.526       20.095     1803.515      871.764      403.809        0.886        0.154      119.421        8.765        0.005      330.458       -2.157      871.236
01/22/2022  02:07:00     -105.986       56.031       -9.199       41.517       31.333       25.547     1723.678      981.728      652.624        0.891        0.168      119.886       14.421        0.014      330.429       -2.205      871.261
01/22/2022  02:08:00     -114.815       48.134      -11.143       36.283       30.618       27.811     1316.447      937.481      773.440        0.932        0.151      124.496       16.668        0.018      330.423       -2.215      871.269
01/22/2022  02:09:00     -106.524       34.306      -13.856       61.986       36.565       25.925     3842.291     1336.994      672.117        0.928        0.293      111.912       27.745        0.061      330.460       -2.153      871.289
01/22/2022  02:10:00     -126.741       32.809      -14.553       54.539       41.373       22.167     2974.481     1711.686      491.392        1.126        0.259      130.919       15.658        0.014      330.499       -2.088      871.299
01/22/2022  02:11:00     -130.551       31.416       -9.359       65.163       49.757       22.281     4246.281     2475.779      496.461        1.267        0.361      134.278       10.418        0.006      330.494       -2.096      871.303
01/22/2022  02:12:00      -88.642        6.284      -18.065       52.140       40.267       28.607     2718.558     1621.461      818.366        0.669        0.258       88.865       18.582        0.044      330.447       -2.174      871.293
01/22/2022  02:13:00        0.065      -12.541      -21.521       17.683       24.659       15.537      312.703      608.087      241.410        0.089        0.058       12.541       11.485        0.839      330.507       -2.077      871.300
01/22/2022  02:14:00       16.460      -11.059      -16.583       23.355       14.561       19.213      545.466      212.012      369.123        0.090        0.056       19.830       11.653        0.345      330.516       -2.062      871.331
01/22/2022  02:15:00      -26.277       10.820      -13.047       36.009       37.646       21.720     1296.654     1417.244      471.775        0.208        0.159       28.417       19.207        0.457      330.477       -2.127      871.365
01/22/2022  02:16:00      -27.314       25.609      -14.655       47.586       41.778       26.550     2264.421     1745.386      704.878        0.316        0.236       37.442       14.332        0.147      330.407       -2.240      871.386
01/22/2022  02:17:00      -56.553       25.661      -17.610       70.577       35.720       15.294     4981.064     1275.893      233.904        0.533        0.325       62.103        8.644        0.019      330.389       -2.270      871.378
01/22/2022  02:18:00     -116.607       19.414       -6.142       54.977       31.659       25.697     3022.478     1002.292      660.342        0.935        0.234      118.212       26.995        0.052      330.428       -2.205      871.359
01/22/2022  02:19:00      -86.663       26.429       -9.720       61.528       31.273       21.127     3785.690      978.003      446.341        0.676        0.261       90.603       19.347        0.046      330.348       -2.335      871.340
01/22/2022  02:20:00     -144.609       77.869      -14.249       45.211       35.293       22.984     2044.021     1245.577      528.275        1.550        0.191      164.242       18.694        0.013      330.346       -2.340      871.336
01/22/2022  02:21:00     -126.808       65.880       -3.517       44.463       30.949       26.403     1976.958      957.855      697.101        1.203        0.182      142.900       25.588        0.032      330.302       -2.413      871.345
01/22/2022  02:22:00     -132.430       46.798      -16.250       28.815       30.842       16.244      830.318      951.243      263.859        1.102        0.102      140.456       11.320        0.006      330.295       -2.424      871.353
01/22/2022  02:23:00      -60.442       18.977      -19.305       40.315       25.413       19.777     1625.271      645.809      391.114        0.352        0.133       63.351       17.185        0.074      330.365       -2.307      871.370
01/22/2022  02:24:00      -28.058       13.743      -13.632       28.636       18.308       19.039      820.042      335.179      362.486        0.134        0.076       31.243       11.508        0.136      330.372       -2.296      871.375
01/22/2022  02:25:00      -47.510       12.298      -24.709       21.055       22.145       18.921      443.310      490.417      358.011        0.216        0.065       49.076        9.719        0.039      330.448       -2.172      871.361
01/22/2022  02:26:00      -75.206       17.408      -26.418       33.573       26.340       22.680     1127.119      693.774      514.362        0.450        0.117       77.194       19.268        0.062      330.462       -2.150      871.346
01/22/2022  02:27:00      -69.920       33.103      -24.129       19.200       16.556       15.376      368.653      274.113      236.416        0.372        0.044       77.361        7.341        0.009      330.448       -2.172      871.335
01/22/2022  02:28:00      -94.449       29.778      -20.870       15.444       16.992       13.219      238.532      288.743      174.747        0.547        0.035       99.032        5.263        0.003      330.466       -2.145      871.313
01/22/2022  02:29:00      -56.079        1.042      -15.460       30.259       22.896       19.698      915.594      524.238      388.009        0.261        0.091       56.089       17.938        0.102      330.500       -2.087      871.290
01/22/2022  02:30:00      -35.364       -5.766       -8.464       45.792       30.000       32.037     2096.951      899.971     1026.345        0.269        0.201       35.831       29.051        0.657      330.436       -2.193      871.294
01/22/2022  02:31:00      -28.394       14.204       -8.757       29.888       29.605       23.569      893.283      876.462      555.509        0.170        0.116       31.748       12.884        0.165      330.380       -2.285      871.307
01/22/2022  02:32:00      -85.560       -1.262      -17.959       38.732       39.256       22.090     1500.140     1541.015      487.951        0.559        0.176       85.570       17.538        0.042      330.428       -2.205      871.313
01/22/2022  02:33:00     -139.754       47.429      -15.752       27.069       25.691       15.460      732.715      660.012      239.004        1.183        0.082      147.583       10.059        0.005      330.332       -2.363      871.311
01/22/2022  02:34:00     -129.677       44.912      -12.178       24.947       28.122       20.646      622.352      790.860      426.249        1.041        0.092      137.234       14.514        0.011      330.331       -2.364      871.312
01/22/2022  02:35:00     -123.827       58.134      -10.767       21.647       15.633       15.591      468.591      244.405      243.072        0.989        0.048      136.794       11.360        0.007      330.312       -2.395      871.309
01/22/2022  02:36:00     -106.548       43.779      -12.928       34.194       18.015       18.629     1169.261      324.543      347.026        0.764        0.092      115.191       14.358        0.016      330.277       -2.453      871.308
01/22/2022  02:37:00     -113.123       21.738      -14.653       28.904       26.288       21.427      835.432      691.044      459.113        0.773        0.099      115.193       18.587        0.026      330.330       -2.366      871.295
01/22/2022  02:38:00     -105.437       15.947      -24.015       22.908       24.829       18.371      524.780      616.458      337.502        0.671        0.074      106.636        5.144        0.002      330.344       -2.343      871.278
01/22/2022  02:39:00     -122.543       31.952      -32.056       26.735       21.247       17.134      714.734      451.448      293.583        0.926        0.073      126.640        5.702        0.002      330.347       -2.338      871.285
01/22/2022  02:40:00      -96.747       32.429      -28.261       31.866       22.439       18.459     1015.463      503.511      340.726        0.653        0.093      102.037       12.341        0.015      330.331       -2.365      871.312
01/22/2022  02:41:00      -52.379       11.169      -18.324       30.692       21.529       22.457      942.000      463.509      504.299        0.256        0.095       53.557       15.252        0.081      330.387       -2.274      871.329
01/22/2022  02:42:00      -59.385       31.602      -10.059       59.310       25.938       18.543     3517.657      672.791      343.827        0.458        0.227       67.270       19.364        0.083      330.405       -2.244      871.332
01/22/2022  02:43:00      -72.527       14.470      -22.504       46.437       25.890       18.584     2156.354      670.282      345.351        0.457        0.159       73.956       19.180        0.067      330.374       -2.293      871.305
01/22/2022  02:44:00      -73.019       23.828      -17.810       41.040       30.371       22.071     1684.283      922.409      487.137        0.465        0.155       76.809       20.915        0.074      330.377       -2.289      871.292
01/22/2022  02:45:00      -86.204       40.420      -15.758       30.402       22.119       16.116      924.278      489.256      259.719        0.549        0.084       95.209        8.428        0.008      330.318       -2.384      871.294
01/22/2022  02:46:00      -75.422       47.247      -14.751       30.712       26.011       17.463      943.221      676.578      304.963        0.503        0.096       88.999        5.344        0.004      330.339       -2.352      871.297
01/22/2022  02:47:00      -80.651       51.400       -8.494       42.109       25.655       18.381     1773.163      658.177      337.877        0.599        0.138       95.637       17.195        0.032      330.391       -2.266      871.296
01/22/2022  02:48:00      -80.245       35.548      -14.984       22.503       26.004       14.777      506.378      676.195      218.368        0.466        0.070       87.766        8.450        0.009      330.467       -2.141      871.293
01/22/2022  02:49:00      -54.535       26.170      -12.620       26.874       16.973       16.134      722.197      288.091      260.317        0.254        0.064       60.489        7.436        0.015      330.411       -2.234      871.283
01/22/2022  02:50:00      -46.823       36.073       -8.816       23.944       15.686       15.763      573.334      246.056      248.461        0.232        0.053       59.107       10.143        0.029      330.332       -2.364      871.278
01/22/2022  02:51:00      -68.331       42.605      -14.030       18.229       13.853       13.492      332.278      191.899      182.042        0.369        0.035       80.525       10.737        0.018      330.340       -2.351      871.273
01/22/2022  02:52:00      -81.889       31.615      -21.192       31.021       26.828       17.013      962.317      719.766      289.458        0.506        0.099       87.780       11.158        0.016      330.417       -2.224      871.271
01/22/2022  02:53:00      -43.415        6.226      -16.594       26.118       20.952       20.716      682.134      438.988      429.146        0.187        0.078       43.859        6.417        0.021      330.313       -2.393      871.274
01/22/2022  02:54:00      -72.807       24.144      -14.301       42.529       36.259       24.972     1808.737     1314.681      623.614        0.492        0.187       76.706       14.119        0.034      330.409       -2.236      871.287
01/22/2022  02:55:00      -79.511       27.772      -29.976       35.420       34.943       25.462     1254.552     1221.014      648.328        0.556        0.156       84.221       12.282        0.021      330.430       -2.202      871.299
01/22/2022  02:56:00      -60.471       15.858      -15.448       41.762       30.080       30.784     1744.091      904.803      947.679        0.387        0.180       62.515       22.668        0.131      330.424       -2.213      871.298
01/22/2022  02:57:00      -27.963       26.089      -10.384       23.366       26.077       17.193      545.978      680.020      295.595        0.155        0.076       38.243       11.712        0.094      330.277       -2.453      871.298
01/22/2022  02:58:00      -33.577       34.793       -8.994       22.229       18.883       16.672      494.120      356.565      277.951        0.177        0.056       48.352       10.727        0.049      330.506       -2.076      871.297
01/22/2022  02:59:00      -38.585        2.428      -17.063       24.029       14.687       13.965      577.388      215.719      195.014        0.139        0.049       38.661       12.873        0.111      330.441       -2.184      871.289
01/22/2022  03:00:00      -78.915       25.398      -14.564       23.866       22.672       16.654      569.607      514.039      277.365        0.422        0.068       82.901       11.946        0.021      330.528       -2.042      871.312
01/22/2022  03:01:00      -32.469        1.886      -11.017       25.666       21.822       16.357      658.766      476.202      267.549        0.129        0.070       32.524       14.466        0.198      330.574       -1.966      871.325
01/22/2022  03:02:00      -12.427       -2.189      -17.334       14.569       15.629        9.020      212.253      244.276       81.362        0.050        0.027       12.618        6.913        0.300      330.718       -1.731      871.341
01/22/2022  03:03:00      -30.076        2.459       -8.217       16.256       17.808       13.841      264.243      317.122      191.566        0.088        0.039       30.177        8.791        0.085      330.903       -1.424      871.352
01/22/2022  03:04:00      -30.624       10.870       -5.843       15.361       13.520        9.989      235.973      182.788       99.784        0.080        0.026       32.495        7.280        0.050      330.918       -1.401      871.359
01/22/2022  03:05:00      -25.581       15.433       -3.824       12.871       12.493        8.627      165.653      156.076       74.425        0.065        0.020       29.876        4.936        0.027      331.013       -1.247      871.367
01/22/2022  03:06:00      -38.626        9.287       -7.647       14.981       15.766       11.233      224.441      248.580      126.187        0.112        0.030       39.726        4.369        0.012      331.056       -1.174      871.361
01/22/2022  03:07:00       25.144       17.161       -8.718       27.953       16.626       14.777      781.390      276.430      218.347        0.114        0.064       30.442        7.383        0.059      331.158       -1.007      871.370
01/22/2022  03:08:00       39.414       28.593       -2.665       19.779       18.814       15.178      391.203      353.970      230.384        0.168        0.049       48.693       11.707        0.058      331.278       -0.810      871.372
01/22/2022  03:09:00       15.354       31.747       -7.801       19.966       15.324       14.672      398.654      234.812      215.260        0.108        0.042       35.265        9.266        0.069      331.303       -0.769      871.370
01/22/2022  03:10:00       -8.014       40.188        0.979       28.460       22.470       15.388      809.955      504.921      236.796        0.162        0.078       40.979        8.394        0.042      331.209       -0.923      871.372
01/22/2022  03:11:00       -5.966       30.613       -6.822       12.166       10.541        8.285      148.015      111.115       68.649        0.067        0.016       31.189        5.844        0.035      331.151       -1.018      871.386
01/22/2022  03:12:00       31.049       27.775       -4.726       12.077       14.546        8.964      145.847      211.587       80.362        0.110        0.022       41.659        4.351        0.011      331.299       -0.774      871.397
01/22/2022  03:13:00       14.466       32.880        5.037       25.748       16.488       11.368      662.947      271.853      129.230        0.119        0.053       35.922        9.371        0.068      331.299       -0.773      871.395
01/22/2022  03:14:00       -9.008        6.485       -2.569       21.978        9.724       12.528      483.033       94.555      156.949        0.043        0.037       11.099       11.374        1.050      331.039       -1.201      871.390
01/22/2022  03:15:00      -28.821       10.196       -4.441        9.231        9.124        5.286       85.220       83.254       27.945        0.058        0.010       30.571        2.015        0.004      331.017       -1.240      871.368
01/22/2022  03:16:00      -53.526       16.156      -11.383       15.797       12.529       10.424      249.533      156.982      108.654        0.189        0.026       55.911        7.040        0.016      330.894       -1.440      871.346
01/22/2022  03:17:00      -40.496       10.114       -4.891       22.123       14.602       10.870      489.414      213.224      118.155        0.129        0.041       41.740       12.176        0.085      330.839       -1.531      871.340
01/22/2022  03:18:00      -32.825       10.149       -6.301       18.351       10.451        8.597      336.741      109.223       73.906        0.087        0.026       34.358        6.727        0.038      330.854       -1.508      871.341
01/22/2022  03:19:00      -67.008       20.998      -13.000       22.570       17.443       10.226      509.400      304.253      104.575        0.301        0.046       70.221        9.378        0.018      330.905       -1.424      871.344
01/22/2022  03:20:00      -22.953        0.625       -7.705       23.322       26.625       15.768      543.922      708.907      248.633        0.104        0.075       22.962       12.504        0.297      330.750       -1.677      871.335
01/22/2022  03:21:00      -93.271       34.124      -13.225       15.033       17.888       15.576      225.988      319.989      242.623        0.541        0.039       99.317        8.244        0.007      330.740       -1.692      871.322
01/22/2022  03:22:00     -106.494       45.115      -14.180       22.276       19.960       15.670      496.229      398.420      245.535        0.736        0.057      115.656        3.399        0.001      330.605       -1.915      871.290
01/22/2022  03:23:00     -117.358       25.480       -8.386       23.552       23.187       13.235      554.684      537.627      175.154        0.788        0.063      120.093        6.457        0.003      330.689       -1.778      871.280
01/22/2022  03:24:00      -88.781       21.143      -10.278       25.942       18.870       11.502      673.009      356.092      132.294        0.480        0.058       91.264        8.849        0.009      330.666       -1.814      871.312
01/22/2022  03:25:00      -83.675       23.228      -11.303       18.335       14.425       11.292      336.176      208.078      127.502        0.417        0.034       86.840        7.350        0.007      330.646       -1.846      871.347
01/22/2022  03:26:00     -132.304       32.675      -17.078       31.864       24.560       19.030     1015.306      603.182      362.146        1.042        0.099      136.279        9.950        0.005      330.591       -1.939      871.334
01/22/2022  03:27:00      -90.583        3.509      -13.025       49.944       35.801       28.577     2494.440     1281.744      816.631        0.649        0.230       90.651       17.710        0.038      330.531       -2.036      871.315
01/22/2022  03:28:00      -63.536       -0.604      -16.116       58.963       41.504       23.266     3476.636     1722.577      541.327        0.502        0.287       63.539       25.555        0.162      330.552       -2.003      871.319
01/22/2022  03:29:00     -106.215       26.384      -16.822       39.304       28.996       23.420     1544.769      840.789      548.502        0.760        0.147      109.443       16.554        0.023      330.506       -2.077      871.332
01/22/2022  03:30:00      -88.272       12.960      -19.969       43.444       29.282       21.628     1887.348      857.446      467.786        0.579        0.161       89.219       17.633        0.039      330.499       -2.090      871.338
01/22/2022  03:31:00      -28.152        7.708       -3.623       38.450       22.424       18.351     1478.418      502.853      336.753        0.159        0.116       29.188       16.320        0.313      330.490       -2.105      871.337
01/22/2022  03:32:00      -45.267       10.201      -10.129       41.729       19.645       15.466     1741.288      385.940      239.203        0.231        0.118       46.402       17.645        0.145      330.566       -1.980      871.367
01/22/2022  03:33:00      -75.991       16.795       -6.870       34.653       13.088       16.181     1200.810      171.291      261.813        0.387        0.082       77.825       17.762        0.052      330.561       -1.988      871.362
01/22/2022  03:34:00      -89.527      -21.919      -12.981       43.529       26.304       25.942     1894.800      691.891      673.005        0.596        0.163       92.171       22.306        0.059      330.659       -1.828      871.320
01/22/2022  03:35:00      -52.306        3.717       -8.732       42.987       20.914       21.120     1847.907      437.382      446.056        0.278        0.137       52.438       15.181        0.084      330.754       -1.670      871.297
01/22/2022  03:36:00      -11.124       17.225      -11.121       12.852       11.266       16.367      165.163      126.914      267.888        0.055        0.028       20.505        7.903        0.149      331.022       -1.231      871.332
01/22/2022  03:37:00      -16.905      -57.322      -30.167       38.832       56.010       33.329     1507.928     3137.068     1110.840        0.512        0.288       59.763       39.128        0.429      331.056       -1.174      871.359
01/22/2022  03:38:00      -23.331      -13.436      -15.295       36.691       30.436       17.329     1346.227      926.364      300.309        0.177        0.129       26.923       15.781        0.344      330.902       -1.428      871.377
01/22/2022  03:39:00       -1.544        1.258       -5.031       39.559       27.591       20.109     1564.907      761.282      404.364        0.138        0.137        1.992       16.353       67.396      330.785       -1.620      871.385
01/22/2022  03:40:00      -97.994      -19.257       -8.250       69.963       45.269       32.095     4894.865     2049.306     1030.099        0.901        0.399       99.868       27.009        0.073      330.770       -1.643      871.372
01/22/2022  03:41:00      -69.920       16.063        0.443       51.670       37.533       26.296     2669.784     1408.760      691.484        0.496        0.239       71.741       21.968        0.094      330.652       -1.837      871.374
01/22/2022  03:42:00      -79.617       41.809       -6.881       30.652       37.541       17.263      939.565     1409.334      298.000        0.539        0.132       89.927       13.727        0.023      330.633       -1.870      871.403
01/22/2022  03:43:00     -116.028       19.755      -12.014       88.187       39.163       29.461     7776.996     1533.757      867.958        1.209        0.509      117.698       27.689        0.055      330.560       -1.991      871.399
01/22/2022  03:44:00     -159.343       25.957       -6.971       74.705       54.784       40.519     5580.805     3001.327     1641.801        1.817        0.511      161.443       33.734        0.044      330.506       -2.078      871.374
01/22/2022  03:45:00     -206.392       80.765      -40.438       55.524       46.846       32.790     3082.929     2194.594     1075.210        2.855        0.318      221.632       18.660        0.007      330.350       -2.336      871.387
01/22/2022  03:46:00     -165.063       65.369      -21.660       80.904       57.055       34.671     6545.478     3255.264     1202.083        2.149        0.550      177.536       38.637        0.047      330.369       -2.303      871.416
01/22/2022  03:47:00     -208.556       74.675      -30.076       37.097       26.506       22.939     1376.185      702.576      526.188        2.629        0.130      221.522        8.063        0.001      330.420       -2.220      871.421
01/22/2022  03:48:00     -118.328       18.962      -18.370       72.224       37.970       34.976     5216.336     1441.729     1223.328        1.129        0.394      119.838       29.790        0.062      330.470       -2.138      871.425
01/22/2022  03:49:00     -141.264       62.706       -6.254       54.335       31.845       29.771     2952.264     1014.117      886.337        1.439        0.243      154.556       27.577        0.032      330.497       -2.094      871.450
01/22/2022  03:50:00     -100.869       39.100       -8.598       56.980       33.638       22.252     3246.725     1131.506      495.164        0.832        0.244      108.182       28.367        0.069      330.514       -2.065      871.466
01/22/2022  03:51:00     -102.872       35.355      -15.912       21.344       20.110       20.111      455.568      404.420      404.455        0.667        0.063      108.778       11.296        0.011      330.546       -2.013      871.478
01/22/2022  03:52:00     -102.793       37.810      -19.627       24.304       25.853       18.374      590.705      668.386      337.610        0.699        0.080      109.526       13.119        0.014      330.511       -2.070      871.477
01/22/2022  03:53:00      -90.750       33.539       -6.247       34.701       19.732       20.135     1204.146      389.334      405.430        0.570        0.100       96.749       20.173        0.043      330.527       -2.044      871.468
01/22/2022  03:54:00      -50.752       20.983       -3.923       31.104       21.469       15.759      967.485      460.901      248.357        0.235        0.084       54.919       15.046        0.075      330.536       -2.029      871.465
01/22/2022  03:55:00      -54.472       38.232       -8.055       18.396       25.303       11.806      338.431      640.233      139.371        0.281        0.056       66.550        9.299        0.020      330.636       -1.865      871.484
01/22/2022  03:56:00      -61.112       54.041      -20.979       14.703       19.700       16.648      216.184      388.083      277.142        0.399        0.044       81.579       12.861        0.025      330.846       -1.519      871.483
01/22/2022  03:57:00      -68.304       39.650      -12.813       22.970       19.474       16.308      527.615      379.238      265.953        0.379        0.059       78.978       12.928        0.027      330.837       -1.534      871.467
01/22/2022  03:58:00      -73.880       21.186      -16.066       33.863       35.600       22.420     1146.718     1267.348      502.675        0.454        0.146       76.858       12.320        0.026      330.801       -1.594      871.464
01/22/2022  03:59:00      -92.727       36.795      -19.130       32.762       25.068       17.997     1073.335      628.402      323.880        0.617        0.101       99.761       13.202        0.018      330.765       -1.653      871.477
01/22/2022  04:00:00      -99.027       46.418      -13.655       44.989       19.416       20.204     2023.966      376.988      408.216        0.748        0.140      109.366       18.049        0.027      330.700       -1.760      871.492
01/22/2022  04:01:00     -121.725       39.954      -15.618       40.509       22.768       27.964     1641.003      518.364      781.963        0.980        0.147      128.114       14.993        0.014      330.661       -1.823      871.510
01/22/2022  04:02:00      -97.779       16.890      -20.672       37.578       43.178       25.200     1412.119     1864.351      635.027        0.709        0.196       99.227       22.221        0.050      330.662       -1.820      871.501
01/22/2022  04:03:00     -161.035       42.631      -22.478       22.643       19.925       16.234      512.687      396.986      263.527        1.471        0.059      166.583        6.734        0.002      330.649       -1.843      871.489
01/22/2022  04:04:00     -111.038       27.085      -22.485       24.775       32.792       20.929      613.795     1075.289      438.013        0.785        0.106      114.293       14.661        0.016      330.603       -1.918      871.483
01/22/2022  04:05:00     -105.464       51.675      -19.972       17.042       17.180       17.954      290.441      295.137      322.347        0.755        0.045      117.444       12.229        0.011      330.665       -1.816      871.491
01/22/2022  04:06:00      -87.494       61.175      -13.482       36.945       31.571       21.264     1364.931      996.756      452.176        0.720        0.141      106.759       13.652        0.016      330.665       -1.815      871.493
01/22/2022  04:07:00     -125.415      112.286      -24.146       18.292       20.343       14.941      334.604      413.832      223.222        1.495        0.049      168.337        8.748        0.003      330.902       -1.429      871.501
01/22/2022  04:08:00     -117.979       93.890      -29.436       15.596       22.805       12.278      243.231      520.075      150.754        1.226        0.046      150.780        7.268        0.002      330.949       -1.351      871.498
01/22/2022  04:09:00      -95.760       65.329      -18.022       37.113       30.568       19.558     1377.361      934.404      382.523        0.823        0.135      115.922       18.444        0.025      330.796       -1.602      871.491
01/22/2022  04:10:00      -92.722       66.144      -19.643       31.021       27.396       17.293      962.288      750.541      299.049        0.768        0.101      113.897       10.177        0.008      331.064       -1.162      871.486
01/22/2022  04:11:00      -65.063       37.659       -9.724       27.448       27.418       17.942      753.369      751.731      321.925        0.379        0.091       75.176       15.531        0.043      330.947       -1.354      871.474
01/22/2022  04:12:00      -87.843       36.003      -26.240       28.271       21.111       16.967      799.221      445.669      287.872        0.562        0.077       94.935       14.038        0.022      330.805       -1.586      871.454
01/22/2022  04:13:00     -103.980       37.888      -14.934       32.704       28.018       22.396     1069.558      784.994      501.589        0.741        0.118      110.668       16.153        0.021      330.900       -1.431      871.447
01/22/2022  04:14:00      -89.790       63.346      -14.258       29.967       25.993       19.467      897.997      675.620      378.966        0.712        0.098      109.886       10.792        0.010      331.102       -1.100      871.445
01/22/2022  04:15:00      -70.778       32.709      -14.942       23.018       22.574       19.728      529.806      509.593      389.187        0.387        0.071       77.971       15.484        0.039      330.839       -1.531      871.461
01/22/2022  04:16:00      -68.501       35.626      -17.202       22.321       20.790       20.336      498.236      432.208      413.561        0.380        0.067       77.211       14.576        0.036      330.764       -1.654      871.487
01/22/2022  04:17:00      -62.042       51.493      -11.988       28.329       41.039       19.777      802.529     1684.212      391.136        0.476        0.144       80.627       13.475        0.028      330.829       -1.547      871.508
01/22/2022  04:18:00      -76.760       68.283      -23.511       27.433       35.491       19.696      752.585     1259.641      387.928        0.675        0.120      102.736       21.174        0.042      330.914       -1.408      871.523
01/22/2022  04:19:00      -71.146       21.806      -20.750       23.406       32.112       26.660      547.821     1031.156      710.778        0.413        0.114       74.412       16.175        0.047      330.559       -1.991      871.525
01/22/2022  04:20:00      -83.296       26.521      -21.738       48.548       39.564       23.967     2356.948     1565.343      574.424        0.630        0.225       87.416       19.791        0.051      330.536       -2.029      871.514
01/22/2022  04:21:00      -97.225       27.434      -15.513       40.301       33.133       26.035     1624.199     1097.767      677.837        0.692        0.170      101.021       24.185        0.057      330.506       -2.078      871.508
01/22/2022  04:22:00      -94.501       39.828      -18.536       43.063       29.949       30.217     1854.385      896.963      913.075        0.726        0.183      102.551       21.932        0.046      330.483       -2.116      871.516
01/22/2022  04:23:00     -103.455       27.266      -24.397       27.362       20.513       20.292      748.671      420.778      411.771        0.681        0.079      106.988        5.248        0.002      330.447       -2.175      871.527
01/22/2022  04:24:00      -96.589       30.421      -14.639       36.109       30.280       22.131     1303.838      916.867      489.774        0.659        0.136      101.266        9.482        0.009      330.431       -2.199      871.545
01/22/2022  04:25:00      -76.984       39.214       -4.872       51.991       29.235       26.248     2703.092      854.702      688.949        0.587        0.212       86.396       22.564        0.068      330.362       -2.312      871.555
01/22/2022  04:26:00     -136.409       46.800      -18.325       35.564       26.529       22.677     1264.809      703.800      514.255        1.181        0.124      144.214       16.264        0.013      330.410       -2.235      871.555
01/22/2022  04:27:00     -121.184       39.029      -27.774       40.451       33.414       21.109     1636.317     1116.508      445.608        1.009        0.160      127.314       18.334        0.021      330.428       -2.206      871.533
01/22/2022  04:28:00      -48.990       -0.888      -26.167       46.278       43.474       27.481     2141.656     1890.013      755.191        0.394        0.239       48.998       17.020        0.121      330.457       -2.157      871.508
01/22/2022  04:29:00      -80.082       18.287       -9.963       40.791       35.953       25.764     1663.885     1292.622      663.759        0.523        0.181       82.144       11.410        0.019      330.427       -2.206      871.507
01/22/2022  04:30:00      -40.527       15.984       -7.538       34.247       25.808       22.302     1172.828      666.050      497.397        0.215        0.117       43.566       18.707        0.184      330.452       -2.166      871.525
01/22/2022  04:31:00      -43.511        1.232      -22.885       46.026       26.131       27.574     2118.349      682.804      760.342        0.299        0.178       43.528       26.515        0.371      330.503       -2.083      871.529
01/22/2022  04:32:00      -34.072       -9.369       -5.708       41.328       32.555       21.009     1707.972     1059.858      441.373        0.224        0.160       35.337       23.435        0.440      330.443       -2.181      871.515
01/22/2022  04:33:00      -36.196       -5.720      -16.242       35.036       28.987       24.507     1227.540      840.232      600.578        0.214        0.133       36.645       20.171        0.303      330.408       -2.239      871.496
01/22/2022  04:34:00      -32.610        3.393       -6.326       43.726       37.042       26.455     1911.993     1372.075      699.853        0.255        0.199       32.786       21.729        0.439      330.328       -2.369      871.485
01/22/2022  04:35:00      -28.835        7.670      -11.527       54.663       31.240       22.823     2988.083      975.964      520.890        0.275        0.224       29.838       10.962        0.135      330.290       -2.430      871.472
01/22/2022  04:36:00      -84.577       25.520      -22.220       50.608       26.120       28.989     2561.122      682.260      840.347        0.619        0.204       88.343       15.014        0.029      330.227       -2.534      871.460
01/22/2022  04:37:00     -132.244       50.009      -20.700       49.029       33.518       27.867     2403.885     1123.479      776.597        1.236        0.215      141.384       10.721        0.006      330.149       -2.664      871.457
01/22/2022  04:38:00     -137.204       47.493      -20.468       48.764       40.774       21.831     2377.898     1662.494      476.578        1.301        0.226      145.191       17.985        0.015      330.059       -2.812      871.464
01/22/2022  04:39:00     -117.135       37.055      -22.441       37.078       28.743       21.331     1374.750      826.163      455.029        0.913        0.133      122.857       14.716        0.014      330.063       -2.804      871.489
01/22/2022  04:40:00     -102.501       24.446        0.331       51.025       28.187       22.827     2603.532      794.508      521.058        0.751        0.196      105.376       26.039        0.061      330.064       -2.803      871.512
01/22/2022  04:41:00     -104.191       52.138      -16.826       39.473       35.695       23.078     1558.122     1274.116      532.581        0.861        0.168      116.508       17.848        0.023      330.117       -2.717      871.522
01/22/2022  04:42:00      -40.096        1.343       -3.330       36.776       29.576       23.753     1352.509      874.744      564.218        0.221        0.140       40.118       14.919        0.138      330.104       -2.739      871.515
01/22/2022  04:43:00      -91.624       21.794       -8.293       67.576       31.211       21.068     4566.468      974.153      443.846        0.746        0.299       94.180       13.174        0.020      330.157       -2.651      871.508
01/22/2022  04:44:00     -132.257       48.065      -10.347       37.363       21.702       24.433     1395.967      470.987      596.963        1.119        0.123      140.721       20.528        0.021      330.149       -2.663      871.511
01/22/2022  04:45:00     -116.516       34.550       -5.897       42.581       35.409       25.218     1813.151     1253.833      635.928        0.925        0.185      121.531       21.431        0.031      330.162       -2.642      871.505
01/22/2022  04:46:00      -99.630       29.873       -3.877       34.112       24.258       19.405     1163.600      588.445      376.571        0.648        0.106      104.012       19.456        0.035      330.146       -2.669      871.505
01/22/2022  04:47:00     -106.948       29.193      -12.069       23.348       20.827       14.291      545.124      433.770      204.233        0.681        0.059      110.861       10.940        0.010      330.179       -2.614      871.517
01/22/2022  04:48:00     -108.860       33.006       -7.633       28.113       30.016       19.947      790.350      900.978      397.870        0.754        0.104      113.754       10.704        0.009      330.155       -2.654      871.523
01/22/2022  04:49:00     -105.107       31.662       -9.715       33.648       32.792       22.224     1132.174     1075.314      493.920        0.742        0.135      109.772       17.175        0.024      330.164       -2.637      871.528
01/22/2022  04:50:00     -112.603       58.781      -13.692       35.879       32.298       25.598     1287.286     1043.138      655.249        0.965        0.149      127.022       18.940        0.022      330.078       -2.780      871.535
01/22/2022  04:51:00     -170.408       92.430      -11.866       39.091       30.217       26.087     1528.124      913.089      680.555        2.042        0.156      193.861       15.460        0.006      330.004       -2.900      871.531
01/22/2022  04:52:00     -151.990       59.322      -10.101       61.676       33.134       29.507     3803.946     1097.850      870.684        1.625        0.289      163.156       32.956        0.041      329.973       -2.952      871.516
01/22/2022  04:53:00      -98.241       30.547       -2.094       84.112       40.024       33.560     7074.756     1601.917     1126.254        1.019        0.490      102.880       42.963        0.174      329.956       -2.979      871.518
01/22/2022  04:54:00     -108.885       33.979       -3.225       64.618       44.686       42.885     4175.535     1996.816     1839.114        1.051        0.401      114.064       37.119        0.106      329.884       -3.096      871.528
01/22/2022  04:55:00     -175.867       34.112      -24.644       48.271       45.582       31.876     2330.103     2077.732     1016.099        1.906        0.271      179.145       21.645        0.015      329.905       -3.063      871.519
01/22/2022  04:56:00     -116.059       35.410      -31.386       52.872       39.744       30.839     2795.482     1579.582      951.017        1.052        0.266      121.340       19.304        0.025      329.983       -2.935      871.499
01/22/2022  04:57:00     -159.394       23.438      -15.282       60.228       34.218       32.166     3627.445     1170.900     1034.676        1.601        0.292      161.108       22.676        0.020      329.978       -2.943      871.499
01/22/2022  04:58:00      -82.288       14.542      -24.614       64.018       40.005       31.887     4098.261     1600.421     1016.810        0.715        0.336       83.563       25.757        0.095      330.004       -2.900      871.505
01/22/2022  04:59:00     -107.276       24.607      -19.254       52.738       34.515       24.360     2781.315     1191.311      593.431        0.852        0.228      110.062        9.040        0.007      329.999       -2.908      871.514
01/22/2022  05:00:00      -52.070        8.027      -10.082       39.095       40.671       19.861     1528.438     1654.153      394.448        0.323        0.179       52.685       12.000        0.052      330.001       -2.906      871.509
01/22/2022  05:01:00      -88.837       30.810       -5.650       51.386       36.363       28.131     2640.531     1322.264      791.331        0.681        0.238       94.028       26.402        0.079      330.016       -2.881      871.494
01/22/2022  05:02:00     -141.290       17.470      -12.706       63.716       39.825       23.791     4059.719     1585.999      566.029        1.332        0.311      142.366       28.432        0.040      330.077       -2.781      871.468
01/22/2022  05:03:00     -161.872       60.601      -17.316       36.504       20.763       24.222     1332.559      431.105      586.720        1.626        0.118      172.844       13.955        0.007      329.981       -2.938      871.430
01/22/2022  05:04:00     -131.409       79.403      -10.638       31.591       30.703       24.492      997.987      942.694      599.850        1.311        0.127      153.536       16.785        0.012      330.021       -2.872      871.406
01/22/2022  05:05:00     -103.409       46.706      -15.101       24.520       25.628       19.317      601.252      656.773      373.140        0.737        0.082      113.467       10.864        0.009      330.032       -2.853      871.399
01/22/2022  05:06:00      -72.876       35.979       -4.434       44.606       29.118       20.080     1989.658      847.883      403.213        0.493        0.162       81.273       19.117        0.055      329.988       -2.927      871.400
01/22/2022  05:07:00      -74.973       36.536       -0.484       51.639       31.583       26.542     2666.547      997.464      704.495        0.566        0.218       83.402       27.279        0.107      330.004       -2.901      871.410
01/22/2022  05:08:00      -80.392      -10.794       -8.559       42.679       28.468       21.767     1821.521      810.401      473.820        0.488        0.155       81.113       21.573        0.071      330.186       -2.603      871.417
01/22/2022  05:09:00     -146.883        7.698      -25.070       30.945       32.325       24.177      957.586     1044.903      584.510        1.242        0.129      147.085       16.928        0.013      330.551       -2.003      871.403
01/22/2022  05:10:00     -123.402       27.038      -17.948       59.332       38.486       26.096     3520.284     1481.143      681.000        1.098        0.284      126.330       27.520        0.047      330.523       -2.049      871.373
01/22/2022  05:11:00     -130.219       30.418      -16.617       39.913       24.431       24.645     1593.037      596.890      607.400        1.048        0.140      133.725       13.614        0.010      330.275       -2.456      871.368
01/22/2022  05:12:00     -119.360       37.038       -1.843       64.151       47.079       35.480     4115.378     2216.403     1258.799        1.160        0.380      124.974       35.321        0.080      329.989       -2.925      871.372
01/22/2022  05:13:00     -138.658       45.282      -12.311       51.231       43.201       33.092     2624.664     1866.340     1095.067        1.351        0.279      145.865       25.183        0.030      329.863       -3.133      871.368
01/22/2022  05:14:00     -196.473       91.472       -6.480       50.979       41.474       34.703     2598.888     1720.052     1204.306        2.627        0.276      216.722       31.078        0.021      329.851       -3.155      871.368
01/22/2022  05:15:00     -196.445       96.619      -10.326       46.233       37.285       35.603     2137.473     1390.206     1267.593        2.641        0.240      218.920       32.003        0.021      329.793       -3.247      871.383
01/22/2022  05:16:00      -68.278        4.567       -3.948       83.740       43.211       33.768     7012.385     1867.148     1140.300        0.736        0.501       68.431       25.680        0.141      329.888       -3.091      871.395
01/22/2022  05:17:00      -97.000       24.583      -20.871       87.678       42.923       23.985     7687.465     1842.376      575.259        1.028        0.505      100.067       22.206        0.049      330.000       -2.908      871.403
01/22/2022  05:18:00      -87.673        5.586      -12.751       78.454       32.678       37.852     6154.952     1067.879     1432.783        0.827        0.433       87.851       44.778        0.260      330.029       -2.859      871.413
01/22/2022  05:19:00      -85.334       25.702      -15.807       72.462       36.740       28.875     5250.708     1349.835      833.744        0.781        0.372       89.120       22.743        0.065      330.003       -2.903      871.423
01/22/2022  05:20:00     -116.317       35.870       -5.515       62.459       48.103       33.954     3901.067     2313.916     1152.841        1.111        0.368      121.722       16.710        0.019      329.926       -3.029      871.431
01/22/2022  05:21:00     -112.945       41.795      -25.910       53.809       35.141       32.242     2895.457     1234.858     1039.532        1.017        0.258      120.430       23.389        0.038      330.038       -2.844      871.424
01/22/2022  05:22:00     -156.167       50.975      -37.492       50.323       32.192       28.117     2532.447     1036.330      790.589        1.638        0.218      164.276       18.482        0.013      329.968       -2.960      871.402
01/22/2022  05:23:00     -131.050       54.025      -37.070       41.246       35.233       30.545     1701.240     1241.340      933.018        1.267        0.194      141.749       18.707        0.017      330.018       -2.878      871.399
01/22/2022  05:24:00      -89.218       42.966      -23.995       55.891       43.865       33.515     3123.824     1924.155     1123.237        0.828        0.309       99.025       24.231        0.060      330.030       -2.859      871.406
01/22/2022  05:25:00     -144.324       64.966      -11.547       39.684       30.164       27.964     1574.790      909.852      781.991        1.422        0.163      158.272       21.920        0.019      329.984       -2.933      871.417
01/22/2022  05:26:00     -144.161       60.892       -9.410       51.079       44.766       33.359     2609.030     2003.957     1112.846        1.515        0.286      156.493       15.062        0.009      329.980       -2.941      871.418
01/22/2022  05:27:00      -91.138       36.244      -11.232       47.888       48.601       31.044     2293.301     2362.066      963.761        0.768        0.281       98.080       24.724        0.064      330.009       -2.892      871.418
01/22/2022  05:28:00      -72.079       13.409       -5.112       69.870       32.114       28.855     4881.789     1031.310      832.632        0.607        0.337       73.316       27.726        0.143      330.030       -2.858      871.436
01/22/2022  05:29:00      -88.904       22.134      -11.660       52.945       34.679       32.201     2803.124     1202.642     1036.925        0.679        0.252       91.618       27.841        0.092      330.071       -2.792      871.459
01/22/2022  05:30:00      -99.686       13.506      -11.641       69.442       45.766       25.119     4822.259     2094.571      630.984        0.890        0.377      100.597       27.452        0.074      330.038       -2.846      871.469
01/22/2022  05:31:00     -137.322       23.875       -8.152       64.404       51.135       34.729     4147.835     2614.779     1206.100        1.373        0.398      139.382       31.744        0.052      329.926       -3.029      871.450
01/22/2022  05:32:00     -140.471       66.249        1.824       64.450       50.734       36.703     4153.814     2573.890     1347.076        1.610        0.404      155.309       31.921        0.042      329.802       -3.232      871.438
01/22/2022  05:33:00     -118.333       46.826        1.101       74.733       45.747       32.954     5584.991     2092.746     1085.953        1.248        0.438      127.261       36.195        0.081      329.823       -3.199      871.431
01/22/2022  05:34:00     -148.341       52.966      -23.167       33.145       26.673       24.179     1098.572      711.446      584.623        1.387        0.120      157.514       11.077        0.005      329.902       -3.068      871.418
01/22/2022  05:35:00     -114.395       44.560      -22.984       33.224       26.531       24.655     1103.824      703.873      607.873        0.901        0.121      122.767       17.322        0.020      329.959       -2.973      871.417
01/22/2022  05:36:00     -126.770       34.186      -16.611       41.575       24.939       18.680     1728.483      621.955      348.942        1.011        0.135      131.299        9.224        0.005      329.972       -2.953      871.428
01/22/2022  05:37:00     -168.770       39.182       -6.173       67.201       31.175       28.023     4515.962      971.879      785.290        1.816        0.314      173.259       31.077        0.032      329.909       -3.059      871.467
01/22/2022  05:38:00     -150.054       44.749       -2.710       57.762       37.192       31.320     3336.462     1383.279      980.912        1.511        0.285      156.585       30.857        0.039      329.873       -3.116      871.500
01/22/2022  05:39:00     -122.930       27.255      -11.280       59.040       38.093       30.269     3485.718     1451.040      916.189        1.092        0.293      125.915       28.416        0.051      329.891       -3.087      871.514
01/22/2022  05:40:00      -72.783        4.322        6.082       73.770       34.674       28.222     5441.941     1202.316      796.503        0.640        0.372       72.911       28.561        0.153      329.940       -3.004      871.524
01/22/2022  05:41:00     -155.950       39.344      -18.175       39.013       32.074       28.254     1522.021     1028.756      798.304        1.477        0.167      160.837        8.812        0.003      329.932       -3.019      871.527
01/22/2022  05:42:00     -161.688       60.177       -2.258       39.907       36.020       26.348     1592.579     1297.420      694.194        1.668        0.179      172.523       23.192        0.018      329.933       -3.018      871.546
01/22/2022  05:43:00     -105.918       32.930      -16.043       50.383       33.573       21.596     2538.444     1127.137      466.406        0.835        0.207      110.919       15.772        0.020      330.038       -2.845      871.572
01/22/2022  05:44:00      -78.664       27.110      -16.089       47.316       36.992       26.914     2238.840     1368.418      724.350        0.576        0.217       83.204       20.813        0.063      330.100       -2.744      871.607
01/22/2022  05:45:00     -127.276       52.240      -23.369       28.531       31.106       26.510      814.000      967.569      702.801        1.098        0.124      137.580       14.429        0.011      330.195       -2.587      871.641
01/22/2022  05:46:00     -111.441       46.887      -18.071       38.944       33.374       22.002     1516.636     1113.833      484.094        0.903        0.156      120.903       17.359        0.021      330.157       -2.650      871.671
01/22/2022  05:47:00      -45.687       12.386       -9.073       41.539       30.416       29.278     1725.514      925.111      857.176        0.291        0.175       47.336       23.666        0.250      330.158       -2.649      871.690
01/22/2022  05:48:00      -57.556       34.754      -23.663       42.640       35.396       25.844     1818.138     1252.901      667.924        0.441        0.187       67.234        8.584        0.016      330.124       -2.704      871.691
01/22/2022  05:49:00      -77.344       31.272      -24.033       44.981       50.112       29.367     2023.332     2511.241      862.393        0.647        0.270       83.427       26.215        0.099      330.049       -2.827      871.686
01/22/2022  05:50:00      -74.932       17.578      -19.567       56.208       34.732       32.231     3159.296     1206.306     1038.857        0.585        0.270       76.966       27.427        0.127      330.040       -2.842      871.681
01/22/2022  05:51:00      -88.017        9.294      -28.674       57.310       32.592       28.719     3284.459     1062.264      824.765        0.691        0.259       88.506       21.852        0.061      330.054       -2.819      871.679
01/22/2022  05:52:00      -59.676       11.014       -9.330       49.473       28.283       23.591     2447.541      799.912      556.515        0.379        0.190       60.684       24.157        0.158      330.164       -2.639      871.685
01/22/2022  05:53:00        9.426        1.858        9.818       15.470       17.819       19.714      239.330      317.515      388.648        0.057        0.047        9.607        8.346        0.755      330.083       -2.771      871.687
01/22/2022  05:54:00       25.752       17.510       -4.289       18.830       28.923       23.231      354.573      836.515      539.678        0.136        0.087       31.141       19.634        0.397      330.042       -2.839      871.690
01/22/2022  05:55:00      -55.532       15.403      -23.043       43.474       32.921       32.436     1889.983     1083.796     1052.105        0.394        0.201       57.628       24.069        0.174      330.126       -2.702      871.697
01/22/2022  05:56:00      -27.158       17.641      -10.977       31.674       19.542       17.012     1003.244      381.899      289.418        0.142        0.084       32.384       10.519        0.106      330.144       -2.673      871.703
01/22/2022  05:57:00      -43.819        1.573       -4.695       46.991       29.541       23.534     2208.129      872.670      553.841        0.279        0.182       43.847       23.792        0.294      330.163       -2.640      871.701
01/22/2022  05:58:00      -88.188       38.051      -16.988       14.860       12.790       14.332      220.818      163.575      205.401        0.505        0.029       96.047        9.911        0.011      330.417       -2.223      871.687
01/22/2022  05:59:00      -63.237       -2.263      -14.558       18.799       21.190       16.092      353.414      449.016      258.957        0.264        0.053       63.278       10.555        0.028      330.261       -2.479      871.691
01/22/2022  06:00:00      -62.459      -19.648      -19.137       28.670       29.586       23.647      821.944      875.345      559.194        0.345        0.113       65.477       14.718        0.051      330.081       -2.775      871.706
01/22/2022  06:01:00      -75.877       -8.320      -15.611       29.211       23.224       22.450      853.305      539.333      503.992        0.398        0.095       76.331       18.304        0.058      330.200       -2.582      871.717
01/22/2022  06:02:00      -58.906       -3.368      -13.381       27.020       23.225       20.857      730.072      539.403      435.004        0.268        0.085       59.002       16.274        0.076      330.226       -2.536      871.722
01/22/2022  06:03:00      -64.906        0.061       -7.399       49.631       39.906       27.669     2463.227     1592.509      765.595        0.454        0.241       64.906       26.844        0.171      330.114       -2.721      871.715
01/22/2022  06:04:00      -79.238        6.689      -22.693       31.632       23.772       17.692     1000.570      565.107      313.004        0.436        0.094       79.520       14.962        0.035      330.148       -2.666      871.700
01/22/2022  06:05:00      -41.033       14.179      -17.536       35.030       21.286       15.386     1227.095      453.098      236.731        0.205        0.096       43.414       12.138        0.078      330.183       -2.607      871.682
01/22/2022  06:06:00      -49.306       12.266      -14.107       30.425       25.867       16.739      925.694      669.113      280.185        0.233        0.094       50.808       15.721        0.096      330.159       -2.646      871.685
01/22/2022  06:07:00     -101.884       28.233      -12.608       34.981       26.825       13.115     1223.697      719.562      172.014        0.673        0.106      105.723        2.648        0.001      330.118       -2.714      871.683
01/22/2022  06:08:00     -139.432       24.508      -12.940       34.726       31.878       26.282     1205.864     1016.176      690.760        1.156        0.146      141.569       19.312        0.019      330.000       -2.908      871.686
01/22/2022  06:09:00      -58.100       15.196      -15.971       57.764       32.744       20.853     3336.642     1072.153      434.837        0.435        0.242       60.054        5.237        0.008      330.028       -2.862      871.678
01/22/2022  06:10:00      -31.203       -7.802       -4.276       56.527       28.378       22.135     3195.318      805.327      489.941        0.277        0.225       32.164       19.757        0.377      330.073       -2.786      871.687
01/22/2022  06:11:00      -18.432       22.365       -4.635       21.540       30.556       20.323      463.988      933.655      413.044        0.134        0.091       28.982       13.467        0.216      329.967       -2.960      871.704
01/22/2022  06:12:00       -4.659        3.419        2.786       21.016       24.786       15.101      441.660      614.365      228.048        0.066        0.064        5.779       12.271        4.509      329.961       -2.972      871.708
01/22/2022  06:13:00      -41.272        2.885      -11.332       31.178       20.279       24.884      972.070      411.234      619.206        0.192        0.100       41.372       18.683        0.204      329.954       -2.982      871.697
01/22/2022  06:14:00      -54.517       -3.808      -12.769       37.531       25.565       28.572     1408.588      653.545      816.347        0.301        0.144       54.650       20.857        0.146      329.973       -2.951      871.697
01/22/2022  06:15:00      -24.309       -8.440      -14.325       33.730       21.679       25.473     1137.730      469.967      648.880        0.156        0.113       25.732       17.806        0.479      330.009       -2.894      871.702
01/22/2022  06:16:00      -43.602       11.656      -16.628       41.095       28.845       27.856     1688.828      832.005      775.944        0.280        0.165       45.133       23.168        0.264      330.046       -2.832      871.702
01/22/2022  06:17:00      -28.217        0.701      -24.185       26.183       27.274       23.410      685.563      743.850      548.048        0.168        0.099       28.226       17.099        0.367      330.005       -2.898      871.707
01/22/2022  06:18:00      -15.044        5.349      -14.584       22.123       23.376       19.645      489.407      546.450      385.936        0.094        0.071       15.967       12.739        0.637      329.952       -2.986      871.708
01/22/2022  06:19:00      -30.223       13.878      -13.365       34.066       30.599       26.507     1160.463      936.329      702.625        0.204        0.140       33.257       24.655        0.550      329.951       -2.986      871.701
01/22/2022  06:20:00      -25.860       11.319      -13.859       33.051       34.590       20.931     1092.347     1196.459      438.102        0.186        0.136       28.229       14.067        0.248      329.954       -2.982      871.698
01/22/2022  06:21:00      -45.320       24.225      -28.061       40.017       27.460       24.592     1601.357      754.058      604.768        0.319        0.148       51.389       17.365        0.114      329.927       -3.026      871.711
01/22/2022  06:22:00      -24.696       -0.253       -9.118       36.713       32.959       31.610     1347.842     1086.290      999.203        0.206        0.172       24.697       25.942        1.103      329.917       -3.042      871.742
01/22/2022  06:23:00       -2.923       16.135       10.436       19.153       36.191       29.257      366.819     1309.793      855.989        0.145        0.127       16.398       16.292        0.987      329.830       -3.187      871.754
01/22/2022  06:24:00      -14.971       -1.098      -16.544       49.142       40.066       34.109     2414.892     1605.283     1163.409        0.284        0.259       15.011       29.616        3.892      329.881       -3.102      871.771
01/22/2022  06:25:00      -91.885       26.660      -16.289       51.841       34.766       31.019     2687.456     1208.672      962.191        0.714        0.243       95.675       22.711        0.056      329.851       -3.150      871.771
01/22/2022  06:26:00      -91.731       23.126      -16.693       76.854       36.015       22.374     5906.600     1297.053      500.577        0.846        0.385       94.601       12.394        0.017      329.857       -3.142      871.765
01/22/2022  06:27:00     -103.640       29.798      -32.617       81.962       48.141       29.908     6717.775     2317.598      894.475        1.131        0.496      107.839       28.485        0.070      329.819       -3.203      871.746
01/22/2022  06:28:00     -109.667       17.798      -25.661       67.863       43.270       36.672     4605.331     1872.317     1344.830        1.041        0.391      111.101       20.218        0.033      329.838       -3.173      871.731
01/22/2022  06:29:00      -56.356      -12.672      -23.372       57.698       43.520       27.763     3329.071     1893.970      770.770        0.494        0.300       57.763       14.536        0.063      329.912       -3.049      871.726
01/22/2022  06:30:00       16.095       -7.251      -13.968       30.005       23.747       17.148      900.278      563.917      294.047        0.113        0.088       17.653        9.566        0.294      329.916       -3.044      871.718
01/22/2022  06:31:00      -44.655       -6.697      -12.161       65.252       38.014       25.288     4257.801     1445.071      639.486        0.426        0.317       45.154       27.079        0.360      329.907       -3.060      871.726
01/22/2022  06:32:00      -18.859       -1.334       -1.367       47.873       27.332       30.767     2291.784      747.012      946.599        0.217        0.199       18.906       26.998        2.039      329.915       -3.047      871.746
01/22/2022  06:33:00      -54.777        8.868        1.796       42.202       30.427       24.876     1781.018      925.829      618.812        0.320        0.166       55.490       18.984        0.117      329.916       -3.043      871.762
01/22/2022  06:34:00      -94.590       15.846      -13.194       41.778       21.787       19.605     1745.381      474.672      384.359        0.599        0.130       95.908       14.564        0.023      329.963       -2.967      871.767
01/22/2022  06:35:00      -39.404        3.729      -11.457       38.089       28.677       24.902     1450.796      822.376      620.088        0.230        0.145       39.580       19.144        0.234      329.939       -3.007      871.761
01/22/2022  06:36:00     -104.601        6.226      -14.050       49.770       35.237       28.088     2477.046     1241.673      788.960        0.784        0.225      104.786       27.191        0.067      329.996       -2.914      871.751
01/22/2022  06:37:00      -33.223       -7.694      -10.422       54.622       20.950       30.309     2983.567      438.894      918.645        0.281        0.217       34.102       29.988        0.773      329.906       -3.060      871.743
01/22/2022  06:38:00        6.522       14.819        9.443       31.587       30.473       31.263      997.718      928.608      977.388        0.163        0.145       16.191       22.804        1.984      329.873       -3.115      871.726
01/22/2022  06:39:00      -86.807       63.689      -21.989       40.570       29.788       23.803     1645.894      887.328      566.587        0.759        0.155      107.665       13.929        0.017      329.914       -3.049      871.723
01/22/2022  06:40:00     -142.023       53.177      -23.993       43.672       26.212       21.508     1907.273      687.053      462.609        1.331        0.153      151.652        9.155        0.004      329.884       -3.098      871.721
01/22/2022  06:41:00     -111.039       28.485      -23.432       33.930       22.442       21.101     1151.255      503.628      445.250        0.789        0.105      114.634        4.618        0.002      329.868       -3.125      871.708
01/22/2022  06:42:00      -16.431       15.823       -2.893       38.143       24.400       22.549     1454.872      595.364      508.442        0.154        0.128       22.811       19.840        0.756      329.914       -3.047      871.682
01/22/2022  06:43:00      -69.864       22.330      -28.127       36.976       29.978       26.680     1367.238      898.709      711.849        0.457        0.149       73.346       22.574        0.095      330.119       -2.712      871.670
01/22/2022  06:44:00      -88.636       27.423      -24.369       25.203       27.651       18.273      635.185      764.602      333.896        0.547        0.087       92.781        8.834        0.009      330.120       -2.711      871.673
01/22/2022  06:45:00      -53.281       -4.676      -18.638       24.804       20.211       13.402      615.230      408.492      179.603        0.221        0.060       53.486        8.632        0.026      329.968       -2.958      871.711
01/22/2022  06:46:00        0.088       -4.233       -7.020       23.967       16.130       15.563      574.411      260.163      242.198        0.057        0.054        4.234       15.709       13.767      330.062       -2.807      871.748
01/22/2022  06:47:00       -5.195       -7.607       -7.353       22.271       19.894       13.047      495.998      395.756      170.236        0.060        0.053        9.212       11.411        1.534      330.192       -2.592      871.775
01/22/2022  06:48:00      -31.517        4.616      -11.436       26.966       26.558       14.380      727.157      705.320      206.780        0.139        0.082       31.853       12.373        0.151      330.001       -2.905      871.778
01/22/2022  06:49:00        2.757       -2.653      -10.829       17.410       18.254       13.908      303.117      333.217      193.420        0.048        0.041        3.826        7.582        3.927      329.990       -2.922      871.787
01/22/2022  06:50:00      -11.533       11.562       -6.261       19.345       19.032       12.723      374.222      362.203      161.887        0.060        0.045       16.331        5.673        0.121      330.001       -2.905      871.798
01/22/2022  06:51:00      -30.269        0.463       -6.556       24.512       26.056       16.798      600.832      678.913      282.163        0.126        0.078       30.273       14.317        0.224      329.939       -3.006      871.794
01/22/2022  06:52:00      -18.878       11.561       -7.897       33.353       17.111       15.255     1112.442      292.801      232.724        0.109        0.082       22.137       13.951        0.397      329.945       -2.996      871.794
01/22/2022  06:53:00      -52.810       22.232      -23.801       21.411       15.663       16.150      458.427      245.317      260.829        0.241        0.048       57.299        9.739        0.029      329.988       -2.926      871.806
01/22/2022  06:54:00        7.808       -2.541      -16.353       15.696       26.236       16.967      246.372      688.351      287.889        0.078        0.061        8.211       15.370        3.504      329.882       -3.101      871.811
01/22/2022  06:55:00      -20.301        4.525       -9.499       28.869       21.407       21.405      833.430      458.260      458.163        0.114        0.087       20.799       16.196        0.606      329.839       -3.172      871.811
01/22/2022  06:56:00      -19.681       15.315      -15.453       36.775       30.711       23.496     1352.371      943.174      552.052        0.185        0.142       24.937       19.614        0.619      329.847       -3.158      871.817
01/22/2022  06:57:00      -27.556      -12.646      -16.234       39.711       21.780       23.386     1576.925      474.350      546.897        0.189        0.130       30.319       18.925        0.390      329.872       -3.117      871.806
01/22/2022  06:58:00      -53.407       15.083      -24.839       38.441       32.303       29.940     1477.695     1043.466      896.413        0.356        0.171       55.496       24.870        0.201      329.869       -3.121      871.781
01/22/2022  06:59:00      -24.752        6.910      -20.119       22.494       30.974       17.506      505.990      959.360      306.471        0.142        0.089       25.698       13.358        0.270      329.899       -3.072      871.780
01/22/2022  07:00:00      -60.153       14.458      -21.614       23.912       36.376       24.162      571.801     1323.203      583.799        0.339        0.124       61.866       17.122        0.077      329.899       -3.071      871.801
01/22/2022  07:01:00      -42.224        1.362       -9.959       27.134       24.279       18.423      736.275      589.451      339.409        0.177        0.083       42.246       12.756        0.091      329.926       -3.029      871.812
01/22/2022  07:02:00      -23.508       -2.716       -4.843       22.676       21.665       15.705      514.211      469.357      246.635        0.091        0.062       23.664       12.394        0.274      329.827       -3.191      871.806
01/22/2022  07:03:00      -83.286        9.114      -26.648       38.812       18.769       18.297     1506.363      352.290      334.797        0.496        0.110       83.783       14.022        0.028      329.878       -3.107      871.794
01/22/2022  07:04:00      -42.767       -5.284       -1.131       49.036       31.347       25.176     2404.532      982.646      633.819        0.294        0.201       43.092       27.048        0.394      329.826       -3.193      871.791
01/22/2022  07:05:00      -23.467        4.019       -9.772       25.432       22.829       14.214      646.782      521.147      202.028        0.102        0.068       23.809       16.568        0.484      329.904       -3.064      871.790
01/22/2022  07:06:00      -72.434       38.971      -18.470       17.885       15.978       12.137      319.888      255.304      147.299        0.391        0.036       82.252        8.938        0.012      329.901       -3.069      871.781
01/22/2022  07:07:00      -20.785        7.135      -13.491       23.567       17.891       12.816      555.418      320.074      164.251        0.085        0.052       21.975        8.281        0.142      329.901       -3.069      871.776
01/22/2022  07:08:00      -55.913       38.386      -20.839       15.401       13.335       10.992      237.201      177.833      120.823        0.278        0.027       67.822        8.982        0.018      329.790       -3.253      871.785
01/22/2022  07:09:00      -62.410       26.008      -19.038       13.082       13.567       13.183      171.130      184.071      173.801        0.273        0.026       67.612        7.223        0.011      329.896       -3.075      871.800
01/22/2022  07:10:00      -43.752      -23.033      -13.097       18.739       17.267       13.146      351.148      298.146      172.818        0.172        0.041       49.444        7.570        0.023      330.188       -2.599      871.810
01/22/2022  07:11:00      -43.072       -0.399       -8.027       18.344       19.967       11.134      336.487      398.681      123.973        0.139        0.043       43.074        6.977        0.026      330.041       -2.840      871.801
01/22/2022  07:12:00      -53.099       16.934      -16.496       38.804       15.876       11.793     1505.787      252.038      139.077        0.264        0.095       55.733       12.096        0.047      329.913       -3.051      871.801
01/22/2022  07:13:00      -69.003       23.964      -16.035       11.631       11.495       10.556      135.291      132.134      111.439        0.299        0.019       73.045        6.145        0.007      329.838       -3.172      871.806
01/22/2022  07:14:00      -54.379       16.022      -14.808       12.432       24.104       12.388      154.562      581.024      153.466        0.216        0.044       56.691        6.710        0.014      329.830       -3.185      871.792
01/22/2022  07:15:00      -45.733        6.128      -14.997       17.848       16.205       15.394      318.559      262.614      236.967        0.159        0.041       46.142       11.195        0.059      329.860       -3.136      871.772
01/22/2022  07:16:00      -46.605       10.413      -17.044       13.453       12.951        8.874      180.977      167.739       78.752        0.150        0.021       47.754        3.281        0.005      330.066       -2.799      871.769
01/22/2022  07:17:00      -64.181       17.039      -17.605       13.293       11.180        9.400      176.692      125.000       88.352        0.255        0.020       66.404        5.592        0.007      329.909       -3.055      871.771
01/22/2022  07:18:00      -28.956       -4.220       -9.705       16.424       11.163       10.577      269.732      124.610      111.871        0.073        0.025       29.262        5.690        0.038      330.043       -2.836      871.779
01/22/2022  07:19:00      -35.555        9.346      -15.680       18.167       18.202       14.774      330.042      331.320      218.281        0.124        0.044       36.763        8.798        0.057      330.103       -2.738      871.778
01/22/2022  07:20:00      -52.265       16.069      -16.225       29.960       14.851       11.746      897.574      220.564      137.974        0.225        0.063       54.680        9.902        0.033      329.921       -3.036      871.774
01/22/2022  07:21:00      -68.644       35.470      -22.819       12.305       13.141       11.925      151.403      172.695      142.201        0.348        0.023       77.267        9.646        0.016      329.862       -3.134      871.777
01/22/2022  07:22:00      -54.740       17.829      -18.512       21.379       14.890       17.390      457.052      221.699      302.425        0.232        0.049       57.570        8.049        0.020      329.875       -3.111      871.776
01/22/2022  07:23:00      -76.831       20.603      -25.567       23.299       21.557       16.065      542.833      464.687      258.098        0.412        0.063       79.546        9.508        0.014      329.892       -3.083      871.770
01/22/2022  07:24:00      -49.073       -4.693      -15.057       27.795       21.317       18.717      772.557      454.402      350.309        0.212        0.079       49.297       14.510        0.087      329.825       -3.193      871.768
01/22/2022  07:25:00      -96.978       39.305      -18.200       14.001       16.117       10.931      196.041      259.771      119.476        0.593        0.029      104.640        6.560        0.004      329.884       -3.098      871.772
01/22/2022  07:26:00      -80.351       46.976      -15.399       16.992       16.919       12.081      288.713      286.245      145.962        0.481        0.036       93.076        8.345        0.008      329.865       -3.129      871.761
01/22/2022  07:27:00      -57.518       33.007      -14.780       15.898       12.214       12.044      252.750      149.175      145.059        0.258        0.027       66.316        5.487        0.007      329.873       -3.115      871.759
01/22/2022  07:28:00      -74.347       10.143      -10.263       20.120       18.332       13.977      404.831      336.073      195.363        0.334        0.047       75.036       10.726        0.020      329.953       -2.983      871.772
01/22/2022  07:29:00      -15.271        7.459       -7.692       14.963       14.463       13.928      223.887      209.179      194.000        0.049        0.031       16.995        9.201        0.293      329.981       -2.939      871.777
01/22/2022  07:30:00      -15.665        3.581      -12.457       11.620        8.447       13.449      135.015       71.357      180.886        0.040        0.019       16.069        9.443        0.345      330.089       -2.762      871.772
01/22/2022  07:31:00       13.266       37.016       -6.714       29.878       11.262        9.887      892.723      126.826       97.752        0.135        0.056       39.322        8.074        0.042      330.369       -2.302      871.757
01/22/2022  07:32:00       54.131       39.939      -14.268       15.877       10.867       12.186      252.086      118.100      148.504        0.262        0.026       67.270       11.417        0.029      330.769       -1.645      871.746
01/22/2022  07:33:00       35.617       19.046      -16.046       29.042       40.354       24.428      843.430     1628.472      596.735        0.248        0.153       40.390       24.940        0.381      330.429       -2.205      871.773
01/22/2022  07:34:00       80.191       17.189       -8.883       15.185       18.550       12.147      230.569      344.085      147.552        0.376        0.036       82.013        8.279        0.010      330.563       -1.984      871.809
01/22/2022  07:35:00       33.603       36.754       -8.408       17.496       20.441       14.287      306.113      417.848      204.131        0.174        0.046       49.800       11.315        0.052      330.466       -2.143      871.825
01/22/2022  07:36:00       63.516       72.292       -9.230       24.358       25.734       15.734      593.311      662.233      247.574        0.542        0.075       96.231       14.989        0.024      330.609       -1.909      871.848
01/22/2022  07:37:00       58.804       69.505      -10.850       29.240       28.842       17.260      854.957      831.851      297.907        0.520        0.099       91.044       12.287        0.018      330.578       -1.960      871.869
01/22/2022  07:38:00       57.738      101.273       -8.875       31.142       31.717       17.442      969.814     1005.981      304.214        0.797        0.114      116.576       16.970        0.021      330.840       -1.530      871.872
01/22/2022  07:39:00       60.399      109.239      -16.467       38.676       24.709       23.134     1495.859      610.532      535.203        0.925        0.132      124.824       21.199        0.029      330.907       -1.419      871.890
01/22/2022  07:40:00       43.260      104.505       -6.440       30.188       27.886       21.846      911.289      777.624      477.263        0.750        0.108      113.105       11.801        0.011      330.912       -1.412      871.909
01/22/2022  07:41:00       41.994       77.442      -11.245       31.345       31.166       20.275      982.478      971.323      411.071        0.513        0.118       88.095       17.187        0.038      330.944       -1.359      871.915
01/22/2022  07:42:00       25.909       58.349       -2.489       30.008       23.479       21.067      900.471      551.269      443.805        0.299        0.095       63.843       16.802        0.069      330.917       -1.403      871.925
01/22/2022  07:43:00       37.289       56.718      -11.916       27.330       28.126       18.455      746.918      791.050      340.598        0.331        0.094       67.878       16.834        0.062      330.938       -1.371      871.946
01/22/2022  07:44:00       54.783       45.677      -10.280       21.617       16.523       14.956      467.278      273.018      223.693        0.308        0.048       71.327        9.422        0.017      330.885       -1.456      871.973
01/22/2022  07:45:00       18.506       38.593       -4.731       18.402       13.823       17.120      338.622      191.073      293.108        0.134        0.041       42.801       13.843        0.105      330.821       -1.561      871.991
01/22/2022  07:46:00       50.683       55.089      -10.458       12.559       14.703       12.041      157.734      216.189      144.977        0.312        0.026       74.857        7.363        0.010      330.773       -1.639      872.023
01/22/2022  07:47:00       32.867       42.831       -4.686       19.606       15.821       11.566      384.384      250.291      133.770        0.185        0.038       53.989        7.253        0.018      330.854       -1.507      872.044
01/22/2022  07:48:00       61.147       50.906      -10.915       19.957       18.028       17.541      398.287      324.998      307.694        0.374        0.052       79.564       10.934        0.019      330.856       -1.503      872.064
01/22/2022  07:49:00       57.653       59.788      -12.452       22.352       20.838       15.723      499.618      434.226      247.201        0.412        0.059       83.057       14.292        0.030      330.930       -1.383      872.070
01/22/2022  07:50:00       54.431       41.671       -9.261       18.933       14.449       13.008      358.476      208.774      169.206        0.276        0.037       68.550        3.560        0.003      330.903       -1.427      872.091
01/22/2022  07:51:00       61.141       42.377       -9.544       27.109       18.087       15.873      734.913      327.155      251.962        0.347        0.066       74.391        8.352        0.013      330.910       -1.416      872.110
01/22/2022  07:52:00       57.728       39.748       -9.045       22.163       16.571       13.594      491.209      274.595      184.793        0.297        0.048       70.088        7.870        0.013      330.965       -1.325      872.124
01/22/2022  07:53:00       65.551       63.545      -14.718       25.694       18.049       15.378      660.200      325.754      236.472        0.489        0.061       91.295       13.632        0.022      330.998       -1.271      872.132
01/22/2022  07:54:00       71.715       78.246      -14.032       21.738       17.961       12.997      472.558      322.600      168.911        0.621        0.048      106.139       10.838        0.010      331.014       -1.246      872.154
01/22/2022  07:55:00       94.140       76.634      -17.786       27.007       19.403       15.841      729.390      376.460      250.940        0.820        0.068      121.389        9.533        0.006      331.015       -1.242      872.183
01/22/2022  07:56:00      119.758       82.300      -15.718       29.393       20.126       14.640      863.967      405.074      214.315        1.142        0.074      145.311       10.629        0.005      330.999       -1.270      872.219
01/22/2022  07:57:00       88.645       80.597      -21.364       36.996       25.161       20.974     1368.725      633.099      439.912        0.863        0.122      119.807       15.334        0.016      331.065       -1.160      872.222
01/22/2022  07:58:00       57.402       58.625       -6.238       29.190       26.152       18.421      852.034      683.927      339.342        0.432        0.094       82.048       12.147        0.022      331.131       -1.052      872.220
01/22/2022  07:59:00       22.952       58.219       -5.726       34.796       37.266       31.051     1210.749     1388.779      964.166        0.376        0.178       62.580       23.681        0.143      331.178       -0.975      872.225
01/22/2022  08:00:00       30.052       94.499        3.533       29.761       46.966       28.469      885.698     2205.778      810.503        0.687        0.195       99.162       27.393        0.076      331.241       -0.869      872.225
01/22/2022  08:01:00       25.156       86.470       -9.230       29.267       49.367       35.461      856.554     2437.052     1257.502        0.637        0.228       90.055       34.380        0.146      331.299       -0.774      872.240
01/22/2022  08:02:00       38.559      101.505       -7.372       28.223       45.354       31.100      796.533     2057.010      967.198        0.783        0.191      108.582       30.621        0.080      331.299       -0.775      872.261
01/22/2022  08:03:00       44.388      125.234      -20.496       23.814       18.971       24.730      567.107      359.906      611.574        0.981        0.077      132.867       14.310        0.012      331.401       -0.606      872.278
01/22/2022  08:04:00       23.831      115.857       -8.071       32.887       29.186       23.186     1081.563      851.840      537.605        0.826        0.124      118.282       18.585        0.025      331.364       -0.669      872.298
01/22/2022  08:05:00       55.241      119.677      -14.849       38.569       51.597       30.609     1487.551     2662.200      936.917        1.134        0.254      131.811       27.669        0.044      331.406       -0.600      872.320
01/22/2022  08:06:00       47.986      142.188      -20.655       28.742       44.697       29.616      826.094     1997.798      877.078        1.332        0.185      150.067       24.017        0.026      331.356       -0.681      872.338
01/22/2022  08:07:00       47.402       82.032      -10.564       47.953       39.842       31.535     2299.505     1587.390      994.470        0.698        0.244       94.743       28.071        0.088      331.366       -0.665      872.368
01/22/2022  08:08:00       49.782       86.249      -13.410       35.501       40.633       27.170     1260.296     1651.026      738.182        0.687        0.182       99.584       17.834        0.032      331.375       -0.650      872.402
01/22/2022  08:09:00       83.478       67.265      -23.056       30.008       25.514       18.953      900.458      650.945      359.225        0.697        0.096      107.207       14.108        0.017      331.320       -0.741      872.431
01/22/2022  08:10:00      111.244       71.046      -30.891       21.535       23.924       22.430      463.750      572.379      503.120        0.996        0.077      131.995        9.122        0.005      331.378       -0.647      872.454
01/22/2022  08:11:00      123.405       72.143      -24.529       51.429       33.799       26.822     2644.917     1142.382      719.415        1.277        0.225      142.945       28.288        0.039      331.346       -0.696      872.448
01/22/2022  08:12:00       90.448       52.353       -8.932       38.218       26.240       22.707     1460.612      688.522      515.592        0.683        0.133      104.506       13.042        0.016      331.364       -0.668      872.423
01/22/2022  08:13:00      103.952       40.949      -21.902       46.210       16.552       17.939     2135.401      273.967      321.811        0.785        0.137      111.727       12.737        0.013      331.310       -0.757      872.408
01/22/2022  08:14:00      118.147       61.707      -16.020       30.190       31.859       19.051      911.409     1014.968      362.957        1.016        0.114      133.291       11.130        0.007      331.326       -0.731      872.408
01/22/2022  08:15:00      138.386       73.831      -17.744       32.440       26.337       23.363     1052.360      693.625      545.813        1.360        0.115      156.849       16.130        0.011      331.326       -0.728      872.426
01/22/2022  08:16:00       99.729       20.420       -5.779       54.796       47.490       23.311     3002.572     2255.308      543.390        0.810        0.290      101.798       25.559        0.063      331.447       -0.532      872.440
01/22/2022  08:17:00       99.148       46.876      -17.380       31.175       24.076       15.105      971.853      579.678      228.163        0.705        0.089      109.671       14.316        0.017      331.413       -0.588      872.441
01/22/2022  08:18:00       97.557       54.783      -11.603       48.428       43.384       28.485     2345.267     1882.199      811.393        0.885        0.252      111.886       22.985        0.042      331.527       -0.400      872.459
01/22/2022  08:19:00      154.914       75.375      -20.636       41.110       30.915       24.990     1690.051      955.716      624.515        1.669        0.164      172.278       19.400        0.013      331.447       -0.531      872.493
01/22/2022  08:20:00      106.554       29.515      -16.192       44.385       40.735       28.681     1970.032     1659.312      822.580        0.847        0.223      110.566       22.357        0.041      331.683       -0.144      872.518
01/22/2022  08:21:00       98.472       51.717      -16.807       47.544       40.844       24.100     2260.401     1668.259      580.826        0.858        0.225      111.227       24.688        0.049      331.626       -0.239      872.542
01/22/2022  08:22:00      114.070       44.214      -35.752       30.186       40.476       24.019      911.178     1638.266      576.889        0.969        0.156      122.339       10.492        0.007      331.686       -0.140      872.558
01/22/2022  08:23:00       89.382       32.891      -24.719       38.258       38.382       22.911     1463.661     1473.156      524.900        0.657        0.173       95.242       14.648        0.024      331.787        0.027      872.581
01/22/2022  08:24:00       21.240        2.619       -2.150       30.596       20.151       20.141      936.113      406.068      405.655        0.110        0.087       21.401       15.850        0.549      331.856        0.141      872.617
01/22/2022  08:25:00       27.432       18.464       -2.119       19.676       15.227       13.618      387.149      231.855      185.461        0.095        0.040       33.068        4.999        0.023      331.771        0.002      872.642
01/22/2022  08:26:00       59.631       31.316      -13.198       23.369       16.530       13.033      546.121      273.252      169.860        0.285        0.049       67.353        4.517        0.004      331.704       -0.108      872.670
01/22/2022  08:27:00       29.707       21.735      -10.353       25.457       22.175       16.905      648.054      491.718      285.794        0.144        0.071       36.809       10.172        0.076      331.914        0.237      872.685
01/22/2022  08:28:00       30.376       -8.024      -14.226       35.064       25.724       23.263     1229.470      661.721      541.170        0.181        0.122       31.418       20.115        0.410      332.028        0.424      872.698
01/22/2022  08:29:00       77.324       52.297      -12.974       28.512       33.845       20.556      812.921     1145.478      422.564        0.563        0.119       93.349       11.040        0.014      331.747       -0.039      872.710
01/22/2022  08:30:00       68.192       48.982      -11.696       28.199       28.365       21.880      795.180      804.574      478.728        0.463        0.104       83.961       15.806        0.035      331.817        0.078      872.706
01/22/2022  08:31:00       89.442       42.843      -17.198       27.592       17.917       16.976      761.295      321.024      288.172        0.575        0.069       99.174        9.771        0.010      331.811        0.067      872.715
01/22/2022  08:32:00       35.379        1.787      -13.483       35.673       23.762       19.839     1272.568      564.610      393.587        0.183        0.112       35.424       15.955        0.203      332.105        0.550      872.716
01/22/2022  08:33:00       23.796        7.404       -9.693       26.187       28.609       18.464      685.779      818.458      340.917        0.128        0.092       24.922       10.921        0.192      332.104        0.550      872.721
01/22/2022  08:34:00      102.270       49.060      -22.443       26.774       34.281       22.520      716.855     1175.200      507.132        0.788        0.120      113.429        8.488        0.006      331.949        0.294      872.736
01/22/2022  08:35:00       80.588      -67.238      -44.881       45.251       61.779       34.391     2047.616     3816.601     1182.737        1.004        0.352      104.954       25.459        0.059      332.109        0.558      872.734
01/22/2022  08:36:00       29.232        8.767        5.714       39.864       38.366       34.274     1589.168     1471.946     1174.692        0.260        0.212       30.519       26.995        0.782      332.304        0.880      872.754
01/22/2022  08:37:00       31.863      -15.142      -17.754       37.395       31.508       25.099     1398.371      992.743      629.969        0.229        0.151       35.278       23.479        0.443      332.243        0.779      872.757
01/22/2022  08:38:00       44.689       13.697      -19.043       27.782       40.987       21.996      771.861     1679.966      483.818        0.274        0.147       46.741        8.296        0.032      332.170        0.658      872.755
01/22/2022  08:39:00       48.786       20.212      -11.897       42.295       40.179       24.196     1788.871     1614.381      585.440        0.346        0.199       52.807       20.015        0.144      332.147        0.620      872.746
01/22/2022  08:40:00       31.072       -7.534        0.249       38.551       28.345       30.481     1486.204      803.463      929.083        0.212        0.161       31.973       25.731        0.648      332.289        0.854      872.731
01/22/2022  08:41:00      -14.924       -7.772       -1.432       19.750       17.775       14.071      390.063      315.968      197.985        0.059        0.045       16.826        5.716        0.115      332.277        0.835      872.764
01/22/2022  08:42:00       25.273      -61.833      -21.536       36.715       35.506       21.895     1347.980     1260.644      479.401        0.401        0.154       66.799       16.964        0.064      332.308        0.886      872.787
01/22/2022  08:43:00       -4.893       -6.876      -10.613       21.081       16.180       14.434      444.425      261.798      208.354        0.055        0.046        8.439        8.302        0.968      332.069        0.491      872.785
01/22/2022  08:44:00      -16.108        5.374       -1.219       22.628       15.535       18.462      512.034      241.338      340.847        0.069        0.055       16.980       10.952        0.416      332.140        0.609      872.807
01/22/2022  08:45:00       28.376      -11.655      -15.135       37.794       33.448       24.225     1428.422     1118.738      586.872        0.215        0.157       30.676       20.192        0.433      332.383        1.009      872.835
01/22/2022  08:46:00       50.979      -47.224      -25.535       39.161       40.048       28.649     1533.589     1603.857      820.757        0.472        0.198       69.491       18.685        0.072      332.157        0.637      872.856
01/22/2022  08:47:00       39.968        0.560      -19.288       33.024       45.613       26.761     1090.601     2080.507      716.131        0.293        0.194       39.972       16.781        0.176      332.169        0.656      872.873
01/22/2022  08:48:00       74.860       20.520        0.924       43.099       46.067       31.210     1857.487     2122.201      974.059        0.549        0.248       77.621       25.830        0.111      332.022        0.414      872.884
01/22/2022  08:49:00       96.762       20.842      -30.080       30.893       41.682       19.672      954.354     1737.361      387.002        0.689        0.154       98.981       17.942        0.033      331.855        0.139      872.908
01/22/2022  08:50:00       35.073      -38.530      -25.247       40.035       47.447       23.671     1602.809     2251.254      560.339        0.388        0.221       52.103       17.734        0.116      332.304        0.880      872.922
01/22/2022  08:51:00       35.731       -1.150       -8.674       30.927       47.539       31.267      956.466     2259.941      977.607        0.277        0.210       35.749       21.042        0.346      332.318        0.902      872.947
01/22/2022  08:52:00       56.373       39.054      -27.259       27.536       28.231       21.075      758.242      797.004      444.147        0.372        0.100       68.579       11.198        0.027      332.043        0.450      872.959
01/22/2022  08:53:00       33.587      -14.691      -13.995       27.336       35.088       20.245      747.268     1231.194      409.849        0.196        0.119       36.659       16.738        0.208      332.228        0.755      872.959
01/22/2022  08:54:00       29.900      -27.876      -15.990       25.703       31.896       18.126      660.633     1017.345      328.550        0.197        0.100       40.879       11.530        0.080      332.272        0.827      872.951
01/22/2022  08:55:00       37.740      -14.864      -16.520       16.796       24.992       18.517      282.093      624.598      342.866        0.158        0.062       40.561       12.734        0.099      332.233        0.763      872.953
01/22/2022  08:56:00       22.541       -8.573      -20.339       17.937       21.875       16.624      321.738      478.521      276.371        0.104        0.054       24.116       14.482        0.361      332.200        0.706      872.971
01/22/2022  08:57:00       23.873       48.602       -4.717       24.756       18.924       21.544      612.847      358.137      464.165        0.219        0.072       54.148        9.721        0.032      332.203        0.712      872.976
01/22/2022  08:58:00       50.920       74.307        4.203       22.260       27.849       20.155      495.512      775.578      406.214        0.490        0.084       90.080       13.021        0.021      332.185        0.683      872.988
01/22/2022  08:59:00       38.719       57.818        4.689       39.117       35.008       21.120     1530.110     1225.595      446.048        0.403        0.160       69.585       13.745        0.039      332.415        1.060      872.987
01/22/2022  09:00:00      -51.438      -25.960       -1.098       37.094       35.572       20.442     1376.001     1265.355      417.861        0.319        0.153       57.617        9.164        0.025      332.473        1.159      872.999
01/22/2022  09:01:00      -10.446      -63.928       -4.955       48.426       49.662       38.753     2345.116     2466.314     1501.776        0.527        0.316       64.776       29.695        0.210      332.517        1.230      873.004
01/22/2022  09:02:00       50.619      -73.138      -27.256       28.270       20.740       17.492      799.202      430.166      305.981        0.509        0.077       88.946        9.594        0.012      332.088        0.522      873.004
01/22/2022  09:03:00       32.941      -93.320      -19.261       41.558       38.169       30.449     1727.079     1456.905      927.131        0.714        0.206       98.963       24.421        0.061      332.504        1.210      873.006
01/22/2022  09:04:00       29.004      -96.373      -21.633       32.500       26.023       21.365     1056.248      677.222      456.482        0.639        0.109      100.643       15.391        0.023      332.419        1.070      873.013
01/22/2022  09:05:00       20.806      -44.792      -15.291       40.165       53.671       29.397     1613.249     2880.579      864.183        0.401        0.268       49.389       33.840        0.469      332.484        1.177      873.010
01/22/2022  09:06:00      -14.926      -28.123      -24.013       27.619       33.925       24.952      762.810     1150.916      622.579        0.206        0.127       31.838       21.436        0.453      332.310        0.889      873.001
01/22/2022  09:07:00      -43.393      -31.344      -12.449       34.549       31.090       21.665     1193.609      966.580      469.389        0.282        0.131       53.529       12.527        0.055      332.487        1.182      872.996
01/22/2022  09:08:00      -23.486       33.133        0.762       54.815       41.958       21.096     3004.637     1760.464      445.056        0.343        0.261       40.612       17.480        0.185      332.432        1.089      872.995
01/22/2022  09:09:00       -3.789       63.560        5.722       46.476       40.421       19.342     2159.994     1633.858      374.114        0.413        0.208       63.672       17.066        0.072      332.335        0.930      872.982
01/22/2022  09:10:00       14.422       36.990        4.982       28.975       36.189       18.902      839.567     1309.635      357.276        0.205        0.125       39.702       13.989        0.124      332.433        1.091      872.987
01/22/2022  09:11:00       27.082       42.613       -7.136       34.142       28.132       21.334     1165.678      791.424      455.121        0.251        0.121       50.490       10.545        0.044      332.385        1.013      873.015
01/22/2022  09:12:00      -36.136       35.625       -3.697       25.627       21.469       14.332      656.719      460.919      205.403        0.196        0.066       50.744       11.598        0.052      332.284        0.846      873.036
01/22/2022  09:13:00      -16.083        2.711       -2.845       27.049       17.929       12.989      731.669      321.440      168.708        0.075        0.061       16.310       12.918        0.627      332.420        1.071      873.043
01/22/2022  09:14:00      -39.134      -37.724      -14.498       37.448       25.093       25.957     1402.352      629.645      673.790        0.293        0.135       54.356       21.410        0.155      332.527        1.248      873.047
01/22/2022  09:15:00      -20.233       -2.680       -8.505       17.058       18.508       12.429      290.968      342.550      154.477        0.064        0.039       20.409       11.674        0.327      332.535        1.261      873.045
01/22/2022  09:16:00        5.000       -6.225       -9.314       23.423       18.464       11.463      548.657      340.936      131.392        0.059        0.051        7.984        9.359        1.374      332.467        1.148      873.030
01/22/2022  09:17:00      -33.786      -17.675       -6.172       33.219       29.141       26.073     1103.485      849.170      679.811        0.206        0.132       38.130       22.652        0.353      332.598        1.366      873.029
01/22/2022  09:18:00      -29.862       -9.028       -9.689       18.691       16.938       13.614      349.362      286.910      185.336        0.094        0.041       31.197       10.970        0.124      332.427        1.082      873.037
01/22/2022  09:19:00        4.207       -3.466      -15.299       27.099       16.284       18.802      734.334      265.159      353.514        0.081        0.068        5.451       15.826        8.430      332.770        1.650      873.048
01/22/2022  09:20:00      -19.727        5.324       -4.936       20.804       24.108       17.664      432.794      581.178      312.028        0.088        0.066       20.433       13.110        0.412      332.636        1.428      873.061
01/22/2022  09:21:00      -49.956       27.848       -8.657       22.328       17.493       12.267      498.549      305.998      150.474        0.215        0.048       57.194       10.631        0.035      332.284        0.847      873.066
01/22/2022  09:22:00      -13.280        8.216       -6.145       12.571       10.325        9.431      158.028      106.603       88.949        0.032        0.018       15.616        5.914        0.143      332.554        1.292      873.074
01/22/2022  09:23:00      -40.773       23.464      -12.127       19.871       20.513       16.666      394.860      420.783      277.741        0.173        0.055       47.042       10.630        0.051      332.494        1.194      873.072
01/22/2022  09:24:00       -9.367       17.667       -3.999       17.084       16.710        8.741      291.880      279.219       76.407        0.053        0.032       19.997        7.273        0.132      332.629        1.415      873.070
01/22/2022  09:25:00       -3.282        9.672      -14.359       33.668       32.385       28.264     1133.531     1048.762      798.832        0.165        0.149       10.214       19.780        3.750      332.761        1.634      873.070
01/22/2022  09:26:00      -74.316      -24.788       -2.711       63.893       52.485       36.300     4082.339     2754.655     1317.663        0.715        0.408       78.341       28.489        0.132      332.609        1.384      873.082
01/22/2022  09:27:00      -42.059      -44.845      -29.071       50.194       43.545       50.701     2519.460     1896.137     2570.634        0.580        0.349       61.482       27.915        0.206      332.657        1.462      873.095
01/22/2022  09:28:00      -44.489      -51.880      -27.837       34.488       30.002       18.083     1189.428      900.137      326.979        0.393        0.121       68.343       10.046        0.022      332.653        1.457      873.102
01/22/2022  09:29:00       55.157     -113.150      -35.507       65.673       49.556       39.067     4312.904     2455.773     1526.246        1.270        0.415      125.878       32.234        0.066      332.633        1.423      873.096
01/22/2022  09:30:00      -18.020      -72.142      -18.708       69.978       70.984       36.332     4896.883     5038.778     1320.029        0.857        0.563       74.358       34.952        0.221      332.638        1.429      873.092
01/22/2022  09:31:00      -48.981      -22.497      -20.392       55.608       33.191       31.390     3092.276     1101.631      985.344        0.425        0.259       53.901       28.211        0.274      332.670        1.485      873.096
01/22/2022  09:32:00       -2.670      -26.747       13.996       38.066       55.658       29.967     1449.043     3097.826      898.009        0.318        0.272       26.880       19.051        0.502      332.796        1.693      873.113
01/22/2022  09:33:00      -18.614       -7.214       13.233       26.428       29.123       21.954      698.422      848.159      481.969        0.130        0.101       19.963       13.187        0.436      332.847        1.777      873.127
01/22/2022  09:34:00       59.913      -41.419      -30.596       54.807       71.448       35.606     3003.840     5104.774     1267.765        0.781        0.469       72.836       35.390        0.236      332.770        1.649      873.135
01/22/2022  09:35:00       53.657     -114.204      -52.328       55.969       42.577       27.246     3132.494     1812.805      742.325        1.217        0.284      126.181       13.320        0.011      332.756        1.625      873.132
01/22/2022  09:36:00      -33.629      -21.152      -28.360       38.864       50.182       29.011     1510.410     2518.243      841.663        0.363        0.244       39.728       30.612        0.594      332.767        1.645      873.129
01/22/2022  09:37:00      -50.997      -28.166       -0.121       34.596       25.167       26.463     1196.896      633.400      700.302        0.296        0.127       58.258       19.023        0.107      332.741        1.602      873.131
01/22/2022  09:38:00      -53.977       21.222      -18.651       28.591       24.171       19.066      817.446      584.215      363.530        0.274        0.088       57.999       18.082        0.097      332.408        1.051      873.141
01/22/2022  09:39:00      -35.739       37.284      -16.837       14.618       14.111       18.354      213.683      199.118      336.882        0.185        0.037       51.647        6.441        0.016      332.385        1.011      873.138
01/22/2022  09:40:00      -30.503       27.281      -10.462       19.378       18.473       12.791      375.501      341.244      163.608        0.133        0.044       40.923       12.535        0.094      332.462        1.141      873.128
01/22/2022  09:41:00      -24.893       10.294      -13.193       31.071       17.675       14.479      965.377      312.398      209.628        0.119        0.074       26.938        9.657        0.129      332.579        1.334      873.112
01/22/2022  09:42:00      -25.913       -1.762       -4.385       17.723       11.815       13.705      314.122      139.598      187.830        0.067        0.032       25.973        8.322        0.103      332.623        1.406      873.098
01/22/2022  09:43:00       -3.466       22.329       -7.748       20.895       18.688       12.651      436.590      349.252      160.060        0.076        0.047       22.597        7.104        0.099      332.706        1.544      873.085
01/22/2022  09:44:00        0.392       12.743       -0.039       20.699       25.587       13.860      428.451      654.685      192.091        0.072        0.064       12.749       10.710        0.706      333.074        2.152      873.080
01/22/2022  09:45:00       32.778       21.252      -15.271       60.438       34.120       19.630     3652.800     1164.144      385.341        0.348        0.260       39.064       10.626        0.074      332.946        1.940      873.085
01/22/2022  09:46:00       15.830      -11.936      -11.872       65.795       46.242       28.348     4328.940     2138.337      803.617        0.390        0.364       19.826       20.068        1.025      333.251        2.445      873.081
01/22/2022  09:47:00       54.372     -116.960      -33.256       71.612       74.894       34.221     5128.329     5609.121     1171.079        1.482        0.595      128.980       42.462        0.108      332.963        1.968      873.086
01/22/2022  09:48:00       94.514      -94.920      -37.040       40.017       36.917       24.058     1601.333     1362.876      578.811        1.143        0.177      133.950       23.469        0.031      332.808        1.712      873.093
01/22/2022  09:49:00       72.152      -78.318      -36.399       42.693       62.422       27.557     1822.674     3896.507      759.393        0.957        0.324      106.487       19.271        0.033      332.943        1.934      873.098
01/22/2022  09:50:00       94.376     -116.484      -39.251       43.927       86.115       28.326     1929.621     7415.871      802.353        1.708        0.507      149.918       22.023        0.022      332.798        1.693      873.098
01/22/2022  09:51:00       95.360     -149.534      -39.018       30.427       50.464       26.532      925.808     2546.612      703.923        1.858        0.209      177.353       25.520        0.021      332.563        1.303      873.103
01/22/2022  09:52:00       96.135     -111.006      -32.146       45.412       41.330       32.850     2062.263     1708.135     1079.137        1.372        0.242      146.848       25.229        0.030      332.783        1.671      873.099
01/22/2022  09:53:00       74.733     -179.162      -42.669       44.718       47.151       27.471     1999.686     2223.206      754.676        2.224        0.249      194.124       22.086        0.013      332.736        1.590      873.094
01/22/2022  09:54:00       19.574     -106.961      -30.292       32.642       69.053       26.585     1065.498     4768.322      706.742        0.964        0.327      108.737       13.896        0.016      333.093        2.182      873.096
01/22/2022  09:55:00       14.763      -21.226      -10.511       48.366       53.925       45.286     2339.308     2907.889     2050.806        0.404        0.365       25.856       26.048        1.015      333.501        2.857      873.101
01/22/2022  09:56:00       53.339      -71.059      -41.657       47.643       82.038       34.864     2269.895     6730.286     1215.485        0.992        0.511       88.851       30.117        0.115      333.095        2.187      873.097
01/22/2022  09:57:00       96.054     -102.253      -36.857       49.779       65.993       31.460     2477.975     4355.092      989.745        1.443        0.391      140.293       25.135        0.032      333.155        2.285      873.082
01/22/2022  09:58:00      -25.958      -32.027       -2.494       52.670       61.409       47.735     2774.099     3771.115     2278.604        0.526        0.441       41.226       26.819        0.423      333.445        2.766      873.080
01/22/2022  09:59:00      127.160     -148.303      -51.207       60.497       77.001       48.389     3659.874     5929.158     2341.464        2.636        0.597      195.355       45.150        0.053      332.963        1.964      873.077
01/22/2022  10:00:00      177.578     -185.755      -65.744       34.396       54.818       25.578     1183.075     3004.967      654.221        3.760        0.242      256.980       20.408        0.006      332.843        1.765      873.053
01/22/2022  10:01:00      161.604     -224.879      -70.962       52.661       89.626       38.119     2773.229     8032.735     1453.064        4.699        0.613      276.923       24.826        0.008      332.899        1.856      873.049
01/22/2022  10:02:00      142.993     -196.423      -47.502       32.267       68.814       31.963     1041.180     4735.309     1021.618        3.404        0.340      242.959       29.276        0.015      332.767        1.641      873.038
01/22/2022  10:03:00      100.096     -149.508      -48.896       73.643       98.431       52.012     5423.327     9688.623     2705.295        2.629        0.891      179.922       40.994        0.052      333.201        2.359      873.023
01/22/2022  10:04:00      132.168     -200.489      -64.114       64.354       99.206       46.116     4141.459     9841.767     2126.673        3.894        0.805      240.134       39.651        0.027      333.063        2.129      873.019
01/22/2022  10:05:00      129.840     -153.743      -61.188       70.545       92.275       47.394     4976.546     8514.700     2246.222        2.999        0.787      201.234       40.314        0.040      333.046        2.101      873.014
01/22/2022  10:06:00       95.708     -176.593      -33.801       73.163       68.494       51.565     5352.792     4691.463     2658.982        2.709        0.635      200.861       54.795        0.074      333.116        2.219      873.016
01/22/2022  10:07:00      128.583     -148.799      -47.529       56.264       66.251       29.604     3165.687     4389.186      876.369        2.468        0.422      196.659       28.212        0.021      332.936        1.920      873.020
01/22/2022  10:08:00       88.394     -177.260      -39.010       45.790       43.954       34.667     2096.687     1931.957     1201.797        2.299        0.262      198.077       20.463        0.011      333.116        2.218      873.016
01/22/2022  10:09:00       96.785     -220.722      -53.424       52.164      106.734       29.388     2721.134    11392.087      863.678        3.796        0.749      241.010       34.136        0.020      333.076        2.151      873.008
01/22/2022  10:10:00       58.719      -93.765      -31.911       69.215       76.228       45.360     4790.719     5810.678     2057.545        1.296        0.633      110.633       33.132        0.090      333.316        2.551      872.990
01/22/2022  10:11:00      110.844     -212.973      -51.808       57.879       82.347       32.362     3349.995     6781.103     1047.303        3.575        0.559      240.091       29.916        0.016      333.151        2.275      872.979
01/22/2022  10:12:00       88.671     -204.850      -48.171       90.758       66.795       38.195     8237.074     4461.584     1458.869        3.315        0.708      223.218       26.999        0.015      333.172        2.310      872.976
01/22/2022  10:13:00       45.460     -104.318      -35.944       60.719       83.509       37.761     3686.802     6973.701     1425.891        1.316        0.604      113.793       38.865        0.117      333.539        2.920      872.988
01/22/2022  10:14:00       41.173     -162.148      -47.154       64.133      138.433       41.853     4113.068    19163.689     1751.708        2.761        1.251      167.294       21.703        0.017      333.167        2.304      872.987
01/22/2022  10:15:00      -16.549     -109.690      -11.740       73.440       82.162       41.100     5393.472     6750.672     1689.179        1.314        0.692      110.931       24.834        0.050      333.513        2.877      872.989
01/22/2022  10:16:00      -98.794      -46.770      -21.050       69.351       77.470       42.553     4809.599     6001.613     1810.766        1.250        0.631      109.305       43.611        0.159      333.474        2.813      872.974
01/22/2022  10:17:00      -21.587      -56.317      -24.636       52.741       50.863       31.304     2781.567     2586.999      979.964        0.530        0.317       60.312       23.879        0.157      333.688        3.167      872.973
01/22/2022  10:18:00        6.268       -5.718       -6.246       57.848       45.470       34.051     3346.397     2067.514     1159.439        0.334        0.329        8.485        9.324        1.208      333.703        3.193      872.971
01/22/2022  10:19:00       95.705     -109.918      -17.518       58.408       76.054       43.354     3411.476     5784.205     1879.580        1.631        0.554      145.744       44.419        0.093      333.408        2.703      872.967
01/22/2022  10:20:00      110.812     -278.927      -50.952       64.590       93.111       39.264     4171.840     8669.584     1541.685        5.353        0.719      300.132       45.591        0.023      333.071        2.143      872.937
01/22/2022  10:21:00      108.096     -114.091      -25.597      112.533      104.496       50.235    12663.624    10919.403     2523.530        2.573        1.305      157.167       68.885        0.192      333.240        2.423      872.896
01/22/2022  10:22:00       21.878       -7.037      -11.108       60.957       65.799       33.940     3715.755     4329.462     1151.891        0.492        0.460       22.982       27.306        1.412      333.694        3.177      872.876
01/22/2022  10:23:00       96.178     -181.609      -43.799       87.505      143.232       57.388     7657.196    20515.380     3293.392        3.780        1.573      205.504       42.224        0.042      333.507        2.866      872.850
01/22/2022  10:24:00      109.727     -185.029      -43.323      103.061      113.627       55.564    10621.663    12911.081     3087.400        3.738        1.331      215.118       50.580        0.055      333.314        2.544      872.836
01/22/2022  10:25:00      214.376     -233.495      -67.286       80.595      127.808       53.297     6495.606    16334.982     2840.595        6.533        1.284      316.981       46.803        0.022      333.035        2.083      872.805
01/22/2022  10:26:00      137.172     -232.328      -65.537       88.305       83.629       47.594     7797.791     6993.855     2265.191        4.707        0.853      269.801       51.162        0.036      333.157        2.285      872.780
01/22/2022  10:27:00      211.876     -284.972      -77.605       77.454      109.989       52.565     5999.180    12097.620     2763.116        7.649        1.043      355.106       57.306        0.026      333.016        2.051      872.764
01/22/2022  10:28:00      167.241      -94.265      -39.538       88.907       76.347       57.260     7904.428     5828.930     3278.691        2.771        0.851      191.978       54.498        0.081      333.150        2.275      872.780
01/22/2022  10:29:00       47.292      -47.314      -19.028       51.028       56.849       22.972     2603.809     3231.857      527.703        0.560        0.318       66.896       28.922        0.187      333.090        2.177      872.800
01/22/2022  10:30:00      107.029       24.834      -23.004       41.301       55.282       27.818     1705.759     3056.068      773.829        0.907        0.277      109.873       20.865        0.036      333.363        2.630      872.801
01/22/2022  10:31:00       99.183      -18.351      -32.778       56.482       70.396       30.471     3190.170     4955.604      928.499        1.016        0.454      100.866       18.119        0.032      333.653        3.110      872.799
01/22/2022  10:32:00       47.948      -30.517      -20.113       53.945       40.319       25.411     2910.069     1625.585      645.694        0.441        0.259       56.836       11.028        0.038      333.900        3.519      872.799
01/22/2022  10:33:00        9.102      -10.248      -10.637       24.236       35.998       22.085      587.379     1295.866      487.756        0.134        0.119       13.706       15.429        1.267      334.113        3.871      872.801
01/22/2022  10:34:00       -0.371      -26.542      -17.740       53.444       47.995       38.043     2856.309     2303.545     1447.246        0.381        0.330       26.544       19.161        0.521      334.004        3.691      872.855
01/22/2022  10:35:00      -37.086     -100.394      -47.635       98.928       86.504       44.858     9786.703     7482.889     2012.271        1.650        0.964      107.025       42.527        0.158      334.022        3.718      872.887
01/22/2022  10:36:00       -8.661       21.761       -4.402       51.429       41.788       34.274     2644.940     1746.199     1174.703        0.307        0.278       23.421       17.848        0.581      334.038        3.748      872.888
01/22/2022  10:37:00      -38.527       28.625      -15.452       51.779       39.352       34.854     2681.064     1548.591     1214.783        0.399        0.272       47.998       20.667        0.185      333.989        3.666      872.876
01/22/2022  10:38:00       22.658      -70.837      -42.976       75.032       65.913       36.405     5629.875     4344.518     1325.333        0.934        0.565       74.373       25.918        0.121      333.862        3.455      872.870
01/22/2022  10:39:00      132.669     -216.884      -49.931       60.969       61.740       34.802     3717.265     3811.855     1211.203        3.794        0.437      254.244       24.096        0.009      333.307        2.533      872.870
01/22/2022  10:40:00       87.512     -113.105      -17.714       89.361       71.776       51.847     7985.389     5151.852     2688.162        1.829        0.791      143.007       50.030        0.122      333.404        2.696      872.849
01/22/2022  10:41:00       73.705     -173.409      -37.403       64.158       63.255       40.002     4116.276     4001.168     1600.130        2.331        0.486      188.423       21.846        0.013      333.549        2.936      872.827
01/22/2022  10:42:00       99.299     -164.270      -38.291       66.314       61.343       37.273     4397.536     3762.983     1389.272        2.393        0.477      191.950       27.574        0.021      333.666        3.130      872.816
01/22/2022  10:43:00       96.336      -48.032       -6.171       82.601       98.799       63.904     6822.990     9761.285     4083.763        1.614        1.033      107.646       59.053        0.301      333.917        3.545      872.794
01/22/2022  10:44:00      172.572      -25.178      -26.063      124.593       72.296       60.578    15523.440     5226.702     3669.719        2.775        1.221      174.399       37.937        0.047      333.520        2.888      872.794
01/22/2022  10:45:00       89.244      -13.719      -13.902       93.966       53.309       42.570     8829.693     2841.840     1812.245        1.091        0.674       90.293       42.735        0.224      333.773        3.307      872.809
01/22/2022  10:46:00       69.793      -23.024      -12.242       52.193       49.669       45.303     2724.125     2466.987     2052.366        0.640        0.362       73.493       37.816        0.265      333.905        3.528      872.809
01/22/2022  10:47:00       38.931       -6.513      -26.204       56.170       52.122       31.662     3155.051     2716.661     1002.466        0.456        0.344       39.472       12.805        0.105      334.123        3.888      872.815
01/22/2022  10:48:00       46.808      -64.198      -39.245       57.888       81.981       37.274     3350.999     6720.835     1389.320        0.965        0.573       79.450       30.198        0.144      334.295        4.174      872.818
01/22/2022  10:49:00       96.414     -141.462      -30.147      118.776      103.117       57.302    14107.685    10633.124     3283.489        2.912        1.401      171.194       54.628        0.102      334.072        3.801      872.815
01/22/2022  10:50:00       83.797      -53.758      -45.146       74.778      126.338       47.260     5591.750    15961.322     2233.492        1.786        1.189       99.558       21.013        0.045      334.116        3.874      872.813
01/22/2022  10:51:00      103.690       33.787      -25.583       89.059       81.880       48.880     7931.566     6704.312     2389.284        1.478        0.851      109.056       34.602        0.101      334.091        3.833      872.817
01/22/2022  10:52:00       40.072      -75.132      -34.245       56.131       87.867       42.111     3150.741     7720.624     1773.331        1.053        0.632       85.150       29.050        0.116      334.133        3.905      872.814
01/22/2022  10:53:00      169.379       26.960      -36.401       97.116       74.004       47.796     9431.526     5476.570     2284.501        2.396        0.860      171.511       28.519        0.028      333.961        3.617      872.789
01/22/2022  10:54:00      177.605       -2.570      -12.960      122.179      107.475       66.396    14927.783    11550.914     4408.476        3.130        1.544      177.624       50.480        0.081      334.058        3.778      872.790
01/22/2022  10:55:00      142.836     -103.178      -46.884       83.123      116.507       59.389     6909.513    13573.766     3527.023        2.862        1.201      176.204       52.973        0.090      334.076        3.806      872.788
01/22/2022  10:56:00      215.089       37.693      -27.111      105.183       92.734       60.438    11063.384     8599.670     3652.798        3.586        1.166      218.366       44.229        0.041      333.735        3.241      872.782
01/22/2022  10:57:00      270.599       48.788      -36.816       77.988       70.694       35.299     6082.154     4997.607     1246.011        4.464        0.616      274.962       23.713        0.007      333.473        2.806      872.780
01/22/2022  10:58:00      161.082       -4.813      -20.673       76.996       71.188       45.175     5928.354     5067.738     2040.766        1.971        0.652      161.154       27.221        0.029      333.986        3.658      872.763
01/22/2022  10:59:00      160.564        2.074      -14.693       80.098       71.824       54.006     6415.685     5158.747     2916.595        2.024        0.725      160.577       45.816        0.081      333.990        3.666      872.754
01/22/2022  11:00:00      164.206       42.032      -26.416       88.404       69.053       32.748     7815.281     4768.379     1072.438        2.154        0.683      169.500       35.943        0.045      333.629        3.068      872.733
01/22/2022  11:01:00      138.470       12.535      -15.273       79.132       75.123       46.541     6261.883     5643.444     2166.086        1.682        0.704      139.036       32.626        0.055      333.932        3.569      872.695
01/22/2022  11:02:00       78.944      -13.955      -29.812       57.543       87.649       47.658     3311.174     7682.427     2271.321        1.029        0.663       80.168       22.177        0.077      334.060        3.782      872.681
01/22/2022  11:03:00      119.117       -6.812      -36.457       82.766       73.613       49.764     6850.162     5418.915     2476.470        1.515        0.737      119.311       22.218        0.035      333.996        3.677      872.672
01/22/2022  11:04:00      141.942       20.761      -23.741       92.774       97.214       55.784     8607.105     9450.510     3111.888        2.115        1.058      143.452       34.715        0.059      334.152        3.933      872.681
01/22/2022  11:05:00      195.591      -36.446      -19.045      125.831      100.602       69.365    15833.366    10120.840     4811.482        3.535        1.538      198.958       61.563        0.096      334.004        3.689      872.674
01/22/2022  11:06:00      153.697      -78.044      -28.648      131.115      103.053       67.533    17191.057    10619.885     4560.674        3.145        1.619      172.377       70.434        0.167      333.983        3.654      872.673
01/22/2022  11:07:00      135.944        9.024      -43.855      103.511       84.040       58.431    10714.432     7062.797     3414.175        2.083        1.060      136.243       40.405        0.088      333.860        3.450      872.676
01/22/2022  11:08:00      148.369      -14.873      -34.401       77.836       78.336       45.287     6058.374     6136.510     2050.946        1.883        0.712      149.113       39.715        0.071      333.552        2.940      872.674
01/22/2022  11:09:00      130.015      -91.448      -34.006       82.205       82.896       55.169     6757.615     6871.714     3043.651        2.154        0.834      158.955       17.156        0.012      333.905        3.525      872.644
01/22/2022  11:10:00      138.273      -43.965      -27.546       89.908       75.751       47.002     8083.511     5738.253     2209.174        1.892        0.802      145.094       21.271        0.021      333.970        3.634      872.622
01/22/2022  11:11:00      113.694     -109.262      -31.396       93.668       97.766       49.354     8773.633     9558.248     2435.794        2.331        1.038      157.685       54.370        0.119      333.912        3.536      872.622
01/22/2022  11:12:00       95.835      -88.411      -26.544       33.635       74.679       26.163     1131.336     5576.985      684.516        1.255        0.370      130.388       23.722        0.033      333.507        2.868      872.626
01/22/2022  11:13:00       97.439       19.088      -28.715       57.467       72.548       33.248     3302.508     5263.218     1105.446        1.018        0.484       99.291       11.283        0.013      334.104        3.857      872.602
01/22/2022  11:14:00      147.867      -21.716      -25.996      125.560       93.328       62.191    15765.193     8710.117     3867.701        2.567        1.417      149.453       42.154        0.080      334.166        3.956      872.585
01/22/2022  11:15:00       84.402      -37.411      -25.199       94.510       77.464       52.515     8932.174     6000.671     2757.814        1.342        0.885       92.321       38.724        0.176      334.031        3.735      872.577
01/22/2022  11:16:00      108.876      -49.332      -30.036       57.790      147.816       47.394     3339.739    21849.506     2246.220        2.131        1.372      119.531       44.611        0.139      334.083        3.819      872.572
01/22/2022  11:17:00      130.037      -27.617      -37.972      110.169      103.281       54.229    12137.271    10667.058     2940.736        2.242        1.287      132.937       33.965        0.065      334.196        4.007      872.576
01/22/2022  11:18:00      297.627       26.708       -3.284      147.741      115.147       72.249    21827.522    13258.828     5219.933        6.480        2.015      298.823       74.162        0.062      333.856        3.441      872.575
01/22/2022  11:19:00      201.750      -44.745      -18.158      170.326      103.436       82.752    29010.903    10699.011     6847.919        4.479        2.328      206.652       76.397        0.137      334.129        3.894      872.576
01/22/2022  11:20:00      162.314      -29.645      -15.651      122.172       88.579       72.561    14925.993     7846.324     5265.102        2.775        1.402      164.999       66.480        0.162      334.043        3.752      872.597
01/22/2022  11:21:00      139.419       23.365      -10.791       73.622       56.299       38.320     5420.264     3169.547     1468.387        1.508        0.503      141.363       12.041        0.007      334.062        3.786      872.593
01/22/2022  11:22:00      126.770       -3.476      -22.284       88.929       96.365       49.266     7908.343     9286.293     2427.104        1.810        0.981      126.818       21.005        0.027      334.226        4.057      872.581
01/22/2022  11:23:00      188.314      -46.215      -25.017      149.799      129.829       92.947    22439.735    16855.462     8639.213        4.307        2.397      193.902       72.921        0.141      334.001        3.682      872.540
01/22/2022  11:24:00      128.954      -51.955      -26.515       83.487       89.742       52.816     6970.085     8053.560     2789.566        1.892        0.891      139.027       55.078        0.157      333.808        3.365      872.548
01/22/2022  11:25:00      100.616      -18.772      -23.716      108.877       92.350       61.300    11854.300     8528.592     3757.751        1.759        1.207      102.352       40.543        0.157      334.102        3.852      872.521
01/22/2022  11:26:00       68.801      -26.320      -21.719       81.653       74.554       51.549     6667.250     5558.311     2657.273        1.039        0.744       73.664       37.119        0.254      334.370        4.296      872.518
01/22/2022  11:27:00       70.537       -2.741      -23.603       60.648       53.304       41.613     3678.153     2841.333     1731.615        0.689        0.413       70.590       26.975        0.146      334.561        4.613      872.523
01/22/2022  11:28:00       65.779     -151.903      -50.250       63.615       98.498       47.933     4046.841     9701.853     2297.579        2.298        0.802      165.534       36.579        0.049      334.376        4.306      872.525
01/22/2022  11:29:00      140.150     -251.362      -55.127       70.496      110.832       46.271     4969.712    12283.709     2140.974        5.263        0.970      287.793       27.859        0.009      333.855        3.442      872.532
01/22/2022  11:30:00      100.453      -68.244      -28.089      131.500      106.034       60.483    17292.182    11243.179     3658.154        2.386        1.610      121.441       58.265        0.230      334.243        4.085      872.532
01/22/2022  11:31:00       45.705     -102.423      -23.954       79.048       98.573       47.653     6248.585     9716.592     2270.836        1.569        0.912      112.158       39.588        0.125      334.375        4.305      872.543
01/22/2022  11:32:00       54.593      -85.934      -27.822       71.711       83.023       48.318     5142.532     6892.810     2334.657        1.275        0.718      101.808       33.594        0.109      334.442        4.416      872.542
01/22/2022  11:33:00       69.847      -82.074      -32.352       83.706      107.328       47.864     7006.698    11519.306     2290.945        1.674        1.041      107.772       45.292        0.177      334.464        4.451      872.527
01/22/2022  11:34:00        8.340     -103.793      -43.237       70.713       98.617       33.729     5000.326     9725.334     1137.625        1.428        0.793      104.128       28.493        0.075      334.313        4.201      872.499
01/22/2022  11:35:00      111.146      -35.170      -24.944      114.838       95.106       51.089    13187.688     9045.099     2610.077        1.952        1.242      116.578       19.928        0.029      334.129        3.897      872.459
01/22/2022  11:36:00       74.295     -197.672      -53.906      101.822      118.483       40.226    10367.748    14038.206     1618.103        3.676        1.301      211.173       40.472        0.037      334.099        3.847      872.444
01/22/2022  11:37:00      194.223     -212.708      -62.283       94.119      141.559       55.921     8858.338    20039.007     3127.156        5.943        1.601      288.041       71.830        0.062      333.939        3.580      872.442
01/22/2022  11:38:00      120.268     -345.182      -61.271       69.334       76.243       45.443     4807.158     5812.985     2065.074        7.502        0.634      365.534       29.054        0.006      333.730        3.232      872.430
01/22/2022  11:39:00      163.401     -257.118      -50.776       88.621      110.099       50.695     7853.674    12121.847     2569.972        5.896        1.127      304.646       48.853        0.026      333.840        3.416      872.437
01/22/2022  11:40:00      157.753     -157.614      -49.848       46.305       90.171       30.349     2144.160     8130.731      921.046        3.170        0.560      222.998       29.523        0.018      333.878        3.480      872.430
01/22/2022  11:41:00       40.198        5.871      -17.068       76.980       75.929       37.098     5925.913     5765.178     1376.267        0.750        0.653       40.624       31.122        0.587      334.191        4.001      872.398
01/22/2022  11:42:00      101.153       39.416      -19.976       63.881       42.777       28.712     4080.820     1829.885      824.397        0.946        0.337      108.561       29.075        0.072      334.107        3.861      872.364
01/22/2022  11:43:00       70.034      -39.683      -30.212       49.318       74.236       42.887     2432.273     5511.038     1839.316        0.859        0.489       80.496       36.725        0.208      334.473        4.467      872.334
01/22/2022  11:44:00      110.011     -115.732      -50.514       82.800      100.946       47.822     6855.885    10190.152     2286.960        2.369        0.967      159.676       38.035        0.057      334.383        4.317      872.305
01/22/2022  11:45:00      105.875      -27.754      -40.422       98.824       76.663       61.321     9766.255     5877.228     3760.298        1.651        0.970      109.452       22.852        0.044      334.432        4.399      872.298
01/22/2022  11:46:00      210.135      -57.856      -39.341      103.944       57.986       44.198    10804.290     3362.344     1953.433        3.258        0.806      217.954       37.483        0.030      333.764        3.290      872.297
01/22/2022  11:47:00       15.144       65.180      -39.117       54.616       50.723       27.858     2982.858     2572.842      776.068        0.617        0.317       66.916       26.239        0.154      333.786        3.329      872.272
01/22/2022  11:48:00        3.207       28.616      -15.587       62.613       30.864       29.881     3920.431      952.587      892.875        0.342        0.288       28.795       18.445        0.410      334.001        3.687      872.211
01/22/2022  11:49:00       15.337       20.073      -18.567       36.736       50.503       21.162     1349.559     2550.531      447.827        0.266        0.217       25.262       16.485        0.426      334.558        4.610      872.209
01/22/2022  11:50:00       10.028        4.494        1.633       39.805       62.912       32.982     1584.462     3957.983     1087.784        0.338        0.332       10.989       28.185        6.578      334.680        4.811      872.196
01/22/2022  11:51:00       40.202      -90.217      -26.886       68.575       96.738       36.481     4702.513     9358.212     1330.876        1.293        0.770       98.768       31.964        0.105      334.518        4.542      872.179
01/22/2022  11:52:00       80.528      -49.193      -37.288       92.717      102.158       58.553     8596.472    10436.283     3428.475        1.637        1.123       94.365       48.417        0.263      334.666        4.788      872.152
01/22/2022  11:53:00      146.996      -87.962      -47.358      113.022      106.635       71.931    12773.926    11371.032     5174.041        3.045        1.466      171.304       47.700        0.078      334.535        4.569      872.118
01/22/2022  11:54:00      113.160     -162.697      -30.977       98.708      150.237       61.892     9743.353    22571.013     3830.672        3.818        1.807      198.180       56.964        0.083      334.244        4.085      872.098
01/22/2022  11:55:00      152.077       -9.514      -34.893       74.489       87.448       42.374     5548.600     7647.152     1795.577        1.971        0.750      152.374       30.326        0.040      334.468        4.459      872.100
01/22/2022  11:56:00       39.745      -56.913      -14.581       89.793      105.299       35.478     8062.784    11087.941     1258.671        1.272        1.020       69.417       30.123        0.188      334.661        4.780      872.084
01/22/2022  11:57:00       99.381      -60.956      -28.687       87.782       84.546       43.805     7705.678     7148.045     1918.915        1.559        0.839      116.586       44.100        0.143      334.497        4.509      872.059
01/22/2022  11:58:00      149.294      -28.192      -24.994       84.315       79.827       49.200     7109.071     6372.400     2420.688        1.980        0.795      151.932       40.471        0.071      334.526        4.555      872.032
01/22/2022  11:59:00       83.049      -47.868      -35.111       68.362       74.215       54.422     4673.414     5507.882     2961.794        1.178        0.657       95.857       37.301        0.151      334.958        5.273      872.016
01/22/2022  12:00:00      153.407       30.436      -32.360       72.348       52.798       36.262     5234.285     2787.591     1314.911        1.742        0.467      156.397       26.327        0.028      334.282        4.151      872.014
01/22/2022  12:01:00      117.989       35.265      -21.495       38.568       38.676       28.544     1487.457     1495.836      814.768        0.971        0.190      123.146       16.420        0.018      334.181        3.983      871.999
01/22/2022  12:02:00       43.823       65.782      -18.878       34.123       31.884       26.167     1164.371     1016.572      684.692        0.473        0.143       79.043       14.584        0.034      334.372        4.302      871.987
01/22/2022  12:03:00       22.011       33.434       -4.780       40.006       68.303       31.405     1600.502     4665.274      986.287        0.444        0.363       40.029       30.243        0.571      334.620        4.712      871.964
01/22/2022  12:04:00       26.769      -73.188      -23.450       22.334       41.113       19.404      498.802     1690.308      376.515        0.459        0.128       77.930       14.702        0.036      334.226        4.058      871.935
01/22/2022  12:05:00        9.140      -22.495       -7.192       40.829       64.000       38.206     1667.016     4096.025     1459.720        0.393        0.361       24.281       23.592        0.944      334.766        4.955      871.921
01/22/2022  12:06:00       14.268       -5.867      -30.739      102.767       53.964       33.863    10561.003     2912.134     1146.733        0.790        0.731       15.427       34.552        5.016      334.677        4.807      871.898
01/22/2022  12:07:00       77.485       -3.143      -32.321       65.804       60.013       29.821     4330.209     3601.513      889.263        0.794        0.441       77.549       18.317        0.056      334.580        4.646      871.891
01/22/2022  12:08:00       64.004        3.389      -26.037       51.365       35.918       30.507     2638.390     1290.089      930.707        0.482        0.243       64.093       21.289        0.110      334.370        4.296      871.883
01/22/2022  12:09:00       48.244     -112.226      -36.205       55.192       53.127       30.421     3046.158     2822.446      925.415        1.151        0.340      122.156        9.430        0.006      334.572        4.634      871.860
01/22/2022  12:10:00       59.880     -160.405      -34.634       34.414       43.738       25.452     1184.305     1913.038      647.795        1.713        0.187      171.217       15.794        0.009      334.172        3.970      871.831
01/22/2022  12:11:00      116.727     -122.917      -20.166       59.752      149.560       50.813     3570.276    22368.217     2582.011        2.883        1.426      169.511       62.589        0.136      334.634        4.735      871.794
01/22/2022  12:12:00      111.331     -214.279      -57.418       81.984      107.382       33.802     6721.433    11530.810     1142.603        4.050        0.970      241.475       40.793        0.029      334.227        4.057      871.790
01/22/2022  12:13:00      127.846     -193.230      -48.378       89.803       69.360       43.523     8064.504     4810.798     1894.293        3.539        0.738      231.695       35.678        0.024      334.328        4.224      871.779
01/22/2022  12:14:00      202.516      -30.715      -42.801       95.294      102.706       52.772     9081.031    10548.521     2784.889        3.310        1.121      204.832       29.066        0.020      334.497        4.505      871.762
01/22/2022  12:15:00      198.310      -47.843      -50.166      174.933      110.892       88.635    30601.692    12297.125     7856.136        4.743        2.538      204.000       90.598        0.197      334.526        4.554      871.732
01/22/2022  12:16:00      207.251      -89.824      -32.192      105.540       69.496       61.825    11138.596     4829.678     3822.346        3.592        0.990      225.879       51.406        0.052      334.449        4.426      871.735
01/22/2022  12:17:00       52.589      -12.433      -18.131       91.572       78.372       46.451     8385.356     6142.108     2157.693        0.996        0.834       54.039       42.517        0.619      334.951        5.263      871.729
01/22/2022  12:18:00      138.700       34.132      -14.476       59.786       60.372       29.885     3574.376     3644.724      893.091        1.436        0.406      142.838       19.703        0.019      334.519        4.544      871.746
01/22/2022  12:19:00       41.763      -27.945      -18.431       54.684       48.195       36.899     2990.392     2322.778     1361.561        0.477        0.334       50.250       21.874        0.189      334.993        5.333      871.741
01/22/2022  12:20:00       28.830      -31.200      -10.079       58.671       59.457       37.521     3442.235     3535.168     1407.789        0.514        0.419       42.481       30.246        0.507      335.024        5.384      871.714
01/22/2022  12:21:00       54.771      -35.901      -26.177       68.677       64.909       41.619     4716.468     4213.180     1732.176        0.782        0.533       65.489       29.420        0.202      334.950        5.260      871.681
01/22/2022  12:22:00       87.668      -41.137      -35.506       90.056       85.426       48.027     8110.042     7297.621     2306.598        1.417        0.886       96.840       15.601        0.026      335.176        5.634      871.648
01/22/2022  12:23:00      130.491       -1.788      -27.572       97.221       76.551       56.335     9452.020     5860.073     3173.610        1.814        0.924      130.503       48.409        0.138      334.679        4.809      871.636
01/22/2022  12:24:00      116.926       26.871      -15.070       70.979       45.767       31.008     5038.014     2094.580      961.510        1.136        0.405      119.974       16.556        0.019      334.497        4.508      871.638
01/22/2022  12:25:00      160.339        5.593      -22.926       42.827       68.383       27.508     1834.143     4676.208      756.688        1.676        0.363      160.437       14.095        0.008      334.342        4.250      871.609
01/22/2022  12:26:00      166.115       56.639      -16.575       91.731       77.911       41.859     8414.569     6070.143     1752.208        2.365        0.812      175.506       33.844        0.037      334.676        4.805      871.568
01/22/2022  12:27:00      210.168       61.457      -13.924       97.056       72.397       51.618     9419.896     5241.297     2664.438        3.273        0.866      218.969       39.848        0.033      334.592        4.665      871.522
01/22/2022  12:28:00      107.353        5.713      -15.304      101.596       82.395       50.161    10321.683     6788.883     2516.114        1.571        0.981      107.505       45.775        0.181      335.048        5.422      871.490
01/22/2022  12:29:00       69.777      -27.511      -20.325       67.745       87.589       40.555     4589.438     7671.852     1644.704        0.997        0.695       75.004       40.292        0.289      335.118        5.539      871.478
01/22/2022  12:30:00       85.425      -63.940      -35.710       46.986       85.665       38.734     2207.641     7338.562     1500.348        1.185        0.552      106.704       26.340        0.061      334.852        5.098      871.468
01/22/2022  12:31:00        2.089      -42.944        5.720       68.613       76.359       56.146     4707.715     5830.757     3152.428        0.778        0.685       42.995       46.775        1.184      335.019        5.375      871.447
01/22/2022  12:32:00      -14.216      -67.496      -20.139       33.104       79.050       28.568     1095.903     6248.898      816.121        0.666        0.408       68.976       10.467        0.023      334.827        5.056      871.452
01/22/2022  12:33:00      113.360     -193.402      -48.347       43.567       76.946       36.534     1898.103     5920.721     1334.749        3.087        0.458      224.176       29.027        0.017      334.394        4.333      871.432
01/22/2022  12:34:00       88.650     -203.373      -39.821       49.330       87.963       44.398     2433.408     7737.527     1971.169        3.147        0.607      221.854       33.139        0.022      334.733        4.897      871.404
01/22/2022  12:35:00      103.167     -255.739      -56.021       80.326       96.588       55.371     6452.301     9329.281     3065.910        4.901        0.942      275.764       25.968        0.009      334.841        5.077      871.413
01/22/2022  12:36:00       28.387     -155.762      -35.087       56.750       74.038       40.269     3220.572     5481.644     1621.586        1.831        0.516      158.327       37.121        0.055      335.198        5.672      871.407
01/22/2022  12:37:00      112.159     -315.301      -68.453       71.553      102.439       41.052     5119.766    10493.772     1685.254        6.699        0.865      334.656       35.962        0.012      334.575        4.636      871.362
01/22/2022  12:38:00       55.029      -93.161      -40.024       70.506      100.854       36.513     4971.133    10171.431     1333.209        1.489        0.824      108.200       40.151        0.138      334.924        5.217      871.333
01/22/2022  12:39:00      145.790      -82.542      -30.410       86.139      105.165       66.090     7419.947    11059.724     4367.874        2.592        1.142      167.535       57.792        0.119      335.122        5.544      871.316
01/22/2022  12:40:00      106.895      -70.466      -29.147       82.756      104.792       63.210     6848.585    10981.268     3995.524        1.953        1.091      128.031       41.905        0.107      335.467        6.118      871.281
01/22/2022  12:41:00       96.431      -22.781       -5.694      121.335       92.703       66.670    14722.255     8593.784     4444.852        1.880        1.388       99.085       53.790        0.295      335.156        5.602      871.270
01/22/2022  12:42:00      136.539      -15.577      -19.176       77.839       88.935       55.003     6058.844     7909.410     3025.374        1.812        0.850      137.425       44.823        0.106      335.185        5.650      871.284
01/22/2022  12:43:00       52.683      -13.740      -31.189       88.336       58.252       37.475     7803.307     3393.345     1404.345        0.827        0.630       54.445       18.416        0.114      335.435        6.068      871.268
01/22/2022  12:44:00       14.297      -93.757      -25.566       93.311       87.722       54.423     8707.029     7695.236     2961.879        1.450        0.968       94.840       46.725        0.243      335.256        5.768      871.261
01/22/2022  12:45:00       80.201     -179.339      -18.548       72.848      111.340       58.430     5306.810    12396.624     3414.045        3.002        1.056      196.456       52.413        0.071      335.045        5.416      871.239
01/22/2022  12:46:00       83.870     -133.500      -36.988       73.732      101.816       30.465     5436.348    10366.580      928.129        2.147        0.837      157.659       42.318        0.072      334.772        4.963      871.245
01/22/2022  12:47:00       13.075      -48.599       -8.649       83.479       70.230       38.530     6968.707     4932.231     1484.589        0.799        0.669       50.328       30.179        0.360      335.314        5.865      871.234
01/22/2022  12:48:00      103.537      -39.443      -43.371       85.573      116.510       69.779     7322.801    13574.694     4869.167        1.996        1.288      110.796       40.133        0.131      335.298        5.838      871.197
01/22/2022  12:49:00      153.393      -93.896      -29.999      128.363      114.662       97.129    16476.973    13147.408     9433.981        3.614        1.953      179.849       89.615        0.248      334.908        5.188      871.156
01/22/2022  12:50:00       70.481      -57.489      -24.264      111.975       86.119       49.297    12538.289     7416.546     2430.161        1.562        1.119       90.954       41.468        0.208      335.045        5.417      871.159
01/22/2022  12:51:00      111.962        4.386      -37.873       98.803       94.921       43.575     9762.092     9010.002     1898.746        1.733        1.034      112.047       18.905        0.028      335.019        5.376      871.143
01/22/2022  12:52:00      238.323       -5.083      -26.693      104.221       52.124       36.043    10862.008     2716.940     1299.107        3.620        0.744      238.377       38.436        0.026      334.528        4.558      871.123
01/22/2022  12:53:00       99.881        5.711       -9.116       69.928       53.196       32.672     4889.908     2829.854     1067.443        0.944        0.439      100.044       17.042        0.029      335.025        5.387      871.099
01/22/2022  12:54:00      158.628      -72.896      -33.711      120.883      101.762       72.072    14612.588    10355.452     5194.431        3.088        1.508      174.575       56.923        0.106      335.220        5.708      871.050
01/22/2022  12:55:00       51.328      -73.175      -36.670       87.425       58.252       44.604     7643.200     3393.302     1989.522        1.118        0.651       89.382       21.570        0.058      335.343        5.913      871.076
01/22/2022  12:56:00       43.749      -86.217      -19.524       54.464      117.285       39.970     2966.313    13755.887     1597.623        1.402        0.916       96.682       27.283        0.080      335.184        5.648      871.062
01/22/2022  12:57:00       96.545       22.097       -6.409       87.755       43.620       32.990     7701.000     1902.689     1088.339        1.027        0.535       99.041       35.923        0.132      335.320        5.876      871.042
01/22/2022  12:58:00      211.811       62.004      -21.710       77.994       66.142       45.335     6083.090     4374.740     2055.288        3.084        0.626      220.699       42.964        0.038      334.989        5.323      871.043
01/22/2022  12:59:00       83.155       49.877      -21.886       50.489       50.360       26.389     2549.173     2536.090      696.353        0.783        0.289       96.966       20.484        0.045      334.728        4.892      871.063
01/22/2022  13:00:00       42.133       24.021      -27.121       36.133       31.160       24.466     1305.626      970.966      598.593        0.298        0.144       48.500       15.833        0.107      334.980        5.310      871.046
01/22/2022  13:01:00       68.211     -159.668      -21.688       65.815       96.037       46.886     4331.586     9223.046     2198.302        2.318        0.788      173.628       42.319        0.059      335.118        5.538      871.024
01/22/2022  13:02:00       -1.721      -45.470      -30.175       71.267       43.617       32.888     5079.053     1902.456     1081.619        0.552        0.403       45.503       21.055        0.214      335.510        6.191      870.991
01/22/2022  13:03:00       83.900     -101.952      -48.241       76.572       99.365       53.973     5863.226     9873.361     2913.082        1.920        0.932      132.035       38.995        0.087      335.379        5.973      870.955
01/22/2022  13:04:00      128.563      -23.188      -38.024      105.366      109.473       61.251    11101.998    11984.270     3751.719        2.267        1.342      130.638       42.651        0.107      335.392        5.994      870.914
01/22/2022  13:05:00      140.720     -110.104      -35.658      134.659      109.952       61.602    18133.071    12089.377     3794.849        3.360        1.701      178.676       44.144        0.061      335.282        5.809      870.909
01/22/2022  13:06:00      167.671     -139.639      -51.221      136.240      107.908       56.097    18561.419    11644.148     3146.895        4.179        1.668      218.203       47.152        0.047      334.884        5.147      870.886
01/22/2022  13:07:00      137.919      -32.425      -33.462       48.902       81.192       36.811     2391.374     6592.127     1355.082        1.576        0.517      141.679       24.566        0.030      334.758        4.943      870.880
01/22/2022  13:08:00        9.893      -35.733      -17.550       82.650       60.965       54.375     6830.981     3716.779     2956.622        0.759        0.675       37.077       28.366        0.585      335.485        6.151      870.832
01/22/2022  13:09:00       48.744     -129.609      -42.753      100.546       63.445       49.968    10109.464     4025.318     2496.771        1.881        0.832      138.472       39.200        0.080      335.543        6.246      870.837
01/22/2022  13:10:00       49.471      -47.328      -23.378       55.585       74.141       52.793     3089.664     5496.939     2787.093        0.830        0.569       68.464       32.231        0.222      335.882        6.811      870.838
01/22/2022  13:11:00       55.965     -113.091      -49.027       74.011      125.172       46.324     5477.629    15668.077     2145.924        2.080        1.165      126.181       30.278        0.058      335.444        6.079      870.836
01/22/2022  13:12:00       82.007     -199.163      -52.885       56.730      123.633       37.103     3218.293    15285.153     1376.607        3.453        0.994      215.385       18.349        0.007      335.249        5.754      870.841
01/22/2022  13:13:00       60.231      -39.428      -29.433       65.275       75.170       48.344     4260.876     5650.459     2337.137        0.915        0.612       71.989       32.762        0.207      335.557        6.270      870.852
01/22/2022  13:14:00       37.512      -89.720      -39.043       65.657       65.484       40.979     4310.850     4288.205     1679.265        1.063        0.514       97.246       33.264        0.117      335.699        6.507      870.863
01/22/2022  13:15:00       53.474        4.042      -22.408       60.080      106.545       44.054     3609.635    11351.743     1940.793        1.014        0.845       53.627       26.371        0.242      335.560        6.274      870.854
01/22/2022  13:16:00       97.550     -103.664      -26.694      116.457       94.604       61.518    13562.218     8949.876     3784.425        2.363        1.315      142.345       29.568        0.043      335.462        6.112      870.843
01/22/2022  13:17:00      122.425      -53.978      -33.314      137.355       98.064       62.522    18866.331     9616.455     3909.041        2.570        1.620      133.796       49.483        0.137      335.183        5.646      870.842
01/22/2022  13:18:00      198.355      -46.587      -27.760      127.058      133.789       82.663    16143.776    17899.602     6833.208        4.157        2.044      203.753       69.116        0.115      335.065        5.450      870.790
01/22/2022  13:19:00      198.457     -121.128      -43.192      158.399      153.925       81.701    25090.313    23692.988     6675.045        5.568        2.773      232.502       77.499        0.111      335.109        5.523      870.791
01/22/2022  13:20:00       53.070      -17.992       -5.669       82.293       72.286       57.632     6772.133     5225.327     3321.493        0.924        0.766       56.037       29.261        0.273      335.405        6.018      870.798
01/22/2022  13:21:00       99.929      -56.089      -16.800      104.174       98.486       73.312    10852.249     9699.405     5374.700        1.967        1.296      114.594       60.019        0.274      335.422        6.045      870.794
01/22/2022  13:22:00      118.572     -125.065      -33.708       64.570      115.951       40.744     4169.272    13444.708     1660.085        2.505        0.964      172.339       39.087        0.051      334.986        5.319      870.815
01/22/2022  13:23:00      162.433     -321.274      -74.206       97.248      116.430       51.879     9457.125    13555.949     2691.385        8.040        1.285      360.002       49.043        0.019      334.831        5.060      870.782
01/22/2022  13:24:00       76.409     -230.537      -34.918       64.453       71.406       42.194     4154.155     5098.850     1780.292        3.562        0.552      242.870       37.888        0.024      335.135        5.566      870.772
01/22/2022  13:25:00      113.580     -116.886      -58.862       78.046      117.365       58.656     6091.116    13774.510     3440.552        2.666        1.165      162.981       39.639        0.059      335.471        6.125      870.759
01/22/2022  13:26:00       56.133     -121.415      -22.891       77.683      119.963       43.191     6034.705    14391.106     1865.454        2.035        1.115      133.763       42.710        0.102      335.302        5.846      870.744
01/22/2022  13:27:00       92.891     -182.604      -58.781       57.633      116.293       34.596     3321.592    13524.039     1196.875        3.173        0.902      204.873       36.448        0.032      335.031        5.392      870.717
01/22/2022  13:28:00      101.454      -23.405      -15.552       87.822       77.137       40.941     7712.616     5950.071     1676.126        1.321        0.767      104.119       31.168        0.090      334.997        5.338      870.695
01/22/2022  13:29:00       96.180     -165.165      -55.414       69.218       78.586       35.482     4791.157     6175.728     1258.971        2.591        0.611      191.128       28.695        0.023      335.216        5.700      870.670
01/22/2022  13:30:00      223.865     -288.586      -60.992       83.954      122.316       57.459     7048.223    14961.173     3301.560        8.121        1.266      365.236       55.555        0.023      334.891        5.159      870.642
01/22/2022  13:31:00      162.149     -128.095      -42.815      118.265      156.568       78.409    13986.528    24513.507     6148.048        4.458        2.232      206.641       57.855        0.078      335.037        5.402      870.610
01/22/2022  13:32:00      139.466      -40.714      -13.123      137.831       90.829       65.855    18997.452     8249.872     4336.941        2.643        1.579      145.287       54.099        0.139      335.324        5.879      870.605
01/22/2022  13:33:00       68.680     -185.553      -48.223       77.800      102.658       48.813     6052.792    10538.703     2382.748        3.022        0.949      197.856       20.300        0.011      334.984        5.315      870.608
01/22/2022  13:34:00       10.500      -38.045      -29.943       46.712       27.392       34.691     2181.965      750.348     1203.491        0.329        0.207       39.468       12.758        0.104      335.305        5.851      870.599
01/22/2022  13:35:00       32.228     -121.530      -10.761       48.306       64.878       32.005     2333.512     4209.209     1024.325        1.174        0.378      125.730       17.360        0.019      335.384        5.981      870.590
01/22/2022  13:36:00      113.706     -121.536      -31.000      104.301       83.174       57.930    10878.796     6917.837     3355.848        2.490        1.058      166.434       35.933        0.047      335.142        5.576      870.582
01/22/2022  13:37:00      159.370      -14.088      -29.356      100.704       94.346       59.683    10141.286     8901.260     3562.037        2.453        1.130      159.991       31.680        0.039      335.198        5.672      870.578
01/22/2022  13:38:00      182.467       21.378      -14.346       83.811       96.854       46.497     7024.366     9380.700     2161.962        2.626        0.928      183.715       30.397        0.027      335.203        5.676      870.574
01/22/2022  13:39:00       95.828      -52.219       -8.550      103.505       98.790       45.071    10713.332     9759.523     2031.362        1.724        1.125      109.132       47.599        0.190      335.536        6.234      870.565
01/22/2022  13:40:00      143.533      -96.211      -33.752       87.352      101.264       67.005     7630.371    10254.495     4489.706        2.668        1.119      172.795       51.403        0.088      335.221        5.709      870.558
01/22/2022  13:41:00        7.289     -102.894      -17.628       88.476       99.031       44.654     7828.046     9807.072     1994.005        1.529        0.981      103.151       45.602        0.195      335.422        6.045      870.543
01/22/2022  13:42:00       99.312      -88.152      -40.292       87.514      104.425       50.523     7658.744    10904.525     2552.527        2.018        1.056      132.791       40.615        0.094      335.319        5.872      870.545
01/22/2022  13:43:00      221.624      -60.753      -25.607      163.783       99.212       86.094    26824.922     9842.928     7412.175        4.876        2.204      229.800       90.474        0.155      335.202        5.676      870.539
01/22/2022  13:44:00      160.634      -86.751      -29.428       96.287      120.701       71.859     9271.221    14568.809     5163.703        3.159        1.450      182.563       53.896        0.087      335.284        5.813      870.527
01/22/2022  13:45:00      192.481     -143.199      -38.916      122.483       86.683       38.079    15002.148     7513.864     1449.979        4.151        1.198      239.906       21.956        0.008      335.164        5.612      870.492
01/22/2022  13:46:00      165.790     -187.762      -48.812       88.452       95.581       56.448     7823.736     9135.642     3186.401        4.263        1.007      250.481       41.773        0.028      335.296        5.832      870.471
01/22/2022  13:47:00      151.075     -237.072      -46.854       75.210      111.066       51.255     5656.488    12335.592     2627.123        5.092        1.031      281.117       47.644        0.029      335.179        5.637      870.445
01/22/2022  13:48:00      161.149     -257.945      -59.567       97.088       74.329       51.522     9425.996     5524.858     2654.470        5.683        0.880      304.146       53.954        0.031      335.219        5.703      870.427
01/22/2022  13:49:00      113.190        9.171      -11.257      111.128       78.324       35.773    12349.369     6134.616     1279.675        1.639        0.988      113.561       32.773        0.083      335.387        5.987      870.447
01/22/2022  13:50:00      104.333      -25.625      -18.362       88.769       72.653       55.680     7879.952     5278.395     3100.245        1.407        0.813      107.434       34.719        0.104      335.557        6.269      870.441
01/22/2022  13:51:00      197.683       -4.695      -23.619       98.678      104.516       61.715     9737.360    10923.656     3808.681        3.206        1.223      197.739       47.862        0.059      335.424        6.048      870.423
01/22/2022  13:52:00      160.258      -48.898        8.271      157.209       93.442       77.465    24714.597     8731.344     6000.829        3.379        1.972      167.552       74.286        0.197      335.625        6.380      870.410
01/22/2022  13:53:00      192.658      -28.790      -29.040      123.911      102.016       55.716    15353.944    10407.340     3104.293        3.382        1.443      194.797       21.776        0.012      335.668        6.453      870.413
01/22/2022  13:54:00       83.057      -83.043      -35.859       91.631       77.410       47.967     8396.185     5992.329     2300.850        1.588        0.834      117.451       42.394        0.130      335.587        6.320      870.404
01/22/2022  13:55:00      103.444      -78.449      -18.430       89.564      122.400       57.779     8021.779    14981.709     3338.361        2.176        1.317      129.827       69.900        0.290      335.641        6.410      870.399
01/22/2022  13:56:00      249.966     -139.842      -61.010      122.897      115.471       67.217    15103.595    13333.441     4518.091        5.935        1.648      286.423       59.792        0.044      335.295        5.831      870.385
01/22/2022  13:57:00      110.522      -52.396      -11.081      108.729      109.989       61.501    11822.094    12097.637     3782.319        2.139        1.385      122.313       49.031        0.161      335.682        6.476      870.390
01/22/2022  13:58:00      137.348      -20.894      -22.062      127.267       95.502       70.716    16196.763     9120.661     5000.788        2.505        1.516      138.928       53.032        0.146      335.522        6.212      870.413
01/22/2022  13:59:00      234.485      -53.521      -20.090      145.927      117.882       84.141    21294.588    13896.105     7079.653        5.025        2.114      240.515       76.113        0.100      335.338        5.903      870.381
01/22/2022  14:00:00      187.352     -157.018      -63.573      139.295      124.961       73.253    19403.148    15615.246     5366.052        5.208        2.019      244.449       44.437        0.033      335.359        5.938      870.381
01/22/2022  14:01:00      140.012      -65.474      -48.580      114.719      105.185       65.577    13160.408    11063.938     4300.381        2.738        1.426      154.565       54.568        0.125      335.644        6.413      870.394
01/22/2022  14:02:00      149.390      -41.338      -28.759       80.309      118.478       57.950     6449.557    14036.959     3358.200        2.434        1.192      155.003       42.986        0.077      335.748        6.586      870.395
01/22/2022  14:03:00      214.023      -76.851      -28.236      112.616      101.549       69.072    12682.359    10312.109     4770.893        4.013        1.388      227.403       62.638        0.076      335.501        6.173      870.380
01/22/2022  14:04:00      174.305     -141.845      -37.069       98.979       69.584       46.318     9796.840     4841.891     2145.361        3.433        0.839      224.727       39.348        0.031      335.412        6.025      870.381
01/22/2022  14:05:00      122.252       17.761      -14.124       77.347       99.912       46.584     5982.510     9982.443     2170.041        1.679        0.907      123.536       44.482        0.130      335.408        6.019      870.387
01/22/2022  14:06:00       84.742       10.307       -8.894       75.618       82.292       53.498     5718.047     6771.985     2862.070        1.136        0.768       85.366       43.616        0.261      335.648        6.421      870.351
01/22/2022  14:07:00      162.160      -55.038      -28.207      120.576      112.606       67.914    14538.610    12680.162     4612.253        3.097        1.592      171.245       59.529        0.121      335.634        6.397      870.337
01/22/2022  14:08:00      147.209      -58.421      -17.162      150.784       92.746       87.657    22735.840     8601.858     7683.668        3.219        1.951      158.378       84.173        0.282      335.382        5.976      870.311
01/22/2022  14:09:00      121.482      -39.798       -2.539      111.783       79.632       69.613    12495.447     6341.201     4845.960        2.001        1.184      127.835       69.111        0.292      335.523        6.211      870.314
01/22/2022  14:10:00      124.725      -66.478      -13.771       93.427       93.409       61.601     8728.696     8725.155     3794.673        2.070        1.062      141.335       53.904        0.145      335.538        6.236      870.308
01/22/2022  14:11:00      168.451      -66.487      -31.857       95.755      100.466       54.569     9169.022    10093.483     2977.731        2.802        1.112      181.097       50.233        0.077      335.528        6.219      870.302
01/22/2022  14:12:00       95.730      -29.489       -7.525      108.526       70.121       55.134    11777.867     4916.992     3039.714        1.491        0.987      100.169       43.955        0.193      335.690        6.491      870.281
01/22/2022  14:13:00      135.041      -67.528      -38.372      136.748      103.065       75.818    18699.911    10622.426     5748.429        2.966        1.754      150.984       47.703        0.100      335.710        6.524      870.280
01/22/2022  14:14:00      104.757      -54.208      -18.300      108.260      100.819       87.243    11720.290    10164.540     7611.409        2.187        1.475      117.952       73.015        0.383      335.515        6.200      870.269
01/22/2022  14:15:00      131.211      -40.756      -16.662       99.974      107.976       61.356     9994.797    11658.852     3764.560        2.228        1.271      137.395       39.914        0.084      335.764        6.614      870.289
01/22/2022  14:16:00      144.800      -90.469       -2.406      153.182      129.016       79.012    23464.837    16645.113     6242.900        3.775        2.318      170.738       67.915        0.158      335.849        6.755      870.262
01/22/2022  14:17:00      120.114      -20.717      -39.799      163.560      115.303       82.645    26752.011    13294.872     6830.275        3.165        2.344      121.887       66.872        0.301      335.668        6.455      870.266
01/22/2022  14:18:00      191.456      -86.891      -42.870      119.107      122.090       82.201    14186.494    14905.857     6756.966        4.094        1.792      210.251       73.791        0.123      335.534        6.230      870.254
01/22/2022  14:19:00      222.259     -111.039      -30.857      116.764       91.653       65.071    13633.902     8400.328     4234.222        4.447        1.313      248.453       57.648        0.054      335.384        5.980      870.274
01/22/2022  14:20:00      152.413      -94.191      -42.648       75.669       99.763       47.121     5725.805     9952.624     2220.373        2.591        0.895      179.170       35.277        0.039      335.527        6.219      870.280
01/22/2022  14:21:00      152.561     -122.282      -29.937       76.270       86.407       45.171     5817.174     7466.092     2040.451        2.722        0.766      195.519       47.422        0.059      335.406        6.016      870.288
01/22/2022  14:22:00      136.216      -35.994      -32.705       83.379       63.879       41.136     6952.020     4080.555     1692.192        1.682        0.636      140.891       34.978        0.062      335.581        6.308      870.286
01/22/2022  14:23:00       48.693      -19.026      -18.900       49.436       65.660       42.980     2443.899     4311.239     1847.261        0.584        0.430       52.278       31.340        0.359      335.859        6.773      870.288
01/22/2022  14:24:00      197.839        2.822      -43.098      121.034      100.536       70.454    14649.318    10107.402     4963.795        3.536        1.486      197.859       43.800        0.049      335.600        6.341      870.319
01/22/2022  14:25:00      108.564      -38.708      -22.568      110.710       72.878       67.519    12256.732     5311.266     4558.850        1.796        1.106      115.258       65.462        0.323      335.579        6.305      870.321
01/22/2022  14:26:00      136.772      -47.119      -34.856       92.970       76.790       47.535     8643.408     5896.675     2259.559        1.947        0.840      144.661       11.511        0.006      335.528        6.222      870.333
01/22/2022  14:27:00      172.878      -97.883      -40.463      100.772      100.373       62.441    10154.916    10074.787     3898.922        3.261        1.206      198.665       35.551        0.032      335.726        6.549      870.332
01/22/2022  14:28:00      137.902     -144.684      -36.288       97.306       87.234       52.096     9468.412     7609.761     2714.000        3.053        0.990      199.876       47.265        0.056      335.647        6.418      870.322
01/22/2022  14:29:00       60.014     -133.020      -27.757       72.975       90.668       54.858     5325.346     8220.718     3009.381        1.931        0.828      145.931       45.312        0.096      335.942        6.911      870.311
01/22/2022  14:30:00      125.655     -155.612      -42.446       68.784       82.643       46.063     4731.306     6829.799     2121.798        2.774        0.684      200.011       38.985        0.038      335.507        6.184      870.283
01/22/2022  14:31:00      106.696     -103.528      -24.284      102.125      132.120       61.947    10429.421    17455.619     3837.455        2.720        1.586      148.668       79.932        0.289      335.717        6.535      870.227
01/22/2022  14:32:00      126.821      -26.755      -20.694      116.400       66.986       60.016    13549.015     4487.088     3601.966        1.943        1.082      129.613       58.554        0.204      335.657        6.435      870.216
01/22/2022  14:33:00       95.787        1.305      -36.381       74.863       75.921       50.744     5604.531     5764.062     2574.906        1.222        0.697       95.796       25.265        0.070      335.755        6.601      870.211
01/22/2022  14:34:00      143.211      -73.213      -25.263       80.473       84.119       56.936     6475.830     7075.985     3241.680        2.165        0.840      160.840       41.517        0.067      335.832        6.727      870.204
01/22/2022  14:35:00       50.409     -249.624      -30.898       85.450      132.401       61.160     7301.709    17529.930     3740.487        4.718        1.429      254.663       65.074        0.065      335.642        6.408      870.211
01/22/2022  14:36:00       42.987     -165.216      -19.814       56.892       77.486       49.198     3236.710     6004.018     2420.452        2.060        0.583      170.717       37.363        0.048      335.761        6.607      870.220
01/22/2022  14:37:00      102.213       -1.051      -21.086      101.240       89.869       44.923    10249.500     8076.394     2018.107        1.561        1.017      102.218       28.693        0.079      335.912        6.862      870.217
01/22/2022  14:38:00      128.834       10.161      -17.366       87.184       98.452       47.237     7601.074     9692.792     2231.367        1.826        0.976      129.234       30.123        0.054      335.986        6.983      870.230
01/22/2022  14:39:00      417.259       69.592      -31.815      137.250      104.072       60.195    18837.585    10830.924     3623.400       10.662        1.665      423.022       43.072        0.010      335.485        6.147      870.235
01/22/2022  14:40:00      258.023       37.554      -25.378      124.640       57.650       45.792    15535.209     3323.469     2096.869        4.479        1.048      260.742       47.737        0.034      335.284        5.814      870.269
01/22/2022  14:41:00      198.443       45.406      -15.909       97.424      100.337       45.894     9491.509    10067.470     2106.304        3.168        1.083      203.572       47.579        0.055      335.528        6.216      870.251
01/22/2022  14:42:00      194.507        4.646       -6.915      113.674       89.898       52.600    12921.690     8081.699     2766.804        3.083        1.189      194.562       45.374        0.054      335.783        6.644      870.226
01/22/2022  14:43:00      128.232       -0.085      -12.904      102.905       83.297       58.811    10589.502     6938.333     3458.721        1.879        1.049      128.232       34.606        0.073      335.983        6.978      870.205
01/22/2022  14:44:00      129.391       -6.900      -17.882      100.014       74.752       52.166    10002.837     5587.933     2721.310        1.771        0.916      129.575       30.322        0.055      335.837        6.736      870.162
01/22/2022  14:45:00      153.664       -3.338      -30.256       81.407       65.795       38.998     6627.115     4328.923     1520.880        1.851        0.624      153.700       30.543        0.039      336.011        7.025      870.130
01/22/2022  14:46:00      208.499       24.618      -27.126      117.162       98.894       56.428    13727.047     9780.047     3184.171        3.575        1.335      209.947       38.397        0.033      335.832        6.726      870.108
01/22/2022  14:47:00      211.480      -33.355      -23.066      146.955      115.022       83.583    21595.883    13230.082     6986.187        4.408        2.091      214.094       60.080        0.079      335.845        6.747      870.063
01/22/2022  14:48:00      154.392      -24.304      -27.576      117.516      125.843       76.378    13809.973    15836.430     5833.621        3.033        1.774      156.293       44.749        0.082      335.808        6.686      870.029
01/22/2022  14:49:00      218.997        9.231      -13.888       83.388       88.147       54.078     6953.612     7769.889     2924.395        3.294        0.882      219.192       36.383        0.028      335.787        6.651      870.048
01/22/2022  14:50:00      367.186        6.897      -24.845      113.241      130.131       60.937    12823.412    16933.968     3713.350        8.447        1.674      367.251       49.114        0.018      335.839        6.737      870.057
01/22/2022  14:51:00      184.083       48.926      -20.185      107.415      108.501       68.789    11538.027    11772.415     4731.893        3.236        1.402      190.474       37.018        0.038      335.835        6.732      870.051
01/22/2022  14:52:00      291.148     -108.680      -20.751      179.652      102.137       90.933    32274.719    10432.057     8268.777        7.398        2.549      310.771       73.873        0.057      335.736        6.566      869.993
01/22/2022  14:53:00      225.586      -40.810      -17.712      201.431      137.790       82.314    40574.320    18986.100     6775.666        5.959        3.317      229.248       74.862        0.107      335.828        6.720      869.989
01/22/2022  14:54:00      183.637      -47.211      -39.358      149.673      123.671       82.479    22401.984    15294.448     6802.714        4.099        2.225      189.608       60.964        0.103      335.747        6.585      869.977
01/22/2022  14:55:00      178.282       11.408      -19.418      129.471      121.433       81.813    16762.686    14745.871     6693.397        3.524        1.910      178.647       76.206        0.182      335.819        6.705      869.970
01/22/2022  14:56:00      209.220      -40.613      -14.914      189.477      117.582       98.235    35901.613    13825.629     9650.162        5.250        2.969      213.126       96.415        0.205      335.817        6.701      869.974
01/22/2022  14:57:00      173.323      -34.216      -17.832      145.502       95.830       85.819    21170.739     9183.474     7364.913        3.462        1.886      176.668       74.512        0.178      335.802        6.675      869.961
01/22/2022  14:58:00       91.338      -16.189      -17.176      132.448      117.522       56.410    17542.478    13811.475     3182.039        2.171        1.727       92.762       54.427        0.344      335.998        7.004      869.963
01/22/2022  14:59:00      165.952      -33.383      -27.569      115.050      115.491       82.575    13236.591    13338.225     6818.565        3.140        1.670      169.276       61.377        0.131      335.872        6.792      869.948
01/22/2022  15:00:00      118.136      -43.750      -34.533      124.908       91.352       71.073    15601.923     8345.251     5051.308        2.303        1.450      125.977       56.834        0.204      335.844        6.746      869.911
01/22/2022  15:01:00      146.529      -30.197      -47.989       94.471       74.432       45.748     8924.705     5540.140     2092.878        2.062        0.828      149.608       19.384        0.017      335.967        6.954      869.940
01/22/2022  15:02:00      243.500      -91.739      -33.129      177.861      133.116       97.985    31634.527    17719.827     9601.084        6.387        2.948      260.208       89.945        0.119      335.838        6.736      869.920
01/22/2022  15:03:00      239.724        9.208      -15.766      156.583      116.903       79.702    24518.304    13666.292     6352.469        5.116        2.227      239.901       62.384        0.068      335.873        6.795      869.946
01/22/2022  15:04:00      224.156      -57.245      -28.914      154.798      120.410       88.971    23962.437    14498.601     7915.754        5.036        2.319      231.350       74.742        0.104      335.758        6.603      869.933
01/22/2022  15:05:00      183.620      -54.504      -56.743      112.056      114.854       66.993    12556.481    13191.512     4488.000        3.507        1.512      191.538       50.334        0.069      335.775        6.631      869.931
01/22/2022  15:06:00      228.249      -71.069      -34.063      134.798       99.582       62.014    18170.464     9916.598     3845.713        4.511        1.597      239.057       43.809        0.034      335.722        6.543      869.886
01/22/2022  15:07:00      169.404      -53.114      -39.782      136.643      114.958       82.629    18671.334    13215.436     6827.579        3.590        1.936      177.536       72.162        0.165      335.840        6.739      869.852
01/22/2022  15:08:00      182.833      -60.848      -20.116      158.416      133.242       87.371    25095.544    17753.562     7633.684        4.400        2.524      192.692       84.450        0.192      335.854        6.763      869.801
01/22/2022  15:09:00      244.923      -45.124      -39.107      177.543      136.165       81.425    31521.401    18540.858     6630.068        6.011        2.835      249.045       61.363        0.061      335.791        6.658      869.767
01/22/2022  15:10:00      264.895        7.629      -29.139      124.836      118.170       54.915    15584.107    13964.136     3015.619        5.181        1.628      265.005       39.241        0.022      335.748        6.586      869.764
01/22/2022  15:11:00      189.079      -24.874       -0.461      129.800      104.561       73.241    16848.162    10933.021     5364.299        3.475        1.657      190.708       61.414        0.104      335.725        6.547      869.746
01/22/2022  15:12:00      111.388       -8.434      -18.989       87.781       81.672       40.215     7705.455     6670.240     1617.232        1.441        0.800      111.707       22.482        0.041      335.830        6.723      869.720
01/22/2022  15:13:00       85.421        0.279      -36.024       67.742       95.948       48.992     4589.032     9206.041     2400.169        1.239        0.810       85.422       26.384        0.095      336.017        7.035      869.699
01/22/2022  15:14:00      222.534      -32.275      -41.317      138.018      142.256      102.842    19049.103    20236.710    10576.528        5.106        2.493      224.862       76.609        0.116      335.864        6.778      869.624
01/22/2022  15:15:00      366.305      -32.311      -22.074      204.528      133.515      105.225    41831.704    17826.288    11072.328       10.321        3.537      367.727       87.163        0.056      335.763        6.609      869.637
01/22/2022  15:16:00      377.258      -40.087      -40.387      204.917      132.355       77.011    41990.877    17517.755     5930.688       10.549        3.272      379.382       79.878        0.044      335.614        6.362      869.652
01/22/2022  15:17:00      142.522      -72.468      -25.016      162.526      121.125       82.511    26414.853    14671.247     6808.070        3.703        2.395      159.888       65.560        0.168      335.838        6.737      869.642
01/22/2022  15:18:00      203.926      -18.738      -29.561      160.264      125.837       92.337    25684.571    15834.905     8526.212        4.642        2.502      204.785       68.403        0.112      335.755        6.598      869.653
01/22/2022  15:19:00      129.458      -67.325      -22.731      146.170      126.689       70.858    21365.614    16050.157     5020.916        3.211        2.122      145.918       46.348        0.101      335.826        6.716      869.674
01/22/2022  15:20:00      115.820     -169.545      -36.761      126.984      135.903       88.291    16124.931    18469.519     7795.282        4.294        2.119      205.329       75.805        0.136      335.826        6.716      869.680
01/22/2022  15:21:00      121.508      -72.962      -39.689       93.865      125.928       73.884     8810.623    15857.926     5458.855        2.589        1.506      141.731       49.524        0.122      335.890        6.826      869.709
01/22/2022  15:22:00      256.084       -5.534      -27.592      185.519       89.900       74.697    34417.124     8081.930     5579.577        5.722        2.404      256.143       60.024        0.055      335.813        6.695      869.712
01/22/2022  15:23:00      167.457      -38.769      -28.646      150.761      123.173       76.690    22728.837    15171.601     5881.287        3.707        2.189      171.887       68.824        0.160      335.877        6.801      869.719
01/22/2022  15:24:00      131.993      -24.038       -3.303      139.134      112.553       82.115    19358.357    12668.277     6742.950        2.838        1.938      134.164       71.363        0.283      335.839        6.737      869.706
01/22/2022  15:25:00      157.470      -85.423      -33.907      101.622       96.796       64.042    10326.980     9369.545     4101.318        2.852        1.190      179.147       55.779        0.097      335.905        6.848      869.731
01/22/2022  15:26:00      131.741     -166.956      -43.462       91.307      106.845       59.569     8336.972    11415.867     3548.506        3.521        1.165      212.674       45.294        0.045      335.850        6.754      869.757
01/22/2022  15:27:00      171.379      -56.436      -33.583      168.506      119.567       72.311    28394.332    14296.360     5228.950        4.079        2.396      180.432       62.507        0.120      335.824        6.712      869.770
01/22/2022  15:28:00      237.801       -9.122      -12.641      160.176       98.292       76.277    25656.313     9661.400     5818.146        4.896        2.057      237.976       83.484        0.123      335.727        6.549      869.787
01/22/2022  15:29:00      162.928      -29.935      -38.111      142.084      102.466       62.176    20187.904    10499.347     3865.822        3.172        1.728      165.655       49.749        0.090      335.856        6.766      869.817
01/22/2022  15:30:00      213.477     -116.345      -34.045      138.167      139.966       83.583    19090.227    19590.427     6986.045        5.296        2.283      243.123       84.880        0.122      335.748        6.585      869.822
01/22/2022  15:31:00      145.812      -86.412      -43.524      135.347      105.437       64.139    18318.696    11116.875     4113.778        3.208        1.677      169.494       44.492        0.069      335.767        6.618      869.867
01/22/2022  15:32:00      146.430      -76.806      -43.478       97.702      135.415       60.515     9545.710    18337.115     3662.075        3.038        1.577      165.351       62.901        0.145      335.899        6.838      869.894
01/22/2022  15:33:00      171.025     -179.665      -52.465      104.843      114.679       76.225    10991.987    13151.187     5810.306        4.711        1.498      248.051       66.995        0.073      335.677        6.467      869.933
01/22/2022  15:34:00      178.544      -69.864      -35.773      107.375      121.681       55.368    11529.307    14806.336     3065.627        3.371        1.470      191.726       59.077        0.095      335.606        6.350      869.958
01/22/2022  15:35:00       40.542      -31.952      -29.311      113.444       56.002       40.322    12869.635     3136.257     1625.888        1.057        0.882       51.620       14.956        0.084      335.872        6.794      869.946
01/22/2022  15:36:00      102.690     -142.682      -22.579       96.493      157.259       61.638     9310.804    24730.472     3799.241        3.462        1.892      175.794       51.977        0.087      335.813        6.694      869.981
01/22/2022  15:37:00       70.493      -55.842      -52.489      123.623      111.615       70.209    15282.725    12457.977     4929.262        2.175        1.633       89.931       28.896        0.103      335.815        6.699      869.991
01/22/2022  15:38:00      103.826     -143.367      -50.964       92.332      101.268       53.365     8525.136    10255.109     2847.874        2.778        1.081      177.014       44.761        0.064      335.948        6.918      870.005
01/22/2022  15:39:00      108.794     -268.654      -50.694       68.451       79.995       42.653     4685.481     6399.221     1819.315        4.974        0.645      289.847       34.970        0.015      335.782        6.640      870.016
01/22/2022  15:40:00      228.449     -144.652      -63.237      118.367      108.476       59.886    14010.695    11767.063     3586.379        5.323        1.468      270.395       43.910        0.026      335.711        6.523      869.997
01/22/2022  15:41:00      201.450      -77.582      -45.106      117.424      114.354       66.627    13788.368    13076.800     4439.156        3.996        1.565      215.873       67.537        0.098      335.699        6.503      869.987
01/22/2022  15:42:00      195.207     -107.596      -47.482      124.319      108.431       60.494    15455.174    11757.326     3659.488        4.140        1.544      222.896       54.809        0.060      335.765        6.614      869.973
01/22/2022  15:43:00      153.159      -54.191      -23.465      147.989      115.386       57.050    21900.769    13313.904     3254.690        3.270        1.923      162.463       53.712        0.109      335.781        6.642      869.976
01/22/2022  15:44:00      252.744      -33.834      -20.692      194.695      128.539       93.022    37906.245    16522.316     8653.013        6.426        3.154      254.998       97.163        0.145      335.643        6.411      869.971
01/22/2022  15:45:00      177.219      -63.675      -48.452      111.957      109.901       67.699    12534.300    12078.272     4583.156        3.350        1.460      188.311       31.567        0.028      335.706        6.515      870.001
01/22/2022  15:46:00      178.214      -73.648      -20.018      136.341      125.930       77.042    18588.736    15858.433     5935.537        3.898        2.019      192.832       65.048        0.114      335.645        6.413      869.984
01/22/2022  15:47:00      272.635        2.127      -36.630      119.564       82.803       64.736    14295.499     6856.314     4190.752        5.050        1.267      272.643       52.276        0.037      335.623        6.377      869.989
01/22/2022  15:48:00      254.415       51.466      -20.136       89.893       75.511       53.327     8080.828     5701.878     2843.796        4.220        0.831      259.569       40.070        0.024      335.520        6.204      869.992
01/22/2022  15:49:00      260.140       69.452      -11.414       91.903       75.944       44.534     8446.096     5767.555     1983.300        4.441        0.810      269.251       44.004        0.027      335.561        6.273      870.001
01/22/2022  15:50:00      209.712       49.258      -25.067       78.152      100.677       42.813     6107.668    10135.933     1832.958        3.255        0.904      215.419       34.983        0.026      335.647        6.414      870.014
01/22/2022  15:51:00      185.810       -4.332      -18.253       90.245       83.355       50.287     8144.109     6948.105     2528.804        2.625        0.881      185.861       26.795        0.021      335.754        6.597      870.023
01/22/2022  15:52:00      124.106      -97.288      -28.205      119.366       84.322       52.632    14248.196     7110.197     2770.180        2.489        1.206      157.693       36.016        0.052      335.857        6.768      870.036
01/22/2022  15:53:00      110.000      -87.186      -29.020       93.798       66.978       42.660     8798.154     4486.030     1819.900        1.782        0.755      140.362       37.671        0.072      335.807        6.687      870.055
01/22/2022  15:54:00       77.228      -32.826      -18.958       86.366       78.200       49.406     7459.172     6115.237     2440.928        1.171        0.801       83.915       40.207        0.230      335.869        6.789      870.043
01/22/2022  15:55:00      100.264       -8.351      -11.646       83.163       77.809       57.383     6916.085     6054.168     3292.796        1.326        0.813      100.611       39.974        0.158      335.816        6.701      870.029
01/22/2022  15:56:00      149.140      -54.827      -19.261      110.292      109.990       57.639    12164.280    12097.764     3322.255        2.660        1.379      158.899       47.685        0.090      335.793        6.661      870.011
01/22/2022  15:57:00      170.869      -93.407      -32.132      143.134      104.512       87.650    20487.296    10922.782     7682.562        3.902        1.955      194.733       69.071        0.126      335.744        6.579      869.966
01/22/2022  15:58:00      196.605      -39.578      -21.993      142.417      120.347       83.417    20282.632    14483.401     6958.362        4.121        2.086      200.549       67.313        0.113      335.752        6.592      869.973
01/22/2022  15:59:00      184.445      -22.053      -40.946       85.846       89.005       50.253     7369.493     7921.914     2525.363        2.700        0.891      185.759       35.031        0.036      335.651        6.423      869.990
01/22/2022  16:00:00      179.054       35.111      -26.090       87.055       71.897       34.070     7578.611     5169.149     1160.763        2.394        0.695      182.464       29.019        0.025      335.677        6.468      869.987
01/22/2022  16:01:00      119.447       10.461      -16.622       90.512       76.781       39.070     8192.364     5895.347     1526.469        1.513        0.781      119.905       21.039        0.031      335.721        6.542      869.991
01/22/2022  16:02:00       84.558        8.745      -35.427       57.207       85.891       45.197     3272.632     7377.194     2042.784        1.058        0.635       85.009       27.548        0.105      335.800        6.673      869.989
01/22/2022  16:03:00      107.508       -6.521      -31.543       86.943       97.055       46.999     7559.147     9419.681     2208.903        1.589        0.959      107.705       27.197        0.064      335.759        6.606      869.986
01/22/2022  16:04:00       26.159      -47.095      -31.659       62.860       82.784       42.835     3951.400     6853.120     1834.833        0.827        0.632       53.873       32.096        0.355      335.921        6.876      869.976
01/22/2022  16:05:00       99.519      -57.482      -16.745      105.407       90.336       66.926    11110.663     8160.558     4479.079        1.862        1.188      114.927       55.870        0.236      335.808        6.686      869.963
01/22/2022  16:06:00      106.902      -38.089      -23.325       86.859       85.981       63.074     7544.510     7392.721     3978.269        1.617        0.946      113.485       41.397        0.133      335.751        6.592      869.955
01/22/2022  16:07:00      210.648      -14.704      -26.533      143.658       83.811       53.203    20637.573     7024.334     2830.507        3.789        1.525      211.161       39.766        0.035      335.638        6.403      869.975
01/22/2022  16:08:00      196.356       -7.402      -10.536      132.404       75.063       58.888    17530.834     5634.501     3467.758        3.267        1.332      196.495       63.980        0.106      335.665        6.447      869.976
01/22/2022  16:09:00      205.311       61.208      -17.709      135.522      115.263       48.500    18366.281    13285.611     2352.208        4.010        1.700      214.241       38.892        0.033      335.620        6.372      869.984
01/22/2022  16:10:00      270.663       79.457      -34.868       76.867       62.995       44.760     5908.602     3968.413     2003.436        4.633        0.594      282.085       24.061        0.007      335.591        6.324      869.983
01/22/2022  16:11:00      216.221       27.836      -12.067      143.743       94.547       53.509    20662.158     8939.190     2863.188        4.006        1.623      218.005       41.649        0.036      335.630        6.390      869.985
01/22/2022  16:12:00      182.769       10.391      -24.721      129.054      108.188       64.199    16654.887    11704.694     4121.553        3.330        1.624      183.064       41.195        0.051      335.572        6.294      869.996
01/22/2022  16:13:00      166.987      -43.514      -21.572      119.466      100.637       57.211    14272.085    10127.877     3273.054        2.895        1.384      172.564       49.533        0.082      335.560        6.274      869.998
01/22/2022  16:14:00      132.008        5.285      -30.566       77.639       80.060       37.536     6027.754     6409.679     1408.956        1.611        0.692      132.114       14.761        0.012      335.561        6.276      870.034
01/22/2022  16:15:00      223.980       20.969      -22.093      127.873       66.314       44.321    16351.420     4397.516     1964.308        3.690        1.136      224.959       28.192        0.016      335.439        6.071      870.052
01/22/2022  16:16:00      126.647      -66.913      -19.899       76.222       68.308       46.264     5809.802     4665.917     2140.389        1.676        0.631      143.237       31.359        0.048      335.623        6.379      870.066
01/22/2022  16:17:00      140.158      -80.055      -31.342       82.610      105.549       50.573     6824.390    11140.591     2557.678        2.378        1.026      161.409       39.227        0.059      335.610        6.355      870.077
01/22/2022  16:18:00      163.732      -44.629      -27.666       66.621       87.251       48.191     4438.327     7612.766     2322.384        2.197        0.719      169.706       32.685        0.037      335.534        6.230      870.075
01/22/2022  16:19:00      120.431       35.208      -34.963       57.619       76.633       50.942     3319.953     5872.543     2595.121        1.437        0.589      125.472       26.171        0.044      335.471        6.127      870.073
01/22/2022  16:20:00       66.423      -48.750      -30.323       59.704       85.300       41.627     3564.600     7276.118     1732.785        1.014        0.629       82.393       34.056        0.171      335.575        6.299      870.075
01/22/2022  16:21:00       74.295      -48.436      -22.443       72.150      102.615       48.126     5205.680    10529.906     2316.129        1.321        0.903       88.689       31.818        0.129      335.599        6.340      870.073
01/22/2022  16:22:00       84.573      -11.458       -2.021      104.046       65.988       50.055    10825.501     4354.412     2505.458        1.248        0.884       85.346       50.708        0.353      335.679        6.471      870.057
01/22/2022  16:23:00      108.950       -3.815      -21.466      120.545       86.451       58.378    14531.217     7473.844     3408.011        1.887        1.271      109.017       41.609        0.146      335.619        6.371      870.067
01/22/2022  16:24:00       59.304      -29.574      -21.751       80.206       80.814       44.490     6432.970     6530.974     1979.387        0.990        0.747       66.269       22.455        0.115      335.719        6.540      870.068
01/22/2022  16:25:00      105.536     -107.403      -33.003       90.023       93.252       62.228     8104.224     8695.889     3872.371        2.221        1.034      150.576       51.253        0.116      335.603        6.345      870.085
01/22/2022  16:26:00       85.731      -28.921      -38.359       78.563       68.276       49.384     6172.110     4661.629     2438.741        1.146        0.664       90.478       31.837        0.124      335.597        6.335      870.087
01/22/2022  16:27:00      166.349     -133.551      -50.981      104.080      120.904       50.170    10832.653    14617.787     2517.073        3.803        1.398      213.326       55.862        0.069      335.597        6.334      870.080
01/22/2022  16:28:00       92.692      -64.688      -32.121      106.621      104.656       52.255    11368.013    10952.961     2730.606        1.943        1.253      113.032       48.908        0.187      335.556        6.269      870.089
01/22/2022  16:29:00      119.814      -88.537      -22.311       69.764      119.996       51.095     4867.011    14399.081     2610.734        2.228        1.094      148.977       40.966        0.076      335.534        6.230      870.097
01/22/2022  16:30:00      150.830      -51.331      -35.804       93.580      146.596       55.518     8757.232    21490.339     3082.286        2.999        1.666      159.325       51.287        0.104      335.464        6.115      870.078
01/22/2022  16:31:00      135.773      -12.494      -27.325      110.437       85.215       44.348    12196.230     7261.537     1966.784        2.038        1.071      136.347       32.219        0.056      335.477        6.135      870.073
01/22/2022  16:32:00      100.230      -29.629      -18.581       89.852       78.778       47.548     8073.440     6205.910     2260.828        1.390        0.827      104.517       35.098        0.113      335.461        6.109      870.072
01/22/2022  16:33:00       97.061       18.326      -27.825       72.035       62.254       42.223     5189.069     3875.558     1782.798        1.069        0.542       98.776       25.100        0.065      335.461        6.109      870.085
01/22/2022  16:34:00      193.534      -41.818      -15.047      131.793      108.674       64.273    17369.516    11810.050     4130.979        3.636        1.666      198.000       59.109        0.089      335.343        5.912      870.066
01/22/2022  16:35:00      124.360        1.846      -18.680      119.703       91.549       82.344    14328.860     8381.138     6780.569        2.265        1.475      124.374       71.011        0.326      335.384        5.980      870.061
01/22/2022  16:36:00      128.439      -23.063       -7.024      126.922       79.249       57.231    16109.271     6280.452     3275.360        2.137        1.283      130.493       50.939        0.152      335.409        6.022      870.085
01/22/2022  16:37:00      170.203      -51.647      -36.761      126.405       97.409       62.100    15978.279     9488.500     3856.391        3.115        1.466      177.866       54.902        0.095      335.351        5.924      870.093
01/22/2022  16:38:00       71.821      -82.835      -28.552       58.361      101.427       54.142     3406.004    10287.355     2931.321        1.473        0.831      109.636       32.783        0.089      335.388        5.989      870.113
01/22/2022  16:39:00       73.918      -82.418      -32.188       77.905       87.864       54.952     6069.189     7720.012     3019.763        1.505        0.840      110.710       37.689        0.116      335.409        6.024      870.125
01/22/2022  16:40:00      109.220      -32.624      -25.677       84.468       88.563       49.602     7134.834     7843.321     2460.310        1.554        0.872      113.988       37.721        0.110      335.374        5.963      870.131
01/22/2022  16:41:00      143.194      -29.167      -32.626       98.622       97.570       55.584     9726.391     9519.878     3089.559        2.237        1.117      146.134       30.696        0.044      335.318        5.870      870.133
01/22/2022  16:42:00      106.384      -42.591        0.908      113.061       81.817       55.133    12782.742     6693.998     3039.680        1.782        1.126      114.593       46.986        0.168      335.327        5.886      870.143
01/22/2022  16:43:00      164.201     -160.870      -42.094       99.505      101.584       60.714     9901.267    10319.225     3686.187        3.926        1.195      229.872       61.853        0.072      335.312        5.858      870.155
01/22/2022  16:44:00      188.200     -145.092      -35.017      105.789       95.264       65.596    11191.325     9075.153     4302.828        4.113        1.228      237.636       59.325        0.062      335.299        5.839      870.176
01/22/2022  16:45:00      152.526     -115.029      -48.589       94.809      113.574       63.419     8988.671    12898.962     4021.915        3.238        1.295      191.039       47.681        0.062      335.331        5.891      870.188
01/22/2022  16:46:00      164.056      -28.702      -20.845      121.584       95.273       73.818    14782.646     9076.918     5449.062        2.874        1.465      166.548       50.893        0.093      335.296        5.834      870.209
01/22/2022  16:47:00      135.045      -61.466      -17.855      104.488       74.239       50.245    10917.798     5511.500     2524.522        2.064        0.948      148.375       42.180        0.081      335.367        5.952      870.257
01/22/2022  16:48:00       65.169      -25.233      -25.541       80.348       54.409       37.486     6455.781     2960.300     1405.225        0.818        0.541       69.883       28.848        0.170      335.447        6.086      870.303
01/22/2022  16:49:00       33.671      -31.626      -16.848       50.035       55.709       33.440     2503.514     3103.458     1118.260        0.457        0.336       46.194       16.748        0.131      335.408        6.022      870.337
01/22/2022  16:50:00      120.469     -106.584      -30.660       81.340      136.848       44.133     6616.258    18727.411     1947.685        2.705        1.365      160.851       49.889        0.096      335.301        5.842      870.354
01/22/2022  16:51:00       59.021      -96.413      -16.338       76.076      124.297       48.887     5787.490    15449.687     2389.903        1.833        1.181      113.044       41.444        0.134      335.324        5.881      870.390
01/22/2022  16:52:00       31.657      -42.212      -26.115       59.976       59.557       36.090     3597.070     3546.982     1302.513        0.595        0.422       52.764       30.827        0.341      335.345        5.916      870.411
01/22/2022  16:53:00      140.649     -110.004      -28.132      123.232       90.893       58.750    15186.176     8261.612     3451.561        2.978        1.345      178.559       56.102        0.099      335.305        5.850      870.419
01/22/2022  16:54:00      131.499     -136.084      -44.661       93.912       92.215       46.921     8819.488     8503.518     2201.606        2.866        0.976      189.237       40.894        0.047      335.286        5.816      870.420
01/22/2022  16:55:00       65.792      -45.574      -31.617       82.739       84.880       50.367     6845.802     7204.676     2536.878        1.199        0.829       80.035       38.458        0.231      335.290        5.824      870.413
01/22/2022  16:56:00      142.832       10.333      -20.406       99.391       78.722       44.972     9878.633     6197.122     2022.467        1.951        0.905      143.205       41.386        0.084      335.218        5.704      870.404
01/22/2022  16:57:00      144.585      -26.343      -40.697       86.534       81.682       53.590     7488.210     6671.870     2871.868        2.014        0.852      146.965       41.804        0.081      335.219        5.705      870.401
01/22/2022  16:58:00      124.772      -32.026      -13.518      117.596       87.693       61.816    13828.854     7689.989     3821.280        2.105        1.267      128.817       50.553        0.154      335.211        5.693      870.407
01/22/2022  16:59:00      168.444      -20.426        6.012      126.284      111.187       73.271    15947.734    12362.451     5368.653        3.125        1.684      169.677       58.372        0.118      335.207        5.685      870.405
01/22/2022  17:00:00      132.488      -45.510      -10.216      108.205       86.094       72.341    11708.273     7412.160     5233.191        2.204        1.218      140.086       62.956        0.202      335.234        5.731      870.387
01/22/2022  17:01:00       70.741      -73.362      -30.312       66.023       88.125       46.650     4358.974     7766.098     2176.259        1.280        0.715      101.913       32.893        0.104      335.275        5.801      870.390
01/22/2022  17:02:00      112.070      -66.448      -30.257       74.105       76.113       49.479     5491.547     5793.247     2448.151        1.581        0.687      130.288       22.279        0.029      335.294        5.832      870.383
01/22/2022  17:03:00       45.590      -33.826      -24.340       55.546       60.391       32.005     3085.338     3647.049     1024.291        0.578        0.388       56.768       17.282        0.093      335.218        5.704      870.389
01/22/2022  17:04:00       53.488      -70.360      -27.655       65.292       69.042       36.760     4263.002     4766.804     1351.323        0.948        0.519       88.382       41.577        0.221      335.236        5.734      870.395
01/22/2022  17:05:00       58.275      -41.196       -2.224       77.158       81.190       50.408     5953.374     6591.740     2540.984        1.009        0.754       71.366       42.178        0.349      335.232        5.729      870.402
01/22/2022  17:06:00       70.173      -19.868      -13.191       85.878       72.265       67.573     7375.041     5222.281     4566.112        1.133        0.858       72.931       47.656        0.427      335.106        5.519      870.391
01/22/2022  17:07:00      128.719     -121.283      -29.950      110.418       92.539       57.307    12192.180     8563.421     3284.065        2.810        1.202      176.856       60.093        0.115      335.145        5.583      870.406
01/22/2022  17:08:00       73.330      -71.175      -25.368       49.659       77.457       38.634     2465.992     5999.532     1492.581        1.052        0.498      102.192       30.052        0.086      335.176        5.637      870.433
01/22/2022  17:09:00       74.486      -82.052      -19.271       62.832       61.262       37.955     3947.884     3752.993     1440.597        1.090        0.457      110.818       32.149        0.084      335.213        5.696      870.454
01/22/2022  17:10:00      128.133      -50.040      -35.127       50.592      100.041       42.600     2559.594    10008.234     1814.721        1.727        0.719      137.558       35.176        0.065      335.122        5.548      870.453
01/22/2022  17:11:00       48.301       14.021      -16.012       53.406       54.020       43.451     2852.154     2918.110     1888.017        0.522        0.383       50.295       23.146        0.212      335.147        5.587      870.450
01/22/2022  17:12:00       97.981      -36.131        0.369      104.299       92.176       56.778    10878.278     8496.382     3223.719        1.675        1.130      104.430       45.256        0.188      335.125        5.551      870.452
01/22/2022  17:13:00      100.582      -79.178      -40.544       70.338       84.482       39.906     4947.368     7137.233     1592.522        1.585        0.684      128.007       41.644        0.106      335.205        5.686      870.469
01/22/2022  17:14:00       89.246       -9.351      -17.387       71.176       70.245       39.243     5066.070     4934.298     1540.032        0.995        0.577       89.735       25.334        0.080      335.103        5.514      870.465
01/22/2022  17:15:00       39.272      -65.714      -16.506       46.017       50.682       32.255     2117.601     2568.690     1040.356        0.593        0.286       76.555       20.081        0.069      335.182        5.644      870.472
01/22/2022  17:16:00      109.927      -51.680      -25.785       83.305       72.933       41.871     6939.688     5319.221     1753.157        1.471        0.701      121.470       29.042        0.057      335.158        5.605      870.476
01/22/2022  17:17:00       80.237      -77.186      -19.725       57.947       71.776       45.186     3357.798     5151.803     2041.751        1.167        0.528      111.335       32.073        0.083      335.084        5.484      870.477
01/22/2022  17:18:00       13.495      -15.750      -11.503       51.151       71.409       33.253     2616.441     5099.197     1105.759        0.469        0.441       20.741       25.654        1.530      335.058        5.441      870.485
01/22/2022  17:19:00       13.093      -27.711        2.057       55.707       70.230       32.713     3103.275     4932.255     1070.155        0.502        0.455       30.648       17.868        0.340      335.069        5.458      870.494
01/22/2022  17:20:00       84.078        3.627      -10.956       51.293       55.195       29.721     2630.996     3046.525      883.331        0.688        0.328       84.157       26.652        0.100      334.987        5.322      870.501
01/22/2022  17:21:00       56.465     -105.297      -25.751       49.637       51.974       37.311     2463.815     2701.301     1392.114        1.075        0.328      119.481       24.801        0.043      335.069        5.458      870.493
01/22/2022  17:22:00       37.806      -66.012      -15.339       32.244       56.018       30.426     1039.686     3137.979      925.717        0.556        0.255       76.072        9.951        0.017      335.078        5.474      870.499
01/22/2022  17:23:00       16.996      -37.628      -13.535       40.164       34.271       25.853     1613.113     1174.496      668.401        0.267        0.173       41.288       21.343        0.267      335.103        5.514      870.504
01/22/2022  17:24:00       18.763      -81.462       -3.860       39.993       52.397       29.161     1599.442     2745.485      850.344        0.610        0.260       83.595       25.431        0.093      335.182        5.646      870.512
01/22/2022  17:25:00       24.032        7.307      -13.342       62.392       44.540       29.711     3892.772     1983.779      882.720        0.378        0.338       25.118       11.252        0.201      335.153        5.595      870.516
01/22/2022  17:26:00       87.054      -85.598      -33.984       55.619       56.046       26.847     3093.489     3141.163      720.744        1.151        0.348      122.088       14.277        0.014      335.139        5.575      870.520
01/22/2022  17:27:00       60.670      -36.814      -19.409       70.296       73.086       37.859     4941.469     5341.511     1433.284        0.856        0.586       70.966       21.788        0.094      335.101        5.510      870.516
01/22/2022  17:28:00       54.440      -21.421      -30.577       44.013       52.360       29.398     1937.101     2741.537      864.220        0.495        0.277       58.503       20.650        0.125      335.105        5.519      870.527
01/22/2022  17:29:00       81.203     -105.584      -27.048       60.581      100.447       39.471     3670.094    10089.672     1557.989        1.689        0.766      133.198       34.309        0.066      335.087        5.487      870.527
01/22/2022  17:30:00       55.578      -22.768      -20.882       71.349       78.409       33.833     5090.719     6148.043     1144.674        0.821        0.619       60.060       32.160        0.287      335.057        5.439      870.533
01/22/2022  17:31:00       15.002      -31.116      -22.862       44.600       61.675       28.078     1989.178     3803.746      788.371        0.415        0.329       34.544       26.828        0.603      335.029        5.393      870.521
01/22/2022  17:32:00       43.933       -5.698       -7.449       37.264       48.330       38.451     1388.641     2335.784     1478.466        0.361        0.260       44.301       28.488        0.414      335.027        5.389      870.514
01/22/2022  17:33:00       65.726        1.179      -12.572       70.291       74.865       43.010     4940.778     5604.727     1849.828        0.844        0.620       65.736       31.164        0.225      334.961        5.279      870.498
01/22/2022  17:34:00      109.148      -33.030       -8.310       85.889       85.968       60.258     7376.951     7390.475     3631.000        1.573        0.920      114.036       51.779        0.206      335.005        5.351      870.472
01/22/2022  17:35:00       74.429      -22.989       -2.599       91.551       76.373       57.149     8381.647     5832.773     3266.028        1.177        0.874       77.899       50.424        0.419      334.963        5.282      870.443
01/22/2022  17:36:00       59.082      -25.390      -20.803       58.178       63.417       38.536     3384.730     4021.761     1485.030        0.673        0.445       64.306       27.202        0.179      335.026        5.388      870.444
01/22/2022  17:37:00       87.156      -34.628       -9.001       47.919       61.969       40.242     2296.196     3840.211     1619.430        0.831        0.388       93.783       27.192        0.084      335.034        5.400      870.452
01/22/2022  17:38:00       64.874      -80.258      -32.344       48.308       74.931       35.828     2333.689     5614.673     1283.631        1.046        0.462      103.198       23.900        0.054      335.007        5.356      870.465
01/22/2022  17:39:00       -6.118      -36.774      -18.147       45.248       47.713       27.992     2047.395     2276.504      783.551        0.341        0.255       37.279       23.368        0.393      335.003        5.350      870.494
01/22/2022  17:40:00       16.278      -22.420      -13.977       73.538       47.624       27.174     5407.845     2268.027      738.437        0.469        0.421       27.706       12.758        0.212      334.973        5.300      870.532
01/22/2022  17:41:00       57.538      -32.726       -5.356       60.284       52.605       33.916     3634.113     2767.285     1150.301        0.598        0.378       66.194       26.553        0.161      335.000        5.344      870.562
01/22/2022  17:42:00       60.397        1.327       -8.130       48.434       49.873       35.980     2345.897     2487.335     1294.555        0.492        0.306       60.411       25.905        0.184      334.969        5.294      870.574
01/22/2022  17:43:00      107.911      -61.074      -23.216       84.839       81.074       48.270     7197.727     6572.978     2330.026        1.600        0.805      123.995       45.160        0.133      334.978        5.308      870.582
01/22/2022  17:44:00       86.887      -52.385      -36.163       62.779       73.447       37.665     3941.175     5394.430     1418.653        1.118        0.538      101.457       40.805        0.162      335.016        5.370      870.601
01/22/2022  17:45:00       26.930      -69.983      -20.059       53.741       41.577       25.801     2888.044     1728.683      665.708        0.565        0.264       74.986       18.289        0.059      335.019        5.376      870.607
01/22/2022  17:46:00       -4.621      -23.669       -3.711       49.423       61.684       28.700     2442.660     3804.947      823.693        0.383        0.354       24.116       32.327        1.797      334.997        5.340      870.624
01/22/2022  17:47:00      -15.308      -47.845      -16.091       50.693       47.380       28.077     2569.795     2244.876      788.317        0.419        0.280       50.234       22.902        0.208      335.036        5.404      870.642
01/22/2022  17:48:00       49.804     -100.296      -18.372       31.155       43.792       28.736      970.616     1917.699      825.786        0.829        0.186      111.981       20.270        0.033      335.114        5.534      870.654
01/22/2022  17:49:00       51.158     -106.348      -23.302       49.178       65.155       35.537     2418.524     4245.109     1262.872        1.120        0.396      118.012       29.769        0.064      335.079        5.475      870.658
01/22/2022  17:50:00        8.075      -51.670      -17.710       65.683       49.777       32.423     4314.281     2477.757     1051.264        0.544        0.392       52.297       35.994        0.474      335.039        5.410      870.664
01/22/2022  17:51:00       15.019        5.858       -8.738       40.422       31.343       28.903     1633.953      982.393      835.370        0.189        0.173       16.121       25.388        2.480      334.940        5.247      870.675
01/22/2022  17:52:00       39.873        7.481      -17.664       37.103       33.540       23.767     1376.641     1124.959      564.858        0.251        0.153       40.569        2.419        0.004      334.719        4.877      870.689
01/22/2022  17:53:00       33.118       21.157      -16.077       26.297       29.631       20.399      691.527      877.973      416.138        0.189        0.099       39.299       14.961        0.145      334.641        4.746      870.694
01/22/2022  17:54:00       39.119       -9.472        0.291       42.893       30.461       23.015     1839.840      927.900      529.673        0.246        0.165       40.249       16.607        0.170      334.668        4.792      870.692
01/22/2022  17:55:00       83.220       18.161      -26.679       57.345       57.174       24.613     3288.479     3268.843      605.793        0.756        0.358       85.179       16.334        0.037      334.712        4.865      870.691
01/22/2022  17:56:00      105.655       21.731      -22.542       32.199       31.018       23.521     1036.782      962.100      553.236        0.735        0.128      107.867       20.992        0.038      334.540        4.578      870.695
01/22/2022  17:57:00      124.649       50.825      -11.790       20.680       18.637       15.587      427.670      347.353      242.957        0.964        0.051      134.613       10.955        0.007      334.547        4.589      870.693
01/22/2022  17:58:00       95.798       54.769       -3.699       26.398       18.285       13.541      696.866      334.347      183.365        0.670        0.061      110.349        5.650        0.003      334.574        4.635      870.688
01/22/2022  17:59:00       56.266       12.229       -7.736       38.563       21.103       15.565     1487.092      445.326      242.274        0.277        0.109       57.580       18.232        0.100      334.567        4.623      870.689
01/22/2022  18:00:00       63.328       25.876       -2.964       35.608       18.023       16.158     1267.931      324.811      261.073        0.327        0.093       68.410       17.911        0.069      334.521        4.547      870.682
01/22/2022  18:01:00       62.228       27.557       -8.070       27.008       17.772       10.625      729.452      315.839      112.886        0.293        0.058       68.057        7.678        0.013      334.562        4.614      870.679
01/22/2022  18:02:00       93.768       54.150       -9.520       16.703       17.727        8.884      278.983      314.244       78.929        0.624        0.034      108.280        4.116        0.001      334.571        4.630      870.677
01/22/2022  18:03:00       90.006       52.388      -11.151       20.065       17.401       17.513      402.624      302.793      306.700        0.599        0.051      104.142       11.313        0.012      334.539        4.576      870.677
01/22/2022  18:04:00       68.512       33.445       -5.172       22.702       18.327       12.551      515.385      335.872      157.524        0.342        0.050       76.239       12.605        0.027      334.531        4.563      870.678
01/22/2022  18:05:00       61.192       35.902       -5.092       11.561        8.603        7.479      133.657       74.011       55.940        0.266        0.013       70.946        3.010        0.002      334.531        4.564      870.671
01/22/2022  18:06:00       55.165       51.988       -8.606       14.645       15.150       11.945      214.479      229.515      142.688        0.320        0.029       75.802        7.034        0.009      334.557        4.607      870.661
01/22/2022  18:07:00       60.115       30.773       -8.148       16.173        9.662       11.183      261.555       93.355      125.053        0.255        0.024       67.533        7.577        0.013      334.500        4.512      870.662
01/22/2022  18:08:00       76.368       50.747       -5.070       18.290       15.128       10.724      334.519      228.842      115.005        0.456        0.034       91.691       10.361        0.013      334.547        4.589      870.654
01/22/2022  18:09:00       55.768       22.276        1.239       32.521       19.924       15.132     1057.592      396.952      228.963        0.265        0.084       60.052       15.067        0.063      334.485        4.488      870.642
01/22/2022  18:10:00       86.448       38.731       -4.146       23.812       20.100       19.573      567.010      404.017      383.086        0.517        0.068       94.728       15.969        0.028      334.527        4.558      870.637
01/22/2022  18:11:00       45.117       30.978       -2.324       22.875       20.068       13.053      523.283      402.730      170.392        0.205        0.055       54.728        8.759        0.026      334.493        4.500      870.619
01/22/2022  18:12:00       46.613       13.716       -8.623       15.876       13.428        9.576      252.052      180.321       91.703        0.148        0.026       48.589        5.532        0.013      334.458        4.443      870.604
01/22/2022  18:13:00       52.101       14.159       -2.591       21.477       17.574       11.899      461.269      308.853      141.579        0.192        0.046       53.990        9.626        0.032      334.442        4.416      870.603
01/22/2022  18:14:00       88.088       23.366      -11.440       15.875       15.431       10.015      252.024      238.127      100.298        0.451        0.030       91.134        6.527        0.005      334.610        4.693      870.611
01/22/2022  18:15:00       58.239       43.324       -2.036       29.767       20.012       14.248      886.095      400.497      202.997        0.338        0.074       72.586       12.933        0.032      334.509        4.527      870.621
01/22/2022  18:16:00       45.751       21.678      -12.151       23.525       31.760       18.326      553.413     1008.729      335.855        0.230        0.095       50.627        9.454        0.035      334.455        4.437      870.638
01/22/2022  18:17:00       20.280       14.706       -3.719       21.978       17.533       12.634      483.025      307.412      159.607        0.080        0.048       25.051        7.331        0.086      334.417        4.375      870.661
01/22/2022  18:18:00      -33.856       -2.093       -6.011       21.144       23.472       13.858      447.090      550.943      192.047        0.119        0.060       33.921       13.411        0.156      334.465        4.453      870.676
01/22/2022  18:19:00       17.937       16.265       -8.220       24.402       24.120       15.541      595.477      581.796      241.518        0.104        0.071       24.213       16.837        0.484      334.423        4.384      870.704
01/22/2022  18:20:00       25.842        8.299       -1.671       16.866       24.031       11.926      284.450      577.488      142.232        0.087        0.050       27.142        7.624        0.079      334.392        4.333      870.717
01/22/2022  18:21:00        1.633        8.455       -5.283       10.177       11.749       10.191      103.580      138.034      103.862        0.022        0.017        8.611        8.451        0.963      334.240        4.082      870.735
01/22/2022  18:22:00      -15.577       -9.819       -8.901       12.060       12.540        9.799      145.435      157.260       96.024        0.041        0.020       18.413        6.818        0.137      334.427        4.390      870.747
01/22/2022  18:23:00        7.538       -7.074       -1.908       14.002        7.827       11.740      196.043       61.261      137.835        0.025        0.020       10.337        7.730        0.559      334.301        4.183      870.751
01/22/2022  18:24:00        2.457        2.330       -5.485        6.759        7.897        7.918       45.684       62.364       62.696        0.011        0.009        3.386        6.989        4.261      334.212        4.036      870.764
01/22/2022  18:25:00        8.055       14.479       -0.229        9.785       10.144        8.715       95.748      102.894       75.947        0.027        0.014       16.569        5.692        0.118      334.255        4.106      870.762
01/22/2022  18:26:00       14.092       39.602       -2.740       24.898       14.569       11.299      619.933      212.263      127.675        0.137        0.048       42.034       10.060        0.057      334.329        4.230      870.745
01/22/2022  18:27:00       52.188       40.034       -1.240       34.553       22.206       12.550     1193.939      493.116      157.511        0.309        0.092       65.775       10.994        0.028      334.282        4.151      870.725
01/22/2022  18:28:00       10.818      -10.068       -8.684       18.482       22.917       14.125      341.593      525.205      199.503        0.068        0.053       14.778        8.021        0.295      334.271        4.133      870.710
01/22/2022  18:29:00       -6.248       -5.926       -9.084        8.143        8.401        8.470       66.315       70.577       71.749        0.018        0.010        8.611        5.056        0.345      334.278        4.144      870.696
01/22/2022  18:30:00      -19.589       -0.405       -1.062       13.518       17.564       12.498      182.723      308.487      156.194        0.052        0.032       19.593        9.024        0.212      334.237        4.077      870.693
01/22/2022  18:31:00      -29.550        4.463       -2.215       17.854       18.827        9.458      318.758      354.460       89.453        0.083        0.038       29.885        6.463        0.047      334.191        4.002      870.706
01/22/2022  18:32:00      -21.253      -14.626       -5.978       11.563       12.253        7.523      133.693      150.137       56.595        0.052        0.017       25.799        4.910        0.036      334.151        3.933      870.716
01/22/2022  18:33:00      -38.632       13.882       -8.782       16.449       11.757       12.097      270.563      138.220      146.334        0.116        0.028       41.051        7.100        0.030      334.114        3.874      870.723
01/22/2022  18:34:00      -54.100       16.794      -13.174       10.007       12.336       13.334      100.140      152.169      177.807        0.191        0.022       56.646        1.553        0.001      334.057        3.779      870.730
01/22/2022  18:35:00      -35.864       14.869       -6.649       23.639       16.484       10.194      558.823      271.717      103.913        0.124        0.047       38.824        8.862        0.052      334.025        3.727      870.737
01/22/2022  18:36:00      -14.650       32.020      -10.327       20.433       11.449        9.497      417.500      131.072       90.187        0.099        0.032       35.213        9.239        0.069      334.030        3.733      870.742
01/22/2022  18:37:00       -5.126       22.697       -8.363       12.789       12.616       13.209      163.557      159.166      174.466        0.055        0.025       23.269        9.224        0.157      333.952        3.606      870.755
01/22/2022  18:38:00      -48.360       31.293      -13.082       19.545       15.115       14.353      381.999      228.465      206.014        0.215        0.041       57.602       10.606        0.034      334.126        3.893      870.773
01/22/2022  18:39:00      -52.547       37.765       -6.382       28.629       16.379       16.794      819.637      268.259      282.033        0.280        0.068       64.710        6.014        0.009      333.840        3.418      870.788
01/22/2022  18:40:00      -15.836       11.254       -6.403       35.127       18.945       13.015     1233.876      358.918      169.378        0.109        0.088       19.428        5.022        0.067      333.858        3.449      870.803
01/22/2022  18:41:00       13.699        3.539       -4.302        6.840       11.076        9.359       46.782      122.678       87.594        0.024        0.013       14.148        4.306        0.093      333.917        3.548      870.817
01/22/2022  18:42:00      -31.231       16.889       -3.251       17.173       12.691        9.464      294.903      161.073       89.565        0.091        0.027       35.505        5.769        0.026      333.914        3.541      870.822
01/22/2022  18:43:00      -18.370        6.098       -9.214       11.873       12.144       11.997      140.976      147.488      143.921        0.045        0.022       19.356        8.311        0.184      333.958        3.615      870.826
01/22/2022  18:44:00      -38.677        0.020       -8.889       20.355       16.409       12.808      414.341      269.263      164.033        0.121        0.042       38.677        8.312        0.046      333.949        3.601      870.830
01/22/2022  18:45:00      -19.196       -0.193       -6.008       18.623       23.705       17.746      346.834      561.906      314.907        0.081        0.061       19.197       11.675        0.370      333.793        3.342      870.835
01/22/2022  18:46:00      -21.815       21.596      -14.578       17.879       11.509       12.248      319.641      132.455      150.003        0.088        0.030       30.697       11.959        0.152      333.877        3.480      870.848
01/22/2022  18:47:00       10.112       38.867       -1.450       15.040       13.998       11.448      226.188      195.935      131.067        0.108        0.028       40.161        4.596        0.013      334.032        3.735      870.851
01/22/2022  18:48:00       31.395       61.313      -10.389       29.326       29.008       18.159      859.994      841.454      329.760        0.344        0.102       68.884       15.575        0.051      334.069        3.799      870.858
01/22/2022  18:49:00       56.018       55.510       -7.892       20.779       16.684       13.341      431.752      278.353      177.984        0.358        0.044       78.863        9.322        0.014      333.992        3.672      870.857
01/22/2022  18:50:00       58.910       81.056       -5.465       31.133       23.716       20.318      969.288      562.471      412.801        0.601        0.097      100.202       16.968        0.029      334.088        3.830      870.859
01/22/2022  18:51:00       53.306      109.364       -7.916       30.650       26.773       20.833      939.422      716.789      434.018        0.848        0.105      121.664       14.792        0.015      334.210        4.032      870.851
01/22/2022  18:52:00       58.188       92.380       -7.536       24.585       33.537       18.304      604.426     1124.722      335.052        0.702        0.103      109.178       14.018        0.016      334.049        3.766      870.844
01/22/2022  18:53:00       64.354      100.239       -6.781       31.298       36.773       21.876      979.552     1352.281      478.539        0.852        0.141      119.119       14.241        0.014      333.941        3.587      870.849
01/22/2022  18:54:00       81.223       77.590       -9.845       34.215       29.631       23.346     1170.665      878.015      545.041        0.765        0.130      112.327       15.017        0.018      333.849        3.434      870.856
01/22/2022  18:55:00      110.131       79.226       -9.400       50.987       24.251       23.251     2599.662      588.102      540.598        1.111        0.186      135.667       21.771        0.026      333.861        3.454      870.857
01/22/2022  18:56:00      146.456       77.868      -13.546       22.353       22.458       16.014      499.653      504.381      256.444        1.448        0.063      165.870        1.902        0.000      333.965        3.625      870.851
01/22/2022  18:57:00      147.970       54.407      -15.105       31.711       29.045       14.571     1005.561      843.607      212.301        1.357        0.103      157.655       12.566        0.006      333.905        3.527      870.845
01/22/2022  18:58:00      108.670       53.478       -9.112       34.266       20.538       13.672     1174.155      421.801      186.922        0.827        0.089      121.115        7.266        0.004      333.836        3.413      870.845
01/22/2022  18:59:00      134.461       43.594      -15.983       34.100       30.085       18.481     1162.837      905.132      341.536        1.132        0.120      141.351       11.061        0.006      333.933        3.573      870.853
01/22/2022  19:00:00      126.391       55.806      -12.389       32.378       34.907       19.881     1048.319     1218.498      395.272        1.095        0.133      138.163       17.117        0.015      334.040        3.750      870.868
01/22/2022  19:01:00       94.344        5.627       -9.475       30.736       26.636       20.292      944.709      709.492      411.769        0.554        0.103       94.512       17.097        0.033      333.896        3.513      870.862
01/22/2022  19:02:00       88.647       18.971      -10.964       24.924       24.891       16.776      621.207      619.539      281.432        0.493        0.076       90.655        8.902        0.010      333.870        3.470      870.852
01/22/2022  19:03:00       96.388       -9.812      -10.097       46.490       50.729       21.054     2161.300     2573.386      443.280        0.733        0.259       96.886       14.254        0.022      333.905        3.527      870.836
01/22/2022  19:04:00      150.806       13.981      -11.342       55.593       43.440       34.487     3090.559     1887.033     1189.366        1.462        0.308      151.452       27.087        0.032      334.168        3.962      870.826
01/22/2022  19:05:00      102.540       48.633      -19.841       34.723       36.352       18.582     1205.679     1321.483      345.292        0.807        0.144      113.489       15.392        0.018      334.317        4.210      870.828
01/22/2022  19:06:00      101.220       -6.520      -16.917       29.659       30.042       22.327      879.651      902.505      498.479        0.643        0.114      101.430       11.089        0.012      334.111        3.867      870.833
01/22/2022  19:07:00      121.347       51.989       -7.448       29.838       27.825       18.508      890.334      774.212      342.544        0.974        0.100      132.015       14.179        0.012      333.969        3.632      870.845
01/22/2022  19:08:00      124.847       26.163      -10.698       29.655       29.767       20.714      879.448      886.078      429.056        0.929        0.110      127.559       10.483        0.007      333.857        3.449      870.846
01/22/2022  19:09:00      103.538       28.206       -6.447       35.354       31.000       20.497     1249.894      961.027      420.146        0.709        0.132      107.311        6.718        0.004      333.872        3.472      870.847
01/22/2022  19:10:00      102.010        3.770       -9.966       34.311       29.842       19.345     1177.214      890.525      374.240        0.648        0.122      102.080       19.449        0.036      333.876        3.479      870.851
01/22/2022  19:11:00      111.450       -5.075      -10.663       56.772       36.431       21.161     3223.094     1327.249      447.801        0.878        0.250      111.565       19.637        0.031      333.813        3.374      870.852
01/22/2022  19:12:00      152.152       11.725      -10.159       34.205       23.373       18.475     1169.963      546.299      341.333        1.272        0.103      152.603        8.790        0.003      333.829        3.401      870.849
01/22/2022  19:13:00      144.402       15.032       -9.429       34.177       30.617       24.127     1168.047      937.393      582.090        1.193        0.134      145.182       11.357        0.006      333.821        3.388      870.840
01/22/2022  19:14:00      125.320        6.870      -15.238       32.958       29.526       19.523     1086.224      871.796      381.167        0.916        0.117      125.508       12.804        0.010      333.890        3.502      870.833
01/22/2022  19:15:00      116.105        2.499       -9.884       25.506       19.026       16.114      650.556      362.002      259.653        0.743        0.064      116.131       11.460        0.010      333.806        3.362      870.828
01/22/2022  19:16:00       95.046       23.441       -9.908       40.588       36.488       24.465     1647.357     1331.404      598.514        0.663        0.179       97.894       13.110        0.018      333.916        3.545      870.836
01/22/2022  19:17:00      122.797       39.042      -14.945       30.829       25.414       15.080      950.450      645.894      227.408        0.932        0.091      128.854       13.640        0.011      333.945        3.594      870.861
01/22/2022  19:18:00      116.270       32.524      -10.041       16.830       21.329       11.092      283.241      454.926      123.026        0.777        0.043      120.733        3.924        0.001      333.912        3.539      870.879
01/22/2022  19:19:00      108.108       37.223      -10.554       17.642       17.563       10.808      311.248      308.474      116.822        0.696        0.037      114.337        5.251        0.002      333.874        3.474      870.901
01/22/2022  19:20:00      101.758       48.388       -5.723       31.809       23.508       16.445     1011.785      552.622      270.432        0.728        0.092      112.677       13.762        0.015      333.868        3.465      870.921
01/22/2022  19:21:00      121.382       53.475      -10.217       27.751       20.762       18.474      770.115      431.058      341.289        0.962        0.077      132.639       12.500        0.009      333.855        3.445      870.936
01/22/2022  19:22:00      167.291       59.740      -17.638       28.713       26.073       19.385      824.454      679.811      375.797        1.687        0.094      177.638       11.680        0.004      333.850        3.436      870.949
01/22/2022  19:23:00      110.314       35.434      -16.084       31.695       30.173       17.935     1004.582      910.410      321.671        0.796        0.112      115.865       13.791        0.014      333.789        3.336      870.948
01/22/2022  19:24:00      134.214       42.603       -7.740       33.773       27.920       17.730     1140.639      779.531      314.340        1.106        0.112      140.813       10.860        0.006      333.797        3.348      870.961
01/22/2022  19:25:00      124.634       31.006       -8.851       34.305       23.948       19.099     1176.820      573.528      364.770        0.934        0.106      128.432       13.443        0.011      333.745        3.264      870.973
01/22/2022  19:26:00      127.920       46.046       -6.864       21.104       17.898       12.485      445.392      320.339      155.880        0.973        0.046      135.955        2.614        0.000      333.813        3.373      870.982
01/22/2022  19:27:00      117.992       30.686      -18.600       20.510       18.062       13.638      420.679      326.247      185.992        0.807        0.047      121.917        5.231        0.002      333.842        3.422      870.998
01/22/2022  19:28:00      117.618       55.232      -28.147       23.963       18.209       17.230      574.228      331.575      296.870        0.944        0.060      129.941        8.714        0.004      333.896        3.512      871.019
01/22/2022  19:29:00      108.719       40.574      -23.127       22.939       18.458       14.125      526.215      340.684      199.507        0.753        0.053      116.044        7.807        0.005      333.852        3.438      871.035
01/22/2022  19:30:00      106.167       55.543      -14.548       36.311       19.886       17.755     1318.488      395.460      315.244        0.830        0.101      119.819       14.289        0.014      333.803        3.357      871.040
01/22/2022  19:31:00      103.822       49.296      -13.221       23.291       19.721       12.357      542.474      388.906      152.707        0.723        0.054      114.931       10.953        0.009      333.807        3.364      871.045
01/22/2022  19:32:00       63.785       45.487       -9.303       20.936       20.175       13.974      438.295      407.024      195.285        0.363        0.052       78.343        7.711        0.010      333.729        3.235      871.047
01/22/2022  19:33:00       69.291       53.803      -10.848       29.165       18.327       14.867      850.614      335.894      221.034        0.461        0.070       87.727       13.510        0.024      333.779        3.318      871.048
01/22/2022  19:34:00       82.624       41.226       -2.324       39.637       23.521       18.018     1571.064      553.233      324.647        0.549        0.122       92.338       17.657        0.037      333.835        3.411      871.065
01/22/2022  19:35:00       74.386       51.259       -4.392       18.763       18.484       17.153      352.060      341.671      294.221        0.458        0.049       90.337        7.391        0.007      333.765        3.295      871.085
01/22/2022  19:36:00       83.454       49.920       -9.866       15.495       12.513       13.821      240.110      156.571      191.033        0.507        0.029       97.245        6.560        0.005      333.785        3.328      871.108
01/22/2022  19:37:00       83.343       51.235       -7.506       28.347       16.103        9.185      803.563      259.322       84.367        0.539        0.057       97.832        5.589        0.003      333.729        3.235      871.127
01/22/2022  19:38:00       67.262       55.478       -3.436       26.066       19.207       13.400      679.428      368.907      179.547        0.442        0.061       87.189       11.657        0.018      333.678        3.151      871.142
01/22/2022  19:39:00       80.870       53.997       -4.681       16.446       14.010        7.245      270.483      196.280       52.496        0.500        0.026       97.241        5.980        0.004      333.755        3.277      871.142
01/22/2022  19:40:00       62.505       26.165       -9.977       23.837       23.152       10.278      568.207      536.022      105.646        0.295        0.060       67.760        8.703        0.016      333.722        3.222      871.139
01/22/2022  19:41:00       82.849       48.580      -11.546       20.942       22.358       14.520      438.570      499.865      210.839        0.525        0.057       96.041        6.846        0.005      333.679        3.153      871.135
01/22/2022  19:42:00       72.800       45.039      -11.850       16.895       20.200       14.124      285.439      408.045      199.491        0.418        0.045       85.605        3.669        0.002      333.636        3.081      871.131
01/22/2022  19:43:00       39.472       31.651       -7.434       19.583       24.062       15.214      383.507      578.971      231.455        0.190        0.060       50.595       14.183        0.079      333.643        3.095      871.141
01/22/2022  19:44:00       48.063       20.285      -10.594       24.214       30.507       15.391      586.299      930.651      236.872        0.229        0.088       52.168       18.017        0.119      333.568        2.969      871.151
01/22/2022  19:45:00       40.891       26.439       -1.807       15.921       23.475       11.996      253.463      551.098      143.909        0.166        0.047       48.693        8.992        0.034      333.540        2.924      871.149
01/22/2022  19:46:00        3.215       42.727       -5.773       23.107       13.571       13.502      533.939      184.164      182.316        0.138        0.045       42.848       11.242        0.069      333.517        2.885      871.132
01/22/2022  19:47:00      -27.430       12.655       -4.537       22.662       17.217       14.730      513.563      296.433      216.976        0.098        0.051       30.208       12.667        0.176      333.090        2.178      871.116
01/22/2022  19:48:00      -40.858       14.439      -18.028       18.810       13.888       10.836      353.802      192.863      117.420        0.143        0.033       43.334        4.131        0.009      333.102        2.198      871.116
01/22/2022  19:49:00      -46.155       14.883      -14.997       28.311       18.011       13.538      801.528      324.383      183.280        0.194        0.065       48.495       11.525        0.056      332.881        1.832      871.127
01/22/2022  19:50:00      -57.613       13.748      -19.648       18.205       16.731       16.441      331.424      279.935      270.306        0.239        0.044       59.230        6.847        0.013      332.858        1.795      871.141
01/22/2022  19:51:00      -50.220       22.849      -25.334       20.097       12.372       15.817      403.898      153.078      250.172        0.225        0.040       55.174       10.911        0.039      332.918        1.894      871.155
01/22/2022  19:52:00      -67.516       34.446      -21.669       20.718       12.215       12.221      429.237      149.201      149.365        0.347        0.036       75.795        6.262        0.007      332.784        1.672      871.159
01/22/2022  19:53:00      -49.097       25.752      -19.647       21.716       19.860       14.884      471.580      394.430      221.522        0.227        0.054       55.440       12.390        0.050      332.731        1.585      871.162
01/22/2022  19:54:00      -43.999       16.163      -16.084       21.462       18.455       12.493      460.622      340.597      156.063        0.171        0.048       46.873        8.798        0.035      332.705        1.541      871.172
01/22/2022  19:55:00      -46.004       31.986      -16.015       10.250        8.658       13.104      105.072       74.965      171.722        0.187        0.018       56.031        5.041        0.008      332.632        1.423      871.189
01/22/2022  19:56:00      -27.010       21.592      -30.665       18.452       13.709        8.711      340.469      187.939       75.885        0.137        0.030       34.580        4.863        0.020      332.886        1.840      871.189
01/22/2022  19:57:00       -1.915       11.322      -16.137       11.895       13.946       10.558      141.494      194.493      111.478        0.042        0.022       11.483        8.523        0.551      333.010        2.046      871.189
01/22/2022  19:58:00        7.797       20.418       -0.143       23.145       19.027       14.116      535.680      362.020      199.273        0.079        0.055       21.856       11.603        0.282      333.223        2.398      871.184
01/22/2022  19:59:00       28.600       17.950        4.349       21.730       17.273       12.966      472.209      298.346      168.106        0.105        0.047       33.766        8.308        0.061      333.340        2.591      871.162
01/22/2022  20:00:00       54.413       22.772       -4.252       20.816       18.309       12.099      433.309      335.223      146.387        0.221        0.046       58.986        9.796        0.028      333.265        2.468      871.143
01/22/2022  20:01:00       74.643       45.649       -3.084       22.399       15.557       12.026      501.722      242.020      144.632        0.428        0.044       87.495        9.130        0.011      333.417        2.718      871.122
01/22/2022  20:02:00       61.574       23.186       -5.810       30.073       23.234       16.266      904.409      539.798      264.590        0.304        0.085       65.795        5.904        0.008      333.314        2.547      871.110
01/22/2022  20:03:00       24.339       42.797      -10.490       15.757       15.623        9.032      248.274      244.071       81.577        0.155        0.029       49.234        3.766        0.006      333.371        2.645      871.096
01/22/2022  20:04:00       29.669       55.316       -6.627       15.616       18.545       11.645      243.867      343.902      135.610        0.235        0.036       62.770        8.489        0.018      333.425        2.732      871.087
01/22/2022  20:05:00       32.378       50.508        2.869       19.978       19.078       17.018      399.103      363.971      289.614        0.233        0.053       59.995       13.658        0.052      333.270        2.476      871.087
01/22/2022  20:06:00      -12.007       29.957       -1.601       23.206       12.149       11.624      538.499      147.589      135.125        0.093        0.041       32.274       10.913        0.114      332.847        1.775      871.095
01/22/2022  20:07:00      -30.550       20.316      -14.597        6.911        6.183        6.647       47.758       38.224       44.178        0.084        0.007       36.688        4.140        0.013      332.690        1.518      871.110
01/22/2022  20:08:00       -7.388       45.519       -3.925       29.173       30.465       15.534      851.072      928.104      241.298        0.208        0.101       46.114        9.286        0.041      332.956        1.956      871.120
01/22/2022  20:09:00      -16.101       20.458       -8.431       35.857       18.384       13.517     1285.724      337.971      182.718        0.128        0.090       26.035       14.453        0.308      332.868        1.812      871.125
01/22/2022  20:10:00      -50.898       25.359      -22.077       39.648       25.724       17.893     1571.988      661.721      320.147        0.314        0.128       56.865       12.678        0.050      332.587        1.346      871.138
01/22/2022  20:11:00      -85.978       31.303      -29.934       17.974       21.424       17.433      323.058      458.988      303.924        0.518        0.054       91.499       11.283        0.015      332.462        1.141      871.146
01/22/2022  20:12:00      -45.111       -7.904      -18.453       20.935       32.743       17.875      438.266     1072.108      319.519        0.213        0.091       45.798       12.484        0.074      332.445        1.111      871.152
01/22/2022  20:13:00      -69.373       -4.918      -20.486       27.355       27.998       18.624      748.287      783.905      346.855        0.357        0.094       69.547       16.045        0.053      332.475        1.162      871.155
01/22/2022  20:14:00     -109.384       40.319      -24.482       41.618       18.356       23.336     1732.087      336.959      544.553        0.840        0.131      116.578       22.301        0.037      332.383        1.009      871.143
01/22/2022  20:15:00      -78.771       15.887      -21.619       33.095       26.183       18.755     1095.257      685.524      351.740        0.453        0.107       80.357       19.667        0.060      332.462        1.139      871.137
01/22/2022  20:16:00      -38.555       -0.076       -4.090       40.760       19.893       21.280     1661.401      395.730      452.819        0.201        0.125       38.555       23.637        0.376      332.515        1.227      871.134
01/22/2022  20:17:00      -65.091       27.640      -10.087       29.518       17.431       15.603      871.292      303.834      243.444        0.326        0.071       70.716       12.495        0.031      332.465        1.146      871.123
01/22/2022  20:18:00      -97.282       34.333      -21.423       21.384       16.996       15.909      457.293      288.854      253.097        0.605        0.050      103.163        6.798        0.004      332.435        1.096      871.109
01/22/2022  20:19:00      -83.064       31.974      -21.616       22.773       17.620       14.877      518.607      310.474      221.327        0.472        0.053       89.005        8.436        0.009      332.430        1.088      871.095
01/22/2022  20:20:00      -44.743       16.856      -14.925       16.904       16.078       10.342      285.761      258.515      106.963        0.158        0.033       47.813        8.813        0.034      332.498        1.201      871.094
01/22/2022  20:21:00       -9.798       15.893      -12.114       14.983       20.510       12.885      224.496      420.669      166.036        0.065        0.041       18.670        4.640        0.062      332.753        1.622      871.108
01/22/2022  20:22:00       27.054       34.138        1.828       28.046       11.998       13.125      786.560      143.942      172.262        0.150        0.055       43.559       10.925        0.063      333.031        2.082      871.133
01/22/2022  20:23:00       40.144       41.059       -3.040       20.040        9.217        9.532      401.615       84.956       90.863        0.194        0.029       57.423        4.993        0.008      333.096        2.189      871.159
01/22/2022  20:24:00       34.824       44.182       -2.740       11.990       13.027        6.398      143.770      169.703       40.938        0.176        0.018       56.256        3.824        0.005      333.212        2.380      871.168
01/22/2022  20:25:00       23.687       64.158       -3.294       18.824       24.103        9.815      354.348      580.937       96.329        0.286        0.052       68.391       10.320        0.023      333.165        2.302      871.175
01/22/2022  20:26:00        2.295       34.760       -7.822       38.839       27.588       18.965     1508.484      761.121      359.680        0.195        0.131       34.836        9.088        0.068      333.017        2.058      871.161
01/22/2022  20:27:00      -51.692       18.456      -15.572       15.825       16.627       13.174      250.422      276.441      173.548        0.198        0.035       54.888        9.822        0.032      332.429        1.087      871.147
01/22/2022  20:28:00      -44.018       24.315      -18.090        9.253        9.525        8.078       85.626       90.720       65.256        0.155        0.012       50.287        5.075        0.010      332.406        1.049      871.137
01/22/2022  20:29:00      -63.700       28.872      -20.022        8.746       12.705        8.589       76.492      161.421       73.773        0.280        0.016       69.938        7.043        0.010      332.401        1.039      871.139
01/22/2022  20:30:00      -75.309       40.928      -17.767       11.323       15.426       11.344      128.201      237.960      128.688        0.408        0.025       85.712        6.223        0.005      332.447        1.116      871.160
01/22/2022  20:31:00      -54.520       33.970      -17.696       18.680       19.844       16.624      348.943      393.804      276.374        0.273        0.051       64.237        9.441        0.022      332.466        1.147      871.187
01/22/2022  20:32:00      -30.320       22.078      -16.523       10.617       15.080       13.489      112.730      227.394      181.940        0.110        0.026       37.506        3.674        0.010      332.462        1.141      871.208
01/22/2022  20:33:00      -60.716       25.989      -23.657       26.135       17.880       12.791      683.022      319.707      163.607        0.304        0.058       66.044        5.737        0.008      332.436        1.097      871.226
01/22/2022  20:34:00      -76.026       28.209      -31.245       17.454       17.782       14.816      304.647      316.207      219.516        0.420        0.042       81.090        4.938        0.004      332.367        0.983      871.237
01/22/2022  20:35:00      -50.251       17.615      -30.155       17.519       15.652       16.845      306.899      244.979      283.762        0.229        0.042       53.249       12.454        0.055      332.350        0.955      871.271
01/22/2022  20:36:00       15.203       30.372       -5.970       50.691       21.322       15.305     2569.538      454.632      234.240        0.222        0.163       33.965       13.792        0.165      332.917        1.891      871.308
01/22/2022  20:37:00       61.866       64.222       -7.634       18.968       25.575       15.966      359.775      654.072      254.915        0.464        0.063       89.173       11.342        0.016      333.069        2.144      871.354
01/22/2022  20:38:00       64.815      105.901       -7.304       20.523       23.005       12.024      421.195      529.210      144.577        0.828        0.055      124.161        9.843        0.006      333.325        2.567      871.365
01/22/2022  20:39:00       30.257      105.713       -3.233       21.368       28.113       16.287      456.584      790.353      265.276        0.681        0.076      109.958       15.523        0.020      333.464        2.797      871.361
01/22/2022  20:40:00       24.604       77.732       -4.217       23.985       23.515       18.153      575.285      552.958      329.532        0.406        0.073       81.533       18.337        0.051      333.428        2.737      871.348
01/22/2022  20:41:00        9.313       67.902       -9.110       34.037       24.355       16.480     1158.499      593.164      271.592        0.340        0.101       68.537       12.418        0.033      333.153        2.282      871.330
01/22/2022  20:42:00      -34.317       26.358      -13.029       31.382       17.742       17.288      984.818      314.783      298.886        0.182        0.080       43.272       16.768        0.150      332.505        1.211      871.322
01/22/2022  20:43:00      -48.503       27.591      -16.065       18.300       11.586       10.749      334.886      134.244      115.537        0.198        0.029       55.801        4.787        0.007      332.356        0.966      871.326
01/22/2022  20:44:00      -23.528       24.203      -10.973       20.651       10.788       14.448      426.465      116.391      208.742        0.101        0.038       33.754        8.454        0.063      332.646        1.445      871.342
01/22/2022  20:45:00      -15.479       22.731      -14.544       21.275       14.187       10.137      452.620      201.264      102.753        0.086        0.038       27.500        4.283        0.024      332.599        1.366      871.359
01/22/2022  20:46:00      -42.665       21.078      -20.145       20.343       12.737       13.569      413.818      162.230      184.128        0.172        0.038       47.587        9.793        0.042      332.498        1.200      871.357
01/22/2022  20:47:00      -39.514       11.315      -11.767       20.811       22.047       21.447      433.112      486.051      459.953        0.160        0.069       41.102       10.018        0.059      332.422        1.075      871.358
01/22/2022  20:48:00      -43.587        5.551      -19.963       16.948       15.294       12.801      287.246      233.894      163.855        0.151        0.034       43.939        5.593        0.016      332.436        1.097      871.373
01/22/2022  20:49:00      -72.223       16.235      -17.796       21.728       23.415       19.665      472.103      548.269      386.730        0.360        0.070       74.025       15.454        0.044      332.471        1.155      871.395
01/22/2022  20:50:00      -75.327       36.195      -21.617       13.383       12.904       10.392      179.105      166.510      107.994        0.395        0.023       83.571        5.642        0.005      332.428        1.083      871.417
01/22/2022  20:51:00      -82.951       38.013      -20.033       18.248       16.828       13.292      333.003      283.169      176.668        0.476        0.040       91.246        9.249        0.010      332.352        0.958      871.421
01/22/2022  20:52:00      -89.442       15.567      -21.914       23.348       20.801       15.257      545.140      432.670      232.767        0.497        0.061       90.786       10.655        0.014      332.357        0.966      871.429
01/22/2022  20:53:00     -102.911       36.456      -20.331       17.560       11.798       15.036      308.337      139.186      226.092        0.650        0.034      109.177       11.210        0.011      332.404        1.044      871.433
01/22/2022  20:54:00      -35.841       35.697      -15.592       24.058       18.676       18.244      578.768      348.777      332.854        0.203        0.063       50.585       12.125        0.057      332.364        0.978      871.435
01/22/2022  20:55:00      -58.599       31.036       -4.015       24.573       18.777       14.393      603.813      352.566      207.152        0.279        0.058       66.311        9.317        0.020      332.476        1.164      871.436
01/22/2022  20:56:00      -21.587        5.584       -6.305       23.291       26.000        8.630      542.472      675.999       74.483        0.091        0.065       22.297        4.408        0.039      332.443        1.109      871.442
01/22/2022  20:57:00      -37.253       -7.702       -9.409       20.623       16.766       17.572      425.305      281.087      308.771        0.128        0.051       38.041        7.166        0.035      332.431        1.089      871.444
01/22/2022  20:58:00      -48.024      -11.343       -2.769       23.125       19.033       13.563      534.744      362.257      183.950        0.176        0.054       49.346       12.813        0.067      332.355        0.963      871.432
01/22/2022  20:59:00      -84.591       28.799      -22.673       23.319       18.920       12.838      543.778      357.949      164.824        0.478        0.053       89.359       10.248        0.013      332.299        0.870      871.434
01/22/2022  21:00:00      -90.217       30.343      -19.686       14.043       13.642       14.151      197.218      186.095      200.240        0.502        0.029       95.183        7.833        0.007      332.255        0.799      871.445
01/22/2022  21:01:00      -70.616       42.806      -14.259       20.272       13.839       11.180      410.974      191.518      125.002        0.387        0.036       82.577        8.257        0.010      332.365        0.979      871.463
01/22/2022  21:02:00      -51.003       47.081      -21.012       31.777       13.724       15.965     1009.791      188.343      254.894        0.336        0.073       69.411       10.948        0.025      332.631        1.420      871.491
01/22/2022  21:03:00      -14.417       29.334       -6.033       20.827       13.738        8.251      433.772      188.720       68.075        0.090        0.035       32.685        7.205        0.049      332.570        1.319      871.512
01/22/2022  21:04:00       24.707       42.599       -1.148       20.007       12.695       12.661      400.271      161.173      160.290        0.157        0.036       49.245        8.962        0.033      332.864        1.805      871.523
01/22/2022  21:05:00       59.313       38.077       -4.887       19.617       15.136        4.930      384.826      229.103       24.301        0.281        0.032       70.483        5.297        0.006      333.048        2.109      871.522
01/22/2022  21:06:00      -10.371        0.348       -5.854       18.467       13.143       13.371      341.033      172.737      178.784        0.042        0.035       10.377       11.994        1.336      332.581        1.338      871.511
01/22/2022  21:07:00      -25.241       -3.181       -9.044       14.746       10.670       13.743      217.448      113.850      188.880        0.062        0.026       25.441        8.339        0.107      332.431        1.088      871.497
01/22/2022  21:08:00      -28.512       -3.250       -6.796       11.158       17.673       11.440      124.505      312.322      130.865        0.072        0.028       28.697        4.749        0.027      332.381        1.007      871.505
01/22/2022  21:09:00      -57.264       15.475      -14.459       10.585       11.517        8.993      112.034      132.652       80.883        0.203        0.016       59.318        2.606        0.002      332.510        1.219      871.518
01/22/2022  21:10:00      -78.368       26.661      -14.662       16.374       15.416       10.587      268.092      237.650      112.088        0.384        0.031       82.779        5.688        0.005      332.530        1.254      871.514
01/22/2022  21:11:00      -60.058       35.610      -16.562       14.346        9.264        6.207      205.806       85.823       38.532        0.274        0.017       69.822        1.635        0.001      332.533        1.259      871.528
01/22/2022  21:12:00      -43.989       41.978       -8.397       18.259       10.277        7.792      333.405      105.621       60.710        0.213        0.025       60.804        4.052        0.004      332.777        1.661      871.541
01/22/2022  21:13:00        2.659       27.906       -5.463       23.976        7.130        7.650      574.855       50.838       58.522        0.075        0.034       28.032       10.843        0.150      333.150        2.277      871.553
01/22/2022  21:14:00       38.583       12.850       -5.900       11.828       12.824        7.311      139.895      164.465       53.455        0.102        0.018       40.666        4.622        0.013      332.909        1.879      871.520
01/22/2022  21:15:00        3.856       20.272       -3.123        7.015       16.671        8.107       49.210      277.928       65.720        0.041        0.020       20.636        4.565        0.049      332.842        1.769      871.487
01/22/2022  21:16:00      -28.626        0.812       -5.569       16.139       18.453        9.952      260.465      340.505       99.037        0.078        0.035       28.637        3.276        0.013      332.613        1.389      871.491
01/22/2022  21:17:00      -68.578        4.093      -17.910       32.600       21.068       17.554     1062.767      443.880      308.137        0.343        0.091       68.700       16.441        0.057      332.227        0.753      871.492
01/22/2022  21:18:00      -76.238        6.248      -25.063       35.655       24.150       22.388     1271.256      583.216      501.231        0.442        0.118       76.494       18.242        0.057      332.164        0.648      871.496
01/22/2022  21:19:00      -76.968        0.462      -22.644       28.290       19.509       21.926      800.310      380.610      480.749        0.405        0.083       76.969       12.475        0.026      332.213        0.729      871.515
01/22/2022  21:20:00      -91.472       48.252      -12.377       26.600       24.525       18.201      707.538      601.453      331.287        0.624        0.082      103.419       10.174        0.010      332.189        0.690      871.547
01/22/2022  21:21:00      -77.027       35.091      -15.572       15.688       15.089        9.590      246.105      227.667       91.965        0.399        0.028       84.644        3.655        0.002      332.293        0.861      871.568
01/22/2022  21:22:00      -50.509       17.765      -12.211       25.035       23.559       17.667      626.733      555.014      312.117        0.225        0.075       53.542       12.458        0.054      332.434        1.093      871.584
01/22/2022  21:23:00      -42.246        5.572      -21.555       17.353       22.953       12.998      301.132      526.840      168.950        0.164        0.050       42.612        4.832        0.013      332.178        0.670      871.582
01/22/2022  21:24:00      -81.838       19.511      -20.867       36.602       29.886       15.980     1339.714      893.191      255.356        0.500        0.124       84.132        5.364        0.004      332.100        0.543      871.574
01/22/2022  21:25:00      -87.271       28.597      -27.921       24.359       22.817       18.369      593.371      520.621      337.418        0.533        0.073       91.836       12.274        0.018      332.057        0.472      871.564
01/22/2022  21:26:00      -59.467       17.530      -22.463       23.012       17.600       16.566      529.567      309.755      274.417        0.273        0.056       61.997        7.113        0.013      332.041        0.446      871.559
01/22/2022  21:27:00      -71.884       27.419      -16.135       17.678       11.738       17.143      312.502      137.785      293.890        0.346        0.037       76.936        3.522        0.002      332.090        0.526      871.567
01/22/2022  21:28:00      -74.251       37.863      -17.357       13.310       11.223        8.854      177.167      125.955       78.391        0.381        0.019       83.348        7.107        0.007      332.259        0.804      871.560
01/22/2022  21:29:00      -34.008       13.092      -18.194       26.982       15.468       16.515      728.046      239.255      272.739        0.145        0.062       36.441       14.004        0.148      332.186        0.682      871.548
01/22/2022  21:30:00      -62.225        1.147      -19.776       37.623       18.235       18.888     1415.514      332.504      356.739        0.318        0.105       62.236       15.739        0.064      332.136        0.602      871.555
01/22/2022  21:31:00     -109.041       36.403      -17.722       34.997       26.906       20.390     1224.793      723.951      415.750        0.795        0.118      114.957       10.583        0.008      331.979        0.346      871.568
01/22/2022  21:32:00      -78.027       26.468      -12.356       34.802       22.518       20.420     1211.174      507.068      416.989        0.454        0.107       82.394       15.049        0.033      331.964        0.319      871.573
01/22/2022  21:33:00      -32.416       13.358      -12.290       31.241       29.993       27.038      976.028      899.556      731.062        0.199        0.130       35.060       19.730        0.317      331.978        0.342      871.575
01/22/2022  21:34:00      -43.854       11.343       -0.250       67.529       26.933       30.264     4560.154      725.373      915.910        0.413        0.310       45.298       34.274        0.573      331.958        0.310      871.573
01/22/2022  21:35:00      -64.696       16.898      -14.320       61.968       41.968       33.380     3840.058     1761.310     1114.248        0.569        0.336       66.866       30.908        0.214      331.939        0.278      871.573
01/22/2022  21:36:00       -4.801       -2.561      -13.324       42.364       37.220       30.759     1794.698     1385.335      946.145        0.217        0.206        5.442       20.711       14.486      331.844        0.124      871.569
01/22/2022  21:37:00      -97.668       33.520       -2.011       97.650       56.366       38.252     9535.567     3177.166     1463.216        1.242        0.709      103.260       41.166        0.159      331.876        0.173      871.560
01/22/2022  21:38:00     -128.179       59.363        0.863       79.456       55.938       32.925     6313.237     3129.055     1084.075        1.524        0.526      141.258       35.193        0.062      331.637       -0.221      871.548
01/22/2022  21:39:00     -141.340       56.293       -7.151       48.209       42.060       32.316     2324.141     1769.051     1044.347        1.417        0.257      152.138       23.919        0.025      331.606       -0.270      871.541
01/22/2022  21:40:00     -129.885       44.253      -10.266       51.510       37.420       30.199     2653.243     1400.291      911.998        1.195        0.248      137.217       25.944        0.036      331.625       -0.240      871.541
01/22/2022  21:41:00     -127.441       46.068       -1.255       54.643       36.603       32.260     2985.906     1339.816     1040.721        1.186        0.268      135.512       31.768        0.055      331.613       -0.259      871.537
01/22/2022  21:42:00     -161.732       41.033      -16.631       33.788       42.205       23.308     1141.658     1781.238      543.267        1.579        0.173      166.856       17.500        0.011      331.764       -0.010      871.522
01/22/2022  21:43:00      -62.376       -2.266      -13.248       64.673       30.892       28.936     4182.660      954.339      837.270        0.502        0.299       62.417       28.109        0.203      331.766       -0.007      871.522
01/22/2022  21:44:00      -20.742        1.300      -16.639       36.635       26.483       23.828     1342.090      701.334      567.774        0.166        0.131       20.783       14.418        0.481      331.757       -0.022      871.534
01/22/2022  21:45:00        5.258        6.691       -3.456       20.368       16.038       19.344      414.849      257.217      374.181        0.057        0.052        8.509        9.463        1.237      331.803        0.055      871.544
01/22/2022  21:46:00      -16.088        1.914      -15.377       25.930       30.042       21.273      672.365      902.533      452.548        0.126        0.101       16.201       16.451        1.031      331.898        0.211      871.544
01/22/2022  21:47:00      -13.090       -2.096      -12.852       27.768       33.860       21.540      771.039     1146.508      463.953        0.136        0.119       13.257       12.830        0.937      331.885        0.190      871.535
01/22/2022  21:48:00        7.297        4.409       -0.092       24.097       23.235       23.777      580.684      539.878      565.344        0.088        0.084        8.526       12.536        2.162      331.784        0.023      871.526
01/22/2022  21:49:00      -68.682       14.296      -20.614       50.929       22.399       19.432     2593.763      501.722      377.598        0.441        0.174       70.154       17.980        0.066      331.787        0.027      871.519
01/22/2022  21:50:00      -59.374        4.536      -11.930       48.195       30.669       21.558     2322.737      940.585      464.742        0.371        0.186       59.547       22.630        0.144      331.784        0.022      871.522
01/22/2022  21:51:00      -13.847        7.069      -11.669       30.889       17.118       18.618      954.105      293.012      346.639        0.099        0.080       15.547       15.671        1.016      331.818        0.079      871.536
01/22/2022  21:52:00        2.621       -3.363      -12.977       14.902       21.918       12.787      222.074      480.387      163.501        0.053        0.043        4.264       10.179        5.699      331.807        0.061      871.562
01/22/2022  21:53:00       -8.711       -5.666      -10.048       15.630       14.702       10.386      244.296      216.163      107.863        0.039        0.028       10.392        9.275        0.797      331.864        0.154      871.578
01/22/2022  21:54:00       -3.889        3.886       -6.419       21.245       18.363       15.024      451.363      337.194      225.726        0.054        0.051        5.498        9.057        2.714      331.908        0.227      871.582
01/22/2022  21:55:00      -32.023        9.605       -5.731       28.714       14.850       14.382      824.520      220.524      206.855        0.120        0.063       33.433       12.202        0.133      331.933        0.267      871.563
01/22/2022  21:56:00       -9.781       -0.931       -4.846       26.586       13.816       13.903      706.797      190.890      193.305        0.061        0.055        9.825       16.397        2.785      331.918        0.243      871.555
01/22/2022  21:57:00       -4.834       11.617       -9.122       21.382       20.216        9.659      457.181      408.670       93.302        0.060        0.048       12.582       10.306        0.671      331.920        0.248      871.550
01/22/2022  21:58:00      -53.832       23.573      -19.875       11.314       14.100       10.369      127.997      198.808      107.508        0.214        0.022       58.767        5.333        0.008      331.934        0.269      871.541
01/22/2022  21:59:00      -49.806       11.202      -18.111       34.092       19.150       16.080     1162.251      366.714      258.568        0.236        0.089       51.050       10.554        0.043      331.786        0.027      871.542
01/22/2022  22:00:00      -45.477       -4.962      -17.392       21.724       27.787       18.698      471.938      772.093      349.617        0.199        0.080       45.747       11.540        0.064      331.759       -0.018      871.541
01/22/2022  22:01:00      -68.569      -13.452      -19.661       26.507       22.889       20.756      702.605      523.912      430.801        0.346        0.083       69.876       19.295        0.076      331.824        0.091      871.546
01/22/2022  22:02:00      -79.117      -19.141      -19.931       21.830       17.139       15.483      476.559      293.740      239.732        0.402        0.051       81.399        4.786        0.003      331.790        0.033      871.567
01/22/2022  22:03:00      -83.308      -18.697      -26.256       22.130       16.618       16.560      489.757      276.149      274.238        0.451        0.052       85.380       10.275        0.014      331.871        0.166      871.596
01/22/2022  22:04:00      -58.979      -19.557      -33.820       18.524       14.588       18.656      343.148      212.797      348.056        0.295        0.045       62.137       12.566        0.041      331.878        0.177      871.628
01/22/2022  22:05:00      -51.968       -6.794      -21.971       20.026       21.942       16.485      401.037      481.450      271.741        0.219        0.058       52.410       13.900        0.070      331.888        0.194      871.642
01/22/2022  22:06:00      -36.626        3.525      -15.950       22.646       23.511       22.707      512.861      552.755      515.609        0.159        0.079       36.796        4.313        0.014      331.885        0.189      871.655
01/22/2022  22:07:00      -57.634        9.229      -17.675       32.162       27.400       22.455     1034.404      750.740      504.211        0.300        0.114       58.368       18.618        0.102      331.880        0.180      871.674
01/22/2022  22:08:00      -90.367       12.842      -29.717       27.492       23.806       24.466      755.828      566.715      598.605        0.557        0.096       91.275       14.032        0.024      331.889        0.196      871.683
01/22/2022  22:09:00      -60.031        9.641      -10.894       35.571       30.046       25.301     1265.303      902.770      640.159        0.331        0.140       60.800       24.931        0.168      331.799        0.049      871.693
01/22/2022  22:10:00      -85.365       14.649      -27.765       31.137       20.486       17.068      969.513      419.685      291.303        0.498        0.084       86.613       15.277        0.031      331.827        0.094      871.700
01/22/2022  22:11:00      -44.151       -7.701      -14.052       35.725       25.478       19.125     1276.299      649.135      365.773        0.225        0.115       44.818       12.460        0.077      331.796        0.042      871.709
01/22/2022  22:12:00        2.510       -9.768      -11.040       17.848       18.207       19.765      318.550      331.498      390.653        0.063        0.052       10.085       12.785        1.607      331.886        0.191      871.719
01/22/2022  22:13:00      -45.115        7.236      -18.324       25.074       20.188       20.189      628.685      407.564      407.588        0.193        0.072       45.691       15.233        0.111      331.984        0.351      871.705
01/22/2022  22:14:00      -65.680       14.460      -18.055       21.010       22.006       12.095      441.404      484.248      146.294        0.296        0.054       67.253        9.905        0.022      331.813        0.070      871.690
01/22/2022  22:15:00      -68.949      -10.477      -15.999       27.311       23.433       22.346      745.892      549.092      499.330        0.346        0.090       69.740       14.149        0.041      331.759       -0.016      871.680
01/22/2022  22:16:00      -35.455        4.216      -10.812       33.997       17.617       24.370     1155.786      310.356      593.876        0.173        0.103       35.704       21.047        0.347      331.737       -0.053      871.686
01/22/2022  22:17:00      -82.338       32.695      -18.834       32.925       18.872       15.450     1084.049      356.155      238.698        0.494        0.084       88.592       10.528        0.014      331.745       -0.041      871.691
01/22/2022  22:18:00      -71.700       37.364      -18.152       20.883       24.482       17.345      436.089      599.365      300.852        0.410        0.067       80.852       10.244        0.016      331.749       -0.035      871.698
01/22/2022  22:19:00      -79.345        6.340      -19.271       29.735       24.479       18.895      884.190      599.224      357.016        0.427        0.092       79.597        7.705        0.009      331.757       -0.022      871.714
01/22/2022  22:20:00      -56.592       11.442       -9.796       38.472       25.745       15.672     1480.076      662.785      245.597        0.291        0.119       57.737       18.911        0.107      331.708       -0.102      871.731
01/22/2022  22:21:00      -83.371       34.665      -10.987       29.421       19.740       14.874      865.610      389.648      221.238        0.487        0.074       90.291       14.030        0.024      331.792        0.038      871.747
01/22/2022  22:22:00      -71.972       20.866      -16.916       30.560       24.950       20.061      933.944      622.510      402.437        0.393        0.098       74.936       16.247        0.047      331.954        0.302      871.759
01/22/2022  22:23:00      -70.033       18.999      -18.975       45.692       29.895       18.838     2087.803      893.739      354.881        0.448        0.167       72.565       18.285        0.063      331.778        0.014      871.782
01/22/2022  22:24:00     -105.416       23.963      -27.706       29.106       30.889       14.378      847.181      954.158      206.729        0.723        0.100      108.106       13.372        0.015      331.766       -0.008      871.795
01/22/2022  22:25:00      -96.640       23.365      -23.725       32.186       31.280       24.766     1035.954      978.416      613.357        0.654        0.131       99.424       16.656        0.028      331.729       -0.067      871.807
01/22/2022  22:26:00      -75.010        7.374      -18.140       54.846       29.051       27.576     3008.078      843.964      760.449        0.531        0.231       75.372       30.680        0.166      331.724       -0.075      871.813
01/22/2022  22:27:00     -130.534       -1.022      -25.343       41.340       28.820       26.945     1708.955      830.602      726.042        1.047        0.163      130.538       23.948        0.034      331.746       -0.039      871.820
01/22/2022  22:28:00      -65.118       16.790       -9.060       65.355       57.152       39.323     4271.319     3266.407     1546.314        0.684        0.454       67.248       27.296        0.165      331.698       -0.118      871.811
01/22/2022  22:29:00      -89.711       11.958      -13.390       70.533       42.505       23.908     4974.886     1806.704      571.607        0.786        0.368       90.505       25.271        0.078      331.721       -0.080      871.804
01/22/2022  22:30:00      -78.339        4.894        0.698       67.257       39.097       26.807     4523.446     1528.550      718.641        0.646        0.339       78.492       15.658        0.040      331.772        0.004      871.795
01/22/2022  22:31:00        2.882      -27.319      -22.843       21.047       13.573       13.712      442.958      184.237      188.008        0.105        0.041       27.471       13.072        0.226      331.810        0.066      871.805
01/22/2022  22:32:00      -65.958       37.657      -17.839       39.468       29.754       19.218     1557.723      885.271      369.332        0.445        0.141       75.951       17.241        0.052      331.754       -0.027      871.803
01/22/2022  22:33:00      -50.442       25.697      -11.919       24.484       24.937       20.714      599.453      621.831      429.065        0.250        0.083       56.610       13.979        0.061      331.831        0.101      871.789
01/22/2022  22:34:00      -76.643        8.239      -13.781       32.840       20.956       15.560     1078.473      439.159      242.109        0.395        0.088       77.084        8.388        0.012      331.825        0.091      871.799
01/22/2022  22:35:00      -14.694      -10.923       -4.004       23.214       26.742       13.079      538.892      715.114      171.072        0.089        0.071       18.309        3.829        0.044      331.831        0.101      871.814
01/22/2022  22:36:00      -18.064       23.730       -8.985       25.102       16.560       16.583      630.110      274.246      274.988        0.107        0.059       29.823        3.322        0.012      331.772        0.004      871.825
01/22/2022  22:37:00      -37.222       25.513      -19.559       19.893       15.293       14.180      395.723      233.889      201.076        0.162        0.042       45.126       12.340        0.075      331.954        0.302      871.841
01/22/2022  22:38:00      -44.276       24.668      -18.885       14.521       12.080       13.357      210.866      145.938      178.410        0.173        0.027       50.685        5.872        0.013      332.558        1.299      871.863
01/22/2022  22:39:00      -27.264        4.048      -11.448       15.016       12.213       12.584      225.482      149.155      158.361        0.071        0.027       27.563        6.351        0.053      332.019        0.411      871.885
01/22/2022  22:40:00      -39.403       12.387      -11.991       12.649       18.043       10.846      160.007      325.533      117.638        0.123        0.030       41.304        3.793        0.008      332.002        0.380      871.900
01/22/2022  22:41:00      -48.689       14.800      -13.947       15.337       20.664       11.226      235.238      426.991      126.026        0.179        0.039       50.889        5.196        0.010      332.012        0.399      871.894
01/22/2022  22:42:00      -27.393       -3.720       -5.659       14.368       13.510       11.804      206.443      182.531      139.342        0.066        0.026       27.644        9.687        0.123      331.956        0.307      871.880
01/22/2022  22:43:00      -48.569       -3.638      -20.681       32.828       25.378       21.404     1077.674      644.056      458.128        0.249        0.109       48.705       18.844        0.150      331.968        0.325      871.871
01/22/2022  22:44:00      -34.636       11.203      -14.258       29.300       22.547       19.074      858.499      508.351      363.831        0.163        0.087       36.403       11.066        0.092      331.791        0.034      871.869
01/22/2022  22:45:00      -78.922       20.747      -11.028       19.450       19.507       13.577      378.309      380.514      184.322        0.386        0.047       81.604       10.328        0.016      331.828        0.097      871.877
01/22/2022  22:46:00      -39.187        8.200      -15.649       20.535       11.259       13.328      421.703      126.767      177.626        0.129        0.036       40.036        6.091        0.023      331.920        0.246      871.890
01/22/2022  22:47:00      -48.727       23.954      -13.138        9.962        9.575        6.669       99.236       91.690       44.481        0.168        0.012       54.296        4.466        0.007      332.113        0.566      871.902
01/22/2022  22:48:00      -32.639        9.278        0.903       27.124       21.349        9.742      735.698      455.800       94.907        0.122        0.064       33.932       11.624        0.117      332.005        0.385      871.903
01/22/2022  22:49:00       -1.318      -10.794       -7.598       14.659       14.130       10.507      214.892      199.660      110.401        0.035        0.026       10.875        9.566        0.774      332.131        0.592      871.914
01/22/2022  22:50:00      -43.817       48.260       -6.705       15.427        9.791       10.340      237.977       95.863      106.925        0.237        0.022       65.184        7.202        0.012      331.995        0.370      871.896
01/22/2022  22:51:00      -31.063       16.294      -11.868       13.286       14.288       12.136      176.509      204.147      147.292        0.095        0.026       35.077        4.613        0.017      331.997        0.376      871.889
01/22/2022  22:52:00      -26.314       32.245      -11.854       11.206       10.561        8.001      125.569      111.535       64.015        0.109        0.015       41.620        3.350        0.006      332.105        0.550      871.892
01/22/2022  22:53:00      -15.991       28.502       -9.746       14.397       16.186       12.126      207.284      262.000      147.043        0.089        0.031       32.682        7.819        0.057      332.297        0.866      871.899
01/22/2022  22:54:00      -30.062       13.792      -12.239       25.876       27.375       15.285      669.554      749.399      233.634        0.145        0.083       33.074       15.882        0.231      332.161        0.642      871.910
01/22/2022  22:55:00      -45.704        9.676      -18.707       12.049       19.695       11.120      145.179      387.885      123.661        0.159        0.033       46.717        8.509        0.033      331.916        0.240      871.923
01/22/2022  22:56:00      -33.437       15.937      -10.426       21.997       16.035        8.966      483.876      257.113       80.388        0.115        0.041       37.040        5.423        0.021      331.702       -0.113      871.937
01/22/2022  22:57:00      -30.065       20.789       -5.949       17.455       12.915       16.239      304.690      166.799      263.718        0.105        0.037       36.553       11.866        0.105      331.638       -0.217      871.939
01/22/2022  22:58:00      -46.225       19.795      -21.602       31.517       25.997       16.488      993.326      675.867      271.841        0.247        0.097       50.286       11.633        0.054      331.507       -0.433      871.954
01/22/2022  22:59:00      -45.008       15.081      -14.089       38.122       29.133       21.687     1453.315      848.709      470.316        0.261        0.139       47.468       13.814        0.085      331.559       -0.347      871.947
01/22/2022  23:00:00       15.512        5.771        3.881       18.408       24.653       20.247      338.846      607.776      409.931        0.082        0.068       16.551        9.051        0.299      331.512       -0.426      871.951
01/22/2022  23:01:00        7.432      -24.835      -11.806       15.322       23.418       17.710      234.779      548.380      313.654        0.095        0.055       25.924        8.525        0.108      331.666       -0.171      871.961
01/22/2022  23:02:00        9.437        0.239       -9.284       11.060       22.680       13.313      122.320      514.377      177.243        0.049        0.041        9.440       10.014        1.125      331.593       -0.291      871.982
01/22/2022  23:03:00       -6.026      -24.558      -12.985       19.516       25.131       13.267      380.885      631.557      176.010        0.100        0.059       25.287        6.849        0.073      331.578       -0.316      872.003
01/22/2022  23:04:00      -37.038       15.507      -15.452       14.648       12.991       14.947      214.569      168.768      223.425        0.123        0.030       40.153        8.797        0.048      331.946        0.289      872.014
01/22/2022  23:05:00      -24.999       -1.956      -11.466       32.336       12.036       15.293     1045.611      144.858      233.880        0.109        0.071       25.075       17.233        0.472      331.665       -0.172      872.022
01/22/2022  23:06:00      -38.435       -6.425       -9.080       28.343       12.228       20.392      803.337      149.531      415.836        0.148        0.068       38.968       20.772        0.284      331.554       -0.357      872.022
01/22/2022  23:07:00      -36.642       -3.536      -20.984       23.705       20.129       17.049      561.920      405.188      290.666        0.153        0.063       36.813       11.670        0.101      331.639       -0.215      872.038
01/22/2022  23:08:00      -27.727      -14.123      -13.888       15.011       22.301       11.470      225.315      497.314      131.557        0.101        0.043       31.117        8.038        0.067      331.660       -0.181      872.050
01/22/2022  23:09:00      -25.919      -22.742      -17.529       13.461        9.770       10.119      181.187       95.456      102.400        0.094        0.019       34.482        7.289        0.045      331.647       -0.201      872.059
01/22/2022  23:10:00      -98.552       20.748      -17.922       38.994       26.503       24.911     1520.514      702.409      620.566        0.665        0.142      100.713       22.859        0.052      331.679       -0.151      872.058
01/22/2022  23:11:00     -101.619       34.451        0.655       43.867       29.253       21.138     1924.338      855.742      446.827        0.737        0.161      107.300       21.885        0.042      331.503       -0.440      872.053
01/22/2022  23:12:00      -68.870       41.984       -8.985       36.144       23.988       21.178     1306.368      575.444      448.514        0.446        0.117       80.658       17.366        0.046      331.429       -0.562      872.070
01/22/2022  23:13:00      -96.270       35.558      -19.375       21.884       23.365       20.193      478.930      545.944      407.759        0.617        0.072      102.627       14.329        0.019      331.502       -0.441      872.081
01/22/2022  23:14:00      -64.889        2.025       -6.962       57.267       31.469       21.836     3279.490      990.293      476.799        0.450        0.237       64.921       22.476        0.120      331.584       -0.305      872.108
01/22/2022  23:15:00      -60.005       -8.230      -15.076       44.381       43.826       30.106     1969.683     1920.693      906.365        0.435        0.240       60.566       25.786        0.181      331.498       -0.449      872.137
01/22/2022  23:16:00      -23.752       18.348       -3.178       60.106       38.863       38.957     3612.702     1510.318     1517.670        0.377        0.332       30.014       35.748        1.419      331.404       -0.603      872.151
01/22/2022  23:17:00      -31.331       -2.128      -16.383       37.982       25.836       16.379     1442.596      667.518      268.257        0.182        0.119       31.403       16.859        0.288      331.455       -0.519      872.173
01/22/2022  23:18:00       -9.006       -2.456        2.250       22.204       27.005       21.772      493.014      729.291      474.016        0.089        0.085        9.334       10.006        1.149      331.414       -0.587      872.186
01/22/2022  23:19:00      -96.890       25.393      -22.690       41.470       38.467       20.898     1719.791     1479.707      436.736        0.709        0.182      100.162       19.150        0.037      331.412       -0.591      872.192
01/22/2022  23:20:00      -56.446       -7.923      -13.234       41.967       21.424       18.417     1761.228      459.002      339.176        0.299        0.128       56.999       16.136        0.080      331.363       -0.670      872.200
01/22/2022  23:21:00      -82.684       -9.659      -22.240       28.699       18.979       21.097      823.613      360.197      445.091        0.453        0.081       83.246       11.123        0.018      331.363       -0.671      872.191
01/22/2022  23:22:00      -83.316       18.596      -14.691       34.165       22.266       15.074     1167.218      495.760      227.224        0.470        0.095       85.366       14.203        0.028      331.355       -0.683      872.189
01/22/2022  23:23:00      -22.191       -4.365       -9.002       26.443       24.522       21.819      699.237      601.320      476.083        0.118        0.089       22.616       15.364        0.462      331.320       -0.741      872.190
01/22/2022  23:24:00      -51.571       12.581      -28.379       34.747       18.900       21.221     1207.383      357.212      450.339        0.282        0.101       53.084        9.981        0.035      331.605       -0.272      872.195
01/22/2022  23:25:00      -47.237      -11.822       -5.132       39.957       27.483       25.966     1596.593      755.301      674.253        0.271        0.151       48.694       24.237        0.248      331.450       -0.527      872.197
01/22/2022  23:26:00      -74.113       19.422       -5.106       42.216       22.967       20.109     1782.194      527.481      404.353        0.430        0.136       76.616       20.987        0.075      331.453       -0.523      872.208
01/22/2022  23:27:00      -73.373       20.001       -5.306       57.748       24.470       18.278     3334.841      598.777      334.100        0.504        0.213       76.050       26.021        0.117      331.529       -0.397      872.213
01/22/2022  23:28:00     -116.878       43.392      -21.551       48.349       31.104       21.951     2337.584      967.481      481.847        0.990        0.189      124.673       18.562        0.022      331.563       -0.342      872.201
01/22/2022  23:29:00      -17.208      -11.168       -0.805       57.415       40.257       25.262     3296.533     1620.654      638.189        0.299        0.278       20.514       15.165        0.546      331.557       -0.351      872.188
01/22/2022  23:30:00       32.356       -0.381       -5.481       24.444       41.021       18.005      597.526     1682.704      324.183        0.184        0.130       32.358       17.068        0.278      332.125        0.585      872.197
01/22/2022  23:31:00      -52.386       13.407       -8.435       29.892       22.896       13.464      893.504      524.225      181.285        0.230        0.080       54.075        6.212        0.013      332.206        0.717      872.191
01/22/2022  23:32:00      -20.048       31.487       -6.684        9.324       11.895        6.676       86.929      141.497       44.572        0.086        0.014       37.328        4.361        0.014      332.044        0.450      872.202
01/22/2022  23:33:00        7.960       23.665        0.592       12.817       17.000        9.054      164.276      288.996       81.979        0.058        0.027       24.968        3.909        0.025      332.306        0.882      872.214
01/22/2022  23:34:00        5.305       36.223       -0.827       11.832       10.198       10.172      139.995      103.994      103.474        0.084        0.017       36.610        6.240        0.029      332.439        1.103      872.223
01/22/2022  23:35:00       13.188       63.785       -8.543       16.452       12.165        7.374      270.666      147.987       54.382        0.239        0.024       65.134        5.497        0.007      332.471        1.153      872.228
01/22/2022  23:36:00       -6.510       35.890       -3.253       19.118       20.262       13.663      365.481      410.529      186.686        0.115        0.048       36.475       10.955        0.090      332.284        0.846      872.249
01/22/2022  23:37:00       -1.166       30.685       -0.152       11.189       21.527        8.613      125.197      463.399       74.182        0.080        0.033       30.707        3.692        0.014      332.213        0.728      872.264
01/22/2022  23:38:00      -29.802       11.939      -14.807       13.110       10.698        7.322      171.885      114.449       53.615        0.079        0.017       32.104        5.692        0.031      331.834        0.106      872.260
01/22/2022  23:39:00      -35.266        4.155       -9.813       15.904       16.121       11.713      252.929      259.876      137.189        0.100        0.032       35.510        6.539        0.034      331.860        0.147      872.266
01/22/2022  23:40:00      -69.430       16.317      -16.514       15.570       16.976       11.658      242.439      288.188      135.898        0.301        0.033       71.321        5.816        0.007      331.744       -0.043      872.259
01/22/2022  23:41:00      -61.106       -7.461      -10.319       26.027       25.971       14.721      677.398      674.510      216.700        0.273        0.078       61.560       10.913        0.031      331.579       -0.316      872.250
01/22/2022  23:42:00      -51.620        2.862      -11.846       38.333       30.172       25.534     1469.406      910.370      652.002        0.292        0.152       51.700       15.504        0.090      331.507       -0.433      872.245
01/22/2022  23:43:00      -68.066       24.094      -18.643       16.355       18.406       16.298      267.488      338.795      265.616        0.322        0.044       72.205        8.871        0.015      331.508       -0.432      872.247
01/22/2022  23:44:00      -31.959       11.721       -6.516       18.462       17.277        7.825      340.861      298.482       61.237        0.095        0.035       34.040        6.116        0.032      331.671       -0.162      872.248
01/22/2022  23:45:00       -5.894       -6.333       -8.103       14.438       16.943       13.214      208.459      287.072      174.599        0.041        0.034        8.652       10.760        1.547      331.641       -0.212      872.248
01/22/2022  23:46:00      -13.421      -36.766       -7.310       13.801       10.435        9.941      190.466      108.897       98.823        0.099        0.020       39.139        1.440        0.001      331.606       -0.270      872.250
01/22/2022  23:47:00      -22.628       -6.284      -16.196       18.139       10.745        8.703      329.018      115.462       75.736        0.067        0.026       23.485        3.706        0.025      331.757       -0.022      872.244
01/22/2022  23:48:00      -35.491        3.740       -7.562       14.815       13.873        9.097      219.482      192.471       82.762        0.091        0.025       35.688        3.857        0.012      331.709       -0.102      872.236
01/22/2022  23:49:00      -13.451       32.898       -6.860       21.651       12.644       12.464      468.761      159.868      155.348        0.105        0.039       35.541        6.624        0.035      331.862        0.152      872.238
01/22/2022  23:50:00       -9.541       20.304      -10.304       15.606       12.695        8.277      243.553      161.172       68.502        0.054        0.024       22.434        6.146        0.075      332.152        0.629      872.224
01/22/2022  23:51:00      -16.353       12.821      -13.591       14.908       13.608        8.653      222.240      185.179       74.871        0.055        0.024       20.780        3.738        0.032      332.043        0.449      872.214
01/22/2022  23:52:00      -32.852       14.834      -12.295       12.686       11.893        9.383      160.932      141.449       88.050        0.092        0.020       36.045        4.113        0.013      331.637       -0.219      872.193
01/22/2022  23:53:00      -20.174       -8.444      -11.365       11.256        9.344        9.040      126.702       87.301       81.722        0.045        0.015       21.870        6.544        0.090      331.584       -0.308      872.190
01/22/2022  23:54:00      -16.995       -5.524       -6.851       27.165       15.332       14.310      737.924      235.066      204.769        0.077        0.059       17.870       13.012        0.530      331.623       -0.242      872.170
01/22/2022  23:55:00      -56.732       12.475      -10.114       30.861       23.426       16.239      952.385      548.780      263.708        0.262        0.088       58.088       15.556        0.072      331.426       -0.567      872.155
01/22/2022  23:56:00      -60.442        5.039      -16.778       27.910       23.279       15.633      778.968      541.913      244.390        0.276        0.078       60.652        9.325        0.024      331.371       -0.657      872.143
01/22/2022  23:57:00      -61.821       -1.859      -15.681       24.696       21.241       15.085      609.908      451.183      227.561        0.268        0.064       61.849       11.205        0.033      331.377       -0.647      872.143
01/22/2022  23:58:00      -65.588       16.418      -20.518       30.156       18.869       20.102      909.388      356.039      404.105        0.333        0.083       67.612       10.335        0.023      331.353       -0.687      872.144
01/22/2022  23:59:00      -50.042       15.498      -14.851       29.201       27.309       19.510      852.676      745.778      380.624        0.247        0.099       52.387       13.574        0.067      331.317       -0.744      872.155
01/23/2022  00:00:00      -45.568      -10.608      -15.512       23.693       15.040       21.749      561.348      226.193      473.006        0.184        0.063       46.787       16.363        0.122      331.353       -0.686      872.160
01/23/2022  00:01:00      -22.708       23.286        2.447       40.617       19.335       18.339     1649.738      373.853      336.311        0.171        0.118       32.525       22.612        0.483      331.327       -0.729      872.159
01/23/2022  00:02:00      -21.868        4.718      -16.363       24.944       20.269       13.879      622.194      410.818      192.623        0.100        0.061       22.371       12.036        0.289      331.357       -0.683      872.155
01/23/2022  00:03:00      -32.361       14.402      -10.842       19.035       15.479       17.359      362.336      239.587      301.334        0.114        0.045       35.421       13.328        0.142      331.332       -0.721      872.142
01/23/2022  00:04:00       -6.396        3.285      -10.055       17.146       18.858       11.292      293.991      355.626      127.516        0.046        0.039        7.190       12.436        2.991      331.423       -0.572      872.140
01/23/2022  00:05:00      -10.880       28.542      -18.873       16.947       13.389       14.414      287.184      179.261      207.768        0.098        0.034       30.545        9.375        0.094      331.763       -0.014      872.143
01/23/2022  00:06:00      -38.123       22.404      -15.932       21.836       13.019        9.644      476.815      169.494       93.015        0.147        0.037       44.219        5.301        0.014      331.586       -0.304      872.138
01/23/2022  00:07:00      -47.252       24.018      -19.236       12.129       11.659        7.816      147.107      135.941       61.083        0.176        0.017       53.006        5.303        0.010      331.488       -0.463      872.115
01/23/2022  00:08:00      -63.123       27.587      -16.945       17.103       15.635       12.676      292.523      244.463      160.675        0.287        0.035       68.888        6.217        0.008      331.389       -0.628      872.107
01/23/2022  00:09:00      -59.012       31.966       -9.800       19.013       17.512       12.375      361.478      306.663      153.141        0.271        0.041       67.114        7.323        0.012      331.369       -0.661      872.094
01/23/2022  00:10:00      -38.392       11.371      -12.506       31.521       19.963       14.755      993.588      398.527      217.706        0.168        0.080       40.041       10.574        0.070      331.358       -0.678      872.102
01/23/2022  00:11:00      -55.008       16.993      -17.017       18.600       24.278       13.403      345.977      589.413      179.636        0.236        0.056       57.573       12.030        0.044      331.309       -0.757      872.108
01/23/2022  00:12:00      -12.346        3.639      -13.511       18.503       16.405       13.603      342.367      269.115      185.032        0.057        0.040       12.871        5.761        0.200      331.242       -0.867      872.114
01/23/2022  00:13:00       -6.189      -26.392      -12.292       14.484       19.581       11.227      209.795      383.416      126.049        0.080        0.036       27.108        8.530        0.099      331.530       -0.395      872.114
01/23/2022  00:14:00      -17.923      -17.965      -18.151       20.016       18.501       11.947      400.633      342.279      142.724        0.093        0.044       25.377       11.466        0.204      331.623       -0.243      872.109
01/23/2022  00:15:00      -25.551       -9.195       -6.806       31.883       19.865       21.347     1016.539      394.628      455.712        0.132        0.093       27.155       20.224        0.555      331.467       -0.499      872.094
01/23/2022  00:16:00      -20.178       -5.098       -1.618       24.084       21.363       19.077      580.057      456.380      363.943        0.092        0.070       20.812       16.168        0.604      331.359       -0.676      872.094
01/23/2022  00:17:00      -32.712      -19.429      -19.833       26.413       14.145       18.851      697.629      200.092      355.361        0.155        0.063       38.047       14.950        0.154      331.438       -0.548      872.102
01/23/2022  00:18:00      -24.706       12.295      -14.941       17.014       12.699       14.975      289.489      161.271      224.257        0.083        0.034       27.596        8.849        0.103      331.645       -0.206      872.106
01/23/2022  00:19:00       -7.957       -4.214      -19.549       14.380       10.264       12.354      206.773      105.354      152.631        0.046        0.023        9.004        5.764        0.410      332.029        0.427      872.107
01/23/2022  00:20:00       25.214       24.277       -6.318       12.539       14.027       16.274      157.237      196.743      264.843        0.094        0.031       35.002       11.182        0.102      332.129        0.591      872.117
01/23/2022  00:21:00       34.399       22.173       -4.744       20.591       21.324       10.485      423.973      454.718      109.934        0.134        0.049       40.926       10.334        0.064      332.089        0.523      872.107
01/23/2022  00:22:00       45.364       44.572       -7.863       19.774       16.990       11.183      391.008      288.668      125.052        0.246        0.040       63.596        7.096        0.012      332.110        0.560      872.105
01/23/2022  00:23:00       39.321      111.890       -7.393       26.125       39.288       21.263      682.531     1543.519      452.102        0.840        0.134      118.599       18.525        0.024      332.454        1.127      872.093
01/23/2022  00:24:00       67.086       69.978       -9.578       25.379       27.121       19.144      644.089      735.571      366.490        0.562        0.087       96.940       13.762        0.020      332.501        1.204      872.086
01/23/2022  00:25:00       59.155       58.298       -9.950       18.885       21.056       13.502      356.658      443.345      182.299        0.399        0.049       83.054       11.487        0.019      332.368        0.984      872.088
01/23/2022  00:26:00       38.348       62.888       -6.816       24.850       26.255       14.953      617.528      689.314      223.582        0.350        0.077       73.658       12.979        0.031      332.382        1.008      872.084
01/23/2022  00:27:00       18.727       74.463       -5.958       19.495       17.967       10.416      380.062      322.809      108.483        0.337        0.041       76.782        7.300        0.009      332.478        1.168      872.074
01/23/2022  00:28:00       14.565       73.645      -10.351       17.208       17.158       13.081      296.113      294.403      171.123        0.325        0.038       75.072        9.739        0.017      332.596        1.361      872.064
01/23/2022  00:29:00       -9.216        5.176      -10.019       21.481        9.946       13.173      461.430       98.918      173.540        0.047        0.037       10.570        8.785        0.691      332.070        0.493      872.055
01/23/2022  00:30:00      -13.270       -3.013       -9.832       12.185       15.440       14.048      148.476      238.386      197.351        0.043        0.029       13.607        3.214        0.056      331.738       -0.053      872.050
01/23/2022  00:31:00      -31.919        7.706      -12.136       17.359       16.402       15.148      301.324      269.010      229.470        0.101        0.040       32.836        7.643        0.054      331.845        0.125      872.047
01/23/2022  00:32:00      -41.198       18.654      -13.981       12.525       13.674       11.864      156.886      186.985      140.757        0.136        0.024       45.224        5.060        0.013      331.722       -0.081      872.031
01/23/2022  00:33:00      -44.409       19.789      -12.440       18.494       12.601        9.393      342.032      158.776       88.230        0.155        0.029       48.619        7.140        0.022      331.992        0.364      872.031
01/23/2022  00:34:00      -33.038       19.208      -12.478       16.520       11.627       11.358      272.916      135.196      129.007        0.108        0.027       38.216        7.572        0.039      332.133        0.598      872.014
01/23/2022  00:35:00        1.440       16.949      -13.241       17.526        9.380       11.528      307.168       87.977      132.890        0.050        0.026       17.010        5.076        0.089      332.307        0.884      872.004
01/23/2022  00:36:00       11.116       13.067       -2.154        7.541       15.044        6.798       56.862      226.323       46.209        0.031        0.016       17.156        3.604        0.044      332.368        0.984      871.993
01/23/2022  00:37:00       12.494       39.099       -4.501       16.620       17.445       10.734      276.216      304.315      115.208        0.120        0.035       41.047        8.324        0.041      332.540        1.269      871.982
01/23/2022  00:38:00       30.040       34.984       -7.309       15.664       11.127        7.783      245.349      123.805       60.570        0.130        0.021       46.112        7.611        0.027      332.558        1.299      871.977
01/23/2022  00:39:00       31.154       36.493      -22.123       16.085       15.752       11.713      258.714      248.138      137.188        0.172        0.032       47.982        7.441        0.024      332.643        1.439      871.978
01/23/2022  00:40:00      -35.678      -10.651       -9.052       13.644       14.780       12.122      186.172      218.450      146.931        0.101        0.028       37.234        7.815        0.044      332.179        0.674      871.980
01/23/2022  00:41:00      -61.457        3.366      -17.207       25.571       23.228       12.625      653.863      539.549      159.380        0.272        0.068       61.549       11.616        0.036      331.736       -0.056      871.987
01/23/2022  00:42:00      -77.493       32.037      -19.687       21.932       22.970       17.763      481.021      527.625      315.509        0.437        0.066       83.854        6.101        0.005      331.604       -0.275      871.989
01/23/2022  00:43:00      -76.983       21.275      -14.770       59.487       31.713       20.197     3538.746     1005.721      407.927        0.577        0.248       79.869       24.143        0.091      331.464       -0.505      871.999
01/23/2022  00:44:00     -140.219       27.485      -17.991       56.613       24.004       20.975     3204.996      576.182      439.939        1.248        0.211      142.887       21.252        0.022      331.370       -0.658      872.001
01/23/2022  00:45:00      -93.745       14.748      -16.160       58.071       32.629       32.954     3372.264     1064.632     1085.957        0.739        0.276       94.898       27.237        0.082      331.328       -0.728      872.014
01/23/2022  00:46:00      -22.441        1.177      -19.383       30.312       27.083       20.870      918.826      733.481      435.551        0.148        0.104       22.472       10.322        0.211      331.402       -0.606      872.022
01/23/2022  00:47:00      -90.680       12.207        3.966       53.267       30.517       26.280     2837.417      931.278      690.620        0.642        0.223       91.498       22.031        0.058      331.468       -0.498      872.022
01/23/2022  00:48:00      -86.340        2.933       -0.609       49.857       29.977       22.851     2485.715      898.611      522.181        0.568        0.195       86.390       21.830        0.064      331.475       -0.488      872.027
01/23/2022  00:49:00      -23.348        4.716       -4.590       39.525       22.916       20.640     1562.251      525.131      426.024        0.155        0.126       23.819        6.723        0.080      331.508       -0.433      872.021
01/23/2022  00:50:00      -95.645        0.953       -4.641       43.638       35.711       22.530     1904.242     1275.267      507.591        0.643        0.184       95.650       18.733        0.038      331.555       -0.353      872.009
01/23/2022  00:51:00      -80.509       -2.054      -17.357       35.751       26.972       28.373     1278.162      727.498      805.047        0.480        0.141       80.535       18.682        0.054      331.501       -0.444      872.006
01/23/2022  00:52:00      -53.917       -2.618       -1.031       30.057       30.348       21.317      903.408      920.971      454.415        0.260        0.114       53.980       19.790        0.134      331.430       -0.561      871.997
01/23/2022  00:53:00      -68.534       -3.540      -10.268       20.085       21.033       16.315      403.398      442.385      266.192        0.296        0.056       68.626       12.392        0.033      331.516       -0.418      871.990
01/23/2022  00:54:00     -100.360       -4.411      -18.599       15.542       16.824       11.354      241.562      283.045      128.919        0.555        0.033      100.457        7.247        0.005      331.514       -0.421      871.981
01/23/2022  00:55:00      -55.715       -9.029       -6.219       29.376       19.668       16.841      862.942      386.818      283.604        0.238        0.077       56.442       17.769        0.099      331.535       -0.387      871.987
01/23/2022  00:56:00      -55.412       13.446      -20.084       29.812       21.007       23.046      888.753      441.300      531.120        0.276        0.093       57.020       21.399        0.141      331.490       -0.461      871.984
01/23/2022  00:57:00      -63.482        7.528      -16.535       22.546       27.221       16.882      508.315      740.963      285.004        0.295        0.077       63.927       10.719        0.028      331.498       -0.450      871.991
01/23/2022  00:58:00      -46.245       -8.641      -10.987       22.153       25.036       14.310      490.749      626.802      204.775        0.183        0.066       47.045       11.662        0.061      331.485       -0.469      872.001
01/23/2022  00:59:00      -61.257       13.248      -15.445       23.079       18.835       19.210      532.643      354.758      369.039        0.271        0.063       62.673       15.576        0.062      331.506       -0.436      872.018
01/23/2022  01:00:00      -89.680       24.972      -16.830       21.113        9.236       13.559      445.744       85.304      183.850        0.483        0.036       93.092       10.453        0.013      331.473       -0.489      872.019
01/23/2022  01:01:00      -69.114        6.507      -17.163       25.547       15.858       14.579      652.660      251.466      212.560        0.311        0.056       69.420       14.947        0.046      331.567       -0.336      872.023
01/23/2022  01:02:00      -49.938       -1.203       -6.922       32.604       15.970       18.114     1063.047      255.048      328.133        0.209        0.082       49.952       19.779        0.157      331.677       -0.154      872.040
01/23/2022  01:03:00      -61.131      -31.808      -13.134       31.962       22.589       18.205     1021.549      510.242      331.422        0.339        0.093       68.911       16.878        0.060      331.752       -0.030      872.066
01/23/2022  01:04:00      -33.325      -14.821       -7.109       25.784       32.618       16.496      664.816     1063.928      272.129        0.169        0.100       36.472       10.483        0.083      331.796        0.042      872.085
01/23/2022  01:05:00      -22.483      -25.852      -13.556       25.822       26.395       18.207      666.779      696.705      331.506        0.153        0.085       34.261       12.991        0.144      331.832        0.102      872.090
01/23/2022  01:06:00      -11.282       -0.655       10.173       32.363       31.327       23.740     1047.378      981.406      563.568        0.141        0.130       11.301       18.558        2.697      331.711       -0.097      872.081
01/23/2022  01:07:00       -6.691      -24.728       -4.673       22.033       20.988       15.680      485.474      440.503      245.874        0.092        0.059       25.617        9.175        0.128      331.743       -0.044      872.080
01/23/2022  01:08:00      -15.210       -8.816      -13.394       17.421       17.071       14.029      303.503      291.405      196.819        0.064        0.040       17.580       12.273        0.487      331.618       -0.252      872.097
01/23/2022  01:09:00      -38.863        4.460       -8.634       35.167       25.100       18.426     1236.743      630.026      339.518        0.191        0.110       39.118       12.185        0.097      331.610       -0.264      872.110
01/23/2022  01:10:00      -66.480        0.764       -2.540       54.282       38.350       18.220     2946.544     1470.710      331.986        0.459        0.237       66.485       20.012        0.091      331.549       -0.365      872.123
01/23/2022  01:11:00      -55.451       -5.217        0.588       48.723       40.808       32.078     2373.929     1665.316     1028.972        0.408        0.253       55.696       29.316        0.277      331.504       -0.438      872.138
01/23/2022  01:12:00      -57.701      -16.396      -10.503       42.596       32.481       25.294     1814.399     1055.011      639.764        0.361        0.175       59.985       23.720        0.156      331.391       -0.624      872.158
01/23/2022  01:13:00      -47.727        0.806       -4.711       40.730       36.080       32.914     1658.951     1301.749     1083.335        0.317        0.202       47.734       28.098        0.346      331.439       -0.546      872.162
01/23/2022  01:14:00      -65.007       -5.094       -6.006       69.161       39.028       32.265     4783.243     1523.152     1041.009        0.582        0.367       65.207       35.210        0.292      331.401       -0.608      872.170
01/23/2022  01:15:00      -92.992       -1.726      -12.182       75.222       45.294       28.972     5658.334     2051.585      839.352        0.867        0.427       93.008       21.396        0.053      331.364       -0.669      872.172
01/23/2022  01:16:00      -58.035        2.835       -3.423       57.666       44.468       35.862     3325.335     1977.385     1286.117        0.499        0.329       58.104       32.293        0.309      331.316       -0.747      872.177
01/23/2022  01:17:00     -115.263       18.101       -5.746       71.627       37.980       23.668     5130.400     1442.496      560.151        1.039        0.357      116.675       25.678        0.048      331.332       -0.722      872.178
01/23/2022  01:18:00      -78.248       -4.121       -1.938       46.385       26.270       26.902     2151.614      690.124      723.709        0.485        0.178       78.356       26.070        0.111      331.355       -0.684      872.183
01/23/2022  01:19:00     -123.400       31.646       -1.083       40.184       28.644       24.332     1614.769      820.467      592.026        0.963        0.151      127.393       18.724        0.022      331.382       -0.639      872.179
01/23/2022  01:20:00     -107.411       14.863       -0.400       42.132       30.837       25.413     1775.118      950.934      645.802        0.756        0.169      108.434       25.750        0.056      331.302       -0.769      872.164
01/23/2022  01:21:00      -89.349      -15.992       -2.057       55.740       30.897       21.989     3106.992      954.629      483.523        0.639        0.227       90.769       18.412        0.041      331.401       -0.608      872.158
01/23/2022  01:22:00      -23.265       -0.017        2.045       44.334       34.690       24.740     1965.525     1203.401      612.087        0.216        0.189       23.265       24.903        1.146      331.381       -0.641      872.164
01/23/2022  01:23:00      -79.797       11.413        1.955       46.217       32.242       26.713     2135.967     1039.558      713.598        0.519        0.194       80.609       25.677        0.101      331.354       -0.685      872.164
01/23/2022  01:24:00      -30.109       -0.293        1.087       30.168       31.102       21.745      910.122      967.316      472.855        0.163        0.118       30.111       16.501        0.300      331.293       -0.785      872.174
01/23/2022  01:25:00      -28.083      -13.693       -1.959       28.900       25.994       17.574      835.187      675.681      308.829        0.140        0.091       31.243        9.424        0.091      331.407       -0.598      872.187
01/23/2022  01:26:00      -75.729       12.752       -6.168       58.292       25.349       19.470     3397.913      642.572      379.074        0.518        0.221       76.795       21.165        0.076      331.345       -0.700      872.202
01/23/2022  01:27:00      -93.884       20.600       -6.771       43.132       26.574       23.215     1860.328      706.168      538.918        0.619        0.155       96.117       17.075        0.032      331.427       -0.567      872.208
01/23/2022  01:28:00      -98.971        4.278       -8.126       55.505       22.651       29.651     3080.851      513.089      879.197        0.718        0.224       99.063       32.484        0.108      331.389       -0.628      872.211
01/23/2022  01:29:00      -94.083       19.894       -6.401       38.832       28.106       20.658     1507.934      789.959      426.753        0.601        0.136       96.164       17.957        0.035      331.308       -0.760      872.205
01/23/2022  01:30:00      -87.345       20.761        2.478       39.414       41.598       27.285     1553.452     1730.401      744.444        0.605        0.201       89.778       20.404        0.052      331.301       -0.771      872.202
01/23/2022  01:31:00     -120.507       32.097        0.654       55.686       37.375       27.079     3100.953     1396.856      733.263        1.039        0.262      124.708       28.397        0.052      331.375       -0.651      872.201
01/23/2022  01:32:00      -78.924       -2.154       -9.115       44.910       26.604       20.245     2016.916      707.773      409.868        0.473        0.157       78.953       15.763        0.040      331.335       -0.716      872.197
01/23/2022  01:33:00     -104.439       12.601       -5.610       37.313       30.609       16.890     1392.294      936.939      285.278        0.686        0.131      105.197       15.962        0.023      331.359       -0.677      872.212
01/23/2022  01:34:00     -114.708       18.415       -2.491       40.821       26.880       22.215     1666.376      722.552      493.520        0.819        0.144      116.177       20.707        0.032      331.320       -0.740      872.213
01/23/2022  01:35:00     -100.355        8.160       -2.362       43.301       28.914       18.782     1875.015      836.021      352.752        0.660        0.153      100.686       12.586        0.016      331.340       -0.708      872.218
01/23/2022  01:36:00      -81.125       14.641        8.762       45.180       34.720       19.615     2041.236     1205.490      384.739        0.525        0.182       82.436       20.923        0.064      331.293       -0.787      872.219
01/23/2022  01:37:00      -73.807       10.738       -4.913       28.166       23.729       17.426      793.351      563.054      303.673        0.362        0.083       74.584       12.794        0.029      331.262       -0.835      872.217
01/23/2022  01:38:00      -73.081       11.401       -4.540       24.792       19.768       17.082      614.658      390.764      291.785        0.339        0.065       73.965       14.822        0.040      331.384       -0.636      872.203
01/23/2022  01:39:00      -42.989       -9.206       -3.407       30.506       19.705       13.228      930.599      388.304      174.978        0.172        0.075       43.964       10.334        0.055      331.501       -0.445      872.184
01/23/2022  01:40:00      -44.390        1.866       -5.986       40.361       21.934       19.164     1628.980      481.105      367.258        0.224        0.124       44.429       13.629        0.094      331.604       -0.273      872.174
01/23/2022  01:41:00      -43.702       16.094       -2.564       37.801       21.739       13.350     1428.901      472.565      178.230        0.213        0.104       46.571       11.810        0.064      331.520       -0.414      872.173
01/23/2022  01:42:00      -70.685        8.188       -3.996       36.648       25.114       15.223     1343.064      630.703      231.726        0.364        0.110       71.157       14.168        0.040      331.524       -0.406      872.174
01/23/2022  01:43:00      -48.237       18.982       -0.319       28.941       21.878       12.730      837.564      478.659      162.063        0.208        0.074       51.838       10.273        0.039      331.535       -0.388      872.189
01/23/2022  01:44:00      -48.104       11.227       -0.618       23.692       18.399       14.926      561.293      338.538      222.789        0.178        0.056       49.396       14.056        0.081      331.595       -0.288      872.200
01/23/2022  01:45:00      -35.553        8.497       -2.183       25.006       17.441       11.519      625.307      304.179      132.680        0.120        0.053       36.554       10.003        0.075      331.601       -0.278      872.221
01/23/2022  01:46:00      -50.488       12.423       -3.198       17.661       16.701        7.794      311.895      278.912       60.752        0.168        0.033       51.993        7.086        0.019      331.692       -0.130      872.233
01/23/2022  01:47:00      -45.013       28.916       -3.665       19.009       16.885       11.474      361.342      285.090      131.655        0.183        0.039       53.501        6.849        0.016      331.687       -0.136      872.237
01/23/2022  01:48:00      -22.427       77.834       -4.815       14.732       26.370        6.634      217.042      695.376       44.007        0.377        0.048       81.001        2.860        0.001      331.524       -0.405      872.237
01/23/2022  01:49:00      -47.419       60.274      -10.276       15.798       14.531       10.770      249.576      211.158      115.983        0.328        0.029       76.691        9.435        0.015      331.431       -0.559      872.234
01/23/2022  01:50:00      -39.204       48.954       -1.482       23.053       18.336       13.308      531.452      336.206      177.092        0.249        0.052       62.717        5.722        0.008      331.359       -0.676      872.231
01/23/2022  01:51:00      -40.225       58.348       -4.868       30.298       24.807       14.901      917.957      615.408      222.050        0.340        0.088       70.870        7.934        0.013      331.278       -0.809      872.222
01/23/2022  01:52:00      -50.619       64.467      -12.058       22.942       19.368       12.027      526.342      375.110      144.657        0.395        0.052       81.965        7.442        0.008      331.261       -0.838      872.208
01/23/2022  01:53:00      -40.793       51.066       -6.805       22.825       19.185       14.854      520.965      368.074      220.635        0.271        0.055       65.359        8.646        0.017      331.207       -0.927      872.190
01/23/2022  01:54:00      -48.938       20.178      -17.431       25.175       14.931       12.671      633.775      222.947      160.562        0.206        0.051       52.935       10.984        0.043      331.236       -0.878      872.175
01/23/2022  01:55:00      -74.337       17.041      -20.350       30.617       26.555       21.679      937.378      705.170      469.965        0.417        0.106       76.265       21.153        0.077      331.191       -0.952      872.157
01/23/2022  01:56:00      -17.252       14.204       -9.312       37.398       21.541       16.640     1398.643      464.007      276.883        0.136        0.107       22.347        7.930        0.126      331.031       -1.215      872.149
01/23/2022  01:57:00      -43.130       -5.362      -13.778       32.667       24.649       21.805     1067.129      607.587      475.451        0.211        0.108       43.462       16.979        0.153      331.064       -1.162      872.151
01/23/2022  01:58:00      -29.620       27.214       -4.726       28.377       22.120       23.573      805.282      489.282      555.672        0.174        0.093       40.224       10.996        0.075      330.972       -1.313      872.159
01/23/2022  01:59:00      -20.542        2.277      -15.113       24.862       25.588       20.491      618.104      654.770      419.880        0.117        0.085       20.668       14.359        0.483      330.965       -1.327      872.172
01/23/2022  02:00:00      -45.551       13.879       -9.166       52.673       19.451       19.704     2774.476      378.340      388.237        0.295        0.177       47.619       19.063        0.160      330.881       -1.463      872.174
01/23/2022  02:01:00      -28.977        0.490      -14.906       24.649       21.072       16.397      607.558      444.013      268.848        0.119        0.066       28.981        9.937        0.118      330.871       -1.479      872.172
01/23/2022  02:02:00      -74.276       10.806      -16.300       34.732       23.938       13.836     1206.340      573.005      191.441        0.393        0.099       75.058       10.783        0.021      330.875       -1.472      872.164
01/23/2022  02:03:00      -35.635       -6.508      -11.380       26.470       21.814       19.097      700.637      475.855      364.713        0.149        0.077       36.225       13.789        0.145      330.911       -1.412      872.157
01/23/2022  02:04:00     -100.545       19.109       -9.090       28.592       15.345       14.227      817.482      235.463      202.399        0.591        0.063      102.344       15.451        0.023      330.974       -1.309      872.158
01/23/2022  02:05:00      -80.805        8.957      -15.494       14.318        9.519        9.924      204.994       90.615       98.482        0.362        0.020       81.300        5.018        0.004      330.992       -1.279      872.158
01/23/2022  02:06:00      -47.565        5.084      -15.229       12.088       10.664       13.103      146.112      113.711      171.679        0.148        0.022       47.836        3.710        0.006      331.010       -1.252      872.156
01/23/2022  02:07:00      -57.605        5.386      -16.879       16.591       14.086       14.449      275.272      198.423      208.761        0.216        0.034       57.856        6.192        0.011      331.096       -1.109      872.158
01/23/2022  02:08:00      -81.707       16.593      -18.721       14.766        9.514        9.340      218.036       90.523       87.236        0.385        0.020       83.375        7.908        0.009      331.011       -1.250      872.153
01/23/2022  02:09:00      -70.636       23.310       -9.356       23.721       16.895        9.996      562.674      285.451       99.923        0.328        0.047       74.383        8.182        0.012      330.932       -1.381      872.150
01/23/2022  02:10:00      -86.604       32.340      -11.872       15.817       15.007       12.364      250.180      225.222      152.864        0.466        0.031       92.445        8.155        0.008      330.847       -1.519      872.149
01/23/2022  02:11:00      -82.767       32.738      -15.709       23.195       12.673       14.038      538.000      160.606      197.066        0.453        0.045       89.006        4.171        0.002      330.850       -1.512      872.142
01/23/2022  02:12:00      -97.178       31.562      -21.552       10.241        9.870        8.240      104.874       97.409       67.906        0.559        0.014      102.175        5.091        0.002      330.945       -1.359      872.150
01/23/2022  02:13:00      -83.299       33.720      -18.381        8.874        7.896        9.311       78.756       62.355       86.698        0.432        0.011       89.865        5.520        0.004      330.907       -1.420      872.164
01/23/2022  02:14:00      -78.667       33.194      -21.623        8.574        7.690       10.144       73.512       59.128      102.908        0.400        0.012       85.383        1.515        0.000      330.847       -1.517      872.189
01/23/2022  02:15:00      -89.083       44.134      -17.872       14.717        9.344        7.883      216.602       87.304       62.137        0.528        0.018       99.416        5.391        0.003      330.804       -1.589      872.206
01/23/2022  02:16:00      -99.834       35.299      -18.847       18.974       11.408        7.783      360.012      130.139       60.575        0.606        0.028      105.891        5.826        0.003      330.748       -1.679      872.219
01/23/2022  02:17:00      -51.573        8.573      -20.273       24.196       21.149       15.609      585.452      447.281      243.651        0.221        0.064       52.280       10.998        0.044      330.797       -1.599      872.218
01/23/2022  02:18:00      -69.590       -2.137      -20.390       17.595       20.088       16.166      309.600      403.531      261.330        0.312        0.049       69.623        6.929        0.010      330.766       -1.651      872.203
01/23/2022  02:19:00      -84.530       19.115      -17.481       19.443       17.017       14.833      378.013      289.578      220.004        0.435        0.044       86.665       11.462        0.017      330.764       -1.653      872.199
01/23/2022  02:20:00      -75.800       17.518      -17.456       21.207       13.087       14.231      449.757      171.272      202.531        0.359        0.041       77.798        5.663        0.005      330.812       -1.576      872.189
01/23/2022  02:21:00      -75.794       26.006      -21.979       10.445        8.067        7.698      109.104       65.074       59.266        0.357        0.012       80.131        0.844        0.000      330.772       -1.642      872.178
01/23/2022  02:22:00      -80.768       30.652      -25.189        8.770       10.027        8.921       76.917      100.538       79.579        0.418        0.013       86.389        5.351        0.004      330.719       -1.729      872.172
01/23/2022  02:23:00      -63.822       17.508      -22.628        9.761       13.508        7.013       95.285      182.467       49.185        0.261        0.016       66.180        4.689        0.005      330.691       -1.774      872.165
01/23/2022  02:24:00      -34.789       -4.867       -8.451       20.089       20.440       12.805      403.553      417.802      163.957        0.115        0.049       35.128        4.290        0.015      330.787       -1.617      872.161
01/23/2022  02:25:00      -54.767        6.220      -18.430       24.006       24.149       19.748      576.267      583.161      389.969        0.246        0.077       55.119       15.148        0.076      330.773       -1.639      872.154
01/23/2022  02:26:00      -37.560       -1.674      -13.044       24.258       23.763       18.917      588.436      564.701      357.871        0.155        0.076       37.597       11.245        0.089      330.688       -1.778      872.148
01/23/2022  02:27:00      -65.695       -3.730      -14.905       30.552       19.988       22.603      933.431      399.534      510.913        0.320        0.092       65.801       20.175        0.094      330.705       -1.751      872.136
01/23/2022  02:28:00      -79.521        2.216      -28.824       23.522       17.652       19.895      553.284      311.589      395.804        0.421        0.063       79.552        7.723        0.009      330.639       -1.859      872.144
01/23/2022  02:29:00      -47.263       27.249      -12.724       45.594       24.146       26.196     2078.772      583.036      686.227        0.324        0.167       54.556       25.449        0.218      330.705       -1.751      872.160
01/23/2022  02:30:00      -66.226       22.939      -24.268       27.755       21.240       22.876      770.343      451.147      523.324        0.362        0.087       70.086       18.453        0.069      330.705       -1.750      872.172
01/23/2022  02:31:00      -53.218       14.990      -19.078       37.102       27.524       14.588     1376.560      757.591      212.822        0.288        0.117       55.289       14.151        0.066      330.696       -1.765      872.185
01/23/2022  02:32:00      -61.298       26.367      -17.645       18.016       16.786       14.546      324.582      281.771      211.585        0.279        0.041       66.729        9.393        0.020      330.694       -1.768      872.197
01/23/2022  02:33:00      -39.691       -0.188      -18.581       33.797       17.464       16.963     1142.259      304.995      287.747        0.183        0.087       39.691       10.500        0.070      330.793       -1.606      872.197
01/23/2022  02:34:00       -3.115       -0.511        0.085       23.017        9.506       12.589      529.782       90.373      158.486        0.039        0.039        3.156       12.402       15.438      330.793       -1.606      872.180
01/23/2022  02:35:00       -5.306       -0.053      -11.037       21.395       12.252       15.339      457.758      150.105      235.300        0.050        0.042        5.306        5.885        1.230      331.017       -1.238      872.162
01/23/2022  02:36:00      -16.975        8.922       -5.613       20.779       15.314       16.030      431.772      234.504      256.948        0.066        0.046       19.177        6.376        0.111      330.817       -1.567      872.145
01/23/2022  02:37:00      -64.211       19.667      -21.817       13.767       11.962       13.129      189.521      143.090      172.366        0.275        0.025       67.155        5.696        0.007      330.796       -1.602      872.139
01/23/2022  02:38:00      -58.559        8.181      -17.258       19.741       16.696       12.357      389.704      278.761      152.707        0.231        0.041       59.127        3.976        0.005      331.035       -1.209      872.122
01/23/2022  02:39:00      -32.713       15.408      -16.831       12.767       14.777       10.172      163.002      218.366      103.464        0.104        0.024       36.160        7.179        0.039      331.059       -1.171      872.115
01/23/2022  02:40:00        4.677       25.984       -2.650       20.372       12.322       11.200      415.010      151.833      125.445        0.070        0.035       26.401        9.969        0.143      331.531       -0.395      872.112
01/23/2022  02:41:00      -31.567        7.966      -14.889       11.961        8.250       11.714      143.060       68.070      137.220        0.081        0.017       32.556        6.970        0.046      331.081       -1.134      872.106
01/23/2022  02:42:00      -31.556      -16.953       -7.110       16.391       16.976       12.547      268.664      288.195      157.419        0.102        0.036       35.821       12.819        0.128      330.968       -1.320      872.105
01/23/2022  02:43:00      -23.820       -3.494       -4.335       10.917       15.899       10.708      119.181      252.790      114.658        0.054        0.024       24.075        4.790        0.040      330.949       -1.351      872.107
01/23/2022  02:44:00      -36.402        0.879       -9.655       16.134       18.251       10.526      260.292      333.081      110.793        0.106        0.035       36.412        9.188        0.064      330.947       -1.353      872.104
01/23/2022  02:45:00      -49.945       19.964      -16.307       13.294       12.228        9.452      176.738      149.514       89.348        0.179        0.021       53.787        6.459        0.014      330.986       -1.291      872.104
01/23/2022  02:46:00      -56.561       24.180      -12.966        7.840        7.566        6.905       61.465       57.240       47.685        0.206        0.008       61.513        1.475        0.001      330.997       -1.273      872.105
01/23/2022  02:47:00      -58.934       24.296      -12.396       14.406        7.738        7.451      207.546       59.884       55.520        0.227        0.016       63.745        5.802        0.008      331.007       -1.256      872.097
01/23/2022  02:48:00      -66.841       37.056       -8.329       25.872       14.644       15.085      669.347      214.446      227.559        0.351        0.056       76.426       15.094        0.039      330.799       -1.598      872.087
01/23/2022  02:49:00      -55.710       27.710       -8.630       23.729       18.549       10.092      563.044      344.051      101.847        0.248        0.050       62.221        5.516        0.008      330.777       -1.632      872.070
01/23/2022  02:50:00      -62.786       22.758      -14.403       10.187       13.047        9.532      103.771      170.212       90.853        0.252        0.018       66.784        6.251        0.009      330.823       -1.558      872.062
01/23/2022  02:51:00      -46.203        9.051       -6.057       31.806       12.625       14.192     1011.650      159.378      201.405        0.181        0.069       47.081       16.674        0.125      330.786       -1.618      872.049
01/23/2022  02:52:00       -4.553      -16.260       -7.846       14.068       14.015        9.547      197.919      196.408       91.149        0.042        0.024       16.886        3.825        0.051      330.910       -1.415      872.042
01/23/2022  02:53:00        0.791      -12.513       -2.659        8.226        9.261        7.665       67.673       85.763       58.747        0.019        0.011       12.538        6.591        0.276      331.095       -1.111      872.041
01/23/2022  02:54:00        8.542       -9.596       -3.172        9.418        8.655        9.091       88.690       74.910       82.639        0.021        0.012       12.847        5.020        0.153      331.068       -1.154      872.033
01/23/2022  02:55:00       12.440      -21.370       -9.042        7.299        7.300        6.773       53.282       53.285       45.876        0.042        0.008       24.727        3.983        0.026      331.075       -1.145      872.029
01/23/2022  02:56:00       22.770      -16.299      -11.263        6.923        7.531        7.897       47.922       56.712       62.366        0.054        0.008       28.002        6.176        0.049      330.979       -1.302      872.026
01/23/2022  02:57:00       24.470       -4.795       -5.561       10.000       11.473        8.546      100.001      131.620       73.037        0.048        0.015       24.935        5.455        0.048      330.919       -1.401      872.021
01/23/2022  02:58:00       22.045        3.076       -1.474       30.172       12.389       13.278      910.351      153.491      176.308        0.087        0.062       22.259       15.037        0.456      330.738       -1.697      872.021
01/23/2022  02:59:00       70.085        0.348       -7.818       22.874       22.998       15.762      523.203      528.928      248.432        0.314        0.065       70.086        6.301        0.008      330.666       -1.812      872.018
01/23/2022  03:00:00       39.870        2.233       -3.136       28.150       28.934       18.496      792.397      837.187      342.120        0.179        0.099       39.932       11.431        0.082      330.628       -1.880      872.026
01/23/2022  03:01:00       65.903        4.400       -3.719       34.290       16.309       17.904     1175.770      265.988      320.550        0.307        0.088       66.050       11.893        0.032      330.709       -1.745      872.036
01/23/2022  03:02:00       83.955       11.253       -5.130       19.758       12.599       13.798      390.388      158.726      190.389        0.397        0.037       84.705        7.622        0.008      330.732       -1.705      872.042
01/23/2022  03:03:00       81.515       33.957       -4.002       19.020       24.916       11.869      361.746      620.801      140.877        0.447        0.056       88.305        9.909        0.013      330.745       -1.685      872.040
01/23/2022  03:04:00       99.070       29.921      -14.541       35.566       31.010       23.878     1264.955      961.647      570.165        0.686        0.140      103.490       15.115        0.021      330.908       -1.418      872.039
01/23/2022  03:05:00       32.268       18.599        1.449       28.781       27.682       20.915      828.368      766.304      437.420        0.171        0.102       37.244        6.720        0.033      330.745       -1.684      872.034
01/23/2022  03:06:00       33.006       -4.410       -5.447       15.426       15.376       14.874      237.948      236.417      221.230        0.092        0.035       33.299        9.060        0.074      330.697       -1.763      872.015
01/23/2022  03:07:00       41.010        7.702       -3.168       15.382       10.175       11.342      236.592      103.530      128.630        0.111        0.023       41.727        6.871        0.027      330.663       -1.820      871.986
01/23/2022  03:08:00       41.995       -3.938       -4.823        9.974        9.110        7.509       99.487       82.991       56.391        0.102        0.012       42.179        2.711        0.004      330.764       -1.654      871.965
01/23/2022  03:09:00       21.167       -1.365       -4.921       17.133       11.529        9.633      293.543      132.928       92.799        0.050        0.026       21.211        7.816        0.136      330.797       -1.599      871.943
01/23/2022  03:10:00       40.891      -17.728       -7.778       20.959       12.674        8.013      439.264      160.628       64.212        0.136        0.033       44.569        8.025        0.032      330.805       -1.587      871.924
01/23/2022  03:11:00       42.085       12.687       -6.620        9.275       16.951        6.818       86.028      287.351       46.480        0.120        0.021       43.956        4.649        0.011      330.713       -1.737      871.923
01/23/2022  03:12:00       32.354       16.812       -5.600        7.563        6.915        4.662       57.198       47.820       21.730        0.074        0.006       36.461        3.478        0.009      330.635       -1.864      871.915
01/23/2022  03:13:00       37.787       10.774       -5.017        9.742       11.623        5.464       94.909      135.083       29.860        0.091        0.013       39.293        3.576        0.008      330.690       -1.774      871.917
01/23/2022  03:14:00       29.762        9.837       -5.172        8.516        7.585        6.489       72.530       57.535       42.109        0.059        0.009       31.345        4.443        0.020      330.698       -1.761      871.908
01/23/2022  03:15:00       40.109       18.972       -9.666        5.048        9.156        5.316       25.485       83.828       28.255        0.110        0.007       44.369        2.773        0.004      330.726       -1.714      871.902
01/23/2022  03:16:00       41.699       33.031      -11.683       10.078        8.143        5.528      101.573       66.314       30.555        0.158        0.010       53.196        3.460        0.004      330.725       -1.716      871.907
01/23/2022  03:17:00       50.985       26.375      -14.882       11.062       11.399        5.958      122.371      129.929       35.496        0.190        0.014       57.403        6.277        0.012      330.768       -1.646      871.913
01/23/2022  03:18:00       24.916       13.582      -11.996        6.712        5.156        4.544       45.050       26.584       20.645        0.052        0.005       28.377        2.401        0.007      330.793       -1.606      871.907
01/23/2022  03:19:00       10.604       12.982       -6.687        5.503        5.441        3.668       30.287       29.602       13.454        0.020        0.004       16.763        2.633        0.025      330.813       -1.574      871.903
01/23/2022  03:20:00        6.243       13.637       -1.350        7.914        4.285        4.760       62.636       18.362       22.660        0.017        0.005       14.998        2.877        0.037      330.808       -1.581      871.902
01/23/2022  03:21:00       29.673       -7.265      -11.504        7.088        9.042        9.660       50.240       81.765       93.317        0.065        0.011       30.550        5.773        0.036      330.825       -1.553      871.915
01/23/2022  03:22:00       35.399      -14.434      -10.814        8.778        8.840        9.972       77.057       78.146       99.432        0.092        0.013       38.229        7.343        0.037      330.775       -1.636      871.927
01/23/2022  03:23:00       29.247       -2.747       -8.675        9.978       11.161        6.655       99.553      124.561       44.288        0.060        0.013       29.376        4.778        0.026      330.792       -1.608      871.937
01/23/2022  03:24:00       32.628       14.453       -6.385        6.816        6.667        3.385       46.455       44.448       11.457        0.071        0.005       35.686        2.654        0.006      330.788       -1.614      871.936
01/23/2022  03:25:00       41.723       19.480       -9.074        5.342        4.294        3.531       28.538       18.435       12.467        0.113        0.003       46.047        1.905        0.002      330.825       -1.552      871.933
01/23/2022  03:26:00       51.341       12.535       -8.344        4.475        6.737        4.219       20.023       45.384       17.798        0.147        0.004       52.849        1.037        0.000      330.843       -1.526      871.934
01/23/2022  03:27:00       50.466       30.228       -8.154        3.967        5.954        4.231       15.738       35.453       17.902        0.180        0.003       58.826        2.740        0.002      330.823       -1.556      871.941
01/23/2022  03:28:00       52.460       44.512      -13.795        6.393        7.102        8.448       40.872       50.442       71.373        0.254        0.008       68.799        4.669        0.005      330.856       -1.502      871.940
01/23/2022  03:29:00       54.218       39.394      -15.081       14.335       12.917       15.373      205.481      166.844      236.328        0.266        0.030       67.019        8.331        0.015      330.936       -1.371      871.951
01/23/2022  03:30:00       45.147       10.483      -16.918       13.761       15.043        9.136      189.361      226.294       83.473        0.147        0.025       46.348        8.226        0.032      330.916       -1.407      871.954
01/23/2022  03:31:00       24.405        0.664       -7.440       10.972       11.687        7.514      120.394      136.593       56.454        0.048        0.016       24.414        3.116        0.016      330.900       -1.431      871.951
01/23/2022  03:32:00       31.119        3.938       -8.274        6.020        3.909        5.578       36.237       15.284       31.113        0.057        0.004       31.367        2.723        0.008      330.938       -1.370      871.954
01/23/2022  03:33:00       29.987        6.916      -10.546        4.881        5.420        5.003       23.825       29.376       25.028        0.057        0.004       30.774        1.475        0.002      330.922       -1.397      871.956
01/23/2022  03:34:00       15.219        1.708       -9.440       10.358       10.953        8.774      107.280      119.978       76.979        0.031        0.015       15.314        4.696        0.094      330.968       -1.320      871.961
01/23/2022  03:35:00       23.510        2.719       -7.737       12.141        7.431        8.117      147.402       55.213       65.880        0.044        0.013       23.667        7.673        0.105      330.991       -1.283      871.954
01/23/2022  03:36:00       12.840        4.591       -4.177       12.087        4.722        7.156      146.107       22.302       51.204        0.021        0.011       13.636        7.631        0.313      331.002       -1.264      871.965
01/23/2022  03:37:00        9.250        1.679       -5.751        9.119        5.499        5.182       83.164       30.234       26.849        0.013        0.007        9.401        5.191        0.305      331.049       -1.188      871.981
01/23/2022  03:38:00        3.905       -0.974       -3.460        4.377        4.107        4.376       19.157       16.868       19.146        0.004        0.003        4.024        2.682        0.444      330.984       -1.293      871.995
01/23/2022  03:39:00       12.869      -13.567       -7.804        8.537       12.069        6.696       72.878      145.661       44.839        0.034        0.013       18.700        2.870        0.024      331.106       -1.092      872.013
01/23/2022  03:40:00       -5.865      -14.926        5.556       12.356       15.535       10.721      152.675      241.333      114.943        0.040        0.025       16.038        6.115        0.145      331.090       -1.118      872.031
01/23/2022  03:41:00      -16.392      -27.465        2.696       16.982       20.121       14.170      288.392      404.866      200.779        0.096        0.045       31.985        5.547        0.030      331.176       -0.977      872.046
01/23/2022  03:42:00        1.038       -5.963       -4.712        8.422        8.078        7.434       70.933       65.251       55.267        0.013        0.010        6.053        5.946        0.965      331.015       -1.243      872.054
01/23/2022  03:43:00      -25.814       -7.186       -5.013       12.555       15.740       10.412      157.627      247.747      108.405        0.063        0.026       26.796        6.193        0.053      330.966       -1.322      872.056
01/23/2022  03:44:00      -23.448       -5.859       -9.221       10.781       10.474        9.145      116.221      109.696       83.629        0.049        0.015       24.169        4.989        0.043      330.871       -1.478      872.053
01/23/2022  03:45:00      -20.460       -2.335       -5.408        9.997       12.370        9.657       99.940      153.019       93.253        0.040        0.017       20.593        3.203        0.024      330.680       -1.791      872.049
01/23/2022  03:46:00      -47.781       18.297       -8.602       14.756       15.982       12.107      217.730      255.439      146.589        0.166        0.031       51.164        7.365        0.021      330.629       -1.875      872.048
01/23/2022  03:47:00      -57.571       22.329       -7.086       27.576       21.345       11.834      760.458      455.596      140.035        0.261        0.068       61.750       13.838        0.050      330.533       -2.032      872.048
01/23/2022  03:48:00      -68.581       26.373      -10.222       21.176       13.616       14.798      448.412      185.393      218.973        0.318        0.043       73.477        8.996        0.015      330.489       -2.106      872.044
01/23/2022  03:49:00      -82.517       31.625      -16.185       14.013        8.246       10.968      196.370       67.998      120.308        0.423        0.019       88.369        7.886        0.008      330.505       -2.080      872.037
01/23/2022  03:50:00      -76.412       24.303       -9.702       18.063       13.277       12.343      326.258      176.270      152.348        0.359        0.033       80.183       12.144        0.023      330.598       -1.926      872.042
01/23/2022  03:51:00      -60.479        9.349      -11.434       13.387       13.511       10.197      179.208      182.555      103.974        0.217        0.023       61.197        3.638        0.004      330.643       -1.852      872.041
01/23/2022  03:52:00      -77.271       23.089      -22.645        8.167        7.279        6.619       66.705       52.991       43.812        0.359        0.008       80.647        3.783        0.002      330.610       -1.906      872.053
01/23/2022  03:53:00      -68.092       16.646       -5.590       27.571       15.913       14.226      760.142      253.219      202.376        0.308        0.061       70.097        9.334        0.018      330.488       -2.108      872.049
01/23/2022  03:54:00     -100.060       26.543       -9.709       21.658       16.706       11.764      469.062      279.082      138.392        0.585        0.044      103.521       10.164        0.010      330.482       -2.117      872.059
01/23/2022  03:55:00      -66.820        4.082      -11.634       54.203       26.049       17.614     2937.916      678.525      310.268        0.427        0.196       66.944       23.499        0.123      330.479       -2.122      872.055
01/23/2022  03:56:00      -42.816       -2.323       -1.403       49.655       35.671       22.552     2465.612     1272.385      508.610        0.304        0.212       42.879       15.628        0.133      330.382       -2.280      872.053
01/23/2022  03:57:00      -92.899       15.693       -6.346       34.256       28.866       19.479     1173.445      833.255      379.441        0.565        0.119       94.215       13.075        0.019      330.415       -2.227      872.064
01/23/2022  03:58:00      -53.915        3.880       -1.236       42.742       32.019       18.529     1826.846     1025.193      343.327        0.306        0.160       54.054       15.885        0.086      330.371       -2.298      872.077
01/23/2022  03:59:00      -41.963        1.463        0.500       31.513       27.946       21.241      993.072      780.997      451.171        0.199        0.111       41.988       19.669        0.219      330.337       -2.355      872.095
01/23/2022  04:00:00      -66.500       12.208       -2.414       33.568       19.039       17.522     1126.781      362.480      307.026        0.319        0.090       67.612       18.978        0.079      330.494       -2.097      872.100
01/23/2022  04:01:00      -69.162      -12.426       -2.843       26.947       24.149       17.588      726.161      583.170      309.350        0.328        0.081       70.270       15.773        0.050      330.515       -2.063      872.098
01/23/2022  04:02:00      -58.445       21.589      -11.724       17.773       14.628       16.896      315.895      213.986      285.472        0.242        0.041       62.305       14.804        0.056      330.533       -2.034      872.094
01/23/2022  04:03:00      -87.479       25.409      -21.644       14.203        9.183       12.253      201.715       84.325      150.146        0.460        0.022       91.094        8.244        0.008      330.720       -1.725      872.083
01/23/2022  04:04:00     -110.541       25.470      -22.774       17.774       14.728       11.695      315.917      216.914      136.780        0.703        0.033      113.438        6.887        0.004      330.639       -1.859      872.068
01/23/2022  04:05:00      -97.361       29.902      -15.780       20.841       17.031       14.913      434.350      290.040      222.391        0.578        0.047      101.850       12.230        0.014      330.598       -1.928      872.061
01/23/2022  04:06:00      -80.171       39.907      -17.541        6.591        8.190        6.224       43.447       67.084       38.736        0.424        0.007       89.554        3.047        0.001      330.535       -2.033      872.067
01/23/2022  04:07:00      -48.205       11.753      -14.720       22.620       17.410       11.727      511.686      303.110      137.532        0.182        0.048       49.617        9.876        0.040      330.560       -1.988      872.074
01/23/2022  04:08:00      -29.599       -2.808       -8.069       16.039       22.826       10.345      257.238      521.026      107.012        0.092        0.044       29.731        4.080        0.019      330.433       -2.198      872.080
01/23/2022  04:09:00      -56.415       10.850       -8.708       24.147       19.666       11.178      583.058      386.742      124.955        0.224        0.055       57.449        9.089        0.025      330.483       -2.116      872.069
01/23/2022  04:10:00      -59.514       20.687       -9.449       16.738       14.929       12.560      280.156      222.867      157.745        0.236        0.033       63.007        9.630        0.023      330.498       -2.092      872.051
01/23/2022  04:11:00      -60.949       14.878       -7.874       14.922       16.278        9.120      222.667      264.982       83.176        0.228        0.029       62.739        7.011        0.012      330.536       -2.029      872.029
01/23/2022  04:12:00      -52.662       23.669      -14.761       12.768       12.916       13.450      163.017      166.812      180.913        0.203        0.026       57.737        7.943        0.019      330.605       -1.915      872.017
01/23/2022  04:13:00      -54.270       22.254      -15.422        7.021        4.984        6.462       49.292       24.839       41.763        0.190        0.006       58.655        3.113        0.003      330.610       -1.908      872.010
01/23/2022  04:14:00      -60.653       28.172      -14.643       10.164        7.375        7.996      103.300       54.393       63.938        0.245        0.011       66.876        3.330        0.002      330.563       -1.983      872.013
01/23/2022  04:15:00      -59.249       19.399      -19.316       24.029       19.817        7.974      577.381      392.712       63.582        0.265        0.052       62.344        4.534        0.005      330.564       -1.983      872.014
01/23/2022  04:16:00      -64.832       15.517      -13.143       32.186       20.761       16.589     1035.935      431.012      275.193        0.318        0.087       66.663        4.943        0.005      330.539       -2.024      872.013
01/23/2022  04:17:00      -86.911       23.640      -10.321       22.118       20.275       13.843      489.221      411.090      191.642        0.466        0.055       90.069        8.775        0.009      330.481       -2.119      872.008
01/23/2022  04:18:00      -65.776       30.927      -13.440       28.165       15.833       15.214      793.281      250.681      231.478        0.337        0.064       72.684       11.218        0.024      330.486       -2.109      871.994
01/23/2022  04:19:00      -74.896       30.295      -17.421       10.251       13.182        8.338      105.086      173.763       69.524        0.359        0.017       80.791        3.722        0.002      330.478       -2.123      871.979
01/23/2022  04:20:00      -74.897       38.147      -19.278       11.755       13.482       10.165      138.185      181.758      103.319        0.393        0.021       84.052        3.576        0.002      330.593       -1.936      871.953
01/23/2022  04:21:00      -78.320       23.640      -28.063       21.020       23.813       20.010      441.821      567.042      400.420        0.444        0.070       81.810       17.517        0.046      330.495       -2.096      871.933
01/23/2022  04:22:00      -63.198        1.165      -21.474       25.862       19.641       17.730      668.850      385.749      314.338        0.291        0.068       63.209       10.994        0.030      330.393       -2.262      871.915
01/23/2022  04:23:00      -42.402        9.842       -7.372       55.537       21.152       21.833     3084.367      447.418      476.695        0.298        0.200       43.529       27.273        0.393      330.294       -2.424      871.906
01/23/2022  04:24:00     -102.660       15.768      -14.551       39.129       24.733       25.173     1531.048      611.739      633.677        0.689        0.139      103.864       19.169        0.034      330.218       -2.550      871.900
01/23/2022  04:25:00      -83.643       12.050      -19.712       38.443       35.633       21.682     1477.840     1269.737      470.111        0.537        0.161       84.506       16.205        0.037      330.254       -2.489      871.892
01/23/2022  04:26:00      -76.571       35.076      -16.613       53.930       29.313       21.071     2908.421      859.256      443.975        0.579        0.211       84.222       19.388        0.053      330.249       -2.499      871.888
01/23/2022  04:27:00      -50.877       19.415      -15.884       55.560       24.874       20.256     3086.860      618.724      410.298        0.367        0.206       54.456       26.055        0.229      330.298       -2.418      871.883
01/23/2022  04:28:00      -32.090       22.326      -14.568       29.364       23.858       18.906      862.263      569.199      357.426        0.176        0.089       39.092       10.794        0.076      330.274       -2.458      871.878
01/23/2022  04:29:00       -6.299       -8.463      -16.291       22.463       28.712       19.737      504.595      824.403      389.559        0.105        0.086       10.550       12.510        1.406      330.234       -2.523      871.873
01/23/2022  04:30:00       22.008        1.005      -18.001       15.455       15.699       16.252      238.849      246.448      264.120        0.078        0.037       22.031        8.326        0.143      330.213       -2.558      871.873
01/23/2022  04:31:00      -17.546      -14.233      -17.126       31.210       18.949       18.689      974.088      359.074      349.288        0.124        0.084       22.593       11.503        0.259      330.196       -2.587      871.883
01/23/2022  04:32:00      -22.257      -16.217      -14.634       28.821       29.847       19.579      830.631      890.847      383.320        0.154        0.105       27.539       11.708        0.181      330.237       -2.517      871.896
01/23/2022  04:33:00      -61.989       23.108       -9.604       24.583       26.453       19.996      604.311      699.784      399.854        0.309        0.085       66.156       15.694        0.056      330.164       -2.638      871.915
01/23/2022  04:34:00      -66.127       30.140      -13.408       13.945       15.438        9.831      194.466      238.325       96.649        0.300        0.026       72.672        6.667        0.008      330.179       -2.616      871.936
01/23/2022  04:35:00      -60.597       38.897      -13.148       20.496       17.975       13.317      420.085      323.102      177.339        0.314        0.046       72.007        7.765        0.012      330.195       -2.588      871.948
01/23/2022  04:36:00      -68.980       42.347      -14.034       10.435       11.487       10.537      108.894      131.951      111.026        0.355        0.018       80.942        5.876        0.005      330.201       -2.579      871.953
01/23/2022  04:37:00      -80.104       43.149      -11.804       16.007       17.455       11.764      256.214      304.694      138.401        0.456        0.035       90.986        9.371        0.011      330.264       -2.475      871.953
01/23/2022  04:38:00      -70.973       42.193      -13.017       19.356       14.676       10.814      374.651      215.399      116.939        0.385        0.035       82.568        9.860        0.014      330.278       -2.451      871.956
01/23/2022  04:39:00      -39.813       33.789       -9.142       19.411       10.530        8.362      376.782      110.885       69.916        0.168        0.028       52.218        3.115        0.004      330.297       -2.421      871.954
01/23/2022  04:40:00       -2.754       37.920       -1.137        9.790        9.226        4.035       95.843       85.119       16.283        0.082        0.010       38.020        2.824        0.006      330.774       -1.638      871.955
01/23/2022  04:41:00       27.527       43.546       -5.415       10.174       11.793        6.853      103.504      139.082       46.959        0.149        0.014       51.517        6.227        0.015      330.967       -1.321      871.958
01/23/2022  04:42:00       32.123       72.036       -7.647       13.569       15.151        8.526      184.116      229.567       72.697        0.338        0.024       78.873        7.043        0.008      330.943       -1.362      871.963
01/23/2022  04:43:00       19.210      101.116       -4.600       18.723       26.515       18.844      350.568      703.044      355.105        0.601        0.070      102.924       17.111        0.028      331.058       -1.170      871.963
01/23/2022  04:44:00       -4.700       92.144       -6.975       25.972       22.853       19.031      674.558      522.260      362.184        0.506        0.078       92.263       12.263        0.018      330.726       -1.718      871.962
01/23/2022  04:45:00      -21.536       30.322       -8.835       14.996       26.377       13.215      224.867      695.742      174.633        0.128        0.055       37.191        9.319        0.063      330.316       -2.389      871.943
01/23/2022  04:46:00      -33.855       15.391      -13.534       14.191       16.565       13.946      201.380      274.413      194.500        0.112        0.034       37.189        6.217        0.028      330.124       -2.706      871.925
01/23/2022  04:47:00      -26.805       -4.200      -23.609       14.386       14.233       13.944      206.965      202.565      194.443        0.095        0.030       27.132        8.280        0.093      330.057       -2.815      871.919
01/23/2022  04:48:00      -15.114       26.840      -17.693       23.658       23.124       18.767      559.697      534.723      352.187        0.135        0.072       30.803        6.174        0.040      330.564       -1.982      871.928
01/23/2022  04:49:00      -10.183       13.079      -18.433       21.958       19.324       14.412      482.166      373.436      207.709        0.084        0.053       16.576        5.308        0.103      330.599       -1.925      871.934
01/23/2022  04:50:00      -19.937      -36.602      -18.195       18.633       15.002       11.980      347.196      225.045      143.510        0.139        0.036       41.680        2.555        0.004      330.278       -2.452      871.941
01/23/2022  04:51:00      -33.236      -53.786      -19.303       19.370       11.473       10.102      375.194      131.634      102.046        0.249        0.030       63.226        8.231        0.017      330.207       -2.569      871.962
01/23/2022  04:52:00      -44.768      -24.211      -16.008       19.240       15.708       16.357      370.188      246.745      267.546        0.187        0.044       50.896        9.640        0.036      330.293       -2.427      871.992
01/23/2022  04:53:00       33.012      -60.572      -25.138       37.235       32.264       18.857     1386.408     1040.962      355.588        0.409        0.139       68.984       21.124        0.094      330.596       -1.929      872.013
01/23/2022  04:54:00      -44.842        3.775       -6.869       19.493       19.848       13.386      379.983      393.931      179.184        0.151        0.048       45.001        7.215        0.026      330.560       -1.990      872.023
01/23/2022  04:55:00      -30.064       14.182       -4.075       25.659       27.996       13.113      658.408      783.768      171.947        0.137        0.081       33.241       10.601        0.102      330.413       -2.232      872.008
01/23/2022  04:56:00      -59.486       40.784       -5.481       24.083       17.388       13.798      580.009      302.347      190.387        0.315        0.054       72.124        8.044        0.012      330.248       -2.500      871.988
01/23/2022  04:57:00      -82.173       51.170      -14.777       16.873       14.849        9.574      284.683      220.499       91.670        0.509        0.030       96.803        6.398        0.004      330.248       -2.501      871.982
01/23/2022  04:58:00      -86.706       41.695      -22.414       11.299        9.330        9.085      127.662       87.049       82.542        0.503        0.015       96.210        4.395        0.002      330.241       -2.513      871.994
01/23/2022  04:59:00      -59.869       18.750      -23.038       35.189       22.505       12.339     1238.288      506.491      152.242        0.318        0.095       62.736       13.124        0.044      330.160       -2.645      872.007
01/23/2022  05:00:00      -54.918       17.263      -17.454       22.570       19.773       21.809      509.407      390.991      475.611        0.250        0.069       57.567        7.333        0.016      330.286       -2.439      872.027
01/23/2022  05:01:00      -25.168       -1.721      -14.867       16.340       14.189       17.128      266.980      201.339      293.358        0.081        0.038       25.226        8.333        0.109      330.341       -2.348      872.040
01/23/2022  05:02:00      -41.544      -11.148      -13.803       18.257       11.116       15.281      333.314      123.560      233.500        0.137        0.035       43.013       13.099        0.093      330.151       -2.661      872.052
01/23/2022  05:03:00      -33.606        5.896       -9.215       19.958       20.419       17.036      398.339      416.920      290.212        0.118        0.055       34.119       14.741        0.187      330.116       -2.717      872.055
01/23/2022  05:04:00      -41.903       -6.714      -13.905       20.802       17.151       15.121      432.718      294.173      228.640        0.147        0.048       42.438       11.116        0.069      330.154       -2.655      872.065
01/23/2022  05:05:00      -61.914        7.369      -19.130       14.239       18.771       13.262      202.737      352.361      175.885        0.249        0.037       62.351        4.513        0.005      330.080       -2.777      872.073
01/23/2022  05:06:00      -94.932       32.336      -17.153       17.139       15.022       12.753      293.735      225.646      162.648        0.552        0.034      100.288        4.612        0.002      330.223       -2.543      872.074
01/23/2022  05:07:00      -86.773       23.599      -16.815       14.014       12.118       14.723      196.404      146.851      216.780        0.446        0.028       89.924        9.829        0.012      330.207       -2.568      872.071
01/23/2022  05:08:00      -68.499       44.199      -11.688       23.760       18.099        9.303      564.549      327.592       86.540        0.388        0.049       81.521        7.713        0.009      330.178       -2.615      872.069
01/23/2022  05:09:00      -70.713       47.386      -10.616       18.658       14.044       16.103      348.109      197.225      259.317        0.408        0.040       85.122       13.488        0.025      330.242       -2.510      872.076
01/23/2022  05:10:00      -36.293       42.425       -4.043       14.856       10.662        9.137      220.692      113.683       83.493        0.178        0.021       55.831        7.255        0.017      330.375       -2.293      872.089
01/23/2022  05:11:00       -5.028       38.037       -8.933       15.691        9.131        7.035      246.208       83.380       49.497        0.097        0.019       38.368        3.310        0.007      330.737       -1.700      872.094
01/23/2022  05:12:00       37.817       48.780       -2.634       15.290       16.485       12.262      233.795      271.742      150.363        0.224        0.033       61.722       11.390        0.034      331.069       -1.155      872.087
01/23/2022  05:13:00       41.710       25.312       -1.063       15.084       10.240        6.565      227.519      104.851       43.096        0.138        0.019       48.790        3.720        0.006      331.008       -1.253      872.089
01/23/2022  05:14:00       41.533       24.665       -2.268       16.637       12.065       11.132      276.776      145.555      123.912        0.144        0.027       48.305        7.860        0.026      330.894       -1.441      872.083
01/23/2022  05:15:00       35.663       18.581       -2.270       11.922       11.072        8.221      142.140      122.597       67.583        0.098        0.017       40.213        6.735        0.028      330.860       -1.497      872.076
01/23/2022  05:16:00       45.512       15.306       -2.574       10.330        9.721        6.992      106.717       94.493       48.893        0.128        0.013       48.017        5.020        0.011      330.829       -1.548      872.083
01/23/2022  05:17:00       33.652       12.167       -7.393        6.766        7.052        6.463       45.785       49.731       41.774        0.074        0.007       35.784        3.285        0.008      330.790       -1.612      872.087
01/23/2022  05:18:00       16.707       15.092       -5.290       11.269       10.433        4.462      126.990      108.852       19.913        0.040        0.013       22.514        3.401        0.023      330.919       -1.400      872.084
01/23/2022  05:19:00      -15.082        1.709       -7.908        8.977        5.317        6.891       80.587       28.274       47.486        0.022        0.008       15.179        2.512        0.027      330.820       -1.562      872.065
01/23/2022  05:20:00      -22.985       -4.771       -9.752       10.855       11.116        9.665      117.834      123.562       93.417        0.049        0.017       23.475        4.961        0.045      330.682       -1.789      872.048
01/23/2022  05:21:00      -26.222        1.543      -13.436       12.414       11.100        8.848      154.105      123.219       78.290        0.061        0.018       26.267        5.793        0.049      330.554       -1.998      872.023
01/23/2022  05:22:00      -37.683        3.974       -3.721       23.687       14.465        9.548      561.068      209.240       91.160        0.116        0.043       37.892        9.854        0.068      330.491       -2.102      872.008
01/23/2022  05:23:00       -3.608       -3.581       -6.344       11.547        8.102        8.825      133.323       65.643       77.876        0.017        0.014        5.083        7.621        2.248      330.832       -1.542      872.023
01/23/2022  05:24:00       -0.878      -16.287       -6.275        9.640       20.857       10.091       92.939      435.035      101.826        0.047        0.031       16.311        4.663        0.082      330.812       -1.575      872.040
01/23/2022  05:25:00      -32.403       -4.932       -6.824       12.624        9.397        9.944      159.362       88.302       98.881        0.073        0.017       32.776        4.908        0.022      330.649       -1.843      872.049
01/23/2022  05:26:00      -38.811       11.926       -8.575        8.730       12.932        7.682       76.219      167.239       59.011        0.101        0.015       40.602        6.086        0.022      330.506       -2.077      872.050
01/23/2022  05:27:00      -37.225       -4.698       -9.247       15.694       15.721       10.649      246.308      247.165      113.409        0.105        0.030       37.520        3.978        0.011      330.501       -2.086      872.039
01/23/2022  05:28:00      -12.547       -2.699        1.102       12.183       14.448        9.640      148.428      208.740       92.920        0.031        0.023       12.834        8.130        0.401      330.462       -2.150      872.030
01/23/2022  05:29:00      -48.403       -4.503       -3.112       34.866       22.198       15.899     1215.620      492.763      252.786        0.217        0.098       48.612       11.051        0.052      330.271       -2.464      872.032
01/23/2022  05:30:00      -51.702      -14.040        2.848       31.745       25.400       25.063     1007.757      645.167      628.136        0.258        0.114       53.575       20.428        0.145      330.371       -2.301      872.045
01/23/2022  05:31:00     -105.869      -10.190      -13.903       43.601       38.539       24.482     1901.012     1485.269      599.369        0.774        0.199      106.358       17.180        0.026      330.390       -2.269      872.062
01/23/2022  05:32:00     -107.891        3.455      -12.864       28.602       24.939       18.550      818.077      621.954      344.103        0.680        0.089      107.946       17.447        0.026      330.405       -2.243      872.068
01/23/2022  05:33:00      -46.591       -3.535       -2.944       39.112       21.881       20.023     1529.762      478.787      400.925        0.230        0.120       46.725       17.475        0.140      330.364       -2.311      872.071
01/23/2022  05:34:00      -34.161       -8.853        0.134       21.675       19.491       18.180      469.807      379.896      330.499        0.121        0.059       35.289       10.178        0.083      330.367       -2.306      872.070
01/23/2022  05:35:00      -80.952       -7.750       -6.759       37.232       22.256       18.790     1386.246      495.322      353.082        0.445        0.112       81.322       18.879        0.054      330.313       -2.394      872.066
01/23/2022  05:36:00      -54.316       -1.413       -7.841       37.205       24.662       18.654     1384.205      608.221      347.974        0.268        0.117       54.335       15.351        0.080      330.235       -2.523      872.075
01/23/2022  05:37:00     -105.929       13.735       -5.235       31.407       23.667       20.401      986.404      560.131      416.217        0.670        0.098      106.816       17.364        0.026      330.187       -2.601      872.090
01/23/2022  05:38:00      -32.673       -4.465       -1.816       22.251       16.561       14.156      495.118      274.274      200.400        0.103        0.048       32.976       10.897        0.109      330.280       -2.448      872.133
01/23/2022  05:39:00      -35.867       -8.219      -14.857       21.353       17.567       15.849      455.968      308.587      251.180        0.130        0.051       36.797       12.121        0.109      330.281       -2.446      872.185
01/23/2022  05:40:00      -54.543       16.538      -10.994       25.965       18.416       14.306      674.200      339.142      204.675        0.229        0.061       56.995       10.721        0.035      330.209       -2.564      872.214
01/23/2022  05:41:00      -62.208       13.347       -9.113       23.480       24.886       12.070      551.306      619.317      145.678        0.272        0.066       63.624        4.602        0.005      330.224       -2.541      872.216
01/23/2022  05:42:00      -63.099        9.829       -2.028       29.188       21.266       14.777      851.918      452.262      218.351        0.280        0.076       63.860        9.882        0.024      330.228       -2.533      872.219
01/23/2022  05:43:00      -66.406       -1.349       -7.316       37.311       20.815       19.180     1392.112      433.246      367.878        0.333        0.110       66.420       11.687        0.031      330.227       -2.535      872.223
01/23/2022  05:44:00      -80.623        1.461       -7.079       45.038       21.294       20.325     2028.391      453.416      413.092        0.472        0.145       80.636       19.129        0.056      330.194       -2.589      872.245
01/23/2022  05:45:00      -20.944        3.999       -2.476       40.529       14.783       20.535     1642.627      218.538      421.693        0.137        0.114       21.322       23.086        1.172      330.240       -2.512      872.277
01/23/2022  05:46:00      -11.816        1.826       -5.073       17.971       23.505       17.477      322.958      552.484      305.446        0.067        0.059       11.956       14.521        1.475      330.198       -2.582      872.327
01/23/2022  05:47:00      -36.727        7.275       -5.762       28.342       17.877       13.233      803.281      319.574      175.111        0.137        0.065       37.440       11.072        0.087      330.245       -2.505      872.346
01/23/2022  05:48:00      -55.761       -4.588      -11.663       28.359       28.360       18.080      804.253      804.281      326.878        0.260        0.097       55.949       12.691        0.051      330.205       -2.572      872.354
01/23/2022  05:49:00      -84.941        8.544       -1.824       63.429       22.262       24.526     4023.249      495.594      601.526        0.620        0.256       85.370       26.007        0.093      330.176       -2.619      872.359
01/23/2022  05:50:00      -31.121        6.956       -3.554       44.721       24.311       24.378     2000.010      591.014      594.289        0.211        0.159       31.889       23.394        0.538      330.132       -2.691      872.357
01/23/2022  05:51:00      -39.524      -14.049      -13.334       34.099       28.272       17.788     1162.746      799.321      316.425        0.211        0.114       41.947       12.941        0.095      330.159       -2.647      872.355
01/23/2022  05:52:00      -14.831       19.926       -2.357       26.712       26.953       19.612      713.505      726.486      384.622        0.122        0.091       24.840       15.587        0.394      330.187       -2.601      872.362
01/23/2022  05:53:00      -48.807        6.696       -4.466       30.910       25.537       17.381      955.416      652.147      302.103        0.218        0.095       49.264        9.628        0.038      330.209       -2.565      872.365
01/23/2022  05:54:00      -42.924        4.229       -1.530       39.135       25.564       17.193     1531.560      653.507      295.593        0.217        0.124       43.132       14.709        0.116      330.159       -2.646      872.345
01/23/2022  05:55:00      -35.594        5.970       -4.528       27.722       24.846       18.809      768.503      617.306      353.782        0.153        0.087       36.091       14.036        0.151      330.090       -2.761      872.302
01/23/2022  05:56:00      -35.102        7.632        3.743       38.615       20.129       25.059     1491.095      405.180      627.931        0.191        0.126       35.922       21.669        0.364      330.118       -2.715      872.284
01/23/2022  05:57:00      -62.319        5.645      -11.505       32.972       18.155       14.270     1087.144      329.588      203.635        0.283        0.081       62.574        8.515        0.019      330.266       -2.469      872.293
01/23/2022  05:58:00      -71.411       24.651      -14.394       20.230       14.711       13.771      409.233      216.426      189.631        0.336        0.041       75.546       11.833        0.025      330.178       -2.616      872.323
01/23/2022  05:59:00      -93.133       39.826      -12.317       21.594       16.909       15.106      466.296      285.899      228.206        0.570        0.049      101.291        8.848        0.008      330.131       -2.693      872.349
01/23/2022  06:00:00     -110.596       29.304       -8.000       40.264       28.812       15.578     1621.197      830.148      242.685        0.792        0.135      114.412       14.147        0.015      330.157       -2.650      872.372
01/23/2022  06:01:00     -141.551       31.206       -9.780       38.846       29.623       24.065     1509.005      877.523      579.108        1.204        0.148      144.950       22.114        0.023      330.117       -2.717      872.377
01/23/2022  06:02:00     -102.771       13.967        2.378       52.485       35.646       28.142     2754.726     1270.651      791.947        0.779        0.241      103.716       29.970        0.083      330.090       -2.760      872.370
01/23/2022  06:03:00     -113.202       24.748        5.652       54.259       36.735       32.408     2944.036     1349.448     1050.285        0.940        0.267      115.876       31.172        0.072      330.041       -2.840      872.349
01/23/2022  06:04:00      -58.610       26.276       -7.381       56.567       31.981       19.290     3199.835     1022.761      372.112        0.439        0.230       64.231       21.317        0.110      330.044       -2.835      872.339
01/23/2022  06:05:00      -68.873       27.686      -15.103       38.287       27.827       17.137     1465.886      774.322      293.675        0.414        0.127       74.229       11.589        0.024      330.027       -2.864      872.343
01/23/2022  06:06:00      -91.010       39.913      -10.654       24.833       19.233       14.506      616.656      369.908      210.428        0.559        0.060       99.377        9.672        0.009      330.021       -2.872      872.360
01/23/2022  06:07:00     -112.136       55.920       -7.726       17.608       19.929       12.395      310.049      397.173      153.629        0.831        0.043      125.305        7.516        0.004      330.013       -2.884      872.388
01/23/2022  06:08:00     -117.968       50.868      -11.146       33.425       24.873       16.667     1117.199      618.673      277.777        0.932        0.101      128.468       10.020        0.006      329.976       -2.946      872.408
01/23/2022  06:09:00     -106.565       40.569      -15.110       28.203       16.180       19.447      795.384      261.794      378.190        0.733        0.072      114.026       12.096        0.011      330.042       -2.837      872.416
01/23/2022  06:10:00      -74.615       10.683      -16.830       25.699       19.416       19.620      660.415      376.998      384.932        0.369        0.071       75.376        4.968        0.004      330.044       -2.836      872.420
01/23/2022  06:11:00      -82.816       19.831      -20.234       31.606       24.220       18.861      998.917      586.597      355.736        0.480        0.097       85.157       18.984        0.050      330.045       -2.833      872.418
01/23/2022  06:12:00      -55.832       14.278      -11.806       23.920       26.920       20.523      572.145      724.685      421.190        0.259        0.086       57.628       13.328        0.053      330.124       -2.705      872.416
01/23/2022  06:13:00      -49.117       -7.933       -6.096       26.331       32.888       18.607      693.325     1081.597      346.237        0.232        0.106       49.753       14.082        0.080      330.122       -2.708      872.412
01/23/2022  06:14:00      -88.196       17.684      -17.328       22.805       28.702       14.103      520.070      823.822      198.908        0.497        0.077       89.952        9.377        0.011      330.189       -2.596      872.425
01/23/2022  06:15:00      -78.279       27.737      -17.891       17.257       20.479       16.280      297.804      419.401      265.033        0.410        0.049       83.047       12.524        0.023      330.160       -2.646      872.455
01/23/2022  06:16:00      -88.931       28.351      -14.730       21.641       21.603       13.978      468.333      466.692      195.389        0.503        0.057       93.340        6.725        0.005      330.186       -2.602      872.483
01/23/2022  06:17:00      -94.696        9.044      -15.916       30.016       20.022       13.703      900.936      400.861      187.768        0.540        0.074       95.127       15.047        0.025      330.171       -2.628      872.497
01/23/2022  06:18:00      -40.633        6.727       -2.001       24.977       32.369       21.263      623.870     1047.764      452.127        0.191        0.106       41.186       14.775        0.129      330.214       -2.558      872.498
01/23/2022  06:19:00      -64.232        7.934       -1.416       39.791       30.402       23.783     1583.309      924.284      565.641        0.363        0.154       64.720       20.158        0.097      330.253       -2.491      872.486
01/23/2022  06:20:00      -23.210       -8.221        2.505       22.639       16.743       17.066      512.531      280.320      291.245        0.085        0.054       24.623       10.292        0.175      330.327       -2.370      872.480
01/23/2022  06:21:00       -9.901        3.785       -3.120       18.655       16.128       14.233      348.002      260.097      202.565        0.047        0.041       10.600       10.750        1.028      330.273       -2.459      872.496
01/23/2022  06:22:00       -2.432       -8.876       -7.894       12.948       16.538       11.558      167.653      273.517      133.577        0.036        0.029        9.203        8.241        0.802      330.359       -2.318      872.518
01/23/2022  06:23:00      -12.090       12.765       -2.954       13.596        9.865       12.208      184.839       97.325      149.037        0.037        0.022       17.582        7.572        0.186      330.198       -2.584      872.531
01/23/2022  06:24:00      -48.366       16.862       -7.921       13.239       14.972        8.745      175.261      224.160       76.479        0.158        0.024       51.221        3.786        0.005      330.172       -2.625      872.537
01/23/2022  06:25:00      -62.539       13.561      -13.498       26.526       18.579       11.172      703.638      345.166      124.824        0.273        0.059       63.992       10.508        0.027      330.191       -2.594      872.540
01/23/2022  06:26:00      -49.336       -0.002        1.210       31.500       23.774       19.268      992.232      565.223      371.244        0.218        0.096       49.336       15.909        0.104      330.253       -2.492      872.537
01/23/2022  06:27:00      -54.996        5.480       -0.750       37.235       22.955       20.581     1386.450      526.919      423.590        0.270        0.117       55.269       20.083        0.132      330.219       -2.549      872.535
01/23/2022  06:28:00      -87.394       36.315       -6.573       37.018       31.132       21.854     1370.356      969.201      477.601        0.591        0.141       94.638       21.493        0.052      330.088       -2.764      872.546
01/23/2022  06:29:00      -98.443       32.453      -11.496       28.325       24.490       15.989      802.312      599.742      255.634        0.627        0.083      103.654       13.836        0.018      330.025       -2.866      872.566
01/23/2022  06:30:00      -74.970       39.142      -11.753       39.198       34.538       18.054     1536.461     1192.847      325.948        0.517        0.153       84.573       13.559        0.026      329.951       -2.987      872.592
01/23/2022  06:31:00      -51.002       18.922       -8.221       57.691       43.649       15.956     3328.294     1905.220      254.596        0.426        0.274       54.399        9.637        0.031      330.032       -2.855      872.615
01/23/2022  06:32:00       -1.329        5.356      -19.132       28.262       19.921       16.841      798.718      396.839      283.633        0.094        0.074        5.518       12.873        5.442      330.032       -2.855      872.626
01/23/2022  06:33:00        4.754      -22.873       -6.847       16.051       14.931       12.222      257.649      222.943      149.373        0.061        0.031       23.362        6.806        0.085      330.281       -2.447      872.627
01/23/2022  06:34:00       -7.480       -6.048       -6.832       11.863       17.389       10.550      140.728      302.394      111.304        0.035        0.028        9.619        3.323        0.119      330.237       -2.517      872.627
01/23/2022  06:35:00      -26.323       25.446       -7.064       15.994       12.860       10.349      255.793      165.367      107.099        0.096        0.026       36.612        4.612        0.016      330.113       -2.724      872.619
01/23/2022  06:36:00      -18.332       -2.215      -12.858       16.091       17.907        9.252      258.905      320.653       85.608        0.059        0.033       18.465        5.743        0.097      330.092       -2.757      872.609
01/23/2022  06:37:00       -9.244       -8.527       -6.286       11.618        6.459        8.424      134.970       41.724       70.967        0.022        0.012       12.576        6.935        0.304      330.092       -2.758      872.614
01/23/2022  06:38:00      -33.070      -27.971      -19.861       15.049       11.357       10.175      226.484      128.974      103.537        0.136        0.023       43.313        7.775        0.032      330.069       -2.793      872.629
01/23/2022  06:39:00      -10.017        7.494       -3.547       20.292       11.037       15.000      411.784      121.807      225.008        0.046        0.038       12.510       11.130        0.792      330.108       -2.732      872.637
01/23/2022  06:40:00      -24.821        6.270       -4.641       27.973       19.261       10.914      782.480      370.998      119.112        0.097        0.064       25.601        6.385        0.062      330.045       -2.834      872.637
01/23/2022  06:41:00       -9.230       -7.202       -8.559       10.287        8.212        8.845      105.823       67.438       78.226        0.023        0.013       11.707        7.313        0.390      330.129       -2.697      872.648
01/23/2022  06:42:00        0.519       -7.199       -4.261        4.052        8.104        5.801       16.420       65.683       33.651        0.009        0.006        7.217        5.430        0.566      330.154       -2.655      872.659
01/23/2022  06:43:00      -20.627       19.593       -5.277       19.657       15.338        9.448      386.380      235.241       89.272        0.077        0.036       28.449       10.177        0.128      330.151       -2.662      872.658
01/23/2022  06:44:00      -49.699       22.475       -5.131       16.460       14.202       10.515      270.937      201.708      110.556        0.179        0.029       54.545        4.439        0.007      330.077       -2.781      872.649
01/23/2022  06:45:00      -33.972       13.565      -10.974       18.042       14.005        9.514      325.496      196.127       90.509        0.104        0.031       36.580        6.078        0.028      330.177       -2.619      872.635
01/23/2022  06:46:00       -5.168       -2.384       -8.007       12.370        9.242        7.222      153.020       85.414       52.153        0.019        0.015        5.691        5.819        1.045      330.107       -2.732      872.642
01/23/2022  06:47:00       -3.422       -8.723       -8.149        8.452        8.757        8.212       71.437       76.677       67.429        0.018        0.011        9.370        4.150        0.196      330.140       -2.678      872.663
01/23/2022  06:48:00       -3.493        9.536       -5.278        9.375        8.891        7.208       87.885       79.048       51.953        0.017        0.011       10.155        4.419        0.189      330.102       -2.742      872.685
01/23/2022  06:49:00      -12.727      -13.598       -7.511       13.592       15.582       10.388      184.753      242.786      107.903        0.047        0.027       18.625        6.131        0.108      330.152       -2.658      872.686
01/23/2022  06:50:00      -15.421       -5.426       -6.292       17.920       18.268       13.209      321.131      333.726      174.473        0.057        0.041       16.347       12.667        0.600      330.080       -2.777      872.671
01/23/2022  06:51:00       -3.790        9.483       -5.458        9.377       12.723       12.207       87.920      161.865      149.005        0.027        0.020       10.212        1.617        0.025      329.985       -2.933      872.654
01/23/2022  06:52:00        6.805        3.395       -0.333       10.622        7.527        9.486      112.829       56.650       89.975        0.016        0.013        7.605        6.463        0.722      329.959       -2.972      872.648
01/23/2022  06:53:00      -12.789        0.297       -2.084       29.343       18.421       15.313      861.015      339.334      234.490        0.080        0.072       12.792       17.128        1.793      329.988       -2.926      872.657
01/23/2022  06:54:00      -35.724      -20.435       -1.079       30.440       21.552       16.153      926.567      464.495      260.932        0.167        0.083       41.156       16.825        0.167      330.032       -2.855      872.648
01/23/2022  06:55:00      -58.858       -8.705       -2.373       37.552       24.011       15.630     1410.171      576.539      244.293        0.289        0.112       59.498       16.527        0.077      330.018       -2.876      872.621
01/23/2022  06:56:00      -20.987       -8.826       -2.850       27.588       15.835       15.238      761.112      250.734      232.197        0.089        0.062       22.768       10.445        0.210      330.067       -2.797      872.594
01/23/2022  06:57:00      -29.046        7.770        0.780       21.913       20.325       10.828      480.197      413.102      117.255        0.096        0.051       30.067       10.565        0.123      330.021       -2.873      872.582
01/23/2022  06:58:00      -47.171       19.572       -4.033       24.110       20.612       19.403      581.312      424.871      376.484        0.200        0.069       51.070       12.944        0.064      329.899       -3.073      872.590
01/23/2022  06:59:00      -21.876      -10.568      -10.373       31.683       16.229       18.047     1003.787      263.374      325.676        0.115        0.080       24.295       13.739        0.320      330.000       -2.907      872.608
01/23/2022  07:00:00      -19.180      -12.997       -3.955       17.787       22.418       16.055      316.373      502.553      257.778        0.081        0.054       23.168       11.242        0.235      329.974       -2.950      872.618
01/23/2022  07:01:00      -53.329       19.357      -16.807       31.661       21.596       18.896     1002.429      466.386      357.069        0.266        0.091       56.733       11.875        0.044      329.968       -2.959      872.625
01/23/2022  07:02:00      -62.553        9.701       -3.002       50.086       27.062       22.548     2508.609      732.375      508.425        0.388        0.187       63.301       11.310        0.032      329.816       -3.207      872.630
01/23/2022  07:03:00      -65.160        9.949       -2.965       48.152       26.278       17.439     2318.589      690.526      304.116        0.383        0.166       65.916       17.254        0.069      329.854       -3.146      872.631
01/23/2022  07:04:00      -80.459       17.974       -6.331       45.401       26.086       20.001     2061.296      680.459      400.052        0.499        0.157       82.442       19.602        0.057      329.859       -3.138      872.632
01/23/2022  07:05:00      -56.671       -5.529       -7.437       52.920       40.375       20.565     2800.533     1630.157      422.909        0.407        0.243       56.940       24.734        0.189      329.861       -3.135      872.620
01/23/2022  07:06:00      -47.484        5.207       -1.528       47.912       29.221       23.123     2295.598      853.863      534.672        0.298        0.184       47.769       19.534        0.167      329.842       -3.166      872.614
01/23/2022  07:07:00     -110.085       16.102       -3.750       48.956       32.101       18.819     2396.694     1030.463      354.172        0.809        0.189      111.256       19.795        0.032      329.808       -3.221      872.613
01/23/2022  07:08:00     -100.061       15.040       -3.326       37.640       34.087       20.443     1416.785     1161.928      417.934        0.662        0.150      101.185       14.735        0.021      329.768       -3.287      872.615
01/23/2022  07:09:00     -115.392       33.400       -4.166       35.735       23.738       19.941     1277.000      563.501      397.653        0.834        0.112      120.129       19.218        0.026      329.770       -3.283      872.634
01/23/2022  07:10:00      -88.532       21.506       -5.990       30.018       26.086       18.616      901.077      680.471      346.564        0.513        0.096       91.107       12.059        0.018      329.773       -3.278      872.655
01/23/2022  07:11:00      -56.608       17.850      -11.899       33.202       15.446       16.781     1102.404      238.593      281.616        0.264        0.081       59.355       20.625        0.121      329.784       -3.261      872.685
01/23/2022  07:12:00      -55.813       -2.015      -15.823       40.760       20.132       17.076     1661.389      405.308      291.582        0.286        0.118       55.849       21.987        0.155      329.845       -3.161      872.687
01/23/2022  07:13:00      -70.868       22.600      -15.353       33.912       16.692       13.668     1150.049      278.614      186.825        0.369        0.081       74.384       14.824        0.040      329.807       -3.224      872.697
01/23/2022  07:14:00      -83.812       27.437      -12.293       14.877       14.153       15.642      221.321      200.315      244.676        0.430        0.033       88.189        4.481        0.003      329.754       -3.309      872.714
01/23/2022  07:15:00      -66.963       16.747       -9.148       26.227       15.793       13.305      687.851      249.417      177.028        0.298        0.056       69.026       13.504        0.038      329.765       -3.292      872.725
01/23/2022  07:16:00      -44.190        7.858       -8.942       27.655       14.288       17.260      764.776      204.158      297.893        0.168        0.063       44.883       18.385        0.168      329.772       -3.281      872.716
01/23/2022  07:17:00      -48.949        8.198      -15.203       17.377       17.389        9.255      301.976      302.363       85.661        0.169        0.034       49.631        6.537        0.017      329.797       -3.241      872.703
01/23/2022  07:18:00        1.308       -3.209        1.040        8.780       10.558        6.666       77.095      111.466       44.430        0.012        0.012        3.466        5.530        2.546      329.820       -3.202      872.701
01/23/2022  07:19:00       -9.281       11.477       -2.061       14.266       10.378        9.004      203.506      107.694       81.072        0.031        0.020       14.760        4.702        0.101      329.791       -3.251      872.707
01/23/2022  07:20:00      -36.572       15.974      -13.129       11.980       13.440       11.222      143.529      180.626      125.935        0.111        0.023       39.908        8.522        0.046      329.884       -3.098      872.711
01/23/2022  07:21:00      -40.296       22.244      -13.418       11.724       11.582        9.328      137.445      134.144       87.018        0.133        0.018       46.027        4.986        0.012      329.874       -3.112      872.721
01/23/2022  07:22:00      -18.518        8.173      -13.113        7.549       10.738        8.265       56.994      115.297       68.314        0.041        0.012       20.242        6.081        0.090      329.893       -3.082      872.738
01/23/2022  07:23:00       -9.309        3.157       -8.478        7.800        9.610        7.756       60.846       92.346       60.149        0.019        0.011        9.829        5.416        0.304      329.967       -2.961      872.743
01/23/2022  07:24:00       -6.441        2.677       -1.070        7.870        7.825       12.561       61.941       61.229      157.790        0.017        0.014        6.975        5.725        0.674      330.042       -2.841      872.725
01/23/2022  07:25:00      -13.034      -19.693       -2.168       13.231       15.917       14.880      175.049      253.338      221.406        0.061        0.032       23.615        9.545        0.163      330.097       -2.749      872.705
01/23/2022  07:26:00       -4.765       -8.415      -11.482        7.360       18.620       12.641       54.174      346.712      159.805        0.039        0.028        9.671        5.765        0.355      329.925       -3.032      872.694
01/23/2022  07:27:00      -25.942        0.205       -3.843       18.374       20.700        9.927      337.588      428.473       98.543        0.078        0.043       25.943        6.625        0.065      329.772       -3.282      872.699
01/23/2022  07:28:00      -83.612       31.785      -12.792       17.945       13.545       13.305      322.007      183.475      177.025        0.442        0.034       89.450        7.109        0.006      329.803       -3.230      872.706
01/23/2022  07:29:00      -72.109       33.539       -6.538       21.149       17.869       16.518      447.281      319.293      272.847        0.370        0.052       79.527       14.909        0.035      329.730       -3.350      872.697
01/23/2022  07:30:00      -71.944       36.911       -8.926       22.418       21.533       16.074      502.552      463.687      258.378        0.392        0.061       80.860       13.019        0.026      329.677       -3.436      872.687
01/23/2022  07:31:00      -51.246       18.578      -16.296       17.926       19.429       15.720      321.350      377.488      247.127        0.209        0.047       54.509        9.839        0.033      329.717       -3.371      872.689
01/23/2022  07:32:00      -24.182       -0.588       -5.851       38.229       19.609       15.007     1461.434      384.493      225.197        0.134        0.104       24.189       14.896        0.379      329.711       -3.379      872.677
01/23/2022  07:33:00      -79.404       15.049       -9.686       32.505       23.724       18.787     1056.543      562.818      352.968        0.430        0.099       80.818       14.596        0.033      329.697       -3.402      872.680
01/23/2022  07:34:00      -66.069       12.182       -8.597       47.388       24.913       17.386     2245.653      620.661      302.290        0.388        0.158       67.183       18.244        0.074      329.713       -3.376      872.692
01/23/2022  07:35:00      -36.396       -3.787       -3.610       34.456       25.787       19.077     1187.219      664.984      363.916        0.178        0.111       36.593       18.481        0.255      329.762       -3.297      872.725
01/23/2022  07:36:00      -15.485       11.348       -4.090       15.045       13.410        7.110      226.361      179.821       50.553        0.042        0.023       19.198        7.660        0.159      329.800       -3.234      872.763
01/23/2022  07:37:00        4.151        3.221        0.661       12.818       13.221        8.273      164.289      174.788       68.443        0.022        0.020        5.254        5.935        1.276      330.014       -2.885      872.798
01/23/2022  07:38:00       15.944      -13.725      -10.968       19.265       35.271       21.626      371.157     1244.017      467.671        0.132        0.104       21.038       10.354        0.242      330.033       -2.853      872.828
01/23/2022  07:39:00       44.521       11.411       -8.102       18.981       15.102       12.535      360.279      228.056      157.136        0.146        0.037       45.961        8.218        0.032      329.901       -3.070      872.843
01/23/2022  07:40:00       34.633        8.614      -18.735       19.509       20.950       13.956      380.609      438.897      194.757        0.132        0.051       35.688        8.982        0.063      329.920       -3.038      872.854
01/23/2022  07:41:00       25.710       12.509       -8.498       23.000       22.244       13.145      529.003      494.784      172.778        0.104        0.060       28.592        5.689        0.040      329.898       -3.073      872.874
01/23/2022  07:42:00       61.669       20.172      -11.395       16.783       14.902        8.700      281.657      222.061       75.687        0.246        0.029       64.884        5.540        0.007      329.854       -3.147      872.897
01/23/2022  07:43:00       64.079       26.543       -7.385       18.036       15.441       10.649      325.284      238.416      113.392        0.277        0.034       69.359        6.256        0.008      329.910       -3.054      872.914
01/23/2022  07:44:00       77.699       17.461      -10.571       13.362        9.961       10.042      178.531       99.230      100.850        0.342        0.019       79.637        5.118        0.004      329.943       -2.999      872.933
01/23/2022  07:45:00       94.625       16.494       -9.862       25.305       21.681       12.886      640.326      470.074      166.044        0.530        0.064       96.052        7.870        0.007      329.978       -2.942      872.936
01/23/2022  07:46:00      107.880       33.173      -15.136       12.307       12.199       11.858      151.461      148.813      140.609        0.670        0.022      112.866        2.061        0.000      329.899       -3.073      872.938
01/23/2022  07:47:00       96.611       24.398      -16.161       21.868       14.525       15.057      478.228      210.988      226.718        0.555        0.046       99.644       10.107        0.010      329.911       -3.055      872.939
01/23/2022  07:48:00       65.506        6.564       -6.121       35.348       19.966       19.605     1249.451      398.649      384.344        0.320        0.102       65.834       19.991        0.092      330.020       -2.874      872.949
01/23/2022  07:49:00       26.838      -13.563      -14.886       23.356       31.558       17.371      545.505      995.893      301.750        0.148        0.092       30.070       10.253        0.116      330.098       -2.747      872.969
01/23/2022  07:50:00       12.382       -9.025       -6.087       30.654       30.819       24.993      939.697      949.830      624.645        0.139        0.126       15.322       17.222        1.263      330.161       -2.644      872.987
01/23/2022  07:51:00       70.200      -26.816      -10.531       23.225       25.171       12.920      539.397      633.554      166.925        0.355        0.067       75.147       12.170        0.026      330.069       -2.795      873.016
01/23/2022  07:52:00       46.721      -24.413      -10.994       29.088       25.262       19.963      846.127      638.181      398.520        0.239        0.094       52.714       14.820        0.079      330.136       -2.684      873.031
01/23/2022  07:53:00       66.565      -16.135      -15.789       28.719       22.843       22.432      824.804      521.811      503.209        0.339        0.092       68.493       14.359        0.044      330.105       -2.735      873.042
01/23/2022  07:54:00       48.393      -29.606       -9.989       21.244       18.683       17.594      451.306      349.041      309.554        0.221        0.055       56.730       13.527        0.057      330.161       -2.644      873.060
01/23/2022  07:55:00       51.467      -20.512       -7.673       18.616       15.390       12.556      346.549      236.854      157.652        0.193        0.037       55.404        4.680        0.007      330.149       -2.665      873.088
01/23/2022  07:56:00       25.641      -13.261       -4.603       19.731       21.846       11.835      389.326      477.269      140.058        0.093        0.050       28.867        9.147        0.100      330.406       -2.241      873.098
01/23/2022  07:57:00       52.824      -22.859      -16.849       21.873       28.794       16.384      478.429      829.105      268.449        0.259        0.079       57.558        9.774        0.029      330.307       -2.405      873.107
01/23/2022  07:58:00       64.109      -19.955      -13.653       26.122       25.576       18.317      682.343      654.109      335.513        0.318        0.084       67.143       19.104        0.081      330.277       -2.454      873.105
01/23/2022  07:59:00       56.322       -1.852      -19.584       32.683       31.410       20.071     1068.201      986.567      402.832        0.301        0.123       56.352       12.203        0.047      330.271       -2.463      873.115
01/23/2022  08:00:00       34.683       -6.243      -10.405       21.982       29.214       21.919      483.199      853.475      480.433        0.158        0.091       35.240       13.248        0.141      330.381       -2.283      873.116
01/23/2022  08:01:00       40.719       -5.398       -9.304       29.757       25.777       24.444      885.450      664.475      597.519        0.196        0.107       41.075       16.499        0.161      330.416       -2.224      873.114
01/23/2022  08:02:00       19.117      -29.292      -20.419       34.888       27.977       20.862     1217.194      782.699      435.223        0.204        0.122       34.978       18.323        0.274      330.530       -2.039      873.118
01/23/2022  08:03:00      -11.669      -29.143      -14.986       17.875       21.812       15.398      319.504      475.768      237.109        0.112        0.052       31.393        7.442        0.056      330.503       -2.084      873.114
01/23/2022  08:04:00       -8.755      -18.431      -12.567       13.633       12.397        9.138      185.863      153.676       83.511        0.050        0.021       20.405        6.892        0.114      330.546       -2.012      873.122
01/23/2022  08:05:00       -3.625      -13.057       -8.157       15.163        9.969        9.693      229.919       99.376       93.954        0.034        0.021       13.551        5.562        0.168      330.604       -1.917      873.120
01/23/2022  08:06:00      -22.006       -9.479       -5.870       14.070       11.864       10.575      197.971      140.762      111.824        0.053        0.023       23.960        9.737        0.165      330.457       -2.158      873.101
01/23/2022  08:07:00       -8.818       -4.796       -6.627        8.051        7.038        7.434       64.824       49.535       55.271        0.016        0.008       10.038        2.175        0.047      330.527       -2.042      873.088
01/23/2022  08:08:00        2.489       -6.341       -6.120        4.710       10.068        9.811       22.186      101.360       96.259        0.015        0.011        6.813        6.399        0.882      330.698       -1.762      873.086
01/23/2022  08:09:00        2.267      -10.810       -5.430       12.868       10.409       10.483      165.590      108.345      109.899        0.027        0.019       11.045        7.588        0.472      330.893       -1.443      873.098
01/23/2022  08:10:00        7.440      -16.070      -11.413        9.203       12.803        9.110       84.695      163.923       82.998        0.039        0.017       17.709        3.715        0.044      330.784       -1.622      873.095
01/23/2022  08:11:00       -3.509       -1.280       -6.979       10.262       10.596       10.007      105.301      112.265      100.148        0.019        0.016        3.735        4.818        1.664      330.895       -1.439      873.094
01/23/2022  08:12:00       -5.971       11.123       -7.880       13.769       11.104        6.888      189.581      123.308       47.442        0.029        0.018       12.624        4.256        0.114      330.662       -1.821      873.100
01/23/2022  08:13:00      -20.225       21.984       -4.960        5.836        6.059        5.528       34.058       36.717       30.557        0.051        0.005       29.872        2.314        0.006      330.476       -2.128      873.114
01/23/2022  08:14:00      -12.973       32.646       -5.801        8.312        4.994        4.720       69.090       24.939       22.282        0.069        0.006       35.129        2.370        0.005      330.520       -2.058      873.136
01/23/2022  08:15:00      -24.036       35.664       -8.851        7.794        9.135        6.948       60.750       83.453       48.279        0.106        0.010       43.007        5.258        0.015      330.547       -2.012      873.162
01/23/2022  08:16:00       -6.644       22.567       -3.542       11.180       14.187       11.988      125.001      201.265      143.722        0.052        0.023       23.525        7.816        0.110      330.676       -1.798      873.171
01/23/2022  08:17:00       -3.872       17.847       -5.599       17.991       11.411       10.479      323.671      130.216      109.814        0.046        0.028       18.262       10.366        0.322      330.792       -1.608      873.184
01/23/2022  08:18:00       21.504       19.359        2.964       16.430       14.790       13.489      269.961      218.735      181.946        0.076        0.034       28.934        9.245        0.102      330.901       -1.429      873.189
01/23/2022  08:19:00       14.010       17.895       -3.252       12.485       17.759       12.410      155.875      315.367      154.010        0.058        0.031       22.726        8.524        0.141      330.966       -1.323      873.185
01/23/2022  08:20:00       -3.225       13.790       -2.840       18.726        8.371        6.830      350.653       70.075       46.643        0.034        0.023       14.162        7.508        0.281      330.897       -1.437      873.183
01/23/2022  08:21:00      -18.462       30.045       -8.506       10.847        7.703        5.993      117.647       59.342       35.918        0.076        0.011       35.264        3.132        0.008      330.843       -1.525      873.187
01/23/2022  08:22:00      -12.869       16.847      -12.477       10.018       12.811        7.941      100.356      164.114       63.054        0.047        0.016       21.199        4.129        0.038      330.914       -1.408      873.190
01/23/2022  08:23:00       -9.256       17.731       -4.398       12.898       19.663       10.727      166.351      386.616      115.078        0.054        0.033       20.002        9.316        0.217      330.970       -1.318      873.190
01/23/2022  08:24:00      -14.643       17.178       -2.939       11.904       13.645       13.285      141.705      186.174      176.498        0.051        0.025       22.572        6.452        0.082      331.020       -1.234      873.193
01/23/2022  08:25:00      -24.869       13.290      -11.573       16.419        8.369        6.089      269.587       70.037       37.078        0.065        0.019       28.198        3.334        0.014      330.928       -1.385      873.208
01/23/2022  08:26:00       -2.938       18.914        0.409       15.195       14.558       11.832      230.873      211.926      140.007        0.047        0.029       19.141        7.244        0.143      331.191       -0.954      873.230
01/23/2022  08:27:00       -1.296       28.102      -12.042       16.165       11.608       10.884      261.293      134.738      118.453        0.073        0.026       28.132       10.381        0.136      331.198       -0.941      873.260
01/23/2022  08:28:00       18.617       21.224        0.337       15.776       12.895       13.133      248.889      166.287      172.479        0.069        0.029       28.232        7.111        0.063      331.366       -0.664      873.278
01/23/2022  08:29:00       21.412       26.566       -6.630       19.859       13.383       13.469      394.362      179.097      181.410        0.098        0.038       34.121       12.187        0.128      331.339       -0.710      873.295
01/23/2022  08:30:00       37.804       29.605       -9.642       17.150       18.458       16.681      294.133      340.698      278.243        0.166        0.046       48.017       11.156        0.054      331.279       -0.809      873.311
01/23/2022  08:31:00       44.237       39.635      -20.823       22.353       12.505       18.189      499.654      156.371      330.830        0.247        0.049       59.396       13.734        0.053      331.380       -0.641      873.318
01/23/2022  08:32:00       36.389       32.164      -17.001       25.338       21.182       15.254      641.990      448.677      232.691        0.199        0.066       48.567       11.366        0.055      331.381       -0.639      873.317
01/23/2022  08:33:00       39.935       18.223       -7.307       19.120       23.530       11.918      365.591      553.684      142.028        0.152        0.053       43.896        8.321        0.036      331.397       -0.615      873.311
01/23/2022  08:34:00        1.573       27.255       -6.282       19.087       19.284       17.376      364.332      371.863      301.919        0.091        0.052       27.301        5.301        0.038      331.421       -0.574      873.311
01/23/2022  08:35:00        3.782       12.494       -8.449       13.424       20.484       11.583      180.215      419.602      134.161        0.049        0.037       13.054        9.694        0.551      331.524       -0.405      873.307
01/23/2022  08:36:00       -0.738        7.819      -10.089       13.057       15.588       13.954      170.482      242.983      194.721        0.039        0.030        7.854        5.848        0.554      331.747       -0.037      873.309
01/23/2022  08:37:00        0.028       47.514       -4.345       17.719       21.408       13.740      313.966      458.315      188.785        0.162        0.048       47.514       10.906        0.053      331.557       -0.351      873.298
01/23/2022  08:38:00       -1.837       40.355       -5.346       24.993       22.499       17.653      624.669      506.195      311.613        0.155        0.072       40.397       14.337        0.126      331.573       -0.326      873.285
01/23/2022  08:39:00       -6.730       38.647      -15.616       20.227       16.831       12.976      409.132      283.291      168.380        0.132        0.043       39.229        9.783        0.062      331.524       -0.405      873.281
01/23/2022  08:40:00      -17.357       20.397      -17.146       14.671       15.875       11.424      215.238      252.012      130.509        0.080        0.030       26.782        8.471        0.100      331.572       -0.327      873.274
01/23/2022  08:41:00      -13.522       36.263       -3.642       17.978       14.068       18.100      323.192      197.910      327.594        0.118        0.042       38.702        9.546        0.061      331.624       -0.240      873.273
01/23/2022  08:42:00      -19.461       23.311       -7.344       21.709       13.223       14.843      471.278      174.842      220.312        0.092        0.043       30.366        7.667        0.064      331.630       -0.232      873.273
01/23/2022  08:43:00      -22.132      -15.091      -15.338       21.724       27.471       19.548      471.911      754.649      382.122        0.128        0.080       26.787       14.758        0.304      331.740       -0.050      873.279
01/23/2022  08:44:00       21.407      -56.250      -27.532       24.102       13.396       13.810      580.916      179.442      190.717        0.267        0.048       60.186        9.347        0.024      331.718       -0.086      873.281
01/23/2022  08:45:00       27.783      -48.450      -30.063       14.757       11.915       15.059      217.781      141.957      226.770        0.230        0.029       55.851       11.734        0.044      331.483       -0.474      873.275
01/23/2022  08:46:00       32.561      -42.750      -13.813       20.387       25.341       17.608      415.619      642.148      310.048        0.222        0.068       53.738       15.540        0.084      331.674       -0.158      873.274
01/23/2022  08:47:00       34.693      -17.548      -10.056       14.722       17.301       13.269      216.741      299.322      176.053        0.115        0.035       38.879        5.147        0.018      331.690       -0.131      873.279
01/23/2022  08:48:00       29.843      -32.608      -16.213       20.124       29.838       20.908      404.968      890.302      437.164        0.197        0.087       44.203       15.609        0.125      331.814        0.072      873.288
01/23/2022  08:49:00       33.136       15.069       -2.802       24.093       26.348       21.467      580.471      694.238      460.850        0.153        0.087       36.402       15.827        0.189      331.770       -0.001      873.292
01/23/2022  08:50:00       42.122       14.293      -12.936       17.762       22.773       18.745      315.503      518.609      351.375        0.167        0.059       44.481       14.769        0.110      331.657       -0.185      873.290
01/23/2022  08:51:00       53.477      -72.518      -29.133       18.867       42.344       17.500      355.971     1793.018      306.261        0.571        0.123       90.103        9.510        0.011      331.728       -0.069      873.275
01/23/2022  08:52:00       35.468      -60.365      -14.625       47.919       33.016       24.724     2296.278     1090.061      611.267        0.456        0.200       70.013       29.958        0.183      331.868        0.162      873.256
01/23/2022  08:53:00       27.712      -88.373      -23.096       38.171       32.011       32.951     1457.061     1024.696     1085.736        0.634        0.178       92.616       24.735        0.071      331.851        0.132      873.234
01/23/2022  08:54:00       61.603      -93.873      -27.283       40.460       34.535       23.475     1637.038     1192.632      551.060        0.837        0.169      112.281       24.385        0.047      331.757       -0.021      873.225
01/23/2022  08:55:00       67.637      -72.714      -26.123       30.354       49.863       27.720      921.347     2486.297      768.383        0.736        0.209       99.308       26.228        0.070      331.895        0.204      873.214
01/23/2022  08:56:00       87.587      -84.848      -31.773       18.917       38.611       17.163      357.853     1490.812      294.578        0.901        0.107      121.945       13.955        0.013      331.728       -0.071      873.206
01/23/2022  08:57:00       91.866      -25.806      -19.817       23.754       25.709       20.737      564.251      660.950      430.042        0.558        0.083       95.422       12.862        0.018      331.815        0.073      873.205
01/23/2022  08:58:00       93.845      -47.781      -27.687       30.411       30.208       23.372      924.852      912.505      546.263        0.712        0.119      105.309       13.253        0.016      331.951        0.297      873.213
01/23/2022  08:59:00       63.207      -59.543      -27.048       31.359       33.286       23.523      983.410     1107.933      553.354        0.546        0.132       86.836       22.171        0.065      332.133        0.599      873.211
01/23/2022  09:00:00       20.170      -47.589      -13.126       41.363       47.071       23.449     1710.884     2215.673      549.837        0.366        0.224       51.687       21.861        0.179      332.134        0.599      873.213
01/23/2022  09:01:00       22.815      -11.376      -23.853       49.888       28.056       22.378     2488.763      787.116      500.776        0.250        0.189       25.494       20.423        0.642      332.179        0.673      873.209
01/23/2022  09:02:00       35.350        9.201      -14.594       39.323       39.496       32.420     1546.265     1559.895     1051.034        0.285        0.208       36.528       18.737        0.263      332.237        0.769      873.213
01/23/2022  09:03:00       50.495      -18.567      -16.233       44.498       28.143       33.541     1980.065      792.031     1124.997        0.353        0.195       53.800       28.939        0.289      332.077        0.506      873.227
01/23/2022  09:04:00       74.668       12.090      -24.148       50.667       59.744       35.014     2567.110     3569.370     1226.001        0.683        0.368       75.640       27.598        0.133      332.172        0.661      873.242
01/23/2022  09:05:00       66.707        2.720      -40.649       43.719       65.111       36.071     1911.330     4239.406     1301.136        0.678        0.373       66.762       13.609        0.042      332.318        0.901      873.251
01/23/2022  09:06:00       74.163       -8.995      -48.253       51.391       55.494       37.519     2641.040     3079.590     1407.694        0.752        0.356       74.707       22.600        0.092      332.243        0.779      873.247
01/23/2022  09:07:00       65.129       -4.457      -27.703       37.409       42.748       31.953     1399.461     1827.362     1020.973        0.464        0.212       65.281       20.249        0.096      332.174        0.665      873.254
01/23/2022  09:08:00       63.877       32.966      -11.344       25.501       34.900       26.053      650.280     1217.999      678.736        0.392        0.127       71.882       20.944        0.085      332.067        0.488      873.260
01/23/2022  09:09:00       10.195      -12.635       -4.231       23.237       13.566       21.009      539.956      184.033      441.374        0.072        0.058       16.235       17.959        1.224      332.352        0.959      873.267
01/23/2022  09:10:00       54.875      -11.715      -19.552       34.750       24.852       21.883     1207.582      617.605      478.875        0.292        0.115       56.112       12.699        0.051      332.396        1.031      873.257
01/23/2022  09:11:00       79.706      -36.836      -27.396       38.166       33.240       28.180     1456.628     1104.883      794.133        0.591        0.168       87.806       18.886        0.046      332.158        0.637      873.239
01/23/2022  09:12:00       72.068       -9.339      -24.714       55.452       59.855       37.834     3074.895     3582.567     1431.437        0.699        0.404       72.670       32.516        0.200      332.258        0.803      873.225
01/23/2022  09:13:00       99.245       -7.910      -23.905       45.577       59.337       35.906     2077.267     3520.872     1289.269        0.868        0.344       99.559       22.536        0.051      332.175        0.667      873.212
01/23/2022  09:14:00       77.700      -15.518       -6.887       59.803       43.895       32.275     3576.370     1926.770     1041.695        0.643        0.327       79.234       34.633        0.191      332.258        0.805      873.220
01/23/2022  09:15:00       21.754      -11.860      -15.172       38.438       43.276       32.987     1477.487     1872.849     1088.168        0.264        0.222       24.777       16.155        0.425      332.528        1.251      873.226
01/23/2022  09:16:00       33.156       22.285      -20.385       26.879       59.839       24.052      722.480     3580.664      578.503        0.345        0.244       39.950       12.311        0.095      332.398        1.033      873.231
01/23/2022  09:17:00       70.997      -57.660      -31.699       44.004       56.201       35.479     1936.311     3158.541     1258.787        0.786        0.318       91.462       24.559        0.072      332.248        0.788      873.222
01/23/2022  09:18:00       82.677       -8.519      -31.737       54.642       54.685       38.820     2985.706     2990.475     1506.972        0.770        0.374       83.115       20.297        0.060      332.383        1.010      873.219
01/23/2022  09:19:00       74.664      -38.417      -32.199       46.989       41.744       29.186     2207.958     1742.554      851.802        0.644        0.240       83.968       18.505        0.049      332.167        0.653      873.219
01/23/2022  09:20:00       63.247       -4.910      -22.483       65.875       45.553       37.826     4339.530     2075.043     1430.837        0.619        0.392       63.438       33.176        0.274      332.279        0.838      873.223
01/23/2022  09:21:00       68.185       -8.209      -18.412       41.813       42.218       31.879     1748.300     1782.373     1016.296        0.480        0.227       68.677       20.583        0.090      332.300        0.875      873.227
01/23/2022  09:22:00       68.937        4.701       -8.966       34.682       46.578       25.087     1202.812     2169.503      629.362        0.443        0.200       69.097       13.811        0.040      332.247        0.784      873.235
01/23/2022  09:23:00       48.749      -44.859      -23.444       45.211       45.417       37.979     2044.018     2062.710     1442.395        0.524        0.277       66.248       29.434        0.197      332.398        1.034      873.237
01/23/2022  09:24:00       85.916      -59.967      -27.810       60.138       53.423       34.370     3616.539     2853.996     1181.297        0.970        0.383      104.774       31.869        0.093      332.304        0.880      873.239
01/23/2022  09:25:00      110.124      -55.934      -27.085       29.483       29.262       19.368      869.233      856.244      375.130        0.904        0.105      123.515       18.955        0.024      332.052        0.464      873.243
01/23/2022  09:26:00       68.042      -17.781      -18.765       42.051       25.797       24.308     1768.323      665.476      590.866        0.416        0.151       70.327       16.762        0.057      332.254        0.797      873.244
01/23/2022  09:27:00       58.772      -16.143      -27.112       47.159       36.873       26.620     2223.981     1359.635      708.612        0.437        0.215       60.948       14.762        0.059      332.375        0.997      873.242
01/23/2022  09:28:00       72.925       26.789      -28.778       45.678       64.544       35.480     2086.497     4165.924     1258.866        0.719        0.376       77.690       22.086        0.081      332.344        0.945      873.246
01/23/2022  09:29:00       90.208       10.081      -44.253       48.170       73.480       33.223     2320.349     5399.255     1103.801        0.951        0.441       90.770       21.735        0.057      332.303        0.877      873.266
01/23/2022  09:30:00       73.123      -23.888      -28.151       39.339       43.525       36.601     1547.543     1894.387     1339.657        0.574        0.239       76.926       26.034        0.115      332.569        1.317      873.274
01/23/2022  09:31:00       51.177       -9.205      -14.783       56.946       46.671       30.353     3242.877     2178.159      921.313        0.463        0.317       51.998       30.261        0.339      332.564        1.310      873.288
01/23/2022  09:32:00       80.881      -47.014      -26.050       38.114       52.763       27.221     1452.703     2783.925      741.007        0.720        0.249       93.552       21.169        0.051      332.428        1.084      873.297
01/23/2022  09:33:00       85.470      -32.603      -22.793       51.523       37.474       30.991     2654.578     1404.278      960.424        0.695        0.251       91.477       25.284        0.076      332.399        1.036      873.305
01/23/2022  09:34:00       63.452       -9.426      -19.770       53.541       44.366       29.165     2866.610     1968.341      850.578        0.509        0.284       64.148       22.090        0.119      332.577        1.331      873.315
01/23/2022  09:35:00       60.124      -16.161      -20.656       50.969       48.472       30.207     2597.812     2349.512      912.448        0.508        0.293       62.258       11.542        0.034      332.528        1.250      873.315
01/23/2022  09:36:00       87.599        5.981       -6.300       43.181       47.989       33.795     1864.635     2302.900     1142.078        0.653        0.265       87.803       26.659        0.092      332.638        1.431      873.310
01/23/2022  09:37:00       48.581      -22.859      -16.310       43.779       67.028       27.409     1916.586     4492.807      751.243        0.515        0.358       53.690       18.213        0.115      332.878        1.829      873.293
01/23/2022  09:38:00       69.788      -77.028      -31.571       31.761       35.046       30.933     1008.736     1228.255      956.862        0.750        0.160      103.941       24.947        0.058      332.611        1.387      873.290
01/23/2022  09:39:00       72.634      -39.320      -37.315       31.914       41.612       34.528     1018.522     1731.593     1192.166        0.608        0.197       82.594       20.634        0.062      332.559        1.300      873.291
01/23/2022  09:40:00       69.121       -4.235      -26.297       64.681       42.960       35.645     4183.602     1845.603     1270.575        0.639        0.365       69.251       23.969        0.120      332.640        1.435      873.275
01/23/2022  09:41:00       87.063       29.679      -20.736       42.901       55.177       29.515     1840.496     3044.538      871.117        0.732        0.288       91.983       18.797        0.042      332.661        1.468      873.262
01/23/2022  09:42:00       56.402       40.601      -31.770       30.042       58.729       27.637      902.516     3449.048      763.783        0.548        0.256       69.496       25.170        0.131      332.642        1.439      873.251
01/23/2022  09:43:00       34.122       14.325      -18.365       46.905       48.593       33.263     2200.115     2361.271     1106.414        0.369        0.283       37.007       29.399        0.631      332.962        1.967      873.238
01/23/2022  09:44:00       56.260      -41.247      -25.347       50.561       55.449       38.348     2556.418     3074.605     1470.562        0.630        0.355       69.760       27.337        0.154      332.711        1.552      873.243
01/23/2022  09:45:00       51.490      -20.333      -23.572       48.810       56.761       43.979     2382.377     3221.855     1934.155        0.558        0.377       55.359       31.080        0.315      332.644        1.440      873.264
01/23/2022  09:46:00       43.136      -15.357      -33.239       52.453       52.992       42.258     2751.320     2808.177     1785.708        0.527        0.367       45.788       37.486        0.670      332.771        1.651      873.297
01/23/2022  09:47:00       35.958      -13.636      -15.701       34.087       58.207       34.666     1161.903     3388.092     1201.706        0.374        0.288       38.457       32.784        0.727      332.949        1.944      873.324
01/23/2022  09:48:00       51.113      -31.287      -30.120       38.992       44.592       25.564     1520.397     1988.472      653.507        0.433        0.208       59.928       14.082        0.055      332.871        1.817      873.320
01/23/2022  09:49:00      132.662       27.921      -21.059       68.409       54.720       27.542     4679.770     2994.224      758.588        1.363        0.422      135.568        4.358        0.001      332.723        1.571      873.310
01/23/2022  09:50:00      125.386       28.595      -26.328       48.958       35.287       17.938     2396.846     1245.148      321.784        1.060        0.198      128.605       10.692        0.007      332.422        1.075      873.309
01/23/2022  09:51:00      145.966       43.378      -30.582       35.240       30.750       21.074     1241.858      945.542      444.104        1.338        0.132      152.275       10.754        0.005      332.518        1.234      873.327
01/23/2022  09:52:00      100.368       32.821      -24.358       44.193       49.980       27.583     1953.040     2498.048      760.833        0.848        0.261      105.598       22.398        0.045      332.606        1.378      873.350
01/23/2022  09:53:00       35.519      -15.311      -15.960       37.675       70.315       33.491     1419.382     4944.177     1121.623        0.462        0.374       38.678       24.366        0.397      333.037        2.091      873.362
01/23/2022  09:54:00       95.739       59.314      -28.947       34.097       41.956       23.085     1162.584     1760.268      532.898        0.849        0.173      112.624       18.391        0.027      332.776        1.660      873.365
01/23/2022  09:55:00       45.375      -43.907      -16.716       51.837       52.142       39.245     2687.031     2718.822     1540.192        0.560        0.347       63.141       33.535        0.282      333.018        2.060      873.345
01/23/2022  09:56:00      114.298      -28.291      -27.331       50.954       50.731       24.884     2596.317     2573.655      619.228        1.020        0.289      117.747       13.280        0.013      332.699        1.532      873.347
01/23/2022  09:57:00       55.013      -14.800      -13.699       52.520       41.880       32.033     2758.362     1753.930     1026.095        0.448        0.277       56.969       26.092        0.210      333.059        2.127      873.351
01/23/2022  09:58:00       35.333        8.564       -6.647       40.728       52.737       39.613     1658.748     2781.189     1569.152        0.369        0.300       36.356       20.004        0.303      333.379        2.656      873.365
01/23/2022  09:59:00       31.461      -20.513      -12.248       35.812       86.367       41.594     1282.471     7459.192     1730.062        0.601        0.524       37.558       26.761        0.508      333.234        2.417      873.365
01/23/2022  10:00:00       88.176      -40.349      -11.142       50.258       50.288       35.543     2525.880     2528.896     1263.282        0.792        0.316       96.969       22.819        0.055      332.905        1.872      873.364
01/23/2022  10:01:00       99.470        2.797      -15.446       71.877       66.053       37.594     5166.282     4363.011     1413.314        1.054        0.547       99.509       29.947        0.091      333.001        2.031      873.375
01/23/2022  10:02:00       78.064       -3.135       -5.200       65.610       58.273       34.356     4304.661     3395.778     1180.363        0.750        0.444       78.127       36.690        0.221      332.977        1.991      873.392
01/23/2022  10:03:00       76.798      -48.465      -37.789       39.652       73.077       33.717     1572.258     5340.282     1136.820        0.886        0.402       90.812       24.403        0.072      333.050        2.112      873.395
01/23/2022  10:04:00      106.302      -17.889      -23.807       60.681       45.177       37.779     3682.149     2040.990     1427.246        0.967        0.358      107.796       18.847        0.031      333.061        2.130      873.398
01/23/2022  10:05:00       95.471       33.493      -18.931       54.507       71.686       25.484     2971.025     5138.843      649.438        0.968        0.438      101.176       14.116        0.019      332.866        1.808      873.412
01/23/2022  10:06:00       38.980        7.138       -2.270       49.367       62.265       46.739     2437.084     3876.889     2184.560        0.504        0.425       39.628       30.600        0.596      333.313        2.546      873.418
01/23/2022  10:07:00       30.762       -1.718       -5.792       35.240       51.427       39.216     1241.854     2644.704     1537.896        0.320        0.271       30.810       26.474        0.738      333.256        2.453      873.420
01/23/2022  10:08:00       20.794      -18.138       -8.794       31.116       57.576       33.584      968.218     3314.990     1127.884        0.312        0.271       27.593       15.587        0.319      333.443        2.762      873.419
01/23/2022  10:09:00      104.811       27.944      -27.246       45.108       56.312       24.415     2034.693     3171.049      596.116        0.915        0.290      108.473       10.165        0.009      332.992        2.016      873.409
01/23/2022  10:10:00       85.866      -26.547      -12.647       56.338       47.086       38.211     3174.019     2217.118     1460.083        0.754        0.343       89.876       34.075        0.144      333.225        2.402      873.402
01/23/2022  10:11:00       43.633      -11.988      -21.316       44.897       39.736       32.231     2015.721     1578.945     1038.825        0.357        0.232       45.250       24.133        0.284      333.491        2.841      873.412
01/23/2022  10:12:00      126.908       28.382      -28.350       38.275       45.128       24.314     1464.964     2036.577      591.189        1.090        0.205      130.043       14.455        0.012      332.942        1.933      873.418
01/23/2022  10:13:00      103.106       -2.110      -30.587       64.569       51.655       29.446     4169.132     2668.238      867.053        0.964        0.385      103.128       30.636        0.088      333.128        2.240      873.412
01/23/2022  10:14:00       59.528       18.517      -20.760       44.352       54.640       41.432     1967.088     2985.518     1716.588        0.549        0.333       62.342       28.624        0.211      333.551        2.941      873.409
01/23/2022  10:15:00       65.878      -20.059      -24.028       40.332       70.284       27.615     1626.690     4939.877      762.571        0.632        0.366       68.864       23.454        0.116      333.552        2.942      873.416
01/23/2022  10:16:00       14.100      -55.316      -20.080       36.359       56.086       38.984     1321.981     3145.634     1519.790        0.482        0.299       57.085       21.585        0.143      333.697        3.183      873.420
01/23/2022  10:17:00      100.093       17.375      -11.915       60.380       61.395       46.746     3645.713     3769.337     2185.159        1.003        0.480      101.590       29.361        0.084      333.380        2.658      873.429
01/23/2022  10:18:00       56.655      -32.929      -20.380       33.459       55.403       27.584     1119.498     3069.508      760.881        0.483        0.247       65.530       14.607        0.050      333.281        2.495      873.438
01/23/2022  10:19:00       85.156      -24.386      -29.865       40.920       58.948       37.108     1674.447     3474.925     1377.032        0.763        0.326       88.579       23.023        0.068      333.488        2.838      873.439
01/23/2022  10:20:00       79.653      -88.626      -40.976       42.754       85.178       28.372     1827.881     7255.366      804.978        1.288        0.494      119.160       22.224        0.035      333.328        2.573      873.442
01/23/2022  10:21:00       69.233        1.478      -37.830       42.739       61.081       34.827     1826.620     3730.836     1212.943        0.650        0.339       69.249       16.452        0.056      333.595        3.013      873.450
01/23/2022  10:22:00      110.446       -0.447      -23.851       72.305       66.573       42.573     5227.941     4431.943     1812.419        1.212        0.574      110.447       27.299        0.061      333.399        2.689      873.461
01/23/2022  10:23:00      102.913      -71.576      -20.886       76.670       75.168       42.552     5878.247     5650.231     1810.649        1.474        0.667      125.357       37.230        0.088      333.498        2.854      873.464
01/23/2022  10:24:00       80.267      -35.854      -27.312       68.916       72.675       38.564     4749.416     5281.615     1487.197        0.999        0.576       87.911       28.110        0.102      333.361        2.626      873.484
01/23/2022  10:25:00      110.790      -39.530      -16.679       53.885       57.261       43.744     2903.615     3278.812     1913.533        1.110        0.405      117.631       31.839        0.073      333.506        2.866      873.486
01/23/2022  10:26:00      102.404      -11.762      -20.152       70.204       63.425       43.635     4928.546     4022.761     1904.033        1.094        0.543      103.077       34.561        0.112      333.453        2.779      873.490
01/23/2022  10:27:00       68.282      -25.735      -15.936       59.365       46.056       29.658     3524.236     2121.131      879.605        0.605        0.326       72.971       22.509        0.095      333.484        2.831      873.493
01/23/2022  10:28:00      122.342       51.906      -22.256       83.853       61.732       40.160     7031.356     3810.779     1612.859        1.530        0.623      132.898       11.621        0.008      333.501        2.856      873.475
01/23/2022  10:29:00      138.008       47.606      -25.420       50.822       30.899       26.265     2582.882      954.738      689.841        1.309        0.211      145.989       27.775        0.036      333.165        2.302      873.468
01/23/2022  10:30:00       59.924      -30.107      -21.140       54.407       43.893       37.005     2960.170     1926.573     1369.349        0.560        0.313       67.062       30.012        0.200      333.585        2.996      873.441
01/23/2022  10:31:00      122.444      -49.943      -38.269       58.481       54.564       42.933     3420.052     2977.194     1843.268        1.359        0.412      132.238       21.456        0.026      333.429        2.741      873.413
01/23/2022  10:32:00       69.081      -72.286      -30.238       42.046       53.203       26.866     1767.876     2830.594      721.788        0.812        0.266       99.988       13.237        0.018      333.373        2.647      873.396
01/23/2022  10:33:00       43.284      -65.692      -29.985       32.693       35.502       30.949     1068.800     1260.361      957.812        0.519        0.164       78.669       15.805        0.040      333.839        3.419      873.394
01/23/2022  10:34:00       17.529      -34.270      -14.449       30.574       49.933       21.466      934.773     2493.278      460.810        0.279        0.194       38.493        9.939        0.067      334.164        3.956      873.372
01/23/2022  10:35:00       38.640      -62.220      -22.070       50.372       62.947       33.785     2537.344     3962.318     1141.460        0.674        0.382       73.242       22.536        0.095      334.002        3.688      873.359
01/23/2022  10:36:00       29.909      -89.503      -12.278       34.240       52.686       29.441     1172.396     2775.847      866.763        0.693        0.241       94.368       20.116        0.045      333.795        3.345      873.332
01/23/2022  10:37:00       36.646      -15.579      -29.220       59.721       68.623       39.846     3566.599     4709.168     1587.698        0.615        0.493       39.820       32.903        0.683      333.919        3.551      873.294
01/23/2022  10:38:00       63.327       17.725      -25.264       70.535       63.450       50.460     4975.236     4025.855     2546.202        0.825        0.577       65.761       31.385        0.228      333.703        3.192      873.275
01/23/2022  10:39:00       12.407       -4.061      -17.115       41.960       35.396       32.145     1760.617     1252.883     1033.282        0.225        0.202       13.055       16.131        1.527      334.086        3.827      873.257
01/23/2022  10:40:00       64.113      -50.934      -23.916       32.368       37.900       27.891     1047.702     1436.426      777.929        0.527        0.163       81.882       18.888        0.053      333.544        2.930      873.244
01/23/2022  10:41:00       69.752      -18.924      -16.009       36.560       18.341       18.454     1336.622      336.396      340.535        0.375        0.101       72.273       12.919        0.032      333.339        2.590      873.224
01/23/2022  10:42:00       63.227       71.818      -20.321       34.207       25.083       19.564     1170.119      629.166      382.734        0.587        0.109       95.684       15.467        0.026      333.360        2.624      873.204
01/23/2022  10:43:00       -0.635       12.285      -13.864       16.223       15.289       17.332      263.180      233.751      300.387        0.057        0.040       12.302        9.699        0.622      333.696        3.181      873.182
01/23/2022  10:44:00       18.056      -20.916      -26.031       36.176       49.363       28.968     1308.670     2436.674      839.140        0.301        0.229       27.631       20.550        0.553      334.051        3.770      873.157
01/23/2022  10:45:00       43.140       10.354      -17.688       37.439       47.141       30.240     1401.661     2222.265      914.460        0.341        0.227       44.365       10.321        0.054      334.267        4.127      873.141
01/23/2022  10:46:00       23.530      -10.570        3.549       33.769       42.632       26.376     1140.353     1817.512      695.719        0.217        0.183       25.795       19.279        0.559      334.405        4.356      873.135
01/23/2022  10:47:00       31.683      -35.726      -24.281       49.075       39.664       26.552     2408.316     1573.210      705.009        0.378        0.234       47.751       17.245        0.130      333.802        3.357      873.147
01/23/2022  10:48:00       13.092      -23.936      -10.709       40.700       29.338       19.422     1656.505      860.695      377.213        0.188        0.145       27.283       22.190        0.662      333.905        3.527      873.209
01/23/2022  10:49:00      -10.870      -27.032        7.129       33.022       28.277       28.213     1090.462      799.607      795.968        0.179        0.134       29.136       19.130        0.431      334.150        3.934      873.214
01/23/2022  10:50:00       46.276      -25.552      -18.278       45.894       54.529       37.983     2106.272     2973.454     1442.735        0.482        0.326       52.861       30.681        0.337      334.269        4.130      873.219
01/23/2022  10:51:00       94.727        8.445      -27.411       54.424       43.344       34.071     2962.022     1878.670     1160.858        0.790        0.300       95.103       13.027        0.019      333.759        3.285      873.222
01/23/2022  10:52:00       72.169       79.267      -28.163       34.434       40.831       29.635     1185.670     1667.183      878.241        0.801        0.187      107.199       12.375        0.013      333.784        3.327      873.247
01/23/2022  10:53:00       44.054       43.199        4.316       43.398       45.200       33.903     1883.423     2043.002     1149.414        0.445        0.254       61.701       15.184        0.061      334.166        3.959      873.239
01/23/2022  10:54:00       38.939       27.526        4.169       72.436       64.114       33.972     5246.954     4110.630     1154.097        0.640        0.526       47.685       24.536        0.265      334.263        4.120      873.233
01/23/2022  10:55:00       91.069      -26.758      -27.537       50.304       46.721       34.785     2530.453     2182.888     1210.008        0.784        0.296       94.919       23.303        0.060      333.978        3.648      873.228
01/23/2022  10:56:00       46.198      -43.988      -17.137       35.048       27.787       23.773     1228.330      772.103      565.153        0.346        0.128       63.790       13.160        0.043      333.841        3.420      873.223
01/23/2022  10:57:00        4.964      -49.338      -13.814       44.749       37.603       27.397     2002.439     1414.011      750.598        0.341        0.208       49.587       23.497        0.225      334.156        3.943      873.215
01/23/2022  10:58:00      -42.965       -9.689      -18.999       27.182       18.908       23.593      738.874      357.512      556.623        0.198        0.083       44.044       10.218        0.054      334.263        4.120      873.196
01/23/2022  10:59:00      -38.200      -27.833      -32.266       36.129       29.311       27.930     1305.292      859.126      780.100        0.311        0.147       47.264       22.728        0.231      334.293        4.169      873.178
01/23/2022  11:00:00       33.447      -32.304      -29.150       55.742       32.313       29.006     3107.181     1044.158      841.342        0.400        0.250       46.499       24.741        0.283      333.853        3.441      873.173
01/23/2022  11:01:00        3.102      -16.268      -17.665       30.858       24.273       12.384      952.192      589.166      153.356        0.114        0.085       16.561       13.278        0.643      333.937        3.581      873.155
01/23/2022  11:02:00        1.449       -3.835       -4.216       55.640       34.212       30.386     3095.846     1170.471      923.337        0.261        0.259        4.100       29.178       50.656      334.328        4.228      873.130
01/23/2022  11:03:00       25.058      -13.436      -21.466       43.607       50.939       30.862     1901.572     2594.755      952.436        0.336        0.272       28.433       19.650        0.478      334.378        4.311      873.118
01/23/2022  11:04:00       57.418      -21.457      -32.869       42.230       45.264       31.991     1783.412     2048.794     1023.427        0.485        0.243       61.296       24.395        0.158      334.445        4.422      873.111
01/23/2022  11:05:00       44.419      -12.753      -15.859       39.712       31.250       28.558     1577.026      976.556      815.555        0.288        0.168       46.213       23.418        0.257      334.523        4.551      873.086
01/23/2022  11:06:00       46.676      -29.647      -24.156       42.766       36.006       23.186     1828.947     1296.444      537.585        0.365        0.183       55.295       16.540        0.089      334.502        4.517      873.052
01/23/2022  11:07:00       21.912      -35.286      -10.832       30.271       41.784       31.107      916.311     1745.917      967.653        0.274        0.181       41.536       18.405        0.196      334.510        4.530      873.033
01/23/2022  11:08:00       62.019      -43.463      -29.323       37.090       46.486       26.577     1375.688     2160.952      706.339        0.542        0.212       75.732       18.879        0.062      334.396        4.341      873.011
01/23/2022  11:09:00       42.242      -81.253      -25.728       43.096       44.411       31.590     1857.238     1972.321      997.949        0.694        0.241       91.577       30.866        0.114      334.155        3.941      872.988
01/23/2022  11:10:00       42.890      -84.149      -22.156       35.265       25.016       31.195     1243.654      625.784      973.129        0.613        0.142       94.449       16.391        0.030      334.142        3.919      872.973
01/23/2022  11:11:00       48.781      -62.140      -32.529       30.680       27.980       21.217      941.281      782.859      450.160        0.474        0.109       79.000        7.656        0.009      334.072        3.804      872.960
01/23/2022  11:12:00       22.260      -67.080      -35.287       18.219       30.251       14.461      331.917      915.138      209.113        0.385        0.073       70.677        4.867        0.005      334.108        3.863      872.948
01/23/2022  11:13:00      -43.885      -77.090      -32.024       33.485       29.049       24.130     1121.218      843.861      582.234        0.572        0.127       88.706        7.283        0.007      334.240        4.082      872.917
01/23/2022  11:14:00      -21.611      -15.821      -30.630       39.366       24.976       19.925     1549.695      623.797      397.012        0.211        0.129       26.783       23.681        0.782      334.374        4.305      872.887
01/23/2022  11:15:00      -59.473        3.316      -21.296       38.584       33.425       26.536     1488.723     1117.248      704.138        0.366        0.166       59.565       17.932        0.091      334.230        4.065      872.864
01/23/2022  11:16:00      -32.963       26.812       -1.283       29.711       17.805       19.606      882.729      317.028      384.376        0.170        0.079       42.491       10.745        0.064      334.259        4.114      872.837
01/23/2022  11:17:00      -33.221      -14.825      -16.257       35.233       21.028       16.639     1241.338      442.176      276.857        0.177        0.098       36.378        5.310        0.021      334.323        4.219      872.802
01/23/2022  11:18:00       -4.856       -9.252      -14.293       51.461       30.526       24.359     2648.189      931.824      593.379        0.224        0.209       10.449       17.296        2.740      334.558        4.609      872.784
01/23/2022  11:19:00      -29.005       24.613       -5.384       52.168       24.531       22.136     2721.458      601.768      489.994        0.264        0.191       38.041       25.166        0.438      334.356        4.275      872.766
01/23/2022  11:20:00       39.516        7.072       -7.442       50.462       40.336       31.986     2546.429     1626.985     1023.122        0.343        0.260       40.144       26.240        0.427      334.555        4.605      872.752
01/23/2022  11:21:00       73.452       25.602      -19.844       61.843       54.652       24.723     3824.508     2986.851      611.250        0.693        0.371       77.786       15.731        0.041      334.332        4.234      872.734
01/23/2022  11:22:00       56.011      -39.489      -33.512       45.138       57.764       36.767     2037.477     3336.630     1351.789        0.627        0.336       68.532       16.549        0.058      334.868        5.124      872.717
01/23/2022  11:23:00       47.520      -84.263      -39.178       25.806       18.470       18.615      665.967      341.126      346.536        0.612        0.068       96.739       10.456        0.012      334.057        3.778      872.708
01/23/2022  11:24:00       58.406      -65.187      -31.939       45.461       24.256       21.239     2066.677      588.354      451.115        0.589        0.155       87.524       19.022        0.047      334.317        4.208      872.696
01/23/2022  11:25:00       58.879      -27.429      -32.844       33.652       37.496       23.902     1132.458     1405.931      571.318        0.420        0.155       64.955       14.608        0.051      334.660        4.779      872.682
01/23/2022  11:26:00       40.442      -21.088      -29.022       56.059       63.241       34.172     3142.637     3999.373     1167.692        0.561        0.415       45.610       31.265        0.470      334.665        4.788      872.674
01/23/2022  11:27:00       73.969      -62.512      -34.534       49.645       50.275       35.688     2464.644     2527.585     1273.619        0.842        0.313       96.846       20.404        0.044      334.515        4.538      872.674
01/23/2022  11:28:00       47.070       -8.129      -12.846       40.537       42.731       35.634     1643.236     1825.974     1269.780        0.359        0.237       47.767       21.741        0.207      334.829        5.061      872.665
01/23/2022  11:29:00       53.334       -1.050      -19.208       36.581       38.821       32.053     1338.186     1507.045     1027.421        0.354        0.194       53.344       18.386        0.119      334.645        4.754      872.654
01/23/2022  11:30:00        8.771       38.549      -19.142       21.042       36.118       27.197      442.755     1304.538      739.680        0.221        0.124       39.534       16.875        0.182      334.449        4.427      872.649
01/23/2022  11:31:00       30.232       -3.108      -13.706       38.555       26.104       26.631     1486.476      681.432      709.194        0.199        0.144       30.391       16.233        0.285      335.070        5.460      872.630
01/23/2022  11:32:00       48.135      -35.506       -6.969       42.505       45.856       26.470     1806.666     2102.729      700.675        0.412        0.231       59.814       14.822        0.061      334.811        5.030      872.615
01/23/2022  11:33:00       38.624      -29.959       -1.102       71.768       69.146       45.205     5150.703     4781.205     2043.467        0.718        0.599       48.881       35.066        0.515      334.935        5.235      872.593
01/23/2022  11:34:00       78.329      -65.297      -33.372       70.445       84.581       46.737     4962.461     7153.991     2184.362        1.290        0.715      101.976       40.164        0.155      334.691        4.831      872.578
01/23/2022  11:35:00       84.128      -17.770      -26.398       54.583       64.087       47.505     2979.304     4107.206     2256.722        0.871        0.467       85.984       26.749        0.097      334.774        4.969      872.556
01/23/2022  11:36:00      103.528      -19.812      -45.346       69.074       68.492       51.968     4771.172     4691.163     2700.679        1.266        0.608      105.407       29.641        0.079      334.787        4.989      872.538
01/23/2022  11:37:00       44.556      -63.022      -20.580       44.062       64.987       44.739     1941.488     4223.348     2001.599        0.727        0.408       77.181       23.094        0.090      334.976        5.305      872.524
01/23/2022  11:38:00       53.462       27.564       -2.700       54.823       53.268       33.084     3005.596     2837.454     1094.530        0.528        0.347       60.150       30.607        0.259      334.909        5.193      872.514
01/23/2022  11:39:00       22.554       13.097      -13.572       58.411       63.477       50.314     3411.881     4029.388     2531.485        0.542        0.499       26.080       35.854        1.890      334.828        5.058      872.485
01/23/2022  11:40:00       83.517       -6.687      -30.864       50.627       50.675       43.083     2563.139     2567.934     1856.126        0.748        0.349       83.784       33.860        0.163      334.696        4.838      872.478
01/23/2022  11:41:00      127.547      -11.617      -32.516       31.534       46.379       32.048      994.419     2150.984     1027.104        1.082        0.209      128.075        8.957        0.005      334.550        4.596      872.466
01/23/2022  11:42:00      107.969      -10.722      -28.816       32.430       31.955       20.335     1051.681     1021.092      413.518        0.754        0.124      108.500        3.975        0.001      334.473        4.468      872.456
01/23/2022  11:43:00       75.564      -25.248      -24.001       32.122       33.198       28.266     1031.831     1102.110      798.960        0.493        0.147       79.671       14.070        0.031      334.775        4.971      872.444
01/23/2022  11:44:00       56.255      -17.889      -19.257       46.497       48.797       34.529     2161.986     2381.157     1192.255        0.479        0.287       59.031       21.200        0.129      334.892        5.166      872.433
01/23/2022  11:45:00       45.119       -7.324      -16.301       44.150       53.704       24.552     1949.242     2884.067      602.817        0.389        0.272       45.709       20.162        0.195      334.769        4.961      872.432
01/23/2022  11:46:00       29.650      -66.009      -28.306       34.738       29.017       28.422     1206.733      841.978      807.791        0.445        0.143       72.363       24.436        0.114      334.653        4.767      872.423
01/23/2022  11:47:00      -34.386      -23.780      -12.972       25.641       20.876       23.154      657.484      435.796      536.117        0.177        0.081       41.808        7.330        0.031      334.783        4.984      872.397
01/23/2022  11:48:00        7.131     -107.438      -24.134       47.646       62.005       24.965     2270.103     3844.608      623.249        0.946        0.337      107.674       15.468        0.021      334.798        5.009      872.354
01/23/2022  11:49:00       80.817      -99.488      -39.060       61.892       73.192       38.533     3830.617     5357.124     1484.826        1.431        0.534      128.177       25.398        0.039      334.733        4.900      872.318
01/23/2022  11:50:00       64.695     -150.639      -26.682       51.492       56.852       37.576     2651.402     3232.174     1411.931        1.744        0.365      163.944       24.176        0.022      334.806        5.021      872.291
01/23/2022  11:51:00      108.218      -85.697      -29.166       57.972       34.638       33.080     3360.766     1199.786     1094.259        1.278        0.283      138.041       30.871        0.050      334.825        5.053      872.284
01/23/2022  11:52:00       86.083      -56.189      -26.201       66.745       61.190       43.858     4454.939     3744.187     1923.537        1.069        0.506      102.798       31.275        0.093      335.094        5.500      872.265
01/23/2022  11:53:00       93.218     -120.337      -29.631       58.538       67.477       35.451     3426.717     4553.118     1256.753        1.664        0.462      152.219       26.088        0.029      334.714        4.868      872.239
01/23/2022  11:54:00       79.041     -133.855      -33.573       53.994       55.874       31.519     2915.370     3121.908      993.445        1.616        0.352      155.449       29.323        0.036      334.705        4.854      872.228
01/23/2022  11:55:00       92.502      -92.902      -36.774       22.240       29.635       16.507      494.604      878.218      272.489        1.009        0.082      131.101        7.423        0.003      334.411        4.366      872.220
01/23/2022  11:56:00       32.903      -16.261      -12.658       20.671       22.224       24.230      427.295      493.912      587.072        0.151        0.075       36.702       18.059        0.242      334.628        4.724      872.215
01/23/2022  11:57:00       54.895      -21.934      -12.937       39.968       34.579       30.360     1597.480     1195.729      921.733        0.369        0.186       59.115       22.462        0.144      334.927        5.223      872.193
01/23/2022  11:58:00       71.223        8.875      -25.876       26.414       28.973       19.883      697.699      839.443      395.332        0.388        0.097       71.773       10.748        0.022      334.488        4.494      872.180
01/23/2022  11:59:00       -1.684       20.278      -19.316       20.150       18.762       19.119      406.020      352.003      365.542        0.096        0.056       20.347       14.841        0.532      334.907        5.189      872.155
01/23/2022  12:00:00       60.688     -111.759      -34.792       60.251       68.885       37.994     3630.134     4745.139     1443.526        1.360        0.491      127.173       27.225        0.046      335.150        5.592      872.122
01/23/2022  12:01:00       25.631      -46.088      -19.957       57.319       58.130       35.995     3285.415     3379.062     1295.643        0.557        0.398       52.736        7.563        0.021      335.116        5.537      872.105
01/23/2022  12:02:00       41.962       16.024       -2.148       41.993       42.020       36.089     1763.410     1765.659     1302.402        0.343        0.242       44.917       27.540        0.376      335.440        6.075      872.087
01/23/2022  12:03:00       14.483       18.219       -6.216       41.969       59.688       45.733     1761.400     3562.686     2091.478        0.400        0.371       23.274       30.581        1.726      335.558        6.272      872.066
01/23/2022  12:04:00       42.812       47.902       -4.849       52.578       56.040       33.407     2764.460     3140.468     1116.047        0.558        0.351       64.245       24.817        0.149      335.592        6.329      872.066
01/23/2022  12:05:00       36.717       16.471       -7.345       57.478       55.829       33.617     3303.759     3116.865     1130.127        0.461        0.378       40.243        8.513        0.045      335.513        6.196      872.050
01/23/2022  12:06:00       29.065       15.629      -37.622       41.141       30.927       22.174     1692.589      956.501      491.697        0.282        0.157       33.001       11.352        0.118      334.922        5.214      872.034
01/23/2022  12:07:00       39.509      -91.181      -33.083       68.120       75.725       35.051     4640.382     5734.349     1228.585        1.128        0.580       99.372       46.485        0.219      334.874        5.133      872.015
01/23/2022  12:08:00       39.463      -82.062      -36.911       43.086       35.991       33.501     1856.423     1295.336     1122.342        0.696        0.214       91.057       30.364        0.111      334.984        5.318      871.995
01/23/2022  12:09:00       25.857      -31.457      -16.413       24.621       44.323       23.590      606.199     1964.497      556.510        0.253        0.156       40.720       10.693        0.069      335.330        5.893      871.991
01/23/2022  12:10:00       93.359      -48.304      -41.009       59.753       86.201       37.940     3570.425     7430.648     1439.473        1.258        0.622      105.115       28.735        0.075      335.172        5.629      871.976
01/23/2022  12:11:00       91.242      -88.553      -32.157       46.706       57.529       23.807     2181.447     3309.636      566.761        1.163        0.303      127.149       30.644        0.058      334.737        4.907      871.967
01/23/2022  12:12:00       70.269      -33.946      -14.369       79.866       47.967       29.442     6378.567     2300.816      866.851        0.792        0.477       78.039       36.419        0.218      335.142        5.579      871.946
01/23/2022  12:13:00      103.013      -60.849      -35.178       66.757       86.246       42.461     4456.533     7438.349     1802.963        1.462        0.685      119.643       27.675        0.054      335.143        5.581      871.919
01/23/2022  12:14:00      133.261      -58.347      -13.182       49.343       26.385       24.405     2434.724      696.170      595.592        1.253        0.186      145.475       18.208        0.016      334.787        4.988      871.914
01/23/2022  12:15:00      135.126      -51.041      -29.319       40.049       38.805       31.466     1603.897     1505.849      990.133        1.291        0.205      144.445       12.197        0.007      334.838        5.074      871.907
01/23/2022  12:16:00       60.121      -14.138      -30.229       51.137       31.721       20.478     2615.040     1006.215      419.345        0.438        0.202       61.761        7.947        0.017      334.959        5.276      871.895
01/23/2022  12:17:00       34.220        4.679      -12.497       53.519       57.174       52.194     2864.263     3268.882     2724.208        0.510        0.443       34.538       40.480        1.374      335.375        5.967      871.874
01/23/2022  12:18:00      101.683      -40.315      -35.222       76.155       50.319       43.807     5799.598     2531.968     1919.042        1.173        0.513      109.384       46.078        0.177      334.998        5.340      871.846
01/23/2022  12:19:00       87.155      -39.279      -18.414       57.353       46.014       35.224     3289.379     2117.271     1240.696        0.806        0.332       95.597       37.602        0.155      335.065        5.452      871.830
01/23/2022  12:20:00       65.781     -102.081      -42.649       55.857       76.234       30.391     3120.045     5811.564      923.601        1.321        0.493      121.440       34.018        0.078      335.133        5.564      871.806
01/23/2022  12:21:00       62.155     -140.857      -39.777       30.043       35.713       20.895      902.598     1275.430      436.598        1.395        0.131      153.961       16.627        0.012      334.775        4.971      871.777
01/23/2022  12:22:00       38.033      -59.352      -20.295       24.723       50.290       25.611      611.239     2529.054      655.909        0.459        0.190       70.492       27.007        0.147      334.989        5.324      871.748
01/23/2022  12:23:00       20.876      -13.973       -1.006       36.426       40.342       33.276     1326.831     1627.496     1107.259        0.235        0.203       25.121       27.231        1.175      335.352        5.931      871.732
01/23/2022  12:24:00       13.097       29.699      -11.368       22.074       17.516       23.837      487.255      306.795      568.223        0.127        0.068       32.459       11.485        0.125      335.254        5.767      871.719
01/23/2022  12:25:00      -54.581       30.447      -17.077       27.170       21.796       19.367      738.190      475.075      375.068        0.289        0.079       62.499       13.626        0.048      335.203        5.682      871.705
01/23/2022  12:26:00       31.401       12.382      -16.913       39.630       35.062       20.694     1570.541     1229.352      428.255        0.233        0.161       33.754       12.236        0.131      335.439        6.074      871.692
01/23/2022  12:27:00       87.473      -59.897      -36.552       41.948       61.377       31.334     1759.656     3767.176      981.799        0.954        0.325      106.015       26.359        0.062      335.161        5.610      871.677
01/23/2022  12:28:00       86.028      -47.889      -31.127       51.933       45.439       24.604     2696.985     2064.746      605.380        0.801        0.268       98.459       25.410        0.067      335.156        5.603      871.658
01/23/2022  12:29:00       61.709      -12.868      -29.333       53.707       67.424       44.800     2884.488     4546.023     2007.025        0.713        0.472       63.036       32.639        0.268      335.435        6.067      871.641
01/23/2022  12:30:00       74.717      -33.789      -28.364       41.125       40.909       27.809     1691.276     1673.540      773.330        0.583        0.207       82.002       24.578        0.090      335.310        5.859      871.638
01/23/2022  12:31:00       75.226       34.454      -24.088       24.786       39.444       20.208      614.326     1555.826      408.376        0.500        0.129       82.741       10.783        0.017      335.059        5.443      871.630
01/23/2022  12:32:00       -3.128       42.326      -18.515       23.235       28.565       16.641      539.879      815.947      276.907        0.189        0.082       42.442       12.813        0.091      335.027        5.390      871.621
01/23/2022  12:33:00      -24.794       32.675      -12.439       27.697       44.316       25.700      767.098     1963.899      660.486        0.261        0.170       41.018       25.317        0.381      335.290        5.827      871.603
01/23/2022  12:34:00      -71.512       48.688      -19.901       49.790       55.304       27.818     2479.037     3058.483      773.859        0.709        0.316       86.513       28.131        0.106      336.024        7.049      871.580
01/23/2022  12:35:00      -63.573       14.710       -3.979       77.781       72.966       38.275     6049.891     5323.978     1464.981        0.855        0.642       65.252       39.262        0.362      335.712        6.528      871.555
01/23/2022  12:36:00      -87.683       55.191      -26.480       45.593       34.164       27.138     2078.757     1167.146      736.460        0.771        0.199      103.607        7.885        0.006      335.209        5.693      871.530
01/23/2022  12:37:00      -40.333        5.839      -19.352       45.613       37.047       22.117     2080.557     1372.446      489.180        0.299        0.197       40.753       28.049        0.474      335.310        5.858      871.496
01/23/2022  12:38:00      -44.498        3.821      -19.455       39.056       30.261       18.678     1525.363      915.723      348.854        0.258        0.139       44.662       13.022        0.085      335.430        6.059      871.463
01/23/2022  12:39:00      -11.915      -96.146      -51.658       53.205       45.620       24.379     2830.809     2081.156      594.337        0.878        0.275       96.881       22.128        0.052      335.706        6.519      871.431
01/23/2022  12:40:00       18.873      -52.901      -19.194       32.267       37.987       18.066     1041.178     1443.008      326.377        0.317        0.141       56.167       12.916        0.053      335.827        6.718      871.410
01/23/2022  12:41:00       65.246      -13.928      -23.772       60.817       52.096       39.390     3698.649     2713.976     1551.548        0.649        0.398       66.716       31.494        0.223      335.873        6.797      871.389
01/23/2022  12:42:00      174.123      -26.215      -29.087       80.027       52.012       48.973     6404.340     2705.207     2398.370        2.168        0.575      176.085       47.301        0.072      335.421        6.043      871.375
01/23/2022  12:43:00      106.766      -53.834      -22.569       60.129       65.851       30.139     3615.532     4336.334      908.362        1.183        0.443      119.570       25.477        0.045      335.513        6.196      871.375
01/23/2022  12:44:00       77.560      -28.110      -32.659       35.360       66.206       34.948     1250.299     4383.184     1221.351        0.736        0.343       82.497       28.466        0.119      335.431        6.061      871.364
01/23/2022  12:45:00       87.127      -30.311      -21.846       69.226       56.505       40.648     4792.221     3192.807     1652.245        0.931        0.482       92.249       31.128        0.114      335.691        6.492      871.354
01/23/2022  12:46:00       81.365       -0.851      -21.656       43.993       66.556       35.679     1935.427     4429.682     1273.003        0.736        0.382       81.369       32.757        0.162      335.795        6.665      871.348
01/23/2022  12:47:00       85.604      -48.467      -17.353       77.187       61.999       33.926     5957.781     3843.876     1150.981        1.046        0.548       98.372       31.761        0.104      335.754        6.598      871.343
01/23/2022  12:48:00       28.957      -34.838       -8.212      100.254       54.331       43.263    10050.810     2951.851     1871.681        0.849        0.744       45.302       45.839        1.024      335.812        6.694      871.316
01/23/2022  12:49:00      110.696     -102.528      -24.420       64.501       55.926       31.706     4160.424     3127.720     1005.297        1.583        0.415      150.883       33.737        0.050      335.461        6.108      871.305
01/23/2022  12:50:00       68.711     -110.648      -31.785       43.070       68.448       33.651     1855.047     4685.114     1132.389        1.282        0.384      130.247       41.186        0.100      335.467        6.120      871.284
01/23/2022  12:51:00       34.862     -112.952      -30.809       32.174       29.000       23.149     1035.139      840.997      535.865        0.867        0.121      118.210       14.923        0.016      335.380        5.975      871.259
01/23/2022  12:52:00       59.299      -20.120      -14.412       45.236       53.339       21.556     2046.279     2844.998      464.653        0.474        0.268       62.620       21.019        0.113      335.672        6.463      871.237
01/23/2022  12:53:00       13.237      -11.161      -13.468       30.619       35.738       27.755      937.543     1277.194      770.334        0.173        0.149       17.315       13.210        0.582      336.017        7.037      871.220
01/23/2022  12:54:00       59.666        7.821      -25.150       57.545       60.358       26.348     3311.475     3643.065      694.238        0.595        0.382       60.176       24.939        0.172      335.651        6.428      871.211
01/23/2022  12:55:00      -23.861      -14.668       -1.871       19.348       26.278       22.480      374.361      690.557      505.346        0.118        0.079       28.009       11.096        0.157      335.968        6.955      871.207
01/23/2022  12:56:00      -12.720      -53.191      -34.860       29.041       24.182       20.868      843.359      584.772      435.477        0.303        0.093       54.690       14.081        0.066      335.780        6.643      871.191
01/23/2022  12:57:00      113.830       21.307       -7.826      105.050       58.570       34.000    11035.511     3430.478     1156.004        1.454        0.781      115.807       33.835        0.085      335.724        6.547      871.181
01/23/2022  12:58:00      195.464       61.609      -16.424       57.914       28.182       24.186     3354.002      794.202      584.964        2.350        0.237      204.943       16.365        0.006      335.399        6.005      871.177
01/23/2022  12:59:00       99.737       54.286      -24.470       51.458       33.287       28.779     2647.887     1107.998      828.229        0.904        0.229      113.554       15.471        0.019      335.660        6.442      871.174
01/23/2022  13:00:00       -4.388       60.918      -15.573       21.667       16.905       20.598      469.458      285.790      424.293        0.258        0.059       61.076       11.109        0.033      335.382        5.978      871.153
01/23/2022  13:01:00      -17.489       28.640      -36.228       19.939       26.892       12.899      397.582      723.197      166.390        0.186        0.064       33.558        6.817        0.041      335.489        6.156      871.128
01/23/2022  13:02:00       29.524       -4.819      -12.878       21.883       16.213       16.819      478.861      262.847      282.869        0.104        0.051       29.915       13.665        0.209      335.588        6.322      871.107
01/23/2022  13:03:00       47.810       51.417      -20.825       42.886       30.953       29.412     1839.234      958.072      865.038        0.451        0.183       70.210       19.479        0.077      335.665        6.449      871.086
01/23/2022  13:04:00       67.808       25.100       -7.470       42.174       52.906       36.452     1778.674     2799.049     1328.730        0.559        0.295       72.305       26.054        0.130      336.201        7.345      871.067
01/23/2022  13:05:00      171.714       -7.193       -9.614      112.919       87.174       63.060    12750.691     7599.304     3976.603        2.697        1.216      171.865       49.196        0.082      335.901        6.841      871.032
01/23/2022  13:06:00      143.962        6.284      -27.156       75.998       66.784       46.363     5775.711     4460.139     2149.550        1.694        0.619      144.099       36.933        0.066      335.848        6.754      871.030
01/23/2022  13:07:00       81.353       20.561      -28.245       83.449       70.954       36.383     6963.690     5034.483     1323.740        1.058        0.666       83.911       34.524        0.169      336.057        7.103      871.034
01/23/2022  13:08:00       40.828       21.695      -19.713       35.192       41.396       35.216     1238.490     1713.618     1240.201        0.336        0.210       46.234       14.147        0.094      336.079        7.141      871.023
01/23/2022  13:09:00       65.665       41.946      -16.914       52.937       32.779       22.720     2802.297     1074.450      516.217        0.537        0.220       77.919       23.498        0.091      335.647        6.421      871.005
01/23/2022  13:10:00       69.827       53.311      -21.026       26.980       14.228       19.551      727.918      202.434      382.230        0.474        0.066       87.852        6.173        0.005      335.488        6.157      870.995
01/23/2022  13:11:00       22.220       39.553       -8.863       22.005       21.299       20.318      484.229      453.640      412.838        0.174        0.068       45.367        6.604        0.021      335.734        6.564      870.995
01/23/2022  13:12:00        1.687       80.522      -10.349       25.479       34.873       21.765      649.157     1216.124      473.734        0.447        0.117       80.540       10.693        0.018      335.988        6.989      870.986
01/23/2022  13:13:00      -10.726       56.033      -11.092       24.489       31.967       26.939      599.734     1021.870      725.690        0.286        0.117       57.051       22.858        0.161      336.137        7.236      870.977
01/23/2022  13:14:00      -30.612       88.564       -9.347       41.845       55.422       24.364     1751.029     3071.599      593.601        0.714        0.271       93.706       17.058        0.033      336.312        7.529      870.968
01/23/2022  13:15:00       10.050       63.087      -12.202       20.289       47.668       24.709      411.657     2272.282      610.514        0.376        0.165       63.882       27.930        0.191      335.997        7.004      870.968
01/23/2022  13:16:00       17.788       37.051       -8.406       20.573       19.233       17.248      423.233      369.909      297.480        0.143        0.055       41.100       12.239        0.089      336.229        7.391      870.965
01/23/2022  13:17:00       38.843       29.097      -16.378       32.480       26.611       17.629     1054.925      708.156      310.798        0.235        0.104       48.532       12.459        0.066      336.145        7.249      870.961
01/23/2022  13:18:00       78.313       36.119      -27.152       79.743       37.850       31.465     6358.897     1432.626      990.074        0.848        0.439       86.241       17.061        0.039      336.003        7.013      870.953
01/23/2022  13:19:00       22.480      -48.484      -35.719       37.646       49.880       30.205     1417.223     2487.979      912.325        0.447        0.241       53.442       23.845        0.199      336.490        7.827      870.946
01/23/2022  13:20:00       14.556      -64.251      -28.053       54.875       48.783       34.131     3011.305     2379.792     1164.911        0.584        0.328       65.879       26.598        0.163      336.601        8.012      870.947
01/23/2022  13:21:00       36.924      -76.461      -19.508       40.399       43.670       32.971     1632.099     1907.029     1087.119        0.611        0.231       84.909       25.195        0.088      336.180        7.310      870.945
01/23/2022  13:22:00       50.113      -84.556      -18.495       36.838       68.773       30.019     1357.061     4729.780      901.118        0.849        0.349       98.291       27.316        0.077      336.002        7.012      870.943
01/23/2022  13:23:00       89.332     -100.372      -25.374       49.363       73.948       33.561     2436.727     5468.343     1126.361        1.386        0.452      134.368       41.927        0.097      335.936        6.900      870.918
01/23/2022  13:24:00      117.881     -179.693      -39.787       50.326       73.239       32.876     2532.660     5363.934     1080.800        2.837        0.449      214.908       24.182        0.013      335.938        6.902      870.896
01/23/2022  13:25:00       82.907     -118.839      -30.149       49.395       81.175       33.127     2439.841     6589.376     1097.396        1.601        0.506      144.901       31.375        0.047      336.140        7.239      870.881
01/23/2022  13:26:00       31.533     -105.452      -31.028       52.090       49.732       26.221     2713.388     2473.235      687.555        0.947        0.294      110.065       23.022        0.044      336.380        7.643      870.879
01/23/2022  13:27:00       94.220      -40.727      -14.419       67.395       61.849       42.616     4542.136     3825.316     1816.165        1.046        0.509      102.646       32.033        0.097      336.469        7.790      870.860
01/23/2022  13:28:00       44.122        7.367      -13.226       62.851       66.079       45.540     3950.272     4366.427     2073.897        0.628        0.520       44.732       22.309        0.249      336.577        7.973      870.840
01/23/2022  13:29:00      152.353       60.686      -18.060       69.505       58.545       37.984     4830.971     3427.476     1442.821        1.846        0.485      163.995       26.779        0.027      336.227        7.387      870.833
01/23/2022  13:30:00      138.580       67.927      -16.426       68.108       57.372       28.552     4638.708     3291.594      815.202        1.642        0.437      154.333       23.927        0.024      336.015        7.033      870.822
01/23/2022  13:31:00      137.290       23.989      -24.418       53.109       29.463       27.938     2820.616      868.050      780.530        1.224        0.223      139.370       20.945        0.023      336.144        7.249      870.811
01/23/2022  13:32:00       60.523        4.876      -12.762       55.314       62.063       28.466     3059.672     3851.828      810.332        0.578        0.386       60.719       28.635        0.222      336.353        7.597      870.794
01/23/2022  13:33:00       66.565       22.454      -14.479       66.228       74.289       42.908     4386.209     5518.848     1841.094        0.844        0.587       70.251       33.335        0.225      336.565        7.952      870.788
01/23/2022  13:34:00      103.475       46.529      -14.333       41.391       46.909       29.115     1713.250     2200.418      847.671        0.892        0.238      113.455       20.160        0.032      336.371        7.627      870.809
01/23/2022  13:35:00      110.395       25.158      -19.239       41.058       54.185       30.568     1685.777     2936.022      934.414        0.937        0.278      113.226       21.104        0.035      336.248        7.422      870.811
01/23/2022  13:36:00       74.263       51.881       -7.666       37.049       28.798       22.016     1372.597      829.331      484.687        0.548        0.134       90.591       15.482        0.029      336.107        7.187      870.816
01/23/2022  13:37:00       96.730       65.234      -12.580       44.479       42.028       27.168     1978.413     1766.312      738.124        0.913        0.224      116.671       17.349        0.022      336.176        7.301      870.803
01/23/2022  13:38:00      103.183      -23.986      -19.975       67.807       48.312       34.159     4597.807     2334.077     1166.805        0.986        0.405      105.934       33.700        0.101      336.319        7.540      870.785
01/23/2022  13:39:00      124.783        6.613      -44.820       60.166       64.544       36.646     3619.978     4165.961     1342.932        1.337        0.456      124.959       17.440        0.019      336.381        7.644      870.776
01/23/2022  13:40:00        3.031      -46.550      -24.871       30.893       38.876       22.240      954.354     1511.325      494.623        0.288        0.148       46.649       20.354        0.190      336.553        7.931      870.774
01/23/2022  13:41:00       18.829      -10.844      -16.748       45.478       30.162       17.745     2068.233      909.776      314.890        0.202        0.165       21.729       10.122        0.217      336.467        7.788      870.774
01/23/2022  13:42:00      123.197       19.725      -15.591       62.637       50.655       26.525     3923.345     2565.904      703.552        1.150        0.360      124.766       17.245        0.019      336.302        7.512      870.781
01/23/2022  13:43:00       95.343       27.296        0.522       62.334       46.691       38.781     3885.562     2180.048     1503.996        0.870        0.378       99.174       36.449        0.135      336.470        7.793      870.784
01/23/2022  13:44:00       57.332       52.409       -9.390       47.630       32.228       25.203     2268.629     1038.665      635.192        0.503        0.197       77.677       23.426        0.091      336.330        7.559      870.796
01/23/2022  13:45:00       21.690       -2.945       -7.694       52.823       68.845       24.912     2790.275     4739.608      620.615        0.434        0.408       21.889       20.575        0.884      336.571        7.962      870.791
01/23/2022  13:46:00       68.022        7.656      -10.614       69.988       69.762       25.266     4898.322     4866.799      638.388        0.760        0.520       68.452       25.014        0.134      336.486        7.820      870.794
01/23/2022  13:47:00       90.681      -34.532      -20.331       65.698       44.070       37.520     4316.287     1942.143     1407.714        0.875        0.383       97.033       33.896        0.122      336.541        7.913      870.786
01/23/2022  13:48:00       83.644      -22.577      -18.428       77.384       83.364       56.601     5988.355     6949.482     3203.711        1.199        0.807       86.637       42.933        0.246      336.591        7.996      870.771
01/23/2022  13:49:00       99.233     -108.537      -36.389       64.407       37.032       27.678     4148.265     1371.405      766.063        1.462        0.314      147.063       22.690        0.024      336.389        7.657      870.782
01/23/2022  13:50:00       95.418      -95.429      -35.321       56.563       50.492       42.462     3199.386     2549.446     1803.042        1.350        0.378      134.949       29.219        0.047      336.384        7.649      870.790
01/23/2022  13:51:00       29.310      -84.536       -8.900       41.677       81.323       25.132     1736.946     6613.445      631.617        0.853        0.449       89.473       30.768        0.118      336.452        7.763      870.791
01/23/2022  13:52:00       78.018     -146.562      -39.179       26.479       37.632       21.115      701.133     1416.161      445.832        1.583        0.128      166.034       11.003        0.004      336.388        7.655      870.784
01/23/2022  13:53:00       55.673       -4.877      -23.204       84.027       76.684       43.829     7060.503     5880.361     1920.948        0.926        0.743       55.887       27.672        0.245      336.889        8.493      870.798
01/23/2022  13:54:00      146.395       46.689      -27.888       71.364       46.904       27.912     5092.780     2199.968      779.073        1.623        0.404      153.660       19.123        0.015      336.404        7.681      870.804
01/23/2022  13:55:00      103.029       21.109      -15.847       81.517       51.292       42.983     6645.058     2630.883     1847.553        1.122        0.556      105.169       39.888        0.144      336.490        7.827      870.806
01/23/2022  13:56:00       60.313       35.696      -11.163       41.415       22.694       13.207     1715.208      515.039      174.435        0.372        0.120       70.085       12.483        0.032      336.257        7.436      870.810
01/23/2022  13:57:00       43.500       13.682      -11.959       39.040       15.535       15.274     1524.111      241.328      233.286        0.211        0.100       45.601       10.017        0.048      336.432        7.731      870.799
01/23/2022  13:58:00       52.359       -3.145      -10.679       33.234       54.062       23.921     1104.512     2922.717      572.234        0.373        0.230       52.453       21.875        0.174      336.558        7.941      870.787
01/23/2022  13:59:00       56.296       11.441      -15.721       58.669       78.305       37.626     3442.063     6131.665     1415.719        0.727        0.549       57.447       29.427        0.262      336.680        8.143      870.781
01/23/2022  14:00:00       85.037      112.590      -17.969       50.917       87.960       33.435     2592.524     7736.900     1117.901        1.584        0.572      141.096       27.531        0.038      336.583        7.982      870.776
01/23/2022  14:01:00       72.372       66.887      -17.225       42.204       51.178       27.893     1781.193     2619.227      778.042        0.759        0.259       98.548       10.971        0.012      336.524        7.883      870.780
01/23/2022  14:02:00       16.148        7.243      -11.712       30.601       43.580       30.429      936.420     1899.241      925.918        0.211        0.188       17.698       12.864        0.528      336.907        8.523      870.760
01/23/2022  14:03:00       89.631      -11.820      -28.544       71.876       77.541       54.136     5166.159     6012.580     2930.725        1.155        0.705       90.407       45.832        0.257      336.652        8.098      870.721
01/23/2022  14:04:00       84.770      -77.658      -18.420       57.602       47.193       39.525     3317.983     2227.133     1562.264        1.033        0.355      114.964       40.358        0.123      336.583        7.982      870.705
01/23/2022  14:05:00        6.900      -56.043      -13.855       57.724       46.137       38.852     3332.046     2128.666     1509.488        0.517        0.349       56.466       36.697        0.422      336.924        8.553      870.681
01/23/2022  14:06:00       64.363     -146.799      -36.875       39.880       58.373       23.473     1590.375     3407.392      550.975        1.630        0.277      160.289       20.741        0.017      336.314        7.531      870.671
01/23/2022  14:07:00       28.742      -17.245      -20.447       16.088       24.954       17.421      258.836      622.681      303.506        0.136        0.059       33.519       11.544        0.119      336.544        7.919      870.663
01/23/2022  14:08:00       13.897      -11.340       -5.549       22.486       33.111       20.024      505.643     1096.361      400.949        0.118        0.100       17.937        8.640        0.232      337.140        8.914      870.660
01/23/2022  14:09:00      160.364       -3.307      -12.963       74.718       46.835       27.049     5582.781     2193.499      731.651        1.720        0.425      160.399        4.142        0.001      336.657        8.104      870.647
01/23/2022  14:10:00      111.293      -22.345      -14.443       67.119       60.690       38.792     4504.905     3683.275     1504.837        1.139        0.485      113.514       28.305        0.062      336.551        7.928      870.616
01/23/2022  14:11:00      118.563       53.238      -23.194       63.727       72.802       28.785     4061.152     5300.137      828.578        1.381        0.509      129.967       17.764        0.019      336.611        8.029      870.623
01/23/2022  14:12:00       58.893       66.865      -17.695       51.905       46.384       24.826     2694.171     2151.510      616.341        0.686        0.273       89.103       24.395        0.075      336.399        7.675      870.625
01/23/2022  14:13:00        0.027       23.755        0.371       20.115       20.610       14.789      404.615      424.756      218.720        0.081        0.052       23.755       12.347        0.270      336.781        8.313      870.596
01/23/2022  14:14:00       11.508       -3.530      -26.163       31.900       26.872       16.650     1017.589      722.090      277.225        0.142        0.101       12.037        9.310        0.598      336.500        7.843      870.563
01/23/2022  14:15:00       42.374       13.520      -24.114       40.826       19.278       19.443     1666.782      371.660      378.046        0.249        0.121       44.479       13.300        0.089      336.643        8.083      870.542
01/23/2022  14:16:00      123.095       58.814      -12.922       71.799       74.698       26.275     5155.036     5579.717      690.388        1.510        0.571      136.424       17.686        0.017      336.715        8.202      870.542
01/23/2022  14:17:00      218.153      141.450      -26.607       79.050       53.211       43.932     6248.851     2831.463     1929.990        3.966        0.551      259.997       35.616        0.019      336.469        7.788      870.532
01/23/2022  14:18:00      183.043       48.605      -27.218       57.333       74.891       36.374     3287.065     5608.605     1323.100        2.341        0.511      189.386       14.483        0.006      336.530        7.892      870.527
01/23/2022  14:19:00      140.722       90.032      -19.919       77.765       47.954       34.416     6047.364     2299.542     1184.454        1.892        0.477      167.058       28.971        0.030      336.553        7.932      870.533
01/23/2022  14:20:00       91.964       43.029       -9.892       67.564       50.008       29.299     4564.880     2500.757      858.454        0.916        0.396      101.533       20.732        0.042      336.554        7.933      870.545
01/23/2022  14:21:00       65.589       19.744       -3.100       54.471       53.032       26.653     2967.071     2812.445      710.397        0.559        0.324       68.496       20.107        0.086      336.780        8.313      870.542
01/23/2022  14:22:00       24.609       80.367      -13.828       42.132       33.938       23.190     1775.084     1151.804      537.777        0.536        0.173       84.050       21.587        0.066      336.644        8.086      870.536
01/23/2022  14:23:00       19.239       60.752      -10.845       38.517       60.162       20.351     1483.589     3619.422      414.156        0.485        0.276       63.726       12.679        0.040      336.995        8.673      870.515
01/23/2022  14:24:00       22.767       13.124      -13.471       20.732       20.909       14.695      429.820      437.185      215.953        0.098        0.054       26.279        6.688        0.065      336.827        8.389      870.506
01/23/2022  14:25:00      106.321        8.860      -18.185       86.974       60.268       35.859     7564.392     3632.246     1285.881        1.210        0.624      106.690       25.979        0.059      336.805        8.353      870.496
01/23/2022  14:26:00      188.326       43.921      -10.550       65.744       48.309       35.538     4322.293     2333.735     1262.980        2.271        0.396      193.380       24.002        0.015      336.527        7.886      870.487
01/23/2022  14:27:00      255.413       89.855      -10.878       47.159       45.383       37.243     2223.948     2059.628     1387.072        3.955        0.284      270.757       19.576        0.005      336.461        7.774      870.479
01/23/2022  14:28:00      163.356       30.721      -25.681      111.668       87.991       46.729    12469.695     7742.443     2183.606        2.534        1.120      166.220       25.093        0.023      336.714        8.198      870.481
01/23/2022  14:29:00      172.497       76.873      -28.499       46.258       26.564       26.671     2139.823      705.620      711.323        2.002        0.178      188.851        7.741        0.002      336.514        7.867      870.484
01/23/2022  14:30:00       49.208       26.344       -7.072       50.737       36.675       27.985     2574.250     1345.071      783.188        0.393        0.235       55.816       27.832        0.249      336.696        8.172      870.482
01/23/2022  14:31:00       69.005       80.809       -9.940       43.238       27.366       22.339     1869.508      748.925      499.013        0.725        0.156      106.263       18.355        0.030      336.524        7.884      870.473
01/23/2022  14:32:00       34.521       51.850       -5.129       21.637       32.697       18.440      468.149     1069.082      340.036        0.289        0.094       62.291       14.314        0.053      336.634        8.070      870.467
01/23/2022  14:33:00       28.527       31.950       -3.902       16.075       20.998       18.620      258.420      440.932      346.700        0.145        0.052       42.832       13.606        0.101      336.680        8.146      870.456
01/23/2022  14:34:00       52.833       37.359      -12.851       23.549       18.948       12.239      554.535      359.038      149.782        0.271        0.053       64.708        8.080        0.016      336.547        7.923      870.457
01/23/2022  14:35:00       55.922       84.445      -12.709       35.442       28.036       21.442     1256.121      785.993      459.744        0.646        0.125      101.284        9.519        0.009      336.558        7.940      870.443
01/23/2022  14:36:00       26.593       53.313        5.839       26.137       35.297       25.196      683.135     1245.871      634.863        0.307        0.128       59.578       17.477        0.086      336.768        8.292      870.447
01/23/2022  14:37:00       10.538       37.834       -8.861       16.744       29.685       20.994      280.364      881.195      440.768        0.161        0.080       39.274       10.082        0.066      336.745        8.253      870.438
01/23/2022  14:38:00       37.767       23.092       -6.701       21.257       26.579       16.354      451.876      706.467      267.465        0.171        0.071       44.267       15.008        0.115      336.570        7.960      870.424
01/23/2022  14:39:00      -18.118       66.143      -21.242       32.489       27.035       19.023     1055.527      730.883      361.872        0.365        0.107       68.579        9.542        0.019      336.750        8.262      870.416
01/23/2022  14:40:00       -2.794       35.916       -7.659       16.740       54.881       21.769      280.227     3011.974      473.881        0.256        0.188       36.025        9.866        0.075      336.902        8.514      870.402
01/23/2022  14:41:00       -6.207       54.572      -14.127       29.039       32.391       18.797      843.247     1049.176      353.325        0.273        0.112       54.923       14.367        0.068      336.775        8.303      870.393
01/23/2022  14:42:00       44.204       39.639       -8.852       28.270       25.327       19.210      799.214      641.451      369.034        0.271        0.090       59.374       10.818        0.033      336.783        8.316      870.394
01/23/2022  14:43:00       56.343       18.815      -21.078       21.271       18.800       20.308      452.437      353.454      412.400        0.260        0.061       59.401        6.753        0.013      336.695        8.170      870.392
01/23/2022  14:44:00       32.125       23.755      -13.210       30.482       27.861       24.524      929.152      776.227      601.417        0.204        0.115       39.954       14.299        0.128      336.929        8.559      870.395
01/23/2022  14:45:00       28.531        5.415      -12.354       18.221       18.116       16.509      331.999      328.205      272.534        0.096        0.047       29.041        4.455        0.024      336.987        8.657      870.390
01/23/2022  14:46:00       14.603      -24.346       -7.693       19.376       22.004       12.221      375.429      484.163      149.364        0.094        0.050       28.390        8.887        0.098      337.242        9.084      870.391
01/23/2022  14:47:00       26.907       16.645       -7.828       28.175       19.414       10.990      793.815      376.892      120.781        0.118        0.065       31.640       11.502        0.132      337.057        8.775      870.389
01/23/2022  14:48:00       30.311       -1.461      -11.504       31.679       39.758       21.660     1003.552     1580.696      469.135        0.205        0.153       30.347       18.768        0.383      337.198        9.010      870.385
01/23/2022  14:49:00        1.355      -15.663       -5.517       43.061       44.942       32.987     1854.292     2019.767     1088.149        0.262        0.248       15.721       20.281        1.664      337.079        8.811      870.376
01/23/2022  14:50:00       47.200      -56.111      -11.249       31.269       50.814       24.227      977.764     2582.029      586.959        0.482        0.207       73.323       14.859        0.041      336.879        8.477      870.361
01/23/2022  14:51:00       76.930      -11.782      -32.030       55.231       47.483       26.116     3050.514     2254.680      682.043        0.653        0.299       77.827       13.782        0.031      336.955        8.603      870.345
01/23/2022  14:52:00       73.487      -25.637      -23.151       69.832       78.679       39.431     4876.538     6190.360     1554.831        0.961        0.631       77.831       30.114        0.150      337.020        8.712      870.334
01/23/2022  14:53:00       71.109      -24.218      -35.221       49.936       52.640       34.023     2493.585     2771.006     1157.536        0.665        0.321       75.119       19.166        0.065      336.917        8.541      870.340
01/23/2022  14:54:00       30.013       -1.200      -20.129       34.170       39.794       26.604     1167.580     1583.578      707.756        0.238        0.173       30.037       15.641        0.271      337.030        8.728      870.334
01/23/2022  14:55:00       41.377       18.010       -8.696       50.855       52.314       37.086     2586.233     2736.763     1375.366        0.440        0.335       45.126       26.422        0.343      337.034        8.737      870.325
01/23/2022  14:56:00       70.577       57.272      -24.845       47.013       32.394       26.664     2210.182     1049.362      710.953        0.642        0.199       90.891       14.287        0.025      336.727        8.223      870.320
01/23/2022  14:57:00       53.357       -2.189      -15.560       32.534       41.481       24.062     1058.491     1720.645      578.967        0.323        0.168       53.402       17.786        0.111      336.868        8.459      870.307
01/23/2022  14:58:00       32.444       34.212       -1.348       26.149       19.059       15.944      683.748      363.261      254.225        0.176        0.065       47.150       11.783        0.062      336.831        8.397      870.297
01/23/2022  14:59:00       21.245       45.092       -7.999       13.589       20.726       21.305      184.672      429.586      453.922        0.181        0.053       49.846       16.369        0.108      336.877        8.473      870.284
01/23/2022  15:00:00       23.279       54.380       -7.729       20.679       32.986       15.693      427.604     1088.051      246.260        0.266        0.088       59.153       10.577        0.032      337.029        8.727      870.271
01/23/2022  15:01:00       12.018       15.572       -3.438       11.736       13.334       11.922      137.743      177.802      142.131        0.043        0.023       19.671        5.300        0.073      337.031        8.732      870.265
01/23/2022  15:02:00       26.851        0.901      -11.421       16.835       16.526       13.684      283.423      273.103      187.249        0.080        0.037       26.867        8.695        0.105      336.882        8.480      870.256
01/23/2022  15:03:00        9.275       10.064       -1.200       22.626       29.700       16.395      511.942      882.092      268.792        0.093        0.083       13.686       17.973        1.725      337.285        9.156      870.246
01/23/2022  15:04:00       31.994       46.425      -16.247       20.537       23.247       17.190      421.757      540.419      295.482        0.235        0.063       56.382        7.468        0.018      336.896        8.505      870.243
01/23/2022  15:05:00       29.328       47.720      -11.613       30.967       15.924       22.466      958.981      253.575      504.712        0.249        0.086       56.012       12.432        0.049      336.904        8.519      870.239
01/23/2022  15:06:00        0.200       93.050       -7.835       40.063       30.785       21.049     1605.065      947.725      443.059        0.586        0.150       93.050       13.914        0.022      337.154        8.937      870.230
01/23/2022  15:07:00       10.384       89.233      -18.366       30.627       29.783       21.514      938.035      887.048      462.867        0.535        0.114       89.835       15.253        0.029      336.859        8.442      870.218
01/23/2022  15:08:00        6.603      109.685      -20.640       35.225       27.731       24.487     1240.780      769.020      599.611        0.755        0.130      109.884       14.662        0.018      337.210        9.030      870.213
01/23/2022  15:09:00      -25.400       73.753      -20.671       23.024       32.799       24.138      530.082     1075.791      582.650        0.435        0.109       78.004        5.258        0.005      337.241        9.084      870.197
01/23/2022  15:10:00       27.898       79.334       -4.959       24.501       26.152       17.488      600.285      683.912      305.837        0.434        0.080       84.096       11.386        0.018      337.115        8.871      870.182
01/23/2022  15:11:00        0.112      109.158      -10.523       42.736       35.886       23.118     1826.403     1287.816      534.461        0.784        0.182      109.158       20.630        0.036      337.122        8.883      870.161
01/23/2022  15:12:00       49.474       90.537      -20.864       47.258       46.706       29.338     2233.350     2181.488      860.694        0.818        0.264      103.172       26.498        0.066      336.821        8.379      870.152
01/23/2022  15:13:00       77.386       62.595      -10.964       30.060       27.969       23.199      903.592      782.268      538.194        0.613        0.111       99.532       15.036        0.023      336.785        8.320      870.142
01/23/2022  15:14:00       97.403       33.097      -17.878       26.431       35.754       15.705      698.611     1278.367      246.663        0.656        0.111      102.872       10.159        0.010      336.765        8.287      870.125
01/23/2022  15:15:00       63.465        6.895      -17.194       54.396       40.224       30.452     2958.979     1617.966      927.312        0.494        0.275       63.839       24.859        0.152      336.878        8.474      870.115
01/23/2022  15:16:00       61.880       66.821      -16.169       23.264       21.058       13.425      541.222      443.429      180.230        0.486        0.058       91.072       11.487        0.016      336.705        8.185      870.108
01/23/2022  15:17:00      -29.958       40.465      -25.004       31.634       19.764       23.740     1000.715      390.603      563.589        0.256        0.098       50.347       16.142        0.103      336.942        8.584      870.096
01/23/2022  15:18:00       42.490      111.061      -18.020       31.560       39.189       26.019      996.012     1535.799      676.975        0.884        0.160      118.912       18.479        0.024      336.898        8.507      870.078
01/23/2022  15:19:00       81.256       58.113      -24.929       14.823       26.368       18.659      219.723      695.280      348.164        0.593        0.063       99.899       10.301        0.011      336.717        8.208      870.056
01/23/2022  15:20:00       70.437       67.352      -14.638       15.609       18.665       13.501      243.628      348.366      182.264        0.524        0.039       97.456        7.794        0.006      336.705        8.187      870.033
01/23/2022  15:21:00       65.273       78.088      -12.427       28.091       28.726       19.404      789.106      825.159      376.506        0.625        0.100      101.776       12.475        0.015      336.780        8.311      870.010
01/23/2022  15:22:00        2.024       49.746       -1.489       36.738       28.441       20.281     1349.717      808.880      411.301        0.252        0.128       49.788       11.106        0.050      337.118        8.876      869.999
01/23/2022  15:23:00      -44.153       78.409      -12.862       19.438       27.145       27.106      377.853      736.835      734.755        0.506        0.092       89.986       12.300        0.019      337.398        9.346      869.987
01/23/2022  15:24:00        5.892       91.816      -12.233       28.028       26.302       22.382      785.544      691.802      500.936        0.530        0.099       92.005       15.987        0.030      337.111        8.866      869.987
01/23/2022  15:25:00       41.619       50.284       -6.488       24.309       21.413       17.403      590.913      458.499      302.875        0.283        0.068       65.274       11.698        0.032      336.961        8.614      869.990
01/23/2022  15:26:00       34.208       51.633      -12.957       25.978       26.216       22.094      674.848      687.289      488.126        0.293        0.093       61.937       16.598        0.072      337.036        8.739      869.991
01/23/2022  15:27:00       33.843       10.500       -9.518       34.699       16.430       11.126     1204.049      269.935      123.784        0.147        0.080       35.434        6.660        0.035      337.017        8.706      869.987
01/23/2022  15:28:00       36.950       42.264       -6.895       29.267       22.855       19.999      856.578      522.354      399.941        0.249        0.089       56.139       16.159        0.083      337.098        8.844      869.983
01/23/2022  15:29:00        9.935      -10.584      -21.489       32.461       54.310       27.931     1053.695     2949.543      780.123        0.273        0.239       14.516       18.244        1.580      337.102        8.850      869.976
01/23/2022  15:30:00       49.979      -97.833      -16.386       52.197       62.334       42.283     2724.557     3885.514     1787.850        1.037        0.420      109.860       37.022        0.114      336.914        8.536      869.968
01/23/2022  15:31:00       18.648      -23.235      -27.623       43.698       82.101       32.086     1909.507     6740.645     1029.500        0.566        0.484       29.793       23.846        0.641      336.846        8.422      869.959
01/23/2022  15:32:00       41.328      -83.669      -20.047       38.685       68.421       31.528     1496.559     4681.482      994.011        0.814        0.359       93.320       28.836        0.095      336.879        8.477      869.957
01/23/2022  15:33:00       28.211      -50.847      -33.771       25.320       48.870       25.774      641.078     2388.324      664.291        0.411        0.185       58.149       22.365        0.148      336.952        8.600      869.964
01/23/2022  15:34:00      -16.405      -11.127      -14.195       19.132       25.817       18.165      366.017      666.528      329.955        0.098        0.068       19.823       10.444        0.278      337.066        8.790      869.972
01/23/2022  15:35:00       17.408        9.042       -8.821       28.098       22.637       18.022      789.494      512.452      324.782        0.104        0.081       19.616        6.943        0.125      337.098        8.842      869.975
01/23/2022  15:36:00       89.377       15.277      -10.064       24.646       23.207       17.358      607.449      538.578      301.310        0.488        0.072       90.673       11.583        0.016      336.864        8.452      869.977
01/23/2022  15:37:00       37.279       39.930       -9.508       18.375        8.964       14.385      337.641       80.346      206.940        0.185        0.031       54.627        9.576        0.031      336.894        8.502      869.984
01/23/2022  15:38:00       44.404       38.998       -9.681       23.013        9.170       13.402      529.595       84.095      179.603        0.219        0.040       59.098       11.196        0.036      336.893        8.500      869.984
01/23/2022  15:39:00       81.530       57.871      -12.219       35.874       30.566       20.605     1286.914      934.308      424.569        0.640        0.132       99.981       11.149        0.012      336.959        8.610      869.983
01/23/2022  15:40:00       16.157       26.271      -17.618       40.877       33.895       26.916     1670.962     1148.881      724.473        0.240        0.177       30.842       10.032        0.106      337.166        8.956      869.970
01/23/2022  15:41:00       28.425        3.212      -14.526       41.784       58.256       38.198     1745.862     3393.810     1459.091        0.381        0.330       28.606       30.302        1.122      337.181        8.981      869.964
01/23/2022  15:42:00       58.573      -54.480      -33.494       48.008       36.980       35.783     2304.795     1367.512     1280.449        0.624        0.248       79.993       24.734        0.096      336.900        8.512      869.964
01/23/2022  15:43:00       28.852      -25.231      -28.769       30.576       57.501       25.198      934.867     3306.362      634.955        0.359        0.244       38.328        8.300        0.047      336.980        8.646      869.958
01/23/2022  15:44:00       -2.360       -1.424      -15.785       21.111       35.179       21.400      445.679     1237.555      457.956        0.120        0.107        2.756       15.457       31.443      337.061        8.780      869.948
01/23/2022  15:45:00       12.244        2.695       -6.140       36.511       36.238       24.359     1333.034     1313.171      593.365        0.172        0.162       12.538       21.795        3.022      337.192        9.000      869.930
01/23/2022  15:46:00       11.471      -51.800      -14.513       19.144       29.577       21.570      366.506      874.794      465.285        0.237        0.085       53.055       13.795        0.068      337.191        8.999      869.925
01/23/2022  15:47:00       38.855      -83.697      -29.441       28.374       32.584       25.069      805.102     1061.686      628.433        0.594        0.125       92.276        8.236        0.008      337.157        8.942      869.916
01/23/2022  15:48:00      -43.916      -59.652      -42.004       34.961       35.630       20.191     1222.239     1269.467      407.676        0.507        0.145       74.074       13.476        0.033      337.256        9.108      869.910
01/23/2022  15:49:00        3.013      -14.104      -15.464       21.995       23.975       20.858      483.782      574.806      435.070        0.097        0.075       14.422       17.361        1.449      337.342        9.251      869.911
01/23/2022  15:50:00        7.539       -8.386       -4.785       21.348       22.240       18.788      455.752      494.623      352.990        0.073        0.065       11.276       10.263        0.828      337.478        9.477      869.910
01/23/2022  15:51:00        5.518       -3.140       -3.870       16.992       22.586       16.226      288.741      510.127      263.282        0.056        0.053        6.349       10.025        2.494      337.655        9.774      869.908
01/23/2022  15:52:00       25.690       -2.007       -7.861       28.312       32.776       16.480      801.561     1074.244      271.582        0.144        0.107       25.768       10.005        0.151      337.322        9.218      869.903
01/23/2022  15:53:00        8.798      -15.657        1.161       13.266       25.795       17.999      175.981      665.363      323.953        0.074        0.058       17.959       12.653        0.496      337.429        9.397      869.906
01/23/2022  15:54:00       14.492        2.958       -3.507        9.733        8.519       10.011       94.734       72.577      100.211        0.025        0.013       14.791        4.834        0.107      337.219        9.046      869.908
01/23/2022  15:55:00       31.129       42.801      -12.534       24.344       16.588       14.235      592.644      275.169      202.631        0.201        0.054       52.923       10.383        0.038      337.086        8.824      869.906
01/23/2022  15:56:00       28.552       39.521       -4.037       24.184       14.521       14.246      584.850      210.867      202.960        0.170        0.050       48.756       11.007        0.051      336.987        8.656      869.912
01/23/2022  15:57:00        8.661       11.731       -3.146       24.508       31.187       22.058      600.636      972.608      486.577        0.114        0.103       14.582       18.149        1.549      337.290        9.163      869.902
01/23/2022  15:58:00       52.249        0.623       -5.100       43.434       25.447       15.973     1886.504      647.549      255.140        0.277        0.139       52.253       10.328        0.039      337.122        8.884      869.907
01/23/2022  15:59:00       22.309      -81.278      -31.851       43.390       52.910       29.938     1882.696     2799.435      896.296        0.685        0.279       84.284       36.600        0.189      337.246        9.092      869.901
01/23/2022  16:00:00       16.403      -86.823      -20.124       67.918       45.758       25.707     4612.904     2093.764      660.854        0.779        0.368       88.359       28.669        0.105      337.198        9.010      869.906
01/23/2022  16:01:00       65.698      -77.834      -24.181       19.979       25.615       19.127      399.162      656.145      365.830        0.619        0.071      101.855       13.449        0.017      337.009        8.693      869.921
01/23/2022  16:02:00       22.598      -35.652       -3.874       32.131       32.989       30.839     1032.370     1088.267      951.037        0.243        0.154       42.211       23.793        0.318      337.172        8.966      869.926
01/23/2022  16:03:00        7.294      -49.193      -19.515       31.065       36.306       22.809      965.019     1318.151      520.242        0.283        0.140       49.731       16.333        0.108      337.310        9.198      869.930
01/23/2022  16:04:00       33.913      -68.682      -18.887       33.970       52.127       23.206     1153.985     2717.207      538.540        0.532        0.220       76.598        8.573        0.013      337.178        8.978      869.931
01/23/2022  16:05:00       38.875      -58.310      -16.802       26.301       36.651       23.222      691.725     1343.282      539.267        0.388        0.129       70.081       18.165        0.067      337.167        8.959      869.936
01/23/2022  16:06:00       75.269      -58.670      -18.626       37.514       43.490       34.230     1407.312     1891.351     1171.722        0.696        0.224       95.434       24.810        0.068      337.171        8.965      869.923
01/23/2022  16:07:00       14.589      -42.407      -23.479       52.314       53.436       32.899     2736.768     2855.454     1082.315        0.462        0.334       44.846       24.423        0.297      337.156        8.940      869.911
01/23/2022  16:08:00      -53.739      -31.784       -0.070       31.932       23.655       25.028     1019.668      559.575      626.420        0.305        0.110       62.435       11.652        0.035      337.418        9.379      869.911
01/23/2022  16:09:00      -29.606      -55.068      -15.429       54.558       51.389       38.889     2976.579     2640.804     1512.374        0.564        0.356       62.522       31.287        0.250      337.402        9.353      869.914
01/23/2022  16:10:00       62.352      -57.188      -19.154       40.024       39.433       33.615     1601.897     1554.993     1129.950        0.591        0.214       84.607       28.995        0.117      337.121        8.882      869.916
01/23/2022  16:11:00       65.086      -44.232      -19.113       26.507       26.434       22.767      702.645      698.780      518.338        0.424        0.096       78.693       15.621        0.039      336.949        8.593      869.916
01/23/2022  16:12:00       75.325       13.381      -21.689       33.385       58.368       21.601     1114.552     3406.772      466.591        0.565        0.249       76.504       14.814        0.037      336.906        8.522      869.923
01/23/2022  16:13:00       -0.971      -11.800        4.294       33.151       53.152       21.027     1098.963     2825.129      442.122        0.226        0.218       11.840       10.290        0.755      337.005        8.686      869.923
01/23/2022  16:14:00       31.687      -54.446      -23.837       25.904       19.408       15.417      671.020      376.681      237.677        0.291        0.064       62.996        7.410        0.014      337.015        8.705      869.911
01/23/2022  16:15:00       34.057      -39.806      -10.782       21.450       36.014       24.056      460.085     1297.001      578.685        0.260        0.117       52.387       19.837        0.143      337.249        9.096      869.906
01/23/2022  16:16:00       50.733        2.398       -2.536       34.481       26.445       22.033     1188.970      699.319      485.465        0.248        0.119       50.790       20.132        0.157      337.130        8.897      869.900
01/23/2022  16:17:00       17.427      -22.150        0.613       46.796       40.137       42.241     2189.864     1610.985     1784.306        0.319        0.279       28.184       32.408        1.322      337.140        8.914      869.896
01/23/2022  16:18:00       23.973      -14.278        2.946       50.685       27.490       35.281     2568.944      755.685     1244.772        0.268        0.228       27.903       28.765        1.063      337.154        8.938      869.892
01/23/2022  16:19:00       30.361        2.002       -3.621       36.775       31.439       30.471     1352.417      988.414      928.490        0.210        0.163       30.427       26.529        0.760      337.141        8.916      869.899
01/23/2022  16:20:00      103.611      -16.236      -11.268       47.322       34.365       31.377     2239.418     1180.986      984.534        0.776        0.220      104.875       24.594        0.055      336.993        8.667      869.902
01/23/2022  16:21:00      137.074      -23.642       -6.439       71.919       44.604       41.496     5172.389     1989.524     1721.935        1.414        0.444      139.098       40.280        0.084      337.022        8.715      869.885
01/23/2022  16:22:00       85.220      -25.446      -32.989       49.766       64.808       43.577     2476.616     4200.101     1898.975        0.879        0.429       88.938       27.197        0.094      337.134        8.903      869.874
01/23/2022  16:23:00       77.320       -2.823      -15.720       61.053       37.608       37.207     3727.494     1414.377     1384.370        0.638        0.326       77.372       27.681        0.128      337.056        8.772      869.873
01/23/2022  16:24:00       98.858      -17.670      -22.557       51.740       35.181       29.291     2677.034     1237.723      857.971        0.768        0.239      100.424       17.303        0.030      336.987        8.656      869.873
01/23/2022  16:25:00       84.513       -9.717      -22.456       33.473       34.526       22.593     1120.447     1192.079      510.428        0.528        0.141       85.070       17.783        0.044      336.967        8.624      869.877
01/23/2022  16:26:00       96.795       -1.451      -12.163       25.333       19.728       14.488      641.747      389.191      209.916        0.538        0.062       96.806       14.808        0.023      336.969        8.628      869.876
01/23/2022  16:27:00       87.669        8.876      -13.971       25.788       20.382       13.278      665.020      415.427      176.302        0.461        0.063       88.117        7.706        0.008      336.934        8.570      869.877
01/23/2022  16:28:00       84.934       21.783      -10.881       17.311       16.722       11.852      299.656      279.610      140.479        0.426        0.036       87.683        5.554        0.004      336.925        8.554      869.870
01/23/2022  16:29:00       76.684       -6.507      -12.671       23.352       16.750       16.857      545.313      280.569      284.152        0.360        0.056       76.960       14.165        0.034      336.970        8.628      869.872
01/23/2022  16:30:00       91.653        4.392       -7.138       23.366       15.622       17.448      545.958      244.053      304.428        0.478        0.055       91.759       11.422        0.015      336.949        8.591      869.865
01/23/2022  16:31:00       80.718       -8.722      -11.251       32.262       37.076       15.539     1040.862     1374.659      241.455        0.469        0.133       81.187       15.129        0.035      336.978        8.642      869.870
01/23/2022  16:32:00       16.989       -9.593        0.714       33.711       27.430       21.793     1136.442      752.388      474.923        0.137        0.118       19.510       20.891        1.147      337.145        8.921      869.873
01/23/2022  16:33:00       41.739      -30.736      -26.467       22.425       40.852       15.803      502.901     1668.883      249.728        0.290        0.121       51.835       12.991        0.063      337.062        8.784      869.879
01/23/2022  16:34:00       24.853      -46.158      -28.351       31.659       30.664       20.571     1002.307      940.298      423.163        0.296        0.118       52.424       14.320        0.075      337.142        8.915      869.883
01/23/2022  16:35:00       15.056      -44.175      -19.372       16.881       17.460       22.149      284.974      304.836      490.585        0.182        0.054       46.670       13.510        0.084      337.087        8.821      869.886
01/23/2022  16:36:00       24.241      -25.591       -5.932       22.675       34.941       23.206      514.165     1220.871      538.522        0.178        0.114       35.250       14.961        0.180      337.154        8.938      869.883
01/23/2022  16:37:00       30.411        3.609      -20.937       16.988       33.617       14.892      288.581     1130.108      221.760        0.151        0.082       30.624       14.729        0.231      337.037        8.741      869.878
01/23/2022  16:38:00       30.199       -0.539       -1.766       24.406       27.027       19.795      595.636      730.457      391.851        0.132        0.086       30.204       17.284        0.327      337.034        8.736      869.865
01/23/2022  16:39:00       18.402       -2.791       -7.773       41.493       33.946       25.453     1721.701     1152.316      647.843        0.196        0.176       18.613       23.804        1.636      337.015        8.704      869.849
01/23/2022  16:40:00       20.463      -12.569       -1.315       44.586       39.019       30.737     1987.893     1522.514      944.762        0.252        0.223       24.015       29.074        1.466      337.048        8.759      869.835
01/23/2022  16:41:00       17.118       -0.815        2.407       28.435       28.845       25.798      808.563      832.021      665.531        0.130        0.115       17.138       18.112        1.117      337.022        8.716      869.827
01/23/2022  16:42:00       -0.412       -5.960        0.355       35.677       38.920       24.116     1272.874     1514.798      581.590        0.170        0.168        5.974       16.261        7.408      337.089        8.829      869.819
01/23/2022  16:43:00       18.938      -15.176        8.099       41.292       33.699       24.557     1705.003     1135.634      603.022        0.205        0.172       24.269       24.343        1.006      337.082        8.816      869.821
01/23/2022  16:44:00       50.499      -19.173       -7.230       39.880       24.880       27.462     1590.444      619.029      754.137        0.297        0.148       54.016       21.658        0.161      336.968        8.626      869.828
01/23/2022  16:45:00       42.187      -13.544      -13.234       41.091       28.330       33.880     1688.435      802.599     1147.874        0.289        0.182       44.308       30.698        0.480      336.979        8.643      869.837
01/23/2022  16:46:00       15.244        3.451       -7.565       34.452       36.520       23.789     1186.958     1333.723      565.905        0.169        0.154       15.630       16.622        1.131      337.000        8.678      869.841
01/23/2022  16:47:00       13.991      -21.501      -11.169       33.266       29.675       28.638     1106.595      880.598      820.125        0.179        0.140       25.652       18.672        0.530      337.027        8.724      869.846
01/23/2022  16:48:00       33.628       15.093      -20.014       16.665       28.232       15.725      277.733      797.051      247.269        0.154        0.066       36.859        9.132        0.061      336.936        8.571      869.853
01/23/2022  16:49:00       51.706        0.958       -8.481       20.909       23.800       12.163      437.171      566.455      147.931        0.195        0.058       51.715        8.838        0.029      336.883        8.483      869.852
01/23/2022  16:50:00      106.895       22.738       -7.663       23.605       16.304       11.922      557.192      265.824      142.129        0.648        0.048      109.287       12.179        0.012      336.873        8.465      869.856
01/23/2022  16:51:00      106.134       17.622       -6.106       12.997       12.524       13.392      168.924      156.860      179.332        0.606        0.025      107.587        8.975        0.007      336.899        8.512      869.849
01/23/2022  16:52:00       76.949        5.577       -5.350       19.095       21.242       13.993      364.611      451.208      195.807        0.350        0.051       77.151        8.943        0.013      336.892        8.498      869.834
01/23/2022  16:53:00       45.258        5.938       -9.275       19.509       16.408       11.256      380.608      269.227      126.696        0.147        0.039       45.646        7.740        0.029      336.868        8.457      869.828
01/23/2022  16:54:00       28.423       -8.390       -3.655       20.221       15.977       10.669      408.905      255.256      113.833        0.083        0.039       29.636        8.096        0.075      336.866        8.455      869.815
01/23/2022  16:55:00       31.524       -3.261       -4.923       21.607       17.877       13.027      466.873      319.602      169.694        0.099        0.048       31.692        4.708        0.022      336.835        8.401      869.807
01/23/2022  16:56:00       70.243      -13.326       -9.061       31.374       16.056       16.780      984.333      257.809      281.573        0.336        0.076       71.496       12.789        0.032      336.807        8.355      869.794
01/23/2022  16:57:00       57.927      -12.920       -3.369       36.664       20.057       23.139     1344.233      402.291      535.427        0.291        0.114       59.350       18.856        0.101      336.791        8.331      869.793
01/23/2022  16:58:00       60.260      -17.947       -5.947       37.678       20.656       21.662     1419.640      426.682      469.248        0.315        0.116       62.876       21.045        0.112      336.807        8.356      869.797
01/23/2022  16:59:00       51.557       16.623       -7.196       35.970       42.761       27.230     1293.870     1828.476      741.454        0.342        0.193       54.171       19.971        0.136      336.868        8.458      869.802
01/23/2022  17:00:00       61.835       11.443      -18.086       31.575       45.122       26.518      997.007     2036.013      703.206        0.401        0.187       62.885       16.300        0.067      336.914        8.535      869.805
01/23/2022  17:01:00       71.652       -6.847       -7.209       37.206       33.412       22.796     1384.269     1116.345      519.674        0.413        0.151       71.978       22.092        0.094      336.863        8.449      869.806
01/23/2022  17:02:00       71.968       -2.166        1.804       38.740       20.976       23.417     1500.763      439.990      548.342        0.384        0.124       72.000       18.917        0.069      336.794        8.335      869.812
01/23/2022  17:03:00       58.640       -1.549       -2.809       31.938       20.389       16.575     1020.046      415.721      274.726        0.258        0.086       58.660       12.648        0.046      336.751        8.265      869.813
01/23/2022  17:04:00       99.723       20.755       -5.572       39.530       32.691       20.599     1562.582     1068.682      424.324        0.673        0.153      101.860       12.584        0.015      336.791        8.331      869.806
01/23/2022  17:05:00       59.431       -3.381        3.452       33.524       28.493       17.704     1123.858      811.875      313.431        0.290        0.112       59.527       14.757        0.061      336.695        8.172      869.800
01/23/2022  17:06:00       56.150      -21.393      -12.352       17.063       12.473       14.946      291.133      155.565      223.381        0.222        0.034       60.087       11.494        0.037      336.731        8.231      869.796
01/23/2022  17:07:00       32.936       -7.852       -4.871       27.684       20.859       14.500      766.394      435.078      210.251        0.129        0.071       33.859       11.172        0.109      336.767        8.288      869.786
01/23/2022  17:08:00       64.696      -65.311      -14.778       35.749       36.069       26.462     1277.995     1300.992      700.220        0.597        0.164       91.930       20.489        0.050      336.902        8.515      869.771
01/23/2022  17:09:00       34.188      -28.274       -9.114       23.683       32.660       20.792      560.899     1066.698      432.324        0.206        0.103       44.364       14.601        0.108      336.808        8.358      869.780
01/23/2022  17:10:00       -2.221       -2.500       -2.780       13.133       19.268       22.053      172.465      371.259      486.320        0.052        0.052        3.344       12.416       13.790      336.686        8.155      869.779
01/23/2022  17:11:00       38.823      -67.011      -17.536       36.254       51.665       24.095     1314.348     2669.255      580.565        0.543        0.228       77.445       24.304        0.098      336.852        8.432      869.786
01/23/2022  17:12:00       86.568      -85.088      -36.760       25.986       35.852       19.539      675.253     1285.371      381.759        0.921        0.117      121.383       14.405        0.014      336.907        8.524      869.785
01/23/2022  17:13:00       22.050      -50.408      -12.779       58.496       30.527       25.636     3421.839      931.902      657.214        0.410        0.251       55.020       17.355        0.099      336.849        8.426      869.779
01/23/2022  17:14:00       19.994      -97.446      -11.857       28.402       25.709       22.469      806.663      660.929      504.857        0.600        0.099       99.476       11.940        0.014      336.968        8.624      869.781
01/23/2022  17:15:00       24.773      -21.209      -14.546       20.307       39.309       15.726      412.357     1545.189      247.310        0.174        0.110       32.612        5.206        0.025      336.832        8.398      869.790
01/23/2022  17:16:00      -35.906       18.069      -21.879       24.382       25.374       11.162      594.503      643.843      124.579        0.173        0.068       40.196       11.049        0.076      336.736        8.239      869.800
01/23/2022  17:17:00       -3.355       24.263       -6.788       27.887       18.149       16.841      777.701      329.388      283.617        0.102        0.070       24.494       13.097        0.286      336.753        8.267      869.822
01/23/2022  17:18:00      -28.928       19.582       -3.475       19.302       24.806       15.739      372.557      615.337      247.703        0.123        0.062       34.932       11.989        0.118      336.741        8.245      869.832
01/23/2022  17:19:00      -47.842      -23.177       -9.712       39.903       29.332       19.826     1592.268      860.362      393.077        0.288        0.142       53.160       10.471        0.039      336.675        8.138      869.834
01/23/2022  17:20:00      -62.930      -17.765       -9.133       30.147       26.138       16.726      908.835      683.213      279.759        0.312        0.094       65.389        8.886        0.018      336.576        7.971      869.824
01/23/2022  17:21:00      -60.136       -8.686       -4.375       25.476       24.484       15.438      649.006      599.487      238.338        0.260        0.074       60.760        7.607        0.016      336.738        8.242      869.823
01/23/2022  17:22:00      -84.367       -0.990       -5.545       35.491       26.850       20.374     1259.600      720.923      415.086        0.477        0.120       84.373       16.820        0.040      336.726        8.223      869.815
01/23/2022  17:23:00      -60.277      -33.936      -15.380       47.729       31.010       19.101     2278.018      961.630      364.833        0.431        0.180       69.173       17.321        0.063      336.619        8.043      869.810
01/23/2022  17:24:00      -70.823      -15.937      -15.110       33.143       22.095       15.144     1098.478      488.190      229.334        0.366        0.091       72.594       10.885        0.022      336.615        8.038      869.814
01/23/2022  17:25:00      -37.805       -0.076       -6.509       28.636       28.626       19.161      820.021      819.450      367.136        0.174        0.100       37.805       17.298        0.209      336.493        7.832      869.813
01/23/2022  17:26:00      -68.613       13.634        0.360       41.575       29.404       20.255     1728.462      864.600      410.265        0.395        0.150       69.954       21.825        0.097      336.406        7.686      869.812
01/23/2022  17:27:00      -39.808        2.754       -2.021       36.935       25.448       13.835     1364.170      647.621      191.416        0.190        0.110       39.903       10.884        0.074      336.124        7.215      869.807
01/23/2022  17:28:00      -86.292       16.817      -12.266       37.061       26.780       17.131     1373.548      717.182      293.476        0.513        0.119       87.915        7.649        0.008      336.038        7.071      869.798
01/23/2022  17:29:00      -68.041       13.102       -6.609       46.607       27.261       19.636     2172.168      743.141      385.567        0.407        0.165       69.291       22.232        0.103      335.981        6.977      869.793
01/23/2022  17:30:00      -77.656        9.832       -9.357       44.506       30.637       18.541     1980.811      938.603      343.784        0.474        0.163       78.275       18.767        0.057      335.913        6.864      869.784
01/23/2022  17:31:00      -56.179        7.863      -12.174       38.735       27.746       25.233     1500.406      769.823      636.697        0.314        0.145       56.726       19.380        0.117      335.892        6.830      869.787
01/23/2022  17:32:00      -25.171        2.099      -12.726       38.415       31.644       21.872     1475.716     1001.369      478.397        0.188        0.148       25.258       17.610        0.486      335.763        6.614      869.800
01/23/2022  17:33:00      -43.508       -1.158      -17.542       46.799       30.883       20.393     2190.175      953.738      415.863        0.288        0.178       43.524       21.936        0.254      335.683        6.480      869.810
01/23/2022  17:34:00      -38.579        0.335      -12.963       31.713       27.482       24.542     1005.687      755.286      602.299        0.201        0.118       38.580       20.512        0.283      335.661        6.444      869.823
01/23/2022  17:35:00      -35.371        0.096       -8.647       37.528       31.486       22.527     1408.320      991.359      507.482        0.212        0.145       35.371       15.134        0.183      335.628        6.388      869.833
01/23/2022  17:36:00      -54.146        6.499       -6.674       48.265       26.833       18.416     2329.511      720.007      339.162        0.320        0.169       54.534       20.912        0.147      335.651        6.427      869.836
01/23/2022  17:37:00      -78.527       21.961       -6.563       36.049       23.625       17.447     1299.533      558.150      304.406        0.443        0.108       81.540       10.517        0.017      335.877        6.803      869.842
01/23/2022  17:38:00      -28.830        4.185       -5.210       39.674       27.514       20.174     1574.002      757.011      406.976        0.181        0.137       29.132       14.629        0.252      335.746        6.584      869.843
01/23/2022  17:39:00      -45.473        8.890       -2.860       49.541       32.769       24.311     2454.314     1073.778      591.019        0.314        0.206       46.334       21.542        0.216      335.712        6.527      869.842
01/23/2022  17:40:00      -36.288        0.188       -6.082       47.352       37.886       22.918     2242.212     1435.348      525.258        0.278        0.210       36.288       23.721        0.427      335.566        6.285      869.849
01/23/2022  17:41:00        0.393        4.817       -6.052       18.812       21.207       22.196      353.875      449.746      492.667        0.068        0.065        4.833       13.028        7.266      335.405        6.017      869.858
01/23/2022  17:42:00      -47.859        8.734      -11.131       46.393       36.888       23.553     2152.281     1360.750      554.745        0.328        0.203       48.650       13.824        0.081      335.446        6.085      869.856
01/23/2022  17:43:00     -113.733       36.511      -13.718       17.984       17.250       14.020      323.410      297.573      196.557        0.764        0.041      119.450       11.088        0.009      335.446        6.084      869.873
01/23/2022  17:44:00     -108.372       34.555      -11.442       24.529       19.770       16.012      601.692      390.842      256.390        0.716        0.062      113.747       11.077        0.009      335.376        5.968      869.884
01/23/2022  17:45:00      -89.495       15.356      -13.130       33.458       32.196       14.512     1119.470     1036.600      210.606        0.539        0.118       90.803        8.793        0.009      335.357        5.936      869.895
01/23/2022  17:46:00      -40.387        8.657       -9.822       31.214       27.492       25.120      974.287      755.786      631.027        0.208        0.118       41.304       16.199        0.154      335.342        5.910      869.914
01/23/2022  17:47:00      -38.993        6.732      -10.206       42.992       28.140       24.260     1848.275      791.865      588.563        0.245        0.161       39.570       26.412        0.446      335.267        5.786      869.927
01/23/2022  17:48:00      -60.267       17.467       -5.607       48.662       34.688       23.427     2368.009     1203.252      548.839        0.404        0.206       62.747       21.290        0.115      335.308        5.855      869.940
01/23/2022  17:49:00     -100.499       28.524      -12.533       30.826       26.335       19.281      950.261      693.527      371.745        0.654        0.101      104.469       14.209        0.019      335.248        5.755      869.958
01/23/2022  17:50:00      -92.122       45.503      -14.269       25.095       19.436       17.803      629.758      377.760      316.954        0.604        0.066      102.747       14.423        0.020      335.193        5.664      869.974
01/23/2022  17:51:00     -121.683       42.947      -18.305       17.715       24.209       17.861      313.810      586.087      319.018        0.910        0.061      129.040        9.488        0.005      335.178        5.641      869.982
01/23/2022  17:52:00     -130.608       55.202      -15.794       18.831       19.303       17.629      354.606      372.623      310.765        1.070        0.052      141.794        7.215        0.003      335.123        5.548      869.986
01/23/2022  17:53:00     -129.202       59.984      -15.687       34.579       26.854       20.047     1195.713      721.120      401.882        1.143        0.116      142.447       12.909        0.008      335.161        5.611      869.996
01/23/2022  17:54:00     -131.541       68.642      -15.301       38.552       36.077       26.537     1486.256     1301.571      704.213        1.287        0.175      148.374       24.226        0.027      335.154        5.600      869.997
01/23/2022  17:55:00     -127.733       54.193      -18.549       24.991       20.057       21.112      624.558      402.287      445.718        1.053        0.074      138.754       11.601        0.007      335.070        5.461      870.007
01/23/2022  17:56:00     -135.835       47.909      -18.779       26.182       26.416       21.051      685.498      697.826      443.126        1.146        0.091      144.036       13.009        0.008      335.101        5.513      870.015
01/23/2022  17:57:00     -113.644       22.020      -16.882       42.489       36.212       25.788     1805.351     1311.309      665.009        0.873        0.189      115.758       19.216        0.028      335.111        5.529      870.020
01/23/2022  17:58:00     -103.687       12.748      -12.241       47.021       29.755       24.862     2210.951      885.355      618.112        0.739        0.186      104.468       25.692        0.060      335.038        5.407      870.022
01/23/2022  17:59:00      -89.953        6.660      -12.941       54.399       38.256       27.054     2959.277     1463.506      731.905        0.673        0.258       90.199       24.852        0.076      334.958        5.276      870.013
01/23/2022  18:00:00      -81.120       15.967      -15.284       59.318       33.399       28.348     3518.657     1115.496      803.611        0.625        0.272       82.677       30.912        0.140      334.919        5.210      870.010
01/23/2022  18:01:00      -86.939       17.566      -18.346       44.426       46.296       26.233     1973.707     2143.289      688.146        0.650        0.240       88.696       19.920        0.050      334.944        5.250      870.008
01/23/2022  18:02:00     -110.518       25.446      -19.711       34.988       35.498       21.999     1224.161     1260.092      483.939        0.811        0.148      113.409       14.580        0.017      334.866        5.122      870.008
01/23/2022  18:03:00     -142.015       14.397      -20.200       38.094       28.483       24.618     1451.166      811.301      606.066        1.183        0.143      142.743        6.594        0.002      334.873        5.134      870.013
01/23/2022  18:04:00     -100.312        7.620      -13.181       42.361       31.742       25.126     1794.472     1007.542      631.313        0.686        0.172      100.601       20.785        0.043      334.902        5.182      870.025
01/23/2022  18:05:00     -108.285       44.291      -12.187       33.989       39.094       21.025     1155.220     1528.356      442.032        0.848        0.156      116.993       14.432        0.015      334.857        5.106      870.034
01/23/2022  18:06:00     -114.949       18.623      -18.446       56.686       38.132       26.437     3213.351     1454.080      698.891        0.963        0.268      116.448       23.934        0.042      334.845        5.086      870.041
01/23/2022  18:07:00     -125.798       36.689      -17.164       47.541       41.827       29.751     2260.189     1749.478      885.095        1.118        0.245      131.039       26.464        0.041      334.753        4.934      870.056
01/23/2022  18:08:00     -143.063       56.540      -11.535       56.874       35.739       29.036     3234.614     1277.291      843.077        1.457        0.268      153.831       25.734        0.028      334.575        4.637      870.074
01/23/2022  18:09:00     -142.670       37.054      -16.915       56.655       33.858       30.830     3209.735     1146.344      950.483        1.366        0.265      147.404       27.826        0.036      334.612        4.698      870.088
01/23/2022  18:10:00     -161.135       55.437      -13.502       46.305       35.626       27.600     2144.180     1269.244      761.760        1.670        0.209      170.405       26.597        0.024      334.519        4.544      870.090
01/23/2022  18:11:00     -157.048       76.669      -15.094       41.100       31.288       25.448     1689.174      978.918      647.581        1.704        0.166      174.763       22.541        0.017      334.438        4.411      870.094
01/23/2022  18:12:00     -124.628       65.430       -3.036       50.387       33.429       31.317     2538.869     1117.494      980.759        1.223        0.232      140.760       25.876        0.034      334.482        4.482      870.091
01/23/2022  18:13:00     -112.480       45.555       -3.451       49.822       33.553       32.289     2482.253     1125.802     1042.580        0.969        0.233      121.355       30.463        0.063      334.584        4.653      870.091
01/23/2022  18:14:00     -105.771       53.145       -1.575       52.396       31.893       27.805     2745.322     1017.149      773.138        0.927        0.227      118.372       21.648        0.033      334.516        4.539      870.091
01/23/2022  18:15:00     -119.386       54.502      -10.838       43.061       39.773       22.953     1854.226     1581.852      526.824        1.065        0.198      131.238       21.977        0.028      334.525        4.554      870.095
01/23/2022  18:16:00      -81.092       22.703       -5.832       54.264       31.701       19.508     2944.589     1004.928      380.546        0.573        0.217       84.210       23.427        0.077      334.394        4.338      870.100
01/23/2022  18:17:00      -36.824       11.279       -9.915       35.438       23.242       21.937     1255.879      540.181      481.234        0.193        0.114       38.513       15.834        0.169      334.465        4.454      870.106
01/23/2022  18:18:00      -82.613       11.296      -11.398       57.893       25.675       23.916     3351.571      659.205      571.988        0.583        0.229       83.382       17.782        0.045      334.522        4.549      870.107
01/23/2022  18:19:00      -99.037        7.643      -11.366       39.833       27.236       23.235     1586.680      741.782      539.850        0.643        0.143       99.332       23.954        0.058      334.593        4.667      870.107
01/23/2022  18:20:00     -107.886        8.918      -15.463       31.806       32.672       28.441     1011.609     1067.476      808.879        0.742        0.144      108.254       17.898        0.027      334.623        4.717      870.109
01/23/2022  18:21:00      -14.511       16.798        7.359       32.039       27.119       19.209     1026.497      735.453      368.980        0.134        0.107       22.198       12.479        0.316      334.568        4.625      870.108
01/23/2022  18:22:00      -68.219        3.815       -4.982       38.031       24.820       21.193     1446.358      616.037      449.124        0.360        0.126       68.326       19.965        0.085      334.729        4.894      870.108
01/23/2022  18:23:00      -57.782       10.305       -2.070       43.337       22.418       22.690     1878.099      502.568      514.858        0.317        0.145       58.694       21.031        0.128      334.734        4.901      870.114
01/23/2022  18:24:00      -71.784       20.192      -11.180       24.176       14.706       12.614      584.472      216.267      159.116        0.332        0.048       74.569       12.579        0.028      334.721        4.881      870.127
01/23/2022  18:25:00      -68.848       44.043       -8.645       33.760       25.437       18.097     1139.704      647.044      327.485        0.443        0.106       81.730       12.559        0.024      334.811        5.029      870.149
01/23/2022  18:26:00      -37.884       28.513       -6.315       27.959       17.127       22.986      781.678      293.347      528.372        0.195        0.080       47.415       16.500        0.121      334.650        4.762      870.167
01/23/2022  18:27:00      -11.595       38.100      -10.481       36.056       18.074       15.485     1300.065      326.661      239.780        0.178        0.093       39.825       13.056        0.107      334.664        4.784      870.183
01/23/2022  18:28:00       21.962       43.482       -7.172       18.165       13.802       10.593      329.973      190.488      112.217        0.153        0.032       48.713        7.012        0.021      334.464        4.453      870.201
01/23/2022  18:29:00       35.133       26.746       -9.424       15.631       15.087       13.759      244.327      227.611      189.309        0.135        0.033       44.155        8.063        0.033      334.318        4.210      870.217
01/23/2022  18:30:00       21.629       10.046       -8.562       20.288        9.556       11.884      411.621       91.320      141.226        0.064        0.032       23.848        6.366        0.071      334.260        4.113      870.228
01/23/2022  18:31:00       18.820       33.626       -9.088       13.334       16.307        7.346      177.792      265.911       53.967        0.103        0.025       38.535        6.771        0.031      334.602        4.682      870.231
01/23/2022  18:32:00       20.398       52.823       -9.755       14.620       13.671       12.178      213.737      186.907      148.295        0.193        0.027       56.624        8.116        0.021      334.996        5.338      870.236
01/23/2022  18:33:00       23.114       48.151       -2.704       21.045       21.050       14.441      442.876      443.101      208.538        0.198        0.055       53.412       13.778        0.067      334.885        5.154      870.243
01/23/2022  18:34:00       35.390       35.634      -10.480       10.523       22.898       10.719      110.739      524.311      114.903        0.169        0.037       50.222        4.873        0.009      334.835        5.071      870.259
01/23/2022  18:35:00       34.499       49.167       -9.410       32.189       28.005       12.932     1036.115      784.266      167.232        0.284        0.099       60.063        6.021        0.010      334.811        5.031      870.260
01/23/2022  18:36:00       28.466       67.859      -14.251       22.514       16.465       17.929      506.882      271.107      321.441        0.336        0.055       73.588       14.383        0.038      334.907        5.188      870.269
01/23/2022  18:37:00       45.407       78.838       -5.425       27.359       23.273       12.240      748.521      541.649      149.826        0.487        0.072       90.979       12.441        0.019      334.977        5.306      870.271
01/23/2022  18:38:00       45.641       61.053       -6.242       23.917       22.816       16.519      572.011      520.556      272.867        0.361        0.068       76.227       12.625        0.027      334.990        5.328      870.280
01/23/2022  18:39:00       48.597       52.346       -8.802       15.979       22.968       16.571      255.341      527.523      274.582        0.312        0.053       71.426       11.468        0.026      334.953        5.266      870.286
01/23/2022  18:40:00       70.150       47.048      -10.118       22.365       18.740       16.104      500.179      351.190      259.331        0.417        0.056       84.466       13.250        0.025      335.088        5.489      870.298
01/23/2022  18:41:00       63.466       39.437       -6.817       25.719       14.868       15.449      661.462      221.065      238.673        0.338        0.056       74.721       13.618        0.033      335.130        5.559      870.304
01/23/2022  18:42:00       34.342       45.513      -10.396       19.206       30.639       15.203      368.883      938.734      231.128        0.245        0.077       57.016        9.147        0.026      335.112        5.530      870.310
01/23/2022  18:43:00       37.081       94.267       -0.452       20.734       19.023       13.343      429.902      361.884      178.034        0.562        0.048      101.298       11.150        0.012      335.406        6.018      870.315
01/23/2022  18:44:00       39.482       32.844       -8.399       18.755       18.523       12.075      351.763      343.098      145.812        0.177        0.042       51.357       10.882        0.045      335.208        5.688      870.321
01/23/2022  18:45:00       42.907       28.657      -10.007       21.313       17.653       11.010      454.225      311.626      121.211        0.182        0.044       51.597        6.369        0.015      335.183        5.648      870.338
01/23/2022  18:46:00       25.862       21.337       -6.316       19.286       15.231       10.589      371.952      231.982      112.122        0.094        0.036       33.528        7.583        0.051      335.180        5.641      870.343
01/23/2022  18:47:00       13.179        9.796       -6.919       14.827        9.411        7.013      219.851       88.573       49.179        0.034        0.018       16.421        2.429        0.022      335.161        5.612      870.350
01/23/2022  18:48:00       17.562       20.468       -1.350       12.666       14.773       10.637      160.428      218.229      113.138        0.061        0.025       26.969        8.714        0.104      335.257        5.770      870.362
01/23/2022  18:49:00       -1.266       33.093       -9.971       20.403       10.946       10.641      416.265      119.816      113.237        0.092        0.032       33.118        6.881        0.043      335.184        5.648      870.373
01/23/2022  18:50:00      -36.829       12.022      -19.531       12.818        6.331        7.622      164.296       40.078       58.100        0.107        0.013       38.742        4.823        0.015      334.864        5.118      870.382
01/23/2022  18:51:00      -22.422       15.443      -11.323       24.260       11.066        7.358      588.542      122.460       54.138        0.082        0.038       27.225        3.370        0.015      334.919        5.211      870.396
01/23/2022  18:52:00       -5.958        9.480       -4.727       12.763        8.622        9.105      162.900       74.340       82.909        0.023        0.016       11.197        7.291        0.424      334.922        5.216      870.399
01/23/2022  18:53:00       17.123       44.642       -3.048       11.925       14.126        7.468      142.217      199.555       55.777        0.135        0.020       47.814        6.874        0.021      335.166        5.619      870.403
01/23/2022  18:54:00       23.591       59.733       -5.954       14.018       14.891        9.505      196.514      221.748       90.339        0.233        0.025       64.223        6.158        0.009      335.203        5.679      870.409
01/23/2022  18:55:00       13.398       57.137       -9.124       21.303       16.352       12.074      453.822      267.385      145.787        0.220        0.043       58.687        7.437        0.016      334.995        5.336      870.408
01/23/2022  18:56:00        8.777       32.617       -0.555       13.515       15.622        8.489      182.650      244.059       72.060        0.082        0.025       33.778        7.392        0.048      334.951        5.263      870.403
01/23/2022  18:57:00      -37.133       24.444       -9.951       21.691       19.951       10.426      470.501      398.041      108.705        0.153        0.049       44.456        5.021        0.013      334.254        4.106      870.411
01/23/2022  18:58:00      -18.914       -0.811       -9.171       10.524       10.949        8.831      110.746      119.878       77.983        0.038        0.015       18.932        5.091        0.072      334.360        4.281      870.410
01/23/2022  18:59:00      -12.473        2.849       -6.571       13.071        6.334        6.755      170.847       40.116       45.634        0.023        0.013       12.794        3.963        0.096      334.617        4.707      870.418
01/23/2022  19:00:00       -0.763       -2.275        1.144        6.387       11.279        6.742       40.788      127.207       45.451        0.011        0.011        2.400        5.282        4.843      334.843        5.085      870.424
01/23/2022  19:01:00       -0.328      -18.336       -2.868       27.179       14.582       10.806      738.677      212.628      116.766        0.071        0.053       18.339        6.707        0.134      334.988        5.324      870.423
01/23/2022  19:02:00      -22.591        7.616       -6.597       14.373       10.395       13.100      206.574      108.046      171.604        0.055        0.024       23.840        6.830        0.082      334.442        4.415      870.436
01/23/2022  19:03:00      -28.792       22.388      -16.283       24.527       16.036        9.283      601.581      257.149       86.166        0.127        0.047       36.471        6.729        0.034      334.392        4.334      870.452
01/23/2022  19:04:00      -55.957       36.310       -9.325       10.522       13.287        9.942      110.714      176.557       98.852        0.246        0.019       66.706        7.595        0.013      334.399        4.346      870.473
01/23/2022  19:05:00      -57.047       17.025       -5.527       22.783       20.572       10.976      519.079      423.194      120.469        0.232        0.053       59.533        9.905        0.028      334.254        4.105      870.492
01/23/2022  19:06:00      -62.932       18.060      -10.428       25.197       21.886       17.167      634.906      479.018      294.704        0.290        0.070       65.472       13.001        0.039      334.325        4.223      870.500
01/23/2022  19:07:00      -80.484       19.505      -11.496       19.971       17.116       16.508      398.859      292.966      272.525        0.398        0.048       82.814       11.633        0.020      334.314        4.205      870.510
01/23/2022  19:08:00      -72.881       13.143      -10.691       40.684       22.938       21.812     1655.227      526.135      475.771        0.413        0.133       74.057       19.312        0.068      334.213        4.036      870.518
01/23/2022  19:09:00      -61.432       12.442       -4.005       35.304       27.690       19.488     1246.378      766.742      379.774        0.317        0.120       62.679       17.332        0.076      334.096        3.843      870.518
01/23/2022  19:10:00      -55.886        0.948       -2.754       43.048       24.293       20.097     1853.136      590.172      403.887        0.299        0.142       55.894       21.673        0.150      334.026        3.729      870.522
01/23/2022  19:11:00      -68.999       12.637      -12.195       13.394       11.752       11.610      179.390      138.108      134.796        0.276        0.023       70.147        6.704        0.009      334.068        3.797      870.520
01/23/2022  19:12:00      -76.945        6.155      -11.388       13.143       16.380       12.181      172.745      268.319      148.386        0.334        0.029       77.190        6.160        0.006      334.148        3.929      870.520
01/23/2022  19:13:00      -64.490       18.779       -8.152       26.503       22.002       15.078      702.394      484.071      227.358        0.300        0.071       67.169       15.188        0.051      334.113        3.871      870.520
01/23/2022  19:14:00      -75.267       30.002      -16.185       18.452       14.405       13.544      340.470      207.503      183.450        0.378        0.037       81.026        7.052        0.008      333.974        3.640      870.514
01/23/2022  19:15:00      -58.241        2.685       -7.915       33.641       25.191       17.743     1131.713      634.600      314.819        0.277        0.104       58.303       16.009        0.075      334.027        3.729      870.504
01/23/2022  19:16:00      -21.764        5.937       -2.876       33.442       26.782       20.603     1118.358      717.286      424.490        0.139        0.113       22.559       21.520        0.910      333.997        3.680      870.494
01/23/2022  19:17:00       -0.128       -2.655       -1.212       17.975       15.426       16.808      323.114      237.962      282.503        0.043        0.042        2.658       10.929       16.905      333.979        3.650      870.490
01/23/2022  19:18:00      -31.582        4.238       -5.263       35.165       21.054       15.973     1236.587      443.291      255.123        0.149        0.097       31.865       16.440        0.266      333.949        3.600      870.498
01/23/2022  19:19:00     -107.708       52.545      -17.348       18.463       16.819       17.364      340.872      282.883      301.523        0.779        0.046      119.842       10.686        0.008      333.748        3.266      870.518
01/23/2022  19:20:00     -131.126       52.869      -15.855       18.637       22.534       19.230      347.322      507.771      369.795        1.073        0.061      141.384        9.833        0.005      333.746        3.264      870.530
01/23/2022  19:21:00      -90.536       13.269       -3.480       52.254       35.672       19.470     2730.471     1272.489      379.082        0.638        0.219       91.504       18.358        0.040      333.828        3.399      870.545
01/23/2022  19:22:00      -80.848       15.933      -12.247       67.339       34.149       27.121     4534.547     1166.169      735.573        0.669        0.322       82.403       24.724        0.090      333.788        3.334      870.556
01/23/2022  19:23:00      -44.505       16.183      -10.670       46.649       22.759       25.798     2176.096      517.957      665.531        0.286        0.168       47.356       27.449        0.336      333.730        3.237      870.550
01/23/2022  19:24:00      -70.371       11.736      -11.790       37.777       24.817       16.613     1427.085      615.872      275.978        0.377        0.116       71.343       12.541        0.031      333.748        3.267      870.551
01/23/2022  19:25:00      -66.274       11.231       -7.343       39.409       36.846       18.391     1553.063     1357.624      338.237        0.391        0.162       67.219       10.536        0.025      333.778        3.315      870.544
01/23/2022  19:26:00      -18.555        3.897       -8.101       32.071       28.205       21.523     1028.566      795.501      463.259        0.136        0.114       18.960       18.830        0.986      333.756        3.279      870.543
01/23/2022  19:27:00     -101.527       16.121       -9.038       24.694       21.690       20.974      609.809      470.456      439.922        0.608        0.076      102.799       12.912        0.016      333.825        3.395      870.542
01/23/2022  19:28:00      -58.075       15.662       -0.042       40.315       25.987       20.910     1625.282      675.333      437.237        0.318        0.137       60.150       18.609        0.096      333.841        3.420      870.536
01/23/2022  19:29:00      -58.697        9.540       -3.136       39.534       28.006       22.486     1562.946      784.346      505.601        0.320        0.143       59.467       22.164        0.139      333.900        3.518      870.540
01/23/2022  19:30:00      -27.205       14.522        0.363       35.134       28.680       21.572     1234.413      822.525      465.369        0.174        0.126       30.838       16.455        0.285      333.863        3.457      870.542
01/23/2022  19:31:00      -35.937       -5.007       -4.089       37.773       18.673       17.142     1426.798      348.691      293.856        0.170        0.103       36.284       14.391        0.157      333.855        3.444      870.550
01/23/2022  19:32:00      -14.319        2.628        2.126       25.792       21.907       16.736      665.252      479.933      280.108        0.082        0.071       14.558        9.182        0.398      333.668        3.134      870.555
01/23/2022  19:33:00      -28.866       -7.114       -4.617       46.389       29.308       21.573     2151.940      858.963      465.377        0.219        0.174       29.730       25.229        0.720      333.662        3.126      870.557
01/23/2022  19:34:00      -53.848       -7.999       -8.352       62.831       26.751       24.028     3947.767      715.593      577.322        0.414        0.262       54.439       27.233        0.250      333.757        3.281      870.564
01/23/2022  19:35:00      -98.966       -1.256       -9.344       34.533       24.097       20.315     1192.561      580.654      412.710        0.603        0.109       98.974       11.173        0.013      333.772        3.307      870.576
01/23/2022  19:36:00      -30.689      -12.983      -12.137       28.538       24.357       19.874      814.430      593.261      394.982        0.153        0.090       33.322       16.422        0.243      333.795        3.344      870.592
01/23/2022  19:37:00      -28.935        4.449       -9.858       28.535       29.669       17.009      814.246      880.275      289.304        0.147        0.099       29.275       14.351        0.240      333.791        3.338      870.611
01/23/2022  19:38:00      -52.317       25.175      -20.203       29.902       17.459       23.350      894.103      304.817      545.208        0.276        0.087       58.059       15.627        0.072      333.761        3.288      870.629
01/23/2022  19:39:00      -51.478       11.851       -8.902       16.865       18.208       19.617      284.442      331.542      384.817        0.194        0.050       52.825       13.974        0.070      333.766        3.296      870.641
01/23/2022  19:40:00      -47.900       12.401       -1.916       20.758       23.257       16.960      430.878      540.884      287.654        0.186        0.063       49.479        8.651        0.031      333.751        3.272      870.647
01/23/2022  19:41:00      -22.605      -11.528       -3.731       24.590       13.897       17.645      604.690      193.132      311.339        0.088        0.055       25.375       13.256        0.273      333.731        3.239      870.655
01/23/2022  19:42:00      -16.004        4.698      -12.336       24.253       25.854       15.544      588.225      668.444      241.604        0.096        0.075       16.679        8.076        0.234      333.812        3.372      870.664
01/23/2022  19:43:00      -34.474        4.488      -13.767       16.478       20.986       14.652      271.524      440.398      214.677        0.116        0.046       34.765        6.148        0.031      333.785        3.329      870.675
01/23/2022  19:44:00      -74.259      -21.825      -28.435       20.830       16.682       15.292      433.875      278.283      233.841        0.387        0.047       77.400       12.371        0.026      333.709        3.202      870.685
01/23/2022  19:45:00      -70.347       -2.755      -18.290       18.913       21.005       14.212      357.717      441.210      201.971        0.315        0.050       70.401        6.766        0.009      333.787        3.332      870.693
01/23/2022  19:46:00      -66.241       12.370      -21.453        9.803        8.355       11.331       96.107       69.802      128.392        0.265        0.015       67.386        4.571        0.005      333.804        3.359      870.690
01/23/2022  19:47:00      -43.355        2.582      -17.819       28.604       16.521       12.105      818.204      272.942      146.524        0.172        0.062       43.432        9.585        0.049      333.842        3.422      870.685
01/23/2022  19:48:00      -61.583       15.931      -12.744       20.533       15.083       13.831      421.590      227.512      191.300        0.252        0.042       63.610       13.506        0.045      333.808        3.366      870.680
01/23/2022  19:49:00      -36.496        1.311       -9.259       29.681       14.644       11.897      880.950      214.449      141.529        0.133        0.062       36.519       13.186        0.130      333.794        3.343      870.681
01/23/2022  19:50:00      -53.868        1.546       -9.027       20.557       17.971        8.782      422.591      322.965       77.122        0.190        0.041       53.890        8.288        0.024      333.852        3.440      870.680
01/23/2022  19:51:00      -50.626        0.946      -11.519       22.041       19.559       13.424      485.788      382.573      180.200        0.187        0.052       50.635       10.261        0.041      333.899        3.517      870.678
01/23/2022  19:52:00      -49.915       -1.281       -5.544       26.645       20.271       13.274      709.937      410.901      176.211        0.191        0.065       49.932       10.346        0.043      333.892        3.507      870.673
01/23/2022  19:53:00      -55.935        1.053       -6.536       32.366       19.140       14.858     1047.568      366.346      220.747        0.240        0.082       55.944       15.292        0.075      333.882        3.489      870.664
01/23/2022  19:54:00      -66.787        4.833       -8.629       19.657       18.172       12.122      386.415      330.214      146.951        0.271        0.043       66.962        4.635        0.005      333.867        3.463      870.666
01/23/2022  19:55:00      -74.563       16.736       -8.157       22.878       16.554       13.413      523.407      274.048      179.898        0.344        0.049       76.418       12.029        0.025      333.886        3.495      870.670
01/23/2022  19:56:00      -84.601       -1.728      -12.558       29.504       23.248       14.299      870.506      540.481      204.467        0.447        0.081       84.619       11.716        0.019      333.848        3.435      870.682
01/23/2022  19:57:00      -43.163       19.052       -5.384       33.515       33.529       19.892     1123.233     1124.169      395.685        0.245        0.132       47.181       11.835        0.063      333.705        3.196      870.699
01/23/2022  19:58:00      -57.286       18.115      -25.335       20.281       15.894       18.340      411.303      252.623      336.371        0.263        0.050       60.082       10.038        0.028      333.707        3.200      870.711
01/23/2022  19:59:00      -36.290        2.944       -3.722       39.626       29.863       17.037     1570.184      891.793      290.245        0.205        0.138       36.409       16.838        0.214      333.567        2.967      870.724
01/23/2022  20:00:00      -22.831       10.017        5.820       35.512       14.837       16.428     1261.105      220.131      269.895        0.120        0.088       24.932       16.972        0.463      333.622        3.058      870.737
01/23/2022  20:01:00      -55.254       11.813       -8.141       37.754       24.883       19.573     1425.367      619.161      383.114        0.284        0.121       56.503       16.783        0.088      333.565        2.964      870.744
01/23/2022  20:02:00      -57.583        1.086      -10.405       22.419       19.615       15.209      502.599      384.732      231.315        0.227        0.056       57.593       14.391        0.062      333.562        2.960      870.764
01/23/2022  20:03:00      -57.667       12.762      -13.359       35.927       25.202       20.492     1290.784      635.159      419.903        0.301        0.117       59.062       21.324        0.130      333.527        2.901      870.773
01/23/2022  20:04:00      -75.852       14.935      -21.684       21.824       17.238       19.243      476.273      297.156      370.277        0.380        0.057       77.308       15.706        0.041      333.483        2.829      870.791
01/23/2022  20:05:00      -42.111        7.545      -16.455       19.853       20.293       15.387      394.123      411.795      236.766        0.157        0.052       42.782       13.150        0.094      333.542        2.926      870.807
01/23/2022  20:06:00      -48.990       12.206      -17.929       23.080       20.231       16.460      532.693      409.276      270.941        0.204        0.061       50.488       11.223        0.049      333.512        2.874      870.812
01/23/2022  20:07:00      -32.463        6.237       -7.818       26.297       14.102       21.897      691.538      198.879      479.466        0.126        0.068       33.057       16.324        0.244      333.496        2.848      870.815
01/23/2022  20:08:00      -47.092        5.384      -11.151       22.327       17.265       18.251      498.488      298.093      333.113        0.175        0.056       47.398       10.182        0.046      333.535        2.913      870.826
01/23/2022  20:09:00      -79.496       23.391      -14.309       33.883       12.480       17.276     1148.071      155.739      298.460        0.434        0.080       82.866       21.361        0.066      333.393        2.680      870.830
01/23/2022  20:10:00     -100.343       26.475      -19.341       14.057       16.554       12.646      197.610      274.044      159.910        0.589        0.032      103.777        6.780        0.004      333.424        2.732      870.834
01/23/2022  20:11:00     -107.000       32.307      -25.957       15.340       16.907       17.008      235.311      285.840      289.283        0.699        0.041      111.771        9.993        0.008      333.412        2.712      870.839
01/23/2022  20:12:00      -52.832       -5.517      -11.771       32.668       29.008       20.109     1067.182      841.468      404.374        0.264        0.116       53.119       14.916        0.079      333.456        2.784      870.846
01/23/2022  20:13:00      -81.691       15.701      -17.751       28.958       26.400       16.848      838.554      696.945      283.851        0.453        0.091       83.187       10.744        0.017      333.429        2.738      870.848
01/23/2022  20:14:00      -54.012       12.458      -12.794       28.972       23.311       19.820      839.356      543.386      392.845        0.251        0.089       55.431       17.012        0.094      333.429        2.737      870.852
01/23/2022  20:15:00      -76.754       23.319      -15.305       24.988       24.940       16.029      624.410      622.028      256.915        0.409        0.075       80.219       10.601        0.017      333.404        2.697      870.855
01/23/2022  20:16:00      -38.924        2.097       -1.493       36.070       26.419       17.929     1301.081      697.963      321.442        0.192        0.116       38.981       19.815        0.258      333.401        2.692      870.860
01/23/2022  20:17:00      -34.324       29.137       -5.995       24.154       21.781       19.403      583.416      474.395      376.470        0.175        0.072       45.023       14.363        0.102      333.319        2.556      870.873
01/23/2022  20:18:00      -66.340       26.431      -18.756       21.058       15.797       14.308      443.458      249.544      204.726        0.317        0.045       71.412        7.947        0.012      333.340        2.592      870.881
01/23/2022  20:19:00      -61.379       22.102      -14.632       18.049       21.472       13.985      325.779      461.058      195.583        0.273        0.049       65.237        8.503        0.017      333.279        2.490      870.901
01/23/2022  20:20:00      -73.008       21.696      -10.504       17.214       17.420       12.010      296.310      303.456      144.229        0.333        0.037       76.164        7.906        0.011      333.212        2.380      870.905
01/23/2022  20:21:00      -61.065       19.482      -19.858       26.265       17.471       15.445      689.865      305.244      238.551        0.287        0.062       64.098       12.780        0.040      333.233        2.414      870.907
01/23/2022  20:22:00      -73.098       21.025      -14.673       25.524       19.692       15.313      651.486      387.794      234.475        0.364        0.064       76.062       14.937        0.039      333.331        2.577      870.907
01/23/2022  20:23:00      -68.118       21.759      -15.782       23.723       18.567       15.437      562.801      344.741      238.299        0.325        0.057       71.509        7.577        0.011      333.300        2.527      870.904
01/23/2022  20:24:00      -63.812       24.944      -11.846       23.625       16.431       16.596      558.124      269.962      275.415        0.297        0.055       68.515       10.062        0.022      333.333        2.580      870.906
01/23/2022  20:25:00      -55.424       30.496      -13.040       20.236       15.471       11.185      409.476      239.338      125.104        0.247        0.039       63.260        9.869        0.024      333.379        2.657      870.897
01/23/2022  20:26:00      -41.130       30.703      -19.501       19.067       19.067       12.720      363.556      363.543      161.810        0.195        0.044       51.326        8.332        0.026      333.355        2.618      870.897
01/23/2022  20:27:00      -41.501       32.079      -14.849       29.890       15.581       11.775      893.412      242.782      138.639        0.212        0.064       52.454        7.286        0.019      333.394        2.681      870.897
01/23/2022  20:28:00      -49.953       38.563      -15.356       20.633       16.722       11.136      425.740      279.609      124.017        0.252        0.041       63.106        5.626        0.008      333.435        2.749      870.898
01/23/2022  20:29:00      -34.663       38.817      -16.612       17.890       21.293       12.190      320.040      453.384      148.591        0.195        0.046       52.042        5.581        0.012      333.500        2.857      870.908
01/23/2022  20:30:00      -35.841       35.800      -16.468       21.322       17.518       13.072      454.648      306.891      170.887        0.188        0.047       50.658        9.326        0.034      333.358        2.622      870.919
01/23/2022  20:31:00      -17.791       54.209      -12.797       27.050       23.478       20.696      731.694      551.215      428.310        0.256        0.086       57.054       13.780        0.058      333.761        3.287      870.933
01/23/2022  20:32:00      -14.066       61.175       -8.693       27.024       27.961       20.328      730.303      781.826      413.213        0.297        0.096       62.772       10.254        0.027      333.868        3.465      870.938
01/23/2022  20:33:00      -19.968       48.846       -2.978       25.917       32.229       19.419      671.702     1038.730      377.114        0.244        0.104       52.770       13.882        0.069      333.758        3.283      870.933
01/23/2022  20:34:00      -35.823       26.138      -15.438       19.537       17.015       12.358      381.682      289.496      152.730        0.151        0.041       44.345        4.038        0.008      333.487        2.834      870.926
01/23/2022  20:35:00      -40.695       20.849       -8.128       23.533       12.706       15.856      553.810      161.440      251.409        0.156        0.048       45.725       11.174        0.060      333.523        2.894      870.921
01/23/2022  20:36:00      -47.837       25.835      -12.100       21.403       12.399        9.604      458.085      153.728       92.233        0.190        0.035       54.368        9.184        0.029      333.437        2.753      870.925
01/23/2022  20:37:00      -33.091       28.162      -13.620       18.400       11.691       12.610      338.549      136.672      159.012        0.135        0.032       43.453        5.826        0.018      333.435        2.747      870.925
01/23/2022  20:38:00      -23.093       43.607      -10.925       16.405       25.884       13.237      269.124      669.993      175.211        0.183        0.056       49.344        9.601        0.038      333.795        3.345      870.934
01/23/2022  20:39:00      -11.886       29.161       -3.239       13.615       15.988       14.685      185.361      255.604      215.648        0.083        0.033       31.490        9.941        0.100      333.569        2.971      870.938
01/23/2022  20:40:00      -33.018       24.352      -12.505       15.037       12.702        9.453      226.119      161.344       89.366        0.116        0.024       41.027        5.876        0.021      333.518        2.886      870.926
01/23/2022  20:41:00      -27.954       20.047      -10.333       18.780       14.581       10.835      352.699      212.613      117.393        0.099        0.034       34.399        8.139        0.056      333.483        2.829      870.916
01/23/2022  20:42:00      -28.805       29.481      -13.609       14.843       18.668       11.357      220.307      348.494      128.991        0.129        0.035       41.217        8.136        0.039      333.528        2.902      870.908
01/23/2022  20:43:00      -25.276       25.088       -9.531       16.649       12.155       14.907      277.178      147.754      222.204        0.100        0.032       35.613        4.310        0.015      333.537        2.917      870.902
01/23/2022  20:44:00      -23.292       19.365      -16.791       17.001       10.037        7.559      289.039      100.751       57.135        0.082        0.022       30.290        5.317        0.031      333.379        2.656      870.901
01/23/2022  20:45:00      -32.175       15.121       -9.937       16.261       10.609       14.169      264.410      112.556      200.747        0.097        0.029       35.551        6.042        0.029      333.413        2.713      870.892
01/23/2022  20:46:00      -17.358       73.756       -9.673       23.003       38.368       17.679      529.148     1472.081      312.553        0.407        0.116       75.771       14.792        0.038      333.711        3.205      870.887
01/23/2022  20:47:00      -23.344       21.650       -5.559       17.250       21.563       10.786      297.559      464.982      116.330        0.096        0.044       31.838        3.528        0.012      333.551        2.940      870.889
01/23/2022  20:48:00      -18.661       28.132       -7.271       16.885       18.407       12.910      285.105      338.804      166.677        0.099        0.040       33.759        6.109        0.033      333.457        2.785      870.893
01/23/2022  20:49:00      -20.167       26.920       -6.399       23.658       13.749       14.271      559.693      189.023      203.649        0.106        0.048       33.636        7.252        0.046      333.607        3.033      870.906
01/23/2022  20:50:00      -21.546       62.452       -8.631       21.809       27.729       14.100      475.649      768.918      198.804        0.294        0.072       66.064        7.174        0.012      333.727        3.232      870.916
01/23/2022  20:51:00      -45.933       30.992      -12.659       22.487       14.541       15.079      505.674      211.427      227.369        0.209        0.047       55.411        8.786        0.025      333.489        2.839      870.923
01/23/2022  20:52:00      -32.312       28.837      -13.594       22.791       20.230       12.220      519.426      409.273      149.318        0.157        0.054       43.308        5.945        0.019      333.411        2.710      870.929
01/23/2022  20:53:00      -15.614       40.653      -10.485       18.617       29.167       16.031      346.610      850.725      256.990        0.173        0.073       43.548       15.091        0.120      333.596        3.016      870.940
01/23/2022  20:54:00      -41.896       18.532      -19.706       16.957       10.930        8.699      287.542      119.463       75.668        0.148        0.024       45.812        7.703        0.028      333.387        2.670      870.942
01/23/2022  20:55:00      -25.879       14.213      -13.601       18.319       12.790        9.348      335.589      163.585       87.386        0.082        0.029       29.525        4.094        0.019      333.373        2.647      870.941
01/23/2022  20:56:00       13.562       36.941       -8.241       30.791       21.570       14.503      948.059      465.284      210.332        0.162        0.081       39.351        8.183        0.043      333.812        3.372      870.946
01/23/2022  20:57:00      -24.507       14.233       -5.193       23.178       12.421       13.436      537.217      154.280      180.534        0.085        0.044       28.340        6.993        0.061      333.634        3.078      870.953
01/23/2022  20:58:00      -42.937       19.831      -20.155       16.089       12.708        9.438      258.848      161.499       89.081        0.158        0.025       47.296        6.310        0.018      333.564        2.961      870.958
01/23/2022  20:59:00      -29.064       23.657      -12.051       17.575       16.631       19.927      308.868      276.591      397.082        0.127        0.049       37.475        7.025        0.035      333.552        2.943      870.952
01/23/2022  21:00:00        6.934       57.569      -12.748       32.026       28.796       16.648     1025.693      829.182      277.151        0.283        0.107       57.985        7.743        0.018      333.868        3.466      870.954
01/23/2022  21:01:00      -17.490       19.244       -9.902       17.010       12.781        9.835      289.344      163.357       96.723        0.066        0.027       26.005        7.715        0.088      333.632        3.075      870.958
01/23/2022  21:02:00      -29.782        3.494      -11.487       11.625       14.107       10.566      135.137      199.019      111.635        0.074        0.022       29.986        8.726        0.085      333.449        2.773      870.968
01/23/2022  21:03:00      -24.439        2.085      -18.647       19.861       12.895       12.278      394.455      166.284      150.750        0.083        0.036       24.528        6.121        0.062      333.421        2.726      870.977
01/23/2022  21:04:00      -50.333       15.941      -14.587       22.370       18.244       19.901      500.406      332.857      396.054        0.211        0.061       52.797        7.279        0.019      333.388        2.671      870.993
01/23/2022  21:05:00      -42.921        3.439      -19.092       23.559       19.364       15.901      555.019      374.981      252.846        0.170        0.059       43.058        9.591        0.050      333.356        2.618      871.000
01/23/2022  21:06:00       -9.474        8.420        3.218       41.210       13.827       22.446     1698.246      191.191      503.822        0.128        0.120       12.675       25.388        4.012      333.286        2.502      871.003
01/23/2022  21:07:00      -37.528       -2.024      -17.655       32.295       25.513       16.957     1042.965      650.908      287.531        0.185        0.099       37.583       14.956        0.158      333.348        2.606      871.000
01/23/2022  21:08:00      -23.076       -5.576      -13.424       26.737       16.901       13.080      714.888      285.642      171.097        0.096        0.059       23.740       12.328        0.270      333.334        2.584      870.998
01/23/2022  21:09:00      -33.167        3.065       -6.647       26.268       15.391       15.789      690.021      236.890      249.307        0.116        0.059       33.308       14.826        0.198      333.416        2.717      870.996
01/23/2022  21:10:00      -79.878       10.028      -12.875       24.458       12.737       12.002      598.201      162.219      144.052        0.378        0.045       80.505       10.707        0.018      333.420        2.723      871.000
01/23/2022  21:11:00      -30.510        4.783       -8.782       30.556       14.874       10.680      933.644      221.226      114.062        0.115        0.063       30.883        6.076        0.039      333.410        2.707      871.002
01/23/2022  21:12:00       -2.130       -0.779        1.049       11.037       11.679        5.878      121.815      136.410       34.547        0.015        0.015        2.268        3.986        3.090      333.295        2.519      871.003
01/23/2022  21:13:00      -36.870       -9.325       -7.444       25.686       14.428        8.470      659.753      208.181       71.737        0.122        0.047       38.031        7.066        0.035      333.440        2.757      871.011
01/23/2022  21:14:00      -47.719      -13.876       -9.100       19.018       19.446       16.468      361.676      378.142      271.193        0.178        0.051       49.696        9.269        0.035      333.353        2.614      871.010
01/23/2022  21:15:00      -68.879       -6.700      -12.104       25.424       19.704       16.390      646.392      388.242      268.625        0.312        0.065       69.204       13.019        0.035      333.338        2.589      871.017
01/23/2022  21:16:00      -51.765      -11.627       -3.079       29.928       24.419       19.626      895.690      596.286      385.186        0.235        0.094       53.054       16.619        0.098      333.186        2.336      871.027
01/23/2022  21:17:00      -45.590        1.025       -7.116       36.624       28.359       18.346     1341.321      804.225      336.561        0.231        0.124       45.601       17.221        0.143      333.191        2.346      871.033
01/23/2022  21:18:00      -70.372      -17.937      -11.303       33.303       23.598       24.769     1109.090      556.877      613.508        0.384        0.114       72.622       20.918        0.083      333.133        2.249      871.041
01/23/2022  21:19:00      -61.521      -13.205      -13.190       42.373       20.062       23.007     1795.480      402.498      529.345        0.343        0.136       62.923       24.155        0.147      333.130        2.243      871.052
01/23/2022  21:20:00      -22.381       -4.309       -3.768       20.013       13.806       13.691      400.520      190.617      187.457        0.066        0.039       22.792       12.880        0.319      333.072        2.149      871.066
01/23/2022  21:21:00      -46.118        4.785      -10.235       19.159       22.152       20.357      367.075      490.732      414.399        0.176        0.064       46.365       13.060        0.079      333.048        2.109      871.079
01/23/2022  21:22:00      -35.875        8.886      -12.885       24.009       15.886       12.707      576.443      252.368      161.468        0.126        0.050       36.959        0.905        0.001      333.122        2.233      871.091
01/23/2022  21:23:00      -79.618       13.615      -23.015       16.160       16.385       16.551      261.131      268.472      273.939        0.393        0.040       80.773        9.872        0.015      333.166        2.304      871.108
01/23/2022  21:24:00      -76.289       12.463       -7.513       16.558       15.581       13.796      274.171      242.778      190.334        0.337        0.035       77.300        8.847        0.013      333.118        2.225      871.114
01/23/2022  21:25:00      -50.256        8.430       -4.258       35.927       25.186       17.274     1290.763      634.348      298.407        0.242        0.111       50.959       14.615        0.082      333.097        2.190      871.112
01/23/2022  21:26:00      -45.174        4.672       -8.171       31.655       18.382       17.014     1002.064      337.902      289.466        0.188        0.081       45.415       13.748        0.092      333.058        2.126      871.113
01/23/2022  21:27:00      -55.278        0.523       -7.747       29.714       25.417       14.494      882.936      646.005      210.071        0.243        0.087       55.280        9.944        0.032      333.037        2.091      871.116
01/23/2022  21:28:00      -38.133       -0.925      -10.150       25.698       19.175       13.045      660.399      367.666      170.175        0.138        0.060       38.145       13.695        0.129      333.033        2.083      871.129
01/23/2022  21:29:00      -19.113        0.490       -9.368       13.126       12.328       11.084      172.289      151.989      122.844        0.045        0.022       19.119        4.197        0.048      333.003        2.033      871.148
01/23/2022  21:30:00      -36.771       -3.814      -11.711       39.758       26.252       22.734     1580.732      689.160      516.825        0.214        0.139       36.968       20.759        0.315      332.965        1.970      871.154
01/23/2022  21:31:00      -22.302      -29.892        3.325       39.169       23.319       19.100     1534.230      543.775      364.801        0.192        0.122       37.295       14.895        0.160      333.063        2.135      871.158
01/23/2022  21:32:00      -33.913       10.198       -5.152       24.003       16.708       17.498      576.144      279.144      306.170        0.122        0.058       35.413       15.781        0.199      333.073        2.150      871.158
01/23/2022  21:33:00      -11.340       -5.649       -3.838       27.376       16.722       14.775      749.467      279.627      218.291        0.071        0.062       12.669       13.333        1.108      333.114        2.218      871.157
01/23/2022  21:34:00      -38.481        9.116      -12.809       29.932       10.670       12.388      895.926      113.851      153.451        0.145        0.058       39.546       10.425        0.069      333.032        2.084      871.155
01/23/2022  21:35:00      -44.207        4.758      -17.980       35.654       20.669       20.981     1271.236      427.207      440.194        0.222        0.107       44.463       15.641        0.124      332.973        1.986      871.156
01/23/2022  21:36:00      -59.889       -7.554      -17.694       30.277       24.952       20.724      916.675      622.603      429.481        0.296        0.098       60.363       18.114        0.090      333.033        2.084      871.154
01/23/2022  21:37:00      -48.591       -4.495      -13.388       30.685       27.723       19.265      941.581      768.556      371.143        0.232        0.104       48.798       14.997        0.094      332.935        1.922      871.156
01/23/2022  21:38:00      -34.363        7.987       -5.294       26.316       16.171       11.214      692.536      261.513      125.749        0.118        0.054       35.279        5.554        0.025      332.888        1.844      871.165
01/23/2022  21:39:00      -51.271      -19.075       -9.064       15.602       15.996       13.789      243.425      255.883      190.146        0.188        0.034       54.704        8.458        0.024      332.917        1.893      871.170
01/23/2022  21:40:00      -29.764        1.665       -4.424       18.293       18.840       10.908      334.651      354.956      118.987        0.086        0.040       29.811        2.527        0.007      332.932        1.918      871.169
01/23/2022  21:41:00       -4.836        6.708       -4.688       17.868       16.639       13.694      319.250      276.851      187.515        0.044        0.039        8.270       10.656        1.660      332.847        1.777      871.170
01/23/2022  21:42:00      -13.625       -3.611       -0.946       15.203       12.302       11.344      231.125      151.346      128.696        0.036        0.026       14.095        9.269        0.432      332.926        1.906      871.157
01/23/2022  21:43:00      -20.166       -4.618       -6.359       16.763       11.180        8.909      281.002      124.988       79.370        0.048        0.024       20.688        7.186        0.121      333.003        2.034      871.160
01/23/2022  21:44:00       -3.807       -4.341       -5.692        8.107        5.581        6.832       65.716       31.147       46.673        0.010        0.007        5.774        2.667        0.213      333.008        2.043      871.158
01/23/2022  21:45:00      -22.259       -0.504       -6.073       21.217        8.709        6.423      450.179       75.841       41.255        0.055        0.028       22.265        8.537        0.147      333.102        2.198      871.142
01/23/2022  21:46:00       -6.872       -7.490       -6.936        7.097       11.643        4.959       50.371      135.553       24.594        0.018        0.011       10.165        3.836        0.142      333.032        2.081      871.130
01/23/2022  21:47:00      -12.199        0.647       -9.613       13.490        6.039       10.301      181.967       36.470      106.106        0.028        0.016       12.216       10.085        0.682      332.939        1.927      871.121
01/23/2022  21:48:00      -39.458        6.067       -9.374       17.828       21.510        9.892      317.849      462.700       97.852        0.128        0.044       39.922        7.410        0.034      332.900        1.866      871.127
01/23/2022  21:49:00       -8.973        0.282        2.217       19.412       18.336       11.208      376.828      336.208      125.621        0.046        0.042        8.978        5.099        0.323      332.768        1.648      871.135
01/23/2022  21:50:00       -7.689       -0.646       -5.426       18.642       14.713       14.909      347.508      216.471      222.290        0.044        0.039        7.716       13.085        2.875      332.772        1.652      871.145
01/23/2022  21:51:00      -54.175        8.129      -10.130       16.356       23.090       13.236      267.524      533.154      175.191        0.204        0.049       54.782        6.029        0.012      332.761        1.635      871.147
01/23/2022  21:52:00      -39.090      -15.478       -8.777       38.484       16.193       13.972     1481.011      262.228      195.228        0.189        0.097       42.042       16.358        0.151      332.643        1.440      871.140
01/23/2022  21:53:00      -62.555       -3.204       -7.678       38.919       20.374       28.390     1514.673      415.106      805.977        0.336        0.137       62.637       24.011        0.147      332.699        1.532      871.137
01/23/2022  21:54:00      -81.423       -6.255      -10.056       48.200       27.956       31.502     2323.247      781.524      992.354        0.543        0.205       81.663       29.857        0.134      332.623        1.406      871.129
01/23/2022  21:55:00      -14.627        0.276       -0.980       56.364       29.134       38.205     3176.858      848.800     1459.629        0.285        0.274       14.629       31.598        4.665      332.539        1.267      871.124
01/23/2022  21:56:00      -15.499       -0.499       -2.091       44.658       34.355       38.481     1994.346     1180.290     1480.757        0.245        0.233       15.507       23.589        2.314      332.545        1.277      871.124
01/23/2022  21:57:00      -12.895        0.337        1.481       39.870       36.304       27.767     1589.579     1317.976      771.010        0.192        0.184       12.899       23.063        3.197      332.507        1.215      871.125
01/23/2022  21:58:00      -27.235       -6.734       -5.747       27.841       23.372       24.424      775.104      546.236      596.552        0.137        0.096       28.056       18.854        0.452      332.566        1.312      871.132
01/23/2022  21:59:00      -51.758       19.895       -1.618       23.624       32.524       16.828      558.077     1057.808      283.186        0.249        0.095       55.450        8.828        0.025      332.542        1.272      871.137
01/23/2022  22:00:00      -62.299       -1.174       -3.107       48.007       34.909       28.728     2304.650     1218.665      825.271        0.412        0.217       62.310       30.236        0.235      332.551        1.286      871.133
01/23/2022  22:01:00     -113.442        1.809       -8.790       37.093       47.535       32.139     1375.873     2259.595     1032.933        0.881        0.233      113.456       17.095        0.023      332.628        1.414      871.117
01/23/2022  22:02:00     -116.985       14.940      -12.457       53.348       27.756       26.445     2846.015      770.420      699.319        0.919        0.216      117.935       26.290        0.050      332.604        1.375      871.110
01/23/2022  22:03:00     -132.514        0.636       -8.385       70.163       36.952       29.996     4922.856     1365.481      899.744        1.241        0.359      132.515       32.482        0.060      332.542        1.271      871.110
01/23/2022  22:04:00     -129.513       -8.652       -1.734       48.361       39.494       33.500     2338.753     1559.756     1122.217        1.094        0.251      129.802       28.343        0.048      332.484        1.175      871.084
01/23/2022  22:05:00      -85.127      -14.617       -5.383       60.498       33.503       27.620     3660.020     1122.472      762.838        0.652        0.277       86.373       26.362        0.093      332.514        1.225      871.011
01/23/2022  22:06:00     -121.547        2.614      -11.595       42.754       29.839       23.803     1827.916      890.365      566.575        0.910        0.164      121.575       21.397        0.031      332.551        1.287      871.004
01/23/2022  22:07:00     -103.680       -0.833       -5.292       68.920       41.115       31.277     4749.958     1690.455      978.237        0.910        0.371      103.684       36.525        0.124      332.558        1.300      871.000
01/23/2022  22:08:00     -103.103        7.709       -0.420       66.887       27.390       23.721     4473.854      750.187      562.699        0.824        0.289      103.391       20.460        0.039      332.569        1.317      870.995
01/23/2022  22:09:00      -83.839        0.873       -4.524       55.703       41.901       33.470     3102.874     1755.655     1120.264        0.651        0.299       83.843       32.388        0.149      332.524        1.242      870.978
01/23/2022  22:10:00      -59.043       22.165        0.433       58.456       30.326       30.119     3417.121      919.656      907.130        0.461        0.262       63.067       25.636        0.165      332.568        1.316      870.959
01/23/2022  22:11:00        2.864       17.737       -5.929       42.687       28.779       30.113     1822.155      828.236      906.819        0.196        0.178       17.967       17.929        0.996      332.569        1.316      870.932
01/23/2022  22:12:00      -83.834      -20.140      -15.153       60.040       33.562       25.812     3604.786     1126.394      666.280        0.653        0.270       86.219       19.807        0.053      332.665        1.474      870.912
01/23/2022  22:13:00     -123.772       -1.802       -8.170       53.253       37.318       31.400     2835.930     1392.630      985.960        1.030        0.261      123.785       29.960        0.059      332.679        1.499      870.899
01/23/2022  22:14:00     -119.436        7.088      -13.524       41.357       34.716       23.747     1710.365     1205.196      563.942        0.899        0.174      119.646       21.359        0.032      332.695        1.524      870.895
01/23/2022  22:15:00      -81.249        3.691       -8.516       43.627       23.220       21.691     1903.299      539.145      470.503        0.480        0.146       81.333       18.070        0.049      332.775        1.658      870.886
01/23/2022  22:16:00      -89.908       -0.414       -6.717       42.833       33.236       22.793     1834.624     1104.623      519.505        0.579        0.173       89.909       19.684        0.048      332.820        1.733      870.885
01/23/2022  22:17:00      -69.853      -13.627       -7.333       45.069       32.388       21.384     2031.239     1049.012      457.291        0.433        0.177       71.170       19.564        0.076      332.845        1.774      870.883
01/23/2022  22:18:00      -50.660       -0.641        4.846       30.543       26.173       19.530      932.882      685.000      381.424        0.229        0.100       50.664       16.822        0.110      332.873        1.821      870.871
01/23/2022  22:19:00      -42.475        4.001       -4.539       24.524       22.616       18.055      601.408      511.506      325.987        0.164        0.072       42.663       12.781        0.090      332.862        1.803      870.857
01/23/2022  22:20:00      -40.555       -4.161       -6.626       30.904       25.360       14.733      955.077      643.111      217.061        0.176        0.091       40.768        9.087        0.050      332.871        1.816      870.834
01/23/2022  22:21:00      -46.285       -2.517        0.795       43.009       25.750       16.985     1849.736      663.079      288.497        0.247        0.140       46.353       11.174        0.058      332.775        1.658      870.812
01/23/2022  22:22:00      -76.336      -13.563       -5.579       50.736       40.867       23.553     2574.116     1670.127      554.734        0.542        0.240       77.531       20.454        0.070      332.880        1.832      870.794
01/23/2022  22:23:00      -74.254       -6.254       -7.589       47.256       30.213       20.688     2233.125      912.808      427.992        0.459        0.179       74.517       18.245        0.060      332.786        1.677      870.782
01/23/2022  22:24:00     -115.405      -19.614       -8.315       53.545       43.166       28.131     2867.050     1863.321      791.334        0.965        0.276      117.060       26.833        0.053      332.718        1.562      870.769
01/23/2022  22:25:00      -72.596       -7.413        2.865       39.717       36.836       23.911     1577.450     1356.923      571.732        0.442        0.175       72.973       23.083        0.100      332.668        1.482      870.760
01/23/2022  22:26:00      -62.664      -16.041       -5.766       47.198       34.991       23.507     2227.637     1224.342      552.577        0.411        0.200       64.684       28.157        0.189      332.600        1.367      870.754
01/23/2022  22:27:00      -73.227       -8.357        2.320       54.793       32.019       27.485     3002.250     1025.248      755.446        0.511        0.239       73.703       26.046        0.125      332.460        1.137      870.748
01/23/2022  22:28:00      -95.340      -12.059       -5.154       39.514       34.530       22.783     1561.385     1192.295      519.084        0.627        0.164       96.099       21.169        0.049      332.436        1.096      870.745
01/23/2022  22:29:00      -57.147       -2.885        1.688       51.840       34.713       26.914     2687.374     1204.972      724.373        0.395        0.231       57.220       27.174        0.226      332.384        1.012      870.737
01/23/2022  22:30:00      -54.363       -9.622        4.142       37.424       32.617       23.658     1400.583     1063.896      559.716        0.304        0.151       55.208       20.306        0.135      332.354        0.963      870.730
01/23/2022  22:31:00      -70.193       -2.216       -3.660       56.175       40.790       22.317     3155.666     1663.859      498.027        0.513        0.266       70.228       14.578        0.043      332.334        0.929      870.730
01/23/2022  22:32:00     -130.764      -12.016      -22.352       58.871       44.148       25.215     3465.782     1949.061      635.817        1.190        0.303      131.314       20.296        0.024      332.314        0.895      870.732
01/23/2022  22:33:00     -123.954      -23.068      -16.852       27.949       33.077       20.526      781.150     1094.061      421.330        0.924        0.115      126.082       15.211        0.015      332.370        0.987      870.738
01/23/2022  22:34:00      -53.988        6.127        1.780       65.222       33.606       31.066     4253.944     1129.366      965.117        0.465        0.317       54.335       35.545        0.428      332.270        0.822      870.739
01/23/2022  22:35:00     -128.073       -6.737       -8.230       63.874       41.667       28.964     4079.869     1736.181      838.925        1.158        0.333      128.250       30.670        0.057      332.128        0.589      870.744
01/23/2022  22:36:00      -92.534       -9.210       -2.922       45.952       34.610       24.084     2111.559     1197.839      580.025        0.627        0.194       92.992       22.703        0.060      332.198        0.704      870.739
01/23/2022  22:37:00      -62.060        0.663        0.289       50.074       34.683       28.147     2507.440     1202.927      792.270        0.418        0.225       62.064       30.350        0.239      332.194        0.698      870.742
01/23/2022  22:38:00     -137.388        3.663      -13.873       36.276       23.776       19.265     1315.974      565.319      371.145        1.067        0.113      137.437       14.174        0.011      332.150        0.625      870.743
01/23/2022  22:39:00      -90.891       13.586      -15.027       32.643       23.093       18.796     1065.561      533.297      353.281        0.531        0.098       91.901       12.879        0.020      332.148        0.620      870.740
01/23/2022  22:40:00      -79.884       16.796       -0.961       39.323       26.004       19.485     1546.298      676.228      379.680        0.463        0.130       81.631       18.929        0.054      332.066        0.488      870.739
01/23/2022  22:41:00      -97.926       39.095       -7.754       35.473       36.003       22.821     1258.308     1296.201      520.797        0.713        0.154      105.442       18.267        0.030      331.978        0.341      870.737
01/23/2022  22:42:00      -89.263       24.251        0.043       56.307       36.928       26.572     3170.497     1363.645      706.094        0.690        0.262       92.498       30.841        0.111      331.986        0.356      870.725
01/23/2022  22:43:00      -74.559       11.329       -2.528       44.279       38.319       28.931     1960.607     1468.336      836.986        0.498        0.213       75.415       24.411        0.105      331.987        0.356      870.706
01/23/2022  22:44:00     -107.706       45.625       -6.041       39.504       33.093       22.750     1560.577     1095.155      517.558        0.845        0.159      116.971       16.473        0.020      331.967        0.324      870.691
01/23/2022  22:45:00      -93.533        4.943       -6.489       45.655       33.406       28.868     2084.343     1115.939      833.366        0.642        0.202       93.664       19.436        0.043      332.029        0.425      870.671
01/23/2022  22:46:00      -33.472       -5.643       -6.901       45.466       33.773       15.270     2067.196     1140.621      233.171        0.232        0.172       33.945       12.555        0.137      331.981        0.348      870.651
01/23/2022  22:47:00      -40.896        9.501       -2.596       33.241       26.819       15.629     1104.940      719.282      244.262        0.192        0.103       41.985       11.561        0.076      331.967        0.324      870.644
01/23/2022  22:48:00      -27.073       11.716       -5.796       34.235       24.063       17.096     1172.033      579.021      292.266        0.147        0.102       29.500       15.695        0.283      332.003        0.383      870.645
01/23/2022  22:49:00      -57.249       26.019        2.538       42.816       32.735       19.303     1833.192     1071.586      372.610        0.362        0.164       62.884       19.369        0.095      331.973        0.334      870.657
01/23/2022  22:50:00      -77.677       -7.799      -10.955       29.256       24.526       18.975      855.922      601.544      360.058        0.402        0.091       78.067       15.364        0.039      331.967        0.323      870.659
01/23/2022  22:51:00      -22.454        8.328       -0.443       26.717       25.895       18.386      713.775      670.525      338.062        0.115        0.086       23.949       15.081        0.397      331.941        0.281      870.657
01/23/2022  22:52:00      -38.182        1.443        0.190       31.415       26.286       17.777      986.892      690.960      316.032        0.173        0.100       38.209       12.001        0.099      331.913        0.235      870.657
01/23/2022  22:53:00      -84.371      -10.057       -5.274       40.280       24.713       29.288     1622.509      610.722      857.778        0.517        0.155       84.968       20.910        0.061      331.887        0.191      870.653
01/23/2022  22:54:00      -26.617        7.433       -9.866       26.800       27.120       19.425      718.256      735.518      377.320        0.135        0.092       27.635       14.742        0.285      331.823        0.088      870.660
01/23/2022  22:55:00      -26.515       13.008       -5.503       52.713       18.010       19.787     2778.692      324.345      391.516        0.220        0.175       29.534       27.194        0.848      331.809        0.064      870.664
01/23/2022  22:56:00      -30.133       -0.782        5.312       37.857       26.743       20.108     1433.115      715.214      404.343        0.174        0.128       30.143       22.702        0.567      331.792        0.037      870.665
01/23/2022  22:57:00      -46.217       21.655       -6.305       55.555       30.352       24.233     3086.342      921.259      587.224        0.362        0.230       51.039       25.915        0.258      331.748       -0.036      870.661
01/23/2022  22:58:00      -70.812       13.394       -2.177       43.593       34.121       23.295     1900.381     1164.270      542.660        0.440        0.180       72.068       19.636        0.074      331.725       -0.073      870.661
01/23/2022  22:59:00      -83.329       27.520      -11.677       34.819       24.742       20.339     1212.361      612.170      413.694        0.504        0.112       87.756       16.713        0.036      331.711       -0.097      870.659
01/23/2022  23:00:00      -69.232       -2.426      -17.497       40.309       36.479       23.571     1624.852     1330.702      555.592        0.431        0.176       69.275       13.125        0.036      331.814        0.071      870.659
01/23/2022  23:01:00      -59.757       17.885      -10.229       36.407       28.676       18.381     1325.499      822.290      337.852        0.324        0.124       62.376       18.949        0.092      331.817        0.078      870.656
01/23/2022  23:02:00      -51.459        8.716      -10.488       44.304       22.710       16.657     1962.823      515.740      277.441        0.279        0.138       52.192       16.553        0.101      331.795        0.041      870.651
01/23/2022  23:03:00      -30.124        2.046      -13.154       29.728       25.247       17.730      883.741      637.406      314.335        0.146        0.092       30.194       13.383        0.196      331.788        0.029      870.654
01/23/2022  23:04:00      -68.779       24.076      -12.714       41.562       32.670       19.104     1727.416     1067.359      364.960        0.432        0.158       72.871       11.063        0.023      331.734       -0.058      870.645
01/23/2022  23:05:00      -84.321        5.323        1.114       34.437       27.564       21.586     1185.906      759.795      465.945        0.478        0.121       84.489       20.591        0.059      331.716       -0.089      870.631
01/23/2022  23:06:00      -19.489       13.388        4.169       29.783       29.600       22.862      887.026      876.155      522.691        0.143        0.114       23.645       13.686        0.335      331.682       -0.146      870.622
01/23/2022  23:07:00      -90.829       20.940        2.464       42.190       28.588       19.767     1780.014      817.286      390.718        0.584        0.149       93.212       19.202        0.042      331.692       -0.128      870.613
01/23/2022  23:08:00      -86.778       12.121       -7.070       52.262       27.661       20.436     2731.277      765.156      417.635        0.582        0.196       87.621       21.648        0.061      331.736       -0.056      870.609
01/23/2022  23:09:00      -96.956       37.067       -2.307       34.681       21.768       19.495     1202.793      473.838      380.069        0.642        0.103      103.800       17.723        0.029      331.668       -0.168      870.607
01/23/2022  23:10:00      -73.573       31.642       -3.941       27.696       24.856       12.504      767.047      617.802      156.342        0.399        0.077       80.088        8.194        0.010      331.729       -0.068      870.612
01/23/2022  23:11:00      -30.548       -2.436       -6.688       30.912       26.567       23.189      955.528      705.781      537.718        0.159        0.110       30.645       17.839        0.339      331.722       -0.079      870.606
01/23/2022  23:12:00      -80.673       -4.386       -8.377       38.155       33.102       29.163     1455.767     1095.726      850.475        0.500        0.170       80.792       29.748        0.136      331.677       -0.153      870.608
01/23/2022  23:13:00      -66.727        9.216      -12.063       39.702       23.738       20.451     1576.260      563.484      418.248        0.362        0.128       67.360       21.463        0.102      331.756       -0.024      870.607
01/23/2022  23:14:00       -9.792       -3.766        4.999       30.849       21.500       17.001      951.651      462.266      289.021        0.092        0.085       10.491       10.901        1.080      331.733       -0.061      870.593
01/23/2022  23:15:00        2.242        4.913       -2.405       30.588       25.061       21.946      935.631      628.071      481.617        0.104        0.102        5.400       13.392        6.150      331.747       -0.037      870.588
01/23/2022  23:16:00       10.602      -10.156       -8.623       13.738       17.836       13.323      188.721      318.114      177.508        0.049        0.034       14.682        8.055        0.301      331.814        0.074      870.591
01/23/2022  23:17:00      -34.449       11.682       -5.521       21.045       20.697       22.596      442.899      428.385      510.571        0.137        0.069       36.376       13.492        0.138      331.718       -0.085      870.588
01/23/2022  23:18:00      -70.743       22.503      -12.861       21.242       24.351       11.940      451.206      592.977      142.557        0.343        0.059       74.236        6.130        0.007      331.665       -0.171      870.588
01/23/2022  23:19:00      -37.888        5.720       -7.837       27.563       23.647       14.818      759.720      559.169      219.578        0.153        0.077       38.318       15.448        0.163      331.743       -0.045      870.584
01/23/2022  23:20:00      -50.671        1.766       -7.527       26.598       26.847       14.390      707.443      720.764      207.080        0.213        0.082       50.702       14.761        0.085      331.742       -0.047      870.587
01/23/2022  23:21:00      -82.756       22.375      -12.184       19.036       11.621       13.355      362.375      135.054      178.361        0.409        0.034       85.727        7.984        0.009      331.670       -0.164      870.588
01/23/2022  23:22:00      -30.791        3.468       -3.186       37.847       23.465       19.648     1432.414      550.623      386.054        0.167        0.118       30.985       21.461        0.480      331.742       -0.045      870.593
01/23/2022  23:23:00       -1.834       -2.216        1.070       18.516       13.737       13.170      342.824      188.716      173.445        0.036        0.035        2.876       11.562       16.157      331.792        0.035      870.584
01/23/2022  23:24:00      -54.907       11.859      -15.810       28.666       18.617       12.474      821.712      346.576      155.610        0.236        0.066       56.173       11.189        0.040      331.724       -0.075      870.571
01/23/2022  23:25:00      -29.946        4.079       -5.068       20.962       18.041       17.177      439.387      325.487      295.055        0.100        0.053       30.223       10.211        0.114      331.779        0.015      870.559
01/23/2022  23:26:00       -8.429       -9.696       -7.138       21.482       25.170       14.229      461.483      633.518      202.462        0.076        0.065       12.848        8.764        0.465      331.744       -0.042      870.553
01/23/2022  23:27:00      -10.868      -13.675       -9.654       17.742       15.837       11.755      314.776      250.822      138.179        0.055        0.035       17.468        7.206        0.170      331.755       -0.023      870.556
01/23/2022  23:28:00       -9.709       -6.037       -3.849       21.563       12.160       10.657      464.951      147.868      113.577        0.044        0.036       11.433        8.457        0.547      331.731       -0.065      870.557
01/23/2022  23:29:00      -64.313       -2.878      -14.882       21.188       19.510       13.912      448.947      380.643      193.542        0.269        0.051       64.377       12.310        0.037      331.753       -0.028      870.556
01/23/2022  23:30:00      -59.535      -12.010       -9.760       33.135       24.969       23.421     1097.953      623.432      548.541        0.303        0.113       60.735       18.911        0.097      331.802        0.053      870.555
01/23/2022  23:31:00      -45.848       -8.142       -2.179       36.236       25.002       23.393     1313.058      625.115      547.255        0.233        0.124       46.566       14.190        0.093      331.758       -0.020      870.556
01/23/2022  23:32:00      -54.479       -3.532       -4.472       41.303       32.492       20.656     1705.955     1055.712      426.667        0.309        0.159       54.593       22.380        0.168      331.742       -0.046      870.552
01/23/2022  23:33:00      -38.360        3.709        1.701       35.019       28.051       18.969     1226.303      786.869      359.840        0.193        0.119       38.539       13.985        0.132      331.711       -0.096      870.556
01/23/2022  23:34:00      -23.484      -17.061        0.268       28.605       25.397       20.425      818.273      645.004      417.179        0.136        0.094       29.027       11.033        0.144      331.729       -0.068      870.546
01/23/2022  23:35:00      -28.449       -2.685       -4.050       29.280       17.035       14.728      857.326      290.176      216.918        0.110        0.068       28.576        9.782        0.117      331.725       -0.073      870.535
01/23/2022  23:36:00       -7.261        2.155       -4.170       23.768       14.529       14.817      564.934      211.104      219.548        0.053        0.050        7.574       13.181        3.028      331.675       -0.156      870.529
01/23/2022  23:37:00       -4.821       -8.748       -5.884       27.474       12.256       12.762      754.797      150.215      162.861        0.060        0.053        9.989        8.599        0.741      331.643       -0.209      870.520
01/23/2022  23:38:00      -56.741      -17.938      -10.349       29.992       20.140       16.417      899.519      405.606      269.502        0.261        0.079       59.509       16.100        0.073      331.643       -0.211      870.513
01/23/2022  23:39:00      -52.477       -8.148       -6.549       29.771       23.472       15.282      886.314      550.923      233.550        0.227        0.084       53.105       12.877        0.059      331.676       -0.155      870.495
01/23/2022  23:40:00      -47.307      -17.892      -10.406       26.416       22.243       16.663      697.814      494.756      277.669        0.207        0.074       50.577       15.647        0.096      331.599       -0.281      870.476
01/23/2022  23:41:00      -10.565       11.280        1.861       24.091       11.788       15.787      580.398      138.961      249.218        0.061        0.048       15.455       12.445        0.648      331.505       -0.439      870.469
01/23/2022  23:42:00      -36.891        3.672       -8.036       24.098       23.395       17.735      580.733      547.315      314.517        0.144        0.072       37.074        4.181        0.013      331.563       -0.341      870.475
01/23/2022  23:43:00      -18.849        3.819        1.253       19.555       22.003       15.266      382.410      484.129      233.063        0.074        0.055       19.232       10.782        0.314      331.487       -0.467      870.483
01/23/2022  23:44:00      -49.603        3.264       -5.641       31.244       26.271       16.493      976.214      690.166      272.006        0.222        0.097       49.710       13.250        0.071      331.503       -0.442      870.484
01/23/2022  23:45:00       -9.239       19.840       -1.866       20.475       21.603       13.314      419.219      466.690      177.254        0.077        0.053       21.885        9.576        0.191      331.501       -0.443      870.476
01/23/2022  23:46:00       -2.827        1.363       -5.406       22.611       19.500       13.206      511.275      380.261      174.403        0.055        0.053        3.138       13.026       17.231      331.516       -0.418      870.470
01/23/2022  23:47:00      -30.730       22.249       -9.708       14.680       13.631       10.913      215.495      185.814      119.096        0.103        0.026       37.939        5.498        0.021      331.477       -0.484      870.463
01/23/2022  23:48:00      -71.023       34.599      -11.609       20.910       13.471       10.702      437.233      181.477      114.544        0.355        0.037       79.003        8.918        0.013      331.407       -0.599      870.458
01/23/2022  23:49:00      -42.153       24.276       -7.140       24.321       19.669       14.131      591.494      386.857      199.684        0.180        0.059       48.644       11.180        0.053      331.437       -0.548      870.447
01/23/2022  23:50:00      -31.825       28.552       -2.013       21.217       11.521        9.872      450.146      132.741       97.449        0.126        0.034       42.755        5.886        0.019      331.400       -0.610      870.431
01/23/2022  23:51:00      -36.874       19.629      -14.455       13.830        9.883        9.170      191.272       97.665       84.084        0.116        0.019       41.773        6.760        0.026      331.474       -0.490      870.417
01/23/2022  23:52:00      -29.873       27.109      -10.767       13.596       10.233        7.244      184.850      104.720       52.475        0.104        0.017       40.340        3.503        0.008      331.459       -0.514      870.403
01/23/2022  23:53:00       -3.715       50.530       -7.966       14.838       16.121       10.952      220.163      259.880      119.952        0.162        0.030       50.666        7.707        0.023      331.409       -0.596      870.390
01/23/2022  23:54:00        7.414       59.369       -9.585       17.730       16.150       15.730      314.358      260.825      247.436        0.225        0.041       59.830       10.031        0.028      331.443       -0.538      870.374
01/23/2022  23:55:00       12.055       67.458       -4.976       19.440       19.329       13.184      377.907      373.618      173.807        0.282        0.046       68.527        8.644        0.016      331.471       -0.494      870.368
01/23/2022  23:56:00       35.367       80.726       -6.911       24.123       21.271       18.823      581.927      452.462      354.305        0.460        0.069       88.133       12.895        0.021      331.440       -0.544      870.353
01/23/2022  23:57:00       34.418       48.793       -6.122       22.782       26.065       19.353      519.010      679.360      374.524        0.259        0.079       59.710       16.581        0.077      331.344       -0.700      870.356
01/23/2022  23:58:00       40.087       38.950       -6.416       17.614       24.238       13.082      310.252      587.491      171.138        0.212        0.053       55.893       10.938        0.038      331.323       -0.734      870.355
01/23/2022  23:59:00       26.916       44.567        1.822       22.336       29.547       16.516      498.917      873.043      272.794        0.218        0.082       52.064       13.892        0.071      331.381       -0.639      870.344
01/24/2022  00:00:00       31.025       71.545      -10.267       22.312       32.246       15.367      497.832     1039.797      236.143        0.398        0.089       77.982       13.614        0.030      331.612       -0.260      870.331
01/24/2022  00:01:00       36.578       58.757       -6.167       19.460       22.801       14.691      378.695      519.880      215.825        0.297        0.056       69.212       10.588        0.023      331.539       -0.381      870.328
01/24/2022  00:02:00       40.001       26.919       -3.856       16.857       15.460       11.556      284.171      239.027      133.531        0.150        0.033       48.215        9.126        0.036      331.482       -0.475      870.325
01/24/2022  00:03:00       41.951       38.607      -10.681       20.386       13.098       14.398      415.569      171.556      207.292        0.208        0.040       57.012        5.236        0.008      331.442       -0.542      870.321
01/24/2022  00:04:00       16.639       28.524       -7.321       14.473       11.999       10.018      209.470      143.978      100.368        0.080        0.023       33.022        2.727        0.007      331.443       -0.538      870.305
01/24/2022  00:05:00       31.884       43.806       -7.401       21.038       26.233       13.270      442.587      688.176      176.105        0.215        0.065       54.181       10.323        0.036      331.467       -0.499      870.302
01/24/2022  00:06:00       52.592       66.951      -12.821       15.836       15.593        8.373      250.793      243.144       70.113        0.399        0.028       85.137        7.402        0.008      331.498       -0.451      870.289
01/24/2022  00:07:00       49.093       53.293      -12.076       15.971       14.316       11.457      255.066      204.959      131.269        0.299        0.030       72.458       10.416        0.021      331.492       -0.459      870.286
01/24/2022  00:08:00       48.326       49.553       -9.287       18.775       17.949       14.501      352.495      322.164      210.286        0.288        0.044       69.217       14.190        0.042      331.499       -0.447      870.275
01/24/2022  00:09:00       41.929       46.322      -10.373       19.049       11.244       12.347      362.876      126.434      152.439        0.233        0.032       62.481        7.103        0.013      331.517       -0.418      870.261
01/24/2022  00:10:00       27.175       24.090        0.920       13.930       15.178       11.028      194.044      230.366      121.616        0.093        0.027       36.315        6.196        0.029      331.513       -0.424      870.255
01/24/2022  00:11:00       19.133       14.851       -5.605       15.044       16.162       10.184      226.336      261.196      103.720        0.060        0.030       24.220        8.605        0.126      331.512       -0.426      870.244
01/24/2022  00:12:00       20.366       27.131       -4.881       15.809       11.115       11.351      249.933      123.539      128.846        0.084        0.025       33.925        8.921        0.069      331.593       -0.293      870.237
01/24/2022  00:13:00       30.817       38.559       -6.510       14.595       11.921        7.662      213.020      142.112       58.703        0.145        0.021       49.361        6.987        0.020      331.670       -0.165      870.222
01/24/2022  00:14:00       19.577       29.060       -5.974       15.670       11.045        8.033      245.561      121.988       64.533        0.085        0.022       35.039        8.413        0.058      331.706       -0.107      870.209
01/24/2022  00:15:00       10.234       21.832       -7.718        9.541       10.507        7.229       91.040      110.402       52.259        0.045        0.013       24.112        4.943        0.042      331.698       -0.118      870.193
01/24/2022  00:16:00       -8.845       18.512       -8.738       16.107       12.098        7.688      259.431      146.363       59.100        0.048        0.023       20.516        5.222        0.065      331.642       -0.211      870.176
01/24/2022  00:17:00      -40.284       16.332      -12.134       15.873       13.483        9.680      251.953      181.792       93.707        0.128        0.026       43.469        7.222        0.028      331.543       -0.374      870.160
01/24/2022  00:18:00      -12.724       -0.185        0.241       15.425       11.744       10.854      237.917      137.913      117.799        0.033        0.025       12.725        8.424        0.438      331.336       -0.714      870.145
01/24/2022  00:19:00      -26.444       -4.800       -4.711       28.860       21.921       13.961      832.911      480.539      194.921        0.113        0.075       26.876       13.472        0.251      331.387       -0.632      870.131
01/24/2022  00:20:00      -39.004        7.617       -2.622       20.745       18.669       15.244      430.338      348.543      232.385        0.130        0.051       39.741        8.315        0.044      331.438       -0.547      870.122
01/24/2022  00:21:00      -69.163       -4.729      -16.753       32.436       22.985       21.785     1052.101      528.288      474.590        0.357        0.103       69.324       15.514        0.050      331.417       -0.581      870.114
01/24/2022  00:22:00      -28.348        1.611       -3.451       29.217       25.767       20.438      853.629      663.920      417.717        0.138        0.097       28.394       15.844        0.311      331.332       -0.721      870.109
01/24/2022  00:23:00      -18.401        3.126        2.433       33.745       20.816       13.970     1138.739      433.294      195.153        0.106        0.088       18.664       14.128        0.573      331.322       -0.739      870.101
01/24/2022  00:24:00      -18.555        3.361       -6.113       23.862       18.462       20.004      569.398      340.854      400.151        0.085        0.066       18.857       12.945        0.471      331.341       -0.706      870.101
01/24/2022  00:25:00      -47.589        2.237       -6.831       34.177       20.302       16.760     1168.061      412.177      280.911        0.209        0.093       47.641       16.869        0.125      331.446       -0.534      870.108
01/24/2022  00:26:00       -4.827       -0.902        3.152       29.891       18.265       14.147      893.490      333.609      200.126        0.073        0.071        4.911       13.004        7.012      331.353       -0.686      870.112
01/24/2022  00:27:00      -44.590       -9.689        1.960       32.804       27.335       22.524     1076.133      747.192      507.347        0.221        0.117       45.631       20.251        0.197      331.397       -0.616      870.120
01/24/2022  00:28:00      -55.029      -16.168       -4.199       36.799       24.749       19.934     1354.199      612.512      397.374        0.284        0.118       57.355       17.372        0.092      331.455       -0.520      870.120
01/24/2022  00:29:00      -81.551      -32.860       -3.371       33.277       23.109       21.036     1107.388      534.003      442.528        0.491        0.104       87.923       18.988        0.047      331.542       -0.377      870.134
01/24/2022  00:30:00      -91.727      -19.031      -10.160       40.967       22.875       17.330     1678.327      523.264      300.320        0.569        0.125       93.681       12.720        0.018      331.526       -0.404      870.133
01/24/2022  00:31:00      -81.313      -21.626      -11.873       29.444       18.936       18.130      866.947      358.587      328.708        0.439        0.078       84.140       11.846        0.020      331.491       -0.462      870.135
01/24/2022  00:32:00      -60.327       -6.920       -2.281       42.236       29.115       23.412     1783.840      847.698      548.143        0.344        0.159       60.723       23.755        0.153      331.506       -0.436      870.128
01/24/2022  00:33:00      -69.080        1.058       -6.653       29.431       28.057       21.695      866.201      787.181      470.658        0.347        0.106       69.088       18.839        0.074      331.447       -0.533      870.124
01/24/2022  00:34:00      -49.735       11.328        0.297       52.447       28.020       23.116     2750.703      785.133      534.366        0.334        0.204       51.009       19.920        0.153      331.376       -0.648      870.114
01/24/2022  00:35:00      -72.169      -14.028      -19.252       53.134       19.801       20.176     2823.177      392.091      407.091        0.470        0.181       73.520       24.063        0.107      331.316       -0.748      870.101
01/24/2022  00:36:00      -57.529      -11.064       -3.147       36.746       29.145       22.697     1350.277      849.425      515.147        0.308        0.136       58.584       20.820        0.126      331.290       -0.790      870.087
01/24/2022  00:37:00      -72.498       10.649        0.887       42.212       27.870       19.310     1781.863      776.763      372.871        0.415        0.147       73.276       20.856        0.081      331.248       -0.859      870.066
01/24/2022  00:38:00      -85.624       33.164       -3.698       30.427       20.930       16.390      925.820      438.066      268.627        0.504        0.082       91.823       14.253        0.024      331.188       -0.956      870.052
01/24/2022  00:39:00      -88.017       10.622       -0.869       49.228       33.056       22.209     2423.356     1092.716      493.260        0.593        0.200       88.655       23.847        0.072      331.330       -0.725      870.030
01/24/2022  00:40:00      -73.803       13.242       -7.060       59.876       29.887       17.701     3585.117      893.221      313.327        0.523        0.240       74.982       23.465        0.098      331.386       -0.632      870.012
01/24/2022  00:41:00      -24.414        0.175       -4.684       29.567       31.838       21.644      874.222     1013.632      468.477        0.149        0.118       24.414       18.279        0.561      331.341       -0.705      869.991
01/24/2022  00:42:00        4.191        8.530        0.278       23.161       18.271       18.206      536.447      333.817      331.463        0.065        0.060        9.504       16.898        3.161      331.249       -0.857      869.971
01/24/2022  00:43:00      -58.373        3.140      -11.939       38.233       21.126       18.016     1461.738      446.325      324.580        0.290        0.112       58.457       14.572        0.062      331.193       -0.948      869.955
01/24/2022  00:44:00      -65.335       13.343       -8.723       27.986       18.800       19.163      783.243      353.423      367.209        0.301        0.075       66.684       15.993        0.058      331.090       -1.119      869.942
01/24/2022  00:45:00      -73.716       19.797      -13.514       29.637       17.378       15.005      878.348      301.983      225.155        0.371        0.070       76.328       10.893        0.020      331.187       -0.959      869.934
01/24/2022  00:46:00      -97.989       30.468      -10.381       18.703       19.439       12.850      349.809      377.879      165.126        0.577        0.045      102.616        5.630        0.003      331.185       -0.964      869.922
01/24/2022  00:47:00      -87.295       24.089       -7.126       33.751       19.751       17.241     1139.100      390.098      297.238        0.504        0.091       90.558       14.360        0.025      331.166       -0.993      869.913
01/24/2022  00:48:00     -106.946       25.220      -14.910       27.382       25.488       21.016      749.764      649.653      441.664        0.707        0.092      109.879       18.466        0.028      331.151       -1.019      869.905
01/24/2022  00:49:00      -94.783       32.542      -12.507       23.927       20.166       14.409      572.492      406.666      207.617        0.569        0.059      100.214       10.642        0.011      331.039       -1.203      869.898
01/24/2022  00:50:00      -79.130       29.800      -10.833       22.091       18.218       14.975      487.997      331.885      224.257        0.416        0.052       84.555        7.129        0.007      330.968       -1.319      869.887
01/24/2022  00:51:00      -94.152       50.711      -14.938       29.596       21.527       17.732      875.917      463.423      314.418        0.666        0.083      106.940       11.738        0.012      330.927       -1.387      869.876
01/24/2022  00:52:00      -97.090       59.109      -14.320       29.018       24.023       18.877      842.044      577.094      356.346        0.745        0.089      113.668        9.174        0.007      330.927       -1.387      869.865
01/24/2022  00:53:00      -90.913       44.957       -9.873       35.409       22.927       20.925     1253.806      525.661      437.874        0.630        0.111      101.421       19.763        0.038      330.934       -1.377      869.843
01/24/2022  00:54:00     -118.102       51.252      -15.201       32.529       20.711       18.553     1058.125      428.948      344.208        0.932        0.092      128.744       16.529        0.016      330.947       -1.355      869.828
01/24/2022  00:55:00     -118.043       40.642      -18.524       15.975       21.433       14.448      255.188      459.374      208.735        0.843        0.046      124.843        7.450        0.004      330.971       -1.316      869.826
01/24/2022  00:56:00     -114.543       45.569      -15.214       21.854       19.029       18.481      477.603      362.108      341.550        0.830        0.059      123.274       10.040        0.007      330.986       -1.291      869.810
01/24/2022  00:57:00      -86.614       27.149      -15.192       34.198       19.942       16.506     1169.528      397.672      272.437        0.515        0.092       90.769       17.205        0.036      330.987       -1.290      869.796
01/24/2022  00:58:00      -77.775       10.039       -8.848       23.468       21.509       14.643      550.736      462.633      214.418        0.373        0.061       78.421       12.980        0.027      331.031       -1.217      869.788
01/24/2022  00:59:00      -39.969        2.981       -0.271       34.000       19.898       16.409     1155.998      395.936      269.250        0.171        0.091       40.080       12.890        0.103      331.028       -1.221      869.775
01/24/2022  01:00:00      -75.705       -7.999       -5.358       25.988       19.657       19.641      675.389      386.381      385.784        0.364        0.072       76.127       12.191        0.026      331.091       -1.117      869.769
01/24/2022  01:01:00      -74.733        7.660        0.784       40.308       31.192       20.881     1624.714      972.946      436.000        0.434        0.152       75.125       17.828        0.056      331.056       -1.176      869.769
01/24/2022  01:02:00      -87.975        5.709       -6.779       49.842       29.737       15.432     2484.253      884.284      238.158        0.571        0.180       88.161       17.703        0.040      331.095       -1.112      869.772
01/24/2022  01:03:00      -56.714       11.607       -8.458       30.536       24.855       20.430      932.425      617.755      417.403        0.269        0.098       57.890       12.233        0.045      331.098       -1.105      869.770
01/24/2022  01:04:00      -40.657        4.200      -13.731       53.275       28.318       18.226     2838.174      801.885      332.202        0.291        0.199       40.873       23.340        0.326      331.146       -1.026      869.771
01/24/2022  01:05:00      -85.379       22.663       -8.027       29.014       19.766       18.032      841.817      390.696      325.140        0.471        0.078       88.336       15.602        0.031      331.026       -1.225      869.765
01/24/2022  01:06:00     -107.279       31.376       -9.089       13.407       14.485       12.822      179.749      209.810      164.399        0.656        0.028      111.773        9.295        0.007      330.998       -1.270      869.759
01/24/2022  01:07:00     -104.039       37.886      -15.671       11.461       12.202       10.620      131.360      148.880      112.794        0.645        0.020      110.722        5.558        0.003      330.966       -1.322      869.748
01/24/2022  01:08:00     -105.602       38.123      -15.288       31.544       26.812       17.081      995.010      718.878      291.770        0.742        0.100      112.273       12.399        0.012      330.995       -1.276      869.732
01/24/2022  01:09:00      -84.357       14.505        1.591       46.781       34.287       23.725     2188.480     1175.590      562.893        0.563        0.196       85.595       20.739        0.059      331.030       -1.218      869.725
01/24/2022  01:10:00      -48.887       11.877       -4.600       52.569       35.510       22.035     2763.490     1260.983      485.528        0.353        0.226       50.309       22.072        0.192      330.998       -1.271      869.731
01/24/2022  01:11:00       10.851        5.668       -7.256       15.881       15.051       16.291      252.193      226.531      265.396        0.047        0.037       12.242        8.313        0.461      330.970       -1.318      869.731
01/24/2022  01:12:00       11.860       -8.573        4.081       20.888       26.495       16.294      436.300      702.009      265.489        0.082        0.070       14.635        8.116        0.308      330.976       -1.305      869.717
01/24/2022  01:13:00        2.243       -8.541      -16.284       18.367       22.922       19.968      337.344      525.399      398.730        0.080        0.063        8.831        4.907        0.309      330.911       -1.415      869.708
01/24/2022  01:14:00        2.644        3.679       -0.636       41.299       18.695       14.066     1705.569      349.517      197.861        0.114        0.113        4.530        2.795        0.381      330.876       -1.470      869.696
01/24/2022  01:15:00      -27.547        0.652       -5.114       41.763       21.643       14.436     1744.153      468.434      208.396        0.160        0.121       27.555       16.649        0.365      330.765       -1.652      869.678
01/24/2022  01:16:00       -5.031       -3.879        5.006       39.547       16.465       19.849     1563.958      271.088      393.994        0.115        0.111        6.353       14.988        5.566      330.901       -1.429      869.659
01/24/2022  01:17:00      -58.730       -5.370      -19.164       45.376       36.079       21.336     2058.955     1301.665      455.240        0.383        0.191       58.975       17.479        0.088      330.921       -1.396      869.639
01/24/2022  01:18:00      -65.104        5.831       -1.279       40.686       32.259       25.657     1655.387     1040.612      658.259        0.381        0.168       65.365       27.730        0.180      330.890       -1.447      869.624
01/24/2022  01:19:00      -75.940       18.355       -5.393       38.536       24.190       21.868     1485.050      585.161      478.201        0.434        0.127       78.127       21.529        0.076      330.923       -1.395      869.611
01/24/2022  01:20:00      -81.919       22.831       -5.620       26.145       25.906       14.673      683.558      671.125      215.286        0.442        0.078       85.041       12.870        0.023      330.889       -1.449      869.599
01/24/2022  01:21:00      -54.842        5.174       -8.971       27.790       26.950       14.974      772.273      726.291      224.231        0.242        0.086       55.086       15.161        0.076      330.953       -1.344      869.599
01/24/2022  01:22:00       -5.151       -7.254       -2.020       18.019       20.018       15.637      324.680      400.708      244.512        0.053        0.048        8.897       13.544        2.318      331.010       -1.251      869.590
01/24/2022  01:23:00      -21.872        4.790      -11.026       21.815       14.695       12.358      475.882      215.936      152.732        0.073        0.042       22.391        9.888        0.195      330.953       -1.345      869.586
01/24/2022  01:24:00      -63.102       14.825       -9.462       16.168       12.137        9.240      261.409      147.311       85.384        0.239        0.025       64.820        4.640        0.005      330.889       -1.451      869.578
01/24/2022  01:25:00      -31.994       -0.647       -0.174       34.981       15.943       13.152     1223.671      254.188      172.983        0.134        0.083       32.000       16.191        0.256      330.989       -1.286      869.579
01/24/2022  01:26:00      -60.994       16.191       -8.809       27.478       18.346       16.801      755.043      336.593      282.277        0.272        0.069       63.107       15.563        0.061      330.916       -1.406      869.580
01/24/2022  01:27:00      -48.859        0.000       -5.822       39.486       22.264       18.185     1559.124      495.677      330.680        0.240        0.119       48.859       23.081        0.223      330.934       -1.376      869.577
01/24/2022  01:28:00      -21.594        0.983       -3.041       29.377       21.735       15.275      862.993      472.421      233.316        0.102        0.078       21.616        9.158        0.179      330.909       -1.417      869.573
01/24/2022  01:29:00        2.124      -11.895        2.461       30.402       20.418       16.040      924.305      416.886      257.289        0.087        0.080       12.083       15.407        1.626      331.001       -1.266      869.571
01/24/2022  01:30:00      -59.687        4.245       -8.703       45.396       21.478       20.615     2060.775      461.307      424.974        0.330        0.147       59.838       21.721        0.132      331.043       -1.197      869.564
01/24/2022  01:31:00      -73.372       10.812       -0.717       35.039       24.721       19.625     1227.716      611.147      385.144        0.386        0.111       74.164       15.479        0.044      330.992       -1.280      869.558
01/24/2022  01:32:00      -87.794       14.922       -1.298       36.348       23.776       18.460     1321.162      565.276      340.766        0.508        0.111       89.053       18.613        0.044      331.092       -1.116      869.552
01/24/2022  01:33:00      -76.434        4.596       -4.725       44.886       30.777       20.538     2014.754      947.244      421.815        0.463        0.169       76.572       16.321        0.045      331.012       -1.247      869.543
01/24/2022  01:34:00      -84.458       14.872       -4.828       47.345       26.364       19.538     2241.594      695.047      381.742        0.535        0.166       85.757       17.702        0.043      330.987       -1.289      869.536
01/24/2022  01:35:00      -89.486       11.833       -6.301       35.435       23.530       21.455     1255.666      553.658      460.317        0.523        0.113       90.265       15.995        0.031      330.988       -1.287      869.531
01/24/2022  01:36:00     -123.917       20.754       -4.139       32.704       28.679       19.796     1069.555      822.513      391.896        0.904        0.114      125.643       18.654        0.022      330.877       -1.467      869.525
01/24/2022  01:37:00      -92.487       13.139       -1.966       43.440       25.503       22.090     1887.068      650.428      487.956        0.588        0.151       93.416       20.222        0.047      330.833       -1.541      869.518
01/24/2022  01:38:00      -91.413       24.604      -11.514       25.730       17.891       15.431      662.055      320.095      238.123        0.516        0.061       94.666       12.999        0.019      330.774       -1.637      869.511
01/24/2022  01:39:00      -95.595       17.938      -12.939       31.324       26.251       19.438      981.200      689.135      377.851        0.584        0.102       97.263        7.814        0.006      330.815       -1.569      869.509
01/24/2022  01:40:00     -105.086       20.220      -12.493       16.660       20.403       13.637      277.546      416.299      185.975        0.624        0.044      107.014        4.586        0.002      330.756       -1.667      869.503
01/24/2022  01:41:00      -42.338        1.082      -12.393       29.281       23.667       20.195      857.398      560.112      407.830        0.189        0.091       42.352       14.863        0.123      330.825       -1.554      869.497
01/24/2022  01:42:00       -7.851       -8.803       -1.994       26.829       14.862       14.070      719.772      220.867      197.971        0.064        0.057       11.796       15.310        1.685      330.810       -1.578      869.494
01/24/2022  01:43:00      -25.476      -13.336      -10.403       32.981       21.567       13.683     1087.752      465.138      187.237        0.134        0.087       28.756       10.888        0.143      330.854       -1.507      869.496
01/24/2022  01:44:00      -70.006       31.796      -12.380       34.433       32.539       12.746     1185.633     1058.760      162.465        0.424        0.120       76.888        6.856        0.008      330.766       -1.650      869.495
01/24/2022  01:45:00      -69.658       14.304       -2.640       46.168       44.811       24.186     2131.491     2008.022      584.979        0.489        0.236       71.112       23.494        0.109      330.790       -1.611      869.487
01/24/2022  01:46:00      -96.270       43.639       -3.368       37.693       23.970       21.334     1420.736      574.546      455.126        0.682        0.123      105.699       18.270        0.030      330.715       -1.734      869.481
01/24/2022  01:47:00      -60.720        5.130      -10.121       35.948       26.061       19.527     1292.293      679.172      381.316        0.308        0.118       60.937       13.919        0.052      330.749       -1.678      869.482
01/24/2022  01:48:00      -55.100       20.431       -8.973       38.678       27.914       12.695     1495.954      779.167      161.162        0.298        0.122       58.766       13.905        0.056      330.783       -1.622      869.485
01/24/2022  01:49:00      -61.786       14.379       -4.044       23.398       18.308       14.043      547.451      335.178      197.193        0.256        0.054       63.437       10.730        0.029      330.778       -1.631      869.481
01/24/2022  01:50:00      -73.223       21.020      -12.423       17.797       17.279       11.751      316.749      298.561      138.078        0.336        0.038       76.180       10.329        0.018      330.781       -1.625      869.472
01/24/2022  01:51:00      -79.511       19.095      -13.109       12.800       11.128        9.558      163.841      123.839       91.353        0.362        0.019       81.772        5.116        0.004      330.798       -1.597      869.456
01/24/2022  01:52:00      -57.746        4.600       -7.088       31.796       20.711       15.656     1010.995      428.954      245.106        0.255        0.084       57.929        8.763        0.023      330.843       -1.525      869.439
01/24/2022  01:53:00      -84.660       24.471      -11.641       16.569       12.294       13.234      274.516      151.150      175.134        0.425        0.030       88.126        8.418        0.009      330.834       -1.540      869.422
01/24/2022  01:54:00      -69.066       14.467       -6.794       32.711       18.247       14.607     1070.017      332.937      213.371        0.332        0.081       70.565       11.619        0.027      330.848       -1.516      869.399
01/24/2022  01:55:00      -32.671        3.407      -12.404       40.254       18.983       14.030     1620.418      360.363      196.838        0.170        0.109       32.849        9.797        0.089      330.937       -1.370      869.383
01/24/2022  01:56:00      -75.631       13.791       -8.447       37.796       23.485       16.868     1428.537      551.531      284.515        0.412        0.113       76.878        8.323        0.012      330.908       -1.419      869.374
01/24/2022  01:57:00      -94.319       25.010      -11.202       22.527       15.419       11.707      507.457      237.760      137.057        0.526        0.044       97.579        6.797        0.005      330.789       -1.613      869.366
01/24/2022  01:58:00      -91.896       24.660      -12.017       16.668       18.477        9.932      277.806      341.412       98.641        0.496        0.036       95.147        5.961        0.004      330.771       -1.642      869.356
01/24/2022  01:59:00      -81.008       27.275       -6.806       18.102       15.848       12.983      327.682      251.144      168.557        0.405        0.037       85.477       10.384        0.015      330.735       -1.701      869.342
01/24/2022  02:00:00      -94.944       29.490      -12.456       18.946       18.881       13.665      358.961      356.492      186.721        0.547        0.045       99.418       11.820        0.014      330.765       -1.652      869.344
01/24/2022  02:01:00     -102.599       32.332       -6.583       14.520       14.949       10.599      210.830      223.475      112.330        0.608        0.027      107.572        8.313        0.006      330.729       -1.712      869.348
01/24/2022  02:02:00     -104.385       32.060      -12.559       13.837       13.942       13.862      191.459      194.391      192.156        0.633        0.029      109.197        7.266        0.004      330.759       -1.662      869.349
01/24/2022  02:03:00     -106.258       36.151      -13.306       17.131       18.360       13.370      293.487      337.086      178.760        0.679        0.040      112.239        7.690        0.005      330.774       -1.637      869.351
01/24/2022  02:04:00      -98.687       31.355       -7.894       17.612       14.721       16.379      310.182      216.693      268.258        0.579        0.040      103.548       11.926        0.013      330.704       -1.753      869.350
01/24/2022  02:05:00      -92.809       33.249      -21.180       24.957       14.977       14.368      622.847      224.296      206.432        0.561        0.053       98.585        3.555        0.001      330.614       -1.901      869.343
01/24/2022  02:06:00      -69.388       34.825      -10.303       33.861       19.934       13.332     1146.591      397.351      177.732        0.393        0.086       77.637       10.196        0.017      330.548       -2.009      869.320
01/24/2022  02:07:00      -86.220       25.493      -11.585       31.040       18.836       14.773      963.459      354.797      218.230        0.488        0.077       89.910        5.636        0.004      330.548       -2.008      869.301
01/24/2022  02:08:00      -81.016       42.383      -17.627       13.722       11.721       10.130      188.306      137.377      102.621        0.455        0.021       91.432        6.236        0.005      330.510       -2.072      869.277
01/24/2022  02:09:00      -40.124       18.845      -19.286       20.539       13.624       13.724      421.846      185.606      188.357        0.157        0.040       44.329       10.805        0.059      330.722       -1.723      869.265
01/24/2022  02:10:00       -3.854        1.059       -2.664       10.060       11.561        8.010      101.210      133.666       64.164        0.016        0.015        3.997        4.229        1.119      330.682       -1.789      869.258
01/24/2022  02:11:00       -3.865        5.097       -4.764        5.179        4.770        4.934       26.822       22.754       24.348        0.007        0.004        6.397        3.152        0.243      330.818       -1.564      869.260
01/24/2022  02:12:00       -8.967       -8.083       -8.015        8.796       10.983        7.908       77.375      120.628       62.535        0.024        0.013       12.073        4.954        0.168      330.856       -1.503      869.262
01/24/2022  02:13:00       -9.979       -6.556       -7.437        9.985       10.809        7.974       99.701      116.826       63.580        0.024        0.014       11.940        5.004        0.176      330.615       -1.898      869.259
01/24/2022  02:14:00       -3.340      -10.523       -6.062       11.319       11.085        8.364      128.128      122.876       69.959        0.024        0.016       11.041        5.067        0.211      330.696       -1.766      869.246
01/24/2022  02:15:00        0.970        8.001       -1.054        7.318        9.222        9.793       53.556       85.049       95.905        0.015        0.012        8.059        6.228        0.597      330.638       -1.860      869.239
01/24/2022  02:16:00      -23.604        8.578       -5.653       23.102       16.928        8.129      533.712      286.554       66.087        0.077        0.044       25.114        6.340        0.064      330.519       -2.058      869.235
01/24/2022  02:17:00      -33.836       11.628      -14.435       19.408       12.489        9.608      376.679      155.973       92.314        0.106        0.031       35.778        7.170        0.040      330.587       -1.946      869.230
01/24/2022  02:18:00      -15.570       12.640       -8.966        9.596       10.884        7.895       92.076      118.456       62.335        0.038        0.014       20.055        5.459        0.074      330.582       -1.954      869.229
01/24/2022  02:19:00      -18.411       11.953       -7.203        8.407        8.453        7.355       70.673       71.450       54.102        0.036        0.010       21.951        3.846        0.031      330.711       -1.740      869.226
01/24/2022  02:20:00      -19.631        9.445      -10.887       10.222        8.286        6.708      104.499       68.653       45.001        0.041        0.011       21.785        0.930        0.002      330.698       -1.760      869.215
01/24/2022  02:21:00        8.705       -0.986        5.589       13.062        8.500        8.625      170.615       72.258       74.387        0.021        0.016        8.761        6.349        0.525      330.631       -1.873      869.195
01/24/2022  02:22:00       -8.776        3.236       -9.687       32.146       13.954       12.255     1033.352      194.713      150.177        0.078        0.069        9.353       14.097        2.272      330.621       -1.890      869.174
01/24/2022  02:23:00      -39.831        8.658       -8.152       16.304       16.588       12.801      265.808      275.157      163.871        0.122        0.035       40.761        7.399        0.033      330.579       -1.959      869.148
01/24/2022  02:24:00      -59.848        9.707      -10.989       26.487       18.196       13.675      701.566      331.110      187.006        0.251        0.061       60.630        7.719        0.016      330.600       -1.925      869.127
01/24/2022  02:25:00      -88.169       22.215      -10.312       12.898       14.224       13.196      166.348      202.326      174.130        0.446        0.027       90.924        6.681        0.005      330.642       -1.855      869.120
01/24/2022  02:26:00      -42.667       13.539       -2.476       26.409       18.797       16.316      697.429      353.309      266.204        0.166        0.066       44.764       13.536        0.091      330.475       -2.128      869.116
01/24/2022  02:27:00      -80.295       27.242      -11.138       19.764       17.517       13.412      390.622      306.835      179.888        0.410        0.044       84.790        9.948        0.014      330.515       -2.063      869.125
01/24/2022  02:28:00      -70.672       31.168       -5.845       17.306       18.742       11.838      299.506      351.254      140.143        0.340        0.040       77.240        2.277        0.001      330.568       -1.975      869.126
01/24/2022  02:29:00      -64.553       27.529       -9.561       17.982       13.663       14.070      323.363      186.685      197.967        0.286        0.035       70.178        7.492        0.011      330.590       -1.939      869.115
01/24/2022  02:30:00      -68.467       15.571      -10.169       18.299       15.811       11.301      334.867      249.995      127.711        0.287        0.036       70.215        5.357        0.006      330.639       -1.860      869.100
01/24/2022  02:31:00      -83.671       27.223       -8.628       11.352       15.362        9.171      128.871      235.983       84.110        0.413        0.022       87.989        4.927        0.003      330.554       -1.999      869.086
01/24/2022  02:32:00      -72.895       11.515      -11.763       19.740       17.810       12.671      389.672      317.203      160.545        0.323        0.043       73.799        6.585        0.008      330.588       -1.943      869.075
01/24/2022  02:33:00      -65.390        9.202      -15.381       35.757       20.198       14.735     1278.560      407.953      217.122        0.325        0.095       66.035       16.132        0.060      330.467       -2.142      869.068
01/24/2022  02:34:00      -69.749       17.419      -20.160       22.064       20.041       13.627      486.817      401.632      185.702        0.332        0.054       71.891        7.676        0.011      330.446       -2.175      869.058
01/24/2022  02:35:00      -89.973       29.986      -15.217       26.434       24.204       17.925      698.744      585.822      321.305        0.542        0.080       94.838       10.992        0.013      330.420       -2.219      869.055
01/24/2022  02:36:00      -91.790       17.385      -13.758       23.912       18.301       16.752      571.766      334.938      280.636        0.505        0.059       93.422        8.380        0.008      330.382       -2.279      869.052
01/24/2022  02:37:00      -90.285       31.797      -14.634       17.717       11.544       10.118      313.883      133.263      102.381        0.496        0.027       95.720        7.783        0.007      330.375       -2.292      869.056
01/24/2022  02:38:00      -43.190        5.650      -14.966       19.213       19.612       17.931      369.140      384.640      321.511        0.160        0.054       43.558        6.954        0.025      330.384       -2.278      869.058
01/24/2022  02:39:00      -51.071        8.789      -12.832       24.642       20.422       16.298      607.221      417.062      265.635        0.207        0.064       51.822       11.109        0.046      330.415       -2.228      869.056
01/24/2022  02:40:00      -61.448       18.144      -14.699       23.178       12.819       14.041      537.239      164.333      197.141        0.261        0.045       64.070       11.189        0.030      330.363       -2.312      869.054
01/24/2022  02:41:00      -46.229        0.935      -11.298       23.213       19.373       17.051      538.859      375.312      290.720        0.174        0.060       46.239       12.337        0.071      330.370       -2.300      869.055
01/24/2022  02:42:00      -69.479       17.740      -17.386       23.835       12.694       10.840      568.111      161.143      117.508        0.315        0.042       71.708        8.762        0.015      330.283       -2.442      869.052
01/24/2022  02:43:00      -75.205       23.775      -14.587       13.028       12.761        9.183      169.734      162.842       84.326        0.343        0.021       78.874        6.274        0.006      330.306       -2.405      869.048
01/24/2022  02:44:00      -51.764        4.225      -12.754       22.471       24.939       16.722      504.967      621.936      279.627        0.213        0.070       51.936       10.454        0.041      330.298       -2.418      869.041
01/24/2022  02:45:00      -89.143       33.322      -13.560       16.034       14.479       12.878      257.090      209.649      165.839        0.494        0.032       95.167        8.154        0.007      330.254       -2.490      869.032
01/24/2022  02:46:00      -77.229       33.585      -14.500       18.444        8.488        7.719      340.190       72.049       59.582        0.389        0.024       84.215        5.965        0.005      330.196       -2.586      869.015
01/24/2022  02:47:00      -66.465       13.884      -22.719       20.609       22.192       13.830      424.746      492.502      191.267        0.312        0.055       67.899       12.320        0.033      330.303       -2.412      869.000
01/24/2022  02:48:00      -72.512        7.374      -14.865       22.003       27.199       20.715      484.142      739.792      429.124        0.359        0.083       72.886        6.536        0.008      330.298       -2.419      868.991
01/24/2022  02:49:00      -45.988        5.080       -6.018       35.204       23.606       19.111     1239.330      557.260      365.214        0.217        0.108       46.268       17.062        0.136      330.304       -2.408      868.986
01/24/2022  02:50:00     -110.463       29.074      -22.686       32.171       21.075       18.605     1034.984      444.138      346.133        0.769        0.091      114.225       10.709        0.009      330.269       -2.467      868.988
01/24/2022  02:51:00      -91.790       15.175      -15.989       34.668       28.113       21.443     1201.840      790.332      459.810        0.568        0.123       93.036       18.621        0.040      330.275       -2.457      868.987
01/24/2022  02:52:00      -84.008       16.040      -15.082       40.553       33.561       23.060     1644.585     1126.362      531.753        0.542        0.165       85.525        9.198        0.012      330.276       -2.455      868.985
01/24/2022  02:53:00     -106.427       23.027      -11.445       49.018       22.506       23.302     2402.777      506.522      542.999        0.772        0.173      108.890       18.817        0.030      330.148       -2.666      868.979
01/24/2022  02:54:00     -119.501       25.803      -14.974       36.167       35.481       18.712     1308.088     1258.915      350.133        0.904        0.146      122.255        9.934        0.007      330.182       -2.610      868.972
01/24/2022  02:55:00     -100.239       29.028       -4.892       43.449       29.157       20.199     1887.782      850.126      407.990        0.703        0.157      104.358       18.033        0.030      330.153       -2.656      868.954
01/24/2022  02:56:00     -145.317       57.484       -9.553       26.361       26.655       19.230      694.916      710.488      369.777        1.314        0.089      156.273       11.569        0.005      330.194       -2.589      868.937
01/24/2022  02:57:00     -134.026       50.830       -6.932       31.199       23.255       22.310      973.368      540.784      497.743        1.130        0.101      143.341       11.158        0.006      330.183       -2.608      868.919
01/24/2022  02:58:00     -127.780       30.846       -0.543       48.986       32.736       25.698     2399.583     1071.614      660.400        1.070        0.207      131.450       23.271        0.031      330.179       -2.614      868.888
01/24/2022  02:59:00     -148.754       58.080       -6.135       30.874       22.685       19.449      953.212      514.594      378.249        1.369        0.092      159.690       16.407        0.011      330.210       -2.563      868.863
01/24/2022  03:00:00     -130.504       55.212       -7.969       44.317       25.829       24.539     1963.987      667.119      602.163        1.169        0.162      141.703       22.035        0.024      330.190       -2.596      868.833
01/24/2022  03:01:00     -119.377       53.349       -9.086       34.827       22.465       20.739     1212.926      504.675      430.114        0.966        0.107      130.756       19.322        0.022      330.206       -2.570      868.812
01/24/2022  03:02:00     -121.297       39.054       -5.231       33.798       25.961       22.698     1142.286      673.967      515.213        0.930        0.117      127.429       22.537        0.031      330.240       -2.514      868.784
01/24/2022  03:03:00     -129.589       43.143      -13.277       27.965       25.554       19.961      782.028      652.990      398.430        1.033        0.092      136.581       14.669        0.012      330.247       -2.504      868.763
01/24/2022  03:04:00     -125.580       46.481      -14.545       23.157       26.057       16.186      536.245      678.974      261.974        0.981        0.074      133.906       11.351        0.007      330.281       -2.447      868.741
01/24/2022  03:05:00     -140.428       51.329      -19.787       23.227       17.693       15.464      539.508      313.025      239.142        1.192        0.055      149.514        9.903        0.004      330.287       -2.437      868.717
01/24/2022  03:06:00     -123.024       35.249      -10.537       21.428       24.930       22.644      459.138      621.524      512.735        0.904        0.080      127.974       15.796        0.015      330.300       -2.415      868.693
01/24/2022  03:07:00     -113.538       51.591      -13.720       19.287       27.139       16.681      371.978      736.538      278.271        0.856        0.069      124.709       11.160        0.008      330.254       -2.490      868.674
01/24/2022  03:08:00     -106.696       52.081      -11.223       43.431       23.033       23.998     1886.213      530.529      575.883        0.861        0.150      118.728       24.726        0.043      330.274       -2.458      868.653
01/24/2022  03:09:00     -112.861       49.436      -12.538       39.962       28.400       24.086     1596.980      806.585      580.137        0.916        0.149      123.213       21.250        0.030      330.315       -2.391      868.639
01/24/2022  03:10:00     -103.026       26.393       -4.227       35.040       35.293       21.598     1227.767     1245.602      466.485        0.713        0.147      106.353       19.376        0.033      330.350       -2.333      868.622
01/24/2022  03:11:00     -101.690       32.573      -15.818       18.812       19.503       14.492      353.879      380.380      210.007        0.630        0.047      106.780        2.985        0.001      330.299       -2.417      868.614
01/24/2022  03:12:00      -87.105       12.481      -12.135       49.083       34.962       23.031     2409.172     1222.347      530.434        0.603        0.208       87.995       13.506        0.024      330.284       -2.441      868.607
01/24/2022  03:13:00      -77.124       10.433      -13.638       30.195       31.120       22.900      911.715      968.473      524.412        0.432        0.120       77.827        3.100        0.002      330.316       -2.389      868.601
01/24/2022  03:14:00      -49.731       -4.007       -7.915       33.128       32.055       25.189     1097.454     1027.513      634.495        0.266        0.138       49.892       16.377        0.108      330.390       -2.267      868.589
01/24/2022  03:15:00      -95.038       34.106       -7.974       41.940       20.229       21.595     1758.924      409.193      466.323        0.645        0.132      100.972       23.476        0.054      330.330       -2.366      868.584
01/24/2022  03:16:00     -104.780       48.225       -8.011       25.881       26.504       19.649      669.821      702.484      386.074        0.756        0.088      115.345       13.761        0.014      330.301       -2.414      868.576
01/24/2022  03:17:00      -89.538       48.904        1.741       34.826       27.430       24.522     1212.826      752.415      601.327        0.649        0.128      102.023       21.508        0.044      330.199       -2.582      868.578
01/24/2022  03:18:00      -86.811       35.009       -3.282       42.977       31.961       20.341     1847.014     1021.482      413.748        0.603        0.164       93.605       21.301        0.052      330.223       -2.541      868.574
01/24/2022  03:19:00      -97.569       34.151      -11.683       33.166       24.399       21.706     1099.980      595.300      471.157        0.649        0.108      103.373       19.219        0.035      330.231       -2.529      868.574
01/24/2022  03:20:00      -70.498       35.184       -5.095       31.976       22.412       16.825     1022.448      502.311      283.096        0.402        0.090       78.790       13.317        0.029      330.186       -2.602      868.568
01/24/2022  03:21:00      -53.897       31.890       -4.050       27.427       16.167       13.655      752.247      261.377      186.472        0.257        0.060       62.624       12.678        0.041      330.257       -2.487      868.550
01/24/2022  03:22:00      -77.940       41.703      -12.181       25.973       25.129       13.285      674.580      631.485      176.489        0.472        0.074       88.396        8.222        0.009      330.359       -2.319      868.539
01/24/2022  03:23:00      -75.500       32.640       -5.236       30.156       21.606       16.305      909.397      466.821      265.867        0.422        0.082       82.254       14.141        0.030      330.314       -2.392      868.522
01/24/2022  03:24:00      -74.383       23.346       -6.489       20.884       15.385       11.512      436.144      236.690      132.515        0.346        0.040       77.961        7.958        0.010      330.340       -2.350      868.509
01/24/2022  03:25:00      -10.206       -3.270       -4.019       32.876       16.938       11.997     1080.831      286.881      143.916        0.082        0.076       10.717        7.064        0.435      330.440       -2.186      868.489
01/24/2022  03:26:00       -2.219        1.610       -6.006       13.241       12.303       10.990      175.312      151.352      120.772        0.025        0.022        2.741        7.993        8.500      330.520       -2.055      868.468
01/24/2022  03:27:00       -3.105       -0.216       -5.350       13.980        9.753       10.963      195.433       95.124      120.192        0.022        0.021        3.113        4.921        2.499      330.484       -2.114      868.454
01/24/2022  03:28:00       -1.367        8.347       -1.874       12.346       16.451        8.763      152.412      270.634       76.787        0.029        0.025        8.459        3.081        0.133      330.393       -2.264      868.444
01/24/2022  03:29:00      -21.367        6.821        1.371       15.787       23.285       14.119      249.230      542.189      199.359        0.075        0.050       22.430        8.727        0.151      330.407       -2.241      868.438
01/24/2022  03:30:00      -47.635       11.818       -2.614       19.884       21.528        9.736      395.365      463.457       94.794        0.168        0.048       49.079        8.684        0.031      330.400       -2.252      868.438
01/24/2022  03:31:00       -7.982       -2.495       -5.372       17.479       12.271       12.680      305.530      150.571      160.780        0.036        0.031        8.363        8.001        0.915      330.439       -2.187      868.444
01/24/2022  03:32:00      -30.639      -24.782      -19.756       15.961       12.829       14.356      254.767      164.581      206.103        0.128        0.031       39.407        9.661        0.060      330.522       -2.052      868.452
01/24/2022  03:33:00      -22.213      -17.426      -14.713       11.625        9.683        8.568      135.143       93.767       73.412        0.066        0.015       28.233        5.833        0.043      330.620       -1.890      868.452
01/24/2022  03:34:00      -26.237        5.025       -6.724       19.821       20.196       14.536      392.886      407.859      211.301        0.089        0.051       26.714        8.808        0.109      330.637       -1.863      868.453
01/24/2022  03:35:00      -56.585      -12.474        1.072       45.409       23.462       19.598     2061.985      550.486      384.082        0.318        0.150       57.943       18.716        0.104      330.682       -1.788      868.454
01/24/2022  03:36:00      -44.707      -16.105       -1.397       39.016       30.684       26.857     1522.246      941.479      721.299        0.272        0.159       47.519       21.667        0.208      330.674       -1.801      868.445
01/24/2022  03:37:00      -15.197      -13.177        4.902       27.287       22.301       16.227      744.601      497.356      263.330        0.097        0.075       20.114       13.208        0.431      330.703       -1.753      868.426
01/24/2022  03:38:00      -27.767       -3.815        6.777       38.997       24.985       17.339     1520.728      624.228      300.636        0.164        0.122       28.028       21.208        0.573      330.683       -1.786      868.401
01/24/2022  03:39:00      -16.647      -10.877       -0.536       20.620       10.735       12.191      425.194      115.230      148.619        0.054        0.034       19.885        6.628        0.111      330.690       -1.775      868.379
01/24/2022  03:40:00       -8.318        7.178       -7.534        9.663       11.107       10.033       93.373      123.357      100.667        0.025        0.016       10.987        2.563        0.054      330.673       -1.802      868.369
01/24/2022  03:41:00        2.589       21.893       -8.489       13.861        9.026        6.150      192.126       81.461       37.821        0.043        0.016       22.045        2.364        0.012      330.618       -1.893      868.369
01/24/2022  03:42:00      -13.863       14.079       -9.738       24.551        9.152        7.397      602.767       83.761       54.710        0.061        0.037       19.759        4.732        0.057      330.609       -1.909      868.374
01/24/2022  03:43:00      -19.824      -18.609       -4.327       20.062       12.331       11.030      402.491      152.055      121.659        0.072        0.034       27.190        8.677        0.102      330.699       -1.760      868.374
01/24/2022  03:44:00       -0.428       -7.078       -1.094       13.988       14.107        9.549      195.665      199.021       91.179        0.027        0.024        7.091        4.758        0.450      330.564       -1.983      868.363
01/24/2022  03:45:00      -20.110        1.381        1.042       17.077       18.033       14.480      291.619      325.190      209.661        0.062        0.041       20.157        5.215        0.067      330.513       -2.066      868.360
01/24/2022  03:46:00      -32.249       -8.120       -5.914       20.151       21.878       15.017      406.075      478.654      225.515        0.113        0.056       33.255       10.462        0.099      330.486       -2.110      868.350
01/24/2022  03:47:00      -20.522       -7.638      -13.894       18.823       17.634       13.019      354.319      310.950      169.500        0.075        0.042       21.897        6.760        0.095      330.456       -2.159      868.337
01/24/2022  03:48:00       -5.964       -1.426       -6.763       19.729       14.513        8.293      389.221      210.620       68.776        0.038        0.033        6.132        7.898        1.659      330.389       -2.270      868.321
01/24/2022  03:49:00      -61.127       24.834      -18.402       15.804       17.224       11.159      249.771      296.668      124.528        0.268        0.034       65.979        7.960        0.015      330.361       -2.316      868.307
01/24/2022  03:50:00      -35.001       12.540      -16.911       12.511       18.985       14.381      156.537      360.429      206.825        0.120        0.036       37.180        7.725        0.043      330.429       -2.203      868.289
01/24/2022  03:51:00      -10.355       -3.692       -7.260       14.573        9.596        9.794      212.361       92.078       95.918        0.029        0.020       10.994        8.203        0.557      330.355       -2.326      868.275
01/24/2022  03:52:00      -10.996        8.407      -14.958       10.743        8.583        4.891      115.402       73.669       23.926        0.031        0.011       13.842        3.006        0.047      330.391       -2.265      868.262
01/24/2022  03:53:00       -2.477       -0.648       -7.168        3.856        1.834        3.165       14.867        3.363       10.017        0.004        0.001        2.561        0.652        0.065      330.440       -2.185      868.252
01/24/2022  03:54:00        3.130        5.406       -1.226        4.806        5.348        3.112       23.100       28.601        9.682        0.005        0.003        6.247        2.617        0.176      330.495       -2.097      868.251
01/24/2022  03:55:00       12.724       13.007       -6.676        8.099        5.345        4.370       65.591       28.574       19.099        0.024        0.006       18.196        2.666        0.021      330.369       -2.302      868.256
01/24/2022  03:56:00       -3.072        8.971       -5.605        6.450        6.717        3.668       41.596       45.124       13.456        0.011        0.005        9.482        2.567        0.073      330.349       -2.334      868.254
01/24/2022  03:57:00       12.005       18.558       -6.678       15.985        7.244        6.890      255.528       52.476       47.470        0.044        0.018       22.102        5.622        0.065      330.270       -2.463      868.250
01/24/2022  03:58:00       22.534       33.265       -7.044        7.202        6.916        4.934       51.872       47.833       24.343        0.089        0.006       40.179        1.789        0.002      330.298       -2.420      868.250
01/24/2022  03:59:00       17.903       40.534       -3.608        5.144        5.488        3.757       26.463       30.117       14.116        0.102        0.004       44.311        0.945        0.000      330.435       -2.195      868.243
01/24/2022  04:00:00      -23.005       38.578       -8.166       12.445       13.430        9.621      154.886      180.362       92.560        0.126        0.021       44.916        4.407        0.010      330.287       -2.436      868.233
01/24/2022  04:01:00      -46.266       22.872      -19.073       14.172       17.876       14.400      200.846      319.547      207.346        0.188        0.036       51.611        6.350        0.015      330.098       -2.746      868.223
01/24/2022  04:02:00      -38.361        4.951       -6.989       19.123       20.639       17.759      365.703      425.950      315.394        0.133        0.055       38.679        9.700        0.063      330.017       -2.880      868.220
01/24/2022  04:03:00      -23.476        0.864      -10.869       24.117       12.987       17.162      581.611      168.655      294.519        0.086        0.052       23.492       16.896        0.517      330.063       -2.804      868.209
01/24/2022  04:04:00      -38.587        9.497      -14.311       23.567       19.289       15.291      555.424      372.068      233.828        0.147        0.058       39.738        9.824        0.061      330.116       -2.717      868.197
01/24/2022  04:05:00      -14.596        9.145       -7.300       20.303       14.784       11.390      412.195      218.573      129.736        0.056        0.038       17.224        8.207        0.227      330.032       -2.855      868.183
01/24/2022  04:06:00      -34.611       12.307      -16.933       28.154       19.535       10.561      792.638      381.604      111.540        0.146        0.064       36.734       10.292        0.078      330.009       -2.893      868.168
01/24/2022  04:07:00      -57.155       17.246      -17.029       20.205       12.493       12.504      408.227      156.079      156.346        0.229        0.036       59.700        5.048        0.007      329.999       -2.910      868.147
01/24/2022  04:08:00       -7.900        6.377       -6.543       20.011        9.788       14.161      400.423       95.812      200.522        0.042        0.035       10.153       14.650        2.082      329.945       -2.995      868.138
01/24/2022  04:09:00      -28.552       19.376      -14.812       13.975       14.659       10.929      195.292      214.894      119.432        0.097        0.026       34.505        3.861        0.013      330.194       -2.590      868.115
01/24/2022  04:10:00      -19.360        2.327       -5.364       14.786       14.714       14.372      218.635      216.492      206.545        0.053        0.032       19.499        7.569        0.151      330.297       -2.419      868.084
01/24/2022  04:11:00       -2.355      -10.373       -7.351        8.988        7.549        8.517       80.785       56.984       72.540        0.019        0.011       10.637        6.736        0.401      330.317       -2.388      868.059
01/24/2022  04:12:00      -13.476       10.135       -7.393       16.911       13.680       11.280      285.985      187.129      127.236        0.047        0.030       16.862       10.180        0.364      330.123       -2.708      868.036
01/24/2022  04:13:00      -32.321       14.934      -16.142       17.776       20.521       14.012      315.994      421.127      196.346        0.123        0.047       35.604        9.899        0.077      330.045       -2.834      868.012
01/24/2022  04:14:00      -30.538       15.413      -13.392       15.443        9.681        7.203      238.500       93.716       51.877        0.087        0.019       34.207        3.252        0.009      330.044       -2.837      867.997
01/24/2022  04:15:00      -22.374       19.627      -10.850        7.794        9.368        8.700       60.743       87.766       75.691        0.061        0.011       29.763        5.334        0.032      330.249       -2.499      867.977
01/24/2022  04:16:00        1.211       10.111      -13.685        6.032       10.681        6.414       36.385      114.079       41.138        0.024        0.010       10.183        5.246        0.265      330.391       -2.266      867.963
01/24/2022  04:17:00       26.824       16.196      -11.745       12.034       12.073        8.453      144.813      145.763       71.460        0.074        0.018       31.334        3.025        0.009      330.546       -2.013      867.950
01/24/2022  04:18:00       19.391       26.023       -5.524       12.637        6.155        6.186      159.694       37.886       38.263        0.066        0.012       32.454        3.643        0.013      330.583       -1.951      867.941
01/24/2022  04:19:00       -6.594       16.567       -5.179       16.196        9.653        7.755      262.312       93.172       60.135        0.038        0.021       17.831        5.336        0.090      330.526       -2.046      867.932
01/24/2022  04:20:00      -69.958       32.440      -12.203       24.494       13.336        9.748      599.961      177.836       95.021        0.348        0.044       77.113        8.090        0.011      330.041       -2.841      867.932
01/24/2022  04:21:00      -82.389       31.198      -21.985       25.925       15.540       12.512      672.112      241.502      156.539        0.466        0.054       88.098       11.526        0.017      329.915       -3.048      867.919
01/24/2022  04:22:00      -82.632       42.877      -18.334       20.225       15.460        9.810      409.046      239.024       96.229        0.487        0.037       93.094        4.158        0.002      329.924       -3.032      867.912
01/24/2022  04:23:00      -99.566       56.335       -7.787       21.634       15.395       15.309      468.032      237.005      234.377        0.704        0.047      114.398        8.258        0.005      329.879       -3.104      867.894
01/24/2022  04:24:00      -94.729       39.727       -8.030       17.306       17.788       12.403      299.497      316.417      153.838        0.569        0.038      102.722       10.944        0.011      329.929       -3.023      867.875
01/24/2022  04:25:00      -88.678       48.383      -14.554       24.040       16.594       15.653      577.919      275.373      245.014        0.576        0.055      101.018       10.182        0.010      329.943       -2.999      867.856
01/24/2022  04:26:00     -101.588       43.109      -18.423       20.584       16.740       10.926      423.690      280.232      119.385        0.667        0.041      110.357        8.264        0.006      329.957       -2.976      867.838
01/24/2022  04:27:00      -93.549       40.767      -17.397       19.481       15.618       13.730      379.529      243.925      188.518        0.576        0.041      102.046       11.191        0.012      329.973       -2.952      867.828
01/24/2022  04:28:00      -81.255       35.058      -10.201       17.958       13.891       13.127      322.482      192.965      172.318        0.431        0.034       88.495        6.467        0.005      329.956       -2.978      867.817
01/24/2022  04:29:00      -51.806       32.474      -14.968       18.516       12.138       11.505      342.839      147.326      132.367        0.229        0.031       61.143        6.900        0.013      330.075       -2.784      867.812
01/24/2022  04:30:00      -61.840       35.079      -14.406       17.881       11.158       12.494      319.742      124.509      156.098        0.293        0.030       71.096        5.636        0.006      330.051       -2.824      867.810
01/24/2022  04:31:00      -43.809       17.590      -16.513       25.763       18.129       13.203      663.712      328.663      174.308        0.183        0.058       47.209       12.405        0.069      330.091       -2.759      867.798
01/24/2022  04:32:00      -20.240       -6.835      -12.581       20.393       23.433       16.973      415.870      549.100      288.083        0.093        0.063       21.363       12.861        0.362      329.993       -2.919      867.792
01/24/2022  04:33:00      -15.537       10.778       -5.876       22.855       19.699       13.237      522.342      388.039      175.227        0.074        0.054       18.910       10.254        0.294      329.975       -2.948      867.787
01/24/2022  04:34:00      -78.274       18.861      -13.921       23.963       19.584        9.363      574.224      383.538       87.669        0.386        0.052       80.514        6.700        0.007      330.048       -2.829      867.788
01/24/2022  04:35:00      -87.070       25.386      -10.543       12.646        9.680       11.603      159.911       93.705      134.634        0.436        0.019       90.695        6.915        0.006      329.883       -3.099      867.783
01/24/2022  04:36:00      -70.576       19.617      -13.617       13.776        9.777       12.071      189.776       95.593      145.710        0.299        0.022       73.251        6.559        0.008      329.921       -3.038      867.769
01/24/2022  04:37:00      -61.095        9.195       -5.895       15.579       11.271       13.798      242.709      127.035      190.374        0.221        0.028       61.783        8.734        0.020      330.010       -2.891      867.761
01/24/2022  04:38:00       -0.852      -21.630        2.295       22.914       25.740        9.813      525.036      662.534       96.303        0.088        0.064       21.647        6.852        0.100      330.068       -2.796      867.748
01/24/2022  04:39:00        3.493        5.148       -2.371        8.987       14.797       11.955       80.775      218.963      142.925        0.024        0.022        6.222        4.641        0.556      330.002       -2.904      867.729
01/24/2022  04:40:00        4.613        6.466       -7.317       36.072       17.031       14.823     1301.198      290.068      219.714        0.096        0.091        7.942        9.575        1.453      329.978       -2.943      867.711
01/24/2022  04:41:00     -105.487       23.577      -15.214       12.818       13.856        9.384      164.308      192.001       88.061        0.618        0.022      108.089        5.718        0.003      329.858       -3.141      867.693
01/24/2022  04:42:00      -93.397       36.728      -13.205       10.747       15.252        9.329      115.507      232.620       87.021        0.534        0.022      100.360        4.530        0.002      329.852       -3.150      867.675
01/24/2022  04:43:00      -66.782       29.682      -11.808       17.598       18.950       13.263      309.703      359.105      175.905        0.316        0.042       73.081        7.264        0.010      329.891       -3.086      867.649
01/24/2022  04:44:00      -85.868       37.567      -13.660       15.296       16.651       10.671      233.978      277.252      113.863        0.480        0.031       93.727        4.904        0.003      329.884       -3.097      867.637
01/24/2022  04:45:00      -90.892       31.910       -5.816       22.295       24.629       15.065      497.063      606.570      226.948        0.532        0.067       96.331       10.273        0.011      329.879       -3.106      867.624
01/24/2022  04:46:00      -91.620       13.862        2.255       34.206       25.470       20.415     1170.065      648.714      416.789        0.541        0.112       92.663       18.782        0.041      329.939       -3.007      867.606
01/24/2022  04:47:00      -87.967       20.846        2.060       36.780       30.898       23.719     1352.746      954.684      562.613        0.552        0.144       90.403       21.398        0.056      329.892       -3.086      867.599
01/24/2022  04:48:00      -65.254        9.416       -1.403       33.884       30.582       19.538     1148.140      935.244      381.749        0.341        0.123       65.930       13.368        0.041      330.001       -2.904      867.591
01/24/2022  04:49:00      -27.344       -1.503       -4.534       24.251       29.349       24.373      588.126      861.391      594.037        0.141        0.102       27.386       16.632        0.369      329.872       -3.117      867.573
01/24/2022  04:50:00      -55.018       16.694       -6.704       38.283       22.963       13.508     1465.596      527.279      182.470        0.276        0.109       57.495        5.906        0.011      329.958       -2.976      867.568
01/24/2022  04:51:00      -66.629        4.668       -6.934       34.122       29.170       17.053     1164.287      850.863      290.813        0.341        0.115       66.793       13.136        0.039      329.973       -2.952      867.557
01/24/2022  04:52:00      -48.021        7.320       -5.739       41.918       22.638       15.206     1757.083      512.488      231.222        0.245        0.125       48.576        9.380        0.037      329.910       -3.054      867.554
01/24/2022  04:53:00      -68.431       14.648       -7.361       40.573       27.675       18.372     1646.197      765.880      337.531        0.385        0.137       69.982       22.723        0.105      329.863       -3.132      867.559
01/24/2022  04:54:00      -81.640       23.625        1.618       43.279       35.209       26.875     1873.068     1239.649      722.272        0.553        0.192       84.990       26.253        0.095      329.836       -3.176      867.560
01/24/2022  04:55:00      -70.013       13.553       -2.155       31.698       22.501       20.483     1004.743      506.296      419.547        0.351        0.097       71.313       17.738        0.062      329.787       -3.256      867.568
01/24/2022  04:56:00      -26.409       17.406      -11.874       19.934       18.057       19.811      397.364      326.068      392.495        0.113        0.056       31.629       15.742        0.248      329.844       -3.162      867.570
01/24/2022  04:57:00       -9.422       19.314      -17.742       18.074       11.842        9.519      326.659      140.231       90.620        0.067        0.028       21.490        6.962        0.105      329.864       -3.129      867.568
01/24/2022  04:58:00      -24.401        9.517       -5.281       13.213       13.193       12.309      174.592      174.043      151.502        0.061        0.025       26.192        8.163        0.097      329.823       -3.198      867.554
01/24/2022  04:59:00       -1.685        4.606       -5.376       25.181       14.607       10.375      634.066      213.364      107.635        0.050        0.048        4.905        8.031        2.681      329.919       -3.037      867.536
01/24/2022  05:00:00        1.821       -4.906      -13.605       10.808       18.591       11.626      116.811      345.644      135.163        0.040        0.030        5.234        6.868        1.722      329.942       -3.003      867.523
01/24/2022  05:01:00       11.468      -11.393      -16.905        9.715       11.660        9.898       94.372      135.965       97.975        0.044        0.016       16.166        4.908        0.092      330.042       -2.840      867.516
01/24/2022  05:02:00       -4.571      -10.927       -9.399       13.032        8.152        9.663      169.821       66.458       93.371        0.028        0.016       11.845        5.775        0.238      330.043       -2.837      867.509
01/24/2022  05:03:00      -13.545      -11.922       -3.269       11.248       10.426        7.997      126.516      108.696       63.951        0.032        0.015       18.044        4.778        0.070      330.106       -2.734      867.508
01/24/2022  05:04:00       -6.879        6.086       -8.482       14.325        8.385        8.387      205.200       70.302       70.349        0.025        0.017        9.185        5.181        0.318      330.150       -2.662      867.513
01/24/2022  05:05:00       23.039        7.792      -12.291       14.344       11.065        7.567      205.756      122.432       57.252        0.056        0.019       24.321        5.467        0.051      330.184       -2.604      867.512
01/24/2022  05:06:00       27.714       -0.807       -6.676       13.078        8.765        6.960      171.032       76.817       48.439        0.055        0.015       27.726        6.992        0.064      330.200       -2.579      867.506
01/24/2022  05:07:00       31.376        8.116       -1.178       18.028       18.249        9.732      325.004      333.016       94.704        0.090        0.038       32.409        5.833        0.032      330.199       -2.582      867.495
01/24/2022  05:08:00       54.188       21.368       -0.923       26.092       18.308       14.670      680.806      335.169      215.214        0.231        0.062       58.249       12.762        0.048      330.230       -2.530      867.474
01/24/2022  05:09:00       30.146       -8.332       -8.085       30.013       17.795       14.786      900.778      316.666      218.633        0.124        0.072       31.276       11.880        0.144      330.331       -2.364      867.452
01/24/2022  05:10:00       52.111        3.810       -8.073       17.719        9.746       11.189      313.960       94.979      125.200        0.166        0.027       52.250        6.375        0.015      330.298       -2.417      867.440
01/24/2022  05:11:00       40.624        2.889       -4.432       20.611        9.777        8.581      424.796       95.598       73.631        0.114        0.030       40.727        5.945        0.021      330.232       -2.527      867.432
01/24/2022  05:12:00       16.535        0.392       -1.171       22.883        9.567        9.181      523.652       91.519       84.292        0.049        0.035       16.539        7.986        0.233      330.143       -2.673      867.429
01/24/2022  05:13:00       44.769        9.104       -4.419        8.623        5.411        4.345       74.358       29.283       18.881        0.111        0.006       45.685        2.225        0.002      330.118       -2.715      867.438
01/24/2022  05:14:00       21.138       11.826       -7.014       12.767        5.495        5.889      162.984       30.200       34.681        0.043        0.011       24.221        4.251        0.031      330.082       -2.773      867.451
01/24/2022  05:15:00      -14.037       16.200       -5.722        8.063       10.580       11.956       65.004      111.944      142.934        0.041        0.016       21.436        6.695        0.098      330.018       -2.878      867.459
01/24/2022  05:16:00      -11.051       17.659       -1.984        7.828       12.204        5.630       61.279      148.937       31.691        0.034        0.012       20.832        4.117        0.039      330.025       -2.866      867.469
01/24/2022  05:17:00      -11.703       19.843       -9.452        8.450       10.542        6.150       71.395      111.129       37.818        0.042        0.011       23.037        5.023        0.048      330.116       -2.719      867.465
01/24/2022  05:18:00      -19.054       13.948       -8.249        9.630       16.636        8.268       92.732      276.766       68.354        0.053        0.022       23.613        5.558        0.055      330.024       -2.867      867.467
01/24/2022  05:19:00      -18.253        8.215       -5.244       10.928       14.930       12.988      119.421      222.896      168.685        0.047        0.026       20.017        8.192        0.167      329.821       -3.201      867.467
01/24/2022  05:20:00      -64.840       27.718      -14.849       20.271       21.383       10.110      410.916      457.218      102.212        0.308        0.049       70.516        4.147        0.003      329.694       -3.409      867.474
01/24/2022  05:21:00      -64.832       12.900       -7.786       24.833       14.164       13.901      616.683      200.621      193.241        0.272        0.051       66.103        9.364        0.020      329.748       -3.319      867.472
01/24/2022  05:22:00      -21.701        3.149       -3.764       28.306       14.467        9.766      801.238      209.284       95.378        0.080        0.055       21.928       13.496        0.379      329.781       -3.265      867.467
01/24/2022  05:23:00        0.162       -0.790        2.415        6.029        6.679        9.029       36.345       44.615       81.528        0.008        0.008        0.806        4.057       25.334      329.773       -3.280      867.464
01/24/2022  05:24:00        3.943       -3.408       -7.676        4.878        7.316        6.023       23.798       53.522       36.276        0.010        0.006        5.212        3.779        0.526      329.944       -2.998      867.470
01/24/2022  05:25:00        0.642        2.008       -2.983        7.660        9.722        7.021       58.681       94.511       49.301        0.011        0.010        2.109        4.223        4.010      329.909       -3.056      867.480
01/24/2022  05:26:00       -4.349       18.158        2.409        9.290        7.926        5.081       86.298       62.819       25.815        0.026        0.009       18.672        2.390        0.016      329.902       -3.067      867.498
01/24/2022  05:27:00        0.435       -3.887        3.497        4.698        8.303        6.805       22.075       68.937       46.311        0.008        0.007        3.911        4.807        1.511      329.865       -3.128      867.505
01/24/2022  05:28:00        3.020        6.390       -0.511        7.995       15.414       11.191       63.916      237.599      125.249        0.024        0.021        7.067        8.166        1.335      329.998       -2.910      867.512
01/24/2022  05:29:00       64.649       50.400       -1.971       16.629        8.928        8.101      276.518       79.703       65.621        0.357        0.021       81.974        8.166        0.010      330.248       -2.501      867.517
01/24/2022  05:30:00       50.854       40.500       -2.576        6.874        4.238        3.224       47.245       17.958       10.392        0.215        0.004       65.011        2.718        0.002      330.326       -2.373      867.512
01/24/2022  05:31:00       30.449       40.129       -3.516       17.106        8.366        9.081      292.617       69.991       82.472        0.150        0.022       50.373        6.439        0.016      330.277       -2.452      867.517
01/24/2022  05:32:00       23.729       38.572       -3.092       12.092        6.985        8.377      146.210       48.790       70.166        0.116        0.013       45.286        6.969        0.024      330.268       -2.467      867.522
01/24/2022  05:33:00        2.759       26.575       -7.276        5.873        6.164        5.824       34.497       37.994       33.920        0.044        0.005       26.718        2.976        0.012      330.301       -2.412      867.511
01/24/2022  05:34:00      -14.021        2.132       -5.354       10.276       14.102       11.391      105.588      198.860      129.760        0.033        0.022       14.182        6.448        0.207      330.035       -2.850      867.505
01/24/2022  05:35:00      -27.985       -0.739       -2.475       15.793       12.250       12.078      249.408      150.060      145.882        0.067        0.027       27.995        4.230        0.023      329.846       -3.160      867.498
01/24/2022  05:36:00      -62.729       18.616       -9.284       10.316        6.867        8.401      106.423       47.153       70.585        0.230        0.011       65.433        3.777        0.003      329.892       -3.084      867.497
01/24/2022  05:37:00      -27.500       16.805      -13.184       13.207        8.007       13.794      174.436       64.104      190.286        0.082        0.021       32.228        7.765        0.058      329.885       -3.096      867.498
01/24/2022  05:38:00      -30.387       18.187      -18.243       14.080        8.227        6.844      198.253       67.688       46.834        0.095        0.016       35.414        4.383        0.015      329.970       -2.954      867.502
01/24/2022  05:39:00      -13.432       12.552      -12.358       11.361        8.250        5.777      129.078       68.058       33.368        0.036        0.012       18.384        3.961        0.046      330.056       -2.818      867.499
01/24/2022  05:40:00      -39.958       18.096      -14.284       12.773       10.603        6.664      163.140      112.415       44.406        0.122        0.016       43.865        4.449        0.010      330.042       -2.839      867.488
01/24/2022  05:41:00      -33.995       22.312      -13.363        9.533       10.445        9.042       90.870      109.091       81.756        0.106        0.014       40.663        5.203        0.016      329.975       -2.947      867.469
01/24/2022  05:42:00       -8.561       -8.384       -3.032       10.360       11.864        8.816      107.329      140.751       77.714        0.024        0.016       11.982        8.001        0.446      329.973       -2.952      867.448
01/24/2022  05:43:00       -7.921      -24.378      -11.390        6.544       11.164        8.671       42.824      124.645       75.178        0.051        0.012       25.632        5.933        0.054      330.065       -2.801      867.423
01/24/2022  05:44:00      -16.184      -31.172      -11.817        8.503        8.006        7.589       72.296       64.102       57.590        0.078        0.010       35.122        5.713        0.026      330.146       -2.670      867.408
01/24/2022  05:45:00      -20.254      -10.436       -9.380       13.258       15.605       12.104      175.771      243.509      146.510        0.059        0.028       22.785        8.025        0.124      330.114       -2.721      867.418
01/24/2022  05:46:00       -5.591       -0.703        0.269       15.655       13.704       12.634      245.075      187.797      159.611        0.031        0.030        5.635       11.454        4.132      330.035       -2.851      867.423
01/24/2022  05:47:00      -12.149       -3.025       -9.139        8.920       21.160       10.302       79.564      447.752      106.139        0.044        0.032       12.520        8.464        0.457      330.051       -2.823      867.421
01/24/2022  05:48:00       -4.627       -5.382       -5.969       10.046       11.498        9.368      100.914      132.208       87.762        0.020        0.016        7.098        7.809        1.210      330.130       -2.694      867.421
01/24/2022  05:49:00       -8.106       -4.574       -2.188        7.246        5.350        7.940       52.500       28.622       63.039        0.012        0.007        9.307        4.229        0.206      330.085       -2.769      867.418
01/24/2022  05:50:00      -11.704        5.146       -5.568        9.250        4.467        4.649       85.562       19.951       21.616        0.016        0.006       12.786        2.565        0.040      330.079       -2.778      867.407
01/24/2022  05:51:00       -6.130       -0.988       -5.933       14.976        7.484        4.462      224.277       56.016       19.909        0.019        0.015        6.209        4.055        0.426      330.230       -2.530      867.402
01/24/2022  05:52:00        0.927       -0.355       -5.542        4.020        3.294        4.954       16.158       10.853       24.546        0.004        0.003        0.993        3.241       10.659      330.182       -2.609      867.391
01/24/2022  05:53:00       -3.244       -9.892       -9.450        5.683        5.865        6.567       32.298       34.401       43.120        0.015        0.005       10.411        2.807        0.073      330.286       -2.438      867.382
01/24/2022  05:54:00      -15.926       -8.006       -7.646       14.026        6.481       10.894      196.720       42.004      118.683        0.037        0.018       17.825        9.201        0.266      330.284       -2.441      867.381
01/24/2022  05:55:00      -41.639       14.698       -6.367       26.628       15.418       11.597      709.027      237.718      134.483        0.154        0.054       44.157       13.183        0.089      329.989       -2.927      867.373
01/24/2022  05:56:00      -79.215       35.808       -6.761       23.462       23.697       17.076      550.477      561.570      291.574        0.450        0.070       86.932       10.450        0.014      329.835       -3.176      867.369
01/24/2022  05:57:00      -95.668       58.482       -4.925       31.723       20.809       17.127     1006.362      433.012      293.329        0.716        0.087      112.127       14.156        0.016      329.626       -3.520      867.370
01/24/2022  05:58:00      -99.463       45.900       -7.708       26.288       27.664       15.800      691.075      765.287      249.631        0.688        0.085      109.543       11.915        0.012      329.556       -3.633      867.365
01/24/2022  05:59:00     -102.276       34.000       -0.141       34.615       28.593       19.201     1198.229      817.569      368.683        0.700        0.119      107.779       15.772        0.021      329.566       -3.617      867.368
01/24/2022  06:00:00      -95.464       17.606       -4.968       49.747       26.988       23.139     2474.780      728.336      535.396        0.659        0.187       97.074       22.728        0.055      329.615       -3.538      867.375
01/24/2022  06:01:00     -110.309       14.183       -4.562       52.049       34.803       29.207     2709.147     1211.223      853.022        0.858        0.239      111.217       27.408        0.061      329.610       -3.546      867.377
01/24/2022  06:02:00      -98.176       18.227       -1.611       52.542       34.916       28.189     2760.708     1219.133      794.599        0.737        0.239       99.853       22.479        0.051      329.644       -3.489      867.374
01/24/2022  06:03:00      -91.012       17.387      -17.166       45.661       32.664       25.124     2084.929     1066.950      631.234        0.633        0.189       92.658       24.287        0.069      329.642       -3.492      867.378
01/24/2022  06:04:00      -81.380       24.340       -8.288       45.598       22.991       21.813     2079.146      528.583      475.815        0.518        0.154       84.942       21.883        0.066      329.554       -3.636      867.373
01/24/2022  06:05:00      -95.152       35.107       -9.767       28.776       22.303       14.817      828.048      497.406      219.530        0.596        0.077      101.421       11.299        0.012      329.631       -3.511      867.367
01/24/2022  06:06:00      -87.329       25.177       -0.810       39.864       25.528       17.134     1589.119      651.698      293.573        0.540        0.127       90.886       14.813        0.027      329.719       -3.366      867.365
01/24/2022  06:07:00      -46.196        5.820       -6.481       25.689       27.843       18.010      659.931      775.216      324.363        0.198        0.088       46.561       14.222        0.093      329.774       -3.277      867.365
01/24/2022  06:08:00      -35.801       11.834       -1.863       29.802       21.508       14.994      888.137      462.589      224.820        0.150        0.079       37.706       12.790        0.115      329.875       -3.110      867.357
01/24/2022  06:09:00      -45.319       -0.399       -8.388       34.518       22.968       20.079     1191.514      527.551      403.185        0.212        0.106       45.321       16.848        0.138      329.971       -2.955      867.358
01/24/2022  06:10:00      -81.707       20.954       -7.191       21.655       20.237       14.121      468.959      409.519      199.399        0.412        0.054       84.351        7.564        0.008      329.862       -3.134      867.361
01/24/2022  06:11:00      -67.827       20.914       -3.955       19.252       13.352        8.810      370.642      178.265       77.621        0.284        0.031       70.978        5.163        0.005      329.835       -3.178      867.364
01/24/2022  06:12:00      -52.558       23.924       -4.581       13.715       13.373        9.534      188.090      178.850       90.896        0.191        0.023       57.747        7.644        0.018      329.824       -3.195      867.380
01/24/2022  06:13:00      -47.227        3.088       -9.234       26.276       15.924       11.141      690.441      253.584      124.112        0.170        0.053       47.328       12.391        0.069      329.982       -2.936      867.391
01/24/2022  06:14:00      -46.093       13.055      -13.287       20.220       10.028       10.914      408.835      100.564      119.118        0.155        0.031       47.906        5.621        0.014      330.004       -2.901      867.403
01/24/2022  06:15:00      -33.864       21.846       -4.220       16.813       14.254       10.878      282.680      203.168      118.324        0.112        0.030       40.299       10.025        0.062      330.012       -2.887      867.405
01/24/2022  06:16:00      -43.344       14.218       -4.985       21.299       17.355       10.539      453.635      301.209      111.074        0.149        0.043       45.616        7.433        0.027      330.009       -2.892      867.404
01/24/2022  06:17:00      -53.203       11.268       -8.294       25.337       17.861       14.943      641.979      319.015      223.294        0.211        0.059       54.383       13.076        0.058      329.896       -3.078      867.403
01/24/2022  06:18:00      -32.241        3.928      -14.042       27.666       21.938       13.479      765.383      481.267      181.680        0.134        0.071       32.479       10.907        0.113      329.782       -3.265      867.395
01/24/2022  06:19:00      -26.963        4.854      -10.694       24.138       23.792       14.435      582.664      566.037      208.379        0.111        0.068       27.397        4.577        0.028      329.757       -3.306      867.397
01/24/2022  06:20:00        3.296      -28.555       -6.923       17.833       22.914       17.354      318.016      525.029      301.165        0.101        0.057       28.744       10.115        0.124      329.779       -3.270      867.413
01/24/2022  06:21:00      -10.946       -0.907       -4.147       28.163       29.386       17.210      793.170      863.528      296.190        0.105        0.098       10.984       13.529        1.517      329.703       -3.394      867.427
01/24/2022  06:22:00      -57.348        8.696      -11.900       35.930       23.727       15.529     1290.971      562.970      241.145        0.280        0.105       58.004       10.839        0.035      329.667       -3.451      867.438
01/24/2022  06:23:00      -39.092        3.822      -18.674       27.841       22.756       18.373      775.117      517.850      337.577        0.176        0.082       39.278       10.660        0.074      329.654       -3.472      867.435
01/24/2022  06:24:00      -32.872       -4.414       -4.323       25.371       28.529       18.612      643.683      813.911      346.418        0.146        0.090       33.168       13.906        0.176      329.587       -3.582      867.431
01/24/2022  06:25:00      -78.244       18.828      -11.208       23.263       21.554       16.534      541.187      464.595      273.372        0.394        0.064       80.478        7.149        0.008      329.724       -3.358      867.427
01/24/2022  06:26:00      -64.465       45.763      -11.169       20.532       13.874       11.763      421.575      192.492      138.367        0.356        0.038       79.057        5.358        0.005      329.723       -3.360      867.432
01/24/2022  06:27:00      -89.711       49.564      -15.396       20.463       14.354       13.567      418.717      206.043      184.050        0.578        0.040      102.492        9.363        0.008      329.740       -3.334      867.422
01/24/2022  06:28:00      -65.601       17.217       -1.975       34.252       26.077       16.552     1173.195      679.991      273.965        0.337        0.106       67.823       14.600        0.046      329.783       -3.262      867.418
01/24/2022  06:29:00      -69.319       28.314       -9.971       27.247       26.558       18.034      742.413      705.314      325.220        0.374        0.089       74.878        8.735        0.014      329.752       -3.314      867.418
01/24/2022  06:30:00      -79.055       45.093       -8.679       39.213       32.710       22.936     1537.650     1069.915      526.071        0.575        0.157       91.011       12.876        0.020      329.618       -3.531      867.409
01/24/2022  06:31:00      -73.458       33.246       -6.544       33.827       29.174       18.734     1144.268      851.099      350.954        0.444        0.117       80.631       20.912        0.067      329.563       -3.623      867.399
01/24/2022  06:32:00      -59.523       25.061       -9.155       22.312       20.818       13.779      497.816      433.394      189.857        0.269        0.056       64.583       11.570        0.032      329.603       -3.557      867.401
01/24/2022  06:33:00      -30.828       -4.135       -1.853       23.416       18.523       13.303      548.331      343.091      176.965        0.102        0.053       31.105        9.621        0.096      329.795       -3.244      867.393
01/24/2022  06:34:00      -24.201       -5.687        0.165       23.103       15.088       14.017      533.739      227.658      196.468        0.079        0.048       24.861       10.047        0.163      329.945       -2.997      867.385
01/24/2022  06:35:00      -40.520       -3.463       -3.471       37.272       20.669       14.897     1389.203      427.202      221.931        0.185        0.102       40.668       17.597        0.187      329.948       -2.991      867.379
01/24/2022  06:36:00      -49.888        8.829       -3.107       43.468       25.638       16.191     1889.442      657.314      262.161        0.269        0.140       50.663       17.656        0.121      329.910       -3.054      867.371
01/24/2022  06:37:00      -63.967       12.551       -5.727       33.046       22.975       19.181     1092.026      527.835      367.904        0.313        0.099       65.187       10.103        0.024      329.838       -3.173      867.352
01/24/2022  06:38:00      -64.787       -1.889       -1.447       33.038       25.666       18.160     1091.485      658.745      329.802        0.314        0.104       64.815       17.378        0.072      329.750       -3.317      867.331
01/24/2022  06:39:00      -91.829       14.209       -9.970       28.576       23.213       14.670      816.608      538.825      215.220        0.515        0.079       92.922       12.144        0.017      329.812       -3.214      867.314
01/24/2022  06:40:00      -79.580       16.816       -6.714       29.757       15.820       15.693      885.485      250.273      246.271        0.402        0.069       81.338       14.699        0.033      329.797       -3.239      867.304
01/24/2022  06:41:00      -82.093       14.826      -10.712       34.189       23.074       12.340     1168.875      532.421      152.285        0.446        0.093       83.421        8.114        0.009      329.764       -3.294      867.299
01/24/2022  06:42:00      -94.801       26.860      -10.319       27.374       16.049       14.446      749.312      257.582      208.675        0.552        0.061       98.533       12.110        0.015      329.746       -3.324      867.290
01/24/2022  06:43:00      -94.674       34.793       -9.950       24.506       17.531       14.602      600.525      307.333      213.208        0.570        0.056      100.865        8.030        0.006      329.726       -3.356      867.279
01/24/2022  06:44:00     -117.348       33.214      -14.935       29.311       24.643       17.390      859.139      607.281      302.401        0.843        0.088      121.958       11.385        0.009      329.723       -3.362      867.266
01/24/2022  06:45:00     -114.974       43.845       -5.799       36.246       32.641       19.209     1313.776     1065.465      368.971        0.896        0.137      123.051       13.824        0.013      329.686       -3.421      867.258
01/24/2022  06:46:00      -78.859       26.824       -5.913       42.092       29.634       20.061     1771.753      878.153      402.450        0.501        0.153       83.296       21.185        0.065      329.702       -3.396      867.250
01/24/2022  06:47:00      -80.587       29.859       -6.644       42.024       29.064       21.906     1766.038      844.719      479.868        0.526        0.155       85.941       20.639        0.058      329.600       -3.562      867.243
01/24/2022  06:48:00      -63.883       14.007      -15.788       40.454       28.124       16.548     1636.516      790.938      273.832        0.361        0.135       65.401       16.490        0.064      329.684       -3.424      867.242
01/24/2022  06:49:00      -80.331       41.893       -3.156       28.168       37.891       22.837      793.440     1435.730      521.527        0.548        0.138       90.599       11.824        0.017      329.575       -3.603      867.245
01/24/2022  06:50:00      -82.481       32.248      -13.076       28.646       23.604       18.629      820.616      557.161      347.033        0.487        0.086       88.561       18.687        0.045      329.594       -3.571      867.248
01/24/2022  06:51:00      -46.713       17.530       -3.076       29.599       18.994       14.777      876.086      360.768      218.370        0.198        0.073       49.894       12.088        0.059      329.553       -3.639      867.261
01/24/2022  06:52:00      -58.898        4.843       -3.393       34.701       17.348       18.671     1204.152      300.942      348.594        0.268        0.093       59.096       19.468        0.109      329.537       -3.665      867.268
01/24/2022  06:53:00      -45.329       20.059       -0.161       27.050       16.432       16.011      731.691      270.001      256.365        0.186        0.063       49.569       13.019        0.069      329.661       -3.462      867.271
01/24/2022  06:54:00      -24.534        5.771       -6.365       26.252       13.421       14.026      689.151      180.128      196.722        0.087        0.053       25.204       14.697        0.340      329.650       -3.481      867.272
01/24/2022  06:55:00      -35.127        9.711       -8.468       19.707       13.862       13.877      388.363      192.155      192.572        0.109        0.039       36.444       10.667        0.086      329.690       -3.415      867.259
01/24/2022  06:56:00      -38.839       10.447      -11.231       14.164       13.388        9.148      200.622      179.229       83.683        0.110        0.023       40.219        6.124        0.023      329.783       -3.262      867.249
01/24/2022  06:57:00      -29.104       12.278       -8.156       15.309       12.185        8.875      234.372      148.472       78.759        0.076        0.023       31.588        5.661        0.032      329.767       -3.289      867.236
01/24/2022  06:58:00      -32.585       16.718       -5.253       16.415       11.399        9.079      269.457      129.929       82.437        0.093        0.024       36.623        7.285        0.040      329.751       -3.315      867.234
01/24/2022  06:59:00      -30.833        1.724       -5.665       24.533       17.025       11.461      601.844      289.837      131.365        0.100        0.051       30.881        4.449        0.021      329.752       -3.313      867.219
01/24/2022  07:00:00       -0.441       11.269        6.280       19.724       17.172       10.381      389.043      294.888      107.769        0.048        0.040       11.278        8.858        0.617      329.773       -3.278      867.221
01/24/2022  07:01:00       -9.092       -4.043       -8.679       23.165       15.694       13.171      536.636      246.307      173.481        0.057        0.048        9.950        6.510        0.428      329.806       -3.226      867.221
01/24/2022  07:02:00      -19.049        6.310       -0.492       19.918       19.879       13.468      396.732      395.171      181.398        0.069        0.049       20.066       10.479        0.273      329.777       -3.272      867.231
01/24/2022  07:03:00      -41.733        2.448        4.453       26.028       20.974       13.675      677.444      439.904      187.011        0.154        0.065       41.805       12.374        0.088      329.796       -3.241      867.235
01/24/2022  07:04:00      -49.329        0.756        0.905       31.931       22.658       19.128     1019.609      513.363      365.894        0.217        0.095       49.335       19.112        0.150      329.698       -3.400      867.240
01/24/2022  07:05:00      -21.118       -2.529       -8.219       21.243       21.923       12.136      451.278      480.607      147.273        0.080        0.054       21.269        8.029        0.143      329.870       -3.120      867.234
01/24/2022  07:06:00      -19.040        4.424        1.848       30.037       21.033       15.811      902.205      442.393      249.982        0.099        0.080       19.547       17.688        0.819      329.779       -3.269      867.227
01/24/2022  07:07:00      -13.145      -14.206       -2.598       42.199       16.495       16.340     1780.725      272.090      266.999        0.135        0.116       19.355       18.760        0.939      329.792       -3.247      867.218
01/24/2022  07:08:00      -13.162      -25.574        0.901       26.338       15.821       14.027      693.690      250.308      196.758        0.098        0.057       28.763        9.757        0.115      329.821       -3.201      867.207
01/24/2022  07:09:00       -6.045       -4.864       -6.360       13.351       17.446       14.088      178.244      304.356      198.476        0.039        0.034        7.759        5.817        0.562      329.737       -3.338      867.194
01/24/2022  07:10:00      -11.044        3.081        2.841       18.389       17.466       12.930      338.149      305.070      167.187        0.047        0.041       11.466        9.860        0.739      329.739       -3.335      867.192
01/24/2022  07:11:00      -15.576       -5.367      -10.586       30.697       22.316       13.888      942.303      498.009      192.870        0.101        0.082       16.475       11.395        0.478      329.640       -3.497      867.182
01/24/2022  07:12:00       -1.266      -15.175       -4.983       25.419       24.188       17.743      646.110      585.058      314.815        0.090        0.077       15.227       17.379        1.303      329.679       -3.433      867.183
01/24/2022  07:13:00      -42.881       -0.358        2.084       41.837       38.120       24.289     1750.298     1453.124      589.935        0.282        0.190       42.882       18.445        0.185      329.704       -3.392      867.170
01/24/2022  07:14:00      -35.010        6.920        2.872       36.134       31.483       22.109     1305.679      991.174      488.820        0.203        0.139       35.688       19.476        0.298      329.701       -3.397      867.167
01/24/2022  07:15:00      -23.162        3.396        3.316       48.891       33.046       20.077     2390.323     1092.029      403.083        0.222        0.194       23.410       18.097        0.598      329.736       -3.340      867.160
01/24/2022  07:16:00      -75.159       10.978       -1.478       52.281       27.397       19.936     2733.315      750.613      397.428        0.483        0.194       75.956       25.341        0.111      329.676       -3.439      867.157
01/24/2022  07:17:00      -50.507        6.218       -4.399       47.669       26.694       18.199     2272.333      712.586      331.219        0.296        0.166       50.888        7.025        0.019      329.606       -3.552      867.157
01/24/2022  07:18:00      -17.609      -19.466       -5.108       37.320       26.297       19.853     1392.758      691.543      394.157        0.160        0.124       26.248       21.314        0.659      329.747       -3.321      867.155
01/24/2022  07:19:00      -10.219       -7.972       -0.056       16.063       22.351       14.411      258.026      499.552      207.680        0.057        0.048       12.961       10.471        0.653      329.727       -3.355      867.154
01/24/2022  07:20:00      -19.572        0.541       -2.441       18.820       19.978       13.625      354.195      399.123      185.639        0.066        0.047       19.579        9.957        0.259      329.681       -3.430      867.146
01/24/2022  07:21:00      -27.458        9.148      -12.150       19.038       10.621       11.156      362.440      112.796      124.455        0.079        0.030       28.942        9.239        0.102      329.639       -3.498      867.145
01/24/2022  07:22:00      -24.319       32.326       -7.213        6.240        7.088        7.527       38.941       50.237       56.649        0.092        0.007       40.453        4.697        0.013      329.575       -3.604      867.132
01/24/2022  07:23:00      -15.711       18.250       -9.518       12.502       10.170        7.959      156.308      103.425       63.348        0.050        0.016       24.081        6.751        0.079      329.576       -3.600      867.127
01/24/2022  07:24:00      -19.951       26.566       -9.190        8.260        6.574        7.533       68.220       43.224       56.748        0.068        0.008       33.224        5.001        0.023      329.605       -3.552      867.125
01/24/2022  07:25:00        4.336       27.676       -6.537       16.708        7.831        5.204      279.168       61.327       27.081        0.060        0.018       28.014        3.032        0.012      329.608       -3.546      867.124
01/24/2022  07:26:00       50.462       18.175      -15.884       12.960       14.157        7.902      167.952      200.418       62.435        0.178        0.022       53.636        4.884        0.008      329.439       -3.825      867.134
01/24/2022  07:27:00       68.081       34.509      -11.152        6.961        8.776        9.930       48.451       77.023       98.598        0.309        0.011       76.327        3.937        0.003      329.531       -3.673      867.135
01/24/2022  07:28:00       52.507       36.805       -7.612       10.227        8.759        7.537      104.595       76.723       56.800        0.220        0.012       64.121        3.309        0.003      329.374       -3.932      867.146
01/24/2022  07:29:00       63.351       44.350      -10.470       11.419       10.460        9.094      130.382      109.415       82.702        0.321        0.016       77.332        7.208        0.009      329.391       -3.904      867.157
01/24/2022  07:30:00       54.799       31.492      -11.597       12.498       12.383       10.288      156.207      153.343      105.841        0.227        0.021       63.204        5.306        0.007      329.388       -3.909      867.172
01/24/2022  07:31:00       78.630       50.209      -24.092       16.788       11.278       13.869      281.836      127.183      192.338        0.494        0.030       93.293        4.028        0.002      329.453       -3.803      867.184
01/24/2022  07:32:00       85.290       53.906      -22.535       20.400       28.477       15.103      416.163      810.925      228.102        0.607        0.073      100.897       12.832        0.016      329.544       -3.655      867.209
01/24/2022  07:33:00       42.033        3.303      -19.894       27.314       38.725       25.594      746.036     1499.629      655.047        0.254        0.145       42.163        9.120        0.047      329.597       -3.566      867.230
01/24/2022  07:34:00       65.085       12.257       -6.079       33.991       29.562       17.212     1155.364      873.911      296.241        0.337        0.116       66.229        9.453        0.020      329.427       -3.846      867.246
01/24/2022  07:35:00       50.249       -2.197       -5.209       36.988       25.496       21.024     1368.134      650.032      442.029        0.251        0.123       50.297       18.911        0.141      329.506       -3.716      867.252
01/24/2022  07:36:00       65.558        8.830       -3.092       28.940       18.053       19.787      837.514      325.901      391.541        0.297        0.078       66.150       15.277        0.053      329.475       -3.767      867.247
01/24/2022  07:37:00       72.046        8.640       -3.355       41.048       25.143       20.519     1684.951      632.193      421.019        0.401        0.137       72.562       14.679        0.041      329.486       -3.748      867.241
01/24/2022  07:38:00      107.811       -9.873       -7.009       36.952       26.125       21.754     1365.459      682.522      473.248        0.715        0.126      108.262       19.053        0.031      329.467       -3.780      867.221
01/24/2022  07:39:00      138.958        6.992      -12.332       40.591       35.546       24.778     1647.605     1263.492      613.952        1.152        0.176      139.134       23.093        0.028      329.632       -3.510      867.201
01/24/2022  07:40:00       73.820       -0.898       -4.339       47.149       34.466       28.178     2223.025     1187.902      794.015        0.484        0.210       73.825       12.268        0.028      329.732       -3.345      867.180
01/24/2022  07:41:00       50.764        2.705       -3.732       45.508       29.932       27.879     2070.936      895.953      777.263        0.317        0.187       50.836       28.580        0.316      329.812       -3.216      867.179
01/24/2022  07:42:00       74.556       -4.633       -6.027       42.285       27.003       26.296     1788.009      729.178      691.496        0.441        0.160       74.700       22.571        0.091      329.786       -3.257      867.187
01/24/2022  07:43:00       68.957        6.613       -9.756       53.710       32.443       25.859     2884.811     1052.525      668.663        0.475        0.230       69.274       25.349        0.134      329.803       -3.229      867.182
01/24/2022  07:44:00       56.102       21.006        5.967       60.163       54.472       35.518     3619.542     2967.241     1261.517        0.573        0.392       59.905       25.038        0.175      329.933       -3.016      867.174
01/24/2022  07:45:00        5.002       16.673        9.000       24.195       27.656       30.524      585.398      764.874      931.719        0.133        0.114       17.407        6.321        0.132      330.045       -2.834      867.179
01/24/2022  07:46:00       67.138        0.560      -22.390       42.896       39.547       25.637     1840.066     1563.988      657.244        0.453        0.203       67.140       19.071        0.081      329.950       -2.989      867.174
01/24/2022  07:47:00       53.552       13.948      -19.508       28.424       41.209       26.549      807.927     1698.214      704.836        0.333        0.161       55.338       13.800        0.062      329.905       -3.062      867.178
01/24/2022  07:48:00       82.028        5.864      -16.572       29.467       37.080       18.163      868.311     1374.949      329.893        0.480        0.129       82.237       13.016        0.025      329.910       -3.054      867.194
01/24/2022  07:49:00       93.840        9.412      -17.267       39.459       31.386       20.688     1556.979      985.057      427.978        0.608        0.149       94.311       19.486        0.043      329.808       -3.222      867.209
01/24/2022  07:50:00       73.901       11.651       -9.760       30.739       35.240       16.651      944.873     1241.888      277.258        0.408        0.123       74.814       13.635        0.033      329.849       -3.154      867.221
01/24/2022  07:51:00       62.859       -7.480       -2.887       33.042       32.088       20.204     1091.794     1029.627      408.207        0.327        0.126       63.302       14.174        0.050      329.892       -3.086      867.225
01/24/2022  07:52:00       80.613       34.623       -7.634       19.939       20.211       16.966      397.573      408.489      287.836        0.442        0.055       87.734        7.383        0.007      329.813       -3.214      867.230
01/24/2022  07:53:00       45.663        0.528      -12.737       29.775       38.833       21.525      886.572     1507.964      463.314        0.255        0.143       45.666       12.985        0.081      329.956       -2.980      867.240
01/24/2022  07:54:00       29.794       30.183       -8.801       39.466       46.694       24.842     1557.532     2180.292      617.126        0.311        0.218       42.411       11.846        0.078      330.030       -2.858      867.251
01/24/2022  07:55:00       28.711       42.815      -11.320       27.855       28.347       25.375      775.922      803.542      643.907        0.250        0.111       51.550        9.074        0.031      330.039       -2.843      867.256
01/24/2022  07:56:00       43.284       17.460      -19.010       29.114       42.942       23.609      847.608     1844.029      557.378        0.289        0.162       46.673       11.492        0.061      330.009       -2.891      867.272
01/24/2022  07:57:00       42.712       23.574      -22.958       35.263       38.833       30.287     1243.479     1508.004      917.279        0.329        0.183       48.786       15.593        0.102      330.021       -2.873      867.267
01/24/2022  07:58:00       83.487       31.196      -20.945       38.280       55.925       31.584     1465.361     3127.586      997.552        0.699        0.280       89.125       20.227        0.052      329.978       -2.943      867.270
01/24/2022  07:59:00       87.997       18.885      -25.416       33.273       42.277       30.129     1107.073     1787.332      907.774        0.627        0.190       90.001       17.358        0.037      329.905       -3.062      867.275
01/24/2022  08:00:00       53.996       18.269      -28.928       41.500       47.519       27.130     1722.240     2258.062      736.053        0.440        0.236       57.002       24.265        0.181      330.058       -2.813      867.274
01/24/2022  08:01:00       51.322      -30.394      -29.269       32.505       35.144       24.478     1056.555     1235.086      599.179        0.365        0.145       59.647       12.011        0.041      330.186       -2.602      867.277
01/24/2022  08:02:00       26.972      -19.150      -22.279       35.728       46.933       33.191     1276.503     2202.720     1101.628        0.308        0.229       33.079       23.654        0.511      330.460       -2.153      867.273
01/24/2022  08:03:00       27.292        7.716      -21.811       30.079       50.584       26.694      904.762     2558.777      712.584        0.273        0.209       28.361       12.541        0.196      330.109       -2.728      867.280
01/24/2022  08:04:00       62.925      -28.814      -34.409       35.334       60.317       35.155     1248.474     3638.096     1235.873        0.605        0.306       69.209       15.796        0.052      330.413       -2.229      867.283
01/24/2022  08:05:00       26.836       16.058      -23.897       37.103       42.289       27.338     1376.602     1788.325      747.360        0.273        0.196       31.273       16.853        0.290      330.280       -2.448      867.287
01/24/2022  08:06:00       60.297       16.923      -32.652       35.965       56.918       31.055     1293.488     3239.686      964.435        0.524        0.275       62.627       14.672        0.055      330.262       -2.478      867.287
01/24/2022  08:07:00       96.094       31.322      -26.326       46.841       42.953       24.890     2194.058     1844.926      619.509        0.778        0.233      101.070       13.184        0.017      330.176       -2.618      867.291
01/24/2022  08:08:00       94.668       19.884      -18.345       33.708       38.176       24.528     1136.206     1457.424      601.636        0.644        0.160       96.734       13.824        0.020      330.042       -2.839      867.300
01/24/2022  08:09:00      104.682       41.221      -35.000       47.441       23.442       19.824     2250.646      549.526      393.008        0.854        0.160      112.505       11.230        0.010      330.038       -2.844      867.309
01/24/2022  08:10:00       83.850       46.242      -26.518       36.856       32.936       20.870     1358.344     1084.762      435.537        0.637        0.144       95.756       12.426        0.017      330.145       -2.671      867.310
01/24/2022  08:11:00       60.928        2.966      -16.218       36.460       45.718       23.951     1329.339     2090.134      573.654        0.399        0.200       61.000       18.048        0.088      330.118       -2.714      867.308
01/24/2022  08:12:00       68.413      -17.695      -26.192       32.677       36.772       21.080     1067.798     1352.200      444.355        0.427        0.143       70.665        7.810        0.012      330.237       -2.519      867.313
01/24/2022  08:13:00       68.400       34.468       -6.396       22.042       17.526       15.613      485.846      307.159      243.766        0.347        0.052       76.594        6.275        0.007      330.064       -2.802      867.306
01/24/2022  08:14:00       41.619       43.202      -14.045       18.956       29.958       16.493      359.328      897.497      272.012        0.266        0.076       59.987       10.424        0.030      330.177       -2.617      867.303
01/24/2022  08:15:00       69.612       62.375      -17.328       20.135       20.542       14.982      405.408      421.975      224.450        0.504        0.053       93.469       10.728        0.013      330.104       -2.737      867.300
01/24/2022  08:16:00       50.925       22.211       -5.498       34.825       48.046       22.493     1212.815     2308.386      505.932        0.357        0.201       55.558       14.570        0.069      330.275       -2.457      867.303
01/24/2022  08:17:00       37.758      -16.070      -18.679       27.014       28.327       23.797      729.761      802.416      566.309        0.207        0.105       41.035       14.206        0.120      330.475       -2.128      867.295
01/24/2022  08:18:00       22.276      -15.149      -10.807       28.503       21.513       21.100      812.426      462.818      445.214        0.128        0.086       26.939       14.164        0.276      330.459       -2.156      867.284
01/24/2022  08:19:00       16.318       17.906       -9.929       24.391       34.663       19.543      594.930     1201.514      381.925        0.143        0.109       24.226       13.254        0.299      330.457       -2.158      867.272
01/24/2022  08:20:00       11.071      -11.824      -22.952       25.905       19.751       15.561      671.071      390.091      242.133        0.105        0.065       16.198       14.025        0.750      330.524       -2.047      867.261
01/24/2022  08:21:00        3.702       11.651       -4.471       13.183       16.419       15.725      173.800      269.572      247.282        0.043        0.035       12.225        5.289        0.187      330.598       -1.925      867.250
01/24/2022  08:22:00       19.603       40.595       -3.632       24.874       20.172       14.494      618.705      406.903      210.065        0.164        0.062       45.081       13.702        0.092      330.487       -2.109      867.236
01/24/2022  08:23:00      -19.402        6.942       -8.199       19.767       13.893       11.132      390.751      193.011      123.920        0.060        0.035       20.607        7.533        0.134      330.527       -2.043      867.228
01/24/2022  08:24:00      -27.715        9.153      -13.591       10.841        7.810       11.532      117.535       60.993      132.998        0.067        0.016       29.187        7.590        0.068      330.469       -2.139      867.219
01/24/2022  08:25:00      -19.296       11.531      -14.598       16.319       10.276        7.514      266.324      105.605       56.455        0.057        0.021       22.479        2.397        0.011      330.533       -2.035      867.209
01/24/2022  08:26:00      -10.223       14.492      -10.675        5.859        7.177        7.378       34.329       51.503       54.431        0.028        0.007       17.735        4.193        0.056      330.545       -2.014      867.201
01/24/2022  08:27:00       -9.901       19.970       -6.413        7.164        8.982        6.142       51.324       80.684       37.724        0.035        0.008       22.290        2.464        0.012      330.589       -1.942      867.188
01/24/2022  08:28:00      -19.685       18.329       -8.088       11.168        8.555        6.105      124.732       73.185       37.267        0.051        0.012       26.898        1.415        0.003      330.606       -1.912      867.188
01/24/2022  08:29:00      -35.565       18.386       -7.150       20.301       18.250       15.549      412.142      333.064      241.779        0.132        0.049       40.037       13.113        0.107      330.653       -1.835      867.186
01/24/2022  08:30:00      -13.166        2.156       -1.754       15.429       19.124       11.172      238.049      365.733      124.811        0.045        0.036       13.342        9.641        0.522      330.942       -1.361      867.183
01/24/2022  08:31:00      -32.307        4.352       -6.628       25.821       16.616       12.445      666.743      276.100      154.868        0.110        0.055       32.599        9.587        0.086      330.826       -1.552      867.176
01/24/2022  08:32:00      -58.471       -6.319       -5.894       25.064       18.091       18.886      628.195      327.302      356.666        0.240        0.066       58.812       14.121        0.058      330.804       -1.590      867.166
01/24/2022  08:33:00      -67.649       -4.962       -4.049       31.884       17.688       20.053     1016.596      312.871      402.142        0.317        0.087       67.831       17.590        0.067      330.904       -1.425      867.163
01/24/2022  08:34:00      -45.962       -6.657        1.936       38.827       31.543       27.925     1507.519      994.950      779.809        0.272        0.164       46.442       25.835        0.309      331.027       -1.223      867.150
01/24/2022  08:35:00     -109.291      -17.985      -17.402       24.224       26.954       17.784      586.793      726.506      316.266        0.710        0.081      110.761       11.831        0.011      330.850       -1.512      867.147
01/24/2022  08:36:00      -19.388        7.509       -4.592       41.197       25.853       16.259     1697.230      668.353      264.356        0.154        0.131       20.792       11.023        0.281      331.043       -1.196      867.144
01/24/2022  08:37:00      -80.659        0.336      -11.529       22.128       18.511       15.605      489.656      342.640      243.520        0.386        0.054       80.660        6.069        0.006      330.965       -1.327      867.149
01/24/2022  08:38:00      -39.834        7.283       -1.375       39.665       21.147       18.165     1573.284      447.185      329.952        0.200        0.118       40.494       17.134        0.179      330.985       -1.292      867.154
01/24/2022  08:39:00      -37.578      -32.363      -17.293       32.662       42.454       28.182     1066.816     1802.384      794.215        0.321        0.183       49.593       18.592        0.141      331.039       -1.202      867.157
01/24/2022  08:40:00      -34.312        2.157       -2.056       33.940       25.990       19.885     1151.897      675.477      395.401        0.170        0.111       34.379       17.713        0.265      331.135       -1.046      867.158
01/24/2022  08:41:00      -55.683      -14.684       -5.114       40.155       22.055       19.604     1612.387      486.442      384.333        0.291        0.124       57.586       17.095        0.088      331.081       -1.135      867.166
01/24/2022  08:42:00      -85.428      -23.518      -11.467       24.149       26.637       18.638      583.186      709.543      347.376        0.481        0.082       88.606       14.584        0.027      330.989       -1.286      867.170
01/24/2022  08:43:00      -37.884       -2.652       -2.413       32.861       27.165       21.013     1079.839      737.958      441.530        0.185        0.113       37.977       17.803        0.220      331.114       -1.080      867.158
01/24/2022  08:44:00      -55.281      -17.555        0.368       41.140       31.805       28.670     1692.483     1011.584      821.962        0.344        0.176       58.001       25.413        0.192      331.126       -1.060      867.153
01/24/2022  08:45:00      -52.365      -13.553       -0.227       37.088       32.782       19.856     1375.531     1074.635      394.260        0.288        0.142       54.091       18.567        0.118      331.051       -1.183      867.144
01/24/2022  08:46:00      -62.672       10.978      -10.494       29.549       29.258       20.421      873.150      856.007      417.022        0.315        0.107       63.626       11.818        0.035      331.054       -1.177      867.146
01/24/2022  08:47:00      -38.183       34.776      -15.950       28.548       26.492       21.861      814.985      701.841      477.903        0.246        0.100       51.646       17.914        0.120      331.119       -1.071      867.144
01/24/2022  08:48:00      -16.903      -13.935       -0.718       22.811       28.641       20.450      520.327      820.298      418.192        0.112        0.088       21.906       20.884        0.909      331.458       -0.515      867.139
01/24/2022  08:49:00      -45.917       23.359       -7.025       21.857       25.072       12.537      477.740      628.618      157.181        0.198        0.063       51.517       10.861        0.044      331.150       -1.020      867.150
01/24/2022  08:50:00      -32.788      -11.273       -8.319       20.762       22.536       12.178      431.047      507.875      148.305        0.118        0.054       34.672        6.834        0.039      331.251       -0.856      867.155
01/24/2022  08:51:00       -5.193       -7.624        1.865       26.955       21.473       18.790      726.559      461.097      353.074        0.081        0.077        9.224       15.966        2.996      331.440       -0.543      867.146
01/24/2022  08:52:00      -54.572      -13.397      -19.212       26.735       27.687       17.994      714.743      766.565      323.774        0.267        0.090       56.192        8.946        0.025      331.314       -0.750      867.153
01/24/2022  08:53:00        3.482      -30.313      -21.870       24.332       21.274       19.126      592.035      452.564      365.811        0.141        0.071       30.512       12.373        0.164      331.332       -0.721      867.144
01/24/2022  08:54:00      -39.115      -22.400      -10.120       17.452       17.465       19.378      304.557      305.027      375.523        0.156        0.049       45.075        9.553        0.045      331.246       -0.861      867.153
01/24/2022  08:55:00      -32.446        5.460      -13.043       15.274        6.379        8.270      233.283       40.696       68.387        0.080        0.017       32.902        3.215        0.010      331.246       -0.862      867.165
01/24/2022  08:56:00        1.010       -4.873      -10.070       12.586       19.302       11.965      158.415      372.583      143.169        0.040        0.034        4.977        7.217        2.103      331.537       -0.385      867.156
01/24/2022  08:57:00       -0.977        1.855       -3.094       19.131       24.335       23.090      366.007      592.209      533.160        0.075        0.075        2.096        9.358       19.928      331.580       -0.313      867.150
01/24/2022  08:58:00      -15.650       11.746      -12.139       19.070        8.145       11.506      363.662       66.347      132.397        0.055        0.028       19.568        9.238        0.223      331.423       -0.571      867.152
01/24/2022  08:59:00      -15.962      -21.269      -14.260       21.197       29.492       15.298      449.328      869.805      234.030        0.123        0.078       26.592       10.370        0.152      331.430       -0.560      867.146
01/24/2022  09:00:00      -32.017      -23.827      -28.504       30.861       33.498       20.643      952.382     1122.089      426.141        0.245        0.125       39.910       18.457        0.214      331.476       -0.484      867.144
01/24/2022  09:01:00      -39.535      -16.372      -16.357       28.337       20.935       20.928      802.998      438.292      437.982        0.189        0.084       42.791       10.521        0.060      331.672       -0.161      867.141
01/24/2022  09:02:00      -24.034      -13.604      -16.613       23.642       20.851       15.224      558.951      434.758      231.755        0.113        0.061       27.617       11.475        0.173      331.732       -0.062      867.160
01/24/2022  09:03:00      -36.809       -8.210       -5.489       30.646       20.219       15.440      939.199      408.813      238.382        0.152        0.079       37.714       14.079        0.139      331.666       -0.171      867.159
01/24/2022  09:04:00      -47.299       -4.120       -3.654       42.148       21.596       23.202     1776.418      466.386      538.330        0.252        0.139       47.478       15.004        0.100      331.609       -0.266      867.170
01/24/2022  09:05:00      -48.831        9.667       -7.243       45.064       27.675       21.222     2030.780      765.924      450.357        0.289        0.162       49.778       12.504        0.063      331.632       -0.227      867.175
01/24/2022  09:06:00      -47.485       24.887      -14.900       24.566       27.848       21.608      603.491      775.516      466.919        0.247        0.092       53.612       16.034        0.089      331.456       -0.517      867.183
01/24/2022  09:07:00      -36.164       -8.412       -2.954       28.261       20.891       21.977      798.679      436.442      482.968        0.155        0.086       37.129       17.053        0.211      331.699       -0.117      867.175
01/24/2022  09:08:00      -15.606       14.301       -5.884       30.784       15.943       14.646      947.683      254.172      214.508        0.095        0.071       21.167        7.638        0.130      331.696       -0.122      867.177
01/24/2022  09:09:00      -38.159        6.984       -5.835       29.488       29.393       15.617      869.530      863.922      243.890        0.176        0.099       38.793       14.913        0.148      331.732       -0.064      867.163
01/24/2022  09:10:00      -27.789        6.549      -10.880       11.811       11.396       10.641      139.507      129.862      113.224        0.066        0.019       28.550        6.277        0.048      331.653       -0.193      867.155
01/24/2022  09:11:00       -3.503       11.579        2.507       14.034        9.123        9.790      196.963       83.226       95.845        0.026        0.019       12.097        6.568        0.295      331.903        0.219      867.154
01/24/2022  09:12:00      -10.213       26.948       -4.006       15.859       18.329        8.245      251.515      335.955       67.979        0.075        0.033       28.818        9.184        0.102      331.788        0.029      867.159
01/24/2022  09:13:00      -29.006        9.683       -6.139       17.974       20.050       13.848      323.064      402.011      191.769        0.094        0.046       30.579       11.506        0.142      331.797        0.045      867.171
01/24/2022  09:14:00       -7.829        7.246       -5.759        6.899        8.168        6.126       47.589       66.717       37.531        0.015        0.008       10.668        2.924        0.075      331.920        0.248      867.185
01/24/2022  09:15:00      -12.485        9.224       -6.952       11.333        8.112        8.671      128.429       65.807       75.192        0.028        0.013       15.523        5.439        0.123      331.930        0.263      867.195
01/24/2022  09:16:00      -19.034       13.393      -11.993       14.670       13.627       14.351      215.223      185.707      205.938        0.065        0.030       23.274        3.963        0.029      331.981        0.347      867.190
01/24/2022  09:17:00       -0.314       15.404       -3.541       32.133       34.711       28.687     1032.518     1204.887      822.964        0.165        0.153       15.407       22.756        2.182      332.175        0.665      867.187
01/24/2022  09:18:00      -42.824      -40.891      -15.871       27.939       37.495       22.708      780.581     1405.888      515.662        0.323        0.135       59.211       12.654        0.046      332.113        0.565      867.173
01/24/2022  09:19:00       -9.474       -8.112      -13.700       42.150       57.102       34.071     1776.633     3260.667     1160.811        0.327        0.310       12.472       25.371        4.138      332.227        0.751      867.162
01/24/2022  09:20:00       22.592       35.700       -9.000       45.350       36.020       29.565     2056.656     1297.446      874.101        0.305        0.211       42.248       10.145        0.058      332.220        0.739      867.154
01/24/2022  09:21:00      -34.775        4.320      -14.902       16.547       11.918       12.392      273.789      142.049      153.563        0.101        0.028       35.043        4.729        0.018      332.064        0.486      867.155
01/24/2022  09:22:00      -29.934        0.160      -15.958       23.143       13.247       22.465      535.593      175.471      504.690        0.118        0.061       29.934       11.778        0.155      332.238        0.771      867.173
01/24/2022  09:23:00        4.870       16.750      -11.254       70.007       30.024       16.173     4900.953      901.460      261.550        0.325        0.303       17.443        8.882        0.259      332.066        0.487      867.198
01/24/2022  09:24:00       81.074      -19.910      -37.024       44.423       51.443       32.258     1973.400     2646.401     1040.591        0.700        0.283       83.483       23.592        0.080      332.409        1.053      867.229
01/24/2022  09:25:00       12.303       10.705       -4.822       46.566       42.168       27.294     2168.348     1778.115      744.973        0.249        0.235       16.308       21.857        1.796      332.404        1.046      867.254
01/24/2022  09:26:00       90.541       26.833      -18.993       71.121       44.507       28.452     5058.199     1980.885      809.521        0.856        0.392       94.434       19.021        0.041      332.340        0.939      867.263
01/24/2022  09:27:00       69.069       10.245      -27.335       43.975       59.250       31.436     1933.808     3510.564      988.240        0.603        0.322       69.825       13.414        0.037      332.472        1.158      867.256
01/24/2022  09:28:00       99.235       39.872      -27.474       44.623       69.233       34.341     1991.219     4793.180     1179.306        1.008        0.398      106.945       26.073        0.059      332.285        0.847      867.246
01/24/2022  09:29:00       48.508      -71.052      -14.023       44.167       64.127       38.220     1950.702     4112.299     1460.777        0.756        0.376       86.032       29.091        0.114      332.588        1.349      867.242
01/24/2022  09:30:00       52.715      -82.918      -51.467       56.550       62.627       37.020     3197.914     3922.152     1370.446        1.040        0.425       98.256       28.316        0.083      332.418        1.068      867.225
01/24/2022  09:31:00      115.665     -111.830      -43.761       56.193       44.994       32.709     3157.633     2024.430     1069.878        1.702        0.313      160.886       22.932        0.020      332.334        0.929      867.211
01/24/2022  09:32:00       59.546        0.047      -24.080       49.441       74.999       37.782     2444.414     5624.813     1427.465        0.681        0.475       59.546       26.056        0.191      332.611        1.386      867.203
01/24/2022  09:33:00       92.180        3.850      -28.436       42.483       62.666       30.034     1804.841     3926.974      902.023        0.798        0.332       92.260       13.765        0.022      332.547        1.280      867.201
01/24/2022  09:34:00      -23.658       -4.389      -12.089       45.591       43.765       25.269     2078.499     1915.359      638.531        0.268        0.232       24.062       23.609        0.963      332.466        1.145      867.207
01/24/2022  09:35:00       58.724     -117.262      -39.153       71.149       69.889       32.370     5062.248     4884.433     1047.833        1.486        0.550      131.144       32.570        0.062      332.256        0.799      867.217
01/24/2022  09:36:00       97.364      -97.286      -46.450       64.033       65.548       24.893     4100.256     4296.477      619.657        1.506        0.451      137.638       27.201        0.039      332.267        0.818      867.226
01/24/2022  09:37:00       70.373      -49.663      -48.050       57.906       77.749       48.756     3353.092     6044.834     2377.191        1.075        0.589       86.132       29.070        0.114      332.861        1.799      867.227
01/24/2022  09:38:00       49.414      -59.531      -39.523       39.126       45.218       31.908     1530.839     2044.643     1018.114        0.607        0.230       77.367       11.091        0.021      332.617        1.397      867.239
01/24/2022  09:39:00       53.900      -54.202      -27.054       54.884       48.522       33.123     3012.259     2354.425     1097.148        0.652        0.323       76.440       27.962        0.134      332.551        1.288      867.234
01/24/2022  09:40:00       22.015      -23.622      -15.411       51.686       65.158       40.997     2671.396     4245.599     1680.725        0.494        0.430       32.290       26.376        0.667      332.841        1.765      867.238
01/24/2022  09:41:00      102.909      -42.957      -27.810       61.263       59.319       42.927     3753.191     3518.713     1842.758        1.116        0.456      111.515       38.154        0.117      332.498        1.201      867.251
01/24/2022  09:42:00      117.745      -25.748      -23.497       64.602       57.948       35.147     4173.446     3357.938     1235.293        1.192        0.438      120.528       36.622        0.092      332.302        0.877      867.266
01/24/2022  09:43:00       85.849      -70.612      -22.763       56.568       40.346       33.137     3199.984     1627.796     1098.038        0.940        0.296      111.158       27.714        0.062      332.537        1.264      867.279
01/24/2022  09:44:00       84.582       45.995      -17.821       87.119       51.061       29.194     7589.704     2607.210      852.315        1.032        0.552       96.279        9.396        0.010      332.648        1.447      867.288
01/24/2022  09:45:00       88.732       36.848      -26.291       63.847       58.167       42.536     4076.435     3383.396     1809.335        0.959        0.463       96.079       22.949        0.057      332.656        1.460      867.307
01/24/2022  09:46:00       70.460      -26.442      -25.065       81.636       48.765       30.426     6664.515     2378.051      925.728        0.813        0.498       75.258       18.468        0.060      332.698        1.531      867.328
01/24/2022  09:47:00       48.685      -28.350      -19.629       43.093       67.240       45.630     1856.981     4521.272     2082.141        0.601        0.423       56.338       29.405        0.272      332.854        1.789      867.343
01/24/2022  09:48:00       43.776      -48.982      -36.143       55.128       57.669       37.619     3039.067     3325.678     1415.174        0.670        0.389       65.693       27.162        0.171      332.896        1.856      867.355
01/24/2022  09:49:00       39.006      -21.266      -15.507       55.141       58.210       28.574     3040.488     3388.457      816.489        0.473        0.362       44.427       16.210        0.133      332.844        1.773      867.386
01/24/2022  09:50:00       79.527       66.695      -16.913       81.098       50.826       43.208     6576.893     2583.237     1866.908        1.104        0.551      103.792       38.721        0.139      332.608        1.380      867.403
01/24/2022  09:51:00      -34.799       -8.971      -26.139       34.616       36.749       24.849     1198.247     1350.457      617.462        0.257        0.158       35.937       13.340        0.138      332.824        1.738      867.424
01/24/2022  09:52:00      -45.653        6.665      -13.651       43.932       32.796       28.709     1930.060     1075.562      824.208        0.307        0.191       46.137       20.934        0.206      332.733        1.587      867.446
01/24/2022  09:53:00       -2.463      -52.724      -14.617       56.457      103.516       47.998     3187.339    10715.467     2303.813        0.960        0.810       52.781       33.422        0.401      332.769        1.647      867.469
01/24/2022  09:54:00       29.788      -15.380      -28.286       72.200       75.360       43.031     5212.783     5679.151     1851.642        0.733        0.637       33.524       34.764        1.075      332.810        1.715      867.482
01/24/2022  09:55:00       12.809       11.503      -11.323       69.675       58.767       34.061     4854.623     3453.543     1160.158        0.494        0.473       17.216       25.340        2.166      332.846        1.775      867.494
01/24/2022  09:56:00       27.738       -5.587      -33.896       37.947       41.113       26.640     1440.010     1690.303      709.694        0.289        0.192       28.295        9.096        0.103      332.789        1.680      867.501
01/24/2022  09:57:00       91.449       48.925      -16.160       46.041       29.032       34.125     2119.774      842.871     1164.516        0.757        0.206      103.714       19.857        0.037      332.567        1.314      867.506
01/24/2022  09:58:00       52.650       23.452      -21.960       19.519       31.329       30.146      380.978      981.506      908.785        0.304        0.114       57.637       13.339        0.054      332.754        1.622      867.511
01/24/2022  09:59:00       17.192       23.905       -1.341       34.981       34.674       23.569     1223.674     1202.258      555.483        0.192        0.149       29.445        7.631        0.067      333.058        2.125      867.524
01/24/2022  10:00:00       71.175      -41.418      -22.515       53.340       42.580       28.241     2845.123     1813.072      797.546        0.637        0.273       82.349        8.752        0.011      332.772        1.653      867.523
01/24/2022  10:01:00       62.135      -30.141      -12.724       39.893       34.702       32.517     1591.428     1204.222     1057.367        0.439        0.193       69.060       26.533        0.148      332.859        1.796      867.541
01/24/2022  10:02:00       54.857      -17.442      -14.686       42.534       40.779       26.116     1809.111     1662.935      682.048        0.384        0.208       57.563       21.348        0.138      332.888        1.843      867.541
01/24/2022  10:03:00       79.439      -47.982      -32.974       42.069       60.500       34.727     1769.805     3660.249     1205.947        0.817        0.332       92.806        8.187        0.008      332.922        1.901      867.533
01/24/2022  10:04:00       81.206      -23.045      -30.559       54.830       50.376       36.622     3006.348     2537.750     1341.185        0.747        0.344       84.412       32.936        0.152      332.982        2.001      867.528
01/24/2022  10:05:00       36.027      -45.384      -18.908       51.827       62.188       38.395     2686.012     3867.304     1474.197        0.587        0.401       57.945       30.188        0.271      333.122        2.231      867.532
01/24/2022  10:06:00       26.102      -27.500      -15.557       64.470       54.933       31.650     4156.377     3017.601     1001.691        0.493        0.409       37.915       27.773        0.537      333.152        2.280      867.539
01/24/2022  10:07:00      106.350       48.196      -31.670       90.670       60.495       28.529     8221.051     3659.656      813.925        1.366        0.635      116.761       16.011        0.019      332.997        2.024      867.540
01/24/2022  10:08:00      164.588       53.292      -23.707       36.527       43.972       18.504     1334.191     1933.530      342.386        1.705        0.181      173.001        6.933        0.002      332.697        1.528      867.560
01/24/2022  10:09:00      131.667       17.454      -33.024       52.276       51.000       22.325     2732.732     2601.004      498.416        1.228        0.292      132.818       21.278        0.026      332.776        1.659      867.565
01/24/2022  10:10:00      122.156       46.452      -33.077       56.938       48.159       28.794     3241.937     2319.243      829.072        1.228        0.320      130.690       16.287        0.016      333.101        2.196      867.574
01/24/2022  10:11:00       94.104       21.139       -8.471       49.865       57.275       28.278     2486.472     3280.464      799.662        0.797        0.328       96.449       26.628        0.076      333.128        2.241      867.594
01/24/2022  10:12:00       47.298        2.070      -19.275       36.871       39.903       26.573     1359.457     1592.222      706.145        0.313        0.183       47.344       23.065        0.237      333.374        2.649      867.594
01/24/2022  10:13:00       66.283       39.955      -11.325       44.270       35.295       19.273     1959.858     1245.757      371.455        0.485        0.179       77.394        9.742        0.016      333.238        2.423      867.592
01/24/2022  10:14:00      132.812       61.854      -22.392       49.728       26.952       23.081     2472.860      726.426      532.743        1.285        0.187      146.509       18.010        0.015      333.070        2.146      867.582
01/24/2022  10:15:00       98.542       21.213      -16.930       50.514       89.727       32.012     2551.691     8051.023     1024.758        1.104        0.581      100.800       23.834        0.056      333.455        2.781      867.567
01/24/2022  10:16:00       43.562        9.197       -3.580       41.650       72.262       40.402     1734.730     5221.737     1632.342        0.529        0.429       44.522       25.031        0.316      333.770        3.302      867.552
01/24/2022  10:17:00      102.939      -51.925      -29.811       58.861      100.252       45.543     3464.587    10050.366     2074.148        1.488        0.779      115.294       37.908        0.108      333.354        2.613      867.547
01/24/2022  10:18:00      111.655      -13.510      -27.317       52.723       45.672       40.165     2779.687     2085.940     1613.191        0.994        0.324      112.470       25.385        0.051      333.602        3.024      867.551
01/24/2022  10:19:00       21.301      -11.085      -10.195       47.311       44.384       30.406     2238.299     1969.914      924.552        0.291        0.257       24.013       23.712        0.975      333.517        2.885      867.561
01/24/2022  10:20:00        4.059      -17.531       -5.721       63.164       58.455       43.749     3989.646     3417.034     1913.992        0.484        0.466       17.994       37.418        4.324      333.803        3.358      867.566
01/24/2022  10:21:00       53.022      -22.920      -18.140       50.094       80.628       30.299     2509.369     6500.936      918.011        0.680        0.496       57.764       25.287        0.192      333.678        3.151      867.581
01/24/2022  10:22:00       95.906       21.475      -18.734       69.252       94.520       34.007     4795.844     8934.016     1156.476        1.245        0.744       98.281       12.054        0.015      333.510        2.872      867.589
01/24/2022  10:23:00       46.345       35.871      -20.477       45.697       61.366       31.106     2088.197     3765.750      967.555        0.534        0.341       58.605       22.774        0.151      333.710        3.204      867.606
01/24/2022  10:24:00       40.593       17.861      -11.736       44.007       55.693       28.403     1936.659     3101.669      806.749        0.397        0.292       44.349       20.378        0.211      333.600        3.022      867.612
01/24/2022  10:25:00       12.779      -52.467      -20.914       39.075       50.757       23.451     1526.873     2576.301      549.949        0.400        0.233       54.001       15.409        0.081      333.804        3.360      867.613
01/24/2022  10:26:00       46.372      -62.166      -15.070       53.780       68.918       46.474     2892.247     4749.707     2159.807        0.802        0.490       77.556       36.285        0.219      333.652        3.109      867.622
01/24/2022  10:27:00       70.602     -101.331      -23.522       38.826       63.193       36.428     1507.470     3993.373     1327.032        1.132        0.341      123.501       20.594        0.028      333.441        2.758      867.612
01/24/2022  10:28:00       58.185     -106.817      -30.393       34.468       93.169       36.508     1188.029     8680.394     1332.848        1.346        0.560      121.636       20.399        0.028      333.450        2.773      867.605
01/24/2022  10:29:00       72.003     -123.289      -38.401       26.095       43.986       19.323      680.974     1934.798      373.383        1.242        0.149      142.775       13.717        0.009      333.124        2.234      867.577
01/24/2022  10:30:00       84.748     -163.508      -36.611       33.093       48.088       24.565     1095.150     2312.485      603.457        1.963        0.201      184.166       11.072        0.004      333.419        2.722      867.554
01/24/2022  10:31:00       95.178     -176.080      -41.901       36.862       47.141       24.168     1358.818     2222.256      584.094        2.299        0.208      200.158       12.900        0.004      333.096        2.185      867.554
01/24/2022  10:32:00       71.823     -197.112      -45.385       28.261       28.651       21.120      798.666      820.907      446.069        2.407        0.103      209.790       12.874        0.004      333.094        2.183      867.558
01/24/2022  10:33:00       70.560      -96.353      -38.219       28.601       36.236       26.214      818.000     1313.038      687.151        0.927        0.141      119.427       16.020        0.018      333.375        2.650      867.567
01/24/2022  10:34:00       57.572     -130.707      -38.539       57.265       53.652       35.209     3279.306     2878.537     1239.687        1.464        0.370      142.824       17.495        0.015      333.525        2.897      867.559
01/24/2022  10:35:00       37.059      -82.265      -25.902       37.203       41.521       33.556     1384.076     1723.971     1126.038        0.652        0.212       90.227        9.703        0.012      333.729        3.235      867.554
01/24/2022  10:36:00       44.400      -95.406      -33.927       45.122       59.326       29.010     2035.983     3519.536      841.562        0.931        0.320      105.232       16.281        0.024      333.638        3.086      867.540
01/24/2022  10:37:00       23.848      -67.129      -19.607       38.334       46.104       24.597     1469.527     2125.553      605.019        0.483        0.210       71.239       22.676        0.101      333.839        3.419      867.535
01/24/2022  10:38:00        3.826      -18.140      -28.053       37.909       35.368       22.215     1437.065     1250.883      493.506        0.216        0.159       18.540       16.832        0.824      333.997        3.678      867.532
01/24/2022  10:39:00      -20.576       -1.266      -23.817       19.450       19.029       14.614      378.297      362.107      213.576        0.097        0.048       20.615        4.504        0.048      333.911        3.538      867.531
01/24/2022  10:40:00       33.206      -61.142      -24.086       58.746       88.105       29.072     3451.119     7762.442      845.199        0.874        0.603       69.577       33.445        0.231      333.640        3.088      867.532
01/24/2022  10:41:00       83.050     -162.693      -45.239       48.809       40.878       25.717     2382.278     1670.989      661.356        2.006        0.236      182.665       26.193        0.021      333.415        2.714      867.528
01/24/2022  10:42:00      106.345     -160.625      -50.759       29.878       30.008       19.678      892.701      900.505      387.214        2.093        0.109      192.639       12.192        0.004      333.243        2.431      867.521
01/24/2022  10:43:00       18.091      -35.389      -19.783       43.134       61.023       33.393     1860.536     3723.810     1115.106        0.433        0.335       39.744       33.509        0.711      333.718        3.217      867.516
01/24/2022  10:44:00       63.892      -29.105      -17.436       39.719       55.301       26.816     1577.564     3058.191      719.100        0.529        0.268       70.209       24.319        0.120      333.683        3.161      867.512
01/24/2022  10:45:00       44.509      -47.168      -17.409       38.899       42.334       25.324     1513.102     1792.170      641.319        0.423        0.197       64.853       20.356        0.099      333.883        3.489      867.509
01/24/2022  10:46:00        7.315      -23.777       -4.586       37.019       31.697       18.022     1370.409     1004.691      324.789        0.167        0.135       24.877       12.741        0.262      333.980        3.651      867.514
01/24/2022  10:47:00       -3.073      -52.886      -17.858       26.963       39.996       30.096      727.005     1599.680      905.778        0.318        0.162       52.975       21.077        0.158      333.932        3.571      867.510
01/24/2022  10:48:00       22.763      -37.101      -15.330       44.219       58.574       38.675     1955.363     3430.942     1495.723        0.450        0.344       43.527       24.365        0.313      333.961        3.621      867.499
01/24/2022  10:49:00       71.746      -52.657      -26.889       46.474       44.254       44.007     2159.840     1958.454     1936.634        0.735        0.303       88.995       31.140        0.122      333.815        3.378      867.478
01/24/2022  10:50:00       19.001      -79.060      -37.135       79.341       52.726       26.109     6295.013     2780.029      681.695        0.887        0.488       81.312       19.530        0.058      333.775        3.312      867.442
01/24/2022  10:51:00      -62.715      -14.221      -13.717       48.929       41.783       28.828     2394.073     1745.818      831.070        0.465        0.249       64.307       18.289        0.081      333.874        3.477      867.434
01/24/2022  10:52:00      -10.135      -14.935       -4.421       28.389       44.555       30.562      805.908     1985.127      934.038        0.203        0.186       18.049       24.771        1.884      334.213        4.037      867.410
01/24/2022  10:53:00      -48.375        5.106       10.509       43.974       26.223       26.814     1933.681      687.640      719.014        0.291        0.167       48.644       23.135        0.226      333.804        3.360      867.410
01/24/2022  10:54:00      -76.048      -18.790      -10.594       39.663       45.895       29.265     1573.118     2106.354      856.415        0.539        0.227       78.335       24.015        0.094      333.996        3.677      867.432
01/24/2022  10:55:00      -13.996       12.394      -16.465       42.115       30.232       25.749     1773.656      913.947      663.000        0.198        0.168       18.695       15.723        0.707      334.041        3.752      867.482
01/24/2022  10:56:00      -30.097      -14.184       -8.829       37.433       33.860       27.622     1401.227     1146.492      763.001        0.225        0.166       33.272       26.471        0.633      334.006        3.695      867.489
01/24/2022  10:57:00      -17.324      -53.678      -30.387       39.655       52.133       35.451     1572.482     2717.805     1256.741        0.482        0.277       56.404       31.617        0.314      333.973        3.641      867.498
01/24/2022  10:58:00       41.296      -54.934      -15.182       54.367       67.293       34.644     2955.759     4528.328     1200.221        0.682        0.434       68.725       32.395        0.222      333.973        3.641      867.491
01/24/2022  10:59:00       30.733      -88.035      -17.124       33.873       32.291       27.863     1147.395     1042.683      776.355        0.598        0.148       93.245       24.234        0.068      334.246        4.092      867.473
01/24/2022  11:00:00        9.296     -100.028      -29.475       88.577       67.960       60.711     7845.838     4618.609     3685.827        1.355        0.808      100.459       39.724        0.156      334.150        3.931      867.445
01/24/2022  11:01:00       96.701     -184.314      -32.027       62.288       57.744       39.616     3879.846     3334.378     1569.398        2.656        0.439      208.141       33.467        0.026      333.806        3.358      867.432
01/24/2022  11:02:00       30.407      -80.342      -18.793       52.364       73.951       47.370     2742.019     5468.764     2243.937        0.909        0.523       85.904       33.273        0.150      334.026        3.726      867.401
01/24/2022  11:03:00      -30.206      -29.744       -5.425      103.318       42.742       31.613    10674.602     1826.864      999.352        0.766        0.675       42.392       23.086        0.297      334.261        4.117      867.374
01/24/2022  11:04:00       16.754      -36.758      -27.829       40.453       43.102       36.560     1636.482     1857.824     1336.612        0.362        0.242       40.396       21.310        0.278      334.228        4.063      867.338
01/24/2022  11:05:00       -0.054       44.528      -24.116       21.206       35.364       15.969      449.698     1250.602      255.011        0.226        0.098       44.528       15.835        0.126      333.859        3.452      867.312
01/24/2022  11:06:00       -9.820       22.518      -15.106       10.796       13.731        9.958      116.561      188.543       99.156        0.062        0.020       24.566        5.522        0.051      333.914        3.543      867.276
01/24/2022  11:07:00      -37.447      -19.968       -9.853       26.318       25.416       20.002      692.656      645.967      400.078        0.182        0.087       42.438        8.105        0.036      334.323        4.220      867.256
01/24/2022  11:08:00      -23.318      -66.981      -35.864       36.964       52.548       28.290     1366.353     2761.248      800.301        0.562        0.246       70.924       24.311        0.117      334.198        4.012      867.238
01/24/2022  11:09:00       63.188     -108.053      -36.166       65.326       65.599       39.387     4267.482     4303.198     1551.298        1.355        0.506      125.172       36.247        0.084      334.157        3.942      867.224
01/24/2022  11:10:00       79.099      -48.932      -36.618       35.675       50.472       29.004     1272.727     2547.391      841.224        0.733        0.233       93.011       16.893        0.033      334.127        3.893      867.198
01/24/2022  11:11:00       77.528      -71.327      -28.596       34.328       60.642       29.737     1178.410     3677.438      884.271        0.883        0.287      105.347       28.032        0.071      334.112        3.871      867.180
01/24/2022  11:12:00      105.216      -52.517      -32.741       34.871       42.503       23.802     1215.959     1806.476      566.518        0.924        0.179      117.594       12.926        0.012      334.000        3.683      867.155
01/24/2022  11:13:00       56.242      -78.817      -24.442       50.742       52.272       25.040     2574.713     2732.346      627.006        0.795        0.297       96.826       18.313        0.036      334.121        3.885      867.135
01/24/2022  11:14:00       63.139     -123.086      -27.564       45.948       59.549       33.633     2111.243     3546.131     1131.147        1.334        0.339      138.335       33.340        0.058      334.340        4.247      867.119
01/24/2022  11:15:00       37.366      -57.412      -18.704       50.120       61.236       43.176     2511.982     3749.854     1864.138        0.658        0.406       68.501       43.929        0.411      334.328        4.227      867.105
01/24/2022  11:16:00       71.317       -3.879      -14.987       71.190       60.447       46.419     5067.982     3653.862     2154.698        0.810        0.544       71.423       42.419        0.353      334.623        4.717      867.080
01/24/2022  11:17:00      140.593        1.749      -33.947       70.642       28.896       25.409     4990.361      834.951      645.637        1.370        0.324      140.604       27.299        0.038      334.009        3.698      867.066
01/24/2022  11:18:00       44.008       -4.478      -12.390       50.951       57.428       42.707     2595.974     3297.965     1823.903        0.491        0.386       44.235       23.571        0.284      334.652        4.765      867.038
01/24/2022  11:19:00       29.972        8.153      -12.657       49.264       70.074       45.270     2426.962     4910.335     2049.381        0.525        0.469       31.061       22.070        0.505      334.896        5.171      867.015
01/24/2022  11:20:00        9.596        3.281        2.255       55.461       72.428       49.084     3075.915     5245.819     2409.285        0.542        0.537       10.141       24.348        5.765      334.962        5.280      866.987
01/24/2022  11:21:00       10.136      -20.536      -17.695       60.993       69.340       36.752     3720.094     4808.101     1350.720        0.536        0.494       22.901       35.849        2.450      334.889        5.158      866.967
01/24/2022  11:22:00      -43.101       -3.539       -8.822       28.217       28.108       20.171      796.213      790.042      406.884        0.197        0.100       43.246       15.011        0.120      334.670        4.794      866.952
01/24/2022  11:23:00       -2.280        6.961      -20.575       38.587       36.751       27.366     1488.986     1350.626      748.887        0.203        0.179        7.325       13.055        3.177      334.757        4.940      866.917
01/24/2022  11:24:00      -13.522      -40.535       -9.396       59.328       54.277       30.866     3519.850     2945.993      952.721        0.467        0.371       42.731       27.069        0.401      334.643        4.750      866.895
01/24/2022  11:25:00       60.365     -102.888      -37.892       63.547       72.030       47.703     4038.212     5188.353     2275.560        1.358        0.575      119.289       38.975        0.107      334.558        4.608      866.876
01/24/2022  11:26:00       63.697      -49.259      -45.655       51.638       55.516       34.113     2666.505     3082.068     1163.698        0.774        0.346       80.522       28.236        0.123      334.620        4.713      866.865
01/24/2022  11:27:00       99.103     -160.612      -48.678       31.786       29.885       24.847     1010.328      893.131      617.384        2.025        0.126      188.726       15.182        0.006      334.205        4.022      866.852
01/24/2022  11:28:00       63.441      -42.830       -8.768       33.772       46.937       28.455     1140.539     2203.128      809.688        0.504        0.208       76.545       25.547        0.111      334.362        4.284      866.818
01/24/2022  11:29:00       19.402      -24.582       -6.199       34.559       59.794       28.572     1194.318     3575.327      816.385        0.330        0.279       31.316       27.818        0.789      334.755        4.938      866.786
01/24/2022  11:30:00       38.789      -42.949      -20.359       38.243       58.796       25.679     1462.557     3456.962      659.397        0.467        0.279       57.872       18.907        0.107      334.742        4.916      866.750
01/24/2022  11:31:00        0.613       -1.178      -14.570       34.469       35.900       21.787     1188.144     1288.825      474.684        0.158        0.148        1.328       11.294       72.343      335.108        5.523      866.733
01/24/2022  11:32:00      -14.801      -47.747      -13.329       76.163       57.505       30.282     5800.783     3306.865      917.023        0.635        0.501       49.989       25.182        0.254      334.933        5.233      866.694
01/24/2022  11:33:00       45.212      -51.629      -25.226       60.795       68.996       38.884     3696.054     4760.506     1511.950        0.766        0.498       68.627       30.005        0.191      334.891        5.162      866.677
01/24/2022  11:34:00      -57.900      -52.860       -9.792       54.168       46.120       33.654     2934.143     2127.018     1132.560        0.622        0.310       78.401       13.764        0.031      334.908        5.191      866.650
01/24/2022  11:35:00      -39.360       -2.300        3.094       42.723       38.511       25.705     1825.218     1483.087      660.724        0.277        0.198       39.427        9.115        0.053      335.048        5.423      866.630
01/24/2022  11:36:00       54.133       -2.656      -17.899       39.212       52.353       33.686     1537.547     2740.886     1134.725        0.433        0.271       54.198        9.445        0.030      335.094        5.501      866.607
01/24/2022  11:37:00       88.501       -6.035      -20.799       59.949       71.921       49.761     3593.937     5172.702     2476.196        0.977        0.562       88.706       38.791        0.191      335.218        5.707      866.578
01/24/2022  11:38:00       78.011      -29.511      -34.768       53.551       55.042       42.420     2867.659     3029.642     1799.455        0.793        0.385       83.407       32.091        0.148      334.963        5.283      866.558
01/24/2022  11:39:00      132.252      -21.744      -20.284       57.268       72.000       39.569     3279.656     5183.941     1565.683        1.420        0.501      134.028       15.264        0.013      334.755        4.935      866.544
01/24/2022  11:40:00      106.198      -76.790      -31.112       49.447       60.412       35.478     2445.054     3649.552     1258.703        1.275        0.368      131.052       36.849        0.079      334.609        4.693      866.525
01/24/2022  11:41:00       71.940     -107.250      -32.745       30.053       41.166       27.131      903.185     1694.621      736.105        1.054        0.167      129.143        9.930        0.006      334.642        4.749      866.508
01/24/2022  11:42:00       67.246     -124.280      -32.518       40.226       39.006       25.941     1618.124     1521.489      672.941        1.242        0.191      141.307       19.042        0.018      334.745        4.920      866.475
01/24/2022  11:43:00       86.813     -170.406      -39.679       53.304       51.791       37.492     2841.364     2682.259     1405.641        2.254        0.346      191.246       29.939        0.025      334.648        4.758      866.452
01/24/2022  11:44:00       59.056     -127.236      -43.776       19.851       40.869       17.601      394.057     1670.305      309.780        1.198        0.119      140.274        7.574        0.003      334.483        4.486      866.442
01/24/2022  11:45:00       18.679      -52.796      -35.543       74.932       53.168       25.848     5614.867     2826.787      668.104        0.675        0.455       56.003       23.203        0.172      334.836        5.071      866.430
01/24/2022  11:46:00      -18.844       28.585      -12.141       29.530       33.308       23.942      872.013     1109.454      573.205        0.194        0.128       34.238       16.851        0.242      335.033        5.398      866.431
01/24/2022  11:47:00      -39.214       25.772      -14.872       20.114       22.702       16.049      404.582      515.362      257.576        0.180        0.059       46.925       10.616        0.051      334.892        5.166      866.427
01/24/2022  11:48:00      -49.857      -39.221      -15.327       33.229       40.243       32.534     1104.150     1619.460     1058.492        0.402        0.189       63.435       12.150        0.037      335.278        5.805      866.418
01/24/2022  11:49:00      -69.410        2.837      -17.388       26.477       60.298       20.603      701.051     3635.828      424.495        0.494        0.238       69.468        9.146        0.017      334.920        5.211      866.407
01/24/2022  11:50:00       23.703       27.875       -4.508       72.954       45.187       30.734     5322.265     2041.901      944.581        0.483        0.415       36.591       15.424        0.178      335.046        5.420      866.396
01/24/2022  11:51:00       97.771       66.102      -15.965       46.612       31.087       29.884     2172.679      966.424      893.078        0.911        0.202      118.020       16.819        0.020      335.016        5.369      866.369
01/24/2022  11:52:00      130.590       49.313      -18.588       49.621       36.860       27.354     2462.282     1358.665      748.255        1.220        0.228      139.591       17.094        0.015      334.757        4.941      866.350
01/24/2022  11:53:00       25.930       34.459       16.435       84.853       74.869       38.716     7199.987     5605.340     1498.915        0.821        0.715       43.126       35.898        0.693      335.295        5.834      866.315
01/24/2022  11:54:00        7.068       20.620       -4.427       35.660       30.612       27.658     1271.622      937.068      764.950        0.173        0.149       21.797       12.663        0.338      335.288        5.823      866.287
01/24/2022  11:55:00      -34.909      -29.322       -4.415       28.715       39.053       25.033      824.549     1525.131      626.634        0.254        0.149       45.590       13.468        0.087      335.385        5.983      866.236
01/24/2022  11:56:00      -67.245      -23.246       -4.797       33.674       45.184       35.802     1133.963     2041.577     1281.783        0.477        0.223       71.150       25.543        0.129      335.369        5.957      866.184
01/24/2022  11:57:00        5.272      -32.209       -0.781       54.007       53.897       39.959     2916.792     2904.877     1596.711        0.424        0.371       32.638       24.511        0.564      335.467        6.120      866.155
01/24/2022  11:58:00       46.570       32.795        2.221       36.741       38.191       32.868     1349.926     1458.551     1080.288        0.357        0.194       56.959       20.459        0.129      335.547        6.254      866.131
01/24/2022  11:59:00      105.004       63.944      -16.273       26.285       27.916       21.554      690.883      779.277      464.554        0.866        0.097      122.941       16.018        0.017      335.078        5.474      866.117
01/24/2022  12:00:00       21.166        9.003       -5.597       53.213       74.778       32.433     2831.600     5591.723     1051.870        0.502        0.474       23.001       41.939        3.325      335.514        6.197      866.090
01/24/2022  12:01:00      -42.442      -48.407      -23.991       40.238       35.639       24.845     1619.080     1270.120      617.266        0.411        0.175       64.378       21.929        0.116      335.597        6.336      866.078
01/24/2022  12:02:00      -29.451        4.386      -11.312       31.333       34.313       21.915      981.761     1177.411      480.271        0.183        0.132       29.776        8.481        0.081      335.687        6.487      866.065
01/24/2022  12:03:00       -4.489        0.104        6.132       48.287       37.893       23.038     2331.658     1435.901      530.759        0.218        0.215        4.490       15.750       12.302      335.731        6.561      866.058
01/24/2022  12:04:00       20.626       21.163       -8.893       31.767       26.132       22.801     1009.161      682.864      519.885        0.158        0.111       29.551       15.074        0.260      335.687        6.486      866.057
01/24/2022  12:05:00        9.670       44.854        1.200       23.222       25.704       18.885      539.252      660.684      356.644        0.183        0.078       45.884        6.826        0.022      335.880        6.807      866.056
01/24/2022  12:06:00       34.190      -88.977      -27.248       55.732       61.502       28.819     3106.101     3782.444      830.534        0.877        0.386       95.319       34.826        0.133      335.693        6.496      866.047
01/24/2022  12:07:00        0.409      -52.232      -14.017       65.702       57.144       44.861     4316.708     3265.405     2012.505        0.626        0.480       52.234       36.699        0.494      335.623        6.379      866.016
01/24/2022  12:08:00       -7.591      -56.587       -9.340       33.900       72.620       24.287     1149.206     5273.658      589.840        0.518        0.351       57.094       33.031        0.335      335.612        6.362      865.989
01/24/2022  12:09:00       11.971       23.693       -9.469       62.277       36.877       29.208     3878.440     1359.899      853.100        0.344        0.305       26.545       18.363        0.479      335.825        6.717      865.958
01/24/2022  12:10:00       80.673       -4.735      -29.225       60.081       83.868       44.592     3609.690     7033.899     1988.433        1.001        0.632       80.812       42.435        0.276      335.597        6.337      865.935
01/24/2022  12:11:00       73.928       60.639      -10.678       42.282       50.127       26.975     1787.808     2512.715      727.650        0.714        0.251       95.616       21.588        0.051      335.496        6.168      865.915
01/24/2022  12:12:00       46.095      -40.368      -47.178       50.028       63.304       29.101     2502.754     4007.443      846.848        0.667        0.368       61.273       29.052        0.225      335.924        6.883      865.912
01/24/2022  12:13:00       57.732     -114.198      -34.432       37.504       39.404       25.599     1406.521     1552.670      655.331        1.059        0.181      127.962       16.515        0.017      335.359        5.941      865.901
01/24/2022  12:14:00       62.227      -46.141      -32.233       38.341       78.185       32.322     1470.039     6112.892     1044.736        0.783        0.431       77.467       25.769        0.111      335.369        5.958      865.889
01/24/2022  12:15:00       40.537     -139.339      -31.373       56.465       62.767       38.721     3188.274     3939.655     1499.302        1.533        0.431      145.116       29.226        0.041      335.574        6.297      865.876
01/24/2022  12:16:00        1.378     -113.434      -18.243       41.252       52.068       30.165     1701.705     2711.070      909.952        0.926        0.266      113.443       24.131        0.045      335.271        5.794      865.863
01/24/2022  12:17:00       45.648      -64.619      -18.384       48.084       49.880       30.719     2312.078     2488.051      943.674        0.617        0.287       79.116       25.517        0.104      335.878        6.805      865.860
01/24/2022  12:18:00      101.899     -236.735      -44.068       44.868       44.885       23.779     2013.098     2014.686      565.437        3.648        0.230      257.735       23.516        0.008      335.129        5.553      865.846
01/24/2022  12:19:00      144.576     -229.452      -61.051       24.282       39.461       14.595      589.593     1557.134      213.001        3.982        0.118      271.201        7.212        0.001      335.027        5.383      865.834
01/24/2022  12:20:00       83.165     -165.561      -33.132       46.361       53.265       31.733     2149.326     2837.163     1007.010        2.071        0.300      185.275       29.571        0.025      335.340        5.907      865.843
01/24/2022  12:21:00       94.325     -142.136      -48.310       40.586       60.195       26.406     1647.196     3623.445      697.299        1.870        0.298      170.587       19.806        0.013      335.387        5.985      865.855
01/24/2022  12:22:00       24.963      -29.896      -26.693       26.235       35.945       17.094      688.288     1292.028      292.208        0.225        0.114       38.947       15.786        0.164      335.351        5.927      865.873
01/24/2022  12:23:00        2.955      -61.361      -25.969       30.318       41.471       27.091      919.199     1719.806      733.918        0.391        0.169       61.432       25.485        0.172      335.859        6.773      865.864
01/24/2022  12:24:00      -33.876      -65.086      -33.599       51.891       40.376       31.176     2692.649     1630.253      971.956        0.590        0.265       73.374       17.659        0.058      336.083        7.146      865.862
01/24/2022  12:25:00       34.058      -42.484      -15.635       50.083       51.980       34.216     2508.354     2701.904     1170.726        0.479        0.319       54.450       29.539        0.294      335.835        6.734      865.853
01/24/2022  12:26:00        2.762      -13.055      -10.956       34.375       27.493       31.078     1181.652      755.872      965.823        0.160        0.145       13.344       14.661        1.207      336.148        7.256      865.823
01/24/2022  12:27:00       43.499       94.957       -5.001       32.644       35.741       25.586     1065.661     1277.454      654.666        0.697        0.150      104.446       15.619        0.022      335.843        6.747      865.807
01/24/2022  12:28:00       21.641       41.093      -11.380       18.653       31.588       20.707      347.918      997.811      428.777        0.203        0.089       46.443       10.218        0.048      335.789        6.657      865.800
01/24/2022  12:29:00      102.592       22.559      -11.005       54.349       52.075       21.084     2953.767     2711.842      444.538        0.863        0.306      105.043       14.675        0.020      335.728        6.555      865.784
01/24/2022  12:30:00       74.083       48.466      -17.488       39.935       30.769       29.503     1594.770      946.736      870.400        0.578        0.171       88.528       21.090        0.057      335.640        6.409      865.770
01/24/2022  12:31:00       43.296      -25.231      -29.703       27.649       94.175       26.046      764.488     8869.021      678.405        0.685        0.516       50.111       27.344        0.298      335.612        6.361      865.738
01/24/2022  12:32:00       37.304      -73.092      -17.342       41.403       55.216       39.435     1714.233     3048.768     1555.131        0.668        0.316       82.061       35.002        0.182      335.863        6.781      865.719
01/24/2022  12:33:00       34.951      -80.753      -32.651       35.731       38.885       33.812     1276.685     1512.029     1143.252        0.637        0.197       87.992       27.075        0.095      335.779        6.640      865.703
01/24/2022  12:34:00        3.923      -52.018      -13.035       34.205       37.568       25.523     1170.002     1411.357      651.414        0.306        0.162       52.166       13.900        0.071      335.944        6.914      865.687
01/24/2022  12:35:00      -19.593       16.982      -11.040       27.138       23.386       19.489      736.454      546.886      379.810        0.123        0.083       25.928       13.304        0.263      336.171        7.293      865.669
01/24/2022  12:36:00       -6.097      -23.987       -0.536       24.639       30.845       21.158      607.093      951.396      447.645        0.131        0.100       24.749       16.324        0.435      336.417        7.705      865.652
01/24/2022  12:37:00      -21.645      -10.498      -12.425       21.956       20.689       24.424      482.056      428.031      596.523        0.112        0.075       24.056       10.931        0.206      336.037        7.071      865.627
01/24/2022  12:38:00      -35.047      -25.169      -12.983       30.337       24.189       18.752      920.315      585.088      351.648        0.194        0.093       43.148       12.291        0.081      336.116        7.203      865.605
01/24/2022  12:39:00       -2.822        2.060      -10.045       30.191       30.159       21.964      911.478      909.536      482.401        0.121        0.115        3.493       17.388       24.774      336.101        7.177      865.581
01/24/2022  12:40:00      -37.051       -2.050       -7.586       41.261       21.513       24.108     1702.454      462.828      581.213        0.209        0.137       37.107       24.557        0.438      336.135        7.234      865.567
01/24/2022  12:41:00      -41.599      -14.436      -17.463       28.626       22.072       16.584      819.426      487.176      275.042        0.191        0.079       44.033       10.696        0.059      335.874        6.798      865.547
01/24/2022  12:42:00       -8.297      -38.134       -6.602       25.170       24.146       18.695      633.529      583.025      349.512        0.157        0.078       39.026       14.153        0.132      336.039        7.075      865.526
01/24/2022  12:43:00       46.223     -104.416      -32.129       28.152       46.895       18.489      792.507     2199.141      341.858        0.870        0.167      114.190       17.608        0.024      335.929        6.890      865.487
01/24/2022  12:44:00        6.572      -82.455      -26.345       58.636       47.877       28.786     3438.196     2292.238      828.619        0.705        0.328       82.716       22.636        0.075      336.178        7.306      865.449
01/24/2022  12:45:00        4.983      -63.235      -22.164       74.161       58.907       28.772     5499.846     3470.014      827.808        0.715        0.490       63.431       11.720        0.034      336.048        7.087      865.416
01/24/2022  12:46:00      -22.809      -54.362      -15.255       80.590       50.646       31.777     6494.788     2564.971     1009.784        0.689        0.503       58.954       41.276        0.490      335.958        6.939      865.380
01/24/2022  12:47:00      -19.088      -17.715        2.491       17.554       19.879       16.160      308.143      395.183      261.132        0.082        0.048       26.042        9.746        0.140      336.381        7.644      865.360
01/24/2022  12:48:00       -3.904      -53.820      -17.275       48.303       49.136       26.001     2333.182     2414.381      676.028        0.432        0.271       53.962       14.463        0.072      336.318        7.539      865.343
01/24/2022  12:49:00        5.383      -88.594      -19.750       34.483       37.845       32.504     1189.059     1432.225     1056.518        0.597        0.184       88.758       13.627        0.024      336.288        7.490      865.327
01/24/2022  12:50:00       15.115      -93.619      -50.173       58.153       45.903       29.707     3381.810     2107.085      882.478        0.894        0.319       94.831       25.880        0.074      336.371        7.627      865.327
01/24/2022  12:51:00      -34.529      -52.149      -26.597       75.608       37.448       28.305     5716.550     1402.320      801.160        0.627        0.396       62.544       24.118        0.149      336.261        7.443      865.323
01/24/2022  12:52:00       34.095      -57.726      -17.305       69.587       42.231       27.822     4842.307     1783.498      774.045        0.610        0.370       67.043       13.719        0.042      336.150        7.258      865.331
01/24/2022  12:53:00       34.918     -121.252      -26.137       55.212       55.523       33.498     3048.402     3082.854     1122.085        1.193        0.363      126.180       28.403        0.051      335.908        6.854      865.331
01/24/2022  12:54:00       77.294     -145.197      -31.723       23.861       40.481       16.724      569.324     1638.690      279.677        1.527        0.124      164.489        7.196        0.002      335.815        6.700      865.316
01/24/2022  12:55:00      -17.747      -53.004      -40.765       57.612       44.896       34.066     3319.132     2015.656     1160.503        0.564        0.325       55.896       19.095        0.117      336.195        7.335      865.290
01/24/2022  12:56:00      -72.704      -23.879      -13.173       45.800       56.990       32.418     2097.659     3247.903     1050.932        0.621        0.320       76.525       20.532        0.072      336.198        7.338      865.265
01/24/2022  12:57:00      -38.678       10.770      -23.225       35.871       28.417       22.911     1286.716      807.498      524.920        0.238        0.131       40.150       17.610        0.192      336.115        7.199      865.234
01/24/2022  12:58:00      -37.654      -22.239      -24.628       45.313       29.988       32.480     2053.256      899.274     1054.979        0.326        0.200       43.731       12.912        0.087      336.264        7.448      865.204
01/24/2022  12:59:00      -20.259      -31.054      -28.364       37.277       31.279       33.921     1389.560      978.362     1150.646        0.285        0.176       37.078       26.395        0.507      336.386        7.653      865.191
01/24/2022  13:00:00       -6.377      -11.724      -10.835       24.800       25.563       22.218      615.018      653.482      493.660        0.103        0.088       13.346       11.099        0.692      336.608        8.025      865.180
01/24/2022  13:01:00      -25.563      -10.640       -1.256       31.852       30.798       26.111     1014.521      948.506      681.785        0.171        0.132       27.689       18.157        0.430      336.487        7.821      865.163
01/24/2022  13:02:00       16.855       -4.845      -25.300       63.869       35.654       21.688     4079.251     1271.226      470.387        0.338        0.291       17.538       21.641        1.523      336.218        7.373      865.150
01/24/2022  13:03:00      -14.985      -45.709       -7.059       36.572       22.514       23.705     1337.532      506.893      561.944        0.238        0.120       48.102       20.778        0.187      336.392        7.664      865.140
01/24/2022  13:04:00      -19.844      -38.948       -8.698       33.135       29.342       29.537     1097.938      860.943      872.458        0.241        0.142       43.712       20.167        0.213      336.505        7.850      865.119
01/24/2022  13:05:00       -5.050      -74.468      -21.704       22.308       27.264       23.530      497.630      743.331      553.658        0.392        0.090       74.639       12.810        0.029      336.241        7.411      865.110
01/24/2022  13:06:00      -31.146      -53.858      -32.022       52.541       37.722       27.733     2760.569     1422.935      769.100        0.492        0.248       62.216       19.464        0.098      336.283        7.481      865.098
01/24/2022  13:07:00       31.355     -100.071      -20.894       29.472       41.191       32.239      868.602     1696.716     1039.342        0.752        0.180      104.868       27.109        0.067      336.328        7.556      865.089
01/24/2022  13:08:00       26.390      -90.187      -19.399       44.147       60.037       32.414     1948.931     3604.403     1050.691        0.790        0.330       93.969       41.579        0.196      336.418        7.706      865.075
01/24/2022  13:09:00      -29.567       -6.319       -8.600       38.144       29.293       23.998     1454.931      858.088      575.926        0.194        0.144       30.235       13.931        0.212      336.566        7.954      865.059
01/24/2022  13:10:00      -47.771       -5.185       -3.238       25.892       24.608       18.276      670.377      605.568      334.023        0.196        0.080       48.052        8.504        0.031      336.715        8.204      865.048
01/24/2022  13:11:00      -29.884      -26.559      -11.135       28.929       42.597       30.916      836.888     1814.537      955.779        0.266        0.180       39.980       23.095        0.334      336.722        8.214      865.039
01/24/2022  13:12:00       23.647      -75.812      -13.504       41.197       55.308       34.521     1697.179     3058.955     1191.701        0.622        0.297       79.414       28.956        0.133      336.481        7.813      865.019
01/24/2022  13:13:00       58.957     -122.098      -27.212       26.275       34.230       30.700      690.394     1171.704      942.513        1.096        0.140      135.587       25.119        0.034      336.137        7.236      865.012
01/24/2022  13:14:00       50.196     -136.581      -38.712       20.828       18.542       18.310      433.825      343.798      335.251        1.189        0.056      145.513        7.944        0.003      336.048        7.089      864.982
01/24/2022  13:15:00      115.711     -110.626      -42.664       53.031       73.215       39.073     2812.320     5360.419     1526.721        1.857        0.485      160.084       30.179        0.036      336.307        7.521      864.969
01/24/2022  13:16:00        9.769        1.012       -0.944       31.568       34.340       23.593      996.528     1179.241      556.617        0.141        0.137        9.821       19.267        3.848      336.630        8.062      864.962
01/24/2022  13:17:00       -0.777        2.245       -6.624       17.578       15.554       16.419      308.989      241.922      269.578        0.043        0.041        2.376        9.314       15.369      336.850        8.430      864.955
01/24/2022  13:18:00       -3.279        3.933       -0.717       40.299       55.157       27.620     1624.029     3042.349      762.887        0.273        0.271        5.120       11.796        5.307      336.791        8.332      864.934
01/24/2022  13:19:00       35.523      -99.856      -34.878       48.777       54.061       29.592     2379.152     2922.540      875.671        0.931        0.309      105.986       19.658        0.034      336.492        7.830      864.921
01/24/2022  13:20:00      -20.669       11.483      -13.787       34.471       27.609       25.046     1188.284      762.265      627.307        0.166        0.129       23.645       23.257        0.967      336.739        8.241      864.921
01/24/2022  13:21:00      -28.031        2.095       -9.046       30.608       20.032       33.016      936.857      401.291     1090.054        0.165        0.121       28.109       18.392        0.428      336.880        8.478      864.913
01/24/2022  13:22:00      -10.313      -15.285      -23.628       23.271       30.644       26.342      541.548      939.068      693.882        0.154        0.109       18.438       15.355        0.693      336.937        8.574      864.898
01/24/2022  13:23:00       -7.350       12.343       -3.917       31.025       35.478       22.269      962.558     1258.691      495.926        0.147        0.136       14.366       17.431        1.472      336.877        8.473      864.879
01/24/2022  13:24:00       -9.013       25.191       -5.801       37.139       29.244       20.573     1379.314      855.204      423.259        0.170        0.133       26.755       16.012        0.358      336.988        8.660      864.861
01/24/2022  13:25:00      -17.870      -26.966      -24.786       58.506       46.092       29.818     3423.004     2124.485      889.122        0.405        0.322       32.350       25.744        0.633      336.907        8.524      864.842
01/24/2022  13:26:00      -44.582       -0.385      -16.398       35.302       41.089       22.033     1246.262     1688.310      485.458        0.284        0.171       44.583       16.080        0.130      336.816        8.371      864.826
01/24/2022  13:27:00       17.969       32.691        1.126       32.651       33.485       25.514     1066.090     1121.232      650.963        0.212        0.142       37.304       13.444        0.130      336.932        8.566      864.814
01/24/2022  13:28:00       83.400       33.566       -2.058       36.235       42.872       27.545     1312.945     1838.006      758.701        0.600        0.195       89.902       12.855        0.020      336.706        8.188      864.799
01/24/2022  13:29:00       95.520       42.347      -13.971       40.798       25.430       17.144     1664.448      646.680      293.925        0.686        0.130      104.487       12.679        0.015      336.370        7.626      864.780
01/24/2022  13:30:00       18.002       25.380       -7.902       44.990       31.046       24.631     2024.062      963.872      606.701        0.231        0.180       31.116       21.807        0.491      336.809        8.361      864.749
01/24/2022  13:31:00       85.344      -12.345      -24.122       49.680       43.621       28.320     2468.133     1902.825      802.049        0.659        0.259       86.232       17.970        0.043      336.671        8.130      864.718
01/24/2022  13:32:00       75.266       50.457      -35.428       23.683       16.334       17.897      560.864      266.807      320.318        0.531        0.057       90.613        7.333        0.007      336.538        7.907      864.698
01/24/2022  13:33:00      -17.654        8.510      -17.590       28.629       20.016       20.835      819.606      400.642      434.100        0.117        0.083       19.598        7.949        0.165      337.051        8.766      864.685
01/24/2022  13:34:00       14.135      -53.024       -7.764       48.234       42.967       32.584     2326.558     1846.160     1061.690        0.415        0.262       54.875       10.601        0.037      337.023        8.719      864.682
01/24/2022  13:35:00       37.976      -69.412      -12.582       43.742       38.164       27.111     1913.390     1456.470      734.998        0.526        0.205       79.121       23.329        0.087      336.852        8.432      864.685
01/24/2022  13:36:00      -25.748      -47.311      -24.416       41.421       27.702       28.774     1715.673      767.383      827.929        0.340        0.166       53.863       17.878        0.110      337.179        8.980      864.692
01/24/2022  13:37:00      -55.954      -17.967       -6.756       79.111       41.811       30.789     6258.499     1748.194      947.936        0.623        0.448       58.768       39.306        0.447      337.242        9.085      864.689
01/24/2022  13:38:00      -86.641      -22.373      -10.958       74.496       51.426       36.459     5549.709     2644.590     1329.258        0.882        0.476       89.483       26.145        0.085      337.100        8.846      864.695
01/24/2022  13:39:00      -28.699       15.531      -18.690       37.133       27.202       18.936     1378.850      739.960      358.580        0.195        0.124       32.632       17.112        0.275      337.325        9.223      864.683
01/24/2022  13:40:00      -23.006      -22.409       -2.963       46.719       27.464       22.929     2182.631      754.259      525.728        0.225        0.173       32.116       12.116        0.142      337.324        9.220      864.678
01/24/2022  13:41:00      -87.148        2.436       -8.310       57.683       41.905       36.899     3327.380     1755.997     1361.500        0.706        0.322       87.182       25.952        0.089      337.114        8.870      864.661
01/24/2022  13:42:00      -57.970       21.195       -1.477       38.919       31.187       19.387     1514.656      972.611      375.875        0.334        0.143       61.723       10.553        0.029      337.117        8.877      864.647
01/24/2022  13:43:00      -17.717       17.466       -7.176       19.904       21.861       16.544      396.178      477.903      273.719        0.091        0.057       24.879        5.844        0.055      337.224        9.054      864.630
01/24/2022  13:44:00        7.127       46.312      -16.336       29.548       49.028       31.774      873.090     2403.762     1009.614        0.337        0.214       46.857       29.197        0.388      337.227        9.058      864.612
01/24/2022  13:45:00      -22.859      -26.604        1.330       24.875       44.259       34.194      618.745     1958.852     1169.206        0.249        0.187       35.076       18.870        0.289      337.446        9.425      864.592
01/24/2022  13:46:00      -35.899      -32.720      -32.584       36.476       32.644       26.347     1330.478     1065.663      694.176        0.326        0.155       48.573       16.570        0.116      337.465        9.458      864.576
01/24/2022  13:47:00      -43.715      -49.276      -19.007       56.551       37.032       25.213     3198.060     1371.397      635.677        0.495        0.260       65.872       12.126        0.034      337.232        9.067      864.574
01/24/2022  13:48:00      -27.188      -11.551      -10.340       33.262       54.305       18.488     1106.365     2949.031      341.795        0.269        0.220       29.540       22.392        0.575      337.069        8.795      864.577
01/24/2022  13:49:00       67.052      -53.654      -25.959       37.186       68.785       27.254     1382.781     4731.319      742.798        0.745        0.343       85.877       28.006        0.106      337.023        8.716      864.568
01/24/2022  13:50:00       42.721        1.869      -23.553       39.196       49.628       24.211     1536.365     2462.926      586.152        0.348        0.229       42.761       13.166        0.095      337.124        8.886      864.564
01/24/2022  13:51:00       17.402      -73.860      -28.022       54.657       48.015       39.431     2987.353     2305.487     1554.837        0.669        0.342       75.882       35.269        0.216      337.189        8.994      864.539
01/24/2022  13:52:00      -21.218       15.422       -9.500       46.373       33.931       23.302     2150.493     1151.298      543.005        0.231        0.192       26.231       16.826        0.411      337.662        9.788      864.515
01/24/2022  13:53:00      -39.823        3.752       -2.956       27.113       53.307       28.649      735.113     2841.606      820.760        0.300        0.220       39.999       13.980        0.122      337.559        9.615      864.486
01/24/2022  13:54:00        0.004      -55.619      -12.092       42.535       56.694       36.090     1809.254     3214.259     1302.508        0.478        0.316       55.619       25.380        0.208      337.544        9.590      864.452
01/24/2022  13:55:00       18.123      -62.177      -17.453       31.849       38.116       22.002     1014.356     1452.853      484.093        0.372        0.148       64.764       14.360        0.049      337.707        9.862      864.419
01/24/2022  13:56:00       10.376      -12.391      -22.287       22.446       48.664       24.062      503.844     2368.208      578.962        0.210        0.173       16.161       14.067        0.758      337.759        9.949      864.393
01/24/2022  13:57:00      -19.915       23.093      -22.362       28.195       21.537       17.832      794.943      463.849      317.992        0.150        0.079       30.494        9.974        0.107      337.564        9.623      864.371
01/24/2022  13:58:00       -8.878       -8.541      -19.244       27.523       26.309       19.060      757.513      692.150      363.291        0.117        0.091       12.320       17.746        2.075      337.837       10.081      864.357
01/24/2022  13:59:00       -8.574      -12.905        1.973       15.446       27.263       18.852      238.589      743.271      355.411        0.079        0.067       15.494        7.914        0.261      338.008       10.368      864.344
01/24/2022  14:00:00      -17.961      -14.539       -8.068       19.583       14.219       20.883      383.491      202.176      436.109        0.081        0.051       23.108       15.396        0.444      337.930       10.237      864.330
01/24/2022  14:01:00       -1.470      -76.844      -37.174       55.637       60.996       44.501     3095.449     3720.495     1980.322        0.804        0.440       76.858       36.592        0.227      337.808       10.033      864.301
01/24/2022  14:02:00      -44.832      -19.490      -23.454       33.658       44.082       32.058     1132.869     1943.253     1027.698        0.352        0.205       48.885       27.809        0.324      337.709        9.866      864.288
01/24/2022  14:03:00      -56.327      -55.551      -11.841       49.725       37.734       25.179     2472.597     1423.867      633.978        0.546        0.227       79.112       14.585        0.034      337.638        9.747      864.286
01/24/2022  14:04:00      -28.368      -74.008      -28.315       38.664       35.973       30.929     1494.913     1294.050      956.576        0.541        0.187       79.259       19.588        0.061      337.732        9.904      864.288
01/24/2022  14:05:00      -35.939      -37.879      -28.807       38.811       34.386       24.022     1506.281     1182.380      577.048        0.341        0.163       52.215       14.755        0.080      337.502        9.521      864.287
01/24/2022  14:06:00      -19.954        8.414       -5.203       17.070       20.213       18.692      291.393      408.570      349.398        0.077        0.052       21.656        4.787        0.049      337.596        9.678      864.295
01/24/2022  14:07:00      -23.247       13.032       -1.746       48.764       35.502       28.790     2377.934     1260.421      828.869        0.259        0.223       26.651       19.427        0.531      337.758        9.948      864.298
01/24/2022  14:08:00       -2.787      -10.689      -10.427       41.793       26.003       20.030     1746.675      676.179      401.194        0.153        0.141       11.046        7.523        0.464      337.836       10.080      864.297
01/24/2022  14:09:00        6.740      -20.108      -15.073       19.076       24.084       18.502      363.875      580.051      342.334        0.098        0.064       21.208        7.770        0.134      337.980       10.320      864.296
01/24/2022  14:10:00      -13.077      -43.513      -33.174       27.268       36.408       33.136      743.533     1325.552     1097.964        0.317        0.158       45.436       21.670        0.227      337.931       10.240      864.276
01/24/2022  14:11:00        0.319      -29.182      -38.572       41.093       31.592       23.771     1688.602      998.035      565.044        0.280        0.163       29.184       11.363        0.152      337.754        9.941      864.257
01/24/2022  14:12:00       -1.003       10.781      -14.520       29.946       22.246       18.551      896.786      494.900      344.149        0.103        0.087       10.827       12.133        1.256      337.652        9.771      864.243
01/24/2022  14:13:00       53.992      -86.329      -14.371       54.763       90.137       36.767     2999.034     8124.752     1351.842        1.152        0.624      101.823       44.583        0.192      337.535        9.571      864.225
01/24/2022  14:14:00      120.012     -130.351      -51.163       65.752       68.454       43.442     4323.378     4685.940     1887.189        2.245        0.545      177.184       42.122        0.057      337.205        9.020      864.201
01/24/2022  14:15:00       86.515     -132.989      -26.073       64.700       87.133       36.911     4186.131     7592.155     1362.428        1.949        0.657      158.653       35.580        0.050      337.295        9.171      864.196
01/24/2022  14:16:00       76.479     -217.276      -35.304       40.898       41.688       27.326     1672.650     1737.909      746.729        2.923        0.208      230.343       12.530        0.003      337.330        9.228      864.192
01/24/2022  14:17:00       70.068     -138.437      -44.577       43.994       68.089       34.233     1935.444     4636.148     1171.929        1.690        0.387      155.159       14.024        0.008      337.370        9.298      864.198
01/24/2022  14:18:00       18.521      -63.155      -27.444       60.324       52.331       43.372     3638.994     2738.543     1881.158        0.667        0.413       65.815       34.708        0.278      337.634        9.740      864.202
01/24/2022  14:19:00       18.646      -78.993      -29.790       60.791       66.426       35.171     3695.553     4412.474     1237.000        0.841        0.467       81.164       31.877        0.154      337.657        9.778      864.196
01/24/2022  14:20:00       21.011      -54.674      -13.312       51.548       58.157       30.518     2657.155     3382.185      931.350        0.529        0.349       58.572       30.115        0.264      337.678        9.813      864.203
01/24/2022  14:21:00       77.105     -129.283      -33.363       44.114       64.682       29.212     1946.015     4183.778      853.342        1.538        0.349      150.530       23.999        0.025      337.487        9.493      864.202
01/24/2022  14:22:00       56.695      -88.936      -29.510       42.996       41.872       25.114     1848.697     1753.254      630.719        0.811        0.212      105.471       11.632        0.012      337.527        9.561      864.211
01/24/2022  14:23:00       12.408      -16.309       -7.845       31.991       50.103       21.283     1023.447     2510.334      452.959        0.223        0.199       20.492       14.160        0.477      337.769        9.967      864.204
01/24/2022  14:24:00       47.004      -70.769      -17.413       42.138       65.642       22.830     1775.572     4308.858      521.188        0.706        0.330       84.956       27.596        0.106      337.835       10.077      864.199
01/24/2022  14:25:00       96.038     -141.484      -34.516       46.386       57.593       35.500     2151.660     3316.918     1260.218        1.858        0.336      171.000       29.820        0.030      337.669        9.798      864.174
01/24/2022  14:26:00       65.682     -180.757      -27.663       51.221       64.195       34.107     2623.568     4120.949     1163.313        2.283        0.395      192.321       33.436        0.030      337.520        9.548      864.167
01/24/2022  14:27:00      127.574     -162.760      -41.795       54.971       63.475       39.208     3021.799     4029.070     1537.248        2.655        0.429      206.799       37.145        0.032      337.345        9.255      864.151
01/24/2022  14:28:00      100.078     -140.707      -37.756       33.319       37.365       22.388     1110.150     1396.170      501.203        1.712        0.150      172.668       16.386        0.009      337.372        9.300      864.140
01/24/2022  14:29:00       87.070      -98.376      -38.695       49.685       54.057       32.807     2468.578     2922.122     1076.316        1.261        0.323      131.374       28.218        0.046      337.391        9.334      864.122
01/24/2022  14:30:00       42.628     -101.596      -27.655       47.113       53.509       36.894     2219.590     2863.165     1361.144        0.967        0.322      110.177       21.838        0.039      337.756        9.944      864.106
01/24/2022  14:31:00       53.204      -37.901      -29.610       18.017       55.560       22.012      324.604     3086.916      484.526        0.452        0.195       65.323       26.937        0.170      337.360        9.284      864.095
01/24/2022  14:32:00       64.706     -116.679      -38.131       50.154       44.703       35.799     2515.452     1998.371     1281.589        1.252        0.290      133.419       28.892        0.047      337.490        9.499      864.069
01/24/2022  14:33:00       50.261     -146.034      -25.264       51.498       42.379       25.815     2652.058     1795.942      666.413        1.480        0.256      154.441       23.402        0.023      337.578        9.647      864.042
01/24/2022  14:34:00       88.162     -157.147      -42.577       33.641       66.551       28.269     1131.707     4428.985      799.158        2.032        0.318      180.188       15.153        0.007      337.450        9.430      864.021
01/24/2022  14:35:00       64.562     -151.988      -28.232       46.584       55.518       30.165     2170.047     3082.223      909.954        1.711        0.308      165.132       24.056        0.021      337.600        9.683      864.007
01/24/2022  14:36:00       -1.022      -17.745       -8.000       17.607       22.649       25.313      310.007      512.987      640.752        0.092        0.073       17.774       18.595        1.095      337.848       10.099      864.002
01/24/2022  14:37:00       12.102      -39.626      -16.485       17.986       20.387       18.428      323.507      415.614      339.575        0.153        0.054       41.433        5.318        0.016      337.736        9.910      863.993
01/24/2022  14:38:00        4.375      -17.424       -9.534       15.799       18.864       15.402      249.597      355.842      237.225        0.063        0.042       17.965       14.067        0.613      337.955       10.278      863.981
01/24/2022  14:39:00       25.052      -62.468      -16.041       38.941       53.245       32.653     1516.376     2834.979     1066.248        0.510        0.271       67.304       29.772        0.196      337.926       10.231      863.969
01/24/2022  14:40:00       29.588      -23.285      -18.263       33.199       50.768       30.513     1102.159     2577.407      931.070        0.318        0.231       37.651       25.536        0.460      337.894       10.177      863.951
01/24/2022  14:41:00       19.203      -28.414      -32.433       27.902       51.133       20.540      778.549     2614.620      421.886        0.302        0.191       34.294       21.172        0.381      337.577        9.645      863.964
01/24/2022  14:42:00       31.548       29.045       -8.198       30.304       25.645       17.683      918.306      657.655      312.676        0.190        0.094       42.882       16.256        0.144      337.813       10.041      863.969
01/24/2022  14:43:00       42.272        2.352      -10.030       47.555       35.764       21.546     2261.447     1279.074      464.244        0.295        0.200       42.337        8.969        0.045      337.846       10.095      863.987
01/24/2022  14:44:00        1.229       -7.329       -8.568       36.694       42.951       30.862     1346.449     1844.779      952.444        0.214        0.207        7.432       21.536        8.398      338.116       10.549      864.002
01/24/2022  14:45:00       37.775      -10.567      -22.536       50.712       54.345       37.332     2571.659     2953.380     1393.674        0.448        0.346       39.225       22.973        0.343      337.935       10.245      864.017
01/24/2022  14:46:00       23.520      -38.168      -31.309       36.362       46.252       30.708     1322.201     2139.276      942.984        0.370        0.220       44.833       15.085        0.113      338.113       10.544      864.039
01/24/2022  14:47:00       -9.835      -43.195      -15.403       40.304       33.619       25.712     1624.408     1130.217      661.082        0.281        0.171       44.300       13.064        0.087      338.219       10.722      864.040
01/24/2022  14:48:00       36.420      -48.183      -27.858       35.212       35.942       22.007     1239.877     1291.853      484.317        0.372        0.151       60.399       10.116        0.028      337.718        9.880      864.037
01/24/2022  14:49:00       41.726      -31.382      -28.807       34.457       42.965       26.821     1187.288     1846.009      719.361        0.365        0.188       52.210       23.260        0.198      337.793       10.007      864.046
01/24/2022  14:50:00       31.430      -46.280      -11.961       38.658       47.859       27.733     1494.440     2290.489      769.118        0.391        0.228       55.943       26.567        0.226      337.772        9.971      864.038
01/24/2022  14:51:00       42.490      -53.624      -22.785       23.756       37.105       18.036      564.363     1376.773      325.288        0.373        0.113       68.417       19.266        0.079      337.669        9.799      864.023
01/24/2022  14:52:00       43.250      -29.848      -12.737       45.534       38.239       28.391     2073.361     1462.230      806.025        0.363        0.217       52.549       20.798        0.157      337.864       10.126      864.011
01/24/2022  14:53:00       73.909      -26.335      -13.363       60.305       45.232       46.223     3636.692     2045.947     2136.570        0.708        0.391       78.460       39.760        0.257      337.830       10.069      863.985
01/24/2022  14:54:00      124.058       24.986      -24.178       29.068       31.603       27.451      844.922      998.755      753.539        0.960        0.130      126.549       17.208        0.018      337.689        9.833      863.995
01/24/2022  14:55:00       77.477      -36.850      -21.232       21.537       45.498       19.521      463.855     2070.038      381.080        0.536        0.146       85.794       15.972        0.035      337.707        9.862      863.986
01/24/2022  14:56:00       29.867       -3.254      -19.001       19.441       17.848       18.823      377.945      318.550      354.308        0.116        0.053       30.044       12.310        0.168      337.749        9.933      863.972
01/24/2022  14:57:00       44.708      -22.751      -10.611       37.743       29.092       20.772     1424.558      846.342      431.495        0.267        0.135       50.164       18.649        0.138      337.888       10.167      863.958
01/24/2022  14:58:00       19.561       11.777      -10.344       29.934       42.839       28.284      896.054     1835.152      799.970        0.208        0.177       22.833       14.611        0.409      338.085       10.496      863.962
01/24/2022  14:59:00       64.188        7.233      -16.926       54.476       42.375       28.026     2967.661     1795.614      785.474        0.500        0.277       64.594       12.263        0.036      337.998       10.351      863.956
01/24/2022  15:00:00       24.578       -8.287      -19.605       24.203       30.426       21.883      585.788      925.743      478.849        0.152        0.100       25.937       12.858        0.246      337.997       10.351      863.950
01/24/2022  15:01:00       63.109       -3.354       -8.261       32.069       33.346       20.880     1028.435     1111.971      435.971        0.332        0.129       63.198       12.058        0.036      337.817       10.048      863.943
01/24/2022  15:02:00       33.618      -10.634       -8.698       59.646       38.737       19.855     3557.677     1500.525      394.239        0.338        0.273       35.260       21.352        0.367      337.999       10.353      863.943
01/24/2022  15:03:00      -21.546        3.459        4.306       33.667       22.833       19.895     1133.460      521.343      395.804        0.127        0.103       21.822       15.433        0.500      338.154       10.612      863.934
01/24/2022  15:04:00      -46.774      -25.681      -15.340       34.262       30.536       20.430     1173.867      932.462      417.385        0.280        0.126       53.360        8.984        0.028      338.111       10.540      863.934
01/24/2022  15:05:00       -8.141      -36.855      -21.588       19.528       22.309       20.421      381.352      497.682      417.005        0.159        0.065       37.743       13.247        0.123      338.183       10.661      863.937
01/24/2022  15:06:00      -24.785      -20.815      -20.250       31.602       27.698       21.262      998.704      767.198      452.069        0.184        0.111       32.366        9.951        0.095      338.051       10.440      863.934
01/24/2022  15:07:00       20.361        5.809      -13.916       56.411       32.376       19.836     3182.165     1048.221      393.455        0.263        0.231       21.173       16.074        0.576      337.877       10.149      863.932
01/24/2022  15:08:00       85.573       -7.839      -10.534       46.800       36.488       18.216     2190.219     1331.393      331.826        0.567        0.193       85.931        9.262        0.012      337.719        9.882      863.932
01/24/2022  15:09:00       79.914      -14.934      -16.294       49.415       32.649       27.229     2441.796     1065.961      741.443        0.556        0.212       81.297       22.074        0.074      337.775        9.977      863.928
01/24/2022  15:10:00       -8.142       -5.240      -11.536       35.197       21.256       16.672     1238.828      451.820      277.946        0.110        0.098        9.682       14.933        2.379      337.958       10.286      863.932
01/24/2022  15:11:00        9.635      -35.033      -18.004       41.878       47.098       24.341     1753.750     2218.190      592.467        0.310        0.228       36.334       17.916        0.243      338.054       10.445      863.924
01/24/2022  15:12:00       16.472        1.184       -4.881       28.230       20.008       23.303      796.951      400.320      543.016        0.102        0.087       16.514       20.448        1.533      338.302       10.861      863.911
01/24/2022  15:13:00        2.480      -12.197       -0.340       38.669       45.657       24.489     1495.260     2084.563      599.707        0.217        0.209       12.447       17.984        2.088      338.166       10.634      863.904
01/24/2022  15:14:00       43.602       -2.496       -2.165       45.083       40.094       32.676     2032.483     1607.490     1067.736        0.331        0.235       43.674       25.960        0.353      338.017       10.383      863.897
01/24/2022  15:15:00       70.053      -12.445      -11.639       51.347       37.641       31.636     2636.533     1416.864     1000.821        0.513        0.253       71.150       26.973        0.144      337.849       10.102      863.902
01/24/2022  15:16:00       54.451      -20.449      -14.575       37.890       35.152       17.567     1435.643     1235.653      308.602        0.329        0.149       58.164       13.885        0.057      337.863       10.123      863.904
01/24/2022  15:17:00       33.025       -6.549       -8.710       26.196       30.923       19.345      686.250      956.212      374.245        0.161        0.101       33.668       15.182        0.203      337.966       10.297      863.912
01/24/2022  15:18:00       42.983       -2.138      -13.110       23.969       27.152       18.958      574.524      737.222      359.422        0.185        0.084       43.036        7.413        0.030      337.842       10.089      863.899
01/24/2022  15:19:00       41.400       25.607      -19.315       15.153       14.902       14.646      229.625      222.080      214.515        0.170        0.033       48.680       10.979        0.051      337.716        9.877      863.893
01/24/2022  15:20:00       66.372       45.197      -13.420       27.226       21.821       16.189      741.236      476.176      262.081        0.405        0.074       80.299        9.948        0.015      337.748        9.930      863.894
01/24/2022  15:21:00       79.442       62.180      -16.257       30.913       24.126       17.950      955.594      582.049      322.212        0.615        0.093      100.883       10.865        0.012      337.830       10.069      863.893
01/24/2022  15:22:00       63.987       49.987       -8.040       29.180       20.380       16.142      851.473      415.326      260.561        0.409        0.076       81.198       15.203        0.035      337.770        9.968      863.885
01/24/2022  15:23:00       73.114       63.264      -12.756       30.679       21.624       19.610      941.171      467.596      384.536        0.565        0.090       96.685       10.874        0.013      337.821       10.054      863.891
01/24/2022  15:24:00       43.836       27.084      -21.230       20.197       22.785       16.541      407.901      519.145      273.592        0.215        0.060       51.528        4.722        0.008      337.794       10.009      863.877
01/24/2022  15:25:00       30.463      -17.801      -16.653       16.040       20.252       18.748      257.289      410.152      351.481        0.127        0.051       35.282       11.318        0.103      337.975       10.312      863.873
01/24/2022  15:26:00       32.130       10.123       -9.487       36.289       37.450       25.969     1316.877     1402.501      674.409        0.231        0.170       33.687       16.636        0.244      338.023       10.394      863.884
01/24/2022  15:27:00       16.317       -0.614       -2.126       39.632       44.229       39.749     1570.719     1956.227     1579.979        0.269        0.255       16.328       26.818        2.698      338.036       10.415      863.884
01/24/2022  15:28:00       43.249        6.636      -24.458       35.496       42.913       33.125     1259.981     1841.521     1097.286        0.335        0.210       43.755       22.518        0.265      337.954       10.278      863.886
01/24/2022  15:29:00       70.796       -4.811      -17.754       37.770       37.484       23.891     1426.551     1405.077      570.796        0.438        0.170       70.960       16.625        0.055      337.933       10.242      863.883
01/24/2022  15:30:00       33.237      -16.352      -19.310       28.366       23.230       18.598      804.628      539.617      345.885        0.172        0.085       37.041       14.891        0.162      338.011       10.375      863.882
01/24/2022  15:31:00       10.920       -0.625      -10.259       10.144       12.436        8.223      102.909      154.649       67.611        0.027        0.016       10.938        5.160        0.223      338.005       10.362      863.881
01/24/2022  15:32:00       93.738       12.942       -9.353       38.814       27.451       17.552     1506.494      753.571      308.076        0.580        0.128       94.627        8.249        0.008      337.946       10.263      863.878
01/24/2022  15:33:00       54.761        9.027      -11.867       46.901       22.313       20.428     2199.713      497.891      417.300        0.317        0.156       55.500       19.637        0.125      337.994       10.343      863.875
01/24/2022  15:34:00       89.889        0.768      -16.250       55.469       31.461       24.096     3076.760      989.796      580.612        0.650        0.232       89.893       24.345        0.073      337.948       10.267      863.861
01/24/2022  15:35:00       49.237       -6.672       -2.220       49.623       56.636       41.022     2462.430     3207.631     1682.802        0.491        0.368       49.687       33.615        0.458      338.081       10.490      863.848
01/24/2022  15:36:00       53.162      -43.428      -19.430       55.888       55.077       42.769     3123.496     3033.453     1829.196        0.654        0.399       68.645       41.098        0.358      338.099       10.522      863.847
01/24/2022  15:37:00       42.703     -108.711      -20.951       54.097       41.065       29.896     2926.486     1686.353      893.792        0.979        0.275      116.798       27.406        0.055      337.997       10.348      863.838
01/24/2022  15:38:00       57.914     -143.147      -31.760       18.568       33.829       17.039      344.783     1144.424      290.313        1.332        0.089      154.419       10.609        0.005      337.857       10.112      863.826
01/24/2022  15:39:00       44.197      -74.206      -22.980       30.428       52.551       26.268      925.862     2761.646      690.026        0.618        0.219       86.370       15.145        0.031      337.987       10.333      863.821
01/24/2022  15:40:00       44.465      -12.575      -17.858       46.837       30.627       35.231     2193.705      938.013     1241.234        0.341        0.219       46.209       23.905        0.268      338.043       10.426      863.820
01/24/2022  15:41:00       70.065      -21.863       -9.491       41.891       22.225       17.853     1754.855      493.933      318.734        0.402        0.128       73.397       17.152        0.055      337.885       10.162      863.821
01/24/2022  15:42:00       32.426      -30.588       -9.399       36.169       32.724       26.289     1308.173     1070.859      691.111        0.257        0.154       44.576       24.307        0.297      338.028       10.402      863.814
01/24/2022  15:43:00       56.562       12.386      -15.856       40.944       22.785       15.431     1676.408      519.142      238.114        0.302        0.122       57.902       13.291        0.053      337.937       10.249      863.804
01/24/2022  15:44:00       29.180       -1.604       -9.364       28.767       31.018       19.858      827.551      962.128      394.334        0.156        0.109       29.224       14.482        0.246      337.920       10.220      863.807
01/24/2022  15:45:00       32.148      -24.710      -36.048       21.923       54.914       22.285      480.626     3015.591      496.604        0.347        0.200       40.548       15.579        0.148      337.915       10.212      863.817
01/24/2022  15:46:00       17.756        3.281      -16.646       35.729       45.309       24.560     1276.588     2052.908      603.209        0.227        0.197       18.057       18.604        1.062      337.997       10.350      863.819
01/24/2022  15:47:00       35.473        0.795      -18.564       37.974       33.812       26.922     1442.004     1143.257      724.820        0.246        0.166       35.482       18.268        0.265      338.069       10.470      863.834
01/24/2022  15:48:00       45.973      -12.110      -11.598       32.860       38.074       29.534     1079.748     1449.634      872.240        0.290        0.170       47.541       21.282        0.200      338.105       10.531      863.863
01/24/2022  15:49:00       55.173      -15.313      -20.025       32.578       31.760       26.702     1061.301     1008.713      712.985        0.323        0.139       57.259       21.645        0.143      338.018       10.384      863.883
01/24/2022  15:50:00       45.805      -30.467      -10.652       50.021       26.692       23.568     2502.075      712.469      555.474        0.345        0.189       55.012       29.215        0.282      337.966       10.299      863.894
01/24/2022  15:51:00       62.085      -34.316      -13.794       24.950       23.535       13.591      622.489      553.889      184.703        0.329        0.068       70.937       13.604        0.037      337.870       10.136      863.895
01/24/2022  15:52:00       49.074      -28.603      -13.550       38.682       22.718       16.230     1496.316      516.105      263.420        0.284        0.114       56.801       10.003        0.031      338.002       10.359      863.883
01/24/2022  15:53:00       24.907      -22.867       -4.680       19.517       39.205       15.199      380.912     1537.032      231.008        0.166        0.107       33.812        9.917        0.086      338.064       10.462      863.871
01/24/2022  15:54:00       26.693       -9.567      -10.091       24.007       23.844       17.382      576.319      568.560      302.130        0.118        0.072       28.356       12.025        0.180      338.002       10.359      863.855
01/24/2022  15:55:00       71.194      -10.750      -13.056       27.009       17.301       13.371      729.481      299.327      178.792        0.328        0.060       72.001        8.355        0.013      337.870       10.135      863.844
01/24/2022  15:56:00       45.649       23.803       -3.656       20.283       13.244        8.689      411.388      175.392       75.491        0.166        0.033       51.482        7.008        0.019      337.856       10.116      863.843
01/24/2022  15:57:00       67.237      -13.233       -8.878       25.931       49.298       13.305      672.402     2430.287      177.010        0.403        0.164       68.527       16.402        0.057      337.925       10.229      863.846
01/24/2022  15:58:00       32.100      -45.535      -19.345       29.115       41.210       18.909      847.682     1698.277      357.547        0.319        0.145       55.713       17.066        0.094      338.066       10.468      863.836
01/24/2022  15:59:00        6.973      -21.393      -25.337       23.964       26.649       16.287      574.296      710.176      265.281        0.135        0.077       22.500       11.362        0.255      338.071       10.474      863.832
01/24/2022  16:00:00       -5.782      -19.483       -7.539       19.657       27.995       22.393      386.390      783.698      501.432        0.107        0.084       20.323       16.643        0.671      338.226       10.733      863.818
01/24/2022  16:01:00       -4.469      -21.302       -2.739       20.762       29.137       21.643      431.058      848.967      468.426        0.111        0.087       21.766       14.595        0.450      338.158       10.620      863.800
01/24/2022  16:02:00      -20.934      -15.417      -10.365       22.646       21.274       14.781      512.839      452.583      218.484        0.098        0.059       25.998       12.147        0.218      338.211       10.709      863.774
01/24/2022  16:03:00        6.915       -0.211       -6.665       17.073       17.508       13.855      291.498      306.540      191.952        0.044        0.039        6.919        6.063        0.768      338.207       10.701      863.765
01/24/2022  16:04:00       56.725      -52.062      -20.488       31.867       37.714       22.056     1015.482     1422.339      486.448        0.464        0.146       76.995       17.127        0.049      338.058       10.451      863.754
01/24/2022  16:05:00        4.810        5.950      -10.926       25.254       24.181       14.456      637.747      584.741      208.990        0.080        0.072        7.651       14.828        3.756      338.058       10.451      863.743
01/24/2022  16:06:00      -16.320      -11.743       -4.684       15.205       14.182       16.346      231.184      201.119      267.195        0.056        0.035       20.106       10.764        0.287      338.201       10.693      863.741
01/24/2022  16:07:00      -15.731      -19.547      -14.110       20.068       17.867       13.361      402.741      319.213      178.513        0.086        0.045       25.091        9.347        0.139      338.077       10.483      863.726
01/24/2022  16:08:00      -39.716      -20.552       -2.988       34.836       44.536       25.665     1213.541     1983.420      658.672        0.293        0.193       44.719       23.568        0.278      337.998       10.352      863.715
01/24/2022  16:09:00      -25.758      -24.014       -8.774       42.423       31.367       26.534     1799.742      983.918      704.031        0.240        0.174       35.215       22.652        0.414      338.098       10.518      863.720
01/24/2022  16:10:00      -32.045      -39.239      -17.969       39.215       30.676       24.246     1537.849      941.003      587.862        0.298        0.153       50.661       15.698        0.096      338.067       10.466      863.726
01/24/2022  16:11:00      -40.617      -30.393      -23.187       48.063       35.486       24.241     2310.047     1259.269      587.639        0.363        0.208       50.729       20.447        0.162      338.069       10.470      863.737
01/24/2022  16:12:00      -41.163      -19.717      -14.045       25.490       32.636       24.813      649.731     1065.097      615.706        0.231        0.117       45.641       17.925        0.154      338.204       10.696      863.730
01/24/2022  16:13:00      -27.819      -62.613      -36.024       36.956       41.451       25.812     1365.751     1718.173      666.257        0.487        0.188       68.515       24.169        0.124      338.058       10.452      863.735
01/24/2022  16:14:00       -7.668      -53.664      -16.297       55.510       54.699       26.805     3081.306     2991.984      718.525        0.500        0.340       54.210       10.104        0.035      338.036       10.415      863.736
01/24/2022  16:15:00      -19.354      -53.864      -20.222       54.955       49.254       27.477     3020.035     2425.991      755.011        0.494        0.310       57.236       26.940        0.222      338.068       10.469      863.742
01/24/2022  16:16:00       28.991      -45.838      -18.208       45.113       40.570       28.118     2035.198     1645.904      790.636        0.387        0.224       54.237       18.493        0.116      337.999       10.354      863.755
01/24/2022  16:17:00       16.515      -40.829      -22.429       47.373       38.695       27.683     2244.155     1497.277      766.364        0.347        0.225       44.043       26.718        0.368      338.072       10.476      863.759
01/24/2022  16:18:00       -9.993      -26.188      -14.591       27.102       40.632       14.012      734.528     1650.956      196.324        0.179        0.129       28.030       10.579        0.142      338.087       10.501      863.756
01/24/2022  16:19:00      -23.480       -5.638       -9.620       28.595       20.062       19.289      817.693      402.477      372.073        0.113        0.080       24.147       11.992        0.247      338.066       10.465      863.742
01/24/2022  16:20:00      -40.678      -20.965      -14.705       24.052       21.362       18.597      578.492      456.330      345.856        0.185        0.069       45.763        9.192        0.040      338.009       10.371      863.740
01/24/2022  16:21:00      -51.836      -17.717      -22.327       27.581       34.150       19.097      760.726     1166.200      364.713        0.290        0.115       54.780       12.041        0.048      338.033       10.409      863.730
01/24/2022  16:22:00       -6.301      -34.517       -9.162       19.339       22.752       16.413      374.010      517.646      269.392        0.124        0.058       35.087       10.471        0.089      338.032       10.408      863.725
01/24/2022  16:23:00       11.811      -33.215       -6.560       27.642       19.412       17.087      764.067      376.825      291.973        0.136        0.072       35.252        7.705        0.048      337.942       10.257      863.714
01/24/2022  16:24:00        3.474      -39.258      -15.016       34.502       28.371       30.703     1190.397      804.937      942.689        0.236        0.147       39.411       14.645        0.138      338.109       10.538      863.705
01/24/2022  16:25:00      -39.366      -37.814       -7.904       22.989       40.841       21.924      528.477     1667.951      480.662        0.286        0.134       54.585        9.770        0.032      338.051       10.441      863.693
01/24/2022  16:26:00      -14.777        5.430       -6.895       15.091       13.835       10.998      227.752      191.419      120.965        0.042        0.027       15.743        5.225        0.110      337.957       10.281      863.680
01/24/2022  16:27:00      -17.679        6.288       -1.902       12.397       17.454       13.828      153.677      304.651      191.204        0.050        0.032       18.764        8.269        0.194      337.956       10.280      863.654
01/24/2022  16:28:00       -8.162      -21.866      -15.799       21.840       24.139       12.130      476.991      582.697      147.139        0.100        0.060       23.340        7.491        0.103      337.955       10.280      863.643
01/24/2022  16:29:00      -13.168      -40.174      -28.992       41.458       48.070       20.821     1718.751     2310.746      433.527        0.354        0.223       42.277       24.919        0.347      337.987       10.331      863.629
01/24/2022  16:30:00      -28.642      -18.147       -8.525       21.472       18.681       15.692      461.030      348.982      246.230        0.114        0.053       33.907       10.152        0.090      338.006       10.364      863.632
01/24/2022  16:31:00       -1.732      -19.947      -17.021       24.862       17.047       11.610      618.127      290.615      134.781        0.087        0.052       20.022        7.913        0.156      337.966       10.298      863.638
01/24/2022  16:32:00      -12.434        0.763        3.021       22.185       14.321        9.104      492.181      205.098       82.880        0.047        0.039       12.458        8.291        0.443      337.955       10.278      863.642
01/24/2022  16:33:00      -26.999       -4.644       -3.935       14.434       16.039       11.634      208.342      257.264      135.340        0.068        0.030       27.395        8.594        0.098      337.961       10.291      863.644
01/24/2022  16:34:00       -7.437       -9.154       -0.034       13.874       20.728       13.354      192.478      429.640      178.332        0.047        0.040       11.795        9.920        0.707      337.868       10.132      863.659
01/24/2022  16:35:00       -5.382       -3.256       -3.073       16.565       20.816       13.725      274.399      433.304      188.386        0.047        0.045        6.290        8.749        1.934      337.928       10.234      863.656
01/24/2022  16:36:00       -2.751       -2.734       -4.299       11.228       10.829        7.988      126.064      117.262       63.811        0.017        0.015        3.878        4.659        1.443      337.935       10.246      863.656
01/24/2022  16:37:00       -7.385       39.636        1.220       12.594        9.449       17.678      158.618       89.279      312.502        0.109        0.028       40.318       10.542        0.068      337.862       10.123      863.658
01/24/2022  16:38:00        4.649        6.343       -0.516        9.364        9.712        6.344       87.687       94.317       40.251        0.014        0.011        7.864        4.459        0.322      337.856       10.114      863.650
01/24/2022  16:39:00       12.215      -15.058       -6.867        6.729        9.811        6.682       45.276       96.249       44.651        0.030        0.009       19.390        4.449        0.053      337.861       10.119      863.650
01/24/2022  16:40:00        2.523        7.554      -17.755        9.590        6.910        5.285       91.961       47.746       27.926        0.027        0.008        7.965        2.097        0.069      337.855       10.110      863.649
01/24/2022  16:41:00       -4.921       -3.386      -14.365       12.373        7.430        6.697      153.102       55.211       44.851        0.025        0.013        5.974        6.810        1.300      337.889       10.168      863.645
01/24/2022  16:42:00      -20.045       12.801       -5.052       13.213        9.831       10.337      174.579       96.653      106.856        0.048        0.019       23.783        5.259        0.049      337.979       10.319      863.631
01/24/2022  16:43:00       -5.435       16.405       -5.189       25.115       19.649        9.379      630.775      386.088       87.973        0.072        0.055       17.282        7.419        0.184      338.010       10.371      863.611
01/24/2022  16:44:00        0.049        1.829        1.372       10.539        8.573       10.674      111.071       73.488      113.941        0.015        0.015        1.830        7.051       14.852      337.873       10.141      863.595
01/24/2022  16:45:00      -46.504       21.129       -3.497       14.852       19.604       13.458      220.589      384.303      181.114        0.170        0.039       51.079        7.774        0.023      337.814       10.041      863.584
01/24/2022  16:46:00      -40.872       24.186       -2.540       20.114       12.163        9.810      404.573      147.928       96.235        0.146        0.032       47.492       11.068        0.054      337.830       10.069      863.575
01/24/2022  16:47:00      -18.564        4.822       -4.151       12.572       16.838        9.483      158.043      283.533       89.924        0.046        0.027       19.180        7.507        0.153      337.822       10.056      863.566
01/24/2022  16:48:00        0.399       -1.728       -4.366        4.809        7.065        6.061       23.131       49.911       36.741        0.007        0.005        1.773        3.990        5.066      337.757        9.945      863.566
01/24/2022  16:49:00      -26.037        9.954       -0.808       34.523       25.019       18.246     1191.863      625.932      332.900        0.146        0.108       27.875       21.199        0.578      337.879       10.151      863.568
01/24/2022  16:50:00       -9.896       24.656       -0.583       34.739       14.206       11.163     1206.795      201.822      124.620        0.112        0.077       26.568        7.383        0.077      337.722        9.887      863.563
01/24/2022  16:51:00      -53.550       22.656       -7.030       14.348        8.781        7.913      205.877       77.113       62.619        0.189        0.017       58.146        5.733        0.010      337.758        9.948      863.558
01/24/2022  16:52:00       -7.779       16.697       -9.026       24.430       14.435       13.924      596.801      208.360      193.879        0.071        0.050       18.421        9.606        0.272      337.637        9.744      863.545
01/24/2022  16:53:00       -8.821      -20.929       -5.394       10.498       14.285        9.233      110.205      204.064       85.248        0.047        0.020       22.712        6.093        0.072      337.671        9.802      863.523
01/24/2022  16:54:00        7.004      -12.059        0.911       17.062       15.031       11.625      291.114      225.926      135.132        0.042        0.033       13.945        9.300        0.445      337.686        9.827      863.507
01/24/2022  16:55:00      -18.926      -11.812       -5.915       25.328       16.451       12.042      641.502      270.641      145.006        0.079        0.053       22.309       12.178        0.298      337.715        9.876      863.488
01/24/2022  16:56:00        4.464       -7.135       -3.499       16.897       14.163       11.823      285.504      200.602      139.788        0.035        0.031        8.417        2.886        0.118      337.696        9.844      863.481
01/24/2022  16:57:00       21.250       -8.649       -3.780       13.087       17.099        8.223      171.266      292.388       67.617        0.054        0.027       22.943       10.248        0.200      337.636        9.742      863.478
01/24/2022  16:58:00       12.552       30.649       -5.827       11.214       16.703       10.766      125.751      278.974      115.898        0.083        0.026       33.120        9.237        0.078      337.677        9.812      863.481
01/24/2022  16:59:00       32.497       11.049       -8.535       15.970       10.632        7.168      255.052      113.031       51.379        0.084        0.021       34.324        5.270        0.024      337.649        9.764      863.466
01/24/2022  17:00:00      -19.468       20.818       -8.854       32.301       11.540       11.125     1043.365      133.164      123.772        0.110        0.065       28.503       11.765        0.170      337.644        9.757      863.450
01/24/2022  17:01:00      -16.009       -9.653       -3.676       15.030       16.206        8.652      225.889      262.638       74.861        0.046        0.028       18.694        6.455        0.119      337.659        9.783      863.432
01/24/2022  17:02:00      -25.759        2.131       -0.925       17.168       15.188       10.109      294.726      230.675      102.187        0.065        0.031       25.847        6.764        0.068      337.625        9.726      863.420
01/24/2022  17:03:00      -27.970        7.051        0.256       25.078       14.723       13.677      628.930      216.777      187.060        0.093        0.052       28.845       15.659        0.295      337.450        9.431      863.405
01/24/2022  17:04:00        9.896        2.878       -0.821       12.971        9.041        9.369      168.248       81.742       87.775        0.022        0.017       10.306        6.640        0.415      337.526        9.560      863.407
01/24/2022  17:05:00       -3.340       -3.253       -4.323       25.010        9.723       12.347      625.525       94.530      152.452        0.046        0.044        4.662        9.353        4.024      337.511        9.535      863.410
01/24/2022  17:06:00      -41.691       10.195       -7.034       23.718       19.310       15.643      562.548      372.894      244.705        0.154        0.059       42.920       13.489        0.099      337.485        9.490      863.406
01/24/2022  17:07:00      -49.870        6.118        0.417       19.736       21.886       11.681      389.509      479.011      136.454        0.176        0.050       50.244       10.210        0.041      337.568        9.630      863.404
01/24/2022  17:08:00       10.873       -8.676       -0.399       19.950       22.004       12.381      397.993      484.163      153.285        0.061        0.052       13.911       11.009        0.626      337.462        9.451      863.397
01/24/2022  17:09:00        3.374      -12.395       -3.176       14.079       11.980        8.712      198.216      143.520       75.899        0.030        0.021       12.846        7.608        0.351      337.550        9.598      863.395
01/24/2022  17:10:00       18.515        1.227       -3.786        9.545        5.200        4.421       91.108       27.044       19.547        0.025        0.007       18.555        4.371        0.055      337.513        9.535      863.400
01/24/2022  17:11:00        7.976        8.622       -8.082       10.884        8.040        8.354      118.468       64.635       69.795        0.023        0.013       11.746        6.013        0.262      337.426        9.392      863.397
01/24/2022  17:12:00        4.187       27.097       -3.310       17.166       10.586       11.013      294.664      112.072      121.277        0.065        0.026       27.419        6.759        0.061      337.435        9.405      863.405
01/24/2022  17:13:00      -28.335       28.731      -10.518       15.930       15.746       10.749      253.751      247.938      115.539        0.118        0.031       40.352        9.472        0.055      337.312        9.201      863.415
01/24/2022  17:14:00      -27.671       -0.565       -9.009       17.754       16.245       16.343      315.221      263.894      267.086        0.085        0.042       27.677        9.211        0.111      337.155        8.938      863.413
01/24/2022  17:15:00      -63.154       12.399       -7.273       13.954       12.244        8.979      194.712      149.910       80.629        0.231        0.021       64.360        6.481        0.010      337.185        8.989      863.410
01/24/2022  17:16:00      -79.078        5.672       -4.003       18.645       14.916       14.076      347.647      222.476      198.140        0.353        0.038       79.281        7.830        0.010      337.234        9.072      863.393
01/24/2022  17:17:00      -76.062        2.448       -8.108       23.917       18.669       13.662      572.005      348.518      186.655        0.348        0.055       76.102        9.900        0.017      337.221        9.049      863.385
01/24/2022  17:18:00      -84.934       14.102       -4.419       22.275       23.100       12.413      496.197      533.592      154.094        0.431        0.059       86.096       10.968        0.016      337.086        8.824      863.379
01/24/2022  17:19:00      -71.142       26.456       -4.299       41.143       24.964       22.921     1692.751      623.218      525.369        0.431        0.142       75.901       23.645        0.097      337.029        8.727      863.372
01/24/2022  17:20:00      -91.639       24.716      -11.149       34.052       21.573       18.412     1159.544      465.378      339.011        0.555        0.098       94.914       18.774        0.039      337.047        8.758      863.362
01/24/2022  17:21:00      -63.414        5.753       -6.157       38.017       34.383       21.696     1445.326     1182.163      470.701        0.359        0.155       63.674       22.258        0.122      337.000        8.678      863.341
01/24/2022  17:22:00      -61.938        6.600       -0.537       46.023       29.752       26.447     2118.093      885.185      699.435        0.379        0.185       62.289       29.941        0.231      336.900        8.511      863.321
01/24/2022  17:23:00     -107.202       28.899       -8.887       21.157       22.394       15.685      447.631      501.474      246.013        0.680        0.060      111.029       12.422        0.013      336.799        8.341      863.304
01/24/2022  17:24:00      -77.561       14.836      -11.577       33.343       26.298       19.767     1111.752      691.564      390.738        0.428        0.110       78.967       21.294        0.073      336.783        8.315      863.289
01/24/2022  17:25:00      -72.205       11.931       -8.911       33.634       29.072       21.142     1131.236      845.189      446.969        0.393        0.121       73.184       11.773        0.026      336.776        8.304      863.286
01/24/2022  17:26:00     -109.564       37.644       -7.603       26.923       24.004       16.215      724.873      576.197      262.942        0.752        0.078      115.850       17.959        0.024      336.776        8.305      863.290
01/24/2022  17:27:00     -108.136       33.230       -9.773       24.611       25.135       17.965      605.700      631.744      322.759        0.723        0.078      113.127       10.760        0.009      336.771        8.298      863.291
01/24/2022  17:28:00      -76.656       14.757      -10.347       27.507       25.214       20.969      756.659      635.767      439.715        0.402        0.092       78.064       14.769        0.036      336.485        7.819      863.301
01/24/2022  17:29:00      -31.480       10.444      -12.270       32.050       25.748       19.176     1027.230      662.949      367.733        0.165        0.103       33.167       17.949        0.293      336.332        7.562      863.304
01/24/2022  17:30:00      -62.390        6.737       -4.888       49.335       31.453       23.086     2433.903      989.309      532.950        0.396        0.198       62.753       22.744        0.131      336.281        7.476      863.304
01/24/2022  17:31:00      -47.932        9.438      -16.099       39.034       28.634       28.084     1523.660      819.917      788.715        0.289        0.157       48.853       24.114        0.244      336.311        7.527      863.301
01/24/2022  17:32:00      -10.381        5.478        6.268       33.399       23.382       23.431     1115.485      546.719      549.015        0.119        0.111       11.738       19.102        2.648      336.163        7.280      863.307
01/24/2022  17:33:00      -47.671       11.895      -13.934       39.217       27.794       24.335     1537.968      772.492      592.209        0.275        0.145       49.132       22.281        0.206      336.192        7.328      863.309
01/24/2022  17:34:00      -50.872        5.708      -15.656       40.084       29.411       27.937     1606.716      864.982      780.489        0.306        0.163       51.191       17.974        0.123      336.215        7.366      863.312
01/24/2022  17:35:00      -39.511        7.625      -12.904       47.788       27.400       29.311     2283.739      750.776      859.119        0.284        0.195       40.240       24.280        0.364      336.192        7.327      863.315
01/24/2022  17:36:00      -26.360        1.380       -6.649       32.871       32.450       23.763     1080.481     1052.983      564.700        0.172        0.135       26.396       12.961        0.241      336.097        7.171      863.311
01/24/2022  17:37:00      -43.705        7.789      -12.719       50.204       33.857       26.168     2520.486     1146.327      684.758        0.324        0.218       44.393       30.590        0.475      336.079        7.140      863.314
01/24/2022  17:38:00      -20.149        5.820      -15.077       40.980       25.661       24.849     1679.323      658.479      617.475        0.181        0.148       20.973       22.687        1.170      336.006        7.018      863.326
01/24/2022  17:39:00      -24.435       10.801      -10.972       35.371       47.473       22.293     1251.126     2253.718      496.973        0.242        0.200       26.716       20.316        0.578      335.962        6.947      863.341
01/24/2022  17:40:00      -18.175       -3.117      -11.875       34.026       26.731       20.067     1157.797      714.527      402.678        0.138        0.114       18.440        9.062        0.242      335.900        6.842      863.352
01/24/2022  17:41:00      -81.542        1.303      -12.271       50.766       38.664       24.265     2577.200     1494.904      588.814        0.573        0.233       81.552       20.935        0.066      335.960        6.943      863.359
01/24/2022  17:42:00      -64.490       -5.361      -16.413       70.686       60.341       19.099     4996.509     3641.083      364.775        0.673        0.450       64.712       25.533        0.156      335.998        7.006      863.360
01/24/2022  17:43:00      -98.007       24.512      -19.128       56.452       39.390       25.263     3186.784     1551.598      638.230        0.797        0.269      101.026       19.219        0.036      336.004        7.015      863.369
01/24/2022  17:44:00      -55.655        9.161      -13.355       45.563       35.433       26.384     2075.984     1255.521      696.119        0.369        0.201       56.404       14.025        0.062      335.897        6.838      863.363
01/24/2022  17:45:00     -134.817       48.035       -8.462       31.140       29.305       17.169      969.677      858.766      294.782        1.134        0.106      143.119        9.843        0.005      335.815        6.699      863.365
01/24/2022  17:46:00     -114.457       24.444      -15.452       35.529       25.522       17.701     1262.342      651.383      313.337        0.808        0.111      117.038       10.628        0.008      335.790        6.658      863.368
01/24/2022  17:47:00      -59.689       10.400       -5.809       38.899       27.297       21.223     1513.131      745.148      450.425        0.321        0.135       60.588       15.853        0.068      335.776        6.635      863.371
01/24/2022  17:48:00      -75.868       41.959      -14.055       41.396       34.004       24.039     1713.663     1156.289      577.859        0.558        0.172       86.698       20.612        0.057      335.780        6.640      863.373
01/24/2022  17:49:00     -118.941       70.665      -15.406       25.111       22.108       17.277      630.551      488.766      298.485        1.040        0.071      138.349       12.780        0.009      335.904        6.848      863.372
01/24/2022  17:50:00     -103.816       34.007      -18.238       20.215       25.918       16.319      408.650      671.731      266.302        0.681        0.067      109.244        8.984        0.007      335.748        6.588      863.351
01/24/2022  17:51:00     -124.501       49.729      -12.069       32.376       28.613       23.220     1048.226      818.708      539.180        1.026        0.120      134.065       19.039        0.020      335.770        6.624      863.335
01/24/2022  17:52:00     -136.177       52.325      -11.322       28.623       26.137       17.865      819.248      683.156      319.160        1.162        0.091      145.884        8.358        0.003      335.681        6.475      863.320
01/24/2022  17:53:00     -129.646       51.027       -9.135       40.349       30.163       19.464     1628.041      909.817      378.857        1.121        0.146      139.326        8.702        0.004      335.705        6.516      863.325
01/24/2022  17:54:00     -122.992       41.133      -11.214       50.886       31.315       18.754     2589.364      980.631      351.700        1.043        0.196      129.688       22.782        0.031      335.650        6.424      863.340
01/24/2022  17:55:00      -71.807       19.125       -8.821       54.656       32.040       22.824     2987.247     1026.570      520.931        0.507        0.227       74.311       21.343        0.082      335.591        6.327      863.361
01/24/2022  17:56:00      -16.064       -9.518      -16.550       29.097       25.185       16.420      846.662      634.283      269.612        0.119        0.088       18.673        9.722        0.271      335.533        6.231      863.388
01/24/2022  17:57:00      -14.030        0.796      -12.258       25.731       23.749       19.802      662.098      564.033      392.102        0.098        0.081       14.053        6.153        0.192      335.507        6.186      863.404
01/24/2022  17:58:00      -12.127       -3.010      -15.134       38.679       27.988       14.540     1496.035      783.340      211.398        0.144        0.125       12.495       11.692        0.876      335.528        6.222      863.421
01/24/2022  17:59:00        7.797       -9.364      -11.586       19.703       29.938       13.404      388.192      896.286      179.673        0.087        0.073       12.185       11.928        0.958      335.369        5.957      863.418
01/24/2022  18:00:00      -13.847       -0.122       -2.271       29.771       25.451       21.758      886.315      647.730      473.410        0.110        0.100       13.848       14.740        1.133      335.304        5.849      863.423
01/24/2022  18:01:00      -66.528       -2.878      -18.238       35.403       29.325       22.548     1253.354      859.945      508.392        0.369        0.131       66.590       12.922        0.038      335.320        5.874      863.423
01/24/2022  18:02:00        8.241        2.539        3.382       21.607       17.605       17.800      466.849      309.939      316.831        0.059        0.055        8.623        8.134        0.890      335.196        5.668      863.415
01/24/2022  18:03:00       32.505        5.558      -12.452       15.296       21.221       18.055      233.980      450.323      325.991        0.113        0.051       32.976       12.225        0.137      335.260        5.774      863.405
01/24/2022  18:04:00       20.580      -17.550      -20.300       17.339       23.960       18.448      300.651      574.062      340.322        0.118        0.061       27.047        7.401        0.075      335.300        5.841      863.408
01/24/2022  18:05:00      -18.702       -4.657      -15.930       37.919       38.106       22.137     1437.828     1452.087      490.044        0.200        0.169       19.273       10.287        0.285      335.258        5.771      863.419
01/24/2022  18:06:00       20.294       -3.829       -1.652       21.596       28.034       21.364      466.374      785.893      456.433        0.107        0.085       20.652       12.031        0.339      335.256        5.767      863.425
01/24/2022  18:07:00      -29.759       16.962      -14.630       56.566       27.345       29.042     3199.670      747.769      843.461        0.309        0.240       34.254       23.049        0.453      335.229        5.723      863.434
01/24/2022  18:08:00      -61.567       -1.728      -19.725       60.930       45.608       30.079     3712.404     2080.091      904.741        0.544        0.335       61.591       18.254        0.088      335.138        5.572      863.438
01/24/2022  18:09:00      -61.295        9.038       -7.293       57.834       37.449       33.073     3344.737     1402.416     1093.821        0.487        0.292       61.957       24.551        0.157      335.108        5.524      863.439
01/24/2022  18:10:00      -13.438      -21.598      -15.989       28.564       35.461       24.442      815.876     1257.499      597.435        0.179        0.134       25.437       18.721        0.542      335.176        5.634      863.434
01/24/2022  18:11:00      -54.512        0.461      -17.100       62.405       41.000       29.749     3894.443     1680.995      884.975        0.486        0.323       54.514       30.567        0.314      335.089        5.492      863.429
01/24/2022  18:12:00      -86.529        9.817      -19.715       73.140       39.939       34.255     5349.521     1595.161     1173.392        0.804        0.406       87.084       27.410        0.099      335.038        5.406      863.422
01/24/2022  18:13:00     -113.526       21.028      -27.853       80.878       38.803       26.907     6541.271     1505.701      723.989        1.144        0.439      115.457       19.242        0.028      334.980        5.311      863.415
01/24/2022  18:14:00     -121.896       31.945       -9.959       58.706       42.327       34.677     3446.384     1791.571     1202.506        1.121        0.322      126.012       34.087        0.073      334.921        5.214      863.399
01/24/2022  18:15:00     -156.539       39.728       -7.615       56.829       41.564       27.075     3229.590     1727.579      733.067        1.591        0.285      161.502       22.668        0.020      334.862        5.116      863.390
01/24/2022  18:16:00     -138.803       27.233       -9.045       51.989       36.806       30.691     2702.859     1354.703      941.912        1.254        0.250      141.450       28.700        0.041      334.889        5.161      863.382
01/24/2022  18:17:00     -118.897       22.013      -22.302       91.734       44.616       34.885     8415.124     1990.627     1216.994        1.337        0.581      120.918       41.412        0.117      334.860        5.110      863.374
01/24/2022  18:18:00     -105.448        7.047      -10.648       77.087       41.313       34.948     5942.387     1706.786     1221.347        1.007        0.444      105.684       29.585        0.078      334.872        5.132      863.359
01/24/2022  18:19:00     -114.627       44.841      -20.094       62.465       39.421       27.754     3901.837     1554.052      770.284        1.089        0.311      123.086       27.402        0.050      334.846        5.089      863.361
01/24/2022  18:20:00     -101.250       12.997      -17.224       65.295       36.726       29.623     4263.468     1348.796      877.498        0.860        0.324      102.081       22.410        0.048      334.916        5.205      863.355
01/24/2022  18:21:00      -73.986       15.513      -23.863       69.302       38.329       28.322     4802.719     1469.112      802.153        0.668        0.354       75.595       14.256        0.036      334.852        5.098      863.353
01/24/2022  18:22:00      -29.841        1.481      -17.530       67.629       35.840       26.180     4573.643     1284.473      685.384        0.387        0.327       29.877       27.265        0.833      334.861        5.114      863.361
01/24/2022  18:23:00        0.036      -12.606      -14.272       25.097       29.729       19.816      629.848      883.814      392.654        0.113        0.095       12.606       10.466        0.689      334.809        5.027      863.383
01/24/2022  18:24:00      -13.435        1.963      -23.314       19.300       31.122       18.382      372.487      968.601      337.893        0.120        0.084       13.578       12.435        0.839      334.749        4.926      863.416
01/24/2022  18:25:00       -6.882       13.520      -13.251       26.389       17.994       23.844      696.354      323.796      568.545        0.100        0.079       15.171       19.919        1.724      334.790        4.995      863.453
01/24/2022  18:26:00      -17.967       -0.387       -8.645       16.414        8.786       14.566      269.421       77.188      212.160        0.048        0.028       17.971        8.624        0.230      334.902        5.184      863.488
01/24/2022  18:27:00      -32.452        8.315       -7.012       17.659       16.665       15.082      311.845      277.709      227.461        0.099        0.041       33.500       12.548        0.140      334.929        5.226      863.508
01/24/2022  18:28:00      -58.661        7.081      -12.482       32.419       25.096       18.797     1050.991      629.827      353.337        0.284        0.102       59.087        8.421        0.020      334.886        5.154      863.532
01/24/2022  18:29:00      -79.127        3.593      -22.657       40.748       28.859       21.573     1660.425      832.862      465.391        0.487        0.148       79.208       20.545        0.067      334.843        5.083      863.538
01/24/2022  18:30:00     -113.367       29.446      -25.951       20.533       21.698       15.595      421.621      470.784      243.202        0.776        0.057      117.128        4.751        0.002      334.819        5.044      863.530
01/24/2022  18:31:00      -95.057       31.986      -21.594       31.568       28.467       19.311      996.518      810.356      372.909        0.635        0.109      100.294       14.249        0.020      334.792        5.000      863.538
01/24/2022  18:32:00     -108.961       61.772      -20.331       23.740       21.800       16.696      563.610      475.247      278.767        0.871        0.066      125.253        9.508        0.006      334.885        5.153      863.549
01/24/2022  18:33:00      -90.559       31.676      -18.256       38.288       27.909       17.579     1466.003      778.896      309.018        0.605        0.128       95.939       17.499        0.033      334.811        5.029      863.552
01/24/2022  18:34:00      -90.995       18.116      -12.683       61.719       30.122       27.538     3809.247      907.327      758.321        0.712        0.274       92.781       34.823        0.141      334.629        4.728      863.559
01/24/2022  18:35:00      -53.575       16.458       -5.058       54.144       36.406       24.408     2931.525     1325.423      595.771        0.401        0.243       56.046       23.215        0.172      334.626        4.722      863.546
01/24/2022  18:36:00      -75.030       15.665       -5.113       68.800       35.101       21.903     4733.385     1232.052      479.756        0.617        0.322       76.648       20.701        0.073      334.606        4.687      863.534
01/24/2022  18:37:00      -41.112       27.311      -11.975       55.248       19.153       23.528     3052.329      366.828      553.555        0.328        0.199       49.357       19.531        0.157      334.672        4.797      863.521
01/24/2022  18:38:00      -81.440       21.250      -23.726       27.350       24.820       22.837      747.996      616.021      521.538        0.477        0.094       84.167       10.815        0.017      334.723        4.884      863.516
01/24/2022  18:39:00      -56.396       12.844      -10.682       37.886       33.401       28.234     1435.350     1115.602      797.157        0.340        0.167       57.840       24.877        0.185      334.767        4.958      863.510
01/24/2022  18:40:00     -103.525        8.427      -15.540       35.514       28.437       21.490     1261.233      808.661      461.822        0.678        0.127      103.867       12.425        0.014      334.762        4.949      863.496
01/24/2022  18:41:00     -110.655       22.135      -22.939       42.395       33.569       23.192     1797.345     1126.876      537.847        0.836        0.173      112.847       18.510        0.027      334.732        4.898      863.484
01/24/2022  18:42:00     -113.206       16.625      -11.378       79.728       32.993       27.269     6356.607     1088.516      743.607        1.070        0.409      114.420       29.419        0.066      334.716        4.871      863.477
01/24/2022  18:43:00      -94.996       32.725       -7.718       81.005       36.732       32.520     6561.824     1349.209     1057.560        0.956        0.448      100.475       32.839        0.107      334.712        4.864      863.463
01/24/2022  18:44:00     -129.952       33.070      -20.613       61.806       56.375       25.483     3820.009     3178.108      649.407        1.303        0.382      134.094       20.013        0.022      334.712        4.866      863.447
01/24/2022  18:45:00     -107.375       31.972      -11.298       51.521       28.158       28.066     2654.426      792.848      787.704        0.846        0.212      112.034       16.723        0.022      334.708        4.857      863.439
01/24/2022  18:46:00     -135.713       53.935      -31.108       47.640       38.860       28.964     2269.533     1510.070      838.937        1.346        0.231      146.037       15.613        0.011      334.596        4.671      863.430
01/24/2022  18:47:00     -137.605       58.794      -24.838       47.390       38.418       25.747     2245.847     1475.935      662.909        1.370        0.219      149.639       19.608        0.017      334.651        4.763      863.425
01/24/2022  18:48:00     -119.694       65.034      -37.908       30.450       29.047       24.969      927.194      843.716      623.461        1.119        0.120      136.220       17.887        0.017      334.708        4.858      863.415
01/24/2022  18:49:00     -101.320       35.040      -13.156       51.888       29.139       35.028     2692.367      849.079     1226.974        0.822        0.238      107.208       30.220        0.079      334.591        4.663      863.394
01/24/2022  18:50:00     -109.634       46.737      -20.412       55.123       29.666       25.827     3038.554      880.059      667.009        0.960        0.229      119.180       28.171        0.056      334.621        4.714      863.374
01/24/2022  18:51:00     -118.709       23.631      -21.174       59.165       38.159       36.977     3500.455     1456.086     1367.274        1.071        0.316      121.038       34.875        0.083      334.540        4.578      863.356
01/24/2022  18:52:00     -116.168       37.226      -10.218       70.672       46.858       24.907     4994.580     2195.686      620.347        1.140        0.391      121.987       24.643        0.041      334.534        4.568      863.345
01/24/2022  18:53:00     -101.624       43.572      -15.895       40.665       31.782       26.051     1653.616     1010.102      678.670        0.791        0.167      110.571       20.508        0.034      334.574        4.634      863.339
01/24/2022  18:54:00      -85.693       30.053      -42.561       48.328       36.225       31.414     2335.550     1312.240      986.865        0.735        0.232       90.810       15.376        0.029      334.555        4.602      863.331
01/24/2022  18:55:00      -97.885       26.052      -40.017       69.270       44.834       32.461     4798.380     2010.081     1053.691        0.986        0.393      101.293       23.108        0.052      334.472        4.467      863.325
01/24/2022  18:56:00     -106.082       34.582      -33.025       50.578       41.455       32.591     2558.108     1718.540     1062.160        0.944        0.267      111.577       22.526        0.041      334.449        4.428      863.322
01/24/2022  18:57:00      -44.921       -7.130      -11.048       41.115       32.073       27.295     1690.475     1028.649      745.032        0.283        0.173       45.483       21.552        0.225      334.465        4.454      863.319
01/24/2022  18:58:00      -30.779      -10.827      -21.973       47.956       46.440       26.492     2299.737     2156.698      701.805        0.335        0.258       32.627       20.404        0.391      334.495        4.504      863.316
01/24/2022  18:59:00      -10.249       -4.869       -2.613       51.023       38.297       26.859     2603.347     1466.630      721.389        0.246        0.240       11.347       26.320        5.380      334.483        4.483      863.302
01/24/2022  19:00:00      -80.505        1.282       -5.982       53.264       30.267       19.277     2837.001      916.098      371.617        0.532        0.206       80.515       14.500        0.032      334.582        4.648      863.284
01/24/2022  19:01:00      -74.273       -3.362       -6.223       54.255       42.011       29.470     2943.569     1764.928      868.495        0.557        0.279       74.349       21.760        0.086      334.632        4.731      863.266
01/24/2022  19:02:00      -59.025       10.455       -0.154       70.022       39.127       32.882     4903.087     1530.929     1081.258        0.555        0.376       59.944       32.478        0.294      334.659        4.777      863.256
01/24/2022  19:03:00      -22.076       -3.437       -2.489       53.932       45.634       28.267     2908.633     2082.472      799.039        0.315        0.290       22.342       23.967        1.151      334.623        4.717      863.250
01/24/2022  19:04:00      -81.176      -14.296       -3.487       53.668       26.163       21.958     2880.306      684.514      482.166        0.543        0.202       82.425       19.899        0.058      334.749        4.926      863.253
01/24/2022  19:05:00      -90.419      -17.245       -4.625       51.908       30.344       26.377     2694.459      920.782      695.751        0.640        0.216       92.048       20.125        0.048      334.705        4.852      863.258
01/24/2022  19:06:00      -81.216      -21.440       -2.774       67.918       34.553       31.119     4612.860     1193.877      968.365        0.692        0.339       83.998       29.635        0.124      334.650        4.761      863.257
01/24/2022  19:07:00      -67.337        1.218       -6.344       68.509       45.717       30.645     4693.485     2090.020      939.118        0.615        0.386       67.348       32.646        0.235      334.555        4.604      863.246
01/24/2022  19:08:00      -54.347       -5.958        1.588       67.540       35.896       34.215     4561.685     1288.497     1170.698        0.500        0.351       54.673       36.120        0.436      334.580        4.645      863.238
01/24/2022  19:09:00     -122.493       -8.910       -7.501       81.305       35.283       29.699     6610.466     1244.875      882.019        1.194        0.437      122.817       27.176        0.049      334.526        4.555      863.231
01/24/2022  19:10:00     -119.914       -1.891       -7.485       74.875       38.742       30.833     5606.209     1500.925      950.687        1.125        0.403      119.929       30.644        0.065      334.531        4.563      863.235
01/24/2022  19:11:00      -47.054      -14.323       -3.110       55.000       31.815       31.932     3025.050     1012.190     1019.658        0.374        0.253       49.186       28.985        0.347      334.535        4.569      863.245
01/24/2022  19:12:00      -28.176        4.813        3.067       55.134       34.364       25.480     3039.759     1180.871      649.235        0.285        0.243       28.585       22.140        0.600      334.588        4.658      863.252
01/24/2022  19:13:00      -15.800        4.851       -5.062       51.075       41.806       28.737     2608.656     1747.751      825.841        0.274        0.259       16.528       16.181        0.958      334.562        4.614      863.249
01/24/2022  19:14:00      -89.400       14.994        2.729       70.258       36.135       29.518     4936.231     1305.762      871.302        0.767        0.356       90.649       29.701        0.107      334.550        4.594      863.244
01/24/2022  19:15:00     -133.212       11.596        3.304       53.800       33.756       27.058     2894.468     1139.483      732.156        1.133        0.238      133.716       24.255        0.033      334.490        4.497      863.233
01/24/2022  19:16:00      -98.366      -12.449       -5.724       52.648       30.339       27.465     2771.829      920.427      754.321        0.715        0.222       99.151       27.199        0.075      334.436        4.407      863.223
01/24/2022  19:17:00      -29.458       10.751       -3.927       41.730       39.036       29.125     1741.406     1523.847      848.292        0.256        0.206       31.358       16.555        0.279      334.332        4.235      863.221
01/24/2022  19:18:00     -156.386        9.712      -17.194       33.998       19.818       23.325     1155.892      392.744      544.075        1.347        0.105      156.687       17.435        0.012      334.319        4.212      863.210
01/24/2022  19:19:00     -119.199        9.847      -15.911       38.003       24.242       20.205     1444.253      587.680      408.235        0.850        0.122      119.605       18.264        0.023      334.390        4.332      863.200
01/24/2022  19:20:00     -101.374       38.565      -11.955       46.156       27.391       22.196     2130.398      750.286      492.675        0.764        0.169      108.462       21.466        0.039      334.292        4.169      863.189
01/24/2022  19:21:00      -25.419        1.267       -1.172       29.386       27.428       21.197      863.526      752.269      449.306        0.136        0.103       25.450        8.596        0.114      334.325        4.223      863.166
01/24/2022  19:22:00     -102.714        5.162       -6.637       39.241       27.832       24.335     1539.867      774.598      592.195        0.676        0.145      102.844       16.215        0.025      334.363        4.286      863.136
01/24/2022  19:23:00     -117.316       21.512       -4.635       26.032       21.435       19.557      677.643      459.453      382.459        0.788        0.076      119.272       12.226        0.011      334.337        4.243      863.110
01/24/2022  19:24:00      -73.911        6.104       -9.251       37.404       19.156       16.587     1399.092      366.944      275.133        0.381        0.102       74.162       10.380        0.020      334.433        4.401      863.084
01/24/2022  19:25:00      -63.597       -7.316      -12.972       56.890       27.720       24.467     3236.417      768.411      598.633        0.443        0.230       64.016       27.298        0.182      334.387        4.325      863.066
01/24/2022  19:26:00      -87.367       -2.843       -8.519       31.791       23.875       22.623     1010.641      570.022      511.810        0.490        0.105       87.413       14.965        0.029      334.426        4.390      863.051
01/24/2022  19:27:00     -101.770       -4.943       -2.472       46.679       26.665       21.018     2178.924      711.039      441.759        0.686        0.167      101.890       21.784        0.046      334.425        4.388      863.044
01/24/2022  19:28:00      -92.240       -5.714       -9.128       42.744       27.775       27.313     1827.048      771.423      746.002        0.598        0.167       92.417       24.312        0.069      334.388        4.326      863.046
01/24/2022  19:29:00      -65.135       -7.541       -9.863       49.123       32.516       32.513     2413.100     1057.289     1057.066        0.446        0.226       65.570       25.947        0.157      334.358        4.278      863.039
01/24/2022  19:30:00      -20.757       -2.109       -4.275       47.770       28.855       30.854     2282.017      832.629      951.991        0.226        0.203       20.864       29.145        1.951      334.311        4.199      863.022
01/24/2022  19:31:00     -110.651      -11.021        0.560       81.724       45.197       33.405     6678.816     2042.753     1115.907        1.110        0.492      111.199       33.036        0.088      334.259        4.113      863.006
01/24/2022  19:32:00      -77.458        1.006       -5.001       63.055       54.725       43.411     3975.900     2994.868     1884.525        0.744        0.443       77.465       37.585        0.235      334.215        4.039      863.000
01/24/2022  19:33:00     -127.456       17.504       -2.303       70.111       46.220       33.936     4915.515     2136.295     1151.634        1.238        0.410      128.652       21.585        0.028      334.210        4.031      863.014
01/24/2022  19:34:00     -114.644       21.746       -2.849       75.636       46.138       34.366     5720.767     2128.746     1181.009        1.133        0.452      116.688       27.783        0.057      334.099        3.847      863.037
01/24/2022  19:35:00     -127.252       32.864      -21.797       64.430       44.199       24.812     4151.249     1953.537      615.634        1.223        0.336      131.428       16.231        0.015      334.123        3.888      863.069
01/24/2022  19:36:00     -142.542       40.456      -10.175       52.374       33.116       28.770     2743.087     1096.638      827.705        1.336        0.233      148.172       27.689        0.035      334.057        3.777      863.088
01/24/2022  19:37:00      -99.822       42.976        2.631       71.115       50.990       31.796     5057.307     2599.950     1010.958        1.024        0.433      108.680       33.005        0.092      334.044        3.757      863.096
01/24/2022  19:38:00      -90.743       11.878      -11.215       44.816       38.606       31.148     2008.436     1490.403      970.169        0.648        0.223       91.517       14.152        0.024      334.018        3.715      863.107
01/24/2022  19:39:00      -10.929        1.142       -1.269       35.123       24.800       16.071     1233.628      615.055      258.284        0.111        0.105       10.989       13.735        1.562      334.107        3.862      863.113
01/24/2022  19:40:00      -13.982        7.719       -5.455       27.036       20.086       18.989      730.946      403.441      360.580        0.089        0.075       15.972        7.306        0.209      333.996        3.678      863.128
01/24/2022  19:41:00        4.846      -12.702      -19.777       19.596       19.545       11.654      383.993      381.991      135.817        0.074        0.045       13.595       10.158        0.558      334.076        3.811      863.136
01/24/2022  19:42:00        5.748      -23.769      -14.295       18.897       26.896       18.490      357.084      723.411      341.884        0.111        0.071       24.455       14.131        0.334      334.047        3.762      863.148
01/24/2022  19:43:00      -27.148       -0.837       -6.538       50.444       23.880       22.404     2544.557      570.273      501.952        0.220        0.181       27.161       19.818        0.532      333.921        3.555      863.152
01/24/2022  19:44:00      -97.832       -4.841      -11.176       32.086       22.787       16.350     1029.520      519.239      267.330        0.577        0.091       97.952       11.761        0.014      333.949        3.601      863.152
01/24/2022  19:45:00      -78.512       -4.696      -14.638       27.801       21.523       19.959      772.887      463.251      398.374        0.402        0.082       78.652       14.903        0.036      334.093        3.838      863.167
01/24/2022  19:46:00      -70.924        2.372       -8.492       37.710       25.757       17.996     1422.028      663.409      323.856        0.376        0.120       70.963       11.290        0.025      334.007        3.696      863.183
01/24/2022  19:47:00      -83.512       20.014      -16.941       27.431       19.793       18.610      752.457      391.781      346.323        0.458        0.075       85.877        5.264        0.004      333.982        3.654      863.216
01/24/2022  19:48:00      -26.715        3.321      -13.466       10.508       15.269       11.387      110.413      233.149      129.660        0.069        0.024       26.921        6.198        0.053      334.083        3.822      863.245
01/24/2022  19:49:00      -49.252      -13.046      -12.223       26.970       14.765       13.479      727.394      218.004      181.684        0.194        0.056       50.950       12.727        0.062      334.135        3.907      863.264
01/24/2022  19:50:00      -36.992       -2.942       -0.539       27.222       19.674       19.182      741.040      387.052      367.945        0.144        0.075       37.109       13.373        0.130      334.033        3.740      863.271
01/24/2022  19:51:00      -59.131      -12.074        1.440       42.040       24.756       26.844     1767.362      612.859      720.586        0.337        0.155       60.351       25.032        0.172      333.985        3.660      863.280
01/24/2022  19:52:00      -52.030       -8.041       -1.894       34.857       33.402       23.778     1214.986     1115.676      565.391        0.284        0.145       52.648       15.237        0.084      333.933        3.574      863.296
01/24/2022  19:53:00      -76.727        3.210       -6.964       38.340       23.589       15.338     1469.918      556.418      235.241        0.410        0.113       76.794        9.505        0.015      333.997        3.680      863.313
01/24/2022  19:54:00      -50.987       -6.880       -9.371       29.654       22.082       17.611      879.376      487.628      310.135        0.221        0.084       51.450       12.666        0.061      333.943        3.590      863.341
01/24/2022  19:55:00      -80.071       18.218       -9.244       36.629       23.681       15.589     1341.705      560.776      243.024        0.449        0.107       82.117       13.349        0.026      333.990        3.668      863.353
01/24/2022  19:56:00     -103.199       24.922       -6.585       25.236       16.955       15.920      636.860      287.461      253.454        0.625        0.059      106.166       15.253        0.021      333.974        3.642      863.346
01/24/2022  19:57:00      -38.086        2.448       -1.278       30.152       18.952       19.974      909.139      359.163      398.959        0.156        0.083       38.164       15.227        0.159      333.977        3.647      863.336
01/24/2022  19:58:00      -40.901        0.379        0.800       35.753       25.700       22.936     1278.308      660.507      526.075        0.207        0.123       40.902       23.599        0.333      333.984        3.658      863.339
01/24/2022  19:59:00      -38.616        7.221       -0.170       51.623       27.646       22.688     2664.933      764.306      514.729        0.274        0.197       39.285       28.311        0.519      333.894        3.509      863.359
01/24/2022  20:00:00      -76.754       13.297      -10.828       25.762       21.644       14.474      663.686      468.462      209.500        0.376        0.067       77.897        6.795        0.008      333.929        3.567      863.392
01/24/2022  20:01:00      -60.910       10.729       -2.868       24.324       17.830       14.446      591.681      317.908      208.674        0.248        0.056       61.848       11.527        0.035      333.879        3.484      863.422
01/24/2022  20:02:00      -70.612       20.677       -9.748       24.141       20.004       12.562      582.788      400.179      157.794        0.332        0.057       73.577        8.322        0.013      333.853        3.442      863.441
01/24/2022  20:03:00      -55.740       14.035      -11.146       34.384       24.593       13.992     1182.282      604.819      195.770        0.271        0.099       57.480       14.478        0.063      333.820        3.388      863.449
01/24/2022  20:04:00       -7.653        6.903      -10.233       17.475       17.975       16.245      305.374      323.087      263.899        0.055        0.045       10.306       10.581        1.054      333.770        3.302      863.444
01/24/2022  20:05:00      -45.019       13.804      -15.297       22.707       14.887       16.244      515.621      221.618      263.879        0.173        0.050       47.087       13.816        0.086      333.745        3.261      863.457
01/24/2022  20:06:00      -33.577       11.896      -16.784       16.216       15.763       12.057      262.951      248.475      145.376        0.110        0.033       35.622       11.470        0.104      333.806        3.363      863.454
01/24/2022  20:07:00      -24.837       15.341      -14.006       10.616        7.591        7.626      112.704       57.625       58.154        0.064        0.011       29.193        2.208        0.006      333.880        3.486      863.460
01/24/2022  20:08:00      -11.664       15.575      -18.553       16.107       12.778       13.643      259.449      163.270      186.124        0.067        0.030       19.459       11.017        0.321      334.191        3.999      863.469
01/24/2022  20:09:00       -7.125       18.310       -7.605       22.988        8.800       12.082      528.460       77.438      145.972        0.060        0.038       19.647       14.245        0.526      334.037        3.745      863.478
01/24/2022  20:10:00        6.580       22.052      -11.486        9.857        9.808        5.922       97.161       96.192       35.074        0.044        0.011       23.012        4.933        0.046      334.035        3.743      863.497
01/24/2022  20:11:00      -14.326        6.267      -14.868       15.779       12.997        8.148      248.976      168.928       66.396        0.047        0.024       15.636        7.223        0.213      333.975        3.642      863.505
01/24/2022  20:12:00      -35.481       -3.364      -10.530       13.990       14.817       12.432      195.730      219.538      154.546        0.098        0.028       35.640        7.551        0.045      333.705        3.195      863.510
01/24/2022  20:13:00      -34.919       -6.409       -9.615       20.794       16.358       13.739      432.384      267.578      188.749        0.112        0.044       35.502       11.826        0.111      333.623        3.060      863.508
01/24/2022  20:14:00      -60.397       18.230      -12.905       40.535       19.703       15.217     1643.058      388.196      231.559        0.320        0.113       63.088       14.923        0.056      333.586        2.998      863.510
01/24/2022  20:15:00     -109.647       22.523      -12.064       31.419       19.848       14.715      987.146      393.932      216.523        0.714        0.080      111.936       11.382        0.010      333.619        3.055      863.514
01/24/2022  20:16:00      -89.469       25.520       -6.789       42.293       22.982       21.966     1788.666      528.160      482.524        0.575        0.140       93.038       17.345        0.035      333.542        2.926      863.507
01/24/2022  20:17:00      -61.962       12.977       -6.198       33.261       20.643       14.015     1106.293      426.146      196.407        0.289        0.086       63.306       14.075        0.049      333.621        3.057      863.501
01/24/2022  20:18:00     -103.007       15.850       -9.438       24.476       16.845       14.199      599.063      283.758      201.606        0.602        0.054      104.219       11.324        0.012      333.697        3.182      863.482
01/24/2022  20:19:00      -58.130        5.224        0.115       41.249       24.756       19.043     1701.505      612.850      362.626        0.304        0.134       58.364       18.120        0.096      333.641        3.090      863.453
01/24/2022  20:20:00      -93.187       26.029      -11.433       23.844       17.469       16.316      568.522      305.153      266.219        0.532        0.057       96.754       13.497        0.019      333.543        2.927      863.429
01/24/2022  20:21:00      -76.387       13.608       -4.748       27.934       21.320       14.478      780.293      454.529      209.622        0.374        0.072       77.589       10.268        0.018      333.465        2.797      863.412
01/24/2022  20:22:00      -58.331       13.215       -8.625       23.459       21.865       14.929      550.318      478.063      222.878        0.245        0.063       59.809        9.688        0.026      333.458        2.787      863.416
01/24/2022  20:23:00      -63.342       24.945      -10.326       13.726       11.109        8.687      188.406      123.407       75.471        0.256        0.019       68.077        5.221        0.006      333.652        3.108      863.428
01/24/2022  20:24:00      -69.742       34.010      -14.686        8.945        9.824        6.863       80.015       96.512       47.100        0.323        0.011       77.593        3.376        0.002      334.013        3.706      863.447
01/24/2022  20:25:00      -61.431       33.987      -11.957       10.961        7.656        5.928      120.134       58.608       35.138        0.264        0.011       70.205        4.285        0.004      333.948        3.599      863.467
01/24/2022  20:26:00      -49.598       20.494      -13.964       17.453       12.640       13.585      304.622      159.779      184.560        0.186        0.032       53.665       11.208        0.044      333.847        3.431      863.476
01/24/2022  20:27:00      -54.308       30.519      -18.552       14.977       12.719       11.662      224.314      161.770      136.005        0.237        0.026       62.296        6.286        0.010      333.762        3.290      863.495
01/24/2022  20:28:00      -69.003       25.615      -17.625       16.379       20.834       14.606      268.261      434.075      213.349        0.332        0.046       73.604       10.766        0.021      333.635        3.079      863.509
01/24/2022  20:29:00      -68.413       26.650      -12.538       12.567       16.498        9.857      157.920      272.200       97.154        0.304        0.026       73.420        3.261        0.002      333.573        2.978      863.509
01/24/2022  20:30:00      -61.418       -9.071      -13.199       27.378       18.729       18.031      749.541      350.770      325.127        0.273        0.071       62.084       13.509        0.047      333.484        2.830      863.511
01/24/2022  20:31:00      -67.839       21.661      -13.412       37.926       26.823       18.909     1438.388      719.490      357.540        0.388        0.126       71.213       22.227        0.097      333.401        2.693      863.515
01/24/2022  20:32:00      -51.578       -5.146      -14.129       26.984       28.379       17.598      728.155      805.361      309.704        0.236        0.092       51.834       12.209        0.055      333.271        2.479      863.522
01/24/2022  20:33:00      -66.285       25.835      -12.231       38.564       30.699       16.898     1487.144      942.399      285.549        0.396        0.136       71.142       10.530        0.022      333.387        2.669      863.531
01/24/2022  20:34:00      -31.134       15.521       -8.876       37.736       24.033       13.370     1424.031      577.575      178.762        0.173        0.109       34.788        8.922        0.066      333.342        2.595      863.552
01/24/2022  20:35:00      -31.130        6.529      -16.796       21.153       15.990       17.079      447.462      255.669      291.701        0.114        0.050       31.807       14.200        0.199      333.341        2.592      863.567
01/24/2022  20:36:00       -7.664       11.574      -11.335       11.485       13.615       17.387      131.907      185.360      302.295        0.047        0.031       13.881       11.142        0.644      333.503        2.862      863.589
01/24/2022  20:37:00      -24.584       -1.124      -10.136       19.507        7.682       14.650      380.541       59.021      214.635        0.068        0.033       24.610        8.442        0.118      333.599        3.020      863.604
01/24/2022  20:38:00      -53.174       11.207      -18.246       21.880       22.342       16.179      478.729      499.179      261.747        0.226        0.062       54.342       12.739        0.055      333.396        2.685      863.607
01/24/2022  20:39:00      -41.419       11.836      -10.048       26.959       25.261       19.994      726.789      638.096      399.746        0.186        0.088       43.077       20.122        0.218      333.285        2.501      863.616
01/24/2022  20:40:00      -50.274       27.410      -17.267       19.592       12.590       14.153      383.837      158.502      200.313        0.216        0.037       57.261        7.005        0.015      333.446        2.766      863.619
01/24/2022  20:41:00      -37.976       23.099      -19.169       14.651        9.394        7.375      214.656       88.249       54.389        0.135        0.018       44.449        3.853        0.008      333.361        2.627      863.602
01/24/2022  20:42:00      -71.216       24.063      -19.115       18.782        8.871        9.428      352.767       78.691       88.883        0.327        0.026       75.172        9.812        0.017      333.389        2.672      863.583
01/24/2022  20:43:00      -91.070       28.057      -27.337        8.299        9.677        7.176       68.871       93.648       51.490        0.502        0.011       95.294        2.911        0.001      333.401        2.692      863.566
01/24/2022  20:44:00      -77.330        9.628      -20.466       15.733       13.745       12.465      247.541      188.924      155.367        0.354        0.030       77.927        7.633        0.010      333.419        2.722      863.549
01/24/2022  20:45:00      -66.184       -0.639      -17.015       25.572       22.204       16.027      653.930      493.023      256.865        0.304        0.070       66.187        5.819        0.008      333.365        2.633      863.547
01/24/2022  20:46:00     -116.615       23.515       -8.108       27.119       21.984       23.345      735.416      483.305      545.007        0.799        0.088      118.962       17.918        0.023      333.468        2.803      863.550
01/24/2022  20:47:00      -88.479       10.247       -7.508       61.290       23.644       16.834     3756.411      559.030      283.369        0.629        0.230       89.071       15.635        0.031      333.419        2.723      863.549
01/24/2022  20:48:00      -38.532      -10.039       -5.186       42.331       28.458       27.767     1791.940      809.883      771.021        0.249        0.169       39.818       25.271        0.403      333.319        2.557      863.563
01/24/2022  20:49:00       -5.093       15.157       -4.012       35.860       22.218       25.073     1285.929      493.653      628.653        0.134        0.120       15.990       11.914        0.555      333.243        2.432      863.593
01/24/2022  20:50:00      -86.853       15.275        3.340       67.131       31.147       31.345     4506.598      970.165      982.501        0.712        0.323       88.186       26.238        0.089      333.233        2.414      863.615
01/24/2022  20:51:00      -91.824       11.201       -5.410       73.043       37.631       29.181     5335.335     1416.083      851.553        0.809        0.380       92.505       28.898        0.098      333.210        2.377      863.644
01/24/2022  20:52:00      -94.900       15.656      -15.743       41.724       33.813       27.525     1740.933     1143.313      757.630        0.657        0.182       96.183       28.776        0.090      333.134        2.252      863.667
01/24/2022  20:53:00     -120.697       63.441      -13.018       44.787       38.464       21.268     2005.898     1479.449      452.320        1.135        0.197      136.354       20.554        0.023      333.132        2.249      863.680
01/24/2022  20:54:00     -135.396       65.728       -6.619       40.241       34.703       25.293     1619.369     1204.295      639.726        1.308        0.173      150.507       20.316        0.018      333.114        2.219      863.694
01/24/2022  20:55:00     -149.155       72.679       -4.879       48.325       46.480       34.177     2335.296     2160.418     1168.063        1.661        0.283      165.920       27.751        0.028      333.045        2.104      863.709
01/24/2022  20:56:00     -145.604       47.410      -12.782       56.046       33.297       32.481     3141.158     1108.673     1055.046        1.446        0.265      153.128       28.863        0.036      333.047        2.107      863.704
01/24/2022  20:57:00     -128.426       47.333       -4.423       42.410       33.101       22.986     1798.608     1095.645      528.344        1.109        0.171      136.871       20.352        0.022      333.058        2.125      863.690
01/24/2022  20:58:00      -97.540       24.202      -13.101       33.507       26.101       17.395     1122.692      681.245      302.577        0.619        0.105      100.498       15.312        0.023      333.095        2.188      863.668
01/24/2022  20:59:00      -68.296       25.273       -9.432       31.592       21.463       18.932      998.064      460.666      358.426        0.360        0.091       72.822       17.189        0.056      333.030        2.079      863.678
01/24/2022  21:00:00      -78.935       36.957       -4.802       24.549       18.898       12.419      602.644      357.152      154.243        0.437        0.056       87.158       10.679        0.015      333.079        2.161      863.679
01/24/2022  21:01:00      -69.368       42.919      -16.595       16.364       15.727       12.046      267.795      247.345      145.095        0.379        0.033       81.572        9.039        0.012      333.187        2.337      863.694
01/24/2022  21:02:00      -97.639       30.290      -19.811        9.604       14.450        8.297       92.246      208.788       68.834        0.561        0.018      102.229        1.435        0.000      333.198        2.356      863.708
01/24/2022  21:03:00      -57.997        5.682      -13.883       26.795       21.878       12.416      717.966      478.631      154.168        0.247        0.068       58.274        4.303        0.005      333.210        2.375      863.721
01/24/2022  21:04:00     -105.270       18.012      -19.519       27.453       19.531       17.986      753.667      381.473      323.499        0.662        0.073      106.800        8.376        0.006      333.184        2.334      863.732
01/24/2022  21:05:00      -72.299       12.759      -13.060       22.574       22.057       21.556      509.579      486.507      464.676        0.351        0.073       73.416       10.833        0.022      333.077        2.157      863.735
01/24/2022  21:06:00      -78.286       21.978      -12.427       20.073       20.679       16.627      402.937      427.613      276.441        0.394        0.055       81.313       13.793        0.029      333.137        2.255      863.742
01/24/2022  21:07:00      -82.360       38.618      -17.898       17.724       17.099       12.548      314.135      292.392      157.455        0.468        0.038       90.964        7.897        0.008      333.101        2.197      863.741
01/24/2022  21:08:00      -93.490       56.660      -15.978       13.918       15.496       10.777      193.722      240.124      116.139        0.638        0.027      109.320        3.795        0.001      333.208        2.376      863.744
01/24/2022  21:09:00      -90.495       60.401      -20.235       10.465       12.257       10.214      109.523      150.223      104.317        0.631        0.018      108.801        4.388        0.002      333.241        2.428      863.755
01/24/2022  21:10:00      -80.589       49.667      -18.776       13.643       12.064        9.045      186.142      145.544       81.809        0.486        0.021       94.665        6.284        0.004      333.219        2.391      863.765
01/24/2022  21:11:00      -75.681       34.255      -16.930       21.076       13.620       16.220      444.196      185.500      263.091        0.404        0.045       83.072       11.178        0.018      333.208        2.373      863.766
01/24/2022  21:12:00      -83.367       38.642      -16.511       17.251       12.689       13.588      297.587      161.020      184.637        0.468        0.032       91.887        2.883        0.001      333.236        2.419      863.777
01/24/2022  21:13:00      -69.458       28.441      -20.709       17.015       18.185       15.536      289.512      330.692      241.372        0.346        0.043       75.055        8.174        0.012      333.168        2.306      863.794
01/24/2022  21:14:00      -80.854       17.535      -20.726        9.116        7.425        6.690       83.103       55.127       44.761        0.373        0.009       82.734        1.496        0.000      333.378        2.653      863.797
01/24/2022  21:15:00      -74.323        6.619      -13.878       18.889       15.471       13.900      356.791      239.342      193.202        0.327        0.039       74.617        3.779        0.003      333.365        2.634      863.799
01/24/2022  21:16:00      -59.648        7.500       -9.284       23.648       13.332       19.013      559.225      177.738      361.491        0.240        0.055       60.118       15.542        0.067      333.410        2.706      863.800
01/24/2022  21:17:00      -66.453       -5.546      -12.554       30.988       17.725       13.120      960.274      314.167      172.136        0.303        0.072       66.684       10.325        0.024      333.414        2.714      863.793
01/24/2022  21:18:00      -76.026       16.960       -4.244       31.122       12.729       13.571      968.593      162.038      184.165        0.370        0.066       77.895       17.088        0.048      333.284        2.499      863.781
01/24/2022  21:19:00      -91.539        4.240       -9.175       17.523       17.922        8.612      307.048      321.215       74.159        0.459        0.035       91.637        7.250        0.006      333.532        2.909      863.772
01/24/2022  21:20:00      -93.633       24.138      -14.999       18.082       12.162        9.273      326.964      147.917       85.996        0.507        0.028       96.695        5.425        0.003      333.466        2.799      863.772
01/24/2022  21:21:00      -92.014       10.408      -16.013       17.284       12.105       11.190      298.727      146.525      125.211        0.470        0.029       92.601        6.937        0.006      333.587        3.000      863.765
01/24/2022  21:22:00      -87.602        7.858      -13.079       35.141       24.117       19.549     1234.866      581.647      382.161        0.505        0.110       87.954       20.026        0.052      333.521        2.892      863.774
01/24/2022  21:23:00     -129.688        9.573       -5.532       40.713       27.878       21.385     1657.577      777.185      457.300        0.992        0.145      130.041       18.068        0.019      333.329        2.574      863.794
01/24/2022  21:24:00      -60.571        0.744        5.966       73.053       35.680       36.675     5336.722     1273.051     1345.084        0.583        0.398       60.575       38.278        0.399      333.308        2.540      863.812
01/24/2022  21:25:00     -144.433       -8.111       -7.831       54.327       50.903       34.201     2951.445     2591.119     1169.679        1.385        0.336      144.661       25.562        0.031      333.298        2.520      863.826
01/24/2022  21:26:00     -164.377      -13.959       -8.874       68.924       41.790       32.278     4750.524     1746.372     1041.891        1.741        0.377      164.969       25.666        0.024      333.306        2.534      863.827
01/24/2022  21:27:00     -149.342       -0.048       -1.888       77.162       44.793       35.632     5953.972     2006.409     1269.651        1.577        0.462      149.342       36.831        0.061      333.214        2.382      863.835
01/24/2022  21:28:00     -113.904       -5.169       -1.709       51.801       35.194       26.939     2683.378     1238.649      725.692        0.882        0.232      114.022       26.698        0.055      333.212        2.379      863.847
01/24/2022  21:29:00      -98.978        8.283       -5.808       61.803       36.913       30.374     3819.666     1362.577      922.588        0.800        0.305       99.324       29.381        0.088      333.194        2.348      863.843
01/24/2022  21:30:00     -163.296      -16.018       -7.520       45.957       45.045       32.032     2112.031     2029.053     1026.059        1.607        0.258      164.079       25.422        0.024      333.200        2.358      863.832
01/24/2022  21:31:00      -98.761       -4.771       -1.230       59.108       34.353       28.195     3493.804     1180.152      794.971        0.762        0.273       98.876       24.319        0.060      333.199        2.358      863.851
01/24/2022  21:32:00      -99.117       14.890        3.288       68.743       33.077       26.256     4725.629     1094.091      689.378        0.828        0.325      100.229       24.553        0.060      333.173        2.316      863.873
01/24/2022  21:33:00      -72.533      -12.127       -9.828       44.232       28.414       25.095     1956.439      807.356      629.775        0.445        0.170       73.540        8.950        0.015      333.202        2.364      863.871
01/24/2022  21:34:00      -65.609       21.385       -2.765       33.349       26.171       17.040     1112.157      684.936      290.348        0.343        0.104       69.006       15.742        0.052      333.165        2.302      863.869
01/24/2022  21:35:00      -56.460       12.701       -9.249       29.049       34.544       16.540      843.866     1193.260      273.564        0.287        0.116       57.870       12.133        0.044      333.168        2.308      863.876
01/24/2022  21:36:00      -80.380        7.680       -5.525       27.908       29.228       17.728      778.851      854.258      314.277        0.425        0.097       80.746        9.536        0.014      333.092        2.182      863.889
01/24/2022  21:37:00      -70.861        1.895       -9.932       46.543       22.312       21.068     2166.238      497.846      443.873        0.412        0.155       70.886       24.448        0.119      333.187        2.339      863.892
01/24/2022  21:38:00      -76.663        4.922       -8.436       45.978       14.809       16.770     2113.973      219.304      281.228        0.429        0.131       76.820       20.459        0.071      333.349        2.606      863.871
01/24/2022  21:39:00     -108.389       -3.211      -11.189       29.258       24.955       15.013      856.056      622.775      225.396        0.679        0.085      108.436       12.639        0.014      333.408        2.704      863.870
01/24/2022  21:40:00      -83.920        6.744       -6.648       40.355       20.354       20.367     1628.495      414.301      414.832        0.479        0.123       84.190       20.810        0.061      333.272        2.479      863.865
01/24/2022  21:41:00      -71.999       -1.358       -5.218       31.475       33.026       23.338      990.691     1090.745      544.679        0.392        0.131       72.012       18.841        0.068      333.190        2.341      863.855
01/24/2022  21:42:00      -55.964       -1.429       -0.395       40.446       23.520       21.790     1635.899      553.203      474.805        0.290        0.133       55.983       23.905        0.182      333.191        2.346      863.844
01/24/2022  21:43:00      -54.744        8.672        0.622       38.557       27.078       21.928     1486.658      733.197      480.841        0.289        0.135       55.426       20.560        0.138      333.182        2.330      863.838
01/24/2022  21:44:00      -63.272        6.797       -1.212       40.304       23.752       20.374     1624.383      564.168      415.097        0.333        0.130       63.636       19.079        0.090      333.089        2.177      863.836
01/24/2022  21:45:00     -119.644       39.912       -5.141       42.984       22.326       18.874     1847.664      498.467      356.212        0.932        0.135      126.125       21.049        0.028      333.005        2.038      863.825
01/24/2022  21:46:00     -110.475       34.015       -0.683       47.801       24.443       22.897     2284.921      597.455      524.280        0.838        0.170      115.593       24.525        0.045      332.982        2.000      863.810
01/24/2022  21:47:00     -100.814       23.063       -3.115       41.632       24.296       21.052     1733.188      590.286      443.167        0.674        0.138      103.418       22.050        0.045      333.006        2.039      863.812
01/24/2022  21:48:00      -89.306       28.311       -9.544       38.925       31.619       24.117     1515.121      999.734      581.613        0.598        0.155       93.686       24.982        0.071      332.982        1.999      863.815
01/24/2022  21:49:00      -91.756       24.644        0.484       49.921       26.657       22.423     2492.131      710.616      502.807        0.637        0.185       95.008       20.958        0.049      333.066        2.138      863.812
01/24/2022  21:50:00      -94.946       14.391       -5.780       50.431       30.243       25.031     2543.263      914.667      626.532        0.667        0.204       96.031       24.120        0.063      333.086        2.170      863.823
01/24/2022  21:51:00      -81.295       14.316       -3.051       49.569       32.852       27.778     2457.064     1079.261      771.602        0.556        0.215       82.545       23.179        0.079      333.029        2.077      863.825
01/24/2022  21:52:00     -131.537       39.169       -8.687       40.154       27.936       24.349     1612.312      780.431      592.879        1.095        0.149      137.245       20.915        0.023      333.060        2.130      863.826
01/24/2022  21:53:00     -109.386       31.019      -12.560       42.950       28.830       22.921     1844.724      831.142      525.395        0.814        0.160      113.699       21.398        0.035      332.880        1.831      863.830
01/24/2022  21:54:00     -103.395       26.526      -11.550       28.969       24.482       20.308      839.219      599.351      412.421        0.669        0.093      106.743       16.311        0.023      332.820        1.733      863.819
01/24/2022  21:55:00     -104.151       32.703      -11.970       28.544       21.906       15.488      814.761      479.875      239.864        0.680        0.077      109.165       13.474        0.015      332.924        1.905      863.812
01/24/2022  21:56:00     -114.336       24.648       -0.169       35.035       26.263       23.297     1227.474      689.738      542.745        0.807        0.123      116.963       20.261        0.030      332.923        1.902      863.822
01/24/2022  21:57:00     -112.670       32.044       -9.297       20.543       23.421       16.912      422.025      548.525      286.005        0.753        0.063      117.138       12.826        0.012      333.098        2.191      863.834
01/24/2022  21:58:00     -108.328       50.643      -10.646       11.828       10.727       10.907      139.909      115.066      118.966        0.739        0.019      119.581        7.547        0.004      333.925        3.560      863.842
01/24/2022  21:59:00     -104.126       80.036      -18.111       11.693       20.732       12.031      136.734      429.833      144.747        0.914        0.036      131.331        9.633        0.005      334.285        4.153      863.852
01/24/2022  22:00:00      -96.160       72.345      -12.288       22.338       25.055       23.886      498.981      627.754      570.518        0.816        0.085      120.335       12.733        0.011      334.193        4.006      863.868
01/24/2022  22:01:00      -96.502       59.952      -13.745       22.257       22.874       18.713      495.395      523.229      350.171        0.723        0.068      113.608       12.892        0.013      333.849        3.434      863.877
01/24/2022  22:02:00     -120.512       93.010      -21.988       21.518       22.158       14.510      463.040      490.960      210.526        1.241        0.058      152.230       12.246        0.006      333.990        3.666      863.898
01/24/2022  22:03:00     -110.668       54.421      -15.312       37.104       43.159       28.285     1376.711     1862.734      800.029        0.974        0.202      123.325       29.111        0.056      333.856        3.446      863.908
01/24/2022  22:04:00     -123.445       58.220       -8.472       46.861       34.516       28.493     2195.991     1191.329      811.872        1.145        0.210      136.486       27.587        0.041      333.521        2.891      863.916
01/24/2022  22:05:00     -133.457       45.338      -11.736       39.960       25.012       24.184     1596.835      625.611      584.883        1.141        0.140      140.948       15.534        0.012      333.559        2.954      863.925
01/24/2022  22:06:00      -82.818       45.331      -13.383       44.884       24.873       23.419     2014.602      618.686      548.466        0.614        0.159       94.412       22.456        0.057      333.535        2.914      863.933
01/24/2022  22:07:00     -120.815       80.986      -14.765       39.063       39.563       26.718     1525.935     1565.222      713.864        1.259        0.190      145.448       13.852        0.009      333.687        3.166      863.934
01/24/2022  22:08:00     -138.501       61.390      -18.507       34.282       40.148       24.957     1175.241     1611.822      622.839        1.335        0.170      151.496       17.855        0.014      333.650        3.103      863.941
01/24/2022  22:09:00     -144.386       82.822      -25.007       31.339       35.493       26.056      982.116     1259.729      678.939        1.563        0.146      166.453       20.608        0.015      333.535        2.915      863.937
01/24/2022  22:10:00     -115.579       23.151      -24.654       42.422       40.798       24.903     1799.634     1664.452      620.165        0.929        0.204      117.875       15.685        0.018      333.314        2.548      863.928
01/24/2022  22:11:00     -119.154       34.534      -20.087       46.582       32.738       30.491     2169.865     1071.780      929.672        0.998        0.209      124.058       18.524        0.022      333.153        2.282      863.921
01/24/2022  22:12:00     -102.210       39.486      -17.394       60.961       31.547       24.752     3716.230      995.201      612.642        0.882        0.266      109.572       26.800        0.060      333.300        2.525      863.915
01/24/2022  22:13:00     -104.875       27.819      -14.290       43.025       42.859       25.393     1851.121     1836.914      644.794        0.815        0.217      108.502       14.359        0.018      333.026        2.073      863.916
01/24/2022  22:14:00       -1.913       -5.698       -4.683       29.691       24.849       21.341      881.558      617.465      455.434        0.101        0.098        6.011       15.045        6.265      332.847        1.777      863.922
01/24/2022  22:15:00      -54.467        0.879       -7.171       43.130       32.893       22.403     1860.176     1081.973      501.881        0.323        0.172       54.474       20.938        0.148      332.724        1.573      863.950
01/24/2022  22:16:00      -21.105       -1.231       -9.345       28.463       26.075       19.279      810.150      679.890      371.676        0.120        0.093       21.141       18.025        0.727      332.675        1.493      863.959
01/24/2022  22:17:00      -17.252       -1.551       -3.231       36.652       24.276       20.947     1343.368      589.330      438.777        0.134        0.119       17.322       19.503        1.268      332.720        1.565      863.967
01/24/2022  22:18:00      -72.390       19.731      -12.073       25.172       20.366       16.614      633.606      414.756      276.017        0.355        0.066       75.031       10.410        0.019      332.747        1.611      863.961
01/24/2022  22:19:00      -34.624       -0.835       -8.487       18.740       13.281       14.495      351.170      176.395      210.099        0.100        0.037       34.634       11.577        0.112      332.839        1.764      863.967
01/24/2022  22:20:00      -44.248       -6.027       -9.342       18.968       19.659       14.948      359.789      386.461      223.430        0.153        0.048       44.657        9.793        0.048      332.848        1.779      863.960
01/24/2022  22:21:00      -63.507      -17.147      -18.810       30.657       23.010       18.719      939.824      529.459      350.383        0.325        0.091       65.781       16.903        0.066      332.758        1.629      863.954
01/24/2022  22:22:00     -126.460       26.730      -24.575       28.491       16.289       13.927      811.732      265.335      193.963        0.929        0.064      129.254       10.512        0.007      332.777        1.662      863.950
01/24/2022  22:23:00     -101.532       12.240       -9.356       33.466       22.745       18.790     1119.980      517.333      353.078        0.627        0.100      102.268       14.877        0.021      332.704        1.541      863.948
01/24/2022  22:24:00     -110.788       28.634      -14.318       24.372       21.490       14.437      593.973      461.836      208.423        0.728        0.063      114.428        9.854        0.007      332.646        1.443      863.938
01/24/2022  22:25:00     -108.819       46.889      -13.021       28.461       21.175       15.720      810.022      448.375      247.133        0.786        0.075      118.491       11.512        0.009      332.679        1.499      863.944
01/24/2022  22:26:00     -103.811       42.014       -8.431       35.982       27.456       21.694     1294.697      753.829      470.623        0.757        0.126      111.990       14.661        0.017      332.641        1.436      863.960
01/24/2022  22:27:00      -60.968        5.257      -13.105       55.026       32.615       21.171     3027.874     1063.758      448.194        0.423        0.227       61.194        7.561        0.015      332.542        1.272      863.988
01/24/2022  22:28:00        1.001      -18.679      -11.318       17.488       32.111       12.132      305.844     1031.099      147.188        0.098        0.074       18.706        7.947        0.180      332.605        1.377      864.019
01/24/2022  22:29:00        7.013      -27.628      -16.481       16.632       32.312       14.630      276.619     1044.093      214.023        0.131        0.077       28.505        8.209        0.083      332.570        1.320      864.036
01/24/2022  22:30:00      -21.151      -19.275       -8.283       24.612       32.216       20.874      605.759     1037.862      435.722        0.148        0.104       28.616       14.069        0.242      332.540        1.268      864.046
01/24/2022  22:31:00      -33.829      -44.030      -21.244       19.423       25.688       13.968      377.256      659.892      195.105        0.238        0.062       55.525        9.825        0.031      332.508        1.216      864.058
01/24/2022  22:32:00      -51.112       -0.392       -9.840       17.740       19.037       12.808      314.720      362.417      164.057        0.178        0.042       51.114        9.340        0.033      332.602        1.372      864.081
01/24/2022  22:33:00      -54.292       26.682       -6.552       18.785       15.532       10.438      352.876      241.236      108.962        0.220        0.035       60.494        4.636        0.006      332.563        1.308      864.098
01/24/2022  22:34:00      -16.471      -23.954       -9.375       22.390       18.685       13.543      501.328      349.128      183.422        0.098        0.052       29.070       12.020        0.171      332.741        1.602      864.108
01/24/2022  22:35:00      -49.255      -15.492      -19.237       27.462       25.102       19.800      754.161      630.092      392.043        0.241        0.089       51.634       13.418        0.068      332.726        1.576      864.113
01/24/2022  22:36:00      -80.254      -45.227       -3.492       47.565       47.941       26.784     2262.395     2298.379      717.368        0.689        0.264       92.121       14.308        0.024      332.742        1.602      864.120
01/24/2022  22:37:00      -37.168        4.008       -4.233       25.354       36.069       26.450      642.824     1300.981      699.583        0.203        0.132       37.384       22.195        0.352      332.718        1.563      864.130
01/24/2022  22:38:00      -36.392       -8.613       -9.002       25.337       15.836       16.718      641.957      250.763      279.487        0.133        0.059       37.397       10.664        0.081      332.781        1.668      864.143
01/24/2022  22:39:00       -2.384      -19.215        1.323       11.180       15.674       12.746      124.994      245.667      162.459        0.045        0.027       19.363        6.045        0.097      332.687        1.512      864.155
01/24/2022  22:40:00      -33.806      -16.119       -2.790       36.769       22.353       16.427     1351.965      499.650      269.830        0.177        0.106       37.452       16.799        0.201      332.653        1.457      864.176
01/24/2022  22:41:00      -49.042       -3.904       -6.374       31.105       25.079       16.332      967.540      628.975      266.729        0.216        0.093       49.197       12.452        0.064      332.692        1.520      864.171
01/24/2022  22:42:00      -88.967       -7.438       -6.083       39.723       29.909       22.735     1577.940      894.565      516.881        0.550        0.149       89.277       22.483        0.063      332.709        1.549      864.151
01/24/2022  22:43:00      -66.241        2.748       -7.801       38.124       33.714       21.063     1453.440     1136.656      443.651        0.374        0.152       66.298       16.348        0.061      332.637        1.429      864.144
01/24/2022  22:44:00      -75.387        4.094        1.875       42.773       30.720       23.188     1829.530      943.711      537.697        0.451        0.166       75.498       18.932        0.063      332.634        1.424      864.137
01/24/2022  22:45:00      -33.408        0.400        0.076       39.655       23.344       23.657     1572.542      544.937      559.648        0.190        0.134       33.411       21.904        0.430      332.635        1.426      864.130
01/24/2022  22:46:00        2.036       -6.076       -2.064       14.723       15.782       12.055      216.772      249.071      145.318        0.033        0.031        6.408        9.073        2.005      332.570        1.320      864.118
01/24/2022  22:47:00       11.826       17.729      -15.692       18.644       20.993       12.564      347.581      440.717      157.863        0.082        0.047       21.311        7.687        0.130      332.602        1.373      864.121
01/24/2022  22:48:00       20.601       16.166      -10.134       13.901       13.403        7.231      193.236      179.645       52.286        0.061        0.021       26.186        8.767        0.112      332.538        1.265      864.131
01/24/2022  22:49:00       -3.360      -10.400       -6.736        9.567       10.456        8.180       91.523      109.331       66.909        0.022        0.013       10.929        5.916        0.293      332.619        1.400      864.140
01/24/2022  22:50:00       27.079        6.974       -6.704       25.707       11.052        6.209      660.842      122.149       38.546        0.082        0.041       27.962        5.717        0.042      332.537        1.264      864.159
01/24/2022  22:51:00       83.202       25.062       -9.300       16.140       13.345        8.824      260.495      178.085       77.868        0.408        0.026       86.895        3.750        0.002      332.380        1.004      864.146
01/24/2022  22:52:00       84.460        6.477      -17.168       36.144       25.514       18.283     1306.418      650.946      334.272        0.488        0.115       84.708        5.542        0.004      332.089        0.523      864.107
01/24/2022  22:53:00       59.706       14.587      -12.414       33.603       30.059       15.467     1129.177      903.568      239.218        0.310        0.114       61.462       10.461        0.029      331.876        0.173      864.120
01/24/2022  22:54:00       -4.838       24.492      -10.042       12.764       16.909        8.399      162.920      285.904       70.540        0.062        0.026       24.966        8.956        0.129      331.974        0.336      864.120
01/24/2022  22:55:00      -39.325        7.412       -6.696       16.031        8.861        7.999      256.981       78.526       63.982        0.102        0.020       40.017        8.722        0.048      332.071        0.495      864.118
01/24/2022  22:56:00      -46.961        0.598       -8.575       21.020       23.508       11.634      441.825      552.608      135.351        0.170        0.056       46.965        8.797        0.035      332.118        0.572      864.113
01/24/2022  22:57:00     -103.744      -16.564      -10.880       27.129       25.716       16.859      735.978      661.292      284.235        0.642        0.084      105.058        6.658        0.004      332.249        0.789      864.106
01/24/2022  22:58:00      -69.087      -11.532        0.136       44.945       24.985       21.134     2020.027      624.263      446.650        0.400        0.155       70.043       23.760        0.115      332.331        0.923      864.108
01/24/2022  22:59:00     -131.575      -14.462      -11.195       41.767       26.294       20.904     1744.524      691.349      436.958        1.026        0.144      132.367       24.093        0.033      332.406        1.047      864.103
01/24/2022  23:00:00     -182.022      -35.459      -20.086       51.818       35.671       24.605     2685.144     1272.391      605.423        1.968        0.228      185.443       16.989        0.008      332.572        1.320      864.084
01/24/2022  23:01:00     -194.245      -20.324       -6.185       69.986       53.106       34.335     4898.081     2820.218     1178.917        2.354        0.445      195.306       37.981        0.038      332.673        1.485      864.053
01/24/2022  23:02:00     -227.342       -6.458      -11.160       59.373       36.302       33.953     3525.166     1317.861     1152.822        2.892        0.300      227.433       35.426        0.024      332.548        1.277      864.038
01/24/2022  23:03:00     -199.686       -3.072      -10.061       50.561       34.928       29.842     2556.378     1219.963      890.554        2.233        0.233      199.710       27.279        0.019      332.497        1.195      864.031
01/24/2022  23:04:00     -169.689       -3.526      -15.083       64.043       50.961       37.149     4101.550     2596.978     1380.078        1.855        0.404      169.726       38.572        0.052      332.474        1.157      864.027
01/24/2022  23:05:00     -136.515       -3.687       -2.273       62.949       38.667       29.327     3962.523     1495.175      860.072        1.249        0.316      136.565       21.516        0.025      332.478        1.166      864.040
01/24/2022  23:06:00      -63.302       -9.049       -2.066       55.083       35.141       21.432     3034.188     1234.909      459.332        0.441        0.236       63.946       13.697        0.046      332.512        1.223      864.065
01/24/2022  23:07:00      -24.343      -19.915      -19.408       22.162       19.413       17.204      491.140      376.853      295.979        0.126        0.058       31.452       13.559        0.186      332.500        1.202      864.105
01/24/2022  23:08:00        0.249       22.255       -4.358       11.055       15.716        7.542      122.212      246.990       56.885        0.047        0.021       22.256        3.015        0.018      332.509        1.217      864.153
01/24/2022  23:09:00      -10.742        5.981       -5.893       11.602       11.175       14.621      134.603      124.877      213.783        0.033        0.024       12.294        9.169        0.556      332.302        0.876      864.188
01/24/2022  23:10:00       15.619       -5.805       -9.558       12.765       12.147        9.160      162.935      147.545       83.905        0.038        0.020       16.663        5.200        0.097      332.257        0.802      864.226
01/24/2022  23:11:00       21.070        8.246       -5.036       12.933       12.581        7.190      167.258      158.292       51.694        0.046        0.019       22.626        5.133        0.051      332.170        0.657      864.252
01/24/2022  23:12:00        6.509       32.013       -3.589       12.629        9.151        7.106      159.481       83.737       50.500        0.069        0.015       32.668        4.618        0.020      332.021        0.414      864.271
01/24/2022  23:13:00      -56.013       25.043      -13.788       22.332       26.045       16.732      498.728      678.337      279.951        0.271        0.073       61.357       14.435        0.055      332.043        0.448      864.277
01/24/2022  23:14:00      -83.698        9.961      -10.263       24.668       13.380       14.136      608.523      179.033      199.821        0.410        0.049       84.289        9.249        0.012      332.063        0.482      864.285
01/24/2022  23:15:00      -68.996       14.081       -9.365       27.720       17.381       12.907      768.414      302.100      166.579        0.314        0.062       70.418        9.958        0.020      332.063        0.482      864.297
01/24/2022  23:16:00      -25.246       -2.412      -12.645       32.371       17.437       10.232     1047.889      304.047      104.686        0.113        0.073       25.361       11.929        0.221      332.129        0.591      864.314
01/24/2022  23:17:00       15.310      -24.352      -13.614       11.029       12.710       10.733      121.630      161.538      115.195        0.071        0.020       28.765        5.073        0.031      332.224        0.746      864.344
01/24/2022  23:18:00       11.086      -15.095       -6.056       11.903       11.383       12.920      141.687      129.573      166.924        0.041        0.022       18.729        9.344        0.249      332.175        0.665      864.366
01/24/2022  23:19:00        9.841       -8.566       -7.635        8.528        7.955        8.222       72.733       63.283       67.605        0.022        0.010       13.047        5.687        0.190      332.157        0.634      864.351
01/24/2022  23:20:00        3.938       -1.176       -3.648        4.084        6.567        5.091       16.678       43.129       25.915        0.006        0.004        4.110        2.161        0.276      332.060        0.478      864.313
01/24/2022  23:21:00        3.356       11.000       -4.109        5.137        8.288        4.543       26.389       68.697       20.640        0.013        0.006       11.500        3.396        0.087      332.148        0.620      864.282
01/24/2022  23:22:00      -10.617       39.161       -2.426       11.714       10.465        5.841      137.221      109.517       34.114        0.097        0.014       40.574        6.097        0.023      332.184        0.681      864.263
01/24/2022  23:23:00      -21.818       73.776       -8.923        9.033       16.543        8.486       81.592      273.686       72.004        0.321        0.021       76.934        2.961        0.001      332.218        0.737      864.253
01/24/2022  23:24:00      -27.700       67.903       -8.073       16.632       17.232       11.263      276.625      296.931      126.851        0.307        0.035       73.336        4.721        0.004      332.239        0.772      864.226
01/24/2022  23:25:00      -48.702       43.070      -12.084       13.283       14.750        8.585      176.435      217.549       73.703        0.242        0.023       65.015        5.516        0.007      332.207        0.720      864.214
01/24/2022  23:26:00      -64.476       24.670      -14.000       11.452       11.055       10.887      131.157      122.210      118.536        0.267        0.019       69.035        6.035        0.008      332.035        0.435      864.224
01/24/2022  23:27:00      -40.439        8.644      -12.864        8.419        8.175        7.799       70.883       66.829       60.825        0.104        0.010       41.353        0.406        0.000      331.952        0.299      864.235
01/24/2022  23:28:00      -23.177        7.306      -10.357       10.030        9.092        8.175      100.603       82.673       66.835        0.047        0.013       24.301        5.221        0.046      332.302        0.876      864.237
01/24/2022  23:29:00      -14.814       22.423       -5.982       14.256       11.239        8.350      203.227      126.312       69.722        0.058        0.020       26.875        4.406        0.027      332.362        0.974      864.235
01/24/2022  23:30:00      -19.333        6.196       -5.537       15.166       20.273        8.797      230.015      411.002       77.382        0.058        0.036       20.301        9.022        0.197      332.210        0.723      864.233
01/24/2022  23:31:00        5.723        3.934       -2.718       18.143       12.583       15.110      329.168      158.328      228.306        0.039        0.036        6.945       13.015        3.512      332.308        0.886      864.239
01/24/2022  23:32:00       -9.082       10.313       -4.421       14.001       11.114       10.372      196.040      123.514      107.588        0.032        0.021       13.742        4.261        0.096      332.275        0.831      864.250
01/24/2022  23:33:00      -22.021       12.545      -12.170       22.303       12.563        7.210      497.423      157.841       51.984        0.075        0.035       25.344        2.925        0.013      331.987        0.355      864.270
01/24/2022  23:34:00      -64.654       15.584      -16.202       21.376       19.132       11.939      456.946      366.020      142.534        0.283        0.048       66.506        6.223        0.009      331.913        0.235      864.300
01/24/2022  23:35:00      -63.057       -4.490      -15.094       36.695       24.721       25.372     1346.511      611.105      643.715        0.341        0.130       63.217       21.430        0.115      331.693       -0.127      864.321
01/24/2022  23:36:00      -53.160        2.838       -2.454       39.437       32.046       30.254     1555.250     1026.934      915.333        0.317        0.175       53.235       28.660        0.290      331.569       -0.332      864.334
01/24/2022  23:37:00      -90.375        0.470       -9.301       33.588       25.104       22.294     1128.173      630.222      497.023        0.525        0.113       90.377       20.278        0.050      331.733       -0.061      864.359
01/24/2022  23:38:00     -112.311       20.907      -11.894       15.450       16.810       13.958      238.695      282.578      194.818        0.695        0.036      114.240        8.174        0.005      331.776        0.009      864.375
01/24/2022  23:39:00     -101.124      -18.992      -10.878       36.446       24.037       17.000     1328.330      577.766      289.010        0.645        0.110      102.892       16.813        0.027      331.981        0.347      864.355
01/24/2022  23:40:00      -93.337       -1.327       -9.041       33.434       25.272       21.836     1117.845      638.675      476.802        0.551        0.112       93.346       17.051        0.033      331.975        0.336      864.340
01/24/2022  23:41:00     -102.533       -4.722      -13.087       23.472       16.687       16.897      550.945      278.442      285.523        0.591        0.056      102.642       14.015        0.019      332.334        0.928      864.332
01/24/2022  23:42:00      -45.122        5.020       -1.957       22.591       20.929       15.169      510.350      438.005      230.101        0.162        0.059       45.401       12.988        0.082      332.193        0.696      864.326
01/24/2022  23:43:00      -35.623       -7.094       -4.668       27.093       18.516        9.795      734.020      342.827       95.951        0.126        0.059       36.323        7.098        0.038      332.082        0.512      864.316
01/24/2022  23:44:00       -7.439       -9.208       -6.858       14.938       12.427        7.165      223.147      154.420       51.343        0.031        0.021       11.837        6.485        0.300      332.071        0.494      864.318
01/24/2022  23:45:00       -9.685        6.914      -11.285        5.207        5.978        4.605       27.115       35.731       21.207        0.018        0.004       11.900        0.879        0.005      332.124        0.581      864.322
01/24/2022  23:46:00       -5.419       -9.684       -5.025        6.878       11.375        8.508       47.302      129.398       72.388        0.020        0.012       11.097        4.711        0.180      332.156        0.635      864.310
01/24/2022  23:47:00      -30.676      -20.304      -14.604       13.216        8.874        7.827      174.650       78.749       61.268        0.094        0.016       36.787        4.269        0.013      331.976        0.338      864.276
01/24/2022  23:48:00      -15.590       -0.672       -8.624        9.422       15.069        8.938       88.773      227.077       79.885        0.036        0.020       15.604        8.121        0.271      331.986        0.355      864.246
01/24/2022  23:49:00      -36.928       12.962      -11.119        8.429       16.512        6.691       71.052      272.636       44.764        0.102        0.019       39.136        5.199        0.018      332.075        0.501      864.247
01/24/2022  23:50:00      -35.566       38.366       -8.232        7.194        7.585        5.963       51.759       57.528       35.557        0.147        0.007       52.316        3.925        0.006      331.993        0.366      864.282
01/24/2022  23:51:00      -57.973       39.860      -11.090       18.022       15.269        8.193      324.778      233.154       67.123        0.285        0.031       70.354        6.866        0.010      331.931        0.265      864.310
01/24/2022  23:52:00      -61.784       12.683      -22.594       33.859       24.593       19.368     1146.458      604.815      375.113        0.331        0.106       63.072       15.650        0.062      331.754       -0.026      864.308
01/24/2022  23:53:00      -71.280        6.290      -11.893       41.794       24.039       20.121     1746.749      577.870      404.841        0.400        0.136       71.557       19.311        0.073      331.611       -0.261      864.280
01/24/2022  23:54:00      -58.459        5.159      -14.111       17.631       18.157       13.697      310.867      329.679      187.600        0.224        0.041       58.686        4.494        0.006      331.640       -0.214      864.231
01/24/2022  23:55:00      -61.605       17.610      -13.947       16.512       12.653       12.354      272.659      160.087      152.610        0.244        0.029       64.073        9.562        0.022      331.713       -0.093      864.203
01/24/2022  23:56:00      -88.467       31.091       -6.582       18.460       11.892       10.890      340.783      141.421      118.589        0.472        0.030       93.771        3.708        0.002      331.625       -0.236      864.228
01/24/2022  23:57:00      -77.893       15.956      -13.238       12.545        7.968        5.561      157.386       63.487       30.921        0.337        0.013       79.510        2.687        0.001      331.868        0.162      864.287
01/24/2022  23:58:00      -25.473       14.938      -17.873       21.731        9.187       11.182      472.235       84.399      125.030        0.094        0.034       29.530        6.503        0.049      331.825        0.092      864.324
01/24/2022  23:59:00       21.152       -8.039      -10.019       18.586       14.297       10.525      345.439      204.402      110.773        0.064        0.033       22.628        9.013        0.159      331.858        0.146      864.326
01/25/2022  00:00:00       14.910       -4.380      -11.859       17.976       19.971       19.119      323.123      398.846      365.518        0.073        0.054       15.541        8.793        0.320      331.824        0.088      864.306
01/25/2022  00:01:00        0.107       -1.502       -9.032       21.298       18.854       10.889      453.592      355.491      118.574        0.051        0.046        1.506        8.897       34.908      331.781        0.017      864.311
01/25/2022  00:02:00      -16.793      -17.438      -10.819       12.009       12.929       10.168      144.222      167.147      103.395        0.056        0.021       24.209        8.130        0.113      331.929        0.260      864.325
01/25/2022  00:03:00      -15.139       -5.466       -7.937       17.717       14.791       14.795      313.899      218.764      218.888        0.054        0.038       16.096        7.890        0.240      331.993        0.366      864.326
01/25/2022  00:04:00      -41.747       14.327      -10.387       10.780       12.004        9.885      116.213      144.101       97.721        0.121        0.018       44.137        4.370        0.010      331.690       -0.132      864.340
01/25/2022  00:05:00      -14.392       -0.959       -2.574       12.664       11.556        6.867      160.380      133.544       47.156        0.028        0.017       14.424        7.289        0.255      331.915        0.238      864.337
01/25/2022  00:06:00       26.091      -12.737      -10.460       15.654       18.452       13.064      245.062      340.489      170.668        0.085        0.038       29.034       13.025        0.201      331.859        0.149      864.293
01/25/2022  00:07:00       39.446      -24.356      -14.655       18.185       13.617       15.361      330.712      185.425      235.963        0.156        0.038       46.359       10.863        0.055      331.737       -0.054      864.250
01/25/2022  00:08:00       29.611      -12.208      -13.243       13.935       14.496       14.731      194.191      210.144      216.998        0.091        0.031       32.029        9.745        0.093      331.759       -0.018      864.254
01/25/2022  00:09:00       -1.312      -13.426      -12.396       13.644       12.842       10.964      186.171      164.928      120.214        0.040        0.024       13.490        9.205        0.466      331.908        0.229      864.308
01/25/2022  00:10:00      -14.551      -33.235       -6.659       19.601       13.345       12.372      384.205      178.080      153.066        0.104        0.036       36.281        6.984        0.037      332.055        0.470      864.337
01/25/2022  00:11:00      -46.683      -19.020      -12.319       24.314       12.999       11.294      591.169      168.967      127.565        0.179        0.044       50.409       14.022        0.077      331.814        0.074      864.334
01/25/2022  00:12:00      -32.192       -3.919       -2.970       12.274       10.533        9.090      150.652      110.943       82.626        0.070        0.017       32.430        7.642        0.056      331.928        0.260      864.351
01/25/2022  00:13:00       -2.469       -8.513      -13.601       10.417       17.345       14.441      108.511      300.860      208.530        0.044        0.031        8.863       12.398        1.956      331.962        0.314      864.341
01/25/2022  00:14:00       29.059       42.418      -19.388       18.997       16.929       16.682      360.901      286.589      278.299        0.197        0.046       51.417       12.367        0.058      332.270        0.823      864.361
01/25/2022  00:15:00      -19.950       50.564       -9.662       15.237       11.833       11.616      232.167      140.013      134.936        0.178        0.025       54.357        5.488        0.010      332.095        0.533      864.370
01/25/2022  00:16:00      -28.938       34.322      -12.297       10.783       11.160        9.195      116.272      124.539       84.548        0.125        0.016       44.893        6.787        0.023      331.872        0.168      864.366
01/25/2022  00:17:00      -36.015        5.938       -7.971       10.383       11.629       10.050      107.805      135.231      101.005        0.087        0.017       36.501        3.433        0.009      331.767       -0.005      864.367
01/25/2022  00:18:00      -59.411       13.529      -15.231       26.520       13.158       12.770      703.319      173.121      163.072        0.249        0.052       60.932       12.267        0.041      331.752       -0.029      864.366
01/25/2022  00:19:00     -105.579       17.393      -21.004       24.591       20.860       15.699      604.703      435.157      246.449        0.659        0.064      107.003        5.219        0.002      331.619       -0.251      864.334
01/25/2022  00:20:00      -95.586       34.490       -9.860       25.718       13.765       13.983      661.424      189.488      195.512        0.573        0.052      101.618       11.516        0.013      331.495       -0.453      864.314
01/25/2022  00:21:00      -66.730       25.273       -0.326       24.638       16.945       15.012      607.051      287.131      225.354        0.311        0.056       71.356       11.907        0.028      331.464       -0.503      864.298
01/25/2022  00:22:00      -86.585       34.804       -2.820       26.347       14.909       15.341      694.184      222.281      235.361        0.493        0.058       93.319       13.567        0.021      331.496       -0.451      864.281
01/25/2022  00:23:00      -99.374       26.362      -11.280       17.223       13.080       13.655      296.622      171.098      186.447        0.568        0.033      102.811        8.930        0.008      331.536       -0.387      864.272
01/25/2022  00:24:00      -82.289       15.762       -7.198       20.240       18.896       12.522      409.661      357.068      156.797        0.400        0.046       83.785       11.657        0.019      331.535       -0.387      864.289
01/25/2022  00:25:00      -71.850       28.727       -4.873       20.537       17.254       11.969      421.772      297.698      143.259        0.344        0.043       77.380       11.941        0.024      331.487       -0.466      864.302
01/25/2022  00:26:00      -71.567       13.587      -12.944       15.385       10.235        8.586      236.702      104.759       73.714        0.294        0.021       72.845        7.170        0.010      331.747       -0.037      864.305
01/25/2022  00:27:00      -41.979        3.956       -9.958       31.856       19.023       19.395     1014.827      361.859      376.182        0.181        0.088       42.165       19.658        0.217      331.673       -0.159      864.317
01/25/2022  00:28:00      -93.993       22.164       -8.428       38.375       25.421       22.607     1472.670      646.217      511.074        0.601        0.131       96.571       17.110        0.031      331.627       -0.236      864.322
01/25/2022  00:29:00     -110.347       27.373       -3.067       26.460       21.250       17.618      700.142      451.550      310.381        0.720        0.073      113.692       12.654        0.012      331.472       -0.491      864.316
01/25/2022  00:30:00      -79.291       22.534       -0.097       25.279       19.559       14.480      639.023      382.569      209.669        0.401        0.062       82.431       11.714        0.020      331.376       -0.649      864.328
01/25/2022  00:31:00      -95.397       19.121       -4.609       36.426       23.057       22.032     1326.874      531.602      485.413        0.592        0.117       97.294       19.588        0.041      331.439       -0.543      864.335
01/25/2022  00:32:00      -41.360       14.930        1.366       29.817       25.204       23.474      889.044      635.264      551.045        0.200        0.104       43.972       17.359        0.156      331.511       -0.425      864.342
01/25/2022  00:33:00      -15.336       53.164       -3.906       21.611       15.162       10.760      467.052      229.894      115.784        0.194        0.041       55.332        4.437        0.006      331.461       -0.511      864.388
01/25/2022  00:34:00      -44.451       29.814        1.274       15.212       23.465       11.286      231.411      550.597      127.379        0.189        0.045       53.523       11.553        0.047      331.710       -0.098      864.410
01/25/2022  00:35:00      -44.920       19.403      -17.744        8.338        8.841        7.956       69.525       78.167       63.297        0.146        0.011       48.931        5.066        0.011      332.049        0.458      864.403
01/25/2022  00:36:00      -74.900       20.610      -15.562       10.839       10.226        5.869      117.477      104.567       34.440        0.327        0.013       77.684        4.590        0.003      332.167        0.653      864.407
01/25/2022  00:37:00      -32.209        2.376       -4.608       22.893       17.431       15.490      524.099      303.844      239.953        0.107        0.053       32.297       10.090        0.098      331.825        0.090      864.402
01/25/2022  00:38:00      -59.978       -4.287      -12.059       34.111       28.806       16.560     1163.569      829.772      274.240        0.301        0.113       60.131       15.603        0.067      331.652       -0.195      864.387
01/25/2022  00:39:00      -96.538       20.149       -9.856       27.851       16.719       16.307      775.652      279.536      265.926        0.557        0.066       98.618       14.229        0.021      331.639       -0.215      864.391
01/25/2022  00:40:00      -70.591       21.405        0.580       32.445       20.996       15.749     1052.669      440.816      248.031        0.359        0.087       73.765       14.455        0.038      331.519       -0.413      864.400
01/25/2022  00:41:00      -96.066       32.039       -7.143       29.744       22.483       15.219      884.694      505.483      231.608        0.596        0.081      101.268       14.994        0.022      331.417       -0.581      864.415
01/25/2022  00:42:00     -109.779       37.705      -14.061       23.956       15.872       13.242      573.910      251.907      175.355        0.734        0.050      116.074        8.555        0.005      331.397       -0.616      864.439
01/25/2022  00:43:00     -114.063       37.383       -8.818       22.220       19.303       12.297      493.713      372.603      151.222        0.775        0.051      120.033        8.423        0.005      331.452       -0.523      864.450
01/25/2022  00:44:00      -80.470       11.310       -4.099       34.421       19.930       18.957     1184.818      397.208      359.366        0.428        0.097       81.261       17.946        0.049      331.455       -0.519      864.455
01/25/2022  00:45:00      -56.117        6.595       -1.873       41.973       28.033       23.260     1761.726      785.842      541.034        0.314        0.154       56.503       21.061        0.139      331.461       -0.510      864.465
01/25/2022  00:46:00      -73.956       12.612      -10.168       28.249       22.553       15.725      797.979      508.634      247.260        0.364        0.078       75.024        7.223        0.009      331.481       -0.476      864.475
01/25/2022  00:47:00      -96.129       41.183      -12.372       19.764       16.077       11.437      390.601      258.485      130.795        0.593        0.039      104.579        9.850        0.009      331.510       -0.427      864.485
01/25/2022  00:48:00     -106.474       34.883       -4.070       38.333       25.225       17.510     1469.398      636.319      306.589        0.749        0.121      112.042       16.611        0.022      331.299       -0.775      864.496
01/25/2022  00:49:00      -87.814        9.687        4.748       39.644       33.367       25.988     1571.635     1113.346      675.383        0.559        0.168       88.347       23.098        0.068      331.441       -0.542      864.491
01/25/2022  00:50:00      -56.365       -2.488        3.971       46.804       41.380       24.435     2190.609     1712.287      597.083        0.385        0.225       56.420       19.854        0.124      331.518       -0.416      864.483
01/25/2022  00:51:00      -23.221        2.060        0.461       40.135       27.002       23.390     1610.815      729.118      547.114        0.171        0.144       23.312       16.318        0.490      331.396       -0.617      864.472
01/25/2022  00:52:00      -89.720       11.308       -2.097       51.288       36.686       29.764     2630.469     1345.888      885.897        0.652        0.243       90.430       24.797        0.075      331.440       -0.544      864.462
01/25/2022  00:53:00      -23.540        9.509       -3.945       43.297       33.496       25.933     1874.588     1121.956      672.533        0.216        0.183       25.389       16.672        0.431      331.422       -0.574      864.471
01/25/2022  00:54:00      -19.858       -1.730      -17.458       56.908       47.792       33.305     3238.467     2284.057     1109.221        0.367        0.332       19.933       28.495        2.044      331.466       -0.502      864.483
01/25/2022  00:55:00     -132.551       36.733      -12.693       57.128       41.913       24.387     3263.639     1756.663      594.748        1.235        0.281      137.547       16.385        0.014      331.292       -0.787      864.489
01/25/2022  00:56:00      -98.986       24.465       -3.716       58.610       34.047       25.089     3435.100     1159.200      629.479        0.782        0.261      101.965       26.313        0.067      331.197       -0.942      864.486
01/25/2022  00:57:00     -109.945       44.241      -15.802       40.993       26.104       26.251     1680.408      681.433      689.136        0.867        0.153      118.513       22.530        0.036      331.199       -0.939      864.487
01/25/2022  00:58:00      -65.387       29.234       -3.646       39.192       20.964       24.186     1536.019      439.504      584.950        0.385        0.128       71.624       20.568        0.082      331.152       -1.016      864.501
01/25/2022  00:59:00      -56.919       24.022        2.631       33.349       21.249       17.077     1112.166      451.523      291.640        0.284        0.093       61.780       13.817        0.050      331.189       -0.956      864.533
01/25/2022  01:00:00      -80.391       27.326       -6.616       22.828       18.532       13.597      521.120      343.427      184.871        0.415        0.052       84.908        4.603        0.003      331.405       -0.602      864.568
01/25/2022  01:01:00      -92.731       27.970      -26.642       16.796       18.950       18.427      282.091      359.099      339.556        0.554        0.049       96.858        9.525        0.010      331.400       -0.610      864.594
01/25/2022  01:02:00      -92.480       16.588      -26.057       29.418       19.348       19.069      865.390      374.327      363.623        0.555        0.080       93.956        9.495        0.010      331.304       -0.767      864.600
01/25/2022  01:03:00     -100.038       25.604       -7.018       44.054       26.032       24.432     1940.799      677.673      596.912        0.696        0.161      103.262       21.101        0.042      331.203       -0.934      864.575
01/25/2022  01:04:00      -82.467       33.995        1.123       29.431       20.542       19.445      866.181      421.954      378.099        0.481        0.083       89.199       14.338        0.026      331.101       -1.101      864.562
01/25/2022  01:05:00      -82.459       20.908      -21.461       26.823       25.230       16.842      719.493      636.558      283.656        0.467        0.082       85.068       16.210        0.036      331.166       -0.993      864.562
01/25/2022  01:06:00      -77.615       25.048      -26.715       18.084       14.565       13.112      327.036      212.137      171.931        0.404        0.036       81.556        5.538        0.005      331.160       -1.004      864.571
01/25/2022  01:07:00      -49.961        6.284       -9.860       23.167       20.712       14.455      536.727      428.999      208.946        0.190        0.059       50.354        8.158        0.026      331.095       -1.111      864.562
01/25/2022  01:08:00      -62.703       27.158      -13.957       21.934       19.699       11.411      481.082      388.037      130.216        0.293        0.050       68.332        6.101        0.008      331.147       -1.026      864.551
01/25/2022  01:09:00      -46.076       33.431      -14.576       13.116       11.599       13.161      172.033      134.528      173.203        0.197        0.024       56.927        6.677        0.014      331.171       -0.984      864.540
01/25/2022  01:10:00      -54.249       30.831      -16.457       14.774       13.103       12.006      218.268      171.701      144.147        0.235        0.027       62.398        7.733        0.015      331.281       -0.805      864.538
01/25/2022  01:11:00      -35.222       14.408      -14.111       36.884       18.337       17.077     1360.402      336.252      291.634        0.182        0.099       38.055       18.485        0.236      331.237       -0.878      864.537
01/25/2022  01:12:00      -78.752       18.059       -7.554       35.450       18.990       15.017     1256.685      360.637      225.517        0.421        0.092       80.796        6.394        0.006      331.173       -0.981      864.541
01/25/2022  01:13:00      -48.870       -0.145      -10.622       35.825       20.955       10.764     1283.403      439.104      115.855        0.217        0.092       48.870        8.341        0.029      331.121       -1.068      864.555
01/25/2022  01:14:00       -7.539       -7.654        3.952       26.623       26.950       21.871      708.802      726.315      478.348        0.102        0.096       10.743       11.689        1.184      331.073       -1.147      864.543
01/25/2022  01:15:00     -103.683       20.880       -1.081       36.976       21.774       18.177     1367.237      474.115      330.390        0.668        0.109      105.765       15.353        0.021      331.186       -0.961      864.520
01/25/2022  01:16:00     -108.476       17.366       -1.492       49.381       28.363       22.367     2438.494      804.462      500.262        0.791        0.187      109.857        9.100        0.007      331.139       -1.038      864.507
01/25/2022  01:17:00      -56.547        4.354       -6.908       48.248       36.444       26.141     2327.870     1328.201      683.336        0.380        0.217       56.714       19.672        0.120      331.093       -1.113      864.498
01/25/2022  01:18:00      -72.707       -7.162       -3.578       33.972       26.084       17.748     1154.090      680.383      314.987        0.375        0.107       73.059       11.871        0.026      331.219       -0.906      864.490
01/25/2022  01:19:00      -94.538       14.671       -4.828       32.632       24.134       18.734     1064.831      582.448      350.962        0.559        0.100       95.670       13.138        0.019      331.194       -0.948      864.484
01/25/2022  01:20:00      -81.676       21.668       -9.815       35.572       34.058       28.225     1265.377     1159.966      796.631        0.523        0.161       84.502       20.030        0.056      331.062       -1.166      864.493
01/25/2022  01:21:00      -67.215       18.008       -1.412       39.690       24.258       22.764     1575.305      588.432      518.201        0.376        0.134       69.586       21.060        0.092      331.118       -1.073      864.503
01/25/2022  01:22:00      -99.019       30.879      -10.923       32.586       25.646       21.461     1061.844      657.721      460.559        0.653        0.109      103.722       18.155        0.031      331.102       -1.099      864.513
01/25/2022  01:23:00      -96.573       40.923       -6.621       43.807       27.140       24.771     1919.037      736.591      613.598        0.716        0.163      104.886       18.824        0.032      331.013       -1.245      864.529
01/25/2022  01:24:00      -26.073       18.840       -5.979       49.986       21.746       17.710     2498.617      472.909      313.643        0.218        0.164       32.167       24.858        0.597      331.057       -1.174      864.545
01/25/2022  01:25:00        5.006        9.593       -7.492        6.983       12.476        8.261       48.764      155.661       68.250        0.022        0.014       10.821        4.999        0.213      331.181       -0.969      864.556
01/25/2022  01:26:00       -0.928       -5.579      -10.277       12.803       22.359       13.760      163.906      499.934      189.338        0.050        0.043        5.655       12.731        5.068      331.127       -1.058      864.565
01/25/2022  01:27:00      -15.191        1.593      -11.711       34.184       16.563       17.165     1168.553      274.347      294.654        0.105        0.087       15.275       12.416        0.661      331.026       -1.225      864.578
01/25/2022  01:28:00      -47.873       10.010      -17.211       17.372       15.065       10.479      301.790      226.947      109.801        0.166        0.032       48.909        7.582        0.024      331.224       -0.899      864.589
01/25/2022  01:29:00       -8.651        1.797       -6.794       12.249        9.129        5.634      150.033       83.339       31.743        0.019        0.013        8.836        4.564        0.267      331.612       -0.261      864.577
01/25/2022  01:30:00      -20.141        2.550      -12.249       12.459       12.232        8.670      155.226      149.623       75.163        0.047        0.019       20.301        6.628        0.107      331.781        0.019      864.569
01/25/2022  01:31:00      -43.226       -6.679      -10.437       11.930       18.642       11.858      142.334      347.506      140.616        0.133        0.032       43.739        3.752        0.007      331.285       -0.798      864.559
01/25/2022  01:32:00      -69.082        7.669      -13.150       21.471       17.341       15.794      460.986      300.700      249.448        0.301        0.051       69.506        9.703        0.019      331.132       -1.050      864.566
01/25/2022  01:33:00      -61.505       16.425      -13.910       15.276       12.331       10.828      233.346      152.056      117.242        0.237        0.025       63.660        4.054        0.004      331.240       -0.873      864.596
01/25/2022  01:34:00      -56.930       21.412      -19.556        7.382       10.236        6.551       54.500      104.778       42.912        0.214        0.010       60.824        3.742        0.004      331.219       -0.907      864.622
01/25/2022  01:35:00       -3.570        0.425       -7.363       20.902       11.572       10.719      436.913      133.901      114.900        0.038        0.034        3.596        9.133        6.451      331.550       -0.364      864.653
01/25/2022  01:36:00       29.246       10.861       -6.708       17.875       17.521       12.027      319.507      306.973      144.652        0.089        0.039       31.198       10.729        0.118      331.952        0.299      864.678
01/25/2022  01:37:00      -10.947       -1.658       -7.655       16.712       16.348       11.223      279.306      267.244      125.950        0.043        0.034       11.072        9.763        0.778      331.593       -0.291      864.703
01/25/2022  01:38:00       -4.788       -9.251       -5.571       11.096       13.224       11.012      123.115      174.885      121.259        0.028        0.021       10.417        9.338        0.804      331.242       -0.871      864.722
01/25/2022  01:39:00       18.138      -13.226      -13.716       15.939       18.613        9.697      254.056      346.453       94.031        0.069        0.035       22.448        4.816        0.046      331.266       -0.830      864.738
01/25/2022  01:40:00       51.118       -7.145       -8.753       13.797       13.380        9.405      190.369      179.027       88.455        0.160        0.023       51.615        7.982        0.024      331.272       -0.819      864.754
01/25/2022  01:41:00       63.275       -4.682       -5.076       21.156       17.649       13.497      447.558      311.503      182.159        0.250        0.047       63.448        6.709        0.011      331.196       -0.944      864.780
01/25/2022  01:42:00       39.293      -15.615       -8.839       31.500       36.343       21.859      992.277     1320.845      477.820        0.233        0.140       42.282       21.640        0.262      331.053       -1.180      864.811
01/25/2022  01:43:00       16.440        4.594        1.772       22.260       24.419       24.663      495.502      596.280      608.251        0.100        0.085       17.070       15.433        0.817      330.938       -1.369      864.831
01/25/2022  01:44:00      110.062        4.318       -6.068       28.880       21.745       20.930      834.040      472.829      438.052        0.696        0.087      110.147       12.383        0.013      330.763       -1.654      864.860
01/25/2022  01:45:00       85.280       -1.279       -7.609       48.144       39.070       23.455     2317.849     1526.448      550.134        0.586        0.220       85.290       16.163        0.036      330.825       -1.553      864.868
01/25/2022  01:46:00       71.594      -11.148        0.646       65.435       42.257       35.361     4281.677     1785.650     1250.389        0.628        0.366       72.456       35.609        0.242      330.767       -1.649      864.878
01/25/2022  01:47:00       96.084      -15.476       -5.839       52.385       40.588       37.001     2744.186     1647.415     1369.082        0.763        0.288       97.323       28.257        0.084      330.719       -1.728      864.906
01/25/2022  01:48:00       76.653      -12.857       -1.050       28.599       21.337       16.634      817.888      455.279      276.691        0.380        0.077       77.723        8.346        0.012      331.014       -1.244      864.929
01/25/2022  01:49:00       75.738       43.220       -6.070       22.707       13.864       11.736      515.608      192.222      137.745        0.424        0.042       87.203        7.401        0.007      331.206       -0.927      864.945
01/25/2022  01:50:00       53.012      -16.324      -25.515       24.622       49.802       22.833      606.221     2480.194      521.337        0.367        0.180       55.469       23.365        0.177      331.068       -1.155      864.938
01/25/2022  01:51:00       67.635      -44.147      -27.210       27.485       33.126       18.697      755.432     1097.344      349.569        0.473        0.110       80.768       11.352        0.020      330.993       -1.278      864.936
01/25/2022  01:52:00       17.608      -14.713      -12.271       17.830       16.383       11.783      317.894      268.400      138.829        0.070        0.036       22.946       10.695        0.217      330.946       -1.358      864.953
01/25/2022  01:53:00       -1.371      -27.641       -1.932       12.519       19.309        9.124      156.723      372.844       83.251        0.069        0.031       27.675        4.096        0.022      331.048       -1.189      864.970
01/25/2022  01:54:00       -8.524       -6.788       -5.012       17.574       21.335       11.881      308.862      455.171      141.159        0.052        0.045       10.897       11.258        1.067      330.969       -1.318      864.991
01/25/2022  01:55:00       19.037      -18.417       -9.615       16.054       23.033       12.611      257.716      530.501      159.049        0.087        0.047       26.488       11.140        0.177      331.103       -1.096      865.015
01/25/2022  01:56:00        5.015      -46.546       -5.353       14.851       19.191       12.687      220.553      368.312      160.956        0.148        0.037       46.816       10.648        0.052      331.357       -0.680      865.031
01/25/2022  01:57:00      -19.224      -10.471       -7.523       16.378       15.048        7.419      268.227      226.430       55.039        0.054        0.027       21.891        3.937        0.032      331.325       -0.732      865.056
01/25/2022  01:58:00      -32.166       10.893       -6.964       13.123       16.381        7.146      172.207      268.349       51.066        0.085        0.025       33.961        6.351        0.035      331.091       -1.117      865.084
01/25/2022  01:59:00      -31.451       13.274        2.364        9.815        7.227        7.250       96.328       52.230       52.568        0.069        0.010       34.138        5.878        0.030      331.195       -0.946      865.103
01/25/2022  02:00:00        4.547       12.155       -1.402       17.059       14.020       11.960      291.017      196.558      143.048        0.040        0.032       12.977       11.700        0.813      331.442       -0.541      865.117
01/25/2022  02:01:00      -20.151        5.275       -6.741       15.069       14.831        7.832      227.078      219.955       61.334        0.049        0.025       20.830        5.043        0.059      331.338       -0.710      865.109
01/25/2022  02:02:00      -48.518       11.544       -6.721       12.391       11.015        7.739      153.526      121.328       59.891        0.143        0.017       49.872        5.903        0.014      331.274       -0.815      865.110
01/25/2022  02:03:00      -59.897       13.353      -12.850       12.747        8.607        9.412      162.479       74.073       88.579        0.213        0.016       61.368        3.756        0.004      331.198       -0.940      865.110
01/25/2022  02:04:00      -87.655       11.014      -10.002       24.875       19.472       13.621      618.744      379.152      185.542        0.454        0.059       88.344        9.230        0.011      331.254       -0.848      865.118
01/25/2022  02:05:00      -93.693       21.591       -1.742       33.687       21.270       14.174     1134.799      452.405      200.914        0.552        0.089       96.148       13.920        0.021      331.140       -1.037      865.127
01/25/2022  02:06:00     -136.716       25.782       -9.801       23.415       18.422       20.186      548.284      339.365      407.485        1.037        0.065      139.126       15.067        0.012      331.087       -1.124      865.143
01/25/2022  02:07:00     -126.418       35.889        1.698       47.366       29.169       21.846     2243.498      850.828      477.232        1.042        0.179      131.414       23.901        0.033      330.919       -1.400      865.146
01/25/2022  02:08:00     -127.201       37.141        7.300       55.396       34.858       29.097     3068.681     1215.081      846.608        1.137        0.257      132.513       27.835        0.044      330.890       -1.447      865.119
01/25/2022  02:09:00     -129.285       26.342       -1.066       53.492       35.195       27.822     2861.375     1238.686      774.084        1.114        0.244      131.941       27.246        0.043      330.900       -1.432      865.078
01/25/2022  02:10:00     -113.524       -0.096        8.157       58.015       45.676       35.678     3365.722     2086.267     1272.886        0.984        0.336      113.524       27.089        0.057      331.060       -1.169      865.056
01/25/2022  02:11:00      -95.080       -0.720        3.567       78.109       37.602       30.716     6100.955     1413.888      943.463        0.875        0.423       95.082       32.338        0.116      331.125       -1.063      865.047
01/25/2022  02:12:00     -135.662       17.933       -7.554       51.330       35.600       25.087     2634.738     1267.361      629.371        1.166        0.227      136.842       26.952        0.039      331.181       -0.970      865.062
01/25/2022  02:13:00     -146.685       29.137       -0.230       49.033       31.505       29.523     2404.240      992.568      871.604        1.332        0.213      149.550       26.752        0.032      331.127       -1.058      865.068
01/25/2022  02:14:00      -95.794        4.365        0.212       61.667       35.443       32.504     3802.855     1256.197     1056.520        0.765        0.306       95.893       36.007        0.141      331.152       -1.016      865.064
01/25/2022  02:15:00     -121.232       26.458        1.401       51.878       39.915       26.710     2691.329     1593.196      713.400        1.020        0.250      124.085       23.741        0.037      331.067       -1.158      865.086
01/25/2022  02:16:00     -101.463       29.530       -2.174       52.985       39.842       26.396     2807.446     1587.411      696.769        0.813        0.255      105.673       26.926        0.065      330.952       -1.346      865.123
01/25/2022  02:17:00      -76.025       18.539       -2.420       51.975       26.630       19.549     2701.370      709.135      382.154        0.496        0.190       78.253       18.743        0.057      330.988       -1.287      865.173
01/25/2022  02:18:00      -61.871       27.633      -10.273       11.724       15.751        9.986      137.442      248.085       99.725        0.259        0.024       67.761        6.081        0.008      330.925       -1.391      865.226
01/25/2022  02:19:00      -58.875       17.105       -9.941       22.803       18.822       17.560      519.995      354.263      308.365        0.252        0.059       61.309        8.709        0.020      331.051       -1.181      865.270
01/25/2022  02:20:00     -106.946       33.833      -12.186       16.934       22.011       17.757      286.766      484.500      315.317        0.691        0.054      112.170       11.031        0.010      331.118       -1.073      865.307
01/25/2022  02:21:00     -100.444        9.765      -22.268       46.201       34.645       26.488     2134.540     1200.292      701.619        0.736        0.202      100.918       22.959        0.052      331.067       -1.157      865.319
01/25/2022  02:22:00     -116.877       14.076      -14.650       41.294       27.775       19.821     1705.164      771.439      392.862        0.847        0.143      117.721       16.554        0.020      330.819       -1.565      865.333
01/25/2022  02:23:00      -78.249        4.581      -10.538       44.284       30.242       20.203     1961.059      914.581      408.176        0.477        0.164       78.383       20.783        0.070      330.872       -1.477      865.331
01/25/2022  02:24:00      -51.187       -3.765       -3.830       39.700       33.876       20.839     1576.064     1147.563      434.260        0.290        0.158       51.326       23.628        0.212      330.953       -1.344      865.314
01/25/2022  02:25:00      -33.450       18.576        0.080       18.782       19.053       14.320      352.764      363.011      205.059        0.119        0.046       38.262       12.186        0.101      331.041       -1.199      865.329
01/25/2022  02:26:00      -32.379       44.000       -5.347       15.686        9.926        8.002      246.063       98.526       64.032        0.171        0.020       54.630        4.495        0.007      331.112       -1.084      865.356
01/25/2022  02:27:00      -86.351       30.914       -5.140       34.001       15.070       13.836     1156.042      227.092      191.425        0.501        0.079       91.718        9.715        0.011      331.242       -0.868      865.356
01/25/2022  02:28:00      -15.492       -7.195        0.548       31.922       23.844       20.973     1018.994      568.541      439.871        0.116        0.101       17.081       15.347        0.807      331.115       -1.077      865.348
01/25/2022  02:29:00      -45.692      -17.979        2.093       22.185       20.335       16.367      492.195      413.506      267.893        0.179        0.059       49.102       11.297        0.053      331.154       -1.014      865.346
01/25/2022  02:30:00       28.080       17.502       -7.957       35.722       16.866       10.034     1276.075      284.459      100.686        0.141        0.083       33.088        3.452        0.011      331.201       -0.935      865.379
01/25/2022  02:31:00       19.394       18.640      -14.743       23.889       16.160       11.806      570.677      261.134      139.372        0.096        0.049       26.899       12.917        0.231      331.221       -0.904      865.415
01/25/2022  02:32:00      -28.900       -6.909      -14.378       15.666       14.910        9.660      245.435      222.302       93.319        0.083        0.028       29.715        2.822        0.009      331.356       -0.681      865.414
01/25/2022  02:33:00       -2.433      -21.371       -4.028       11.383       22.692       15.273      129.572      514.926      233.267        0.068        0.044       21.509        7.424        0.119      331.273       -0.818      865.421
01/25/2022  02:34:00      -19.466       12.017       -6.629       16.155       23.140       10.432      260.998      535.459      108.818        0.074        0.045       22.876        9.564        0.175      331.251       -0.854      865.452
01/25/2022  02:35:00      -49.198       20.179       -6.804       15.874       19.889        9.807      251.971      395.564       96.186        0.181        0.037       53.176        6.009        0.013      331.185       -0.962      865.461
01/25/2022  02:36:00      -14.147        3.107       -3.791       19.012       13.334       10.467      361.455      177.786      109.555        0.044        0.032       14.484        8.836        0.372      331.175       -0.978      865.467
01/25/2022  02:37:00      -31.091       21.894       -0.105       26.233       14.701       11.297      688.167      216.114      127.628        0.124        0.052       38.026       13.387        0.124      331.216       -0.911      865.496
01/25/2022  02:38:00      -81.566       19.775      -12.828       21.042       30.902       15.017      442.747      954.927      225.504        0.442        0.081       83.929       10.799        0.017      331.268       -0.825      865.494
01/25/2022  02:39:00      -50.243       -0.633       -9.435       33.687       25.657       19.888     1134.804      658.285      395.519        0.240        0.109       50.247       14.321        0.081      331.004       -1.260      865.462
01/25/2022  02:40:00      -82.297       13.658      -10.083       45.711       28.554       26.566     2089.471      815.332      705.777        0.534        0.181       83.423       14.759        0.031      331.071       -1.150      865.434
01/25/2022  02:41:00      -97.642       10.597        0.879       36.671       27.946       20.654     1344.764      780.988      426.596        0.610        0.128       98.215       18.756        0.036      330.937       -1.371      865.419
01/25/2022  02:42:00      -70.903       10.253       -2.370       34.194       31.175       16.493     1169.215      971.852      272.026        0.378        0.121       71.641       15.270        0.045      330.935       -1.373      865.415
01/25/2022  02:43:00      -86.382        7.617       -1.909       34.052       22.315       16.989     1159.514      497.971      288.616        0.473        0.097       86.718       12.813        0.022      331.050       -1.185      865.416
01/25/2022  02:44:00      -91.606       25.559       -4.481       27.403       18.022       13.511      750.916      324.797      182.544        0.516        0.063       95.105       13.940        0.021      331.003       -1.263      865.426
01/25/2022  02:45:00     -100.531       32.090       -5.020       28.768       19.463       17.395      827.627      378.823      302.577        0.633        0.075      105.529       13.947        0.017      330.999       -1.269      865.431
01/25/2022  02:46:00     -125.519       21.220      -13.116       27.925       23.571       21.364      779.802      555.605      456.418        0.908        0.090      127.300       13.463        0.011      331.051       -1.184      865.434
01/25/2022  02:47:00     -100.821       13.727       -6.198       48.996       23.802       29.853     2400.654      566.546      891.193        0.712        0.193      101.752       27.885        0.075      330.935       -1.373      865.429
01/25/2022  02:48:00      -65.965        7.058       -7.235       59.636       43.335       34.242     3556.487     1877.959     1172.524        0.553        0.330       66.342       33.260        0.251      330.825       -1.554      865.416
01/25/2022  02:49:00     -123.926       35.969       -5.632       48.311       43.917       32.470     2333.992     1928.667     1054.332        1.100        0.266      129.040       23.760        0.034      330.741       -1.692      865.413
01/25/2022  02:50:00      -99.762       52.772        3.453       68.264       53.388       38.402     4659.914     2850.230     1474.740        1.087        0.449      112.860       37.602        0.111      330.686       -1.783      865.429
01/25/2022  02:51:00     -103.272       91.522      -15.211       38.433       36.768       24.047     1477.060     1351.883      578.272        1.134        0.170      137.990       14.768        0.011      330.841       -1.527      865.449
01/25/2022  02:52:00     -133.673      111.254      -26.217       28.853       38.379       23.232      832.500     1472.938      539.727        1.689        0.142      173.913        7.021        0.002      331.032       -1.216      865.463
01/25/2022  02:53:00     -127.719       45.825      -23.592       47.539       37.953       22.247     2259.916     1440.439      494.915        1.158        0.210      135.691       13.721        0.010      331.030       -1.219      865.461
01/25/2022  02:54:00      -50.760        6.105      -21.604       76.279       41.222       37.435     5818.535     1699.222     1401.384        0.600        0.446       51.125       41.484        0.658      330.946       -1.356      865.446
01/25/2022  02:55:00      -84.368        4.959      -29.137       77.172       50.460       32.143     5955.460     2546.162     1033.169        0.876        0.477       84.513       34.888        0.170      330.927       -1.388      865.448
01/25/2022  02:56:00     -164.021       31.673      -26.379       55.893       43.687       27.297     3123.978     1908.575      745.127        1.719        0.289      167.051       18.890        0.013      330.887       -1.453      865.446
01/25/2022  02:57:00     -126.838       28.625      -18.184       69.319       33.376       25.473     4805.067     1113.936      648.883        1.190        0.328      130.028       31.156        0.057      330.950       -1.351      865.448
01/25/2022  02:58:00      -85.455       15.036       -3.317       45.409       27.608       24.712     2061.957      762.176      610.660        0.549        0.172       86.767       24.540        0.080      330.959       -1.335      865.442
01/25/2022  02:59:00      -96.948       13.616       -4.040       51.951       27.793       20.921     2698.951      772.443      437.668        0.675        0.195       97.899       22.928        0.055      331.030       -1.218      865.434
01/25/2022  03:00:00      -71.207        7.429       -4.706       51.181       25.905       19.261     2619.469      671.052      370.985        0.440        0.183       71.594       17.915        0.063      331.004       -1.261      865.439
01/25/2022  03:01:00      -71.531        6.560       -3.517       36.415       24.185       18.398     1326.084      584.906      338.481        0.371        0.112       71.831       16.055        0.050      331.126       -1.060      865.437
01/25/2022  03:02:00      -73.143       -2.007        1.058       47.378       35.052       23.772     2244.700     1228.612      565.111        0.470        0.202       73.171       24.269        0.110      331.199       -0.940      865.413
01/25/2022  03:03:00     -108.833       12.152       -5.921       40.249       30.333       22.774     1619.967      920.086      518.646        0.754        0.153      109.509       22.992        0.044      331.223       -0.898      865.409
01/25/2022  03:04:00      -18.886      -12.162       -3.477       24.669       23.048       19.146      608.566      531.203      366.584        0.101        0.075       22.463       17.825        0.630      331.257       -0.844      865.389
01/25/2022  03:05:00      -60.010      -18.321      -14.094       17.833       14.733       15.528      318.019      217.049      241.109        0.246        0.039       62.744       13.012        0.043      331.261       -0.838      865.372
01/25/2022  03:06:00      -89.717      -16.634       -6.249       38.362       24.893       23.354     1471.626      619.656      545.390        0.550        0.132       91.246       22.392        0.060      331.293       -0.785      865.353
01/25/2022  03:07:00      -97.870       -4.408       -2.243       52.123       29.388       33.541     2716.804      863.660     1124.972        0.715        0.235       97.969       31.653        0.104      331.051       -1.182      865.331
01/25/2022  03:08:00      -73.450        7.841        0.835       68.064       44.663       34.816     4632.760     1994.749     1212.182        0.665        0.392       73.868       30.992        0.176      331.094       -1.112      865.316
01/25/2022  03:09:00      -92.267      -14.983       -8.749       70.734       48.682       41.137     5003.303     2369.935     1692.216        0.894        0.453       93.475       37.024        0.157      331.125       -1.061      865.295
01/25/2022  03:10:00      -81.663      -17.495       -8.949       67.471       34.411       37.641     4552.355     1184.141     1416.826        0.710        0.358       83.516       35.988        0.186      331.231       -0.888      865.278
01/25/2022  03:11:00      -95.362      -34.681       -5.547       58.296       35.262       27.439     3398.448     1243.399      752.883        0.786        0.270      101.472       28.094        0.077      331.415       -0.585      865.284
01/25/2022  03:12:00      -30.856        1.599       -7.796       36.039       24.801       16.783     1298.842      615.090      281.684        0.161        0.110       30.897       11.258        0.133      331.290       -0.791      865.324
01/25/2022  03:13:00       -2.953       48.330       -9.084       23.906       21.713       12.201      571.479      471.447      148.861        0.181        0.060       48.420        8.759        0.033      331.069       -1.154      865.368
01/25/2022  03:14:00       -5.987        5.093      -10.811       15.539       12.096       11.257      241.455      146.305      126.711        0.035        0.026        7.861        7.676        0.954      330.953       -1.345      865.410
01/25/2022  03:15:00      -32.366      -10.326      -11.544       19.606       24.598       19.347      384.397      605.055      374.321        0.133        0.068       33.973       15.370        0.205      331.052       -1.181      865.437
01/25/2022  03:16:00      -12.462      -31.213      -11.841       23.355       34.925       26.988      545.470     1219.757      728.334        0.188        0.125       33.609       15.477        0.212      331.012       -1.249      865.446
01/25/2022  03:17:00      -13.331      -16.571       -6.669       44.938       23.342       22.365     2019.425      544.865      500.189        0.178        0.153       21.268        9.408        0.196      330.988       -1.287      865.453
01/25/2022  03:18:00      -45.450       -9.607       -2.250       37.326       28.781       27.466     1393.214      828.339      754.365        0.257        0.149       46.454       20.099        0.187      330.848       -1.518      865.462
01/25/2022  03:19:00      -42.845      -31.462        2.099       31.832       41.071       25.416     1013.261     1686.845      645.974        0.309        0.167       53.156       18.433        0.120      330.926       -1.388      865.466
01/25/2022  03:20:00       -8.780      -37.690      -12.387       37.189       34.325       32.488     1382.993     1178.229     1055.501        0.263        0.181       38.699       13.555        0.123      330.928       -1.384      865.453
01/25/2022  03:21:00      -19.920       14.800      -16.939       26.798       19.849       21.560      718.150      393.995      464.852        0.124        0.079       24.816        8.092        0.106      330.906       -1.423      865.448
01/25/2022  03:22:00      -19.503       10.969      -14.086       17.997       21.194       13.306      323.877      449.192      177.045        0.082        0.048       22.376        2.652        0.014      330.832       -1.543      865.455
01/25/2022  03:23:00      -20.529       -5.066       -7.701       15.030       17.435       15.227      225.907      303.987      231.861        0.063        0.038       21.145        7.320        0.120      330.903       -1.425      865.459
01/25/2022  03:24:00       11.477      -27.166      -11.066       36.223       22.754       14.728     1312.108      517.749      216.904        0.152        0.102       29.491       15.617        0.280      330.901       -1.430      865.452
01/25/2022  03:25:00       -3.033       -8.086       -4.590       25.548       13.818       18.990      652.678      190.943      360.637        0.065        0.060        8.636       16.087        3.470      330.869       -1.482      865.450
01/25/2022  03:26:00       22.459       -6.865       -3.109       13.724        8.837        9.879      188.350       78.098       97.586        0.046        0.018       23.485        4.518        0.037      331.017       -1.240      865.456
01/25/2022  03:27:00       -1.725        6.723       -8.445       32.677       11.033       10.623     1067.793      121.721      112.854        0.071        0.065        6.941       11.516        2.753      330.882       -1.461      865.466
01/25/2022  03:28:00      -33.342       14.584       -7.467       28.703       21.381       11.577      823.849      457.133      134.025        0.140        0.071       36.392       11.030        0.092      330.800       -1.594      865.482
01/25/2022  03:29:00      -60.027       16.584       -1.715       44.981       22.816       18.116     2023.292      520.574      328.186        0.338        0.144       62.276       21.341        0.117      330.822       -1.558      865.485
01/25/2022  03:30:00      -36.792       14.910        0.416       27.365       17.681       14.906      748.853      312.623      222.203        0.143        0.064       39.699       10.589        0.071      330.795       -1.603      865.483
01/25/2022  03:31:00      -64.823       17.323       -6.548       44.806       22.171       14.100     2007.538      491.573      198.816        0.362        0.135       67.098       13.609        0.041      330.870       -1.480      865.484
01/25/2022  03:32:00      -60.596       13.124      -15.056       42.202       22.959       19.464     1781.044      527.117      378.836        0.338        0.134       62.001       21.834        0.124      330.810       -1.578      865.492
01/25/2022  03:33:00      -25.738       13.065      -10.804       27.924       17.831       11.749      779.757      317.945      138.034        0.109        0.062       28.864       11.101        0.148      330.768       -1.647      865.508
01/25/2022  03:34:00        5.572        0.965       -7.916        9.605        5.542        5.600       92.254       30.709       31.357        0.012        0.008        5.655        2.623        0.215      330.807       -1.586      865.523
01/25/2022  03:35:00       27.711       12.428      -12.601       20.801       11.281       12.316      432.683      127.260      151.675        0.090        0.036       30.370        9.855        0.105      330.822       -1.558      865.530
01/25/2022  03:36:00       14.085       45.840       -6.044       20.187       21.662       11.282      407.504      469.243      127.283        0.167        0.050       47.956        7.301        0.023      330.861       -1.497      865.532
01/25/2022  03:37:00      -11.802       49.603       -7.868       20.568       15.297       12.409      423.031      233.999      153.984        0.174        0.041       50.987        5.008        0.010      330.885       -1.456      865.530
01/25/2022  03:38:00       -3.120       50.069       -7.980       19.511       15.140       11.332      380.679      229.213      128.420        0.166        0.037       50.166        6.604        0.017      330.830       -1.546      865.512
01/25/2022  03:39:00      -34.389       20.325      -12.068       17.571       14.755       11.082      308.736      217.713      122.818        0.120        0.032       39.946        7.808        0.038      330.824       -1.556      865.489
01/25/2022  03:40:00      -67.130       11.063      -19.019       21.437       18.969       14.333      459.559      359.831      205.444        0.301        0.051       68.035        7.707        0.013      330.666       -1.815      865.476
01/25/2022  03:41:00      -45.210       12.494       -7.025       41.443       15.494       15.146     1717.502      240.067      229.406        0.222        0.109       46.904       17.189        0.134      330.527       -2.043      865.470
01/25/2022  03:42:00      -25.539        2.904      -11.222       37.565       26.201       15.141     1411.100      686.511      229.244        0.156        0.116       25.704       15.400        0.359      330.611       -1.905      865.465
01/25/2022  03:43:00      -49.435       -2.474      -12.002       28.009       17.244       16.587      784.502      297.349      275.123        0.198        0.068       49.496       14.203        0.082      330.699       -1.760      865.459
01/25/2022  03:44:00      -22.295        5.721       -9.850       25.809       12.070       11.952      666.100      145.683      142.849        0.079        0.048       23.017        9.557        0.172      330.618       -1.894      865.465
01/25/2022  03:45:00      -90.390       13.321      -18.237       15.999       15.684       11.835      255.970      245.975      140.065        0.466        0.032       91.367        7.878        0.007      330.667       -1.812      865.469
01/25/2022  03:46:00      -84.548        8.162      -11.984       29.425       26.268       13.831      865.804      689.993      191.308        0.455        0.087       84.942       14.300        0.028      330.628       -1.878      865.460
01/25/2022  03:47:00      -26.352        8.105       -1.561       21.198       22.114       14.307      449.347      489.026      204.689        0.095        0.057       27.571       10.003        0.132      330.689       -1.776      865.447
01/25/2022  03:48:00      -21.690      -11.451       -5.550       16.983       13.841       13.621      288.435      191.576      185.533        0.065        0.033       24.527       10.403        0.180      330.688       -1.779      865.435
01/25/2022  03:49:00      -38.459       -5.014      -11.673       17.609       21.299       15.499      310.072      453.662      240.208        0.132        0.050       38.784       10.427        0.072      330.654       -1.834      865.427
01/25/2022  03:50:00      -67.002       17.234      -18.530       19.459       15.269       12.303      378.653      233.130      151.374        0.295        0.038       69.183       10.316        0.022      330.683       -1.787      865.440
01/25/2022  03:51:00      -55.941       -7.642      -15.327       33.077       26.593       21.954     1094.119      707.181      481.957        0.285        0.114       56.461       15.614        0.076      330.622       -1.888      865.436
01/25/2022  03:52:00      -64.304       13.335      -11.182       29.276       17.038       12.111      857.083      290.304      146.686        0.287        0.065       65.672        1.547        0.001      330.650       -1.842      865.409
01/25/2022  03:53:00      -41.562        5.305       -8.442       22.174       15.481       13.409      491.705      239.655      179.792        0.137        0.046       41.899        8.831        0.044      330.751       -1.675      865.392
01/25/2022  03:54:00      -38.360       -4.798       -8.550       29.166       24.689       18.327      850.680      609.566      335.863        0.168        0.090       38.659       18.099        0.219      330.671       -1.806      865.401
01/25/2022  03:55:00      -35.795      -21.497       -9.874       24.260       11.793       13.305      588.571      139.066      177.015        0.137        0.045       41.754       15.983        0.147      330.714       -1.735      865.417
01/25/2022  03:56:00      -17.234      -15.497       -9.959        8.622        8.304       11.265       74.339       68.950      126.906        0.045        0.014       23.177        6.390        0.076      330.872       -1.477      865.423
01/25/2022  03:57:00      -18.996        9.784       -9.513        9.574       10.010        8.286       91.663      100.204       68.651        0.040        0.013       21.367        4.618        0.047      331.051       -1.185      865.426
01/25/2022  03:58:00      -75.962       17.199      -12.370       28.306       17.721       14.287      801.233      314.024      204.120        0.377        0.066       77.884       11.468        0.022      330.930       -1.383      865.432
01/25/2022  03:59:00      -44.527       -0.253        3.677       27.636       21.853       15.543      763.760      477.542      241.597        0.174        0.074       44.527       12.191        0.075      330.673       -1.805      865.448
01/25/2022  04:00:00      -49.223       -7.088       -3.998       26.457       22.223       19.898      699.949      493.845      395.947        0.204        0.079       49.731       15.254        0.094      330.732       -1.705      865.470
01/25/2022  04:01:00      -45.039      -42.224      -20.441       17.365       12.483       10.649      301.559      155.822      113.394        0.240        0.029       61.737        7.050        0.013      330.800       -1.594      865.477
01/25/2022  04:02:00      -24.891      -13.977      -14.755       16.244       15.603        8.233      263.871      243.441       67.778        0.080        0.029       28.547        5.918        0.043      330.955       -1.341      865.487
01/25/2022  04:03:00      -14.462       -4.979       -2.885       11.290       17.029       10.374      127.474      290.002      107.613        0.038        0.026       15.295        3.873        0.064      330.949       -1.351      865.500
01/25/2022  04:04:00       -4.240       -6.626       -1.870       19.380       13.557       12.935      375.587      183.794      167.326        0.040        0.036        7.866        8.964        1.299      330.944       -1.359      865.491
01/25/2022  04:05:00      -31.460        4.339      -14.095       15.637       23.218        9.387      244.516      539.071       88.123        0.104        0.044       31.758        5.672        0.032      330.878       -1.466      865.477
01/25/2022  04:06:00      -43.165        9.270       -2.257       18.234       18.812       15.096      332.489      353.889      227.878        0.143        0.046       44.149       10.607        0.058      330.690       -1.774      865.463
01/25/2022  04:07:00      -25.704       26.959      -12.370       10.563       12.604       11.789      111.576      158.849      138.989        0.097        0.020       37.250        9.318        0.063      330.788       -1.615      865.459
01/25/2022  04:08:00      -20.187        6.004       -4.463       12.335       16.844       12.368      152.156      283.719      152.962        0.053        0.029       21.060       10.569        0.252      330.740       -1.693      865.463
01/25/2022  04:09:00      -21.553      -14.634       -2.971       17.112       22.685       12.183      292.824      514.631      148.437        0.082        0.048       26.052        6.251        0.058      330.832       -1.542      865.467
01/25/2022  04:10:00      -56.071      -17.718       -4.164       40.632       31.925       24.690     1650.922     1019.182      609.593        0.338        0.164       58.804       18.513        0.099      330.783       -1.621      865.463
01/25/2022  04:11:00      -58.434      -22.791        3.889       54.454       31.339       34.878     2965.286      982.136     1216.502        0.456        0.258       62.721       34.261        0.298      330.643       -1.852      865.454
01/25/2022  04:12:00      -87.338      -10.902       -3.999       42.165       28.687       23.028     1777.921      822.962      530.277        0.545        0.157       88.016       24.281        0.076      330.659       -1.826      865.456
01/25/2022  04:13:00      -70.062      -23.317      -16.120       45.877       27.924       23.540     2104.731      779.767      554.127        0.457        0.172       73.840       17.318        0.055      330.725       -1.717      865.451
01/25/2022  04:14:00      -67.938      -49.454      -21.875       52.732       57.772       30.698     2780.708     3337.625      942.350        0.730        0.353       84.031       23.416        0.078      330.754       -1.670      865.452
01/25/2022  04:15:00      -49.923      -31.572       -8.068       51.011       54.094       30.159     2602.075     2926.187      909.566        0.499        0.322       59.069       27.885        0.223      330.743       -1.690      865.465
01/25/2022  04:16:00      -26.298      -20.904      -12.373       21.372       19.510       15.086      456.760      380.626      227.597        0.117        0.053       33.594        7.445        0.049      330.758       -1.664      865.480
01/25/2022  04:17:00       -0.858      -11.309       -0.193       15.694       23.774       13.120      246.292      565.219      172.134        0.056        0.049       11.341       10.952        0.932      330.752       -1.672      865.495
01/25/2022  04:18:00      -13.420       -1.496        2.921       24.059       16.813       17.022      578.824      282.680      289.758        0.067        0.058       13.503       10.021        0.551      330.655       -1.833      865.520
01/25/2022  04:19:00      -21.676      -24.625       -8.701       25.694       25.191       15.100      660.175      634.589      228.014        0.134        0.076       32.806       13.916        0.180      330.721       -1.723      865.545
01/25/2022  04:20:00        0.340       18.621        6.802       50.842       25.125       18.452     2584.866      631.259      340.460        0.197        0.178       18.625       26.406        2.010      330.578       -1.960      865.580
01/25/2022  04:21:00       25.593       24.245      -11.589       21.492       21.832       14.375      461.920      476.638      206.629        0.126        0.057       35.254       12.543        0.127      330.441       -2.184      865.608
01/25/2022  04:22:00       11.107       -0.514       -0.421       24.920       32.537       18.537      621.018     1058.683      343.623        0.107        0.101       11.119       13.989        1.583      330.405       -2.242      865.638
01/25/2022  04:23:00        8.395      -34.137       -6.766       31.586       34.054       22.233      997.666     1159.666      494.295        0.197        0.133       35.154       12.182        0.120      330.546       -2.012      865.668
01/25/2022  04:24:00        7.904      -11.710       -4.288       30.476       29.489       22.623      928.758      869.595      511.802        0.126        0.116       14.128        9.333        0.436      330.517       -2.059      865.708
01/25/2022  04:25:00       77.869        0.121      -11.789       29.208       37.722       23.701      853.088     1422.938      561.733        0.452        0.142       77.869       16.653        0.046      330.112       -2.723      865.748
01/25/2022  04:26:00       87.369       11.163       -9.574       49.581       50.289       27.159     2458.313     2528.946      737.590        0.679        0.286       88.080       17.584        0.040      329.846       -3.159      865.792
01/25/2022  04:27:00      159.315       28.637      -10.724       40.199       36.050       28.402     1615.996     1299.618      806.695        1.502        0.186      161.868       21.319        0.017      329.784       -3.262      865.837
01/25/2022  04:28:00      138.253       47.160      -10.581       38.223       24.707       21.337     1460.963      610.415      455.250        1.199        0.126      146.075       10.448        0.005      329.818       -3.205      865.852
01/25/2022  04:29:00       89.923       11.402       -3.475       41.248       29.181       24.509     1701.384      851.533      600.668        0.569        0.158       90.643       22.164        0.060      329.933       -3.017      865.829
01/25/2022  04:30:00       20.643       -2.389        3.890       26.395       26.783       19.206      696.702      717.354      368.871        0.111        0.089       20.781       13.642        0.431      330.036       -2.848      865.798
01/25/2022  04:31:00       37.080       12.527       -3.567       26.594       19.800        9.363      707.234      392.041       87.661        0.137        0.059       39.139        8.989        0.053      330.040       -2.840      865.786
01/25/2022  04:32:00        7.557       47.638       -0.963       20.086       18.232       11.748      403.438      332.412      138.023        0.160        0.044       48.234        6.081        0.016      330.069       -2.794      865.785
01/25/2022  04:33:00       12.569       61.264       -6.456       12.361       20.101       12.109      152.800      404.068      146.621        0.233        0.035       62.540        9.384        0.023      330.224       -2.541      865.791
01/25/2022  04:34:00       22.090       52.095       -9.768       37.816       23.710       13.734     1430.040      562.181      188.610        0.274        0.109       56.584       11.770        0.043      330.200       -2.580      865.803
01/25/2022  04:35:00      130.051       66.453       -8.613       26.849       18.027       17.370      720.891      324.973      301.727        1.138        0.067      146.045        9.805        0.005      330.203       -2.575      865.837
01/25/2022  04:36:00       98.560       23.865       -8.645       37.119       34.188       19.438     1377.824     1168.847      377.849        0.664        0.146      101.408       15.356        0.023      330.088       -2.765      865.870
01/25/2022  04:37:00       92.408       27.133      -14.479       40.621       32.868       17.859     1650.064     1080.275      318.939        0.627        0.152       96.309       15.057        0.024      330.149       -2.664      865.883
01/25/2022  04:38:00      110.684       34.810       -7.489       24.888       25.056       15.950      619.401      627.810      254.396        0.751        0.075      116.029        9.403        0.007      330.177       -2.618      865.901
01/25/2022  04:39:00       68.077       14.914       -1.062       29.823       28.868       19.594      889.413      833.367      383.940        0.348        0.105       69.691       14.183        0.041      330.133       -2.690      865.912
01/25/2022  04:40:00       71.327        6.050       -8.692       37.822       27.563       22.785     1430.495      759.710      519.169        0.395        0.135       71.583       13.374        0.035      330.168       -2.632      865.937
01/25/2022  04:41:00       87.747        7.650       -2.957       50.427       36.099       26.596     2542.842     1303.139      707.362        0.616        0.228       88.080       20.526        0.054      330.114       -2.720      865.972
01/25/2022  04:42:00      105.476       11.120       -9.899       36.835       30.984       18.801     1356.803      960.001      353.471        0.701        0.134      106.061       11.212        0.011      330.055       -2.818      866.010
01/25/2022  04:43:00       72.049       23.412       -0.874       26.329       24.470       18.030      693.215      598.762      325.084        0.368        0.081       75.758       15.612        0.042      330.038       -2.845      866.016
01/25/2022  04:44:00       96.854       50.975       -8.700       29.466       19.324       13.303      868.248      373.407      176.975        0.674        0.071      109.449        8.538        0.006      330.170       -2.629      866.019
01/25/2022  04:45:00       71.727       30.378      -10.106       26.600       32.389       18.797      707.546     1049.045      353.338        0.414        0.105       77.895       18.418        0.056      330.142       -2.675      866.024
01/25/2022  04:46:00       74.299       35.809      -33.071       23.732       19.264       14.201      563.226      371.118      201.659        0.452        0.057       82.478        9.570        0.013      330.242       -2.511      866.023
01/25/2022  04:47:00       82.591       26.094      -20.962       23.859       21.590       18.687      569.248      466.121      349.194        0.466        0.069       86.616       11.292        0.017      330.239       -2.517      866.037
01/25/2022  04:48:00       84.206       34.807      -12.961       19.227       14.157       17.210      369.662      200.410      296.175        0.467        0.043       91.116        9.657        0.011      330.273       -2.461      866.042
01/25/2022  04:49:00       50.051       47.582       -9.673       16.794       19.461       11.855      282.054      378.744      140.551        0.283        0.040       69.060       11.085        0.026      330.332       -2.364      866.038
01/25/2022  04:50:00       15.280       79.001       -9.901       27.410       18.304       15.737      751.304      335.037      247.658        0.395        0.067       80.465        5.732        0.005      330.576       -1.963      866.029
01/25/2022  04:51:00       -8.581       29.425        0.100       17.001       22.547        8.968      289.020      508.350       80.427        0.091        0.044       30.650        4.066        0.018      330.435       -2.194      866.007
01/25/2022  04:52:00        1.920       17.996       -9.503       12.514       18.524       13.784      156.611      343.136      190.006        0.055        0.034       18.098        5.710        0.100      330.334       -2.359      866.016
01/25/2022  04:53:00      -29.878       11.519      -14.971       24.891       10.376       10.940      619.563      107.668      119.675        0.105        0.042       32.022        5.519        0.030      330.327       -2.370      866.022
01/25/2022  04:54:00      -44.953        9.260       -7.327       23.451       23.047       14.357      549.945      531.146      206.117        0.172        0.064       45.897        8.511        0.034      330.222       -2.544      866.017
01/25/2022  04:55:00      -60.523       -2.616      -10.852       34.666       26.971       24.729     1201.758      727.421      611.516        0.316        0.127       60.580       21.678        0.128      330.354       -2.327      866.018
01/25/2022  04:56:00     -120.101       27.806      -13.768       22.615       19.243       18.447      511.418      370.298      340.290        0.830        0.061      123.278       14.596        0.014      330.472       -2.135      866.037
01/25/2022  04:57:00     -109.393       30.920      -16.986       37.118       26.965       16.951     1377.739      727.085      287.349        0.780        0.120      113.679        7.556        0.004      330.398       -2.255      866.043
01/25/2022  04:58:00     -132.673       19.399      -11.222       41.860       24.894       21.771     1752.300      619.717      473.979        1.047        0.142      134.084       21.682        0.026      330.429       -2.205      866.048
01/25/2022  04:59:00     -143.970       69.302       -2.978       54.431       42.010       27.944     2962.788     1764.857      780.882        1.552        0.275      159.781       27.563        0.030      330.330       -2.367      866.056
01/25/2022  05:00:00     -146.255       64.102        3.681       49.424       37.253       29.086     2442.695     1387.796      845.970        1.509        0.234      159.686       23.508        0.022      330.233       -2.527      866.069
01/25/2022  05:01:00      -87.087       26.020       -5.127       67.787       35.723       26.375     4595.122     1276.106      695.635        0.743        0.328       90.891       34.299        0.142      330.210       -2.563      866.072
01/25/2022  05:02:00      -73.843       21.921      -12.885       60.564       39.188       24.204     3667.939     1535.697      585.816        0.594        0.289       77.028       13.025        0.029      330.197       -2.586      866.082
01/25/2022  05:03:00     -102.135       25.496      -19.375       60.780       38.586       30.877     3694.155     1488.851      953.378        0.880        0.307      105.270       14.480        0.019      330.229       -2.532      866.072
01/25/2022  05:04:00     -190.747       23.585       -5.907       68.371       50.639       37.791     4674.602     2564.267     1428.141        2.282        0.433      192.200       26.699        0.019      330.272       -2.464      866.067
01/25/2022  05:05:00      -69.686       -4.156       -0.030       78.065       48.459       32.533     6094.168     2348.284     1058.384        0.719        0.475       69.810       21.537        0.095      330.246       -2.503      866.064
01/25/2022  05:06:00      -72.687        1.214       -3.156       65.861       53.148       36.352     4337.702     2824.729     1321.495        0.689        0.424       72.697       36.170        0.248      330.295       -2.424      866.064
01/25/2022  05:07:00      -96.095       42.221       -5.336       43.185       42.915       28.826     1864.908     1841.669      830.965        0.779        0.227      104.961       18.010        0.029      330.248       -2.500      866.087
01/25/2022  05:08:00     -136.454       54.633      -16.044       50.849       42.780       34.221     2585.606     1830.116     1171.097        1.372        0.279      146.985       21.101        0.021      330.196       -2.586      866.110
01/25/2022  05:09:00     -140.322       36.220       -5.148       48.802       44.789       27.643     2381.641     2006.024      764.149        1.309        0.258      144.921       21.351        0.022      330.213       -2.558      866.119
01/25/2022  05:10:00     -116.221       11.074       -9.390       79.155       34.831       27.530     6265.474     1213.177      757.904        1.098        0.412      116.748       25.686        0.048      330.268       -2.468      866.115
01/25/2022  05:11:00     -146.542       34.919       -6.068       63.055       42.251       32.412     3975.948     1785.139     1050.513        1.477        0.341      150.645       32.495        0.047      330.318       -2.385      866.114
01/25/2022  05:12:00      -74.323       10.192        1.754       52.606       36.305       27.125     2767.359     1318.038      735.779        0.523        0.241       75.019       21.896        0.085      330.281       -2.447      866.120
01/25/2022  05:13:00      -41.662        6.292        8.087       52.822       32.875       27.594     2790.166     1080.753      761.453        0.324        0.232       42.134       20.227        0.230      330.262       -2.477      866.128
01/25/2022  05:14:00      -44.993       25.781       -6.197       59.233       34.430       32.127     3508.539     1185.400     1032.115        0.423        0.286       51.856       23.078        0.198      330.292       -2.429      866.136
01/25/2022  05:15:00     -109.804       67.747      -11.325       34.898       35.930       30.224     1217.899     1290.980      913.520        1.010        0.171      129.022       21.549        0.028      330.279       -2.450      866.148
01/25/2022  05:16:00     -107.647       24.430       -9.732       40.489       27.199       22.238     1639.393      739.810      494.522        0.758        0.144      110.385       16.065        0.021      330.285       -2.440      866.157
01/25/2022  05:17:00     -134.822       26.169       -8.223       52.443       29.207       26.307     2750.314      853.063      692.076        1.161        0.215      137.338       25.652        0.035      330.332       -2.363      866.161
01/25/2022  05:18:00     -143.992       31.916      -14.703       48.941       39.365       25.843     2395.193     1549.605      667.843        1.329        0.231      147.486       16.164        0.012      330.345       -2.341      866.163
01/25/2022  05:19:00     -159.547       28.755      -21.947       42.396       45.305       27.872     1797.442     2052.529      776.865        1.569        0.231      162.118       21.825        0.018      330.373       -2.296      866.176
01/25/2022  05:20:00     -164.253       49.987      -14.565       56.533       34.235       32.720     3195.940     1172.067     1070.595        1.756        0.272      171.691       28.368        0.027      330.341       -2.348      866.168
01/25/2022  05:21:00     -179.587       27.100      -26.289       54.042       40.802       38.957     2920.530     1664.798     1517.682        1.989        0.305      181.620       26.184        0.021      330.406       -2.243      866.153
01/25/2022  05:22:00     -119.834       19.897      -28.424       69.368       54.130       48.246     4811.984     2930.100     2327.657        1.282        0.503      121.475       38.273        0.099      330.460       -2.153      866.142
01/25/2022  05:23:00     -121.879       34.428      -33.350       57.914       54.286       34.732     3354.055     2947.010     1206.346        1.233        0.375      126.648       27.129        0.046      330.449       -2.172      866.121
01/25/2022  05:24:00     -140.466       45.578      -38.468       77.816       47.390       36.541     6055.372     2245.850     1335.279        1.646        0.482      147.676       18.416        0.016      330.447       -2.174      866.121
01/25/2022  05:25:00     -107.557       37.851      -30.594       54.181       42.536       40.224     2935.540     1809.337     1618.002        1.015        0.318      114.022       27.105        0.057      330.450       -2.169      866.120
01/25/2022  05:26:00     -146.473       47.480      -31.381       63.845       45.523       34.561     4076.182     2072.303     1194.458        1.602        0.367      153.976       29.632        0.037      330.497       -2.094      866.117
01/25/2022  05:27:00      -72.836       48.056      -27.296       66.365       52.456       38.527     4404.295     2751.632     1484.351        0.850        0.432       87.261       32.853        0.142      330.482       -2.118      866.114
01/25/2022  05:28:00      -89.935        9.656      -19.159       83.379       45.571       46.112     6952.085     2076.694     2126.273        0.985        0.558       90.452       49.022        0.294      330.492       -2.101      866.103
01/25/2022  05:29:00     -106.061       19.728      -18.698       80.977       49.825       31.825     6557.340     2482.569     1012.837        1.102        0.503      107.880       28.606        0.070      330.505       -2.080      866.107
01/25/2022  05:30:00      -59.373        9.031       -4.888       80.550       49.048       40.860     6488.235     2405.688     1669.564        0.710        0.528       60.056       40.779        0.461      330.466       -2.142      866.113
01/25/2022  05:31:00     -132.891       13.583      -16.084       61.573       42.913       31.868     3791.250     1841.486     1015.554        1.237        0.332      133.584       20.378        0.023      330.491       -2.103      866.127
01/25/2022  05:32:00     -152.030       18.437      -27.692       44.813       39.753       32.582     2008.243     1580.287     1061.592        1.443        0.233      153.144       14.220        0.009      330.579       -1.959      866.133
01/25/2022  05:33:00      -52.564        5.323      -14.750       53.805       32.377       38.111     2894.939     1048.280     1452.450        0.420        0.270       52.833       34.926        0.437      330.531       -2.036      866.140
01/25/2022  05:34:00      -38.674        9.967      -10.124       52.542       32.852       31.448     2760.685     1079.254      988.985        0.326        0.241       39.938       31.912        0.638      330.608       -1.910      866.165
01/25/2022  05:35:00     -130.886       52.350      -30.617       24.097       21.001       16.460      580.685      441.034      270.942        1.105        0.065      140.967        8.182        0.003      330.650       -1.841      866.193
01/25/2022  05:36:00     -115.765       40.953      -26.548       31.845       29.754       15.220     1014.096      885.317      231.649        0.896        0.107      122.795        7.874        0.004      330.687       -1.780      866.215
01/25/2022  05:37:00     -128.794       44.315      -21.088       32.080       35.987       21.119     1029.118     1295.028      445.998        1.088        0.139      136.204       18.137        0.018      330.777       -1.633      866.234
01/25/2022  05:38:00     -121.716       48.379      -14.504       28.269       27.802       24.568      799.161      772.935      603.571        0.977        0.109      130.979       13.238        0.010      330.737       -1.698      866.242
01/25/2022  05:39:00     -129.968       41.235      -12.926       36.328       28.823       19.592     1319.702      830.753      383.865        1.065        0.127      136.353        8.495        0.004      330.741       -1.691      866.241
01/25/2022  05:40:00     -100.697       33.888      -11.516       24.031       29.320       20.965      577.509      859.675      439.514        0.665        0.094      106.246       15.703        0.022      330.661       -1.824      866.242
01/25/2022  05:41:00     -124.350       64.879       -7.549       42.367       28.102       26.733     1794.966      789.707      714.645        1.151        0.165      140.258       21.854        0.024      330.733       -1.705      866.280
01/25/2022  05:42:00      -87.890       24.003        0.671       61.119       38.586       28.470     3735.510     1488.878      810.533        0.717        0.302       91.109       29.042        0.102      330.605       -1.917      866.297
01/25/2022  05:43:00     -105.598       33.406        6.055       56.495       40.018       28.580     3191.711     1601.443      816.818        0.896        0.280      110.756       26.984        0.059      330.647       -1.847      866.308
01/25/2022  05:44:00     -146.570       31.341       -3.234       48.144       32.244       31.693     2317.890     1039.696     1004.422        1.342        0.218      149.883       28.638        0.037      330.575       -1.964      866.309
01/25/2022  05:45:00     -168.596       59.038       -2.224       57.844       40.388       29.910     3345.949     1631.206      894.620        1.889        0.294      178.634       32.673        0.033      330.649       -1.845      866.329
01/25/2022  05:46:00     -145.829       48.209       -4.877       42.658       40.965       26.803     1819.706     1678.166      718.410        1.391        0.211      153.592       16.500        0.012      330.565       -1.981      866.347
01/25/2022  05:47:00     -156.776       55.385       -9.604       43.988       34.707       29.197     1934.933     1204.579      852.455        1.586        0.200      166.271       19.001        0.013      330.533       -2.035      866.352
01/25/2022  05:48:00     -143.208       56.826       -2.087       44.413       34.022       29.425     1972.550     1157.466      865.838        1.387        0.200      154.071       24.808        0.026      330.458       -2.157      866.370
01/25/2022  05:49:00     -110.774       25.167       -6.099       45.352       32.724       18.799     2056.786     1070.833      353.419        0.821        0.174      113.596       18.889        0.028      330.541       -2.020      866.382
01/25/2022  05:50:00      -11.571        5.073       -7.417       20.636       21.309       16.237      425.828      454.086      263.636        0.068        0.057       12.634       13.831        1.198      330.509       -2.074      866.404
01/25/2022  05:51:00      -77.229       25.953       -1.514       28.308       21.949       20.059      801.329      481.774      402.356        0.416        0.084       81.473       16.546        0.041      330.417       -2.223      866.442
01/25/2022  05:52:00      -83.862       16.578      -15.464       23.488       19.046       17.407      551.689      362.733      302.997        0.438        0.061       85.485       12.861        0.023      330.414       -2.229      866.455
01/25/2022  05:53:00      -99.342       44.291      -15.599       34.298       31.050       24.311     1176.382      964.077      591.027        0.740        0.137      108.768       24.301        0.050      330.322       -2.380      866.465
01/25/2022  05:54:00      -97.101       38.071      -17.309       27.143       26.218       15.473      736.760      687.362      239.428        0.642        0.083      104.297       14.849        0.020      330.370       -2.301      866.469
01/25/2022  05:55:00      -80.212       23.815       -7.261       35.533       33.578       21.578     1262.569     1127.492      465.589        0.495        0.143       83.672       16.867        0.041      330.392       -2.265      866.457
01/25/2022  05:56:00      -11.389      -25.919      -11.588       10.038       22.519       11.606      100.756      507.117      134.692        0.084        0.037       28.311        6.867        0.059      330.417       -2.224      866.458
01/25/2022  05:57:00      -25.831       -8.872       -4.226       42.196       20.200       14.165     1780.478      408.056      200.652        0.158        0.119       27.312       17.402        0.406      330.464       -2.147      866.489
01/25/2022  05:58:00       -2.928        8.386      -13.339       20.012       23.431       14.256      400.474      548.993      203.239        0.070        0.058        8.883        3.295        0.138      330.523       -2.051      866.512
01/25/2022  05:59:00       35.867      -11.380      -17.113       56.743       49.630       34.231     3219.745     2463.138     1171.788        0.428        0.343       37.629       28.684        0.581      330.383       -2.280      866.532
01/25/2022  06:00:00       90.124      -10.455       -5.122       70.763       48.264       46.329     5007.357     2329.371     2146.373        0.887        0.474       90.729       39.996        0.194      330.157       -2.651      866.549
01/25/2022  06:01:00       21.389       -8.563        2.421       33.513       25.803       20.619     1123.107      665.808      425.142        0.137        0.111       23.040       19.861        0.743      330.384       -2.278      866.556
01/25/2022  06:02:00       58.101        0.124       -4.855       53.125       41.076       27.966     2822.306     1687.251      782.090        0.434        0.265       58.101       22.780        0.154      330.437       -2.191      866.572
01/25/2022  06:03:00       89.100      -15.021      -18.412       55.565       47.925       37.973     3087.471     2296.784     1441.959        0.766        0.341       90.357       29.991        0.110      330.320       -2.384      866.584
01/25/2022  06:04:00      104.185       -9.811       -8.408       39.452       31.001       30.162     1556.457      961.052      909.773        0.722        0.171      104.645       25.704        0.060      330.234       -2.524      866.601
01/25/2022  06:05:00       72.340      -18.614       -3.222       27.023       15.060       15.983      730.261      226.817      255.452        0.340        0.061       74.697       17.473        0.055      330.306       -2.406      866.596
01/25/2022  06:06:00       64.026       -4.553       -1.313       27.269       20.141       14.213      743.602      405.678      202.008        0.274        0.068       64.188       13.576        0.045      330.314       -2.391      866.609
01/25/2022  06:07:00       25.178       -0.726       -9.454       14.375       12.231       13.043      206.648      149.592      170.107        0.062        0.026       25.189        9.928        0.155      330.236       -2.521      866.608
01/25/2022  06:08:00       53.241        8.228      -12.140       15.848       10.658        6.858      251.152      113.594       47.034        0.173        0.021       53.873        4.263        0.006      330.320       -2.383      866.617
01/25/2022  06:09:00       30.424        9.387       -8.035       10.817       11.351        7.668      116.998      128.848       58.799        0.069        0.015       31.839        6.265        0.039      330.281       -2.446      866.620
01/25/2022  06:10:00       18.263      -10.723       -9.797       11.986       16.225        7.495      143.665      263.238       56.174        0.050        0.023       21.178        6.336        0.090      330.378       -2.290      866.610
01/25/2022  06:11:00       20.881      -14.998      -18.911       15.374       23.960       17.135      236.364      574.059      293.615        0.106        0.055       25.709       11.584        0.203      330.416       -2.225      866.619
01/25/2022  06:12:00       19.506       -5.747      -15.004       22.139       18.848       15.913      490.155      355.243      253.215        0.087        0.055       20.335       12.975        0.407      330.355       -2.324      866.634
01/25/2022  06:13:00       29.242      -38.308      -18.456       21.672       28.556       16.670      469.678      815.431      277.880        0.211        0.078       48.193        9.377        0.038      330.390       -2.269      866.627
01/25/2022  06:14:00      -15.712       -4.233      -15.320       18.701       15.368       12.242      349.727      236.171      149.870        0.062        0.037       16.273        5.860        0.130      330.542       -2.019      866.624
01/25/2022  06:15:00      -13.805       -4.184       -4.111       12.400       10.934       17.324      153.760      119.549      300.132        0.040        0.029       14.425       11.365        0.621      330.522       -2.052      866.650
01/25/2022  06:16:00       -4.824        7.834        7.518       21.077       24.973       22.571      444.235      623.634      509.472        0.086        0.079        9.200       16.472        3.206      330.510       -2.071      866.676
01/25/2022  06:17:00       52.628      -43.593      -19.823       29.037       33.958       21.438      843.130     1153.168      459.582        0.376        0.123       68.338       14.346        0.044      330.504       -2.081      866.695
01/25/2022  06:18:00       41.878      -44.375      -10.302       35.085       45.012       36.025     1230.948     2026.081     1297.805        0.419        0.228       61.015       30.961        0.257      330.456       -2.160      866.726
01/25/2022  06:19:00       28.348      -34.339      -16.166       33.627       33.185       26.528     1130.744     1101.232      703.715        0.259        0.147       44.528       16.086        0.131      330.504       -2.082      866.754
01/25/2022  06:20:00       30.634      -13.959      -15.780       33.033       27.138       19.474     1091.185      736.464      379.255        0.179        0.110       33.664        9.888        0.086      330.368       -2.303      866.785
01/25/2022  06:21:00       57.206       -4.154       -7.672       33.987       29.459       15.881     1155.132      867.819      252.204        0.281        0.114       57.356       12.915        0.051      330.086       -2.767      866.795
01/25/2022  06:22:00       14.002       -1.425      -14.144       21.808       24.961       16.700      475.585      623.069      278.883        0.089        0.069       14.074       14.568        1.071      330.097       -2.748      866.792
01/25/2022  06:23:00       36.893      -31.838      -13.303       22.172       25.857       15.725      491.589      668.572      247.265        0.198        0.070       48.732       13.890        0.081      330.322       -2.380      866.782
01/25/2022  06:24:00       32.221      -22.987      -10.083       30.973       26.441       15.491      959.328      699.128      239.978        0.178        0.095       39.581       12.357        0.097      330.320       -2.383      866.780
01/25/2022  06:25:00       28.295      -30.937       -7.787       22.173       20.273       16.362      491.625      411.010      267.731        0.149        0.059       41.925       14.559        0.121      330.419       -2.222      866.779
01/25/2022  06:26:00        4.005       -7.632        2.545       13.116       18.612       11.430      172.020      346.411      130.636        0.036        0.032        8.619        6.743        0.612      330.393       -2.263      866.785
01/25/2022  06:27:00      -10.290      -15.523       -2.757       14.745       14.213       10.332      217.423      202.007      106.743        0.044        0.026       18.624        7.891        0.180      330.369       -2.303      866.795
01/25/2022  06:28:00      -18.715      -16.790      -13.332       19.979       12.624        9.461      399.144      159.370       89.518        0.073        0.032       25.143        6.616        0.069      330.308       -2.401      866.799
01/25/2022  06:29:00       -4.705      -10.902       -7.018       10.263       12.079        6.076      105.334      145.902       36.915        0.024        0.014       11.874        5.499        0.214      330.266       -2.472      866.813
01/25/2022  06:30:00      -47.252       27.246      -10.023       21.206       16.723        9.101      449.701      279.664       82.835        0.194        0.041       54.545        5.769        0.011      330.243       -2.508      866.830
01/25/2022  06:31:00      -24.423        0.187       -6.156       21.343       18.753       17.205      455.525      351.689      296.014        0.087        0.055       24.423       10.986        0.202      330.219       -2.549      866.846
01/25/2022  06:32:00        2.900       -5.796        1.519       10.097       24.658       10.108      101.942      608.021      102.176        0.043        0.041        6.481        6.128        0.894      330.323       -2.377      866.863
01/25/2022  06:33:00      -30.838        0.467       -5.368       26.047       17.620       14.498      678.443      310.454      210.195        0.109        0.060       30.842       12.827        0.173      330.401       -2.250      866.871
01/25/2022  06:34:00      -41.149        2.729       -6.762       20.511       26.463       20.321      420.682      700.274      412.927        0.164        0.077       41.239        7.364        0.032      330.373       -2.294      866.876
01/25/2022  06:35:00      -25.621       -6.757       -8.534       26.259       20.343       20.267      689.543      413.855      410.756        0.114        0.076       26.497       14.660        0.306      330.297       -2.419      866.879
01/25/2022  06:36:00       -1.987      -23.787       -7.445       35.863       27.138       25.982     1286.179      736.496      675.040        0.166        0.135       23.870       21.244        0.792      330.385       -2.276      866.883
01/25/2022  06:37:00      -25.825      -13.813       -2.654       36.384       38.539       23.370     1323.815     1485.236      546.140        0.211        0.168       29.287       19.080        0.424      330.331       -2.366      866.902
01/25/2022  06:38:00      -20.500      -15.394        0.203       24.952       19.913       21.309      622.620      396.524      454.077        0.106        0.074       25.636        9.504        0.137      330.246       -2.502      866.930
01/25/2022  06:39:00        0.753      -11.052       -6.901       15.078       24.324       14.896      227.332      591.643      221.897        0.061        0.052       11.078        8.085        0.533      330.233       -2.524      866.959
01/25/2022  06:40:00      -18.961        3.012       -5.822       23.101       24.142       16.580      533.660      582.844      274.905        0.090        0.070       19.198        8.882        0.214      330.188       -2.600      866.988
01/25/2022  06:41:00      -39.036      -10.060       -1.750       30.586       21.784       16.597      935.477      474.535      275.457        0.166        0.084       40.312       14.370        0.127      330.193       -2.591      867.010
01/25/2022  06:42:00      -39.173      -16.655       -5.194       31.659       29.975       17.248     1002.271      898.472      297.489        0.202        0.110       42.567       18.719        0.193      330.126       -2.702      867.021
01/25/2022  06:43:00      -35.302      -19.639      -14.131       19.711       26.638       15.365      388.524      709.557      236.081        0.158        0.067       40.397        7.568        0.035      330.241       -2.513      867.019
01/25/2022  06:44:00      -18.797       -3.703       -7.076       11.983       14.146       10.622      143.590      200.112      112.836        0.044        0.023       19.158        3.793        0.039      330.202       -2.575      867.026
01/25/2022  06:45:00      -22.910        4.447      -12.250       14.806       14.783       10.682      219.224      218.537      114.103        0.062        0.028       23.338        6.161        0.070      330.098       -2.748      867.037
01/25/2022  06:46:00      -39.956       18.297       -5.496       22.117       19.779       10.356      489.167      391.218      107.243        0.147        0.049       43.946        9.436        0.046      330.049       -2.827      867.039
01/25/2022  06:47:00      -63.851       14.975       -7.174       18.590       17.073       14.694      345.590      291.499      215.901        0.260        0.043       65.584       11.266        0.030      330.005       -2.899      867.035
01/25/2022  06:48:00      -11.088      -11.206       -4.350       18.722       21.136       12.482      350.506      446.718      155.796        0.061        0.048       15.764        7.589        0.232      330.012       -2.888      867.033
01/25/2022  06:49:00        4.636      -25.511      -12.397       13.540       12.452        9.498      183.342      155.042       90.212        0.063        0.021       25.929        2.862        0.012      330.223       -2.543      867.046
01/25/2022  06:50:00       -5.916       14.128       -6.459        6.641       15.148        6.659       44.097      229.466       44.338        0.030        0.016       15.316        6.844        0.200      330.045       -2.835      867.057
01/25/2022  06:51:00      -24.719       27.690       -6.436       11.950        9.754        7.840      142.794       95.140       61.468        0.086        0.015       37.118        5.920        0.025      329.916       -3.043      867.066
01/25/2022  06:52:00      -38.009       12.608      -13.719       13.366        9.225        9.107      178.638       85.098       82.933        0.107        0.017       40.046        6.403        0.026      329.926       -3.028      867.067
01/25/2022  06:53:00      -34.907       16.043       -6.770       13.269        8.225        7.746      176.079       67.651       60.004        0.091        0.015       38.417        2.541        0.004      330.013       -2.887      867.082
01/25/2022  06:54:00       -8.397       12.352       -5.740       12.812       11.186        8.000      164.143      125.130       63.994        0.030        0.018       14.936        6.705        0.202      330.052       -2.824      867.083
01/25/2022  06:55:00      -27.792       27.228       -6.791       13.594        7.210        7.907      184.810       51.987       62.513        0.093        0.015       38.907        7.778        0.040      330.003       -2.903      867.095
01/25/2022  06:56:00      -55.931       11.925       -9.442       30.679       17.396       16.461      941.201      302.623      270.965        0.244        0.076       57.188       18.859        0.109      330.008       -2.894      867.100
01/25/2022  06:57:00      -44.899        6.931       -6.090       28.141       22.464       20.442      791.889      504.646      417.891        0.191        0.086       45.431       13.483        0.088      330.190       -2.597      867.098
01/25/2022  06:58:00      -12.841      -39.895      -12.135       13.123       13.474       12.250      172.203      181.535      150.052        0.120        0.025       41.911        7.882        0.035      330.104       -2.739      867.089
01/25/2022  06:59:00        0.457      -24.697      -10.886        7.364        9.748        8.349       54.228       95.027       69.701        0.047        0.011       24.702        5.678        0.053      330.099       -2.745      867.088
01/25/2022  07:00:00       -7.054       -5.145       -1.166        8.846       10.037       10.490       78.248      100.750      110.047        0.018        0.014        8.731        4.962        0.323      330.159       -2.647      867.100
01/25/2022  07:01:00       -4.727      -20.354       -4.250        9.821       13.781       10.595       96.445      189.909      112.249        0.043        0.020       20.896        2.236        0.011      330.110       -2.727      867.115
01/25/2022  07:02:00       -3.900       -3.678        0.317        9.948        6.624        7.569       98.960       43.875       57.291        0.011        0.010        5.360        6.336        1.397      330.103       -2.739      867.122
01/25/2022  07:03:00       -8.279      -12.787        1.257        6.646        8.875        7.718       44.174       78.770       59.562        0.021        0.009       15.233        2.141        0.020      330.265       -2.473      867.129
01/25/2022  07:04:00        0.210        1.268        2.907        8.125       10.048        8.876       66.023      100.968       78.775        0.013        0.012        1.285        5.440       17.914      330.091       -2.759      867.139
01/25/2022  07:05:00        0.332       10.248       -3.191       10.723       13.168        9.092      114.989      173.400       82.668        0.024        0.019       10.253        8.551        0.695      330.060       -2.810      867.160
01/25/2022  07:06:00       -1.066      -11.390        2.086       23.637       18.273       22.637      558.715      333.913      512.446        0.077        0.070       11.440       19.225        2.824      330.089       -2.762      867.174
01/25/2022  07:07:00      -12.016      -11.826       -5.087       14.010       18.419       13.450      196.276      339.278      180.911        0.051        0.036       16.859        6.301        0.140      330.118       -2.714      867.178
01/25/2022  07:08:00      -24.228       -5.426       -0.115       13.936       17.886       12.422      194.209      319.907      154.296        0.064        0.033       24.828        6.517        0.069      330.142       -2.674      867.168
01/25/2022  07:09:00      -15.116       12.484       -8.071        9.454        8.290        7.132       89.382       68.722       50.866        0.033        0.010       19.605        4.995        0.065      329.951       -2.987      867.141
01/25/2022  07:10:00       15.086       19.893       -2.781        6.554        5.583        4.490       42.954       31.173       20.162        0.036        0.005       24.966        2.544        0.010      329.985       -2.932      867.136
01/25/2022  07:11:00       20.310        7.872       -9.227       11.244        5.418        6.497      126.427       29.358       42.210        0.038        0.010       21.782        3.629        0.028      330.044       -2.834      867.141
01/25/2022  07:12:00       52.295       11.494       -8.577       20.564       14.157        9.033      422.864      200.414       81.598        0.182        0.035       53.544        7.025        0.017      329.915       -3.047      867.152
01/25/2022  07:13:00       11.164       10.544        3.852       31.208       28.164       22.675      973.951      793.232      514.160        0.127        0.114       15.356       17.368        1.279      329.794       -3.245      867.181
01/25/2022  07:14:00       41.300       21.077      -17.953       25.559       35.842       22.788      653.248     1284.647      519.282        0.246        0.123       46.367       15.488        0.112      329.735       -3.342      867.193
01/25/2022  07:15:00       75.737        9.922       -5.772       48.076       28.017       24.758     2311.331      784.961      612.968        0.479        0.185       76.384       20.686        0.073      329.710       -3.381      867.198
01/25/2022  07:16:00       81.834        8.537       -6.254       26.380       12.667        9.805      695.904      160.453       96.129        0.388        0.048       82.278        9.345        0.013      329.643       -3.491      867.186
01/25/2022  07:17:00       62.117       11.501       -2.881       34.058       23.801       16.623     1159.977      566.511      276.329        0.300        0.100       63.173       17.725        0.079      329.731       -3.348      867.156
01/25/2022  07:18:00       51.061       27.958      -12.123       34.762       20.307       12.735     1208.419      412.362      162.169        0.266        0.089       58.214        8.809        0.023      329.664       -3.457      867.148
01/25/2022  07:19:00       59.697       38.269       -4.360       18.411       15.429       14.460      338.978      238.067      209.080        0.292        0.039       70.910       10.800        0.023      329.679       -3.432      867.154
01/25/2022  07:20:00       59.882       51.953      -18.131       15.874       17.878       13.623      251.990      319.622      185.583        0.369        0.038       79.277       10.668        0.018      329.770       -3.284      867.165
01/25/2022  07:21:00       57.142       39.330      -12.470       19.858       19.509       13.218      394.356      380.589      174.713        0.296        0.047       69.369        9.085        0.017      329.708       -3.385      867.172
01/25/2022  07:22:00       55.050       32.583       -8.276       27.425       18.257       11.658      752.143      333.333      135.905        0.269        0.061       63.970        9.070        0.020      329.650       -3.481      867.174
01/25/2022  07:23:00       78.670       15.455      -13.921       13.970       12.919       10.048      195.173      166.898      100.959        0.354        0.023       80.174        6.067        0.006      329.740       -3.332      867.184
01/25/2022  07:24:00       51.985       11.934      -17.668       24.611       18.845       13.921      605.677      355.116      193.792        0.216        0.058       53.337        9.897        0.034      329.770       -3.284      867.202
01/25/2022  07:25:00       63.103       29.175      -12.378       20.646       16.068       11.584      426.274      258.178      134.187        0.290        0.041       69.521       10.343        0.022      329.708       -3.385      867.195
01/25/2022  07:26:00       55.928       46.987      -11.352       24.316       20.383       16.297      591.292      415.470      265.580        0.337        0.064       73.046       10.652        0.021      329.665       -3.454      867.192
01/25/2022  07:27:00       34.014       47.592       -4.961       19.465       21.157       12.545      378.899      447.613      157.369        0.222        0.049       58.498       10.998        0.035      329.796       -3.241      867.168
01/25/2022  07:28:00       32.486       68.912       -8.004       17.341       16.548       12.248      300.702      273.823      150.017        0.330        0.036       76.185        4.911        0.004      329.926       -3.029      867.155
01/25/2022  07:29:00       31.506       62.860       -5.650       13.317       16.257       11.043      177.353      264.306      121.945        0.277        0.028       70.314        7.196        0.010      329.970       -2.956      867.141
01/25/2022  07:30:00       17.906       24.908       -6.901       13.829       12.371       11.779      191.235      153.043      138.740        0.074        0.024       30.677        6.867        0.050      329.906       -3.061      867.135
01/25/2022  07:31:00       34.102       17.572      -10.824       13.834       10.142        7.819      191.379      102.858       61.140        0.097        0.018       38.363        6.083        0.025      329.973       -2.951      867.140
01/25/2022  07:32:00       22.007       35.842       -7.920       11.191        8.839       10.173      125.248       78.123      103.499        0.107        0.015       42.059        7.391        0.031      330.018       -2.878      867.153
01/25/2022  07:33:00       35.953       34.662      -10.217       12.194        9.443        8.063      148.698       89.174       65.011        0.145        0.015       49.941        3.549        0.005      330.022       -2.872      867.172
01/25/2022  07:34:00       51.796       15.263      -16.815       12.868       14.652       10.963      165.586      214.693      120.191        0.185        0.025       53.998        7.878        0.021      330.064       -2.803      867.199
01/25/2022  07:35:00       36.636       -9.315       -9.803       20.552       19.911       14.245      422.374      396.458      202.919        0.127        0.051       37.802        8.861        0.055      330.119       -2.711      867.229
01/25/2022  07:36:00       21.367      -13.022       -9.640       23.119       15.672       12.084      534.494      245.627      146.024        0.082        0.046       25.023       13.170        0.277      330.070       -2.793      867.254
01/25/2022  07:37:00       13.791       -8.279       -6.288       14.302       10.072        8.678      204.533      101.451       75.309        0.034        0.019       16.085        6.984        0.189      330.108       -2.731      867.240
01/25/2022  07:38:00        1.813       -0.102      -11.011        4.334        4.309        5.027       18.781       18.565       25.266        0.009        0.003        1.816        3.536        3.792      330.145       -2.669      867.218
01/25/2022  07:39:00        0.531        3.827       -6.049        5.754        5.336        4.488       33.109       28.473       20.140        0.007        0.004        3.864        2.388        0.382      330.128       -2.699      867.206
01/25/2022  07:40:00       -8.297       13.259       -1.911        6.753        8.042        8.413       45.609       64.679       70.783        0.021        0.009       15.640        5.045        0.104      330.128       -2.699      867.207
01/25/2022  07:41:00       -0.425        0.423      -11.072        3.826        7.859        4.713       14.636       61.770       22.214        0.011        0.005        0.599        3.130       27.270      330.323       -2.379      867.223
01/25/2022  07:42:00        4.362        1.537       -7.390       11.517        9.636       10.724      132.632       92.850      115.006        0.021        0.017        4.624        9.043        3.824      330.371       -2.299      867.234
01/25/2022  07:43:00       15.822       -1.677      -18.851       12.943       15.664       11.366      167.509      245.367      129.189        0.058        0.027       15.911        4.292        0.073      330.286       -2.437      867.253
01/25/2022  07:44:00        5.269      -13.489      -12.214       13.071       27.740       10.983      170.843      769.484      120.632        0.071        0.053       14.482        7.932        0.300      330.326       -2.373      867.277
01/25/2022  07:45:00        2.281      -37.125      -13.882       16.054       20.890       16.382      257.730      436.385      268.367        0.127        0.048       37.195        7.681        0.043      330.416       -2.226      867.305
01/25/2022  07:46:00        0.794       -4.414       -9.960       12.717       11.011        9.020      161.727      121.249       81.361        0.024        0.018        4.485        5.227        1.358      330.410       -2.235      867.336
01/25/2022  07:47:00       23.063       -6.510       -5.917       16.162       23.004       16.643      261.225      529.192      277.001        0.084        0.053       23.964        7.564        0.100      330.265       -2.473      867.342
01/25/2022  07:48:00       32.115      -10.779      -11.650       15.082       15.463       11.726      227.467      239.095      137.492        0.094        0.030       33.876        2.468        0.005      330.218       -2.551      867.336
01/25/2022  07:49:00       16.277       17.192       -8.918       12.572       17.063        8.981      158.045      291.131       80.657        0.058        0.026       23.675        8.426        0.127      330.194       -2.591      867.329
01/25/2022  07:50:00        2.277       22.501       -2.009        7.332        8.421        5.451       53.762       70.912       29.716        0.033        0.008       22.615        3.736        0.027      330.228       -2.534      867.298
01/25/2022  07:51:00       -6.249       29.975       -7.570       11.541       12.888       10.287      133.192      166.098      105.824        0.070        0.020       30.619        3.422        0.012      330.240       -2.514      867.278
01/25/2022  07:52:00      -39.742       23.676       -3.732       19.473       19.333       11.597      379.205      373.748      134.498        0.152        0.044       46.260        8.634        0.035      330.189       -2.598      867.262
01/25/2022  07:53:00      -35.584        4.833       -7.443       17.264       14.682       12.781      298.037      215.552      163.350        0.101        0.034       35.910       11.233        0.098      330.270       -2.463      867.267
01/25/2022  07:54:00      -52.262        9.851      -11.876       13.230       11.786       10.941      175.028      138.910      119.702        0.170        0.022       53.182        5.943        0.012      330.275       -2.456      867.281
01/25/2022  07:55:00      -29.194        7.290       -7.069       21.454       15.081       10.160      460.279      227.424      103.231        0.087        0.040       30.090        8.248        0.075      330.371       -2.299      867.283
01/25/2022  07:56:00      -22.650      -10.938       -7.642       25.152       17.737       11.956      632.639      314.598      142.943        0.089        0.055       25.152       14.866        0.349      330.545       -2.015      867.289
01/25/2022  07:57:00      -13.092      -28.138      -21.321       14.162       16.842       12.332      200.563      283.652      152.081        0.103        0.032       31.035        7.886        0.065      330.596       -1.930      867.303
01/25/2022  07:58:00        5.850      -60.139      -13.306       15.435       16.153       15.390      238.229      260.911      236.853        0.228        0.037       60.423        7.546        0.016      330.562       -1.986      867.328
01/25/2022  07:59:00       18.206      -56.983      -22.447       26.735       20.596       15.955      714.742      424.214      254.548        0.274        0.070       59.821       12.389        0.043      330.614       -1.901      867.353
01/25/2022  08:00:00       26.191       -2.572      -17.290       18.138       22.641       16.949      328.999      512.609      287.267        0.106        0.056       26.317        8.374        0.101      330.714       -1.736      867.368
01/25/2022  08:01:00       31.103      -38.300      -15.949       27.184       29.723       20.066      738.977      883.463      402.644        0.236        0.101       49.338       10.822        0.048      330.893       -1.443      867.377
01/25/2022  08:02:00       48.324      -39.484      -15.601       26.422       22.832       18.373      698.099      521.312      337.565        0.285        0.078       62.404        9.712        0.024      330.823       -1.557      867.382
01/25/2022  08:03:00        1.939      -10.689       -5.553       18.996       16.158       12.894      360.830      261.077      166.243        0.047        0.039       10.863        6.758        0.387      330.927       -1.386      867.377
01/25/2022  08:04:00      -12.931      -13.136        3.277       12.281       13.985        8.619      150.831      195.581       74.284        0.039        0.021       18.433        5.431        0.087      331.040       -1.201      867.377
01/25/2022  08:05:00        7.284      -10.520       -1.401       12.915       18.936       13.057      166.797      358.557      170.476        0.043        0.035       12.796        9.025        0.498      331.056       -1.175      867.380
01/25/2022  08:06:00       45.119      -18.100      -24.268       24.985       20.258       18.457      624.248      410.369      340.660        0.216        0.069       48.614       11.434        0.055      330.930       -1.382      867.391
01/25/2022  08:07:00       44.278      -20.586      -12.441       23.399       16.908       14.771      547.524      285.866      218.188        0.180        0.053       48.829       10.038        0.042      330.884       -1.458      867.402
01/25/2022  08:08:00       55.874      -29.342      -21.521       12.706       15.397       10.697      161.449      237.056      114.416        0.248        0.026       63.110        5.189        0.007      330.841       -1.527      867.406
01/25/2022  08:09:00       37.994        5.267      -17.327       24.566       29.073       18.558      603.480      845.260      344.391        0.178        0.090       38.357       13.090        0.116      330.959       -1.334      867.414
01/25/2022  08:10:00       63.257       18.881       -7.880       24.739       16.251       11.601      612.000      264.110      134.582        0.272        0.051       66.014        5.759        0.008      330.812       -1.575      867.401
01/25/2022  08:11:00       56.458       35.770      -16.018       29.585       28.232       14.673      875.249      797.036      215.299        0.331        0.094       66.835        9.803        0.022      330.793       -1.606      867.407
01/25/2022  08:12:00       25.071        8.639      -12.770       20.005       29.110       13.009      400.211      847.390      169.240        0.114        0.071       26.518       12.500        0.222      330.954       -1.343      867.412
01/25/2022  08:13:00        6.866        2.412        0.567       18.421       29.207       24.041      339.324      853.059      577.982        0.091        0.089        7.278       16.978        5.442      331.135       -1.045      867.431
01/25/2022  08:14:00       42.414       -7.210      -28.242       34.387       45.407       26.670     1182.471     2061.801      711.272        0.330        0.198       43.022       19.216        0.199      330.884       -1.457      867.460
01/25/2022  08:15:00       58.400      -18.973       -8.566       37.312       30.778       32.402     1392.213      947.313     1049.859        0.362        0.169       61.405       25.481        0.172      330.842       -1.527      867.483
01/25/2022  08:16:00       92.048      -27.936      -12.519       30.657       25.053       22.635      939.843      627.641      512.329        0.574        0.104       96.194       13.411        0.019      330.695       -1.768      867.507
01/25/2022  08:17:00       31.019      -11.556      -11.634       31.193       24.690       18.443      973.023      609.583      340.141        0.158        0.096       33.102       11.882        0.129      330.954       -1.342      867.505
01/25/2022  08:18:00       31.465        7.093      -19.011       21.441       27.333       15.599      459.728      747.118      243.329        0.143        0.073       32.255        8.763        0.074      331.027       -1.224      867.500
01/25/2022  08:19:00       47.930       16.345      -15.580       26.517       38.702       17.253      703.127     1497.878      297.649        0.265        0.125       50.640       17.965        0.126      330.979       -1.301      867.493
01/25/2022  08:20:00       32.725       -6.729       -8.189       35.707       33.777       21.599     1275.004     1140.859      466.500        0.203        0.144       33.409       16.916        0.256      331.043       -1.197      867.503
01/25/2022  08:21:00       68.946       34.739      -15.905       28.868       29.969       13.912      833.377      898.165      193.533        0.407        0.096       77.203        8.567        0.012      331.022       -1.230      867.500
01/25/2022  08:22:00       96.376       38.543      -17.540       23.832       17.859       10.021      567.981      318.960      100.429        0.603        0.049      103.797        7.891        0.006      330.838       -1.532      867.490
01/25/2022  08:23:00       96.251       27.915      -14.681       19.634       34.150       18.118      385.475     1166.254      328.250        0.607        0.094      100.217       15.612        0.024      330.905       -1.423      867.491
01/25/2022  08:24:00       86.218       68.797      -29.694       28.355       23.137       24.579      804.005      535.334      604.106        0.750        0.097      110.302        6.585        0.004      331.126       -1.060      867.490
01/25/2022  08:25:00       82.297       32.420      -28.396       43.781       47.112       27.032     1916.753     2219.574      730.708        0.675        0.243       88.452       21.461        0.059      331.237       -0.878      867.480
01/25/2022  08:26:00      114.616       62.626      -19.001       30.359       18.804       15.459      921.654      353.590      238.995        0.947        0.076      130.610        6.388        0.002      331.061       -1.167      867.485
01/25/2022  08:27:00      110.462       44.146      -12.817       30.441       24.907       18.327      926.678      620.340      335.867        0.810        0.094      118.957       16.232        0.019      331.122       -1.067      867.484
01/25/2022  08:28:00       87.922       54.309      -17.137       39.728       34.792       22.362     1578.332     1210.482      500.053        0.713        0.164      103.342       25.492        0.061      331.184       -0.964      867.467
01/25/2022  08:29:00       40.957       17.059       -4.889       34.828       25.841       25.984     1212.959      667.764      675.184        0.227        0.128       44.367       21.163        0.228      331.367       -0.664      867.481
01/25/2022  08:30:00       18.301        8.898       -5.275       25.533       34.610       16.374      651.937     1197.849      268.104        0.128        0.106       20.349       15.809        0.604      331.350       -0.691      867.492
01/25/2022  08:31:00       29.650        2.269       -7.428       24.773       21.551       15.270      613.699      464.443      233.184        0.113        0.066       29.737       13.721        0.213      331.466       -0.501      867.497
01/25/2022  08:32:00       40.159       34.866      -27.140       20.306       18.840       21.057      412.338      354.928      443.415        0.239        0.061       53.183       12.383        0.054      331.472       -0.491      867.531
01/25/2022  08:33:00       31.157      -22.665      -19.720       22.721       29.945       18.124      516.236      896.728      328.491        0.181        0.087       38.528       14.555        0.143      331.661       -0.179      867.551
01/25/2022  08:34:00       40.643       20.084       -8.915       36.435       33.589       27.501     1327.480     1128.235      756.307        0.267        0.161       45.334       22.282        0.242      331.722       -0.080      867.561
01/25/2022  08:35:00      100.024        7.178       -4.541       37.306       25.708       23.351     1391.722      660.905      545.288        0.634        0.130      100.282       22.509        0.050      331.525       -0.405      867.569
01/25/2022  08:36:00      109.149       47.443      -16.612       38.637       39.134       23.355     1492.819     1531.453      545.468        0.900        0.178      119.014       10.751        0.008      331.641       -0.212      867.569
01/25/2022  08:37:00      115.984       45.362      -23.730       44.274       44.725       25.663     1960.228     2000.311      658.611        1.035        0.231      124.539        3.568        0.001      331.632       -0.227      867.588
01/25/2022  08:38:00       88.401       14.948      -18.428       48.749       36.377       23.285     2376.513     1323.264      542.209        0.631        0.212       89.656       17.548        0.038      331.913        0.236      867.611
01/25/2022  08:39:00       70.965        2.449       -4.640       48.355       41.447       25.074     2338.221     1717.871      628.698        0.487        0.234       71.008       28.670        0.163      331.932        0.266      867.621
01/25/2022  08:40:00       42.804       -7.003       -3.863       40.298       35.236       24.309     1623.962     1241.560      590.921        0.268        0.173       43.373       17.926        0.171      332.067        0.488      867.641
01/25/2022  08:41:00      100.188      -19.716      -24.572       34.594       45.730       25.512     1196.738     2091.258      650.861        0.748        0.197      102.109       16.067        0.025      331.896        0.207      867.656
01/25/2022  08:42:00       67.260      -23.379      -19.555       35.074       44.389       26.905     1230.164     1970.419      723.887        0.469        0.196       71.207       16.311        0.052      332.053        0.464      867.684
01/25/2022  08:43:00       99.565      -68.131      -33.308       48.531       53.709       34.384     2355.289     2884.679     1182.280        1.104        0.321      120.644       31.939        0.070      331.936        0.273      867.703
01/25/2022  08:44:00      110.717     -136.028      -45.324       26.736       51.188       17.898      714.828     2620.203      320.340        1.824        0.183      175.390       16.284        0.009      331.894        0.204      867.710
01/25/2022  08:45:00       79.362     -137.011      -29.019       23.085       30.417       19.555      532.933      925.198      382.405        1.388        0.092      158.336       11.471        0.005      331.980        0.348      867.725
01/25/2022  08:46:00       86.915      -47.157      -23.799       30.818       53.570       23.887      949.758     2869.713      570.568        0.737        0.220       98.884       21.691        0.048      332.129        0.591      867.721
01/25/2022  08:47:00       56.388      -12.572      -16.095       38.977       41.528       30.536     1519.243     1724.547      932.461        0.389        0.209       57.772       24.299        0.177      332.227        0.751      867.720
01/25/2022  08:48:00       59.543       -3.704      -27.199       41.426       38.561       30.614     1716.135     1486.927      937.216        0.422        0.207       59.658       19.853        0.111      332.335        0.930      867.719
01/25/2022  08:49:00       84.340       22.703       -6.742       57.303       51.201       35.367     3283.663     2621.512     1250.834        0.741        0.358       87.343       23.146        0.070      332.294        0.863      867.712
01/25/2022  08:50:00       73.906       -6.246      -25.218       37.974       65.671       40.718     1442.034     4312.662     1657.935        0.677        0.371       74.170       26.400        0.127      332.438        1.100      867.709
01/25/2022  08:51:00       67.815      -11.995       -4.434       47.062       37.712       36.194     2214.813     1422.232     1309.980        0.485        0.247       68.868       24.052        0.122      332.390        1.022      867.712
01/25/2022  08:52:00       72.943      -20.204        0.476       57.547       37.366       38.572     3311.648     1396.224     1487.835        0.596        0.310       75.690       39.521        0.273      332.422        1.075      867.696
01/25/2022  08:53:00       50.698        3.631       -5.934       30.783       46.648       32.118      947.618     2175.990     1031.543        0.339        0.208       50.828       16.965        0.111      332.536        1.263      867.688
01/25/2022  08:54:00       39.455      -56.262      -30.837       29.869       47.530       27.565      892.152     2259.054      759.827        0.479        0.196       68.718       15.664        0.052      332.636        1.428      867.688
01/25/2022  08:55:00       89.400      -13.783      -29.865       52.230       43.221       33.464     2727.980     1868.044     1119.829        0.739        0.286       90.456       17.291        0.037      332.513        1.225      867.698
01/25/2022  08:56:00       37.025       14.960       -7.964       34.749       42.192       26.628     1207.465     1780.142      709.033        0.268        0.185       39.933       13.141        0.108      332.770        1.649      867.715
01/25/2022  08:57:00       89.344      -53.500      -27.503       46.393       62.669       37.136     2152.294     3927.426     1379.101        0.953        0.373      104.137       18.284        0.031      332.608        1.381      867.731
01/25/2022  08:58:00       76.674        0.214       -7.652       52.267       46.168       37.949     2731.872     2131.467     1440.161        0.612        0.315       76.674       33.929        0.196      332.646        1.445      867.742
01/25/2022  08:59:00      127.628      -23.370        1.804       88.944       37.763       40.733     7911.031     1426.036     1659.156        1.392        0.550      129.750       40.376        0.097      332.431        1.088      867.758
01/25/2022  09:00:00       81.350      -22.378       -9.573       64.417       50.862       41.541     4149.575     2586.946     1725.640        0.783        0.423       84.372       35.417        0.176      332.606        1.379      867.780
01/25/2022  09:01:00       78.713       -9.427      -23.036       58.106       61.926       41.106     3376.263     3834.857     1689.674        0.786        0.445       79.276       31.867        0.162      332.514        1.227      867.780
01/25/2022  09:02:00      131.096      -24.316      -33.765       60.099       52.160       36.558     3611.902     2720.649     1336.463        1.329        0.383      133.333       24.498        0.034      332.636        1.427      867.783
01/25/2022  09:03:00       85.396       -4.261      -27.608       69.225       52.324       40.790     4792.118     2737.807     1663.860        0.863        0.460       85.503       14.965        0.031      332.703        1.538      867.785
01/25/2022  09:04:00       42.981      -20.803       -8.110       36.717       43.789       36.157     1348.167     1917.517     1307.310        0.346        0.229       47.751       23.510        0.242      332.884        1.838      867.790
01/25/2022  09:05:00       99.428      -67.722      -20.294       48.120       52.962       35.548     2315.530     2804.956     1263.664        1.063        0.319      120.301       29.124        0.059      332.729        1.583      867.803
01/25/2022  09:06:00      133.306      -24.642      -18.233       39.834       45.770       32.599     1586.770     2094.848     1062.682        1.173        0.237      135.565       24.645        0.033      332.622        1.405      867.811
01/25/2022  09:07:00       74.054      -24.066      -19.715       48.324       55.750       41.145     2335.254     3108.010     1692.928        0.679        0.357       77.867       36.066        0.215      332.806        1.710      867.816
01/25/2022  09:08:00       31.038       -0.500       -3.961       61.838       58.952       50.319     3823.892     3475.336     2532.022        0.540        0.492       31.042       40.483        1.701      332.823        1.737      867.824
01/25/2022  09:09:00       55.836       24.377      -20.997       70.769       34.565       30.338     5008.240     1194.708      920.387        0.564        0.356       60.925       25.199        0.171      332.981        1.998      867.829
01/25/2022  09:10:00       84.455      -11.254       -8.602       64.441       43.548       36.588     4152.661     1896.459     1338.679        0.736        0.369       85.202       23.701        0.077      333.061        2.129      867.837
01/25/2022  09:11:00      163.399       60.535      -16.401       49.942       62.244       29.572     2494.244     3874.339      874.527        1.894        0.362      174.252       19.665        0.013      332.934        1.919      867.851
01/25/2022  09:12:00       72.097       15.751      -22.687       60.832       48.541       29.451     3700.542     2356.197      867.389        0.644        0.346       73.798       29.965        0.165      333.227        2.404      867.858
01/25/2022  09:13:00       82.666       -9.585      -20.167       61.974       41.274       27.199     3840.766     1703.508      739.766        0.681        0.314       83.220       24.327        0.085      333.216        2.389      867.876
01/25/2022  09:14:00        9.576      -29.402      -15.006       50.090       42.325       30.382     2509.054     1791.406      923.078        0.320        0.261       30.923       27.491        0.790      333.278        2.489      867.877
01/25/2022  09:15:00      196.509       28.177      -24.954       94.212       56.183       36.458     8875.979     3156.576     1329.200        2.669        0.668      198.518       31.937        0.026      333.049        2.107      867.887
01/25/2022  09:16:00      204.180        4.717       -8.627      115.505       63.724       57.182    13341.460     4060.751     3269.767        3.123        1.034      204.235       48.696        0.057      333.087        2.170      867.888
01/25/2022  09:17:00      221.917       17.537      -23.796       53.973       50.798       35.262     2913.064     2580.448     1243.395        2.843        0.337      222.609       25.013        0.013      332.984        2.000      867.906
01/25/2022  09:18:00      191.271       60.487      -28.229       30.315       44.648       21.402      918.970     1993.426      458.025        2.220        0.169      200.607       15.615        0.006      332.957        1.955      867.907
01/25/2022  09:19:00       96.458        8.823       -8.151       66.000       38.903       33.065     4356.010     1513.424     1093.282        0.820        0.348       96.861       29.196        0.091      333.346        2.603      867.905
01/25/2022  09:20:00      152.738       41.991      -18.242       29.271       22.711       18.174      856.803      515.768      330.288        1.356        0.085      158.405        8.192        0.003      333.015        2.054      867.917
01/25/2022  09:21:00      107.668        2.569      -22.368       61.519       55.392       34.690     3784.545     3068.302     1203.406        1.008        0.403      107.698       25.924        0.058      333.536        2.916      867.932
01/25/2022  09:22:00       83.784       78.244       -4.489       59.426       42.182       34.093     3531.500     1779.328     1162.326        0.982        0.324      114.638       21.145        0.034      333.619        3.054      867.959
01/25/2022  09:23:00      111.216       25.163      -19.358       42.480       42.703       32.096     1804.551     1823.546     1030.177        0.902        0.233      114.027       20.953        0.034      333.401        2.693      867.985
01/25/2022  09:24:00       76.752       14.572       -6.499       77.471       76.913       42.335     6001.693     5915.540     1792.294        0.992        0.685       78.123       37.705        0.233      333.346        2.602      868.002
01/25/2022  09:25:00       39.576       14.052       -0.465       57.106       64.130       40.530     3261.084     4112.671     1642.691        0.539        0.451       41.996       34.032        0.657      333.547        2.934      868.000
01/25/2022  09:26:00      136.196       29.017      -19.998       39.733       46.039       28.357     1578.680     2119.605      804.101        1.215        0.225      139.253       11.850        0.007      333.220        2.392      867.996
01/25/2022  09:27:00      151.469       72.430      -14.385       58.647       51.685       30.495     3439.433     2671.334      929.962        1.772        0.352      167.896       24.207        0.021      333.273        2.480      867.984
01/25/2022  09:28:00      168.675       41.924      -33.250       70.030       50.484       35.575     4904.144     2548.624     1265.549        2.001        0.436      173.807       16.712        0.009      333.429        2.736      867.987
01/25/2022  09:29:00       74.848       -1.768       -9.186       62.771       58.611       38.524     3940.183     3435.279     1484.080        0.727        0.443       74.869       26.148        0.122      333.688        3.168      868.001
01/25/2022  09:30:00      137.617       26.884      -27.315       71.620       56.501       38.933     5129.460     3192.370     1515.764        1.512        0.492      140.219       30.900        0.049      333.743        3.257      868.006
01/25/2022  09:31:00      152.486       38.872      -23.160       70.019       65.841       38.183     4902.625     4335.012     1457.906        1.800        0.535      157.363       24.674        0.025      333.502        2.857      868.025
01/25/2022  09:32:00      231.355       49.022      -14.733       94.438       59.008       38.342     8918.521     3481.947     1470.078        3.501        0.694      236.491       41.837        0.031      333.334        2.578      868.048
01/25/2022  09:33:00       57.460      -58.398      -11.130       62.334       62.503       41.099     3885.519     3906.645     1689.148        0.816        0.474       81.926       38.453        0.220      333.679        3.153      868.067
01/25/2022  09:34:00       63.601      -41.745      -36.440       39.192       58.039       31.331     1535.978     3368.515      981.610        0.650        0.294       76.077        8.915        0.014      333.902        3.521      868.073
01/25/2022  09:35:00      152.225      -47.492      -19.023      109.953       75.949       46.054    12089.662     5768.269     2120.949        2.288        0.999      159.461       44.846        0.079      333.539        2.920      868.074
01/25/2022  09:36:00      132.690      -23.966      -20.530       98.206       90.174       63.662     9644.341     8131.358     4052.906        2.021        1.091      134.837       43.119        0.102      333.498        2.851      868.066
01/25/2022  09:37:00      105.329        4.608       -3.645       93.665       78.585       59.567     8773.216     6175.530     3548.171        1.481        0.925      105.430       43.586        0.171      333.658        3.117      868.066
01/25/2022  09:38:00      176.775       -8.584      -37.827       86.541       85.928       34.119     7489.283     7383.559     1164.101        2.439        0.802      176.983       31.924        0.033      333.554        2.943      868.089
01/25/2022  09:39:00      177.355       61.178      -18.036       61.984       48.855       35.607     3842.026     2386.780     1267.866        2.151        0.375      187.610       35.969        0.037      333.538        2.918      868.112
01/25/2022  09:40:00       59.244      -34.346      -24.967       69.905       88.439       53.730     4886.697     7821.397     2886.893        1.045        0.780       68.480       33.928        0.245      333.994        3.674      868.112
01/25/2022  09:41:00      109.128      -57.331       -8.868      100.817       76.814       51.324    10163.984     5900.337     2634.191        1.698        0.935      123.271       41.864        0.115      333.754        3.276      868.117
01/25/2022  09:42:00      111.200       12.372      -29.909       77.873       80.015       46.146     6064.187     6402.432     2129.469        1.400        0.730      111.886       31.775        0.081      333.837        3.414      868.142
01/25/2022  09:43:00       91.243      -16.654      -21.460       54.232       75.753       35.941     2941.066     5738.508     1291.773        0.952        0.499       92.751       34.658        0.140      333.843        3.424      868.148
01/25/2022  09:44:00       94.261       25.812      -23.052       53.818       48.669       26.808     2896.418     2368.627      718.658        0.803        0.299       97.731       14.661        0.023      333.985        3.659      868.156
01/25/2022  09:45:00      118.502        0.418      -21.833       70.251       61.348       34.846     4935.192     3763.526     1214.268        1.221        0.496      118.503       27.711        0.055      334.145        3.924      868.151
01/25/2022  09:46:00      122.255      -25.893      -27.060       85.550       79.318       48.412     7318.820     6291.395     2343.743        1.615        0.798      124.967       30.016        0.058      334.167        3.959      868.144
01/25/2022  09:47:00      126.356       -2.868      -21.254       96.922       91.966       50.584     9393.824     8457.667     2558.699        1.841        1.021      126.389       22.862        0.033      334.104        3.854      868.156
01/25/2022  09:48:00       91.722       34.848       -7.390       94.886       83.047       49.210     9003.399     6896.777     2421.656        1.400        0.916       98.119       43.777        0.199      334.084        3.823      868.167
01/25/2022  09:49:00      253.230       92.710      -19.374       89.032       71.103       48.778     7926.646     5055.689     2379.258        4.423        0.768      269.667       37.425        0.019      333.761        3.286      868.168
01/25/2022  09:50:00      155.553       23.839      -17.206       95.804       73.127       44.859     9178.400     5347.489     2012.303        2.080        0.827      157.369       35.954        0.052      334.020        3.715      868.158
01/25/2022  09:51:00      191.690       41.011      -31.969       93.050       95.025       48.741     8658.285     9029.706     2375.669        2.975        1.003      196.028       27.823        0.020      333.843        3.420      868.150
01/25/2022  09:52:00      105.989       37.491      -29.582       90.733       71.402       52.396     8232.529     5098.294     2745.317        1.479        0.804      112.424       30.130        0.072      334.074        3.804      868.128
01/25/2022  09:53:00      242.018       37.799      -34.427      125.195       69.249       36.712    15673.851     4795.365     1347.766        4.150        1.091      244.952       29.966        0.015      333.995        3.673      868.132
01/25/2022  09:54:00      106.082       -9.757      -20.290      107.328       90.316       53.589    11519.286     8157.049     2871.806        1.715        1.127      106.530       36.541        0.118      334.139        3.912      868.140
01/25/2022  09:55:00      150.885        2.209       -4.282       91.824       83.719       62.864     8431.639     7008.865     3951.858        2.109        0.970      150.901       52.790        0.122      334.140        3.913      868.128
01/25/2022  09:56:00      167.206      -22.612      -23.721       99.997       89.206       49.086     9999.400     7957.709     2409.449        2.470        1.018      168.728       28.359        0.028      333.912        3.535      868.134
01/25/2022  09:57:00      145.207      -71.504       -3.228      118.122       77.003       73.820    13952.853     5929.438     5449.398        2.577        1.267      161.858       68.515        0.179      333.952        3.601      868.133
01/25/2022  09:58:00       74.571      -16.259      -30.360       73.201       77.175       57.142     5358.384     5955.908     3265.174        1.066        0.729       76.323       32.559        0.182      334.143        3.919      868.157
01/25/2022  09:59:00       39.727      -66.117       -7.229       92.018       75.256       55.057     8467.306     5663.421     3031.284        1.158        0.858       77.134       44.871        0.338      334.205        4.023      868.229
01/25/2022  10:00:00      199.651       70.431      -16.240      159.475       74.336       57.096    25432.148     5525.804     3260.005        3.965        1.711      211.710       53.387        0.064      334.199        4.012      868.229
01/25/2022  10:01:00      165.649       12.786        5.655      190.407       77.825       58.078    36254.810     6056.725     3373.037        3.665        2.284      166.141       69.573        0.175      334.012        3.700      868.213
01/25/2022  10:02:00      177.741      132.406      -18.184       95.436       71.534       54.180     9107.969     5117.048     2935.466        3.330        0.858      221.638       42.910        0.037      334.011        3.698      868.213
01/25/2022  10:03:00      271.846       90.245      -23.745       63.314       61.907       41.764     4008.686     3832.472     1744.267        4.610        0.479      286.434       17.976        0.004      333.924        3.552      868.207
01/25/2022  10:04:00      270.058       90.154      -17.788      125.701       91.522       58.146    15800.665     8376.341     3380.918        5.446        1.378      284.709       45.757        0.026      334.039        3.746      868.217
01/25/2022  10:05:00      164.289       56.448      -20.433      100.661       83.025       49.002    10132.559     6893.225     2401.158        2.501        0.971      173.716       42.089        0.059      334.252        4.098      868.233
01/25/2022  10:06:00       98.409      -21.347      -30.043       97.552       81.116       45.252     9516.369     6579.878     2047.764        1.459        0.907      100.698       31.153        0.096      334.590        4.661      868.231
01/25/2022  10:07:00       52.741       19.265      -13.782       86.035       70.799       37.782     7401.993     5012.548     1427.511        0.859        0.692       56.149       24.586        0.192      334.501        4.515      868.224
01/25/2022  10:08:00      226.614       85.840      -32.908      101.303       86.765       49.155    10262.256     7528.203     2416.213        4.000        1.010      242.327       28.412        0.014      334.129        3.894      868.214
01/25/2022  10:09:00      134.714       33.092      -20.171       97.414       93.061       63.267     9489.578     8660.416     4002.749        2.090        1.108      138.718       41.326        0.089      334.481        4.481      868.215
01/25/2022  10:10:00      305.869       78.780      -26.093       81.443       63.736       47.141     6632.905     4062.221     2222.291        5.668        0.646      315.851       40.730        0.017      333.871        3.467      868.219
01/25/2022  10:11:00      209.849      -46.246      -28.506      145.635      113.279       65.530    21209.429    12832.234     4294.133        4.265        1.917      214.884       56.216        0.068      334.165        3.955      868.217
01/25/2022  10:12:00      188.939      -51.400      -18.174      102.481       72.377       50.027    10502.291     5238.495     2502.664        2.845        0.912      195.805       46.446        0.056      334.220        4.045      868.225
01/25/2022  10:13:00      187.416      -53.120       -7.287      107.890       72.889       70.467    11640.290     5312.799     4965.560        2.996        1.096      194.799       65.944        0.115      334.102        3.850      868.223
01/25/2022  10:14:00      142.914      -19.154      -19.042      105.808       78.934       64.793    11195.260     6230.574     4198.186        2.138        1.081      144.191       47.596        0.109      334.231        4.065      868.229
01/25/2022  10:15:00      100.955      -28.481       -9.284       86.064       75.646       58.237     7407.016     5722.392     3391.509        1.380        0.826      104.895       40.540        0.149      334.252        4.099      868.229
01/25/2022  10:16:00      156.301      -39.998      -17.182       92.326       68.053       58.521     8524.048     4631.148     3424.753        2.145        0.829      161.338       50.461        0.098      334.225        4.056      868.260
01/25/2022  10:17:00      108.744      -22.114      -10.962      111.943       82.966       75.858    12531.124     6883.411     5754.450        1.880        1.258      110.970       74.353        0.449      334.279        4.145      868.268
01/25/2022  10:18:00      104.975      -31.199      -38.778       85.005       85.811       63.823     7225.884     7363.480     4073.337        1.608        0.933      109.513       38.470        0.123      334.356        4.274      868.284
01/25/2022  10:19:00      128.452      -27.306      -23.891      119.344       94.357       84.931    14242.902     8903.332     7213.348        2.408        1.518      131.322       70.921        0.292      334.279        4.144      868.260
01/25/2022  10:20:00      151.214      -35.981       -8.659      103.229       66.056       57.527    10656.269     4363.357     3309.320        2.128        0.916      155.436       54.654        0.124      334.319        4.212      868.266
01/25/2022  10:21:00       80.846      -20.989      -15.513       58.528       54.884       36.228     3425.476     3012.265     1312.471        0.748        0.388       83.526       23.242        0.077      334.268        4.128      868.248
01/25/2022  10:22:00      113.720      -12.418      -14.083       85.139       61.219       44.410     7248.577     3747.819     1972.213        1.312        0.648      114.396       28.233        0.061      334.549        4.593      868.250
01/25/2022  10:23:00      119.393        0.140      -34.962       89.231       96.156       64.899     7962.245     9246.023     4211.839        1.844        1.071      119.394       23.787        0.040      334.631        4.730      868.241
01/25/2022  10:24:00      184.586      -63.066      -33.465      152.934      108.803       78.446    23388.666    11838.021     6153.723        4.027        2.069      195.062       60.368        0.096      334.290        4.163      868.212
01/25/2022  10:25:00      175.599      -10.978      -20.923      143.756       84.404       84.118    20665.799     7123.978     7075.857        3.312        1.743      175.942       67.416        0.147      334.150        3.930      868.219
01/25/2022  10:26:00       61.163      -53.310      -25.716       42.222       38.438       29.353     1782.661     1477.461      861.574        0.568        0.206       81.135       19.257        0.056      334.039        3.748      868.213
01/25/2022  10:27:00       95.528      -47.311      -33.612       78.202       72.198       56.089     6115.629     5212.546     3146.000        1.348        0.724      106.601       36.131        0.115      334.319        4.210      868.186
01/25/2022  10:28:00      208.484      -28.195      -18.359      162.763       85.603       70.624    26491.733     7327.902     4987.790        4.170        1.940      210.382       47.879        0.052      334.438        4.407      868.193
01/25/2022  10:29:00      207.966       -1.708       -3.992      191.648      114.449       99.135    36728.838    13098.464     9827.839        5.145        2.983      207.973       77.778        0.140      334.357        4.272      868.196
01/25/2022  10:30:00      239.997       33.204      -26.582      153.132      125.952       68.789    23449.547    15863.869     4731.870        5.172        2.202      242.283       56.705        0.055      334.353        4.267      868.191
01/25/2022  10:31:00      280.900       60.913      -31.397      157.817       99.386       54.771    24906.274     9877.484     2999.899        6.069        1.889      287.428       46.503        0.026      334.492        4.498      868.186
01/25/2022  10:32:00      369.097       68.263      -21.328      114.732       93.913       56.958    13163.416     8819.709     3244.218        8.328        1.261      375.357       44.922        0.014      334.110        3.863      868.183
01/25/2022  10:33:00      248.507       47.735      -22.727       99.434       92.116       49.768     9887.188     8485.320     2476.861        4.270        1.042      253.050       41.041        0.026      334.293        4.166      868.161
01/25/2022  10:34:00      282.932       44.908      -17.449      157.291       97.441       57.529    24740.480     9494.679     3309.610        5.995        1.877      286.474       54.955        0.037      334.395        4.336      868.152
01/25/2022  10:35:00      189.924     -122.575      -68.215       77.649      120.174       54.729     6029.389    14441.909     2995.258        3.960        1.173      226.044       57.676        0.065      334.299        4.177      868.153
01/25/2022  10:36:00      179.079       19.806      -13.426      141.320       76.103       43.531    19971.254     5791.610     1894.989        3.014        1.383      180.171       42.905        0.057      334.329        4.228      868.130
01/25/2022  10:37:00      125.151        1.181      -26.689      128.714       83.737       53.115    16567.393     7011.903     2821.153        2.138        1.320      125.157       41.795        0.112      334.526        4.554      868.125
01/25/2022  10:38:00      167.742       -7.495      -16.058      120.936       78.941       52.663    14625.408     6231.675     2773.425        2.604        1.182      167.910       32.705        0.038      334.597        4.674      868.110
01/25/2022  10:39:00      205.633      -19.654      -27.602      129.965       85.528       59.479    16890.831     7315.029     3537.735        3.558        1.387      206.570       45.525        0.049      334.368        4.291      868.111
01/25/2022  10:40:00      224.898      -53.820      -39.923      152.146      124.884       67.613    23148.500    15595.929     4571.554        4.918        2.166      231.248       60.895        0.069      334.269        4.128      868.095
01/25/2022  10:41:00      206.464      -65.660      -29.660      134.631      108.034       70.034    18125.601    11671.267     4904.700        4.125        1.735      216.653       57.153        0.070      334.379        4.309      868.079
01/25/2022  10:42:00      199.578      -28.177      -31.803      133.216      123.056       77.384    17746.440    15142.799     5988.246        4.025        1.944      201.558       58.386        0.084      334.391        4.329      868.072
01/25/2022  10:43:00      130.474       40.584       -5.304       93.379       96.047       63.195     8719.583     9225.012     3993.598        2.031        1.097      136.640       34.585        0.064      334.646        4.754      868.068
01/25/2022  10:44:00      167.927      -42.708      -30.570      128.822       73.691       57.538    16595.104     5430.401     3310.669        2.814        1.267      173.272       49.813        0.083      334.593        4.667      868.051
01/25/2022  10:45:00      143.917      -53.787       -7.003      136.332       91.904       73.028    18586.472     8446.331     5333.117        2.800        1.618      153.639       74.488        0.235      334.392        4.332      868.034
01/25/2022  10:46:00      131.729      -33.496      -24.656       97.743       76.352       53.229     9553.735     5829.579     2833.345        1.865        0.911      135.921       35.065        0.067      334.292        4.166      868.027
01/25/2022  10:47:00      173.653        0.236      -25.183      143.992       78.127       43.082    20733.705     6103.805     1856.101        2.974        1.435      173.653       47.967        0.076      334.565        4.620      868.008
01/25/2022  10:48:00      129.361      -38.589      -31.253      118.216       79.201       63.366    13975.068     6272.764     4015.223        2.173        1.213      134.994       42.599        0.100      334.588        4.659      867.999
01/25/2022  10:49:00      115.032       -3.369        0.458       76.363       54.836       56.272     5831.287     3006.973     3166.579        1.262        0.600      115.081       48.026        0.174      334.376        4.307      868.009
01/25/2022  10:50:00       86.926      -46.802      -18.778      111.925       67.389       60.146    12527.102     4541.295     3617.560        1.539        1.034       98.725       60.038        0.370      334.697        4.840      868.014
01/25/2022  10:51:00      128.214      -55.623      -36.544       95.266      103.936       52.998     9075.566    10802.745     2808.829        2.177        1.134      139.760       40.065        0.082      334.551        4.597      868.001
01/25/2022  10:52:00      109.089      -96.717      -29.679       44.126       59.966       34.744     1947.082     3595.869     1207.180        1.444        0.338      145.789       27.202        0.035      334.362        4.283      868.007
01/25/2022  10:53:00      105.318      -24.212      -27.246       58.423       68.656       37.717     3413.219     4713.654     1422.536        1.098        0.477      108.065       30.405        0.079      334.555        4.604      867.985
01/25/2022  10:54:00       88.780      -68.021      -16.283       53.936       41.017       35.088     2909.053     1682.397     1231.135        0.930        0.291      111.842       24.082        0.046      334.464        4.454      867.962
01/25/2022  10:55:00      116.356      -33.105      -19.717       67.381       48.227       34.614     4540.201     2325.811     1198.104        1.154        0.403      120.974       27.396        0.051      334.672        4.799      867.933
01/25/2022  10:56:00       85.186      -16.231      -21.700      101.887       67.465       44.161    10380.976     4551.474     1950.193        1.243        0.844       86.719       34.361        0.157      334.952        5.265      867.901
01/25/2022  10:57:00      123.422      -60.781      -11.115      122.898      104.299       78.300    15103.995    10878.268     6130.906        2.558        1.606      137.576       61.869        0.202      334.806        5.020      867.881
01/25/2022  10:58:00      133.393      -25.726      -25.561      100.911       82.040       66.048    10183.035     6730.602     4362.384        2.019        1.064      135.851       62.542        0.212      334.515        4.536      867.860
01/25/2022  10:59:00      131.453      -43.245      -22.133      100.628       91.086       73.946    10126.080     8296.673     5467.982        2.176        1.195      138.384       53.523        0.150      334.562        4.615      867.847
01/25/2022  11:00:00      154.226      -73.946      -34.349      101.201       88.324       70.400    10241.567     7801.100     4956.203        2.671        1.150      171.037       62.416        0.133      334.552        4.598      867.826
01/25/2022  11:01:00      129.073      -63.357      -26.156       68.266       92.929       50.179     4660.260     8635.715     2517.980        1.858        0.791      143.784       45.542        0.100      334.704        4.850      867.834
01/25/2022  11:02:00      121.399     -145.135      -41.983       77.120       63.331       41.949     5947.545     4010.765     1759.687        2.464        0.586      189.214       29.977        0.025      334.764        4.948      867.850
01/25/2022  11:03:00       35.846     -162.161      -26.912       69.033      100.089       44.860     4765.498    10017.850     2012.424        2.255        0.840      166.075       39.908        0.058      334.926        5.219      867.842
01/25/2022  11:04:00      151.393     -226.479      -59.564       67.116       84.327       33.486     4504.550     7111.027     1121.299        4.525        0.637      272.420       28.419        0.011      334.704        4.849      867.849
01/25/2022  11:05:00      172.699      -51.723      -48.021       82.841      124.823       56.351     6862.621    15580.784     3175.432        3.021        1.281      180.278       37.201        0.043      334.752        4.931      867.840
01/25/2022  11:06:00      173.754      -10.425      -24.240      110.925       78.152       55.168    12304.292     6107.697     3043.477        2.617        1.073      174.067       27.629        0.025      334.683        4.816      867.818
01/25/2022  11:07:00      113.245     -142.919      -46.239      101.304      176.770       48.077    10262.497    31247.457     2311.407        3.960        2.191      182.347       54.591        0.090      334.730        4.892      867.807
01/25/2022  11:08:00      109.770     -269.829      -63.693       54.108       58.484       34.912     2927.627     3420.401     1218.861        4.824        0.378      291.302       16.788        0.003      334.550        4.592      867.793
01/25/2022  11:09:00       81.990     -153.792      -36.025       51.015       71.744       41.623     2602.568     5147.192     1732.493        2.058        0.474      174.282       31.445        0.033      334.731        4.895      867.792
01/25/2022  11:10:00       35.118      -18.826      -10.705       55.761       74.221       36.550     3109.291     5508.744     1335.916        0.583        0.498       39.846       29.264        0.539      335.192        5.664      867.778
01/25/2022  11:11:00      145.084      -48.085      -48.247       82.533       94.152       59.101     6811.753     8864.506     3492.920        2.243        0.958      152.845       35.164        0.053      334.949        5.257      867.768
01/25/2022  11:12:00      144.627      -43.136      -25.099      105.594       63.993       44.874    11150.096     4095.133     2013.687        2.033        0.863      150.923       28.900        0.037      334.593        4.667      867.764
01/25/2022  11:13:00      106.250      -42.152      -29.844       82.471       71.193       58.364     6801.547     5068.512     3406.413        1.461        0.764      114.306       38.472        0.113      334.873        5.133      867.745
01/25/2022  11:14:00      220.929       -7.083      -34.127      200.507      117.566       89.388    40203.019    13821.714     7990.141        5.601        3.101      221.043       66.749        0.091      334.679        4.808      867.716
01/25/2022  11:15:00      165.618      -34.611      -20.895      125.287      100.163       77.016    15696.755    10032.619     5931.478        3.036        1.583      169.196       47.288        0.078      334.805        5.019      867.701
01/25/2022  11:16:00      195.720       -2.191      -19.180       91.619      112.540       49.142     8394.113    12665.249     2414.970        3.107        1.174      195.732       33.009        0.028      334.941        5.243      867.681
01/25/2022  11:17:00      207.138      -25.520      -10.491      113.437       94.974       56.943    12867.955     9020.146     3242.451        3.439        1.257      208.704       51.097        0.060      334.874        5.132      867.629
01/25/2022  11:18:00      226.303      -29.803      -49.398      124.703      110.796       54.203    15550.767    12275.674     2937.974        4.265        1.538      228.257       38.244        0.028      334.952        5.261      867.611
01/25/2022  11:19:00      113.272      -34.879      -16.220      107.342       92.643       68.264    11522.345     8582.729     4659.929        1.953        1.238      118.520       57.126        0.232      334.932        5.231      867.581
01/25/2022  11:20:00      159.644      -19.506      -26.215      145.340      111.645       86.141    21123.787    12464.661     7420.251        3.377        2.050      160.831       73.489        0.209      334.924        5.216      867.557
01/25/2022  11:21:00       81.124      -24.932       -9.097       92.582       96.239       80.613     8571.452     9262.038     6498.460        1.580        1.217       84.869       55.686        0.431      334.988        5.323      867.550
01/25/2022  11:22:00       65.238      -34.047        1.083      147.428       87.912       97.185    21734.961     7728.462     9444.883        2.216        1.945       73.588       80.889        1.208      334.812        5.030      867.507
01/25/2022  11:23:00       92.440      -23.944      -19.771      136.546      104.539       81.748    18644.916    10928.381     6682.697        2.288        1.813       95.491       44.013        0.212      334.837        5.071      867.519
01/25/2022  11:24:00      305.677       19.072      -25.031      143.136      104.328       51.655    20488.020    10884.346     2668.282        6.423        1.702      306.272       50.539        0.027      334.507        4.522      867.549
01/25/2022  11:25:00      187.593      -45.503       -6.520      143.267       92.046       77.337    20525.401     8472.461     5980.947        3.614        1.749      193.033       60.967        0.100      334.818        5.040      867.531
01/25/2022  11:26:00      300.337      -70.070      -26.842      165.412      108.030       76.122    27361.267    11670.552     5794.572        7.032        2.241      308.403       73.719        0.057      334.766        4.953      867.492
01/25/2022  11:27:00      223.790      -14.947       -6.195      132.007       88.178       69.273    17425.747     7775.287     4798.799        4.017        1.500      224.288       74.473        0.110      334.785        4.985      867.483
01/25/2022  11:28:00      155.265      -13.662      -13.754      148.705       77.270       60.255    22113.092     5970.711     3630.710        2.809        1.586      155.865       66.363        0.181      334.925        5.218      867.461
01/25/2022  11:29:00       50.555      -29.271      -25.288       89.054       57.349       40.381     7930.539     3288.920     1630.635        0.845        0.643       58.417       24.674        0.178      335.318        5.872      867.457
01/25/2022  11:30:00       92.692      -87.089      -21.171       57.458       84.066       39.326     3301.429     7067.154     1546.568        1.427        0.596      127.186       25.937        0.042      334.847        5.089      867.443
01/25/2022  11:31:00       81.241      -82.199      -19.861       69.118      128.355       45.380     4777.306    16474.967     2059.387        1.853        1.166      115.572       35.353        0.094      335.091        5.494      867.414
01/25/2022  11:32:00      169.302      -47.892       -5.786      157.279       84.951       60.478    24736.809     7216.644     3657.551        3.329        1.781      175.946       62.151        0.125      335.097        5.504      867.369
01/25/2022  11:33:00      105.010      -12.731      -21.096       90.814       81.437       51.207     8247.100     6631.978     2622.187        1.456        0.875      105.778       29.108        0.076      335.225        5.717      867.362
01/25/2022  11:34:00       71.718      -23.309      -14.936       73.957       76.096       58.525     5469.565     5790.572     3425.219        1.029        0.734       75.411       36.101        0.229      335.375        5.967      867.344
01/25/2022  11:35:00      129.101      -55.836      -23.288      151.737      123.891       96.745    23023.968    15348.863     9359.584        3.402        2.387      140.658       79.036        0.316      334.871        5.127      867.299
01/25/2022  11:36:00      256.994     -125.895      -34.010      110.448       89.800       46.498    12198.784     8064.102     2162.029        5.273        1.121      286.174       41.774        0.021      334.723        4.878      867.289
01/25/2022  11:37:00      114.167        5.160      -18.625      130.531      101.972       74.324    17038.318    10398.335     5524.079        2.318        1.648      114.284       59.874        0.274      335.302        5.845      867.272
01/25/2022  11:38:00      201.611      -41.558      -40.222      119.517      102.685       71.674    14284.385    10544.219     5137.106        3.697        1.498      205.850       31.962        0.024      335.118        5.539      867.254
01/25/2022  11:39:00      116.565       -9.349      -25.022      119.882       95.006       77.358    14371.722     9026.051     5984.307        2.184        1.469      116.939       59.013        0.255      335.143        5.580      867.249
01/25/2022  11:40:00      205.500      -47.908      -24.665      171.702       96.805       92.936    29481.470     9371.246     8637.169        4.630        2.374      211.011       92.609        0.193      334.917        5.204      867.219
01/25/2022  11:41:00       64.149      -13.263        2.466       94.693       95.157       74.365     8966.700     9054.950     5530.118        1.392        1.178       65.505       64.524        0.970      334.962        5.281      867.218
01/25/2022  11:42:00       81.324      -14.786       -9.888       98.480       76.445       73.979     9698.247     5843.839     5472.848        1.397        1.051       82.657       61.010        0.545      334.922        5.214      867.189
01/25/2022  11:43:00      226.670      -48.611      -45.251      136.658      128.715       69.343    18675.461    16567.499     4808.401        4.791        2.003      231.824       51.055        0.049      334.978        5.305      867.164
01/25/2022  11:44:00      231.191      -43.096      -26.752      155.203      119.240       78.381    24087.842    14218.148     6143.637        5.023        2.222      235.174       70.863        0.091      335.008        5.355      867.163
01/25/2022  11:45:00      135.614      -29.001       -0.013      150.175       90.998       73.950    22552.660     8280.583     5468.603        2.776        1.815      138.680       60.410        0.190      335.253        5.762      867.175
01/25/2022  11:46:00      102.652      -88.815      -31.887       88.134       96.604       54.950     7767.549     9332.257     3019.472        1.978        1.006      135.741       30.964        0.052      335.210        5.692      867.173
01/25/2022  11:47:00      119.791      -41.668      -26.096      111.956      120.544       75.408    12534.136    14530.886     5686.432        2.475        1.638      126.830       61.495        0.235      335.280        5.808      867.158
01/25/2022  11:48:00      208.261      -96.466      -28.695      176.381      105.228       81.474    31110.399    11072.876     6637.963        5.115        2.441      229.517       72.243        0.099      334.827        5.054      867.149
01/25/2022  11:49:00      300.019       -9.452      -41.180      117.887       99.999       64.662    13897.413     9999.702     4181.206        5.993        1.404      300.168       57.787        0.037      334.928        5.222      867.137
01/25/2022  11:50:00      121.237       15.692       -7.642       91.305       73.746       53.510     8336.580     5438.516     2863.321        1.582        0.832      122.248       47.133        0.149      335.252        5.761      867.115
01/25/2022  11:51:00       99.397      -65.966      -14.996       78.152       53.145       36.445     6107.775     2824.412     1328.260        1.236        0.513      119.295       29.796        0.062      335.072        5.464      867.097
01/25/2022  11:52:00       44.646       -9.041      -30.174       81.609       33.636       30.645     6660.004     1131.368      939.136        0.586        0.437       45.552       22.928        0.253      335.171        5.628      867.057
01/25/2022  11:53:00       18.555      -24.321      -22.537       63.041       79.797       45.241     3974.215     6367.482     2046.788        0.691        0.619       30.591       26.709        0.762      335.710        6.524      867.050
01/25/2022  11:54:00       84.920      -84.851      -53.216       73.457      107.407       54.320     5395.948    11536.241     2950.683        1.856        0.994      120.046       42.722        0.127      335.555        6.266      867.048
01/25/2022  11:55:00       26.283       -3.935      -17.936       65.791       76.322       53.258     4328.508     5825.022     2836.395        0.701        0.649       26.576       29.413        1.225      335.784        6.649      867.042
01/25/2022  11:56:00      145.270      -25.939       -9.173      114.560       70.601       59.734    13123.951     4984.556     3568.108        2.176        1.084      147.568       57.159        0.150      335.546        6.251      867.030
01/25/2022  11:57:00      149.349       12.568      -20.294       95.277       99.927       57.229     9077.715     9985.461     3275.135        2.260        1.117      149.877       51.633        0.119      335.674        6.463      867.016
01/25/2022  11:58:00      295.469       -3.937      -25.457      138.346       81.493       57.832    19139.482     6641.094     3344.515        5.854        1.456      295.495       56.025        0.036      334.953        5.263      867.003
01/25/2022  11:59:00      106.424      -21.300      -31.668       94.420       77.421       48.086     8915.068     5994.014     2312.236        1.500        0.861      108.535       35.340        0.106      335.314        5.864      866.981
01/25/2022  12:00:00      243.326       -6.164      -17.749      110.986      109.766       66.960    12317.978    12048.659     4483.676        4.420        1.443      243.404       48.323        0.039      335.105        5.516      866.950
01/25/2022  12:01:00      238.307      -13.181      -13.954      133.456      106.598       53.951    17810.377    11363.139     2910.669        4.462        1.604      238.671       55.508        0.054      335.231        5.725      866.926
01/25/2022  12:02:00      125.870      -40.989      -28.745      102.842       82.289       56.253    10576.395     6771.415     3164.411        1.943        1.026      132.376       50.981        0.148      335.354        5.931      866.910
01/25/2022  12:03:00      138.680      -46.289      -17.362      135.302       99.856       67.269    18306.547     9971.166     4525.070        2.723        1.640      146.201       62.572        0.183      335.312        5.860      866.895
01/25/2022  12:04:00      170.645      -48.883      -16.684      145.124       75.256       54.609    21061.025     5663.493     2982.119        3.074        1.485      177.508       50.474        0.081      335.305        5.849      866.888
01/25/2022  12:05:00       77.980      -32.054       -4.219       97.863       91.114       52.227     9577.134     8301.789     2727.662        1.386        1.030       84.311       48.216        0.327      335.477        6.136      866.872
01/25/2022  12:06:00       75.634        6.474      -19.019       87.021       74.721       39.190     7572.574     5583.239     1535.870        1.041        0.735       75.911       27.932        0.135      335.549        6.257      866.820
01/25/2022  12:07:00      226.401      -94.684      -49.018      132.061      165.578       72.454    17440.098    27416.154     5249.597        5.636        2.505      245.403       47.880        0.038      335.364        5.945      866.783
01/25/2022  12:08:00      229.775     -149.499      -38.817      136.140      158.759       91.275    18534.042    25204.464     8331.125        6.435        2.603      274.129       78.386        0.082      335.087        5.486      866.780
01/25/2022  12:09:00      156.788     -181.252      -41.437      111.529      103.007       73.444    12438.664    10610.340     5393.997        4.379        1.422      239.656       68.349        0.081      334.919        5.207      866.774
01/25/2022  12:10:00       48.282      -82.002      -23.011       47.826      104.688       34.669     2287.301    10959.510     1201.939        1.201        0.722       95.160       31.463        0.109      335.212        5.696      866.773
01/25/2022  12:11:00      115.020      -40.961      -23.270      147.441       77.535       49.725    21738.808     6011.640     2472.556        2.283        1.511      122.096       43.960        0.130      335.561        6.276      866.757
01/25/2022  12:12:00      180.683     -114.663      -47.774      163.693      113.328       74.889    26795.262    12843.250     5608.419        4.665        2.262      213.995       65.038        0.092      335.234        5.730      866.726
01/25/2022  12:13:00      197.559      -55.740      -31.614      170.749      119.295       98.281    29155.241    14231.329     9659.212        4.808        2.652      205.272       89.342        0.189      335.184        5.646      866.703
01/25/2022  12:14:00      122.971      -33.691       -8.625      127.698       94.172       89.830    16306.812     8868.352     8069.465        2.478        1.662      127.503       73.710        0.334      335.067        5.453      866.728
01/25/2022  12:15:00      110.712      -14.462      -16.104       70.844       76.883       51.972     5018.808     5911.066     2701.111        1.318        0.682      111.652       42.483        0.145      335.134        5.566      866.728
01/25/2022  12:16:00      155.548      -30.306      -21.154      102.856      123.523       48.629    10579.346    15258.027     2364.825        2.688        1.410      158.472       37.184        0.055      335.173        5.629      866.713
01/25/2022  12:17:00      151.343      -36.797      -35.730      101.576      108.914       60.813    10317.587    11862.315     3698.248        2.570        1.294      155.752       40.885        0.069      335.234        5.730      866.707
01/25/2022  12:18:00       83.285       -8.890      -14.867       88.625       78.288       40.409     7854.446     6129.087     1632.893        1.142        0.781       83.758       35.785        0.183      335.337        5.904      866.705
01/25/2022  12:19:00       57.811     -161.458      -28.425       55.822       97.655       35.182     3116.056     9536.559     1237.769        2.205        0.695      171.496       28.650        0.028      335.292        5.827      866.684
01/25/2022  12:20:00       35.533      -70.160      -22.343       71.715       57.779       43.652     5143.099     3338.430     1905.458        0.853        0.519       78.645       37.443        0.227      335.552        6.262      866.668
01/25/2022  12:21:00      121.245      -27.619      -27.716       80.494       94.725       52.533     6479.225     8972.843     2759.676        1.722        0.911      124.351       43.077        0.120      335.656        6.435      866.656
01/25/2022  12:22:00      133.296       39.960      -24.859       96.290       63.433       42.644     9271.718     4023.778     1818.550        1.755        0.756      139.157       35.683        0.066      335.667        6.453      866.629
01/25/2022  12:23:00      218.430       14.935      -10.625      158.274      125.662       82.997    25050.578    15790.861     6888.524        4.788        2.386      218.940       79.600        0.132      335.719        6.537      866.600
01/25/2022  12:24:00      133.488      -78.082      -30.243      102.176       90.209       61.304    10439.835     8137.580     3758.163        2.358        1.117      154.648       47.351        0.094      335.268        5.786      866.590
01/25/2022  12:25:00      109.705       -4.632      -32.477      106.598      108.563       78.629    11363.196    11785.832     6182.570        2.122        1.467      109.803       56.329        0.263      335.657        6.434      866.587
01/25/2022  12:26:00      223.514      -40.527      -13.619      139.719       81.681       77.148    19521.351     6671.771     5951.796        4.196        1.607      227.158       75.782        0.111      335.312        5.861      866.596
01/25/2022  12:27:00      182.800       42.682      -41.044      109.169      106.585       52.569    11917.876    11360.441     2763.532        3.148        1.302      187.717       40.202        0.046      335.583        6.310      866.579
01/25/2022  12:28:00       95.301      -13.062      -10.398      108.224       91.141       59.426    11712.462     8306.728     3531.491        1.645        1.178       96.192       42.036        0.191      335.713        6.529      866.564
01/25/2022  12:29:00      172.209      -31.790      -24.849      146.986      106.850       93.439    21605.020    11416.991     8730.766        3.651        2.088      175.119       72.602        0.172      335.430        6.058      866.525
01/25/2022  12:30:00      204.849      -55.148      -19.588      101.764       74.077       58.797    10355.941     5487.394     3457.135        3.234        0.965      212.143       45.168        0.045      335.303        5.846      866.532
01/25/2022  12:31:00       71.641      -40.892       -3.591       71.005       53.786       54.826     5041.645     2892.967     3005.858        0.888        0.547       82.490       49.349        0.358      335.768        6.620      866.517
01/25/2022  12:32:00       85.050      -11.362      -37.170       94.291       72.949       49.297     8890.856     5321.556     2430.224        1.269        0.832       85.806       24.327        0.080      335.772        6.628      866.484
01/25/2022  12:33:00      181.852      -92.734      -30.048      122.724      114.917       73.642    15061.218    13206.026     5423.086        3.813        1.685      204.132       64.130        0.099      335.415        6.031      866.484
01/25/2022  12:34:00      312.234       46.407      -15.544      140.582      120.412       64.650    19763.215    14499.090     4179.665        6.916        1.922      315.664       60.707        0.037      335.425        6.046      866.455
01/25/2022  12:35:00      312.080        9.754      -22.749      140.366      138.187       64.747    19702.707    19095.713     4192.228        7.049        2.150      312.233       42.462        0.018      335.434        6.061      866.441
01/25/2022  12:36:00      353.501       24.431       -3.009      160.084      134.573       73.354    25627.035    18109.898     5380.766        8.733        2.456      354.345       65.670        0.034      335.448        6.085      866.411
01/25/2022  12:37:00      175.414      -72.686      -21.621      144.881       90.108       66.828    20990.474     8119.371     4466.004        3.504        1.679      189.877       60.334        0.101      335.598        6.337      866.413
01/25/2022  12:38:00      177.518      -39.462      -36.642      143.981       87.416       68.760    20730.650     7641.579     4727.917        3.375        1.655      181.851       62.960        0.120      335.536        6.233      866.387
01/25/2022  12:39:00      172.443      -30.702      -48.388      154.529      118.242       78.507    23879.062    13981.279     6163.341        3.851        2.201      175.154       61.710        0.124      335.705        6.514      866.367
01/25/2022  12:40:00      225.089       -8.873      -23.872      223.629      124.795       91.362    50009.945    15573.822     8346.946        6.261        3.697      225.263       89.093        0.156      335.687        6.485      866.365
01/25/2022  12:41:00      124.641      -61.499      -41.540      125.418      139.895       87.663    15729.693    19570.730     7684.806        3.201        2.149      138.987       67.199        0.234      335.707        6.518      866.379
01/25/2022  12:42:00      219.324       47.836      -32.674      100.822      107.325       56.476    10164.995    11518.712     3189.511        3.816        1.244      224.481       26.315        0.014      335.786        6.649      866.386
01/25/2022  12:43:00      336.557       73.534      -38.043       95.387       78.735       46.754     9098.774     6199.208     2185.916        6.880        0.874      344.497       41.585        0.015      335.386        5.983      866.372
01/25/2022  12:44:00      277.693       30.203      -23.429      108.010       98.009       57.864    11666.114     9605.751     3348.262        5.159        1.231      279.330       42.731        0.023      335.514        6.195      866.359
01/25/2022  12:45:00      269.710       -7.149      -25.647      177.004      108.952       80.890    31330.401    11870.512     6543.199        6.159        2.487      269.805       71.954        0.071      335.470        6.124      866.337
01/25/2022  12:46:00      301.514      -53.987      -36.849      188.847      166.199       69.677    35663.073    27622.169     4854.878        8.165        3.407      306.310       68.277        0.050      335.533        6.227      866.325
01/25/2022  12:47:00      167.966      -45.494      -34.643      100.532       96.471       57.179    10106.745     9306.581     3269.409        2.708        1.134      174.018       36.795        0.045      335.793        6.660      866.317
01/25/2022  12:48:00       65.886       28.728       -3.871      114.668       72.959       55.155    13148.831     5323.087     3042.056        1.334        1.076       71.876       13.449        0.035      335.971        6.960      866.294
01/25/2022  12:49:00      145.053      -31.010      -15.249      116.517      115.820       62.254    13576.252    13414.168     3875.552        2.654        1.543      148.330       42.102        0.081      335.914        6.863      866.296
01/25/2022  12:50:00      230.514      -27.524      -33.931      164.419      108.906       71.319    27033.495    11860.540     5086.437        4.951        2.199      232.152       68.927        0.088      335.787        6.651      866.262
01/25/2022  12:51:00      171.054      -47.604      -24.211      128.329      123.763       74.563    16468.233    15317.314     5559.714        3.472        1.867      177.555       61.704        0.121      335.815        6.698      866.242
01/25/2022  12:52:00      308.023       23.540      -40.461      154.129       96.471       74.787    23755.628     9306.588     5593.170        6.786        1.933      308.922       39.490        0.016      335.870        6.787      866.205
01/25/2022  12:53:00      177.277      -61.490      -24.323      112.202      121.537       70.325    12589.360    14771.221     4945.583        3.405        1.615      187.638       50.823        0.073      335.904        6.847      866.198
01/25/2022  12:54:00      265.800      -25.913      -22.721      175.185      141.378       89.789    30689.613    19987.812     8062.065        6.528        2.937      267.060       71.484        0.072      335.702        6.509      866.160
01/25/2022  12:55:00      219.793      -16.650      -30.832      194.427      106.923       72.408    37801.726    11432.611     5242.912        5.200        2.724      220.423       75.999        0.119      335.677        6.467      866.181
01/25/2022  12:56:00      336.025      -66.040      -32.059      171.138      122.745       91.819    29288.129    15066.385     8430.724        8.553        2.639      342.453       84.169        0.060      335.545        6.248      866.163
01/25/2022  12:57:00      191.456      -62.872      -18.401      160.385      117.640       96.116    25723.430    13839.164     9238.278        4.486        2.440      201.515       77.888        0.149      335.571        6.292      866.125
01/25/2022  12:58:00      217.370      -17.071      -14.923      139.977      115.860       81.830    19593.504    13423.584     6696.193        4.373        1.986      218.039       63.685        0.085      335.770        6.622      866.110
01/25/2022  12:59:00      239.925      -30.209      -18.158      206.100      117.117       81.863    42477.089    13716.433     6701.587        6.084        3.145      241.819       78.136        0.104      335.837        6.734      866.118
01/25/2022  13:00:00      217.895       36.317      -30.670      182.392      121.787       79.113    33267.003    14831.980     6258.885        5.204        2.718      220.900       38.832        0.031      335.923        6.878      866.111
01/25/2022  13:01:00      183.374      -33.697      -23.279      161.047      104.192       82.831    25936.056    10856.056     6860.895        3.947        2.183      186.444       64.558        0.120      335.677        6.468      866.078
01/25/2022  13:02:00      296.362       23.589      -23.527      155.564      123.320       73.145    24200.046    15207.765     5350.214        6.684        2.238      297.299       64.005        0.046      335.640        6.406      866.052
01/25/2022  13:03:00      208.256      -25.440      -25.970      169.704       98.062       74.858    28799.333     9616.217     5603.676        4.435        2.201      209.804       57.945        0.076      335.804        6.679      866.052
01/25/2022  13:04:00      262.349      -87.137      -44.794      181.838      149.130       77.002    33065.066    22239.612     5929.251        6.982        3.062      276.441       51.874        0.035      335.938        6.901      866.022
01/25/2022  13:05:00      179.052     -102.983      -34.671      150.743      126.529       62.813    22723.322    16009.569     3945.442        4.326        2.134      206.555       45.005        0.047      336.028        7.052      866.037
01/25/2022  13:06:00      270.003      -60.530      -45.470      194.856      159.630      119.749    37968.913    25481.866    14339.912        7.820        3.890      276.704       94.509        0.117      335.879        6.804      865.987
01/25/2022  13:07:00      245.550     -106.903      -28.893      162.351      133.668       79.657    26357.976    17867.121     6345.212        6.155        2.529      267.812       74.465        0.077      335.875        6.798      865.994
01/25/2022  13:08:00      126.695       46.908      -36.222       84.916       82.878       46.976     7210.669     6868.795     2206.786        1.792        0.814      135.100       22.955        0.029      336.106        7.184      866.004
01/25/2022  13:09:00      281.954      -16.998      -16.542      177.655      123.747       79.503    31561.361    15313.355     6320.738        6.662        2.660      282.465       49.775        0.031      336.112        7.192      865.980
01/25/2022  13:10:00      298.734       59.362      -41.726      145.232      147.025       68.706    21092.205    21616.258     4720.577        7.096        2.371      304.575       32.449        0.011      336.045        7.081      865.963
01/25/2022  13:11:00      421.668       43.379      -30.916      157.402      103.851       79.160    24775.466    10785.022     6266.304       11.123        2.091      423.893       64.686        0.023      335.820        6.704      865.960
01/25/2022  13:12:00      261.903      -63.473      -31.983      156.985      173.952       89.542    24644.230    30259.468     8017.835        6.827        3.146      269.485       87.148        0.105      335.741        6.575      865.958
01/25/2022  13:13:00      219.345      -52.997      -33.490      110.333      107.462       74.794    12173.262    11547.992     5594.079        4.067        1.466      225.657       54.992        0.059      335.933        6.893      865.947
01/25/2022  13:14:00      271.245      -51.825      -19.999      229.486      142.705       90.361    52663.807    20364.592     8165.157        7.891        4.060      276.152       59.579        0.047      335.963        6.944      865.933
01/25/2022  13:15:00      230.823      -47.381      -46.743      163.170      120.566       95.612    26624.342    14536.250     9141.618        5.400        2.515      235.636       75.998        0.104      335.772        6.627      865.918
01/25/2022  13:16:00      308.972       13.576      -38.759      236.280      139.898       83.244    55828.385    19571.373     6929.525        8.972        4.116      309.270       58.466        0.036      335.715        6.531      865.902
01/25/2022  13:17:00      280.781       25.190      -15.446      173.457      127.697       73.251    30087.427    16306.426     5365.658        6.573        2.588      281.908       69.291        0.060      335.875        6.798      865.906
01/25/2022  13:18:00      509.734       28.319      -39.566      210.673      165.227       87.665    44382.904    27300.024     7685.196       17.077        3.968      510.520       99.541        0.038      335.634        6.396      865.882
01/25/2022  13:19:00      530.654      101.894      -52.174      168.243      169.143       90.991    28305.587    28609.379     8279.449       17.993        3.260      540.348       62.000        0.013      335.663        6.443      865.864
01/25/2022  13:20:00      149.806      -82.912      -37.096       87.931      125.140       74.871     7731.910    15659.964     5605.690        2.984        1.450      171.220       56.870        0.110      336.096        7.165      865.888
01/25/2022  13:21:00      321.865      -85.475      -24.225      178.235      169.866      102.437    31767.760    28854.434    10493.293        9.129        3.556      333.021       98.055        0.087      335.668        6.453      865.833
01/25/2022  13:22:00      235.450     -111.249      -39.705      169.413      168.375       81.739    28700.671    28350.271     6681.271        6.655        3.187      260.409       38.865        0.022      335.735        6.563      865.839
01/25/2022  13:23:00      238.943      -41.522      -22.450      177.159      133.296       91.860    31385.439    17767.762     8438.334        5.845        2.880      242.524       83.427        0.118      335.904        6.844      865.845
01/25/2022  13:24:00      212.627       -1.099      -32.500      142.248      152.322       77.841    20234.448    23202.090     6059.204        4.787        2.475      212.630       49.507        0.054      335.873        6.793      865.839
01/25/2022  13:25:00      258.569      -46.624      -14.773      230.772      158.338      127.091    53255.710    25070.849    16152.238        8.185        4.724      262.739      119.909        0.208      335.788        6.652      865.814
01/25/2022  13:26:00      284.923      -24.262      -39.621      201.573      178.640       96.217    40631.835    31912.403     9257.709        8.256        4.090      285.954       84.750        0.088      335.703        6.510      865.804
01/25/2022  13:27:00      240.681       10.832       -1.203      167.527      119.089       70.810    28065.219    14182.179     5014.119        5.265        2.363      240.925       56.384        0.055      335.808        6.685      865.857
01/25/2022  13:28:00      301.024      -32.896      -42.678      210.211      132.236       92.413    44188.722    17486.250     8540.229        8.185        3.511      302.816       82.537        0.074      335.823        6.710      865.819
01/25/2022  13:29:00      206.539       52.053      -37.700      140.889      134.994       65.849    19849.679    18223.470     4336.133        4.459        2.120      212.998       42.054        0.039      335.925        6.881      865.845
01/25/2022  13:30:00      244.894      -12.307      -22.846      133.543      107.301       64.524    17833.804    11513.406     4163.388        4.707        1.676      245.203       47.324        0.037      335.750        6.589      865.831
01/25/2022  13:31:00      107.694       -4.469      -25.305      106.734      120.972       89.667    11392.198    14634.308     8040.100        2.316        1.703      107.787       61.605        0.327      335.841        6.742      865.815
01/25/2022  13:32:00      272.482       30.186      -23.602      188.047      153.851       91.848    35361.833    23670.068     8436.125        7.158        3.373      274.149       82.083        0.090      335.768        6.619      865.816
01/25/2022  13:33:00      163.877      -57.609      -29.299      102.634      123.434       58.987    10533.710    15235.871     3479.500        3.014        1.462      173.708       56.449        0.106      336.031        7.059      865.827
01/25/2022  13:34:00      232.289      -98.282      -32.130      186.376      191.780      107.233    34736.112    36779.511    11498.967        7.382        4.151      252.225      115.523        0.210      335.838        6.735      865.801
01/25/2022  13:35:00      248.009       17.812        5.950      154.009      116.698       76.833    23718.826    13618.417     5903.270        5.254        2.162      248.648       64.829        0.068      335.915        6.864      865.792
01/25/2022  13:36:00      339.368      -25.764      -19.721      198.968      135.686       98.639    39588.446    18410.719     9729.614        9.196        3.386      340.344       80.917        0.057      335.800        6.671      865.798
01/25/2022  13:37:00      260.621      -23.911      -19.001      202.015      138.684      109.883    40810.199    19233.116    12074.177        7.047        3.606      261.716      112.373        0.184      335.781        6.641      865.761
01/25/2022  13:38:00      249.528      -35.102      -29.531      187.301      158.108      104.525    35081.491    24998.207    10925.565        6.767        3.550      251.985       78.645        0.097      335.748        6.586      865.778
01/25/2022  13:39:00      433.724      -23.461      -21.186      217.117      132.545      104.045    47139.630    17568.074    10825.258       13.231        3.777      434.358      107.558        0.061      335.644        6.411      865.763
01/25/2022  13:40:00      380.565        6.322      -16.689      173.976      142.325       84.637    30267.744    20256.364     7163.460       10.141        2.884      380.617       85.343        0.050      335.585        6.314      865.785
01/25/2022  13:41:00      316.719       25.970       -6.442      196.389      145.271       81.151    38568.766    21103.651     6585.439        8.363        3.313      317.782       90.266        0.081      335.691        6.492      865.768
01/25/2022  13:42:00      458.480      -10.473      -20.795      205.975      121.982      101.487    42425.639    14879.557    10299.580       13.916        3.380      458.600      108.085        0.056      335.627        6.382      865.756
01/25/2022  13:43:00      247.430       25.629        3.208      149.901      147.045      101.687    22470.260    21622.230    10340.310        5.815        2.722      248.754       94.835        0.145      335.729        6.553      865.773
01/25/2022  13:44:00      392.925       81.484      -32.917      189.379      123.023       58.860    35864.422    15134.665     3464.548       10.828        2.723      401.285       62.094        0.024      335.726        6.548      865.784
01/25/2022  13:45:00      268.515       21.611      -15.656      149.951      118.956       78.818    22485.376    14150.515     6212.271        5.782        2.142      269.383       66.285        0.061      335.843        6.744      865.793
01/25/2022  13:46:00      412.953       48.169      -16.581      191.832      140.323       98.535    36799.381    19690.681     9709.206       11.965        3.310      415.753       96.741        0.054      335.576        6.298      865.798
01/25/2022  13:47:00      343.838       -2.767      -30.086      180.959      113.214       78.557    32746.066    12817.378     6171.246        8.543        2.587      343.850       65.757        0.037      335.657        6.433      865.813
01/25/2022  13:48:00      322.274       11.264      -40.454      186.352      133.318       79.363    34727.190    17773.744     6298.438        8.220        2.940      322.470       66.969        0.043      335.711        6.524      865.829
01/25/2022  13:49:00      464.275        3.663      -49.214      214.849      143.745       67.377    46160.264    20662.732     4539.644       14.466        3.568      464.289       32.157        0.005      335.524        6.211      865.803
01/25/2022  13:50:00      366.811      -78.577      -24.262      236.022      145.617       92.809    55706.329    21204.454     8613.547       11.340        4.276      375.133       96.567        0.066      335.532        6.225      865.790
01/25/2022  13:51:00       49.085      -19.003      -16.369       94.337      104.174       81.826     8899.502    10852.221     6695.472        1.474        1.322       52.635       68.728        1.705      335.936        6.902      865.776
01/25/2022  13:52:00      153.694      -26.493      -41.432      153.150      148.431       89.454    23454.840    22031.796     8002.054        3.975        2.674      155.961       64.919        0.173      336.054        7.095      865.775
01/25/2022  13:53:00      234.937       32.965      -22.033      201.052      165.291       99.832    40421.729    27321.184     9966.419        6.722        3.885      237.238       90.955        0.147      335.798        6.668      865.733
01/25/2022  13:54:00      301.575       59.616      -20.230      167.135      135.855       80.034    27934.094    18456.685     6405.400        7.384        2.640      307.411       54.987        0.032      335.893        6.828      865.748
01/25/2022  13:55:00      248.003      -61.878      -32.783      175.350      142.467       85.058    30747.794    20296.853     7234.877        6.233        2.914      255.606       64.048        0.063      335.932        6.893      865.747
01/25/2022  13:56:00      277.821      -28.125      -48.436      159.426      116.174       83.654    25416.576    13496.373     6997.993        6.311        2.296      279.241       13.107        0.002      335.720        6.539      865.763
01/25/2022  13:57:00      188.316       -8.203      -17.405      182.845      111.654       76.916    33432.309    12466.705     5916.129        4.381        2.591      188.494       73.340        0.151      335.770        6.625      865.744
01/25/2022  13:58:00      190.250      -16.714      -23.462      142.576      128.801       63.398    20327.993    16589.586     4019.312        3.897        2.047      190.982       48.344        0.064      335.978        6.969      865.748
01/25/2022  13:59:00      274.331      -61.667      -28.932      166.211      122.788       90.402    27626.063    15076.954     8172.434        6.538        2.544      281.177       69.380        0.061      335.755        6.597      865.755
01/25/2022  14:00:00      265.541       16.947      -25.696      226.908      143.811       98.416    51487.069    20681.691     9685.667        7.664        4.093      266.081       82.165        0.095      335.752        6.592      865.750
01/25/2022  14:01:00      106.088      -25.042      -28.286       94.046      139.108       78.453     8844.620    19351.006     6154.898        2.351        1.718      109.003       49.326        0.205      336.002        7.011      865.781
01/25/2022  14:02:00       83.183      -49.831      -18.392      122.172      112.180       96.656    14925.947    12584.403     9342.367        2.329        1.843       96.966       76.718        0.626      335.986        6.985      865.750
01/25/2022  14:03:00      133.238      -57.177      -37.733      117.576      171.512       74.231    13824.208    29416.492     5510.230        3.559        2.438      144.988       68.799        0.225      336.103        7.179      865.735
01/25/2022  14:04:00       87.525      -56.053      -19.626       89.809       98.037       58.226     8065.627     9611.267     3390.229        1.612        1.053      103.935       44.195        0.181      336.153        7.263      865.720
01/25/2022  14:05:00       86.113      -37.046      -22.945       70.859       79.363       48.488     5021.020     6298.440     2351.114        1.149        0.684       93.744       42.147        0.202      336.203        7.345      865.716
01/25/2022  14:06:00      270.422      -49.472      -44.859      194.937      127.680       89.730    38000.410    16302.102     8051.504        6.996        3.118      274.910       69.174        0.063      335.995        6.999      865.690
01/25/2022  14:07:00      352.251      -42.825      -31.198      215.411      136.534       99.878    46401.917    18641.405     9975.710       10.094        3.751      354.844      100.404        0.080      335.741        6.574      865.654
01/25/2022  14:08:00      184.458       -6.791       -2.462      188.609      119.592       81.891    35573.184    14302.265     6706.182        4.532        2.829      184.583       78.899        0.183      335.991        6.992      865.663
01/25/2022  14:09:00      192.895      -73.679      -42.152      145.823      159.557       76.621    21264.265    25458.315     5870.832        4.849        2.630      206.488       57.181        0.077      336.021        7.040      865.638
01/25/2022  14:10:00      324.787       40.314      -40.496      223.224      141.514       76.605    49828.848    20026.140     5868.375        9.222        3.786      327.279       55.279        0.029      335.817        6.701      865.638
01/25/2022  14:11:00      244.283      -33.187       -2.262      204.235      132.365       96.058    41711.935    17520.591     9227.176        6.461        3.423      246.527      101.985        0.171      335.843        6.744      865.620
01/25/2022  14:12:00      201.903      -41.924      -22.552      163.626      132.652       94.758    26773.562    17596.489     8978.995        4.818        2.667      206.209       81.310        0.155      335.856        6.765      865.636
01/25/2022  14:13:00      189.938      -32.867       -2.641      142.464       93.346       93.010    20295.860     8713.414     8650.767        3.740        1.883      192.761       89.997        0.218      335.668        6.453      865.615
01/25/2022  14:14:00      177.554      -16.309      -18.234      143.590       73.165       66.092    20618.097     5353.058     4368.196        3.123        1.517      178.301       66.503        0.139      335.885        6.815      865.613
01/25/2022  14:15:00      153.306      -43.663       -3.011      173.532      118.740      107.747    30113.527    14099.213    11609.317        4.061        2.791      159.402       94.956        0.355      335.949        6.920      865.576
01/25/2022  14:16:00      228.412       22.948      -25.585      210.474      139.822      101.247    44299.103    19550.280    10250.979        6.371        3.705      229.562       97.227        0.179      335.881        6.808      865.596
01/25/2022  14:17:00      224.827        0.517      -25.919      172.977      147.602       81.910    29920.945    21786.378     6709.245        5.481        2.921      224.828       75.915        0.114      335.883        6.810      865.600
01/25/2022  14:18:00      291.024      -27.126      -40.861      186.403      115.462       76.423    34746.163    13331.562     5840.544        7.050        2.696      292.286       80.439        0.076      335.700        6.507      865.592
01/25/2022  14:19:00      278.050      -58.536      -11.821      130.179      121.647       82.194    16946.547    14798.029     6755.907        5.968        1.925      284.145       58.161        0.042      335.812        6.692      865.583
01/25/2022  14:20:00      228.919      -26.960      -35.678      157.618      125.175       85.276    24843.414    15668.896     7271.976        5.109        2.389      230.501       78.801        0.117      335.804        6.680      865.588
01/25/2022  14:21:00      217.872      -34.728      -29.784      150.907      118.644       86.573    22772.973    14076.462     7494.970        4.694        2.217      220.623       59.533        0.073      335.793        6.662      865.602
01/25/2022  14:22:00      208.077      -45.599       -9.709      157.071      122.900      101.032    24671.202    15104.404    10207.398        4.772        2.499      213.015       79.561        0.140      335.809        6.688      865.587
01/25/2022  14:23:00      241.924      -34.924      -16.495      162.732      153.142       83.121    26481.768    23452.487     6909.183        5.842        2.842      244.431       78.694        0.104      335.871        6.791      865.556
01/25/2022  14:24:00      170.584      -32.627      -39.597      123.238      131.498       67.734    15187.489    17291.710     4587.858        3.439        1.853      173.676       47.731        0.076      336.053        7.096      865.580
01/25/2022  14:25:00      215.884      -27.334      -35.427      139.260      144.677       78.936    19393.329    20931.567     6230.825        4.757        2.328      217.607       41.240        0.036      335.866        6.783      865.604
01/25/2022  14:26:00      179.412      -17.862      -12.249      125.556      114.112       87.323    15764.343    13021.523     7625.314        3.453        1.821      180.299       73.637        0.167      336.028        7.053      865.622
01/25/2022  14:27:00      186.119     -108.391      -28.398      128.257      122.893       70.719    16449.924    15102.636     5001.168        4.187        1.828      215.381       64.210        0.089      335.884        6.812      865.624
01/25/2022  14:28:00      200.375      -66.081      -17.089      123.368      110.731       76.610    15219.608    12261.436     5869.059        3.907        1.668      210.990       71.667        0.115      336.000        7.005      865.619
01/25/2022  14:29:00      270.001       -0.132      -12.492      166.002      127.691       87.227    27556.664    16305.006     7608.522        6.225        2.574      270.001       54.351        0.041      335.880        6.804      865.632
01/25/2022  14:30:00      484.050      140.276      -50.432      146.267      100.098       73.234    21394.161    10019.559     5363.274       14.664        1.839      503.966       57.745        0.013      335.649        6.420      865.626
01/25/2022  14:31:00      350.260       -5.350      -20.482      156.130      117.388       65.506    24376.720    13780.045     4291.029        8.278        2.122      350.300       53.623        0.023      335.791        6.656      865.636
01/25/2022  14:32:00      147.572      -36.853      -29.285       91.101      109.694       79.914     8299.377    12032.735     6386.290        2.535        1.336      152.103       55.011        0.131      336.006        7.016      865.655
01/25/2022  14:33:00      242.201     -103.975      -24.046      128.246      109.261       71.355    16446.927    11938.021     5091.557        5.176        1.674      263.576       72.028        0.075      335.915        6.864      865.673
01/25/2022  14:34:00      140.841      -20.602       -3.760      150.840      101.896       92.185    22752.725    10382.868     8498.007        3.095        2.082      142.340       84.387        0.351      336.025        7.049      865.683
01/25/2022  14:35:00      359.082     -101.844      -35.968      206.060      119.318      101.742    42460.902    14236.887    10351.371       10.382        3.352      373.245      102.392        0.075      335.710        6.521      865.671
01/25/2022  14:36:00      272.499      -54.303      -20.862      179.383      127.870      100.150    32178.201    16350.821    10029.971        6.809        2.928      277.857       97.373        0.123      335.728        6.553      865.672
01/25/2022  14:37:00      377.694      -13.634      -41.749      172.668      123.425       83.645    29814.133    15233.816     6996.506        9.830        2.602      377.940       52.715        0.019      335.763        6.609      865.667
01/25/2022  14:38:00      250.457       17.202      -14.172      160.306      100.722       55.806    25697.943    10144.881     3114.349        5.108        1.948      251.047       41.912        0.028      335.832        6.726      865.710
01/25/2022  14:39:00      216.737      -29.090        4.818      183.775      107.199       76.001    33773.101    11491.628     5776.164        4.943        2.552      218.680       86.650        0.157      335.859        6.771      865.694
01/25/2022  14:40:00      207.553      -46.832      -43.810      181.310      112.313       90.279    32873.337    12614.118     8150.214        5.040        2.682      212.771       52.987        0.062      335.899        6.839      865.688
01/25/2022  14:41:00      177.675      -70.026      -45.528      122.854      139.014       71.739    15093.112    19324.933     5146.451        3.905        1.978      190.976       51.107        0.072      335.943        6.911      865.725
01/25/2022  14:42:00      246.544        4.190      -26.053      204.948      108.957       74.494    42003.587    11871.617     5549.404        6.044        2.971      246.580       57.465        0.054      335.844        6.745      865.729
01/25/2022  14:43:00      279.470      -10.526      -17.843      141.874      107.249       73.316    20128.232    11502.372     5375.173        5.776        1.850      279.668       68.438        0.060      335.844        6.746      865.733
01/25/2022  14:44:00      289.541       27.940      -26.356      127.804      135.053       66.013    16333.977    18239.438     4357.744        6.211        1.947      290.886       44.435        0.023      335.705        6.514      865.744
01/25/2022  14:45:00       83.738      -36.429      -19.882      121.610       91.688       83.400    14788.923     8406.666     6955.573        1.944        1.508       91.319       64.933        0.506      335.863        6.779      865.743
01/25/2022  14:46:00      104.798      -55.644      -19.893      130.294      133.701      110.557    16976.517    17875.968    12222.948        3.077        2.354      118.654       89.893        0.574      335.740        6.572      865.738
01/25/2022  14:47:00      312.966       10.071      -13.326      179.806       99.558       65.202    32330.018     9911.850     4251.352        7.235        2.325      313.128       65.981        0.044      335.661        6.441      865.748
01/25/2022  14:48:00      237.984      -72.180      -19.606      178.830      105.134       83.977    31979.995    11053.235     7052.195        5.615        2.504      248.689       79.386        0.102      335.763        6.610      865.733
01/25/2022  14:49:00       78.667       -3.869       -0.627      134.747      109.240       81.627    18156.711    11933.302     6662.944        2.147        1.838       78.762       55.836        0.503      335.913        6.862      865.709
01/25/2022  14:50:00      234.658      -55.831       -2.312      207.663      125.455      112.578    43123.896    15738.856    12673.694        6.485        3.577      241.208      109.095        0.205      335.854        6.763      865.685
01/25/2022  14:51:00      288.530      -29.597      -34.101      157.235      112.130       85.040    24723.000    12573.214     7231.867        6.490        2.226      290.044       60.004        0.043      335.666        6.447      865.672
01/25/2022  14:52:00      187.324       -3.735       -3.437      117.659      116.236       71.556    13843.633    13510.743     5120.262        3.379        1.624      187.361       52.061        0.077      335.837        6.733      865.680
01/25/2022  14:53:00      150.107      -20.385      -23.180       83.955       91.948       59.415     7048.394     8454.393     3530.199        2.126        0.952      151.485       43.796        0.084      335.906        6.851      865.690
01/25/2022  14:54:00      203.767       40.130       -3.891      152.629       94.387       58.818    23295.613     8908.918     3459.579        3.940        1.783      207.681       58.262        0.079      335.820        6.706      865.689
01/25/2022  14:55:00      160.893      -46.701      -55.677      143.603      182.507       91.305    20621.771    33308.852     8336.615        4.671        3.113      167.534       89.856        0.288      336.000        7.006      865.657
01/25/2022  14:56:00      315.889       22.930      -12.305      183.786      134.695       82.262    33777.219    18142.813     6767.093        7.956        2.934      316.720       80.668        0.065      335.868        6.785      865.674
01/25/2022  14:57:00      200.754       16.921       -7.022      130.393       78.777       69.503    17002.346     6205.757     4830.635        3.433        1.402      201.466       62.800        0.097      335.902        6.843      865.678
01/25/2022  14:58:00      272.958       31.902      -28.799      173.764       98.488       51.085    30193.819     9699.934     2609.648        5.942        2.125      274.816       31.169        0.013      335.797        6.667      865.673
01/25/2022  14:59:00      155.697       -2.656      -42.732      106.525      114.146       54.412    11347.620    13029.204     2960.666        2.670        1.367      155.720       37.790        0.059      335.889        6.821      865.663
01/25/2022  15:00:00      272.424       94.184      -23.364      141.848      102.951       55.138    20120.913    10598.951     3040.184        5.869        1.688      288.246       33.433        0.013      335.792        6.659      865.660
01/25/2022  15:01:00      179.419      -34.920       -7.644      140.287      103.999       74.796    19680.479    10815.772     5594.386        3.477        1.805      182.786       56.116        0.094      335.911        6.857      865.672
01/25/2022  15:02:00      184.960      -42.201      -35.706      163.025      111.942       77.266    26577.124    12531.096     5970.015        4.116        2.254      189.714       55.881        0.087      335.886        6.816      865.679
01/25/2022  15:03:00      162.125      -99.973      -16.852      144.234      146.340       75.480    20803.524    21415.262     5697.240        4.223        2.396      190.471       82.992        0.190      335.913        6.861      865.696
01/25/2022  15:04:00      200.580      -93.858      -33.543      123.650      115.264       78.205    15289.340    13285.773     6115.951        4.242        1.735      221.453       67.651        0.093      335.832        6.725      865.697
01/25/2022  15:05:00      111.451       10.965      -16.751      100.148       90.542       52.852    10029.712     8197.917     2793.354        1.692        1.051      111.989       35.801        0.102      336.032        7.061      865.707
01/25/2022  15:06:00      165.406       41.078      -31.929      170.739       97.372       63.275    29151.730     9481.272     4003.678        3.634        2.132      170.431       56.768        0.111      336.109        7.187      865.729
01/25/2022  15:07:00      372.196       82.233      -21.161      126.342      113.802       65.357    15962.402    12950.885     4271.473        8.946        1.659      381.172       60.904        0.026      335.741        6.574      865.704
01/25/2022  15:08:00      351.489       42.066      -27.709      149.532      111.235       59.345    22359.849    12373.237     3521.867        8.216        1.913      353.997       44.251        0.016      335.761        6.607      865.698
01/25/2022  15:09:00       72.055       46.874      -10.581       90.192       92.287       51.533     8134.546     8516.899     2655.664        1.340        0.965       85.960       33.559        0.152      335.988        6.988      865.707
01/25/2022  15:10:00      162.304       -1.961      -30.689      144.181      125.781       89.738    20788.125    15820.786     8052.830        3.597        2.233      162.316       48.031        0.088      335.965        6.949      865.702
01/25/2022  15:11:00      201.224       46.838      -12.065      159.648      130.928       78.831    25487.505    17142.202     6214.357        4.583        2.442      206.604       57.668        0.078      335.943        6.912      865.697
01/25/2022  15:12:00      142.903      -33.660      -13.592       93.427      113.493       65.497     8728.523    12880.745     4289.874        2.381        1.295      146.814       57.637        0.154      335.936        6.900      865.706
01/25/2022  15:13:00      132.432      -27.731      -24.375      130.320      136.144       72.120    16983.399    18535.104     5201.224        2.980        2.036      135.305       68.004        0.253      335.909        6.854      865.697
01/25/2022  15:14:00      194.111      -49.434       -5.552      146.438      104.722       80.973    21443.979    10966.622     6556.632        3.955        1.948      200.307       72.479        0.131      335.917        6.868      865.679
01/25/2022  15:15:00      321.430       21.087      -37.455      150.989      122.684       77.111    22797.642    15051.345     5946.179        7.447        2.190      322.121       60.127        0.035      335.800        6.671      865.694
01/25/2022  15:16:00      195.761      -75.888       -6.990      171.155      134.919      107.864    29294.195    18203.202    11634.738        5.162        2.957      209.956      108.514        0.267      335.771        6.625      865.673
01/25/2022  15:17:00      217.696      -16.639      -24.444      160.413      140.483      109.380    25732.362    19735.608    11964.010        5.284        2.872      218.331       72.710        0.111      335.731        6.557      865.700
01/25/2022  15:18:00      139.587      -11.425      -44.088      140.505      131.242       81.364    19741.534    17224.363     6620.170        3.256        2.179      140.053       56.220        0.161      335.679        6.470      865.724
01/25/2022  15:19:00      198.695      -17.562       -8.408      170.844      129.972       84.754    29187.694    16892.788     7183.197        4.655        2.663      199.470       81.277        0.166      335.576        6.299      865.706
01/25/2022  15:20:00      287.029      -26.983      -31.756      198.710      145.297      106.359    39485.754    21111.341    11312.199        7.800        3.595      288.295      105.286        0.133      335.583        6.311      865.671
01/25/2022  15:21:00      177.449      -30.705      -32.079      198.906      155.751      130.999    39563.446    24258.284    17160.787        5.721        4.049      180.086      123.208        0.468      335.660        6.440      865.642
01/25/2022  15:22:00      177.346      -74.384      -32.348      173.510      143.681      110.161    30105.838    20644.290    12135.432        5.045        3.144      192.314       97.901        0.259      335.645        6.413      865.663
01/25/2022  15:23:00      142.748      -20.811      -16.381      109.467       95.688       66.839    11983.122     9156.254     4467.413        2.334        1.280      144.257       39.405        0.075      335.850        6.757      865.704
01/25/2022  15:24:00      216.095      -33.062      -28.746      170.984      118.455       70.503    29235.411    14031.617     4970.631        4.842        2.412      218.609       60.626        0.077      335.712        6.526      865.724
01/25/2022  15:25:00      282.977       36.088      -35.090      173.990      110.905       67.635    30272.683    12299.995     4574.493        6.487        2.357      285.269       62.110        0.047      335.673        6.459      865.722
01/25/2022  15:26:00      265.090       14.428      -23.894      193.998      111.205       71.403    37635.396    12366.524     5098.336        6.307        2.755      265.482       82.193        0.096      335.640        6.405      865.721
01/25/2022  15:27:00      435.070       40.164      -18.349      182.897      131.277       76.763    33451.202    17233.772     5892.525       12.390        2.829      436.920       79.885        0.033      335.509        6.187      865.714
01/25/2022  15:28:00      376.257       -1.972      -20.736      170.748      141.037       89.860    29154.728    19891.340     8074.759        9.955        2.856      376.262       75.367        0.040      335.536        6.232      865.692
01/25/2022  15:29:00      171.933      -44.415        0.062      197.015      132.696       88.327    38814.863    17608.214     7801.586        4.787        3.211      177.577       79.978        0.203      335.669        6.455      865.699
01/25/2022  15:30:00      348.400      -17.637      -29.592      177.688      129.618       86.652    31572.930    16800.829     7508.579        8.922        2.794      348.846       79.386        0.052      335.551        6.257      865.682
01/25/2022  15:31:00      243.157       74.834      -46.599      155.727      106.047       51.235    24250.944    11245.935     2625.035        5.250        1.906      254.412       33.446        0.017      335.617        6.366      865.684
01/25/2022  15:32:00      257.311      -31.992      -14.927      164.475      143.503       77.433    27051.996    20593.246     5995.794        6.054        2.682      259.292       61.521        0.056      335.621        6.374      865.682
01/25/2022  15:33:00      425.855       24.211      -32.897      197.766      130.999       61.463    39111.584    17160.707     3777.666       12.152        3.002      426.543       65.566        0.024      335.565        6.281      865.669
01/25/2022  15:34:00      283.655      -19.270       -5.965      191.275      130.861       98.277    36586.219    17124.558     9658.447        7.211        3.168      284.309       73.277        0.066      335.528        6.217      865.644
01/25/2022  15:35:00      323.096        3.251      -31.710      200.041      130.482       94.215    40016.299    17025.603     8876.437        8.565        3.296      323.112       87.905        0.074      335.452        6.092      865.652
01/25/2022  15:36:00      110.914       22.718      -29.841      132.129       90.609       64.146    17457.957     8210.058     4114.716        2.174        1.489      113.217       43.830        0.150      335.537        6.235      865.667
01/25/2022  15:37:00      283.069      -43.709      -16.640      154.674      109.646       92.868    23923.925    12022.166     8624.442        6.343        2.229      286.424       90.228        0.099      335.535        6.229      865.662
01/25/2022  15:38:00      294.632      -10.909      -42.367      194.526      169.297       91.162    37840.187    28661.437     8310.481        8.175        3.741      294.834       81.880        0.077      335.547        6.250      865.649
01/25/2022  15:39:00      364.517       40.693      -18.370      180.295      144.009       92.540    32506.195    20738.621     8563.616        9.833        3.090      366.781       74.324        0.041      335.463        6.110      865.656
01/25/2022  15:40:00      465.975       16.061      -31.348      178.321      124.118       75.779    31798.357    15405.157     5742.489       13.565        2.647      466.252       55.328        0.014      335.424        6.045      865.655
01/25/2022  15:41:00      298.494      -19.311      -45.670      155.508      110.256       70.726    24182.685    12156.439     5002.136        6.644        2.067      299.119       68.267        0.052      335.583        6.310      865.679
01/25/2022  15:42:00      178.051        6.887      -21.978      162.392       99.270       69.528    26371.197     9854.574     4834.075        3.664        2.053      178.184       64.638        0.132      335.656        6.432      865.701
01/25/2022  15:43:00      317.384       44.311      -24.045      123.435      114.926       64.331    15236.093    13207.965     4138.458        6.792        1.629      320.463       46.525        0.021      335.554        6.262      865.732
01/25/2022  15:44:00      315.194      -86.287      -25.652      179.083      148.039       67.675    32070.843    21915.687     4579.943        8.300        2.928      326.791       61.266        0.035      335.475        6.129      865.736
01/25/2022  15:45:00      150.847      -40.640       -4.589      137.948      107.181       83.663    19029.521    11487.837     6999.467        3.097        1.876      156.226       67.077        0.184      335.558        6.270      865.729
01/25/2022  15:46:00      176.507      -37.462      -33.189      168.844       98.884       75.377    28508.210     9778.071     5681.627        3.881        2.198      180.439       63.773        0.125      335.523        6.212      865.730
01/25/2022  15:47:00      338.295       47.573      -31.639      149.374      112.961       63.747    22312.603    12760.081     4063.668        7.841        1.957      341.623       57.246        0.028      335.487        6.151      865.765
01/25/2022  15:48:00      417.042      -11.588      -24.915      187.567      146.104       99.211    35181.440    21346.350     9842.866       12.051        3.319      417.203       84.889        0.041      335.402        6.009      865.754
01/25/2022  15:49:00      353.694       16.699      -26.963      194.016      152.175       84.960    37642.225    23157.276     7218.197        9.705        3.401      354.088       84.870        0.057      335.428        6.051      865.760
01/25/2022  15:50:00      284.088        9.193      -15.195      162.276       90.678       77.044    26333.531     8222.502     5935.720        6.075        2.025      284.237       84.191        0.088      335.454        6.095      865.792
01/25/2022  15:51:00      255.807       43.110      -28.039      169.595      142.020       84.122    28762.602    20169.596     7076.562        6.203        2.800      259.414       67.652        0.068      335.477        6.134      865.807
01/25/2022  15:52:00      266.507       12.705      -16.670      187.863      109.975       76.635    35292.393    12094.547     5872.969        6.235        2.663      266.810       65.984        0.061      335.514        6.196      865.831
01/25/2022  15:53:00      217.932       -0.395       -1.668      146.110      141.902       86.132    21348.088    20136.223     7418.697        4.819        2.445      217.932       77.778        0.127      335.566        6.283      865.826
01/25/2022  15:54:00      359.150       -7.670      -45.358      167.314      146.848       75.640    27993.956    21564.323     5721.441        9.318        2.764      359.232       61.109        0.029      335.468        6.118      865.832
01/25/2022  15:55:00      179.594      -40.321      -25.832      176.018      131.504       90.706    30982.170    17293.317     8227.563        4.551        2.825      184.065       76.575        0.173      335.478        6.135      865.824
01/25/2022  15:56:00      146.708        8.527      -25.135      211.502      144.083       97.979    44733.134    20759.874     9599.868        4.865        3.755      146.956       78.630        0.286      335.457        6.102      865.834
01/25/2022  15:57:00      350.807       -3.174       -8.805      141.390      133.454       82.807    19991.121    17809.841     6857.060        8.390        2.233      350.822       66.291        0.036      335.352        5.925      865.834
01/25/2022  15:58:00      197.113      -43.781      -15.184      165.410      101.060       57.972    27360.525    10213.205     3360.762        4.096        2.047      201.917       45.382        0.051      335.425        6.048      865.854
01/25/2022  15:59:00      346.548       30.376      -29.343      173.189      135.870       75.706    29994.402    18460.770     5731.326        8.802        2.709      347.876       81.893        0.055      335.377        5.968      865.869
01/25/2022  16:00:00      296.892       17.747      -15.028      145.462      145.642       73.296    21159.266    21211.448     5372.258        6.821        2.387      297.422       61.217        0.042      335.389        5.988      865.875
01/25/2022  16:01:00      295.165       13.697      -33.003      188.408      145.597       68.991    35497.678    21198.555     4759.801        7.492        3.073      295.482       47.956        0.026      335.390        5.988      865.889
01/25/2022  16:02:00      282.880        0.734      -25.608      108.632      113.831       70.854    11800.890    12957.602     5020.319        5.522        1.489      282.881       36.474        0.017      335.377        5.969      865.891
01/25/2022  16:03:00      242.579       26.654      -26.371      131.210      113.788       62.888    17216.151    12947.669     3954.838        4.718        1.706      244.039       46.156        0.036      335.399        6.006      865.898
01/25/2022  16:04:00      147.312       11.919      -32.582      123.509      119.454       64.004    15254.491    14269.303     4096.530        2.826        1.681      147.793       35.398        0.057      335.434        6.065      865.918
01/25/2022  16:05:00      186.024      -37.872      -23.136       98.059      105.556       61.180     9615.582    11142.122     3742.944        3.053        1.225      189.840       43.508        0.053      335.394        5.996      865.927
01/25/2022  16:06:00      103.131        6.361      -32.528       71.357       69.876       49.139     5091.775     4882.624     2414.633        1.206        0.619      103.327       26.912        0.068      335.444        6.082      865.935
01/25/2022  16:07:00      282.268       54.342      -21.388      144.008      100.477       66.939    20738.331    10095.699     4480.811        5.919        1.766      287.452       63.710        0.049      335.352        5.925      865.933
01/25/2022  16:08:00      192.310        6.408      -23.124       96.426      110.201       51.751     9297.979    12144.185     2678.171        3.084        1.206      192.417       18.626        0.009      335.354        5.929      865.922
01/25/2022  16:09:00      222.435       12.990      -19.218      129.522       96.136       72.570    16776.065     9242.173     5266.414        4.064        1.564      222.814       59.146        0.070      335.350        5.923      865.906
01/25/2022  16:10:00      200.104       -8.883      -20.224      166.716      136.871       99.193    27794.390    18733.707     9839.222        4.844        2.818      200.302       84.502        0.178      335.301        5.839      865.876
01/25/2022  16:11:00      228.885       -7.521       -6.839      164.136      128.552       84.643    26940.788    16525.722     7164.511        5.155        2.532      229.009       57.581        0.063      335.281        5.809      865.896
01/25/2022  16:12:00      251.891      -36.470      -18.943      193.958      130.953      111.948    37619.876    17148.632    12532.349        6.621        3.365      254.517      108.604        0.182      335.249        5.754      865.874
01/25/2022  16:13:00      199.104       90.931      -14.064      176.572      127.694       68.360    31177.771    16305.641     4673.116        5.012        2.608      218.886       46.941        0.046      335.247        5.751      865.924
01/25/2022  16:14:00      344.925       42.360      -19.504      124.158       98.745       60.952    15415.262     9750.605     3715.179        7.501        1.444      347.517       49.165        0.020      335.196        5.665      865.921
01/25/2022  16:15:00      313.324      100.138      -20.189      174.289      135.955       70.144    30376.683    18483.667     4920.225        8.118        2.689      328.938       60.261        0.034      335.149        5.589      865.933
01/25/2022  16:16:00      325.393       60.458      -30.497      225.849      127.994       85.227    51007.736    16382.575     7263.664        9.255        3.733      330.961      100.148        0.092      335.159        5.607      865.941
01/25/2022  16:17:00      337.832       70.641      -35.033      180.877      122.194       73.138    32716.350    14931.444     5349.207        8.666        2.650      345.139       68.905        0.040      335.128        5.554      865.949
01/25/2022  16:18:00      268.083       39.065      -19.235      186.422      133.693       84.146    34753.338    17873.887     7080.630        6.673        2.985      270.914       76.155        0.079      335.107        5.520      865.936
01/25/2022  16:19:00      159.300        6.293      -13.694      105.986      106.144       66.260    11233.095    11266.641     4390.452        2.624        1.345      159.425       51.661        0.105      335.150        5.590      865.953
01/25/2022  16:20:00      323.893       93.131      -36.901      135.194       92.724       66.266    18277.494     8597.822     4391.214        7.310        1.563      337.016       39.761        0.014      335.066        5.451      865.953
01/25/2022  16:21:00      282.318       -2.474      -16.019      124.121       89.421       64.251    15405.905     7996.079     4128.225        5.374        1.377      282.328       40.089        0.020      335.057        5.436      865.958
01/25/2022  16:22:00      242.068       13.089      -14.211      127.358       98.458       64.547    16220.048     9693.955     4166.268        4.452        1.504      242.421       53.561        0.049      335.081        5.476      865.958
01/25/2022  16:23:00      355.507       18.821       -7.490      160.948      137.035       79.184    25904.184    18778.705     6270.114        8.886        2.548      356.005       68.228        0.037      335.051        5.426      865.951
01/25/2022  16:24:00      147.203       -9.386       -9.776      125.784      104.224       79.999    15821.701    10862.688     6399.895        2.746        1.654      147.502       51.421        0.122      335.106        5.519      865.950
01/25/2022  16:25:00      229.040       -0.578      -20.258      116.346      109.896       60.484    13536.444    12077.156     3658.313        4.107        1.464      229.041       49.454        0.047      335.034        5.398      865.954
01/25/2022  16:26:00      320.463       43.866      -28.109      146.114      102.193       55.145    21349.388    10443.394     3040.948        7.012        1.742      323.452       55.757        0.030      335.023        5.379      865.962
01/25/2022  16:27:00      137.115       61.547      -13.837      112.896      113.522       70.713    12745.605    12887.227     5000.325        2.670        1.532      150.295       56.970        0.144      335.076        5.469      865.968
01/25/2022  16:28:00      156.018      -28.496      -35.504       77.485       87.311       42.285     6003.918     7623.258     1788.031        2.091        0.771      158.599       33.317        0.044      335.085        5.485      865.994
01/25/2022  16:29:00      182.515       -6.819      -27.084      104.616      115.220       58.514    10944.529    13275.608     3423.924        3.086        1.382      182.642       41.823        0.052      335.060        5.442      865.993
01/25/2022  16:30:00      285.896      -15.983      -21.147      145.691      121.373       68.286    21225.888    14731.344     4662.925        6.152        2.031      286.343       47.151        0.027      334.992        5.329      865.991
01/25/2022  16:31:00      377.807      -22.780      -43.738      158.560      101.430       63.487    25141.230    10288.106     4030.593        9.231        1.973      378.493       53.553        0.020      334.985        5.315      866.002
01/25/2022  16:32:00      278.660       28.249      -16.734      145.215      106.388       74.171    21087.369    11318.425     5501.403        5.831        1.895      280.088       64.006        0.052      334.963        5.280      866.007
01/25/2022  16:33:00      389.403       44.679      -24.200      160.800      121.978       65.633    25856.549    14878.735     4307.694        9.962        2.252      391.957       53.862        0.019      334.963        5.279      865.990
01/25/2022  16:34:00      238.073       12.806      -11.345      138.257       79.682       62.857    19114.994     6349.210     3951.012        4.319        1.471      238.417       44.754        0.035      335.009        5.355      866.006
01/25/2022  16:35:00      253.177       13.107      -12.249      186.934      121.317       86.899    34944.379    14717.779     7551.522        6.081        2.861      253.516       91.672        0.131      335.005        5.349      865.991
01/25/2022  16:36:00      273.534      -30.026      -11.385      142.489       93.431       90.071    20303.047     8729.320     8112.873        5.649        1.857      275.177       80.990        0.087      334.969        5.289      865.993
01/25/2022  16:37:00      283.340      -11.076      -23.719      166.407      101.870       81.423    27691.241    10377.493     6629.747        6.282        2.235      283.556       79.650        0.079      334.960        5.274      866.009
01/25/2022  16:38:00       99.111        5.894       -8.656      130.530      105.231       73.541    17038.004    11073.556     5408.223        2.172        1.676       99.287       62.073        0.391      334.967        5.287      866.025
01/25/2022  16:39:00      242.509       18.523      -16.189      109.483       75.443       48.901    11986.608     5691.654     2391.320        3.974        1.003      243.215       37.529        0.024      334.921        5.211      866.022
01/25/2022  16:40:00      372.123        5.695      -29.899      156.875      111.808       70.428    24609.652    12501.103     4960.163        9.073        2.104      372.167       58.087        0.024      334.898        5.172      866.014
01/25/2022  16:41:00      225.107      -33.749      -31.916      140.828      121.809       69.002    19832.572    14837.360     4761.335        4.612        1.972      227.623       43.902        0.037      334.908        5.189      866.031
01/25/2022  16:42:00      311.040        8.445      -15.125      164.483       95.063       56.201    27054.634     9037.020     3158.518        6.814        1.963      311.154       43.005        0.019      334.882        5.147      866.042
01/25/2022  16:43:00      371.166        7.479      -36.937      136.716      122.690       67.235    18691.323    15052.742     4520.522        8.872        1.913      371.242       38.695        0.011      334.865        5.116      866.036
01/25/2022  16:44:00      308.361       32.898      -18.404      103.990      109.489       61.222    10813.892    11987.757     3748.160        6.152        1.327      310.111       20.973        0.005      334.857        5.105      866.067
01/25/2022  16:45:00      405.915       67.802      -22.671      186.236      125.710       78.738    34683.829    15802.919     6199.606       11.327        2.834      411.539       79.220        0.037      334.858        5.104      866.061
01/25/2022  16:46:00      412.641       32.114      -25.833      135.011      129.371       73.223    18228.072    16736.972     5361.631       10.614        2.016      413.888       56.352        0.019      334.833        5.062      866.066
01/25/2022  16:47:00      237.559       19.668      -21.482      155.138      116.273       71.624    24067.774    13519.457     5130.018        4.999        2.136      238.372       64.691        0.074      334.833        5.065      866.063
01/25/2022  16:48:00      232.917       18.624      -13.076      174.259      104.406       85.328    30366.121    10900.677     7280.932        5.165        2.427      233.660       70.586        0.091      334.831        5.063      866.071
01/25/2022  16:49:00      331.446       -3.960       -6.719      144.256      110.591       69.076    20809.820    12230.344     4771.534        7.386        1.891      331.470       63.936        0.037      334.798        5.006      866.073
01/25/2022  16:50:00      154.323       -5.005      -19.327      154.465      122.786       73.136    23859.406    15076.393     5348.846        3.424        2.214      154.404       56.878        0.136      334.788        4.991      866.083
01/25/2022  16:51:00      244.908       27.964      -19.003      113.225       92.084       56.487    12820.004     8479.424     3190.751        4.280        1.225      246.500       50.048        0.041      334.768        4.957      866.093
01/25/2022  16:52:00      268.349       62.880      -23.255      157.378      109.921       62.222    24767.879    12082.588     3871.626        5.861        2.036      275.617       30.800        0.012      334.784        4.983      866.105
01/25/2022  16:53:00      236.354      -86.914      -34.488      171.850      137.027       85.290    29532.288    18776.499     7274.419        6.008        2.779      251.827       72.324        0.082      334.776        4.970      866.099
01/25/2022  16:54:00      226.003      -31.019      -30.774      129.187      125.534       78.796    16689.273    15758.877     6208.751        4.581        1.933      228.121       49.083        0.046      334.757        4.937      866.107
01/25/2022  16:55:00      239.544      -25.973      -19.997      145.416      120.908       62.917    21145.735    14618.661     3958.515        4.908        1.986      240.948       41.141        0.029      334.757        4.937      866.116
01/25/2022  16:56:00      330.498      -23.105       -4.793      163.565      155.386       90.269    26753.353    24144.818     8148.473        8.441        2.952      331.304       73.804        0.050      334.730        4.893      866.096
01/25/2022  16:57:00      316.249       26.911      -27.096      137.305      134.129       64.793    18852.724    17990.681     4198.150        7.125        2.052      317.392       52.811        0.028      334.699        4.841      866.114
01/25/2022  16:58:00      260.941       10.170      -24.642      117.297      102.643       69.089    13758.564    10535.673     4773.228        4.893        1.453      261.139       33.178        0.016      334.697        4.838      866.119
01/25/2022  16:59:00      283.131        5.615       -4.607      165.366      109.981       71.573    27346.070    12095.804     5122.629        6.238        2.228      283.187       75.298        0.071      334.690        4.826      866.107
01/25/2022  17:00:00      308.793       38.261      -25.159      154.990      111.824       69.380    24021.965    12504.669     4813.536        6.939        2.067      311.155       19.275        0.004      334.683        4.814      866.111
01/25/2022  17:01:00      367.034       14.874      -25.185      164.964      151.550       84.628    27213.207    22967.377     7161.870        9.645        2.867      367.336       65.343        0.032      334.677        4.803      866.108
01/25/2022  17:02:00      443.748        3.669      -23.401      217.497      149.374       85.006    47304.979    22312.565     7226.004       13.714        3.842      443.764       90.393        0.041      334.663        4.781      866.104
01/25/2022  17:03:00      285.433        1.258      -16.409      118.620      101.775       71.127    14070.614    10358.241     5059.012        5.561        1.474      285.435       55.574        0.038      334.639        4.741      866.131
01/25/2022  17:04:00      265.193      -18.910      -14.205      162.952      138.802       87.144    26553.325    19266.073     7594.019        6.214        2.671      265.866       69.183        0.068      334.640        4.743      866.140
01/25/2022  17:05:00      215.527        6.750      -13.721      154.792      126.924       67.982    23960.492    16109.734     4621.524        4.568        2.235      215.633       69.256        0.103      334.615        4.702      866.164
01/25/2022  17:06:00      271.633      -20.925      -17.109      145.204      111.962       70.014    21084.076    12535.404     4902.019        5.651        1.926      272.437       60.347        0.049      334.613        4.697      866.197
01/25/2022  17:07:00      249.717       34.398       -5.825      123.067      102.964       70.102    15145.513    10601.528     4914.233        4.711        1.533      252.075       61.645        0.060      334.605        4.684      866.213
01/25/2022  17:08:00      322.368       46.456      -12.403      102.300      105.858       58.621    10465.197    11205.954     3436.375        6.567        1.255      325.698       44.085        0.018      334.607        4.688      866.221
01/25/2022  17:09:00      206.531       16.794      -30.676      116.115      125.886       52.789    13482.769    15847.248     2786.631        3.799        1.606      207.213       31.956        0.024      334.574        4.633      866.226
01/25/2022  17:10:00      113.471        9.405      -27.129       98.067       93.018       58.573     9617.134     8652.401     3430.829        1.770        1.085      113.860       38.993        0.117      334.540        4.577      866.216
01/25/2022  17:11:00      232.212      -12.292      -20.126       97.593       64.533       54.147     9524.468     4164.469     2931.867        3.555        0.831      232.537       41.612        0.032      334.509        4.526      866.232
01/25/2022  17:12:00      182.987       27.319      -12.513      117.551       82.226       47.324    13818.122     6761.197     2239.575        2.860        1.141      185.015       39.270        0.045      334.522        4.545      866.250
01/25/2022  17:13:00      304.771        5.461      -33.757      129.853       80.398       49.265    16861.798     6463.887     2427.035        5.990        1.288      304.820       38.148        0.016      334.557        4.602      866.257
01/25/2022  17:14:00      172.886        0.520      -20.852      117.304      113.554       52.377    13760.224    12894.529     2743.396        2.986        1.470      172.886       44.610        0.067      334.534        4.567      866.255
01/25/2022  17:15:00      172.296       44.796      -13.964      125.489       94.585       54.464    15747.492     8946.336     2966.377        2.977        1.383      178.024       37.124        0.043      334.501        4.513      866.255
01/25/2022  17:16:00      168.024       20.476      -10.160       99.497       72.239       48.034     9899.694     5218.442     2307.272        2.309        0.871      169.267       36.604        0.047      334.500        4.510      866.249
01/25/2022  17:17:00      193.317       13.164       -8.326       90.895       75.555       48.727     8261.979     5708.612     2374.340        2.698        0.817      193.765       35.103        0.033      334.483        4.482      866.246
01/25/2022  17:18:00      190.007       17.476      -11.041       88.897       65.891       42.328     7902.640     4341.619     1791.701        2.528        0.702      190.809       38.539        0.041      334.445        4.421      866.255
01/25/2022  17:19:00      214.017       42.406      -14.460       83.115       73.023       39.122     6908.115     5332.425     1530.509        3.079        0.689      218.178       18.243        0.007      334.423        4.382      866.256
01/25/2022  17:20:00      211.580       -2.280       -9.826       81.986       46.549       39.173     6721.709     2166.788     1534.510        2.764        0.521      211.592       38.974        0.034      334.412        4.364      866.248
01/25/2022  17:21:00      185.278       31.897       -9.506       71.806       53.164       34.895     5156.043     2826.364     1217.635        2.232        0.460      188.004       32.207        0.029      334.403        4.350      866.253
01/25/2022  17:22:00      139.299       27.129       -7.983       60.959       67.574       42.184     3715.993     4566.240     1779.470        1.513        0.503      141.916       40.195        0.080      334.378        4.311      866.258
01/25/2022  17:23:00       81.193       -5.144      -15.291       70.507       60.633       32.373     4971.174     3676.321     1048.036        0.827        0.485       81.356       20.117        0.061      334.378        4.311      866.261
01/25/2022  17:24:00      223.175        0.518      -18.283       59.468       66.422       35.544     3536.399     4411.841     1263.353        2.967        0.461      223.175       28.736        0.017      334.401        4.346      866.271
01/25/2022  17:25:00      181.395      -30.302       -7.024      115.021       77.203       51.283    13229.771     5960.327     2629.992        2.784        1.091      183.908       50.571        0.076      334.425        4.386      866.281
01/25/2022  17:26:00      152.396       -4.044      -15.530      103.424       78.300       45.142    10696.490     6130.953     2037.777        2.117        0.943      152.450       30.582        0.040      334.418        4.375      866.295
01/25/2022  17:27:00      140.915       44.230      -11.405       88.164       55.856       42.611     7772.823     3119.880     1815.716        1.732        0.635      147.693       29.496        0.040      334.319        4.213      866.302
01/25/2022  17:28:00      206.905       26.951       -6.839       78.688       67.544       50.806     6191.811     4562.134     2581.280        2.846        0.667      208.653       34.379        0.027      334.352        4.266      866.310
01/25/2022  17:29:00      174.211       10.810      -14.853       95.025       59.823       39.860     9029.738     3578.829     1588.800        2.244        0.710      174.546       40.131        0.053      334.344        4.253      866.303
01/25/2022  17:30:00      145.534      -17.720       -4.138      115.841       65.193       41.234    13419.027     4250.070     1700.260        2.044        0.968      146.609       45.693        0.097      334.334        4.236      866.310
01/25/2022  17:31:00      121.370        6.979       -9.100       64.987       60.385       40.283     4223.260     3646.361     1622.749        1.218        0.475      121.571       27.027        0.049      334.276        4.141      866.319
01/25/2022  17:32:00      120.771       11.968       -7.321       75.146       40.938       28.432     5646.968     1675.931      808.394        1.146        0.407      121.363       23.681        0.038      334.285        4.156      866.323
01/25/2022  17:33:00      105.647       10.456      -10.872       60.422       30.466       24.857     3650.875      928.193      617.880        0.829        0.260      106.164       22.897        0.047      334.227        4.059      866.326
01/25/2022  17:34:00      196.147       -1.275      -11.296       78.994       57.245       39.170     6240.008     3277.018     1534.293        2.483        0.553      196.151       36.856        0.035      334.259        4.111      866.333
01/25/2022  17:35:00       89.846       -9.165       -8.409       82.228       54.527       37.368     6761.404     2973.247     1396.362        0.968        0.557       90.312       29.682        0.108      334.248        4.096      866.336
01/25/2022  17:36:00      120.368       -2.133      -13.360       65.694       46.079       30.031     4315.737     2123.302      901.858        1.100        0.367      120.387       11.920        0.010      334.148        3.927      866.346
01/25/2022  17:37:00       98.471       11.130       -8.266       49.232       49.535       37.129     2423.798     2453.707     1378.588        0.807        0.313       99.098       27.665        0.078      334.203        4.021      866.349
01/25/2022  17:38:00       82.909       -9.489      -13.828       63.856       55.119       39.008     4077.633     3038.141     1521.634        0.789        0.432       83.451       13.331        0.026      334.312        4.201      866.361
01/25/2022  17:39:00      110.431        9.916      -21.097       52.367       51.586       34.023     2742.289     2661.119     1157.536        0.965        0.328      110.875       18.051        0.027      334.286        4.159      866.364
01/25/2022  17:40:00      147.592       -9.173      -17.161       70.563       61.972       40.721     4979.207     3840.568     1658.161        1.632        0.524      147.877       26.800        0.033      334.167        3.959      866.358
01/25/2022  17:41:00      106.420      -24.766      -15.197       58.451       45.064       27.450     3416.523     2030.790      753.501        0.918        0.310      109.263       22.157        0.041      334.122        3.886      866.345
01/25/2022  17:42:00       76.980      -22.610       -8.609       67.336       41.070       37.046     4534.195     1686.713     1372.404        0.705        0.380       80.232       29.953        0.139      334.122        3.885      866.336
01/25/2022  17:43:00       68.582       -4.170       -4.520       46.166       40.290       36.732     2131.272     1623.256     1349.249        0.492        0.255       68.709       26.668        0.151      334.091        3.834      866.339
01/25/2022  17:44:00      139.759      -36.062      -13.891       55.852       45.244       30.901     3119.465     2047.006      954.895        1.357        0.306      144.337       20.053        0.019      334.157        3.944      866.343
01/25/2022  17:45:00       95.436      -15.125       -8.125       68.351       52.437       38.866     4671.870     2749.644     1510.532        0.917        0.447       96.627       36.624        0.144      334.122        3.884      866.389
01/25/2022  17:46:00       99.365      -36.560       -9.681       48.514       43.220       39.180     2353.591     1868.003     1535.058        0.853        0.288      105.877       31.315        0.087      334.117        3.878      866.414
01/25/2022  17:47:00      100.858      -29.706       -9.905       57.977       27.233       29.679     3361.360      741.629      880.838        0.807        0.249      105.142       32.464        0.095      334.116        3.874      866.431
01/25/2022  17:48:00       79.773      -39.415      -16.347       33.581       31.887       23.641     1127.685     1016.790      558.895        0.544        0.135       88.978       14.257        0.026      334.122        3.886      866.449
01/25/2022  17:49:00       75.228      -31.321        1.247       54.581       29.056       37.321     2979.122      844.277     1392.867        0.593        0.261       81.488       32.257        0.157      334.085        3.825      866.455
01/25/2022  17:50:00       70.405       -3.792      -19.083       53.454       41.878       28.826     2857.383     1753.744      830.942        0.539        0.272       70.507       14.292        0.041      334.106        3.860      866.456
01/25/2022  17:51:00       54.616        2.907       -0.148       52.228       45.918       39.059     2727.720     2108.450     1525.631        0.468        0.318       54.693       30.063        0.302      334.216        4.042      866.469
01/25/2022  17:52:00       74.508       -8.591       -4.147       51.195       50.397       37.316     2620.879     2539.896     1392.500        0.610        0.328       75.001       28.066        0.140      334.109        3.864      866.488
01/25/2022  17:53:00       72.497       -5.713       -5.877       50.620       32.606       32.011     2562.376     1063.141     1024.701        0.499        0.233       72.722       24.505        0.114      333.996        3.679      866.496
01/25/2022  17:54:00       64.445      -43.193      -26.014       34.683       41.328       24.092     1202.890     1707.980      580.432        0.509        0.175       77.580       15.554        0.040      334.087        3.828      866.499
01/25/2022  17:55:00       67.883      -38.475      -20.602       47.495       45.205       21.917     2255.755     2043.535      480.359        0.565        0.239       78.029       25.584        0.108      334.147        3.928      866.504
01/25/2022  17:56:00       19.469       -7.657       -1.484       32.767       30.309       28.937     1073.674      918.618      837.367        0.163        0.141       20.920       22.443        1.151      334.056        3.777      866.517
01/25/2022  17:57:00      104.960      -18.179      -11.827       51.482       46.967       34.313     2650.433     2205.928     1177.389        0.876        0.302      106.523       28.154        0.070      334.015        3.708      866.539
01/25/2022  17:58:00       97.020      -56.293       -9.113       71.338       63.752       50.775     5089.086     4064.309     2578.055        1.220        0.587      112.168       49.972        0.198      334.192        4.000      866.551
01/25/2022  17:59:00       86.862      -17.541       -6.517       56.872       76.667       47.342     3234.475     5877.871     2241.308        0.962        0.568       88.615       38.363        0.187      334.074        3.806      866.573
01/25/2022  18:00:00       96.509      -99.052      -27.823       56.560       50.862       38.750     3198.989     2586.991     1501.536        1.359        0.364      138.294       33.521        0.059      334.214        4.038      866.576
01/25/2022  18:01:00      131.012      -21.194      -36.078       67.194       71.279       40.777     4514.969     5080.691     1662.741        1.508        0.563      132.715       27.828        0.044      334.118        3.878      866.578
01/25/2022  18:02:00      128.031      -10.281      -13.208       75.991      101.388       55.704     5774.613    10279.560     3102.985        1.791        0.958      128.443       49.181        0.147      334.043        3.755      866.579
01/25/2022  18:03:00      170.526      -32.466      -20.703       71.352       49.949       40.459     5091.168     2494.901     1636.970        1.989        0.461      173.589       28.757        0.027      334.018        3.712      866.602
01/25/2022  18:04:00      134.700      -60.644       -9.223       89.347       62.359       44.820     7982.800     3888.656     2008.837        1.789        0.694      147.722       52.589        0.127      333.993        3.670      866.607
01/25/2022  18:05:00      114.181      -42.997      -14.101       56.631       41.088       33.144     3207.020     1688.256     1098.498        1.054        0.300      122.009       31.127        0.065      333.925        3.560      866.621
01/25/2022  18:06:00      130.795      -33.900      -14.472       75.368       51.068       37.298     5680.273     2607.927     1391.170        1.407        0.484      135.117       34.478        0.065      333.908        3.531      866.619
01/25/2022  18:07:00      136.006      -43.759      -19.362       48.167       43.577       25.555     2320.043     1898.959      653.046        1.283        0.244      142.872       22.098        0.024      333.888        3.500      866.617
01/25/2022  18:08:00      152.979      -48.459       -6.983       68.928       44.423       39.014     4751.002     1973.398     1522.067        1.702        0.412      160.470       37.220        0.054      333.920        3.549      866.613
01/25/2022  18:09:00      153.241      -23.260      -16.064       58.194       51.387       34.586     3386.505     2640.604     1196.178        1.575        0.361      154.997       28.527        0.034      333.860        3.452      866.614
01/25/2022  18:10:00      133.578      -53.508       -2.157       68.916       45.643       36.440     4749.364     2083.255     1327.903        1.443        0.408      143.896       38.679        0.072      333.868        3.462      866.613
01/25/2022  18:11:00      132.084      -33.242       -6.284       63.824       55.378       48.607     4073.493     3066.765     2362.624        1.405        0.475      136.203       37.608        0.076      333.851        3.436      866.609
01/25/2022  18:12:00      120.812      -20.818      -14.317       43.421       41.845       28.086     1885.345     1750.988      788.803        0.983        0.221      122.592       18.758        0.023      333.859        3.450      866.616
01/25/2022  18:13:00       92.007      -12.435       -0.002       61.966       40.515       35.916     3839.753     1641.494     1289.969        0.769        0.339       92.844       33.460        0.130      333.818        3.382      866.626
01/25/2022  18:14:00      151.322      -25.802       -8.657       36.619       30.206       20.415     1340.940      912.390      416.771        1.315        0.134      153.506        9.521        0.004      333.729        3.234      866.635
01/25/2022  18:15:00       94.401      -19.647        1.732       59.513       42.216       34.442     3541.810     1782.157     1186.249        0.790        0.326       96.424       36.689        0.145      333.836        3.412      866.632
01/25/2022  18:16:00      133.002      -57.328      -10.474       63.094       61.851       41.178     3980.799     3825.571     1695.606        1.529        0.475      144.831       39.348        0.074      333.879        3.481      866.621
01/25/2022  18:17:00      142.741      -56.124      -30.168       47.527       54.514       35.840     2258.777     2971.812     1284.507        1.547        0.326      153.379       20.088        0.017      333.863        3.456      866.625
01/25/2022  18:18:00      134.724      -35.711       -7.019       68.795       64.060       51.977     4732.734     4103.636     2701.594        1.550        0.577      139.377       46.690        0.112      333.834        3.408      866.632
01/25/2022  18:19:00       93.772      -31.705      -14.670       77.514       53.460       43.524     6008.346     2858.004     1894.368        1.039        0.538       98.986       41.174        0.173      333.835        3.411      866.642
01/25/2022  18:20:00      112.860      -38.353        0.799       74.586       49.856       42.852     5563.027     2485.621     1836.303        1.205        0.494      119.199       39.670        0.111      333.852        3.438      866.669
01/25/2022  18:21:00      121.952      -44.472      -13.776       74.372       61.941       44.446     5531.215     3836.678     1975.454        1.419        0.567      129.808       35.095        0.073      333.837        3.414      866.685
01/25/2022  18:22:00      112.813      -58.721      -16.545       54.847       59.910       31.843     3008.244     3589.166     1014.003        1.203        0.381      127.181       34.028        0.072      333.898        3.515      866.696
01/25/2022  18:23:00      124.663      -25.391       -7.230       62.897       47.069       35.155     3955.975     2215.519     1235.888        1.182        0.370      127.223       34.408        0.073      333.894        3.509      866.701
01/25/2022  18:24:00      107.492      -37.176      -11.069       70.955       45.219       31.205     5034.550     2044.743      973.763        1.055        0.403      113.739       37.360        0.108      333.853        3.440      866.721
01/25/2022  18:25:00       76.043      -26.797      -15.474       51.495       44.135       22.201     2651.720     1947.893      492.876        0.592        0.255       80.627        9.859        0.015      333.845        3.427      866.743
01/25/2022  18:26:00       98.754      -56.803      -12.556       37.195       20.690       21.147     1383.474      428.059      447.183        0.770        0.113      113.925       16.484        0.021      333.878        3.483      866.754
01/25/2022  18:27:00       59.985      -30.046       -7.478       55.471       33.583       35.328     3076.988     1127.796     1248.083        0.500        0.273       67.089       37.054        0.305      333.894        3.510      866.756
01/25/2022  18:28:00       58.194       10.609      -23.808       37.836       45.080       38.013     1431.554     2032.203     1444.967        0.449        0.245       59.153       22.012        0.138      333.995        3.678      866.765
01/25/2022  18:29:00       61.040        1.546      -12.177       40.500       49.702       28.666     1640.227     2470.307      821.747        0.440        0.247       61.059       18.505        0.092      333.958        3.614      866.763
01/25/2022  18:30:00       96.969      -31.654       -6.467       43.822       36.113       23.497     1920.357     1304.129      552.086        0.711        0.189      102.005       18.301        0.032      333.876        3.479      866.761
01/25/2022  18:31:00      103.480      -36.229      -10.662       30.623       26.941       18.658      937.742      725.818      348.116        0.707        0.101      109.639       13.209        0.015      333.827        3.398      866.768
01/25/2022  18:32:00       93.135      -19.864       -5.074       39.133       24.257       22.967     1531.362      588.384      527.504        0.587        0.132       95.230       20.453        0.046      333.790        3.336      866.779
01/25/2022  18:33:00      100.614      -12.131       -7.150       34.636       33.110       18.303     1199.670     1096.302      334.993        0.648        0.132      101.343       15.675        0.024      333.796        3.345      866.787
01/25/2022  18:34:00       35.938       -1.793        0.323       43.657       23.686       25.890     1905.899      561.043      670.278        0.222        0.157       35.983       21.460        0.356      333.750        3.272      866.797
01/25/2022  18:35:00       87.359      -17.529       -4.984       39.961       27.071       23.545     1596.887      732.829      554.368        0.542        0.144       89.100       19.686        0.049      333.815        3.378      866.816
01/25/2022  18:36:00      134.961      -41.370       -9.076       44.703       35.934       25.205     1998.319     1291.286      635.286        1.197        0.196      141.159       18.221        0.017      333.861        3.454      866.827
01/25/2022  18:37:00      103.501      -27.959      -15.387       65.297       29.846       30.005     4263.670      890.800      900.291        0.889        0.303      107.211       27.073        0.064      333.815        3.377      866.828
01/25/2022  18:38:00       32.304        1.565       -2.303       41.080       32.402       28.435     1687.568     1049.883      808.555        0.230        0.177       32.342       20.319        0.395      333.715        3.211      866.849
01/25/2022  18:39:00       18.782      -12.507       -4.323       28.716       23.549       19.764      824.621      554.551      390.609        0.115        0.088       22.566       17.209        0.582      333.790        3.336      866.855
01/25/2022  18:40:00       28.357       -6.117      -15.299       35.791       43.909       27.860     1280.992     1928.021      776.174        0.253        0.199       29.009       14.883        0.263      333.915        3.544      866.872
01/25/2022  18:41:00       49.666      -12.457      -22.963       35.662       51.490       34.702     1271.773     2651.214     1204.215        0.414        0.256       51.204       23.354        0.208      333.832        3.407      866.882
01/25/2022  18:42:00       79.416      -23.512       -9.899       41.402       38.291       23.672     1714.114     1466.221      560.362        0.535        0.187       82.823       19.271        0.054      333.852        3.440      866.899
01/25/2022  18:43:00       62.925      -24.476       -6.056       43.058       29.444       23.953     1853.969      866.967      573.736        0.394        0.165       67.517       23.353        0.120      333.718        3.218      866.904
01/25/2022  18:44:00       58.549      -11.571       -1.250       33.794       25.495       20.279     1142.017      650.019      411.230        0.288        0.110       59.682       14.798        0.061      333.674        3.144      866.912
01/25/2022  18:45:00       43.965       -0.199       -0.118       34.968       26.442       18.882     1222.779      699.191      356.539        0.211        0.114       43.966       15.486        0.124      333.625        3.064      866.918
01/25/2022  18:46:00       82.330      -14.559       -4.151       29.909       16.507       16.379      894.525      272.485      268.284        0.422        0.072       83.608       16.512        0.039      333.727        3.232      866.909
01/25/2022  18:47:00       91.350       -5.740       -4.266       18.453       21.924       14.803      340.512      480.663      219.143        0.472        0.052       91.530       10.918        0.014      333.718        3.217      866.905
01/25/2022  18:48:00       53.296      -13.269       -6.079       22.489       15.851       14.710      505.743      251.254      216.395        0.201        0.049       54.923       14.007        0.065      333.666        3.132      866.901
01/25/2022  18:49:00       83.470        3.794      -15.941       21.901       24.481       20.891      479.664      599.329      436.432        0.438        0.076       83.557       11.824        0.020      333.690        3.170      866.904
01/25/2022  18:50:00       49.101        1.676       -9.453       19.561       18.375       11.519      382.616      337.646      132.689        0.168        0.043       49.129        5.653        0.013      333.604        3.028      866.917
01/25/2022  18:51:00       69.217       32.162       -4.042       12.535       11.561       10.730      157.133      133.654      115.136        0.312        0.020       76.324        5.636        0.005      333.540        2.924      866.924
01/25/2022  18:52:00       80.419       24.657       -6.135       14.700       24.830       15.612      216.078      616.545      243.729        0.409        0.054       84.114       12.519        0.022      333.579        2.987      866.925
01/25/2022  18:53:00       60.431       30.815       -9.189       24.401       28.505       16.873      595.426      812.510      284.703        0.319        0.085       67.835       15.437        0.052      333.555        2.947      866.933
01/25/2022  18:54:00       71.885       34.476       -8.973       15.161       16.339       12.570      229.855      266.965      157.997        0.355        0.033       79.725        8.929        0.013      333.507        2.868      866.927
01/25/2022  18:55:00       36.131       39.558       -7.902       22.248       26.611       12.491      494.984      708.123      156.037        0.215        0.068       53.575        9.286        0.030      333.511        2.873      866.929
01/25/2022  18:56:00       43.885       55.289       -8.289       16.024       14.309       10.816      256.754      204.762      116.987        0.281        0.029       70.589        9.884        0.020      333.613        3.043      866.927
01/25/2022  18:57:00       34.245       49.483       -3.556       18.644       18.786       11.625      347.582      352.923      135.130        0.223        0.042       60.177        8.514        0.020      333.586        2.999      866.932
01/25/2022  18:58:00       22.517       15.117       -1.985       18.302       11.421       11.970      334.946      130.440      143.288        0.067        0.030       27.121        6.799        0.063      333.568        2.969      866.939
01/25/2022  18:59:00       39.200       23.180       -5.026       19.265       14.800       10.003      371.143      219.030      100.065        0.139        0.035       45.541       10.132        0.049      333.577        2.983      866.947
01/25/2022  19:00:00       23.916       28.910       -6.503       11.660       15.644       11.307      135.950      244.734      127.838        0.098        0.025       37.521        4.022        0.011      333.564        2.963      866.944
01/25/2022  19:01:00       26.280       27.160       -6.975       13.214       14.834       10.803      174.598      220.058      116.708        0.099        0.026       37.792        4.905        0.017      333.591        3.008      866.936
01/25/2022  19:02:00       10.629       12.682        1.173       11.648        7.648        8.023      135.686       58.498       64.367        0.027        0.013       16.547        4.661        0.079      333.508        2.869      866.934
01/25/2022  19:03:00       -8.571       17.475      -12.263       12.374        8.511        5.430      153.114       72.444       29.483        0.039        0.013       19.463        3.603        0.034      333.249        2.440      866.931
01/25/2022  19:04:00        8.964       30.262       -2.371       22.610       10.563       11.927      511.193      111.579      142.259        0.088        0.038       31.562        3.225        0.010      333.439        2.756      866.930
01/25/2022  19:05:00       27.800       28.709        0.238       14.141        9.858       12.532      199.981       97.190      157.040        0.103        0.023       39.963        8.750        0.048      333.556        2.949      866.937
01/25/2022  19:06:00       15.772       40.775       -1.840       15.723       13.385       10.937      247.205      179.165      119.622        0.123        0.027       43.719        7.867        0.032      333.562        2.958      866.935
01/25/2022  19:07:00        9.290       34.798       -4.429       11.219       31.680        8.877      125.857     1003.603       78.798        0.126        0.060       36.017        8.501        0.056      333.592        3.010      866.922
01/25/2022  19:08:00      -21.246       -5.502       -8.795       10.297       12.078       10.746      106.035      145.871      115.474        0.046        0.018       21.947        7.289        0.110      333.278        2.489      866.926
01/25/2022  19:09:00      -11.072        2.364       -0.666       12.654       11.315       12.388      160.134      128.034      153.463        0.029        0.022       11.322        5.004        0.195      332.957        1.958      866.920
01/25/2022  19:10:00      -22.718      -11.872       -6.745       17.064       15.387       15.783      291.183      236.760      249.108        0.074        0.039       25.633       10.283        0.161      333.066        2.139      866.915
01/25/2022  19:11:00      -22.946       12.155      -11.418       15.327       19.073       13.268      234.904      363.763      176.047        0.079        0.039       25.967        7.394        0.081      333.028        2.076      866.905
01/25/2022  19:12:00      -27.078        2.901       -9.396       15.856       20.815       13.773      251.401      433.275      189.695        0.085        0.044       27.233       10.110        0.138      333.059        2.128      866.913
01/25/2022  19:13:00      -16.842       -4.962       -8.698       18.873       11.429       12.016      356.172      130.613      144.386        0.051        0.032       17.558       10.283        0.343      332.997        2.025      866.915
01/25/2022  19:14:00      -22.725       14.438       -0.405       18.824       24.508       20.026      354.349      600.663      401.040        0.104        0.068       26.924       11.144        0.171      332.861        1.799      866.919
01/25/2022  19:15:00      -65.205       22.035      -12.770       18.131       16.173       14.075      328.729      261.569      198.115        0.284        0.039       68.828        8.407        0.015      332.774        1.656      866.918
01/25/2022  19:16:00      -87.261       33.293      -17.373       19.614       15.595       11.549      384.722      243.198      133.380        0.489        0.038       93.396        8.652        0.009      332.686        1.510      866.913
01/25/2022  19:17:00      -81.786       17.941      -21.372       31.905       26.821       18.630     1017.929      719.377      347.081        0.478        0.104       83.730        7.610        0.008      332.760        1.633      866.914
01/25/2022  19:18:00      -90.035       34.681      -15.914       33.302       25.415       19.479     1109.002      645.914      379.412        0.585        0.107       96.483       14.468        0.022      332.597        1.363      866.919
01/25/2022  19:19:00      -83.318       43.525      -21.740       23.457       20.936       14.393      550.209      438.334      207.170        0.525        0.060       94.001       10.005        0.011      332.548        1.283      866.913
01/25/2022  19:20:00     -101.543       46.989      -16.634       23.943       17.841       13.468      573.247      318.293      181.388        0.693        0.054      111.888        5.888        0.003      332.503        1.209      866.915
01/25/2022  19:21:00      -58.101       18.942      -15.902       33.860       23.401       17.253     1146.505      547.615      297.680        0.299        0.100       61.111       12.367        0.041      332.534        1.258      866.914
01/25/2022  19:22:00      -83.025       21.378      -20.141       25.925       21.800       17.672      672.123      475.245      312.282        0.461        0.073       85.733       13.752        0.026      332.521        1.238      866.921
01/25/2022  19:23:00      -65.326       12.969      -21.272       41.648       22.718       18.096     1734.563      516.104      327.453        0.373        0.129       66.601        9.737        0.021      332.534        1.258      866.926
01/25/2022  19:24:00     -114.643       42.276      -17.827       19.189       21.097       14.060      368.221      445.073      197.690        0.813        0.051      122.190        6.991        0.003      332.421        1.073      866.932
01/25/2022  19:25:00     -101.006       36.020      -18.993       21.502       22.507       13.923      462.317      506.564      193.859        0.651        0.058      107.236        7.658        0.005      332.467        1.148      866.932
01/25/2022  19:26:00      -91.594       29.001      -22.129       17.418       11.355       13.590      303.388      128.927      184.695        0.517        0.031       96.076        3.536        0.001      332.505        1.212      866.928
01/25/2022  19:27:00      -67.957       23.056      -14.232       25.774       14.454       11.373      664.317      208.907      129.345        0.318        0.050       71.762        7.192        0.010      332.533        1.258      866.920
01/25/2022  19:28:00      -45.719       10.041      -18.351       18.367       17.466       14.927      337.340      305.054      222.817        0.170        0.043       46.808       10.595        0.051      332.596        1.362      866.914
01/25/2022  19:29:00      -39.654       -3.433      -19.793       20.119       15.846       14.282      404.776      251.087      203.961        0.142        0.043       39.802       11.013        0.077      332.600        1.368      866.913
01/25/2022  19:30:00      -21.959       14.930      -19.539       16.029       13.581        8.388      256.944      184.445       70.366        0.080        0.026       26.554        4.275        0.026      333.006        2.041      866.901
01/25/2022  19:31:00        0.049       21.205      -18.345       14.407       13.935       10.053      207.566      194.183      101.069        0.064        0.025       21.206        5.636        0.071      333.188        2.338      866.896
01/25/2022  19:32:00      -22.348       14.724      -10.789       13.779       20.721       12.821      189.871      429.376      164.367        0.081        0.039       26.762        9.185        0.118      333.035        2.087      866.895
01/25/2022  19:33:00      -22.282       -2.464       -9.341       11.496       18.019       10.057      132.164      324.685      101.145        0.057        0.028       22.418        0.779        0.001      332.732        1.587      866.899
01/25/2022  19:34:00      -21.800        1.355       -7.773       11.400       15.119       13.687      129.956      228.581      187.332        0.054        0.027       21.842        5.577        0.065      332.885        1.841      866.896
01/25/2022  19:35:00       -3.146        3.191      -13.227       13.311        6.819        8.224      177.195       46.494       67.642        0.024        0.015        4.481        4.271        0.909      332.847        1.777      866.889
01/25/2022  19:36:00       -3.835        0.835       -7.098        6.651        5.889        5.843       44.232       34.676       34.136        0.009        0.006        3.925        3.475        0.784      333.053        2.118      866.884
01/25/2022  19:37:00      -20.311        0.967      -19.805       12.396        8.879        9.712      153.650       78.828       94.326        0.057        0.016       20.334        5.190        0.065      332.930        1.913      866.884
01/25/2022  19:38:00      -16.197        1.734      -11.314       10.821       11.326        8.582      117.084      128.279       73.654        0.036        0.016       16.289        6.444        0.157      332.691        1.520      866.881
01/25/2022  19:39:00       -1.975       -1.224       -8.659        7.738        6.473        6.112       59.873       41.896       37.354        0.011        0.007        2.323        3.432        2.182      333.018        2.060      866.868
01/25/2022  19:40:00      -12.407       10.853       -2.972       10.071        9.905        6.069      101.424       98.113       36.828        0.026        0.012       16.484        3.993        0.059      332.978        1.992      866.868
01/25/2022  19:41:00      -19.868       17.204       -6.155       20.883       11.842       12.984      436.112      140.223      168.573        0.074        0.037       26.281       10.411        0.157      332.897        1.859      866.866
01/25/2022  19:42:00        2.888       11.143       -3.337        6.283        7.505        5.345       39.473       56.321       28.564        0.013        0.006       11.511        4.341        0.142      333.055        2.118      866.869
01/25/2022  19:43:00       26.723       39.979        1.191       13.436       15.286        8.245      180.538      233.669       67.974        0.140        0.024       48.088        6.460        0.018      333.106        2.205      866.873
01/25/2022  19:44:00       39.157       64.112       -3.776       20.821       31.665       14.063      433.508     1002.673      197.761        0.365        0.082       75.125        7.928        0.011      333.187        2.338      866.882
01/25/2022  19:45:00       31.310      126.216       -5.967       21.304       30.423       16.822      453.870      925.559      282.971        0.930        0.083      130.042       15.352        0.014      333.314        2.548      866.883
01/25/2022  19:46:00       41.801      140.921       -2.281       25.328       22.967       20.288      641.530      527.465      411.603        1.160        0.079      146.990       13.128        0.008      333.349        2.607      866.889
01/25/2022  19:47:00       46.860      167.899      -19.766       17.198       29.976       17.211      295.755      898.542      296.220        1.613        0.075      174.316       13.697        0.006      333.321        2.560      866.883
01/25/2022  19:48:00       49.328      159.238      -18.717       18.590       22.341       19.684      345.593      499.122      387.465        1.469        0.062      166.704       11.308        0.005      333.386        2.668      866.894
01/25/2022  19:49:00       57.767      136.422        0.274       26.094       33.052       21.994      680.891     1092.413      483.750        1.210        0.113      148.149       12.318        0.007      333.308        2.538      866.895
01/25/2022  19:50:00       49.147      150.563      -13.358       23.043       34.838       27.634      530.977     1213.706      763.656        1.389        0.125      158.382       19.947        0.016      333.235        2.417      866.889
01/25/2022  19:51:00       57.525      168.394      -18.947       23.862       29.732       21.531      569.382      883.964      463.578        1.697        0.096      177.948       13.551        0.006      333.275        2.485      866.884
01/25/2022  19:52:00       57.793      175.500      -27.995       17.120       18.741       15.279      293.096      351.218      233.458        1.790        0.044      184.771       11.552        0.004      333.243        2.430      866.874
01/25/2022  19:53:00       53.449      162.115      -28.302       24.787       25.275       21.035      614.401      638.832      442.476        1.582        0.085      170.699        9.063        0.003      333.189        2.342      866.864
01/25/2022  19:54:00       64.474      115.530      -15.139       32.245       35.561       18.197     1039.714     1264.557      331.143        1.018        0.132      132.303       13.156        0.010      333.140        2.260      866.859
01/25/2022  19:55:00       72.827       61.610       -9.608       24.219       20.228       17.344      586.572      409.190      300.800        0.524        0.065       95.392       13.889        0.021      332.862        1.803      866.859
01/25/2022  19:56:00       51.216       49.936      -10.391       21.458       23.745       17.781      460.464      563.816      316.161        0.328        0.067       71.531       14.263        0.040      332.783        1.670      866.848
01/25/2022  19:57:00       43.410      129.577       -6.662       20.417       39.677       22.701      416.863     1574.302      515.347        1.061        0.125      136.656       15.021        0.012      333.115        2.221      866.837
01/25/2022  19:58:00       49.289      180.207      -27.351       16.581       18.941       14.669      274.942      358.778      215.171        1.825        0.042      186.826       10.297        0.003      333.126        2.237      866.822
01/25/2022  19:59:00       53.864      136.726       -4.258       25.727       41.636       27.473      661.857     1733.553      754.749        1.238        0.158      146.953       20.102        0.019      333.098        2.192      866.831
01/25/2022  20:00:00       62.541      108.547       -4.658       28.473       31.522       23.213      810.728      993.647      538.855        0.903        0.117      125.275       14.608        0.014      332.965        1.972      866.844
01/25/2022  20:01:00       68.301       99.497      -11.175       25.228       29.267       17.841      636.441      856.533      318.303        0.825        0.091      120.684       14.529        0.014      332.882        1.835      866.867
01/25/2022  20:02:00       50.796      109.769       -8.468       30.744       28.211       20.569      945.163      795.847      423.093        0.843        0.108      120.952       13.913        0.013      332.986        2.007      866.868
01/25/2022  20:03:00       49.847      105.744        3.412       29.308       36.971       20.670      858.935     1366.849      427.244        0.817        0.133      116.904       20.098        0.030      332.914        1.887      866.872
01/25/2022  20:04:00       63.200      106.222       -8.361       32.134       23.449       20.037     1032.572      549.834      401.468        0.867        0.099      123.602       18.181        0.022      332.800        1.699      866.876
01/25/2022  20:05:00       30.339       63.571       -8.236       25.167       49.885       15.190      633.371     2488.562      230.751        0.419        0.168       70.439       18.219        0.067      332.811        1.717      866.873
01/25/2022  20:06:00      -26.628      -17.874      -14.716       36.605       18.077       12.545     1339.940      326.779      157.387        0.153        0.091       32.070       11.176        0.121      332.627        1.413      866.875
01/25/2022  20:07:00      -41.601       13.482      -13.694       23.608       26.752       19.376      557.324      715.670      375.443        0.187        0.082       43.731       14.029        0.103      332.316        0.899      866.890
01/25/2022  20:08:00     -104.964       12.103      -13.032       36.944       30.157       20.480     1364.845      909.430      419.410        0.701        0.135      105.659       16.025        0.023      332.255        0.797      866.902
01/25/2022  20:09:00      -88.379       21.817       -2.559       45.964       35.232       23.633     2112.699     1241.260      558.506        0.610        0.196       91.032       23.051        0.064      332.069        0.493      866.916
01/25/2022  20:10:00     -141.708       39.386       -4.106       37.289       30.180       25.053     1390.487      910.837      627.672        1.229        0.146      147.079       22.012        0.022      331.990        0.362      866.924
01/25/2022  20:11:00     -113.497        4.720      -16.266       48.777       31.112       22.796     2379.172      967.935      519.639        0.852        0.193      113.596       16.914        0.022      332.164        0.649      866.932
01/25/2022  20:12:00      -96.147       29.272      -12.026       25.150       37.880       17.731      632.525     1434.873      314.403        0.631        0.119      100.504       12.032        0.014      332.137        0.603      866.945
01/25/2022  20:13:00     -101.781       24.906      -12.213       38.951       26.623       17.752     1517.195      708.806      315.148        0.683        0.127      104.784       20.926        0.040      332.105        0.552      866.960
01/25/2022  20:14:00     -116.300       29.452      -21.195       17.084       15.924       12.068      291.859      253.588      145.643        0.777        0.035      119.971        2.487        0.000      332.273        0.829      866.960
01/25/2022  20:15:00     -103.928       22.854      -10.938       36.068       32.425       19.050     1300.899     1051.399      362.919        0.708        0.136      106.412       13.316        0.016      332.196        0.701      866.955
01/25/2022  20:16:00     -104.817       41.827      -16.748       16.026       16.326       14.376      256.845      266.522      206.656        0.687        0.037      112.854        7.660        0.005      332.099        0.539      866.958
01/25/2022  20:17:00     -101.565       28.459       -7.464       33.320       25.540       19.827     1110.241      652.272      393.109        0.667        0.108      105.477       19.343        0.034      331.966        0.323      866.954
01/25/2022  20:18:00      -75.987       13.601      -15.476       40.459       23.943       16.884     1636.957      573.279      285.053        0.435        0.125       77.194       10.071        0.017      332.014        0.402      866.963
01/25/2022  20:19:00      -67.831       24.052       -7.909       30.857       16.062       15.549      952.167      257.975      241.757        0.335        0.073       71.969       16.437        0.052      331.958        0.310      866.924
01/25/2022  20:20:00     -113.749       36.253      -16.412       19.712       16.813       16.388      388.547      282.673      268.566        0.773        0.047      119.387       10.537        0.008      331.981        0.347      866.931
01/25/2022  20:21:00      -49.787       10.910       -0.277       49.141       17.443       19.092     2414.821      304.273      364.520        0.284        0.154       50.968       20.728        0.165      332.100        0.542      866.938
01/25/2022  20:22:00      -34.802        4.217      -12.770       36.292       19.978       18.259     1317.144      399.101      333.373        0.172        0.102       35.056       18.196        0.269      332.051        0.462      866.942
01/25/2022  20:23:00      -74.642       25.648       -8.058       25.262       19.287       12.664      638.165      372.007      160.369        0.373        0.059       78.926       12.594        0.025      331.987        0.358      866.940
01/25/2022  20:24:00      -83.435       27.057      -10.217       13.939       12.789        9.590      194.309      163.556       91.972        0.412        0.022       87.713        8.060        0.008      332.016        0.404      866.946
01/25/2022  20:25:00      -89.892       24.384      -21.236       18.731       18.078       12.077      350.865      326.819      145.862        0.497        0.041       93.141        8.125        0.008      332.169        0.656      866.944
01/25/2022  20:26:00      -85.154       16.073      -19.880       30.069       22.275       17.607      904.134      496.181      310.001        0.481        0.086       86.658       15.262        0.031      332.155        0.633      866.934
01/25/2022  20:27:00      -68.498        8.325      -22.067       22.795       19.583       16.842      519.608      383.497      283.637        0.322        0.059       69.002       13.694        0.039      332.102        0.546      866.930
01/25/2022  20:28:00      -72.470        8.881      -16.080       26.696       23.547       18.544      712.651      554.474      343.887        0.360        0.081       73.012       11.612        0.025      332.069        0.491      866.926
01/25/2022  20:29:00      -87.705       12.277      -21.648       29.965       26.602       17.907      897.928      707.646      320.648        0.512        0.096       88.561       10.791        0.015      331.941        0.280      866.926
01/25/2022  20:30:00      -80.708       34.544      -13.473       31.247       38.303       19.421      976.357     1467.103      377.165        0.535        0.141       87.790        8.635        0.010      331.952        0.300      866.923
01/25/2022  20:31:00      -35.235       -9.926       -8.038       38.598       31.001       21.794     1489.827      961.067      474.963        0.216        0.146       36.606       21.103        0.332      331.985        0.354      866.922
01/25/2022  20:32:00       -4.858        0.423       -7.439       22.390       30.801       17.736      501.301      948.688      314.572        0.092        0.088        4.877       12.543        6.616      331.887        0.193      866.931
01/25/2022  20:33:00      -39.489        7.573       -8.050       50.633       34.439       25.876     2563.751     1186.064      669.585        0.305        0.221       40.209       17.307        0.185      331.945        0.288      866.950
01/25/2022  20:34:00      -93.604       50.522       -2.698       31.899       26.298       22.641     1017.549      691.606      512.619        0.677        0.111      106.368       20.727        0.038      331.894        0.205      866.955
01/25/2022  20:35:00     -100.482       41.859      -12.451       24.712       25.803       18.443      610.678      665.809      340.132        0.681        0.081      108.852       15.336        0.020      331.839        0.113      866.953
01/25/2022  20:36:00      -28.295       -2.071       -5.800       37.790       29.152       20.068     1428.095      849.846      402.739        0.176        0.134       28.371        3.621        0.016      331.975        0.337      866.958
01/25/2022  20:37:00      -53.732       -2.705      -15.811       45.256       28.424       18.274     2048.063      807.923      333.936        0.317        0.159       53.800       15.283        0.081      332.040        0.445      866.974
01/25/2022  20:38:00      -84.449       24.777      -13.921       28.361       25.553       17.789      804.322      652.965      316.455        0.486        0.089       88.009       11.858        0.018      331.928        0.261      866.982
01/25/2022  20:39:00      -94.370       37.143       -9.187       42.137       24.327       21.983     1775.543      591.780      483.271        0.661        0.143      101.416       17.123        0.029      331.792        0.036      866.981
01/25/2022  20:40:00      -95.972       33.759        1.926       69.774       31.236       24.591     4868.369      975.709      604.718        0.840        0.322      101.737       30.815        0.092      331.832        0.102      866.978
01/25/2022  20:41:00     -153.398       57.780      -17.053       44.131       35.143       23.865     1947.515     1235.014      569.517        1.546        0.188      163.918       25.615        0.024      331.773        0.004      866.974
01/25/2022  20:42:00      -65.483        6.871       -9.768       64.110       33.477       23.662     4110.043     1120.699      559.912        0.511        0.290       65.842       19.724        0.090      331.817        0.079      866.972
01/25/2022  20:43:00     -100.748        9.655      -11.280       60.914       45.866       26.148     3710.560     2103.665      683.711        0.843        0.325      101.210       25.904        0.066      331.862        0.151      866.976
01/25/2022  20:44:00      -29.680      -17.938      -11.410       61.600       39.156       26.132     3794.599     1533.220      682.888        0.367        0.301       34.680       17.991        0.269      331.959        0.310      866.987
01/25/2022  20:45:00        7.842       -9.078       -6.889       15.470       19.632       13.976      239.320      385.414      195.327        0.051        0.041       11.996        4.821        0.161      331.920        0.248      866.987
01/25/2022  20:46:00       18.050        5.549        0.024       17.010       14.648       19.490      289.335      214.571      379.864        0.062        0.044       18.884       10.510        0.310      331.818        0.080      866.985
01/25/2022  20:47:00      -41.775       13.694      -16.221       38.315       22.103       25.672     1468.072      488.538      659.055        0.241        0.131       43.962       26.176        0.355      331.845        0.124      866.984
01/25/2022  20:48:00      -41.789       21.088      -16.588       31.535       16.397       14.039      994.464      268.877      197.107        0.196        0.073       46.809       12.273        0.069      331.862        0.151      866.995
01/25/2022  20:49:00      -37.928        2.521       -9.405       21.807       17.578       11.489      475.555      308.998      131.995        0.122        0.046       38.011        9.646        0.064      331.954        0.302      867.005
01/25/2022  20:50:00      -15.274       -3.520       -2.245       14.048       11.280       10.127      197.355      127.247      102.548        0.034        0.021       15.674        6.033        0.148      332.049        0.459      867.015
01/25/2022  20:51:00      -18.237        2.510      -13.918       15.182       14.520        9.932      230.493      210.823       98.647        0.054        0.027       18.409        4.296        0.054      332.079        0.508      867.020
01/25/2022  20:52:00      -29.607       -1.858       -9.335       20.411       18.242       13.316      416.622      332.782      177.308        0.095        0.046       29.665        8.152        0.076      331.932        0.267      867.018
01/25/2022  20:53:00      -38.675       12.439       -4.341       24.396       27.782       14.866      595.150      771.824      220.991        0.163        0.079       40.626       13.344        0.108      331.924        0.253      867.033
01/25/2022  20:54:00      -58.305       24.041       -9.517       14.836       20.177        9.225      220.095      407.098       85.107        0.239        0.036       63.067        7.970        0.016      331.994        0.369      867.042
01/25/2022  20:55:00      -69.304       31.411       -8.069       18.728        9.972       10.804      350.738       99.431      116.727        0.321        0.028       76.090       10.028        0.017      331.948        0.294      867.041
01/25/2022  20:56:00      -45.152       23.212      -14.080       13.694       13.217        9.617      187.526      174.686       92.492        0.162        0.023       50.769        7.851        0.024      332.211        0.726      867.037
01/25/2022  20:57:00      -29.784       27.368      -10.025        9.636        8.213       10.194       92.849       67.451      103.924        0.100        0.013       40.449        8.556        0.045      332.351        0.957      867.028
01/25/2022  20:58:00       15.268       34.252        1.189       15.231       13.640        9.191      231.995      186.052       84.478        0.096        0.025       37.501        9.602        0.066      332.367        0.984      867.026
01/25/2022  20:59:00       41.932       57.152      -10.060       12.219       10.612        9.638      149.310      112.606       92.885        0.274        0.018       70.885        5.526        0.006      332.224        0.748      867.028
01/25/2022  21:00:00       16.738       69.467       -2.198       18.540       22.034       12.467      343.732      485.495      155.426        0.305        0.049       71.455       12.308        0.030      332.431        1.089      866.995
01/25/2022  21:01:00        3.977       79.799      -17.444       22.228       32.709       17.649      494.074     1069.882      311.474        0.428        0.094       79.898       12.003        0.023      332.228        0.754      866.983
01/25/2022  21:02:00       11.503       79.310      -16.778       20.472       29.467       17.751      419.116      868.319      315.083        0.415        0.080       80.140       10.603        0.018      332.315        0.898      867.001
01/25/2022  21:03:00      -29.303       46.376      -10.647       30.835       27.139       15.758      950.800      736.519      248.326        0.253        0.097       54.858       18.142        0.109      332.125        0.586      867.020
01/25/2022  21:04:00      -44.973        2.845      -13.430       19.437       22.251       17.755      377.803      495.101      315.229        0.170        0.059       45.063       12.257        0.074      331.838        0.112      867.033
01/25/2022  21:05:00      -81.010       24.827      -20.893       19.303       18.599       16.063      372.587      345.920      258.023        0.430        0.049       84.729        9.038        0.011      331.578       -0.316      867.036
01/25/2022  21:06:00      -84.314       25.873      -17.461       21.102       18.785       20.233      445.295      352.877      409.376        0.465        0.060       88.194        6.203        0.005      331.433       -0.556      867.029
01/25/2022  21:07:00       -1.561        9.899      -11.080       20.697       15.826       12.467      428.385      250.456      155.418        0.053        0.042       10.021        8.942        0.796      331.498       -0.450      867.041
01/25/2022  21:08:00       -4.972       14.615      -18.176       12.894       10.336       13.636      166.261      106.839      185.953        0.051        0.023       15.438        5.173        0.112      332.012        0.399      867.044
01/25/2022  21:09:00      -33.451       17.610      -14.199       27.432       12.116        8.826      752.503      146.794       77.895        0.130        0.049       37.804       10.544        0.078      331.928        0.258      867.039
01/25/2022  21:10:00      -31.854       29.009      -15.391       27.002       13.409       12.796      729.110      179.788      163.750        0.158        0.054       43.084        7.861        0.033      331.771        0.002      867.025
01/25/2022  21:11:00       15.065       61.006      -19.269       25.511       16.449       13.949      650.835      270.564      194.563        0.272        0.056       62.838        9.346        0.022      332.259        0.804      867.019
01/25/2022  21:12:00       73.250       49.166      -19.163       33.339       25.610       18.680     1111.504      655.863      348.949        0.513        0.106       88.221        2.563        0.001      332.430        1.087      867.021
01/25/2022  21:13:00       66.074       48.718       -7.717       21.625       16.042       14.189      467.644      257.343      201.320        0.386        0.046       82.093       12.118        0.022      332.328        0.919      867.019
01/25/2022  21:14:00       64.103       70.697      -14.752       22.163       22.674       17.184      491.190      514.131      295.304        0.531        0.065       95.432       14.340        0.023      332.250        0.789      867.013
01/25/2022  21:15:00       68.440       75.110      -11.545       27.657       27.987       19.111      764.924      783.269      365.247        0.619        0.096      101.615       17.447        0.029      332.181        0.675      866.998
01/25/2022  21:16:00       62.474       60.082      -11.250       28.012       27.524       22.377      784.666      757.592      500.720        0.484        0.102       86.676       16.724        0.037      332.121        0.578      866.993
01/25/2022  21:17:00       55.187       74.493       -6.266       25.616       32.561       19.999      656.182     1060.231      399.952        0.537        0.106       92.708       20.935        0.051      332.107        0.554      866.995
01/25/2022  21:18:00       36.266      133.874      -12.447       23.523       35.544       17.947      553.352     1263.409      322.102        1.077        0.107      138.700       17.284        0.016      332.208        0.721      866.996
01/25/2022  21:19:00       44.635      141.375      -14.957       24.748       32.030       24.322      612.469     1025.929      591.571        1.222        0.111      148.253       17.207        0.013      332.298        0.869      867.016
01/25/2022  21:20:00       41.959      158.701      -25.924       18.135       21.167       18.085      328.895      448.035      327.079        1.436        0.055      164.154        6.698        0.002      332.407        1.049      867.043
01/25/2022  21:21:00       38.485      139.460      -22.647       34.662       32.267       16.969     1201.450     1041.150      287.944        1.199        0.127      144.673       15.495        0.011      332.278        0.835      867.075
01/25/2022  21:22:00      -17.279       37.021       -6.914       26.462       41.391       14.639      700.262     1713.197      214.297        0.217        0.131       40.855       15.122        0.137      331.884        0.188      867.101
01/25/2022  21:23:00      -33.151       50.591      -14.773       36.288       19.462       16.118     1316.837      378.767      259.791        0.292        0.098       60.485        5.451        0.008      331.478       -0.481      867.111
01/25/2022  21:24:00      -31.182       57.090      -20.907       30.335       19.630       17.852      920.203      385.330      318.695        0.315        0.081       65.051       13.795        0.045      331.549       -0.364      867.106
01/25/2022  21:25:00      -44.227       51.104      -14.063       26.269       24.225       18.933      690.075      586.864      358.458        0.320        0.082       67.584        9.503        0.020      331.451       -0.525      867.097
01/25/2022  21:26:00      -66.327       42.066      -20.557       26.111       20.176       14.119      681.775      407.073      199.355        0.394        0.064       78.542        8.588        0.012      331.431       -0.558      867.090
01/25/2022  21:27:00      -59.381       46.193      -21.802       16.825       18.189       13.133      283.091      330.824      172.480        0.346        0.039       75.232        7.060        0.009      331.305       -0.765      867.079
01/25/2022  21:28:00      -44.069       23.668      -23.551       28.150       33.123       23.017      792.415     1097.166      529.778        0.274        0.121       50.023       16.320        0.106      331.475       -0.486      867.070
01/25/2022  21:29:00      -40.278       30.969      -18.586       31.207       16.724       20.049      973.864      279.687      401.957        0.229        0.083       50.807       16.083        0.100      331.482       -0.475      867.059
01/25/2022  21:30:00      -12.839       63.020      -13.595       27.128       25.435       23.655      735.922      646.930      559.543        0.313        0.097       64.315       10.346        0.026      331.851        0.134      867.050
01/25/2022  21:31:00      -13.949       63.742      -12.775       33.613       41.682       22.684     1129.834     1737.400      514.546        0.390        0.169       65.250       21.657        0.110      331.964        0.320      867.042
01/25/2022  21:32:00       -7.871       15.476       -7.647       15.701       24.019       11.866      246.525      576.915      140.814        0.066        0.048       17.363        7.127        0.168      331.575       -0.322      867.033
01/25/2022  21:33:00       -0.105       67.845      -10.490       30.224       23.379       19.523      913.487      546.583      381.133        0.328        0.092       67.845       12.528        0.034      331.886        0.190      867.029
01/25/2022  21:34:00       20.174       85.804       -5.930       28.688       37.418       18.700      823.023     1400.128      349.706        0.519        0.129       88.143       18.903        0.046      332.168        0.655      867.021
01/25/2022  21:35:00       13.258       92.781       -9.114       28.136       23.359       21.203      791.658      545.657      449.583        0.533        0.089       93.724       15.402        0.027      332.100        0.542      867.020
01/25/2022  21:36:00       18.026      102.555       -7.795       32.551       32.562       18.810     1059.545     1060.290      353.833        0.669        0.124      104.127       19.597        0.035      332.259        0.804      867.027
01/25/2022  21:37:00       -8.648       58.029       -4.312       21.291       25.405       16.320      453.287      645.422      266.355        0.241        0.068       58.669       11.525        0.039      331.792        0.036      867.035
01/25/2022  21:38:00       -1.419       70.248      -10.224       22.442       40.614       23.917      503.631     1649.465      572.017        0.388        0.136       70.263       24.774        0.124      331.950        0.295      867.049
01/25/2022  21:39:00       -2.517       60.969       -7.666       25.599       29.907       21.312      655.315      894.447      454.208        0.289        0.100       61.021       11.877        0.038      331.962        0.316      867.070
01/25/2022  21:40:00      -13.625       18.405      -15.209       14.869       23.978       15.015      221.093      574.946      225.450        0.089        0.051       22.899        3.227        0.020      331.765       -0.008      867.079
01/25/2022  21:41:00      -45.347       26.661      -15.557       15.226       12.729       13.732      231.827      162.016      188.563        0.180        0.029       52.604        8.991        0.029      331.424       -0.569      867.089
01/25/2022  21:42:00      -21.963       13.498      -17.158       25.972       15.108       12.885      674.522      228.251      166.033        0.101        0.053       25.779       13.182        0.261      331.322       -0.738      867.085
01/25/2022  21:43:00      -51.486       16.509      -20.427       21.402       20.046       20.676      458.066      401.844      427.507        0.231        0.064       54.068       12.286        0.052      331.221       -0.903      867.086
01/25/2022  21:44:00      -61.930       22.836      -13.200       34.322       24.672       18.298     1177.976      608.722      334.809        0.333        0.106       66.006        9.495        0.021      331.157       -1.008      867.085
01/25/2022  21:45:00      -96.880       38.794      -22.433       35.747       28.237       17.145     1277.873      797.320      293.956        0.688        0.118      104.358        8.464        0.007      331.096       -1.109      867.077
01/25/2022  21:46:00     -107.736       33.662      -16.632       33.772       31.804       20.610     1140.526     1011.497      424.757        0.780        0.129      112.873       15.386        0.019      331.050       -1.184      867.068
01/25/2022  21:47:00     -103.909       15.537      -12.285       44.951       37.614       31.468     2020.628     1414.804      990.222        0.781        0.221      105.064       27.755        0.070      331.181       -0.969      867.066
01/25/2022  21:48:00     -136.747       22.145      -11.914       56.856       37.431       23.673     3232.563     1401.059      560.392        1.226        0.260      138.529       25.247        0.033      331.133       -1.047      867.078
01/25/2022  21:49:00     -103.165       27.072       -9.118       44.786       39.278       27.387     2005.824     1542.790      750.055        0.788        0.215      106.658       20.308        0.036      331.071       -1.150      867.095
01/25/2022  21:50:00     -105.429       25.667       -9.036       75.662       43.118       28.124     5724.754     1859.178      790.973        1.011        0.419      108.509       29.378        0.073      331.090       -1.121      867.119
01/25/2022  21:51:00     -129.463       41.564      -12.914       59.361       45.408       27.332     3523.671     2061.898      747.062        1.249        0.317      135.971       23.626        0.030      331.132       -1.050      867.147
01/25/2022  21:52:00     -128.718       49.242      -12.862       36.118       36.354       19.974     1304.515     1321.597      398.946        1.109        0.151      137.815       10.196        0.005      331.095       -1.111      867.171
01/25/2022  21:53:00     -137.430       62.692       -5.222       36.462       34.294       22.959     1329.475     1176.105      527.126        1.294        0.152      151.054       12.037        0.006      331.087       -1.125      867.192
01/25/2022  21:54:00     -102.725       41.757       -0.247       69.748       39.655       29.506     4864.765     1572.521      870.596        0.980        0.365      110.888       25.729        0.054      331.088       -1.122      867.197
01/25/2022  21:55:00     -120.078       34.419       -9.058       42.140       34.565       25.240     1775.809     1194.725      637.048        0.965        0.180      124.913       21.944        0.031      331.129       -1.056      867.199
01/25/2022  21:56:00      -57.545       20.872      -13.141       51.191       32.247       21.069     2620.528     1039.898      443.910        0.401        0.205       61.214       17.699        0.084      331.189       -0.956      867.202
01/25/2022  21:57:00      -77.285       12.392      -21.110       49.452       29.369       24.282     2445.465      862.514      589.623        0.523        0.195       78.272       23.385        0.089      331.281       -0.804      867.208
01/25/2022  21:58:00      -76.018       17.943      -19.727       25.072       22.938       21.537      628.621      526.150      463.822        0.405        0.081       78.107       15.854        0.041      331.303       -0.769      867.225
01/25/2022  21:59:00      -42.974       30.422      -21.935       20.964       17.836       11.686      439.486      318.139      136.551        0.207        0.045       52.653        8.195        0.024      331.345       -0.699      867.242
01/25/2022  22:00:00      -19.724       48.841       -6.278       25.110       20.767       15.943      630.533      431.274      254.177        0.206        0.066       52.674       13.357        0.064      331.630       -0.231      867.252
01/25/2022  22:01:00      -16.519       66.508       -8.394       33.030       25.492       13.805     1091.010      649.840      190.566        0.335        0.097       68.528       10.452        0.023      331.802        0.053      867.256
01/25/2022  22:02:00       16.842      112.369      -15.049       32.676       25.019       17.878     1067.701      625.957      319.632        0.757        0.101      113.624       13.070        0.013      332.185        0.682      867.251
01/25/2022  22:03:00       41.669      140.252      -25.151       31.739       30.433       19.945     1007.391      926.192      397.787        1.219        0.117      146.311       19.507        0.018      332.481        1.172      867.247
01/25/2022  22:04:00       38.431      126.664       -9.485       19.700       28.713       23.557      388.088      824.435      554.915        0.969        0.088      132.366       17.379        0.017      332.455        1.128      867.243
01/25/2022  22:05:00       69.657       74.654       -7.110       36.286       31.044       21.435     1316.667      963.702      459.475        0.661        0.137      102.104       18.313        0.032      332.241        0.775      867.238
01/25/2022  22:06:00       92.231       86.142      -14.943       27.084       25.927       17.020      733.549      672.200      289.666        0.892        0.085      126.202       14.253        0.013      332.136        0.602      867.226
01/25/2022  22:07:00      103.103       65.159      -14.396       24.294       20.654       18.474      590.215      426.589      341.300        0.822        0.068      121.967       13.205        0.012      332.102        0.545      867.221
01/25/2022  22:08:00      118.445       46.743      -10.724       20.597       29.252       13.347      424.249      855.701      178.155        0.889        0.073      127.335       14.120        0.012      332.091        0.528      867.212
01/25/2022  22:09:00      116.836       29.245      -14.722       23.181       21.009       12.910      537.377      441.386      166.667        0.793        0.057      120.440       10.183        0.007      332.136        0.603      867.203
01/25/2022  22:10:00      140.838       52.394      -10.232       24.446       26.935       17.866      597.583      725.515      319.205        1.216        0.082      150.268       14.378        0.009      332.159        0.640      867.198
01/25/2022  22:11:00      113.458       53.563      -20.310       22.602       20.597       15.956      510.832      424.253      254.587        0.867        0.059      125.466        8.217        0.004      332.082        0.514      867.198
01/25/2022  22:12:00      105.715       53.103      -17.826       26.111       20.166       16.301      681.771      406.648      265.738        0.783        0.068      118.303        7.397        0.004      332.072        0.496      867.206
01/25/2022  22:13:00       80.685       45.532      -11.822       23.508       22.419       13.704      552.647      502.619      187.789        0.498        0.062       92.646        5.934        0.004      332.043        0.449      867.211
01/25/2022  22:14:00       76.417       56.306      -10.990       27.054       23.871       21.882      731.945      569.830      478.831        0.546        0.089       94.921       18.483        0.038      332.109        0.557      867.203
01/25/2022  22:15:00       68.511      103.038      -13.462       28.880       28.247       20.606      834.063      797.920      424.625        0.877        0.103      123.736       13.908        0.013      332.213        0.728      867.200
01/25/2022  22:16:00       62.741      109.687      -12.429       38.962       25.845       20.259     1518.011      667.950      410.431        0.936        0.130      126.364       18.916        0.022      332.287        0.851      867.207
01/25/2022  22:17:00       20.051       88.036       -4.313       28.003       28.359       22.231      784.153      804.210      494.212        0.513        0.104       90.290       20.007        0.049      332.239        0.772      867.209
01/25/2022  22:18:00      -30.148       31.725       -9.990       42.434       23.109       18.479     1800.672      534.033      341.458        0.235        0.134       43.765       20.413        0.218      331.848        0.129      867.214
01/25/2022  22:19:00     -118.064       72.317      -10.578       50.358       38.194       21.371     2535.915     1458.795      456.712        1.187        0.223      138.451       18.681        0.018      331.234       -0.882      867.211
01/25/2022  22:20:00     -172.421       94.706       -8.313       57.114       30.324       29.710     3261.975      919.519      882.690        2.191        0.253      196.718       32.948        0.028      331.104       -1.098      867.211
01/25/2022  22:21:00     -126.273       47.460       -7.602       64.092       42.687       33.494     4107.757     1822.218     1121.835        1.265        0.353      134.898       33.623        0.062      331.115       -1.078      867.209
01/25/2022  22:22:00     -102.625       48.390        2.162       59.810       49.199       24.419     3577.293     2420.513      596.275        0.973        0.330      113.461       26.626        0.055      331.121       -1.067      867.223
01/25/2022  22:23:00     -123.389       62.475       -9.289       62.400       41.300       31.633     3893.715     1705.667     1000.627        1.291        0.330      138.304       27.473        0.039      331.010       -1.251      867.228
01/25/2022  22:24:00     -113.405       48.670       -7.914       59.123       42.706       28.602     3495.519     1823.792      818.092        1.071        0.307      123.408       21.705        0.031      331.083       -1.132      867.237
01/25/2022  22:25:00     -123.995       40.838       -3.015       50.302       38.365       31.045     2530.304     1471.848      963.773        1.101        0.248      130.547       28.344        0.047      331.199       -0.938      867.250
01/25/2022  22:26:00     -108.052       33.026       -5.965       49.103       25.869       27.060     2411.112      669.206      732.261        0.831        0.191      112.986       26.399        0.055      331.161       -1.003      867.253
01/25/2022  22:27:00      -67.999       29.770      -19.775       33.177       24.893       22.270     1100.687      619.637      495.962        0.406        0.111       74.231       15.589        0.044      331.328       -0.727      867.261
01/25/2022  22:28:00      -50.154       21.480      -24.218       20.576       20.881       22.891      423.379      436.023      524.020        0.247        0.069       54.560        8.246        0.023      331.482       -0.474      867.269
01/25/2022  22:29:00      -24.050       37.458       -9.978       28.100       33.413       18.833      789.618     1116.417      354.670        0.217        0.113       44.515       16.399        0.136      331.659       -0.184      867.271
01/25/2022  22:30:00      -53.759       27.066      -15.954       21.843       12.899       10.422      477.114      166.390      108.614        0.231        0.038       60.188        6.181        0.011      331.413       -0.588      867.274
01/25/2022  22:31:00      -31.314       30.488      -16.096       27.107       24.552       18.970      734.815      602.821      359.863        0.193        0.085       43.704       11.719        0.072      331.523       -0.406      867.279
01/25/2022  22:32:00       14.501       41.446       -6.101       25.287       25.501       17.752      639.434      650.321      315.148        0.178        0.080       43.910        9.781        0.050      332.012        0.398      867.283
01/25/2022  22:33:00       21.264       54.851       -9.250       22.969       26.077       20.669      527.590      680.011      427.222        0.259        0.082       58.828       14.434        0.060      332.040        0.445      867.284
01/25/2022  22:34:00       14.560       87.279       -7.158       25.089       30.063       16.405      629.459      903.771      269.130        0.484        0.090       88.485       17.621        0.040      332.206        0.718      867.290
01/25/2022  22:35:00       25.091       45.336       -7.956       44.149       31.571       12.452     1949.107      996.734      155.063        0.292        0.155       51.816        9.659        0.035      332.050        0.461      867.282
01/25/2022  22:36:00       54.915       53.733      -12.589       19.093       20.638       15.277      364.559      425.908      233.383        0.354        0.051       76.830       10.529        0.019      332.154        0.631      867.281
01/25/2022  22:37:00       52.872       51.859      -11.423       37.688       28.586       22.809     1420.397      817.158      520.254        0.419        0.138       74.059       16.425        0.049      332.099        0.541      867.267
01/25/2022  22:38:00       72.966       86.339      -12.197       33.027       31.347       25.289     1090.800      982.622      639.528        0.782        0.136      113.042       14.295        0.016      332.171        0.660      867.255
01/25/2022  22:39:00       90.740       61.345       -7.715       29.899       24.468       20.774      893.969      598.686      431.551        0.699        0.096      109.530       14.545        0.018      332.018        0.409      867.247
01/25/2022  22:40:00       86.722       56.927      -10.905       37.504       22.802       18.801     1406.521      519.912      353.463        0.658        0.114      103.737        4.591        0.002      332.016        0.405      867.235
01/25/2022  22:41:00       90.089       57.378      -11.779       33.313       26.277       19.565     1109.763      690.479      382.804        0.686        0.109      106.809        9.764        0.008      331.971        0.330      867.219
01/25/2022  22:42:00      126.645       71.293      -14.538       41.350       25.321       20.846     1709.842      641.141      434.546        1.206        0.139      145.332        9.917        0.005      331.991        0.363      867.207
01/25/2022  22:43:00      126.686       50.436      -11.332       25.075       30.009       16.274      628.744      900.569      264.836        1.026        0.090      136.357        9.669        0.005      332.070        0.493      867.202
01/25/2022  22:44:00       99.741       30.745       -5.228       36.778       24.614       17.808     1352.598      605.847      317.141        0.660        0.114      104.372       18.048        0.030      331.975        0.337      867.203
01/25/2022  22:45:00       63.322       50.932       -9.280       32.208       22.747       21.991     1037.346      517.425      483.593        0.436        0.102       81.263       17.169        0.045      331.945        0.286      867.203
01/25/2022  22:46:00       42.912       58.806      -11.445       27.493       28.802       21.163      755.862      829.576      447.869        0.373        0.102       72.798       16.580        0.052      332.002        0.382      867.213
01/25/2022  22:47:00       33.180       99.185       -5.675       33.861       27.633       17.906     1146.570      763.606      320.623        0.660        0.112      104.588       15.441        0.022      332.097        0.538      867.227
01/25/2022  22:48:00      -66.687       22.079      -13.938       27.332       15.954       15.190      747.024      254.540      230.728        0.318        0.062       70.247       12.690        0.033      331.528       -0.399      867.240
01/25/2022  22:49:00     -112.766       32.417      -20.406       35.251       27.851       17.395     1242.664      775.657      302.581        0.825        0.116      117.333       17.411        0.022      331.268       -0.826      867.247
01/25/2022  22:50:00     -142.773       19.416        2.444       69.591       42.980       29.451     4842.896     1847.323      867.378        1.416        0.378      144.087       21.726        0.023      331.337       -0.713      867.249
01/25/2022  22:51:00      -88.168       22.965       -1.017       70.180       44.106       31.713     4925.218     1945.324     1005.726        0.809        0.394       91.110       26.316        0.083      331.399       -0.611      867.253
01/25/2022  22:52:00     -108.311       23.627      -14.286       57.895       37.169       25.750     3351.774     1381.517      663.056        0.894        0.270      110.858       15.857        0.020      331.274       -0.815      867.250
01/25/2022  22:53:00      -86.948       41.512      -11.783       28.604       23.637       18.579      818.161      558.727      345.172        0.557        0.086       96.349       13.466        0.020      331.256       -0.846      867.255
01/25/2022  22:54:00      -85.822       38.637       -7.807       37.702       32.143       24.342     1421.470     1033.182      592.541        0.598        0.152       94.118       17.478        0.034      331.275       -0.814      867.258
01/25/2022  22:55:00      -99.405       35.496      -12.150       46.149       32.120       23.388     2129.740     1031.720      546.992        0.750        0.185      105.553       17.676        0.028      331.321       -0.739      867.261
01/25/2022  22:56:00      -90.292       22.600       -4.120       62.613       29.427       23.181     3920.343      865.977      537.351        0.700        0.266       93.078       29.324        0.099      331.276       -0.813      867.257
01/25/2022  22:57:00     -121.242       19.087      -13.638       44.688       35.592       21.635     1997.012     1266.809      468.072        0.949        0.187      122.735       11.705        0.009      331.193       -0.948      867.258
01/25/2022  22:58:00     -104.990       29.076      -14.501       56.758       34.775       25.904     3221.443     1209.309      671.030        0.859        0.255      108.942       13.656        0.016      331.184       -0.963      867.261
01/25/2022  22:59:00      -41.309        1.834       -2.819       32.322       34.032       19.386     1044.719     1158.179      375.832        0.215        0.129       41.350       16.000        0.150      331.246       -0.861      867.263
01/25/2022  23:00:00      -90.957       27.446       -6.882       34.318       33.684       18.120     1177.697     1134.603      328.333        0.586        0.132       95.007       13.097        0.019      331.204       -0.930      867.265
01/25/2022  23:01:00      -29.253       -0.207       -2.928       36.605       22.316       18.962     1339.912      498.024      359.544        0.153        0.110       29.254       19.150        0.429      331.246       -0.863      867.268
01/25/2022  23:02:00      -34.104        1.506       -4.331       27.608       21.094       21.380      762.220      444.960      457.118        0.142        0.083       34.137        9.479        0.077      331.267       -0.827      867.273
01/25/2022  23:03:00      -57.048       -6.923       -4.748       42.364       33.717       24.464     1794.713     1136.833      598.483        0.343        0.177       57.467       20.189        0.123      331.244       -0.866      867.263
01/25/2022  23:04:00      -83.383       15.501       -3.960       41.518       28.806       20.897     1723.760      829.766      436.705        0.510        0.150       84.812       18.845        0.049      331.279       -0.808      867.264
01/25/2022  23:05:00      -48.922       14.914        2.887       39.880       23.262       16.142     1590.392      541.100      260.574        0.251        0.120       51.145       17.973        0.123      331.324       -0.735      867.250
01/25/2022  23:06:00      -46.175      -13.807       -3.534       37.541       24.388       18.214     1409.295      594.769      331.758        0.234        0.117       48.195       10.752        0.050      331.343       -0.703      867.248
01/25/2022  23:07:00      -21.433      -10.537        4.236       31.054       31.580       20.134      964.356      997.285      405.388        0.148        0.118       23.883       19.496        0.666      331.167       -0.992      867.243
01/25/2022  23:08:00      -82.072        4.326       -3.009       38.637       23.614       19.299     1492.846      557.613      372.454        0.459        0.121       82.186       15.260        0.034      331.225       -0.897      867.240
01/25/2022  23:09:00      -55.558        5.308        5.368       48.370       20.561       20.013     2339.624      422.769      400.524        0.315        0.158       55.811       19.884        0.127      331.167       -0.992      867.235
01/25/2022  23:10:00      -44.369      -10.752       -8.928       35.711       29.075       21.431     1275.300      845.372      459.290        0.237        0.129       45.653       14.426        0.100      331.171       -0.986      867.239
01/25/2022  23:11:00      -50.906        1.685       -1.702       36.064       33.857       23.942     1300.581     1146.276      573.199        0.281        0.151       50.934       19.370        0.145      331.081       -1.135      867.251
01/25/2022  23:12:00      -97.996       -1.886       -2.100       65.141       35.988       34.597     4243.296     1295.147     1196.926        0.817        0.337       98.014       32.536        0.110      330.993       -1.278      867.254
01/25/2022  23:13:00      -78.934       -1.128       -1.920       52.866       35.440       30.225     2794.794     1255.970      913.532        0.560        0.248       78.942       23.970        0.092      330.993       -1.279      867.249
01/25/2022  23:14:00      -38.918      -10.283       -1.324       59.504       32.729       31.494     3540.713     1071.164      991.856        0.361        0.280       40.253       35.154        0.763      330.946       -1.356      867.234
01/25/2022  23:15:00      -60.932       -3.582       -9.179       36.860       43.421       24.963     1358.681     1885.406      623.176        0.384        0.193       61.037       18.750        0.094      330.987       -1.288      867.230
01/25/2022  23:16:00      -57.914       -7.115       -9.539       46.224       27.932       19.065     2136.700      780.222      363.465        0.339        0.164       58.349       10.588        0.033      331.022       -1.232      867.222
01/25/2022  23:17:00      -80.647        6.646      -14.123       36.427       23.456       18.418     1326.902      550.163      339.239        0.448        0.111       80.920       18.337        0.051      331.028       -1.221      867.195
01/25/2022  23:18:00      -90.156       30.740       -8.003       25.003       33.084       20.021      625.171     1094.560      400.833        0.563        0.106       95.252       15.883        0.028      330.974       -1.311      867.179
01/25/2022  23:19:00     -108.909       23.604       -7.139       31.837       21.457       18.526     1013.595      460.422      343.196        0.714        0.091      111.437       15.357        0.019      330.986       -1.291      867.160
01/25/2022  23:20:00     -102.750       28.944       -7.111       27.338       23.791       16.202      747.364      566.008      262.506        0.651        0.079      106.749       16.026        0.023      330.982       -1.296      867.144
01/25/2022  23:21:00      -49.628        7.815       -0.154       39.571       20.943       18.135     1565.854      438.599      328.861        0.243        0.117       50.240       14.359        0.082      331.026       -1.224      867.138
01/25/2022  23:22:00      -69.931       13.399       -9.704       31.445       14.026       12.471      988.793      196.742      155.535        0.325        0.067       71.203       11.590        0.026      331.105       -1.093      867.133
01/25/2022  23:23:00      -92.430       19.492      -11.782       21.578       20.877       13.658      465.610      435.850      186.551        0.507        0.054       94.463        8.462        0.008      331.019       -1.237      867.120
01/25/2022  23:24:00      -98.365       28.502      -14.473       23.597       21.667       16.542      556.811      469.465      273.622        0.600        0.065      102.411        8.564        0.007      330.984       -1.295      867.131
01/25/2022  23:25:00     -122.361       27.148      -22.609       24.384       23.537       18.953      594.594      553.988      359.208        0.886        0.075      125.336       10.591        0.007      330.962       -1.328      867.136
01/25/2022  23:26:00     -106.973        2.563      -26.780       30.723       23.922       22.474      943.882      572.282      505.094        0.709        0.101      107.004       14.880        0.019      330.933       -1.378      867.143
01/25/2022  23:27:00      -50.519        8.930      -21.444       42.738       41.089       25.431     1826.522     1688.292      646.713        0.363        0.208       51.302       14.327        0.078      330.875       -1.471      867.163
01/25/2022  23:28:00      -99.559       50.901      -15.577       64.654       32.979       26.118     4180.102     1087.630      682.166        0.935        0.297      111.816       22.390        0.040      330.709       -1.745      867.170
01/25/2022  23:29:00     -110.824       41.730      -27.642       44.205       32.015       21.089     1954.060     1024.962      444.732        0.911        0.171      118.421       19.444        0.027      330.675       -1.799      867.180
01/25/2022  23:30:00      -28.557        1.273       -5.229       47.268       31.023       26.063     2234.305      962.436      679.289        0.236        0.194       28.585       27.115        0.900      330.700       -1.759      867.188
01/25/2022  23:31:00      -70.244       17.688      -24.380       60.422       36.492       32.326     3650.815     1331.700     1044.972        0.593        0.301       72.436       34.604        0.228      330.695       -1.767      867.198
01/25/2022  23:32:00      -36.578       -2.031      -15.688       76.112       28.113       29.443     5793.007      790.315      866.884        0.452        0.373       36.635       21.333        0.339      330.625       -1.884      867.201
01/25/2022  23:33:00        1.704       -5.623      -15.699       21.186       37.276       24.277      448.829     1389.464      589.349        0.135        0.121        5.875       23.303       15.731      330.597       -1.927      867.213
01/25/2022  23:34:00      -70.823      -12.754      -30.339       45.775       37.015       36.569     2095.352     1370.089     1337.261        0.545        0.240       71.962       24.684        0.118      330.608       -1.910      867.223
01/25/2022  23:35:00      -55.981       15.250        1.046       76.211       34.617       31.689     5808.128     1198.306     1004.194        0.569        0.401       58.021       30.052        0.268      330.563       -1.985      867.228
01/25/2022  23:36:00      -82.986        6.982       -9.888       37.125       23.219       15.663     1378.294      539.116      245.340        0.460        0.108       83.279       12.269        0.022      330.698       -1.762      867.212
01/25/2022  23:37:00      -74.669       16.896      -16.602       29.416       25.485       23.083      865.278      649.499      532.815        0.409        0.102       76.557       18.065        0.056      330.717       -1.731      867.188
01/25/2022  23:38:00      -83.147       26.918      -14.611       29.940       17.094       22.678      896.423      292.212      514.271        0.478        0.085       87.395       20.919        0.057      330.662       -1.822      867.169
01/25/2022  23:39:00      -71.933        7.927      -16.121       32.738       30.253       16.801     1071.781      915.264      282.262        0.388        0.113       72.368       13.792        0.036      330.724       -1.719      867.164
01/25/2022  23:40:00     -119.359       35.247      -13.894       35.041       25.629       23.282     1227.851      656.870      542.059        0.905        0.121      124.454       15.703        0.016      330.631       -1.873      867.161
01/25/2022  23:41:00     -136.645       34.220      -11.413       46.754       34.396       27.105     2185.954     1183.066      734.701        1.204        0.205      140.864       26.449        0.035      330.614       -1.902      867.164
01/25/2022  23:42:00      -36.307       20.201        2.382       67.855       32.082       26.920     4604.340     1029.255      724.701        0.404        0.318       41.548       27.569        0.440      330.591       -1.938      867.167
01/25/2022  23:43:00     -102.334        8.686       -6.254       69.424       39.009       34.172     4819.685     1521.679     1167.726        0.905        0.375      102.702       20.171        0.039      330.598       -1.928      867.176
01/25/2022  23:44:00     -157.243       29.995       -3.706       59.626       39.287       27.372     3555.281     1543.492      749.227        1.574        0.292      160.079       26.389        0.027      330.595       -1.933      867.186
01/25/2022  23:45:00     -155.589       38.366       -5.264       48.274       29.980       27.999     2330.368      898.823      783.967        1.486        0.201      160.249       19.532        0.015      330.535       -2.032      867.182
01/25/2022  23:46:00     -148.021       54.073       -6.919       59.186       34.158       32.413     3503.041     1166.799     1050.592        1.530        0.286      157.588       29.664        0.035      330.471       -2.136      867.181
01/25/2022  23:47:00     -152.568       53.766       -0.869       51.288       43.742       29.346     2630.461     1913.402      861.208        1.579        0.270      161.765       26.927        0.028      330.400       -2.251      867.176
01/25/2022  23:48:00     -130.635       38.466       -4.813       62.514       29.415       26.536     3907.972      865.242      704.140        1.202        0.274      136.181       26.287        0.037      330.416       -2.225      867.182
01/25/2022  23:49:00      -22.729       25.534        9.774       69.666       28.170       27.676     4853.386      793.570      765.938        0.384        0.321       34.184       24.878        0.530      330.411       -2.233      867.189
01/25/2022  23:50:00      -42.032       23.122      -11.499       48.258       34.805       25.624     2328.828     1211.418      656.614        0.331        0.210       47.972       22.833        0.227      330.461       -2.152      867.195
01/25/2022  23:51:00      -99.071       33.172      -24.655       37.310       33.789       26.400     1392.027     1141.719      696.948        0.738        0.162      104.477       10.056        0.009      330.511       -2.069      867.204
01/25/2022  23:52:00      -88.512       39.478      -17.333       32.037       29.970       24.886     1026.362      898.220      619.298        0.612        0.127       96.917       15.328        0.025      330.520       -2.055      867.203
01/25/2022  23:53:00      -70.603       24.324      -22.423       40.200       29.553       21.637     1616.041      873.398      468.155        0.452        0.148       74.676       11.410        0.023      330.564       -1.983      867.204
01/25/2022  23:54:00      -84.373       27.179      -18.543       64.367       39.871       31.199     4143.147     1589.703      973.359        0.745        0.335       88.642       35.311        0.159      330.510       -2.071      867.199
01/25/2022  23:55:00      -38.630       -4.580       -7.589       56.338       30.123       30.654     3173.975      907.368      939.658        0.330        0.251       38.901       19.603        0.254      330.460       -2.153      867.195
01/25/2022  23:56:00      -71.090       21.189      -19.121       88.554       41.449       29.018     7841.800     1718.008      842.059        0.813        0.520       74.181       25.800        0.121      330.512       -2.069      867.197
01/25/2022  23:57:00     -149.240       32.067       -9.297       82.955       58.974       43.409     6881.464     3477.908     1884.333        1.781        0.612      152.646       43.247        0.080      330.547       -2.012      867.197
01/25/2022  23:58:00     -186.533       94.374       -3.013       66.798       48.105       35.608     4461.978     2314.058     1267.920        2.588        0.402      209.048       31.649        0.023      330.415       -2.229      867.204
01/25/2022  23:59:00     -185.285       69.386        3.051       72.081       52.567       41.904     5195.738     2763.340     1755.979        2.443        0.486      197.851       37.793        0.036      330.380       -2.286      867.213
01/26/2022  00:00:00     -199.039       68.656      -10.093       69.552       45.133       40.233     4837.507     2037.011     1618.720        2.646        0.425      210.547       34.647        0.027      330.372       -2.302      867.219
01/26/2022  00:01:00      -94.311       40.870       -9.983       55.489       42.617       34.169     3079.034     1816.250     1167.519        0.836        0.303      102.786       20.691        0.041      330.408       -2.238      867.235
01/26/2022  00:02:00     -126.744       86.801      -13.928       56.326       43.517       28.748     3172.641     1893.723      826.419        1.484        0.295      153.618       19.140        0.016      330.588       -1.944      867.246
01/26/2022  00:03:00      -95.546       90.056      -17.461       35.891       44.665       27.256     1288.187     1994.964      742.892        1.078        0.201      131.297       20.174        0.024      330.773       -1.640      867.250
01/26/2022  00:04:00      -61.831       49.780       -7.073       30.017       26.949       22.759      901.022      726.229      517.953        0.425        0.107       79.379        9.415        0.014      330.853       -1.507      867.248
01/26/2022  00:05:00      -55.645       44.765      -16.394       38.154       25.547       25.031     1455.730      652.624      626.534        0.405        0.137       71.417       10.468        0.021      330.966       -1.323      867.241
01/26/2022  00:06:00      -36.780       26.026      -14.280       32.180       23.255       17.900     1035.527      540.814      320.426        0.207        0.095       45.057       11.809        0.069      330.908       -1.419      867.234
01/26/2022  00:07:00      -43.580       26.836      -13.924       31.215       21.908       21.345      974.352      479.944      455.590        0.236        0.095       51.180       12.739        0.062      330.885       -1.456      867.230
01/26/2022  00:08:00      -66.851       37.829      -15.807       22.642       20.287       18.509      512.649      411.550      342.568        0.371        0.063       76.812       12.749        0.028      330.905       -1.423      867.228
01/26/2022  00:09:00      -68.831       25.495      -23.956       29.927       20.528       22.069      895.602      421.418      487.062        0.388        0.090       73.401       15.967        0.047      330.863       -1.492      867.219
01/26/2022  00:10:00      -91.845       35.043      -24.595       35.660       22.449       19.013     1271.602      503.941      361.512        0.620        0.107       98.303       13.100        0.018      330.847       -1.519      867.212
01/26/2022  00:11:00      -66.732       14.496      -16.750       48.756       32.493       27.942     2377.163     1055.803      780.780        0.458        0.211       68.289       16.876        0.061      330.815       -1.570      867.209
01/26/2022  00:12:00      -82.532       28.727      -19.292       34.950       31.624       25.669     1221.488     1000.049      658.895        0.544        0.144       87.389       17.802        0.041      330.872       -1.477      867.216
01/26/2022  00:13:00      -82.561       34.198      -16.311       31.480       32.693       21.734      990.984     1068.863      472.362        0.539        0.127       89.363       18.680        0.044      330.839       -1.530      867.217
01/26/2022  00:14:00      -63.450       32.844      -21.683       25.497       21.656       16.275      650.093      468.975      264.882        0.348        0.069       71.447        9.532        0.018      330.808       -1.581      867.219
01/26/2022  00:15:00      -77.635       46.580      -15.645       20.424       17.941       15.161      417.149      321.890      229.841        0.471        0.048       90.536        8.640        0.009      330.795       -1.603      867.215
01/26/2022  00:16:00      -89.123       41.253      -15.621       12.496       16.721       10.198      156.141      279.590      103.992        0.521        0.027       98.208        5.891        0.004      330.678       -1.795      867.211
01/26/2022  00:17:00      -73.604      -16.055      -20.929       20.904       22.948       20.424      436.991      526.597      417.137        0.375        0.069       75.335       12.103        0.026      330.762       -1.657      867.210
01/26/2022  00:18:00      -95.207      -12.645      -14.823       43.729       24.998       24.383     1912.194      624.904      594.515        0.629        0.157       96.043       17.048        0.032      330.794       -1.604      867.221
01/26/2022  00:19:00     -127.993      -39.129       -9.263       38.029       58.738       26.178     1446.199     3450.207      685.293        1.179        0.279      133.840       27.227        0.041      330.883       -1.459      867.217
01/26/2022  00:20:00      -98.836       -5.848        2.220       64.149       54.717       40.871     4115.085     2993.944     1670.432        0.929        0.439       99.008       37.748        0.145      330.828       -1.549      867.209
01/26/2022  00:21:00      -70.922       -6.771        2.575       69.476       47.542       29.838     4826.900     2260.287      890.306        0.653        0.399       71.245       29.349        0.170      330.694       -1.770      867.205
01/26/2022  00:22:00      -74.856      -13.451       -2.385       80.539       40.074       34.369     6486.471     1605.957     1181.219        0.753        0.464       76.055       31.572        0.172      330.572       -1.970      867.195
01/26/2022  00:23:00     -128.537      -16.394      -19.676       52.614       45.799       34.000     2768.265     2097.567     1155.970        1.160        0.301      129.579       21.880        0.029      330.575       -1.965      867.184
01/26/2022  00:24:00     -149.644      -14.009      -10.119       60.804       43.754       30.054     3697.136     1914.438      903.217        1.460        0.326      150.299       24.623        0.027      330.583       -1.952      867.161
01/26/2022  00:25:00     -148.392       -9.289      -18.872       66.470       41.294       28.573     4418.229     1705.167      816.417        1.470        0.347      148.683       22.283        0.022      330.574       -1.967      867.123
01/26/2022  00:26:00      -97.093       -4.790       -2.131       44.301       35.204       28.151     1962.569     1239.313      792.467        0.672        0.200       97.211       20.179        0.043      330.563       -1.985      867.093
01/26/2022  00:27:00     -138.093      -21.522      -15.660       70.653       44.488       28.881     4991.857     1979.172      834.139        1.379        0.390      139.760       33.972        0.059      330.582       -1.954      867.070
01/26/2022  00:28:00     -219.243      -21.335      -23.540       44.710       49.557       33.690     1998.994     2455.946     1135.033        2.733        0.279      220.279       26.208        0.014      330.655       -1.837      867.057
01/26/2022  00:29:00     -173.078      -11.543      -17.403       63.117       49.216       33.688     3983.759     2422.175     1134.908        1.897        0.377      173.463       28.743        0.027      330.713       -1.740      867.052
01/26/2022  00:30:00     -138.855      -47.054      -19.811       64.423       52.716       37.914     4150.294     2778.982     1437.489        1.513        0.418      146.611       32.081        0.048      330.731       -1.710      867.068
01/26/2022  00:31:00     -140.193      -25.780      -19.115       71.858       50.896       44.652     5163.559     2590.380     1993.790        1.521        0.487      142.544       40.834        0.082      330.692       -1.773      867.075
01/26/2022  00:32:00     -162.986       -5.480      -17.519       61.114       34.932       33.497     3734.942     1220.213     1122.016        1.649        0.304      163.078       34.854        0.046      330.706       -1.749      867.077
01/26/2022  00:33:00      -83.420      -11.203        4.473       57.432       47.359       37.983     3298.402     2242.830     1442.706        0.704        0.349       84.169       26.643        0.100      330.733       -1.703      867.089
01/26/2022  00:34:00     -151.367      -11.643       -7.596       86.267       48.855       37.356     7442.038     2386.772     1395.477        1.716        0.561      151.814       42.649        0.079      330.753       -1.673      867.093
01/26/2022  00:35:00     -197.130        9.244       -7.811       75.479       44.807       30.076     5697.049     2007.665      904.570        2.381        0.430      197.346       32.107        0.026      330.656       -1.835      867.097
01/26/2022  00:36:00     -187.724       -3.034       -6.801       80.285       41.917       37.759     6445.620     1757.037     1425.766        2.246        0.481      187.748       38.159        0.041      330.647       -1.847      867.100
01/26/2022  00:37:00     -230.156       13.372      -11.141       59.593       40.498       30.042     3551.283     1640.096      902.509        2.968        0.305      230.544       28.683        0.015      330.673       -1.808      867.102
01/26/2022  00:38:00     -146.722      -25.607      -12.483       56.250       40.752       31.486     3164.108     1660.762      991.339        1.408        0.291      148.940       29.870        0.040      330.662       -1.821      867.113
01/26/2022  00:39:00      -96.661       -6.239      -12.864       77.079       56.566       45.268     5941.164     3199.676     2049.188        1.037        0.560       96.862       38.440        0.157      330.671       -1.806      867.127
01/26/2022  00:40:00      -71.044       10.835      -12.537       51.424       33.457       31.117     2644.443     1119.359      968.288        0.503        0.237       71.865       22.211        0.096      330.654       -1.835      867.139
01/26/2022  00:41:00     -101.067       48.479        1.663       71.559       45.069       27.222     5120.704     2031.225      741.061        1.023        0.395      112.093       27.304        0.059      330.524       -2.049      867.152
01/26/2022  00:42:00     -129.653       29.975       -1.703       57.647       33.165       26.765     3323.162     1099.886      716.339        1.142        0.257      133.073       27.638        0.043      330.503       -2.082      867.163
01/26/2022  00:43:00      -94.661       17.332        0.949       65.697       27.684       21.845     4316.103      766.378      477.206        0.741        0.278       96.235       24.329        0.064      330.498       -2.092      867.169
01/26/2022  00:44:00      -89.748       19.258       -7.793       31.644       24.599       18.426     1001.361      605.112      339.526        0.522        0.097       91.791       14.149        0.024      330.460       -2.155      867.169
01/26/2022  00:45:00      -67.050       22.420      -10.170       42.401       29.433       19.556     1797.865      866.323      382.453        0.407        0.152       70.699       22.848        0.104      330.479       -2.121      867.161
01/26/2022  00:46:00      -81.368       34.507        3.857       32.238       28.439       24.089     1039.321      808.776      580.300        0.513        0.121       88.383       21.085        0.057      330.510       -2.071      867.146
01/26/2022  00:47:00      -67.705       11.325      -13.808       37.311       29.077       21.077     1392.079      845.495      444.246        0.379        0.134       68.645       20.608        0.090      330.573       -1.968      867.139
01/26/2022  00:48:00      -64.682       16.135       -5.877       52.401       22.918       25.476     2745.849      525.254      649.047        0.420        0.196       66.664       29.135        0.191      330.550       -2.005      867.136
01/26/2022  00:49:00      -86.279       19.119       -1.029       90.350       43.573       30.377     8163.132     1898.629      922.765        0.940        0.549       88.371       30.562        0.120      330.469       -2.138      867.140
01/26/2022  00:50:00      -53.847       18.648        7.936       77.268       41.068       32.604     5970.316     1686.572     1063.033        0.601        0.436       56.985       32.205        0.319      330.432       -2.199      867.141
01/26/2022  00:51:00      -55.448        5.953      -12.213       52.780       36.457       26.076     2785.680     1329.141      679.944        0.403        0.240       55.767       22.226        0.159      330.574       -1.966      867.134
01/26/2022  00:52:00      -80.869        7.854       -6.179       67.171       32.853       29.029     4511.958     1079.347      842.677        0.654        0.322       81.250       29.258        0.130      330.622       -1.888      867.123
01/26/2022  00:53:00     -123.703       16.419       -2.830       40.234       31.316       30.505     1618.809      980.662      930.558        0.955        0.177      124.788       25.375        0.041      330.584       -1.950      867.111
01/26/2022  00:54:00      -75.537       23.445      -16.244       47.993       43.233       23.950     2303.317     1869.070      573.621        0.563        0.237       79.092       24.185        0.094      330.667       -1.814      867.096
01/26/2022  00:55:00      -80.209       41.072      -14.102       31.332       27.104       16.231      981.697      734.613      263.460        0.515        0.099       90.113        5.326        0.003      330.603       -1.917      867.079
01/26/2022  00:56:00      -77.555       57.872      -19.920       31.075       25.857       15.605      965.632      668.577      243.515        0.582        0.094       96.768        4.136        0.002      330.683       -1.787      867.073
01/26/2022  00:57:00      -28.501       34.534       -5.583       22.529       19.581       22.105      507.539      383.421      488.619        0.171        0.069       44.775       16.041        0.128      330.683       -1.788      867.069
01/26/2022  00:58:00       -7.289       73.098       -7.677       24.616       32.768       18.972      605.931     1073.754      359.952        0.375        0.102       73.460       17.225        0.055      330.817       -1.567      867.076
01/26/2022  00:59:00        0.306       61.775       -6.118       24.726       31.063       14.803      611.378      964.925      219.119        0.282        0.090       61.776       11.255        0.033      330.658       -1.827      867.091
01/26/2022  01:00:00       -3.325       38.317      -13.586       18.144       24.047       20.930      329.217      578.251      438.059        0.150        0.067       38.461       11.614        0.091      330.677       -1.797      867.097
01/26/2022  01:01:00      -32.354        6.367       -8.877       19.775       21.057       16.335      391.052      443.391      266.845        0.113        0.055       32.975        8.273        0.063      330.618       -1.894      867.102
01/26/2022  01:02:00      -76.336       10.904      -17.776       22.431       22.221       14.672      503.129      493.786      215.274        0.374        0.061       77.111        7.993        0.011      330.493       -2.099      867.110
01/26/2022  01:03:00      -79.873       28.472      -17.292       31.311       27.060       18.578      980.407      732.237      345.127        0.477        0.103       84.796       12.819        0.023      330.469       -2.138      867.107
01/26/2022  01:04:00      -62.666       29.344      -15.010       26.784       14.610       18.258      717.376      213.438      333.343        0.314        0.063       69.196       11.393        0.027      330.498       -2.092      867.113
01/26/2022  01:05:00      -72.866       41.444      -17.245       20.342       20.404       16.468      413.799      416.336      271.194        0.421        0.055       83.828       12.615        0.023      330.574       -1.966      867.122
01/26/2022  01:06:00      -33.342        3.485      -16.609       43.638       22.113       18.783     1904.318      489.003      352.791        0.207        0.137       33.524       23.120        0.476      330.529       -2.042      867.135
01/26/2022  01:07:00        9.844       -6.480       -1.026       24.946       22.983       22.765      622.304      528.236      518.243        0.090        0.083       11.785       12.891        1.197      330.373       -2.295      867.153
01/26/2022  01:08:00        1.356       14.449        1.552       45.508       21.794       21.774     2070.991      474.971      474.102        0.162        0.151       14.513       11.853        0.667      330.319       -2.383      867.172
01/26/2022  01:09:00     -110.562      -12.329      -10.960       40.519       32.914       24.042     1641.795     1083.304      577.995        0.790        0.165      111.247       18.835        0.029      330.439       -2.186      867.184
01/26/2022  01:10:00      -79.360       -3.589       -8.782       37.226       18.623       20.855     1385.758      346.829      434.925        0.428        0.108       79.441       16.040        0.041      330.395       -2.260      867.195
01/26/2022  01:11:00     -114.482      -13.525      -20.108       19.001       23.979       16.925      361.043      574.978      286.444        0.746        0.061      115.278        9.607        0.007      330.410       -2.234      867.192
01/26/2022  01:12:00      -72.884       24.915      -18.227       25.547       26.422       17.086      652.659      698.097      291.931        0.395        0.082       77.025       10.677        0.019      330.495       -2.096      867.189
01/26/2022  01:13:00      -52.456        5.515      -13.277       37.298       27.245       21.080     1391.134      742.263      444.375        0.277        0.129       52.745       13.091        0.062      330.376       -2.292      867.196
01/26/2022  01:14:00      -38.494        2.186        2.104       65.372       28.983       23.682     4273.452      840.029      560.860        0.358        0.284       38.556       19.112        0.246      330.331       -2.366      867.210
01/26/2022  01:15:00      -71.153      -20.311       -9.604       58.664       34.668       32.363     3441.429     1201.842     1047.361        0.563        0.285       73.995       33.027        0.199      330.282       -2.445      867.221
01/26/2022  01:16:00     -149.643      -14.875       -9.904       37.904       34.051       27.579     1436.708     1159.442      760.589        1.303        0.168      150.380       18.356        0.015      330.323       -2.378      867.224
01/26/2022  01:17:00      -91.723       -5.503       -5.957       45.521       44.920       25.733     2072.127     2017.816      662.200        0.661        0.238       91.888       23.283        0.064      330.299       -2.417      867.232
01/26/2022  01:18:00     -133.866       22.257       -6.755       34.426       27.499       18.417     1185.144      756.177      339.179        1.037        0.114      135.704       10.925        0.006      330.290       -2.432      867.246
01/26/2022  01:19:00      -97.941        9.338       -0.440       70.551       36.095       29.525     4977.454     1302.828      871.712        0.841        0.358       98.385       34.658        0.124      330.206       -2.570      867.247
01/26/2022  01:20:00     -137.884        6.733       -1.409       52.103       36.476       30.132     2714.761     1330.481      907.965        1.201        0.248      138.048       22.578        0.027      330.154       -2.655      867.267
01/26/2022  01:21:00     -155.418       -8.399       -7.106       46.587       39.420       30.785     2170.372     1553.915      947.713        1.447        0.234      155.645       27.489        0.031      330.169       -2.631      867.283
01/26/2022  01:22:00     -139.142      -17.205      -16.216       40.773       41.527       27.725     1662.476     1724.466      768.677        1.204        0.208      140.201       22.812        0.026      330.135       -2.686      867.296
01/26/2022  01:23:00     -124.615       -2.205       -0.577       54.916       45.787       35.155     3015.780     2096.409     1235.855        1.094        0.317      124.635       30.423        0.060      330.070       -2.793      867.305
01/26/2022  01:24:00     -111.148       -8.819       -9.414       36.808       40.510       23.097     1354.850     1641.055      533.468        0.802        0.176      111.497       15.921        0.020      330.122       -2.709      867.308
01/26/2022  01:25:00      -93.830       -4.375      -15.420       44.646       24.880       24.007     1993.274      619.032      576.354        0.612        0.159       93.932       25.522        0.074      330.119       -2.713      867.309
01/26/2022  01:26:00      -89.563       16.428       -0.446       50.743       31.477       24.961     2574.900      990.791      623.071        0.624        0.209       91.057       22.992        0.064      330.100       -2.745      867.304
01/26/2022  01:27:00      -38.443       14.329        5.378       36.257       22.636       20.728     1314.600      512.399      429.638        0.198        0.113       41.027       17.747        0.187      330.108       -2.730      867.303
01/26/2022  01:28:00      -21.348      -11.045        1.480       28.901       21.933       17.465      835.259      481.041      305.027        0.110        0.081       24.036       17.836        0.551      330.197       -2.585      867.290
01/26/2022  01:29:00      -68.403      -10.632      -12.143       67.450       38.250       29.300     4549.477     1463.053      858.495        0.590        0.344       69.225       26.309        0.144      330.139       -2.680      867.280
01/26/2022  01:30:00      -50.238        8.168       -0.485       55.144       38.254       28.740     3040.855     1463.390      825.962        0.396        0.267       50.897       30.522        0.360      330.085       -2.768      867.267
01/26/2022  01:31:00     -141.904       25.837       -3.434       40.009       25.697       22.943     1600.713      660.357      526.389        1.180        0.139      144.237       18.036        0.016      330.229       -2.533      867.266
01/26/2022  01:32:00      -22.627       -1.068       -3.101       43.978       29.780       28.024     1934.083      886.876      785.365        0.206        0.180       22.652       21.290        0.883      330.236       -2.521      867.273
01/26/2022  01:33:00      -20.403       15.106       -8.303       45.534       37.505       25.484     2073.313     1406.599      649.418        0.242        0.206       25.386       22.339        0.774      330.109       -2.730      867.293
01/26/2022  01:34:00      -83.849       27.378      -11.168       26.542       28.994       19.370      704.460      840.673      375.184        0.491        0.096       88.206       13.582        0.024      330.092       -2.757      867.308
01/26/2022  01:35:00      -57.939       13.288        2.494       33.666       22.920       16.979     1133.407      525.334      288.273        0.274        0.097       59.443       15.385        0.067      330.019       -2.876      867.313
01/26/2022  01:36:00      -19.809       -8.512       -8.170       30.920       23.873       15.493      956.057      569.922      240.042        0.115        0.088       21.561       13.615        0.399      330.138       -2.681      867.305
01/26/2022  01:37:00      -37.412        1.354       -5.051       23.784       17.863       13.630      565.659      319.073      185.790        0.125        0.054       37.436       14.013        0.140      330.232       -2.526      867.295
01/26/2022  01:38:00      -49.946       12.787       -1.930       28.815       16.421       14.823      830.327      269.647      219.721        0.199        0.066       51.557       16.724        0.105      330.299       -2.417      867.274
01/26/2022  01:39:00      -48.827       -0.312       -4.882       40.410       31.158       24.202     1632.971      970.796      585.747        0.280        0.159       48.828       23.887        0.239      330.225       -2.539      867.262
01/26/2022  01:40:00      -55.420        1.696       -1.640       79.736       37.891       35.585     6357.854     1435.710     1266.293        0.607        0.453       55.446       33.391        0.363      330.147       -2.668      867.268
01/26/2022  01:41:00     -158.815      -12.923      -11.354       58.124       55.281       36.007     3378.347     3056.005     1296.522        1.662        0.387      159.340       23.163        0.021      330.174       -2.623      867.295
01/26/2022  01:42:00     -157.616      -14.681      -12.178       60.902       51.609       34.629     3709.026     2663.470     1199.198        1.639        0.379      158.298       29.885        0.036      330.209       -2.567      867.322
01/26/2022  01:43:00     -180.790       -8.819       -9.487       71.330       59.305       39.460     5087.979     3517.059     1557.116        2.151        0.508      181.005       36.478        0.041      330.217       -2.555      867.339
01/26/2022  01:44:00     -232.372       -9.086      -15.971       52.479       51.883       34.363     2754.047     2691.796     1180.842        3.048        0.331      232.549       17.030        0.005      330.301       -2.416      867.344
01/26/2022  01:45:00     -140.470       11.413       -0.708       84.577       51.590       40.908     7153.240     2661.558     1673.469        1.567        0.574      140.933       35.723        0.064      330.248       -2.501      867.337
01/26/2022  01:46:00     -145.423       34.411       -2.030       58.531       40.514       34.683     3425.828     1641.396     1202.917        1.430        0.314      149.439       24.459        0.027      330.389       -2.270      867.321
01/26/2022  01:47:00      -48.818       27.502        5.462       64.334       49.436       26.056     4138.851     2443.955      678.912        0.521        0.363       56.031       35.376        0.399      330.257       -2.486      867.301
01/26/2022  01:48:00      -39.490       -9.290      -10.326       37.604       26.827       20.411     1414.035      719.685      416.606        0.215        0.128       40.568       14.532        0.128      330.390       -2.267      867.280
01/26/2022  01:49:00      -30.953        5.545        0.286       23.811       15.594       12.482      566.954      243.162      155.797        0.098        0.048       31.446        7.920        0.063      330.429       -2.204      867.252
01/26/2022  01:50:00      -25.449       20.549       -8.799       15.975       13.632       11.962      255.193      185.839      143.087        0.087        0.029       32.710        5.493        0.028      330.475       -2.130      867.226
01/26/2022  01:51:00      -47.241       32.575       -8.429       15.328        7.004        8.930      234.952       49.060       79.749        0.186        0.018       57.383        8.903        0.024      330.538       -2.026      867.207
01/26/2022  01:52:00      -49.201       13.588      -12.971       17.185       12.330        9.765      295.340      152.030       95.362        0.166        0.027       51.043        9.918        0.038      330.591       -1.938      867.202
01/26/2022  01:53:00      -18.510       -9.857      -11.077       14.191       13.721       12.230      201.384      188.269      149.575        0.055        0.027       20.971       10.100        0.232      330.564       -1.983      867.221
01/26/2022  01:54:00      -17.372       -9.621       -7.451       29.351       23.381       19.830      861.470      546.684      393.239        0.113        0.090       19.858       15.961        0.646      330.495       -2.096      867.251
01/26/2022  01:55:00       -7.830        0.697        0.808       25.307       18.598       19.902      640.434      345.874      396.108        0.072        0.069        7.860       16.094        4.192      330.405       -2.242      867.281
01/26/2022  01:56:00      -62.732        1.412       -5.409       77.142       37.510       26.122     5950.828     1406.967      682.364        0.600        0.402       62.747       27.080        0.186      330.349       -2.335      867.307
01/26/2022  01:57:00     -114.633       -9.612       -9.232       78.336       43.142       32.960     6136.604     1861.190     1086.345        1.120        0.454      115.035       23.647        0.042      330.320       -2.383      867.318
01/26/2022  01:58:00     -118.221        4.586       -6.623       42.533       35.903       24.521     1809.015     1289.016      601.267        0.887        0.185      118.310       24.325        0.042      330.398       -2.254      867.314
01/26/2022  01:59:00      -58.649        7.698       -7.288       41.032       21.007       16.537     1683.621      441.314      273.462        0.297        0.120       59.152       22.206        0.141      330.340       -2.351      867.294
01/26/2022  02:00:00     -119.377       25.059      -18.629       46.873       31.719       25.043     2197.048     1006.122      627.144        0.953        0.192      121.979       19.197        0.025      330.355       -2.326      867.272
01/26/2022  02:01:00      -85.743       11.740      -22.165       31.871       28.482       20.969     1015.791      811.212      439.691        0.512        0.113       86.543        8.098        0.009      330.344       -2.342      867.252
01/26/2022  02:02:00     -101.949       29.385      -16.972       25.722       26.726       27.148      661.633      714.298      736.997        0.683        0.106      106.099       16.726        0.025      330.405       -2.242      867.252
01/26/2022  02:03:00      -62.929        6.493       -3.172       44.366       27.548       20.069     1968.370      758.906      402.751        0.357        0.157       63.263       20.378        0.104      330.305       -2.407      867.261
01/26/2022  02:04:00      -25.038       -8.495       -4.723       31.487       25.031       22.084      991.431      626.542      487.713        0.141        0.105       26.440       21.950        0.689      330.304       -2.408      867.275
01/26/2022  02:05:00      -21.351        0.954        1.853       33.368       22.792       19.975     1113.450      519.497      399.019        0.125        0.102       21.372       14.096        0.435      330.343       -2.346      867.298
01/26/2022  02:06:00      -34.813       16.826        6.720       49.216       28.767       22.999     2422.233      827.563      528.951        0.266        0.189       38.666       22.937        0.352      330.381       -2.281      867.311
01/26/2022  02:07:00      -44.126        1.607        3.949       58.352       27.567       24.825     3404.999      759.933      616.296        0.337        0.239       44.155       29.033        0.432      330.362       -2.312      867.322
01/26/2022  02:08:00      -29.058        4.686        2.669       48.190       28.589       26.947     2322.261      817.352      726.145        0.237        0.193       29.434       25.355        0.742      330.247       -2.502      867.329
01/26/2022  02:09:00     -111.283       42.905      -12.722       25.612       29.542       19.050      655.968      872.758      362.903        0.814        0.095      119.268       12.513        0.011      330.132       -2.691      867.324
01/26/2022  02:10:00     -132.230       85.088      -30.080       25.754       31.827       23.612      663.281     1012.934      557.527        1.393        0.112      157.241       15.421        0.010      330.110       -2.727      867.316
01/26/2022  02:11:00      -97.017       35.715      -15.900       36.776       31.576       17.163     1352.455      997.060      294.572        0.679        0.132      103.382       14.154        0.019      330.061       -2.805      867.297
01/26/2022  02:12:00      -69.610       43.743       -7.735       27.040       24.679       17.652      731.158      609.053      311.587        0.423        0.083       82.213       11.031        0.018      330.068       -2.796      867.286
01/26/2022  02:13:00      -81.660       56.145      -13.713       20.695       22.464       16.884      428.276      504.633      285.058        0.561        0.061       99.099       11.747        0.014      330.162       -2.642      867.282
01/26/2022  02:14:00      -81.176       48.534       -7.090       35.055       25.822       21.500     1228.885      666.798      462.250        0.568        0.118       94.578       20.223        0.046      330.161       -2.643      867.272
01/26/2022  02:15:00      -48.869        5.675      -12.385       30.408       21.794       21.425      924.633      474.968      459.051        0.222        0.093       49.197       15.137        0.095      330.252       -2.495      867.262
01/26/2022  02:16:00      -53.795       13.945      -11.855       31.860       22.508       18.432     1015.062      506.609      339.734        0.254        0.093       55.573       18.298        0.108      330.311       -2.397      867.256
01/26/2022  02:17:00       -2.358       -7.237       -8.772       20.756       23.111       17.525      430.823      534.107      307.116        0.070        0.064        7.612       16.697        4.812      330.327       -2.369      867.259
01/26/2022  02:18:00       -6.551        1.901      -16.033       12.939       20.834        9.960      167.407      434.046       99.192        0.050        0.035        6.822        8.221        1.452      330.406       -2.241      867.262
01/26/2022  02:19:00        4.238       -4.046      -17.635        7.743       11.299        8.258       59.955      127.670       68.188        0.030        0.013        5.859        5.605        0.915      330.351       -2.332      867.264
01/26/2022  02:20:00       -3.748        6.272       -8.061        8.104        8.181        7.287       65.670       66.930       53.101        0.015        0.009        7.306        3.562        0.238      330.323       -2.377      867.256
01/26/2022  02:21:00        4.410       22.406       -4.674        8.168       14.519        9.338       66.711      210.803       87.194        0.045        0.018       22.835        4.786        0.044      330.292       -2.428      867.236
01/26/2022  02:22:00       -6.945      -12.637      -13.067       15.177       24.563       11.289      230.338      603.325      127.434        0.067        0.048       14.420        9.415        0.426      330.263       -2.474      867.208
01/26/2022  02:23:00      -18.191      -22.302      -13.445       19.209       27.399       13.707      368.968      750.727      187.878        0.116        0.065       28.780       14.801        0.264      330.273       -2.459      867.190
01/26/2022  02:24:00       -9.701        8.808       -5.105       24.864       19.032       16.129      618.219      362.235      260.158        0.072        0.062       13.103        8.625        0.433      330.137       -2.685      867.186
01/26/2022  02:25:00      -20.743       -8.591        2.744       53.402       23.021       24.828     2851.725      529.961      616.424        0.225        0.200       22.452       24.680        1.208      330.100       -2.743      867.190
01/26/2022  02:26:00      -24.464       -2.858        1.550       48.175       33.873       24.127     2320.803     1147.383      582.132        0.233        0.203       24.630       18.130        0.542      330.130       -2.694      867.199
01/26/2022  02:27:00     -144.052      -39.330      -14.587       54.390       49.430       28.799     2958.293     2443.293      829.363        1.437        0.312      149.325       22.764        0.023      330.010       -2.892      867.206
01/26/2022  02:28:00      -66.216      -13.257       -1.026       67.599       55.316       33.808     4569.638     3059.829     1143.014        0.667        0.439       67.530       35.054        0.269      329.856       -3.144      867.207
01/26/2022  02:29:00      -94.301      -17.699       -7.037       58.541       69.767       35.284     3427.083     4867.497     1244.988        0.940        0.477       95.948       28.691        0.089      329.777       -3.273      867.211
01/26/2022  02:30:00      -90.092      -17.115      -11.586       66.328       59.504       38.118     4399.368     3540.699     1453.019        0.897        0.470       91.704       22.293        0.059      329.727       -3.355      867.213
01/26/2022  02:31:00     -112.242       -1.254      -19.296       67.927       45.190       36.112     4614.115     2042.162     1304.083        1.046        0.398      112.249       26.340        0.055      329.704       -3.392      867.223
01/26/2022  02:32:00     -149.256        3.298      -19.325       41.652       27.391       30.741     1734.881      750.294      945.002        1.305        0.172      149.293       20.124        0.018      329.663       -3.460      867.225
01/26/2022  02:33:00     -142.033       -8.787       -6.256       38.129       33.274       20.375     1453.804     1107.139      415.156        1.163        0.149      142.304       18.958        0.018      329.700       -3.398      867.213
01/26/2022  02:34:00      -21.298       -1.363        1.396       24.654       24.054       14.552      607.844      578.588      211.771        0.093        0.070       21.341       13.686        0.411      329.752       -3.313      867.197
01/26/2022  02:35:00       -4.622       -7.637       -7.184       10.997        8.109       11.451      120.944       65.757      131.137        0.022        0.016        8.926        8.815        0.975      329.803       -3.229      867.181
01/26/2022  02:36:00      -22.321      -17.327       -5.744       12.596       14.050       15.048      158.652      197.410      226.450        0.071        0.029       28.257        4.719        0.028      330.011       -2.889      867.176
01/26/2022  02:37:00       -3.073        3.574       -0.823       20.543       13.632       11.103      422.034      185.835      123.273        0.038        0.037        4.714        3.206        0.463      329.978       -2.942      867.184
01/26/2022  02:38:00       -2.894      -24.157        3.713       25.969       28.013       20.628      674.407      784.705      425.534        0.124        0.094       24.329       15.959        0.430      329.920       -3.039      867.205
01/26/2022  02:39:00     -131.734      -10.299      -11.310       68.421       44.276       36.217     4681.410     1960.398     1311.641        1.277        0.398      132.136       29.686        0.050      329.741       -3.332      867.217
01/26/2022  02:40:00     -129.001       -2.476       -4.534       83.566       35.986       37.934     6983.354     1294.957     1438.976        1.319        0.486      129.024       27.942        0.047      329.654       -3.474      867.207
01/26/2022  02:41:00     -162.096       -0.789       -5.959       59.181       34.874       30.908     3502.391     1216.214      955.317        1.599        0.284      162.098       24.688        0.023      329.656       -3.472      867.172
01/26/2022  02:42:00      -31.774      -32.793      -19.946       32.198       28.725       21.128     1036.686      825.131      446.377        0.240        0.115       45.661       13.242        0.084      329.736       -3.340      867.133
01/26/2022  02:43:00       -8.183      -14.780      -16.564       20.999       20.492       16.595      440.957      419.908      275.380        0.085        0.057       16.894       11.421        0.457      329.784       -3.262      867.110
01/26/2022  02:44:00      -26.696       -0.700      -11.875       23.950       16.928       14.558      573.625      286.557      211.933        0.096        0.054       26.705        6.299        0.056      329.741       -3.332      867.102
01/26/2022  02:45:00      -40.955       -5.365       -7.299       53.784       25.591       24.716     2892.683      654.880      610.871        0.296        0.208       41.305       29.692        0.517      329.697       -3.402      867.107
01/26/2022  02:46:00      -63.732       -6.401       -1.212       49.378       30.927       22.409     2438.228      956.472      502.185        0.400        0.195       64.053       23.443        0.134      329.640       -3.495      867.122
01/26/2022  02:47:00      -33.549      -11.224        5.486       45.684       29.169       20.179     2087.048      850.825      407.208        0.231        0.167       35.377       24.115        0.465      329.645       -3.488      867.141
01/26/2022  02:48:00      -50.568       -7.043      -10.158       45.137       27.640       21.995     2037.387      763.951      483.782        0.300        0.164       51.056       22.203        0.189      329.677       -3.436      867.151
01/26/2022  02:49:00      -70.449        1.949      -13.759       61.526       33.724       28.431     3785.397     1137.326      808.315        0.544        0.287       70.476       26.101        0.137      329.586       -3.586      867.150
01/26/2022  02:50:00      -86.846       -3.421       -6.808       51.396       33.487       28.298     2641.581     1121.380      800.761        0.608        0.228       86.913       23.681        0.074      329.534       -3.670      867.149
01/26/2022  02:51:00      -34.349       14.299       -4.529       44.745       21.320       22.023     2002.128      454.559      485.018        0.217        0.147       37.206       18.131        0.237      329.572       -3.607      867.152
01/26/2022  02:52:00      -85.022       21.450      -10.534       31.893       30.841       20.814     1017.157      951.145      433.225        0.510        0.120       87.686       15.046        0.029      329.493       -3.738      867.157
01/26/2022  02:53:00     -107.101       17.310      -12.189       46.409       39.193       22.258     2153.837     1536.082      495.409        0.805        0.209      108.491       14.414        0.018      329.503       -3.720      867.166
01/26/2022  02:54:00     -113.682       25.996       -5.249       70.265       30.470       27.343     4937.130      928.450      747.613        1.012        0.331      116.617       22.733        0.038      329.364       -3.948      867.169
01/26/2022  02:55:00      -94.242       -5.612       -5.092       64.580       45.251       29.694     4170.579     2047.666      881.756        0.802        0.355       94.409       24.865        0.069      329.370       -3.937      867.165
01/26/2022  02:56:00     -119.387       38.947        6.056       54.352       32.360       27.043     2954.128     1047.173      731.311        1.027        0.237      125.580       25.961        0.043      329.223       -4.178      867.144
01/26/2022  02:57:00     -111.852       24.486       -3.631       58.355       29.539       21.913     3405.280      872.556      480.195        0.894        0.238      114.501       22.400        0.038      329.227       -4.173      867.123
01/26/2022  02:58:00      -63.941       -6.564       -2.048       69.367       30.718       22.296     4811.790      943.593      497.097        0.519        0.313       64.277       24.994        0.151      329.251       -4.132      867.094
01/26/2022  02:59:00      -71.567      -14.118       -2.921       62.005       31.917       25.365     3844.632     1018.712      643.374        0.542        0.275       72.946       17.115        0.055      329.254       -4.128      867.071
01/26/2022  03:00:00      -35.154       -2.116        3.021       32.473       28.947       17.141     1054.466      837.947      293.817        0.172        0.109       35.217       15.301        0.189      329.384       -3.915      867.044
01/26/2022  03:01:00      -69.421       13.116      -13.704       26.949       24.036       16.095      726.256      577.741      259.062        0.337        0.078       70.649       15.825        0.050      329.374       -3.932      867.025
01/26/2022  03:02:00      -59.416       35.665      -10.384       17.276       13.593       14.760      298.473      184.775      217.845        0.281        0.035       69.298       10.908        0.025      329.346       -3.978      866.995
01/26/2022  03:03:00      -75.501       19.678      -11.232       35.053       20.874       15.856     1228.722      435.730      251.423        0.406        0.096       78.024       14.701        0.035      329.376       -3.928      866.960
01/26/2022  03:04:00      -86.610       35.022      -21.527       17.995       18.783       13.589      323.820      352.798      184.648        0.503        0.043       93.423        6.366        0.005      329.339       -3.989      866.940
01/26/2022  03:05:00      -44.917        9.440      -12.729       52.122       31.524       22.209     2716.715      993.754      493.227        0.324        0.210       45.898       13.930        0.092      329.378       -3.925      866.927
01/26/2022  03:06:00      -91.106        4.248        4.183       36.125       32.911       27.487     1304.988     1083.157      755.532        0.574        0.157       91.205       20.587        0.051      329.331       -4.001      866.915
01/26/2022  03:07:00     -121.245       14.733       -0.643       46.622       37.976       29.062     2173.645     1442.145      844.607        0.969        0.223      122.136       22.671        0.034      329.400       -3.889      866.906
01/26/2022  03:08:00     -139.411       25.149       -5.671       43.103       31.053       26.617     1857.835      964.296      708.471        1.181        0.177      141.661       23.502        0.028      329.324       -4.014      866.890
01/26/2022  03:09:00     -109.625       17.865       -8.185       48.342       23.592       24.262     2336.962      556.561      588.649        0.794        0.174      111.071       22.288        0.040      329.298       -4.055      866.881
01/26/2022  03:10:00      -61.633        6.413        5.073       59.279       40.314       24.489     3513.992     1625.197      599.689        0.480        0.287       61.966       29.388        0.225      329.328       -4.006      866.885
01/26/2022  03:11:00      -84.086       40.537        1.955       47.264       32.619       20.667     2233.847     1064.022      427.122        0.622        0.186       93.347       19.391        0.043      329.127       -4.335      866.887
01/26/2022  03:12:00      -91.189       42.869       -6.818       38.369       30.180       22.973     1472.195      910.826      527.763        0.655        0.146      100.763       21.577        0.046      329.160       -4.280      866.884
01/26/2022  03:13:00     -121.231       61.988      -10.885       34.166       29.393       27.114     1167.347      863.953      735.173        1.071        0.138      136.160       23.055        0.029      329.096       -4.386      866.878
01/26/2022  03:14:00      -66.926       28.333       -3.247       42.572       45.550       24.704     1812.342     2074.775      610.272        0.489        0.225       72.676       21.669        0.089      329.083       -4.406      866.866
01/26/2022  03:15:00      -59.789       15.731       -3.703       26.385       30.612       23.142      696.160      937.083      535.558        0.300        0.108       61.824       16.870        0.074      329.035       -4.486      866.851
01/26/2022  03:16:00      -25.753        1.297       -0.790       38.670       27.535       17.863     1495.364      758.157      319.083        0.162        0.129       25.786       17.574        0.464      329.102       -4.376      866.842
01/26/2022  03:17:00      -43.143        6.723        1.113       62.057       36.706       32.372     3851.052     1347.358     1047.956        0.408        0.312       43.664       26.938        0.381      329.144       -4.308      866.832
01/26/2022  03:18:00     -155.533       35.073        0.100       34.391       32.189       23.619     1182.761     1036.145      557.848        1.410        0.139      159.439       19.332        0.015      329.061       -4.442      866.829
01/26/2022  03:19:00      -99.520       16.874       -5.132       56.114       34.497       27.233     3148.819     1190.012      741.641        0.765        0.254      100.940       26.937        0.071      329.112       -4.359      866.819
01/26/2022  03:20:00      -84.453       18.410      -12.465       53.103       34.199       21.032     2819.914     1169.598      442.335        0.603        0.222       86.436       22.411        0.067      329.195       -4.225      866.800
01/26/2022  03:21:00      -80.324       35.160       -3.121       37.878       37.399       19.384     1434.757     1398.699      375.743        0.545        0.160       87.682       15.555        0.031      329.132       -4.327      866.773
01/26/2022  03:22:00     -151.753       44.159      -10.840       40.698       32.615       22.207     1656.306     1063.732      493.147        1.415        0.161      158.047       23.627        0.022      329.322       -4.016      866.756
01/26/2022  03:23:00     -102.550       43.561       -5.259       42.083       28.559       23.744     1770.990      815.638      563.759        0.780        0.158      111.419       23.074        0.043      329.204       -4.210      866.741
01/26/2022  03:24:00      -99.025       38.891      -10.717       36.730       31.177       21.696     1349.095      972.018      470.698        0.711        0.140      106.388       17.656        0.028      329.142       -4.310      866.728
01/26/2022  03:25:00      -82.202       40.548        2.264       44.892       32.335       22.494     2015.300     1045.583      505.984        0.599        0.178       91.659       23.248        0.064      329.188       -4.237      866.714
01/26/2022  03:26:00      -83.028       26.428       -4.522       34.281       29.706       17.381     1175.162      882.455      302.103        0.499        0.118       87.133       13.969        0.026      329.183       -4.244      866.696
01/26/2022  03:27:00      -91.559       16.248       -9.599       32.184       37.551       24.247     1035.833     1410.099      587.940        0.589        0.152       92.989       21.637        0.054      329.295       -4.061      866.674
01/26/2022  03:28:00      -79.926       36.152      -11.599       19.075       22.460       14.187      363.848      504.472      201.270        0.445        0.053       87.722       10.839        0.015      329.313       -4.031      866.654
01/26/2022  03:29:00      -59.052        2.328      -20.433       23.450       21.862       18.878      549.910      477.928      356.392        0.265        0.069       59.098        7.450        0.016      329.428       -3.844      866.653
01/26/2022  03:30:00      -18.795       -1.288       -3.303       29.559       28.968       24.700      873.738      839.167      610.090        0.134        0.116       18.839       14.446        0.588      329.345       -3.979      866.670
01/26/2022  03:31:00      -28.949       -0.137       -4.908       42.143       35.708       27.641     1776.006     1275.055      764.039        0.234        0.191       28.950       20.895        0.521      329.282       -4.082      866.692
01/26/2022  03:32:00      -78.508       24.452      -17.443       48.346       27.094       21.218     2337.363      734.076      450.222        0.529        0.176       82.228        8.544        0.011      329.189       -4.233      866.698
01/26/2022  03:33:00     -122.235       36.095      -13.452       21.205       19.177       14.988      449.657      367.743      224.647        0.873        0.052      127.453       11.454        0.008      329.037       -4.481      866.691
01/26/2022  03:34:00      -83.079       34.331      -20.736       20.819       19.206       14.168      433.417      368.873      200.736        0.476        0.050       89.892       11.630        0.017      329.063       -4.440      866.664
01/26/2022  03:35:00      -82.378       32.363      -14.742       25.021       21.534       15.848      626.038      463.706      251.157        0.470        0.067       88.507       10.235        0.013      329.141       -4.313      866.625
01/26/2022  03:36:00      -90.348       16.663      -13.742       37.771       19.783       15.663     1426.656      391.357      245.320        0.535        0.103       91.872       10.609        0.013      329.106       -4.371      866.603
01/26/2022  03:37:00     -107.109       19.128      -12.369       29.063       28.049       20.240      844.681      786.720      409.675        0.702        0.102      108.804        9.302        0.007      329.088       -4.397      866.583
01/26/2022  03:38:00     -108.861       16.928      -11.115       21.206       26.414       16.504      449.713      697.690      272.379        0.684        0.071      110.169       13.389        0.015      329.159       -4.283      866.578
01/26/2022  03:39:00      -26.398       16.820       -1.127       47.070       23.226       21.146     2215.557      539.468      447.157        0.209        0.160       31.301       21.458        0.470      329.207       -4.205      866.578
01/26/2022  03:40:00      -34.831      -13.545       -5.113       29.127       29.206       23.467      848.405      852.977      550.701        0.184        0.113       37.371       15.815        0.179      329.181       -4.247      866.581
01/26/2022  03:41:00      -44.008       -5.668       -4.061       37.582       32.278       25.393     1412.407     1041.894      644.826        0.254        0.155       44.371       23.344        0.277      329.176       -4.255      866.584
01/26/2022  03:42:00      -25.586        0.745       -7.315       31.503       19.449       21.081      992.413      378.274      444.402        0.126        0.091       25.597       19.061        0.555      329.214       -4.194      866.591
01/26/2022  03:43:00       -9.355        4.694      -11.335       17.230       18.678       14.206      296.864      348.852      201.818        0.054        0.042       10.467       13.348        1.626      329.292       -4.064      866.582
01/26/2022  03:44:00      -31.986       13.749       -8.359       10.838       12.747       11.238      117.452      162.491      126.292        0.084        0.020       34.816        5.553        0.025      329.332       -4.000      866.587
01/26/2022  03:45:00      -43.720       -4.955       -7.075       22.385       24.462       19.402      501.076      598.378      376.444        0.173        0.074       44.000       14.883        0.114      329.367       -3.943      866.588
01/26/2022  03:46:00      -57.399       22.201       -7.766        9.551       12.074        7.587       91.213      145.791       57.570        0.207        0.015       61.543        5.715        0.009      329.414       -3.867      866.592
01/26/2022  03:47:00      -64.207        9.547      -12.851       15.170       17.425       12.157      230.130      303.621      147.792        0.253        0.034       64.913        6.641        0.010      329.411       -3.869      866.593
01/26/2022  03:48:00      -30.201        0.190      -10.453       29.919       19.620       10.852      895.163      384.927      117.773        0.121        0.070       30.201       10.456        0.120      329.412       -3.869      866.608
01/26/2022  03:49:00      -35.722        9.252       -4.047       42.503       21.106       16.920     1806.510      445.446      286.288        0.196        0.127       36.901       20.707        0.315      329.268       -4.104      866.629
01/26/2022  03:50:00      -93.515       27.542      -13.286       15.618       24.411       14.666      243.930      595.902      215.082        0.537        0.053       97.487        3.061        0.001      329.098       -4.382      866.650
01/26/2022  03:51:00      -91.072       33.892       -5.682       33.272       33.510       19.483     1107.045     1122.922      379.570        0.604        0.130       97.174       17.828        0.034      329.057       -4.450      866.666
01/26/2022  03:52:00      -78.131       12.090       -1.618       36.917       26.550       25.762     1362.839      704.905      663.705        0.449        0.137       79.061       21.297        0.073      329.129       -4.333      866.680
01/26/2022  03:53:00      -63.100        8.783      -11.746       45.310       23.912       22.302     2053.032      571.802      497.361        0.366        0.156       63.708       20.201        0.101      329.104       -4.372      866.680
01/26/2022  03:54:00      -76.788       14.866       -8.658       24.188       19.362       13.177      585.065      374.898      173.632        0.366        0.057       78.214        6.736        0.007      329.097       -4.384      866.674
01/26/2022  03:55:00      -24.153      -11.105       -7.010       32.805       19.701       18.670     1076.170      388.135      348.583        0.128        0.091       26.584       13.479        0.257      329.244       -4.142      866.677
01/26/2022  03:56:00      -35.296      -14.143      -10.567       35.025       29.406       25.184     1226.752      864.714      634.235        0.214        0.136       38.024       16.489        0.188      329.160       -4.282      866.675
01/26/2022  03:57:00      -95.000       26.409       -8.903       37.703       32.667       22.573     1421.525     1067.116      509.539        0.640        0.150       98.602       13.881        0.020      329.053       -4.456      866.668
01/26/2022  03:58:00      -78.512        3.130       -9.340       38.736       34.772       20.676     1500.491     1209.118      427.491        0.470        0.157       78.574       11.671        0.022      329.050       -4.461      866.661
01/26/2022  03:59:00      -58.688       -4.601      -11.045       43.173       29.300       20.593     1863.915      858.509      424.058        0.337        0.157       58.868       14.202        0.058      329.085       -4.404      866.654
01/26/2022  04:00:00       -3.080      -10.870      -10.116       33.197       25.503       19.005     1102.033      650.391      361.175        0.117        0.106       11.298       13.175        1.360      329.108       -4.366      866.640
01/26/2022  04:01:00      -55.834       10.487       -6.630       60.007       19.128       19.319     3600.781      365.886      373.216        0.380        0.217       56.811       19.918        0.123      329.104       -4.373      866.638
01/26/2022  04:02:00      -87.549       23.949      -13.088       38.195       25.842       19.314     1458.879      667.798      373.042        0.545        0.125       90.766       16.356        0.032      329.059       -4.444      866.637
01/26/2022  04:03:00      -99.683       32.041      -14.760       27.880       19.934       17.542      777.291      397.364      307.731        0.633        0.074      104.706       12.227        0.014      329.101       -4.378      866.632
01/26/2022  04:04:00      -85.882       48.774      -16.440       20.147       16.496       14.135      405.921      272.132      199.802        0.545        0.044       98.766       11.560        0.014      329.060       -4.445      866.628
01/26/2022  04:05:00      -90.620       20.969       -8.120       39.953       19.503       16.814     1596.222      380.366      282.725        0.549        0.113       93.015       15.525        0.028      329.100       -4.379      866.626
01/26/2022  04:06:00      -20.034       -4.023       -7.052       56.638       22.763       16.985     3207.808      518.172      288.480        0.224        0.201       20.434       21.458        1.103      329.107       -4.368      866.630
01/26/2022  04:07:00      -90.506       12.880      -12.460       49.074       31.629       17.013     2408.218     1000.365      289.443        0.610        0.185       91.418       14.460        0.025      329.022       -4.508      866.637
01/26/2022  04:08:00     -101.950       28.919       -0.340       36.432       24.456       22.266     1327.325      598.092      495.757        0.683        0.121      105.972       18.232        0.030      328.952       -4.621      866.631
01/26/2022  04:09:00      -79.110       11.626       -2.272       44.622       27.347       22.527     1991.113      747.833      507.462        0.482        0.162       79.960       21.098        0.070      328.919       -4.676      866.624
01/26/2022  04:10:00      -76.849       28.670       -9.547       32.945       24.585       18.288     1085.347      604.418      334.450        0.442        0.101       82.023       18.136        0.049      328.868       -4.756      866.608
01/26/2022  04:11:00      -57.019       28.287       -8.220       16.998       20.156       12.671      288.927      406.246      160.552        0.249        0.043       63.650        6.560        0.011      328.912       -4.686      866.596
01/26/2022  04:12:00      -38.290       22.518      -12.888       19.769       15.401       10.678      390.831      237.202      114.024        0.144        0.037       44.420        5.771        0.017      328.894       -4.714      866.585
01/26/2022  04:13:00      -34.761        8.837      -11.763       18.374       12.834       10.062      337.607      164.709      101.239        0.101        0.030       35.866        9.855        0.076      328.893       -4.717      866.570
01/26/2022  04:14:00      -17.944       -7.213      -12.475       19.257       18.731       11.699      370.849      350.840      136.859        0.069        0.043       19.340        7.843        0.164      329.078       -4.415      866.560
01/26/2022  04:15:00      -29.302        4.742       -2.431       27.098       16.679       13.369      734.301      278.182      178.718        0.104        0.060       29.683       12.038        0.164      329.040       -4.478      866.556
01/26/2022  04:16:00      -46.073        3.768       -6.308       31.751       15.657       10.320     1008.145      245.152      106.506        0.177        0.068       46.226        8.035        0.030      329.047       -4.465      866.560
01/26/2022  04:17:00      -26.821       -7.573       -1.636       27.929       20.286        9.962      780.046      411.528       99.232        0.103        0.065       27.869        7.495        0.072      329.023       -4.504      866.575
01/26/2022  04:18:00      -63.412        5.100       -3.310       23.008       31.190       17.006      529.371      972.814      289.205        0.292        0.090       63.617        8.681        0.019      329.083       -4.406      866.595
01/26/2022  04:19:00      -54.282        7.825       -0.989       33.329       28.466       20.914     1110.838      810.312      437.387        0.268        0.118       54.843       20.603        0.141      329.024       -4.503      866.613
01/26/2022  04:20:00      -78.055       -1.627        2.967       40.026       31.779       21.839     1602.061     1009.930      476.961        0.460        0.154       78.072       20.320        0.068      329.022       -4.506      866.621
01/26/2022  04:21:00      -75.568       -1.806       -4.042       48.027       30.648       21.235     2306.589      939.317      450.907        0.471        0.185       75.589       20.819        0.076      329.169       -4.264      866.622
01/26/2022  04:22:00      -89.017       22.205       -2.168       52.191       27.125       26.544     2723.951      735.784      704.601        0.629        0.208       91.744       24.590        0.072      329.048       -4.464      866.625
01/26/2022  04:23:00     -103.658       21.585      -11.272       45.542       32.208       23.777     2074.115     1037.380      565.337        0.751        0.184      105.882       16.780        0.025      328.977       -4.579      866.628
01/26/2022  04:24:00     -115.162       19.182       -2.553       60.247       42.034       30.718     3629.669     1766.883      943.570        0.999        0.317      116.748       30.020        0.066      328.838       -4.807      866.639
01/26/2022  04:25:00     -115.039       31.604       -9.635      106.222       50.992       35.770    11283.143     2600.222     1279.493        1.474        0.758      119.301       51.421        0.186      328.726       -4.990      866.659
01/26/2022  04:26:00      -62.912       23.919        6.422       82.583       49.770       40.786     6819.974     2477.032     1663.515        0.776        0.548       67.306       38.432        0.326      328.707       -5.021      866.666
01/26/2022  04:27:00      -99.256       31.016      -13.829       36.659       35.244       27.521     1343.884     1242.107      757.431        0.717        0.167      103.989       19.647        0.036      328.636       -5.136      866.647
01/26/2022  04:28:00      -37.399       -1.850       -9.972       39.424       27.042       21.273     1554.220      731.281      452.522        0.212        0.137       37.445        5.545        0.022      328.644       -5.123      866.641
01/26/2022  04:29:00      -15.277        3.204        7.435       40.952       24.884       26.958     1677.054      619.235      726.742        0.166        0.151       15.609       24.843        2.533      328.709       -5.017      866.638
01/26/2022  04:30:00        1.570        1.349        6.891       24.604       19.952       18.746      605.338      398.077      351.400        0.070        0.068        2.069       12.784       38.166      328.850       -4.787      866.641
01/26/2022  04:31:00      -41.299       11.508       -7.296       39.534       23.277       19.847     1562.976      541.808      393.901        0.219        0.125       42.873       24.634        0.330      328.870       -4.754      866.640
01/26/2022  04:32:00      -45.995       15.794      -13.443       21.158       12.663       14.391      447.661      160.351      207.101        0.168        0.041       48.631        9.243        0.036      328.844       -4.797      866.633
01/26/2022  04:33:00      -26.447        8.581      -10.245        6.387        6.504        7.545       40.791       42.306       56.920        0.051        0.007       27.804        5.448        0.038      328.813       -4.848      866.624
01/26/2022  04:34:00      -10.159      -24.954      -11.652       12.904       24.116       10.879      166.516      581.596      118.347        0.086        0.043       26.943        4.009        0.022      329.032       -4.489      866.612
01/26/2022  04:35:00        0.210      -28.140      -10.765       10.237       11.444       11.412      104.792      130.956      130.239        0.064        0.018       28.141        8.154        0.084      329.224       -4.176      866.606
01/26/2022  04:36:00        4.890       10.333       -8.389        5.776        8.997        7.437       33.366       80.953       55.305        0.019        0.008       11.432        3.347        0.086      329.151       -4.297      866.603
01/26/2022  04:37:00       -9.722       15.048       -0.363       10.061       13.818        7.635      101.230      190.942       58.296        0.034        0.018       17.916        7.868        0.193      329.115       -4.354      866.606
01/26/2022  04:38:00       -3.425      -11.036       -6.949       11.800       15.049       11.503      139.239      226.468      132.330        0.034        0.025       11.555        8.261        0.511      329.046       -4.467      866.610
01/26/2022  04:39:00      -13.599       -8.576       -3.062       11.621       17.134        8.782      135.054      293.574       77.128        0.039        0.025       16.078        7.731        0.231      329.053       -4.455      866.614
01/26/2022  04:40:00        3.968        5.826       -2.404        9.683       10.897        7.523       93.765      118.753       56.601        0.016        0.013        7.049        5.410        0.589      329.005       -4.534      866.621
01/26/2022  04:41:00       -7.348       -6.662       -3.011       16.054       12.269       10.436      257.716      150.526      108.915        0.031        0.026        9.918        7.763        0.613      329.108       -4.366      866.626
01/26/2022  04:42:00      -14.603       -0.596       -6.245       20.684       17.119       10.832      427.847      293.044      117.339        0.055        0.042       14.615       10.067        0.474      329.118       -4.349      866.627
01/26/2022  04:43:00       -9.666      -11.237       -8.443       13.047       11.294       13.310      170.214      127.544      177.152        0.038        0.024       14.822        8.114        0.300      329.091       -4.394      866.628
01/26/2022  04:44:00      -31.753      -13.484       -3.146       17.792       20.531       11.124      316.553      421.520      123.735        0.103        0.043       34.497        7.670        0.049      329.100       -4.378      866.619
01/26/2022  04:45:00      -37.831       -0.124        2.217       35.718       30.228       20.360     1275.762      913.737      414.536        0.202        0.130       37.832       20.413        0.291      329.013       -4.521      866.611
01/26/2022  04:46:00      -35.476       -5.573       -3.608       34.706       18.783       14.151     1204.537      352.816      200.255        0.153        0.088       35.911       16.676        0.216      328.956       -4.614      866.596
01/26/2022  04:47:00      -46.023        4.493       -9.166       29.769       16.866       11.076      886.181      284.460      122.685        0.176        0.065       46.242       10.403        0.051      328.919       -4.674      866.587
01/26/2022  04:48:00      -49.210       26.691       -8.292       18.520       17.171        9.811      343.007      294.834       96.263        0.197        0.037       55.982        7.125        0.016      328.844       -4.797      866.592
01/26/2022  04:49:00      -62.284       18.781      -12.752       19.359       12.155       13.342      374.766      147.743      177.997        0.255        0.035       65.054        6.274        0.009      328.845       -4.794      866.599
01/26/2022  04:50:00      -78.876       23.620      -12.475       14.285       13.736       13.350      204.058      188.669      178.225        0.375        0.029       82.337        4.288        0.003      328.787       -4.889      866.615
01/26/2022  04:51:00      -72.845        7.571       -4.983       30.008       23.852       21.093      900.487      568.925      444.922        0.365        0.096       73.238       17.211        0.055      328.923       -4.667      866.628
01/26/2022  04:52:00      -61.951        3.989       -3.063       36.352       24.495       18.298     1321.467      600.020      334.808        0.306        0.113       62.079       14.993        0.058      328.998       -4.545      866.644
01/26/2022  04:53:00      -65.938        5.053       -5.098       39.095       26.321       22.172     1528.407      692.813      491.608        0.356        0.136       66.131       20.368        0.095      328.904       -4.698      866.658
01/26/2022  04:54:00      -58.710       19.961       -7.792       30.843       25.021       16.662      951.279      626.064      277.618        0.288        0.093       62.011       16.559        0.071      328.840       -4.802      866.668
01/26/2022  04:55:00      -84.819       33.424      -10.946       26.598       23.560       13.808      707.437      555.070      190.674        0.494        0.073       91.167        9.108        0.010      328.818       -4.840      866.678
01/26/2022  04:56:00      -66.979        6.305       -8.250       46.190       23.638       14.753     2133.509      558.760      217.653        0.375        0.145       67.275       18.826        0.078      328.833       -4.815      866.677
01/26/2022  04:57:00      -71.546       14.393       -1.071       41.077       24.330       19.873     1687.328      591.961      394.940        0.400        0.134       72.979       18.456        0.064      328.933       -4.653      866.681
01/26/2022  04:58:00      -91.879       12.464       -5.538       30.953       28.190       18.280      958.093      794.681      334.143        0.536        0.104       92.720       15.781        0.029      328.864       -4.763      866.690
01/26/2022  04:59:00      -51.936       17.232        0.030       57.505       22.662       19.851     3306.808      513.549      394.065        0.360        0.211       54.720       23.875        0.190      328.825       -4.828      866.696
01/26/2022  05:00:00      -76.041        3.979        1.190       44.733       27.943       23.168     2001.058      780.817      536.775        0.456        0.166       76.145       23.605        0.096      328.905       -4.698      866.699
01/26/2022  05:01:00      -27.099        6.910       -8.852       43.116       23.921       15.809     1858.954      572.217      249.938        0.177        0.134       27.966       20.795        0.553      328.924       -4.666      866.689
01/26/2022  05:02:00      -96.837       36.644      -10.836       19.481       18.404       15.615      379.513      338.725      243.821        0.590        0.048      103.539        9.393        0.008      328.815       -4.843      866.673
01/26/2022  05:03:00      -72.858       12.844      -16.363       31.553       20.679       13.425      995.621      427.616      180.219        0.367        0.080       73.982       10.623        0.021      328.819       -4.837      866.658
01/26/2022  05:04:00      -91.720       25.041       -9.072       26.882       16.684       16.723      722.635      278.367      279.662        0.520        0.064       95.077       12.944        0.019      328.850       -4.788      866.648
01/26/2022  05:05:00      -91.539       17.908       -7.358       28.753       17.743       15.822      826.733      314.830      250.351        0.507        0.070       93.274       10.047        0.012      328.836       -4.810      866.642
01/26/2022  05:06:00      -81.420        3.950       -4.349       35.017       30.704       20.006     1226.171      942.759      400.223        0.462        0.128       81.516       18.910        0.054      328.882       -4.734      866.646
01/26/2022  05:07:00      -70.627        4.455       -2.793       40.530       28.625       20.988     1642.643      819.387      440.499        0.396        0.145       70.767       22.370        0.100      328.906       -4.696      866.643
01/26/2022  05:08:00      -79.447       24.677       -1.891       41.204       19.552       17.982     1697.751      382.272      323.342        0.466        0.120       83.191       17.050        0.042      328.869       -4.757      866.637
01/26/2022  05:09:00      -79.833        1.848       -5.826       33.926       23.063       18.390     1150.959      531.898      338.189        0.422        0.101       79.854       17.031        0.045      328.992       -4.557      866.623
01/26/2022  05:10:00      -47.250       -3.595        0.967       48.660       26.535       22.707     2367.842      704.094      515.617        0.292        0.179       47.386       24.411        0.265      328.981       -4.572      866.610
01/26/2022  05:11:00      -58.494      -16.653       -1.120       38.948       26.177       22.491     1516.977      685.247      505.859        0.320        0.135       60.818       19.945        0.108      328.955       -4.617      866.602
01/26/2022  05:12:00      -75.564       -5.185      -11.648       31.504       26.099       21.180      992.518      681.148      448.601        0.400        0.106       75.742       19.673        0.067      328.987       -4.563      866.609
01/26/2022  05:13:00      -67.293       13.436       -9.304       32.518       19.549       16.332     1057.422      382.171      266.723        0.325        0.085       68.622       11.061        0.026      328.949       -4.626      866.623
01/26/2022  05:14:00      -97.486        1.687       -4.161       45.081       31.817       18.562     2032.327     1012.343      344.559        0.646        0.169       97.501       21.297        0.048      328.940       -4.641      866.643
01/26/2022  05:15:00      -80.115       14.945        3.911       37.485       34.221       24.411     1405.124     1171.071      595.882        0.491        0.159       81.497       17.833        0.048      328.823       -4.831      866.662
01/26/2022  05:16:00      -64.762       13.218       -6.286       42.108       34.011       26.902     1773.088     1156.754      723.736        0.403        0.183       66.098       19.057        0.083      328.827       -4.823      866.679
01/26/2022  05:17:00     -118.269       34.645        3.256       53.538       36.418       25.724     2866.355     1326.277      661.732        1.003        0.243      123.239       27.841        0.051      328.774       -4.912      866.681
01/26/2022  05:18:00      -78.938       21.554       -5.919       47.402       32.303       24.497     2246.986     1043.510      600.092        0.531        0.195       81.827       20.666        0.064      328.845       -4.795      866.671
01/26/2022  05:19:00      -81.911       -3.291       -6.743       48.811       39.648       22.749     2382.493     1571.982      517.536        0.562        0.224       81.977       19.393        0.056      328.839       -4.805      866.653
01/26/2022  05:20:00     -123.030       20.565       -3.351       43.871       30.077       23.743     1924.661      904.645      563.743        0.948        0.170      124.737       23.741        0.036      328.867       -4.759      866.626
01/26/2022  05:21:00      -45.888       -6.503       -1.483       37.367       25.798       20.666     1396.290      665.526      427.094        0.232        0.124       46.347       17.646        0.145      328.887       -4.728      866.610
01/26/2022  05:22:00      -67.686       13.660      -12.003       34.331       29.466       18.121     1178.610      868.245      328.361        0.364        0.119       69.051       16.166        0.055      328.906       -4.696      866.614
01/26/2022  05:23:00      -35.643       13.110       -5.973       48.920       28.844       20.995     2393.175      831.989      440.803        0.257        0.183       37.978       20.633        0.295      328.907       -4.695      866.635
01/26/2022  05:24:00      -21.906       -8.321       -0.228       37.330       28.900       21.837     1393.540      835.182      476.835        0.163        0.135       23.433       20.638        0.776      328.817       -4.841      866.651
01/26/2022  05:25:00      -33.554      -13.128       -2.628       56.200       31.058       25.313     3158.385      964.630      640.769        0.303        0.238       36.031       28.552        0.628      328.876       -4.744      866.676
01/26/2022  05:26:00      -44.834       -6.812        1.578       40.723       28.759       22.879     1658.355      827.086      523.459        0.253        0.150       45.349       21.475        0.224      328.830       -4.821      866.682
01/26/2022  05:27:00      -53.352       -7.995        3.351       46.635       43.425       25.721     2174.791     1885.693      661.594        0.382        0.236       53.947       27.008        0.251      328.806       -4.858      866.678
01/26/2022  05:28:00      -36.185       -4.885        1.338       53.727       27.129       18.726     2886.545      735.974      350.654        0.265        0.199       36.514       20.882        0.327      328.856       -4.777      866.678
01/26/2022  05:29:00      -64.757       -1.100       -4.307       38.755       23.967       24.555     1501.911      574.397      602.932        0.345        0.134       64.766       22.202        0.118      328.845       -4.796      866.700
01/26/2022  05:30:00      -73.910        1.077       -6.560       51.965       40.672       25.373     2700.343     1654.194      643.766        0.525        0.250       73.918       25.847        0.122      328.829       -4.823      866.718
01/26/2022  05:31:00      -50.142       -2.623        0.679       56.905       36.598       25.887     3238.196     1339.442      670.151        0.388        0.262       50.210       29.836        0.353      328.780       -4.902      866.732
01/26/2022  05:32:00      -65.312       -1.874       -8.064       70.357       39.749       27.574     4950.137     1579.977      760.334        0.581        0.365       65.339       34.335        0.276      328.819       -4.836      866.747
01/26/2022  05:33:00     -141.967        0.387      -16.292       35.832       32.635       27.237     1283.968     1065.017      741.842        1.175        0.155      141.967       21.405        0.023      328.848       -4.790      866.762
01/26/2022  05:34:00     -165.061        6.787      -19.102       39.407       46.391       25.524     1552.917     2152.162      651.477        1.601        0.218      165.200       18.778        0.013      328.770       -4.919      866.774
01/26/2022  05:35:00     -100.225       17.643        3.767       67.190       32.172       26.807     4514.508     1035.011      718.636        0.832        0.313      101.766       32.636        0.103      328.699       -5.035      866.780
01/26/2022  05:36:00      -57.523        1.901       -4.182       56.813       38.031       24.654     3227.743     1446.375      607.842        0.431        0.264       57.555       25.828        0.201      328.798       -4.872      866.784
01/26/2022  05:37:00      -74.052        3.800       -0.735       60.056       45.524       25.713     3606.747     2072.433      661.163        0.592        0.317       74.149       21.597        0.085      328.805       -4.860      866.797
01/26/2022  05:38:00      -45.395        2.007        0.594       59.472       29.643       19.010     3536.877      878.711      361.399        0.342        0.239       45.440       18.208        0.161      328.858       -4.774      866.792
01/26/2022  05:39:00     -104.838       -5.554       -1.912       51.243       29.848       19.705     2625.822      890.913      388.276        0.746        0.195      104.985       22.264        0.045      328.915       -4.681      866.786
01/26/2022  05:40:00      -70.302        1.206       -3.841       54.590       40.241       22.512     2980.117     1619.353      506.806        0.503        0.255       70.312       18.254        0.067      328.966       -4.598      866.760
01/26/2022  05:41:00     -110.861       -2.411       -6.060       55.806       37.676       24.398     3114.296     1419.462      595.283        0.873        0.256      110.887       22.270        0.040      328.959       -4.610      866.743
01/26/2022  05:42:00     -132.547       26.132      -10.916       32.190       29.250       21.984     1036.194      855.587      483.306        1.037        0.119      135.098       13.933        0.011      328.910       -4.689      866.712
01/26/2022  05:43:00      -32.083        0.072       -3.597       49.002       26.177       28.961     2401.229      685.211      838.747        0.248        0.196       32.083       27.278        0.723      328.971       -4.590      866.704
01/26/2022  05:44:00      -54.940       -8.516        4.891       52.927       34.766       29.924     2801.312     1208.692      895.427        0.401        0.245       55.596       27.545        0.245      328.987       -4.564      866.704
01/26/2022  05:45:00      -76.114       -4.510      -10.055       60.569       34.668       27.815     3668.644     1201.858      773.688        0.578        0.282       76.248       30.503        0.160      328.949       -4.626      866.731
01/26/2022  05:46:00      -43.490       -5.214        2.971       39.426       24.593       23.207     1554.432      604.824      538.566        0.231        0.135       43.802       20.606        0.221      328.933       -4.652      866.752
01/26/2022  05:47:00      -66.124      -16.724       -1.477       50.321       32.723       22.222     2532.216     1070.813      493.821        0.437        0.205       68.207       22.406        0.108      329.048       -4.463      866.751
01/26/2022  05:48:00      -49.627       -9.799       -2.997       46.708       27.726       21.250     2181.602      768.736      451.543        0.298        0.170       50.585       19.103        0.143      329.087       -4.401      866.745
01/26/2022  05:49:00      -27.469        0.429       -6.958       38.078       24.108       19.461     1449.925      581.189      378.712        0.161        0.120       27.473       20.173        0.539      329.066       -4.434      866.734
01/26/2022  05:50:00      -66.007      -14.377       -8.477       53.379       27.332       20.689     2849.269      747.055      428.036        0.433        0.201       67.555       12.745        0.036      329.097       -4.384      866.724
01/26/2022  05:51:00      -39.725        3.077        1.298       41.587       27.485       16.095     1729.496      755.400      259.040        0.217        0.137       39.844       10.276        0.067      328.943       -4.634      866.722
01/26/2022  05:52:00      -26.321      -16.867       -4.651       36.548       20.541       18.244     1335.739      421.931      332.834        0.154        0.105       31.262       20.554        0.432      329.015       -4.517      866.722
01/26/2022  05:53:00      -76.553       15.316       -9.930       33.147       20.234       14.859     1098.730      409.427      220.781        0.396        0.086       78.070       14.738        0.036      328.930       -4.657      866.723
01/26/2022  05:54:00      -52.682       -4.504       -5.805       33.271       26.620       24.449     1106.965      708.609      597.751        0.262        0.121       52.874       21.542        0.166      328.940       -4.641      866.730
01/26/2022  05:55:00      -21.964       -1.989       -1.571       20.506       22.728       16.509      420.486      516.543      272.532        0.085        0.060       22.054       14.043        0.405      328.923       -4.669      866.756
01/26/2022  05:56:00      -29.369       24.508       -4.095       22.946       14.869       11.404      526.540      221.086      130.044        0.118        0.044       38.252        9.400        0.060      328.912       -4.687      866.788
01/26/2022  05:57:00      -23.088        0.165      -12.490       32.983       15.672       10.007     1087.898      245.607      100.141        0.106        0.072       23.089        9.340        0.164      328.957       -4.612      866.825
01/26/2022  05:58:00       -0.854      -10.347       -8.256       19.658       20.044       14.402      386.436      401.755      207.419        0.059        0.050       10.382        8.388        0.653      328.909       -4.691      866.854
01/26/2022  05:59:00      -26.335       -8.874       -3.776       38.516       19.354       15.441     1483.516      374.580      238.437        0.144        0.105       27.790       19.610        0.498      328.897       -4.710      866.881
01/26/2022  06:00:00      -54.649       -2.295       -6.842       26.178       20.169       16.617      685.294      406.774      276.129        0.220        0.068       54.697       14.540        0.071      328.878       -4.741      866.877
01/26/2022  06:01:00      -37.914        2.517        2.647       29.807       23.359       15.525      888.469      545.638      241.038        0.156        0.084       37.997       16.823        0.196      328.933       -4.652      866.864
01/26/2022  06:02:00      -36.983       -4.379       -3.787       63.729       19.610       22.922     4061.364      384.567      525.407        0.319        0.249       37.241       26.311        0.499      328.860       -4.770      866.851
01/26/2022  06:03:00      -37.565       -6.820       -2.026       38.416       32.439       23.633     1475.763     1052.297      558.533        0.227        0.154       38.179       21.952        0.331      328.734       -4.975      866.835
01/26/2022  06:04:00     -103.359      -14.984      -10.393       74.835       33.887       22.706     5600.252     1148.345      515.566        0.914        0.363      104.440       20.016        0.037      328.751       -4.950      866.832
01/26/2022  06:05:00      -94.456       -1.470      -14.956       53.091       37.562       28.429     2818.650     1410.870      808.183        0.709        0.252       94.468       22.994        0.059      328.683       -5.060      866.843
01/26/2022  06:06:00      -53.543       -2.777      -14.553       51.999       44.401       34.473     2703.906     1971.409     1188.354        0.447        0.293       53.615       17.843        0.111      328.564       -5.255      866.865
01/26/2022  06:07:00     -121.587      -24.917      -32.401       62.468       32.323       27.232     3902.292     1044.781      741.598        1.107        0.284      124.114       21.465        0.030      328.611       -5.176      866.889
01/26/2022  06:08:00      -86.005      -11.538       -5.740       43.312       46.040       29.834     1875.911     2119.702      890.076        0.622        0.244       86.775       21.582        0.062      328.608       -5.181      866.905
01/26/2022  06:09:00      -48.589       18.619        1.941       41.167       22.505       17.484     1694.681      506.490      305.702        0.261        0.125       52.034       21.310        0.168      328.499       -5.360      866.915
01/26/2022  06:10:00      -19.260      -13.719       -8.200       18.208       25.064       12.350      331.533      628.225      152.529        0.087        0.056       23.646        8.923        0.142      328.653       -5.109      866.910
01/26/2022  06:11:00      -75.021      -18.075      -11.954       29.196       22.368       19.273      852.415      500.324      371.445        0.391        0.086       77.167       11.546        0.022      328.727       -4.989      866.897
01/26/2022  06:12:00      -34.267      -13.788       -1.389       30.793       28.588       20.549      948.203      817.276      422.241        0.178        0.109       36.937       13.927        0.142      328.734       -4.977      866.878
01/26/2022  06:13:00      -23.253      -15.190        3.296       26.312       24.967       18.147      692.296      623.342      329.310        0.121        0.082       27.775       13.555        0.238      328.783       -4.896      866.864
01/26/2022  06:14:00      -53.954      -10.279       -6.250       29.065       35.465       18.029      844.789     1257.795      325.035        0.274        0.121       54.925        7.939        0.021      328.807       -4.858      866.863
01/26/2022  06:15:00      -70.029        0.814      -12.918       32.394       31.977       20.777     1049.348     1022.521      431.665        0.379        0.125       70.033       10.265        0.021      328.720       -5.000      866.864
01/26/2022  06:16:00      -53.935      -12.243       -9.248       37.097       32.116       20.594     1376.188     1031.422      424.097        0.299        0.142       55.307       20.030        0.131      328.739       -4.969      866.875
01/26/2022  06:17:00      -44.105       -0.211       -2.373       41.429       30.303       26.521     1716.377      918.301      703.353        0.264        0.167       44.105       25.900        0.345      328.633       -5.142      866.899
01/26/2022  06:18:00      -39.326        8.471        0.681       34.600       29.282       20.503     1197.131      857.444      420.386        0.205        0.124       40.228       16.925        0.177      328.614       -5.172      866.924
01/26/2022  06:19:00      -48.203        6.258      -14.946       33.289       12.748       11.596     1108.158      162.517      134.456        0.200        0.070       48.608       13.076        0.072      328.601       -5.191      866.952
01/26/2022  06:20:00       -5.491       10.194       -8.794       24.612       22.616       16.498      605.744      511.498      272.169        0.080        0.069       11.579       14.620        1.594      328.641       -5.128      866.967
01/26/2022  06:21:00      -38.447       15.597       -9.624       35.948       30.791       13.228     1292.259      948.058      174.984        0.211        0.121       41.490       13.106        0.100      328.584       -5.221      866.971
01/26/2022  06:22:00      -46.157        9.640       -4.660       30.786       27.005       14.716      947.788      729.260      216.573        0.207        0.095       47.153        8.257        0.031      328.621       -5.162      866.971
01/26/2022  06:23:00      -30.085       -6.289       -8.888       33.133       23.484       17.948     1097.763      551.476      322.147        0.150        0.099       30.735       17.068        0.308      328.620       -5.163      866.963
01/26/2022  06:24:00        0.590       -1.983        2.275       22.218       14.980       16.300      493.628      224.415      265.696        0.050        0.049        2.069        9.538       21.244      328.581       -5.226      866.957
01/26/2022  06:25:00       -5.610       -4.042        0.515       32.943       21.169       21.875     1085.267      448.111      478.532        0.103        0.101        6.914       19.865        8.255      328.522       -5.322      866.949
01/26/2022  06:26:00       -4.055       -2.047        0.516       14.803       11.248       12.788      219.133      126.510      163.529        0.026        0.025        4.542        8.844        3.791      328.592       -5.208      866.958
01/26/2022  06:27:00       -8.001        2.988       -2.359       14.499       15.069       11.730      210.230      227.077      137.596        0.033        0.029        8.541        7.384        0.748      328.634       -5.139      866.963
01/26/2022  06:28:00      -12.595      -10.159       -2.120       14.243       10.799       10.881      202.866      116.623      118.407        0.035        0.022       16.181        6.925        0.183      328.663       -5.094      866.968
01/26/2022  06:29:00      -21.353       -6.468       -3.757       17.236       14.328       12.415      297.076      205.300      154.128        0.058        0.033       22.311        7.501        0.113      328.637       -5.134      866.988
01/26/2022  06:30:00      -17.561       10.051        3.546       21.477       17.260       11.457      461.262      297.925      131.273        0.066        0.045       20.234       10.391        0.264      328.608       -5.183      867.009
01/26/2022  06:31:00        2.147      -12.791        0.677       28.577       22.075       13.912      816.658      487.289      193.532        0.083        0.075       12.969       13.060        1.014      328.598       -5.197      867.033
01/26/2022  06:32:00        7.004       -4.990       -9.263       15.088       16.153       14.190      227.657      260.934      201.348        0.042        0.034        8.599        9.257        1.159      328.623       -5.158      867.051
01/26/2022  06:33:00       10.374       -2.869       -2.954       13.581       14.065       14.299      184.444      197.826      204.465        0.036        0.029       10.763       10.522        0.956      328.571       -5.243      867.071
01/26/2022  06:34:00       -5.816      -11.051       -1.491       13.170       18.932       11.823      173.443      358.424      139.785        0.041        0.034       12.488        7.164        0.329      328.634       -5.140      867.093
01/26/2022  06:35:00       -3.604        0.546       -2.329       21.494       18.943       13.946      462.004      358.824      194.485        0.052        0.051        3.645       12.135       11.084      328.530       -5.309      867.118
01/26/2022  06:36:00      -11.859       -8.375        0.455       20.007       17.970       15.736      400.297      322.932      247.612        0.059        0.049       14.518       10.572        0.530      328.677       -5.069      867.132
01/26/2022  06:37:00        0.084       -9.757        6.862        8.812       13.289       12.730       77.657      176.589      162.059        0.028        0.021        9.757        6.156        0.398      328.518       -5.328      867.144
01/26/2022  06:38:00       -5.015        0.501       -5.198       10.951       11.419       11.427      119.927      130.398      130.577        0.022        0.019        5.040        6.003        1.418      328.480       -5.391      867.157
01/26/2022  06:39:00      -29.579       14.647        1.074       24.355       14.125       12.713      593.145      199.526      161.618        0.102        0.048       33.007       13.515        0.168      328.412       -5.503      867.177
01/26/2022  06:40:00      -21.750        8.331      -10.784       20.388       15.770       12.314      415.662      248.688      151.629        0.074        0.041       23.291        5.353        0.053      328.490       -5.373      867.198
01/26/2022  06:41:00      -34.876       47.136       -6.804       13.469       19.938        7.286      181.411      397.528       53.088        0.206        0.032       58.635        6.615        0.013      328.436       -5.465      867.203
01/26/2022  06:42:00      -51.052       43.469      -14.080       12.874       13.198       12.909      165.748      174.193      166.651        0.260        0.025       67.051        9.445        0.020      328.434       -5.466      867.207
01/26/2022  06:43:00      -59.641       20.427      -10.562       18.478       16.993       12.537      341.440      288.771      157.183        0.244        0.039       63.042        5.753        0.008      328.493       -5.369      867.199
01/26/2022  06:44:00      -56.505       11.929       -7.450       17.261       19.339       15.313      297.953      374.004      234.488        0.215        0.045       57.751       13.085        0.051      328.446       -5.447      867.193
01/26/2022  06:45:00      -17.811       -6.969       -9.088       16.331       12.147       12.456      266.697      147.544      155.144        0.051        0.028       19.126        4.735        0.061      328.519       -5.328      867.194
01/26/2022  06:46:00      -17.342        3.554       -4.254       17.101       12.490        8.906      292.459      156.007       79.321        0.043        0.026       17.703        9.815        0.307      328.572       -5.242      867.208
01/26/2022  06:47:00       -8.145       -3.783        1.318       13.308       16.562        7.971      177.099      274.311       63.537        0.030        0.026        8.981        5.432        0.366      328.559       -5.262      867.234
01/26/2022  06:48:00      -48.596       16.693      -11.097       12.569       15.569        8.835      157.981      242.405       78.054        0.162        0.024       51.383        4.452        0.008      328.649       -5.115      867.259
01/26/2022  06:49:00       -9.793        0.909       -5.236       10.578        8.721        6.349      111.890       76.062       40.309        0.018        0.011        9.835        3.417        0.121      328.620       -5.161      867.288
01/26/2022  06:50:00      -12.449       20.924      -13.871       11.031        8.039        7.306      121.681       64.618       53.374        0.051        0.012       24.348        5.429        0.050      328.592       -5.207      867.316
01/26/2022  06:51:00        7.337       18.409       -3.140       10.231       13.034        8.487      104.671      169.893       72.031        0.037        0.017       19.817        3.346        0.029      328.594       -5.205      867.337
01/26/2022  06:52:00       32.581       33.186       -2.656       10.458        7.227        6.330      109.376       52.228       40.063        0.119        0.010       46.506        5.528        0.014      328.651       -5.111      867.350
01/26/2022  06:53:00       26.198       27.482        0.734       18.154        9.856        6.735      329.560       97.149       45.356        0.096        0.024       37.969        5.363        0.020      328.666       -5.088      867.359
01/26/2022  06:54:00        1.902        0.495        2.424        9.894       14.185        7.642       97.895      201.210       58.396        0.018        0.018        1.965        4.145        4.449      328.660       -5.097      867.361
01/26/2022  06:55:00      -18.250       15.022        0.105       17.556       16.114       10.493      308.221      259.646      110.099        0.062        0.034       23.637        7.296        0.095      328.534       -5.303      867.357
01/26/2022  06:56:00      -18.535       11.370       -4.770       16.666       10.329       11.878      277.759      106.697      141.095        0.051        0.026       21.745        7.232        0.111      328.503       -5.354      867.349
01/26/2022  06:57:00      -13.229       16.166       -8.597       16.630        8.991       11.061      276.556       80.832      122.354        0.049        0.024       20.889        4.855        0.054      328.522       -5.322      867.348
01/26/2022  06:58:00      -30.446       15.845      -11.925       18.681        8.681        9.122      348.975       75.364       83.215        0.091        0.025       34.323       10.684        0.097      328.554       -5.269      867.342
01/26/2022  06:59:00      -62.291       14.568       -9.144       14.448       17.424       13.043      208.752      303.610      170.131        0.243        0.034       63.972       10.065        0.025      328.456       -5.430      867.341
01/26/2022  07:00:00      -65.268       24.249       -7.885       30.788       27.254       18.816      947.919      742.786      354.033        0.348        0.102       69.627       14.912        0.046      328.366       -5.575      867.348
01/26/2022  07:01:00      -94.781       25.356       -5.685       22.163       23.236       14.135      491.193      539.912      199.793        0.544        0.062       98.115       10.252        0.011      328.337       -5.625      867.369
01/26/2022  07:02:00     -101.340       20.369      -13.243       21.434       13.423       15.505      459.414      180.174      240.419        0.587        0.044      103.367       12.962        0.016      328.333       -5.630      867.396
01/26/2022  07:03:00     -102.039       25.737      -10.579       25.425       16.530       14.281      646.424      273.249      203.939        0.615        0.056      105.235       14.399        0.019      328.307       -5.674      867.415
01/26/2022  07:04:00      -85.219       17.579       -0.433       29.632       21.610       15.732      878.084      467.011      247.499        0.458        0.080       87.013       13.212        0.023      328.326       -5.641      867.432
01/26/2022  07:05:00      -65.136       21.522        3.154       24.352       18.763       17.033      593.026      352.052      290.134        0.298        0.062       68.599       16.369        0.057      328.300       -5.685      867.442
01/26/2022  07:06:00      -46.346       -3.292       -4.944       27.100       26.377       17.663      734.436      695.740      311.977        0.196        0.087       46.462       10.167        0.048      328.495       -5.365      867.447
01/26/2022  07:07:00      -23.599        5.711       -2.355       33.438       24.584       14.269     1118.075      604.357      203.601        0.126        0.096       24.280       11.757        0.234      328.514       -5.335      867.460
01/26/2022  07:08:00      -42.689       -9.063       -2.407       29.828       25.600       22.389      889.711      655.378      501.268        0.198        0.102       43.640       14.118        0.105      328.499       -5.359      867.467
01/26/2022  07:09:00      -31.100       -2.942       -0.039       37.994       29.532       19.389     1443.536      872.165      375.930        0.183        0.135       31.239       19.263        0.380      328.496       -5.365      867.484
01/26/2022  07:10:00      -36.268        3.140       -4.380       33.572       28.842       21.814     1127.087      831.860      475.841        0.189        0.122       36.404       18.624        0.262      328.482       -5.388      867.505
01/26/2022  07:11:00       -8.964       -4.562       -7.154       30.716       29.480       19.930      943.474      869.042      397.200        0.118        0.110       10.058       13.475        1.795      328.442       -5.455      867.522
01/26/2022  07:12:00      -19.923       10.524        0.950       37.744       24.015       19.770     1424.631      576.740      390.838        0.145        0.120       22.532       10.754        0.228      328.434       -5.466      867.545
01/26/2022  07:13:00        8.803        0.821       -2.618       32.611       25.848       24.171     1063.498      668.101      584.232        0.120        0.116        8.841       18.001        4.146      328.418       -5.492      867.544
01/26/2022  07:14:00      -19.969      -13.020      -15.245       48.574       31.134       26.641     2359.389      969.328      709.761        0.242        0.202       23.839       17.527        0.541      328.360       -5.587      867.543
01/26/2022  07:15:00      -59.940        3.609        6.604       55.622       38.100       26.856     3093.788     1451.625      721.236        0.446        0.263       60.048       30.092        0.251      328.335       -5.626      867.531
01/26/2022  07:16:00     -100.088        6.301       -9.025       42.407       37.459       24.966     1798.319     1403.206      623.279        0.698        0.191      100.286       13.332        0.018      328.352       -5.601      867.517
01/26/2022  07:17:00      -52.344        3.526       -1.643       43.419       34.695       28.546     1885.200     1203.775      814.876        0.333        0.195       52.463       27.908        0.283      328.330       -5.634      867.503
01/26/2022  07:18:00      -71.469       -0.816       -4.075       43.665       49.150       24.059     1906.612     2415.709      578.837        0.501        0.245       71.474       21.840        0.093      328.314       -5.662      867.495
01/26/2022  07:19:00      -58.001      -17.979      -11.106       41.579       22.416       19.234     1728.848      502.459      369.952        0.321        0.130       60.724       14.834        0.060      328.406       -5.513      867.495
01/26/2022  07:20:00      -83.044        9.395       -6.828       43.109       26.631       19.430     1858.382      709.198      377.509        0.499        0.147       83.574       12.526        0.022      328.326       -5.641      867.505
01/26/2022  07:21:00      -40.557        1.833        1.290       42.344       41.638       23.855     1793.025     1733.709      569.059        0.287        0.205       40.598       21.659        0.285      328.312       -5.663      867.491
01/26/2022  07:22:00      -36.228       -8.091       -6.306       22.211       27.442       18.401      493.332      753.073      338.608        0.150        0.079       37.121       13.396        0.130      328.437       -5.463      867.489
01/26/2022  07:23:00      -34.494       17.343      -10.416       22.615       19.632       17.888      511.416      385.414      319.980        0.141        0.061       38.608        3.884        0.010      328.386       -5.544      867.492
01/26/2022  07:24:00      -75.970       18.900      -22.652       16.699       22.386       15.405      278.850      501.129      237.324        0.383        0.051       78.286        8.699        0.012      328.358       -5.588      867.480
01/26/2022  07:25:00      -72.967        4.002      -15.189       44.493       23.155       16.484     1979.667      536.140      271.738        0.418        0.139       73.077       22.118        0.092      328.416       -5.493      867.466
01/26/2022  07:26:00      -49.714       18.630        0.812       38.588       31.168       26.114     1489.025      971.444      681.921        0.298        0.157       53.090       19.977        0.142      328.429       -5.474      867.448
01/26/2022  07:27:00      -42.205       10.202       -6.755       35.142       27.822       20.783     1234.995      774.089      431.920        0.219        0.122       43.420       14.881        0.117      328.508       -5.345      867.434
01/26/2022  07:28:00      -48.613        9.783       -8.813       39.381       27.063       20.246     1550.898      732.385      409.912        0.261        0.135       49.587       20.551        0.172      328.499       -5.360      867.438
01/26/2022  07:29:00      -59.760       -5.066       -8.097       34.337       29.440       19.818     1179.021      866.721      392.770        0.305        0.122       59.975       10.763        0.032      328.618       -5.165      867.447
01/26/2022  07:30:00      -61.947        0.887       -1.583       40.741       28.719       20.926     1659.846      824.766      437.901        0.338        0.146       61.953       14.403        0.054      328.654       -5.107      867.461
01/26/2022  07:31:00      -28.942        3.739        4.515       32.789       20.659       16.911     1075.135      426.800      285.979        0.133        0.089       29.183       17.007        0.340      328.546       -5.284      867.473
01/26/2022  07:32:00      -46.570       11.549       -3.279       38.580       15.933       21.640     1488.417      253.851      468.306        0.226        0.111       47.981       19.333        0.162      328.547       -5.282      867.486
01/26/2022  07:33:00      -15.103       15.041       -0.426       26.992       23.423       15.989      728.571      548.618      255.660        0.099        0.077       21.315        9.532        0.200      328.577       -5.233      867.492
01/26/2022  07:34:00      -49.118        0.467        0.238       32.303       31.110       19.476     1043.487      967.809      379.330        0.240        0.120       49.121        8.919        0.033      328.615       -5.172      867.489
01/26/2022  07:35:00     -121.745       27.897       -9.357       70.961       30.870       21.459     5035.447      952.927      460.472        1.107        0.322      124.900       34.613        0.077      328.489       -5.376      867.480
01/26/2022  07:36:00      -84.091       20.249        6.073       53.482       34.984       24.214     2860.281     1223.847      586.311        0.609        0.234       86.494       24.443        0.080      328.515       -5.335      867.479
01/26/2022  07:37:00      -51.867        4.374        0.810       57.925       44.373       31.681     3355.266     1968.986     1003.700        0.452        0.316       52.051       30.488        0.343      328.632       -5.142      867.483
01/26/2022  07:38:00      -39.979       13.922        0.952       53.370       28.520       24.326     2848.309      813.371      591.740        0.302        0.213       42.334       24.882        0.345      328.647       -5.119      867.495
01/26/2022  07:39:00      -63.571        0.382       -8.930       48.689       34.922       22.031     2370.659     1219.517      485.369        0.410        0.204       63.572       17.891        0.079      328.785       -4.893      867.514
01/26/2022  07:40:00      -53.001       -5.235      -17.310       36.735       31.801       17.409     1349.484     1011.323      303.075        0.290        0.133       53.259       12.384        0.054      328.890       -4.722      867.518
01/26/2022  07:41:00      -50.225       -1.204        0.443       37.569       29.994       20.501     1411.442      899.655      420.288        0.263        0.137       50.240       16.827        0.112      328.912       -4.685      867.526
01/26/2022  07:42:00      -58.049       10.148       -5.964       27.230       20.327       18.836      741.450      413.173      354.788        0.251        0.075       58.929       10.241        0.030      328.888       -4.726      867.522
01/26/2022  07:43:00      -32.711      -26.900       -3.498       32.466       52.429       26.712     1054.037     2748.797      713.520        0.316        0.226       42.351       16.390        0.150      328.928       -4.660      867.527
01/26/2022  07:44:00      -56.245       -9.710        1.446       38.832       31.949       31.991     1507.898     1020.762     1023.421        0.341        0.178       57.077       19.881        0.121      328.883       -4.734      867.534
01/26/2022  07:45:00     -109.442      -13.703      -26.113       59.839       45.597       33.076     3580.718     2079.109     1094.043        0.980        0.338      110.297       21.113        0.037      328.628       -5.150      867.539
01/26/2022  07:46:00     -174.357        3.174      -20.656       46.055       47.184       33.976     2121.069     2226.340     1154.368        1.817        0.275      174.386        9.705        0.003      328.576       -5.235      867.538
01/26/2022  07:47:00     -134.069       -8.071       -9.086       54.594       46.681       30.563     2980.456     2179.079      934.106        1.211        0.305      134.311       23.354        0.030      328.576       -5.235      867.543
01/26/2022  07:48:00     -104.941       -5.025       -6.903       63.947       35.907       32.908     4089.201     1289.308     1082.950        0.877        0.323      105.062       24.118        0.053      328.646       -5.119      867.561
01/26/2022  07:49:00      -74.106        6.404        1.604       64.193       38.585       26.601     4120.700     1488.765      707.590        0.593        0.316       74.382       20.984        0.080      328.714       -5.010      867.556
01/26/2022  07:50:00      -32.379      -24.055       -2.603       30.392       42.009       25.119      923.699     1764.754      630.970        0.248        0.166       40.337       10.539        0.068      328.732       -4.979      867.554
01/26/2022  07:51:00      -44.776       -8.654       -5.462       30.322       45.954       28.501      919.441     2111.738      812.299        0.298        0.192       45.605       23.768        0.272      328.733       -4.978      867.553
01/26/2022  07:52:00      -16.584       -4.428        0.082       38.316       22.797       27.174     1468.130      519.696      738.425        0.151        0.136       17.165       19.119        1.241      328.713       -5.011      867.551
01/26/2022  07:53:00      -54.793        7.438        8.668       46.876       36.305       30.068     2197.376     1318.055      904.086        0.378        0.221       55.295       27.119        0.241      328.848       -4.790      867.545
01/26/2022  07:54:00      -49.231       -4.796      -12.368       48.518       17.150       19.256     2353.990      294.107      370.812        0.281        0.151       49.464        8.379        0.029      328.787       -4.890      867.545
01/26/2022  07:55:00      -50.867        5.139       -6.083       44.743       22.750       18.767     2001.904      517.568      352.195        0.276        0.144       51.126       20.316        0.158      328.845       -4.795      867.533
01/26/2022  07:56:00      -49.293       12.984       -9.631       22.005       18.167        9.590      484.206      330.039       91.970        0.180        0.045       50.974        6.511        0.016      328.770       -4.918      867.536
01/26/2022  07:57:00      -35.252       -9.618       -0.314       32.523       19.200       16.851     1057.727      368.641      283.963        0.152        0.086       36.540       18.824        0.265      328.952       -4.622      867.546
01/26/2022  07:58:00      -11.736       13.786       -2.521       11.651       14.338       11.470      135.745      205.565      131.551        0.040        0.024       18.105        7.546        0.174      329.126       -4.337      867.551
01/26/2022  07:59:00       -2.376       12.601       -3.687        5.293       12.318        6.696       28.020      151.739       44.833        0.020        0.011       12.824        3.769        0.086      329.007       -4.531      867.557
01/26/2022  08:00:00       -0.764        6.937       -2.588        5.514        8.071       11.502       30.404       65.141      132.296        0.014        0.011        6.979        5.528        0.627      329.234       -4.160      867.562
01/26/2022  08:01:00        0.370      -21.383       -3.284       12.432       21.325       17.651      154.562      454.741      311.564        0.069        0.046       21.386        8.603        0.162      329.346       -3.977      867.561
01/26/2022  08:02:00       18.164       -1.155      -10.443       21.592       22.058       18.294      466.195      486.552      334.677        0.086        0.064       18.201       12.590        0.478      329.405       -3.881      867.555
01/26/2022  08:03:00       13.988       44.798       16.565       24.634       28.661       22.632      606.852      821.476      512.193        0.221        0.097       46.931       11.887        0.064      329.127       -4.336      867.558
01/26/2022  08:04:00      -12.774       28.919        3.211       27.361       20.711       17.002      748.607      428.966      289.082        0.124        0.073       31.615        7.219        0.052      329.184       -4.242      867.566
01/26/2022  08:05:00      -42.039       38.570        1.715       24.333       22.183       14.016      592.087      492.088      196.452        0.227        0.064       57.052        6.920        0.015      329.112       -4.359      867.582
01/26/2022  08:06:00       -6.273       13.028       -7.911       15.159       14.995       15.406      229.786      224.855      237.349        0.048        0.035       14.460       10.034        0.482      329.144       -4.307      867.603
01/26/2022  08:07:00       -3.027       -7.627       -6.249       13.247       13.840       11.257      175.491      191.535      126.730        0.030        0.025        8.206        5.265        0.412      329.209       -4.202      867.621
01/26/2022  08:08:00      -22.653        8.994      -13.440       10.989       11.508       15.423      120.753      132.443      237.883        0.063        0.025       24.373       12.017        0.243      329.082       -4.408      867.637
01/26/2022  08:09:00       25.003       20.209       -6.019       35.854       21.064        9.119     1285.475      443.694       83.148        0.144        0.091       32.149       16.406        0.260      329.334       -3.996      867.648
01/26/2022  08:10:00       58.294       33.943      -20.304       17.968       18.071       14.212      322.861      326.578      201.982        0.291        0.043       67.457        7.190        0.011      329.212       -4.197      867.663
01/26/2022  08:11:00       62.736       26.457      -22.100       19.048       22.252       15.438      362.820      495.158      238.329        0.311        0.055       68.086        3.536        0.003      329.349       -3.972      867.679
01/26/2022  08:12:00       33.286       -8.691      -17.693       36.662       32.807       21.186     1344.088     1076.278      448.847        0.218        0.143       34.402       16.642        0.234      329.496       -3.733      867.686
01/26/2022  08:13:00       35.589      -10.253      -23.114       28.168       40.221       18.694      793.460     1617.723      349.463        0.233        0.138       37.036       14.996        0.164      329.619       -3.531      867.699
01/26/2022  08:14:00       36.774       26.594       -7.024       22.444       29.998       23.203      503.711      899.878      538.370        0.203        0.097       45.382        8.134        0.032      329.633       -3.508      867.702
01/26/2022  08:15:00       13.530       28.248      -15.061       23.725       26.638       21.467      562.858      709.562      460.814        0.147        0.087       31.321       14.405        0.212      329.599       -3.563      867.719
01/26/2022  08:16:00       60.761       53.842       -4.457       33.731       34.533       13.662     1137.750     1192.496      186.638        0.456        0.126       81.184       19.253        0.056      329.426       -3.847      867.719
01/26/2022  08:17:00       73.482       45.918      -16.591       16.422       16.882       12.932      269.691      284.997      167.234        0.425        0.036       86.649        5.736        0.004      329.319       -4.022      867.719
01/26/2022  08:18:00       31.465       12.669      -11.714       23.822       43.852       16.087      567.500     1923.001      258.776        0.202        0.137       33.920       10.124        0.089      329.608       -3.550      867.720
01/26/2022  08:19:00       52.855       61.590       -0.956       21.717       26.213       17.031      471.641      687.106      290.039        0.402        0.072       81.161        5.080        0.004      329.576       -3.600      867.722
01/26/2022  08:20:00       29.110       46.471       -2.483       25.119       21.491       20.242      630.941      461.876      409.744        0.226        0.075       54.835        4.846        0.008      329.718       -3.367      867.722
01/26/2022  08:21:00       30.797       -9.376      -16.870       33.895       39.116       19.893     1148.904     1530.043      395.721        0.220        0.154       32.193       18.793        0.341      329.766       -3.291      867.710
01/26/2022  08:22:00       27.917       -5.643      -14.656       22.573       28.887       16.809      509.539      834.430      282.541        0.133        0.081       28.482       10.056        0.125      329.676       -3.438      867.705
01/26/2022  08:23:00        9.326       -8.946      -12.316       19.580       25.527       20.053      383.366      651.627      402.127        0.088        0.072       12.923       11.014        0.726      329.943       -3.001      867.705
01/26/2022  08:24:00       11.073      -26.761      -14.617       26.101       31.702       21.400      681.278     1005.043      457.954        0.160        0.107       28.961        8.459        0.085      329.951       -2.987      867.708
01/26/2022  08:25:00       26.717      -32.978      -14.967       25.888       31.978       19.932      670.202     1022.578      397.270        0.206        0.105       42.442       14.605        0.118      330.079       -2.778      867.706
01/26/2022  08:26:00      -15.183      -47.328       -6.953       47.400       49.511       32.902     2246.775     2451.380     1082.559        0.415        0.289       49.704       28.122        0.320      329.914       -3.047      867.702
01/26/2022  08:27:00      -49.111      -12.816      -11.927       35.551       28.588       25.413     1263.850      817.263      645.826        0.272        0.136       50.755       19.249        0.144      329.858       -3.140      867.697
01/26/2022  08:28:00      -19.727      -58.378      -12.784       33.530       37.697       22.544     1124.244     1421.063      508.254        0.351        0.153       61.621       17.061        0.077      329.823       -3.196      867.692
01/26/2022  08:29:00      -44.438      -24.194       -8.801       26.681       32.805       21.445      711.894     1076.145      459.909        0.244        0.112       50.597       17.340        0.117      329.764       -3.294      867.699
01/26/2022  08:30:00      -20.190        1.541        0.078       22.609       22.613       26.189      511.188      511.351      685.848        0.106        0.085       20.248       14.476        0.511      329.814       -3.212      867.706
01/26/2022  08:31:00      -47.514       17.030       -7.339       33.370       28.014       18.931     1113.580      784.762      358.389        0.243        0.113       50.474       15.627        0.096      329.808       -3.222      867.725
01/26/2022  08:32:00      -10.840       -0.937      -11.508       25.104       23.421       19.101      630.220      548.544      364.864        0.090        0.077       10.880        9.063        0.694      329.904       -3.065      867.741
01/26/2022  08:33:00      -10.333        4.300      -13.526       38.109       36.083       15.291     1452.313     1302.010      233.807        0.165        0.149       11.192       10.364        0.858      329.890       -3.089      867.754
01/26/2022  08:34:00      -25.620       -7.830       -9.722       21.058       21.268       14.110      443.450      452.319      199.081        0.095        0.055       26.790        8.154        0.093      330.056       -2.815      867.759
01/26/2022  08:35:00      -13.501       -1.053       -4.595       10.419       10.349       11.294      108.561      107.092      127.556        0.027        0.017       13.542        5.085        0.141      330.157       -2.650      867.753
01/26/2022  08:36:00      -12.314       38.898      -10.655       27.813       15.045       20.312      773.537      226.347      412.598        0.160        0.071       40.801       12.256        0.090      329.901       -3.071      867.748
01/26/2022  08:37:00        1.719       26.499       -3.824       29.322       27.161       14.827      859.798      737.742      219.836        0.127        0.091       26.555       12.729        0.230      330.074       -2.786      867.747
01/26/2022  08:38:00      -26.925      -19.381       -3.409       22.526       25.775       18.167      507.431      664.375      330.054        0.131        0.075       33.175       15.468        0.217      330.254       -2.491      867.755
01/26/2022  08:39:00      -19.671       12.966        0.264       17.940       25.670       17.028      321.856      658.944      289.948        0.091        0.064       23.560       12.927        0.301      330.305       -2.406      867.761
01/26/2022  08:40:00        3.674       41.102        6.512       19.504       24.556       18.060      380.393      603.009      326.181        0.153        0.065       41.266        9.797        0.056      330.250       -2.498      867.772
01/26/2022  08:41:00       -8.796       28.836       -2.460       26.713       30.793       18.631      713.592      948.198      347.125        0.146        0.100       30.148       13.626        0.204      330.144       -2.671      867.783
01/26/2022  08:42:00        1.793      -14.954       -9.352       24.202       30.579       21.397      585.739      935.077      457.811        0.115        0.099       15.061       10.797        0.514      330.311       -2.396      867.783
01/26/2022  08:43:00      -13.368      -15.563      -20.362       27.892       23.762       21.739      777.965      564.644      472.592        0.133        0.091       20.516       15.390        0.563      330.299       -2.418      867.793
01/26/2022  08:44:00      -38.886      -16.291       -7.358       27.037       24.012       20.561      730.980      576.582      422.737        0.178        0.087       42.161        6.301        0.022      330.152       -2.658      867.791
01/26/2022  08:45:00      -13.156      -29.927      -21.567       26.811       27.070       22.402      718.852      732.783      501.834        0.174        0.098       32.691       10.085        0.095      330.275       -2.455      867.784
01/26/2022  08:46:00      -19.292      -16.980      -13.796       16.834       22.744       15.168      283.389      517.299      230.057        0.094        0.052       25.700        5.625        0.048      330.273       -2.459      867.778
01/26/2022  08:47:00        3.249      -13.733      -12.794       13.548       14.050       17.569      183.558      197.402      308.676        0.053        0.034       14.113        7.309        0.268      330.293       -2.428      867.774
01/26/2022  08:48:00       -9.169       -2.587      -12.746       40.373       22.578       16.448     1629.972      509.770      270.541        0.133        0.121        9.527       11.788        1.531      330.130       -2.695      867.776
01/26/2022  08:49:00      -26.060      -30.410      -13.671       34.392       34.885       20.515     1182.836     1216.958      420.849        0.231        0.141       40.049       12.959        0.105      330.346       -2.342      867.778
01/26/2022  08:50:00      -32.597      -31.283      -19.793       31.296       20.570       18.328      979.468      423.122      335.926        0.209        0.087       45.179       10.326        0.052      330.169       -2.629      867.785
01/26/2022  08:51:00      -17.748       25.315       -4.493       13.863       14.934       13.771      192.186      223.012      189.631        0.079        0.030       30.916        6.647        0.046      330.022       -2.870      867.792
01/26/2022  08:52:00      -10.870       19.577        3.210       13.493       10.876        8.267      182.072      118.280       68.341        0.044        0.018       22.392        7.002        0.098      330.160       -2.644      867.794
01/26/2022  08:53:00      -25.627        2.306       -5.664       23.796       20.823       15.487      566.270      433.615      239.860        0.097        0.062       25.731        9.018        0.123      330.158       -2.648      867.790
01/26/2022  08:54:00      -14.812        1.982      -11.887       14.104       14.510       13.831      198.924      210.541      191.309        0.048        0.030       14.945        7.350        0.242      330.348       -2.339      867.790
01/26/2022  08:55:00        0.014        5.151       -8.874       16.039       23.793       19.684      257.257      566.104      387.456        0.066        0.061        5.151       12.303        5.704      330.353       -2.329      867.806
01/26/2022  08:56:00      -11.177       11.722       -8.721       21.592       20.482       14.350      466.204      419.510      205.917        0.071        0.055       16.196        5.234        0.104      330.189       -2.599      867.795
01/26/2022  08:57:00      -16.676       13.342      -10.439       45.343       17.900       16.059     2055.953      320.419      257.888        0.160        0.132       21.356       21.476        1.011      330.260       -2.481      867.796
01/26/2022  08:58:00      -69.638       -9.289      -13.558       22.225       20.876       18.554      493.942      435.821      344.268        0.320        0.064       70.255       12.743        0.033      330.087       -2.765      867.802
01/26/2022  08:59:00      -20.847       30.933       -4.074       13.065       15.557        9.871      170.691      242.009       97.443        0.096        0.026       37.303        3.221        0.007      330.121       -2.710      867.815
01/26/2022  09:00:00      -50.047       33.358      -15.305       23.840       16.205       12.467      568.325      262.615      155.433        0.242        0.049       60.145        6.464        0.012      330.113       -2.723      867.814
01/26/2022  09:01:00      -26.095        3.858        0.434       32.179       20.379       15.770     1035.470      415.288      248.688        0.120        0.085       26.379       16.981        0.414      330.333       -2.360      867.823
01/26/2022  09:02:00      -10.558        5.200        1.744        8.361       12.188       11.895       69.910      148.541      141.485        0.025        0.018       11.769        7.168        0.371      330.561       -1.986      867.831
01/26/2022  09:03:00      -23.071        8.477       -3.506        9.451       11.561       10.166       89.324      133.661      103.357        0.047        0.016       24.579        7.155        0.085      330.359       -2.320      867.842
01/26/2022  09:04:00       -4.395        3.410       -2.622        8.885       13.984       15.326       78.943      195.556      234.872        0.027        0.025        5.563       11.445        4.233      330.755       -1.668      867.849
01/26/2022  09:05:00      -21.100        3.714       -5.801       13.495       28.434       10.839      182.121      808.472      117.481        0.080        0.055       21.424        6.734        0.099      330.447       -2.173      867.847
01/26/2022  09:06:00      -61.826        2.573      -16.345       24.152       13.157       13.513      583.324      173.115      182.608        0.252        0.047       61.879        5.481        0.008      330.343       -2.344      867.844
01/26/2022  09:07:00      -21.896       -9.209       -8.186       21.549       20.448       16.362      464.359      418.129      267.703        0.089        0.058       23.754        9.478        0.159      330.617       -1.895      867.848
01/26/2022  09:08:00       -4.379      -20.628       -6.922       20.291       23.160       15.794      411.724      536.405      249.445        0.084        0.060       21.087       12.085        0.328      330.806       -1.585      867.858
01/26/2022  09:09:00      -32.210       -8.910       -7.566       28.229       27.659       16.794      796.862      765.011      282.034        0.151        0.092       33.420        8.301        0.062      330.739       -1.696      867.866
01/26/2022  09:10:00      -48.456       -0.013      -12.270       18.861       10.902        9.532      355.746      118.852       90.856        0.153        0.028       48.456        6.329        0.017      330.396       -2.260      867.879
01/26/2022  09:11:00      -33.305      -23.435       -4.024       28.674       17.716       19.380      822.222      313.842      375.579        0.159        0.076       40.724       17.217        0.179      330.576       -1.962      867.892
01/26/2022  09:12:00      -58.681        3.978       -7.579       19.781       14.528       17.677      391.278      211.068      312.484        0.222        0.046       58.816       14.881        0.064      330.478       -2.125      867.904
01/26/2022  09:13:00      -46.428       17.409       -9.827       11.794       11.955        9.663      139.099      142.926       93.377        0.147        0.019       49.585        6.150        0.015      330.504       -2.082      867.912
01/26/2022  09:14:00      -14.979       10.090       -5.223       12.333        9.076        8.840      152.112       82.382       78.152        0.033        0.016       18.061        7.940        0.193      330.653       -1.836      867.914
01/26/2022  09:15:00      -21.648       10.883       -5.901       22.416       13.102        7.710      502.468      171.651       59.444        0.068        0.037       24.230        7.375        0.093      330.742       -1.690      867.918
01/26/2022  09:16:00       -9.300       12.570      -16.122       14.020       18.316       15.298      196.566      335.464      234.033        0.064        0.038       15.636        9.637        0.380      330.887       -1.451      867.918
01/26/2022  09:17:00      -37.559      -31.389       -9.887       21.561       16.050       14.506      464.872      257.602      210.426        0.171        0.047       48.948        8.404        0.029      330.881       -1.463      867.917
01/26/2022  09:18:00       -8.226        0.334      -11.108       30.278       19.252       23.768      916.742      370.622      564.895        0.102        0.093        8.233       18.765        5.196      331.028       -1.220      867.916
01/26/2022  09:19:00       18.294       -6.498      -29.813       36.132       38.640       27.868     1305.505     1493.043      776.650        0.242        0.179       19.413       12.169        0.393      331.129       -1.054      867.913
01/26/2022  09:20:00       29.408        4.198      -11.864       32.234       40.932       26.460     1039.055     1675.462      700.138        0.222        0.171       29.706       12.072        0.165      330.976       -1.305      867.906
01/26/2022  09:21:00       47.149      -36.226      -22.219       32.619       42.608       22.217     1064.016     1815.418      493.576        0.370        0.169       59.459       17.949        0.091      330.975       -1.307      867.895
01/26/2022  09:22:00       23.855       -8.547      -19.954       31.651       25.271       25.222     1001.763      638.629      636.126        0.166        0.114       25.340       17.227        0.462      331.182       -0.968      867.896
01/26/2022  09:23:00       30.282      -29.890      -22.732       39.019       39.026       26.789     1522.481     1523.012      717.648        0.304        0.188       42.549       18.879        0.197      331.092       -1.114      867.907
01/26/2022  09:24:00       32.475      -27.476      -18.824       30.831       39.430       26.713      950.529     1554.750      713.561        0.269        0.161       42.539       19.640        0.213      331.252       -0.852      867.913
01/26/2022  09:25:00       27.544       34.887        1.964       35.461       37.988       24.966     1257.456     1443.120      623.291        0.265        0.166       44.449       14.160        0.101      331.305       -0.766      867.917
01/26/2022  09:26:00       -8.928        8.082       -2.711       20.162       15.125       14.698      406.498      228.759      216.046        0.050        0.043       12.042       10.298        0.731      331.222       -0.901      867.915
01/26/2022  09:27:00       -2.104      -35.613      -14.981       25.912       48.906       23.582      671.412     2391.774      556.087        0.256        0.181       35.675       27.699        0.603      331.178       -0.974      867.916
01/26/2022  09:28:00        7.264        8.177        2.266       50.281       55.024       27.968     2528.163     3027.603      782.197        0.323        0.317       10.938       21.677        3.928      331.213       -0.916      867.916
01/26/2022  09:29:00        5.777       28.896      -17.603       42.468       30.638       23.145     1803.537      938.697      535.675        0.223        0.164       29.468       17.179        0.340      330.974       -1.310      867.913
01/26/2022  09:30:00      -48.227      -27.218      -10.821       30.490       29.245       20.288      929.656      855.245      411.584        0.269        0.110       55.377       12.852        0.054      331.184       -0.965      867.924
01/26/2022  09:31:00       67.955      -39.324      -29.699       37.783       59.479       29.504     1427.579     3537.723      870.508        0.644        0.292       78.513       13.464        0.029      331.324       -0.734      867.931
01/26/2022  09:32:00       58.808      -58.714      -38.746       25.689       51.495       29.475      659.949     2651.753      868.775        0.629        0.209       83.101       24.143        0.084      331.473       -0.488      867.939
01/26/2022  09:33:00      -11.474      -31.626      -25.349       65.725       52.629       28.107     4319.726     2769.823      789.996        0.483        0.394       33.643       36.832        1.199      331.447       -0.532      867.930
01/26/2022  09:34:00       19.488       -9.106      -22.819       51.395       39.721       28.664     2641.437     1577.746      821.625        0.301        0.252       21.510       21.144        0.966      331.647       -0.202      867.917
01/26/2022  09:35:00      -29.901        0.767       -9.418       55.132       27.464       23.535     3039.585      754.290      553.874        0.266        0.217       29.910       13.837        0.214      331.371       -0.657      867.902
01/26/2022  09:36:00      -45.807       -3.336       -7.307       26.152       20.463       22.449      683.909      418.749      503.967        0.188        0.080       45.928       11.078        0.058      331.463       -0.505      867.880
01/26/2022  09:37:00      -20.050        6.126      -13.529       35.004       25.780       23.027     1225.285      664.587      530.251        0.152        0.121       20.965       16.870        0.647      331.638       -0.218      867.866
01/26/2022  09:38:00      -20.199      -36.964      -19.137       35.403       52.220       27.697     1253.348     2726.976      767.115        0.344        0.237       42.123       21.961        0.272      331.446       -0.534      867.866
01/26/2022  09:39:00      -46.391       -9.087       -7.759       28.605       24.832       19.558      818.270      616.638      382.509        0.206        0.091       47.272       11.397        0.058      331.476       -0.484      867.874
01/26/2022  09:40:00      -42.212       -2.497      -13.766       52.077       25.119       12.473     2712.025      630.975      155.569        0.274        0.175       42.286        8.952        0.045      331.336       -0.713      867.884
01/26/2022  09:41:00        5.239       19.601       -1.368       16.664       25.739       12.702      277.697      662.476      161.343        0.076        0.055       20.289        9.248        0.208      331.551       -0.361      867.884
01/26/2022  09:42:00      -16.772       17.232       -2.214       28.427       19.724       14.205      808.100      389.020      201.794        0.099        0.070       24.046        9.841        0.167      331.564       -0.340      867.880
01/26/2022  09:43:00      -20.760       -1.553      -14.294       25.016       20.775       16.949      625.815      431.614      287.278        0.099        0.067       20.818       14.225        0.467      331.620       -0.248      867.863
01/26/2022  09:44:00      -45.098      -19.056      -11.777       43.118       26.767       31.952     1859.124      716.454     1020.927        0.307        0.180       48.959       15.822        0.104      331.610       -0.264      867.847
01/26/2022  09:45:00      -38.361      -19.919      -33.570       25.853       25.703       21.105      668.386      660.662      445.426        0.238        0.089       43.224       16.729        0.150      331.440       -0.543      867.844
01/26/2022  09:46:00      -43.946      -35.849      -36.105       67.132       39.285       33.827     4506.705     1543.279     1144.250        0.586        0.360       56.713       13.280        0.055      331.455       -0.518      867.845
01/26/2022  09:47:00       33.215      -29.894      -18.061       26.248       33.798       19.476      688.952     1142.273      379.307        0.227        0.111       44.686       12.040        0.073      331.483       -0.473      867.855
01/26/2022  09:48:00       44.060      -64.766      -16.049       49.564       51.269       31.597     2456.586     2628.493      998.346        0.624        0.304       78.333       32.158        0.169      331.743       -0.044      867.856
01/26/2022  09:49:00       52.919      -60.443      -19.438       42.893       46.428       24.730     1839.771     2155.541      611.583        0.572        0.230       80.335       19.986        0.062      331.663       -0.176      867.857
01/26/2022  09:50:00       16.705        0.083      -15.597       28.613       50.804       17.910      818.688     2581.032      320.768        0.212        0.186       16.705       20.301        1.477      331.485       -0.471      867.852
01/26/2022  09:51:00       61.343      -77.998      -25.857       66.885       49.793       33.179     4473.565     2479.320     1100.870        0.928        0.403       99.230       30.901        0.097      331.555       -0.355      867.839
01/26/2022  09:52:00      100.218      -45.427      -24.394       25.486       25.801       21.570      649.551      665.715      465.257        0.724        0.089      110.033       13.791        0.016      331.330       -0.723      867.848
01/26/2022  09:53:00       55.125      -52.643      -21.569       31.818       79.582       21.972     1012.407     6333.347      482.752        0.705        0.391       76.224       24.032        0.099      331.525       -0.404      867.852
01/26/2022  09:54:00       45.473      -54.663      -18.459       56.945       43.578       28.311     3242.686     1899.048      801.495        0.567        0.297       71.104       26.273        0.137      331.913        0.235      867.865
01/26/2022  09:55:00      -39.246      -21.469      -23.513       28.985       34.376       20.279      840.137     1181.741      411.255        0.249        0.122       44.734        7.944        0.032      331.799        0.048      867.880
01/26/2022  09:56:00      -19.748        0.931       -3.334       33.306       28.163       23.392     1109.275      793.131      547.170        0.143        0.122       19.770       22.266        1.268      331.989        0.361      867.896
01/26/2022  09:57:00        6.384        4.778       -3.368       21.518       14.407       16.229      463.006      207.569      263.386        0.050        0.047        7.975        3.773        0.224      332.061        0.479      867.894
01/26/2022  09:58:00       -0.950        0.475       -3.251       19.822       19.949       14.186      392.896      397.979      201.256        0.050        0.050        1.062        8.647       66.284      331.991        0.363      867.880
01/26/2022  09:59:00      -45.321      -15.306      -17.868       30.348       28.432       15.109      921.009      808.396      228.280        0.228        0.098       47.836        8.958        0.035      331.826        0.093      867.856
01/26/2022  10:00:00       37.019     -118.095      -23.932       50.353       46.440       24.936     2535.434     2156.663      621.813        1.060        0.266      123.762       24.249        0.038      331.786        0.026      867.858
01/26/2022  10:01:00      -18.895      -81.750      -30.231       47.437       46.549       28.443     2250.244     2166.817      808.992        0.659        0.261       83.905       27.315        0.106      331.901        0.215      867.856
01/26/2022  10:02:00      -11.849      -68.025      -13.732       38.261       55.653       28.538     1463.883     3097.254      814.440        0.517        0.269       69.049       11.131        0.026      332.002        0.382      867.851
01/26/2022  10:03:00       27.055       54.339       -3.477       49.188       27.002       23.997     2419.417      729.126      575.849        0.371        0.186       60.702       14.680        0.058      331.935        0.271      867.853
01/26/2022  10:04:00       21.048       66.344       -1.827       51.559       26.853       20.868     2658.310      721.075      435.487        0.433        0.191       69.603        8.396        0.015      331.998        0.375      867.855
01/26/2022  10:05:00       97.974       87.523       -0.489       42.681       32.748       27.875     1821.678     1072.441      777.006        1.046        0.184      131.374       19.161        0.021      331.720       -0.082      867.858
01/26/2022  10:06:00       70.107       41.896      -22.599       46.994       32.424       21.554     2208.461     1051.317      464.559        0.545        0.186       81.671       10.305        0.016      331.964        0.320      867.855
01/26/2022  10:07:00      -15.928        1.673      -11.663       39.964       37.025       23.360     1597.104     1370.848      545.676        0.195        0.176       16.016       11.257        0.494      332.260        0.807      867.850
01/26/2022  10:08:00      -34.728       30.620       -8.224       33.066       32.218       18.368     1093.356     1037.982      337.388        0.234        0.123       46.299       18.987        0.168      332.021        0.412      867.857
01/26/2022  10:09:00       62.116       -0.062      -16.611       65.834       39.797       22.990     4334.100     1583.820      528.561        0.529        0.322       62.116       25.043        0.163      332.011        0.397      867.863
01/26/2022  10:10:00       -0.027        4.286      -25.695       42.582       21.385       22.240     1813.250      457.298      494.619        0.172        0.138        4.286       18.059       17.755      331.911        0.231      867.869
01/26/2022  10:11:00       -8.938       -6.712      -19.237       60.002       21.108       18.766     3600.224      445.527      352.163        0.245        0.220       11.178        9.802        0.769      332.204        0.714      867.883
01/26/2022  10:12:00       11.569      -41.512      -31.198       38.863       40.015       26.452     1510.329     1601.234      699.725        0.332        0.191       43.094       17.858        0.172      332.454        1.128      867.886
01/26/2022  10:13:00      -12.798      -55.594      -22.001       70.146       47.780       33.776     4920.394     2282.894     1140.844        0.604        0.417       57.048       23.540        0.170      332.293        0.862      867.877
01/26/2022  10:14:00       30.748      -44.193      -25.462       41.471       87.954       41.022     1719.813     7735.913     1682.840        0.734        0.557       53.837       30.655        0.324      332.426        1.081      867.860
01/26/2022  10:15:00       68.155     -118.908      -33.230       48.059       71.238       25.399     2309.655     5074.844      645.133        1.396        0.401      137.056       26.773        0.038      332.291        0.858      867.840
01/26/2022  10:16:00       34.445        8.484      -13.556       40.701       41.135       32.825     1656.556     1692.047     1077.501        0.293        0.221       35.474       21.182        0.357      332.728        1.580      867.822
01/26/2022  10:17:00       53.294       11.327      -12.849       42.420       71.159       33.023     1799.438     5063.583     1090.530        0.554        0.398       54.484       24.481        0.202      332.531        1.255      867.814
01/26/2022  10:18:00       39.241     -124.723      -17.096       38.594       36.514       23.667     1489.531     1333.274      560.136        1.038        0.169      130.751       16.167        0.015      332.237        0.769      867.817
01/26/2022  10:19:00       46.302     -100.971      -21.013       38.029       69.249       29.188     1446.179     4795.437      851.921        0.994        0.355      111.081       24.343        0.048      332.182        0.678      867.825
01/26/2022  10:20:00       53.819       -6.809      -16.256       45.896       80.221       45.352     2106.421     6435.343     2056.802        0.690        0.530       54.248       24.159        0.198      332.727        1.579      867.820
01/26/2022  10:21:00       22.298      -65.731       -1.575       51.350       82.096       44.495     2636.868     6739.713     1979.831        0.809        0.568       69.410       31.065        0.200      332.708        1.547      867.832
01/26/2022  10:22:00       49.528      -37.172      -23.576       74.099       62.668       45.094     5490.638     3927.333     2033.472        0.792        0.573       61.925       33.834        0.299      332.735        1.591      867.828
01/26/2022  10:23:00       67.417       42.847      -30.136       45.463       49.604       33.029     2066.901     2460.529     1090.894        0.645        0.281       79.881       19.105        0.057      332.471        1.154      867.841
01/26/2022  10:24:00      110.752       59.564      -30.419       53.266       33.470       24.774     2837.215     1120.213      613.751        1.065        0.229      125.753       14.370        0.013      332.196        0.703      867.826
01/26/2022  10:25:00       19.063       -9.653       -7.344       48.501       42.013       32.303     2352.336     1765.130     1043.486        0.283        0.258       21.367       22.921        1.151      332.931        1.916      867.828
01/26/2022  10:26:00       76.538       44.658      -27.407       51.499       39.941       26.976     2652.105     1595.289      727.705        0.679        0.249       88.614       25.692        0.084      332.466        1.148      867.820
01/26/2022  10:27:00       82.038       69.231       -3.181       48.189       36.083       34.795     2322.142     1301.970     1210.714        0.818        0.242      107.346       23.406        0.048      332.517        1.231      867.822
01/26/2022  10:28:00        4.994       27.299        1.324       45.502       43.521       25.586     2070.424     1894.078      654.653        0.269        0.231       27.752       19.542        0.496      332.874        1.823      867.812
01/26/2022  10:29:00      -19.372       11.137      -11.221       45.743       62.934       34.114     2092.461     3960.694     1163.757        0.392        0.361       22.345       24.190        1.172      332.802        1.702      867.802
01/26/2022  10:30:00       92.602       11.938      -22.269       64.396       66.121       36.328     4146.814     4371.984     1319.692        0.952        0.492       93.368       20.599        0.049      332.774        1.656      867.800
01/26/2022  10:31:00       75.560      -15.764      -25.638       59.485       53.251       39.590     3538.466     2835.659     1567.331        0.728        0.397       77.187       24.383        0.100      332.604        1.375      867.794
01/26/2022  10:32:00      160.019       71.646      -22.337       45.357       38.131       22.557     2057.253     1453.954      508.805        1.763        0.201      175.326       21.965        0.016      332.010        0.394      867.805
01/26/2022  10:33:00       87.093       44.839      -20.323       57.531       61.716       38.300     3309.867     3808.868     1466.898        0.930        0.429       97.958       20.626        0.044      332.728        1.580      867.806
01/26/2022  10:34:00      108.308       44.551      -27.060       74.448       54.791       35.057     5542.509     3002.106     1228.988        1.211        0.489      117.113       17.420        0.022      332.759        1.631      867.805
01/26/2022  10:35:00       91.203      -24.741      -16.461       82.734       68.745       47.935     6844.839     4725.908     2297.790        1.153        0.693       94.499       40.382        0.183      332.859        1.794      867.811
01/26/2022  10:36:00      112.071      -38.508      -17.609       56.287       44.344       42.607     3168.202     1966.408     1815.324        1.065        0.347      118.502       27.064        0.052      332.684        1.509      867.804
01/26/2022  10:37:00       61.031      -88.262      -21.606       57.243       95.162       46.879     3276.740     9055.789     2197.599        1.325        0.727      107.308       49.096        0.209      332.993        2.017      867.797
01/26/2022  10:38:00       83.485     -196.620      -40.925       47.111       36.003       26.110     2219.481     1296.186      681.736        2.575        0.210      213.610       22.925        0.012      332.325        0.911      867.789
01/26/2022  10:39:00      122.852     -120.276      -44.392       24.353       40.717       16.492      593.064     1657.884      271.974        1.703        0.126      171.927       16.801        0.010      332.084        0.516      867.794
01/26/2022  10:40:00       75.159     -128.575      -37.956       31.371       54.864       27.844      984.155     3010.108      775.312        1.419        0.238      148.931       23.483        0.025      332.305        0.882      867.798
01/26/2022  10:41:00       82.412      -91.778      -36.341       19.143       62.361       28.577      366.441     3888.868      816.656        1.080        0.254      123.349       32.315        0.069      332.348        0.953      867.805
01/26/2022  10:42:00       81.580      -58.013      -28.873       35.344       48.126       31.075     1249.204     2316.103      965.684        0.769        0.227      100.104       27.182        0.074      332.600        1.367      867.809
01/26/2022  10:43:00       56.351      -77.770      -25.684       29.030       63.364       28.744      842.758     4015.042      826.222        0.778        0.284       96.040       27.188        0.080      332.549        1.283      867.803
01/26/2022  10:44:00       49.147      -14.234      -23.115       62.972       63.748       33.846     3965.462     4063.756     1145.566        0.616        0.459       51.167       24.072        0.221      332.735        1.592      867.798
01/26/2022  10:45:00      144.985       78.428      -27.433       41.455       41.002       30.259     1718.502     1681.159      915.618        1.612        0.216      164.838       18.432        0.013      332.607        1.379      867.795
01/26/2022  10:46:00       82.882      -38.375      -28.943       48.845       81.923       45.676     2385.786     6711.370     2086.320        1.018        0.559       91.335       31.887        0.122      332.667        1.480      867.780
01/26/2022  10:47:00       81.833      -73.937      -23.588       53.930       62.841       31.760     2908.424     3948.960     1008.698        1.029        0.393      110.287       35.442        0.103      332.626        1.411      867.778
01/26/2022  10:48:00       21.283      -46.130      -28.020       29.913       46.124       23.659      894.797     2127.428      559.742        0.347        0.179       50.803       21.047        0.172      332.914        1.888      867.772
01/26/2022  10:49:00       15.278       19.136      -13.047       49.753       34.357       22.088     2475.359     1180.421      487.874        0.246        0.207       24.487       14.375        0.345      333.118        2.225      867.762
01/26/2022  10:50:00       60.675     -139.175      -30.889       53.999      101.093       44.139     2915.844    10219.881     1948.281        1.954        0.754      151.826       45.329        0.089      332.809        1.711      867.741
01/26/2022  10:51:00       63.913      -95.169      -35.288       57.607       90.825       34.558     3318.524     8249.091     1194.247        1.357        0.638      114.639       41.186        0.129      332.778        1.662      867.726
01/26/2022  10:52:00       76.450      -54.102      -30.549       50.807       66.585       42.476     2581.352     4433.570     1804.211        0.926        0.441       93.657       26.009        0.077      332.886        1.841      867.716
01/26/2022  10:53:00       65.556      -43.827      -36.781       72.013       70.034       45.445     5185.857     4904.703     2065.275        0.986        0.608       78.856       30.260        0.147      332.837        1.760      867.705
01/26/2022  10:54:00       58.657       -5.987      -13.289       51.999       72.999       38.605     2703.867     5328.915     1490.357        0.659        0.476       58.962       35.890        0.371      333.020        2.062      867.694
01/26/2022  10:55:00      134.276       36.507      -31.343       71.322       54.914       32.150     5086.769     3015.580     1033.605        1.474        0.457      139.150       17.028        0.015      332.966        1.973      867.692
01/26/2022  10:56:00       83.643       16.200      -13.004       70.507       59.538       32.473     4971.188     3544.799     1054.522        0.850        0.479       85.197       23.082        0.073      332.972        1.983      867.698
01/26/2022  10:57:00       70.949      -14.677      -11.807       56.981       60.881       34.091     3246.785     3706.502     1162.228        0.675        0.406       72.451       28.274        0.152      333.080        2.163      867.698
01/26/2022  10:58:00      105.577       46.588      -20.339       41.953       43.939       27.198     1760.030     1930.639      739.706        0.908        0.222      115.400       22.551        0.038      332.715        1.558      867.695
01/26/2022  10:59:00      110.221       33.199      -30.957       40.037       41.635       26.934     1602.941     1733.449      725.444        0.913        0.203      115.113       14.459        0.016      332.624        1.408      867.695
01/26/2022  11:00:00      116.943       72.262      -26.516       52.832       47.005       30.468     2791.251     2209.489      928.287        1.276        0.296      137.468       13.434        0.010      332.947        1.941      867.689
01/26/2022  11:01:00       93.590       55.366      -22.672       39.671       32.260       21.428     1573.764     1040.685      459.145        0.771        0.154      108.740       11.041        0.010      332.629        1.416      867.696
01/26/2022  11:02:00      134.028       47.304      -21.899       41.661       41.278       23.140     1735.626     1703.858      535.456        1.233        0.199      142.131       14.287        0.010      332.558        1.297      867.695
01/26/2022  11:03:00       23.593       54.044      -17.392       29.412       22.492       17.923      865.046      505.883      321.246        0.274        0.085       58.969       16.070        0.074      332.552        1.290      867.693
01/26/2022  11:04:00        2.198       12.365       -4.223       29.997       13.672       18.203      899.809      186.927      331.331        0.080        0.071       12.559        7.733        0.379      333.022        2.065      867.688
01/26/2022  11:05:00       32.143       60.082      -10.872       37.106       41.904       27.464     1376.854     1755.922      754.252        0.432        0.194       68.139       26.769        0.154      333.217        2.388      867.689
01/26/2022  11:06:00       57.686      -38.163      -20.166       61.219       39.250       39.209     3747.775     1540.560     1537.308        0.601        0.341       69.167       27.461        0.158      332.994        2.020      867.690
01/26/2022  11:07:00       88.897      -36.445      -31.129       38.027       51.625       28.967     1446.039     2665.128      839.090        0.757        0.248       96.077       16.661        0.030      332.839        1.763      867.686
01/26/2022  11:08:00       21.329        0.452      -18.600       49.571       73.481       35.934     2457.261     5399.461     1291.225        0.497        0.457       21.333       26.082        1.495      333.279        2.490      867.669
01/26/2022  11:09:00       85.446     -147.243      -40.482       58.298      101.117       31.305     3398.634    10224.674      979.990        2.261        0.730      170.240       22.553        0.018      332.853        1.786      867.653
01/26/2022  11:10:00      118.683     -141.934      -49.199       27.240       36.235       19.202      742.022     1312.944      368.730        1.954        0.121      185.016       18.698        0.010      332.588        1.347      867.632
01/26/2022  11:11:00       87.744     -121.635      -42.222       35.492       66.666       22.616     1259.663     4444.292      511.478        1.524        0.311      149.980       19.632        0.017      332.770        1.648      867.592
01/26/2022  11:12:00       44.866      -71.903      -33.250       58.368       57.807       39.237     3406.786     3341.705     1539.516        0.829        0.414       84.752       22.259        0.069      333.332        2.578      867.570
01/26/2022  11:13:00        9.769      -34.946       -3.612       48.354       54.172       41.846     2338.083     2934.555     1751.050        0.418        0.351       36.286       35.675        0.967      333.517        2.885      867.560
01/26/2022  11:14:00       59.199       -6.916      -27.209       75.547       97.473       72.165     5707.298     9500.990     5207.717        1.235        1.021       59.601       49.730        0.696      333.552        2.941      867.544
01/26/2022  11:15:00      108.518       -3.519      -36.969       70.848      102.120       45.169     5019.500    10428.453     2040.271        1.532        0.874      108.575       38.903        0.128      333.590        3.005      867.561
01/26/2022  11:16:00       58.753       39.337      -18.749       47.015       60.690       32.900     2210.444     3683.335     1082.388        0.616        0.349       70.706       12.031        0.029      333.371        2.643      867.576
01/26/2022  11:17:00       68.363      -24.979      -25.097       60.160       66.128       34.911     3619.265     4372.881     1218.808        0.757        0.461       72.783       24.364        0.112      333.554        2.946      867.583
01/26/2022  11:18:00       58.961      -89.771      -41.571       22.699       36.377       21.945      515.231     1323.267      481.597        0.779        0.116      107.402       14.103        0.017      332.792        1.686      867.584
01/26/2022  11:19:00      -11.431       -6.413      -10.001       72.340       38.596       32.840     5233.122     1489.666     1078.477        0.404        0.390       13.108       21.672        2.734      333.362        2.628      867.572
01/26/2022  11:20:00      -53.882       40.214      -10.917       48.707       23.857       23.407     2372.323      569.157      547.908        0.406        0.174       67.234       16.342        0.059      332.889        1.847      867.547
01/26/2022  11:21:00       16.368       25.796      -28.151       82.439       33.807       17.620     6796.239     1142.904      310.450        0.499        0.412       30.551       20.084        0.432      333.145        2.270      867.523
01/26/2022  11:22:00       55.151      -29.592      -22.807       58.749       76.854       48.295     3451.446     5906.465     2332.451        0.806        0.585       62.588       37.376        0.357      333.409        2.705      867.493
01/26/2022  11:23:00       50.086      -44.670      -33.978       61.151       62.444       47.977     3739.431     3899.272     2301.754        0.780        0.497       67.111       29.329        0.191      333.850        3.435      867.468
01/26/2022  11:24:00       94.696      -19.616      -55.111       70.215       83.408       50.268     4930.089     6956.929     2526.833        1.340        0.721       96.707       40.167        0.173      333.636        3.079      867.444
01/26/2022  11:25:00       69.258       57.084      -27.618       65.173       49.814       40.680     4247.516     2481.424     1654.862        0.860        0.419       89.751       32.534        0.131      333.699        3.185      867.437
01/26/2022  11:26:00      119.477      110.045      -25.114       44.658       43.292       29.687     1994.302     1874.192      881.337        1.588        0.237      162.434       19.735        0.015      333.084        2.168      867.435
01/26/2022  11:27:00       60.474      111.991      -15.130       46.380       31.818       30.488     2151.119     1012.386      929.527        1.026        0.205      127.275       16.469        0.017      333.041        2.097      867.418
01/26/2022  11:28:00       36.199       30.185      -34.158       49.461       34.873       29.423     2446.345     1216.110      865.734        0.396        0.226       47.133       21.523        0.209      333.345        2.600      867.389
01/26/2022  11:29:00       98.480      -51.594      -20.268       63.787       58.511       49.292     4068.736     3423.580     2429.694        1.134        0.496      111.176       35.424        0.102      333.788        3.332      867.366
01/26/2022  11:30:00      137.452       14.392      -21.753       94.251       84.097       56.274     8883.279     7072.374     3166.780        1.934        0.956      138.204       50.625        0.134      333.572        2.975      867.361
01/26/2022  11:31:00      148.061       13.265      -26.500       56.055       39.212       21.756     3142.158     1537.557      473.336        1.398        0.258      148.654       14.064        0.009      333.169        2.309      867.364
01/26/2022  11:32:00      174.837       47.928      -23.645       47.797       48.917       22.605     2284.558     2392.911      510.994        1.931        0.259      181.287        7.860        0.002      333.132        2.246      867.368
01/26/2022  11:33:00       71.473       53.338      -12.802       48.604       41.181       28.233     2362.304     1695.906      797.075        0.649        0.243       89.181       21.026        0.056      333.529        2.905      867.382
01/26/2022  11:34:00       88.524     -100.020      -42.104       62.058       80.413       46.110     3851.156     6466.202     2126.147        1.603        0.622      133.568       38.886        0.085      333.910        3.534      867.371
01/26/2022  11:35:00      120.081      -85.196      -35.613       65.239       65.395       38.057     4256.189     4276.539     1448.311        1.646        0.499      147.233       23.041        0.024      333.534        2.911      867.386
01/26/2022  11:36:00       83.010       -1.145      -35.818       53.347       71.442       38.876     2845.893     5103.896     1511.339        0.882        0.473       83.018       23.151        0.078      333.680        3.155      867.384
01/26/2022  11:37:00       20.341      -34.244      -24.058       53.790       50.108       39.484     2893.374     2510.833     1558.963        0.456        0.348       39.830       32.570        0.669      334.074        3.805      867.374
01/26/2022  11:38:00       85.512       13.512      -30.381       61.866       59.021       35.103     3827.361     3483.427     1232.224        0.848        0.427       86.573       29.228        0.114      333.725        3.229      867.374
01/26/2022  11:39:00      106.237       40.650      -29.398       46.396       59.286       30.343     2152.571     3514.882      920.686        1.019        0.329      113.748       11.036        0.009      333.559        2.954      867.370
01/26/2022  11:40:00       66.995        0.620      -21.417       51.845       57.545       31.975     2687.933     3311.412     1022.400        0.598        0.351       66.998       14.666        0.048      333.730        3.235      867.352
01/26/2022  11:41:00       22.686       49.754      -13.382       46.279       43.520       33.622     2141.708     1893.992     1130.441        0.417        0.258       54.682       12.952        0.056      333.369        2.639      867.351
01/26/2022  11:42:00       65.008       33.852      -13.705       52.029       35.171       25.619     2706.999     1236.971      656.316        0.508        0.230       73.294       20.247        0.076      333.469        2.806      867.344
01/26/2022  11:43:00       98.227       66.989      -29.836       55.372       44.934       27.687     3066.028     2019.071      766.585        1.044        0.293      118.895       20.222        0.029      333.519        2.888      867.326
01/26/2022  11:44:00       53.745       78.810      -10.663       46.039       45.367       32.549     2119.600     2058.168     1059.405        0.722        0.262       95.392       26.868        0.079      333.789        3.334      867.282
01/26/2022  11:45:00        6.831       -4.708        2.026       39.484       72.456       42.139     1559.020     5249.905     1775.737        0.433        0.429        8.296       39.502       22.670      333.901        3.520      867.258
01/26/2022  11:46:00       62.898      -86.888      -36.033       49.675       64.768       33.861     2467.571     4194.910     1146.538        1.031        0.390      107.264       22.622        0.044      333.784        3.325      867.229
01/26/2022  11:47:00      129.114      -90.583      -45.737       52.334       48.110       32.295     2738.828     2314.538     1042.984        1.653        0.305      157.720       23.773        0.023      333.560        2.955      867.226
01/26/2022  11:48:00        7.923       -0.024        0.237       42.465       37.373       32.293     1803.269     1396.718     1042.832        0.215        0.212        7.923       27.431       11.987      333.892        3.505      867.296
01/26/2022  11:49:00      -13.938       42.977      -13.577       31.819       28.169       28.059     1012.425      793.507      787.312        0.241        0.130       45.180       12.434        0.076      333.549        2.937      867.276
01/26/2022  11:50:00      -14.828       79.590      -27.987       38.234       26.569       29.484     1461.855      705.934      869.302        0.519        0.152       80.959       19.814        0.060      333.331        2.576      867.248
01/26/2022  11:51:00       30.694       26.359        5.643       41.939       19.826       22.092     1758.907      393.064      488.037        0.215        0.132       40.459       12.866        0.101      333.853        3.441      867.234
01/26/2022  11:52:00       25.662       36.123       -6.821       27.895       18.263       20.605      778.155      333.545      424.546        0.177        0.077       44.311       16.765        0.143      333.916        3.546      867.228
01/26/2022  11:53:00       22.753       32.907      -20.234       28.254       22.382       18.856      798.292      500.932      355.548        0.183        0.083       40.007       14.443        0.130      333.825        3.396      867.205
01/26/2022  11:54:00       -1.468        4.227      -21.059       37.551       31.913       27.976     1410.050     1018.422      782.644        0.184        0.161        4.475       24.045       28.876      334.215        4.041      867.181
01/26/2022  11:55:00       76.795     -119.529      -33.817       26.748       35.810       21.683      715.454     1282.366      470.158        1.190        0.123      142.072       14.958        0.011      333.486        2.833      867.176
01/26/2022  11:56:00       46.683      -75.098      -21.563       29.566       38.432       20.101      874.164     1477.037      404.055        0.552        0.138       88.425       15.378        0.030      333.564        2.961      867.167
01/26/2022  11:57:00       48.092       64.002      -20.200       46.592       46.353       36.795     2170.849     2148.600     1353.852        0.624        0.284       80.057       18.130        0.051      333.741        3.254      867.154
01/26/2022  11:58:00        5.122       26.208       -5.467       36.682       30.706       24.211     1345.575      942.865      586.185        0.181        0.144       26.703       15.286        0.328      334.196        4.008      867.125
01/26/2022  11:59:00       14.041      -47.165      -16.351       58.851       78.263       33.340     3463.417     6125.085     1111.545        0.669        0.535       49.211       34.901        0.503      333.955        3.608      867.116
01/26/2022  12:00:00      112.673      -22.819      -43.742       31.000       54.278       20.490      960.998     2946.110      419.821        0.973        0.216      114.961       18.242        0.025      333.428        2.737      867.124
01/26/2022  12:01:00       23.944       53.706       -5.910       28.472       26.702       34.790      810.670      712.971     1210.359        0.311        0.137       58.802       22.297        0.144      333.677        3.149      867.128
01/26/2022  12:02:00       24.592       57.047       -8.643       31.704       16.060       19.349     1005.145      257.931      374.372        0.279        0.082       62.122        6.465        0.011      333.705        3.195      867.120
01/26/2022  12:03:00       17.413       77.721      -20.260       21.511       25.328       28.390      462.739      641.524      805.974        0.433        0.096       79.648       17.049        0.046      333.741        3.256      867.115
01/26/2022  12:04:00      -66.139       39.463      -17.223       30.300       38.338       26.113      918.092     1469.829      681.911        0.465        0.153       77.017       18.589        0.058      333.716        3.213      867.104
01/26/2022  12:05:00      -39.215       -6.742      -30.350       42.378       38.293       23.640     1795.927     1466.352      558.870        0.316        0.191       39.790       17.871        0.202      334.060        3.785      867.065
01/26/2022  12:06:00      -19.347      -37.092      -22.653       36.750       32.236       17.257     1350.569     1039.191      297.788        0.247        0.134       41.834       13.883        0.110      334.289        4.162      867.024
01/26/2022  12:07:00      -38.968      -38.280      -28.269       24.644       20.298       23.085      607.320      412.018      532.929        0.267        0.078       54.624        9.033        0.027      333.838        3.415      866.997
01/26/2022  12:08:00       23.883       30.374       -9.983       55.803       37.275       30.961     3113.991     1389.423      958.609        0.353        0.273       38.639       10.841        0.079      334.301        4.182      866.987
01/26/2022  12:09:00       53.942        9.057      -33.403       55.821       32.051       24.274     3115.976     1027.269      589.214        0.442        0.237       54.697       13.217        0.058      333.906        3.529      866.990
01/26/2022  12:10:00       -8.571       21.758      -13.527       20.001       24.471       18.519      400.023      598.818      342.951        0.104        0.067       23.385       12.748        0.297      333.850        3.435      866.995
01/26/2022  12:11:00      -17.955       44.692        4.027       40.104       34.866       32.969     1608.336     1215.635     1086.943        0.312        0.196       48.163       26.960        0.313      334.299        4.180      866.992
01/26/2022  12:12:00      -22.145      -12.869       -7.197       48.189       35.006       27.134     2322.169     1225.429      736.261        0.250        0.214       25.612       29.000        1.282      334.371        4.298      866.981
01/26/2022  12:13:00      -47.286       18.670      -15.629       35.981       36.996       25.323     1294.603     1368.687      641.266        0.307        0.165       50.839       19.898        0.153      334.069        3.798      866.977
01/26/2022  12:14:00        1.481       -5.735        0.462       21.984       13.283       14.579      483.297      176.434      212.548        0.045        0.044        5.923        7.168        1.465      334.460        4.446      866.959
01/26/2022  12:15:00       15.296       -4.264        5.534       27.029       33.485       17.892      730.562     1121.261      320.137        0.123        0.109       15.879       17.013        1.148      334.932        5.230      866.945
01/26/2022  12:16:00       -9.229      -62.078      -38.300       30.744       24.752       25.482      945.201      612.685      649.357        0.381        0.110       62.760       15.409        0.060      334.561        4.614      866.927
01/26/2022  12:17:00      -46.201      -78.939      -42.371       66.057       49.619       33.167     4363.463     2462.080     1100.045        0.904        0.396       91.466       33.811        0.137      334.477        4.476      866.907
01/26/2022  12:18:00       58.364     -103.190      -23.924       29.439       66.957       24.043      866.659     4483.220      578.048        1.028        0.296      118.552       19.642        0.027      334.177        3.977      866.877
01/26/2022  12:19:00       34.559      -43.648      -14.557       46.060       64.255       33.461     2121.530     4128.700     1119.618        0.534        0.368       55.672       33.610        0.364      334.770        4.963      866.859
01/26/2022  12:20:00      -40.647      -22.642       -4.605       30.400       32.232       25.347      924.176     1038.898      642.447        0.240        0.130       46.528       17.924        0.148      334.384        4.322      866.862
01/26/2022  12:21:00      -23.410       -4.030       -9.564       33.662       22.886       20.296     1133.117      523.753      411.939        0.136        0.103       23.755        9.111        0.147      334.762        4.947      866.848
01/26/2022  12:22:00       36.587      -48.200      -21.083       57.268       55.069       36.427     3279.592     3032.570     1326.953        0.587        0.382       60.513       28.570        0.223      334.588        4.659      866.838
01/26/2022  12:23:00       17.555      -28.868      -20.299       34.570       65.747       30.823     1195.060     4322.728      950.032        0.401        0.323       33.787       25.362        0.563      334.692        4.833      866.814
01/26/2022  12:24:00       22.137       27.429      -17.260       42.739       46.359       23.977     1826.618     2149.179      574.913        0.304        0.228       35.248       16.290        0.214      334.829        5.062      866.794
01/26/2022  12:25:00       17.749        6.836      -16.557       31.716       44.744       33.652     1005.914     2002.050     1132.452        0.239        0.207       19.020       23.243        1.493      334.905        5.188      866.776
01/26/2022  12:26:00      113.886       -2.987      -33.005       52.471       76.939       35.576     2753.205     5919.590     1265.678        1.200        0.497      113.925       25.620        0.051      334.453        4.436      866.773
01/26/2022  12:27:00      107.324        0.453      -14.271       47.576       63.964       32.847     2263.434     4091.354     1078.917        0.958        0.372      107.325       25.535        0.057      334.416        4.374      866.744
01/26/2022  12:28:00       12.369       12.453      -27.795       60.716       45.735       29.767     3686.393     2091.703      886.068        0.387        0.333       17.552       12.059        0.472      334.665        4.788      866.727
01/26/2022  12:29:00       32.240      -80.251      -33.128       52.158       38.446       31.813     2720.483     1478.067     1012.070        0.689        0.261       86.485       25.058        0.084      334.586        4.657      866.695
01/26/2022  12:30:00       18.612      -47.043      -18.858       51.648       49.299       25.695     2667.524     2430.363      660.257        0.434        0.288       50.591       14.522        0.082      334.508        4.528      866.662
01/26/2022  12:31:00      -49.318        7.867      -10.109       42.218       37.062       24.469     1782.339     1373.562      598.752        0.317        0.188       49.942       23.235        0.216      334.966        5.288      866.634
01/26/2022  12:32:00        4.519       -6.983       -0.801       23.015       41.725       30.557      529.703     1740.994      933.732        0.164        0.160        8.318       29.875       12.901      335.437        6.071      866.611
01/26/2022  12:33:00       53.490     -133.944      -31.362       60.421       73.522       37.692     3650.743     5405.511     1420.718        1.613        0.524      144.230       36.044        0.062      334.922        5.214      866.593
01/26/2022  12:34:00       77.628     -133.528      -50.601       53.234       90.008       39.996     2833.817     8101.435     1599.654        1.947        0.627      154.453       20.035        0.017      334.470        4.462      866.564
01/26/2022  12:35:00       75.178     -114.023      -31.620       41.706       56.910       35.595     1739.358     3238.732     1267.039        1.295        0.312      136.576       30.511        0.050      334.484        4.486      866.552
01/26/2022  12:36:00       17.531      -61.522      -22.015       47.692       66.858       33.868     2274.551     4469.992     1147.061        0.623        0.395       63.971       16.006        0.063      334.801        5.013      866.548
01/26/2022  12:37:00      -84.399      -79.299      -34.565       31.587       38.708       27.666      997.733     1498.318      765.401        0.893        0.163      115.808       21.647        0.035      334.365        4.290      866.538
01/26/2022  12:38:00       45.185      -91.001      -37.799       45.241       25.955       21.429     2046.710      673.666      459.182        0.747        0.159      101.602       16.194        0.025      334.850        5.094      866.515
01/26/2022  12:39:00      -48.050      -69.591      -27.280       38.579       34.736       26.474     1488.377     1206.622      700.871        0.565        0.170       84.568       18.343        0.047      335.087        5.488      866.484
01/26/2022  12:40:00      -72.717      -45.463      -20.951       41.600       34.024       27.777     1730.553     1157.613      771.555        0.573        0.183       85.759       17.516        0.042      334.940        5.245      866.455
01/26/2022  12:41:00     -113.591      -54.296       -8.951       38.805       41.214       27.924     1505.817     1698.622      779.752        0.996        0.199      125.901       19.402        0.024      334.935        5.236      866.409
01/26/2022  12:42:00      -35.338      -54.983      -31.549       51.421       45.800       34.318     2644.116     2097.632     1177.694        0.559        0.296       65.359       18.550        0.081      335.077        5.471      866.363
01/26/2022  12:43:00      -51.655      -34.730      -17.697       45.447       41.801       37.591     2065.440     1747.325     1413.087        0.471        0.261       62.245       27.150        0.190      334.879        5.143      866.323
01/26/2022  12:44:00      -39.283      -23.751      -19.572       36.687       40.507       21.775     1345.929     1640.840      474.148        0.298        0.173       45.905       20.016        0.190      335.024        5.384      866.287
01/26/2022  12:45:00       -3.183      -29.606      -17.429       37.021       39.924       26.241     1370.573     1593.935      688.600        0.242        0.183       29.776       23.379        0.616      335.217        5.704      866.265
01/26/2022  12:46:00      -18.937       23.157      -26.450       41.137       46.530       28.759     1692.260     2164.995      827.063        0.314        0.234       29.914       13.092        0.192      334.805        5.020      866.257
01/26/2022  12:47:00      -11.589      -18.151      -18.786       65.286       62.155       46.968     4262.266     3863.216     2206.020        0.557        0.517       21.535       21.118        0.962      335.088        5.489      866.247
01/26/2022  12:48:00       15.039        5.513      -23.732       36.747       40.893       29.393     1350.357     1672.220      863.940        0.235        0.194       16.018        8.874        0.307      335.113        5.532      866.239
01/26/2022  12:49:00      -50.817      -38.688      -19.650       53.540       46.182       37.318     2866.481     2132.813     1392.653        0.543        0.320       63.868       23.213        0.132      335.029        5.393      866.232
01/26/2022  12:50:00      -88.532      -21.596      -15.441       64.814       47.923       37.376     4200.828     2296.597     1396.998        0.822        0.395       91.128       15.222        0.028      334.828        5.057      866.208
01/26/2022  12:51:00      -33.258      -15.259        3.276       63.982       50.501       33.796     4093.684     2550.392     1142.148        0.457        0.389       36.591       20.986        0.329      334.973        5.300      866.192
01/26/2022  12:52:00      -60.382      -18.238        6.978       51.175       44.860       33.338     2618.909     2012.435     1111.452        0.488        0.287       63.077       29.557        0.220      335.094        5.499      866.173
01/26/2022  12:53:00      -47.125        8.261       -3.331       42.627       25.784       27.222     1817.062      664.820      741.060        0.276        0.161       47.844       23.568        0.243      335.103        5.516      866.147
01/26/2022  12:54:00       49.492      -72.022      -23.409       40.567       65.594       32.316     1645.698     4302.564     1044.309        0.759        0.350       87.388       31.267        0.128      334.823        5.050      866.123
01/26/2022  12:55:00      -28.357      -56.106      -10.524       59.329       41.433       29.736     3519.915     1716.705      884.212        0.509        0.306       62.865       25.619        0.166      334.993        5.332      866.085
01/26/2022  12:56:00       58.631     -145.765      -27.162       63.140       69.606       41.605     3986.625     4845.016     1731.009        1.799        0.528      157.115       40.423        0.066      334.839        5.076      866.047
01/26/2022  12:57:00       78.008     -119.538      -41.228       64.093       61.211       40.657     4107.886     3746.794     1653.016        1.579        0.475      142.739       30.276        0.045      335.045        5.416      866.014
01/26/2022  12:58:00       -8.934      -99.921      -23.300       97.842       73.020       52.097     9573.111     5331.939     2714.140        1.411        0.881      100.320       28.439        0.080      335.134        5.566      865.997
01/26/2022  12:59:00      -21.229       33.772        1.339       73.829       70.472       37.474     5450.751     4966.263     1404.320        0.671        0.591       39.890       27.181        0.464      335.195        5.668      865.993
01/26/2022  13:00:00       57.821      101.861        2.800       92.830       50.884       35.621     8617.381     2589.132     1268.828        1.310        0.624      117.128       36.728        0.098      334.909        5.193      865.999
01/26/2022  13:01:00       25.024       56.687      -28.267       59.643       29.633       27.229     3557.301      878.123      741.419        0.491        0.259       61.964       18.108        0.085      334.637        4.740      865.996
01/26/2022  13:02:00      -35.429       59.506      -14.625       34.776       39.187       32.470     1209.340     1535.617     1054.309        0.440        0.190       69.254       22.203        0.103      335.200        5.676      865.980
01/26/2022  13:03:00        8.178       27.845      -10.122       34.567       25.069       20.250     1194.881      628.451      410.067        0.159        0.112       29.021       10.424        0.129      335.336        5.902      865.978
01/26/2022  13:04:00       -7.335       14.589      -12.231       29.563       31.674       22.899      873.989     1003.257      524.367        0.141        0.120       16.329       12.825        0.617      335.446        6.086      865.975
01/26/2022  13:05:00       39.777      -48.010      -28.299       58.212       61.455       37.644     3388.694     3776.739     1417.086        0.663        0.429       62.347       26.941        0.187      335.180        5.643      865.972
01/26/2022  13:06:00       62.405      -82.263      -41.083       43.607       72.234       28.511     1901.560     5217.742      812.889        1.014        0.397      103.255       20.694        0.040      334.931        5.228      865.959
01/26/2022  13:07:00       18.818        1.952       -8.805       59.598       57.967       38.504     3551.921     3360.135     1482.581        0.441        0.420       18.919       25.160        1.769      335.424        6.050      865.935
01/26/2022  13:08:00        4.164       -3.828       -6.759       29.413       50.738       35.119      865.139     2574.354     1233.325        0.237        0.234        5.656       19.433       11.804      335.582        6.313      865.932
01/26/2022  13:09:00       44.290      -73.614      -14.083       38.872       45.655       33.865     1511.056     2084.420     1146.840        0.616        0.237       85.911       22.303        0.067      335.430        6.059      865.906
01/26/2022  13:10:00       18.718      -42.033      -28.690       51.260       83.539       46.018     2627.616     6978.743     2117.692        0.733        0.586       46.012       33.462        0.529      335.127        5.555      865.879
01/26/2022  13:11:00       -9.279       -0.077      -22.184       26.676       40.266       25.186      711.594     1621.363      634.310        0.177        0.148        9.279       17.143        3.413      335.283        5.814      865.857
01/26/2022  13:12:00      -53.513       12.084      -17.695       59.024       48.210       34.633     3483.841     2324.200     1199.424        0.516        0.350       54.860       32.107        0.343      335.336        5.902      865.832
01/26/2022  13:13:00      -62.473        0.829       -5.402       59.743       56.519       33.704     3569.270     3194.349     1135.928        0.591        0.395       62.479       30.171        0.233      335.096        5.503      865.823
01/26/2022  13:14:00        5.919       23.928      -22.290       21.725       21.860       17.223      471.986      477.841      296.643        0.118        0.062       24.649       11.201        0.206      334.893        5.166      865.817
01/26/2022  13:15:00      -48.110       12.037      -13.703       51.111       30.718       20.360     2612.318      943.623      414.519        0.331        0.199       49.593        9.064        0.033      335.334        5.899      865.804
01/26/2022  13:16:00      -44.833       29.889       -6.150       23.184       20.994       20.841      537.494      440.743      434.347        0.218        0.071       53.882       10.433        0.037      335.370        5.959      865.793
01/26/2022  13:17:00      -40.786       -4.222       -3.639       17.713       36.000       19.104      313.747     1296.034      364.956        0.183        0.099       41.004        8.564        0.044      335.403        6.014      865.781
01/26/2022  13:18:00      -25.274       -8.444      -19.093       73.744       48.415       36.408     5438.125     2344.031     1325.576        0.509        0.455       26.647       29.470        1.223      335.593        6.330      865.776
01/26/2022  13:19:00       16.210      -26.625      -20.904       41.086       55.175       27.903     1688.065     3044.288      778.561        0.346        0.276       31.171       18.077        0.336      335.732        6.561      865.755
01/26/2022  13:20:00      -32.868       -8.493        3.929       59.064       50.253       23.230     3488.583     2525.332      539.652        0.386        0.328       33.947       24.187        0.508      335.710        6.526      865.740
01/26/2022  13:21:00       46.180     -105.707      -21.652       60.566       49.657       31.744     3668.187     2465.780     1007.675        1.046        0.357      115.354       24.554        0.045      335.362        5.945      865.726
01/26/2022  13:22:00        5.756        4.513       -0.004       30.556       41.666       19.981      933.645     1736.050      399.252        0.156        0.153        7.314       16.967        5.382      335.733        6.565      865.726
01/26/2022  13:23:00       73.163       47.933       -8.767       54.999       65.154       34.227     3024.864     4245.053     1171.486        0.808        0.422       87.466       26.372        0.091      335.480        6.141      865.721
01/26/2022  13:24:00       41.501      -87.073      -41.490       77.819       69.251       50.348     6055.759     4795.733     2534.898        1.220        0.669       96.457       38.524        0.160      335.698        6.504      865.709
01/26/2022  13:25:00       11.778      -25.401      -19.757       55.505       62.788       36.222     3080.826     3942.328     1312.063        0.475        0.417       27.998       32.787        1.371      335.420        6.044      865.718
01/26/2022  13:26:00       49.347      -21.193      -14.268       66.813       37.348       32.079     4463.983     1394.892     1029.040        0.499        0.344       53.705       26.972        0.252      335.320        5.876      865.707
01/26/2022  13:27:00      147.225      -26.084       -6.238       81.710       55.139       47.386     6676.502     3040.360     2245.392        1.718        0.598      149.518       47.299        0.100      335.310        5.858      865.682
01/26/2022  13:28:00       96.709       34.379       -7.658       95.079       73.727       48.604     9039.959     5435.632     2362.369        1.371        0.842      102.638       26.738        0.068      335.718        6.538      865.665
01/26/2022  13:29:00       72.061        6.643      -22.869       83.245       69.938       36.864     6929.780     4891.371     1358.928        0.947        0.659       72.367       35.349        0.239      335.571        6.292      865.670
01/26/2022  13:30:00      116.762      -24.477      -19.301       73.604       59.563       51.660     5417.581     3547.773     2668.770        1.312        0.582      119.300       43.797        0.135      335.593        6.328      865.683
01/26/2022  13:31:00       27.997       14.687      -16.966       58.336       56.536       34.431     3403.044     3196.302     1185.521        0.453        0.389       31.615       22.236        0.495      335.866        6.784      865.696
01/26/2022  13:32:00       46.567       36.471      -13.654       26.767       32.013       23.095      716.464     1024.811      533.380        0.298        0.114       59.149       14.827        0.063      335.595        6.334      865.708
01/26/2022  13:33:00       21.586       -2.187      -12.664       45.877       52.306       22.640     2104.662     2735.880      512.570        0.299        0.268       21.696       17.176        0.627      335.772        6.629      865.714
01/26/2022  13:34:00      150.193       78.956      -17.549       38.226       33.566       27.109     1461.247     1126.683      734.884        1.621        0.166      169.682       13.817        0.007      335.144        5.583      865.708
01/26/2022  13:35:00      105.168       57.225      -19.211       52.236       43.833       32.082     2728.570     1921.319     1029.238        1.019        0.284      119.729       25.096        0.044      335.383        5.979      865.695
01/26/2022  13:36:00       67.329       91.819       -3.740       44.337       46.703       29.158     1965.782     2181.201      850.178        0.899        0.250      113.860       24.019        0.044      335.338        5.905      865.691
01/26/2022  13:37:00      138.285       92.122      -19.022       64.478       35.231       28.146     4157.369     1241.233      792.189        1.708        0.310      166.160       21.663        0.017      335.329        5.889      865.691
01/26/2022  13:38:00       53.929       53.339      -16.502       50.660       48.587       26.915     2566.394     2360.672      724.415        0.584        0.283       75.851       24.579        0.105      335.264        5.782      865.691
01/26/2022  13:39:00       13.400       61.359       -6.653       30.299       32.740       22.641      918.028     1071.884      512.611        0.325        0.125       62.805       15.823        0.063      335.592        6.328      865.680
01/26/2022  13:40:00       68.006       44.866      -14.599       34.312       37.030       19.772     1177.310     1371.216      390.935        0.489        0.147       81.472       19.209        0.056      335.259        5.773      865.675
01/26/2022  13:41:00       38.407       49.842       -9.628       26.131       29.964       17.918      682.838      897.816      321.060        0.298        0.095       62.924        8.507        0.018      335.472        6.129      865.665
01/26/2022  13:42:00       94.803        1.527      -26.296       55.406       66.107       34.294     3069.780     4370.128     1176.056        0.915        0.431       94.815       19.543        0.042      335.487        6.154      865.652
01/26/2022  13:43:00       66.752       22.323      -13.137       56.904       62.702       37.040     3238.115     3931.575     1371.969        0.683        0.427       70.386       24.613        0.122      335.837        6.736      865.650
01/26/2022  13:44:00       66.473       -7.632      -41.083       60.834       69.534       35.157     3700.758     4834.982     1235.995        0.797        0.489       66.910       17.190        0.066      335.907        6.854      865.664
01/26/2022  13:45:00       69.470      -45.789      -17.738       51.701       81.329       48.571     2673.016     6614.456     2359.138        0.944        0.582       83.203       25.887        0.097      335.903        6.847      865.661
01/26/2022  13:46:00      103.621       -8.240      -19.214       90.304       70.511       53.585     8154.767     4971.849     2871.388        1.358        0.800      103.948       46.159        0.197      335.828        6.721      865.651
01/26/2022  13:47:00      139.485        8.545      -24.376      102.240      100.628       67.412    10453.099    10126.021     4544.346        2.262        1.256      139.746       61.544        0.194      335.660        6.441      865.660
01/26/2022  13:48:00       85.959       -6.294      -23.378       68.666       70.685       53.717     4714.988     4996.404     2885.505        1.028        0.630       86.189       37.627        0.191      335.674        6.464      865.657
01/26/2022  13:49:00      110.147      -12.049      -26.058       73.945       51.324       34.439     5467.815     2634.122     1186.066        1.112        0.464      110.804       28.768        0.067      335.494        6.165      865.654
01/26/2022  13:50:00       74.053      -19.641      -18.995       64.701       87.080       45.210     4186.196     7582.917     2043.987        1.002        0.691       76.614       16.346        0.046      335.739        6.574      865.644
01/26/2022  13:51:00       74.978      -33.114      -29.239       78.536       66.721       53.855     6167.878     4451.752     2900.396        1.054        0.676       81.965       38.269        0.218      335.677        6.470      865.633
01/26/2022  13:52:00       97.530      -36.064      -26.308       77.564       61.567       37.901     6016.163     3790.448     1436.471        1.137        0.562      103.984       31.498        0.092      335.598        6.338      865.634
01/26/2022  13:53:00      102.810       -7.598      -27.222       61.258       57.714       38.208     3752.592     3330.862     1459.872        0.995        0.427      103.090       15.341        0.022      335.720        6.541      865.621
01/26/2022  13:54:00       22.829      -42.402      -23.383       29.365       36.307       27.580      862.290     1318.231      760.666        0.290        0.147       48.157        9.725        0.041      335.757        6.604      865.622
01/26/2022  13:55:00       41.690      -21.015      -11.058       32.646       48.845       32.920     1065.781     2385.795     1083.737        0.342        0.227       46.687       21.792        0.218      335.881        6.808      865.620
01/26/2022  13:56:00      133.101       12.220      -14.844       79.983       52.303       30.253     6397.356     2735.638      915.248        1.407        0.502      133.661       17.798        0.018      335.619        6.372      865.624
01/26/2022  13:57:00      195.173       67.000      -25.634       66.126       56.899       28.678     4372.691     3237.499      822.416        2.583        0.422      206.353       22.841        0.012      335.499        6.169      865.631
01/26/2022  13:58:00      142.952       16.239      -18.684       55.860       59.783       34.463     3120.299     3574.040     1187.725        1.446        0.394      143.872       15.369        0.011      335.667        6.453      865.637
01/26/2022  13:59:00       68.114       21.097      -14.997       39.854       54.188       30.134     1588.373     2936.323      908.034        0.537        0.272       71.307       17.695        0.062      335.696        6.500      865.638
01/26/2022  14:00:00      105.603       51.666      -19.319       63.722       31.818       25.436     4060.455     1012.398      646.996        0.996        0.286      117.564       28.368        0.058      335.547        6.253      865.626
01/26/2022  14:01:00      122.928       -2.187      -26.774       65.891       71.768       42.351     4341.631     5150.668     1793.588        1.356        0.564      122.947       26.198        0.045      335.655        6.432      865.610
01/26/2022  14:02:00      101.172       80.419      -30.638       45.449       39.721       34.788     2065.592     1577.784     1210.185        1.125        0.243      129.240       24.824        0.037      335.489        6.155      865.615
01/26/2022  14:03:00       46.175       12.426      -15.951       45.410       54.221       28.156     2062.095     2939.955      792.738        0.417        0.290       47.818       21.896        0.210      335.868        6.789      865.606
01/26/2022  14:04:00       54.010       -2.507      -13.464       58.966       82.033       43.209     3476.978     6729.419     1867.020        0.759        0.604       54.068       35.443        0.430      335.931        6.893      865.589
01/26/2022  14:05:00       98.165       29.190      -24.696       55.287       43.068       30.194     3056.603     1854.895      911.705        0.846        0.291      102.413       12.205        0.014      335.791        6.660      865.584
01/26/2022  14:06:00       93.957       61.963      -15.882       58.191       28.424       22.217     3386.174      807.906      493.598        0.880        0.234      112.549       21.694        0.037      335.564        6.283      865.575
01/26/2022  14:07:00      144.289       26.011      -17.275       56.632       46.480       31.805     3207.200     2160.365     1011.558        1.409        0.319      146.614       23.616        0.026      335.666        6.452      865.561
01/26/2022  14:08:00       21.080       -7.157      -32.446       56.393       52.185       32.566     3180.124     2723.319     1060.528        0.425        0.348       22.262       19.867        0.796      336.190        7.325      865.565
01/26/2022  14:09:00        5.203       12.866      -24.498       60.113       55.444       40.001     3613.599     3074.009     1600.074        0.454        0.414       13.878       21.838        2.476      336.323        7.548      865.579
01/26/2022  14:10:00       50.867      -24.024      -13.246       40.296       40.026       28.399     1623.779     1602.069      806.496        0.369        0.202       56.255       17.663        0.099      335.912        6.862      865.594
01/26/2022  14:11:00       21.603      -15.034      -18.587       37.057       40.679       31.112     1373.192     1654.757      967.926        0.252        0.200       26.320       24.310        0.853      336.109        7.189      865.588
01/26/2022  14:12:00       96.390        1.112      -24.474       48.613       60.900       28.582     2363.257     3708.752      816.907        0.839        0.344       96.397       13.927        0.021      335.858        6.772      865.585
01/26/2022  14:13:00       55.566      -42.070      -27.709       52.625       80.015       31.907     2769.340     6402.467     1018.041        0.791        0.509       69.696       34.160        0.240      335.779        6.640      865.587
01/26/2022  14:14:00       20.359      -42.507      -31.746       26.854       56.479       29.121      721.126     3189.866      848.056        0.399        0.238       47.131       18.652        0.157      336.272        7.463      865.583
01/26/2022  14:15:00       94.431        6.437      -18.816       94.495       63.556       39.272     8929.343     4039.388     1542.274        1.191        0.726       94.650       47.253        0.249      336.147        7.253      865.583
01/26/2022  14:16:00       46.888      -38.046      -14.196       46.764       98.743       27.774     2186.843     9750.245      771.404        0.828        0.635       60.382       35.200        0.340      335.910        6.858      865.587
01/26/2022  14:17:00       53.480      -90.215      -22.656       32.573       74.162       25.088     1060.984     5499.950      629.431        0.935        0.360      104.876       13.302        0.016      335.809        6.689      865.585
01/26/2022  14:18:00       87.325       -3.853      -12.401       52.379       54.153       39.942     2743.527     2932.496     1595.343        0.753        0.364       87.410       33.793        0.149      335.948        6.923      865.594
01/26/2022  14:19:00      109.359      -73.011      -41.367       56.724       68.375       32.783     3217.582     4675.095     1074.745        1.398        0.448      131.492       33.088        0.063      335.812        6.694      865.602
01/26/2022  14:20:00       -1.308       -0.216       -7.082       26.404       50.114       24.935      697.189     2511.397      621.766        0.194        0.192        1.325       20.657      242.888      336.183        7.313      865.624
01/26/2022  14:21:00       89.806       28.752       -9.173       57.130       55.970       29.102     3263.869     3132.619      846.913        0.811        0.362       94.296       16.469        0.031      335.910        6.859      865.639
01/26/2022  14:22:00       81.235       22.585       -6.026       65.628       48.822       26.266     4307.040     2383.583      689.927        0.726        0.369       84.316       22.570        0.072      335.913        6.863      865.645
01/26/2022  14:23:00      107.656       73.616       -8.370       43.951       40.695       29.933     1931.656     1656.085      895.957        1.078        0.224      130.419       21.481        0.027      335.959        6.941      865.643
01/26/2022  14:24:00       86.211       68.695      -21.066       56.634       23.781       20.943     3207.423      565.527      438.623        0.840        0.211      110.233       10.040        0.008      335.675        6.466      865.641
01/26/2022  14:25:00       22.048       52.539      -14.101       39.001       36.133       22.350     1521.093     1305.591      499.504        0.339        0.166       56.978       17.348        0.093      335.995        7.000      865.627
01/26/2022  14:26:00       22.909      -21.521       -8.474       34.874       36.646       24.329     1216.183     1342.938      591.901        0.210        0.158       31.432       18.323        0.340      336.217        7.370      865.621
01/26/2022  14:27:00       48.256      -36.524      -29.028       39.808       67.155       31.510     1584.672     4509.855      992.854        0.580        0.354       60.520       15.698        0.067      336.065        7.116      865.625
01/26/2022  14:28:00      112.227      -12.647      -11.072       83.805       88.228       46.688     7023.278     7784.187     2179.764        1.493        0.849      112.937       41.577        0.136      336.060        7.107      865.620
01/26/2022  14:29:00       54.614      -59.324       -2.583       88.265       57.703       40.302     7790.702     3329.646     1624.231        0.962        0.637       80.635       33.663        0.174      336.261        7.444      865.612
01/26/2022  14:30:00       79.562      -48.530      -31.974       63.888       63.400       37.969     4081.617     4019.586     1441.612        0.962        0.477       93.195       38.627        0.172      336.184        7.314      865.620
01/26/2022  14:31:00      127.820       38.979      -16.694       45.324       49.964       26.731     2054.251     2496.376      714.570        1.170        0.263      133.631       12.680        0.009      335.871        6.794      865.633
01/26/2022  14:32:00       64.731        6.235      -17.468       41.856       37.633       29.397     1751.903     1416.215      864.154        0.428        0.202       65.031       12.116        0.035      336.178        7.306      865.638
01/26/2022  14:33:00       56.032      -54.144      -23.764       35.018       96.747       26.530     1226.240     9359.910      703.854        0.896        0.565       77.918       16.676        0.046      335.937        6.902      865.647
01/26/2022  14:34:00       38.279      -47.699       -4.651       30.965       63.346       24.995      958.821     4012.719      624.756        0.468        0.280       61.160       34.012        0.309      336.028        7.055      865.652
01/26/2022  14:35:00        8.756      -19.714      -11.458       33.203       49.418       20.278     1102.442     2442.117      411.182        0.228        0.198       21.571       15.708        0.530      336.467        7.788      865.663
01/26/2022  14:36:00       -4.449      -12.611      -16.442       39.747       49.445       25.822     1579.801     2444.787      666.777        0.257        0.235       13.372       19.023        2.024      336.567        7.956      865.666
01/26/2022  14:37:00        1.634        5.099       -1.054       40.631       30.981       27.955     1650.897      959.834      781.499        0.171        0.170        5.354       16.652        9.674      336.492        7.831      865.650
01/26/2022  14:38:00      -37.734      -24.245       -6.096       41.521       28.572       26.632     1723.977      816.348      709.253        0.265        0.162       44.852       14.761        0.108      336.632        8.064      865.647
01/26/2022  14:39:00        0.711       11.866        2.423       33.743       28.339       26.880     1138.567      803.112      722.515        0.141        0.133       11.888       15.245        1.645      336.643        8.082      865.637
01/26/2022  14:40:00       73.073       11.434       -9.259       61.763       52.815       27.224     3814.679     2789.476      741.159        0.645        0.367       73.962       23.079        0.097      336.237        7.403      865.649
01/26/2022  14:41:00       76.610      -11.739      -14.650       51.997       51.719       29.437     2703.737     2674.846      866.565        0.623        0.312       77.504       16.878        0.047      335.901        6.844      865.656
01/26/2022  14:42:00       66.932       46.871      -22.962       46.907       54.531       34.316     2200.247     2973.624     1177.589        0.678        0.318       81.711       25.218        0.095      336.017        7.037      865.638
01/26/2022  14:43:00       54.765      -47.389      -31.582       64.223       68.666       45.547     4124.652     4715.026     2074.528        0.858        0.546       72.422       26.871        0.138      336.311        7.528      865.620
01/26/2022  14:44:00      118.033      -78.687      -43.403       62.011       63.407       39.053     3845.365     4020.388     1525.129        1.570        0.470      141.857       31.039        0.048      336.000        7.007      865.610
01/26/2022  14:45:00       48.333       26.758      -32.067       50.913       59.493       33.759     2592.122     3539.372     1139.690        0.567        0.364       55.245       28.481        0.266      336.094        7.165      865.612
01/26/2022  14:46:00      143.630       40.272      -25.469       43.862       27.587       17.513     1923.914      761.060      306.713        1.295        0.150      149.169       10.339        0.005      335.850        6.758      865.620
01/26/2022  14:47:00       40.501       23.750       -9.099       29.932       48.621       18.621      895.928     2364.031      346.751        0.295        0.180       46.950       19.185        0.167      335.964        6.949      865.654
01/26/2022  14:48:00        9.154       -9.962      -12.278       13.325       39.694       24.657      177.559     1575.610      607.954        0.135        0.118       13.529       21.777        2.591      336.017        7.037      865.700
01/26/2022  14:49:00        1.552       40.682       -5.240       57.497       37.977       24.399     3305.863     1442.228      595.326        0.351        0.267       40.712       18.378        0.204      336.432        7.731      865.760
01/26/2022  14:50:00       30.909       86.085       -4.365       33.928       35.331       23.933     1151.118     1248.286      572.810        0.568        0.149       91.466       22.383        0.060      336.123        7.216      865.805
01/26/2022  14:51:00        8.549       25.282      -21.130       26.393       31.554       19.009      696.616      995.639      361.342        0.161        0.103       26.688       16.788        0.396      336.170        7.292      865.795
01/26/2022  14:52:00       36.187      -31.522      -24.635       43.296       43.125       19.692     1874.515     1859.806      387.765        0.352        0.206       47.992       16.607        0.120      336.238        7.406      865.769
01/26/2022  14:53:00       26.142       28.772       -8.690       22.045       25.050       20.261      485.972      627.486      410.527        0.156        0.076       38.875        8.885        0.052      336.179        7.307      865.763
01/26/2022  14:54:00      -20.754       47.605       -9.927       36.046       27.410       27.032     1299.308      751.300      730.745        0.279        0.139       51.933       24.126        0.216      336.416        7.703      865.765
01/26/2022  14:55:00        6.399      -10.138      -11.519       30.118       49.447       23.245      907.113     2444.995      540.336        0.208        0.195       11.989       25.361        4.475      336.664        8.118      865.773
01/26/2022  14:56:00        6.393      -97.599      -29.898       78.182       46.720       31.865     6112.349     2182.727     1015.379        0.988        0.466       97.808       26.476        0.073      336.563        7.950      865.772
01/26/2022  14:57:00       41.142     -158.069      -27.910       59.867       66.788       37.025     3584.064     4460.663     1370.863        1.843        0.471      163.335       17.868        0.012      336.274        7.465      865.767
01/26/2022  14:58:00       47.618      -73.312      -28.455       42.216       82.722       29.532     1782.179     6842.955      872.165        0.897        0.475       87.420       28.681        0.108      336.240        7.409      865.771
01/26/2022  14:59:00       29.784      -64.368      -14.029       36.900       34.967       27.010     1361.599     1222.675      729.554        0.427        0.166       70.925       16.703        0.055      336.540        7.911      865.792
01/26/2022  15:00:00      -51.130        3.568        4.032       41.438       49.825       30.007     1717.070     2482.563      900.412        0.387        0.255       51.254       24.458        0.228      336.772        8.300      865.812
01/26/2022  15:01:00      -85.469      -42.309      -10.482       39.325       29.928       24.909     1546.494      895.672      620.435        0.613        0.153       95.368       19.254        0.041      336.386        7.653      865.822
01/26/2022  15:02:00       42.734     -109.357      -17.642       48.888       56.577       31.973     2390.051     3200.954     1022.287        1.035        0.331      117.410       22.531        0.037      336.338        7.573      865.827
01/26/2022  15:03:00       27.449     -140.458      -22.237       26.603       47.182       21.470      707.707     2226.105      460.972        1.218        0.170      143.115       15.322        0.011      336.355        7.601      865.832
01/26/2022  15:04:00       45.572       12.514      -17.201       54.409       60.429       30.629     2960.317     3651.693      938.126        0.504        0.378       47.259       26.144        0.306      336.568        7.958      865.840
01/26/2022  15:05:00       78.124       49.743      -19.663       56.350       34.889       23.171     3175.366     1217.243      536.887        0.695        0.246       92.616       19.633        0.045      336.397        7.671      865.844
01/26/2022  15:06:00       85.418       13.232      -32.399       44.475       46.138       26.248     1977.988     2128.673      688.960        0.666        0.240       86.437       23.389        0.073      336.299        7.508      865.846
01/26/2022  15:07:00      120.223       48.668      -27.067       52.465       46.175       34.567     2752.560     2132.154     1194.869        1.182        0.304      129.700        7.928        0.004      336.321        7.543      865.837
01/26/2022  15:08:00      117.256       55.718       -2.237       43.071       56.728       25.799     1855.154     3218.102      665.565        1.130        0.287      129.821       17.431        0.018      336.352        7.596      865.853
01/26/2022  15:09:00       93.175       94.466       -7.958       61.656       61.685       38.532     3801.497     3805.077     1484.740        1.338        0.455      132.685       29.259        0.049      336.309        7.523      865.857
01/26/2022  15:10:00      144.726      108.191      -20.680       57.143       42.638       39.031     3265.378     1817.979     1523.384        1.984        0.330      180.696       29.050        0.026      336.134        7.229      865.875
01/26/2022  15:11:00      151.984       94.907      -14.792       53.808       36.574       31.931     2895.302     1337.647     1019.557        1.879        0.263      179.183       17.868        0.010      336.135        7.234      865.883
01/26/2022  15:12:00      140.314       36.597      -32.067       51.796       53.312       24.335     2682.803     2842.159      592.203        1.409        0.306      145.009       16.186        0.012      336.195        7.334      865.893
01/26/2022  15:13:00       26.025      -18.737      -26.715       35.138       47.240       29.511     1234.645     2231.664      870.895        0.304        0.217       32.068       13.904        0.188      336.483        7.817      865.896
01/26/2022  15:14:00       17.523      -42.730      -13.339       52.301       66.412       40.309     2735.376     4410.569     1624.804        0.554        0.439       46.183       33.005        0.511      336.483        7.816      865.906
01/26/2022  15:15:00       24.436       27.514       -9.644       50.105       32.881       26.489     2510.482     1081.138      701.665        0.287        0.215       36.799       17.762        0.233      336.374        7.631      865.912
01/26/2022  15:16:00      -19.426        5.778       -8.069       39.889       39.155       25.215     1591.114     1533.080      635.809        0.212        0.188       20.267       16.454        0.659      336.688        8.157      865.915
01/26/2022  15:17:00       30.302       38.456       -4.044       28.704       29.932       20.226      823.922      895.952      409.079        0.227        0.106       48.960        6.457        0.017      336.544        7.919      865.916
01/26/2022  15:18:00       30.373       79.703      -17.890       18.001       21.324       17.757      324.028      454.725      315.308        0.434        0.055       85.294        8.642        0.010      336.608        8.025      865.921
01/26/2022  15:19:00       41.622       74.459      -18.309       45.190       35.784       22.347     2042.120     1280.520      499.381        0.572        0.191       85.302       18.397        0.047      336.628        8.057      865.923
01/26/2022  15:20:00      113.022      100.190      -12.981       57.219       45.997       32.654     3274.061     2115.689     1066.303        1.472        0.323      151.036       31.806        0.044      336.295        7.500      865.926
01/26/2022  15:21:00        0.192      112.166      -26.901       49.352       26.913       25.541     2435.662      724.290      652.337        0.856        0.191      112.166       11.912        0.011      336.580        7.978      865.929
01/26/2022  15:22:00       76.860       36.775      -10.080       55.601       22.334       18.845     3091.444      498.799      355.120        0.565        0.197       85.205       22.385        0.069      336.404        7.682      865.927
01/26/2022  15:23:00      105.933       66.911      -15.718       36.487       22.638       22.491     1331.266      512.498      505.839        0.915        0.117      125.295       19.006        0.023      336.302        7.511      865.925
01/26/2022  15:24:00       70.436       40.392      -12.322       36.535       25.048       22.661     1334.825      627.398      513.536        0.461        0.124       81.196       15.260        0.035      336.249        7.422      865.929
01/26/2022  15:25:00       61.387       66.471      -12.873       27.505       27.114       23.312      756.515      735.147      543.468        0.519        0.102       90.480       16.586        0.034      336.356        7.603      865.918
01/26/2022  15:26:00       32.814       46.548       -4.524       30.101       34.832       20.216      906.058     1213.273      408.701        0.290        0.126       56.952       17.934        0.099      336.528        7.890      865.903
01/26/2022  15:27:00       26.235       40.685      -11.042       25.973       38.731       25.711      674.597     1500.090      661.059        0.265        0.142       48.411       18.089        0.140      336.494        7.833      865.898
01/26/2022  15:28:00      -44.051      -11.575      -16.150       30.432       32.616       24.904      926.103     1063.811      620.201        0.247        0.131       45.546       18.830        0.171      336.670        8.129      865.898
01/26/2022  15:29:00       64.274      -18.096      -15.790       38.472       71.506       30.879     1480.122     5113.098      953.536        0.613        0.377       66.773       26.793        0.161      336.430        7.725      865.911
01/26/2022  15:30:00       24.808       -3.950      -11.438       38.133       66.169       28.225     1454.159     4378.293      796.669        0.369        0.331       25.121       16.269        0.419      336.500        7.844      865.923
01/26/2022  15:31:00       62.107       56.860      -14.670       47.389       36.781       35.991     2245.762     1352.823     1295.329        0.610        0.245       84.204       26.416        0.098      336.502        7.847      865.934
01/26/2022  15:32:00       24.128       12.784       -8.635       37.395       55.153       22.299     1398.405     3041.877      497.255        0.288        0.247       27.306       12.637        0.214      336.496        7.837      865.931
01/26/2022  15:33:00       55.767      -47.109      -21.726       57.595       60.509       36.162     3317.188     3661.313     1307.713        0.704        0.414       73.001       36.421        0.249      336.490        7.827      865.922
01/26/2022  15:34:00       44.958     -111.480      -34.427       36.817       50.793       36.697     1355.493     2579.901     1346.637        1.046        0.264      120.204       22.104        0.034      336.389        7.659      865.911
01/26/2022  15:35:00       13.398      -38.746      -27.129       34.267       58.420       29.194     1174.193     3412.850      852.292        0.393        0.272       40.997       22.842        0.310      336.520        7.877      865.903
01/26/2022  15:36:00       27.485      -27.165       -9.356       36.005       39.982       23.039     1296.391     1598.523      530.791        0.250        0.171       38.644       19.828        0.263      336.616        8.038      865.897
01/26/2022  15:37:00       50.054       -3.282      -11.095       35.366       56.352       21.717     1250.760     3175.509      471.637        0.377        0.245       50.162        7.602        0.023      336.534        7.901      865.882
01/26/2022  15:38:00       55.539       82.449      -15.937       38.680       29.070       14.945     1496.152      845.066      223.351        0.635        0.128       99.411       13.785        0.019      336.492        7.829      865.871
01/26/2022  15:39:00      -13.695       77.144       -9.751       26.090       32.178       21.051      680.694     1035.417      443.130        0.420        0.108       78.350       10.738        0.019      336.875        8.470      865.856
01/26/2022  15:40:00       19.779       49.540       -8.288       27.920       20.312       20.226      779.501      412.567      409.094        0.226        0.080       53.342        7.529        0.020      336.690        8.162      865.851
01/26/2022  15:41:00       54.431       41.337       -6.890       39.314       24.355       24.896     1545.552      593.185      619.790        0.374        0.138       68.348       19.361        0.080      336.549        7.926      865.848
01/26/2022  15:42:00       17.824       97.216       -9.655       47.598       31.699       27.226     2265.560     1004.806      741.241        0.694        0.201       98.836       22.255        0.051      336.607        8.023      865.849
01/26/2022  15:43:00      -17.816       78.175       -9.974       20.840       25.158       20.428      434.285      632.918      417.306        0.401        0.074       80.179        9.832        0.015      336.880        8.478      865.849
01/26/2022  15:44:00      -35.227       95.948       -6.678       19.028       25.163       24.033      362.054      633.168      577.574        0.603        0.079      102.210       11.193        0.012      336.803        8.350      865.846
01/26/2022  15:45:00       12.271       59.970      -12.464       39.073       35.314       17.614     1526.687     1247.086      310.254        0.349        0.154       61.212       12.267        0.040      336.559        7.945      865.849
01/26/2022  15:46:00        4.400      101.194       -2.523       26.494       25.525       20.233      701.914      651.518      409.392        0.601        0.088      101.290       14.678        0.021      336.743        8.251      865.842
01/26/2022  15:47:00       -0.169       70.677      -17.473       18.963       18.403       18.976      359.594      338.653      360.083        0.318        0.053       70.677        9.741        0.019      336.714        8.201      865.846
01/26/2022  15:48:00        1.495       92.379      -11.747       30.853       19.855       18.687      951.877      394.236      349.190        0.518        0.085       92.391       17.587        0.036      336.654        8.101      865.843
01/26/2022  15:49:00       -3.157       64.873      -13.590        9.313       17.770       12.843       86.725      315.780      164.931        0.249        0.028       64.949        9.311        0.021      336.561        7.947      865.846
01/26/2022  15:50:00        5.902       34.843      -22.367       12.167       18.177       17.966      148.040      330.419      322.769        0.128        0.040       35.339        9.679        0.075      336.576        7.971      865.848
01/26/2022  15:51:00        6.225       44.842      -16.973       22.805       33.699       16.106      520.091     1135.592      259.391        0.213        0.096       45.272        9.868        0.048      336.765        8.284      865.841
01/26/2022  15:52:00        8.235      -10.433       -0.594       18.933       15.922       14.483      358.468      253.507      209.758        0.050        0.041       13.291        7.515        0.320      336.781        8.314      865.838
01/26/2022  15:53:00       -3.700       29.126       -0.025       21.471       29.899       21.871      460.984      893.963      478.350        0.135        0.092       29.360       13.055        0.198      336.949        8.593      865.839
01/26/2022  15:54:00      -21.984      -34.042      -10.895       33.998       24.204       20.975     1155.847      585.840      439.940        0.197        0.109       40.524       12.925        0.102      336.787        8.323      865.841
01/26/2022  15:55:00       -2.511      -42.596      -17.562       21.420       27.991       21.367      458.831      783.472      456.569        0.191        0.085       42.670       10.031        0.055      336.827        8.389      865.848
01/26/2022  15:56:00        1.627      -19.957      -13.209       17.843       22.305       12.367      318.384      497.508      152.931        0.077        0.048       20.023       10.281        0.264      336.941        8.580      865.850
01/26/2022  15:57:00       17.284       12.586      -11.813       17.574       29.053       17.118      308.855      844.100      293.021        0.102        0.072       21.381       10.594        0.246      336.747        8.257      865.842
01/26/2022  15:58:00       -6.401       13.889        1.600       20.696       20.739       13.615      428.330      430.108      185.381        0.064        0.052       15.293       10.779        0.497      336.801        8.348      865.835
01/26/2022  15:59:00        9.366      -35.540      -20.450       12.804       18.677       14.691      163.930      348.831      215.821        0.125        0.036       36.754        7.277        0.039      336.922        8.549      865.820
01/26/2022  16:00:00       -9.376      -12.053       -3.187       18.506       20.491       15.581      342.488      419.893      242.777        0.062        0.050       15.270        9.757        0.408      337.101        8.848      865.807
01/26/2022  16:01:00       -2.707      -32.280      -22.052       21.242       18.298       16.068      451.240      334.800      258.188        0.129        0.052       32.393        9.885        0.093      336.940        8.578      865.815
01/26/2022  16:02:00       12.625      -38.841      -13.780       16.690       28.875       17.845      278.553      833.760      318.450        0.164        0.072       40.842       19.176        0.220      337.017        8.708      865.820
01/26/2022  16:03:00       25.389       12.271      -14.184       16.341       17.698       19.872      267.036      313.227      394.884        0.099        0.049       28.199       13.749        0.238      336.755        8.271      865.832
01/26/2022  16:04:00        1.346       25.590      -11.679       22.898       14.562       13.514      524.341      212.046      182.629        0.086        0.046       25.625        7.339        0.082      336.660        8.112      865.826
01/26/2022  16:05:00      -12.452      -13.291       -4.779       16.072       40.267       17.988      258.314     1621.451      323.571        0.128        0.110       18.213       22.526        1.530      336.810        8.362      865.823
01/26/2022  16:06:00       12.092      -25.772      -13.629       37.258       65.400       23.675     1388.128     4277.190      560.484        0.361        0.311       28.468       22.548        0.627      336.585        7.985      865.811
01/26/2022  16:07:00      -12.858      -30.478      -13.197       27.705       67.122       26.662      767.551     4505.395      710.846        0.362        0.299       33.079       27.297        0.681      336.656        8.105      865.806
01/26/2022  16:08:00       -5.770      -48.801      -19.161       48.261       43.121       31.963     2329.098     1859.381     1021.630        0.400        0.261       49.141       22.318        0.206      336.668        8.126      865.795
01/26/2022  16:09:00       32.540      -47.142      -24.702       39.241       70.616       26.604     1539.837     4986.585      707.757        0.556        0.362       57.282       21.842        0.145      336.554        7.934      865.789
01/26/2022  16:10:00       22.843       13.498       -9.502       37.051       20.900       25.472     1372.777      436.810      648.832        0.163        0.123       26.533       17.384        0.429      336.573        7.966      865.794
01/26/2022  16:11:00       19.447       31.163       -0.775       44.993       34.469       18.189     2024.344     1188.143      330.846        0.245        0.177       36.733       12.226        0.111      336.627        8.057      865.793
01/26/2022  16:12:00        5.371        8.842      -12.689       23.322       27.787       29.637      543.903      772.137      878.334        0.123        0.110       10.345       16.207        2.455      336.683        8.150      865.792
01/26/2022  16:13:00       62.274       21.182      -14.255       79.082       36.802       20.195     6253.959     1354.411      407.847        0.627        0.401       65.778       16.430        0.062      336.550        7.927      865.800
01/26/2022  16:14:00      143.217       23.961      -16.405       26.956       25.922       12.988      726.616      671.948      168.701        1.146        0.078      145.208        6.201        0.002      336.401        7.677      865.803
01/26/2022  16:15:00      145.578       31.061      -22.550       31.754       18.079       19.958     1008.339      326.842      398.335        1.220        0.087      148.855        8.822        0.004      336.465        7.784      865.809
01/26/2022  16:16:00       78.826       40.083      -15.780       49.026       43.186       25.892     2403.521     1865.062      670.418        0.650        0.247       88.432       22.715        0.066      336.465        7.786      865.806
01/26/2022  16:17:00      102.902       70.021      -13.820       25.845       19.558       17.709      667.983      382.528      313.625        0.852        0.068      124.466        5.440        0.002      336.497        7.839      865.803
01/26/2022  16:18:00      109.488       46.065      -14.297       31.968       21.395       13.323     1021.940      457.757      177.510        0.799        0.083      118.784       14.407        0.015      336.441        7.744      865.804
01/26/2022  16:19:00       90.664       43.959      -28.143       33.955       30.890       22.302     1152.969      954.214      497.384        0.677        0.130      100.759        9.335        0.009      336.487        7.822      865.798
01/26/2022  16:20:00       95.310       45.682      -14.187       22.963       19.719       13.170      527.283      388.832      173.450        0.623        0.054      105.692        7.133        0.005      336.458        7.772      865.792
01/26/2022  16:21:00      138.868       60.263      -15.285       31.061       21.116       15.458      964.757      445.894      238.959        1.240        0.082      151.380       14.996        0.010      336.426        7.721      865.792
01/26/2022  16:22:00      138.181       63.326      -13.294       15.680       17.612       14.315      245.875      310.194      204.927        1.202        0.038      152.001        8.766        0.003      336.402        7.678      865.792
01/26/2022  16:23:00       97.297       37.167      -13.789       30.477       21.087       12.587      928.869      444.679      158.439        0.628        0.077      104.154       12.865        0.015      336.397        7.670      865.785
01/26/2022  16:24:00       85.660       40.646      -15.641       24.484       13.869       12.765      599.450      192.339      162.936        0.509        0.048       94.815        7.778        0.007      336.386        7.649      865.777
01/26/2022  16:25:00       49.090       43.555       -7.076       23.345       29.768        9.578      545.005      886.141       91.739        0.294        0.076       65.627        7.126        0.012      336.411        7.691      865.767
01/26/2022  16:26:00       28.282       18.120      -10.187       10.972       11.545        9.220      120.392      133.290       85.003        0.079        0.017       33.589        3.897        0.013      336.424        7.717      865.770
01/26/2022  16:27:00       42.900       11.927      -10.077        8.098       16.126        9.454       65.578      260.046       89.371        0.125        0.021       44.527        6.305        0.020      336.459        7.775      865.767
01/26/2022  16:28:00       57.771       57.327      -13.944       20.166       17.923       23.610      406.665      321.248      557.430        0.405        0.064       81.387       15.851        0.038      336.412        7.696      865.785
01/26/2022  16:29:00       86.456       52.092      -16.886       25.628       16.382       13.543      656.804      268.374      183.426        0.579        0.055      100.937        9.028        0.008      336.458        7.773      865.801
01/26/2022  16:30:00       80.260       41.474      -19.469       44.435       30.721       23.933     1974.469      943.810      572.780        0.602        0.175       90.343       18.792        0.043      336.494        7.833      865.811
01/26/2022  16:31:00       34.114       -2.759      -23.627       37.364       50.588       26.307     1396.099     2559.173      692.072        0.319        0.232       34.225       15.770        0.212      336.529        7.893      865.822
01/26/2022  16:32:00       21.458      -40.068      -19.707       50.137       69.449       35.565     2513.702     4823.155     1264.889        0.553        0.430       45.452       23.824        0.275      336.608        8.024      865.828
01/26/2022  16:33:00       31.675       15.889       -9.920       53.041       43.882       29.049     2813.370     1925.668      843.853        0.347        0.279       35.436       25.502        0.518      336.441        7.744      865.834
01/26/2022  16:34:00       45.880       37.327      -26.984       45.506       37.379       27.723     2070.774     1397.162      768.563        0.423        0.212       59.146       17.751        0.090      336.403        7.682      865.839
01/26/2022  16:35:00        1.642      -12.181        4.818       15.875       24.248       23.695      252.028      587.984      561.468        0.079        0.070       12.291        9.896        0.648      336.574        7.969      865.845
01/26/2022  16:36:00       12.614        7.454       -6.702       37.983       33.978       25.633     1442.695     1154.476      657.074        0.176        0.163       14.652       12.001        0.671      336.456        7.770      865.847
01/26/2022  16:37:00       41.675       47.043       -4.799       42.312       29.504       25.647     1790.285      870.483      657.748        0.365        0.166       62.848       17.272        0.076      336.376        7.636      865.838
01/26/2022  16:38:00       52.762       31.616       -5.880       30.520       26.466       24.686      931.465      700.438      609.391        0.303        0.112       61.509       18.949        0.095      336.413        7.698      865.835
01/26/2022  16:39:00       79.729       24.869      -18.609       48.741       26.834       20.723     2375.707      720.056      429.427        0.542        0.176       83.517        8.643        0.011      336.390        7.659      865.841
01/26/2022  16:40:00       87.497       34.431      -22.085       28.324       29.640       22.384      802.244      878.537      501.057        0.575        0.109       94.027       11.784        0.016      336.408        7.688      865.846
01/26/2022  16:41:00       77.438       39.008      -11.505       14.133       12.406        8.891      199.731      153.914       79.056        0.404        0.022       86.708        7.421        0.007      336.407        7.685      865.855
01/26/2022  16:42:00       88.066       45.146      -17.953       12.964       13.809       12.502      168.058      190.683      156.288        0.532        0.026       98.964        3.477        0.001      336.416        7.703      865.860
01/26/2022  16:43:00       68.205       39.241      -13.673       28.805       15.324       11.979      829.702      234.813      143.498        0.379        0.060       78.688       10.136        0.017      336.368        7.624      865.872
01/26/2022  16:44:00       71.406       45.979       -9.467       38.623       17.942       16.317     1491.729      321.915      266.247        0.469        0.104       84.929       15.097        0.032      336.384        7.650      865.883
01/26/2022  16:45:00       82.166       59.182       -6.575       27.945       17.390       12.868      780.902      302.427      165.598        0.577        0.062      101.261       14.404        0.020      336.409        7.692      865.901
01/26/2022  16:46:00      104.461       31.076      -13.620       25.856       14.874       12.263      668.545      221.225      150.382        0.655        0.052      108.986       10.027        0.008      336.372        7.628      865.925
01/26/2022  16:47:00      102.353       46.882      -12.214       20.529       15.440       15.769      421.455      238.382      248.665        0.687        0.045      112.579        6.844        0.004      336.341        7.577      865.948
01/26/2022  16:48:00       65.140       40.065       -9.970       33.256       28.452       12.773     1105.990      809.500      163.154        0.401        0.104       76.475       12.325        0.026      336.398        7.672      865.969
01/26/2022  16:49:00      111.439       41.986       -6.392       36.521       20.533       16.045     1333.764      421.600      257.444        0.812        0.101      119.086       19.917        0.028      336.361        7.611      865.983
01/26/2022  16:50:00      123.601       57.124      -18.932       47.766       18.346       15.856     2281.614      336.581      251.420        1.088        0.143      136.163       16.685        0.015      336.330        7.561      865.990
01/26/2022  16:51:00      100.149       57.181       -9.422       42.889       21.420       19.730     1839.445      458.799      389.265        0.804        0.134      115.324       19.943        0.030      336.310        7.528      866.010
01/26/2022  16:52:00      139.938       61.658      -19.442       21.109       24.360       13.184      445.604      593.393      173.809        1.249        0.061      152.920        8.461        0.003      336.354        7.602      866.024
01/26/2022  16:53:00      134.375       69.098      -22.966       41.124       25.527       18.960     1691.177      651.606      359.464        1.303        0.135      151.100        7.655        0.003      336.351        7.594      866.030
01/26/2022  16:54:00      110.175       28.996      -15.756       36.262       30.939       20.321     1314.960      957.213      412.932        0.796        0.134      113.926       11.494        0.010      336.339        7.574      866.033
01/26/2022  16:55:00      146.942       27.877      -12.100       24.010       21.522       14.959      576.476      463.177      223.783        1.189        0.063      149.563        6.397        0.002      336.332        7.564      866.027
01/26/2022  16:56:00      122.869       38.472      -20.383       21.746       18.456       15.657      472.909      340.618      245.144        0.903        0.053      128.751        8.649        0.005      336.337        7.570      866.026
01/26/2022  16:57:00       66.378       18.670      -19.418       20.470       23.934       13.323      419.018      572.831      177.512        0.315        0.058       68.953        6.297        0.008      336.234        7.398      866.037
01/26/2022  16:58:00       97.111       19.556      -12.352       12.610       15.690       10.829      159.012      246.180      117.263        0.524        0.026       99.061        5.002        0.003      336.290        7.492      866.042
01/26/2022  16:59:00       87.244       47.544       -7.723       24.769       16.721       12.129      613.497      279.596      147.107        0.549        0.052       99.358       11.577        0.014      336.241        7.409      866.041
01/26/2022  17:00:00       93.092       32.972      -11.495       23.432       20.542       15.739      549.067      421.987      247.706        0.555        0.061       98.759        5.136        0.003      336.239        7.406      866.034
01/26/2022  17:01:00       96.293       25.427      -13.609       23.583       18.161       19.491      556.142      329.827      379.885        0.568        0.063       99.594       13.782        0.019      336.247        7.421      866.030
01/26/2022  17:02:00       99.482       25.177       -6.728       16.465       19.584       12.997      271.100      383.538      168.931        0.570        0.041      102.618        7.035        0.005      336.244        7.416      866.043
01/26/2022  17:03:00      120.769       21.547      -17.216       18.603       23.202       14.268      346.090      538.332      203.579        0.822        0.054      122.676        9.295        0.006      336.240        7.409      866.058
01/26/2022  17:04:00       56.711       34.582       -0.822       38.560       36.590       24.347     1486.857     1338.843      592.795        0.391        0.171       66.423       19.747        0.088      336.139        7.239      866.065
01/26/2022  17:05:00       85.720       49.657      -14.852       31.082       30.318       24.687      966.105      919.158      609.471        0.626        0.125       99.064       13.679        0.019      336.222        7.378      866.075
01/26/2022  17:06:00       94.076       24.670       -9.335       16.382       19.722       11.185      268.372      388.951      125.106        0.516        0.039       97.257        8.274        0.007      336.156        7.267      866.087
01/26/2022  17:07:00      108.469       46.608      -10.185       13.358       15.693        7.300      178.449      246.285       53.296        0.726        0.024      118.059        3.391        0.001      336.185        7.317      866.083
01/26/2022  17:08:00      113.201       28.302      -12.326       19.209       24.259       15.734      368.999      588.479      247.557        0.749        0.060      116.685       10.850        0.009      336.139        7.240      866.088
01/26/2022  17:09:00      118.656       50.913      -11.194       27.735       24.200       10.752      769.236      585.662      115.614        0.913        0.074      129.118       10.589        0.007      336.138        7.237      866.093
01/26/2022  17:10:00      121.526       54.231       -9.899       20.499       17.773       14.025      420.206      315.863      196.697        0.937        0.047      133.077        7.886        0.004      336.102        7.177      866.101
01/26/2022  17:11:00      133.747       60.082      -13.630       31.115       21.131       12.767      968.132      446.512      163.008        1.163        0.079      146.622       10.924        0.006      336.083        7.146      866.108
01/26/2022  17:12:00      150.303       70.765      -17.351       22.428       21.870       15.935      502.995      478.297      253.920        1.457        0.062      166.128        8.127        0.002      336.095        7.166      866.117
01/26/2022  17:13:00      145.195       66.012      -17.803       19.692       19.324       11.611      387.768      373.412      134.805        1.333        0.045      159.497        8.588        0.003      336.079        7.139      866.132
01/26/2022  17:14:00      102.242       69.923      -12.812       31.309       18.512       18.051      980.268      342.677      325.826        0.858        0.082      123.866       16.838        0.018      336.042        7.077      866.144
01/26/2022  17:15:00       95.609       62.949       -7.132       30.422       19.634       13.546      925.497      385.481      183.485        0.732        0.075      114.471        7.491        0.004      335.963        6.946      866.156
01/26/2022  17:16:00       89.427       72.003       -1.890       25.986       18.717       14.804      675.249      350.325      219.173        0.721        0.062      114.811       11.128        0.009      335.990        6.992      866.163
01/26/2022  17:17:00       88.083       63.997      -12.855       29.726       20.904       14.859      883.655      436.966      220.799        0.678        0.077      108.877        8.119        0.006      335.981        6.978      866.171
01/26/2022  17:18:00       64.454       65.482      -14.132       25.382       23.851       21.124      644.268      568.874      446.243        0.515        0.083       91.882       19.343        0.044      335.895        6.835      866.181
01/26/2022  17:19:00       86.298       59.352      -13.202       24.415       21.617       15.651      596.115      467.298      244.969        0.623        0.065      104.738        6.401        0.004      335.898        6.839      866.186
01/26/2022  17:20:00      104.331       76.524      -12.558       29.207       17.761       15.353      853.061      315.458      235.700        0.915        0.070      129.387        8.100        0.004      335.878        6.805      866.186
01/26/2022  17:21:00      119.930       67.410      -15.741       39.174       27.281       16.597     1534.573      744.256      275.466        1.086        0.128      137.576       17.856        0.017      335.856        6.768      866.185
01/26/2022  17:22:00      115.827       81.599      -23.759       26.547       22.126       17.677      704.760      489.545      312.491        1.107        0.075      141.684       13.429        0.009      335.844        6.749      866.184
01/26/2022  17:23:00      138.470       95.309      -16.381       38.621       25.437       19.243     1491.616      647.022      370.278        1.552        0.125      168.100       13.146        0.006      335.839        6.740      866.192
01/26/2022  17:24:00      108.849       57.664      -12.143       33.603       25.614       21.029     1129.164      656.091      442.206        0.877        0.111      123.180       11.859        0.009      335.772        6.629      866.201
01/26/2022  17:25:00      115.073       76.927      -23.462       22.637       21.639       20.208      512.440      468.268      408.352        1.055        0.069      138.418       15.871        0.013      335.830        6.726      866.210
01/26/2022  17:26:00       81.126       67.012      -15.200       38.068       21.688       18.660     1449.142      470.358      348.185        0.678        0.113      105.224       16.630        0.025      335.758        6.603      866.215
01/26/2022  17:27:00       92.905       64.385       -6.359       27.746       23.836       18.082      769.863      568.168      326.967        0.724        0.083      113.035        8.842        0.006      335.707        6.519      866.219
01/26/2022  17:28:00       98.254       60.771       -9.821       36.150       29.221       17.618     1306.842      853.849      310.404        0.796        0.124      115.529       14.099        0.015      335.685        6.484      866.224
01/26/2022  17:29:00      113.861       72.509      -15.582       24.250       21.286       14.775      588.039      453.097      218.300        0.986        0.063      134.988       10.285        0.006      335.731        6.560      866.224
01/26/2022  17:30:00      125.191       85.860      -14.942       49.737       32.441       26.341     2473.766     1052.391      693.856        1.374        0.211      151.805       19.463        0.016      335.689        6.489      866.227
01/26/2022  17:31:00      199.691       93.371      -21.107       50.285       47.588       23.610     2528.626     2264.647      557.439        2.719        0.268      220.442       12.245        0.003      335.759        6.605      866.235
01/26/2022  17:32:00      143.712       71.570      -20.959       38.479       26.430       20.546     1480.602      698.551      422.157        1.441        0.130      160.547       13.733        0.007      335.593        6.329      866.250
01/26/2022  17:33:00      120.075       84.894      -18.175       45.213       33.419       19.914     2044.194     1116.819      396.560        1.276        0.178      147.055       19.111        0.017      335.597        6.337      866.269
01/26/2022  17:34:00      180.532       74.553      -17.140       38.344       43.436       26.148     1470.257     1886.708      683.739        2.124        0.202      195.320       18.519        0.009      335.580        6.306      866.285
01/26/2022  17:35:00      178.594       68.868      -17.498       30.227       34.824       17.593      913.701     1212.682      309.517        1.969        0.122      191.412       15.065        0.006      335.521        6.209      866.303
01/26/2022  17:36:00      148.639       49.288      -15.073       37.143       31.328       21.815     1379.592      981.422      475.911        1.379        0.142      156.598       12.448        0.006      335.473        6.131      866.322
01/26/2022  17:37:00      124.006       44.754      -19.087       39.332       34.724       25.610     1546.994     1205.722      655.853        1.058        0.170      131.834       12.999        0.010      335.413        6.032      866.338
01/26/2022  17:38:00      121.536       35.069      -22.419       41.890       36.297       17.100     1754.809     1317.461      292.401        0.993        0.168      126.494       10.480        0.007      335.472        6.128      866.353
01/26/2022  17:39:00      129.245       30.514      -21.011       29.724       32.556       14.355      883.522     1059.888      206.067        1.011        0.107      132.798        8.705        0.004      335.420        6.044      866.375
01/26/2022  17:40:00      148.284       39.040      -18.548       35.339       27.487       23.353     1248.846      755.523      545.341        1.320        0.127      153.337       17.423        0.013      335.375        5.967      866.381
01/26/2022  17:41:00      143.688       28.894      -13.658       47.193       36.609       23.788     2227.166     1340.184      565.890        1.290        0.207      146.564       13.514        0.009      335.314        5.865      866.390
01/26/2022  17:42:00      149.290       22.531      -21.435       39.512       26.831       24.723     1561.202      719.907      611.218        1.307        0.145      150.981       14.151        0.009      335.343        5.912      866.391
01/26/2022  17:43:00      133.774       26.436      -19.990       19.262       24.333       16.552      371.033      592.114      273.974        1.012        0.062      136.361        8.464        0.004      335.293        5.831      866.398
01/26/2022  17:44:00      129.953       45.039      -25.746       38.009       30.890       21.721     1444.706      954.186      471.814        1.122        0.144      137.537        7.698        0.003      335.304        5.847      866.401
01/26/2022  17:45:00      121.253       45.436      -17.064       43.405       37.031       25.453     1884.015     1371.278      647.847        1.048        0.195      129.486       14.173        0.012      335.263        5.779      866.409
01/26/2022  17:46:00       56.918       20.424      -25.258       43.817       52.713       26.696     1919.970     2778.615      712.690        0.485        0.271       60.471       24.247        0.161      335.226        5.716      866.421
01/26/2022  17:47:00       91.170       39.777      -17.417       52.200       46.921       26.491     2724.799     2201.608      701.781        0.791        0.281       99.469       15.891        0.026      335.240        5.741      866.433
01/26/2022  17:48:00      154.449       53.540      -34.614       32.385       23.059       22.338     1048.768      531.704      498.996        1.500        0.104      163.466       15.115        0.009      335.345        5.917      866.457
01/26/2022  17:49:00       87.073       29.931      -27.231       43.786       49.251       24.955     1917.214     2425.614      622.775        0.709        0.248       92.074       12.781        0.019      335.319        5.872      866.473
01/26/2022  17:50:00       72.546       24.627      -17.182       33.342       39.799       29.881     1111.695     1583.927      892.867        0.488        0.179       76.612        8.983        0.014      335.194        5.665      866.490
01/26/2022  17:51:00      117.831       36.929      -13.372       33.957       34.129       18.150     1153.093     1164.816      329.434        0.904        0.132      123.482       13.985        0.013      335.203        5.680      866.500
01/26/2022  17:52:00      100.084       42.079      -18.770       33.420       29.122       20.303     1116.898      848.119      412.211        0.726        0.119      108.570        7.017        0.004      335.184        5.649      866.513
01/26/2022  17:53:00       89.920       40.166      -10.245       15.192       14.648       11.403      230.809      214.553      130.036        0.519        0.029       98.483        5.928        0.004      335.188        5.654      866.536
01/26/2022  17:54:00       98.332       63.917      -17.079       22.928       25.904       16.027      525.710      671.006      256.862        0.775        0.073      117.279        9.603        0.007      335.199        5.672      866.550
01/26/2022  17:55:00      101.105       72.149      -15.969       13.856       14.555       11.298      191.993      211.842      127.648        0.811        0.027      124.208        6.078        0.002      335.206        5.684      866.567
01/26/2022  17:56:00       66.197       58.087       -7.598       25.442       13.595       14.732      647.318      184.835      217.041        0.443        0.052       88.069        9.765        0.012      335.190        5.658      866.595
01/26/2022  17:57:00       26.497       57.394       -7.343       15.223       10.884        9.809      231.729      118.460       96.211        0.225        0.022       63.216        5.398        0.007      335.193        5.663      866.619
01/26/2022  17:58:00      -57.121       19.189      -13.290       57.389       23.419       22.138     3293.488      548.449      490.079        0.407        0.217       60.258       21.930        0.132      334.749        4.928      866.641
01/26/2022  17:59:00     -110.026       56.218      -15.147       38.398       28.480       23.437     1474.405      811.117      549.276        0.916        0.142      123.556       18.257        0.022      334.708        4.860      866.659
01/26/2022  18:00:00      -59.661       49.456      -15.590       44.780       30.058       25.982     2005.271      903.490      675.048        0.492        0.179       77.494       21.563        0.077      335.126        5.553      866.670
01/26/2022  18:01:00      -31.492      140.055      -11.754       37.711       70.202       28.864     1422.090     4928.363      833.145        1.396        0.359      143.552       27.417        0.036      335.207        5.687      866.681
01/26/2022  18:02:00      -29.306      154.079      -19.235       26.366       24.994       20.416      695.167      624.694      416.807        1.335        0.087      156.842       10.989        0.005      335.084        5.483      866.685
01/26/2022  18:03:00       -0.674      129.359      -19.297       23.408       32.188       16.814      547.922     1036.063      282.701        0.949        0.093      129.361        5.308        0.002      335.052        5.431      866.702
01/26/2022  18:04:00       -2.397       72.464      -17.129       28.657       24.097       22.829      821.248      580.675      521.147        0.374        0.096       72.504       10.461        0.021      335.026        5.389      866.721
01/26/2022  18:05:00       10.343       86.088      -10.227       35.865       29.180       23.476     1286.330      851.461      551.100        0.516        0.134       86.707       12.382        0.020      334.970        5.294      866.741
01/26/2022  18:06:00       -1.102       98.677      -13.171       34.017       36.727       20.363     1157.188     1348.864      414.636        0.642        0.146       98.683       14.654        0.022      334.942        5.249      866.753
01/26/2022  18:07:00       -9.560       91.884      -17.399       33.155       45.581       28.541     1099.244     2077.612      814.600        0.641        0.200       92.380       25.941        0.079      334.939        5.244      866.759
01/26/2022  18:08:00       -9.719       83.128      -16.910       21.170       29.290       21.788      448.176      857.892      474.731        0.454        0.089       83.694       10.265        0.015      334.996        5.338      866.771
01/26/2022  18:09:00      -47.944       14.423      -15.561       24.946       30.229       22.712      622.325      913.791      515.824        0.240        0.103       50.066       14.561        0.085      334.979        5.310      866.793
01/26/2022  18:10:00       -2.898       -4.750        1.810       12.029       11.225       10.475      144.698      126.007      109.736        0.021        0.019        5.564        6.682        1.442      334.801        5.014      866.809
01/26/2022  18:11:00       -8.688        6.053       -5.845       16.472       19.532        8.750      271.329      381.480       76.562        0.044        0.036       10.589        9.256        0.764      334.745        4.920      866.832
01/26/2022  18:12:00      -23.939        2.181       -2.953       34.340       21.278       16.047     1179.217      452.763      257.517        0.124        0.094       24.038       17.509        0.531      334.753        4.934      866.844
01/26/2022  18:13:00       13.105       17.597       -4.264       19.277       26.747       13.967      371.602      715.387      195.083        0.089        0.064       21.941       12.302        0.314      334.748        4.926      866.859
01/26/2022  18:14:00      -11.336       40.411      -13.171       18.563       40.887       23.273      344.574     1671.772      541.614        0.225        0.128       41.970       20.444        0.237      334.933        5.233      866.889
01/26/2022  18:15:00       -2.642      -12.235        0.397        8.449        9.444       16.240       71.385       89.181      263.753        0.029        0.021       12.517        8.734        0.487      334.857        5.108      866.908
01/26/2022  18:16:00       -6.179       -4.928       -7.867       11.252        9.920       10.968      126.611       98.412      120.308        0.023        0.017        7.904        7.529        0.907      334.727        4.889      866.932
01/26/2022  18:17:00      -27.080       12.111       -2.232       20.500       13.966       10.109      420.255      195.053      102.201        0.080        0.036       29.665        9.172        0.096      334.717        4.873      866.956
01/26/2022  18:18:00      -14.693       23.308       -9.927       36.581       19.627       10.693     1338.147      385.208      114.333        0.135        0.092       27.553       11.124        0.163      334.671        4.796      866.975
01/26/2022  18:19:00       43.883       23.709      -16.801       19.841       18.467       16.316      393.656      341.048      266.202        0.189        0.050       49.878        4.162        0.007      334.665        4.785      867.000
01/26/2022  18:20:00       22.543       21.402      -14.763       14.770       18.926       19.294      218.164      358.211      372.259        0.107        0.047       31.084        8.957        0.083      334.549        4.593      867.013
01/26/2022  18:21:00       43.257       29.560      -17.186       31.876       23.366       20.906     1016.092      545.969      437.055        0.252        0.100       52.392       13.206        0.064      334.573        4.634      867.038
01/26/2022  18:22:00       78.651       10.431      -17.767       29.482       24.203       19.432      869.198      585.803      377.598        0.422        0.092       79.340       13.306        0.028      334.689        4.825      867.043
01/26/2022  18:23:00       65.243       42.375      -14.970       23.995       18.132       17.277      575.762      328.786      298.477        0.374        0.060       77.796       12.361        0.025      334.579        4.642      867.050
01/26/2022  18:24:00       47.601       40.495       -7.939       17.851       12.083       17.342      318.662      145.994      300.762        0.237        0.038       62.495       12.303        0.039      334.592        4.666      867.057
01/26/2022  18:25:00       26.157       45.965       -6.580       18.679       47.169       14.449      348.892     2224.898      208.783        0.281        0.139       52.887       11.508        0.047      334.617        4.707      867.063
01/26/2022  18:26:00       63.902       42.384       -5.748       24.290       34.540       18.866      590.006     1192.998      355.925        0.403        0.107       76.680        6.534        0.007      334.560        4.611      867.080
01/26/2022  18:27:00      113.240       18.703      -14.150       32.352       31.614       17.163     1046.665      999.472      294.559        0.786        0.117      114.774        5.952        0.003      334.313        4.202      867.093
01/26/2022  18:28:00       37.185       11.125      -23.240       44.093       40.108       29.844     1944.190     1608.675      890.690        0.324        0.222       38.813       24.690        0.405      334.337        4.243      867.102
01/26/2022  18:29:00       47.277       31.952      -15.456       39.937       33.712       27.745     1594.977     1136.480      769.782        0.350        0.175       57.061       14.323        0.063      334.215        4.040      867.106
01/26/2022  18:30:00       21.167       30.410      -19.472       31.556       34.364       18.994      995.790     1180.917      360.757        0.214        0.127       37.052       19.718        0.283      334.351        4.265      867.101
01/26/2022  18:31:00       63.123       54.691      -11.367       22.549       26.623       23.255      508.436      708.808      540.782        0.443        0.088       83.520       15.378        0.034      334.420        4.379      867.090
01/26/2022  18:32:00       39.727       49.143       -4.568       37.602       33.685       28.251     1413.944     1134.672      798.129        0.368        0.167       63.193       20.855        0.109      334.309        4.195      867.099
01/26/2022  18:33:00       52.884       46.794       -6.558       35.287       41.743       34.605     1245.172     1742.507     1197.520        0.461        0.209       70.614       16.669        0.056      334.328        4.227      867.114
01/26/2022  18:34:00        8.525       27.921       -1.741       38.158       37.064       27.186     1456.019     1373.760      739.101        0.221        0.178       29.194       16.380        0.315      334.364        4.287      867.127
01/26/2022  18:35:00       72.996       70.810       -6.696       37.117       29.953       22.658     1377.667      897.182      513.375        0.659        0.139      101.698       17.522        0.030      334.437        4.408      867.140
01/26/2022  18:36:00      100.647       77.492      -20.272       35.547       31.788       21.975     1263.589     1010.452      482.915        0.965        0.138      127.023       13.798        0.012      334.465        4.455      867.153
01/26/2022  18:37:00      100.313       50.471      -26.960       24.636       36.413       24.010      606.926     1325.905      576.489        0.792        0.125      112.294       14.338        0.016      334.396        4.341      867.162
01/26/2022  18:38:00      117.056       29.116      -21.289       16.777       18.806       12.069      281.472      353.653      145.672        0.789        0.039      120.623        4.305        0.001      334.414        4.371      867.165
01/26/2022  18:39:00      115.660       37.099      -10.479       18.489       17.431        9.756      341.856      303.844       95.182        0.780        0.037      121.464        9.438        0.006      334.352        4.267      867.177
01/26/2022  18:40:00      113.537       37.277      -18.310       21.247       24.838       13.964      451.417      616.950      195.004        0.794        0.063      119.500        5.659        0.002      334.420        4.381      867.191
01/26/2022  18:41:00       96.875       63.218      -16.417       22.350       13.338        9.464      499.502      177.908       89.559        0.721        0.038      115.677        4.938        0.002      334.325        4.223      867.212
01/26/2022  18:42:00       31.144       74.585       -9.361       40.758       28.128       20.188     1661.211      791.210      407.558        0.474        0.143       80.826        8.012        0.010      334.329        4.229      867.216
01/26/2022  18:43:00        5.425      107.837      -17.937       30.540       33.148       20.140      932.673     1098.801      405.602        0.721        0.122      107.974       10.219        0.009      334.387        4.325      867.220
01/26/2022  18:44:00       -0.855      105.954       -7.716       34.136       36.387       20.819     1165.294     1324.027      433.434        0.710        0.146      105.958       17.871        0.028      334.358        4.278      867.245
01/26/2022  18:45:00      -30.070       87.383      -13.946       24.161       39.492       23.729      583.762     1559.583      563.056        0.572        0.135       92.412       20.597        0.050      334.300        4.181      867.255
01/26/2022  18:46:00      -40.300      109.494      -12.737       33.357       29.483       18.620     1112.685      869.253      346.707        0.805        0.116      116.675        8.951        0.006      334.462        4.449      867.273
01/26/2022  18:47:00      -28.178      121.872      -15.171       24.330       49.842       18.081      591.927     2484.250      326.918        0.964        0.170      125.087       13.188        0.011      334.501        4.514      867.289
01/26/2022  18:48:00      -37.577       99.968       -8.790       23.865       21.174       18.988      569.561      448.346      360.537        0.643        0.069      106.797       12.080        0.013      334.555        4.605      867.301
01/26/2022  18:49:00      -15.531       96.052      -15.391       25.503       28.335       17.948      650.425      802.851      322.115        0.574        0.089       97.299       14.962        0.024      334.527        4.558      867.299
01/26/2022  18:50:00      -27.196       46.136       -4.869       19.963       38.695       14.802      398.538     1497.283      219.086        0.250        0.106       53.555       13.091        0.060      334.528        4.560      867.290
01/26/2022  18:51:00       -0.689       38.284       -2.703       24.755       36.874       16.468      612.809     1359.707      271.181        0.186        0.112       38.290       10.709        0.078      334.443        4.417      867.278
01/26/2022  18:52:00      -23.202       -0.495      -13.984       17.761       25.937       13.458      315.456      672.741      181.114        0.095        0.058       23.207       15.296        0.434      334.334        4.237      867.284
01/26/2022  18:53:00      -15.536       -2.476      -14.363       23.700       24.122       13.009      561.679      581.891      169.237        0.088        0.066       15.732       13.293        0.714      334.264        4.122      867.295
01/26/2022  18:54:00       -3.047       -5.120      -12.898        9.126       19.993       12.277       83.285      399.721      150.726        0.042        0.032        5.958       11.269        3.577      334.265        4.123      867.312
01/26/2022  18:55:00        2.519       14.879      -12.899        5.842        9.518        7.763       34.128       90.597       60.271        0.029        0.009       15.091        5.628        0.139      334.283        4.153      867.336
01/26/2022  18:56:00       11.343       15.324        0.158       15.677       14.630        8.663      245.765      214.033       75.051        0.045        0.027       19.065        4.247        0.050      334.303        4.185      867.347
01/26/2022  18:57:00      -13.391       -9.825      -15.711       13.636       13.185       11.283      185.939      173.856      127.301        0.050        0.024       16.609        6.650        0.160      334.371        4.298      867.354
01/26/2022  18:58:00       32.139      -37.953      -13.297       22.103       26.249       21.073      488.546      689.033      444.074        0.214        0.081       49.733       11.411        0.053      334.279        4.147      867.356
01/26/2022  18:59:00       17.421      -44.667      -17.917       26.510       24.315       21.427      702.799      591.215      459.128        0.219        0.088       47.944        7.563        0.025      334.255        4.107      867.361
01/26/2022  19:00:00      -10.253       -3.442       -7.770       17.781       12.945       11.998      316.155      167.575      143.941        0.040        0.031       10.816        8.840        0.668      334.202        4.017      867.349
01/26/2022  19:01:00      -17.734       14.367       -1.656       13.839        7.791        8.085      191.515       60.696       65.373        0.042        0.016       22.823        5.214        0.052      334.144        3.923      867.352
01/26/2022  19:02:00       -7.347       18.877       -5.430        5.835        6.761        4.938       34.049       45.709       24.389        0.027        0.005       20.257        3.288        0.026      334.163        3.953      867.341
01/26/2022  19:03:00      -13.796       11.325       -3.812       14.019       12.215        7.064      196.544      149.211       49.894        0.036        0.020       17.849        7.856        0.194      334.133        3.904      867.334
01/26/2022  19:04:00        3.390       18.171       -4.801       13.562       13.584        9.061      183.921      184.537       82.109        0.041        0.023       18.485        4.399        0.057      334.078        3.813      867.336
01/26/2022  19:05:00       23.219       33.505        1.056       16.735       12.111        6.680      280.065      146.683       44.619        0.107        0.024       40.764        8.129        0.040      333.999        3.682      867.354
01/26/2022  19:06:00       44.681       17.213       -7.270       14.714       13.254       12.157      216.507      175.672      147.797        0.144        0.027       47.882        9.162        0.037      333.948        3.599      867.379
01/26/2022  19:07:00       23.279       31.003       -6.848       22.054       13.177       10.754      486.389      173.633      115.655        0.116        0.039       38.770        8.316        0.046      333.896        3.512      867.399
01/26/2022  19:08:00       12.721       65.848       -7.211       21.471       29.378       16.794      460.988      863.067      282.029        0.308        0.080       67.065       13.634        0.041      334.107        3.862      867.405
01/26/2022  19:09:00       22.475      105.727      -11.587       32.635       36.180       18.923     1065.062     1308.996      358.067        0.727        0.137      108.089       17.794        0.027      334.360        4.280      867.411
01/26/2022  19:10:00        5.051       96.765      -10.226       24.147       20.309       14.647      583.082      412.468      214.529        0.535        0.061       96.896       10.645        0.012      334.326        4.224      867.407
01/26/2022  19:11:00       13.211       98.700      -13.346       23.003       21.977       14.184      529.158      483.006      201.177        0.565        0.061       99.580        7.648        0.006      334.307        4.192      867.421
01/26/2022  19:12:00        4.118       99.071      -12.601       26.977       21.580       13.536      727.734      465.680      183.210        0.568        0.069       99.156        6.729        0.005      334.280        4.148      867.435
01/26/2022  19:13:00      -18.308       49.253      -10.745       16.530       25.995       14.238      273.232      675.728      202.729        0.201        0.058       52.546        7.751        0.022      333.965        3.626      867.456
01/26/2022  19:14:00      -12.249       41.922      -10.811       23.177       36.782       17.933      537.166     1352.923      321.591        0.212        0.111       43.675        9.337        0.046      333.846        3.429      867.481
01/26/2022  19:15:00       -4.814       34.092        3.332       31.267       35.245       22.229      977.620     1242.238      494.121        0.195        0.136       34.430       16.324        0.225      333.825        3.395      867.504
01/26/2022  19:16:00       38.419       97.389      -14.080       22.116       40.832       20.972      489.135     1667.261      439.841        0.688        0.130      104.693       16.216        0.024      334.167        3.961      867.516
01/26/2022  19:17:00       -2.675       97.404      -12.317       25.034       20.964       17.212      626.726      439.493      296.254        0.550        0.068       97.440        7.463        0.006      334.084        3.824      867.517
01/26/2022  19:18:00       10.554       98.713      -12.110       26.074       23.190       15.242      679.838      537.763      232.305        0.573        0.072       99.275       10.405        0.011      334.119        3.881      867.512
01/26/2022  19:19:00       39.333      109.346      -11.208       24.784       33.216       18.413      614.257     1103.285      339.027        0.784        0.103      116.205       11.944        0.011      334.235        4.073      867.512
01/26/2022  19:20:00       38.656      141.372      -20.058       34.730       34.610       26.261     1206.161     1197.819      689.651        1.249        0.155      146.562       15.133        0.011      334.148        3.928      867.511
01/26/2022  19:21:00       49.336      128.042      -16.789       37.798       43.468       27.561     1428.662     1889.456      759.615        1.159        0.204      137.218       25.599        0.035      334.045        3.759      867.516
01/26/2022  19:22:00       -0.487       93.740      -14.814       25.215       53.323       22.754      635.794     2843.365      517.760        0.650        0.200       93.742       25.011        0.071      333.877        3.480      867.524
01/26/2022  19:23:00        9.103       83.217       -4.537       37.611       47.002       25.362     1414.596     2209.152      643.225        0.565        0.213       83.713       22.294        0.071      333.859        3.449      867.543
01/26/2022  19:24:00       -1.482       57.434       -9.589       29.309       25.420       16.165      859.018      646.197      261.315        0.258        0.088       57.453       11.266        0.038      333.821        3.387      867.566
01/26/2022  19:25:00       16.478       97.116      -19.225       27.630       28.159       19.524      763.402      792.917      381.198        0.600        0.097       98.504        8.053        0.007      333.916        3.544      867.581
01/26/2022  19:26:00       19.309       56.118       -9.249       22.452       33.985       18.494      504.073     1154.968      342.021        0.280        0.100       59.347       15.959        0.072      333.751        3.272      867.578
01/26/2022  19:27:00      -28.343       60.732      -16.172       44.383       53.477       23.770     1969.838     2859.755      565.006        0.507        0.270       67.020       23.598        0.124      333.758        3.282      867.577
01/26/2022  19:28:00      -16.141      136.794      -13.815       36.265       57.607       31.366     1315.142     3318.572      983.838        1.239        0.281      137.743       20.688        0.023      333.689        3.170      867.577
01/26/2022  19:29:00      -12.646      132.869      -13.963       46.976       47.709       32.376     2206.782     2276.176     1048.228        1.177        0.277      133.470       22.152        0.028      333.671        3.140      867.581
01/26/2022  19:30:00      -20.959      152.287      -10.251       45.102       51.788       30.138     2034.195     2681.953      908.302        1.468        0.281      153.723       27.378        0.032      333.685        3.164      867.600
01/26/2022  19:31:00      -72.410      105.986       -2.569       47.123       47.145       26.365     2220.623     2222.690      695.122        1.081        0.257      128.360       15.570        0.015      333.790        3.336      867.612
01/26/2022  19:32:00      -40.071       50.606       -7.337       53.576       39.284       28.501     2870.414     1543.231      812.323        0.472        0.261       64.549       22.195        0.118      333.614        3.046      867.614
01/26/2022  19:33:00      -65.805       90.162       -2.354       66.131       45.382       31.542     4373.287     2059.530      994.876        0.994        0.371      111.622       19.763        0.031      333.615        3.047      867.606
01/26/2022  19:34:00      -53.942      141.795      -14.252       63.032       52.920       27.581     3973.066     2800.520      760.735        1.538        0.377      151.709       22.704        0.022      333.613        3.043      867.604
01/26/2022  19:35:00      -20.223      176.367      -16.814       44.579       43.394       35.872     1987.300     1883.075     1286.778        1.848        0.258      177.522       25.926        0.021      333.627        3.067      867.606
01/26/2022  19:36:00      -71.452       92.025      -12.057       48.438       46.837       22.889     2346.283     2193.666      523.909        0.939        0.253      116.508       20.543        0.031      333.672        3.142      867.600
01/26/2022  19:37:00      -70.582      101.750      -13.733       58.908       50.675       32.750     3470.197     2567.990     1072.537        1.132        0.356      123.834       30.802        0.062      333.594        3.014      867.601
01/26/2022  19:38:00      -65.751       80.574      -12.300       50.330       59.578       33.649     2533.155     3549.493     1132.244        0.909        0.361      103.996       27.469        0.070      333.654        3.111      867.602
01/26/2022  19:39:00      -47.159       77.329      -11.957       45.349       47.480       30.532     2056.503     2254.318      932.207        0.679        0.262       90.575       22.802        0.063      333.626        3.066      867.622
01/26/2022  19:40:00      -44.022      140.785      -19.197       47.850       50.951       32.212     2289.615     2596.037     1037.609        1.402        0.296      147.507       22.108        0.022      333.619        3.053      867.663
01/26/2022  19:41:00      -64.845      157.085      -16.651       41.128       55.986       28.580     1691.548     3134.450      816.806        1.740        0.282      169.943       27.373        0.026      333.603        3.026      867.712
01/26/2022  19:42:00      -31.342      187.484      -15.887       46.038       49.015       32.072     2119.536     2402.466     1028.620        2.097        0.278      190.085       25.509        0.018      333.579        2.984      867.763
01/26/2022  19:43:00      -43.204      223.161      -13.173       44.081       59.983       29.359     1943.127     3597.921      861.925        2.912        0.320      227.305       31.106        0.019      333.590        3.000      867.800
01/26/2022  19:44:00      -49.736      143.397      -12.452       49.419       51.958       27.424     2442.204     2699.674      752.080        1.454        0.295      151.778       20.851        0.019      333.545        2.930      867.822
01/26/2022  19:45:00      -42.937       82.654      -10.844       59.769       56.810       26.068     3572.389     3227.409      679.520        0.813        0.374       93.141       23.106        0.062      333.548        2.935      867.848
01/26/2022  19:46:00      -37.198      180.511      -14.343       33.535       56.993       25.152     1124.597     3248.166      632.612        1.959        0.250      184.304       20.461        0.012      333.605        3.028      867.869
01/26/2022  19:47:00      -44.516      121.062      -17.096       44.143       69.850       32.475     1948.585     4878.973     1054.652        1.240        0.394      128.987       24.362        0.036      333.628        3.068      867.887
01/26/2022  19:48:00      -42.726       61.175       -7.627       42.274       33.080       23.130     1787.080     1094.270      534.995        0.452        0.171       74.618       15.743        0.045      333.578        2.985      867.899
01/26/2022  19:49:00      -24.310      146.159      -23.933       35.774       52.789       20.143     1279.759     2786.673      405.735        1.350        0.224      148.166       17.329        0.014      333.589        3.003      867.900
01/26/2022  19:50:00      -32.066       82.318      -11.502       32.727       42.944       30.534     1071.045     1844.227      932.311        0.589        0.192       88.343       24.769        0.079      333.595        3.014      867.899
01/26/2022  19:51:00      -54.168       74.091      -14.916       37.842       43.582       24.396     1432.023     1899.363      595.187        0.629        0.196       91.781       14.595        0.025      333.601        3.024      867.899
01/26/2022  19:52:00      -54.602      117.336      -22.015       47.461       50.723       27.370     2252.521     2572.813      749.142        1.140        0.279      129.418       18.742        0.021      333.522        2.890      867.907
01/26/2022  19:53:00      -62.609      100.883      -10.703       34.826       33.698       21.792     1212.833     1135.574      474.877        0.852        0.141      118.732       16.221        0.019      333.570        2.972      867.920
01/26/2022  19:54:00      -30.540      101.928      -20.316       42.121       44.192       26.580     1774.168     1952.927      706.481        0.808        0.222      106.404       18.777        0.031      333.551        2.939      867.941
01/26/2022  19:55:00      -37.595       77.610       -6.598       48.151       47.211       31.941     2318.555     2228.883     1020.254        0.652        0.278       86.237       29.968        0.121      333.519        2.887      867.948
01/26/2022  19:56:00      -43.753      134.392      -12.931       44.754       30.420       22.353     2002.956      925.362      499.637        1.178        0.171      141.335       14.740        0.011      333.533        2.911      867.952
01/26/2022  19:57:00      -75.027       86.636      -14.259       48.259       46.148       35.106     2328.971     2129.678     1232.449        0.951        0.285      114.607       26.426        0.053      333.519        2.888      867.956
01/26/2022  19:58:00      -55.178      132.541      -17.014       46.194       69.064       24.588     2133.854     4769.863      604.591        1.420        0.375      143.568       13.661        0.009      333.536        2.914      867.954
01/26/2022  19:59:00      -59.438      108.632      -15.802       39.359       58.810       24.981     1549.143     3458.593      624.055        1.061        0.282      123.830       14.676        0.014      333.557        2.950      867.950
01/26/2022  20:00:00      -84.717       85.850      -19.046       49.235       51.158       32.561     2424.112     2617.161     1060.206        1.050        0.305      120.612       25.373        0.044      333.506        2.867      867.948
01/26/2022  20:01:00      -48.964       58.345       -4.035       42.863       39.670       28.422     1837.238     1573.712      807.782        0.502        0.211       76.169       23.752        0.097      333.506        2.866      867.935
01/26/2022  20:02:00      -74.540       96.851      -22.893       42.585       31.729       29.644     1813.521     1006.709      878.756        0.958        0.185      122.214       12.267        0.010      333.464        2.796      867.925
01/26/2022  20:03:00      -75.810       42.683      -25.510       30.176       44.732       27.380      910.609     2000.923      749.663        0.594        0.183       87.000       12.911        0.022      333.461        2.791      867.907
01/26/2022  20:04:00      -47.439       47.172       -5.749       37.704       50.910       29.481     1421.624     2591.873      869.133        0.469        0.244       66.900       25.168        0.142      333.425        2.732      867.892
01/26/2022  20:05:00      -47.859       58.004      -20.657       25.154       28.999       29.225      632.708      840.969      854.128        0.420        0.116       75.200       17.659        0.055      333.450        2.771      867.888
01/26/2022  20:06:00      -40.852       61.736       -5.099       26.230       33.651       19.595      688.009     1132.365      383.966        0.385        0.110       74.028        8.114        0.012      333.485        2.830      867.889
01/26/2022  20:07:00      -77.142      112.230      -23.041       35.785       35.351       28.602     1280.542     1249.663      818.087        1.121        0.167      136.185       16.957        0.016      333.460        2.789      867.881
01/26/2022  20:08:00      -57.830       92.254      -12.089       34.200       41.853       22.394     1169.619     1751.703      501.495        0.771        0.171      108.881       14.569        0.018      333.416        2.717      867.886
01/26/2022  20:09:00      -46.471      102.946      -15.912       38.101       36.003       21.193     1451.693     1296.193      449.157        0.810        0.160      112.949        7.315        0.004      333.386        2.668      867.894
01/26/2022  20:10:00      -29.848       98.507      -10.392       30.075       35.688       25.233      904.514     1273.629      636.708        0.676        0.141      102.930       14.758        0.021      333.394        2.681      867.912
01/26/2022  20:11:00      -31.530       68.623       -5.090       59.861       29.020       26.509     3583.383      842.162      702.753        0.543        0.256       75.519       25.892        0.118      333.360        2.624      867.918
01/26/2022  20:12:00      -42.706      143.547      -17.223       43.173       59.970       29.623     1863.907     3596.454      877.532        1.453        0.317      149.764       18.479        0.015      333.424        2.730      867.917
01/26/2022  20:13:00      -20.084      146.562      -11.380       33.556       66.165       25.512     1126.038     4377.753      650.842        1.408        0.308      147.932       26.567        0.032      333.421        2.725      867.916
01/26/2022  20:14:00      -40.628      137.947      -17.355       51.794       44.472       28.728     2682.586     1977.737      825.315        1.323        0.274      143.805       16.061        0.012      333.454        2.780      867.912
01/26/2022  20:15:00      -44.610      123.336      -10.487       36.097       54.491       23.280     1302.980     2969.280      541.970        1.106        0.241      131.155       15.849        0.015      333.429        2.738      867.906
01/26/2022  20:16:00       -3.397       83.684      -14.767       45.954       61.308       23.429     2111.743     3758.621      548.908        0.682        0.321       83.753       15.754        0.035      333.388        2.671      867.901
01/26/2022  20:17:00      -63.573      111.808       -9.229       39.062       54.540       32.991     1525.833     2974.622     1088.414        1.111        0.279      128.617       23.634        0.034      333.502        2.860      867.907
01/26/2022  20:18:00      -57.404      127.577      -17.312       45.963       41.134       29.916     2112.586     1692.014      894.955        1.228        0.235      139.897       11.971        0.007      333.370        2.640      867.918
01/26/2022  20:19:00      -47.626      140.644       -8.503       41.013       62.481       19.051     1682.067     3903.855      362.957        1.403        0.297      148.489       15.889        0.011      333.377        2.652      867.930
01/26/2022  20:20:00      -72.707       75.774      -15.945       59.383       41.138       27.489     3526.324     1692.307      755.633        0.863        0.299      105.014       21.408        0.042      333.327        2.572      867.941
01/26/2022  20:21:00      -56.355       83.343       -8.380       40.219       29.595       23.624     1617.571      875.884      558.094        0.662        0.153      100.608       14.589        0.021      333.307        2.536      867.950
01/26/2022  20:22:00      -33.598       65.528       -1.531       26.769       31.223       22.208      716.595      974.890      493.194        0.380        0.109       73.639       11.447        0.024      333.318        2.554      867.944
01/26/2022  20:23:00      -29.568       44.525       -7.497       46.474       36.760       28.342     2159.835     1351.291      803.255        0.361        0.216       53.448       19.566        0.134      333.243        2.430      867.931
01/26/2022  20:24:00      -74.962       58.148      -23.214       40.812       61.034       21.347     1665.629     3725.152      455.710        0.769        0.292       94.871       16.609        0.031      333.302        2.529      867.913
01/26/2022  20:25:00      -39.398       23.784      -10.260       34.698       57.567       29.314     1203.923     3313.981      859.305        0.380        0.269       46.021       21.564        0.220      333.216        2.385      867.897
01/26/2022  20:26:00      -80.377       57.712      -24.239       33.765       34.676       24.065     1140.074     1202.411      579.131        0.665        0.146       98.950       11.620        0.014      333.215        2.383      867.888
01/26/2022  20:27:00      -56.484       36.085      -11.048       42.711       27.072       24.007     1824.238      732.900      576.345        0.387        0.157       67.026       18.882        0.079      333.220        2.393      867.874
01/26/2022  20:28:00      -74.676       36.552       -7.001       50.943       34.176       21.407     2595.182     1168.017      458.267        0.559        0.211       83.142       18.498        0.050      333.183        2.331      867.863
01/26/2022  20:29:00      -61.866       90.978      -12.099       44.016       55.120       24.701     1937.408     3038.173      610.154        0.892        0.279      110.020       16.846        0.023      333.257        2.453      867.857
01/26/2022  20:30:00      -83.894      111.458      -15.471       42.982       69.389       29.535     1847.495     4814.845      872.338        1.362        0.377      139.503       33.617        0.058      333.215        2.383      867.856
01/26/2022  20:31:00      -83.121       51.557      -16.836       52.301       36.583       32.702     2735.411     1338.346     1069.403        0.750        0.257       97.812       23.317        0.057      333.130        2.246      867.859
01/26/2022  20:32:00      -73.295       51.774      -25.264       35.232       42.313       32.330     1241.300     1790.411     1045.221        0.638        0.204       89.737       16.544        0.034      333.229        2.409      867.871
01/26/2022  20:33:00      -92.685       82.950      -20.916       47.909       51.758       28.673     2295.286     2678.915      822.129        1.085        0.290      124.383       27.601        0.049      333.154        2.285      867.885
01/26/2022  20:34:00     -101.082       31.741      -20.701       50.207       34.495       24.568     2520.729     1189.879      603.606        0.798        0.216      105.948       25.431        0.058      333.151        2.278      867.895
01/26/2022  20:35:00      -73.522       47.476      -15.198       42.549       34.847       23.794     1810.408     1214.326      566.155        0.574        0.180       87.518       14.443        0.027      333.109        2.210      867.910
01/26/2022  20:36:00      -89.598       40.095      -13.229       33.362       31.231       25.170     1113.015      975.355      633.552        0.627        0.136       98.160       15.215        0.024      333.094        2.185      867.926
01/26/2022  20:37:00      -71.286       63.106       -7.519       33.488       33.715       19.542     1121.438     1136.686      381.904        0.588        0.132       95.205       10.803        0.013      333.173        2.316      867.930
01/26/2022  20:38:00      -53.449       37.315      -11.178       26.654       15.905       16.157      710.413      252.970      261.063        0.280        0.061       65.186       12.242        0.035      333.153        2.282      867.915
01/26/2022  20:39:00      -60.928       24.504      -25.312       26.664       29.515       22.918      710.977      871.114      525.235        0.353        0.105       65.671       17.280        0.069      333.165        2.302      867.897
01/26/2022  20:40:00      -59.210       36.476      -17.547       19.891       17.058       20.856      395.637      290.965      434.962        0.313        0.056       69.544        9.420        0.018      333.155        2.285      867.879
01/26/2022  20:41:00      -79.242       35.372      -30.198       27.746       23.849       22.992      769.839      568.758      528.653        0.515        0.093       86.778        8.029        0.009      333.151        2.280      867.858
01/26/2022  20:42:00      -66.753       26.338      -18.534       25.634       24.330       18.844      657.106      591.943      355.081        0.355        0.080       71.761       11.377        0.025      333.068        2.143      867.846
01/26/2022  20:43:00      -65.194       16.641      -12.261       28.602       24.143       16.918      818.077      582.863      286.225        0.318        0.084       67.284       11.703        0.030      333.054        2.119      867.839
01/26/2022  20:44:00      -84.281       29.542      -20.017       20.813       18.880       14.664      433.168      356.456      215.047        0.469        0.050       89.309        6.724        0.006      332.997        2.024      867.822
01/26/2022  20:45:00      -98.316       20.825       -7.983       21.999       20.080       16.315      483.945      403.194      266.164        0.566        0.058      100.498       12.878        0.016      333.018        2.060      867.807
01/26/2022  20:46:00      -50.564       22.256       -6.010       19.567       15.949       13.910      382.871      254.386      193.480        0.196        0.042       55.245        8.981        0.026      332.947        1.943      867.791
01/26/2022  20:47:00      -43.088       16.817      -15.253       22.445       22.121       18.934      503.762      489.352      358.507        0.186        0.068       46.253       12.690        0.075      333.051        2.115      867.792
01/26/2022  20:48:00      -44.954       23.652      -11.218       19.754       16.150       14.459      390.209      260.816      209.053        0.178        0.043       50.797        6.610        0.017      332.985        2.004      867.789
01/26/2022  20:49:00       14.035       -3.664       -6.024       10.483       10.976        8.983      109.884      120.476       80.694        0.028        0.016       14.505        5.953        0.168      332.891        1.850      867.785
01/26/2022  20:50:00        4.102      -12.469       -6.937       14.569       15.750        9.953      212.247      248.075       99.065        0.039        0.028       13.127        3.570        0.074      332.919        1.896      867.799
01/26/2022  20:51:00        7.944        3.082       -5.902        8.918       10.726        9.582       79.532      115.054       91.810        0.020        0.014        8.521        4.116        0.233      332.907        1.875      867.825
01/26/2022  20:52:00       -1.211        6.187       -8.941       10.720        6.695        6.561      114.929       44.817       43.051        0.016        0.010        6.305        4.214        0.447      332.873        1.819      867.843
01/26/2022  20:53:00      -10.033       19.116       -2.339       14.825       11.556        6.585      219.794      133.550       43.368        0.043        0.020       21.589        5.393        0.062      332.896        1.858      867.855
01/26/2022  20:54:00      -38.974       27.893       -5.579       12.727       10.128        8.870      161.969      102.573       78.684        0.134        0.017       47.927        4.153        0.008      332.831        1.752      867.875
01/26/2022  20:55:00      -37.735       18.536       -5.405       15.850       11.826        7.443      251.219      139.845       55.404        0.112        0.022       42.042        4.825        0.013      332.840        1.766      867.875
01/26/2022  20:56:00      -12.779       20.880       -2.194       13.242       10.724       10.765      175.359      115.008      115.878        0.051        0.020       24.480        8.138        0.111      332.811        1.718      867.870
01/26/2022  20:57:00      -18.286       30.254      -13.487       10.750        9.597        7.890      115.556       92.112       62.250        0.085        0.013       35.351        3.736        0.011      332.816        1.726      867.863
01/26/2022  20:58:00      -13.387       20.604       -8.487       12.442        8.330        9.946      154.813       69.383       98.933        0.050        0.016       24.571        5.768        0.055      332.818        1.727      867.854
01/26/2022  20:59:00       -2.758       24.994      -11.003        6.975        9.465        8.887       48.657       89.580       78.977        0.049        0.011       25.146        4.094        0.027      332.896        1.857      867.842
01/26/2022  21:00:00        9.882       27.220       -2.976       15.350        7.506       10.191      235.614       56.341      103.858        0.062        0.020       28.958        8.781        0.092      332.922        1.900      867.830
01/26/2022  21:01:00       36.806       32.548       -0.589       12.197        8.815        5.337      148.778       77.696       28.484        0.133        0.013       49.134        4.935        0.010      333.042        2.100      867.833
01/26/2022  21:02:00       46.073       39.025       -6.288       12.376        7.973       10.109      153.176       63.566      102.184        0.200        0.016       60.379        5.777        0.009      333.087        2.174      867.839
01/26/2022  21:03:00       34.148       22.665       -1.336       16.317       12.455        8.851      266.233      155.126       78.332        0.109        0.025       40.985        9.891        0.058      332.995        2.020      867.839
01/26/2022  21:04:00       50.310       31.486       -6.995        9.158       14.601        8.066       83.878      213.201       65.055        0.197        0.018       59.351        5.054        0.007      333.032        2.082      867.848
01/26/2022  21:05:00       48.148       27.540       -4.773        5.637        7.789        3.330       31.779       60.670       11.090        0.160        0.005       55.468        0.509        0.000      332.921        1.900      867.853
01/26/2022  21:06:00       59.767       37.523       -9.810        8.091        6.387        8.723       65.467       40.789       76.086        0.263        0.009       70.569        3.573        0.003      332.970        1.979      867.859
01/26/2022  21:07:00       60.323       17.594      -14.631       15.078       22.665       11.018      227.353      513.718      121.396        0.251        0.043       62.836       10.457        0.028      332.863        1.804      867.880
01/26/2022  21:08:00       65.332       11.957      -13.512       12.135       11.017       10.073      147.256      121.365      101.468        0.248        0.019       66.417        5.846        0.008      332.621        1.403      867.896
01/26/2022  21:09:00       71.553       42.195      -13.206       15.877       18.047        9.256      252.087      325.689       85.669        0.387        0.033       83.068        8.890        0.011      332.650        1.451      867.921
01/26/2022  21:10:00       63.429       51.125       -6.326       25.443       24.786       14.567      647.337      614.350      212.185        0.408        0.074       81.468       13.914        0.029      332.803        1.704      867.940
01/26/2022  21:11:00       45.318       72.272       -6.255       25.094       29.651       16.655      629.715      879.179      277.374        0.455        0.089       85.305       14.657        0.030      332.923        1.903      867.961
01/26/2022  21:12:00       63.019       42.891      -11.765       21.912       10.989       17.052      480.145      120.759      290.778        0.342        0.045       76.230       15.803        0.043      332.413        1.059      868.000
01/26/2022  21:13:00       58.104       48.665       -9.125       32.414       23.013       18.376     1050.674      529.619      337.661        0.387        0.096       75.791       11.592        0.023      332.555        1.293      867.991
01/26/2022  21:14:00       48.682       52.114       -5.091       22.360       21.589       19.168      499.965      466.100      367.421        0.322        0.067       71.314       11.383        0.025      332.657        1.461      867.963
01/26/2022  21:15:00       73.984       63.507      -13.423       34.245       27.139       23.927     1172.731      736.508      572.516        0.608        0.124       97.502       17.979        0.034      332.631        1.419      867.982
01/26/2022  21:16:00       82.066       75.708      -14.973       43.088       32.304       22.515     1856.615     1043.530      506.921        0.805        0.170      111.653       17.716        0.025      332.631        1.419      868.009
01/26/2022  21:17:00       72.342       92.156      -13.121       52.943       39.498       33.290     2802.952     1560.063     1108.226        0.968        0.274      117.159       33.292        0.081      332.622        1.403      868.029
01/26/2022  21:18:00       55.538      103.194      -14.046       41.112       38.861       29.927     1690.182     1510.187      895.615        0.901        0.205      117.190       24.382        0.043      332.670        1.484      868.056
01/26/2022  21:19:00       84.388      118.234      -15.168       44.523       30.569       26.665     1982.271      934.468      711.043        1.248        0.181      145.260       26.022        0.032      332.627        1.413      868.081
01/26/2022  21:20:00       86.701      102.019      -20.490       37.214       33.238       26.930     1384.884     1104.798      725.239        1.078        0.161      133.884       22.141        0.027      332.561        1.303      868.098
01/26/2022  21:21:00       76.208      105.331       -9.095       38.893       35.934       25.238     1512.646     1291.267      636.962        1.021        0.172      130.009       22.866        0.031      332.645        1.442      868.103
01/26/2022  21:22:00       72.685      102.683      -15.704       41.765       35.113       27.875     1744.354     1232.935      777.040        0.991        0.188      125.805       23.786        0.036      332.653        1.457      868.093
01/26/2022  21:23:00       60.850      101.455      -13.922       42.434       38.330       24.781     1800.645     1469.186      614.109        0.904        0.194      118.304       23.628        0.040      332.612        1.388      868.099
01/26/2022  21:24:00       55.358      100.393      -13.476       30.181       29.168       24.502      910.907      850.756      600.332        0.784        0.118      114.644       19.190        0.028      332.701        1.535      868.105
01/26/2022  21:25:00       28.934      103.085       -6.044       22.654       24.830       22.537      513.184      616.537      507.929        0.657        0.082      107.068       12.629        0.014      332.792        1.686      868.119
01/26/2022  21:26:00       40.916      125.749       -9.331       23.883       37.399       23.544      570.407     1398.705      554.336        1.005        0.126      132.239       13.234        0.010      332.844        1.771      868.126
01/26/2022  21:27:00       41.182       79.745       -5.713       28.264       36.834       22.840      798.842     1356.725      521.668        0.538        0.134       89.751       21.207        0.056      332.751        1.617      868.124
01/26/2022  21:28:00       45.282       68.753       -3.855       34.083       25.308       18.062     1161.624      640.492      326.242        0.446        0.106       82.325       17.092        0.043      332.852        1.784      868.120
01/26/2022  21:29:00        3.825       66.194       -3.884       24.120       23.416       13.326      581.756      548.296      177.585        0.286        0.065       66.305        9.914        0.022      332.873        1.819      868.121
01/26/2022  21:30:00       -1.011       26.563       -4.478       13.252       18.195        9.797      175.606      331.053       95.972        0.066        0.030       26.582        9.305        0.123      332.714        1.558      868.120
01/26/2022  21:31:00      -14.997        4.044       -3.466       17.332       18.040       13.571      300.406      325.452      184.183        0.053        0.041       15.533       10.581        0.464      332.610        1.385      868.106
01/26/2022  21:32:00       -7.438       31.925       -4.538       24.454       19.282       21.308      597.991      371.786      454.040        0.126        0.071       32.780        7.128        0.047      332.745        1.607      868.096
01/26/2022  21:33:00       -2.427       55.606       -9.571       43.234       19.865       18.450     1869.165      394.633      340.390        0.290        0.130       55.659       13.309        0.057      332.792        1.686      868.089
01/26/2022  21:34:00      -33.294       19.579       -7.468       30.619       25.270       18.368      937.548      638.571      337.379        0.173        0.096       38.624       16.067        0.173      332.477        1.165      868.078
01/26/2022  21:35:00      -15.010       14.065       -9.929       41.192       19.906       17.086     1696.817      396.247      291.926        0.145        0.119       20.570       16.398        0.635      332.560        1.302      868.081
01/26/2022  21:36:00       31.859       21.717       -6.909       22.836       16.691       16.759      521.474      278.604      280.867        0.131        0.054       38.557        7.816        0.041      332.767        1.645      868.082
01/26/2022  21:37:00       26.617       -1.808       -8.994       15.802       14.104       10.764      249.701      198.937      115.873        0.068        0.028       26.679        6.043        0.051      332.711        1.552      868.087
01/26/2022  21:38:00        1.531       10.855        3.763       12.091       11.444        8.990      146.189      130.960       80.828        0.025        0.018       10.962        6.175        0.317      332.610        1.385      868.099
01/26/2022  21:39:00       29.556       19.963       -7.295       19.137       13.999       10.103      366.212      195.977      102.069        0.099        0.033       35.666        8.726        0.060      332.694        1.523      868.118
01/26/2022  21:40:00       42.812       28.679       -3.260       25.704       13.764       11.739      660.707      189.459      137.796        0.183        0.049       51.530        9.211        0.032      332.703        1.538      868.142
01/26/2022  21:41:00       46.293       39.465       -5.875       37.498       26.797       23.581     1406.101      718.067      556.071        0.321        0.134       60.832       22.485        0.137      332.683        1.505      868.186
01/26/2022  21:42:00       61.415       33.906       -7.723       33.154       22.499       11.593     1099.158      506.188      134.394        0.336        0.087       70.153        7.616        0.012      332.634        1.425      868.222
01/26/2022  21:43:00       44.561       22.268       -3.415       28.052       20.361       14.577      786.894      414.558      212.492        0.195        0.071       49.815       11.576        0.054      332.641        1.435      868.253
01/26/2022  21:44:00       49.419       27.709       -6.738       11.202       16.285       10.408      125.488      265.217      108.336        0.188        0.025       56.657        9.292        0.027      332.657        1.462      868.269
01/26/2022  21:45:00       53.148       31.664       -4.844       23.244       17.619       14.779      540.301      310.439      218.407        0.246        0.053       61.866        5.229        0.007      332.654        1.458      868.281
01/26/2022  21:46:00       71.564       38.723      -18.606       21.768       26.097       18.596      473.826      681.048      345.793        0.423        0.075       81.369        3.827        0.002      332.726        1.576      868.286
01/26/2022  21:47:00       70.359       55.013      -19.852       17.248       12.711       14.288      297.488      161.581      204.157        0.452        0.033       89.313        5.696        0.004      332.652        1.456      868.286
01/26/2022  21:48:00       57.227       28.007      -20.355       18.528       19.498       13.861      343.282      380.174      192.138        0.269        0.046       63.713        7.130        0.013      332.612        1.388      868.286
01/26/2022  21:49:00       29.050        5.844       -9.504       12.400       11.509        9.442      153.766      132.461       89.152        0.067        0.019       29.632        9.368        0.100      332.595        1.359      868.295
01/26/2022  21:50:00       41.435        3.699       -9.006        9.860        8.894        6.475       97.223       79.103       41.925        0.101        0.011       41.600        3.104        0.006      332.589        1.350      868.322
01/26/2022  21:51:00       61.392       13.575       -8.277        9.546        6.921        3.531       91.130       47.900       12.467        0.209        0.008       62.874        1.963        0.001      332.614        1.390      868.359
01/26/2022  21:52:00       57.537        0.252       -8.104        8.835        8.987        6.398       78.057       80.765       40.933        0.179        0.010       57.538        5.319        0.009      332.639        1.433      868.398
01/26/2022  21:53:00       50.821       12.112       -6.881        9.867        6.071        7.852       97.361       36.853       61.658        0.149        0.010       52.244        4.854        0.009      332.600        1.369      868.432
01/26/2022  21:54:00       61.112       20.548       -6.361       12.723       10.066        6.646      161.875      101.324       44.171        0.225        0.015       64.474        5.536        0.007      332.620        1.402      868.463
01/26/2022  21:55:00       57.833       27.157       -3.548       11.141        8.116        8.059      124.121       65.863       64.948        0.217        0.013       63.892        7.140        0.012      332.559        1.301      868.495
01/26/2022  21:56:00       37.982       16.440       -2.498       18.606       11.493        9.764      346.173      132.078       95.342        0.115        0.029       41.387        9.293        0.050      332.436        1.097      868.523
01/26/2022  21:57:00        2.673        7.745       -4.058        9.535        7.754        9.693       90.915       60.132       93.946        0.016        0.012        8.193        5.126        0.391      332.372        0.990      868.539
01/26/2022  21:58:00       20.754       11.329       -2.835       18.980       13.634       13.194      360.248      185.886      174.076        0.064        0.036       23.644       11.318        0.229      332.443        1.110      868.558
01/26/2022  21:59:00       31.859       24.133       -4.631       15.060       13.441       10.200      226.791      180.659      104.043        0.107        0.026       39.967        8.319        0.043      332.411        1.056      868.575
01/26/2022  22:00:00       62.529       29.768      -16.170       21.049       24.437       13.284      443.054      597.160      176.463        0.314        0.061       69.253        7.549        0.012      332.518        1.231      868.594
01/26/2022  22:01:00       51.042       21.889      -15.179       13.202       16.983       13.659      174.287      288.418      186.558        0.198        0.032       55.538       11.721        0.045      332.576        1.328      868.607
01/26/2022  22:02:00       48.024        1.541       -6.295       18.566       17.281       12.237      344.709      298.628      149.748        0.157        0.040       48.048       10.711        0.050      332.546        1.278      868.614
01/26/2022  22:03:00        7.082        5.142       -5.030       15.077       18.175       12.348      227.310      330.324      152.471        0.041        0.036        8.752       11.240        1.649      332.475        1.161      868.626
01/26/2022  22:04:00       12.210        8.011       -7.553       10.686        7.645        8.271      114.191       58.439       68.404        0.026        0.012       14.604        5.528        0.143      332.419        1.069      868.633
01/26/2022  22:05:00        9.618       -1.589       -7.373       12.831        5.859        7.384      164.646       34.329       54.523        0.020        0.013        9.749        8.183        0.705      332.436        1.097      868.642
01/26/2022  22:06:00       -0.874       12.801        2.394       15.594        7.110       10.121      243.185       50.552      102.435        0.028        0.020       12.831        6.335        0.244      332.464        1.143      868.647
01/26/2022  22:07:00      -16.067       18.846       -8.615       12.733       12.203        9.822      162.124      148.905       96.477        0.055        0.020       24.765        6.541        0.070      332.524        1.243      868.647
01/26/2022  22:08:00       18.068       32.779       -5.616       22.213       16.083       11.851      493.423      258.649      140.456        0.116        0.045       37.429        7.866        0.044      332.467        1.147      868.655
01/26/2022  22:09:00       -9.432       17.197       -4.866       38.013       10.636       12.023     1444.963      113.123      144.543        0.106        0.085       19.614       16.050        0.670      332.342        0.943      868.669
01/26/2022  22:10:00      -38.187        6.822      -13.531       21.062       23.130       13.643      443.590      534.996      186.136        0.143        0.058       38.792       10.490        0.073      332.250        0.791      868.683
01/26/2022  22:11:00      -74.486       28.369       -8.698       16.484       16.379       13.210      271.716      268.275      174.494        0.357        0.036       79.706        9.201        0.013      332.282        0.842      868.697
01/26/2022  22:12:00      -62.722       10.244      -10.046       28.361       19.569       18.814      804.324      382.944      353.968        0.284        0.077       63.554       18.068        0.081      332.311        0.891      868.724
01/26/2022  22:13:00      -33.443       25.241       -7.749       29.208       14.345        8.479      853.100      205.793       71.896        0.147        0.057       41.899        1.668        0.002      332.204        0.713      868.753
01/26/2022  22:14:00      -28.348       33.004      -10.212       20.901       12.781       10.755      436.856      163.357      115.679        0.136        0.036       43.507       11.102        0.065      332.367        0.982      868.781
01/26/2022  22:15:00      -33.879       16.798       -9.753       17.786       15.355       11.733      316.358      235.777      137.670        0.111        0.034       37.814        5.005        0.018      332.357        0.968      868.810
01/26/2022  22:16:00       -1.857       13.006       -3.843       12.219       11.160       10.121      149.299      124.539      102.429        0.028        0.019       13.138        6.240        0.226      332.311        0.891      868.841
01/26/2022  22:17:00      -13.366       36.891      -16.354       21.097       19.822       15.478      445.097      392.922      239.578        0.144        0.054       39.237       11.462        0.085      332.427        1.083      868.866
01/26/2022  22:18:00      -12.207       50.814      -15.584       17.162       45.102       14.106      294.544     2034.184      198.977        0.275        0.126       52.259       15.550        0.089      332.429        1.086      868.876
01/26/2022  22:19:00      -20.081       32.120      -12.102       19.640       34.290       11.525      385.724     1175.779      132.824        0.164        0.085       37.880        6.731        0.032      332.399        1.037      868.884
01/26/2022  22:20:00      -28.593       23.882      -10.354       24.309       24.304       14.207      590.950      590.671      201.852        0.144        0.069       37.255       12.937        0.121      332.457        1.130      868.894
01/26/2022  22:21:00      -28.963       23.911       -4.885       25.843       21.475       16.522      667.844      461.176      272.987        0.142        0.070       37.558       11.644        0.096      332.478        1.167      868.905
01/26/2022  22:22:00       -6.657        4.425        0.119       16.518       18.072       13.488      272.835      326.587      181.933        0.042        0.039        7.993       12.035        2.267      332.381        1.006      868.916
01/26/2022  22:23:00      -18.931        2.892       -8.811       25.264       21.490       10.681      638.268      461.805      114.092        0.083        0.061       19.150       11.660        0.371      332.316        0.899      868.917
01/26/2022  22:24:00      -10.505      -10.036       -5.341       20.304       17.628       10.632      412.266      310.758      113.031        0.054        0.042       14.528        9.391        0.418      332.340        0.938      868.919
01/26/2022  22:25:00      -44.378        6.288      -13.167       33.000       20.639       17.890     1089.026      425.960      320.039        0.201        0.092       44.821       12.968        0.084      332.357        0.968      868.918
01/26/2022  22:26:00      -70.677       14.247       -6.053       35.882       18.043       17.052     1287.538      325.565      290.767        0.357        0.095       72.099        8.825        0.015      332.312        0.891      868.919
01/26/2022  22:27:00      -62.541       14.100       -7.209       25.975       21.834       15.052      674.681      476.740      226.561        0.277        0.069       64.111       11.963        0.035      332.292        0.858      868.923
01/26/2022  22:28:00      -52.236        6.629       -5.941       22.988       18.330       14.818      528.449      335.996      219.580        0.195        0.054       52.654       11.314        0.046      332.302        0.876      868.940
01/26/2022  22:29:00      -10.743      -25.124      -10.901       11.398       10.810        6.905      129.917      116.856       47.683        0.058        0.015       27.324        3.765        0.019      332.269        0.820      868.940
01/26/2022  22:30:00       -6.523      -38.052      -10.933       11.829       11.812       10.259      139.918      139.532      105.238        0.100        0.019       38.607        5.312        0.019      332.305        0.880      868.949
01/26/2022  22:31:00      -21.467      -23.291      -18.302       10.026        8.824        5.694      100.518       77.857       32.422        0.077        0.011       31.675        1.938        0.004      332.297        0.867      868.954
01/26/2022  22:32:00      -17.725       -9.046      -13.489        8.261       14.883        8.088       68.236      221.516       65.421        0.047        0.018       19.900        5.588        0.079      332.340        0.938      868.964
01/26/2022  22:33:00       -8.010      -10.765       -3.933        9.486       11.878        8.279       89.993      141.077       68.541        0.025        0.015       13.418        2.579        0.037      332.232        0.760      868.969
01/26/2022  22:34:00      -22.146        5.630        0.583       12.166       15.105       10.831      148.007      228.149      117.302        0.051        0.025       22.850        7.018        0.094      332.209        0.723      868.984
01/26/2022  22:35:00      -28.280       -2.888       -9.926       18.931       13.797       13.649      358.372      190.344      186.300        0.082        0.037       28.427        9.670        0.116      332.227        0.751      869.000
01/26/2022  22:36:00      -58.471       13.136      -13.918       17.182       20.159       12.579      295.206      406.402      158.224        0.232        0.043       59.928        7.248        0.015      332.141        0.610      869.018
01/26/2022  22:37:00      -40.995        5.584       -8.862       27.644       16.269       12.340      764.165      264.668      152.285        0.149        0.059       41.373        8.514        0.042      332.105        0.550      869.049
01/26/2022  22:38:00      -72.806       16.596      -14.210       15.800       15.247       11.297      249.645      232.480      127.626        0.319        0.030       74.674        5.350        0.005      332.100        0.542      869.080
01/26/2022  22:39:00      -65.384        3.731       -7.396       24.275       25.987       17.387      589.300      675.312      302.292        0.295        0.078       65.490       15.554        0.056      332.052        0.464      869.112
01/26/2022  22:40:00      -66.256       12.736       -0.660       33.556       28.173       22.093     1125.984      793.745      488.121        0.348        0.120       67.469       13.693        0.041      332.033        0.432      869.132
01/26/2022  22:41:00      -99.986       16.093      -10.573       27.682       29.952       21.067      766.292      897.112      443.808        0.624        0.105      101.273       12.298        0.015      331.963        0.317      869.155
01/26/2022  22:42:00      -66.089       14.963       -6.124       33.282       20.283       16.638     1107.713      411.420      276.807        0.321        0.090       67.762       17.794        0.069      331.978        0.344      869.171
01/26/2022  22:43:00      -57.321       20.876       -4.988       35.445       30.278       14.592     1256.338      916.786      212.920        0.307        0.119       61.004       11.172        0.034      331.926        0.256      869.192
01/26/2022  22:44:00      -39.819       -1.000      -11.695       37.799       17.766       16.807     1428.728      315.627      282.464        0.187        0.101       39.831       17.461        0.192      331.895        0.206      869.204
01/26/2022  22:45:00       10.093       -7.671       -9.636       13.767       15.916       10.319      189.536      253.322      106.491        0.040        0.027       12.678        6.719        0.281      331.840        0.116      869.221
01/26/2022  22:46:00       -5.518       -3.295       -3.866       14.232       25.874       11.388      202.563      669.463      129.691        0.053        0.050        6.427        8.701        1.833      331.858        0.145      869.244
01/26/2022  22:47:00        5.851      -29.582       -7.558       18.572       12.744        9.160      344.924      162.402       83.909        0.078        0.030       30.155        5.109        0.029      331.931        0.264      869.268
01/26/2022  22:48:00      -30.918      -13.276      -19.877       11.977       18.153       12.179      143.455      329.541      148.326        0.107        0.031       33.647       11.845        0.124      331.896        0.207      869.298
01/26/2022  22:49:00       -1.356      -12.400       -6.711        9.996       14.022       12.193       99.929      196.623      148.676        0.032        0.022       12.474        6.887        0.305      331.879        0.181      869.316
01/26/2022  22:50:00       -6.320       -5.420       -3.420       13.805       15.587       12.298      190.591      242.960      151.235        0.033        0.029        8.326        6.767        0.660      331.793        0.038      869.329
01/26/2022  22:51:00      -28.528       -2.391       -7.064       21.593       14.522       16.341      466.271      210.877      267.030        0.091        0.047       28.628       14.210        0.246      331.745       -0.041      869.339
01/26/2022  22:52:00      -15.586        7.125       -5.113       22.145       18.171       13.966      490.390      330.195      195.043        0.067        0.051       17.137       12.055        0.495      331.709       -0.101      869.339
01/26/2022  22:53:00       10.580        2.386        5.309       22.100       19.673       19.402      488.420      387.032      376.419        0.070        0.063       10.846        8.706        0.644      331.633       -0.224      869.349
01/26/2022  22:54:00      -40.136       18.157      -11.233       25.395       15.824       13.055      644.885      250.410      170.438        0.157        0.053       44.052        9.246        0.044      331.707       -0.104      869.355
01/26/2022  22:55:00      -52.387       13.534       -8.798       26.854       23.923       14.676      721.117      572.302      215.398        0.226        0.075       54.107       14.020        0.067      331.708       -0.102      869.358
01/26/2022  22:56:00      -50.096       11.028      -13.139       26.780       29.681       12.985      717.147      880.962      168.597        0.228        0.088       51.295        2.547        0.002      331.730       -0.065      869.357
01/26/2022  22:57:00      -47.901       13.296      -13.830       28.831       22.249       15.727      831.200      495.011      247.348        0.212        0.079       49.712       10.759        0.047      331.763       -0.011      869.355
01/26/2022  22:58:00      -62.405       11.620      -11.103       12.334       17.213       12.294      152.117      296.292      151.146        0.238        0.030       63.477        8.433        0.018      331.735       -0.057      869.359
01/26/2022  22:59:00      -81.395       17.740      -10.048       23.197       21.316       13.641      538.101      454.377      186.085        0.411        0.059       83.306       10.881        0.017      331.767       -0.004      869.369
01/26/2022  23:00:00      -29.726        9.946       -5.626       24.034       20.552       15.086      577.642      422.368      227.580        0.112        0.061       31.346       11.975        0.146      331.704       -0.108      869.389
01/26/2022  23:01:00      -32.130       20.669       -5.887       23.351       21.535       14.746      545.250      463.758      217.436        0.136        0.061       38.204        8.011        0.044      331.816        0.076      869.414
01/26/2022  23:02:00      -32.981       19.937       -9.922       20.912       10.228       12.931      437.331      104.618      167.211        0.115        0.035       38.539       11.122        0.083      331.804        0.056      869.439
01/26/2022  23:03:00      -42.769       15.661       -7.173       17.581       14.452       11.625      309.090      208.854      135.135        0.139        0.033       45.546        8.042        0.031      331.792        0.036      869.454
01/26/2022  23:04:00      -26.870       -1.052       -4.812       29.945       13.572       11.065      896.676      184.191      122.444        0.097        0.060       26.891       11.818        0.193      331.741       -0.047      869.461
01/26/2022  23:05:00      -44.958        6.433      -12.218       27.856       26.303       11.149      775.964      691.873      124.294        0.190        0.080       45.415        6.213        0.019      331.797        0.045      869.463
01/26/2022  23:06:00      -53.420       13.430      -11.756       41.300       15.581       17.789     1705.695      242.760      316.456        0.272        0.113       55.082       20.016        0.132      331.741       -0.049      869.470
01/26/2022  23:07:00      -52.169        0.150      -14.241       31.232       25.856       16.221      975.415      668.536      263.125        0.242        0.095       52.169       16.440        0.099      331.746       -0.040      869.485
01/26/2022  23:08:00      -33.719        9.356      -13.840       36.270       21.552       20.596     1315.532      464.499      424.187        0.181        0.110       34.993       18.454        0.278      331.724       -0.076      869.505
01/26/2022  23:09:00      -58.974       10.567      -14.259       20.572       16.418       16.027      423.197      269.544      256.851        0.237        0.047       59.913       12.104        0.041      331.699       -0.118      869.521
01/26/2022  23:10:00     -118.600       41.256      -19.070       32.565       26.824       14.599     1060.494      719.519      213.144        0.906        0.100      125.571       10.762        0.007      331.704       -0.109      869.526
01/26/2022  23:11:00      -82.272       21.458       -3.797       48.229       32.553       19.849     2326.079     1059.707      393.983        0.551        0.189       85.024       23.049        0.073      331.561       -0.345      869.527
01/26/2022  23:12:00      -83.284       26.058       -8.599       35.894       22.753       20.393     1288.368      517.679      415.885        0.496        0.111       87.265       14.547        0.028      331.569       -0.331      869.533
01/26/2022  23:13:00      -96.221       31.172       -8.787       35.766       28.872       21.587     1279.192      833.567      465.991        0.644        0.129      101.145       21.133        0.044      331.564       -0.340      869.549
01/26/2022  23:14:00      -53.172       26.217      -10.784       34.401       22.649       14.308     1183.428      512.990      204.721        0.277        0.095       59.284        7.287        0.015      331.509       -0.431      869.559
01/26/2022  23:15:00      -49.591       25.744      -13.021       22.756       23.613       15.219      517.830      557.585      231.613        0.230        0.065       55.875        9.901        0.031      331.595       -0.288      869.567
01/26/2022  23:16:00      -66.667       35.891       -8.582       22.504       17.940       14.679      506.434      321.853      215.463        0.342        0.052       75.714       10.169        0.018      331.606       -0.270      869.584
01/26/2022  23:17:00      -65.281       28.557      -11.843       24.512       16.772       12.999      600.861      281.286      168.972        0.313        0.053       71.254        9.625        0.018      331.592       -0.293      869.591
01/26/2022  23:18:00      -53.740       18.906      -11.490       29.991       24.098       13.461      899.461      580.696      181.194        0.252        0.083       56.968        9.289        0.027      331.614       -0.257      869.600
01/26/2022  23:19:00      -45.591       30.807      -13.508       14.703       12.810        8.457      216.182      164.098       71.527        0.183        0.023       55.024        4.285        0.006      331.606       -0.271      869.615
01/26/2022  23:20:00      -29.935       48.490      -14.821       23.820       30.002       18.073      567.374      900.107      326.630        0.263        0.090       56.986       16.983        0.089      331.822        0.084      869.620
01/26/2022  23:21:00      -24.597       25.204      -11.467       16.668       18.115       13.219      277.829      328.137      174.743        0.108        0.039       35.218        9.960        0.080      331.903        0.218      869.624
01/26/2022  23:22:00      -15.675       23.481      -10.508       27.059       18.426       14.478      732.211      339.505      209.609        0.109        0.064       28.232        9.226        0.107      331.957        0.307      869.631
01/26/2022  23:23:00      -37.082       38.854      -11.543       21.250       25.693       16.309      451.579      660.123      265.989        0.220        0.069       53.710        8.640        0.026      331.985        0.353      869.634
01/26/2022  23:24:00      -40.756       35.225       -7.794       19.589       23.833       15.784      383.710      568.032      249.135        0.208        0.060       53.869        8.587        0.025      331.980        0.345      869.640
01/26/2022  23:25:00      -14.638       57.132      -13.268       20.813       25.776       18.078      433.164      664.402      326.817        0.254        0.071       58.977       12.687        0.046      332.214        0.731      869.649
01/26/2022  23:26:00      -17.521       17.560       -8.950       22.433       41.561       18.094      503.226     1727.356      327.382        0.163        0.128       24.806       20.821        0.705      332.220        0.741      869.662
01/26/2022  23:27:00       -0.343        2.294      -15.161       20.662       18.630       11.945      426.903      347.084      142.695        0.058        0.046        2.319        9.025       15.145      331.992        0.364      869.671
01/26/2022  23:28:00      -10.407      -22.809       -1.471       27.651       12.430       14.978      764.574      154.508      224.347        0.089        0.057       25.071       13.709        0.299      331.841        0.116      869.675
01/26/2022  23:29:00      -25.660       -5.516      -11.350       20.531       13.784       13.515      421.527      189.999      182.643        0.081        0.040       26.246        7.933        0.091      331.785        0.024      869.689
01/26/2022  23:30:00      -30.059      -11.029       -8.689       25.899       20.639       15.977      670.784      425.951      255.262        0.123        0.068       32.018       11.986        0.140      331.717       -0.088      869.696
01/26/2022  23:31:00      -74.306      -37.178      -11.130       32.544       29.809       28.582     1059.093      888.569      816.913        0.490        0.138       83.087       22.700        0.075      331.611       -0.261      869.703
01/26/2022  23:32:00      -43.366       -8.433      -10.268       46.112       37.106       28.178     2126.273     1376.818      793.996        0.318        0.215       44.179       17.913        0.164      331.498       -0.449      869.709
01/26/2022  23:33:00      -53.639        3.441        1.679       37.662       34.608       25.130     1418.418     1197.722      631.493        0.307        0.162       53.749       21.413        0.159      331.421       -0.576      869.712
01/26/2022  23:34:00     -112.836        2.692      -10.847       39.318       26.671       21.382     1545.886      711.352      457.190        0.779        0.136      112.868       20.301        0.032      331.311       -0.755      869.727
01/26/2022  23:35:00      -72.393        6.241      -11.925       25.526       33.713       18.137      651.577     1136.538      328.943        0.377        0.106       72.662       12.946        0.032      331.337       -0.713      869.741
01/26/2022  23:36:00      -52.808       12.736       -5.799       37.347       26.035       16.062     1394.800      677.809      257.980        0.266        0.117       54.322       11.887        0.048      331.386       -0.633      869.752
01/26/2022  23:37:00      -73.691       11.125       -1.223       35.847       24.207       24.180     1284.995      585.978      584.662        0.401        0.123       74.527       22.556        0.092      331.396       -0.615      869.753
01/26/2022  23:38:00      -67.098      -11.421       -6.030       30.828       34.859       23.920      950.341     1215.166      572.183        0.370        0.137       68.063       14.625        0.046      331.369       -0.661      869.758
01/26/2022  23:39:00      -51.335      -12.497        7.916       52.349       27.714       33.127     2740.409      768.059     1097.381        0.373        0.230       52.834       32.456        0.377      331.260       -0.839      869.758
01/26/2022  23:40:00      -93.155      -15.232        1.248       57.430       31.913       28.805     3298.199     1018.465      829.702        0.703        0.257       94.392       28.625        0.092      331.236       -0.877      869.763
01/26/2022  23:41:00      -86.805       -9.899       -5.188       59.888       24.443       26.253     3586.515      597.446      689.208        0.627        0.244       87.368       30.854        0.125      331.177       -0.975      869.763
01/26/2022  23:42:00     -105.224      -19.731       -6.508       45.428       23.987       23.283     2063.708      575.381      542.093        0.734        0.159      107.058       24.342        0.052      331.204       -0.930      869.765
01/26/2022  23:43:00      -40.619        3.103        0.637       45.698       25.241       19.412     2088.305      637.125      376.813        0.238        0.155       40.738       17.549        0.186      331.154       -1.013      869.774
01/26/2022  23:44:00      -41.590      -13.976       -8.065       33.553       21.299       20.792     1125.824      453.656      432.303        0.200        0.101       43.875       18.332        0.175      331.166       -0.994      869.779
01/26/2022  23:45:00      -87.143        1.154       -9.093       50.454       29.571       26.388     2545.628      874.425      696.304        0.590        0.206       87.151       23.632        0.074      331.173       -0.983      869.774
01/26/2022  23:46:00     -122.022        9.366      -10.783       32.337       27.195       17.327     1045.659      739.541      300.231        0.859        0.104      122.381        9.090        0.006      331.130       -1.054      869.770
01/26/2022  23:47:00      -94.783       -0.370       -5.900       55.869       27.192       21.998     3121.368      739.421      483.927        0.668        0.217       94.783       20.341        0.046      331.137       -1.042      869.767
01/26/2022  23:48:00      -98.558        4.208       -4.970       56.839       36.979       26.057     3230.674     1367.457      678.944        0.752        0.264       98.647       20.836        0.045      331.081       -1.134      869.771
01/26/2022  23:49:00     -126.273      -27.249      -16.842       47.429       34.108       25.103     2249.542     1163.351      630.147        1.051        0.202      129.180       26.858        0.043      331.115       -1.077      869.794
01/26/2022  23:50:00     -106.079       -8.154       -5.906       55.483       41.218       26.600     3078.316     1698.952      707.561        0.842        0.274      106.392       23.579        0.049      331.155       -1.012      869.820
01/26/2022  23:51:00      -76.967        9.373       -4.848       54.080       38.689       26.967     2924.611     1496.806      727.209        0.559        0.257       77.535       24.425        0.099      331.150       -1.021      869.842
01/26/2022  23:52:00      -92.064       -0.623       -8.792       95.282       29.256       32.166     9078.691      855.932     1034.682        0.976        0.548       92.066       35.237        0.146      331.204       -0.929      869.858
01/26/2022  23:53:00     -145.946      -10.582      -31.536       62.138       37.890       25.381     3861.085     1435.668      644.191        1.417        0.297      146.329       26.415        0.033      331.237       -0.876      869.865
01/26/2022  23:54:00      -76.611        7.237       -4.538       54.260       37.935       32.366     2944.131     1439.085     1047.563        0.569        0.272       76.953       25.161        0.107      331.223       -0.900      869.869
01/26/2022  23:55:00     -163.091       50.387        1.313       56.811       47.037       32.634     3227.484     2212.492     1064.982        1.782        0.325      170.697       22.105        0.017      331.154       -1.015      869.861
01/26/2022  23:56:00     -159.655       52.793        0.392       60.530       40.236       29.107     3663.912     1618.968      847.237        1.720        0.307      168.157       32.869        0.038      331.165       -0.995      869.864
01/26/2022  23:57:00     -158.462       21.994        1.823       45.025       38.983       34.603     2027.242     1519.652     1197.394        1.517        0.237      159.981       27.489        0.030      331.122       -1.067      869.875
01/26/2022  23:58:00      -85.590       21.998       -0.381       61.143       40.105       31.659     3738.483     1608.385     1002.303        0.708        0.317       88.372       26.847        0.092      331.151       -1.017      869.889
01/26/2022  23:59:00      -54.028       25.282       -6.942       64.559       37.476       22.287     4167.911     1404.415      496.705        0.484        0.303       59.650       29.821        0.250      331.113       -1.083      869.902
01/27/2022  00:00:00      -50.660       15.756       -8.618       42.713       48.071       26.622     1824.359     2310.824      708.728        0.387        0.242       53.054       15.228        0.082      331.116       -1.077      869.905
01/27/2022  00:01:00      -67.260        6.362      -10.194       68.078       32.509       28.195     4634.567     1056.820      794.936        0.558        0.324       67.560       26.905        0.159      331.143       -1.032      869.904
01/27/2022  00:02:00      -92.769        3.177       -2.354       59.377       36.582       26.308     3525.590     1338.214      692.115        0.709        0.278       92.823       25.520        0.076      331.201       -0.936      869.899
01/27/2022  00:03:00       -9.189        1.881        1.458       52.238       21.339       26.777     2728.857      455.339      716.985        0.199        0.195        9.380       21.045        5.034      331.119       -1.071      869.902
01/27/2022  00:04:00      -41.467      -13.324       -6.433       66.027       32.591       26.828     4359.536     1062.192      719.718        0.404        0.307       43.555       32.368        0.552      331.191       -0.952      869.909
01/27/2022  00:05:00      -30.074        2.366        1.688       37.296       29.853       20.963     1391.016      891.220      439.435        0.182        0.136       30.166       17.432        0.334      331.170       -0.986      869.920
01/27/2022  00:06:00      -88.845        3.800       -4.629       52.118       28.776       26.431     2716.298      828.036      698.592        0.609        0.212       88.927       30.594        0.118      331.135       -1.044      869.926
01/27/2022  00:07:00      -34.357        8.863       -4.121       35.847       31.937       21.273     1284.976     1019.990      452.531        0.202        0.138       35.482       19.579        0.304      331.115       -1.078      869.949
01/27/2022  00:08:00      -81.260       21.444       -5.568       34.280       27.031       16.698     1175.099      730.687      278.809        0.464        0.109       84.042       12.155        0.021      331.066       -1.159      869.970
01/27/2022  00:09:00     -124.834       61.691       -8.904       48.023       34.588       29.040     2306.212     1196.323      843.296        1.191        0.217      139.245       21.894        0.025      330.969       -1.318      869.998
01/27/2022  00:10:00     -134.028       54.106       -0.153       57.069       41.555       31.200     3256.843     1726.810      973.420        1.342        0.298      144.538       32.586        0.051      330.956       -1.340      870.022
01/27/2022  00:11:00     -144.530       51.948       -6.206       51.031       41.839       28.507     2604.182     1750.478      812.665        1.440        0.258      153.582       29.387        0.037      330.988       -1.287      870.041
01/27/2022  00:12:00     -150.565       64.331        0.827       57.402       39.827       31.528     3294.999     1586.162      994.044        1.634        0.294      163.732       27.991        0.029      330.881       -1.464      870.072
01/27/2022  00:13:00      -68.950       33.363       -9.062       49.712       31.627       25.777     2471.300     1000.241      664.475        0.504        0.207       76.598       11.852        0.024      330.928       -1.384      870.094
01/27/2022  00:14:00      -81.303       34.428      -32.473       32.784       31.974       21.320     1074.763     1022.364      454.552        0.570        0.128       88.292        8.789        0.010      331.029       -1.220      870.105
01/27/2022  00:15:00      -90.430       12.346       -6.846       58.797       30.234       24.529     3457.129      914.113      601.648        0.667        0.249       91.269       23.410        0.066      331.127       -1.059      870.113
01/27/2022  00:16:00      -25.442       -3.828      -18.281       43.615       30.463       26.964     1902.250      928.017      727.045        0.228        0.178       25.728       21.189        0.678      331.100       -1.102      870.118
01/27/2022  00:17:00      -18.338       -9.093       -7.135       25.675       21.615       17.833      659.192      467.224      318.022        0.096        0.072       20.468        8.349        0.166      331.101       -1.102      870.123
01/27/2022  00:18:00      -31.643        1.974      -13.579       32.068       23.075       19.272     1028.356      532.457      371.427        0.156        0.097       31.704       13.631        0.185      331.073       -1.146      870.125
01/27/2022  00:19:00      -39.591        5.184       -9.317       27.960       27.901       17.401      781.741      778.441      302.791        0.177        0.093       39.929       12.521        0.098      331.118       -1.073      870.130
01/27/2022  00:20:00      -77.041       33.997      -13.940       25.842       17.336       19.791      667.824      300.539      391.687        0.432        0.068       84.209       17.069        0.041      331.056       -1.176      870.122
01/27/2022  00:21:00      -31.379        2.295      -13.633       24.589       26.178       23.405      604.621      685.285      547.781        0.151        0.092       31.463       20.599        0.429      331.053       -1.179      870.111
01/27/2022  00:22:00      -53.244       -0.136      -18.814       25.690       24.426       15.828      659.973      596.616      250.512        0.235        0.075       53.244        9.933        0.035      331.093       -1.115      870.113
01/27/2022  00:23:00      -38.133        3.845      -10.691       28.341       17.406       15.683      803.226      302.963      245.956        0.147        0.068       38.326       12.182        0.101      331.179       -0.973      870.118
01/27/2022  00:24:00      -57.751        4.890       -2.549       32.523       19.523       15.192     1057.729      381.155      230.796        0.252        0.083       57.958       12.169        0.044      331.106       -1.093      870.123
01/27/2022  00:25:00       -0.077        6.173       -0.390       15.717       16.695       15.745      247.014      278.711      247.893        0.041        0.039        6.174        6.575        1.134      331.081       -1.135      870.124
01/27/2022  00:26:00      -26.712        2.864      -10.375       13.544       16.026       11.661      183.428      256.819      135.988        0.070        0.029       26.865        6.875        0.065      331.143       -1.029      870.127
01/27/2022  00:27:00      -24.876       11.232       -2.693       14.092       12.893       13.830      198.592      166.217      191.258        0.065        0.028       27.295        7.849        0.083      331.170       -0.987      870.120
01/27/2022  00:28:00       -9.575        0.689        0.909       18.396       21.251        7.765      338.406      451.620       60.299        0.047        0.043        9.599        7.472        0.606      331.226       -0.894      870.105
01/27/2022  00:29:00      -28.110        6.506       -7.650       19.327       20.507        9.467      373.538      420.546       89.625        0.089        0.044       28.853        8.790        0.093      331.240       -0.871      870.097
01/27/2022  00:30:00      -29.474        5.870       -7.494       14.831       18.303       10.583      219.967      335.004      112.006        0.081        0.033       30.052        7.916        0.069      331.268       -0.825      870.097
01/27/2022  00:31:00      -13.767       -8.885       -5.528       13.531       18.861       14.529      183.086      355.735      211.095        0.052        0.037       16.385       11.774        0.516      331.322       -0.738      870.098
01/27/2022  00:32:00       -6.991        6.539        2.397       14.143       15.655       10.213      200.035      245.065      104.296        0.032        0.027        9.573        6.597        0.475      331.224       -0.898      870.115
01/27/2022  00:33:00      -54.897       26.619      -15.014       26.656       19.105       16.476      710.525      365.010      271.472        0.265        0.067       61.011       10.544        0.030      331.070       -1.152      870.124
01/27/2022  00:34:00      -19.331       41.393      -12.816       11.932       12.482        6.123      142.381      155.799       37.492        0.129        0.017       45.684        5.002        0.012      331.031       -1.216      870.142
01/27/2022  00:35:00      -31.596       12.060       -9.190       13.214       18.759        8.049      174.601      351.903       64.792        0.091        0.030       33.819        3.014        0.008      331.068       -1.155      870.159
01/27/2022  00:36:00       -9.850      -14.643       -3.327       12.301       18.385        8.745      151.325      338.020       76.483        0.044        0.028       17.648        6.525        0.137      331.125       -1.062      870.176
01/27/2022  00:37:00       19.847      -19.193      -16.966       18.738       18.493        8.513      351.119      341.994       72.469        0.091        0.038       27.609        4.503        0.027      330.957       -1.338      870.203
01/27/2022  00:38:00       14.775        2.159       -6.354       12.471        9.508        6.903      155.526       90.395       47.645        0.028        0.015       14.931        4.195        0.079      330.878       -1.466      870.229
01/27/2022  00:39:00      -25.986        6.876      -11.308       13.386       12.665        8.158      179.189      160.412       66.559        0.063        0.020       26.881        6.246        0.054      331.003       -1.264      870.244
01/27/2022  00:40:00        2.739      -23.296       -6.018       17.814       19.752       11.727      317.323      390.133      137.526        0.072        0.042       23.456        9.211        0.154      330.984       -1.294      870.265
01/27/2022  00:41:00        4.827      -45.989      -21.198       15.816       17.629       13.680      250.154      310.798      187.137        0.167        0.037       46.242        6.436        0.019      330.900       -1.432      870.302
01/27/2022  00:42:00       12.703      -47.555      -16.859       22.085       34.201       24.327      487.760     1169.699      591.811        0.248        0.112       49.223       23.654        0.231      331.010       -1.251      870.331
01/27/2022  00:43:00       13.871      -35.614      -32.418       33.102       22.968       20.093     1095.768      527.508      403.722        0.227        0.101       38.220        9.542        0.062      330.863       -1.491      870.344
01/27/2022  00:44:00       -9.554        1.311       -6.934       16.344       10.916       14.755      267.133      119.155      217.710        0.037        0.030        9.644        5.842        0.367      330.823       -1.557      870.348
01/27/2022  00:45:00      -15.162       -6.836       -3.178       12.369       17.856       12.232      152.998      318.828      149.631        0.045        0.031       16.632       10.496        0.398      330.780       -1.628      870.343
01/27/2022  00:46:00      -10.951        0.580       -8.275       18.115       21.851        9.055      328.152      477.480       81.986        0.054        0.044       10.966        5.143        0.220      330.767       -1.648      870.335
01/27/2022  00:47:00      -36.772      -18.805      -12.010       32.795       34.332       30.596     1075.512     1178.697      936.144        0.252        0.160       41.301       18.160        0.193      330.640       -1.858      870.328
01/27/2022  00:48:00      -49.257       11.967       -0.982       16.602       24.764       16.175      275.638      613.265      261.624        0.186        0.058       50.690        9.416        0.035      330.687       -1.779      870.332
01/27/2022  00:49:00      -23.216       -1.761       -2.577       20.797       24.685       18.136      432.505      609.346      328.917        0.096        0.069       23.282       10.285        0.195      330.611       -1.905      870.319
01/27/2022  00:50:00      -29.870      -15.932       -8.675       38.599       30.891       24.330     1489.901      954.224      591.928        0.213        0.152       33.853       14.174        0.175      330.639       -1.859      870.306
01/27/2022  00:51:00      -17.835      -26.001       -6.754       35.175       37.171       22.835     1237.270     1381.653      521.416        0.209        0.157       31.530       16.497        0.274      330.676       -1.798      870.313
01/27/2022  00:52:00       -7.199        6.411        1.578       14.353       30.373       18.266      205.995      922.503      333.647        0.078        0.073        9.640        6.856        0.506      330.594       -1.934      870.328
01/27/2022  00:53:00      -54.958       21.316        0.747       34.343       15.471       12.485     1179.471      239.354      155.874        0.252        0.079       58.947       12.373        0.044      330.507       -2.075      870.330
01/27/2022  00:54:00      -43.563        5.282       -3.198       46.260       18.248       15.887     2140.023      332.992      252.396        0.233        0.136       43.882       15.844        0.130      330.491       -2.102      870.319
01/27/2022  00:55:00      -26.834      -12.766       -2.555       29.937       16.225       17.561      896.200      263.264      308.377        0.118        0.073       29.717        9.601        0.104      330.750       -1.677      870.309
01/27/2022  00:56:00      -28.978       -6.758       -1.289       18.834       14.553       13.399      354.718      211.795      179.543        0.082        0.037       29.756       10.182        0.117      330.797       -1.600      870.309
01/27/2022  00:57:00      -22.539       -0.862       -2.789       30.195       12.272       15.115      911.761      150.596      228.462        0.090        0.065       22.555       16.036        0.505      330.645       -1.849      870.302
01/27/2022  00:58:00       21.911       -4.780       -0.388       16.640       13.087       10.023      276.900      171.274      100.453        0.053        0.027       22.426        6.166        0.076      330.748       -1.680      870.311
01/27/2022  00:59:00       -3.090        0.702       -4.995       15.062        7.640        6.970      226.867       58.366       48.586        0.018        0.017        3.168        4.441        1.964      330.744       -1.685      870.325
01/27/2022  01:00:00      -11.248        2.468       -1.648       14.584       19.947       13.156      212.698      397.890      173.080        0.046        0.039       11.516       11.971        1.081      330.755       -1.669      870.334
01/27/2022  01:01:00      -43.599       21.014       -4.018       26.101       15.450       12.952      681.276      238.711      167.754        0.172        0.054       48.399       11.215        0.054      330.648       -1.845      870.338
01/27/2022  01:02:00      -53.674       19.080       -3.602       17.768       17.097       14.170      315.689      292.322      200.801        0.203        0.040       56.965        9.599        0.028      330.670       -1.808      870.340
01/27/2022  01:03:00      -62.554       24.911       -7.202       28.817       16.369       16.636      830.427      267.947      276.745        0.298        0.069       67.332       15.346        0.052      330.606       -1.913      870.338
01/27/2022  01:04:00      -83.231       29.410      -16.253       21.107       23.526       15.517      445.494      553.481      240.786        0.465        0.062       88.274        8.272        0.009      330.531       -2.037      870.343
01/27/2022  01:05:00      -31.462        2.962       -6.873       25.135       24.278       16.139      631.775      589.408      260.479        0.126        0.074       31.601       13.453        0.181      330.553       -2.001      870.350
01/27/2022  01:06:00      -19.237       -6.619      -11.187       27.970       23.912       11.997      782.322      571.792      143.937        0.102        0.075       20.344        8.799        0.187      330.582       -1.953      870.349
01/27/2022  01:07:00      -13.520      -14.771       -6.997       15.209       22.314       10.517      231.303      497.935      110.599        0.064        0.042       20.024        9.543        0.227      330.664       -1.819      870.347
01/27/2022  01:08:00      -10.258       -5.685       -7.629       19.495       18.761       15.019      380.055      351.965      225.570        0.058        0.048       11.728       13.909        1.407      330.651       -1.840      870.346
01/27/2022  01:09:00      -14.187        7.918       -7.023       11.653        7.368        9.998      135.802       54.286       99.956        0.030        0.015       16.247        8.563        0.278      330.550       -2.005      870.329
01/27/2022  01:10:00      -20.251        5.388       -9.389       18.378       17.938       13.577      337.756      321.770      184.335        0.069        0.042       20.956        9.829        0.220      330.632       -1.870      870.311
01/27/2022  01:11:00      -30.993       11.406      -11.966       24.942       21.645       13.399      622.121      468.519      179.540        0.125        0.064       33.025       10.585        0.103      330.568       -1.976      870.305
01/27/2022  01:12:00      -42.003       12.304       -9.637       13.930       14.414       13.039      194.033      207.769      170.016        0.129        0.029       43.768        8.327        0.036      330.506       -2.079      870.295
01/27/2022  01:13:00      -13.272        2.859       -3.614       15.730       10.786        9.734      247.448      116.330       94.753        0.033        0.023       13.577        5.707        0.177      330.416       -2.227      870.309
01/27/2022  01:14:00       -4.659       -7.308       -8.799       19.896       24.785       11.051      395.851      614.304      122.131        0.064        0.057        8.667        7.049        0.661      330.507       -2.077      870.327
01/27/2022  01:15:00        0.411       -0.332       -3.564        7.912       23.372       10.425       62.606      546.234      108.673        0.037        0.036        0.528        5.063       91.895      330.575       -1.966      870.337
01/27/2022  01:16:00      -15.405       23.629       -6.521       16.010       14.463       12.741      256.327      209.176      162.334        0.073        0.031       28.207       10.505        0.139      330.584       -1.949      870.358
01/27/2022  01:17:00      -18.250        3.427      -10.534       16.664       13.147        9.170      277.689      172.845       84.081        0.050        0.027       18.569        5.395        0.084      330.556       -1.996      870.378
01/27/2022  01:18:00       11.303       -6.279      -10.720       10.651       10.776        5.773      113.441      116.114       33.324        0.027        0.013       12.930        3.173        0.060      330.557       -1.994      870.394
01/27/2022  01:19:00        6.686       -8.422       -0.014       15.085       14.247        9.373      227.552      202.984       87.847        0.032        0.026       10.754        6.914        0.413      330.498       -2.091      870.401
01/27/2022  01:20:00        2.323       -1.264      -15.046       11.437       17.153        8.072      130.796      294.209       65.164        0.036        0.025        2.645        6.967        6.937      330.477       -2.126      870.411
01/27/2022  01:21:00       -7.678       10.592      -11.590       14.218        9.828        6.235      202.161       96.590       38.870        0.032        0.017       13.082        3.289        0.063      330.410       -2.236      870.416
01/27/2022  01:22:00       -5.179      -19.288       -4.049        6.114       12.735       10.407       37.375      162.192      108.311        0.036        0.015       19.971        3.468        0.030      330.531       -2.037      870.410
01/27/2022  01:23:00       -5.548      -15.411       -6.507       10.885       10.706        8.245      118.492      114.628       67.983        0.031        0.015       16.379        6.730        0.169      330.608       -1.910      870.413
01/27/2022  01:24:00       -9.742      -14.408      -13.624       14.922       15.364        9.836      222.674      236.040       96.748        0.052        0.028       17.392        7.695        0.196      330.661       -1.823      870.414
01/27/2022  01:25:00      -13.768      -14.621       -8.428       18.059       15.032       10.938      326.123      225.952      119.644        0.057        0.034       20.083        8.591        0.183      330.636       -1.863      870.424
01/27/2022  01:26:00      -10.075       -3.280       -6.823       28.330       17.581       14.882      802.585      309.106      221.483        0.075        0.067       10.596       13.294        1.574      330.617       -1.896      870.432
01/27/2022  01:27:00       -1.133        1.850        7.031        7.633        8.746        8.491       58.258       76.491       72.096        0.013        0.010        2.169        4.727        4.750      330.433       -2.197      870.433
01/27/2022  01:28:00        2.827       -0.132       -2.466       10.707       14.627       13.636      114.634      213.955      185.946        0.026        0.026        2.830        5.259        3.452      330.440       -2.185      870.428
01/27/2022  01:29:00        0.244       -2.521        5.729       18.865       16.873       12.106      355.896      284.689      146.547        0.041        0.039        2.533       10.737       17.969      330.481       -2.119      870.427
01/27/2022  01:30:00      -22.991      -13.748      -13.510       23.057       14.465       10.528      531.632      209.242      110.841        0.088        0.043       26.788        8.577        0.103      330.378       -2.288      870.430
01/27/2022  01:31:00      -24.258       -2.221      -10.211       16.140       14.715       10.945      260.499      216.536      119.785        0.065        0.030       24.360        5.693        0.055      330.415       -2.227      870.443
01/27/2022  01:32:00      -12.004       -6.494       -0.028       13.593       17.444       12.730      184.782      304.288      162.054        0.042        0.033       13.649        7.079        0.269      330.364       -2.310      870.461
01/27/2022  01:33:00      -35.857       11.010      -11.941       25.815       26.590       11.482      666.397      707.020      131.839        0.153        0.075       37.510        8.278        0.049      330.291       -2.428      870.473
01/27/2022  01:34:00        1.548      -19.271      -21.253       16.648       13.815       15.825      277.140      190.847      250.430        0.077        0.036       19.333        6.133        0.101      330.325       -2.374      870.488
01/27/2022  01:35:00      -20.478        7.023       -9.739       21.055       18.699       14.748      443.322      349.662      217.504        0.079        0.051       21.649       10.269        0.225      330.298       -2.418      870.494
01/27/2022  01:36:00      -33.691        0.514       -5.492       22.217       25.628       12.955      493.576      656.817      167.832        0.124        0.066       33.695        8.098        0.058      330.247       -2.501      870.499
01/27/2022  01:37:00       -8.057       -8.212       -9.113       22.936       17.830       15.624      526.038      317.915      244.107        0.065        0.054       11.504        5.552        0.233      330.273       -2.459      870.494
01/27/2022  01:38:00        6.348      -18.451      -13.060       17.910       18.617       11.963      320.759      346.594      143.120        0.068        0.041       19.513        9.434        0.234      330.382       -2.281      870.494
01/27/2022  01:39:00        7.199       -5.246       -3.232       15.664       10.982       15.609      245.345      120.601      243.645        0.035        0.030        8.908        7.512        0.711      330.354       -2.326      870.498
01/27/2022  01:40:00        2.589      -14.393        3.196       16.731       17.838       12.350      279.932      318.195      152.520        0.049        0.038       14.624        5.864        0.161      330.366       -2.307      870.505
01/27/2022  01:41:00       11.167       -0.286        2.203       25.363       18.248       18.863      643.261      332.981      355.831        0.073        0.067       11.171       15.002        1.804      330.322       -2.379      870.522
01/27/2022  01:42:00       17.384       16.646       -9.712        9.678       18.959        9.167       93.661      359.444       84.038        0.061        0.027       24.068        3.782        0.025      330.329       -2.366      870.549
01/27/2022  01:43:00       -6.730       43.635       -9.258       16.881        8.853        9.719      284.965       78.379       94.454        0.125        0.023       44.151        6.120        0.019      330.192       -2.592      870.578
01/27/2022  01:44:00      -64.017       39.837      -14.102       10.891        9.534        7.576      118.621       90.901       57.395        0.308        0.013       75.400        2.801        0.001      330.233       -2.525      870.602
01/27/2022  01:45:00      -54.167       16.471      -13.089       21.443       18.922       14.908      459.786      358.055      222.236        0.221        0.052       56.616        6.644        0.014      330.355       -2.326      870.622
01/27/2022  01:46:00      -16.354       -5.106      -11.739       21.977       17.734       13.954      483.008      314.497      194.713        0.071        0.050       17.132        9.386        0.300      330.332       -2.362      870.635
01/27/2022  01:47:00      -31.408       13.125      -10.980       20.070       15.081       14.863      402.815      227.440      220.908        0.107        0.043       34.040       14.585        0.184      330.192       -2.593      870.638
01/27/2022  01:48:00      -16.684        4.722       -8.168       19.470       18.108       13.098      379.074      327.889      171.550        0.062        0.044       17.339        6.902        0.158      330.155       -2.653      870.643
01/27/2022  01:49:00       -8.258        7.000        0.924       15.233       21.737       15.294      232.040      472.493      233.895        0.053        0.047       10.825        8.688        0.644      330.145       -2.670      870.642
01/27/2022  01:50:00      -14.684        9.614       -0.028       19.911       11.890        8.514      396.439      141.366       72.490        0.046        0.031       17.551        6.383        0.132      330.084       -2.770      870.633
01/27/2022  01:51:00      -15.781       -1.112      -21.566       20.608       17.054        8.393      424.705      290.825       70.445        0.075        0.039       15.820        4.142        0.069      330.272       -2.461      870.638
01/27/2022  01:52:00       -4.741       -3.363      -10.434        7.133       10.958        7.929       50.877      120.074       62.865        0.019        0.012        5.813        2.148        0.136      330.340       -2.349      870.636
01/27/2022  01:53:00      -17.277        3.371       -8.736       10.684       13.306        8.168      114.142      177.045       66.719        0.037        0.018       17.603        5.751        0.107      330.353       -2.330      870.636
01/27/2022  01:54:00      -14.090        0.561       -5.979       24.852       20.813        9.174      617.597      433.162       84.154        0.068        0.057       14.101        4.774        0.115      330.277       -2.452      870.647
01/27/2022  01:55:00      -34.828       26.284      -10.520       17.749       12.363       10.532      315.044      152.853      110.918        0.130        0.029       43.633        9.279        0.045      330.200       -2.581      870.653
01/27/2022  01:56:00        5.164        7.209       -8.266       12.258       14.214       10.277      150.259      202.042      105.610        0.030        0.023        8.868        8.219        0.859      330.178       -2.616      870.669
01/27/2022  01:57:00       -1.469      -14.682       -6.770        9.735       13.815       10.319       94.773      190.855      106.481        0.033        0.020       14.756        6.752        0.209      330.127       -2.699      870.693
01/27/2022  01:58:00      -26.534       -5.502      -14.067       17.866       10.819       10.117      319.192      117.047      102.351        0.074        0.027       27.099        7.712        0.081      330.126       -2.700      870.712
01/27/2022  01:59:00       -1.844        5.768       -8.388       11.639       10.841        9.466      135.458      117.534       89.607        0.022        0.017        6.055        7.362        1.478      330.156       -2.651      870.731
01/27/2022  02:00:00        0.074       -4.303       -9.557        6.548        7.974        6.924       42.881       63.586       47.946        0.013        0.008        4.303        4.458        1.073      330.154       -2.655      870.745
01/27/2022  02:01:00       -1.828       -0.557      -10.246        6.390       12.991        8.108       40.835      168.767       65.733        0.019        0.014        1.911        4.045        4.482      330.188       -2.598      870.755
01/27/2022  02:02:00      -13.857       12.205       -3.651       15.629       11.327       12.035      244.273      128.312      144.849        0.044        0.026       18.465        8.247        0.199      330.089       -2.762      870.759
01/27/2022  02:03:00      -39.536       23.357      -11.700       12.453       12.880        8.356      155.082      165.903       69.819        0.132        0.020       45.920        4.509        0.010      330.133       -2.690      870.751
01/27/2022  02:04:00      -42.376       27.568      -14.106       26.778       17.626       10.278      717.043      310.684      105.645        0.194        0.057       50.554        8.303        0.027      330.029       -2.860      870.739
01/27/2022  02:05:00      -56.187       20.615       -7.958       15.630       19.211       10.178      244.309      369.080      103.588        0.218        0.036       59.849        6.431        0.012      329.967       -2.961      870.729
01/27/2022  02:06:00        6.441       -4.744      -11.799       17.742       10.328       10.183      314.769      106.677      103.703        0.036        0.026        8.000        5.481        0.469      329.988       -2.924      870.716
01/27/2022  02:07:00       -6.799       11.083        0.900       19.726       16.884       15.832      389.118      285.066      250.666        0.055        0.046       13.002        8.613        0.439      329.902       -3.066      870.701
01/27/2022  02:08:00        2.746        0.578      -11.660       17.106        6.412       10.766      292.608       41.109      115.900        0.030        0.022        2.806       10.641       14.380      329.919       -3.040      870.683
01/27/2022  02:09:00      -20.608        4.342       -4.411       25.037       33.876       21.432      626.826     1147.559      459.344        0.135        0.112       21.060       17.881        0.721      329.925       -3.029      870.659
01/27/2022  02:10:00      -13.789        6.721       -1.411       26.143       23.514       16.649      683.460      552.898      277.204        0.088        0.076       15.340       14.353        0.875      329.936       -3.012      870.642
01/27/2022  02:11:00      -38.494        6.289      -11.432       22.384       26.327       15.663      501.058      693.113      245.338        0.155        0.072       39.004       10.130        0.067      329.900       -3.071      870.643
01/27/2022  02:12:00      -45.059       12.653       -5.034       28.395       22.164       18.138      806.248      491.264      328.993        0.192        0.081       46.802       12.713        0.074      329.887       -3.093      870.651
01/27/2022  02:13:00      -44.195       17.952      -13.964       28.548       22.315       21.346      814.994      497.979      455.668        0.212        0.088       47.702       10.983        0.053      329.942       -3.002      870.669
01/27/2022  02:14:00      -44.062       15.750      -15.153       22.400       18.319       17.464      501.773      335.579      304.987        0.178        0.057       46.793       11.607        0.062      329.881       -3.102      870.685
01/27/2022  02:15:00      -46.250      -11.740      -17.200       38.451       27.983       21.308     1478.455      783.064      454.024        0.264        0.136       47.717       17.628        0.136      329.836       -3.176      870.696
01/27/2022  02:16:00      -43.813        7.932      -14.795       26.761       28.707       22.616      716.134      824.085      511.493        0.213        0.103       44.526       14.314        0.103      329.881       -3.103      870.704
01/27/2022  02:17:00      -86.375       13.204      -26.622       32.802       21.647       21.100     1075.962      468.599      445.211        0.517        0.099       87.378        9.501        0.012      329.822       -3.198      870.712
01/27/2022  02:18:00      -30.554       15.471      -10.105       34.795       35.520       24.863     1210.681     1261.665      618.157        0.218        0.155       34.248       19.697        0.331      329.830       -3.186      870.717
01/27/2022  02:19:00      -11.426        1.082       -7.372       18.812       23.600       16.337      353.893      556.944      266.898        0.068        0.059       11.477       14.294        1.551      329.780       -3.268      870.719
01/27/2022  02:20:00      -70.600       25.516      -14.210       29.145       25.752       21.827      849.421      663.146      476.417        0.391        0.099       75.070       13.915        0.034      329.795       -3.244      870.716
01/27/2022  02:21:00        2.373       -7.023      -10.703       17.074       19.246       20.605      291.527      370.415      424.546        0.063        0.054        7.413       15.289        4.253      329.688       -3.418      870.710
01/27/2022  02:22:00      -34.502      -30.261      -19.083       29.282       25.892       18.225      857.411      670.402      332.147        0.216        0.093       45.893       14.983        0.107      329.799       -3.236      870.701
01/27/2022  02:23:00      -68.247      -15.501      -20.892       28.131       26.673       26.585      791.332      711.441      706.739        0.377        0.110       69.986       18.148        0.067      329.829       -3.187      870.696
01/27/2022  02:24:00      -75.118       13.213      -15.195       30.292       25.624       19.776      917.633      656.613      391.075        0.401        0.098       76.271       15.782        0.043      329.826       -3.192      870.696
01/27/2022  02:25:00      -85.036       29.987      -25.618       18.769       15.685       14.134      352.289      246.031      199.770        0.479        0.040       90.169        5.725        0.004      329.822       -3.199      870.703
01/27/2022  02:26:00      -70.001       22.796       -9.977       32.512       27.054       19.924     1057.031      731.908      396.964        0.385        0.109       73.619       16.311        0.049      329.834       -3.178      870.712
01/27/2022  02:27:00      -95.479       48.427      -18.574       20.257       23.506       18.201      410.334      552.512      331.290        0.655        0.065      107.058       10.553        0.010      329.747       -3.321      870.724
01/27/2022  02:28:00      -76.434       28.907      -12.845       17.947       20.843       14.084      322.079      434.448      198.370        0.390        0.048       81.718       10.722        0.017      329.773       -3.279      870.741
01/27/2022  02:29:00      -75.999       17.085      -19.011       16.389       21.085       12.024      268.590      444.591      144.569        0.364        0.043       77.896       10.839        0.019      329.821       -3.200      870.758
01/27/2022  02:30:00      -62.224        7.972       -9.776       19.548       22.318       16.389      382.132      498.104      268.587        0.259        0.057       62.733       14.060        0.050      329.972       -2.951      870.766
01/27/2022  02:31:00      -82.410       18.706      -15.357       12.748       13.224       12.853      162.501      174.885      165.205        0.394        0.025       84.506        5.363        0.004      330.003       -2.902      870.770
01/27/2022  02:32:00      -31.162       -4.024       -4.961       30.454       24.108       15.311      927.468      581.217      234.416        0.138        0.087       31.421        6.828        0.047      329.955       -2.981      870.766
01/27/2022  02:33:00      -27.032       -1.168       -9.271       18.791       23.647       13.559      353.084      559.173      183.853        0.096        0.055       27.057       11.419        0.178      330.065       -2.801      870.760
01/27/2022  02:34:00      -26.616       -6.169       -9.180       31.622       17.482        9.849      999.959      305.635       97.004        0.112        0.070       27.321        5.646        0.043      330.010       -2.891      870.752
01/27/2022  02:35:00      -61.927       16.802      -11.951       20.240       19.328       15.878      409.657      373.561      252.096        0.265        0.052       64.166       10.181        0.025      330.091       -2.757      870.754
01/27/2022  02:36:00      -65.514        6.380      -10.250       23.123       22.099       11.697      534.657      488.373      136.809        0.280        0.058       65.824        9.838        0.022      330.073       -2.788      870.743
01/27/2022  02:37:00      -43.673       10.077       -0.820       25.518       18.789       18.507      651.184      353.036      342.526        0.168        0.067       44.821       15.820        0.125      330.057       -2.815      870.734
01/27/2022  02:38:00      -28.705        4.967       -7.356       27.053       19.252       22.084      731.882      370.640      487.712        0.125        0.080       29.131       15.972        0.301      329.957       -2.978      870.729
01/27/2022  02:39:00      -19.311        8.113       -2.745       18.247       14.159       14.047      332.963      200.479      197.319        0.059        0.037       20.946       11.908        0.323      329.864       -3.131      870.723
01/27/2022  02:40:00      -24.037       10.541       -0.295       23.828       19.415       14.439      567.773      376.948      208.475        0.092        0.058       26.246       13.653        0.271      329.866       -3.127      870.720
01/27/2022  02:41:00      -26.181       12.334       -1.249       22.953       15.154       13.305      526.826      229.656      177.022        0.089        0.047       28.941        7.639        0.070      329.807       -3.223      870.718
01/27/2022  02:42:00      -60.605       13.930       -6.345       27.275       25.858       13.123      743.910      668.644      172.217        0.275        0.079       62.185        9.057        0.021      329.842       -3.167      870.727
01/27/2022  02:43:00      -19.044       10.858        0.751       18.608       16.544       15.266      346.251      273.693      233.049        0.067        0.043       21.922        9.874        0.203      329.791       -3.250      870.731
01/27/2022  02:44:00      -53.461        9.807      -12.452       22.092       14.003       13.086      488.077      196.093      171.250        0.198        0.043       54.353        8.218        0.023      329.845       -3.161      870.742
01/27/2022  02:45:00      -69.591       20.912       -6.499       16.213       13.676       10.686      262.867      187.039      114.186        0.294        0.028       72.666        7.045        0.009      329.836       -3.177      870.749
01/27/2022  02:46:00      -68.545       21.138       -6.299       29.898       20.560       14.942      893.892      422.710      223.261        0.336        0.077       71.730       17.609        0.060      329.774       -3.277      870.751
01/27/2022  02:47:00      -41.294        7.459       -6.118       27.443       20.853       12.164      753.107      434.859      147.957        0.157        0.067       41.962       11.784        0.079      329.820       -3.203      870.747
01/27/2022  02:48:00       -5.363        1.425        5.597       25.029       16.196       13.665      626.455      262.308      186.740        0.057        0.054        5.549       11.973        4.656      329.746       -3.322      870.749
01/27/2022  02:49:00      -49.745       14.687       -2.553       45.842       23.807       20.016     2101.468      566.760      400.641        0.288        0.153       51.868       20.586        0.158      329.772       -3.281      870.746
01/27/2022  02:50:00      -55.378       10.291       -2.688       30.880       29.068       16.340      953.546      844.923      266.992        0.262        0.103       56.326       15.947        0.080      329.833       -3.180      870.748
01/27/2022  02:51:00      -73.120       17.861       -9.477       30.885       23.075       18.242      953.883      532.470      332.761        0.379        0.091       75.270       11.590        0.024      329.819       -3.203      870.750
01/27/2022  02:52:00      -99.306       34.947      -10.256       20.875       14.649       14.283      435.773      214.595      203.999        0.602        0.043      105.275       13.109        0.016      329.673       -3.441      870.762
01/27/2022  02:53:00     -103.487       25.794      -14.592       12.765       14.890       12.920      162.953      221.705      166.935        0.607        0.028      106.653        6.807        0.004      329.723       -3.360      870.774
01/27/2022  02:54:00     -104.058       34.715      -12.491       22.501       16.944       14.919      506.289      287.085      222.569        0.660        0.051      109.696       12.156        0.012      329.715       -3.376      870.770
01/27/2022  02:55:00      -99.595       28.024      -18.935       20.905       16.686       12.092      437.021      278.414      146.226        0.596        0.043      103.462        8.564        0.007      329.735       -3.340      870.766
01/27/2022  02:56:00      -63.965       16.506      -21.359       19.389       21.834       17.587      375.917      476.705      309.298        0.299        0.058       66.060        8.699        0.017      329.726       -3.355      870.756
01/27/2022  02:57:00      -12.119       -5.129      -10.941       23.309       14.984       10.746      543.291      224.533      115.485        0.059        0.044       13.160       11.248        0.731      329.666       -3.453      870.740
01/27/2022  02:58:00      -27.655       -1.815       -8.979       29.511       19.979       17.276      870.912      399.175      298.457        0.121        0.078       27.715       17.110        0.381      329.751       -3.316      870.736
01/27/2022  02:59:00       -1.744        5.497        1.693       25.278       27.161       21.666      638.989      737.718      469.397        0.094        0.092        5.767       17.598        9.312      329.674       -3.441      870.730
01/27/2022  03:00:00      -31.143       -3.881      -18.507       29.808       22.078       11.483      888.506      487.449      131.861        0.142        0.075       31.384        8.610        0.075      329.631       -3.512      870.733
01/27/2022  03:01:00        4.097      -10.119        3.729       14.325       23.554       16.200      205.199      554.768      262.442        0.058        0.051       10.917        9.516        0.760      329.665       -3.456      870.738
01/27/2022  03:02:00      -31.077       14.369       -9.216       38.463       22.632       13.751     1479.400      512.207      189.087        0.172        0.109       34.238       14.580        0.181      329.677       -3.436      870.736
01/27/2022  03:03:00      -41.498       14.682      -16.915       29.489       17.155       15.673      869.626      294.279      245.636        0.182        0.070       44.019       13.512        0.094      329.620       -3.530      870.737
01/27/2022  03:04:00      -41.202       27.370       -7.779       23.720       24.662       15.317      562.639      608.213      234.620        0.196        0.070       49.464       10.691        0.047      329.603       -3.557      870.734
01/27/2022  03:05:00       -1.325       -3.569       -1.668       15.219       27.096       24.435      231.632      734.212      597.086        0.079        0.078        3.807       10.818        8.074      329.532       -3.670      870.720
01/27/2022  03:06:00        1.153        0.325       -5.176       10.217       14.805       10.689      104.384      219.181      114.246        0.023        0.022        1.198        5.558       21.532      329.562       -3.624      870.698
01/27/2022  03:07:00      -28.319       12.388       -7.011       39.173       31.793       14.855     1534.498     1010.794      220.664        0.188        0.138       30.910       14.136        0.209      329.549       -3.644      870.674
01/27/2022  03:08:00      -18.494        3.156       -6.980       24.289       29.669       23.031      589.977      880.220      530.443        0.120        0.100       18.762       13.705        0.534      329.551       -3.643      870.667
01/27/2022  03:09:00      -87.195       20.393      -15.165       26.477       24.237       15.432      701.023      587.418      238.151        0.489        0.076       89.548       10.480        0.014      329.554       -3.638      870.680
01/27/2022  03:10:00      -75.401       18.222      -16.882       20.821       26.760       13.464      433.525      716.100      181.267        0.382        0.067       77.571        9.161        0.014      329.537       -3.665      870.693
01/27/2022  03:11:00      -25.739       -1.532       -2.646       31.676       23.330       19.499     1003.376      544.296      380.219        0.130        0.096       25.784       17.095        0.440      329.592       -3.574      870.707
01/27/2022  03:12:00      -28.194        1.697       -3.952       30.399       22.792       16.062      924.106      519.484      257.974        0.126        0.085       28.245       16.099        0.325      329.612       -3.541      870.710
01/27/2022  03:13:00      -71.213       21.750      -16.746       34.810       18.840       16.283     1211.723      354.940      265.150        0.383        0.092       74.461       12.958        0.030      329.543       -3.656      870.716
01/27/2022  03:14:00     -101.271       25.179      -10.320       18.267       17.798       13.860      333.691      316.773      192.100        0.592        0.042      104.354        6.040        0.003      329.484       -3.752      870.727
01/27/2022  03:15:00      -10.955       -5.051        5.368       31.870       24.061       14.786     1015.682      578.952      218.636        0.099        0.091       12.064       13.574        1.266      329.496       -3.732      870.742
01/27/2022  03:16:00      -60.368        6.678      -10.393       20.024       24.967       16.941      400.947      623.334      287.001        0.255        0.066       60.737       13.694        0.051      329.555       -3.636      870.759
01/27/2022  03:17:00      -73.581       21.882      -10.241       17.164       18.435       13.158      294.595      339.865      173.136        0.340        0.040       76.765        6.522        0.007      329.510       -3.710      870.779
01/27/2022  03:18:00      -46.460       12.613       -6.853       19.102       15.528       16.237      364.869      241.117      263.629        0.162        0.043       48.142        6.978        0.021      329.580       -3.594      870.796
01/27/2022  03:19:00      -43.828        6.107       -6.122       29.913       17.509       12.282      894.780      306.550      150.854        0.167        0.068       44.251       14.995        0.115      329.494       -3.736      870.812
01/27/2022  03:20:00      -74.004       15.819      -15.391       15.286       13.110       12.937      233.677      171.878      167.376        0.327        0.029       75.676        9.681        0.016      329.450       -3.807      870.829
01/27/2022  03:21:00      -42.528       17.946      -16.520       22.010       17.774       14.006      484.445      315.926      196.181        0.170        0.050       46.160        9.291        0.041      329.550       -3.644      870.835
01/27/2022  03:22:00      -74.806       20.149      -19.905       27.123       16.398       12.083      735.673      268.900      146.005        0.377        0.058       77.472        3.658        0.002      329.553       -3.639      870.843
01/27/2022  03:23:00      -85.809       34.272      -11.907       18.924       18.964       15.823      358.106      359.641      250.376        0.482        0.048       92.400        7.002        0.006      329.471       -3.774      870.848
01/27/2022  03:24:00      -80.196       28.929       -8.083       25.091       16.756       17.940      629.569      280.768      321.843        0.428        0.062       85.254       11.314        0.018      329.372       -3.936      870.849
01/27/2022  03:25:00     -108.362       47.938       -5.929       14.410       14.818       10.286      207.660      219.573      105.806        0.730        0.027      118.492        6.417        0.003      329.458       -3.794      870.862
01/27/2022  03:26:00      -60.787       18.340       -6.950       32.003       10.021       13.937     1024.222      100.430      194.247        0.270        0.066       63.494       14.515        0.052      329.524       -3.688      870.868
01/27/2022  03:27:00      -23.591        7.453       -6.783       22.514       14.513       14.817      506.900      210.620      219.539        0.080        0.047       24.741        8.803        0.127      329.647       -3.485      870.867
01/27/2022  03:28:00       13.662       -7.633        4.089       10.788       12.775       10.463      116.387      163.206      109.485        0.033        0.019       15.650        5.715        0.133      329.569       -3.612      870.876
01/27/2022  03:29:00        1.729       -2.441       -5.993        7.937       14.272       11.228       63.003      203.680      126.074        0.022        0.020        2.992        5.738        3.679      329.542       -3.657      870.884
01/27/2022  03:30:00      -11.929       -3.321       -5.264        9.173       11.010        8.634       84.141      121.227       74.552        0.023        0.014       12.383        3.397        0.075      329.585       -3.585      870.896
01/27/2022  03:31:00        1.803      -14.228       -8.614        7.983       12.661        5.979       63.728      160.300       35.744        0.027        0.013       14.342        4.231        0.087      329.623       -3.524      870.898
01/27/2022  03:32:00       -5.418        5.873        6.249       10.270       13.701        7.756      105.466      187.717       60.162        0.023        0.018        7.991        5.587        0.489      329.515       -3.701      870.903
01/27/2022  03:33:00      -34.548       16.583        0.337       21.207       12.936       10.305      449.717      167.329      106.200        0.110        0.036       38.322        7.296        0.036      329.548       -3.647      870.908
01/27/2022  03:34:00      -65.491       19.447      -12.745       13.999       12.744       11.008      195.977      162.418      121.183        0.265        0.024       68.317        2.624        0.001      329.656       -3.469      870.900
01/27/2022  03:35:00      -20.299       13.059       -3.028       31.225       23.506       14.962      975.016      552.532      223.875        0.117        0.088       24.137       10.327        0.183      329.694       -3.408      870.889
01/27/2022  03:36:00      -55.087       16.730       -7.835       25.701       21.139       16.464      660.556      446.849      271.067        0.238        0.069       57.572       15.686        0.074      329.649       -3.482      870.872
01/27/2022  03:37:00      -69.490       24.915       -8.264       16.042       16.135       11.442      257.342      260.329      130.924        0.308        0.032       73.822        3.345        0.002      329.644       -3.491      870.860
01/27/2022  03:38:00     -107.057       43.494      -12.512       15.350       11.135       10.217      235.610      123.980      104.386        0.699        0.023      115.555        6.531        0.003      329.578       -3.598      870.845
01/27/2022  03:39:00     -108.876       37.430      -16.647       20.115       14.196       11.323      404.597      201.535      128.220        0.713        0.037      115.131        6.503        0.003      329.533       -3.672      870.832
01/27/2022  03:40:00      -92.189       23.828       -9.372       38.306       24.741       16.437     1467.337      612.128      270.160        0.575        0.117       95.218       20.494        0.046      329.574       -3.604      870.836
01/27/2022  03:41:00       -8.101        3.736       -2.189       34.022       24.334       21.769     1157.470      592.141      473.909        0.115        0.111        8.921       12.095        1.838      329.543       -3.654      870.838
01/27/2022  03:42:00     -134.636       37.642      -17.389       25.350       28.220       17.743      642.624      796.388      314.824        1.080        0.088      139.799        9.579        0.005      329.354       -3.965      870.848
01/27/2022  03:43:00     -111.625       24.602      -10.755       42.628       28.285       17.177     1817.130      800.059      295.039        0.805        0.146      114.304       12.061        0.011      329.462       -3.788      870.859
01/27/2022  03:44:00     -104.027       29.268       -9.140       29.919       24.919       20.947      895.141      620.966      438.781        0.686        0.098      108.066       18.558        0.029      329.356       -3.962      870.876
01/27/2022  03:45:00      -65.452       10.236       -6.033       48.171       24.822       24.130     2320.479      616.153      582.262        0.397        0.176       66.248       28.511        0.185      329.413       -3.867      870.893
01/27/2022  03:46:00     -104.682       36.495      -14.215       21.087       19.070       15.750      444.650      363.662      248.062        0.677        0.053      110.861       10.017        0.008      329.455       -3.798      870.900
01/27/2022  03:47:00     -121.729       37.658      -15.117       19.566       16.181       13.179      382.821      261.826      173.677        0.864        0.041      127.421        5.612        0.002      329.395       -3.899      870.900
01/27/2022  03:48:00     -111.313       35.694       -4.925       37.799       29.408       19.159     1428.786      864.837      367.078        0.817        0.133      116.895       13.158        0.013      329.517       -3.699      870.891
01/27/2022  03:49:00     -123.350       25.639      -17.728       26.945       23.539       15.008      726.057      554.075      225.238        0.885        0.075      125.987       11.629        0.009      329.506       -3.716      870.889
01/27/2022  03:50:00     -104.232       15.017      -14.726       32.661       26.708       14.192     1066.756      713.324      201.413        0.664        0.099      105.309        5.367        0.003      329.503       -3.721      870.891
01/27/2022  03:51:00      -63.273        6.981      -11.464       30.599       20.741       21.329      936.289      430.196      454.926        0.300        0.091       63.657       11.499        0.033      329.514       -3.702      870.901
01/27/2022  03:52:00      -81.037       37.437       -8.022       22.523       18.807       13.303      507.268      353.720      176.970        0.454        0.052       89.267       11.509        0.017      329.418       -3.861      870.921
01/27/2022  03:53:00      -75.772       28.166       -7.600       25.959       19.516       15.111      673.888      380.867      228.336        0.394        0.064       80.838       14.631        0.033      329.413       -3.868      870.942
01/27/2022  03:54:00      -88.190       29.415      -15.293       17.584       16.649       18.784      309.196      277.199      352.843        0.491        0.047       92.966       10.355        0.012      329.435       -3.832      870.957
01/27/2022  03:55:00     -115.429       36.192      -15.213       26.601       26.043       18.944      707.627      678.225      358.883        0.830        0.087      120.970       14.379        0.014      329.372       -3.936      870.972
01/27/2022  03:56:00      -68.838        5.256      -12.835       30.729       27.160       23.171      944.275      737.664      536.906        0.357        0.111       69.038       18.314        0.070      329.393       -3.901      870.970
01/27/2022  03:57:00      -84.994        6.089      -16.321       32.392       23.148       23.001     1049.267      535.816      529.025        0.482        0.106       85.212       11.468        0.018      329.446       -3.814      870.973
01/27/2022  03:58:00      -36.620       -9.260       -9.834       40.228       19.803       24.334     1618.311      392.167      592.148        0.206        0.130       37.772       24.257        0.412      329.459       -3.794      870.966
01/27/2022  03:59:00        7.230       -3.445        1.997       17.619       22.695       18.501      310.432      515.052      342.295        0.062        0.058        8.009       11.197        1.955      329.427       -3.844      870.958
01/27/2022  04:00:00      -37.669       12.325      -11.723       26.102       19.282       23.159      681.288      371.795      536.361        0.165        0.079       39.634       16.002        0.163      329.444       -3.817      870.940
01/27/2022  04:01:00      -26.380        0.021      -12.900       22.949       16.788       16.880      526.676      281.845      284.934        0.098        0.055       26.380       12.063        0.209      329.479       -3.761      870.945
01/27/2022  04:02:00      -19.413       -0.996       -5.204       26.073       18.043       16.697      679.807      325.554      278.777        0.084        0.064       19.438       13.468        0.480      329.450       -3.808      870.956
01/27/2022  04:03:00       -7.550        7.151       -6.855       12.069        8.604       10.176      145.662       74.026      103.555        0.024        0.016       10.399        4.875        0.220      329.397       -3.894      870.968
01/27/2022  04:04:00       -9.229        3.192       -4.881       15.672       18.622       13.023      245.617      346.793      169.587        0.044        0.038        9.765        8.379        0.736      329.432       -3.837      870.979
01/27/2022  04:05:00       -2.955        2.144       -6.566       17.411       19.231       18.057      303.150      369.827      326.046        0.053        0.050        3.651       11.757       10.371      329.471       -3.773      870.976
01/27/2022  04:06:00      -31.023       -0.721       -5.317       40.868       20.205       27.883     1670.202      408.238      777.480        0.192        0.143       31.031       26.119        0.708      329.370       -3.937      870.975
01/27/2022  04:07:00      -44.297       -0.354        1.950       43.353       26.355       21.669     1879.450      694.567      469.542        0.250        0.152       44.298       14.901        0.113      329.256       -4.125      870.979
01/27/2022  04:08:00      -85.904       -7.831       -6.053       44.122       29.175       24.490     1946.747      851.195      599.759        0.544        0.170       86.260       21.066        0.060      329.401       -3.887      870.987
01/27/2022  04:09:00      -67.590        3.725       -2.987       39.711       26.860       23.088     1576.927      721.452      533.058        0.371        0.142       67.692       18.778        0.077      329.403       -3.884      870.990
01/27/2022  04:10:00      -22.310       16.698        2.965       46.754       18.834       16.699     2185.920      354.702      278.846        0.180        0.141       27.867       19.093        0.469      329.417       -3.861      870.993
01/27/2022  04:11:00      -88.166       29.811      -12.229       17.623       12.286       12.700      310.582      150.944      161.287        0.472        0.031       93.070        6.456        0.005      329.484       -3.753      870.987
01/27/2022  04:12:00      -98.709       18.214      -10.057       20.930       22.531       12.421      438.076      507.661      154.279        0.564        0.055      100.375        9.507        0.009      329.422       -3.853      870.989
01/27/2022  04:13:00      -74.222        9.803       -6.437       30.505       25.135       20.379      930.558      631.749      415.288        0.381        0.099       74.867       18.313        0.060      329.473       -3.770      870.990
01/27/2022  04:14:00      -79.829       22.562       -7.135       18.187       17.566       13.805      330.775      308.548      190.588        0.388        0.041       82.956       10.802        0.017      329.398       -3.891      870.992
01/27/2022  04:15:00      -99.386       33.137      -12.081       21.916       22.837       15.486      480.295      521.528      239.825        0.618        0.062      104.765        9.106        0.008      329.364       -3.949      870.997
01/27/2022  04:16:00     -114.261       28.191      -11.586       21.633       22.667       12.401      467.980      513.785      153.780        0.756        0.057      117.687       11.566        0.010      329.367       -3.942      871.010
01/27/2022  04:17:00      -31.854       -5.178       -3.970       35.488       21.893       19.980     1259.367      479.312      399.208        0.160        0.107       32.272       11.673        0.131      329.401       -3.887      871.027
01/27/2022  04:18:00      -32.773        4.205       -5.353       41.941       26.625       24.974     1759.058      708.902      623.683        0.211        0.155       33.042       23.840        0.521      329.417       -3.861      871.044
01/27/2022  04:19:00      -60.403       18.212       -6.730       33.722       32.234       18.766     1137.192     1039.001      352.144        0.328        0.126       63.089       12.059        0.037      329.386       -3.911      871.058
01/27/2022  04:20:00      -40.988        1.028       -5.541       35.460       23.673       15.574     1257.423      560.427      242.548        0.189        0.103       41.001       12.980        0.100      329.427       -3.846      871.073
01/27/2022  04:21:00      -33.495       -7.319      -10.603       29.333       18.848       18.432      860.407      355.240      339.754        0.142        0.078       34.285       18.305        0.285      329.416       -3.863      871.077
01/27/2022  04:22:00      -30.097      -13.949       -3.112       27.757       21.757       18.616      770.443      473.373      346.550        0.135        0.080       33.172       17.125        0.267      329.432       -3.838      871.085
01/27/2022  04:23:00      -29.930      -12.173       -4.306       28.881       22.541       19.173      834.124      508.118      367.591        0.139        0.085       32.311       12.475        0.149      329.425       -3.850      871.083
01/27/2022  04:24:00       -0.104       -2.514        7.698       21.556       13.843       12.854      464.662      191.615      165.213        0.044        0.041        2.516        9.735       14.976      329.334       -3.997      871.082
01/27/2022  04:25:00        4.463       -3.207        2.070       20.531       15.977       13.613      421.531      255.280      185.324        0.045        0.043        5.495        9.396        2.923      329.350       -3.971      871.076
01/27/2022  04:26:00      -62.492      -18.827       -0.522       44.425       36.902       29.448     1973.604     1361.758      867.213        0.423        0.210       65.266       19.821        0.092      329.299       -4.053      871.077
01/27/2022  04:27:00      -26.419      -11.560        1.066       32.282       24.923       21.094     1042.110      621.173      444.966        0.147        0.105       28.837       14.795        0.263      329.318       -4.023      871.073
01/27/2022  04:28:00      -66.739      -14.512       -7.610       40.191       31.643       23.882     1615.329     1001.248      570.338        0.395        0.159       68.299       17.293        0.064      329.258       -4.121      871.060
01/27/2022  04:29:00     -128.930      -25.287       -7.416       54.850       41.808       32.091     3008.564     1747.941     1029.855        1.155        0.289      131.386       26.659        0.041      329.246       -4.140      871.042
01/27/2022  04:30:00     -113.002        7.038       -0.699       48.162       37.943       25.907     2319.557     1439.704      671.178        0.862        0.222      113.221       24.325        0.046      329.244       -4.143      871.032
01/27/2022  04:31:00      -85.357        2.654        0.570       59.285       33.462       27.277     3514.710     1119.705      744.022        0.633        0.269       85.398       18.766        0.048      329.196       -4.223      871.029
01/27/2022  04:32:00     -118.294        4.338       -3.882       48.883       27.661       21.529     2389.577      765.154      463.496        0.882        0.181      118.374       19.418        0.027      329.216       -4.188      871.040
01/27/2022  04:33:00      -58.040        5.587       -7.997       35.444       36.582       27.572     1256.270     1338.237      760.242        0.341        0.168       58.308       20.964        0.129      329.258       -4.122      871.053
01/27/2022  04:34:00      -86.577        8.305       -5.496       45.776       28.209       24.140     2095.418      795.734      582.720        0.553        0.174       86.975       19.279        0.049      329.379       -3.923      871.060
01/27/2022  04:35:00     -125.077       26.692       -3.235       29.895       30.502       20.277      893.724      930.356      411.175        0.930        0.112      127.894       17.142        0.018      329.364       -3.948      871.071
01/27/2022  04:36:00     -101.350       25.662       -3.201       40.497       29.070       23.690     1640.017      845.085      561.201        0.699        0.152      104.548       20.874        0.040      329.331       -4.002      871.078
01/27/2022  04:37:00      -95.151        8.674        0.816       51.146       32.718       25.865     2615.955     1070.481      668.999        0.674        0.218       95.546       25.885        0.073      329.344       -3.981      871.082
01/27/2022  04:38:00      -66.936        5.737       -2.726       52.882       36.156       25.546     2796.487     1307.247      652.579        0.464        0.238       67.181       21.447        0.102      329.341       -3.986      871.078
01/27/2022  04:39:00      -95.995       22.854        0.283       52.086       29.064       19.580     2712.988      844.730      383.373        0.684        0.197       98.678       15.238        0.024      329.262       -4.115      871.071
01/27/2022  04:40:00      -96.001       13.462       -9.578       40.309       27.162       17.183     1624.801      737.779      295.254        0.607        0.133       96.941       10.513        0.012      329.242       -4.148      871.060
01/27/2022  04:41:00      -97.870       14.041      -10.706       51.407       32.668       25.780     2642.658     1067.228      664.595        0.713        0.219       98.872       26.609        0.072      329.192       -4.230      871.047
01/27/2022  04:42:00      -63.204       16.111       -9.741       53.419       24.311       27.823     2853.593      591.038      774.127        0.428        0.211       65.225       25.259        0.150      329.200       -4.215      871.040
01/27/2022  04:43:00      -69.697        9.833      -12.022       41.189       27.009       22.804     1696.495      729.483      520.011        0.402        0.147       70.387       19.299        0.075      329.215       -4.191      871.038
01/27/2022  04:44:00      -51.857       19.419       -7.504       37.890       24.910       23.838     1435.643      620.527      568.258        0.287        0.131       55.374       24.652        0.198      329.196       -4.222      871.033
01/27/2022  04:45:00      -33.450      -15.017      -23.473       41.781       33.356       22.180     1745.664     1112.637      491.931        0.262        0.168       36.666       17.556        0.229      329.281       -4.083      871.031
01/27/2022  04:46:00      -11.731        7.891      -14.367       32.876       22.884       22.447     1080.826      523.700      503.865        0.126        0.105       14.138       16.044        1.288      329.269       -4.102      871.030
01/27/2022  04:47:00      -18.179        8.843      -13.560       40.119       26.546       22.102     1609.501      704.679      488.493        0.170        0.140       20.215       16.276        0.648      329.211       -4.198      871.035
01/27/2022  04:48:00       21.795      -15.649      -15.901       17.277       18.110       14.112      298.505      327.955      199.138        0.090        0.041       26.831        8.547        0.101      329.270       -4.101      871.043
01/27/2022  04:49:00       15.621      -19.027       -6.156       16.378       18.714       13.444      268.252      350.207      180.755        0.072        0.040       24.617       10.550        0.184      329.303       -4.047      871.055
01/27/2022  04:50:00       -3.419       -1.707       -9.517       30.963       25.514       16.832      958.732      650.949      283.332        0.100        0.095        3.821        9.349        5.985      329.245       -4.142      871.070
01/27/2022  04:51:00       -1.324       -8.514      -15.297       28.180       26.116       18.252      794.116      682.047      333.137        0.106        0.090        8.617       10.577        1.507      329.226       -4.172      871.084
01/27/2022  04:52:00      -30.046       -4.446      -14.998       29.594       19.867       15.866      875.809      394.694      251.717        0.133        0.076       30.373        9.884        0.106      329.261       -4.115      871.099
01/27/2022  04:53:00      -27.441      -19.050      -13.955       35.402       27.032       22.271     1253.299      730.727      496.019        0.189        0.124       33.406       17.050        0.261      329.174       -4.257      871.104
01/27/2022  04:54:00      -70.983       -2.578       -6.565       38.466       35.643       24.246     1479.667     1270.430      587.849        0.421        0.167       71.029       16.043        0.051      329.157       -4.286      871.106
01/27/2022  04:55:00      -35.522       15.138       -2.358       39.502       31.627       22.606     1560.432     1000.247      511.021        0.228        0.154       38.613       10.262        0.071      329.259       -4.119      871.111
01/27/2022  04:56:00      -75.407      -13.821       -3.630       59.353       29.477       24.447     3522.834      868.879      597.648        0.544        0.249       76.663       19.221        0.063      329.213       -4.194      871.124
01/27/2022  04:57:00      -26.274      -14.474        4.849       48.389       25.993       23.542     2341.461      675.661      554.215        0.225        0.179       29.997       21.697        0.523      329.154       -4.292      871.140
01/27/2022  04:58:00       -8.255       -3.546       -0.453       23.887       19.669       18.213      570.601      386.883      331.717        0.068        0.064        8.984        6.819        0.576      329.125       -4.338      871.147
01/27/2022  04:59:00      -43.093       -8.013       -2.695       39.352       34.398       23.316     1548.603     1183.223      543.621        0.260        0.164       43.832       13.686        0.097      329.167       -4.271      871.142
01/27/2022  05:00:00      -43.025       -8.601       -2.178       45.272       26.736       19.718     2049.585      714.790      388.814        0.254        0.158       43.876       14.835        0.114      329.091       -4.394      871.133
01/27/2022  05:01:00      -31.695       -7.389       -5.517       48.824       23.475       23.822     2383.818      551.082      567.466        0.230        0.175       32.545       17.399        0.286      329.074       -4.421      871.125
01/27/2022  05:02:00      -13.471      -15.142        1.663       28.204       28.815       19.750      795.474      830.314      390.077        0.121        0.101       20.267       17.526        0.748      329.056       -4.452      871.123
01/27/2022  05:03:00      -76.956       -7.083        0.154       36.693       44.713       26.212     1346.390     1999.227      687.066        0.500        0.202       77.281       19.653        0.065      329.022       -4.507      871.128
01/27/2022  05:04:00      -52.242       -5.427        5.382       52.201       33.452       28.077     2724.976     1119.052      788.344        0.371        0.232       52.523       27.948        0.283      329.033       -4.487      871.140
01/27/2022  05:05:00      -68.201       -0.525        0.607       45.545       31.818       29.990     2074.360     1012.401      899.427        0.432        0.199       68.203       28.420        0.174      328.954       -4.617      871.153
01/27/2022  05:06:00      -37.828       -0.295        3.829       46.798       46.253       24.974     2190.031     2139.334      623.709        0.320        0.248       37.829       23.075        0.372      328.935       -4.649      871.165
01/27/2022  05:07:00      -78.935      -12.827        1.798       46.721       37.892       29.069     2182.856     1435.826      845.019        0.543        0.223       79.970       25.941        0.105      328.945       -4.631      871.174
01/27/2022  05:08:00     -105.431       -6.167      -10.762       45.895       23.416       26.585     2106.330      548.294      706.766        0.731        0.168      105.611       24.445        0.054      328.964       -4.602      871.200
01/27/2022  05:09:00     -122.409      -11.006      -23.672       30.546       29.520       22.313      933.038      871.418      497.851        0.898        0.115      122.903       14.613        0.014      329.028       -4.496      871.210
01/27/2022  05:10:00     -105.063       23.256      -12.358       20.057       21.756       19.891      402.299      473.344      395.641        0.650        0.064      107.606       12.590        0.014      328.962       -4.605      871.220
01/27/2022  05:11:00     -114.466       24.996       -9.817       30.908       23.670       19.620      955.306      560.265      384.931        0.786        0.095      117.163       14.473        0.015      328.939       -4.642      871.234
01/27/2022  05:12:00      -93.980       12.233       -0.503       40.457       30.932       23.599     1636.792      956.758      556.913        0.607        0.158       94.773       18.645        0.039      329.075       -4.420      871.260
01/27/2022  05:13:00      -96.317       16.874        1.609       38.411       29.733       21.705     1475.382      884.057      471.090        0.620        0.142       97.784       20.369        0.043      329.036       -4.484      871.269
01/27/2022  05:14:00      -31.776       -1.757       -3.153       35.793       34.302       28.687     1281.114     1176.611      822.932        0.215        0.164       31.825       23.424        0.542      329.056       -4.450      871.270
01/27/2022  05:15:00      -18.457      -12.354        3.892       37.349       28.839       23.797     1394.977      831.710      566.304        0.165        0.140       22.209       18.511        0.695      329.054       -4.453      871.274
01/27/2022  05:16:00      -34.096        0.076       -3.369       36.287       37.374       21.398     1316.757     1396.833      457.880        0.217        0.159       34.096       17.551        0.265      329.082       -4.409      871.266
01/27/2022  05:17:00       -0.823       31.053        7.015       28.039       24.563       17.347      786.180      603.348      300.936        0.135        0.085       31.064       14.635        0.222      329.092       -4.392      871.272
01/27/2022  05:18:00       -1.757        2.571        0.966       23.297       18.309       17.012      542.769      335.233      289.395        0.059        0.058        3.114       14.181       20.738      329.094       -4.389      871.275
01/27/2022  05:19:00      -25.516        4.009       -0.685       36.278       24.697       16.321     1316.062      609.938      266.389        0.143        0.110       25.829       17.559        0.462      329.175       -4.256      871.274
01/27/2022  05:20:00      -23.382        4.953       -6.390       33.121       18.528       14.644     1096.982      343.274      214.446        0.113        0.083       23.901       11.888        0.247      329.245       -4.142      871.280
01/27/2022  05:21:00      -60.862       22.650       -0.420       27.048       21.266       20.792      731.574      452.253      432.322        0.292        0.081       64.940       12.970        0.040      329.094       -4.389      871.283
01/27/2022  05:22:00      -79.322       34.644      -10.397       44.176       22.208       21.029     1951.498      493.214      442.209        0.524        0.144       86.557       20.510        0.056      328.996       -4.550      871.287
01/27/2022  05:23:00      -72.266       37.893       -2.619       41.923       35.125       23.716     1757.505     1233.735      562.447        0.511        0.178       81.598       21.937        0.072      328.933       -4.652      871.296
01/27/2022  05:24:00      -91.063       47.223       -2.420       36.951       36.713       23.221     1365.371     1347.876      539.198        0.689        0.163      102.579       17.424        0.029      328.876       -4.745      871.311
01/27/2022  05:25:00      -83.917       41.574       -6.464       37.780       29.537       22.540     1427.342      872.415      508.059        0.581        0.140       93.651       21.856        0.054      328.899       -4.706      871.325
01/27/2022  05:26:00      -88.950       34.915       -6.770       31.988       26.170       20.840     1023.222      684.852      434.306        0.566        0.107       95.558       17.696        0.034      328.954       -4.619      871.336
01/27/2022  05:27:00      -80.163       21.787       -5.947       30.292       24.768       18.492      917.632      613.447      341.936        0.440        0.094       83.071        8.686        0.011      329.017       -4.515      871.354
01/27/2022  05:28:00      -77.353       26.423      -11.777       26.174       22.514       18.045      685.054      506.888      325.607        0.417        0.076       81.742       14.663        0.032      328.962       -4.605      871.366
01/27/2022  05:29:00      -41.403        4.035       -5.403       27.627       19.015       14.641      763.245      361.574      214.356        0.155        0.067       41.599       11.514        0.077      328.998       -4.545      871.370
01/27/2022  05:30:00       -5.568      -11.995       -2.100       16.432       18.599       10.905      270.016      345.913      118.921        0.046        0.037       13.224        2.577        0.038      328.984       -4.570      871.383
01/27/2022  05:31:00      -10.009      -11.185       -8.787       13.412       11.942       11.155      179.892      142.604      124.443        0.037        0.022       15.009        8.392        0.313      329.082       -4.409      871.397
01/27/2022  05:32:00       -3.778       -6.760       -5.357       10.358        9.138       10.687      107.280       83.500      114.207        0.020        0.015        7.744        6.023        0.605      329.059       -4.446      871.406
01/27/2022  05:33:00      -14.376        4.311       -8.169        7.563        9.931        8.087       57.202       98.621       65.393        0.026        0.011       15.009        7.545        0.253      329.102       -4.375      871.404
01/27/2022  05:34:00      -13.610      -19.768       -6.442       12.015       12.049       11.768      144.372      145.169      138.489        0.052        0.021       24.000        4.153        0.030      329.221       -4.181      871.403
01/27/2022  05:35:00        1.969      -27.773      -14.272       15.863       20.276       19.167      251.647      411.136      367.359        0.100        0.052       27.842       13.431        0.233      329.086       -4.401      871.406
01/27/2022  05:36:00       -1.697      -17.041       -3.176       17.365       18.140       21.731      301.548      329.071      472.245        0.070        0.055       17.125       14.269        0.694      329.160       -4.280      871.415
01/27/2022  05:37:00       16.846      -28.889       -5.511       24.701       31.402       21.187      610.130      986.098      448.893        0.160        0.102       33.442       19.168        0.329      329.189       -4.233      871.428
01/27/2022  05:38:00       25.237      -28.618      -16.394       19.536       22.751       16.773      381.636      517.587      281.320        0.145        0.059       38.156       12.662        0.110      329.013       -4.522      871.444
01/27/2022  05:39:00       31.745       10.580      -10.236       13.821       26.076       15.138      191.026      679.943      229.145        0.116        0.055       33.462        7.634        0.052      328.930       -4.657      871.456
01/27/2022  05:40:00       30.570      -11.510       -4.565       19.371       13.945        8.293      375.245      194.453       68.782        0.086        0.032       32.665        4.262        0.017      328.996       -4.550      871.462
01/27/2022  05:41:00       21.070      -15.946       -4.006       22.599       11.124       11.259      510.707      123.750      126.763        0.074        0.038       26.424       11.362        0.185      328.990       -4.559      871.475
01/27/2022  05:42:00       34.502      -17.382       -6.956       20.433       15.105       10.125      417.501      228.152      102.510        0.114        0.037       38.633        4.772        0.015      328.964       -4.602      871.486
01/27/2022  05:43:00       24.102       -5.467      -11.084       15.471       17.351       11.801      239.338      301.071      139.263        0.071        0.034       24.714        8.186        0.110      328.854       -4.780      871.504
01/27/2022  05:44:00        9.091        7.692      -11.149       11.131       18.534        7.725      123.901      343.505       59.676        0.040        0.026       11.909        7.353        0.381      328.729       -4.984      871.506
01/27/2022  05:45:00        9.466      -23.082      -18.087        8.534       10.633        9.254       72.837      113.059       85.638        0.061        0.014       24.948        3.787        0.023      328.997       -4.547      871.507
01/27/2022  05:46:00        2.191      -17.804       -4.904       11.555        9.252       11.296      133.528       85.604      127.610        0.035        0.017       17.938        5.876        0.107      329.045       -4.469      871.520
01/27/2022  05:47:00       -9.275      -11.558       -5.334        8.939        8.767       14.362       79.910       76.866      206.271        0.031        0.018       14.819        3.029        0.042      329.013       -4.521      871.515
01/27/2022  05:48:00      -11.792      -11.837      -11.803       11.637       13.227        7.233      135.426      174.943       52.319        0.039        0.018       16.709        2.848        0.029      328.976       -4.581      871.514
01/27/2022  05:49:00       -5.411        1.167       -2.774       25.029       17.810       11.856      626.461      317.199      140.564        0.056        0.054        5.535        9.240        2.787      328.907       -4.694      871.510
01/27/2022  05:50:00      -16.598        3.866       -3.644       27.478       13.818       14.244      755.064      190.945      202.897        0.073        0.057       17.042       18.069        1.124      328.941       -4.640      871.519
01/27/2022  05:51:00        5.479      -15.538       -7.735       13.349       18.012        8.190      178.184      324.438       67.079        0.045        0.028       16.476        3.882        0.056      328.922       -4.670      871.532
01/27/2022  05:52:00        5.569       -6.413       -6.058        9.141       17.098       11.856       83.551      292.330      140.573        0.031        0.026        8.494        4.603        0.294      328.949       -4.627      871.549
01/27/2022  05:53:00       -6.390       21.301       -1.680       19.407       15.900       11.429      376.625      252.807      130.618        0.063        0.038       22.238        9.584        0.186      328.869       -4.757      871.570
01/27/2022  05:54:00        5.498      -17.186        3.082       11.823       13.974       10.667      139.795      195.279      113.784        0.039        0.022       18.044        6.284        0.121      328.798       -4.872      871.597
01/27/2022  05:55:00      -14.472      -16.055       -6.973       17.971       12.802       12.875      322.975      163.903      165.759        0.058        0.033       21.615       11.983        0.307      328.906       -4.696      871.625
01/27/2022  05:56:00      -10.682       10.422       -7.673       15.923       15.894       10.896      253.557      252.619      118.726        0.045        0.031       14.925        6.467        0.188      328.830       -4.820      871.651
01/27/2022  05:57:00       -4.934       12.065        2.471       11.122       11.435        9.100      123.694      130.753       82.810        0.026        0.017       13.035        7.321        0.315      328.742       -4.965      871.664
01/27/2022  05:58:00       -9.435       23.383       -9.802        8.425        8.940        7.230       70.979       79.932       52.267        0.047        0.010       25.215        2.090        0.007      328.752       -4.946      871.678
01/27/2022  05:59:00       -8.919       16.335       -9.191        8.153        5.145        4.224       66.465       26.471       17.843        0.027        0.006       18.611        3.176        0.029      328.728       -4.984      871.694
01/27/2022  06:00:00       -6.979        9.911       -8.694        6.817        4.902        3.411       46.478       24.029       11.632        0.015        0.004       12.122        2.823        0.054      328.837       -4.808      871.706
01/27/2022  06:01:00      -19.838       19.705       -8.128        6.506        8.434        7.880       42.330       71.136       62.097        0.051        0.009       27.961        5.284        0.036      328.910       -4.689      871.711
01/27/2022  06:02:00      -18.656       19.519       -1.065       11.357       11.833        6.206      128.982      140.015       38.515        0.052        0.015       27.000        4.802        0.032      328.944       -4.634      871.709
01/27/2022  06:03:00      -13.327      -29.770      -12.542       18.177       15.474       12.584      330.410      239.449      158.355        0.097        0.036       32.616        8.360        0.066      328.957       -4.612      871.717
01/27/2022  06:04:00       -3.296      -12.752      -18.071       13.525       17.849       11.004      182.926      318.596      121.094        0.056        0.031       13.171       11.310        0.737      328.982       -4.572      871.734
01/27/2022  06:05:00       14.102      -14.554        1.961       11.610       17.112        7.462      134.786      292.810       55.687        0.045        0.024       20.266        7.798        0.148      328.922       -4.669      871.743
01/27/2022  06:06:00      -14.712       15.122       -9.527       11.978       13.973        8.856      143.480      195.256       78.428        0.048        0.021       21.098        5.251        0.062      328.852       -4.784      871.755
01/27/2022  06:07:00      -16.231        1.442       -6.842       13.587       20.725       10.764      184.595      429.509      115.856        0.052        0.036       16.295        4.363        0.072      328.876       -4.746      871.761
01/27/2022  06:08:00      -19.343        3.022       -0.866       13.782        8.765        7.322      189.948       76.833       53.604        0.035        0.016       19.578        4.750        0.059      328.951       -4.624      871.763
01/27/2022  06:09:00      -23.607       16.803       -6.741       12.157       12.724       12.301      147.783      161.890      151.305        0.067        0.023       28.977        8.318        0.082      328.893       -4.718      871.775
01/27/2022  06:10:00      -10.558       -1.343      -12.318       13.320       11.210        6.933      177.433      125.673       48.063        0.031        0.018       10.643        7.326        0.474      328.864       -4.763      871.789
01/27/2022  06:11:00      -14.856        0.646       -8.528       10.005       13.472        6.798      100.104      181.488       46.210        0.031        0.016       14.870        3.943        0.070      329.037       -4.483      871.813
01/27/2022  06:12:00       -4.865       29.351      -18.589       15.446       13.000       13.374      238.568      168.999      178.860        0.091        0.029       29.752        7.757        0.068      328.847       -4.792      871.766
01/27/2022  06:13:00      -32.877       28.534       -4.628       13.060       17.678        9.279      170.558      312.520       86.094        0.124        0.028       43.532        2.140        0.002      328.863       -4.766      871.708
01/27/2022  06:14:00      -12.746        0.264       -5.568       13.940       14.338        6.848      194.317      205.569       46.890        0.032        0.022       12.748        5.174        0.165      328.783       -4.896      871.723
01/27/2022  06:15:00       -5.245        8.539       -6.274        9.563       11.126        8.819       91.456      123.780       77.768        0.022        0.015       10.022        8.467        0.714      328.864       -4.764      871.736
01/27/2022  06:16:00        8.864       11.448       -9.844       10.009        6.877        5.736      100.186       47.287       32.905        0.024        0.009       14.478        3.327        0.053      328.844       -4.798      871.836
01/27/2022  06:17:00       27.635       21.774      -10.950        6.924        5.721        5.808       47.939       32.724       33.732        0.074        0.006       35.183        1.633        0.002      328.820       -4.838      871.878
01/27/2022  06:18:00       34.379       17.126       -3.456        8.666        9.377        5.250       75.102       87.919       27.558        0.084        0.010       38.409        4.129        0.012      328.814       -4.846      871.884
01/27/2022  06:19:00       21.608        8.989       -5.434       15.585       12.421        8.224      242.893      154.287       67.630        0.052        0.023       23.403        5.937        0.064      328.838       -4.806      871.895
01/27/2022  06:20:00       13.422        3.004       -6.011       15.004       17.794        8.677      225.117      316.634       75.289        0.042        0.031       13.754        7.225        0.276      328.916       -4.682      871.891
01/27/2022  06:21:00       -8.348       27.763       -6.042       13.255       11.880        9.222      175.698      141.141       85.047        0.064        0.020       28.991        6.011        0.043      328.892       -4.720      871.884
01/27/2022  06:22:00      -14.240       13.621       -1.925       14.214        9.484       12.651      202.026       89.938      160.054        0.042        0.023       19.706        2.018        0.010      328.832       -4.817      871.890
01/27/2022  06:23:00      -11.966       21.859       -9.795        7.852        7.912        5.767       61.658       62.592       33.256        0.044        0.008       24.920        2.787        0.013      328.826       -4.826      871.907
01/27/2022  06:24:00      -36.243       16.207       -7.719       10.774        7.600        7.613      116.088       57.764       57.953        0.093        0.012       39.702        3.974        0.010      328.882       -4.735      871.937
01/27/2022  06:25:00      -34.990        7.637       -8.498       15.905       15.560       10.786      252.975      242.111      116.341        0.098        0.031       35.814        7.712        0.046      328.874       -4.748      871.969
01/27/2022  06:26:00      -17.200        4.839       -1.212       15.057       19.976        8.668      226.728      399.053       75.139        0.051        0.035       17.868        6.066        0.115      328.815       -4.844      872.002
01/27/2022  06:27:00      -32.268        3.324       -3.325       17.630       20.062       13.513      310.819      402.472      182.606        0.098        0.045       32.438       10.458        0.104      328.915       -4.682      872.041
01/27/2022  06:28:00       -5.997       -0.275       -2.960       23.923       16.164       11.734      572.310      261.274      137.686        0.051        0.049        6.003        9.004        2.250      328.847       -4.793      872.062
01/27/2022  06:29:00      -58.071       17.731      -15.708       32.881       19.410       11.632     1081.177      376.740      135.304        0.276        0.080       60.718        1.117        0.000      328.856       -4.777      872.090
01/27/2022  06:30:00      -73.439       11.910      -11.738       24.547       19.948       15.893      602.569      397.930      252.595        0.346        0.063       74.398        3.996        0.003      328.792       -4.882      872.113
01/27/2022  06:31:00      -61.142       18.327       -4.110       24.083       18.664       16.876      579.978      348.338      284.792        0.265        0.061       63.829       12.776        0.040      328.707       -5.022      872.136
01/27/2022  06:32:00      -57.671       10.273       -4.660       18.701       20.945       12.804      349.712      438.688      163.943        0.220        0.048       58.579       11.118        0.036      328.745       -4.959      872.153
01/27/2022  06:33:00      -77.081       23.074       -8.789       18.326       21.106       13.099      335.844      445.455      171.577        0.375        0.048       80.460        7.790        0.009      328.706       -5.022      872.160
01/27/2022  06:34:00      -72.948       32.237       -7.376       26.699       17.277       18.501      712.815      298.508      342.304        0.388        0.068       79.753       13.574        0.029      328.637       -5.135      872.169
01/27/2022  06:35:00      -94.024       32.159      -18.086       24.323       15.802       13.715      591.625      249.703      188.099        0.562        0.051       99.372       13.434        0.018      328.642       -5.127      872.188
01/27/2022  06:36:00      -81.258       26.641      -23.897       18.173       13.908       14.589      330.241      193.426      212.842        0.431        0.037       85.513        9.899        0.013      328.628       -5.149      872.211
01/27/2022  06:37:00      -71.349       39.608      -10.417       20.369       16.476       11.550      414.909      271.469      133.401        0.379        0.041       81.606        9.841        0.015      328.591       -5.209      872.223
01/27/2022  06:38:00      -85.487       28.485      -21.043       35.771       25.529       16.909     1279.547      651.734      285.908        0.539        0.111       90.107       12.988        0.021      328.657       -5.103      872.243
01/27/2022  06:39:00      -72.990       21.594      -13.520       23.046       22.714       16.610      531.108      515.915      275.896        0.365        0.066       76.117        9.708        0.016      328.644       -5.123      872.253
01/27/2022  06:40:00      -84.453       38.746      -12.397       26.628       21.223       17.964      709.069      450.429      322.697        0.513        0.074       92.917       16.065        0.030      328.521       -5.325      872.263
01/27/2022  06:41:00      -68.381       24.340       -5.865       20.223       18.578       17.881      408.968      345.151      319.725        0.319        0.054       72.584        9.490        0.017      328.606       -5.186      872.271
01/27/2022  06:42:00      -57.042       19.152      -11.199       18.269       14.926       11.178      333.769      222.779      124.947        0.221        0.034       60.171        3.637        0.004      328.649       -5.115      872.264
01/27/2022  06:43:00      -25.965       20.762       -6.814       15.870       16.954       11.974      251.869      287.426      143.378        0.092        0.034       33.245        6.750        0.041      328.668       -5.085      872.269
01/27/2022  06:44:00      -10.829       31.247       -7.046       21.616       16.084       11.874      467.272      258.700      140.998        0.100        0.043       33.070        9.384        0.081      328.754       -4.945      872.281
01/27/2022  06:45:00       14.825       42.054       -7.763       19.621       20.573       15.501      384.964      423.233      240.275        0.155        0.052       44.591       13.994        0.098      328.842       -4.800      872.285
01/27/2022  06:46:00       38.290        6.754      -12.024       21.373       13.269        9.082      456.817      176.078       82.474        0.119        0.036       38.882        8.390        0.047      328.863       -4.766      872.295
01/27/2022  06:47:00       58.684       22.347       -8.957       17.098       11.967       12.248      292.357      143.202      150.023        0.230        0.029       62.795        7.673        0.015      328.807       -4.857      872.300
01/27/2022  06:48:00       63.917       21.696       -5.566       14.819       14.166       11.805      219.615      200.662      139.359        0.257        0.028       67.499        8.537        0.016      328.812       -4.848      872.301
01/27/2022  06:49:00       46.812       21.053       -5.659       21.364       10.932       11.133      456.429      119.512      123.940        0.168        0.035       51.328        8.437        0.027      328.745       -4.958      872.299
01/27/2022  06:50:00       51.681       24.348       -8.342       14.761       15.017        9.258      217.888      225.518       85.705        0.193        0.026       57.130        8.428        0.022      328.747       -4.955      872.296
01/27/2022  06:51:00       64.120       35.416       -7.504       18.102       15.939       13.383      327.689      254.046      179.093        0.309        0.038       73.250       11.890        0.026      328.750       -4.950      872.293
01/27/2022  06:52:00       72.804       45.376      -21.861       15.131        9.200       11.028      228.954       84.640      121.623        0.414        0.022       85.787        8.322        0.009      328.758       -4.938      872.304
01/27/2022  06:53:00       61.896       40.606      -16.906       12.828       11.394       11.626      164.568      129.823      135.170        0.310        0.021       74.027        2.940        0.002      328.796       -4.873      872.311
01/27/2022  06:54:00       62.748       17.193      -10.418       20.736       11.306        9.370      429.987      127.833       87.789        0.249        0.032       65.060        4.068        0.004      328.770       -4.919      872.326
01/27/2022  06:55:00       59.689       16.873      -11.335       16.623       11.800       10.704      276.330      139.250      114.576        0.225        0.027       62.028        8.766        0.020      328.794       -4.878      872.344
01/27/2022  06:56:00       41.495        4.930      -16.758       16.242       15.248       12.606      263.814      232.498      158.912        0.134        0.033       41.787        7.895        0.036      328.801       -4.867      872.364
01/27/2022  06:57:00       45.393        9.126      -11.115       20.577       17.841        9.752      423.423      318.303       95.111        0.155        0.042       46.301        5.319        0.013      328.764       -4.927      872.369
01/27/2022  06:58:00       51.352       23.512      -15.379       11.161       10.831        7.617      124.568      117.313       58.015        0.186        0.015       56.479        5.364        0.009      328.814       -4.845      872.368
01/27/2022  06:59:00       49.119       27.155       -9.921        4.766        4.974        5.885       22.714       24.741       34.636        0.167        0.004       56.125        1.973        0.001      328.927       -4.661      872.366
01/27/2022  07:00:00       39.151       21.467      -11.075        8.049        8.821        8.904       64.787       77.813       79.273        0.117        0.011       44.650        4.380        0.010      328.973       -4.584      872.360
01/27/2022  07:01:00       30.935       14.010       -8.739        7.583        8.063        9.130       57.498       65.013       83.350        0.072        0.010       33.959        5.947        0.031      328.985       -4.569      872.344
01/27/2022  07:02:00       35.462       18.377       -9.923       10.177       10.656        6.551      103.578      113.552       42.910        0.098        0.013       39.941        5.880        0.022      328.998       -4.545      872.339
01/27/2022  07:03:00       45.863       21.380       -8.096        7.531       11.553        5.850       56.723      133.467       34.226        0.143        0.011       50.602        2.982        0.003      329.047       -4.465      872.333
01/27/2022  07:04:00       34.603       31.227        0.476       20.560       15.243       10.111      422.718      232.352      102.237        0.146        0.038       46.610        9.919        0.045      328.991       -4.556      872.325
01/27/2022  07:05:00       16.851       -0.438       -9.678       25.072       26.385       17.263      628.593      696.189      297.999        0.100        0.081       16.857       15.327        0.827      329.045       -4.470      872.328
01/27/2022  07:06:00       20.812      -15.605       -7.871       17.034       19.057       11.863      290.160      363.188      140.734        0.077        0.040       26.013       11.995        0.213      329.107       -4.366      872.323
01/27/2022  07:07:00       11.345      -16.193       -4.538       10.619        9.732        6.377      112.771       94.721       40.667        0.033        0.012       19.772        4.301        0.047      329.183       -4.244      872.326
01/27/2022  07:08:00       40.324      -19.263       -8.143       13.950       13.511       11.138      194.614      182.550      124.064        0.128        0.025       44.688        8.440        0.036      329.177       -4.254      872.341
01/27/2022  07:09:00       19.742       -9.472       -7.528       22.328       12.032       11.304      498.558      144.765      127.786        0.065        0.039       21.896        9.736        0.198      329.172       -4.263      872.359
01/27/2022  07:10:00       31.489      -25.638       -8.286       15.292       10.926        9.448      233.832      119.372       89.261        0.108        0.022       40.606        8.631        0.045      329.246       -4.141      872.387
01/27/2022  07:11:00       31.591      -30.553       -8.117       18.394       18.846       17.391      338.354      355.158      302.431        0.150        0.050       43.948       14.642        0.111      329.257       -4.123      872.408
01/27/2022  07:12:00        8.190      -23.197      -20.413       12.719       14.605       11.228      161.781      213.296      126.065        0.076        0.025       24.600        6.533        0.071      329.192       -4.229      872.428
01/27/2022  07:13:00       -3.218        0.044       -4.108        7.355        5.080        8.051       54.102       25.809       64.816        0.009        0.007        3.218        2.546        0.626      329.016       -4.517      872.452
01/27/2022  07:14:00      -12.800       -1.490       -0.963        9.886        9.155        8.333       97.738       83.810       69.441        0.021        0.013       12.887        2.671        0.043      328.998       -4.546      872.467
01/27/2022  07:15:00      -23.907        2.429       -6.246       23.851       14.920        8.110      568.876      222.600       65.780        0.074        0.043       24.030        9.334        0.151      328.852       -4.784      872.486
01/27/2022  07:16:00      -32.630       -3.253       -4.712       34.287       19.507       12.454     1175.611      380.518      155.110        0.140        0.086       32.792       12.692        0.150      328.852       -4.785      872.488
01/27/2022  07:17:00      -50.764      -10.586        2.251       29.603       28.498       21.183      876.351      812.111      448.720        0.242        0.107       51.856       18.445        0.127      328.967       -4.597      872.498
01/27/2022  07:18:00      -19.866       -9.046        1.238       19.184       14.748       11.584      368.038      217.503      134.190        0.060        0.036       21.828        9.830        0.203      329.015       -4.517      872.484
01/27/2022  07:19:00       -9.901        1.298       -1.150       20.573       12.998       10.370      423.240      168.952      107.533        0.040        0.035        9.986        7.971        0.637      328.959       -4.610      872.474
01/27/2022  07:20:00      -14.727      -12.389       -2.547       22.595       24.936       17.393      510.542      621.807      302.514        0.091        0.072       19.245       11.160        0.336      328.926       -4.665      872.470
01/27/2022  07:21:00       11.891        0.633        2.814        8.840       17.579       12.819       78.137      309.004      164.335        0.035        0.028       11.908        6.029        0.256      328.932       -4.654      872.478
01/27/2022  07:22:00      -10.209       -5.786        0.074       18.232       11.007       16.174      332.403      121.150      261.593        0.043        0.036       11.734        6.481        0.305      328.981       -4.574      872.479
01/27/2022  07:23:00      -35.471       21.943       -7.379       17.114       13.602       12.681      292.892      185.015      160.799        0.122        0.032       41.710        4.251        0.010      328.926       -4.663      872.492
01/27/2022  07:24:00      -12.994       13.068        0.183       16.670       23.804       17.349      277.884      566.646      300.993        0.074        0.057       18.429        7.167        0.151      328.863       -4.766      872.499
01/27/2022  07:25:00      -44.143        8.368      -10.324       28.354       19.848       15.925      803.967      393.936      253.613        0.179        0.073       44.930       11.039        0.060      328.950       -4.623      872.496
01/27/2022  07:26:00      -55.087       10.867       -5.948       19.232       17.549       13.581      369.879      307.961      184.437        0.203        0.043       56.149        4.523        0.006      328.922       -4.669      872.488
01/27/2022  07:27:00      -24.797        5.148       -4.181       22.006       12.809       13.679      484.252      164.066      187.126        0.075        0.042       25.326        5.926        0.055      328.921       -4.672      872.483
01/27/2022  07:28:00       -4.886      -10.421       -5.638       10.821       17.694       13.422      117.093      313.080      180.159        0.039        0.031       11.510        8.146        0.501      329.023       -4.504      872.480
01/27/2022  07:29:00      -20.262        2.553       -0.615       24.324       19.236       14.492      591.655      370.022      210.015        0.079        0.059       20.423       11.543        0.319      329.110       -4.363      872.482
01/27/2022  07:30:00      -43.686        5.745      -11.167       26.927       21.585       13.634      725.062      465.916      185.884        0.172        0.069       44.063       10.428        0.056      329.021       -4.508      872.479
01/27/2022  07:31:00      -89.897       22.534      -11.419       15.758       15.896        9.835      248.303      252.693       96.733        0.466        0.030       92.678        8.304        0.008      328.799       -4.869      872.479
01/27/2022  07:32:00      -78.325       12.950       -5.009       25.438       20.956       16.909      647.074      439.169      285.899        0.385        0.069       79.388       13.440        0.029      328.911       -4.688      872.479
01/27/2022  07:33:00      -84.986       19.769       -9.827       17.583       19.620       14.418      309.152      384.952      207.892        0.431        0.045       87.255       10.164        0.014      328.859       -4.772      872.486
01/27/2022  07:34:00      -63.226       16.780       -5.396       25.774       18.064       19.399      664.283      326.304      376.312        0.284        0.068       65.414       11.839        0.033      328.902       -4.702      872.496
01/27/2022  07:35:00      -53.390        6.525       -8.762       20.577       25.132       17.780      423.399      631.630      316.135        0.217        0.069       53.787        9.800        0.033      328.931       -4.654      872.505
01/27/2022  07:36:00       -7.323      -14.941       -4.046       21.594       17.264       17.693      466.282      298.043      313.040        0.069        0.054       16.639       16.537        0.988      328.936       -4.647      872.517
01/27/2022  07:37:00        1.265       -5.008       -4.619       10.842        8.717       11.492      117.554       75.993      132.077        0.019        0.016        5.165        9.206        3.177      329.085       -4.405      872.527
01/27/2022  07:38:00      -13.405      -23.083      -13.614       17.628       18.290       12.706      310.752      334.530      161.439        0.085        0.040       26.693        5.607        0.044      329.055       -4.454      872.538
01/27/2022  07:39:00      -21.860        4.812      -13.278       13.365       12.645        9.451      178.613      159.884       89.314        0.055        0.021       22.383        5.297        0.056      329.047       -4.464      872.545
01/27/2022  07:40:00       -1.958       -6.975       -2.961       11.075        8.241       12.172      122.656       67.915      148.152        0.020        0.017        7.244        5.929        0.670      329.191       -4.232      872.552
01/27/2022  07:41:00        5.168       -2.289        0.407        9.176        5.741        5.380       84.204       32.959       28.947        0.009        0.007        5.653        1.846        0.107      329.155       -4.290      872.541
01/27/2022  07:42:00      -26.033       -3.903       -7.292       22.995       14.965       13.226      528.781      223.953      174.932        0.084        0.046       26.324        6.696        0.065      329.087       -4.400      872.542
01/27/2022  07:43:00      -17.146       12.139       -4.422       14.081       11.416       11.512      198.286      130.328      132.537        0.046        0.023       21.008       10.224        0.237      328.984       -4.568      872.555
01/27/2022  07:44:00       -1.659       -4.247       -9.433        6.633        9.265       10.187       44.002       85.837      103.780        0.017        0.012        4.559        4.048        0.788      329.154       -4.290      872.577
01/27/2022  07:45:00      -22.403        9.179       -2.678       16.239       13.824       10.291      263.713      191.093      105.901        0.058        0.028       24.211        7.162        0.088      329.159       -4.283      872.594
01/27/2022  07:46:00      -11.950      -11.697      -12.615       18.951       10.601       12.362      359.126      112.386      152.822        0.053        0.031       16.722       11.537        0.476      329.125       -4.337      872.615
01/27/2022  07:47:00      -17.401       -2.853       -1.633       16.168       11.540       10.932      261.407      133.161      119.510        0.041        0.026       17.633        9.593        0.296      329.224       -4.176      872.624
01/27/2022  07:48:00      -35.354        2.595        1.438       23.176       16.253       16.883      537.143      264.164      285.026        0.117        0.054       35.449       13.234        0.139      329.090       -4.396      872.643
01/27/2022  07:49:00        9.480       -0.384        0.954       13.066       15.443       10.893      170.717      238.494      118.649        0.031        0.026        9.488        5.361        0.319      329.319       -4.021      872.655
01/27/2022  07:50:00      -10.313       -6.193       -6.441       16.031        9.299       10.527      256.993       86.477      110.814        0.032        0.023       12.029        6.234        0.269      329.381       -3.921      872.678
01/27/2022  07:51:00       -6.400       -8.298        3.476       12.390       12.511        9.781      153.521      156.515       95.677        0.026        0.020       10.479        5.980        0.326      329.631       -3.511      872.697
01/27/2022  07:52:00      -10.196       -0.340       -6.039       15.959        8.613        9.987      254.695       74.176       99.744        0.028        0.021       10.202        6.452        0.400      329.377       -3.926      872.700
01/27/2022  07:53:00       -4.351       -5.824       -0.968        9.515        9.639        9.588       90.541       92.908       91.920        0.016        0.014        7.269        3.774        0.270      329.548       -3.647      872.721
01/27/2022  07:54:00      -25.623       -8.410       -6.649       16.744       15.482       12.827      280.355      239.685      164.542        0.073        0.034       26.968        8.448        0.098      329.523       -3.689      872.736
01/27/2022  07:55:00      -40.172       -6.226       -5.128       25.466       14.997       11.566      648.499      224.918      133.764        0.134        0.050       40.652       10.901        0.072      329.397       -3.892      872.744
01/27/2022  07:56:00       -7.487        1.581       -3.890       20.086       17.854       12.847      403.435      318.762      165.051        0.048        0.044        7.652        8.056        1.108      329.457       -3.797      872.741
01/27/2022  07:57:00      -10.949       -4.602        2.679       17.987       13.025       10.246      323.549      169.655      104.971        0.037        0.030       11.877        8.180        0.474      329.682       -3.427      872.742
01/27/2022  07:58:00       -6.794       -0.984       -4.944       13.482       12.065        8.529      181.757      145.564       72.739        0.024        0.020        6.865        7.104        1.071      329.580       -3.595      872.755
01/27/2022  07:59:00      -60.407        8.512       -7.025       24.165       13.691       12.545      583.954      187.454      157.384        0.235        0.046       61.004       10.237        0.028      329.299       -4.055      872.767
01/27/2022  08:00:00      -31.752        7.037       -7.724       14.496       21.471       12.517      210.129      461.018      156.682        0.097        0.041       32.522        8.504        0.068      329.385       -3.913      872.784
01/27/2022  08:01:00      -16.378       -2.980       -9.384       14.260       12.071        9.530      203.344      145.719       90.813        0.040        0.022       16.647        8.047        0.234      329.508       -3.713      872.810
01/27/2022  08:02:00       -7.508      -11.849      -10.207       11.580       11.467       10.993      134.105      131.498      120.853        0.034        0.019       14.027        4.824        0.118      329.837       -3.174      872.832
01/27/2022  08:03:00       -2.454       10.954        1.526        5.441       10.884        3.954       29.606      118.458       15.631        0.015        0.008       11.226        3.134        0.078      329.726       -3.357      872.845
01/27/2022  08:04:00        4.753        6.985       -5.961       10.081       25.912       16.667      101.623      671.422      277.797        0.058        0.053        8.449       16.218        3.685      329.867       -3.125      872.853
01/27/2022  08:05:00       22.558      -21.523      -11.456       20.692       17.882       12.011      428.168      319.784      144.259        0.100        0.045       31.179       12.560        0.162      329.889       -3.089      872.854
01/27/2022  08:06:00       17.139      -32.044      -15.161       17.095       11.805       15.874      292.227      139.359      251.997        0.112        0.034       36.339        4.961        0.019      329.852       -3.150      872.863
01/27/2022  08:07:00       14.545        3.426       -6.610       23.878       44.166       16.359      570.145     1950.653      267.610        0.153        0.139       14.943        7.004        0.220      329.877       -3.109      872.865
01/27/2022  08:08:00       14.058       -1.153       -8.972       14.556       30.120       13.539      211.863      907.239      183.315        0.079        0.065       14.105       11.975        0.721      329.841       -3.167      872.880
01/27/2022  08:09:00       21.612      -46.360      -23.228       16.876       26.431       17.583      284.800      698.579      309.157        0.222        0.065       51.150        9.703        0.036      329.930       -3.022      872.901
01/27/2022  08:10:00       33.260      -16.548      -12.894       23.091       28.372       24.829      533.173      804.979      616.497        0.175        0.098       37.149       17.203        0.214      329.958       -2.976      872.917
01/27/2022  08:11:00       72.043      -27.979      -14.918       22.828       14.967       12.537      521.138      224.013      157.188        0.355        0.045       77.285        5.377        0.005      329.653       -3.475      872.920
01/27/2022  08:12:00       20.512      -15.774      -13.409       19.968       24.571       18.859      398.705      603.748      355.661        0.110        0.068       25.876       16.079        0.386      329.889       -3.088      872.935
01/27/2022  08:13:00       33.950      -19.716      -23.306       32.767       35.680       19.171     1073.698     1273.056      367.511        0.240        0.136       39.260       12.211        0.097      329.992       -2.920      872.955
01/27/2022  08:14:00       31.962       -4.806      -14.541       29.488       28.129       20.106      869.539      791.257      404.261        0.166        0.103       32.322       16.566        0.263      329.961       -2.970      872.976
01/27/2022  08:15:00       24.454        6.964       -5.231       29.460       33.669       22.725      867.921     1133.610      516.420        0.160        0.126       25.426        6.418        0.064      329.917       -3.042      873.011
01/27/2022  08:16:00       43.272      -29.377      -21.558       27.040       44.907       19.532      731.147     2016.660      381.486        0.316        0.156       52.302       13.727        0.069      329.955       -2.981      873.019
01/27/2022  08:17:00       34.802       -1.507      -23.507       26.647       37.304       23.380      710.062     1391.578      546.614        0.221        0.132       34.835       14.003        0.162      329.973       -2.951      873.040
01/27/2022  08:18:00       41.122       -7.467      -17.969       30.064       28.570       21.164      903.823      816.224      447.894        0.212        0.108       41.794       16.396        0.154      329.913       -3.049      873.069
01/27/2022  08:19:00       27.000       40.398      -10.081       25.752       34.227       22.798      663.184     1171.479      519.770        0.241        0.118       48.590        5.362        0.012      329.856       -3.142      873.066
01/27/2022  08:20:00       29.361       16.672      -14.314       31.042       36.660       22.257      963.576     1343.990      495.395        0.207        0.140       33.764       18.163        0.289      330.038       -2.845      873.082
01/27/2022  08:21:00       60.374       41.547      -20.663       32.400       22.280       14.876     1049.732      496.420      221.294        0.378        0.088       73.288       11.191        0.023      329.894       -3.081      873.105
01/27/2022  08:22:00       51.192      -40.239      -13.227       38.123       32.305       22.188     1453.328     1043.586      492.306        0.370        0.149       65.114       19.965        0.094      329.963       -2.969      873.111
01/27/2022  08:23:00       48.494        1.809       -8.653       26.489       37.007       15.422      701.681     1369.508      237.851        0.237        0.115       48.527        9.473        0.038      330.006       -2.898      873.130
01/27/2022  08:24:00        1.451      -36.749      -22.836       23.401       24.818       13.998      547.618      615.914      195.939        0.162        0.068       36.778        6.336        0.030      330.122       -2.708      873.151
01/27/2022  08:25:00      -36.493       -5.154       -6.186       14.331       12.270       10.420      205.388      150.556      108.580        0.093        0.023       36.855        9.165        0.062      330.035       -2.850      873.157
01/27/2022  08:26:00        3.520      -30.876      -17.814       32.146       12.098       15.074     1033.387      146.356      227.233        0.134        0.070       31.076       13.049        0.176      330.074       -2.786      873.174
01/27/2022  08:27:00        5.846       -9.609       -7.539       20.348       17.247       11.728      414.027      297.446      137.544        0.052        0.042       11.247        4.374        0.151      330.201       -2.578      873.175
01/27/2022  08:28:00      -15.923        8.220       -3.339       21.897       17.742       13.009      479.480      314.777      169.228        0.065        0.048       17.920        6.656        0.138      330.192       -2.593      873.176
01/27/2022  08:29:00      -45.258       11.047       -5.622       37.162       35.428       23.295     1380.984     1255.132      542.671        0.269        0.159       46.586       21.984        0.223      330.043       -2.836      873.169
01/27/2022  08:30:00      -32.078      -10.186        0.811       40.996       24.175       22.730     1680.676      584.418      516.644        0.196        0.139       33.656       22.880        0.462      330.205       -2.571      873.172
01/27/2022  08:31:00      -18.032        7.774       -2.422       15.738       19.951       16.111      247.670      398.056      259.567        0.065        0.045       19.637        8.377        0.182      330.273       -2.459      873.161
01/27/2022  08:32:00      -23.908       -3.853       -6.648       25.368       21.372       18.854      643.523      456.765      355.463        0.104        0.073       24.216       12.955        0.286      330.260       -2.482      873.153
01/27/2022  08:33:00      -41.839       -7.791        1.219       34.268       22.169       20.653     1174.316      491.477      426.537        0.195        0.105       42.558       16.293        0.147      330.220       -2.546      873.143
01/27/2022  08:34:00      -62.793        2.292       -1.897       44.542       25.063       26.137     1983.988      628.130      683.152        0.362        0.165       62.835       28.458        0.205      330.056       -2.816      873.138
01/27/2022  08:35:00      -39.982       -5.001      -11.059       31.637       24.136       16.819     1000.906      582.537      282.890        0.181        0.093       40.293       13.651        0.115      330.083       -2.772      873.149
01/27/2022  08:36:00      -46.916       37.163      -16.102       18.498       17.508       15.800      342.190      306.529      249.643        0.237        0.045       59.851       14.325        0.057      329.892       -3.085      873.155
01/27/2022  08:37:00      -32.068       10.432       -9.798       13.757       12.921       12.442      189.256      166.959      154.815        0.087        0.026       33.722        7.353        0.048      329.990       -2.922      873.151
01/27/2022  08:38:00       -3.317        3.928       -6.857        5.786        6.420        5.156       33.477       41.218       26.586        0.009        0.005        5.141        2.622        0.260      330.269       -2.467      873.155
01/27/2022  08:39:00      -14.048        9.242      -10.931       16.969       13.904        8.338      287.951      193.334       69.530        0.048        0.028       16.815        6.388        0.144      330.169       -2.630      873.154
01/27/2022  08:40:00      -49.243      -15.550       -7.356       36.223       21.221       13.796     1312.081      450.331      190.326        0.234        0.098       51.640       11.854        0.053      330.194       -2.590      873.159
01/27/2022  08:41:00      -63.925      -35.779      -15.127       18.419       10.690       11.744      339.256      114.273      137.913        0.309        0.030       73.257        9.243        0.016      330.041       -2.841      873.158
01/27/2022  08:42:00      -62.748      -27.236      -25.616       20.373       16.092       13.120      415.053      258.954      172.123        0.309        0.042       68.404        7.328        0.011      330.161       -2.643      873.165
01/27/2022  08:43:00      -57.970      -11.056      -13.619       26.476       17.976       18.997      700.973      323.131      360.874        0.253        0.069       59.014       11.360        0.037      330.296       -2.422      873.158
01/27/2022  08:44:00      -33.200      -12.647       -6.432       21.059       15.252       19.255      443.487      232.638      370.767        0.118        0.052       35.527       11.134        0.098      330.422       -2.215      873.168
01/27/2022  08:45:00      -79.820        0.364       -4.866       20.926       27.162       15.940      437.881      737.760      254.087        0.391        0.071       79.821        7.357        0.008      330.205       -2.570      873.175
01/27/2022  08:46:00      -72.071      -20.205      -16.000       21.351       17.982       13.090      455.855      323.337      171.358        0.340        0.048       74.850        4.516        0.004      330.232       -2.528      873.187
01/27/2022  08:47:00      -39.647       -2.494       -9.074       38.859       21.980       21.617     1510.049      483.125      467.314        0.206        0.123       39.725       13.282        0.112      330.374       -2.294      873.188
01/27/2022  08:48:00      -13.574        1.852       -3.745       20.043       10.524       11.499      401.713      110.762      132.237        0.042        0.032       13.699       10.145        0.548      330.470       -2.136      873.184
01/27/2022  08:49:00      -37.894        5.238      -11.261       13.828       15.583        7.728      191.226      242.832       59.727        0.104        0.025       38.255        4.036        0.011      330.377       -2.289      873.171
01/27/2022  08:50:00       -8.169       -8.562       -0.482       11.986       13.178       12.435      143.675      173.657      154.640        0.031        0.024       11.834        6.565        0.308      330.703       -1.753      873.166
01/27/2022  08:51:00      -40.864      -13.197       -6.887       34.934       13.901       17.874     1220.366      193.228      319.487        0.181        0.087       42.942       14.932        0.121      330.586       -1.946      873.173
01/27/2022  08:52:00      -35.772       -4.367      -10.292       17.692       21.662       16.326      313.006      469.262      266.539        0.123        0.052       36.037       13.191        0.134      330.550       -2.007      873.180
01/27/2022  08:53:00        2.723        6.416      -12.368        6.697        4.402        6.413       44.844       19.373       41.129        0.015        0.005        6.970        2.068        0.088      330.574       -1.967      873.172
01/27/2022  08:54:00      -12.429        9.884       -7.347       12.413       16.467       12.344      154.089      271.177      152.370        0.044        0.029       15.880       10.882        0.470      330.673       -1.804      873.180
01/27/2022  08:55:00      -26.618        5.300      -10.231       13.959        8.909       14.367      194.846       79.362      206.409        0.066        0.024       27.140        8.191        0.091      330.668       -1.813      873.185
01/27/2022  08:56:00      -18.503       17.625       -3.714       14.521        8.183        8.571      210.850       66.959       73.470        0.051        0.018       25.554        6.408        0.063      330.629       -1.877      873.190
01/27/2022  08:57:00      -23.756        6.535       -6.403       13.913        8.691        5.782      193.559       75.525       33.432        0.048        0.015       24.638        4.382        0.032      330.733       -1.704      873.200
01/27/2022  08:58:00      -14.398        3.482       -5.495       13.581       14.736        6.325      184.436      217.161       40.002        0.035        0.022       14.813        6.126        0.171      330.794       -1.603      873.210
01/27/2022  08:59:00       -9.931       -6.885      -13.803       11.082        9.046       11.424      122.821       81.828      130.502        0.034        0.017       12.084        6.369        0.278      330.932       -1.378      873.213
01/27/2022  09:00:00      -43.698       -6.063       -1.038       31.256       11.823       16.246      976.922      139.785      263.921        0.166        0.069       44.116       18.342        0.173      330.879       -1.465      873.225
01/27/2022  09:01:00      -35.940        9.359       -2.792       15.634       18.786       13.249      244.436      352.931      175.537        0.108        0.039       37.138       10.256        0.076      330.837       -1.534      873.236
01/27/2022  09:02:00      -15.051       18.025      -14.726       15.644        9.405        6.571      244.728       88.462       43.172        0.057        0.019       23.483        7.055        0.090      330.709       -1.744      873.257
01/27/2022  09:03:00      -25.050        9.832      -14.951       12.270       15.201       14.105      150.563      231.072      198.945        0.076        0.029       26.911        9.874        0.135      330.827       -1.551      873.290
01/27/2022  09:04:00      -24.513       10.887      -23.534       21.549       16.428       10.959      464.370      269.886      120.095        0.106        0.043       26.822        8.810        0.108      331.100       -1.102      873.303
01/27/2022  09:05:00      -21.696       10.781       -3.881       28.706       19.235       13.098      824.023      369.978      171.560        0.098        0.068       24.227       11.823        0.238      330.945       -1.358      873.321
01/27/2022  09:06:00       86.422       12.109      -11.750       35.002       22.253       22.203     1225.161      495.197      492.963        0.498        0.111       87.266       14.442        0.027      330.895       -1.439      873.324
01/27/2022  09:07:00       51.613        1.444      -11.458       48.313       36.328       24.961     2334.150     1319.704      623.047        0.354        0.214       51.633       22.561        0.191      331.262       -0.836      873.331
01/27/2022  09:08:00       65.074       30.897      -17.795       33.384       39.440       27.341     1114.463     1555.491      747.524        0.446        0.171       72.036       14.258        0.039      331.136       -1.043      873.339
01/27/2022  09:09:00       66.873       29.930      -11.940       19.585       21.090       13.207      383.569      444.801      174.430        0.326        0.050       73.266        4.892        0.004      330.898       -1.436      873.342
01/27/2022  09:10:00       30.514       46.774       -4.793       26.174       22.310       23.064      685.096      497.738      531.963        0.243        0.086       55.847       16.675        0.089      331.104       -1.097      873.355
01/27/2022  09:11:00        4.096       -3.926      -14.938       22.187       23.803       19.120      492.279      566.570      365.584        0.084        0.071        5.674        8.678        2.339      331.319       -0.742      873.358
01/27/2022  09:12:00      -25.144      -28.702       -7.760       19.899       23.119       24.663      395.978      534.499      608.247        0.153        0.077       38.158       15.509        0.165      331.426       -0.566      873.352
01/27/2022  09:13:00      -24.222      -24.018      -21.829       18.335       25.719       20.607      336.157      661.455      424.668        0.153        0.071       34.111        4.705        0.019      331.356       -0.681      873.345
01/27/2022  09:14:00      -28.446       -0.597      -14.598       15.768       16.162       10.808      248.617      261.215      116.822        0.082        0.031       28.452        6.868        0.058      331.171       -0.985      873.346
01/27/2022  09:15:00      -13.881       -1.207       -4.484       27.768       21.083       15.390      771.080      444.481      236.846        0.083        0.073       13.933       14.640        1.104      331.294       -0.783      873.338
01/27/2022  09:16:00      -62.266       33.910      -16.649       20.564       40.766       26.163      422.863     1661.874      684.491        0.404        0.138       70.901       10.419        0.022      331.064       -1.162      873.333
01/27/2022  09:17:00      -26.186      -12.183      -14.232       26.325       33.580       24.982      692.992     1127.597      624.089        0.174        0.122       28.881       11.551        0.160      331.214       -0.914      873.340
01/27/2022  09:18:00      -55.037       21.237      -12.773       29.384       19.687       16.001      863.409      387.577      256.041        0.257        0.075       58.993       13.851        0.055      331.145       -1.027      873.333
01/27/2022  09:19:00       -5.448       -1.397      -13.397       12.429       10.487       14.155      154.475      109.968      200.351        0.034        0.023        5.624        6.234        1.229      331.513       -0.424      873.334
01/27/2022  09:20:00      -13.675       -7.220      -13.688       19.094       20.926       15.974      364.591      437.903      255.173        0.074        0.053       15.464       12.243        0.627      331.515       -0.420      873.341
01/27/2022  09:21:00      -29.095       -5.641      -10.393       18.723       18.196       16.094      350.546      331.087      259.004        0.096        0.047       29.637        9.594        0.105      331.330       -0.725      873.354
01/27/2022  09:22:00      -45.288        5.285      -13.194       15.603        9.138       12.330      243.454       83.503      152.029        0.137        0.024       45.595        7.813        0.029      331.157       -1.007      873.358
01/27/2022  09:23:00      -16.758       21.611       -0.192       18.960       18.482       15.435      359.487      341.594      238.253        0.084        0.047       27.348       12.559        0.211      331.399       -0.610      873.375
01/27/2022  09:24:00       -1.546       14.925        2.149       17.335       15.821       20.272      300.499      250.311      410.936        0.060        0.048       15.005       12.076        0.648      331.579       -0.315      873.391
01/27/2022  09:25:00      -15.040       20.237      -10.798       26.785       15.530       16.168      717.424      241.184      261.405        0.099        0.061       25.213       15.442        0.375      331.391       -0.624      873.420
01/27/2022  09:26:00      -18.686        5.962       -7.998       13.188        7.826       12.069      173.928       61.253      145.661        0.041        0.019       19.614        6.882        0.123      331.434       -0.553      873.433
01/27/2022  09:27:00      -18.383        7.765      -12.205       11.844       15.382       10.805      140.271      236.593      116.740        0.052        0.025       19.955        7.441        0.139      331.349       -0.694      873.448
01/27/2022  09:28:00      -33.259      -17.061       -9.887       26.381       15.841       17.532      695.972      250.931      307.356        0.137        0.063       37.380        8.835        0.056      331.425       -0.568      873.452
01/27/2022  09:29:00      -24.227       -2.304      -12.997       37.835       26.078       17.284     1431.514      680.049      298.732        0.159        0.121       24.337       14.747        0.367      331.552       -0.358      873.467
01/27/2022  09:30:00      -29.423       -0.246      -12.730       16.493       16.474       17.323      272.012      271.402      300.091        0.094        0.042       29.424        5.201        0.031      331.588       -0.300      873.483
01/27/2022  09:31:00       -4.902       17.102       -1.210       19.036       15.518       16.364      362.359      240.807      267.779        0.059        0.044       17.790       13.398        0.567      331.654       -0.191      873.500
01/27/2022  09:32:00      -37.084        9.031       -0.737       30.111       16.068       13.794      906.668      258.189      190.266        0.141        0.068       38.168       15.514        0.165      331.618       -0.250      873.514
01/27/2022  09:33:00      -23.766       10.144       -8.009       16.651       12.274        9.714      277.258      150.652       94.365        0.063        0.026       25.840        3.658        0.020      331.561       -0.345      873.533
01/27/2022  09:34:00      -22.163       43.587       -8.614       13.820       28.611       13.258      190.984      818.583      175.765        0.183        0.059       48.898        6.118        0.016      331.580       -0.313      873.538
01/27/2022  09:35:00      -18.716       34.668      -13.361       32.448       23.052       12.186     1052.879      531.401      148.505        0.173        0.087       39.397        6.533        0.027      331.551       -0.360      873.546
01/27/2022  09:36:00       -2.545        9.689       -5.171       15.571       16.596       16.123      242.457      275.432      259.938        0.045        0.039       10.018        6.427        0.412      331.833        0.104      873.557
01/27/2022  09:37:00      -37.761      -22.320       -9.699       15.886       11.554       12.358      252.377      133.499      152.721        0.128        0.027       43.865        8.658        0.039      331.678       -0.152      873.569
01/27/2022  09:38:00      -19.908       -5.876       -5.135       24.084       12.086       13.658      580.017      146.076      186.540        0.068        0.046       20.757        6.317        0.093      331.729       -0.068      873.591
01/27/2022  09:39:00       42.154       20.198      -14.455       29.769       19.137       20.463      886.180      366.228      418.751        0.203        0.084       46.743       16.608        0.126      331.847        0.126      873.602
01/27/2022  09:40:00       45.244       45.088       -9.206       42.763       19.750       20.452     1828.638      390.065      418.285        0.340        0.132       63.874       21.492        0.113      331.821        0.083      873.611
01/27/2022  09:41:00       82.727       58.696      -12.143       22.763       19.669       16.702      518.171      386.866      278.953        0.581        0.059      101.434       10.408        0.011      331.696       -0.122      873.615
01/27/2022  09:42:00       59.625       47.953      -15.864       21.813       31.578       19.613      475.822      997.163      384.665        0.398        0.093       76.515        7.682        0.010      332.171        0.660      873.619
01/27/2022  09:43:00       29.686       48.063       -5.425       28.742       31.872       23.143      826.104     1015.850      535.584        0.280        0.119       56.491       20.997        0.138      332.148        0.622      873.624
01/27/2022  09:44:00       -4.996       27.787        5.497       28.524       21.535       21.152      813.640      463.772      447.390        0.128        0.086       28.233       16.077        0.324      332.236        0.767      873.628
01/27/2022  09:45:00        5.013      -63.942      -30.686       48.211       39.206       23.066     2324.273     1537.134      532.029        0.472        0.220       64.138       19.476        0.092      332.260        0.806      873.635
01/27/2022  09:46:00       12.383      -52.066      -15.663       37.159       47.742       30.270     1380.779     2279.332      916.255        0.384        0.229       53.518       25.408        0.225      332.314        0.897      873.646
01/27/2022  09:47:00       81.610      -51.339      -39.146       39.963       83.252       38.720     1597.025     6930.818     1499.243        1.043        0.501       96.415       33.125        0.118      332.195        0.700      873.672
01/27/2022  09:48:00       37.559       38.974      -16.322       32.977       27.779       20.504     1087.478      771.663      420.430        0.274        0.114       54.126       16.031        0.088      331.972        0.334      873.681
01/27/2022  09:49:00      -28.793        2.697      -18.219       24.499       22.750       15.705      600.196      517.545      246.652        0.127        0.068       28.919        7.058        0.060      332.301        0.874      873.678
01/27/2022  09:50:00       23.473       10.376      -13.493       32.209       46.898       26.284     1037.447     2199.412      690.858        0.238        0.196       25.664       19.590        0.583      332.372        0.992      873.732
01/27/2022  09:51:00       53.099        2.853      -23.679       33.129       67.275       31.667     1097.508     4525.950     1002.804        0.501        0.331       53.176       22.057        0.172      332.045        0.452      873.784
01/27/2022  09:52:00       61.733      -57.493      -38.177       22.063       30.894       15.814      486.779      954.441      250.097        0.513        0.085       84.358        8.433        0.010      332.007        0.392      873.750
01/27/2022  09:53:00       60.943      -68.184      -28.488       25.570       38.243       23.272      653.842     1462.507      541.582        0.592        0.133       91.450       11.617        0.016      332.140        0.610      873.707
01/27/2022  09:54:00       53.154       13.062      -25.864       29.786       41.802       25.063      887.234     1747.373      628.147        0.346        0.163       54.736       12.545        0.053      332.406        1.048      873.719
01/27/2022  09:55:00       15.072       20.830       -2.944       17.958       24.845       15.359      322.502      617.297      235.886        0.092        0.059       25.711        8.694        0.114      332.347        0.951      873.720
01/27/2022  09:56:00        3.229       56.117        1.763       19.066       17.642       25.524      363.502      311.249      651.464        0.224        0.066       56.210       11.207        0.040      332.279        0.838      873.715
01/27/2022  09:57:00       53.992       66.911        3.453       42.064       35.534       26.925     1769.368     1262.691      724.945        0.558        0.188       85.978       12.701        0.022      332.557        1.297      873.714
01/27/2022  09:58:00       35.192      -23.120      -30.992       36.346       51.025       20.342     1321.063     2603.508      413.800        0.354        0.217       42.107       10.996        0.068      332.557        1.297      873.710
01/27/2022  09:59:00       40.798      -36.936      -35.308       58.729       44.527       24.480     3449.110     1982.693      599.295        0.515        0.302       55.034       11.461        0.043      332.537        1.265      873.703
01/27/2022  10:00:00      -11.788       -5.793       -6.713       28.901       18.262       16.647      835.283      333.485      277.111        0.083        0.072       13.134       16.548        1.587      332.565        1.311      873.689
01/27/2022  10:01:00       52.671     -109.835      -34.150       37.982       35.537       25.419     1442.655     1262.852      646.110        0.968        0.168      121.811       18.542        0.023      332.457        1.133      873.681
01/27/2022  10:02:00       69.717      -54.680      -34.499       24.473       42.299       22.346      598.906     1789.201      499.356        0.596        0.144       88.603       10.163        0.013      332.353        0.961      873.678
01/27/2022  10:03:00       69.169     -101.973      -31.055       55.671       52.381       22.072     3099.273     2743.816      487.154        1.124        0.317      123.219       25.470        0.043      332.645        1.443      873.681
01/27/2022  10:04:00       97.405     -126.691      -47.322       42.046       48.453       28.624     1767.882     2347.661      819.313        1.636        0.247      159.807       28.920        0.033      332.203        0.714      873.680
01/27/2022  10:05:00       58.676      -40.079      -31.334       33.222       48.635       28.753     1103.731     2365.396      826.710        0.516        0.215       71.058       18.084        0.065      332.596        1.363      873.689
01/27/2022  10:06:00      111.432      -93.664      -41.171       21.685       23.316       21.264      470.220      543.616      452.175        1.218        0.073      145.568       12.554        0.007      332.281        0.842      873.688
01/27/2022  10:07:00      100.247      -39.649      -37.114       30.343       43.874       21.465      920.698     1924.922      460.764        0.815        0.165      107.803       17.549        0.027      332.350        0.956      873.691
01/27/2022  10:08:00       67.149      -64.783      -26.621       27.552       61.004       26.198      759.105     3721.489      686.340        0.729        0.258       93.305       28.127        0.091      332.433        1.092      873.699
01/27/2022  10:09:00       39.613      -14.488      -23.344       24.497       31.883       16.807      600.096     1016.501      282.476        0.211        0.095       42.179        8.607        0.042      332.363        0.977      873.717
01/27/2022  10:10:00       76.783      -27.369      -25.881       55.007       64.880       36.675     3025.765     4209.429     1345.045        0.795        0.429       81.515       32.488        0.159      332.765        1.641      873.725
01/27/2022  10:11:00      -12.660      -73.421      -37.342       48.152       51.661       43.078     2318.632     2668.869     1855.697        0.689        0.342       74.504       33.843        0.206      332.812        1.718      873.731
01/27/2022  10:12:00       -0.423      -19.964      -21.788       47.594       65.421       15.577     2265.152     4279.961      242.641        0.383        0.339       19.968       14.421        0.522      332.752        1.619      873.738
01/27/2022  10:13:00       48.324      -93.401      -26.481       39.959       56.918       29.956     1596.751     3239.610      897.384        0.875        0.287      105.162       23.042        0.048      332.979        1.995      873.733
01/27/2022  10:14:00       49.814      -87.230      -35.904       39.927       46.059       36.464     1594.143     2121.397     1329.658        0.821        0.252      100.451       24.706        0.060      332.872        1.818      873.730
01/27/2022  10:15:00       65.868      -61.945      -27.709       47.569       33.692       31.063     2262.764     1135.152      964.916        0.665        0.218       90.420       31.338        0.120      332.703        1.538      873.725
01/27/2022  10:16:00       29.518      -49.066      -15.916       32.677       34.592       29.722     1067.803     1196.588      883.398        0.334        0.157       57.260       15.807        0.076      333.051        2.114      873.719
01/27/2022  10:17:00      -35.580      -31.798      -18.282       43.048       41.956       25.271     1853.135     1760.297      638.608        0.343        0.213       47.718       24.561        0.265      332.850        1.783      873.711
01/27/2022  10:18:00      -38.766      -15.676        0.353       56.369       40.429       34.616     3177.454     1634.508     1198.262        0.388        0.301       41.816       23.598        0.318      332.876        1.824      873.720
01/27/2022  10:19:00       30.346      -58.569      -19.430       65.112       52.717       37.007     4239.562     2779.033     1369.521        0.656        0.419       65.963       46.722        0.502      332.822        1.735      873.731
01/27/2022  10:20:00      114.317     -128.521      -48.232       40.096       52.041       30.612     1607.693     2708.315      937.121        1.858        0.263      172.006       19.213        0.012      332.682        1.502      873.735
01/27/2022  10:21:00       65.793      -70.997      -36.799       49.284       80.809       37.606     2428.894     6530.153     1414.245        1.055        0.519       96.795       30.484        0.099      332.875        1.822      873.731
01/27/2022  10:22:00       79.551     -109.976      -37.878       26.437       53.426       28.872      698.940     2854.373      833.615        1.212        0.219      135.732       22.794        0.028      332.629        1.416      873.729
01/27/2022  10:23:00       63.189     -119.236      -26.771       30.611       46.556       24.560      937.038     2167.464      603.187        1.132        0.185      134.944       22.715        0.028      332.621        1.402      873.731
01/27/2022  10:24:00       65.515     -118.778      -29.207       50.988       48.055       33.991     2599.772     2309.247     1155.415        1.266        0.303      135.648       28.967        0.046      332.621        1.400      873.708
01/27/2022  10:25:00       73.071      -53.036      -15.891       72.858       59.719       28.576     5308.325     3566.376      816.573        0.905        0.485       90.289       30.420        0.114      332.817        1.727      873.707
01/27/2022  10:26:00       37.844       -0.504       -4.280       40.584       46.560       30.855     1647.070     2167.861      952.015        0.311        0.238       37.847       28.098        0.551      333.167        2.307      873.702
01/27/2022  10:27:00       51.440       62.697      -27.275       27.824       22.428       19.854      774.164      503.011      394.192        0.450        0.084       81.099        8.362        0.011      332.789        1.681      873.694
01/27/2022  10:28:00       21.356       45.326       -0.422       28.174       29.997       23.645      793.799      899.806      559.100        0.238        0.113       50.106       14.562        0.084      333.133        2.250      873.683
01/27/2022  10:29:00       11.655       -0.465       -1.101       32.327       57.432       32.313     1045.045     3298.381     1044.159        0.276        0.269       11.664        8.616        0.546      333.432        2.743      873.664
01/27/2022  10:30:00       48.583      -19.989      -26.195       39.176       47.648       29.742     1534.733     2270.347      884.597        0.407        0.234       52.534       16.936        0.104      333.192        2.346      873.652
01/27/2022  10:31:00       70.433      -62.237      -32.562       60.880       72.043       44.055     3706.363     5190.156     1940.866        1.036        0.542       93.991       31.325        0.111      333.205        2.367      873.650
01/27/2022  10:32:00       60.126      -30.148      -15.454       43.324       40.442       30.788     1876.949     1635.528      947.924        0.461        0.223       67.261       24.006        0.127      333.199        2.357      873.652
01/27/2022  10:33:00       78.204       10.838      -15.533       70.067       39.882       31.243     4909.420     1590.542      976.126        0.697        0.374       78.951       27.738        0.123      333.125        2.237      873.644
01/27/2022  10:34:00       94.506       39.725      -30.636       42.849       43.088       26.517     1836.006     1856.586      703.149        0.792        0.220      102.516       20.318        0.039      332.958        1.961      873.629
01/27/2022  10:35:00       41.897        7.087      -13.079       78.337       59.159       38.201     6136.669     3499.770     1459.281        0.653        0.555       42.492       26.951        0.402      333.384        2.664      873.614
01/27/2022  10:36:00       97.080      -33.698      -26.064       82.352       74.623       56.711     6781.804     5568.640     3216.177        1.340        0.778      102.762       53.364        0.270      333.126        2.238      873.606
01/27/2022  10:37:00       53.112       26.076      -34.890       42.919       51.453       36.671     1842.082     2647.376     1344.733        0.528        0.292       59.168       20.927        0.125      333.319        2.557      873.598
01/27/2022  10:38:00      164.179       75.659      -22.047       55.441       38.890       31.735     3073.666     1512.436     1007.079        1.938        0.280      180.773       23.931        0.018      332.938        1.925      873.598
01/27/2022  10:39:00       72.323       -7.550      -13.158       58.155       98.189       49.014     3381.993     9641.012     2402.346        1.044        0.771       72.716       33.767        0.216      333.387        2.670      873.591
01/27/2022  10:40:00       78.825      -78.653      -37.880       56.801       67.531       42.685     3226.330     4560.418     1821.985        1.172        0.480      111.354       33.853        0.092      333.189        2.343      873.585
01/27/2022  10:41:00       64.662        5.545      -24.757       83.480       64.131       26.367     6968.982     4112.763      695.236        0.830        0.589       64.899       20.544        0.100      333.133        2.249      873.584
01/27/2022  10:42:00      100.025       39.873      -17.140       71.315       45.586       27.606     5085.871     2078.057      762.066        0.991        0.396      107.680       31.257        0.084      333.283        2.498      873.578
01/27/2022  10:43:00       90.691       86.312      -22.318       24.825       22.621       19.153      616.288      511.715      366.827        0.883        0.075      125.199        4.050        0.001      332.882        1.835      873.575
01/27/2022  10:44:00       50.786       64.111      -20.413       26.599       26.716       22.311      707.489      713.721      497.777        0.451        0.096       81.789       11.023        0.018      333.096        2.187      873.570
01/27/2022  10:45:00       47.444       44.287      -17.028       35.079       21.034       21.201     1230.521      442.440      449.476        0.331        0.106       64.902       13.917        0.046      332.999        2.027      873.572
01/27/2022  10:46:00       18.620       58.876      -13.338       33.107       30.118       32.440     1096.050      907.081     1052.328        0.352        0.153       61.750       14.328        0.054      333.138        2.257      873.553
01/27/2022  10:47:00       31.398       56.450      -11.886       48.739       38.539       25.668     2375.496     1485.220      658.854        0.442        0.226       64.595       23.230        0.129      333.293        2.514      873.535
01/27/2022  10:48:00       66.498      -42.696      -31.279       62.697       47.485       39.181     3930.862     2254.796     1535.122        0.747        0.386       79.025       25.779        0.106      333.321        2.560      873.534
01/27/2022  10:49:00      100.158      -10.567      -45.032       47.858       56.508       39.216     2290.424     3193.102     1537.917        0.959        0.351      100.714       36.702        0.133      333.312        2.546      873.513
01/27/2022  10:50:00       95.924       66.136      -18.273       37.442       36.207       23.559     1401.895     1310.952      555.043        0.859        0.163      116.513        3.221        0.001      333.071        2.147      873.514
01/27/2022  10:51:00       65.015       54.085       -5.289       32.230       23.402       24.431     1038.776      547.653      596.852        0.468        0.109       84.570       17.336        0.042      333.101        2.197      873.513
01/27/2022  10:52:00       91.164       -0.738      -31.546       53.093       47.766       18.112     2818.898     2281.572      328.030        0.737        0.271       91.167        9.288        0.010      332.976        1.991      873.508
01/27/2022  10:53:00       46.271      -14.194      -20.851       34.972       32.850       27.566     1223.041     1079.130      759.882        0.292        0.153       48.399        8.049        0.028      333.383        2.664      873.494
01/27/2022  10:54:00       62.694      -88.706      -44.520       47.288       79.726       28.692     2236.162     6356.255      823.215        1.160        0.471      108.625       18.080        0.028      333.574        2.979      873.488
01/27/2022  10:55:00       87.582      -80.997      -34.477       41.492       57.727       27.575     1721.560     3332.391      760.370        1.062        0.291      119.295       30.172        0.064      333.150        2.276      873.499
01/27/2022  10:56:00       67.436     -126.247      -44.077       38.638       45.484       25.228     1492.878     2068.795      636.464        1.331        0.210      143.128        7.182        0.003      333.410        2.708      873.500
01/27/2022  10:57:00      -60.126      -28.178      -31.918       64.774       57.917       30.501     4195.637     3354.414      930.283        0.695        0.424       66.401       35.956        0.293      333.395        2.681      873.506
01/27/2022  10:58:00      -39.621        1.220       -5.350       35.081       39.683       18.955     1230.646     1574.739      359.298        0.238        0.158       39.640       13.799        0.121      333.432        2.745      873.509
01/27/2022  10:59:00       16.601      -50.355       -9.953       34.407       37.552       31.427     1183.825     1410.132      987.655        0.325        0.179       53.021       23.457        0.196      333.841        3.422      873.518
01/27/2022  11:00:00       39.892      -47.452      -11.181       47.208       74.510       34.227     2228.567     5551.728     1171.491        0.646        0.448       61.992       32.704        0.278      333.674        3.145      873.515
01/27/2022  11:01:00       -0.311      -21.566       -5.722       27.045       33.714       18.427      731.445     1136.614      339.553        0.135        0.110       21.568       15.592        0.523      333.841        3.421      873.504
01/27/2022  11:02:00       20.718     -110.314      -26.348       40.539       35.371       24.474     1643.427     1251.105      598.980        0.839        0.175      112.243       10.915        0.009      333.566        2.965      873.496
01/27/2022  11:03:00       32.220      -13.439        2.271       67.852       59.426       28.999     4603.940     3531.393      840.923        0.510        0.449       34.910       28.023        0.644      333.918        3.549      873.490
01/27/2022  11:04:00       92.869        6.457      -24.339       74.757       74.696       38.831     5588.626     5579.480     1507.826        1.097        0.634       93.094       30.938        0.110      333.877        3.480      873.478
01/27/2022  11:05:00       78.395      -46.950      -27.537       44.266       45.200       25.238     1959.451     2043.083      636.972        0.687        0.232       91.379       17.241        0.036      333.488        2.837      873.472
01/27/2022  11:06:00       39.390      -42.724      -17.704       62.067       58.565       50.711     3852.272     3429.913     2571.583        0.677        0.493       58.111       35.935        0.382      333.943        3.589      873.462
01/27/2022  11:07:00      -19.915       -4.694      -16.235       43.406       25.875       25.405     1884.078      669.527      645.429        0.194        0.160       20.461       18.659        0.832      334.045        3.758      873.453
01/27/2022  11:08:00       90.569     -146.703      -36.626       40.925       51.336       25.117     1674.854     2635.411      630.841        1.800        0.247      172.408       27.426        0.025      333.438        2.755      873.444
01/27/2022  11:09:00       86.500      -76.890      -23.680       35.125       43.565       28.893     1233.759     1897.891      834.834        0.896        0.198      115.734       29.178        0.064      333.479        2.822      873.423
01/27/2022  11:10:00        0.781        1.210      -11.383       28.363       38.750       28.416      804.448     1501.564      807.454        0.162        0.156        1.440       18.114      158.281      334.018        3.714      873.407
01/27/2022  11:11:00      -10.741       22.640       -7.797       55.564       27.434       22.438     3087.376      752.645      503.461        0.252        0.217       25.059       12.367        0.244      333.982        3.654      873.388
01/27/2022  11:12:00       53.732      -12.397       -4.835       52.171       33.802       26.351     2721.848     1142.573      694.386        0.381        0.228       55.144       18.906        0.118      334.028        3.730      873.370
01/27/2022  11:13:00      111.938       20.967      -28.768       60.636       62.121       36.542     3676.671     3859.043     1335.321        1.133        0.444      113.885       11.072        0.009      334.038        3.746      873.361
01/27/2022  11:14:00       67.093        6.195      -12.753       61.906       80.178       40.832     3832.396     6428.542     1667.216        0.831        0.596       67.379       38.814        0.332      334.273        4.138      873.353
01/27/2022  11:15:00      114.390       34.274      -15.882       59.345       74.438       40.701     3521.786     5541.030     1656.553        1.261        0.536      119.414       31.152        0.068      333.929        3.566      873.337
01/27/2022  11:16:00      125.060       63.390      -26.311       44.726       41.595       30.247     2000.400     1730.152      914.857        1.250        0.232      140.208       19.631        0.020      333.674        3.144      873.335
01/27/2022  11:17:00      105.044       73.214      -25.917       25.173       24.583       18.118      633.670      604.326      328.251        0.932        0.078      128.041       10.805        0.007      333.591        3.007      873.341
01/27/2022  11:18:00      114.250       70.939      -23.460       48.340       30.845       26.189     2336.771      951.436      685.858        1.130        0.199      134.482       15.554        0.013      334.018        3.714      873.385
01/27/2022  11:19:00      145.492       58.550      -30.381       46.825       43.655       30.658     2192.553     1905.753      939.921        1.528        0.252      156.831       19.487        0.015      333.933        3.572      873.371
01/27/2022  11:20:00      153.330       73.052      -33.913       42.324       30.100       19.662     1791.342      905.990      386.599        1.654        0.154      169.843       18.014        0.011      333.716        3.214      873.370
01/27/2022  11:21:00       37.357       23.998       -9.396       42.923       43.475       31.880     1842.354     1890.041     1016.315        0.340        0.237       44.401       21.667        0.238      334.192        4.003      873.368
01/27/2022  11:22:00       74.090       38.386      -14.522       40.910       32.995       23.903     1673.647     1088.656      571.336        0.525        0.167       83.444       23.299        0.078      333.856        3.446      873.354
01/27/2022  11:23:00      111.313       37.401      -25.356       37.881       37.190       23.768     1434.975     1383.065      564.908        0.891        0.169      117.428        7.741        0.004      333.894        3.509      873.342
01/27/2022  11:24:00       17.809       29.285       -4.806       52.218       51.501       32.006     2726.717     2652.312     1024.387        0.380        0.320       34.275       12.106        0.125      334.455        4.438      873.325
01/27/2022  11:25:00       20.979      -47.251      -17.988       66.731       54.068       36.253     4453.072     2923.332     1314.261        0.584        0.435       51.699       36.866        0.508      334.276        4.140      873.308
01/27/2022  11:26:00       52.327      -20.696       -3.516       52.811       45.103       35.842     2788.992     2034.236     1284.672        0.464        0.305       56.271       21.472        0.146      334.430        4.398      873.298
01/27/2022  11:27:00       82.997       75.528      -11.737       66.288       58.312       25.939     4394.048     3400.293      672.849        1.060        0.423      112.218       27.907        0.062      334.059        3.782      873.281
01/27/2022  11:28:00       77.405       56.690      -16.299       54.337       54.892       26.145     2952.547     3013.080      683.548        0.806        0.332       95.944       24.328        0.064      334.029        3.733      873.271
01/27/2022  11:29:00       86.806      -55.370      -30.219       81.503       74.787       46.692     6642.688     5593.101     2180.147        1.296        0.721      102.962       42.360        0.169      334.342        4.251      873.234
01/27/2022  11:30:00      115.310      -98.729      -33.709       57.271       51.191       29.632     3280.015     2620.483      878.053        1.548        0.339      151.802       27.175        0.032      333.831        3.404      873.236
01/27/2022  11:31:00        9.558      -42.006      -13.809       20.986       27.523       24.825      440.396      757.525      616.271        0.193        0.091       43.079       18.111        0.177      334.105        3.859      873.230
01/27/2022  11:32:00       13.249      -37.108      -17.147       33.510       50.245       23.895     1122.920     2524.584      570.983        0.303        0.211       39.402        8.052        0.042      334.548        4.593      873.206
01/27/2022  11:33:00       59.844      -76.230      -35.372       30.620       46.412       27.965      937.589     2154.055      782.045        0.726        0.194       96.913       21.922        0.051      334.150        3.932      873.188
01/27/2022  11:34:00       35.133      -22.477      -19.763       29.770       45.656       24.487      886.261     2084.445      599.619        0.285        0.179       41.708       22.760        0.298      334.167        3.960      873.182
01/27/2022  11:35:00      -23.462       25.857      -30.819       25.437       17.276       30.155      647.035      298.452      909.336        0.201        0.093       34.914        4.660        0.018      333.844        3.426      873.163
01/27/2022  11:36:00       25.268      -30.741       -5.948       45.660       59.880       31.743     2084.830     3585.624     1007.606        0.415        0.334       39.793       30.381        0.583      334.256        4.108      873.150
01/27/2022  11:37:00       32.520      -45.599      -10.614       82.224       47.709       24.640     6760.725     2276.133      607.126        0.644        0.482       56.007       30.766        0.302      334.156        3.942      873.135
01/27/2022  11:38:00       13.371       15.795      -23.970       41.236       57.537       34.527     1700.397     3310.525     1192.140        0.360        0.310       20.695       22.290        1.160      334.628        4.725      873.129
01/27/2022  11:39:00      132.830       55.866      -29.608       66.651       50.476       24.436     4442.399     2547.843      597.122        1.461        0.379      144.100       14.841        0.011      334.056        3.777      873.111
01/27/2022  11:40:00      168.185       68.098      -29.421       42.096       41.604       30.607     1772.075     1730.876      936.787        1.911        0.222      181.448       13.263        0.005      334.117        3.877      873.098
01/27/2022  11:41:00      100.561       64.335      -23.516       61.275       56.459       33.188     3754.587     3187.574     1101.423        1.142        0.402      119.380       27.804        0.054      334.467        4.459      873.085
01/27/2022  11:42:00      175.733       62.998      -35.345       45.483       43.515       25.633     2068.742     1893.563      657.049        2.036        0.231      186.684       12.619        0.005      334.236        4.075      873.082
01/27/2022  11:43:00       79.775        4.829      -17.419       39.268       50.238       29.766     1541.975     2523.878      886.020        0.582        0.248       79.921       17.478        0.048      334.199        4.013      873.074
01/27/2022  11:44:00       75.319       58.885      -11.437       39.864       35.847       19.168     1589.160     1284.996      367.415        0.626        0.162       95.605       12.797        0.018      334.132        3.903      873.066
01/27/2022  11:45:00      104.398      -27.153      -25.355       51.329       73.928       24.999     2634.661     5465.316      624.929        1.050        0.436      107.871        8.673        0.006      334.124        3.888      873.054
01/27/2022  11:46:00       40.206       24.508      -13.925       39.514       31.231       15.478     1561.361      975.390      239.567        0.259        0.139       47.087        7.601        0.026      334.353        4.270      873.029
01/27/2022  11:47:00      129.146       39.856      -23.983       40.420       46.446       34.004     1633.812     2157.269     1156.303        1.189        0.247      135.156       21.524        0.025      334.395        4.339      873.003
01/27/2022  11:48:00       92.886       15.475       -3.164       72.794       58.235       40.877     5299.011     3391.294     1670.966        0.962        0.518       94.166       46.044        0.239      334.467        4.459      872.988
01/27/2022  11:49:00       59.430       32.785      -15.184       54.960       38.439       18.749     3020.634     1477.575      351.534        0.484        0.242       67.873       11.316        0.028      334.707        4.858      872.956
01/27/2022  11:50:00      158.853       79.326      -29.668       42.166       50.694       26.630     1777.988     2569.868      709.143        1.873        0.253      177.558       14.608        0.007      334.191        3.998      872.929
01/27/2022  11:51:00      143.495      -11.118      -15.358       69.214       56.102       37.653     4790.540     3147.426     1417.712        1.515        0.468      143.925       30.560        0.045      334.476        4.473      872.902
01/27/2022  11:52:00       70.675       56.655      -30.616       32.922       22.854       24.551     1083.874      522.298      602.755        0.568        0.110       90.580       14.317        0.025      334.137        3.911      872.882
01/27/2022  11:53:00      193.865       81.486      -19.440       75.397       55.682       34.382     5684.703     3100.437     1182.122        2.728        0.498      210.294       29.017        0.019      334.381        4.313      872.850
01/27/2022  11:54:00      134.598       85.098      -35.726       43.590       37.715       33.324     1900.083     1422.443     1110.483        1.553        0.222      159.243       21.931        0.019      334.408        4.361      872.838
01/27/2022  11:55:00       62.051       -1.679      -22.353       43.578       51.993       31.935     1899.007     2703.220     1019.845        0.499        0.281       62.074       25.035        0.163      335.062        5.446      872.815
01/27/2022  11:56:00      119.534       20.990      -22.923       79.148       86.254       41.147     6264.459     7439.810     1693.074        1.532        0.770      121.363       22.068        0.033      334.816        5.036      872.795
01/27/2022  11:57:00       85.892      -91.650      -36.970       58.892       35.988       36.104     3468.221     1295.139     1303.484        1.160        0.303      125.607       36.189        0.083      334.239        4.081      872.779
01/27/2022  11:58:00       88.824       29.390      -11.475       72.317       57.647       33.744     5229.747     3323.139     1138.646        0.929        0.485       93.560       28.213        0.091      334.479        4.479      872.756
01/27/2022  11:59:00      176.785       74.471      -18.218       68.703       40.209       27.258     4720.155     1616.784      742.983        2.210        0.354      191.831       21.973        0.013      334.236        4.071      872.732
01/27/2022  12:00:00      157.350       81.446      -25.188       35.329       36.063       26.858     1248.103     1300.537      721.375        1.765        0.164      177.179       16.127        0.008      334.253        4.102      872.711
01/27/2022  12:01:00      145.289       70.481      -19.636       87.920       49.663       45.482     7729.996     2466.450     2068.628        1.936        0.613      161.482       47.173        0.085      334.511        4.530      872.684
01/27/2022  12:02:00       83.976       -8.420      -20.629       88.482       68.073       34.807     7829.129     4633.979     1211.493        1.061        0.684       84.397       26.218        0.097      335.032        5.395      872.659
01/27/2022  12:03:00       33.305      -29.721      -10.667       59.601       56.306       40.901     3552.316     3170.316     1672.886        0.525        0.420       44.638       31.330        0.493      335.394        5.999      872.645
01/27/2022  12:04:00       93.122       52.370       -3.528       92.534       72.683       37.433     8562.474     5282.776     1401.247        1.333        0.762      106.838       30.499        0.081      335.005        5.353      872.638
01/27/2022  12:05:00      153.831       63.524      -27.213       65.733       52.764       37.961     4320.792     2784.087     1441.056        1.849        0.427      166.430       20.004        0.014      334.788        4.991      872.616
01/27/2022  12:06:00      189.457       44.237      -21.876       76.303       36.952       27.216     5822.103     1365.466      740.697        2.313        0.396      194.553       14.014        0.005      334.339        4.243      872.596
01/27/2022  12:07:00      191.145       57.165      -22.582       76.737       50.745       33.037     5888.506     2575.045     1091.447        2.493        0.478      199.510       24.306        0.015      334.521        4.545      872.565
01/27/2022  12:08:00       76.785      -24.932      -17.803       77.078       83.237       38.221     5941.003     6928.373     1460.833        1.058        0.717       80.731       32.328        0.160      335.070        5.460      872.515
01/27/2022  12:09:00       70.693      -61.420      -16.048       47.739       95.457       39.633     2278.987     9112.075     1570.744        1.099        0.648       93.648       32.758        0.122      334.786        4.988      872.478
01/27/2022  12:10:00      138.158       63.434      -24.152       52.439       49.794       22.253     2749.877     2479.482      495.182        1.471        0.286      152.024       20.581        0.018      334.568        4.626      872.455
01/27/2022  12:11:00       80.197       61.858      -18.272       40.159       32.043       34.559     1612.745     1026.750     1194.342        0.721        0.192      101.281       19.925        0.039      334.781        4.979      872.433
01/27/2022  12:12:00       33.929       58.472       -9.743       50.867       31.605       27.512     2587.413      998.897      756.916        0.450        0.217       67.603       20.525        0.092      334.711        4.864      872.410
01/27/2022  12:13:00      100.853       30.017      -17.012       57.134       38.753       26.614     3264.262     1501.774      708.286        0.842        0.274      105.225        9.909        0.009      334.930        5.228      872.385
01/27/2022  12:14:00      190.021       52.250      -21.442       70.699       59.647       29.585     4998.297     3557.719      875.244        2.436        0.472      197.073       20.166        0.010      334.885        5.151      872.362
01/27/2022  12:15:00      206.565       67.965      -15.630       76.293       52.404       35.340     5820.579     2746.167     1248.932        2.867        0.491      217.459       27.514        0.016      334.774        4.964      872.350
01/27/2022  12:16:00      159.829       65.850      -25.457       89.424       52.426       27.887     7996.705     2748.443      777.678        2.102        0.576      172.863       19.450        0.013      334.888        5.155      872.344
01/27/2022  12:17:00       81.487       16.185      -28.597       80.260       65.448       44.961     6441.699     4283.447     2021.533        1.023        0.637       83.079       22.871        0.076      335.442        6.078      872.327
01/27/2022  12:18:00       80.366      -28.150      -23.989       64.598       61.713       42.547     4172.855     3808.489     1810.219        0.881        0.490       85.153       38.683        0.206      335.299        5.840      872.322
01/27/2022  12:19:00       59.032      -60.029      -28.508       34.401       65.265       33.595     1183.411     4259.492     1128.613        0.724        0.329       84.192       25.741        0.093      335.325        5.883      872.308
01/27/2022  12:20:00       27.489      -45.499      -19.465       59.606       56.453       42.078     3552.879     3186.897     1770.599        0.586        0.426       53.158       40.816        0.590      335.426        6.051      872.287
01/27/2022  12:21:00       23.822      -59.269      -32.416       62.017       79.011       37.297     3846.061     6242.711     1391.097        0.830        0.574       63.877       18.033        0.080      335.352        5.929      872.273
01/27/2022  12:22:00       37.769      -60.015      -17.903       44.722       63.407       37.004     2000.033     4020.443     1369.306        0.637        0.369       70.910       30.500        0.185      335.498        6.172      872.248
01/27/2022  12:23:00       70.440      -34.658        1.121       64.514       38.978       35.058     4162.086     1519.315     1229.029        0.654        0.346       78.505       34.120        0.189      335.303        5.848      872.227
01/27/2022  12:24:00      144.555       10.029      -13.341      115.160       65.216       46.792    13261.894     4253.085     2189.489        2.044        0.985      144.903       41.540        0.082      335.192        5.663      872.210
01/27/2022  12:25:00      210.426      130.174      -32.685       66.048       45.977       31.744     4362.347     2113.856     1007.710        3.489        0.374      247.436       18.922        0.006      334.787        4.987      872.207
01/27/2022  12:26:00       37.751       19.732        4.438       43.167       67.548       39.576     1863.354     4562.674     1566.227        0.491        0.400       42.596       35.574        0.697      335.295        5.833      872.197
01/27/2022  12:27:00       61.238       18.196      -14.749       68.033       48.225       23.427     4628.512     2325.656      548.812        0.590        0.375       63.884       27.341        0.183      335.119        5.541      872.178
01/27/2022  12:28:00       87.018       91.677      -24.501       78.332       42.537       34.426     6135.867     1809.426     1185.160        1.285        0.457      126.399       32.436        0.066      334.904        5.185      872.167
01/27/2022  12:29:00      210.023       36.265      -29.528       92.255      117.225       48.281     8510.925    13741.671     2331.071        3.544        1.229      213.131       38.863        0.033      335.191        5.658      872.120
01/27/2022  12:30:00      131.383       -7.674      -28.323       95.809       89.103       59.432     9179.416     7939.400     3532.130        1.938        1.033      131.607       46.021        0.122      335.399        6.006      872.108
01/27/2022  12:31:00      145.192       42.624      -25.311       67.878       60.009       30.896     4607.432     3601.134      954.564        1.635        0.458      151.319       29.923        0.039      335.154        5.598      872.104
01/27/2022  12:32:00       81.175       52.635        2.274       67.981       45.003       30.769     4621.457     2025.308      946.720        0.848        0.380       96.746       28.719        0.088      335.526        6.218      872.075
01/27/2022  12:33:00       29.267      -14.885       -9.768       49.978       79.012       39.612     2497.797     6242.972     1569.125        0.574        0.515       32.834       25.308        0.594      335.821        6.710      872.049
01/27/2022  12:34:00      147.177      -20.928       -5.459       98.803       67.563       48.105     9762.013     4564.698     2314.066        1.938        0.832      148.658       34.106        0.053      335.411        6.027      872.037
01/27/2022  12:35:00       94.845      -18.871      -17.364       47.368       74.687       34.671     2243.741     5578.115     1202.109        0.934        0.451       96.704       18.551        0.037      335.281        5.811      872.029
01/27/2022  12:36:00       46.575       -6.262       -5.580       52.340       45.821       31.949     2739.434     2099.545     1020.731        0.405        0.293       46.994       23.942        0.260      335.649        6.422      872.007
01/27/2022  12:37:00      112.779        9.546      -33.390       75.746       92.897       38.055     5737.421     8629.876     1448.189        1.487        0.791      113.183       34.214        0.091      335.434        6.065      871.988
01/27/2022  12:38:00      171.535       10.935      -24.178       74.061       71.575       41.605     5485.086     5122.980     1730.975        2.123        0.617      171.884       27.231        0.025      335.385        5.982      871.977
01/27/2022  12:39:00      159.774       12.259      -21.082       84.787       50.775       32.454     7188.782     2578.066     1053.230        1.847        0.541      160.243       34.964        0.048      335.449        6.090      871.966
01/27/2022  12:40:00       91.727       -9.962      -11.190       89.734       58.084       44.932     8052.267     3373.783     2018.897        1.104        0.672       92.266       33.631        0.133      335.634        6.398      871.946
01/27/2022  12:41:00       40.484       14.186       -9.539       66.598       91.035       56.171     4435.277     8287.326     3155.164        0.890        0.794       42.898       43.838        1.044      335.861        6.777      871.936
01/27/2022  12:42:00       54.377      -21.230      -30.878       79.175       79.674       49.701     6268.676     6347.935     2470.192        0.972        0.754       58.374       29.851        0.262      336.033        7.063      871.920
01/27/2022  12:43:00       63.941       17.933      -28.555       75.574      100.359       42.611     5711.361    10071.872     1815.686        1.141        0.880       66.408       37.439        0.318      336.144        7.248      871.910
01/27/2022  12:44:00      194.175       74.500      -16.757       98.686       80.940       49.822     9739.019     6551.215     2482.207        3.115        0.939      207.976       35.614        0.029      335.653        6.429      871.912
01/27/2022  12:45:00      163.708       23.467      -31.620       87.573       62.539       39.196     7669.007     3911.141     1536.317        2.073        0.656      165.381       23.861        0.021      335.844        6.746      871.921
01/27/2022  12:46:00      158.705       45.145      -17.452       62.502       65.783       41.692     3906.552     4327.449     1738.254        1.875        0.499      165.001       24.766        0.023      335.891        6.825      871.934
01/27/2022  12:47:00      199.520       92.272      -26.927       51.312       60.313       41.944     2632.935     3637.652     1759.322        2.854        0.401      219.824       27.763        0.016      335.449        6.087      871.933
01/27/2022  12:48:00       52.855       -2.315       -7.268       52.939       38.111       19.274     2802.505     1452.477      371.470        0.374        0.231       52.905       21.479        0.165      335.595        6.333      871.920
01/27/2022  12:49:00       35.427       46.108       -9.705       54.071       39.697       25.485     2923.703     1575.831      649.485        0.431        0.257       58.147       21.957        0.143      336.024        7.048      871.897
01/27/2022  12:50:00       -0.372       -2.177      -14.734       46.630       51.706       40.020     2174.340     2673.500     1601.640        0.333        0.322        2.208       24.326      121.353      336.236        7.404      871.872
01/27/2022  12:51:00       36.073        1.776      -12.511       49.182       54.398       35.900     2418.852     2959.120     1288.835        0.406        0.333       36.116       25.864        0.513      336.013        7.030      871.852
01/27/2022  12:52:00      123.259       54.231      -25.151       90.285       71.094       41.998     8151.293     5054.420     1763.870        1.687        0.748      134.662       21.930        0.027      336.085        7.150      871.838
01/27/2022  12:53:00      139.940       46.997      -31.007       89.593       91.728       46.566     8026.959     8414.116     2168.391        2.068        0.930      147.621       32.697        0.049      335.570        6.291      871.829
01/27/2022  12:54:00      270.280       15.896      -23.480       90.368       96.211       56.750     8166.285     9256.579     3220.607        4.725        1.032      270.747       35.152        0.017      335.462        6.108      871.806
01/27/2022  12:55:00      147.739       73.014      -23.126       52.077       67.391       34.315     2712.033     4541.487     1177.540        1.806        0.422      164.796       17.496        0.011      335.679        6.472      871.807
01/27/2022  12:56:00      152.281       32.165      -31.290       81.513      108.131       50.494     6644.399    11692.205     2549.595        2.304        1.044      155.641       28.185        0.033      336.014        7.030      871.780
01/27/2022  12:57:00      199.308       67.700      -29.578      101.273       90.828       46.076    10256.218     8249.703     2123.032        3.290        1.031      210.493       35.650        0.029      335.840        6.740      871.775
01/27/2022  12:58:00      109.215      -47.122      -16.817      125.448       97.485       66.216    15737.121     9503.237     4384.620        2.202        1.481      118.947       60.929        0.262      336.154        7.264      871.734
01/27/2022  12:59:00      155.195      -25.992       -6.144      111.517       61.180       68.369    12436.008     3743.024     4674.360        2.282        1.043      157.357       67.976        0.187      335.822        6.710      871.710
01/27/2022  13:00:00       33.854      -18.360      -45.026       67.243       69.203       48.581     4521.648     4789.096     2360.153        0.759        0.584       38.512       25.080        0.424      336.244        7.415      871.710
01/27/2022  13:01:00      129.315        8.925      -24.266      169.701       94.587       44.348    28798.319     8946.755     1966.705        2.854        1.986      129.623       21.716        0.028      336.275        7.467      871.705
01/27/2022  13:02:00      220.319       88.841      -20.180       95.175       64.175       41.566     9058.322     4118.410     1727.757        3.587        0.745      237.557       21.838        0.008      335.682        6.474      871.702
01/27/2022  13:03:00      115.374       53.289      -25.446       81.933       53.291       38.615     6712.948     2839.924     1491.133        1.392        0.552      127.086       27.822        0.048      336.115        7.200      871.702
01/27/2022  13:04:00      112.753      -19.073      -27.191      137.097       97.253       68.442    18795.581     9458.184     4684.341        2.337        1.647      114.355       41.823        0.134      336.271        7.460      871.684
01/27/2022  13:05:00      204.663        1.433      -29.587      106.065       92.766       61.051    11249.852     8605.540     3727.255        3.317        1.179      204.668       38.738        0.036      335.909        6.855      871.681
01/27/2022  13:06:00      157.020      -20.131      -16.407       93.067       77.089       53.015     8661.516     5942.713     2810.551        2.137        0.871      158.305       34.750        0.048      335.985        6.980      871.676
01/27/2022  13:07:00      212.436      -40.442      -24.479      126.846      112.505       84.405    16089.804    12657.314     7124.204        4.161        1.794      216.251       53.556        0.061      335.875        6.797      871.647
01/27/2022  13:08:00      145.993      -27.572      -14.467      120.128       67.636       70.976    14430.687     4574.679     5037.571        2.316        1.202      148.573       56.151        0.143      335.848        6.753      871.619
01/27/2022  13:09:00      176.609      -18.343      -25.383      110.368       74.816       55.854    12181.013     5597.487     3119.662        2.653        1.045      177.559       44.464        0.063      335.927        6.885      871.594
01/27/2022  13:10:00      223.743      -30.657      -22.852      139.503       93.359       70.971    19461.168     8715.991     5036.933        4.236        1.661      225.833       65.303        0.084      335.948        6.919      871.576
01/27/2022  13:11:00      161.761       14.286      -26.712      109.012       68.196       45.933    11883.642     4650.702     2109.821        2.286        0.932      162.391       40.926        0.064      336.114        7.197      871.570
01/27/2022  13:12:00      141.016       42.142        0.223      103.193       70.047       42.563    10648.787     4906.632     1811.614        1.951        0.868      147.179       29.735        0.041      336.199        7.338      871.548
01/27/2022  13:13:00      122.806      -11.156       -9.260      102.400       94.038       61.308    10485.702     8843.085     3758.627        1.919        1.154      123.311       48.991        0.158      336.403        7.679      871.538
01/27/2022  13:14:00      168.886     -103.260      -43.394       97.930       90.628       52.545     9590.356     8213.451     2761.026        3.081        1.028      197.953       31.941        0.026      336.183        7.311      871.528
01/27/2022  13:15:00       88.075     -159.697      -28.178       82.437      142.641       52.687     6795.807    20346.521     2775.910        3.198        1.496      182.374       33.802        0.034      336.121        7.207      871.515
01/27/2022  13:16:00       54.754      -89.979      -29.009       61.121       73.469       40.511     3735.823     5397.702     1641.142        1.135        0.539      105.329       28.517        0.073      336.378        7.638      871.528
01/27/2022  13:17:00       46.490       -3.346      -17.362       61.311       79.261       54.370     3758.982     6282.374     2956.092        0.773        0.650       46.610       45.318        0.945      336.704        8.185      871.513
01/27/2022  13:18:00      238.820      -23.480      -27.828      110.168       66.746       56.858    12137.009     4455.043     3232.779        3.909        0.991      239.972       58.149        0.059      335.866        6.783      871.509
01/27/2022  13:19:00       77.513      -26.219      -31.868       68.535       89.917       49.606     4697.100     8085.001     2460.727        1.147        0.762       81.828       43.439        0.282      336.346        7.586      871.534
01/27/2022  13:20:00       99.909      -75.938      -45.507      122.476      107.962       60.294    15000.379    11655.851     3635.328        2.405        1.515      125.493       68.140        0.295      336.314        7.532      871.540
01/27/2022  13:21:00       34.700        8.610      -26.035       92.677       83.483       55.273     8589.075     6969.399     3055.104        1.028        0.931       35.752       42.518        1.414      336.354        7.601      871.542
01/27/2022  13:22:00       41.131       -0.562      -18.260       56.369       70.733       60.570     3177.450     5003.154     3668.767        0.694        0.592       41.135       42.996        1.093      336.403        7.682      871.555
01/27/2022  13:23:00      154.479       11.136      -30.492      118.012       78.596       72.367    13926.788     6177.372     5236.956        2.512        1.267      154.880       37.348        0.058      335.935        6.897      871.531
01/27/2022  13:24:00      199.306      102.650      -25.713       85.500       51.884       39.866     7310.330     2691.966     1589.282        3.125        0.580      224.188       22.279        0.010      335.944        6.912      871.561
01/27/2022  13:25:00      156.143      -19.797      -26.851      120.944       87.722       47.096    14627.367     7695.075     2218.038        2.501        1.227      157.393       51.475        0.107      336.262        7.443      871.537
01/27/2022  13:26:00      180.093      -58.306      -61.880       87.905      114.830       65.672     7727.274    13185.857     4312.865        3.244        1.261      189.296       31.941        0.028      336.134        7.228      871.516
01/27/2022  13:27:00      110.347     -207.483      -59.860       59.159       83.761       42.910     3499.746     7015.880     1841.260        3.558        0.618      235.001       33.374        0.020      335.867        6.783      871.516
01/27/2022  13:28:00       84.573       18.075       -9.965       78.099       58.807       32.175     6099.496     3458.226     1035.247        0.908        0.530       86.483       33.921        0.154      336.342        7.579      871.522
01/27/2022  13:29:00       96.997       51.798      -16.786       41.836       42.945       22.339     1750.226     1844.263      499.047        0.823        0.205      109.961       14.003        0.016      335.984        6.983      871.503
01/27/2022  13:30:00       88.398      -26.851      -16.393       57.056       45.034       28.723     3255.378     2028.039      824.990        0.746        0.305       92.387       13.315        0.021      336.262        7.445      871.474
01/27/2022  13:31:00       84.168      -23.360      -18.261       87.103       71.184       51.957     7587.005     5067.188     2699.537        1.166        0.768       87.350       44.598        0.261      336.377        7.636      871.456
01/27/2022  13:32:00       66.428      -44.216      -32.226       92.803      120.938       80.065     8612.322    14625.932     6410.372        1.852        1.482       79.798       69.095        0.750      336.604        8.015      871.419
01/27/2022  13:33:00       78.846      -10.637      -39.810       77.687       58.473       58.218     6035.269     3419.107     3389.280        1.038        0.642       79.560       23.233        0.085      336.558        7.941      871.446
01/27/2022  13:34:00      207.391       -0.625       -9.567      110.603       77.742       42.742    12233.125     6043.848     1826.855        3.160        1.005      207.392       45.868        0.049      336.222        7.377      871.435
01/27/2022  13:35:00      289.003       77.172      -30.017      118.694       85.170       53.029    14088.282     7253.957     2812.111        5.726        1.208      299.129       48.514        0.026      336.161        7.273      871.441
01/27/2022  13:36:00      153.926       23.144       -9.249      134.279       91.088       56.257    18030.826     8297.073     3164.898        2.690        1.475      155.657       51.397        0.109      336.413        7.696      871.440
01/27/2022  13:37:00      108.443      -27.511      -34.351       80.406       99.744       61.798     6465.174     9948.783     3819.009        1.696        1.012      111.879       43.470        0.151      336.322        7.545      871.446
01/27/2022  13:38:00       98.460      -16.487      -12.000       69.843       48.762       36.089     4877.981     2377.698     1302.423        0.933        0.428       99.831       37.533        0.141      336.147        7.252      871.448
01/27/2022  13:39:00      234.218       67.863      -21.262       85.931       69.010       47.249     7384.146     4762.391     2232.494        3.714        0.719      243.851       28.050        0.013      336.257        7.434      871.444
01/27/2022  13:40:00      223.638       49.381      -27.303       87.719       58.725       34.182     7694.559     3448.625     1168.422        3.275        0.616      229.025       32.311        0.020      335.956        6.933      871.459
01/27/2022  13:41:00      204.092       50.882      -31.988       65.032       46.285       24.715     4229.186     2142.279      610.842        2.612        0.349      210.339       13.116        0.004      335.887        6.817      871.470
01/27/2022  13:42:00      131.532      -46.010      -17.812       81.258       36.770       37.181     6602.807     1352.004     1382.463        1.453        0.467      139.347       44.581        0.102      336.025        7.049      871.434
01/27/2022  13:43:00       56.116      -51.494      -20.587       57.233       53.587       34.854     3275.569     2871.514     1214.817        0.679        0.368       76.162       18.965        0.062      336.227        7.388      871.409
01/27/2022  13:44:00       14.445       25.273      -11.827       70.911       78.047       32.987     5028.356     6091.287     1088.119        0.660        0.610       29.109       24.146        0.688      336.537        7.905      871.393
01/27/2022  13:45:00       26.854       13.414       -9.173       45.935       79.270       33.524     2110.058     6283.749     1123.855        0.525        0.476       30.018       30.580        1.038      336.588        7.991      871.371
01/27/2022  13:46:00       97.588       41.403      -11.506      112.005       57.498       41.496    12545.216     3306.005     1721.933        1.447        0.879      106.007       40.020        0.143      336.516        7.868      871.360
01/27/2022  13:47:00      128.018       22.568      -12.465      133.010      105.837       56.134    17691.617    11201.386     3151.056        2.454        1.602      129.992       61.187        0.222      336.452        7.760      871.353
01/27/2022  13:48:00      112.209        5.554       -9.883       76.447       62.225       35.696     5844.150     3871.969     1274.233        1.185        0.550      112.346       21.144        0.035      336.170        7.291      871.343
01/27/2022  13:49:00      108.804       -6.721      -17.121      113.976      104.037       85.010    12990.446    10823.777     7226.730        2.160        1.552      109.011       56.018        0.264      336.392        7.661      871.323
01/27/2022  13:50:00      119.353      -31.543      -54.921       97.993       89.045       66.733     9602.637     7928.992     4453.353        2.012        1.099      123.451       61.491        0.248      336.214        7.364      871.326
01/27/2022  13:51:00       52.230       -5.545       -3.217       74.314       67.486       55.278     5522.574     4554.377     3055.635        0.795        0.657       52.523       43.051        0.672      336.376        7.636      871.326
01/27/2022  13:52:00      183.225       40.781      -18.674      143.891       87.278       47.789    20704.657     7617.391     2283.799        3.309        1.530      187.709       37.968        0.041      336.494        7.832      871.329
01/27/2022  13:53:00      322.136       21.122      -23.954       97.786      102.853       52.520     9562.030    10578.840     2758.375        6.384        1.145      322.828       42.215        0.017      336.372        7.626      871.326
01/27/2022  13:54:00      214.713      -15.484      -15.953      126.918      106.567       73.943    16108.059    11356.601     5467.564        3.976        1.647      215.270       65.230        0.092      336.519        7.873      871.321
01/27/2022  13:55:00       95.824      -28.595      -30.912      120.342       80.534       63.170    14482.270     6485.780     3990.510        1.795        1.248       99.999       52.317        0.274      336.598        8.006      871.320
01/27/2022  13:56:00      163.732      -46.976      -18.828      110.989       87.511       62.386    12318.508     7658.140     3892.030        2.661        1.193      170.338       58.740        0.119      336.381        7.643      871.303
01/27/2022  13:57:00      152.398        7.425      -16.731       74.842       64.834       36.745     5601.347     4203.510     1350.198        1.736        0.558      152.579       25.446        0.028      336.410        7.690      871.303
01/27/2022  13:58:00       66.845      -15.101       -5.668       87.808       65.214       44.022     7710.291     4252.889     1937.978        0.931        0.695       68.529       45.692        0.445      336.484        7.816      871.296
01/27/2022  13:59:00       48.862      -92.733      -30.838       40.719       50.937       30.557     1658.016     2594.625      933.740        0.856        0.259      104.819       21.982        0.044      336.517        7.872      871.311
01/27/2022  14:00:00       77.031      -13.283      -20.608       88.324       74.516       41.082     7801.168     5552.615     1687.723        1.079        0.752       78.168       36.361        0.216      336.611        8.030      871.318
01/27/2022  14:01:00       63.744      -11.470      -22.168       63.004       61.189       45.093     3969.463     3744.090     2033.391        0.721        0.487       64.768       29.904        0.213      336.702        8.182      871.318
01/27/2022  14:02:00      114.449     -131.160      -35.569      109.177      149.870       55.252    11919.589    22460.878     3052.784        3.449        1.872      174.073       42.148        0.059      336.536        7.901      871.294
01/27/2022  14:03:00      130.358     -235.266      -56.384       70.892       76.248       39.950     5025.743     5813.804     1595.983        4.398        0.622      268.967       28.249        0.011      336.437        7.735      871.307
01/27/2022  14:04:00      111.937     -187.074      -36.612       67.796       90.058       44.909     4596.306     8110.449     2016.852        3.179        0.736      218.006       40.016        0.034      336.486        7.817      871.315
01/27/2022  14:05:00       83.187      -48.326      -27.668       72.073       96.684       62.648     5194.491     9347.869     3924.732        1.424        0.923       96.205       48.751        0.257      336.657        8.106      871.319
01/27/2022  14:06:00      125.295      -85.882      -32.756       84.502       69.561       40.953     7140.558     4838.759     1677.167        1.890        0.683      151.903       29.191        0.037      336.374        7.631      871.317
01/27/2022  14:07:00       84.199      -14.620      -16.039       29.448       42.573       16.998      867.168     1812.500      288.937        0.526        0.148       85.459        9.877        0.013      336.315        7.534      871.323
01/27/2022  14:08:00       60.242       27.747      -20.369       43.067       38.806       21.937     1854.762     1505.921      481.226        0.433        0.192       66.325       15.072        0.052      336.588        7.991      871.317
01/27/2022  14:09:00       70.360     -101.478      -20.402       67.855       78.144       43.109     4604.273     6106.499     1858.370        1.411        0.628      123.484       38.138        0.095      336.620        8.043      871.295
01/27/2022  14:10:00      117.813      -58.221       -9.530      114.978       76.547       54.548    13219.958     5859.382     2975.480        1.970        1.103      131.414       39.116        0.089      336.534        7.899      871.276
01/27/2022  14:11:00      238.233       21.799      -24.511      153.212       80.687       54.001    23474.068     6510.463     2916.127        4.536        1.645      239.228       66.272        0.077      336.415        7.697      871.267
01/27/2022  14:12:00      148.393       20.822      -20.438      100.242       50.685       40.908    10048.531     2568.945     1673.437        1.858        0.715      149.846       29.976        0.040      336.549        7.924      871.288
01/27/2022  14:13:00      156.935       69.908      -21.524       52.679       31.263       23.760     2775.038      977.347      564.517        1.715        0.216      171.801       20.327        0.014      336.329        7.557      871.288
01/27/2022  14:14:00      168.086       87.268      -13.499       47.509       29.136       29.203     2257.151      848.902      852.819        2.000        0.198      189.390       18.605        0.010      336.335        7.568      871.278
01/27/2022  14:15:00      190.329        6.200      -10.931       64.367       73.459       39.712     4143.145     5396.225     1577.050        2.375        0.556      190.430       40.390        0.045      336.532        7.894      871.279
01/27/2022  14:16:00       95.825      -41.174      -27.995       87.712       93.482       61.032     7693.440     8738.794     3724.961        1.591        1.008      104.297       45.151        0.187      336.758        8.273      871.264
01/27/2022  14:17:00      105.206      -98.353      -24.184       63.917       90.742       41.134     4085.409     8234.088     1692.024        1.767        0.701      144.019       37.280        0.067      336.550        7.926      871.261
01/27/2022  14:18:00       20.322     -104.930       -8.254       28.120       47.077       22.745      790.751     2216.255      517.341        0.751        0.176      106.880       20.598        0.037      336.764        8.285      871.267
01/27/2022  14:19:00      156.504       26.159      -15.453       60.755       38.890       28.189     3691.198     1512.417      794.615        1.571        0.300      158.675       21.691        0.019      336.572        7.963      871.241
01/27/2022  14:20:00      249.506       84.662      -19.906       96.098       69.855       40.146     9234.790     4879.726     1611.682        4.277        0.786      263.478       37.837        0.021      336.582        7.976      871.217
01/27/2022  14:21:00      177.717       30.182       -9.312      107.766       81.582       58.051    11613.577     6655.591     3369.887        2.711        1.082      180.261       46.275        0.066      336.657        8.104      871.191
01/27/2022  14:22:00      239.979       59.657      -23.984       57.742       63.313       35.077     3334.183     4008.547     1230.363        3.515        0.429      247.283       24.654        0.010      336.548        7.918      871.187
01/27/2022  14:23:00      157.877       14.505       -8.422      102.103       70.639       42.252    10425.030     4989.856     1785.217        2.120        0.860      158.542       38.719        0.060      336.801        8.346      871.191
01/27/2022  14:24:00      139.883       18.754       -0.054      104.077       74.416       41.967    10831.929     5537.774     1761.225        1.902        0.907      141.135       29.743        0.044      336.848        8.423      871.186
01/27/2022  14:25:00      213.954       36.507       -7.435       69.401       59.043       38.377     4816.521     3486.109     1472.775        2.847        0.489      217.046       28.384        0.017      336.616        8.034      871.180
01/27/2022  14:26:00      142.560      -46.024      -14.712      118.204      106.872       72.392    13972.250    11421.645     5240.629        2.664        1.532      149.805       55.287        0.136      336.891        8.494      871.176
01/27/2022  14:27:00      179.736      -59.907      -33.584      111.635       75.699       38.833    12462.280     5730.278     1508.005        2.836        0.985      189.457       26.022        0.019      336.686        8.152      871.171
01/27/2022  14:28:00      201.086      -61.567      -46.823      115.084      107.516       62.466    13244.361    11559.653     3901.965        3.756        1.435      210.300       11.399        0.003      336.731        8.227      871.170
01/27/2022  14:29:00       79.474      -40.560      -19.041       80.844       63.873       46.224     6535.787     4079.783     2136.680        1.054        0.638       89.226       43.516        0.238      336.759        8.275      871.185
01/27/2022  14:30:00      -11.757      -55.633      -14.416       37.995       52.844       25.680     1443.653     2792.499      659.452        0.417        0.245       56.862       15.313        0.073      337.087        8.824      871.186
01/27/2022  14:31:00       67.496      -77.899      -25.649       58.654       81.385       41.682     3440.266     6623.461     1737.397        1.154        0.590      103.073       40.803        0.157      336.715        8.202      871.161
01/27/2022  14:32:00       91.525      -24.374      -45.486       56.546       91.866       32.905     3197.459     8439.402     1082.757        1.188        0.636       94.715       18.576        0.038      336.647        8.090      871.135
01/27/2022  14:33:00       -1.844      -24.939      -14.768       45.552       79.155       40.177     2075.023     6265.499     1614.175        0.540        0.498       25.007       45.297        3.281      336.889        8.494      871.127
01/27/2022  14:34:00       11.132      -42.812      -14.214       55.863       60.034       34.068     3120.625     3604.077     1160.617        0.502        0.394       44.235       31.877        0.519      336.970        8.629      871.124
01/27/2022  14:35:00       31.918      -58.226      -23.677       42.454       69.392       37.599     1802.315     4815.258     1413.665        0.650        0.402       66.401       20.330        0.094      337.111        8.866      871.114
01/27/2022  14:36:00       99.123      -54.679      -30.699      104.436      101.259       60.299    10906.836    10253.413     3635.941        1.927        1.240      113.204       43.131        0.145      336.986        8.655      871.108
01/27/2022  14:37:00       88.797      -58.756      -30.951       97.385      106.602       61.587     9483.918    11363.915     3792.946        1.846        1.232      106.476       53.077        0.248      336.937        8.571      871.090
01/27/2022  14:38:00      184.808      -41.225      -25.667      132.696      132.359       84.551    17608.165    17518.842     7148.827        3.939        2.114      189.350       71.371        0.142      336.713        8.198      871.081
01/27/2022  14:39:00      197.053      -75.395      -43.129      128.020      116.837       66.646    16389.180    13650.792     4441.739        4.042        1.724      210.984       57.976        0.076      336.674        8.132      871.083
01/27/2022  14:40:00      140.811      -40.173      -27.416       83.528       82.127       52.420     6976.909     6744.793     2747.853        1.933        0.823      146.430       29.542        0.041      336.618        8.039      871.103
01/27/2022  14:41:00       73.014      -38.078      -21.726       59.620       62.590       46.043     3554.581     3917.503     2119.985        0.842        0.480       82.347       20.786        0.064      336.678        8.142      871.099
01/27/2022  14:42:00       52.830      -40.460      -28.042       60.386       80.189       48.566     3646.468     6430.271     2358.668        0.882        0.622       66.543       38.440        0.334      336.821        8.380      871.093
01/27/2022  14:43:00      175.202       31.521      -15.575      106.679       87.545       42.491    11380.373     7664.155     1805.453        2.639        1.042      178.015       38.348        0.046      336.680        8.143      871.111
01/27/2022  14:44:00      120.031      -57.027      -34.387       76.522      101.310       49.878     5855.657    10263.649     2487.778        1.872        0.930      132.889       35.761        0.072      336.711        8.195      871.112
01/27/2022  14:45:00      218.430       53.484      -20.514      114.027       99.737       49.872    13002.053     9947.437     2487.254        3.821        1.272      224.882       46.067        0.042      336.744        8.249      871.132
01/27/2022  14:46:00      160.763       61.213      -21.912      102.236       88.064       50.038    10452.210     7755.348     2503.758        2.539        1.036      172.022       32.308        0.035      336.989        8.658      871.134
01/27/2022  14:47:00      173.484      -36.788      -18.443      169.515       88.047       85.276    28735.201     7752.353     7271.997        3.777        2.188      177.341       85.260        0.231      336.974        8.635      871.127
01/27/2022  14:48:00      187.539      -43.918      -29.487      153.666      111.293       84.960    23613.168    12386.232     7218.165        4.059        2.161      192.612       74.370        0.149      336.812        8.362      871.125
01/27/2022  14:49:00       40.859      -14.845      -17.277       72.959       63.409       46.588     5323.021     4020.700     2170.482        0.685        0.576       43.472       34.424        0.627      337.148        8.926      871.145
01/27/2022  14:50:00      143.332     -112.277      -37.492       96.968       99.038       64.043     9402.809     9808.502     4101.455        2.893        1.166      182.072       56.279        0.096      336.893        8.498      871.149
01/27/2022  14:51:00       72.520      -21.101      -12.502      105.280       80.683       40.454    11083.906     6509.680     1636.520        1.254        0.962       75.528       28.298        0.140      336.963        8.618      871.150
01/27/2022  14:52:00      203.061       16.073      -13.849      123.762       93.075       56.334    15317.084     8662.932     3173.495        3.441        1.358      203.696       55.355        0.074      336.940        8.577      871.143
01/27/2022  14:53:00      320.145       21.745      -24.988      134.199       90.803       62.995    18009.290     8245.195     3968.349        6.690        1.511      320.882       51.508        0.026      336.705        8.182      871.145
01/27/2022  14:54:00      231.602       69.206      -22.387       86.242       57.866       33.675     7437.742     3348.416     1133.984        3.542        0.596      241.720       29.965        0.015      336.500        7.840      871.161
01/27/2022  14:55:00      121.124       48.871       -6.692       92.268       74.938       39.774     8513.462     5615.705     1581.992        1.640        0.786      130.612       32.841        0.063      336.796        8.335      871.151
01/27/2022  14:56:00      188.885       41.119      -19.407       60.945       54.825       36.199     3714.294     3005.829     1310.372        2.289        0.402      193.309       32.452        0.028      336.657        8.105      871.150
01/27/2022  14:57:00      120.675      -17.523      -31.994       68.418       81.481       37.021     4681.019     6639.090     1370.548        1.429        0.635      121.941       28.599        0.055      336.871        8.463      871.144
01/27/2022  14:58:00      161.603      -19.640      -31.349      145.503      109.832       68.764    21171.213    12063.048     4728.468        3.272        1.898      162.792       29.433        0.033      336.932        8.562      871.135
01/27/2022  14:59:00      138.753      -21.499       -3.392      135.791      129.154      116.249    18439.177    16680.627    13513.826        3.417        2.432      140.408      100.596        0.513      336.753        8.265      871.077
01/27/2022  15:00:00      135.001      -14.197      -25.168      120.820       98.254       62.978    14597.422     9653.880     3966.254        2.363        1.411      135.746       50.572        0.139      336.925        8.552      871.091
01/27/2022  15:01:00      114.499      -56.010      -39.074       72.876       94.946       48.702     5310.931     9014.666     2371.909        1.723        0.835      127.464       27.749        0.047      336.987        8.656      871.107
01/27/2022  15:02:00      178.373      -79.840      -32.748       94.179      134.119       62.872     8869.763    17987.826     3952.926        3.503        1.541      195.426       42.970        0.048      336.955        8.601      871.112
01/27/2022  15:03:00      108.520      -92.528      -23.021       87.941      125.239       59.174     7733.573    15684.722     3501.505        2.389        1.346      142.612       44.849        0.099      337.100        8.844      871.121
01/27/2022  15:04:00      101.848       -8.517      -26.613       69.540       83.271       48.448     4835.771     6934.028     2347.229        1.263        0.706      102.203       29.848        0.085      337.058        8.774      871.120
01/27/2022  15:05:00      120.964      -77.368      -18.599       81.864      108.603       62.412     6701.666    11794.527     3895.216        2.167        1.120      143.590       49.620        0.119      337.047        8.755      871.122
01/27/2022  15:06:00      255.571      -32.297      -33.020      141.573      108.365       71.116    20043.047    11742.909     5057.484        5.214        1.842      257.604       71.891        0.078      336.907        8.520      871.111
01/27/2022  15:07:00      159.314      -71.804      -20.277      114.083      125.332       77.535    13015.031    15708.041     6011.712        3.283        1.737      174.747       80.261        0.211      336.968        8.623      871.121
01/27/2022  15:08:00      163.766       -1.870      -33.049      135.083      104.455       70.335    18247.505    10910.769     4947.061        3.100        1.705      163.777       57.521        0.123      336.955        8.604      871.134
01/27/2022  15:09:00      261.507       72.187      -15.117      131.618       85.127       46.868    17323.209     7246.663     2196.587        5.029        1.338      271.287       38.404        0.020      336.891        8.494      871.129
01/27/2022  15:10:00      206.239        7.513      -42.519      129.643       82.830       56.069    16807.366     6860.813     3143.789        3.560        1.341      206.376       22.685        0.012      337.025        8.718      871.127
01/27/2022  15:11:00      350.607        5.941      -28.575      162.828      116.150       52.332    26512.901    13490.736     2738.586        8.325        2.137      350.657       61.436        0.031      336.823        8.382      871.121
01/27/2022  15:12:00      247.943       54.118      -11.428      124.158       95.466       60.460    15415.159     9113.673     3655.389        4.635        1.409      253.781       54.225        0.046      336.909        8.525      871.118
01/27/2022  15:13:00      294.205      -25.617      -16.673      162.432      148.233       99.894    26384.088    21973.166     9978.755        7.290        2.917      295.318       82.626        0.078      336.709        8.189      871.106
01/27/2022  15:14:00      308.562      -73.981      -32.049      163.719      125.963       95.548    26804.062    15866.577     9129.378        7.675        2.590      317.307       84.353        0.071      336.627        8.053      871.089
01/27/2022  15:15:00      231.793      -39.104      -19.150      152.515      116.243       84.150    23260.915    13512.384     7081.284        4.973        2.193      235.069       86.989        0.137      336.742        8.245      871.093
01/27/2022  15:16:00      144.798      -35.222      -27.852      105.196      111.650       65.599    11066.106    12465.624     4303.193        2.540        1.392      149.020       55.317        0.138      336.851        8.427      871.119
01/27/2022  15:17:00      335.683      -31.242      -34.487      169.446      111.149       73.351    28711.907    12354.150     5380.298        8.064        2.322      337.133       50.999        0.023      336.727        8.220      871.089
01/27/2022  15:18:00      185.395      -51.115      -15.546      118.186       85.615       68.612    13968.010     7329.846     4707.666        3.161        1.300      192.313       56.684        0.087      336.841        8.411      871.089
01/27/2022  15:19:00      181.437      -27.478       -9.434      138.656       87.468       69.464    19225.457     7650.697     4825.242        3.273        1.585      183.506       69.168        0.142      336.788        8.322      871.068
01/27/2022  15:20:00      160.671      -26.859      -13.043      132.158       87.579       68.739    17465.637     7670.072     4725.011        2.828        1.493      162.901       66.349        0.166      336.823        8.381      871.083
01/27/2022  15:21:00      208.487      -79.455      -30.119      117.207       92.246       61.395    13737.560     8509.350     3769.320        3.835        1.301      223.114       57.235        0.066      336.869        8.458      871.089
01/27/2022  15:22:00      212.050      -34.112      -29.108      141.068       98.505       63.523    19900.188     9703.306     4035.169        4.030        1.682      214.776       54.691        0.065      336.847        8.421      871.113
01/27/2022  15:23:00      249.648      -60.844      -35.145      144.404      151.009       72.851    20852.463    22803.821     5307.231        5.810        2.448      256.955       57.235        0.050      336.777        8.302      871.117
01/27/2022  15:24:00      354.313       41.821      -29.453      140.912      146.839       71.340    19856.196    21561.818     5089.386        8.732        2.325      356.772       48.508        0.018      336.753        8.264      871.106
01/27/2022  15:25:00      373.025       50.083      -34.397      204.379      151.857       76.794    41770.834    23060.598     5897.392       10.677        3.536      376.372       62.668        0.028      336.638        8.072      871.096
01/27/2022  15:26:00      330.687      -20.120      -40.815      204.082      111.789       69.447    41649.640    12496.810     4822.817        8.519        2.948      331.298       28.495        0.007      336.714        8.199      871.112
01/27/2022  15:27:00      328.118      -16.225      -36.503      158.666      125.011       74.110    25174.749    15627.823     5492.218        7.777        2.315      328.518       79.170        0.058      336.660        8.109      871.119
01/27/2022  15:28:00      327.564      -41.068      -29.463      171.214      136.210       64.194    29314.243    18553.206     4120.831        8.091        2.599      330.128       68.965        0.044      336.599        8.007      871.135
01/27/2022  15:29:00      177.241      -89.137      -37.852      132.503      129.310       83.214    17557.045    16721.154     6924.609        4.099        2.060      198.393       58.057        0.086      336.622        8.046      871.158
01/27/2022  15:30:00      165.192        4.654      -12.883      139.665       91.433       57.403    19506.239     8359.942     3295.094        2.931        1.558      165.258       44.777        0.073      336.695        8.167      871.149
01/27/2022  15:31:00      173.364       21.461      -26.238      121.692       95.197       71.570    14808.970     9062.427     5122.296        3.009        1.450      174.687       40.962        0.055      336.783        8.315      871.172
01/27/2022  15:32:00      272.197       29.883      -16.323      135.782      112.384       51.147    18436.797    12630.052     2615.969        5.446        1.684      273.833       46.199        0.028      336.746        8.252      871.185
01/27/2022  15:33:00      245.558       10.633      -20.582      171.216      103.541       61.960    29315.065    10720.665     3838.990        5.235        2.194      245.788       55.812        0.052      336.676        8.136      871.178
01/27/2022  15:34:00      165.090       28.217      -16.447       86.926       77.369       49.354     7556.044     5986.004     2435.808        2.215        0.799      167.484       27.601        0.027      336.776        8.303      871.211
01/27/2022  15:35:00      229.486       21.934      -13.142      159.790      115.083       68.763    25532.827    13244.132     4728.328        4.840        2.175      230.532       69.958        0.092      336.796        8.335      871.215
01/27/2022  15:36:00      112.117       -2.097      -23.743      154.793      127.210       91.327    23960.894    16182.266     8340.539        3.080        2.424      112.137       76.210        0.462      336.724        8.216      871.210
01/27/2022  15:37:00      286.432       33.479      -24.968      189.542      125.329       65.076    35926.218    15707.350     4234.878        6.982        2.793      288.382       55.081        0.036      336.615        8.034      871.218
01/27/2022  15:38:00      339.014       45.225      -23.326      173.493      136.841       73.639    30099.739    18725.382     5422.693        8.587        2.712      342.017       52.748        0.024      336.550        7.923      871.220
01/27/2022  15:39:00      339.135       74.642      -25.013      157.821      131.527       74.475    24907.522    17299.398     5546.498        8.447        2.388      347.252       63.788        0.034      336.523        7.879      871.225
01/27/2022  15:40:00      426.623       45.301      -26.807      157.809      124.567       71.280    24903.525    15517.062     5080.871       11.513        2.275      429.021       63.157        0.022      336.592        7.996      871.218
01/27/2022  15:41:00      309.225       51.102      -27.669      158.044      134.433       81.784    24977.950    18072.110     6688.657        7.436        2.487      313.419       63.276        0.041      336.665        8.116      871.224
01/27/2022  15:42:00      288.412       16.628      -26.140      166.936      132.413       72.150    27867.697    17533.306     5205.633        6.736        2.530      288.891       31.262        0.012      336.609        8.025      871.234
01/27/2022  15:43:00      337.548       15.671      -12.697      146.366       96.471       72.179    21422.893     9306.710     5209.758        7.514        1.797      337.911       66.269        0.038      336.561        7.943      871.226
01/27/2022  15:44:00      308.347      -12.567      -23.225      143.467      108.256       82.716    20582.770    11719.393     6841.903        6.745        1.957      308.603       69.352        0.051      336.598        8.006      871.226
01/27/2022  15:45:00      280.194       26.322      -19.743      116.665       78.702       53.932    13610.827     6193.984     2908.644        5.115        1.136      281.427       28.289        0.010      336.714        8.198      871.239
01/27/2022  15:46:00      404.796       19.717      -28.116      109.575       91.089       52.370    12006.735     8297.184     2742.609        9.404        1.152      405.276       38.344        0.009      336.581        7.976      871.226
01/27/2022  15:47:00      251.111       47.502      -23.343      108.469       68.933       52.745    11765.600     4751.783     2782.039        4.258        0.965      255.565       38.441        0.023      336.658        8.105      871.236
01/27/2022  15:48:00      164.744       14.142      -26.837      137.495      102.654       56.527    18904.799    10537.826     3195.267        3.034        1.632      165.350       30.093        0.033      336.768        8.290      871.260
01/27/2022  15:49:00      251.685      -51.611      -48.453      165.894      134.114       85.749    27520.698    17986.594     7352.809        6.060        2.643      256.923       69.739        0.074      336.637        8.071      871.244
01/27/2022  15:50:00      289.016       27.111      -31.148      167.435      146.504       78.134    28034.405    21463.383     6104.955        7.041        2.780      290.285       60.613        0.044      336.582        7.979      871.252
01/27/2022  15:51:00      364.336       -0.594      -17.093      135.998      126.988       76.713    18495.392    16125.966     5884.941        8.676        2.025      364.336       50.640        0.019      336.547        7.918      871.257
01/27/2022  15:52:00      507.586       66.440      -29.481      156.111      133.396       68.319    24370.716    17794.411     4667.463       15.487        2.342      511.916       50.117        0.010      336.454        7.762      871.235
01/27/2022  15:53:00      338.498       28.863      -43.779      235.612      113.985       69.269    55513.150    12992.645     4798.154        9.530        3.665      339.726       41.907        0.015      336.488        7.821      871.225
01/27/2022  15:54:00      332.543       -2.471      -47.900      145.756      135.401       65.974    21244.837    18333.343     4352.526        7.840        2.197      332.552       44.646        0.018      336.496        7.833      871.254
01/27/2022  15:55:00      119.391       11.232      -35.522      123.192       88.699       52.981    15176.206     7867.468     2806.990        2.074        1.293      119.918       38.651        0.104      336.607        8.022      871.271
01/27/2022  15:56:00      205.728       26.053      -18.462      164.710      111.074       68.769    27129.469    12337.513     4729.149        4.376        2.210      207.371       59.941        0.084      336.592        7.998      871.277
01/27/2022  15:57:00      371.604      -10.138      -26.832      206.423      119.609       76.884    42610.556    14306.221     5911.074       10.086        3.141      371.742       81.201        0.048      336.512        7.859      871.263
01/27/2022  15:58:00      206.503      -47.686      -36.077      119.954      130.734       52.288    14389.019    17091.274     2734.009        4.021        1.711      211.937       45.783        0.047      336.562        7.947      871.278
01/27/2022  15:59:00      210.304      -16.775      -26.136      146.479       91.573       70.996    21456.237     8385.582     5040.428        4.003        1.744      210.972       63.773        0.091      336.594        8.000      871.279
01/27/2022  16:00:00       73.802       -3.536      -34.313      101.590       78.974       63.562    10320.606     6236.895     4040.098        1.361        1.030       73.887       51.490        0.486      336.624        8.052      871.266
01/27/2022  16:01:00      264.190       67.867      -22.981       84.937       81.941       50.627     7214.272     6714.366     2563.062        4.571        0.825      272.768       31.869        0.014      336.529        7.890      871.268
01/27/2022  16:02:00      293.726        1.783      -23.727      126.551      123.734       65.432    16015.244    15310.017     4281.369        6.122        1.780      293.732       47.894        0.027      336.553        7.930      871.256
01/27/2022  16:03:00      229.994       -7.776      -20.737       93.149       98.769       59.078     8676.749     9755.283     3490.176        3.765        1.096      230.126       38.200        0.028      336.543        7.913      871.249
01/27/2022  16:04:00      320.091       14.960      -30.218      147.739      122.994       79.775    21826.803    15127.480     6364.096        7.345        2.166      320.441       56.734        0.031      336.379        7.638      871.243
01/27/2022  16:05:00      254.956       42.494      -14.016      155.645      138.688       87.813    24225.338    19234.395     7711.108        5.908        2.559      258.473       69.678        0.073      336.384        7.645      871.253
01/27/2022  16:06:00      248.864       69.005      -17.829      154.091      113.793       77.552    23744.053    12948.902     6014.314        5.485        2.135      258.254       40.195        0.024      336.412        7.691      871.257
01/27/2022  16:07:00      370.291       76.854      -30.088      116.669       99.208       58.310    13611.583     9842.295     3400.105        8.539        1.343      378.182       39.744        0.011      336.368        7.618      871.260
01/27/2022  16:08:00      259.716       96.521      -30.443      158.066      113.974       60.359    24984.848    12989.988     3643.209        5.965        2.081      277.071       37.952        0.019      336.340        7.574      871.268
01/27/2022  16:09:00      307.791       28.123      -40.399      112.785      119.280       65.325    12720.457    14227.702     4267.379        6.418        1.561      309.073       30.497        0.010      336.331        7.557      871.270
01/27/2022  16:10:00      185.838       84.700      -28.587      156.565      113.586       55.738    24512.558    12901.855     3106.716        4.152        2.026      204.230       46.078        0.051      336.379        7.639      871.281
01/27/2022  16:11:00      361.202      108.163      -17.295      158.062      139.509       72.891    24983.452    19462.657     5313.131        9.610        2.488      377.050       62.512        0.027      336.290        7.490      871.280
01/27/2022  16:12:00      330.940       46.842      -41.583      129.841      118.114       70.242    16858.658    13950.850     4933.909        7.459        1.787      334.239       62.160        0.035      336.294        7.494      871.308
01/27/2022  16:13:00      288.663       67.300       -7.848      172.695      114.084       73.229    29823.491    13015.223     5362.438        6.805        2.410      296.405       80.220        0.073      336.287        7.485      871.318
01/27/2022  16:14:00      286.317       -5.454      -14.121      155.798      107.380       90.564    24273.022    11530.424     8201.759        6.310        2.200      286.369       82.834        0.084      336.306        7.516      871.322
01/27/2022  16:15:00      305.013       35.081      -35.782      179.082      104.031       70.332    32070.459    10822.468     4946.598        7.168        2.392      307.024       59.364        0.037      336.279        7.471      871.341
01/27/2022  16:16:00      368.131       87.718      -21.700      109.853       90.921       56.222    12067.722     8266.605     3160.932        8.359        1.175      378.438       46.425        0.015      336.242        7.409      871.351
01/27/2022  16:17:00      264.170       18.883      -23.961      229.497      116.670       94.399    52669.073    13611.969     8911.210        7.294        3.760      264.844       78.634        0.088      336.261        7.442      871.351
01/27/2022  16:18:00      354.040       30.131      -15.624      141.547      121.577       70.810    20035.679    14780.965     5014.053        8.316        1.992      355.320       60.235        0.029      336.205        7.348      871.370
01/27/2022  16:19:00      213.778      -16.554      -24.058      138.519      121.354       52.579    19187.569    14726.852     2764.566        4.161        1.834      214.418       36.479        0.029      336.239        7.405      871.368
01/27/2022  16:20:00      272.552       72.533      -12.966       86.145      109.092       56.200     7420.958    11901.040     3158.448        5.109        1.124      282.039       44.239        0.025      336.251        7.422      871.369
01/27/2022  16:21:00      328.370       98.113      -21.932      139.675      137.449       62.672    19509.214    18892.350     3927.731        8.012        2.116      342.714       53.176        0.024      336.173        7.294      871.380
01/27/2022  16:22:00      353.360       58.637      -44.940      146.632      143.442       71.116    21500.929    20575.600     5057.529        8.872        2.357      358.192       29.123        0.007      336.136        7.231      871.368
01/27/2022  16:23:00      361.171      106.214      -20.200      148.563      127.705       72.717    22070.862    16308.635     5287.701        9.289        2.183      376.465       73.016        0.038      336.112        7.191      871.377
01/27/2022  16:24:00      455.052      156.637      -29.049      207.414      128.901       70.865    43020.423    16615.410     5021.800       14.854        3.233      481.256       74.051        0.024      336.081        7.139      871.377
01/27/2022  16:25:00      443.049       80.987      -23.456      102.442      114.558       59.127    10494.337    13123.551     3495.948       11.525        1.356      450.390       56.752        0.016      336.105        7.178      871.379
01/27/2022  16:26:00      244.025       -8.555       -6.199      221.291      151.755      103.655    48969.633    23029.598    10744.312        7.119        4.137      244.175       91.231        0.140      336.108        7.186      871.385
01/27/2022  16:27:00      317.845      -20.258      -32.056      155.459      112.428       82.176    24167.421    12640.000     6752.857        7.300        2.178      318.489       53.106        0.028      336.093        7.160      871.400
01/27/2022  16:28:00      391.481       96.757      -28.304      164.840      111.322       69.421    27172.321    12392.513     4819.332       10.389        2.219      403.260       60.441        0.022      336.061        7.107      871.405
01/27/2022  16:29:00      190.073       34.997      -13.354      132.940      129.342       73.479    17673.051    16729.430     5399.109        3.866        1.990      193.268       58.657        0.092      336.071        7.121      871.419
01/27/2022  16:30:00      322.759      111.115      -32.623      108.737      106.920       50.926    11823.735    11431.802     2593.423        7.171        1.292      341.350       39.657        0.013      336.040        7.071      871.425
01/27/2022  16:31:00      231.710       70.452      -24.816      134.869      113.447       60.759    18189.660    12870.296     3691.695        4.700        1.738      242.184       48.641        0.040      336.052        7.092      871.439
01/27/2022  16:32:00      224.076       69.606       -2.635      159.368      132.025       74.980    25398.039    17430.672     5622.059        5.175        2.423      234.638       72.852        0.096      336.036        7.066      871.450
01/27/2022  16:33:00      343.520       77.585      -35.108      165.838      139.868       73.675    27502.181    19563.184     5427.950        8.887        2.625      352.172       54.396        0.024      336.006        7.014      871.445
01/27/2022  16:34:00      426.777       96.812      -50.524      163.429      134.427       67.939    26709.150    18070.652     4615.729       12.172        2.470      437.620       54.192        0.015      335.988        6.984      871.457
01/27/2022  16:35:00      312.800       50.220      -15.233      124.684      126.154       62.171    15546.063    15914.862     3865.264        6.796        1.766      316.806       63.880        0.041      335.987        6.982      871.486
01/27/2022  16:36:00      237.161       79.950      -25.210      203.588      131.672       65.111    41447.902    17337.600     4239.503        6.314        3.151      250.275       51.549        0.042      335.980        6.972      871.506
01/27/2022  16:37:00      374.088      138.325      -39.260      108.004       82.681       55.978    11664.953     6836.068     3133.527        9.112        1.082      398.843       41.485        0.011      335.953        6.927      871.525
01/27/2022  16:38:00      167.141      -11.372      -10.809      136.931       93.910       58.988    18750.001     8819.080     3479.531        2.961        1.552      167.527       51.368        0.094      335.973        6.962      871.555
01/27/2022  16:39:00      157.938       57.674       -9.534      130.669      105.296       65.643    17074.368    11087.292     4308.953        3.041        1.624      168.139       61.364        0.133      335.969        6.955      871.577
01/27/2022  16:40:00      331.834      120.249      -24.820      181.932      123.250       65.922    33099.433    15190.653     4345.755        8.890        2.632      352.950       71.145        0.041      335.879        6.803      871.592
01/27/2022  16:41:00      351.539       85.947      -25.216      130.694      118.067       70.617    17080.902    13939.716     4986.775        8.380        1.800      361.893       58.541        0.026      335.847        6.750      871.605
01/27/2022  16:42:00      220.287       14.707      -28.517      132.877       95.418       47.549    17656.184     9104.661     2260.934        3.928        1.451      220.777       44.768        0.041      335.859        6.773      871.628
01/27/2022  16:43:00      324.285       44.035      -23.727      151.813       99.482       67.399    23047.280     9896.652     4542.591        7.257        1.874      327.262       66.311        0.041      335.816        6.699      871.649
01/27/2022  16:44:00      163.843      -21.818      -36.393      109.916      113.037       50.566    12081.425    12777.447     2556.941        2.803        1.371      165.290       46.750        0.080      335.823        6.713      871.674
01/27/2022  16:45:00      182.541       46.401      -32.526      135.673      120.813       59.166    18407.259    14595.705     3500.575        3.651        1.825      188.347       55.070        0.085      335.767        6.618      871.676
01/27/2022  16:46:00      258.663       50.157      -20.785      126.152       83.155       54.260    15914.378     6914.827     2944.152        4.781        1.289      263.481       50.480        0.037      335.759        6.603      871.687
01/27/2022  16:47:00      192.118       52.575      -28.918       91.237      100.217       54.106     8324.250    10043.454     2927.489        3.090        1.065      199.181       48.223        0.059      335.766        6.615      871.706
01/27/2022  16:48:00      225.354        3.977      -38.438      152.284      110.742       79.343    23190.276    12263.871     6295.354        4.701        2.087      225.389       67.800        0.090      335.740        6.574      871.696
01/27/2022  16:49:00      259.144       15.165       -8.675      110.316       77.453       56.573    12169.584     5998.921     3200.555        4.441        1.068      259.587       47.719        0.034      335.716        6.532      871.720
01/27/2022  16:50:00      217.079       48.420      -21.375      132.219       89.926       56.924    17481.941     8086.634     3240.302        3.936        1.440      222.414       41.022        0.034      335.704        6.512      871.733
01/27/2022  16:51:00      165.495       74.519      -12.647       93.692       73.522       46.054     8778.130     5405.469     2120.989        2.470        0.815      181.498       39.921        0.048      335.740        6.571      871.758
01/27/2022  16:52:00      222.271       43.041      -27.601       90.074       70.973       35.840     8113.265     5037.109     1284.539        3.322        0.722      226.400       25.905        0.013      335.672        6.458      871.772
01/27/2022  16:53:00      267.241       44.602      -24.011      129.880      122.237       62.257    16868.889    14941.891     3875.925        5.483        1.784      270.937       48.800        0.032      335.623        6.376      871.779
01/27/2022  16:54:00      132.737      -12.386       -2.474      124.327       87.227       74.922    15457.081     7608.469     5613.259        2.322        1.434      133.314       68.532        0.264      335.622        6.376      871.784
01/27/2022  16:55:00      237.626       84.425       -3.728      141.688      106.693       58.374    20075.592    11383.397     3407.556        4.923        1.743      252.178       55.006        0.048      335.611        6.357      871.808
01/27/2022  16:56:00      177.037       19.392      -14.513       85.411      102.558       48.286     7295.047    10518.191     2331.580        2.603        1.007      178.096       31.651        0.032      335.584        6.313      871.827
01/27/2022  16:57:00      303.113       52.462      -10.843      116.656       77.284       55.665    13608.507     5972.876     3098.607        5.871        1.134      307.620       51.530        0.028      335.566        6.281      871.841
01/27/2022  16:58:00      231.362       23.901      -26.698      166.892      115.935       62.988    27853.083    13440.966     3967.447        5.003        2.263      232.593       31.936        0.019      335.569        6.287      871.853
01/27/2022  16:59:00      208.500        8.773       -6.950      175.871      103.207       85.662    30930.633    10651.713     7337.917        4.625        2.446      208.684       65.420        0.098      335.558        6.270      871.865
01/27/2022  17:00:00      106.959       10.636      -22.161      134.631       65.534       62.321    18125.558     4294.701     3883.896        1.917        1.315      107.487       43.346        0.163      335.512        6.194      871.873
01/27/2022  17:01:00      113.004      -28.052      -13.200      151.263      100.513       71.992    22880.574    10102.869     5182.797        2.594        1.908      116.434       59.771        0.264      335.500        6.174      871.885
01/27/2022  17:02:00      273.807       72.725      -24.917      133.960       94.885       51.819    17945.316     9003.203     2685.244        5.525        1.482      283.300       58.272        0.042      335.500        6.172      871.902
01/27/2022  17:03:00      184.674        1.801      -20.799      132.761      104.573       76.966    17625.610    10935.429     5923.789        3.451        1.724      184.683       69.839        0.143      335.457        6.102      871.911
01/27/2022  17:04:00      145.666       16.949      -31.723      106.426       90.101       62.176    11326.536     8118.110     3865.883        2.291        1.166      146.649       41.339        0.079      335.429        6.055      871.936
01/27/2022  17:05:00      262.808       83.981      -38.162      105.734       96.715       56.517    11179.664     9353.759     3194.140        5.065        1.186      275.901       42.134        0.023      335.423        6.043      871.924
01/27/2022  17:06:00      258.430       27.861      -25.025      125.641       92.004       53.459    15785.535     8464.733     2857.878        4.764        1.355      259.928       46.191        0.032      335.403        6.012      871.928
01/27/2022  17:07:00      240.494        7.588      -16.838      109.333       84.506       53.212    11953.613     7141.254     2831.501        4.005        1.096      240.614       38.231        0.025      335.357        5.935      871.922
01/27/2022  17:08:00      188.935       41.081      -17.457      111.467       86.516       50.438    12424.979     7485.093     2544.011        3.007        1.123      193.350       29.688        0.024      335.345        5.914      871.933
01/27/2022  17:09:00      204.743        3.191       -8.138      203.630      113.427       78.176    41465.135    12865.765     6111.455        5.121        3.022      204.768       83.067        0.165      335.333        5.895      871.933
01/27/2022  17:10:00      321.915       46.460      -14.387      153.112      118.231       78.837    23443.251    13978.477     6215.280        7.481        2.182      325.250       76.695        0.056      335.345        5.913      871.942
01/27/2022  17:11:00      326.119       33.809       -9.108      177.082      130.060       85.497    31358.000    16915.494     7309.672        8.157        2.779      327.867       79.841        0.059      335.326        5.882      871.952
01/27/2022  17:12:00      273.240       38.982      -19.279      123.059       93.830       59.912    15143.529     8804.139     3589.432        5.204        1.377      276.007       54.220        0.039      335.294        5.830      871.976
01/27/2022  17:13:00      200.863       68.893      -15.907      132.703      100.026       53.068    17610.186    10005.105     2816.265        3.788        1.522      212.349       36.334        0.029      335.268        5.785      871.992
01/27/2022  17:14:00      330.425      110.693      -28.440      129.662      104.097       59.202    16812.220    10836.082     3504.902        7.669        1.558      348.473       32.115        0.008      335.300        5.838      871.992
01/27/2022  17:15:00      236.751       42.933      -19.429      161.651       91.064       58.039    26131.027     8292.714     3368.530        4.802        1.890      240.612       64.795        0.073      335.304        5.846      871.984
01/27/2022  17:16:00      334.711       86.885      -33.906      141.958       94.905       64.559    20151.983     9006.916     4167.835        7.702        1.666      345.804       38.109        0.012      335.275        5.796      871.984
01/27/2022  17:17:00      110.345       27.628      -13.158      114.600       83.432       55.276    13133.266     6960.881     3055.409        1.813        1.157      113.751       42.532        0.140      335.203        5.679      872.005
01/27/2022  17:18:00      260.373       73.598      -15.307       87.340       79.803       49.215     7628.355     6368.561     2422.149        4.493        0.821      270.575       41.548        0.024      335.202        5.677      872.015
01/27/2022  17:19:00      306.197       84.086      -19.155      125.174       91.928       49.398    15668.610     8450.725     2440.132        6.387        1.328      317.533       51.303        0.026      335.198        5.669      872.030
01/27/2022  17:20:00      307.134       80.617      -27.864       85.804       95.087       51.649     7362.324     9041.557     2667.662        6.034        0.954      317.538       26.813        0.007      335.178        5.638      872.048
01/27/2022  17:21:00      255.875       56.532      -13.433      104.170       62.056       42.837    10851.398     3850.941     1835.024        4.269        0.827      262.045       40.430        0.024      335.148        5.588      872.066
01/27/2022  17:22:00      258.736       72.450      -20.719       98.357       80.423       38.625     9674.044     6467.810     1491.909        4.512        0.882      268.688       23.417        0.008      335.139        5.573      872.091
01/27/2022  17:23:00      367.637      125.768      -28.815      118.831       74.323       59.459    14120.793     5523.936     3535.376        8.749        1.159      388.554       47.922        0.015      335.189        5.654      872.098
01/27/2022  17:24:00      185.391       33.014      -17.433       68.167       54.872       35.830     4646.789     3010.980     1283.814        2.235        0.447      188.308       22.184        0.014      335.079        5.475      872.127
01/27/2022  17:25:00      197.708       43.430      -14.069      152.550       90.748       59.595    23271.526     8235.154     3551.535        3.811        1.753      202.422       46.462        0.053      335.082        5.478      872.142
01/27/2022  17:26:00      272.963      109.863      -26.737       90.982       87.572       41.106     8277.737     7668.864     1689.718        5.246        0.882      294.243       30.180        0.011      335.104        5.515      872.159
01/27/2022  17:27:00      423.934      126.113      -29.025      114.055       80.132       47.545    13008.542     6421.083     2260.540       10.907        1.085      442.294       37.011        0.007      335.135        5.563      872.153
01/27/2022  17:28:00      260.584       10.728      -23.221      104.101       95.613       61.779    10837.031     9141.907     3816.639        4.617        1.190      260.804       45.732        0.031      335.113        5.528      872.156
01/27/2022  17:29:00      224.869       18.290      -10.877       99.013       60.029       45.836     9803.560     3603.473     2100.926        3.326        0.775      225.611       49.008        0.047      335.052        5.428      872.158
01/27/2022  17:30:00      244.872       74.067      -14.440       95.751       61.057       32.022     9168.162     3727.916     1025.408        3.979        0.696      255.829       36.815        0.021      335.046        5.418      872.165
01/27/2022  17:31:00      199.342       16.335      -13.154       74.098       54.509       36.168     5490.530     2971.281     1308.112        2.497        0.488      200.010       31.519        0.025      334.966        5.284      872.163
01/27/2022  17:32:00      173.451       52.279      -10.841       96.028       75.708       44.246     9221.374     5731.680     1957.675        2.492        0.846      181.158       42.412        0.055      334.931        5.228      872.168
01/27/2022  17:33:00      249.341       59.407      -18.579       92.971       73.763       44.609     8643.621     5440.987     1989.997        4.106        0.804      256.320       38.335        0.022      334.952        5.261      872.164
01/27/2022  17:34:00      237.819       53.809      -23.057       89.766       59.268       36.835     8057.938     3512.747     1356.831        3.645        0.646      243.830       19.918        0.007      334.962        5.279      872.177
01/27/2022  17:35:00      197.439       43.261      -16.156       90.141       48.099       32.206     8125.416     2313.469     1037.254        2.629        0.574      202.123       24.940        0.015      334.905        5.183      872.187
01/27/2022  17:36:00      175.106       57.730       -2.664       84.930       58.524       38.083     7213.089     3425.090     1450.314        2.304        0.604      184.378       40.522        0.048      334.877        5.137      872.195
01/27/2022  17:37:00      228.467       60.213      -16.432       83.266       48.673       38.052     6933.234     2369.019     1447.929        3.342        0.538      236.268       28.221        0.014      334.904        5.181      872.199
01/27/2022  17:38:00      173.835       83.704      -19.159       63.833       42.290       34.492     4074.604     1788.415     1189.720        2.232        0.353      192.938       22.060        0.013      334.892        5.164      872.222
01/27/2022  17:39:00      171.673       24.873      -20.749      100.586       76.963       46.065    10117.507     5923.290     2121.945        2.434        0.908      173.465       38.121        0.048      334.946        5.253      872.227
01/27/2022  17:40:00      254.927       62.099      -21.781       79.316       72.487       36.666     6291.020     5254.344     1344.366        4.110        0.644      262.381       24.859        0.009      334.947        5.253      872.247
01/27/2022  17:41:00      269.433       32.578      -12.593      118.347       81.784       45.690    14005.954     6688.544     2087.587        4.829        1.139      271.395       47.284        0.030      334.922        5.213      872.259
01/27/2022  17:42:00      233.883       55.881      -17.828       49.997       45.275       31.225     2499.667     2049.785      975.031        3.183        0.276      240.466       27.322        0.013      334.847        5.086      872.265
01/27/2022  17:43:00      242.226       71.993      -15.954       65.234       60.619       36.810     4255.479     3674.668     1355.008        3.670        0.464      252.698       29.955        0.014      334.855        5.099      872.284
01/27/2022  17:44:00      235.316       64.066      -22.144       64.686       49.784       38.586     4184.219     2478.476     1488.861        3.406        0.408      243.881       17.579        0.005      334.839        5.073      872.290
01/27/2022  17:45:00      258.434       98.936      -19.716       73.864       69.618       40.389     5455.885     4846.684     1631.307        4.445        0.597      276.724       27.660        0.010      334.848        5.088      872.301
01/27/2022  17:46:00      245.781      121.459      -24.918       76.986       61.718       39.722     5926.799     3809.090     1577.851        4.355        0.566      274.155       26.391        0.009      334.849        5.089      872.317
01/27/2022  17:47:00      158.280       81.953      -14.201      112.171       75.262       38.326    12582.284     5664.398     1468.875        2.584        0.986      178.238       34.087        0.037      334.850        5.093      872.325
01/27/2022  17:48:00      167.262      101.473      -13.778       70.275       43.138       37.082     4938.609     1860.859     1375.096        2.332        0.409      195.636       27.532        0.020      334.867        5.120      872.343
01/27/2022  17:49:00      223.443      111.437      -13.387       73.011       53.875       39.398     5330.566     2902.500     1552.180        3.615        0.489      249.689       29.634        0.014      334.848        5.087      872.359
01/27/2022  17:50:00      209.918      104.802      -12.930       89.614       43.542       35.545     8030.743     1895.910     1263.461        3.320        0.560      234.626       24.618        0.011      334.855        5.101      872.366
01/27/2022  17:51:00      165.203      116.286      -25.022       65.702       45.419       35.230     4316.814     2062.851     1241.135        2.453        0.381      202.026       29.900        0.022      334.874        5.133      872.372
01/27/2022  17:52:00      205.046       99.860      -21.961       63.984       47.823       28.541     4094.007     2287.005      814.598        2.985        0.360      228.070       23.738        0.011      334.875        5.132      872.369
01/27/2022  17:53:00      228.151      115.577      -19.554       69.056       66.317       41.187     4768.705     4397.963     1696.339        3.833        0.543      255.756       35.478        0.019      334.860        5.107      872.375
01/27/2022  17:54:00       96.412       45.180      -15.221       57.620       55.758       33.874     3320.121     3108.901     1147.424        0.957        0.379      106.473       23.212        0.048      334.773        4.965      872.389
01/27/2022  17:55:00      170.613       84.872      -13.427       86.183       49.546       24.728     7427.492     2454.813      611.494        2.349        0.525      190.557       27.562        0.021      334.844        5.082      872.391
01/27/2022  17:56:00      132.552       88.300      -12.954       62.594       38.632       28.058     3918.011     1492.438      787.244        1.587        0.310      159.270       19.123        0.014      334.851        5.096      872.403
01/27/2022  17:57:00      168.559       86.008      -21.544       59.953       46.730       31.155     3594.319     2183.721      970.637        2.151        0.337      189.234       25.301        0.018      334.804        5.018      872.421
01/27/2022  17:58:00      115.188      102.699       -9.274       65.200       45.787       38.854     4251.010     2096.464     1509.598        1.588        0.393      154.323       29.107        0.036      334.830        5.062      872.436
01/27/2022  17:59:00      140.946      101.723      -21.473       81.865       40.479       31.370     6701.954     1638.523      984.068        2.000        0.466      173.820       33.974        0.038      334.860        5.111      872.457
01/27/2022  18:00:00      121.579       76.002      -12.849       56.992       43.991       28.342     3248.104     1935.203      803.288        1.335        0.299      143.380       24.611        0.029      334.824        5.052      872.464
01/27/2022  18:01:00      104.216      108.220      -25.639       46.457       46.101       32.885     2158.267     2125.272     1081.417        1.430        0.268      150.242       12.530        0.007      334.851        5.097      872.469
01/27/2022  18:02:00      112.314       63.542       -7.776       69.709       39.260       25.715     4859.326     1541.353      661.279        1.189        0.353      129.043       29.138        0.051      334.838        5.074      872.471
01/27/2022  18:03:00      116.717       93.399      -23.887       71.193       41.291       34.960     5068.451     1704.959     1222.170        1.545        0.400      149.487       24.324        0.026      334.823        5.050      872.481
01/27/2022  18:04:00      120.781       79.020      -16.418       35.710       25.599       21.288     1275.170      655.293      453.193        1.174        0.119      144.334       13.853        0.009      334.812        5.032      872.506
01/27/2022  18:05:00       34.250       40.078       -0.709       32.983       24.769       21.517     1087.887      613.484      462.980        0.247        0.108       52.719       19.626        0.139      334.807        5.024      872.520
01/27/2022  18:06:00       64.711       91.962      -18.312       46.064       50.969       20.872     2121.932     2597.812      435.622        0.907        0.258      112.448       27.549        0.060      334.911        5.198      872.526
01/27/2022  18:07:00      109.769      143.918      -26.152       51.772       67.393       30.145     2680.289     4541.753      908.738        2.079        0.407      181.002       27.559        0.023      334.907        5.189      872.544
01/27/2022  18:08:00       98.385       76.014      -17.481       40.359       29.488       24.592     1628.860      869.548      604.755        0.943        0.155      124.330       17.910        0.021      334.833        5.068      872.557
01/27/2022  18:09:00       26.528       78.752      -11.160       27.650       32.841       21.464      764.495     1078.520      460.722        0.467        0.115       83.100       11.656        0.020      334.911        5.197      872.576
01/27/2022  18:10:00        1.029       76.510       -9.722       39.998       44.753       23.607     1599.820     2002.842      557.294        0.505        0.208       76.517        5.759        0.006      334.993        5.332      872.583
01/27/2022  18:11:00        6.726      108.947      -10.334       33.143       47.543       30.284     1098.479     2260.330      917.091        0.815        0.214      109.154       22.624        0.043      334.898        5.176      872.607
01/27/2022  18:12:00       14.636      124.116      -23.967       48.611       39.895       28.510     2363.030     1591.605      812.845        1.048        0.238      124.976       22.070        0.031      335.018        5.375      872.622
01/27/2022  18:13:00        2.012      109.498      -22.600       56.155       41.545       24.675     3153.373     1725.981      608.844        0.900        0.274      109.516        9.482        0.007      335.036        5.404      872.631
01/27/2022  18:14:00      -39.581       83.160      -16.391       41.485       42.660       25.364     1721.037     1819.917      643.335        0.647        0.209       92.099       21.420        0.054      335.121        5.545      872.648
01/27/2022  18:15:00       42.402      110.941      -23.143       53.867       54.525       24.489     2901.659     2972.976      599.707        1.056        0.324      118.768       20.767        0.031      334.994        5.334      872.663
01/27/2022  18:16:00       56.243       95.985      -10.892       31.823       50.668       19.388     1012.722     2567.207      375.884        0.822        0.198      111.249       17.808        0.026      334.868        5.127      872.683
01/27/2022  18:17:00      -24.408       29.154      -20.284       40.035       39.965       26.008     1602.818     1597.225      676.406        0.287        0.194       38.022       16.321        0.184      334.879        5.143      872.672
01/27/2022  18:18:00      -80.943       38.294      -17.322       43.770       37.179       22.432     1915.778     1382.314      503.192        0.606        0.190       89.545       16.327        0.033      334.888        5.159      872.672
01/27/2022  18:19:00      -89.223       44.734      -13.661       42.544       27.624       23.396     1809.991      763.068      547.369        0.663        0.156       99.809       20.963        0.044      334.923        5.216      872.683
01/27/2022  18:20:00      -97.507       47.171      -24.886       48.294       32.634       24.102     2332.338     1064.964      580.914        0.816        0.199      108.318       23.976        0.049      334.864        5.120      872.687
01/27/2022  18:21:00      -84.198       44.919      -20.603       42.077       38.413       23.623     1770.480     1475.596      558.049        0.667        0.190       95.430       14.421        0.023      334.911        5.197      872.703
01/27/2022  18:22:00      -53.091       71.030      -12.490       38.343       31.776       24.728     1470.176     1009.714      611.498        0.556        0.155       88.679       17.774        0.040      335.148        5.589      872.715
01/27/2022  18:23:00     -136.862       63.105       -9.349       54.134       30.011       28.101     2930.473      900.661      789.675        1.371        0.231      150.710       28.398        0.036      334.850        5.096      872.721
01/27/2022  18:24:00     -158.353       36.789      -21.765       75.513       40.705       35.668     5702.166     1656.919     1272.187        1.777        0.432      162.570       30.867        0.036      334.821        5.044      872.720
01/27/2022  18:25:00      -51.880       31.285       -9.640       56.511       47.987       37.067     3193.519     2302.743     1373.952        0.532        0.344       60.583       22.404        0.137      334.720        4.880      872.734
01/27/2022  18:26:00      -45.801        6.925       -4.414       59.087       35.596       39.506     3491.263     1267.042     1560.686        0.424        0.316       46.322       32.449        0.491      334.725        4.886      872.733
01/27/2022  18:27:00      -80.210       14.179      -15.969       63.722       35.021       25.193     4060.454     1226.440      634.664        0.640        0.296       81.453       13.663        0.028      334.751        4.931      872.736
01/27/2022  18:28:00      -79.303       45.232      -12.145       62.892       49.634       30.307     3955.454     2463.510      918.524        0.791        0.367       91.295       31.385        0.118      334.687        4.824      872.759
01/27/2022  18:29:00     -115.731       49.868      -16.598       57.613       37.590       36.404     3319.205     1413.025     1325.267        1.111        0.303      126.018       10.793        0.007      334.905        5.186      872.786
01/27/2022  18:30:00     -142.719       77.055      -19.475       25.672       21.737       20.659      659.060      472.498      426.808        1.412        0.078      162.192        5.515        0.001      334.876        5.140      872.814
01/27/2022  18:31:00     -131.417       40.828      -21.855       29.332       21.069       23.421      860.356      443.889      548.560        1.063        0.093      137.613       16.546        0.014      334.921        5.213      872.830
01/27/2022  18:32:00     -126.499       38.880      -31.718       21.015       20.503       17.676      441.638      420.384      312.439        0.985        0.059      132.339        6.597        0.002      334.805        5.020      872.836
01/27/2022  18:33:00     -113.214       36.365      -25.416       49.860       28.134       22.204     2486.012      791.550      492.996        0.928        0.189      118.911       17.568        0.022      334.815        5.037      872.838
01/27/2022  18:34:00     -138.087       38.988      -19.867       41.904       25.999       19.575     1755.969      675.926      383.162        1.190        0.141      143.485       16.875        0.014      334.856        5.105      872.860
01/27/2022  18:35:00     -110.665       49.356      -16.032       37.272       35.806       19.838     1389.215     1282.034      393.541        0.900        0.153      121.172       14.986        0.015      335.000        5.345      872.896
01/27/2022  18:36:00      -71.484       20.243        1.577       59.046       30.360       27.649     3486.422      921.719      764.455        0.535        0.259       74.295       32.197        0.188      334.943        5.252      872.928
01/27/2022  18:37:00      -54.217       25.508      -11.612       37.085       22.928       16.507     1375.324      525.680      272.465        0.295        0.109       59.918       14.770        0.061      335.007        5.356      872.959
01/27/2022  18:38:00      -27.124       42.367      -11.306       27.795       24.293       20.160      772.558      590.145      406.444        0.221        0.088       50.306       11.202        0.050      334.974        5.301      872.968
01/27/2022  18:39:00      -27.575       41.607      -10.227       24.989       28.531       19.153      624.459      814.034      366.843        0.220        0.090       49.915        8.313        0.028      335.029        5.392      872.972
01/27/2022  18:40:00        3.146       51.417       -4.597       36.937       32.599       19.633     1364.338     1062.697      385.469        0.274        0.141       51.513       12.397        0.058      334.826        5.055      872.978
01/27/2022  18:41:00       65.118       60.425      -15.386       26.135       28.259       23.823      683.044      798.590      567.540        0.509        0.102       88.834       16.989        0.037      334.930        5.229      872.984
01/27/2022  18:42:00       91.187       24.664       -3.607       48.544       32.482       25.990     2356.542     1055.066      675.492        0.651        0.204       94.464       22.309        0.056      334.764        4.953      872.991
01/27/2022  18:43:00      150.447       44.051       -5.866       78.435       29.250       24.729     6152.096      855.546      611.506        1.611        0.381      156.764       28.099        0.032      334.632        4.731      872.996
01/27/2022  18:44:00       89.544       38.382      -32.684       69.236       43.442       30.895     4793.624     1887.218      954.518        0.910        0.382       97.423       27.395        0.079      334.794        5.001      872.990
01/27/2022  18:45:00       73.558      -13.104      -19.849       42.022       34.852       18.444     1765.807     1214.639      340.176        0.465        0.166       74.716       18.463        0.061      334.834        5.069      872.988
01/27/2022  18:46:00      117.937       52.434      -15.135       41.658       45.012       20.259     1735.351     2026.123      410.428        1.053        0.209      129.068       18.155        0.020      334.823        5.050      872.992
01/27/2022  18:47:00       13.514      -26.149       -9.990       21.573       25.473       16.164      465.380      648.869      261.277        0.117        0.069       29.435       10.662        0.131      334.774        4.969      873.009
01/27/2022  18:48:00      -10.909       51.555      -11.788       38.907       25.750       19.256     1513.761      663.047      370.788        0.273        0.127       52.696       14.432        0.075      334.770        4.962      873.005
01/27/2022  18:49:00      -37.940       69.261       -8.881       51.275       31.423       21.011     2629.105      987.434      441.445        0.519        0.203       78.972       14.387        0.033      334.872        5.132      873.012
01/27/2022  18:50:00       62.613       74.619      -11.727       30.651       26.255       20.660      939.501      689.322      426.847        0.584        0.103       97.408       17.388        0.032      334.681        4.813      873.039
01/27/2022  18:51:00       21.160       93.209       -6.908       40.914       24.928       20.618     1673.962      621.403      425.122        0.595        0.136       95.580       10.517        0.012      334.897        5.173      873.026
01/27/2022  18:52:00       29.579      111.585      -17.046       39.437       31.050       22.962     1555.263      964.088      527.272        0.833        0.152      115.439        9.586        0.007      334.973        5.300      873.026
01/27/2022  18:53:00       63.585      119.271      -21.577       32.467       44.078       25.922     1054.111     1942.854      671.928        1.120        0.183      135.161       16.090        0.014      334.923        5.218      873.030
01/27/2022  18:54:00        5.304       87.280      -17.996       33.304       40.020       22.975     1109.181     1601.620      527.867        0.560        0.162       87.441       20.850        0.057      334.834        5.070      873.024
01/27/2022  18:55:00       17.727      130.324      -16.537       37.189       54.826       21.478     1383.018     3005.914      461.313        1.121        0.243      131.524       24.543        0.035      334.728        4.890      873.018
01/27/2022  18:56:00       84.448      135.928      -22.082       52.799       34.996       27.744     2787.757     1224.721      769.749        1.544        0.239      160.025       20.011        0.016      334.674        4.801      873.028
01/27/2022  18:57:00       77.668      114.911      -26.473       56.077       35.295       24.684     3144.677     1245.744      609.315        1.247        0.250      138.697       18.564        0.018      334.736        4.906      873.038
01/27/2022  18:58:00       54.870      146.984      -20.757       25.959       27.637       18.594      673.888      763.801      345.750        1.341        0.089      156.891        8.670        0.003      334.805        5.021      873.041
01/27/2022  18:59:00       60.507      150.365      -23.174       27.361       38.369       20.815      748.620     1472.207      433.261        1.473        0.133      162.082       12.648        0.006      334.776        4.973      873.050
01/27/2022  19:00:00       86.205       88.743      -16.830       42.633       48.042       23.193     1817.590     2308.044      537.909        1.013        0.233      123.720       17.900        0.021      334.578        4.641      873.063
01/27/2022  19:01:00       58.831       90.886      -13.256       25.433       28.960       19.458      646.840      838.707      378.605        0.688        0.093      108.265       15.735        0.021      334.627        4.724      873.084
01/27/2022  19:02:00       48.441       95.390       -8.361       33.302       30.187       21.043     1108.996      911.254      442.791        0.699        0.123      106.985       16.545        0.024      334.609        4.693      873.104
01/27/2022  19:03:00       51.995       71.158      -10.224       33.692       51.358       27.361     1135.173     2637.674      748.618        0.620        0.226       88.130       18.796        0.045      334.647        4.755      873.118
01/27/2022  19:04:00       53.912       71.000      -12.645       33.599       41.950       19.734     1128.861     1759.784      389.422        0.569        0.164       89.149       14.922        0.028      334.580        4.646      873.132
01/27/2022  19:05:00       36.478       32.141      -12.057       27.157       20.488       23.533      737.493      419.763      553.801        0.211        0.086       48.618       13.550        0.078      334.513        4.533      873.151
01/27/2022  19:06:00       18.887       40.919      -10.681       12.562       15.731       14.821      157.800      247.464      219.652        0.138        0.031       45.067        8.751        0.038      334.429        4.395      873.160
01/27/2022  19:07:00        9.238       29.419       -8.934       13.043       16.457       14.258      170.123      270.826      203.292        0.084        0.032       30.836        9.475        0.094      334.462        4.447      873.166
01/27/2022  19:08:00       17.396        7.755       -1.867       25.165       17.295       15.332      633.297      299.106      235.060        0.077        0.058       19.046        6.426        0.114      334.458        4.442      873.184
01/27/2022  19:09:00      106.446       72.079      -26.203       38.650       38.847       33.493     1493.795     1509.106     1121.787        1.067        0.206      128.554       18.905        0.022      334.445        4.421      873.201
01/27/2022  19:10:00       72.288       12.417      -14.777       29.861       32.049       19.647      891.667     1027.128      386.019        0.395        0.115       73.347        7.094        0.009      334.339        4.246      873.215
01/27/2022  19:11:00       27.140       41.978       -2.210       30.406       33.103       22.127      924.530     1095.829      489.625        0.251        0.125       49.987       15.082        0.091      334.296        4.176      873.230
01/27/2022  19:12:00       78.578       35.726       -8.785       28.720       21.582       13.864      824.819      465.781      192.201        0.451        0.074       86.318        8.408        0.009      334.290        4.165      873.252
01/27/2022  19:13:00       24.014       12.127       -8.138       18.313       19.983       11.539      335.349      399.326      133.141        0.083        0.043       26.902       11.480        0.182      334.295        4.174      873.250
01/27/2022  19:14:00       50.351       28.066       -8.593       16.289       17.208       14.635      265.337      296.099      214.196        0.209        0.039       57.644       11.183        0.038      334.324        4.221      873.263
01/27/2022  19:15:00       35.920       53.709      -12.005       18.149       37.057       15.980      329.384     1373.214      255.370        0.314        0.098       64.613       12.331        0.036      334.350        4.264      873.275
01/27/2022  19:16:00       34.221       82.270       -8.575       34.456       21.766       14.020     1187.234      473.779      196.562        0.493        0.093       89.103        7.261        0.007      334.453        4.434      873.286
01/27/2022  19:17:00       30.832       62.335       -4.250       18.956       20.723       14.560      359.323      429.433      211.980        0.293        0.050       69.543        8.943        0.017      334.365        4.290      873.304
01/27/2022  19:18:00       26.265       74.187      -15.631       24.232       20.901       21.667      587.172      436.870      469.466        0.397        0.075       78.699       11.855        0.023      334.440        4.413      873.311
01/27/2022  19:19:00       57.417       65.736       -4.144       44.644       37.703       19.192     1993.124     1421.506      368.342        0.571        0.189       87.281       20.864        0.057      334.301        4.182      873.329
01/27/2022  19:20:00       62.753       88.341      -10.049       22.462       27.614       14.121      504.551      762.539      199.403        0.665        0.073      108.360       12.892        0.014      334.284        4.154      873.338
01/27/2022  19:21:00       41.597      116.722      -16.072       20.748       27.041       19.224      430.460      731.232      369.566        0.857        0.077      123.913        4.192        0.001      334.262        4.117      873.343
01/27/2022  19:22:00       51.041      121.974      -17.209       33.511       27.483       24.109     1122.965      755.318      581.240        1.012        0.123      132.223        7.062        0.003      334.275        4.140      873.346
01/27/2022  19:23:00       72.033       98.557      -10.544       30.591       27.509       21.463      935.811      756.746      460.664        0.858        0.108      122.075       16.887        0.019      334.164        3.956      873.358
01/27/2022  19:24:00       81.266       58.888      -15.901       27.405       30.653       15.659      751.017      939.618      245.202        0.613        0.097      100.359       12.769        0.016      334.084        3.824      873.376
01/27/2022  19:25:00       44.952       33.717       -3.155       27.039       13.486       12.991      731.121      181.884      168.772        0.212        0.054       56.192       13.433        0.057      333.983        3.658      873.385
01/27/2022  19:26:00       69.911       38.879      -11.800       18.069       23.576       16.719      326.478      555.828      279.522        0.385        0.058       79.994        7.359        0.008      334.076        3.809      873.383
01/27/2022  19:27:00       76.814       58.332      -11.355       42.471       25.434       25.756     1803.747      646.913      663.360        0.627        0.156       96.452       25.612        0.071      334.062        3.786      873.391
01/27/2022  19:28:00      100.355       59.668      -10.833       34.653       22.171       16.096     1200.831      491.561      259.070        0.785        0.098      116.754        7.261        0.004      334.169        3.963      873.398
01/27/2022  19:29:00       86.955       39.528      -10.754       26.324       19.565       12.437      692.936      382.800      154.674        0.523        0.062       95.517       11.361        0.014      334.118        3.879      873.395
01/27/2022  19:30:00       80.077       59.870       -9.955       32.825       21.631       17.335     1077.489      467.921      300.512        0.597        0.092       99.984       11.036        0.012      334.071        3.801      873.399
01/27/2022  19:31:00       81.746       56.359      -12.152       30.206       25.784       21.249      912.418      664.824      451.516        0.602        0.101       99.291       18.178        0.034      334.086        3.827      873.393
01/27/2022  19:32:00       65.554       57.690      -12.884       34.368       29.307       17.317     1181.149      858.873      299.876        0.507        0.117       87.324       10.677        0.015      334.223        4.054      873.384
01/27/2022  19:33:00       55.156       71.382       -8.498       28.126       37.433       19.774      791.078     1401.249      391.019        0.540        0.129       90.208       13.943        0.024      334.205        4.024      873.383
01/27/2022  19:34:00       79.260       59.060       -8.822       28.880       24.198       20.470      834.036      585.532      419.040        0.584        0.092       98.845       11.376        0.013      334.137        3.912      873.387
01/27/2022  19:35:00       94.338       48.812      -10.649       29.269       23.498       17.795      856.697      552.168      316.671        0.656        0.086      106.218       14.131        0.018      334.058        3.782      873.397
01/27/2022  19:36:00      108.893       46.480       -8.392       33.251       27.069       16.241     1105.627      732.754      263.769        0.809        0.105      118.398       10.607        0.008      334.080        3.818      873.401
01/27/2022  19:37:00       97.522       83.146      -13.793       44.075       35.158       29.710     1942.575     1236.101      882.707        1.034        0.203      128.156       21.658        0.029      334.249        4.096      873.396
01/27/2022  19:38:00      122.213       82.256      -12.861       42.523       23.248       26.594     1808.167      540.463      707.221        1.246        0.153      147.316       18.569        0.016      334.276        4.141      873.391
01/27/2022  19:39:00      127.156       72.250       -8.686       45.221       25.746       28.623     2044.982      662.845      819.269        1.249        0.176      146.249       23.300        0.025      334.274        4.138      873.395
01/27/2022  19:40:00      127.570       76.565      -11.811       49.524       30.823       27.500     2452.621      950.042      756.261        1.322        0.208      148.782       24.806        0.028      334.143        3.921      873.400
01/27/2022  19:41:00      121.378       82.522      -11.804       60.711       33.489       29.968     3685.828     1121.498      898.105        1.369        0.285      146.774       18.677        0.016      334.176        3.974      873.401
01/27/2022  19:42:00      152.695       64.037      -14.724       40.755       36.454       23.362     1660.993     1328.872      545.800        1.558        0.177      165.580       10.694        0.004      334.160        3.948      873.396
01/27/2022  19:43:00      167.643       65.486      -20.020       54.573       47.357       27.563     2978.209     2242.671      759.697        1.939        0.299      179.979       14.932        0.007      334.219        4.046      873.399
01/27/2022  19:44:00      149.143       24.656       -8.557       72.644       48.225       29.133     5277.129     2325.669      848.705        1.569        0.423      151.167       25.025        0.027      334.173        3.970      873.407
01/27/2022  19:45:00      147.169       18.504      -11.609       68.043       57.367       33.987     4629.784     3291.010     1155.113        1.560        0.454      148.327       17.513        0.014      334.061        3.785      873.404
01/27/2022  19:46:00      143.922       18.918      -14.531       44.677       38.463       25.442     1996.033     1479.391      647.315        1.270        0.206      145.160       15.442        0.011      334.062        3.787      873.414
01/27/2022  19:47:00      134.743       70.134      -16.919       39.401       30.369       20.491     1552.412      922.305      419.897        1.313        0.145      151.903       15.201        0.010      334.237        4.077      873.408
01/27/2022  19:48:00      124.836       34.729      -13.845       80.296       59.051       30.521     6447.514     3487.059      931.530        1.392        0.543      129.577       22.188        0.029      334.079        3.813      873.410
01/27/2022  19:49:00      117.654       13.422       -9.067       71.599       40.324       31.757     5126.382     1625.995     1008.504        1.093        0.388      118.417       34.533        0.085      333.924        3.557      873.411
01/27/2022  19:50:00      161.928       26.441      -16.106       61.322       37.943       25.880     3760.388     1439.692      669.781        1.652        0.293      164.072       12.275        0.006      333.960        3.617      873.407
01/27/2022  19:51:00      153.809        8.980      -11.499       66.674       39.542       34.657     4445.381     1563.583     1201.121        1.554        0.361      154.071       24.491        0.025      333.786        3.329      873.410
01/27/2022  19:52:00      163.047       46.768      -12.022       63.808       48.706       29.786     4071.435     2372.259      887.204        1.812        0.367      169.622       18.453        0.012      333.873        3.472      873.408
01/27/2022  19:53:00      215.673       83.715       -8.999       53.860       61.335       25.439     2900.869     3762.039      647.128        3.046        0.366      231.351       27.787        0.014      333.912        3.533      873.413
01/27/2022  19:54:00      104.901       47.928      -14.412       63.218       84.375       35.204     3996.516     7119.224     1239.305        1.293        0.618      115.332       35.281        0.094      334.001        3.686      873.404
01/27/2022  19:55:00      205.195       66.880      -12.434       52.296       52.606       33.509     2734.872     2767.401     1122.857        2.668        0.331      215.819       25.206        0.014      334.011        3.699      873.426
01/27/2022  19:56:00      132.341       39.751      -10.082       63.883       37.704       24.862     4081.007     1421.583      618.133        1.266        0.306      138.182       16.840        0.015      333.850        3.435      873.438
01/27/2022  19:57:00      168.694       58.048       -6.074       55.721       45.681       24.501     3104.780     2086.759      600.292        1.883        0.290      178.402       19.277        0.012      334.016        3.708      873.443
01/27/2022  19:58:00      145.417       23.188       -4.215       63.195       43.550       29.862     3993.647     1896.638      891.749        1.424        0.339      147.254       23.769        0.026      333.967        3.630      873.442
01/27/2022  19:59:00      115.041       55.954      -10.014       59.160       42.018       23.823     3499.880     1765.477      567.545        1.115        0.292      127.927       16.700        0.017      334.091        3.834      873.446
01/27/2022  20:00:00      139.633       40.484      -13.323       37.602       34.963       22.869     1413.947     1222.403      523.014        1.224        0.158      145.384       13.293        0.008      333.915        3.542      873.451
01/27/2022  20:01:00      117.037       72.640      -15.388       52.338       34.171       26.602     2739.227     1167.656      707.670        1.191        0.231      137.747       15.166        0.012      333.996        3.678      873.449
01/27/2022  20:02:00      177.579       75.469      -11.636       63.439       33.671       25.404     4024.465     1133.762      645.381        2.158        0.290      192.950       16.212        0.007      334.050        3.765      873.450
01/27/2022  20:03:00      164.831       66.628      -10.898       66.969       44.329       27.406     4484.900     1965.096      751.115        1.946        0.360      177.787       26.441        0.022      334.007        3.693      873.457
01/27/2022  20:04:00      125.042       59.504       -0.343       50.191       42.235       26.042     2519.104     1783.796      678.165        1.208        0.249      138.478       26.709        0.037      333.979        3.650      873.467
01/27/2022  20:05:00       -2.022      -18.057        1.830       41.213       28.959       25.137     1698.548      838.631      631.850        0.175        0.158       18.169       20.985        1.334      333.943        3.590      873.487
01/27/2022  20:06:00      -17.218      -18.967      -14.475       26.666       28.528       14.094      711.081      813.837      198.632        0.129        0.086       25.617       13.632        0.283      333.984        3.659      873.523
01/27/2022  20:07:00       -5.388      -14.120        0.565       18.951       17.715       13.094      359.156      313.814      171.456        0.054        0.042       15.114       11.821        0.612      334.003        3.690      873.539
01/27/2022  20:08:00      -13.187       10.810       -0.744       22.490       16.975       13.468      505.799      288.153      181.384        0.063        0.049       17.051       10.757        0.398      333.889        3.501      873.539
01/27/2022  20:09:00      -52.414       12.213       -6.482       45.989       24.571       18.997     2114.956      603.751      360.877        0.301        0.154       53.818       16.517        0.094      333.774        3.310      873.534
01/27/2022  20:10:00       16.602      -14.965       -8.064       19.717       18.009       16.086      388.754      324.336      258.764        0.077        0.049       22.352       10.096        0.204      333.708        3.199      873.524
01/27/2022  20:11:00        4.139       -1.730      -13.023       17.164       13.282       14.417      294.614      176.408      207.861        0.043        0.034        4.486        9.774        4.747      333.751        3.271      873.507
01/27/2022  20:12:00       15.240      -18.492        0.700       21.408       21.014       14.799      458.313      441.575      219.011        0.085        0.056       23.962        8.061        0.113      333.884        3.491      873.499
01/27/2022  20:13:00       19.686      -43.805      -22.571       31.194       26.078       14.350      973.084      680.061      205.919        0.234        0.093       48.025       14.504        0.091      334.009        3.700      873.501
01/27/2022  20:14:00      -13.558        1.098       -8.883       16.586       19.396       15.812      275.081      376.203      250.026        0.058        0.045       13.603       14.732        1.173      333.755        3.278      873.513
01/27/2022  20:15:00       31.198       -6.040      -10.254       22.398       20.219       16.602      501.666      408.825      275.633        0.115        0.059       31.778       13.983        0.194      333.861        3.455      873.503
01/27/2022  20:16:00       -8.013       18.535      -13.762       11.878       13.580        9.459      141.096      184.425       89.468        0.051        0.021       20.193        7.340        0.132      334.011        3.704      873.491
01/27/2022  20:17:00        1.671       -2.041       -1.296        8.724        9.254        7.437       76.102       85.628       55.310        0.011        0.011        2.638        5.508        4.359      333.863        3.458      873.483
01/27/2022  20:18:00        4.588      -17.087      -13.373        7.490       14.319        8.535       56.100      205.027       72.838        0.041        0.017       17.692        6.388        0.130      333.770        3.302      873.488
01/27/2022  20:19:00       -8.062        9.777      -13.278       11.340        7.443        8.456      128.600       55.403       71.506        0.030        0.013       12.673        2.158        0.029      333.902        3.523      873.501
01/27/2022  20:20:00       -7.782       14.250       -4.230        8.152        9.287        8.374       66.454       86.257       70.118        0.025        0.011       16.237        7.401        0.208      333.968        3.632      873.517
01/27/2022  20:21:00        2.664       15.561       -4.797       14.887        9.980        9.248      221.634       99.597       85.524        0.034        0.020       15.787        5.175        0.107      333.830        3.402      873.531
01/27/2022  20:22:00      -16.517       22.939       -8.110       11.965        9.311        9.549      143.168       86.691       91.178        0.059        0.016       28.267        4.924        0.030      333.698        3.184      873.534
01/27/2022  20:23:00        4.885        3.326       -6.583        6.517        4.786        5.138       42.465       22.902       26.397        0.008        0.005        5.910        2.554        0.187      333.695        3.179      873.538
01/27/2022  20:24:00       16.022        3.121       -4.724       11.077        6.956        5.437      122.702       48.384       29.557        0.024        0.010       16.324        3.136        0.037      333.761        3.290      873.542
01/27/2022  20:25:00       -0.662        3.186       -3.379       12.515       14.034        5.311      156.619      196.955       28.208        0.020        0.019        3.254        4.745        2.127      333.742        3.256      873.549
01/27/2022  20:26:00       14.532       -4.638       -6.745       14.881       14.123        7.739      221.455      199.467       59.899        0.038        0.024       15.254       10.505        0.474      333.757        3.281      873.562
01/27/2022  20:27:00       16.629      -10.362       -3.450       11.954       13.044       10.076      142.903      170.146      101.517        0.041        0.021       19.593        8.628        0.194      333.789        3.334      873.585
01/27/2022  20:28:00        7.405      -33.455       -8.265       20.004       12.171       11.252      400.149      148.136      126.604        0.096        0.034       34.265        6.191        0.033      333.910        3.537      873.605
01/27/2022  20:29:00       44.602      -37.023      -11.506       26.938       15.928       14.883      725.653      253.700      221.515        0.235        0.060       57.966       11.185        0.037      333.988        3.664      873.616
01/27/2022  20:30:00       45.480      -55.321      -10.149       26.230       26.987       18.382      688.025      728.275      337.909        0.349        0.088       71.616       14.175        0.039      333.966        3.628      873.623
01/27/2022  20:31:00       51.381      -43.956      -13.125       22.678       28.652       17.552      514.312      820.941      308.063        0.319        0.082       67.618        9.698        0.021      333.780        3.320      873.634
01/27/2022  20:32:00       56.129      -65.098      -25.742       29.757       43.316       16.707      885.502     1876.307      279.111        0.555        0.152       85.955       12.166        0.020      333.880        3.485      873.634
01/27/2022  20:33:00       62.425        0.638      -21.324       42.940       52.301       33.035     1843.856     2735.351     1091.292        0.501        0.284       62.428       24.398        0.153      333.837        3.414      873.645
01/27/2022  20:34:00       56.068      -29.421       -1.883       47.632       25.969       25.566     2268.840      674.408      653.618        0.380        0.180       63.318       22.204        0.123      333.804        3.359      873.660
01/27/2022  20:35:00       68.042      -17.619       -7.218       43.460       29.053       19.129     1888.737      844.069      365.936        0.404        0.155       70.286       20.174        0.082      333.729        3.235      873.674
01/27/2022  20:36:00       60.941      -32.938      -10.085       32.188       23.911       17.147     1036.077      571.725      294.022        0.340        0.095       69.273       15.885        0.053      333.664        3.127      873.690
01/27/2022  20:37:00       48.993      -18.933       -9.496       22.384       32.184       17.343      501.035     1035.799      300.796        0.234        0.092       52.524       16.322        0.097      333.589        3.004      873.701
01/27/2022  20:38:00       34.689      -13.922       -5.798       40.113       33.146       26.636     1609.020     1098.659      709.459        0.242        0.171       37.379       25.762        0.475      333.600        3.021      873.713
01/27/2022  20:39:00       28.585      -13.500       -9.885       35.333       37.423       28.387     1248.437     1400.474      805.813        0.228        0.173       31.612       22.122        0.490      333.563        2.960      873.725
01/27/2022  20:40:00       57.608      -18.503      -11.197       29.908       28.560       22.323      894.501      815.664      498.333        0.300        0.110       60.507       16.281        0.072      333.514        2.879      873.728
01/27/2022  20:41:00       75.946      -20.827       -8.409       34.919       24.759       16.719     1219.357      613.026      279.539        0.419        0.106       78.750       16.886        0.046      333.515        2.882      873.728
01/27/2022  20:42:00       21.967       -3.006        2.777       30.760       22.130       20.517      946.168      489.717      420.932        0.118        0.093       22.172       19.663        0.787      333.472        2.810      873.729
01/27/2022  20:43:00       33.084       -8.448        0.869       28.266       26.437       18.380      798.941      698.896      337.839        0.150        0.092       34.145       13.456        0.155      333.534        2.914      873.731
01/27/2022  20:44:00       19.261        5.732      -10.469       17.698        9.019       11.130      313.232       81.348      123.873        0.052        0.026       20.096        5.059        0.063      333.476        2.815      873.737
01/27/2022  20:45:00       17.037       19.671        1.024       13.043       10.863        7.514      170.123      117.999       56.461        0.051        0.017       26.023        3.904        0.023      333.345        2.602      873.755
01/27/2022  20:46:00       11.285       27.408       -1.286       18.899        9.853        8.763      357.173       97.085       76.794        0.071        0.027       29.641        5.390        0.033      333.366        2.636      873.764
01/27/2022  20:47:00      -49.678       22.746      -17.468       16.579       12.764        9.155      274.872      162.921       83.820        0.191        0.026       54.638        4.878        0.008      333.038        2.091      873.780
01/27/2022  20:48:00      -75.592       50.675       -8.863       24.700       19.762       15.264      610.077      390.543      232.982        0.480        0.062       91.006        8.131        0.008      332.744        1.607      873.797
01/27/2022  20:49:00      -85.278       55.120      -16.824       32.484       26.493       18.379     1055.193      701.881      337.796        0.634        0.105      101.541        8.768        0.007      332.749        1.614      873.815
01/27/2022  20:50:00      -94.177       25.727      -10.558       39.841       31.810       22.811     1587.304     1011.889      520.338        0.638        0.156       97.628       16.991        0.030      332.741        1.601      873.834
01/27/2022  20:51:00     -115.256       22.054      -12.842       48.713       37.491       23.470     2372.940     1405.552      550.829        0.913        0.216      117.347       26.670        0.052      332.705        1.541      873.848
01/27/2022  20:52:00      -79.653       21.965       -4.156       44.436       29.554       24.744     1974.566      873.425      612.278        0.515        0.173       82.626       18.637        0.051      332.651        1.452      873.856
01/27/2022  20:53:00      -63.622       29.893       -3.937       34.092       30.249       20.539     1162.254      915.022      421.839        0.373        0.125       70.295       16.046        0.052      332.544        1.276      873.883
01/27/2022  20:54:00      -53.705       10.077       -0.840       40.329       29.261       21.405     1626.403      856.185      458.168        0.296        0.147       54.642       17.907        0.107      332.628        1.414      873.905
01/27/2022  20:55:00      -63.353       28.040       -0.032       39.967       30.499       21.425     1597.399      930.210      459.009        0.389        0.149       69.281       21.291        0.094      332.541        1.270      873.923
01/27/2022  20:56:00      -83.026       50.174       -9.173       30.587       29.944       18.379      935.573      896.667      337.786        0.583        0.109       97.009       13.905        0.021      332.528        1.248      873.932
01/27/2022  20:57:00      -55.422       47.766      -16.165       27.626       18.089       22.261      763.213      327.203      495.559        0.360        0.079       73.166        9.836        0.018      332.483        1.174      873.942
01/27/2022  20:58:00      -52.098       40.994       -9.955       24.082       24.871       17.442      579.921      618.547      304.215        0.300        0.075       66.293        8.249        0.015      332.648        1.447      873.954
01/27/2022  20:59:00      -58.341       44.074      -13.276       19.411       21.406       19.010      376.795      458.216      361.386        0.336        0.060       73.118        8.244        0.013      332.804        1.706      873.962
01/27/2022  21:00:00      -15.748        0.071       -5.379       26.902       31.632       19.671      723.715     1000.589      386.959        0.119        0.106       15.748        6.450        0.168      332.579        1.334      873.976
01/27/2022  21:01:00      -46.466        0.735      -23.796       16.669       17.678       19.180      277.862      312.499      367.889        0.184        0.048       46.472        7.546        0.026      332.655        1.459      874.004
01/27/2022  21:02:00      -61.377       15.684      -19.995       29.521       24.822       15.068      871.502      616.122      227.055        0.306        0.086       63.349       12.515        0.039      332.698        1.530      874.014
01/27/2022  21:03:00      -67.463       18.898      -34.073       30.229       24.742       20.314      913.819      612.182      412.659        0.400        0.097       70.060       15.012        0.046      332.665        1.476      874.021
01/27/2022  21:04:00      -38.004       27.089      -16.944       21.998       23.248       15.286      483.927      540.486      233.665        0.186        0.063       46.670       12.799        0.075      332.796        1.693      874.024
01/27/2022  21:05:00      -31.820       32.673      -26.027       16.102       14.303        9.293      259.269      204.579       86.366        0.165        0.028       45.608        5.503        0.015      332.918        1.895      874.026
01/27/2022  21:06:00       14.891       13.225       -6.844       16.575       20.061       11.544      274.717      402.460      133.264        0.063        0.041       19.916        7.057        0.126      333.158        2.290      874.023
01/27/2022  21:07:00       60.289       27.838       -5.708       10.114        8.778        5.482      102.293       77.045       30.049        0.233        0.010       66.406        3.721        0.003      332.984        2.002      874.023
01/27/2022  21:08:00       35.654       28.012       -5.910       14.332        6.490        7.592      205.413       42.117       57.636        0.120        0.015       45.342        7.409        0.027      333.230        2.409      874.028
01/27/2022  21:09:00      -28.315        5.339      -11.798       26.371       20.916       14.519      695.446      437.493      210.805        0.116        0.067       28.814       13.737        0.227      333.110        2.210      874.038
01/27/2022  21:10:00      -30.008        1.517       -9.636       28.247       22.325       18.829      797.870      498.421      354.527        0.132        0.083       30.046        9.971        0.110      332.532        1.256      874.043
01/27/2022  21:11:00      -44.401       -2.194        0.899       49.988       26.962       26.760     2498.794      726.953      716.090        0.296        0.197       44.455       24.132        0.295      332.452        1.123      874.051
01/27/2022  21:12:00     -140.262       26.726      -14.831       26.262       31.914       16.571      689.710     1018.498      274.588        1.129        0.099      142.785       12.373        0.008      332.397        1.032      874.056
01/27/2022  21:13:00      -62.252        3.836      -18.380       49.389       26.750       16.920     2439.243      715.588      286.286        0.383        0.172       62.370       17.966        0.083      332.514        1.226      874.057
01/27/2022  21:14:00      -33.555        3.949      -10.221       37.841       18.421       16.401     1431.917      339.335      268.982        0.164        0.102       33.787       11.547        0.117      332.541        1.272      874.059
01/27/2022  21:15:00      -31.628       -7.845       -1.749       39.156       31.232       24.220     1533.183      975.420      586.612        0.208        0.155       32.587       22.118        0.461      332.485        1.178      874.067
01/27/2022  21:16:00      -60.638        9.139        2.064       35.441       33.288       23.124     1256.087     1108.081      534.721        0.333        0.145       61.323       13.593        0.049      332.350        0.955      874.065
01/27/2022  21:17:00      -81.500       10.840       -9.652       39.970       29.192       25.504     1597.617      852.194      650.472        0.498        0.155       82.218       23.698        0.083      332.420        1.071      874.065
01/27/2022  21:18:00      -52.807      -10.182      -10.543       38.700       27.173       22.348     1497.707      738.366      499.448        0.287        0.137       53.780       19.089        0.126      332.385        1.012      874.070
01/27/2022  21:19:00      -83.858        5.284       -3.155       75.293       41.449       28.067     5669.068     1718.055      787.740        0.762        0.409       84.024       20.863        0.062      332.362        0.975      874.076
01/27/2022  21:20:00      -88.302       18.546       -0.399       71.152       38.211       22.898     5062.537     1460.098      524.306        0.759        0.352       90.229       25.478        0.080      332.337        0.932      874.088
01/27/2022  21:21:00     -112.078       27.368       -5.080       56.482       37.835       29.560     3190.194     1431.512      873.771        0.941        0.275      115.371       24.197        0.044      332.289        0.854      874.078
01/27/2022  21:22:00      -68.739        5.256      -10.366       44.456       34.855       25.898     1976.322     1214.878      670.705        0.436        0.193       68.939        8.980        0.017      332.245        0.783      874.019
01/27/2022  21:23:00      -75.398        1.184      -14.779       65.432       31.678       22.368     4281.309     1003.521      500.344        0.584        0.289       75.407        9.988        0.018      332.258        0.803      874.035
01/27/2022  21:24:00      -79.156       16.881       -2.221       52.977       32.866       25.772     2806.519     1080.161      664.186        0.555        0.228       80.936       19.529        0.058      332.258        0.804      874.045
01/27/2022  21:25:00     -128.539       29.068      -11.830       40.711       32.683       20.413     1657.362     1068.166      416.703        1.032        0.157      131.785       13.458        0.010      332.182        0.678      874.054
01/27/2022  21:26:00     -119.426       21.387       -2.860       54.332       32.641       28.404     2952.005     1065.434      806.777        0.978        0.241      121.326       27.551        0.052      332.183        0.679      874.051
01/27/2022  21:27:00      -86.000       16.673      -14.238       70.310       48.516       33.116     4943.505     2353.784     1096.657        0.813        0.420       87.601       36.819        0.177      332.179        0.673      874.049
01/27/2022  21:28:00      -92.749       10.418       -6.167       79.636       36.279       24.367     6341.929     1316.135      593.770        0.850        0.413       93.332       15.598        0.028      332.248        0.787      874.063
01/27/2022  21:29:00        8.364       -1.594        5.269       40.025       27.176       24.004     1602.032      738.529      576.206        0.151        0.146        8.515       16.876        3.928      332.181        0.676      874.071
01/27/2022  21:30:00      -53.807        3.684      -11.779       46.380       36.805       29.135     2151.070     1354.576      848.834        0.370        0.218       53.933       26.428        0.240      332.142        0.610      874.062
01/27/2022  21:31:00       -7.555        5.612       -2.104       26.391       28.619       17.042      696.473      819.050      290.433        0.095        0.090        9.411       11.368        1.459      332.144        0.613      874.050
01/27/2022  21:32:00      -46.025       14.006      -22.929       32.489       19.734       16.590     1055.534      389.437      275.242        0.228        0.086       48.109       11.316        0.055      332.169        0.657      874.036
01/27/2022  21:33:00      -31.700       15.256       -8.036       18.852       23.064       14.658      355.393      531.934      214.871        0.120        0.055       35.180       10.065        0.082      332.200        0.708      874.025
01/27/2022  21:34:00      -38.285       12.595      -24.363       13.095       14.073       13.523      171.484      198.041      182.882        0.139        0.028       40.303        4.552        0.013      332.328        0.917      874.011
01/27/2022  21:35:00      -19.744       -6.225      -12.715       15.367       14.519       14.255      236.139      210.813      203.202        0.062        0.033       20.702       10.471        0.256      332.303        0.877      874.005
01/27/2022  21:36:00      -26.378       -5.587       -8.398       16.827       19.212       11.467      283.164      369.103      131.494        0.079        0.039       26.963        8.544        0.100      332.110        0.558      873.990
01/27/2022  21:37:00      -23.099       -8.030       -7.812       11.434       16.526       12.109      130.727      273.095      146.629        0.060        0.028       24.455        8.182        0.112      332.150        0.627      873.985
01/27/2022  21:38:00      -38.959       21.111      -18.804       13.719       11.279       10.531      188.222      127.217      110.912        0.137        0.021       44.311        5.197        0.014      332.278        0.837      873.974
01/27/2022  21:39:00      -43.826       11.927      -17.431       20.998       25.028       17.365      440.899      626.409      301.537        0.187        0.068       45.420       14.869        0.107      332.212        0.728      873.964
01/27/2022  21:40:00      -28.016       -9.246      -12.761       22.846       27.744       17.288      521.959      769.713      298.865        0.131        0.080       29.502       12.554        0.181      332.072        0.496      873.970
01/27/2022  21:41:00      -76.504       14.852      -23.018       26.743       19.065       15.577      715.203      363.485      242.650        0.396        0.066       77.933       16.202        0.043      332.032        0.431      873.975
01/27/2022  21:42:00     -104.232       29.410      -20.825       17.406       13.589       15.111      302.979      184.668      228.347        0.644        0.036      108.301        5.114        0.002      332.054        0.466      873.982
01/27/2022  21:43:00      -77.910        4.832       -8.484       38.770       30.487       18.173     1503.098      929.452      330.247        0.446        0.138       78.059       16.612        0.045      332.043        0.449      873.988
01/27/2022  21:44:00      -81.091        8.699       -7.022       36.303       24.276       16.446     1317.907      589.343      270.479        0.444        0.109       81.556       17.580        0.046      332.064        0.482      873.993
01/27/2022  21:45:00      -64.574        9.709       -7.854       19.973       14.180       15.704      398.919      201.063      246.616        0.259        0.042       65.300       10.693        0.027      332.133        0.595      873.994
01/27/2022  21:46:00      -73.668       19.891      -13.487       14.123       12.736       10.075      199.457      162.213      101.498        0.323        0.023       76.306        7.586        0.010      332.185        0.682      873.994
01/27/2022  21:47:00      -71.903       21.720      -12.905       10.337       11.009       10.218      106.857      121.203      104.405        0.307        0.017       75.112        5.649        0.006      332.254        0.797      873.992
01/27/2022  21:48:00      -71.094       20.164       -9.606       19.025       26.107       12.950      361.962      681.594      167.699        0.338        0.061       73.898        9.671        0.017      332.087        0.520      873.979
01/27/2022  21:49:00     -100.774       46.328       -7.803       29.657       19.002       16.537      879.552      361.058      273.456        0.694        0.076      110.913       15.029        0.018      331.990        0.362      873.969
01/27/2022  21:50:00     -111.103       41.924      -18.893       32.883       23.000       16.252     1081.274      528.994      264.129        0.817        0.094      118.749       13.175        0.012      331.944        0.286      873.963
01/27/2022  21:51:00      -68.971       15.810      -11.050       56.765       35.361       25.749     3222.265     1250.407      663.036        0.513        0.257       70.760       27.134        0.147      331.803        0.054      873.959
01/27/2022  21:52:00      -10.950       13.024        7.196       44.075       31.641       23.590     1942.640     1001.162      556.480        0.192        0.175       17.015        8.514        0.250      331.747       -0.037      873.962
01/27/2022  21:53:00      -22.547        5.684      -10.431       61.673       34.358       35.636     3803.566     1180.439     1269.951        0.345        0.313       23.252       30.886        1.764      331.720       -0.082      873.981
01/27/2022  21:54:00     -123.858       23.789       -5.441       66.759       46.161       29.020     4456.783     2130.833      842.139        1.168        0.371      126.121       35.847        0.081      331.653       -0.192      874.001
01/27/2022  21:55:00      -48.124       11.146        3.316       58.994       37.501       30.757     3480.256     1406.308      946.006        0.414        0.292       49.398       32.726        0.439      331.751       -0.030      874.020
01/27/2022  21:56:00      -59.277        6.969        0.343       54.301       38.619       27.342     2948.619     1491.422      747.593        0.437        0.259       59.685       28.047        0.221      331.688       -0.134      874.030
01/27/2022  21:57:00      -42.928        3.582        2.833       43.754       37.999       29.722     1914.410     1443.911      883.415        0.305        0.212       43.077       27.707        0.414      331.618       -0.250      874.029
01/27/2022  21:58:00      -72.176       -1.931       -6.094       48.992       32.790       28.089     2400.202     1075.209      789.007        0.476        0.213       72.202       23.011        0.102      331.739       -0.050      874.031
01/27/2022  21:59:00      -81.248       37.036       -7.127       53.957       33.394       27.666     2911.340     1115.165      765.403        0.641        0.240       89.291       22.207        0.062      331.584       -0.307      874.033
01/27/2022  22:00:00      -89.280       44.536       -9.069       44.022       35.822       21.666     1937.919     1283.242      469.407        0.686        0.185       99.772       15.217        0.023      331.555       -0.355      874.034
01/27/2022  22:01:00     -129.771       70.417      -23.452       33.213       26.042       21.448     1103.073      678.162      459.997        1.229        0.112      147.645       11.971        0.007      331.577       -0.320      874.029
01/27/2022  22:02:00     -153.111       73.510       -6.857       51.577       31.557       28.670     2660.164      995.846      821.988        1.669        0.224      169.843       27.280        0.026      331.564       -0.340      874.026
01/27/2022  22:03:00     -138.956       61.025       -8.169       46.220       33.624       34.439     2136.275     1130.580     1186.045        1.378        0.223      151.766       29.554        0.038      331.558       -0.351      874.021
01/27/2022  22:04:00     -147.443       67.206      -18.301       48.175       38.926       29.327     2320.871     1515.217      860.069        1.564        0.235      162.037       17.616        0.012      331.543       -0.375      874.023
01/27/2022  22:05:00     -152.859       80.715       -5.742       49.015       36.440       27.571     2402.422     1327.846      760.165        1.720        0.225      172.861       28.886        0.028      331.512       -0.428      874.026
01/27/2022  22:06:00     -147.532      104.647      -14.269       34.967       34.483       21.459     1222.667     1189.059      460.499        1.790        0.144      180.877       19.093        0.011      331.548       -0.367      874.020
01/27/2022  22:07:00     -156.315       78.685      -27.216       25.749       18.849       21.800      663.005      355.294      475.246        1.643        0.075      175.002       10.799        0.004      331.539       -0.381      874.015
01/27/2022  22:08:00     -123.903       49.286      -14.096       38.020       42.632       19.041     1445.537     1817.498      362.577        1.080        0.181      133.346       16.112        0.015      331.518       -0.416      874.010
01/27/2022  22:09:00     -109.293       17.974       -6.087       64.158       39.119       29.244     4116.253     1530.335      855.209        0.940        0.325      110.761       33.301        0.090      331.445       -0.537      874.013
01/27/2022  22:10:00      -25.356       -1.708       -4.735       54.427       28.174       28.472     2962.333      793.761      810.632        0.262        0.228       25.413       31.231        1.510      331.534       -0.389      874.019
01/27/2022  22:11:00      -63.292       -8.632      -23.747       57.144       40.071       24.568     3265.493     1605.721      603.606        0.506        0.274       63.878       18.589        0.085      331.627       -0.236      874.022
01/27/2022  22:12:00      -43.612       21.341      -17.265       44.981       31.955       29.756     2023.326     1021.134      885.420        0.329        0.196       48.554       15.363        0.100      331.682       -0.143      874.031
01/27/2022  22:13:00      -52.854        4.984      -16.052       41.235       28.647       29.682     1700.304      820.678      881.013        0.324        0.170       53.088       25.087        0.223      331.688       -0.137      874.027
01/27/2022  22:14:00      -23.354        7.359      -18.302       43.275       29.619       18.208     1872.689      877.290      331.532        0.201        0.154       24.486        9.386        0.147      331.660       -0.180      874.023
01/27/2022  22:15:00      -20.868       15.065       -8.730       34.281       30.268       18.696     1175.166      916.149      349.550        0.159        0.122       25.738       13.436        0.273      331.664       -0.175      874.027
01/27/2022  22:16:00       -6.752       15.145      -11.771       27.190       24.498       21.969      739.299      600.135      482.617        0.112        0.091       16.582        7.561        0.208      331.650       -0.197      874.033
01/27/2022  22:17:00       -9.712       11.142      -11.979       25.986       24.520       19.803      675.274      601.207      392.172        0.101        0.083       14.781       12.515        0.717      331.677       -0.153      874.047
01/27/2022  22:18:00      -20.503      -19.346       -1.202       21.030       20.847       15.952      442.261      434.611      254.467        0.096        0.057       28.190       13.814        0.240      331.706       -0.106      874.053
01/27/2022  22:19:00      -12.959       -0.275       -6.857       23.900       23.196       13.732      571.218      538.076      188.580        0.076        0.065       12.962        7.699        0.353      331.775        0.009      874.053
01/27/2022  22:20:00      -58.184      -10.229      -25.557       33.698       16.170       23.958     1135.533      261.462      573.976        0.306        0.099       59.076       23.423        0.157      331.786        0.027      874.065
01/27/2022  22:21:00      -33.247        9.092      -12.202       18.340       21.372       19.039      336.372      456.761      362.474        0.125        0.058       34.468       11.632        0.114      331.878        0.178      874.065
01/27/2022  22:22:00      -38.685       -4.606       -8.234       16.722       20.259       16.692      279.621      410.410      278.619        0.128        0.048       38.958       10.086        0.067      331.765       -0.008      874.067
01/27/2022  22:23:00      -63.348        8.012       -9.576       15.739       18.541       11.145      247.726      343.757      124.203        0.244        0.036       63.852        5.866        0.008      331.805        0.056      874.064
01/27/2022  22:24:00      -65.196      -15.889      -31.155       18.927       21.342       17.677      358.228      455.481      312.460        0.330        0.056       67.104        4.992        0.006      331.790        0.033      874.074
01/27/2022  22:25:00      -70.679        3.063      -26.540       24.881       28.535       21.338      619.078      814.271      455.295        0.380        0.094       70.746        9.871        0.019      331.802        0.053      874.081
01/27/2022  22:26:00      -67.309       -6.669      -20.332       60.868       26.524       29.529     3704.921      703.528      871.986        0.513        0.264       67.639       32.491        0.231      331.622       -0.245      874.091
01/27/2022  22:27:00      -50.792        3.035       -2.686       50.078       33.204       28.325     2507.849     1102.482      802.292        0.350        0.221       50.882       21.964        0.186      331.640       -0.214      874.106
01/27/2022  22:28:00     -118.853       24.273      -14.904       19.932       22.669       15.822      397.280      513.868      250.327        0.805        0.058      121.307        9.223        0.006      331.692       -0.129      874.126
01/27/2022  22:29:00      -89.355       12.205      -23.401       31.810       26.063       19.771     1011.867      679.274      390.888        0.538        0.104       90.185       12.478        0.019      331.768       -0.003      874.131
01/27/2022  22:30:00     -119.675       15.255      -15.519       23.196       29.301       21.388      538.074      858.556      457.434        0.832        0.093      120.644       12.719        0.011      331.724       -0.075      874.135
01/27/2022  22:31:00     -135.479       22.937       -3.591       44.879       28.223       23.036     2014.088      796.550      530.646        1.112        0.167      137.407       21.913        0.025      331.693       -0.127      874.148
01/27/2022  22:32:00     -115.976       27.779      -11.564       32.804       21.823       18.207     1076.082      476.241      331.480        0.812        0.094      119.256       19.428        0.027      331.621       -0.246      874.181
01/27/2022  22:33:00     -139.800       59.109      -13.814       22.638       14.291       16.059      512.459      204.228      257.906        1.210        0.049      151.782        9.873        0.004      331.541       -0.377      874.197
01/27/2022  22:34:00     -129.606       56.529      -10.615       30.656       23.543       17.698      939.772      554.276      313.216        1.096        0.090      141.398       12.265        0.008      331.503       -0.441      874.209
01/27/2022  22:35:00     -128.405       27.541      -17.193       37.287       42.884       27.407     1390.307     1839.006      751.126        1.076        0.199      131.325       22.129        0.028      331.519       -0.414      874.223
01/27/2022  22:36:00     -124.923        3.313      -21.497       38.217       31.320       33.831     1460.509      980.927     1144.519        0.983        0.179      124.967       23.406        0.035      331.544       -0.374      874.243
01/27/2022  22:37:00      -69.122      -11.952      -15.605       46.646       36.927       30.889     2175.880     1363.624      954.127        0.483        0.225       70.148       25.642        0.134      331.505       -0.437      874.250
01/27/2022  22:38:00     -141.370       37.327      -19.821       26.736       32.301       15.970      714.817     1043.383      255.055        1.189        0.101      146.215       16.595        0.013      331.438       -0.546      874.257
01/27/2022  22:39:00     -107.060       30.941      -19.473       31.283       16.175       19.822      978.655      261.628      392.908        0.722        0.082      111.441       18.995        0.029      331.443       -0.538      874.258
01/27/2022  22:40:00      -60.581        3.430      -13.518       46.006       28.988       27.087     2116.566      840.317      733.719        0.378        0.185       60.678       26.116        0.185      331.513       -0.424      874.255
01/27/2022  22:41:00      -58.909        5.717      -19.687       40.076       31.067       25.146     1606.071      965.163      632.306        0.355        0.160       59.186       12.907        0.048      331.537       -0.386      874.250
01/27/2022  22:42:00      -25.666       10.984      -15.806       24.482       26.787       23.943      599.364      717.519      573.272        0.146        0.095       27.918       16.714        0.358      331.519       -0.414      874.252
01/27/2022  22:43:00      -52.295        1.069      -20.648       28.189       23.562       25.007      794.604      555.145      625.338        0.257        0.099       52.306       15.997        0.094      331.524       -0.406      874.255
01/27/2022  22:44:00      -43.604       15.666      -16.458       25.072       17.316       12.120      628.607      299.849      146.900        0.175        0.054       46.333       10.077        0.047      331.596       -0.287      874.260
01/27/2022  22:45:00       -7.533       -6.228       -7.419       13.729       15.936       11.159      188.485      253.971      124.531        0.036        0.028        9.774        6.611        0.457      331.562       -0.343      874.263
01/27/2022  22:46:00      -13.189       -6.464       -5.424        7.611       12.755        8.838       57.921      162.693       78.103        0.027        0.015       14.688        5.385        0.134      331.603       -0.276      874.267
01/27/2022  22:47:00       -4.403        7.577      -13.618       10.578        8.010        7.147      111.888       64.155       51.085        0.024        0.011        8.763        4.802        0.300      331.750       -0.032      874.264
01/27/2022  22:48:00      -23.216        5.694      -13.090       10.404       13.225        9.133      108.238      174.913       83.413        0.055        0.018       23.904        3.638        0.023      331.773        0.005      874.257
01/27/2022  22:49:00      -18.551       14.452      -23.204       12.724       14.933       12.157      161.906      223.005      147.790        0.081        0.027       23.516        4.941        0.044      331.638       -0.217      874.258
01/27/2022  22:50:00      -29.632       16.021      -12.525       13.690       14.699        9.985      187.413      216.056       99.694        0.090        0.025       33.686        6.573        0.038      331.621       -0.245      874.256
01/27/2022  22:51:00      -68.662       22.504       -9.808       27.828       16.339       12.123      774.384      266.976      146.973        0.325        0.059       72.256       10.944        0.023      331.451       -0.527      874.259
01/27/2022  22:52:00      -59.217       13.073      -16.501       32.773       22.312       22.228     1074.055      497.806      494.100        0.301        0.103       60.643       18.284        0.091      331.350       -0.691      874.259
01/27/2022  22:53:00      -23.656        0.605       -6.854       30.189       24.437       27.776      911.385      597.169      771.524        0.144        0.114       23.664       23.891        1.019      331.355       -0.684      874.261
01/27/2022  22:54:00        3.491        2.974       12.071       20.971       18.802       22.137      439.780      353.500      490.049        0.072        0.064        4.586       14.969       10.653      331.202       -0.936      874.265
01/27/2022  22:55:00      -42.262       -4.693       -5.515       46.646       29.419       31.960     2175.859      865.491     1021.462        0.295        0.203       42.522       30.131        0.502      331.223       -0.900      874.274
01/27/2022  22:56:00      -81.876      -37.262      -35.122       29.482       29.088       30.007      869.215      846.125      900.446        0.597        0.131       89.957       22.711        0.064      331.260       -0.838      874.277
01/27/2022  22:57:00      -93.703      -59.497      -39.782       18.716       39.624       18.722      350.305     1570.085      350.501        0.809        0.114      110.996       19.529        0.031      331.241       -0.871      874.294
01/27/2022  22:58:00      -33.928       22.543      -10.053       32.074       30.361       24.937     1028.710      921.814      621.875        0.217        0.129       40.735       17.712        0.189      331.313       -0.753      874.316
01/27/2022  22:59:00      -70.079       34.070      -32.039       36.490       26.607       31.152     1331.488      707.907      970.451        0.505        0.150       77.921       23.672        0.092      331.364       -0.668      874.330
01/27/2022  23:00:00      -50.106        8.048      -22.964       42.648       32.765       37.079     1818.865     1073.537     1374.833        0.368        0.213       50.749       33.888        0.446      331.345       -0.700      874.343
01/27/2022  23:01:00      -36.313       12.432       -7.749       28.838       22.003       22.984      831.609      484.140      528.283        0.169        0.092       38.382       12.724        0.110      331.352       -0.689      874.361
01/27/2022  23:02:00      -31.047       11.410      -17.915       13.750       15.871       12.816      189.065      251.900      164.239        0.101        0.030       33.077        6.469        0.038      331.700       -0.115      874.378
01/27/2022  23:03:00      -56.777        9.076      -23.317       18.869       25.796       17.092      356.055      665.416      292.143        0.258        0.066       57.498       12.839        0.050      331.586       -0.303      874.389
01/27/2022  23:04:00      -36.739        6.595      -26.894       20.572       13.463       10.299      423.199      181.245      106.061        0.141        0.036       37.326        8.405        0.051      331.479       -0.480      874.399
01/27/2022  23:05:00      -50.666       32.314      -16.650        7.984        8.031        8.014       63.746       64.497       64.219        0.204        0.010       60.094        3.975        0.004      332.077        0.505      874.407
01/27/2022  23:06:00      -48.365       35.393      -15.638       11.461       11.133       11.053      131.350      123.936      122.174        0.211        0.019       59.932        6.991        0.014      331.691       -0.131      874.413
01/27/2022  23:07:00      -48.651       25.256      -15.320       13.035        9.890        8.595      169.910       97.803       73.877        0.179        0.017       54.816        3.159        0.003      331.647       -0.203      874.414
01/27/2022  23:08:00      -48.866       24.761      -18.209        9.799       10.908        9.843       96.024      118.976       96.882        0.182        0.016       54.781        4.722        0.007      331.565       -0.339      874.412
01/27/2022  23:09:00      -48.958       15.687      -23.921       22.963       12.558       11.604      527.276      157.695      134.648        0.202        0.041       51.409       10.447        0.041      331.590       -0.297      874.413
01/27/2022  23:10:00      -39.362       12.147      -18.775       20.279       11.417        9.868      411.257      130.357       97.381        0.134        0.032       41.194        6.337        0.024      331.713       -0.095      874.426
01/27/2022  23:11:00      -62.954       21.053      -17.710       12.224       15.320       12.592      149.415      234.688      158.568        0.263        0.027       66.381        5.966        0.008      331.569       -0.332      874.441
01/27/2022  23:12:00      -79.029       20.587      -28.367       18.547       19.902       14.995      343.976      396.108      224.836        0.422        0.048       81.666       11.790        0.021      331.478       -0.480      874.458
01/27/2022  23:13:00      -79.026       18.815      -21.616       17.754       18.292       18.866      315.192      334.583      355.944        0.404        0.050       81.235       10.918        0.018      331.463       -0.507      874.458
01/27/2022  23:14:00      -76.865       25.019      -16.815       27.766       26.134       24.415      770.937      682.996      596.101        0.443        0.103       80.835       17.133        0.045      331.352       -0.688      874.461
01/27/2022  23:15:00      -67.942       -1.937      -14.423       30.201       26.635       20.988      912.104      709.448      440.497        0.344        0.103       67.969       13.538        0.040      331.358       -0.678      874.458
01/27/2022  23:16:00      -67.408       -5.117      -20.200       22.983       25.839       23.012      528.209      667.642      529.546        0.335        0.086       67.602       10.938        0.026      331.401       -0.609      874.471
01/27/2022  23:17:00     -107.588       16.686      -24.561       29.032       31.104       24.865      842.831      967.484      618.290        0.744        0.121      108.874       18.194        0.028      331.359       -0.676      874.486
01/27/2022  23:18:00      -83.151        9.674      -23.865       28.532       36.098       19.304      814.096     1303.043      372.638        0.503        0.124       83.712        9.778        0.014      331.334       -0.718      874.489
01/27/2022  23:19:00      -57.412       -8.636      -16.646       23.953       29.895       25.646      573.726      893.729      657.703        0.289        0.106       58.058       10.536        0.033      331.323       -0.735      874.479
01/27/2022  23:20:00      -93.183       37.866      -25.265       35.874       18.390       16.716     1286.927      338.179      279.439        0.633        0.095      100.583        8.632        0.007      331.303       -0.768      874.465
01/27/2022  23:21:00      -71.958       20.043      -19.725       26.966       16.892       19.714      727.145      285.331      388.658        0.368        0.070       74.697       19.211        0.066      331.337       -0.714      874.458
01/27/2022  23:22:00      -82.670       20.073      -18.376       17.855       19.471       17.980      318.788      379.102      323.288        0.430        0.051       85.072        5.364        0.004      331.302       -0.770      874.460
01/27/2022  23:23:00      -73.246        7.267       -9.641       37.221       28.347       21.336     1385.415      803.543      455.236        0.408        0.132       73.605       21.485        0.085      331.333       -0.720      874.466
01/27/2022  23:24:00      -58.257       14.101      -20.245       21.914       21.699       15.889      480.220      470.839      252.455        0.260        0.060       59.939        9.131        0.023      331.376       -0.648      874.473
01/27/2022  23:25:00      -38.827       21.442      -18.072       19.410       17.232       17.678      376.760      296.934      312.499        0.164        0.049       44.354        5.893        0.018      331.446       -0.534      874.481
01/27/2022  23:26:00      -38.208        4.686      -16.279       25.611       14.783       15.580      655.939      218.527      242.744        0.143        0.056       38.494        7.516        0.038      331.433       -0.556      874.474
01/27/2022  23:27:00      -43.375        4.498      -23.275       21.394       14.357       22.529      457.716      206.134      507.538        0.181        0.059       43.607       11.068        0.064      331.703       -0.111      874.476
01/27/2022  23:28:00      -24.675       -7.911      -11.002       13.782       16.193       11.879      189.947      262.207      141.116        0.069        0.030       25.912        4.288        0.027      331.391       -0.623      874.481
01/27/2022  23:29:00      -52.428      -17.925      -10.032       15.045       15.127       11.284      226.355      228.831      127.329        0.188        0.029       55.408        6.511        0.014      331.399       -0.611      874.489
01/27/2022  23:30:00      -50.721       -8.728      -21.699       13.643       12.905       13.586      186.138      166.543      184.572        0.183        0.027       51.466        7.619        0.022      331.440       -0.544      874.490
01/27/2022  23:31:00      -29.683      -12.947       -9.090       18.623       19.173       12.267      346.813      367.618      150.481        0.100        0.043       32.384        8.774        0.073      331.310       -0.757      874.499
01/27/2022  23:32:00      -43.797       -6.394       -5.702       24.423       22.498       16.102      596.503      506.143      259.279        0.168        0.068       44.262       10.355        0.055      331.320       -0.741      874.515
01/27/2022  23:33:00      -50.766        2.777       -8.875       26.413       22.561       18.296      697.670      509.017      334.731        0.210        0.077       50.842       12.123        0.057      331.281       -0.804      874.528
01/27/2022  23:34:00      -58.977        9.077       -7.732       23.411       18.886       15.706      548.071      356.696      246.671        0.239        0.058       59.671        8.930        0.022      331.424       -0.569      874.535
01/27/2022  23:35:00      -69.700       -6.682       -8.890       25.772       18.600       18.797      664.220      345.942      353.328        0.317        0.068       70.020       14.497        0.043      331.497       -0.450      874.524
01/27/2022  23:36:00       -1.566        6.657        2.945       15.614       13.724        9.401      243.783      188.361       88.375        0.029        0.026        6.839        6.501        0.904      331.327       -0.730      874.521
01/27/2022  23:37:00       -7.988       -7.836        2.407       23.148       20.116       11.078      535.834      404.639      122.728        0.060        0.053       11.190        4.805        0.184      331.383       -0.638      874.523
01/27/2022  23:38:00      -46.540      -10.109       -5.843       21.023       20.207       15.203      441.978      408.341      231.143        0.169        0.054       47.625       12.554        0.069      331.412       -0.590      874.525
01/27/2022  23:39:00      -74.151        0.290      -11.008       28.356       18.819       17.702      804.075      354.143      313.369        0.355        0.074       74.151        9.607        0.017      331.392       -0.622      874.527
01/27/2022  23:40:00      -41.064      -11.401       -7.210       30.702       22.126       15.023      942.614      489.542      225.705        0.176        0.083       42.617       11.864        0.077      331.360       -0.676      874.522
01/27/2022  23:41:00      -82.424       11.521      -15.408       31.020       26.133       19.269      962.254      682.926      371.311        0.459        0.101       83.226       12.517        0.023      331.261       -0.838      874.515
01/27/2022  23:42:00      -94.152       21.192      -22.707       18.932       13.001       12.389      358.408      169.038      153.492        0.525        0.034       96.507        9.548        0.010      331.213       -0.916      874.492
01/27/2022  23:43:00      -61.503       30.449      -13.103       14.910       16.244       11.877      222.294      263.876      141.053        0.275        0.031       68.628        8.955        0.017      331.221       -0.904      874.474
01/27/2022  23:44:00      -97.363       41.396      -18.990       17.277       16.161       12.976      298.500      261.176      168.387        0.614        0.036      105.798        8.295        0.006      331.224       -0.898      874.450
01/27/2022  23:45:00     -124.662       42.739      -15.242       16.160       12.418       13.209      261.151      154.203      174.475        0.909        0.029      131.785        6.098        0.002      331.215       -0.912      874.444
01/27/2022  23:46:00      -34.964       -0.335       -8.478       36.910       23.784       17.042     1362.352      565.666      290.419        0.176        0.111       34.965       12.167        0.121      331.230       -0.888      874.461
01/27/2022  23:47:00      -55.682       27.220      -15.783       19.160       18.758       14.037      367.115      351.875      197.050        0.250        0.046       61.979       11.187        0.033      331.174       -0.980      874.453
01/27/2022  23:48:00      -54.727       28.923      -19.877       10.114       11.218        8.556      102.287      125.851       73.213        0.226        0.015       61.900        5.851        0.009      331.479       -0.480      874.434
01/27/2022  23:49:00      -48.801       27.519      -16.107       11.189       12.569        9.306      125.183      157.986       86.601        0.188        0.018       56.025        7.092        0.016      331.414       -0.585      874.422
01/27/2022  23:50:00      -62.130       19.110      -20.921       12.607       13.792       10.966      158.938      190.229      120.260        0.257        0.023       65.003        6.839        0.011      331.189       -0.956      874.406
01/27/2022  23:51:00      -53.568       14.536      -18.611       14.140       26.268       11.866      199.946      690.025      140.791        0.223        0.052       55.505        3.517        0.004      331.149       -1.022      874.400
01/27/2022  23:52:00      -46.822       16.779      -15.175       19.722       13.520       11.942      388.948      182.798      142.607        0.171        0.036       49.737        6.125        0.015      331.117       -1.073      874.404
01/27/2022  23:53:00      -25.353       -1.617      -11.979       14.013       13.066       15.115      196.357      170.722      228.453        0.069        0.030       25.405        8.712        0.118      331.200       -0.939      874.412
01/27/2022  23:54:00      -39.716        8.321       -7.078       23.256       23.729       19.265      540.830      563.072      371.121        0.159        0.074       40.579       11.586        0.082      331.074       -1.144      874.404
01/27/2022  23:55:00      -52.110       15.278      -11.455       21.538       21.832       16.988      463.887      476.655      288.583        0.215        0.061       54.304        9.621        0.031      331.014       -1.244      874.405
01/27/2022  23:56:00      -43.408        3.231      -15.487       21.909       18.149       18.650      479.994      329.369      347.808        0.165        0.058       43.528       12.495        0.082      331.044       -1.195      874.413
01/27/2022  23:57:00      -45.481        2.248       -9.559       18.952       21.577       14.454      359.185      465.559      208.925        0.160        0.052       45.536        8.508        0.035      331.004       -1.261      874.420
01/27/2022  23:58:00      -45.506        6.949      -21.692       26.059       25.878       18.148      679.060      669.668      329.357        0.213        0.084       46.033       14.303        0.097      330.922       -1.396      874.427
01/27/2022  23:59:00      -29.493        1.431      -10.281       29.173       28.706       19.598      851.064      824.024      384.090        0.152        0.103       29.527       19.012        0.415      330.892       -1.444      874.442
01/28/2022  00:00:00       -5.111        8.289        6.723       30.996       29.933       24.201      960.730      895.961      585.705        0.129        0.122        9.738       21.300        4.784      330.848       -1.516      874.449
01/28/2022  00:01:00      -92.907       22.889      -10.598       53.853       30.282       21.297     2900.142      916.978      453.564        0.677        0.214       95.685       24.256        0.064      330.934       -1.375      874.456
01/28/2022  00:02:00      -76.778        1.896       -7.859       34.008       24.728       15.089     1156.522      611.477      227.681        0.398        0.100       76.801       11.335        0.022      330.978       -1.303      874.451
01/28/2022  00:03:00      -59.726      -10.577       -4.893       38.398       26.784       22.378     1474.402      717.391      500.761        0.320        0.135       60.656       16.227        0.072      331.016       -1.242      874.448
01/28/2022  00:04:00       -3.469       -3.829        3.468       33.082       30.137       20.193     1094.421      908.238      407.765        0.122        0.121        5.167       15.094        8.535      331.042       -1.199      874.440
01/28/2022  00:05:00      -83.245       -1.364       -4.882       45.931       26.988       18.938     2109.677      728.330      358.632        0.508        0.160       83.256       18.467        0.049      331.024       -1.227      874.428
01/28/2022  00:06:00      -50.808        4.902       -6.898       48.311       26.044       14.560     2333.984      678.305      211.989        0.294        0.161       51.044       12.905        0.064      330.916       -1.405      874.419
01/28/2022  00:07:00      -63.713       13.773      -12.043       51.763       25.997       22.011     2679.420      675.842      484.473        0.412        0.192       65.184       17.856        0.075      330.857       -1.503      874.408
01/28/2022  00:08:00      -73.428       -2.936       -4.546       41.073       26.041       22.136     1686.959      678.125      489.983        0.414        0.143       73.486       22.181        0.091      330.838       -1.532      874.410
01/28/2022  00:09:00      -99.296       28.808      -18.522       28.527       27.969       19.818      813.765      782.267      392.765        0.651        0.099      103.390       11.860        0.013      330.846       -1.521      874.417
01/28/2022  00:10:00      -92.743       32.378       -1.559       34.996       23.702       18.307     1224.753      561.806      335.138        0.589        0.106       98.233       15.130        0.024      330.755       -1.669      874.413
01/28/2022  00:11:00      -99.955       33.202      -10.110       21.182       25.762       17.600      448.685      663.666      309.747        0.631        0.071      105.325       12.805        0.015      330.759       -1.662      874.393
01/28/2022  00:12:00      -92.894       24.504      -22.675       20.270       21.676       12.144      410.857      469.835      147.489        0.539        0.051       96.072       11.744        0.015      330.847       -1.518      874.372
01/28/2022  00:13:00      -24.841       -1.576        4.733       33.739       22.138       18.571     1138.303      490.107      344.884        0.131        0.099       24.891       16.775        0.454      330.681       -1.790      874.368
01/28/2022  00:14:00      -41.509        5.462       -6.435       39.886       29.229       21.323     1590.858      854.344      454.672        0.235        0.145       41.866       19.558        0.218      330.781       -1.626      874.371
01/28/2022  00:15:00     -101.716       14.428      -17.561       26.013       24.831       16.346      676.664      616.600      267.188        0.621        0.078      102.734        7.534        0.005      330.862       -1.496      874.372
01/28/2022  00:16:00      -86.098       27.252      -21.272       20.662       16.252       18.658      426.912      264.138      348.108        0.482        0.052       90.308       13.894        0.024      330.878       -1.469      874.357
01/28/2022  00:17:00     -121.829       25.107      -16.126       26.112       21.583       19.020      681.824      465.811      361.757        0.862        0.075      124.389        8.007        0.004      330.840       -1.530      874.339
01/28/2022  00:18:00      -34.343       -1.506       -5.806       38.005       28.326       22.938     1444.348      802.382      526.171        0.199        0.139       34.376       16.837        0.240      330.801       -1.593      874.331
01/28/2022  00:19:00      -69.647       -6.736       -5.451       40.079       32.562       29.106     1606.321     1060.299      847.164        0.422        0.176       69.972       20.644        0.087      330.802       -1.591      874.327
01/28/2022  00:20:00     -101.182       41.705      -13.933       20.314       18.489       13.415      412.644      341.834      179.970        0.655        0.047      109.440        7.278        0.004      330.775       -1.636      874.326
01/28/2022  00:21:00      -90.310       31.457      -15.647       23.002       18.202       14.219      529.075      331.314      202.171        0.523        0.053       95.632       10.847        0.013      330.777       -1.631      874.332
01/28/2022  00:22:00      -86.857       26.197      -17.830       13.021       18.718       12.290      169.550      350.363      151.032        0.461        0.034       90.721        6.998        0.006      330.808       -1.582      874.333
01/28/2022  00:23:00      -75.590       23.594       -4.371       18.266       17.736       15.637      333.656      314.571      244.531        0.359        0.045       79.186       10.857        0.019      330.766       -1.650      874.325
01/28/2022  00:24:00      -82.952       23.729       -8.075       24.074       20.139       15.259      579.549      405.587      232.844        0.436        0.061       86.279       13.829        0.026      330.775       -1.637      874.313
01/28/2022  00:25:00      -87.066       28.091       -5.957       20.521       24.643       14.718      421.105      607.274      216.631        0.482        0.062       91.486        9.273        0.010      330.699       -1.761      874.297
01/28/2022  00:26:00      -67.903       13.350       -8.352       33.022       17.214       19.016     1090.473      296.330      361.596        0.330        0.087       69.203       17.045        0.061      330.660       -1.825      874.288
01/28/2022  00:27:00      -80.764       25.021       -2.950       26.927       20.358       14.310      725.057      414.435      204.763        0.425        0.067       84.552       10.736        0.016      330.633       -1.869      874.278
01/28/2022  00:28:00      -49.036        7.370      -14.556       29.173       25.317       13.720      851.061      640.935      188.248        0.218        0.084       49.586       10.793        0.047      330.742       -1.690      874.282
01/28/2022  00:29:00      -47.605       17.188       -8.053       43.497       28.475       14.498     1891.960      810.822      210.181        0.277        0.146       50.613       17.181        0.115      330.709       -1.744      874.291
01/28/2022  00:30:00      -99.709       32.963      -16.146       28.585       20.434       19.312      817.110      417.543      372.957        0.645        0.080      105.016       10.253        0.010      330.662       -1.822      874.281
01/28/2022  00:31:00     -103.741       34.752       -6.128       32.931       21.903       16.761     1084.483      479.747      280.934        0.693        0.092      109.407       14.617        0.018      330.468       -2.139      874.261
01/28/2022  00:32:00      -70.768       11.497       -8.077       35.112       29.234       19.587     1232.835      854.610      383.664        0.384        0.124       71.696       16.301        0.052      330.547       -2.010      874.255
01/28/2022  00:33:00      -36.429        4.307       -7.293       47.814       38.112       23.265     2286.146     1452.557      541.247        0.284        0.214       36.683       24.000        0.428      330.510       -2.073      874.265
01/28/2022  00:34:00       -4.434       -7.227       -2.127       37.002       31.919       26.716     1369.173     1018.806      713.749        0.159        0.155        8.479       21.531        6.448      330.512       -2.070      874.274
01/28/2022  00:35:00      -56.731      -17.041       -9.920       52.464       47.184       29.451     2752.468     2226.376      867.376        0.473        0.292       59.236       28.137        0.226      330.533       -2.034      874.275
01/28/2022  00:36:00     -100.054       30.811       -9.776       55.464       39.471       31.275     3076.268     1557.935      978.120        0.833        0.281      104.691       29.293        0.078      330.536       -2.028      874.270
01/28/2022  00:37:00      -38.381       15.067        2.275       47.746       30.963       23.079     2279.675      958.735      532.648        0.274        0.189       41.233       12.790        0.096      330.514       -2.064      874.269
01/28/2022  00:38:00      -69.348       11.733       -0.567       55.610       31.214       25.637     3092.510      974.303      657.278        0.483        0.236       70.333       26.255        0.139      330.475       -2.128      874.261
01/28/2022  00:39:00     -105.269       55.373       -9.926       36.909       38.240       27.713     1362.248     1462.335      767.990        0.892        0.180      118.944       11.625        0.010      330.377       -2.290      874.249
01/28/2022  00:40:00     -143.509       84.236       -5.242       48.345       40.671       30.484     2337.243     1654.134      929.290        1.632        0.246      166.405       21.880        0.017      330.349       -2.334      874.252
01/28/2022  00:41:00     -165.838       54.818      -14.528       36.469       31.318       24.465     1329.984      980.843      598.532        1.681        0.145      174.664       19.089        0.012      330.497       -2.093      874.258
01/28/2022  00:42:00     -131.685       19.262      -11.488       64.139       47.504       29.819     4113.865     2256.584      889.176        1.255        0.363      133.086       27.851        0.044      330.559       -1.991      874.258
01/28/2022  00:43:00      -29.055       -7.070        9.788       67.867       35.137       29.040     4605.867     1234.635      843.346        0.384        0.334       29.902       29.949        1.003      330.568       -1.976      874.238
01/28/2022  00:44:00      -24.291        7.938      -15.498       65.063       39.452       22.395     4233.239     1556.426      501.551        0.359        0.315       25.556        5.497        0.046      330.522       -2.052      874.229
01/28/2022  00:45:00      -54.500       21.194       -3.624       39.607       31.344       23.391     1568.689      982.462      547.123        0.326        0.155       58.475       13.365        0.052      330.477       -2.126      874.230
01/28/2022  00:46:00      -93.835       31.943      -18.654       53.198       36.662       27.433     2830.079     1344.089      752.552        0.755        0.246       99.123       22.982        0.054      330.507       -2.077      874.216
01/28/2022  00:47:00     -112.801       48.619      -27.167       38.526       29.078       29.870     1484.285      845.557      892.198        0.952        0.161      122.832       20.059        0.027      330.547       -2.010      874.206
01/28/2022  00:48:00      -99.099       33.253      -21.808       42.206       30.169       34.530     1781.342      910.176     1192.313        0.764        0.194      104.530       30.253        0.084      330.618       -1.895      874.199
01/28/2022  00:49:00      -93.340       32.652       -6.993       44.908       40.888       25.382     2016.770     1671.789      644.249        0.708        0.217       98.887       24.537        0.062      330.589       -1.940      874.199
01/28/2022  00:50:00     -133.703       31.536      -19.533       63.815       27.638       25.922     4072.363      763.885      671.948        1.238        0.275      137.372       24.600        0.032      330.651       -1.840      874.211
01/28/2022  00:51:00       -1.948        0.855       10.398       45.827       27.471       28.947     2100.081      754.661      837.910        0.190        0.185        2.128       23.072      117.557      330.565       -1.979      874.225
01/28/2022  00:52:00     -129.233       34.632      -22.919       45.135       33.956       24.940     2037.158     1153.005      622.024        1.112        0.191      133.793       24.200        0.033      330.637       -1.863      874.223
01/28/2022  00:53:00        7.320       11.043      -21.418       19.562       27.905       17.044      382.670      778.661      290.497        0.104        0.073       13.249       11.047        0.695      330.628       -1.877      874.214
01/28/2022  00:54:00       -0.721       -7.146      -16.876       27.964       27.873       25.284      782.001      776.898      639.298        0.127        0.110        7.182       17.875        6.194      330.725       -1.718      874.210
01/28/2022  00:55:00        9.768        0.859       -6.993       12.894       21.998       15.682      166.251      483.923      245.922        0.052        0.045        9.806       14.888        2.305      330.643       -1.853      874.221
01/28/2022  00:56:00      -10.475        6.739      -18.345       25.061       20.954       15.660      628.039      439.086      245.223        0.090        0.066       12.455       11.534        0.857      330.659       -1.826      874.236
01/28/2022  00:57:00        3.063       11.347       -8.046        7.787        9.608        7.702       60.639       92.321       59.319        0.021        0.011       11.753        4.213        0.128      330.635       -1.865      874.245
01/28/2022  00:58:00      -14.009       12.975      -23.757       13.588       16.861       10.112      184.632      284.298      102.246        0.075        0.029       19.095        6.769        0.126      330.588       -1.943      874.249
01/28/2022  00:59:00       -3.388        6.839       -8.931        8.861        6.864       13.085       78.511       47.119      171.217        0.022        0.015        7.632        7.776        1.038      330.974       -1.309      874.246
01/28/2022  01:00:00      -23.251       -4.049       -4.006       16.262       13.674       11.353      264.443      186.969      128.880        0.058        0.029       23.601        6.573        0.078      330.780       -1.627      874.242
01/28/2022  01:01:00      -21.299       -2.450      -13.159       20.288       20.144       14.625      411.622      405.792      213.897        0.083        0.052       21.439        6.859        0.102      330.672       -1.806      874.243
01/28/2022  01:02:00       -0.582        1.427        1.809       22.383       19.988       19.157      500.981      399.522      367.008        0.064        0.063        1.541       15.575      102.181      330.434       -2.195      874.249
01/28/2022  01:03:00      -29.322       -2.487       -2.623       33.261       25.672       16.838     1106.289      659.057      283.530        0.146        0.102       29.428       16.494        0.314      330.437       -2.190      874.253
01/28/2022  01:04:00      -66.977       -4.354       -6.369       34.600       25.555       23.538     1197.182      653.041      554.047        0.347        0.120       67.118       21.011        0.098      330.471       -2.135      874.251
01/28/2022  01:05:00      -85.295       -2.781      -11.270       36.035       22.216       22.510     1298.529      493.556      506.686        0.485        0.115       85.340       22.684        0.071      330.538       -2.025      874.260
01/28/2022  01:06:00      -94.371        8.804      -21.723       31.468       16.239       18.122      990.244      263.709      328.402        0.552        0.079       94.781       16.144        0.029      330.621       -1.888      874.257
01/28/2022  01:07:00      -57.975        2.358      -16.438       30.808       20.794       19.623      949.139      432.384      385.046        0.270        0.088       58.023       16.476        0.081      330.678       -1.796      874.248
01/28/2022  01:08:00      -76.510       19.373      -13.406       21.313       20.675       15.154      454.240      427.436      229.629        0.376        0.056       78.925        8.400        0.011      330.602       -1.921      874.243
01/28/2022  01:09:00      -74.631       29.022      -12.649       15.427       10.266       10.188      238.003      105.385      103.800        0.351        0.022       80.075        4.648        0.003      330.588       -1.944      874.240
01/28/2022  01:10:00      -95.854       31.008      -19.834       23.661       18.277       13.107      559.833      334.057      171.793        0.580        0.053      100.745        7.002        0.005      330.571       -1.972      874.243
01/28/2022  01:11:00     -115.932       30.633      -20.436       24.790       15.647       13.126      614.528      244.821      172.281        0.791        0.052      119.911        5.308        0.002      330.568       -1.977      874.245
01/28/2022  01:12:00      -82.700       24.145       -4.408       27.871       18.827       14.624      776.794      354.464      213.853        0.439        0.067       86.153       12.583        0.021      330.544       -2.016      874.246
01/28/2022  01:13:00      -60.877        6.674       -8.871       36.563       24.865       18.691     1336.862      618.292      349.339        0.307        0.115       61.242       15.618        0.065      330.573       -1.968      874.260
01/28/2022  01:14:00      -49.744       -1.099        0.074       32.340       22.225       16.289     1045.897      493.939      265.341        0.214        0.090       49.756       13.816        0.077      330.670       -1.808      874.273
01/28/2022  01:15:00      -61.105       -8.489        0.245       50.815       33.532       33.765     2582.157     1124.385     1140.102        0.433        0.242       61.692       30.057        0.237      330.444       -2.180      874.284
01/28/2022  01:16:00      -63.227        0.235      -12.363       47.292       23.490       20.438     2236.525      551.759      417.696        0.368        0.160       63.228       21.543        0.116      330.549       -2.006      874.276
01/28/2022  01:17:00      -30.337      -11.076       -2.848       31.448       18.001       18.150      988.997      324.029      329.407        0.135        0.082       32.296       19.169        0.352      330.537       -2.027      874.258
01/28/2022  01:18:00      -63.202      -17.896       -8.972       46.032       25.585       22.929     2118.941      654.615      525.749        0.385        0.165       65.687       25.664        0.153      330.509       -2.074      874.255
01/28/2022  01:19:00     -113.756       12.410       -8.633       32.262       31.198       22.750     1040.830      973.337      517.560        0.785        0.127      114.431       19.127        0.028      330.356       -2.323      874.255
01/28/2022  01:20:00      -43.400        1.893       -9.863       45.219       29.649       20.156     2044.770      879.038      406.264        0.266        0.167       43.441       13.209        0.092      330.335       -2.357      874.262
01/28/2022  01:21:00      -52.842       -8.235      -15.021       63.219       25.977       22.914     3996.611      674.806      525.069        0.414        0.260       53.480       19.586        0.134      330.400       -2.250      874.271
01/28/2022  01:22:00      -61.605       -3.257       -7.408       39.068       30.060       21.348     1526.325      903.626      455.721        0.337        0.144       61.691       16.545        0.072      330.402       -2.248      874.278
01/28/2022  01:23:00      -66.328        5.474       -4.249       43.854       28.343       22.036     1923.130      803.325      485.606        0.383        0.161       66.553       18.861        0.080      330.365       -2.310      874.287
01/28/2022  01:24:00      -81.296      -21.203       -2.008       71.377       32.140       31.394     5094.616     1032.989      985.584        0.709        0.356       84.016       34.329        0.167      330.443       -2.181      874.280
01/28/2022  01:25:00      -71.200       -4.574        3.513       54.184       35.179       30.939     2935.871     1237.589      957.234        0.512        0.257       71.347       28.906        0.164      330.368       -2.303      874.270
01/28/2022  01:26:00      -62.738       -2.039        1.458       53.567       37.539       32.476     2869.405     1409.180     1054.661        0.464        0.267       62.771       33.607        0.287      330.375       -2.291      874.260
01/28/2022  01:27:00      -83.718       -7.144       -9.443       46.289       29.035       23.708     2142.673      843.044      562.069        0.535        0.177       84.022       23.443        0.078      330.438       -2.190      874.266
01/28/2022  01:28:00      -62.802        2.237      -11.390       49.059       32.152       27.031     2406.794     1033.721      730.651        0.412        0.209       62.842       17.540        0.078      330.406       -2.242      874.280
01/28/2022  01:29:00      -35.060        6.777        7.332       47.851       32.188       28.027     2289.752     1036.096      785.521        0.272        0.206       35.709       24.658        0.477      330.490       -2.106      874.287
01/28/2022  01:30:00      -54.341       -8.289        4.938       39.767       39.562       30.114     1581.413     1565.157      906.882        0.355        0.203       54.970       19.195        0.122      330.526       -2.045      874.278
01/28/2022  01:31:00      -74.833       -6.983        0.161       49.251       45.190       22.087     2425.677     2042.178      487.851        0.530        0.248       75.159       21.451        0.081      330.559       -1.991      874.266
01/28/2022  01:32:00      -51.673       -9.348       -7.889       55.031       29.630       26.826     3028.418      877.950      719.616        0.372        0.231       52.512       29.839        0.323      330.567       -1.979      874.257
01/28/2022  01:33:00      -58.677      -21.462       -8.981       58.087       28.245       24.445     3374.126      797.763      597.562        0.438        0.238       62.478       29.564        0.224      330.533       -2.035      874.258
01/28/2022  01:34:00      -30.990        4.494       -7.338       28.221       28.446       20.791      796.442      809.195      432.281        0.154        0.102       31.315       10.252        0.107      330.526       -2.046      874.281
01/28/2022  01:35:00      -46.960       -9.770       -2.340       54.557       26.365       27.270     2976.487      695.138      743.630        0.336        0.221       47.966       32.551        0.461      330.499       -2.090      874.280
01/28/2022  01:36:00      -55.471        0.768        3.272       46.728       27.830       20.955     2183.476      774.536      439.091        0.324        0.170       55.476       18.659        0.113      330.493       -2.099      874.280
01/28/2022  01:37:00      -96.824      -12.100       -7.143       52.006       26.445       23.032     2704.589      699.327      530.469        0.675        0.197       97.577       14.899        0.023      330.529       -2.040      874.272
01/28/2022  01:38:00      -24.511        9.552        0.251       33.759       30.869       26.967     1139.684      952.925      727.208        0.176        0.141       26.306       22.626        0.740      330.402       -2.249      874.260
01/28/2022  01:39:00      -26.056       -9.628       -8.305       40.361       35.532       20.689     1628.999     1262.530      428.033        0.208        0.166       27.778       14.920        0.288      330.535       -2.031      874.270
01/28/2022  01:40:00      -86.852       22.173       -1.782       45.347       30.742       24.607     2056.393      945.072      605.497        0.582        0.180       89.638       21.728        0.059      330.515       -2.063      874.290
01/28/2022  01:41:00      -86.682       12.166       -3.499       51.413       30.054       24.101     2643.313      903.254      580.868        0.590        0.206       87.531       28.679        0.107      330.571       -1.970      874.304
01/28/2022  01:42:00      -64.675       18.232       -5.158       47.667       20.638       20.333     2272.180      425.946      413.414        0.383        0.156       67.196       25.918        0.149      330.462       -2.149      874.309
01/28/2022  01:43:00      -90.208       32.827       -9.174       32.601       19.373       23.224     1062.815      375.316      539.367        0.564        0.099       95.995       20.821        0.047      330.321       -2.381      874.295
01/28/2022  01:44:00      -80.902       30.398       -8.044       37.873       30.088       20.730     1434.390      905.308      429.737        0.515        0.138       86.425       20.439        0.056      330.306       -2.406      874.283
01/28/2022  01:45:00     -126.227       42.845       -8.731       47.342       27.290       25.078     2241.227      744.735      628.907        1.073        0.181      133.300       24.633        0.034      330.309       -2.401      874.281
01/28/2022  01:46:00     -101.514       26.015        6.125       60.277       38.297       28.210     3633.353     1466.663      795.825        0.846        0.295      104.794       30.670        0.086      330.270       -2.464      874.290
01/28/2022  01:47:00      -79.226       36.501        3.735       53.211       28.176       25.537     2831.462      793.909      652.141        0.595        0.214       87.230       26.362        0.091      330.193       -2.592      874.295
01/28/2022  01:48:00     -126.089       47.645       -3.662       51.738       39.598       26.073     2676.792     1568.012      679.824        1.155        0.246      134.790       25.108        0.035      330.285       -2.440      874.312
01/28/2022  01:49:00      -88.354       23.128      -17.122       44.682       39.460       20.745     1996.525     1557.126      430.340        0.631        0.199       91.331       15.985        0.031      330.380       -2.284      874.314
01/28/2022  01:50:00      -52.018        7.422       -3.650       44.943       34.020       28.602     2019.847     1157.339      818.079        0.338        0.200       52.545       23.931        0.207      330.297       -2.420      874.302
01/28/2022  01:51:00      -74.168       -5.820      -11.395       54.128       40.696       25.857     2929.868     1656.188      668.572        0.546        0.263       74.396       20.954        0.079      330.349       -2.335      874.302
01/28/2022  01:52:00      -19.385        6.648       -4.024       43.418       27.310       29.464     1885.165      745.863      868.121        0.197        0.175       20.493       22.387        1.193      330.322       -2.378      874.310
01/28/2022  01:53:00      -63.756       18.121       -3.010       34.653       32.168       26.195     1200.856     1034.796      686.201        0.366        0.146       66.282       17.969        0.073      330.238       -2.518      874.323
01/28/2022  01:54:00      -41.809        9.231       -7.010       34.564       34.560       27.992     1194.657     1194.394      783.568        0.253        0.159       42.816       20.427        0.228      330.315       -2.390      874.322
01/28/2022  01:55:00      -82.419        5.214      -16.418       42.522       27.252       22.379     1808.095      742.677      500.801        0.507        0.153       82.584       15.526        0.035      330.454       -2.163      874.317
01/28/2022  01:56:00      -89.892       26.958       -1.892       34.623       30.449       23.781     1198.748      927.121      565.513        0.575        0.135       93.847       19.765        0.044      330.361       -2.314      874.315
01/28/2022  01:57:00      -69.678       12.704        7.482       52.074       37.212       24.771     2711.708     1384.739      613.598        0.489        0.236       70.827       24.255        0.117      330.499       -2.089      874.332
01/28/2022  01:58:00     -111.170       28.191       -8.734       42.492       28.812       22.104     1805.532      830.127      488.583        0.818        0.156      114.688       19.981        0.030      330.516       -2.061      874.349
01/28/2022  01:59:00     -100.001       43.285      -10.983       31.340       24.005       20.321      982.178      576.259      412.960        0.698        0.099      108.967       17.412        0.026      330.359       -2.318      874.362
01/28/2022  02:00:00      -81.788       53.891       -7.662       54.499       25.368       24.912     2970.166      643.543      620.591        0.694        0.212       97.947       26.052        0.071      330.243       -2.509      874.375
01/28/2022  02:01:00      -93.476       48.496        6.572       53.570       34.062       28.912     2869.753     1160.238      835.883        0.800        0.243      105.307       29.294        0.077      330.234       -2.523      874.377
01/28/2022  02:02:00      -92.207       44.149       -3.170       45.078       33.294       26.271     2032.057     1108.476      690.153        0.715        0.192      102.231       19.957        0.038      330.170       -2.629      874.381
01/28/2022  02:03:00      -96.081       45.347      -11.656       34.188       30.671       19.303     1168.842      940.689      372.612        0.695        0.124      106.245        6.637        0.004      330.137       -2.684      874.379
01/28/2022  02:04:00      -69.394       13.647      -17.507       31.709       29.514       18.279     1005.486      871.077      334.116        0.376        0.111       70.723       14.416        0.042      330.233       -2.526      874.376
01/28/2022  02:05:00       10.154        4.322        4.368       18.960       25.648       19.691      359.498      657.815      387.727        0.077        0.070       11.035       11.107        1.013      330.174       -2.624      874.390
01/28/2022  02:06:00        9.381       -6.438      -21.806        9.260       12.274       10.434       85.751      150.645      108.870        0.048        0.017       11.377        6.495        0.326      330.318       -2.386      874.403
01/28/2022  02:07:00       10.929      -11.621      -22.112       14.357       19.869       12.137      206.121      394.788      147.312        0.075        0.037       15.953        6.177        0.150      330.346       -2.340      874.401
01/28/2022  02:08:00      -47.870       15.068      -13.736       34.482       16.528       14.788     1188.994      273.159      218.697        0.219        0.084       50.186        7.311        0.021      330.259       -2.483      874.389
01/28/2022  02:09:00      -35.862        5.031       -9.394       27.581       17.633       13.715      760.700      310.905      188.096        0.133        0.063       36.213        7.376        0.041      330.223       -2.542      874.381
01/28/2022  02:10:00       -8.866       -1.458       -0.294       26.967       13.392       11.515      727.195      179.353      132.591        0.056        0.052        8.985        8.004        0.794      330.183       -2.607      874.389
01/28/2022  02:11:00       -2.201        9.243        2.749       19.469       18.741        9.928      379.041      351.226       98.563        0.046        0.041        9.502        5.527        0.338      330.096       -2.750      874.395
01/28/2022  02:12:00      -32.429       19.811      -11.512       31.937       12.372        8.859     1019.980      153.079       78.484        0.141        0.063       38.001        8.293        0.048      330.192       -2.594      874.409
01/28/2022  02:13:00      -53.778       19.738       -8.842       18.765       20.000       11.779      352.132      400.013      138.745        0.213        0.045       57.286       12.047        0.044      330.193       -2.592      874.423
01/28/2022  02:14:00      -35.077        1.005       -9.791       26.466       17.980       12.261      700.450      323.286      150.338        0.125        0.059       35.092        7.642        0.047      330.205       -2.571      874.425
01/28/2022  02:15:00      -11.411        2.690       -1.403       16.991       15.751       12.007      288.683      248.097      144.178        0.041        0.034       11.723        9.219        0.618      330.235       -2.522      874.428
01/28/2022  02:16:00      -45.092       16.228       -5.348       35.331       12.483       13.453     1248.275      155.831      180.974        0.195        0.079       47.923       16.467        0.118      330.216       -2.552      874.435
01/28/2022  02:17:00      -19.922       -6.079       -4.923       32.286       16.415       12.454     1042.398      269.436      155.096        0.096        0.073       20.829       14.932        0.514      330.229       -2.532      874.439
01/28/2022  02:18:00      -11.714        1.754       -6.325       20.029       13.515       10.972      401.166      182.646      120.375        0.044        0.035       11.844        6.553        0.306      330.261       -2.479      874.443
01/28/2022  02:19:00      -39.099        9.936       -7.404       27.393       16.347       14.661      750.404      267.210      214.959        0.146        0.062       40.341        9.890        0.060      330.237       -2.519      874.442
01/28/2022  02:20:00      -15.981       -5.613       -6.625       30.658       17.819       13.113      939.926      317.531      171.957        0.088        0.071       16.938        9.316        0.302      330.165       -2.637      874.448
01/28/2022  02:21:00      -17.401        0.851        1.513       25.579       18.584       14.147      654.265      345.381      200.149        0.075        0.060       17.422       11.657        0.448      330.087       -2.766      874.472
01/28/2022  02:22:00      -32.865       -5.297       -1.924       26.172       20.786       18.093      684.974      432.053      327.349        0.128        0.072       33.289        8.189        0.061      330.163       -2.641      874.491
01/28/2022  02:23:00       -1.723        0.525       -2.721       15.656       16.922       14.651      245.095      286.350      214.645        0.038        0.037        1.801       13.344       54.901      330.178       -2.614      874.506
01/28/2022  02:24:00      -10.902        9.058        1.715       15.515       18.832       14.101      240.722      354.657      198.849        0.050        0.040       14.174       10.893        0.591      330.083       -2.770      874.495
01/28/2022  02:25:00      -14.423       -2.792       -9.598       18.752       15.960       12.169      351.645      254.725      148.092        0.053        0.038       14.690        9.738        0.439      330.202       -2.576      874.493
01/28/2022  02:26:00      -57.926       24.792       -8.272       11.192        9.739       10.873      125.266       94.844      118.216        0.219        0.017       63.009        5.970        0.009      330.053       -2.821      874.485
01/28/2022  02:27:00      -62.666       22.681       -8.559       18.858       13.306        9.674      355.635      177.050       93.582        0.257        0.031       66.645        7.417        0.012      330.079       -2.778      874.480
01/28/2022  02:28:00      -33.120        6.375       -2.998       33.411       19.519       10.046     1116.282      380.998      100.920        0.137        0.080       33.728       13.055        0.150      330.061       -2.808      874.475
01/28/2022  02:29:00      -34.464        2.725       -7.814       21.355       21.853       16.191      456.039      477.551      262.150        0.123        0.060       34.571       12.554        0.132      330.141       -2.677      874.472
01/28/2022  02:30:00      -36.676       -0.965       -7.561       23.300       16.935       15.410      542.903      286.804      237.464        0.123        0.053       36.688       14.016        0.146      330.117       -2.715      874.477
01/28/2022  02:31:00       -4.982       -5.386       -4.555       22.089       14.509       14.210      487.907      210.500      201.922        0.049        0.045        7.337        9.294        1.605      330.117       -2.716      874.493
01/28/2022  02:32:00      -13.351       -3.611       -2.841       27.959       21.537       12.353      781.682      463.852      152.599        0.080        0.070       13.831        8.469        0.375      330.131       -2.693      874.508
01/28/2022  02:33:00      -18.290       12.257       -4.870       24.147       29.853       13.373      583.077      891.207      178.841        0.108        0.083       22.017        7.421        0.114      330.053       -2.822      874.513
01/28/2022  02:34:00      -38.683       15.770        0.303       58.802       16.336       12.879     3457.702      266.866      165.869        0.282        0.195       41.774        7.386        0.031      329.909       -3.056      874.508
01/28/2022  02:35:00      -20.299       -1.599       -5.116       27.470       21.272       15.937      754.576      452.497      253.975        0.095        0.073       20.362        9.677        0.226      330.006       -2.897      874.507
01/28/2022  02:36:00      -16.652       -6.687      -12.873       24.230       17.416       11.355      587.103      303.334      128.929        0.075        0.051       17.945        6.118        0.116      330.071       -2.791      874.512
01/28/2022  02:37:00      -50.436        1.573      -15.064       14.377       16.937       10.408      206.702      286.873      108.326        0.169        0.030       50.461        5.395        0.011      330.041       -2.840      874.516
01/28/2022  02:38:00      -39.725       19.689      -16.078       12.277        9.011        8.993      150.734       81.197       80.871        0.127        0.016       44.336        6.513        0.022      329.973       -2.952      874.496
01/28/2022  02:39:00      -35.490       19.278       -2.839       17.515       11.902        9.210      306.766      141.654       84.825        0.109        0.027       40.388        7.722        0.037      330.056       -2.816      874.483
01/28/2022  02:40:00      -35.642       11.684      -10.080       15.333       13.669        8.959      235.094      186.853       80.261        0.101        0.025       37.508        7.601        0.041      329.972       -2.953      874.495
01/28/2022  02:41:00      -30.816        6.454       -6.500       23.372       18.217       15.461      546.245      331.862      239.049        0.108        0.056       31.484       12.813        0.166      330.053       -2.822      874.515
01/28/2022  02:42:00       -5.391      -19.189       -1.491       11.979       17.898       12.617      143.498      320.327      159.179        0.051        0.031       19.932        5.317        0.071      330.184       -2.607      874.516
01/28/2022  02:43:00       -2.475       -5.018       -2.187       11.169       17.893        7.749      124.750      320.153       60.050        0.027        0.025        5.595        4.615        0.680      330.095       -2.751      874.498
01/28/2022  02:44:00       -5.114       -3.946       -9.184       11.247       11.827       12.647      126.488      139.877      159.935        0.028        0.021        6.459        7.072        1.199      330.041       -2.841      874.498
01/28/2022  02:45:00        1.489       -9.741       -5.171       19.884       14.382       12.321      395.374      206.851      151.810        0.044        0.038        9.854       12.707        1.663      330.046       -2.832      874.515
01/28/2022  02:46:00       12.860       -0.741       -3.663        9.323       12.944        7.986       86.922      167.544       63.774        0.025        0.016       12.882        7.054        0.300      330.062       -2.807      874.519
01/28/2022  02:47:00        6.139       -7.911       -1.805        6.529        8.155        8.589       42.622       66.512       73.775        0.014        0.009       10.014        7.244        0.523      329.968       -2.959      874.504
01/28/2022  02:48:00      -12.913      -13.829        0.805        9.554       14.463       13.660       91.286      209.187      186.594        0.042        0.024       18.921        5.771        0.093      329.964       -2.965      874.498
01/28/2022  02:49:00      -29.540       10.477      -14.566        6.451        8.896        6.114       41.609       79.136       37.383        0.068        0.008       31.343        2.110        0.005      329.900       -3.071      874.499
01/28/2022  02:50:00      -16.214      -15.270       -4.599       13.409       14.137       14.104      179.813      199.852      198.930        0.055        0.029       22.272        5.128        0.053      329.955       -2.980      874.493
01/28/2022  02:51:00      -19.724       -8.353       -4.419       24.958       23.017       15.442      622.907      529.779      238.456        0.093        0.070       21.420       13.756        0.412      329.951       -2.986      874.484
01/28/2022  02:52:00      -18.957       16.500        0.166       24.158       16.736       12.708      583.613      280.105      161.484        0.083        0.051       25.132       14.054        0.313      329.922       -3.033      874.464
01/28/2022  02:53:00      -50.687       18.946       -9.110       16.708       14.756       11.270      279.173      217.729      127.011        0.182        0.031       54.112        4.905        0.008      329.883       -3.098      874.452
01/28/2022  02:54:00      -73.426       26.602      -18.466       14.044       12.548       10.824      197.239      157.451      117.158        0.346        0.024       78.097        5.997        0.006      329.867       -3.124      874.444
01/28/2022  02:55:00      -70.202       18.061      -20.764       16.188       18.805       13.253      262.047      353.637      175.642        0.324        0.040       72.488        4.968        0.005      329.871       -3.118      874.433
01/28/2022  02:56:00      -57.939        8.100       -9.855       27.509       23.318       16.248      756.729      543.726      263.982        0.254        0.078       58.502       15.306        0.068      329.851       -3.150      874.429
01/28/2022  02:57:00      -71.574       22.116      -13.968       18.760       12.958       14.402      351.945      167.899      207.411        0.327        0.036       74.913       11.246        0.023      329.773       -3.279      874.425
01/28/2022  02:58:00      -57.176       16.131      -11.921       14.244       12.064        9.833      202.882      145.552       96.693        0.206        0.022       59.408        6.971        0.014      329.805       -3.227      874.429
01/28/2022  02:59:00      -56.398       25.181      -10.044       17.353        9.941        8.074      301.128       98.827       65.191        0.219        0.023       61.764        9.365        0.023      329.817       -3.207      874.425
01/28/2022  03:00:00      -51.719        0.126       -7.750       23.029       20.501       13.574      530.325      420.280      184.260        0.193        0.057       51.719        9.133        0.031      329.891       -3.087      874.415
01/28/2022  03:01:00      -33.662       14.150       -6.424       23.059       29.950       13.513      531.725      897.017      182.600        0.149        0.081       36.515       11.860        0.105      329.888       -3.091      874.414
01/28/2022  03:02:00      -22.648       13.361       -1.875       18.260       15.440       12.587      333.416      238.388      158.431        0.071        0.037       26.295       10.479        0.159      329.673       -3.443      874.429
01/28/2022  03:03:00      -42.511        9.465       -7.807       23.476       12.396       14.369      551.119      153.658      206.463        0.143        0.046       43.552       10.434        0.057      329.786       -3.257      874.436
01/28/2022  03:04:00      -74.222       23.630       -7.085       13.684       13.291       10.230      187.249      176.644      104.652        0.329        0.023       77.893        6.381        0.007      329.828       -3.190      874.432
01/28/2022  03:05:00      -51.652        4.706       -9.183       26.123       23.013       12.242      682.411      529.611      149.875        0.207        0.068       51.866        9.087        0.031      329.870       -3.119      874.429
01/28/2022  03:06:00      -42.225       15.310       -4.336       27.577       17.164       14.235      760.481      294.600      202.634        0.165        0.063       44.915        9.342        0.043      329.827       -3.191      874.430
01/28/2022  03:07:00      -23.666        5.144       -3.649       25.547       15.754       12.833      652.633      248.197      164.690        0.083        0.053       24.218       10.459        0.187      329.915       -3.046      874.449
01/28/2022  03:08:00      -40.272        9.953       -1.819       21.600       17.056       13.705      466.569      290.923      187.822        0.133        0.047       41.484       10.460        0.064      329.839       -3.170      874.458
01/28/2022  03:09:00      -53.660       14.314      -13.068       20.756       21.025       11.278      430.801      442.057      127.202        0.213        0.050       55.536        8.480        0.023      329.823       -3.196      874.466
01/28/2022  03:10:00      -65.313       23.035       -7.319       17.021       16.068       12.849      289.718      258.184      165.106        0.278        0.036       69.255        5.293        0.006      329.791       -3.250      874.460
01/28/2022  03:11:00      -94.199       27.964      -12.175       13.107       14.666       13.993      171.796      215.104      195.793        0.519        0.029       98.262        7.243        0.005      329.799       -3.236      874.449
01/28/2022  03:12:00      -85.707       19.596       -9.478       17.582       18.826       13.788      309.120      354.422      190.122        0.434        0.043       87.919        7.377        0.007      329.785       -3.259      874.454
01/28/2022  03:13:00      -82.909       25.882       -9.408       15.431       15.085       14.663      238.122      227.565      215.009        0.416        0.034       86.855       10.727        0.015      329.762       -3.298      874.459
01/28/2022  03:14:00      -89.870       32.534      -19.811       13.856        9.849        9.252      191.996       96.996       85.601        0.495        0.019       95.578        4.484        0.002      329.688       -3.417      874.466
01/28/2022  03:15:00      -81.897       24.526      -19.439       26.559       19.723       14.582      705.367      389.014      212.634        0.450        0.065       85.490       13.367        0.024      329.690       -3.415      874.465
01/28/2022  03:16:00      -91.748       26.883       -9.484       18.256       16.254       12.410      333.281      264.202      154.006        0.499        0.038       95.606        8.564        0.008      329.605       -3.553      874.461
01/28/2022  03:17:00      -83.521       33.192      -11.860       18.460       13.174       12.580      340.765      173.542      158.249        0.445        0.034       89.875        3.310        0.001      329.524       -3.686      874.451
01/28/2022  03:18:00      -75.684       27.776      -24.417       11.692        9.662        9.676      136.692       93.362       93.633        0.371        0.016       80.620        6.271        0.006      329.643       -3.492      874.433
01/28/2022  03:19:00      -49.765       16.585      -22.412       19.765       17.865       14.524      390.640      319.171      210.950        0.209        0.046       52.456       12.689        0.059      329.655       -3.471      874.417
01/28/2022  03:20:00      -22.353       13.302      -13.683       16.937       13.056       10.493      286.858      170.449      110.093        0.072        0.028       26.012        9.477        0.133      329.599       -3.562      874.413
01/28/2022  03:21:00      -24.129       20.083      -16.243        7.488        7.720        5.623       56.068       59.598       31.623        0.070        0.007       31.394        2.294        0.005      329.734       -3.341      874.410
01/28/2022  03:22:00      -15.686       11.420      -11.458       13.041       10.962        9.082      170.078      120.167       82.477        0.044        0.019       19.403        4.937        0.065      329.805       -3.227      874.411
01/28/2022  03:23:00      -15.807        1.996       -7.296       14.017       14.483       11.342      196.471      209.746      128.630        0.042        0.027       15.932        4.801        0.091      329.598       -3.564      874.403
01/28/2022  03:24:00       -7.049        8.346       -4.694       11.102       20.835       16.023      123.262      434.115      256.748        0.048        0.041       10.925       11.258        1.062      329.499       -3.728      874.413
01/28/2022  03:25:00      -38.192        8.793       -9.236       30.577       26.194       14.353      934.929      686.126      206.006        0.172        0.091       39.191       14.406        0.135      329.524       -3.686      874.417
01/28/2022  03:26:00      -30.628       -2.658       -4.282       28.199       25.958       19.942      795.192      673.820      397.671        0.141        0.093       30.744       16.249        0.279      329.444       -3.816      874.419
01/28/2022  03:27:00      -56.905        6.750      -15.372       36.289       26.605       20.132     1316.912      707.840      405.289        0.297        0.122       57.304       20.401        0.127      329.431       -3.838      874.424
01/28/2022  03:28:00      -89.918       19.629      -15.046       31.687       19.030       18.219     1004.093      362.126      331.947        0.520        0.085       92.035       11.664        0.016      329.482       -3.755      874.412
01/28/2022  03:29:00      -62.144        7.355       -5.837       41.333       29.129       18.449     1708.436      848.513      340.381        0.342        0.145       62.578       15.558        0.062      329.482       -3.754      874.406
01/28/2022  03:30:00      -50.956        2.952      -12.246       33.604       29.534       24.442     1129.254      872.245      597.431        0.268        0.130       51.041       15.669        0.094      329.481       -3.756      874.395
01/28/2022  03:31:00      -80.031       12.477      -20.149       38.136       30.622       16.875     1454.361      937.677      284.774        0.482        0.134       80.997       13.162        0.026      329.426       -3.846      874.392
01/28/2022  03:32:00     -108.629       43.841      -17.773       19.467       25.786       15.487      378.978      664.906      239.848        0.766        0.064      117.142        9.027        0.006      329.412       -3.871      874.396
01/28/2022  03:33:00      -80.020       28.341      -16.033       19.138       21.089       13.018      366.261      444.725      169.476        0.422        0.049       84.891        9.223        0.012      329.458       -3.794      874.393
01/28/2022  03:34:00      -52.569       19.717      -18.144       14.147       16.337        9.548      200.124      266.894       91.173        0.202        0.028       56.145        6.835        0.015      329.450       -3.808      874.386
01/28/2022  03:35:00      -37.091       -0.203      -13.868       34.029       20.441       14.943     1157.980      417.850      223.294        0.168        0.090       37.091       16.855        0.207      329.592       -3.574      874.384
01/28/2022  03:36:00      -40.876        2.435      -10.836       29.566       21.525       14.379      874.132      463.324      206.753        0.167        0.077       40.948       12.790        0.098      329.497       -3.732      874.385
01/28/2022  03:37:00      -22.486      -19.471       -7.917       20.218       17.683       10.470      408.770      312.687      109.619        0.089        0.042       29.745        9.012        0.092      329.625       -3.521      874.392
01/28/2022  03:38:00      -12.605      -10.760       -8.159       12.351       12.719       11.797      152.547      161.779      139.177        0.040        0.023       16.573        8.696        0.275      329.665       -3.455      874.402
01/28/2022  03:39:00      -12.572      -19.682      -10.346       10.143       14.067        8.649      102.887      197.887       74.797        0.051        0.019       23.354        5.970        0.065      329.694       -3.407      874.409
01/28/2022  03:40:00      -31.798        9.209      -10.015       22.497       21.838       16.873      506.132      476.905      284.706        0.123        0.063       33.105       11.983        0.131      329.597       -3.568      874.410
01/28/2022  03:41:00      -21.527      -13.512      -12.346       30.248       17.731       18.004      914.913      314.375      324.159        0.118        0.078       25.416       16.963        0.445      329.549       -3.646      874.407
01/28/2022  03:42:00      -12.175       -7.682        5.222       23.797       21.328       14.742      566.300      454.888      217.322        0.074        0.062       14.396       13.162        0.836      329.627       -3.517      874.415
01/28/2022  03:43:00      -65.720       -0.712       -5.231       25.581       27.430       21.104      654.396      752.420      445.375        0.310        0.093       65.724        9.046        0.019      329.663       -3.457      874.415
01/28/2022  03:44:00      -71.480      -12.655      -11.020       31.998       32.305       20.366     1023.873     1043.611      414.759        0.394        0.124       72.592       17.255        0.056      329.610       -3.544      874.403
01/28/2022  03:45:00      -17.748       -2.566       -2.820       32.521       28.913       20.851     1057.643      835.975      434.764        0.133        0.116       17.932       13.330        0.553      329.546       -3.652      874.393
01/28/2022  03:46:00       -7.977       -4.702       -0.713       21.497       22.045       13.006      462.142      485.964      169.151        0.060        0.056        9.260        5.252        0.322      329.447       -3.811      874.378
01/28/2022  03:47:00        3.388        4.534       -0.819       31.305       16.670       14.604      980.030      277.895      213.272        0.075        0.074        5.660       11.616        4.213      329.447       -3.813      874.373
01/28/2022  03:48:00      -36.065       12.398       -8.379       40.061       35.214       15.327     1604.876     1240.056      234.922        0.230        0.154       38.137       13.681        0.129      329.451       -3.808      874.359
01/28/2022  03:49:00      -52.259       12.562       -3.355       47.704       27.104       26.066     2275.706      734.634      679.418        0.329        0.184       53.747       22.159        0.170      329.421       -3.855      874.338
01/28/2022  03:50:00      -84.422        9.051       -7.215       44.326       42.096       26.188     1964.780     1772.055      685.808        0.584        0.221       84.906       22.097        0.068      329.411       -3.872      874.334
01/28/2022  03:51:00     -114.628        4.113      -10.355       37.325       33.681       22.970     1393.132     1134.397      527.613        0.816        0.153      114.702       22.745        0.039      329.440       -3.825      874.340
01/28/2022  03:52:00      -85.549       14.200       -5.552       41.723       27.339       23.650     1740.842      747.412      559.316        0.530        0.152       86.719       21.203        0.060      329.383       -3.917      874.348
01/28/2022  03:53:00      -92.065       35.746       -4.235       33.379       32.314       18.790     1114.130     1044.195      353.050        0.614        0.126       98.761       21.086        0.046      329.366       -3.944      874.349
01/28/2022  03:54:00     -104.455       26.432       -3.141       38.607       25.773       23.404     1490.522      664.230      547.730        0.716        0.135      107.747       21.738        0.041      329.393       -3.900      874.340
01/28/2022  03:55:00      -37.121        6.876        5.689       44.755       20.509       18.595     2003.016      420.600      345.782        0.211        0.138       37.753       16.220        0.185      329.434       -3.834      874.327
01/28/2022  03:56:00      -69.824       21.372      -13.061       32.880       16.011       16.056     1081.119      256.346      257.798        0.355        0.080       73.021       17.589        0.058      329.431       -3.838      874.303
01/28/2022  03:57:00      -84.256       31.558      -13.226       20.004       11.529       17.953      400.148      132.926      322.298        0.456        0.043       89.972       12.718        0.020      329.410       -3.873      874.297
01/28/2022  03:58:00      -48.953       25.864      -10.723       42.091       26.387       27.883     1771.655      696.273      777.480        0.321        0.162       55.366       25.837        0.218      329.423       -3.852      874.287
01/28/2022  03:59:00      -81.406        1.271       -4.621       35.813       31.611       21.771     1282.592      999.269      473.957        0.470        0.138       81.416       16.527        0.041      329.488       -3.745      874.280
01/28/2022  04:00:00      -61.460       26.989       -4.943       59.889       31.278       21.910     3586.675      978.334      480.068        0.479        0.252       67.125       22.716        0.115      329.383       -3.917      874.279
01/28/2022  04:01:00      -94.953       16.973      -24.966       59.927       29.691       15.942     3591.279      881.583      254.148        0.733        0.236       96.458       14.019        0.021      329.385       -3.913      874.273
01/28/2022  04:02:00      -68.562       -4.487      -14.301       47.020       37.516       22.587     2210.895     1407.462      510.164        0.453        0.206       68.709       14.931        0.047      329.390       -3.906      874.274
01/28/2022  04:03:00      -55.339       -6.263       -8.315       31.499       32.740       24.371      992.163     1071.925      593.956        0.291        0.133       55.692       17.705        0.101      329.336       -3.994      874.290
01/28/2022  04:04:00      -79.615        7.684       -9.745       28.145       20.372       16.131      792.125      415.038      260.224        0.398        0.073       79.985       13.734        0.029      329.415       -3.864      874.294
01/28/2022  04:05:00      -64.826        3.361       -6.758       31.559       26.872       18.309      995.940      722.101      335.231        0.316        0.103       64.913       10.673        0.027      329.380       -3.923      874.291
01/28/2022  04:06:00      -96.186       22.515      -17.412       28.616       23.224       15.011      818.901      539.369      225.318        0.582        0.079       98.786        7.568        0.006      329.295       -4.060      874.290
01/28/2022  04:07:00      -70.585        9.086       -1.938       42.257       25.079       19.561     1785.636      628.937      382.628        0.393        0.140       71.168       14.332        0.041      329.261       -4.117      874.288
01/28/2022  04:08:00      -38.219       13.070      -11.705       43.916       37.904       25.904     1928.603     1436.723      671.000        0.290        0.202       40.392       29.774        0.543      329.369       -3.940      874.301
01/28/2022  04:09:00      -70.587       12.502       -2.732       57.428       28.165       24.201     3297.980      793.289      585.665        0.491        0.234       71.685       18.993        0.070      329.339       -3.990      874.305
01/28/2022  04:10:00     -104.256        1.299       -9.266       56.008       31.001       24.435     3136.842      961.084      597.070        0.783        0.235      104.264       24.349        0.055      329.251       -4.133      874.294
01/28/2022  04:11:00      -26.826       -3.110        0.405       64.494       41.130       30.334     4159.501     1691.702      920.153        0.375        0.339       27.006       31.670        1.375      329.258       -4.121      874.283
01/28/2022  04:12:00     -118.141       23.197       -0.493       51.469       37.789       27.661     2649.053     1428.008      765.147        0.967        0.242      120.397       17.889        0.022      329.383       -3.916      874.284
01/28/2022  04:13:00     -109.412       26.874        3.406       47.006       37.433       23.898     2209.537     1401.201      571.125        0.844        0.209      112.664       24.391        0.047      329.442       -3.821      874.301
01/28/2022  04:14:00     -112.346       23.405       -3.324       51.289       30.142       21.504     2630.541      908.549      462.443        0.859        0.200      114.758       23.217        0.041      329.469       -3.776      874.317
01/28/2022  04:15:00     -101.157       12.626       -4.109       40.878       28.410       20.558     1671.023      807.111      422.622        0.665        0.145      101.942       18.348        0.032      329.521       -3.691      874.318
01/28/2022  04:16:00      -80.367        9.839        3.581       47.299       37.363       29.136     2237.199     1395.965      848.900        0.552        0.224       80.967       27.736        0.117      329.489       -3.743      874.306
01/28/2022  04:17:00     -108.654       16.894       -6.417       39.166       29.660       26.598     1533.967      879.697      707.469        0.763        0.156      109.960       21.986        0.040      329.479       -3.761      874.298
01/28/2022  04:18:00      -84.895       19.714        8.096       63.573       35.997       26.640     4041.484     1295.816      709.702        0.685        0.302       87.154       32.054        0.135      329.471       -3.774      874.299
01/28/2022  04:19:00      -71.529       16.429       -0.918       52.841       34.147       22.627     2792.176     1166.019      511.966        0.493        0.224       73.391       17.963        0.060      329.439       -3.827      874.298
01/28/2022  04:20:00      -88.734       22.038       -4.095       51.542       31.223       25.609     2656.540      974.885      655.834        0.633        0.214       91.430       22.158        0.059      329.380       -3.921      874.290
01/28/2022  04:21:00     -107.363       24.837      -12.727       29.653       35.077       16.765      879.315     1230.393      281.066        0.735        0.120      110.198       12.587        0.013      329.441       -3.820      874.292
01/28/2022  04:22:00      -94.947       52.100      -12.810       19.402       24.213       15.176      376.446      586.264      230.315        0.654        0.060      108.302        9.300        0.007      329.307       -4.040      874.299
01/28/2022  04:23:00      -99.124       51.595      -14.157       29.069       22.437       18.380      844.979      503.432      337.842        0.719        0.084      111.748       12.022        0.012      329.289       -4.070      874.294
01/28/2022  04:24:00     -137.947       39.257       -7.578       36.862       21.195       22.224     1358.806      449.231      493.919        1.146        0.115      143.424       22.401        0.024      329.298       -4.054      874.278
01/28/2022  04:25:00      -54.512       -5.929      -13.978       49.433       43.810       23.849     2443.631     1919.339      568.768        0.407        0.247       54.834       19.854        0.131      329.377       -3.927      874.254
01/28/2022  04:26:00     -123.069        5.154      -14.863       41.714       35.499       22.124     1740.051     1260.204      489.458        0.944        0.174      123.177        7.577        0.004      329.376       -3.927      874.242
01/28/2022  04:27:00       -6.486       -1.698        3.225       31.102       31.736       26.279      967.309     1007.160      690.567        0.136        0.133        6.704       17.366        6.709      329.309       -4.038      874.243
01/28/2022  04:28:00      -22.582        6.987       -2.774       30.240       26.370       18.611      914.442      695.403      346.377        0.126        0.098       23.638       17.363        0.540      329.335       -3.994      874.257
01/28/2022  04:29:00      -99.712       16.880      -11.729       34.160       33.698       24.630     1166.932     1135.559      606.619        0.664        0.145      101.130       18.053        0.032      329.317       -4.025      874.251
01/28/2022  04:30:00     -100.922       21.374        1.804       39.338       27.983       22.812     1547.500      783.047      520.373        0.675        0.143      103.161       19.998        0.038      329.285       -4.078      874.250
01/28/2022  04:31:00      -77.180       20.531       -5.401       26.366       38.227       23.390      695.183     1461.297      547.077        0.456        0.135       79.864       17.230        0.047      329.271       -4.101      874.241
01/28/2022  04:32:00     -121.665       32.468       -7.675       37.305       26.474       17.657     1391.671      700.850      311.781        0.916        0.120      125.923       17.887        0.020      329.346       -3.976      874.237
01/28/2022  04:33:00     -134.573       36.401       -7.404       31.135       31.694       19.424      969.384     1004.516      377.307        1.092        0.118      139.409       16.206        0.014      329.360       -3.955      874.226
01/28/2022  04:34:00      -83.737        7.354      -12.507       39.916       24.576       20.649     1593.253      603.988      426.373        0.492        0.131       84.059       19.770        0.055      329.364       -3.948      874.208
01/28/2022  04:35:00      -71.109        9.900       -9.204       18.325       23.785       16.953      335.811      565.723      287.406        0.321        0.059       71.795       10.409        0.021      329.278       -4.089      874.210
01/28/2022  04:36:00      -96.070       19.936      -14.908       30.339       27.031       13.399      920.469      730.663      179.520        0.584        0.092       98.117        7.086        0.005      329.342       -3.984      874.220
01/28/2022  04:37:00     -154.659       25.823      -12.561       33.099       28.897       20.863     1095.517      835.030      435.282        1.355        0.118      156.800       16.080        0.011      329.312       -4.033      874.225
01/28/2022  04:38:00      -99.399        3.187       -2.825       59.967       39.000       33.868     3596.003     1520.995     1147.008        0.808        0.313       99.450       29.715        0.089      329.250       -4.134      874.222
01/28/2022  04:39:00        1.119        0.162        5.111       21.164       20.718       24.916      447.914      429.244      620.821        0.076        0.075        1.131       12.545      123.088      329.259       -4.118      874.216
01/28/2022  04:40:00      -85.495        9.476      -14.753       65.317       50.741       26.692     4266.342     2574.610      712.482        0.758        0.378       86.019       28.038        0.106      329.260       -4.118      874.220
01/28/2022  04:41:00     -108.115       43.097      -25.621       49.266       43.768       24.840     2427.182     1915.660      617.006        0.958        0.248      116.389       13.431        0.013      329.192       -4.228      874.219
01/28/2022  04:42:00      -36.819      -10.854      -17.432       38.221       37.098       21.520     1460.842     1376.266      463.093        0.254        0.165       38.385       21.986        0.328      329.224       -4.177      874.232
01/28/2022  04:43:00        8.057       11.483       -8.647       21.611       19.064        9.703      467.023      363.433       94.145        0.060        0.046       14.028        4.880        0.121      329.275       -4.092      874.242
01/28/2022  04:44:00      -77.861       22.743      -12.315       60.371       27.494       19.132     3644.638      755.940      366.030        0.575        0.238       81.115       21.268        0.069      329.317       -4.025      874.242
01/28/2022  04:45:00     -141.663       33.253      -15.264       44.689       33.421       22.412     1997.070     1116.974      502.279        1.251        0.181      145.513        9.109        0.004      329.261       -4.115      874.222
01/28/2022  04:46:00     -102.662       29.128      -11.751       66.452       36.722       23.049     4415.813     1348.469      531.253        0.891        0.315      106.714       11.528        0.012      329.212       -4.197      874.205
01/28/2022  04:47:00     -134.011       20.851      -17.927       57.110       35.704       27.135     3261.558     1274.795      736.290        1.199        0.264      135.624       16.239        0.014      329.198       -4.218      874.204
01/28/2022  04:48:00      -81.380       42.541       -1.095       55.744       33.677       28.965     3107.364     1134.133      838.989        0.676        0.254       91.828       25.610        0.078      329.062       -4.441      874.214
01/28/2022  04:49:00      -60.106       19.926       -0.120       40.618       31.731       19.699     1649.825     1006.836      388.063        0.353        0.152       63.323       17.447        0.076      329.191       -4.231      874.222
01/28/2022  04:50:00      -25.146       15.591       -2.146       19.806       16.251       14.945      392.290      264.099      223.351        0.088        0.044       29.587        7.426        0.063      329.190       -4.232      874.239
01/28/2022  04:51:00        2.673       -2.688        1.615       20.703       15.333       10.311      428.594      235.088      106.310        0.039        0.038        3.791        5.025        1.757      329.274       -4.095      874.239
01/28/2022  04:52:00      -43.077       -8.163       -9.397       28.894       22.053       15.917      834.874      486.351      253.360        0.179        0.079       43.843       13.991        0.102      329.356       -3.961      874.226
01/28/2022  04:53:00      -10.221        3.733      -14.194       24.848       17.196       11.794      617.429      295.709      139.096        0.069        0.053       10.881        6.381        0.344      329.406       -3.879      874.225
01/28/2022  04:54:00      -13.118       -8.172      -21.727       15.746       11.446       15.065      247.948      131.016      226.959        0.066        0.030       15.455       11.351        0.539      329.521       -3.690      874.232
01/28/2022  04:55:00      -36.872       -1.116      -21.214       31.002       10.700        9.444      961.099      114.487       89.197        0.149        0.058       36.889        6.297        0.029      329.569       -3.612      874.252
01/28/2022  04:56:00     -103.381       11.286      -19.270       11.112       13.187       12.515      123.487      173.896      156.621        0.582        0.023      103.995        4.903        0.002      329.556       -3.635      874.268
01/28/2022  04:57:00     -105.427       12.803      -17.878       30.949       28.005       18.885      957.827      784.260      356.648        0.685        0.105      106.201       10.912        0.011      329.469       -3.776      874.282
01/28/2022  04:58:00      -34.317      -17.597        0.172       39.826       25.819       29.587     1586.143      666.645      875.403        0.231        0.156       38.565       21.301        0.305      329.318       -4.023      874.304
01/28/2022  04:59:00      -76.240       18.203       -2.435       51.732       39.738       29.328     2676.213     1579.129      860.143        0.563        0.256       78.383       16.583        0.045      329.242       -4.147      874.310
01/28/2022  05:00:00      -68.687       21.598       -3.812       37.894       29.764       34.101     1435.940      885.921     1162.859        0.434        0.174       72.003       17.787        0.061      329.322       -4.017      874.302
01/28/2022  05:01:00     -112.036        6.663       -9.866       43.753       22.723       25.271     1914.338      516.333      638.624        0.788        0.153      112.234       14.637        0.017      329.378       -3.925      874.291
01/28/2022  05:02:00      -55.767      -10.445       -4.688       46.183       28.565       29.954     2132.853      815.983      897.254        0.354        0.192       56.737       28.752        0.257      329.302       -4.049      874.276
01/28/2022  05:03:00       -4.490        4.963       -6.576       31.004       27.033       24.580      961.265      730.791      604.187        0.119        0.115        6.693       15.659        5.474      329.292       -4.064      874.277
01/28/2022  05:04:00      -12.708       -6.937        0.223       47.344       22.088       20.381     2241.485      487.894      415.383        0.168        0.157       14.478       20.127        1.933      329.281       -4.084      874.294
01/28/2022  05:05:00      -56.600      -27.128       -2.036       61.158       38.079       26.661     3740.355     1449.990      710.830        0.492        0.295       62.765       24.787        0.156      329.168       -4.268      874.304
01/28/2022  05:06:00      -86.394      -13.364        0.205       55.235       37.398       29.495     3050.904     1398.579      869.981        0.648        0.266       87.422       19.681        0.051      329.086       -4.402      874.320
01/28/2022  05:07:00      -61.034      -13.709      -14.606       46.146       32.683       28.774     2129.415     1068.183      827.941        0.408        0.201       62.555       20.982        0.113      329.224       -4.177      874.334
01/28/2022  05:08:00      -49.750       11.563       -2.120       45.021       31.939       27.757     2026.891     1020.112      770.459        0.321        0.191       51.076       21.148        0.171      329.161       -4.279      874.340
01/28/2022  05:09:00      -90.423      -15.914       -5.811       61.889       32.072       30.877     3830.225     1028.639      953.389        0.714        0.291       91.813       29.716        0.105      329.101       -4.376      874.338
01/28/2022  05:10:00      -63.883       -5.555       -5.448       38.988       31.045       27.242     1520.101      963.778      742.141        0.368        0.161       64.124       23.335        0.132      329.069       -4.429      874.340
01/28/2022  05:11:00      -49.041        4.927       -8.912       46.173       25.401       16.421     2131.983      645.236      269.650        0.278        0.152       49.288       19.647        0.159      329.175       -4.257      874.337
01/28/2022  05:12:00       -8.667       10.303      -12.580       26.243       15.299       15.930      688.696      234.070      253.763        0.076        0.059       13.464       11.277        0.702      329.075       -4.420      874.309
01/28/2022  05:13:00      -36.073       21.233      -10.521       22.874       17.092       14.890      523.224      292.142      221.715        0.145        0.052       41.858       10.353        0.061      329.098       -4.382      874.272
01/28/2022  05:14:00       -8.425       11.482      -12.662       20.848       21.548       19.764      434.620      464.321      390.634        0.083        0.064       14.241       10.150        0.508      329.097       -4.383      874.277
01/28/2022  05:15:00        1.833        8.603       -6.470       21.682       21.107       18.918      470.104      445.486      357.885        0.070        0.064        8.796       14.569        2.743      329.113       -4.359      874.294
01/28/2022  05:16:00       -5.680       -9.122       -5.244       45.749       24.517       21.098     2093.003      601.061      445.130        0.164        0.157       10.746       17.077        2.526      329.056       -4.450      874.293
01/28/2022  05:17:00      -33.687       -2.542       -4.521       33.255       28.596       16.567     1105.874      817.715      274.454        0.168        0.110       33.782        9.152        0.073      329.084       -4.405      874.275
01/28/2022  05:18:00      -62.165       -8.499       -6.299       31.370       18.919       18.051      984.077      357.936      325.827        0.282        0.083       62.743       16.523        0.069      329.122       -4.344      874.275
01/28/2022  05:19:00      -37.437        8.015       -8.209       12.796       16.944       13.727      163.745      287.106      188.423        0.109        0.032       38.286        6.101        0.025      329.197       -4.222      874.265
01/28/2022  05:20:00      -47.475       -3.829      -13.688       32.142       27.852       24.327     1033.097      775.712      591.814        0.243        0.120       47.629       20.521        0.186      329.194       -4.226      874.265
01/28/2022  05:21:00      -12.118       -7.682       -4.446       30.109       25.856       22.946      906.526      668.514      526.510        0.116        0.105       14.347       17.137        1.427      329.114       -4.356      874.275
01/28/2022  05:22:00      -26.195       -7.271       -6.925       19.209       17.536       13.926      368.967      307.510      193.944        0.083        0.044       27.185       11.922        0.192      329.142       -4.310      874.294
01/28/2022  05:23:00      -60.103        2.081       -9.122       27.084       19.038       16.641      733.560      362.455      276.917        0.254        0.069       60.139        5.975        0.010      329.257       -4.124      874.291
01/28/2022  05:24:00      -83.924      -10.945       -8.631       28.979       21.333       18.809      839.796      455.083      353.782        0.444        0.082       84.634       11.203        0.018      329.242       -4.146      874.280
01/28/2022  05:25:00      -61.206      -18.755       -9.750       68.640       42.216       28.611     4711.472     1782.172      818.604        0.575        0.366       64.015       33.095        0.267      329.252       -4.130      874.268
01/28/2022  05:26:00      -65.912      -29.625      -15.575       33.822       31.792       17.915     1143.944     1010.738      320.943        0.397        0.124       72.264       11.663        0.026      329.196       -4.222      874.280
01/28/2022  05:27:00     -131.602       13.552      -21.929       40.615       17.011       17.350     1649.546      289.383      301.026        1.011        0.112      132.298       19.119        0.021      329.087       -4.400      874.293
01/28/2022  05:28:00     -116.513       20.085      -10.817       52.130       37.292       20.687     2717.563     1390.667      427.940        0.932        0.227      118.231       24.979        0.045      329.072       -4.424      874.267
01/28/2022  05:29:00      -31.119      -19.061       -3.292       28.103       22.386       21.841      789.771      501.149      477.016        0.155        0.088       36.493       17.806        0.238      329.215       -4.192      874.270
01/28/2022  05:30:00      -16.491       -5.216       -1.047       16.203       18.838       17.494      262.552      354.888      306.032        0.061        0.046       17.296       14.383        0.692      329.212       -4.197      874.264
01/28/2022  05:31:00      -22.577       -1.040       -7.654       37.419       26.424       16.756     1400.210      698.248      280.755        0.147        0.119       22.601       15.203        0.452      329.167       -4.270      874.249
01/28/2022  05:32:00      -84.438      -12.826        1.865       59.119       38.797       34.147     3495.043     1505.183     1166.023        0.673        0.308       85.407       35.532        0.173      329.093       -4.390      874.228
01/28/2022  05:33:00     -102.620      -19.972       -1.091       67.226       40.073       34.820     4519.279     1605.869     1212.447        0.913        0.367      104.545       35.119        0.113      329.064       -4.437      874.218
01/28/2022  05:34:00     -129.335      -18.800       -1.160       47.304       37.518       28.727     2237.714     1407.572      825.265        1.078        0.224      130.694       24.243        0.034      329.039       -4.479      874.228
01/28/2022  05:35:00     -132.804      -17.388       -7.755       67.658       46.057       41.081     4577.647     2121.232     1687.614        1.319        0.419      133.937       34.770        0.067      328.995       -4.551      874.245
01/28/2022  05:36:00     -160.287       -9.280      -13.853       48.831       53.090       31.326     2384.472     2818.529      981.349        1.608        0.309      160.556       25.759        0.026      328.896       -4.711      874.253
01/28/2022  05:37:00     -126.735      -21.274      -19.751       71.968       44.510       30.822     5179.398     1981.179      949.986        1.251        0.406      128.508       32.537        0.064      328.904       -4.698      874.259
01/28/2022  05:38:00     -201.397       -5.816      -16.883       35.900       42.347       31.948     1288.774     1793.288     1020.700        2.249        0.205      201.481       19.782        0.010      328.828       -4.823      874.255
01/28/2022  05:39:00     -148.614       -7.752      -16.820       57.870       35.616       35.081     3348.969     1268.468     1230.684        1.414        0.292      148.816       31.965        0.046      328.786       -4.893      874.242
01/28/2022  05:40:00      -73.921      -14.591       -9.298       83.675       52.454       42.006     7001.446     2751.377     1764.485        0.864        0.576       75.347       38.092        0.256      328.721       -4.998      874.236
01/28/2022  05:41:00      -73.295       11.787       -6.834       76.643       41.053       36.248     5874.153     1685.381     1313.910        0.721        0.444       74.236       21.569        0.084      328.738       -4.971      874.246
01/28/2022  05:42:00     -102.470        2.192       -9.577       62.906       46.791       41.413     3957.131     2189.395     1715.043        0.923        0.393      102.493       37.803        0.136      328.773       -4.914      874.255
01/28/2022  05:43:00     -114.526        9.999      -11.259       59.343       44.802       31.012     3521.634     2007.240      961.740        0.992        0.325      114.962       24.771        0.046      328.785       -4.894      874.258
01/28/2022  05:44:00     -117.996      -10.664      -16.874       47.898       36.559       27.011     2294.173     1336.530      729.586        0.934        0.218      118.476       25.323        0.046      328.852       -4.785      874.265
01/28/2022  05:45:00      -93.398       -0.360      -13.866       31.208       24.268       22.926      973.964      588.953      525.606        0.550        0.104       93.399       15.681        0.028      328.869       -4.756      874.289
01/28/2022  05:46:00      -61.044        9.649       -1.219       45.418       39.138       23.098     2062.753     1531.808      533.526        0.397        0.206       61.802       14.653        0.056      328.952       -4.621      874.309
01/28/2022  05:47:00      -55.518        9.667        1.529       45.050       26.378       21.449     2029.478      695.808      460.047        0.318        0.159       56.354       20.818        0.136      328.953       -4.620      874.313
01/28/2022  05:48:00      -89.878       11.941       -1.605       42.283       31.416       19.576     1787.861      986.985      383.232        0.569        0.158       90.667       19.041        0.044      329.106       -4.368      874.311
01/28/2022  05:49:00      -97.293       18.968       -6.554       27.666       19.848       15.534      765.405      393.928      241.303        0.563        0.070       99.125       13.990        0.020      329.103       -4.374      874.311
01/28/2022  05:50:00     -115.606       28.749       -5.636       28.912       28.719       18.671      835.898      824.788      348.599        0.812        0.100      119.127       15.255        0.016      329.040       -4.477      874.303
01/28/2022  05:51:00      -99.556        5.417      -13.866       35.306       33.261       22.251     1246.520     1106.277      495.091        0.649        0.142       99.704       10.200        0.010      329.148       -4.301      874.306
01/28/2022  05:52:00     -129.966       32.528      -10.961       32.948       26.130       19.842     1085.590      682.757      393.715        1.012        0.108      133.975       16.674        0.015      329.131       -4.329      874.308
01/28/2022  05:53:00      -66.965       13.501       -5.738       52.197       31.135       21.072     2724.478      969.368      444.013        0.442        0.207       68.313       18.345        0.072      329.158       -4.285      874.310
01/28/2022  05:54:00     -106.804       27.549       -7.675       45.736       50.556       25.702     2091.749     2555.898      660.617        0.877        0.265      110.300       23.118        0.044      329.063       -4.439      874.333
01/28/2022  05:55:00      -82.460       19.522       -7.839       43.175       34.631       20.917     1864.077     1199.339      437.514        0.537        0.175       84.740       20.202        0.057      329.072       -4.425      874.355
01/28/2022  05:56:00      -95.986       49.675       -3.110       40.147       22.296       19.887     1611.761      497.109      395.511        0.710        0.125      108.079       17.080        0.025      329.052       -4.456      874.363
01/28/2022  05:57:00      -96.324       52.195      -13.057       38.508       22.934       19.953     1482.874      525.977      398.124        0.729        0.120      109.557       18.145        0.027      329.137       -4.318      874.361
01/28/2022  05:58:00      -78.331       27.163       -4.709       42.436       25.263       20.936     1800.812      638.225      438.320        0.489        0.144       82.907       21.867        0.070      329.198       -4.218      874.355
01/28/2022  05:59:00      -73.138       38.229       -5.452       38.892       37.427       25.051     1512.592     1400.803      627.554        0.519        0.177       82.526       18.409        0.050      329.305       -4.044      874.333
01/28/2022  06:00:00      -73.550       12.269       -2.870       41.433       31.121       21.994     1716.702      968.492      483.724        0.437        0.158       74.566       17.961        0.058      329.298       -4.055      874.317
01/28/2022  06:01:00      -27.055       10.555       -8.532       50.234       23.150       26.978     2523.483      535.942      727.825        0.235        0.189       29.041       26.725        0.847      329.336       -3.991      874.318
01/28/2022  06:02:00      -30.666        0.435       -6.911       43.257       30.683       20.745     1871.156      941.474      430.366        0.212        0.162       30.669       16.339        0.284      329.277       -4.090      874.332
01/28/2022  06:03:00       -5.968       10.847       -5.421       18.637       24.826       15.501      347.347      616.317      240.268        0.069        0.060       12.381        8.011        0.419      329.225       -4.174      874.343
01/28/2022  06:04:00      -44.653       18.641      -27.664       39.798       20.821       26.870     1583.912      433.508      721.998        0.292        0.137       48.388       28.759        0.353      329.183       -4.243      874.351
01/28/2022  06:05:00      -45.223       11.213      -12.448       29.697       25.588       22.906      881.883      654.741      524.701        0.219        0.103       46.593       16.089        0.119      329.166       -4.271      874.353
01/28/2022  06:06:00      -82.028       27.052      -27.067       21.921       17.304       16.924      480.529      299.429      286.435        0.463        0.053       86.374        5.449        0.004      329.332       -4.000      874.354
01/28/2022  06:07:00      -51.151       12.233      -20.558       20.337       18.257       18.986      413.610      333.320      360.468        0.215        0.055       52.594        9.104        0.030      329.369       -3.939      874.347
01/28/2022  06:08:00      -49.471       -6.017      -18.798       26.448       21.728       18.759      699.473      472.099      351.907        0.218        0.076       49.836       15.446        0.096      329.248       -4.137      874.354
01/28/2022  06:09:00       -5.172        0.473       -0.200       19.515       13.192       12.402      380.821      174.037      153.816        0.037        0.035        5.193        3.002        0.334      329.278       -4.088      874.374
01/28/2022  06:10:00      -23.321        3.636       -8.621       21.854       15.075       11.196      477.618      227.271      125.356        0.073        0.042       23.603        6.508        0.076      329.331       -4.003      874.383
01/28/2022  06:11:00       -9.810        5.277      -16.931       16.998       22.874       16.476      288.919      523.233      271.471        0.075        0.054       11.140       12.309        1.221      329.166       -4.272      874.381
01/28/2022  06:12:00      -15.515       -2.403       -5.013       29.993       19.098       19.237      899.578      364.745      370.043        0.095        0.082       15.700       19.129        1.485      329.104       -4.373      874.379
01/28/2022  06:13:00      -32.618        0.856      -13.640       20.375       25.896       21.325      415.158      670.613      454.768        0.140        0.077       32.629       17.344        0.283      329.145       -4.304      874.391
01/28/2022  06:14:00      -74.651      -17.350      -23.531       26.901       22.248       22.433      723.637      494.972      503.219        0.407        0.086       76.641       14.478        0.036      329.156       -4.286      874.410
01/28/2022  06:15:00      -55.543        1.822       -5.980       49.444       21.077       21.646     2444.696      444.246      468.559        0.324        0.168       55.573       24.136        0.189      329.221       -4.182      874.433
01/28/2022  06:16:00      -82.763       -0.189       -4.343       30.330       23.114       18.510      919.915      534.267      342.638        0.433        0.090       82.763       17.722        0.046      329.221       -4.182      874.443
01/28/2022  06:17:00      -53.077       -2.624       -6.149       41.193       20.515       14.185     1696.833      420.878      201.203        0.259        0.116       53.141       15.255        0.082      329.324       -4.013      874.449
01/28/2022  06:18:00      -20.716       -3.132       -7.638       26.077       20.811       17.504      679.985      433.092      306.379        0.096        0.071       20.952       15.475        0.546      329.289       -4.069      874.450
01/28/2022  06:19:00      -51.654      -10.163       -7.979       31.861       18.290       24.074     1015.113      334.526      579.548        0.238        0.096       52.644       20.558        0.152      329.292       -4.065      874.447
01/28/2022  06:20:00      -31.712        3.584       -4.989       27.670       29.418       25.151      765.642      865.406      632.571        0.165        0.113       31.913       21.389        0.449      329.204       -4.210      874.438
01/28/2022  06:21:00      -39.279      -14.462       -9.969       26.648       23.903       17.985      710.119      571.360      323.443        0.173        0.080       41.857       12.197        0.085      329.103       -4.374      874.423
01/28/2022  06:22:00      -62.388      -11.664      -10.567       42.149       22.080       24.522     1776.556      487.548      601.342        0.350        0.143       63.469       25.430        0.161      329.037       -4.480      874.426
01/28/2022  06:23:00      -50.004       -8.265       -9.860       43.736       25.185       20.828     1912.846      634.264      433.789        0.282        0.149       50.682       21.744        0.184      329.077       -4.416      874.427
01/28/2022  06:24:00      -55.206       -3.232      -11.200       39.403       26.280       28.231     1552.621      690.617      796.976        0.311        0.152       55.300       23.103        0.175      329.026       -4.499      874.440
01/28/2022  06:25:00      -54.063       -6.720       -7.256       46.664       29.884       25.859     2177.512      893.027      668.708        0.338        0.187       54.479       17.989        0.109      328.974       -4.584      874.456
01/28/2022  06:26:00      -60.007       19.786       -8.070       37.855       34.831       22.150     1433.027     1213.223      490.631        0.360        0.157       63.185       18.472        0.085      328.923       -4.669      874.457
01/28/2022  06:27:00      -68.661       16.196      -20.619       45.463       21.452       18.972     2066.841      460.202      359.935        0.414        0.144       70.546       17.566        0.062      329.005       -4.535      874.458
01/28/2022  06:28:00      -59.782        4.327      -13.878       31.160       24.678       18.882      970.953      608.982      356.530        0.286        0.097       59.939        9.697        0.026      329.003       -4.538      874.461
01/28/2022  06:29:00      -34.309        0.875       -4.825       24.365       21.635       21.278      593.639      468.085      452.733        0.136        0.076       34.320       13.559        0.156      329.012       -4.524      874.466
01/28/2022  06:30:00      -53.663        5.153       -8.029       37.913       25.992       16.212     1437.364      675.592      262.823        0.267        0.119       53.910       15.919        0.087      329.025       -4.501      874.476
01/28/2022  06:31:00      -39.650        0.393       -7.389       33.111       28.509       20.228     1096.362      812.763      409.159        0.197        0.116       39.651       13.545        0.117      329.037       -4.482      874.471
01/28/2022  06:32:00      -68.451       -2.998       -4.121       59.638       30.518       33.164     3556.721      931.350     1099.872        0.515        0.279       68.517       31.202        0.207      328.866       -4.760      874.468
01/28/2022  06:33:00      -80.368       -0.524        1.238       54.693       37.197       31.623     2991.277     1383.642      999.990        0.592        0.269       80.369       29.824        0.138      328.860       -4.770      874.473
01/28/2022  06:34:00      -92.852      -11.718       -4.079       43.549       40.458       30.451     1896.515     1636.834      927.277        0.662        0.223       93.588       21.101        0.051      328.885       -4.729      874.482
01/28/2022  06:35:00     -101.610      -12.984       -6.358       46.407       30.013       27.375     2153.627      900.805      749.395        0.717        0.190      102.437       24.117        0.055      328.902       -4.703      874.487
01/28/2022  06:36:00     -125.139       -1.521      -14.752       32.359       21.443       20.406     1047.113      459.791      416.409        0.890        0.096      125.149       17.952        0.021      328.900       -4.705      874.503
01/28/2022  06:37:00     -100.979       -6.496       -7.304       43.255       29.148       19.620     1870.990      849.599      384.927        0.670        0.155      101.187       19.134        0.036      328.875       -4.746      874.522
01/28/2022  06:38:00      -41.386       -7.813       -5.404       33.616       19.105       17.501     1130.056      365.017      306.302        0.180        0.090       42.117       18.012        0.183      328.913       -4.684      874.543
01/28/2022  06:39:00      -52.222        2.336       -8.373       24.156       13.455       14.989      583.510      181.036      224.655        0.190        0.049       52.275       14.349        0.075      328.937       -4.644      874.561
01/28/2022  06:40:00      -18.270      -11.375       -1.408       17.129       16.829       18.026      293.393      283.216      324.952        0.068        0.045       21.522       10.560        0.241      329.119       -4.349      874.557
01/28/2022  06:41:00      -15.148      -15.626       -3.610       12.140       10.373       11.707      147.375      107.602      137.047        0.044        0.020       21.763        5.810        0.071      329.146       -4.304      874.564
01/28/2022  06:42:00      -10.118        2.655        1.979       17.734       20.071       10.516      314.479      402.847      110.584        0.047        0.041       10.461        5.779        0.305      329.076       -4.418      874.565
01/28/2022  06:43:00      -53.836      -10.214       -7.671       59.091       31.826       25.862     3491.773     1012.869      668.827        0.412        0.259       54.797       24.846        0.206      329.019       -4.510      874.574
01/28/2022  06:44:00      -93.124      -19.638       -5.115       42.178       30.887       24.560     1779.010      954.025      603.197        0.621        0.167       95.172       17.030        0.032      328.938       -4.645      874.583
01/28/2022  06:45:00     -132.415        5.489      -12.600       31.821       29.404       21.228     1012.584      864.573      450.627        1.002        0.116      132.529       18.597        0.020      329.004       -4.535      874.579
01/28/2022  06:46:00     -105.187       10.467       -2.213       48.032       39.500       28.141     2307.060     1560.238      791.897        0.792        0.233      105.706       24.993        0.056      328.914       -4.682      874.573
01/28/2022  06:47:00     -129.226       10.312       -7.640       45.667       33.326       27.165     2085.468     1110.628      737.945        1.040        0.197      129.637       24.586        0.036      328.879       -4.740      874.556
01/28/2022  06:48:00      -68.696       -2.325       -3.219       63.853       31.105       29.381     4077.235      967.528      863.231        0.532        0.295       68.735       29.145        0.180      328.810       -4.852      874.550
01/28/2022  06:49:00      -34.752        9.611        1.618       57.375       42.644       34.295     3291.895     1818.475     1176.136        0.379        0.314       36.057       33.901        0.884      328.822       -4.832      874.553
01/28/2022  06:50:00      -77.404      -11.465        1.014       72.382       40.640       40.602     5239.128     1651.570     1648.507        0.733        0.427       78.248       43.948        0.315      328.795       -4.877      874.561
01/28/2022  06:51:00      -81.478      -13.525      -11.186       69.609       38.243       33.674     4845.379     1462.522     1133.921        0.719        0.372       82.593       29.500        0.128      328.803       -4.863      874.571
01/28/2022  06:52:00      -61.996        7.493        1.520       54.432       32.353       24.416     2962.880     1046.717      596.160        0.425        0.230       62.447       16.156        0.067      328.799       -4.870      874.570
01/28/2022  06:53:00     -120.321        4.343       -6.178       49.370       37.112       26.848     2437.369     1377.312      720.831        0.953        0.227      120.400       27.136        0.051      328.771       -4.916      874.573
01/28/2022  06:54:00      -93.033       -6.983       -9.319       57.310       30.445       26.267     3284.454      926.906      689.936        0.685        0.245       93.295       23.797        0.065      328.825       -4.828      874.566
01/28/2022  06:55:00      -84.810       16.533        2.227       39.549       29.545       27.499     1564.149      872.917      756.169        0.533        0.160       86.407       16.096        0.035      328.813       -4.847      874.562
01/28/2022  06:56:00      -91.658       -3.744      -17.054       58.964       19.539       20.078     3476.735      381.780      403.138        0.648        0.213       91.735       25.435        0.077      328.883       -4.733      874.555
01/28/2022  06:57:00      -44.210       14.835        1.867       57.034       25.740       23.389     3252.825      662.560      547.068        0.332        0.223       46.633       24.087        0.267      328.874       -4.749      874.547
01/28/2022  06:58:00      -40.103        2.940       -4.170       32.218       28.839       14.019     1038.015      831.700      196.544        0.185        0.103       40.211        8.468        0.044      328.879       -4.740      874.552
01/28/2022  06:59:00      -71.597       -2.231       -9.167       60.167       30.483       19.983     3620.020      929.200      399.328        0.508        0.247       71.632        9.798        0.019      328.885       -4.731      874.565
01/28/2022  07:00:00      -57.156        4.744       -2.117       53.518       22.456       27.826     2864.198      504.267      774.260        0.372        0.207       57.352       30.306        0.279      328.938       -4.643      874.576
01/28/2022  07:01:00      -54.271       -0.189        1.361       69.697       35.666       31.970     4857.720     1272.081     1022.095        0.505        0.358       54.272       24.147        0.198      328.901       -4.705      874.575
01/28/2022  07:02:00      -92.940       -0.713       -2.407       66.810       33.544       25.582     4463.510     1125.168      654.446        0.744        0.312       92.943       31.062        0.112      328.895       -4.714      874.565
01/28/2022  07:03:00      -59.566       -9.637       -3.507       53.381       30.029       23.713     2849.532      901.761      562.306        0.398        0.216       60.340       16.761        0.077      328.934       -4.650      874.564
01/28/2022  07:04:00      -68.242      -14.942       -7.208       43.720       34.544       24.251     1911.439     1193.316      588.118        0.431        0.185       69.858       23.488        0.113      329.016       -4.516      874.567
01/28/2022  07:05:00      -65.747       -3.291       -4.191       25.567       29.555       16.036      653.660      873.491      257.145        0.307        0.089       65.829       10.119        0.024      329.076       -4.418      874.568
01/28/2022  07:06:00      -74.332       -9.279      -10.838       35.483       30.306       19.224     1259.052      918.478      369.561        0.414        0.127       74.909       16.769        0.050      329.105       -4.371      874.559
01/28/2022  07:07:00      -37.470        2.827       -2.569       37.710       29.213       24.414     1422.025      853.392      596.020        0.214        0.144       37.576       17.049        0.206      329.064       -4.438      874.557
01/28/2022  07:08:00      -36.180       -3.827       -2.746       41.854       26.041       18.987     1751.782      678.149      360.498        0.206        0.140       36.382       18.355        0.255      328.968       -4.594      874.553
01/28/2022  07:09:00      -97.959      -15.739       -0.695       42.489       29.981       24.435     1805.352      898.858      597.061        0.657        0.165       99.215       22.552        0.052      328.901       -4.704      874.541
01/28/2022  07:10:00      -44.910       11.102       -8.093       42.963       26.958       22.929     1845.819      726.713      525.726        0.265        0.155       46.262       17.233        0.139      328.889       -4.723      874.542
01/28/2022  07:11:00      -70.028      -13.087       -1.297       47.081       36.893       22.241     2216.640     1361.061      494.683        0.457        0.204       71.241       20.481        0.083      328.878       -4.742      874.561
01/28/2022  07:12:00      -94.365       -9.675       -9.413       49.471       26.576       24.741     2447.426      706.279      612.122        0.643        0.188       94.859       27.069        0.081      328.821       -4.834      874.575
01/28/2022  07:13:00      -52.765        3.794        1.749       46.331       33.816       22.022     2146.569     1143.549      484.990        0.329        0.189       52.901       24.648        0.217      328.865       -4.763      874.594
01/28/2022  07:14:00      -28.015       -2.748        0.531       32.960       22.657       15.561     1086.392      513.332      242.150        0.132        0.092       28.150       10.240        0.132      328.946       -4.630      874.609
01/28/2022  07:15:00      -21.504      -12.035       -1.818       28.936       14.680       17.423      837.267      215.505      303.572        0.098        0.068       24.643       12.249        0.247      329.049       -4.461      874.614
01/28/2022  07:16:00      -26.075       10.527        0.108       22.503       18.999       15.222      506.397      360.970      231.713        0.094        0.055       28.120       12.648        0.202      329.022       -4.506      874.624
01/28/2022  07:17:00      -31.694        6.205        1.155       25.861       12.499       13.351      668.792      156.213      178.257        0.102        0.050       32.295       12.719        0.155      328.979       -4.576      874.625
01/28/2022  07:18:00       -4.094       -3.649       -5.353       14.923       12.157       13.135      222.690      147.781      172.522        0.030        0.027        5.484        9.464        2.978      329.048       -4.463      874.623
01/28/2022  07:19:00      -21.299      -10.448       -5.788       27.380       15.372       14.499      749.654      236.288      210.218        0.090        0.060       23.724       10.308        0.189      329.008       -4.528      874.629
01/28/2022  07:20:00      -20.042       -3.742       -1.266       40.465       20.658       21.248     1637.406      426.734      451.492        0.147        0.126       20.388       17.658        0.750      328.907       -4.693      874.636
01/28/2022  07:21:00      -47.283      -13.227       -6.353       30.998       20.089       19.963      960.887      403.555      398.513        0.211        0.088       49.098       14.940        0.093      328.927       -4.661      874.645
01/28/2022  07:22:00      -38.401      -11.759        2.133       27.556       25.847       19.901      759.356      668.048      396.036        0.172        0.091       40.161       15.271        0.145      328.901       -4.704      874.652
01/28/2022  07:23:00      -23.462        3.137        3.155       40.243       24.973       15.093     1619.491      623.629      227.784        0.152        0.124       23.671        9.296        0.154      328.908       -4.693      874.662
01/28/2022  07:24:00      -35.914       -0.783        0.232       43.853       31.238       21.336     1923.063      975.817      455.212        0.232        0.168       35.922       20.257        0.318      328.906       -4.695      874.687
01/28/2022  07:25:00      -54.977        1.377        1.590       46.241       32.686       22.643     2138.261     1068.388      512.712        0.337        0.186       54.994       19.329        0.124      328.926       -4.663      874.688
01/28/2022  07:26:00      -79.217       12.572        5.990       45.386       29.681       25.245     2059.913      880.985      637.326        0.502        0.179       80.208       21.509        0.072      328.904       -4.699      874.682
01/28/2022  07:27:00       -6.408        0.830        6.358       26.569       18.656       21.683      705.892      348.030      470.147        0.080        0.076        6.462       19.379        8.993      328.953       -4.618      874.667
01/28/2022  07:28:00       -3.768        8.524        0.787       14.771       15.706        9.480      218.176      246.686       89.877        0.032        0.028        9.320        7.970        0.731      328.983       -4.568      874.652
01/28/2022  07:29:00      -65.276       15.982      -12.027       32.013       13.779       12.467     1024.843      189.848      155.434        0.302        0.069       67.204       11.451        0.029      328.940       -4.642      874.653
01/28/2022  07:30:00      -51.806       -1.101       -6.086       41.489       19.372       21.975     1721.377      375.273      482.881        0.265        0.129       51.817       21.685        0.175      329.047       -4.466      874.672
01/28/2022  07:31:00      -18.428       -4.403       -2.682       24.936       18.153       17.904      621.791      329.523      320.555        0.082        0.064       18.946       14.237        0.565      329.054       -4.454      874.684
01/28/2022  07:32:00       -8.969      -10.438      -11.424       16.902       15.019       13.851      285.664      225.575      191.855        0.051        0.035       13.762        8.000        0.338      329.127       -4.335      874.682
01/28/2022  07:33:00        5.765       10.471       -8.837       15.551       18.974       16.528      241.836      360.031      273.188        0.055        0.044       11.953        8.142        0.464      329.044       -4.469      874.672
01/28/2022  07:34:00        1.239       -0.366       -6.472       12.373       12.856       15.473      153.080      165.266      239.425        0.030        0.028        1.292        7.986       38.191      328.996       -4.547      874.662
01/28/2022  07:35:00        5.298       -9.593        4.380        7.028       12.570        9.195       49.391      157.993       84.545        0.022        0.015       10.959        4.102        0.140      329.043       -4.471      874.672
01/28/2022  07:36:00      -20.891       -2.227        0.840       30.266       22.995       18.908      916.002      528.780      357.525        0.112        0.090       21.009       19.589        0.869      329.030       -4.492      874.671
01/28/2022  07:37:00      -29.747        1.185       -5.986       41.868       29.132       18.581     1752.931      848.698      345.249        0.193        0.147       29.771       15.549        0.273      328.992       -4.556      874.659
01/28/2022  07:38:00       14.573        2.486       10.379       21.221       17.983       20.307      450.317      323.403      412.360        0.076        0.059       14.783       14.025        0.900      328.989       -4.560      874.641
01/28/2022  07:39:00      -37.058        8.578       -3.154       55.968       30.852       23.019     3132.396      951.823      529.858        0.303        0.231       38.038       13.686        0.129      329.004       -4.536      874.638
01/28/2022  07:40:00      -16.264        5.041       -8.508       25.927       29.137       24.735      672.224      848.940      611.830        0.125        0.107       17.027       14.518        0.727      329.037       -4.483      874.651
01/28/2022  07:41:00       -7.470      -12.213      -20.171       34.676       39.222       25.754     1202.401     1538.372      663.275        0.201        0.170       14.317       12.801        0.800      329.063       -4.439      874.677
01/28/2022  07:42:00      -40.810      -25.745       -7.875       71.976       38.101       31.178     5180.545     1451.713      972.068        0.500        0.380       48.252       25.111        0.271      329.001       -4.540      874.698
01/28/2022  07:43:00      -94.818       -6.338       -4.549       67.696       41.919       33.367     4582.693     1757.220     1113.345        0.825        0.373       95.030       30.906        0.106      328.886       -4.728      874.720
01/28/2022  07:44:00     -108.364       30.332        0.923       72.289       39.209       28.915     5225.766     1537.343      836.084        1.013        0.380      112.529       29.421        0.068      328.944       -4.632      874.724
01/28/2022  07:45:00     -101.458       25.419      -12.020       42.063       27.540       23.184     1769.303      758.454      537.495        0.707        0.153      104.594       17.316        0.027      328.988       -4.562      874.719
01/28/2022  07:46:00      -96.507       27.405       -0.071       45.650       29.982       25.460     2083.961      898.924      648.231        0.685        0.182      100.323       26.360        0.069      329.098       -4.383      874.710
01/28/2022  07:47:00      -72.248       32.888       -7.555       32.047       21.601       16.875     1027.007      466.594      284.776        0.407        0.089       79.381        9.196        0.013      329.211       -4.200      874.696
01/28/2022  07:48:00      -70.938       49.770      -10.664       22.533       23.199       15.382      507.724      538.187      236.593        0.445        0.064       86.656        8.128        0.009      329.263       -4.112      874.691
01/28/2022  07:49:00      -86.964       55.057      -14.578       19.598       21.494       14.481      384.063      462.012      209.691        0.593        0.053      102.927        9.340        0.008      329.368       -3.941      874.685
01/28/2022  07:50:00      -88.212       26.684      -18.862       27.416       18.642       18.176      751.662      347.527      330.355        0.514        0.071       92.160        8.810        0.009      329.458       -3.795      874.688
01/28/2022  07:51:00      -58.617       10.803      -14.792       44.182       29.134       22.236     1952.068      848.791      494.420        0.353        0.165       59.605       14.571        0.060      329.474       -3.768      874.688
01/28/2022  07:52:00      -71.930       22.501      -16.998       36.748       25.718       24.771     1350.399      661.407      613.611        0.430        0.131       75.367        4.246        0.003      329.500       -3.725      874.683
01/28/2022  07:53:00      -96.889       35.873      -19.111       49.159       38.465       16.008     2416.567     1479.571      256.248        0.760        0.208      103.317       15.453        0.022      329.484       -3.753      874.673
01/28/2022  07:54:00      -16.112        4.681       -9.515       37.087       24.669       25.569     1375.438      608.555      653.761        0.150        0.132       16.778       21.668        1.668      329.506       -3.716      874.671
01/28/2022  07:55:00     -122.052       27.310        4.030       56.144       31.120       24.160     3152.093      968.440      583.719        1.018        0.235      125.070       27.244        0.047      329.598       -3.565      874.678
01/28/2022  07:56:00      -55.344        8.469       -6.447       42.885       29.866       24.773     1839.113      891.976      613.716        0.326        0.167       55.989       20.923        0.140      329.671       -3.446      874.678
01/28/2022  07:57:00      -95.209       19.389      -10.781       26.623       26.447       18.539      708.787      699.422      343.706        0.565        0.088       97.163       14.040        0.021      329.744       -3.327      874.673
01/28/2022  07:58:00      -36.222        5.581       -2.506       32.947       21.768       16.423     1085.493      473.845      269.708        0.159        0.091       36.650       15.442        0.178      329.858       -3.138      874.667
01/28/2022  07:59:00      -30.803        9.487       -6.539       22.314       12.924       19.630      497.906      167.034      385.332        0.107        0.053       32.231       10.418        0.104      329.865       -3.129      874.658
01/28/2022  08:00:00      -24.327        9.157       -7.791       11.673       16.184        7.768      136.260      261.925       60.349        0.060        0.023       25.993        6.957        0.072      329.968       -2.958      874.653
01/28/2022  08:01:00      -55.674       21.132       -9.866       15.802       14.607       11.511      249.713      213.366      132.499        0.212        0.030       59.550        4.895        0.007      330.028       -2.862      874.648
01/28/2022  08:02:00      -28.724       -5.761       -3.714       31.058       12.619       14.004      964.570      159.239      196.099        0.110        0.066       29.296       15.500        0.280      330.287       -2.436      874.642
01/28/2022  08:03:00       -4.120        4.263       -3.137        9.464       17.374       10.240       89.569      301.840      104.854        0.027        0.025        5.929        5.955        1.009      330.331       -2.363      874.631
01/28/2022  08:04:00      -39.501       -7.319       -9.077       16.664       13.028       14.153      277.679      169.719      200.317        0.117        0.032       40.174        3.867        0.009      330.134       -2.688      874.616
01/28/2022  08:05:00      -24.660        2.751      -10.794       28.729       21.522       14.268      825.371      463.187      203.567        0.111        0.075       24.813        9.812        0.156      330.220       -2.547      874.614
01/28/2022  08:06:00      -68.986      -12.991      -14.788       20.677       27.768       20.630      427.557      771.084      425.615        0.339        0.081       70.198       11.560        0.027      330.181       -2.611      874.616
01/28/2022  08:07:00      -56.932       11.113      -19.252       26.407       12.645       17.482      697.331      159.896      305.626        0.245        0.058       58.006       13.865        0.057      330.182       -2.609      874.618
01/28/2022  08:08:00      -55.702        4.416      -11.420       27.581       20.077       17.268      760.709      403.084      298.178        0.236        0.073       55.877        5.661        0.010      330.032       -2.855      874.602
01/28/2022  08:09:00      -54.724      -15.018      -12.021       25.529       23.209       15.532      651.727      538.648      241.233        0.240        0.072       56.747       12.674        0.050      330.122       -2.707      874.593
01/28/2022  08:10:00      -86.724      -23.227        1.016       48.548       36.122       24.654     2356.950     1304.784      607.824        0.616        0.213       89.781       21.321        0.056      330.074       -2.787      874.583
01/28/2022  08:11:00      -84.836      -49.460       -5.559       46.947       60.568       37.345     2204.036     3668.468     1394.680        0.847        0.363       98.201       25.052        0.065      329.835       -3.177      874.580
01/28/2022  08:12:00      -71.181       14.476        0.144       29.052       31.223       37.847      843.990      974.893     1432.368        0.426        0.163       72.638       23.312        0.103      329.751       -3.314      874.583
01/28/2022  08:13:00      -39.821      -22.876       -4.871       26.565       23.201       21.125      705.678      538.277      446.253        0.191        0.085       45.924       18.125        0.156      329.991       -2.920      874.586
01/28/2022  08:14:00      -53.181       -4.398       -8.744       24.649       24.161       15.711      607.564      583.754      246.850        0.218        0.072       53.363       11.839        0.049      329.894       -3.079      874.598
01/28/2022  08:15:00      -38.081       -6.046        3.771       25.205       27.027       20.726      635.288      730.481      429.584        0.165        0.090       38.558       12.254        0.101      330.038       -2.845      874.596
01/28/2022  08:16:00      -56.827      -10.262       -6.973       36.903       30.502       20.011     1361.863      930.357      400.427        0.304        0.135       57.746       14.674        0.065      330.034       -2.851      874.588
01/28/2022  08:17:00      -74.639       -5.757       -0.281       40.169       26.650       21.725     1613.517      710.231      471.969        0.420        0.140       74.860       20.828        0.077      329.976       -2.946      874.585
01/28/2022  08:18:00      -92.709      -31.021      -27.109       54.346       38.424       25.926     2953.452     1476.412      672.172        0.770        0.255       97.762       13.532        0.019      329.798       -3.240      874.594
01/28/2022  08:19:00     -102.305      -20.476      -10.778       26.842       35.528       19.504      720.489     1262.266      380.416        0.668        0.118      104.334       15.077        0.021      329.782       -3.264      874.590
01/28/2022  08:20:00      -63.195        9.228        2.668       48.778       27.821       23.013     2379.278      774.017      529.605        0.388        0.184       63.865       23.287        0.133      330.007       -2.894      874.590
01/28/2022  08:21:00      -63.256       -5.505       -4.549       55.398       33.428       25.427     3068.892     1117.452      646.551        0.444        0.242       63.495       27.980        0.194      329.972       -2.954      874.595
01/28/2022  08:22:00     -107.627      -18.609       -2.938       39.112       31.421       24.939     1529.734      987.255      621.960        0.754        0.157      109.224       23.228        0.045      329.979       -2.943      874.598
01/28/2022  08:23:00      -93.040       -4.470       -0.864       37.025       44.461       21.344     1370.863     1976.808      455.553        0.624        0.190       93.147       16.417        0.031      329.903       -3.067      874.597
01/28/2022  08:24:00      -78.982        6.494        2.851       48.178       37.198       24.362     2321.123     1383.663      593.486        0.529        0.215       79.248       16.400        0.043      329.876       -3.111      874.587
01/28/2022  08:25:00     -105.333       12.791       -4.521       58.207       50.039       26.947     3388.005     2503.942      726.165        0.895        0.331      106.107       21.486        0.041      329.782       -3.264      874.592
01/28/2022  08:26:00     -112.389       16.679       -1.360       50.237       43.911       27.264     2523.725     1928.193      743.332        0.905        0.260      113.620       23.214        0.042      329.773       -3.279      874.589
01/28/2022  08:27:00     -125.319       13.403        2.368       47.859       32.556       25.118     2290.465     1059.896      630.929        0.993        0.199      126.033       21.482        0.029      329.786       -3.257      874.596
01/28/2022  08:28:00     -129.949        7.102      -21.794       24.679       20.009       16.217      609.063      400.353      262.990        0.934        0.064      130.143        9.564        0.005      329.800       -3.234      874.583
01/28/2022  08:29:00      -55.066       -9.757        0.809       42.324       27.557       23.926     1791.319      759.384      572.460        0.313        0.156       55.924       21.231        0.144      330.120       -2.710      874.595
01/28/2022  08:30:00      -57.154        5.769       -5.968       28.275       20.797       22.347      799.476      432.520      499.411        0.253        0.087       57.444       19.903        0.120      330.110       -2.728      874.608
01/28/2022  08:31:00      -40.777        2.630      -11.323       21.761       24.933       15.572      473.544      621.668      242.484        0.157        0.067       40.862       13.122        0.103      330.178       -2.617      874.620
01/28/2022  08:32:00      -14.239        0.674       -0.514       19.974       16.646       10.865      398.975      277.102      118.038        0.050        0.040       14.254       13.278        0.868      330.429       -2.204      874.634
01/28/2022  08:33:00       -6.828        1.347       -7.148        8.395       12.039       10.120       70.476      144.940      102.404        0.021        0.016        6.960        7.941        1.302      330.562       -1.985      874.637
01/28/2022  08:34:00      -25.565      -12.255       -6.823       12.012        9.879       10.513      144.286       97.598      110.514        0.060        0.018       28.350        8.557        0.091      330.558       -1.992      874.630
01/28/2022  08:35:00      -28.641        0.708      -14.085        9.462        7.634        7.720       89.532       58.285       59.603        0.061        0.010       28.649        1.896        0.004      330.586       -1.946      874.630
01/28/2022  08:36:00      -22.984        0.946      -11.324        6.290        4.531        7.505       39.568       20.530       56.330        0.039        0.006       23.004        4.899        0.045      330.645       -1.849      874.617
01/28/2022  08:37:00      -23.079       -6.923       -9.288        8.423        9.448        9.925       70.945       89.273       98.514        0.046        0.013       24.095        3.033        0.016      330.875       -1.472      874.605
01/28/2022  08:38:00      -17.689        0.308        0.838       15.749       14.274       10.184      248.029      203.752      103.710        0.043        0.028       17.692        7.461        0.178      330.977       -1.304      874.604
01/28/2022  08:39:00       -8.464       -9.873        0.609       15.886       14.521        8.629      252.357      210.861       74.462        0.035        0.027       13.005        5.311        0.167      331.121       -1.068      874.609
01/28/2022  08:40:00       10.379      -13.502       -6.545       13.412       14.775       16.382      179.879      218.302      268.370        0.050        0.033       17.031        9.919        0.339      331.331       -0.723      874.627
01/28/2022  08:41:00       35.447      -24.632      -11.678       24.924       24.839       21.620      621.184      616.969      467.413        0.185        0.085       43.165       17.248        0.160      331.443       -0.538      874.627
01/28/2022  08:42:00       46.886      -54.524      -24.243       24.303       31.363       18.362      590.625      983.665      337.170        0.383        0.096       71.910       11.635        0.026      331.278       -0.811      874.629
01/28/2022  08:43:00       20.752      -27.203      -17.868       27.661       31.896       16.741      765.127     1017.351      280.249        0.178        0.103       34.215       13.517        0.156      331.341       -0.706      874.623
01/28/2022  08:44:00      -17.085       -8.828       -2.192       16.088       22.309       11.395      258.838      497.704      129.853        0.063        0.044       19.231        6.100        0.101      331.052       -1.182      874.606
01/28/2022  08:45:00      -12.122       17.598       -8.189       14.792       15.202       10.114      218.812      231.116      102.300        0.054        0.028       21.369        7.222        0.114      330.993       -1.278      874.603
01/28/2022  08:46:00      -10.245       31.751       -4.733       17.082       16.185       12.006      291.809      261.960      144.148        0.092        0.035       33.363        7.734        0.054      331.151       -1.017      874.591
01/28/2022  08:47:00      -16.482      -30.690      -14.162       28.298       48.637       18.187      800.750     2365.592      330.753        0.245        0.175       34.835       15.740        0.204      331.092       -1.116      874.583
01/28/2022  08:48:00       51.891      -54.568      -26.482       22.220       11.463       13.850      493.707      131.392      191.831        0.359        0.041       75.302        7.689        0.010      331.220       -0.906      874.578
01/28/2022  08:49:00       64.082      -47.981      -24.992       21.887       27.349       16.271      479.059      747.968      264.761        0.426        0.075       80.054       11.860        0.022      331.297       -0.778      874.580
01/28/2022  08:50:00       23.158      -53.816      -29.993       24.072       18.482       19.948      579.458      341.589      397.925        0.283        0.066       58.587       10.003        0.029      331.389       -0.628      874.576
01/28/2022  08:51:00       31.774      -41.153      -20.140       25.348       24.921       23.064      642.539      621.058      531.954        0.245        0.090       51.991       19.507        0.141      331.518       -0.416      874.562
01/28/2022  08:52:00       34.875      -66.727      -27.024       20.145       19.365       14.290      405.814      375.016      204.198        0.369        0.049       75.291        9.492        0.016      331.340       -0.707      874.563
01/28/2022  08:53:00       35.197      -60.951      -20.605       22.454       21.972       16.053      504.185      482.785      257.689        0.331        0.062       70.383        7.864        0.012      331.509       -0.429      874.564
01/28/2022  08:54:00       15.276      -27.332      -11.054       28.583       41.141       21.720      816.990     1692.604      471.745        0.204        0.149       31.312       11.722        0.140      331.564       -0.340      874.551
01/28/2022  08:55:00       -2.325       -8.503      -10.235       28.302       24.099       17.618      801.007      580.739      310.404        0.094        0.085        8.815       13.001        2.175      331.682       -0.145      874.553
01/28/2022  08:56:00       -4.396       -9.108      -12.717       35.427       35.937       23.170     1255.074     1291.483      536.827        0.167        0.154       10.114       16.555        2.679      331.637       -0.220      874.551
01/28/2022  08:57:00        7.426       -8.768      -16.832       36.297       25.223       23.225     1317.437      636.180      539.421        0.145        0.125       11.490        8.138        0.502      331.801        0.050      874.556
01/28/2022  08:58:00       70.863      -57.933      -30.110       40.055       35.523       27.068     1604.416     1261.917      732.702        0.644        0.180       91.530       16.724        0.033      331.645       -0.206      874.561
01/28/2022  08:59:00       64.792      -81.155      -39.757       44.452       60.545       22.800     1975.950     3665.650      519.856        0.926        0.308      103.847       20.826        0.040      331.494       -0.454      874.568
01/28/2022  09:00:00       89.405      -67.463      -44.539       40.507       57.762       28.419     1640.850     3336.394      807.638        1.016        0.289      112.003       16.496        0.022      331.697       -0.120      874.572
01/28/2022  09:01:00       72.414      -21.001      -37.454       28.134       38.969       17.803      791.502     1518.600      316.957        0.486        0.131       75.398       15.061        0.040      331.561       -0.344      874.563
01/28/2022  09:02:00       39.988      -38.790      -13.213       22.933       35.835       23.387      525.908     1284.149      546.965        0.282        0.118       55.711       22.107        0.157      331.652       -0.194      874.558
01/28/2022  09:03:00       46.784      -38.371      -20.125       39.553       30.677       27.388     1564.442      941.081      750.115        0.366        0.163       60.507       23.517        0.151      331.851        0.133      874.551
01/28/2022  09:04:00       60.718      -66.717      -30.114       29.894       41.842       20.984      893.667     1750.754      440.311        0.606        0.154       90.210       13.378        0.022      331.649       -0.199      874.562
01/28/2022  09:05:00       59.923      -84.421      -27.748       25.934       28.277       18.292      672.567      799.605      334.610        0.665        0.090      103.526       11.008        0.011      331.689       -0.134      874.578
01/28/2022  09:06:00       26.776      -53.275       -8.223       36.220       33.212       27.701     1311.881     1103.049      767.351        0.340        0.159       59.625       23.514        0.156      332.022        0.414      874.571
01/28/2022  09:07:00       -1.871      -57.491      -17.558       52.983       39.143       23.802     2807.192     1532.151      566.523        0.426        0.245       57.521       21.919        0.145      331.674       -0.159      874.565
01/28/2022  09:08:00      -11.111       -5.512       -5.241       28.151       14.561       17.928      792.492      212.019      321.397        0.075        0.066       12.403       17.203        1.924      331.906        0.223      874.567
01/28/2022  09:09:00        8.503      -45.176      -16.817       18.098       22.036       18.221      327.539      485.603      332.006        0.177        0.057       45.969       10.463        0.052      331.993        0.367      874.564
01/28/2022  09:10:00       -1.883       -7.804       -9.667       15.423       16.280       14.781      237.864      265.050      218.476        0.044        0.036        8.028        9.240        1.325      332.110        0.559      874.562
01/28/2022  09:11:00      -14.550       12.734        1.214       22.350       18.230       14.591      499.503      332.316      212.892        0.071        0.052       19.335       11.713        0.367      331.997        0.372      874.565
01/28/2022  09:12:00      -37.462       17.645       -4.384       21.853       17.400       14.363      477.572      302.744      206.309        0.136        0.049       41.409        8.239        0.040      331.829        0.098      874.559
01/28/2022  09:13:00      -39.352       -3.419      -10.257       30.129       15.572       17.679      907.786      242.494      312.532        0.156        0.073       39.500       13.400        0.115      331.991        0.362      874.552
01/28/2022  09:14:00      -26.191       -2.302      -14.301       10.730       14.567       11.094      115.140      212.197      123.071        0.067        0.023       26.292        6.448        0.060      331.918        0.243      874.546
01/28/2022  09:15:00      -27.893        3.707      -17.811       14.554       15.816       14.181      211.812      250.158      201.101        0.089        0.033       28.139        8.849        0.099      331.853        0.137      874.547
01/28/2022  09:16:00      -18.995       -1.369      -24.747       17.296       13.763       12.804      299.167      189.431      163.954        0.081        0.033       19.044       11.414        0.359      331.970        0.328      874.550
01/28/2022  09:17:00      -36.335       -1.723      -21.338       17.319       12.567       12.825      299.947      157.933      164.486        0.120        0.031       36.376        7.734        0.045      331.914        0.236      874.552
01/28/2022  09:18:00      -38.875       -5.326      -25.113       16.630       20.460       14.980      276.550      418.608      224.395        0.154        0.046       39.238       10.263        0.068      331.893        0.202      874.559
01/28/2022  09:19:00      -21.910       -4.908      -14.994       21.412       27.680       18.309      458.479      766.190      335.214        0.114        0.078       22.453       17.245        0.590      332.054        0.467      874.561
01/28/2022  09:20:00       24.309      -63.187      -23.100       38.658       42.037       22.528     1494.413     1767.084      507.507        0.444        0.188       67.702       22.158        0.107      332.334        0.930      874.547
01/28/2022  09:21:00       11.393       -7.742      -13.593       29.515       46.079       22.210      871.117     2123.304      493.285        0.193        0.174       13.775       21.266        2.384      332.256        0.800      874.537
01/28/2022  09:22:00       35.003       26.991       -4.198       22.888       18.708       18.361      523.847      350.005      337.116        0.159        0.061       44.201        5.357        0.015      332.214        0.729      874.534
01/28/2022  09:23:00       14.251      -41.920       -5.352       23.067       25.450       17.960      532.068      647.723      322.544        0.175        0.075       44.276       11.498        0.067      332.484        1.177      874.537
01/28/2022  09:24:00       29.687      -31.212      -21.255       31.772       30.646       16.798     1009.479      939.161      282.172        0.227        0.112       43.075       11.771        0.075      332.387        1.018      874.541
01/28/2022  09:25:00      -11.011        1.778      -20.650       39.745       37.774       24.276     1579.698     1426.866      589.320        0.207        0.180       11.153       24.727        4.915      332.417        1.066      874.538
01/28/2022  09:26:00      -35.295       -9.267       -8.164       24.288       27.367       17.232      589.902      748.973      296.949        0.152        0.082       36.492        9.629        0.070      332.309        0.887      874.530
01/28/2022  09:27:00       -5.672      -37.124      -14.466       33.191       31.908       18.724     1101.614     1018.110      350.604        0.204        0.124       37.555        4.490        0.014      332.455        1.129      874.517
01/28/2022  09:28:00        3.871      -25.109       -8.620       27.259       30.103       20.741      743.027      906.214      430.203        0.140        0.104       25.405       11.603        0.209      332.495        1.196      874.499
01/28/2022  09:29:00       15.148      -40.266      -20.411       40.080       27.644       22.448     1606.441      764.217      503.910        0.257        0.144       43.022       15.646        0.132      332.611        1.387      874.497
01/28/2022  09:30:00       58.146      -17.708      -31.161       31.616       29.041       14.496      999.561      843.402      210.141        0.336        0.103       60.783        6.851        0.013      332.383        1.011      874.503
01/28/2022  09:31:00      -10.221      -39.636      -10.618       20.520       20.690       21.756      421.065      428.082      473.343        0.156        0.066       40.932       17.441        0.182      332.379        1.004      874.510
01/28/2022  09:32:00      -17.732       11.313      -10.266       23.890       27.121       13.100      570.754      735.531      171.608        0.101        0.074       21.034       11.389        0.293      332.423        1.075      874.504
01/28/2022  09:33:00      -34.025       29.584       -4.332       23.767       23.369       14.804      564.872      546.113      219.156        0.169        0.067       45.087        2.068        0.002      332.525        1.243      874.500
01/28/2022  09:34:00        0.637       81.710       -8.429       31.565       30.746       19.048      996.364      945.331      362.826        0.453        0.115       81.712       14.011        0.029      332.640        1.436      874.487
01/28/2022  09:35:00       -9.090       51.517      -16.215       15.473       21.726       23.396      239.422      472.033      547.362        0.213        0.063       52.313       12.853        0.060      332.330        0.922      874.485
01/28/2022  09:36:00      -25.495       32.163      -15.646       19.012       15.425       14.266      361.471      237.929      203.529        0.137        0.040       41.042       11.914        0.084      332.360        0.971      874.484
01/28/2022  09:37:00      -21.162       -3.849       -2.649       21.492       24.926       18.030      461.907      621.329      325.083        0.094        0.070       21.510       13.536        0.396      332.469        1.152      874.500
01/28/2022  09:38:00      -33.501       16.751       -7.694       26.181       14.194       16.214      685.441      201.461      262.904        0.131        0.057       37.456        8.758        0.055      332.363        0.977      874.507
01/28/2022  09:39:00      -12.391       11.415      -14.649       12.676       17.890       13.316      160.687      320.044      177.305        0.058        0.033       16.847        2.967        0.031      332.422        1.074      874.497
01/28/2022  09:40:00       -4.601       18.442      -10.211       15.620       22.166       11.664      243.988      491.332      136.038        0.067        0.044       19.007        5.912        0.097      332.494        1.193      874.469
01/28/2022  09:41:00      -11.572       50.707       -2.031       27.263       32.481       15.448      743.261     1055.030      238.640        0.237        0.102       52.011        7.125        0.019      332.614        1.392      874.453
01/28/2022  09:42:00       -8.944       40.275      -19.358       16.662       28.334       19.102      277.617      802.816      364.883        0.176        0.072       41.256       15.456        0.140      332.369        0.987      874.440
01/28/2022  09:43:00        4.549       23.249       -6.687       18.940       26.069       13.773      358.710      679.568      189.698        0.092        0.061       23.690        8.149        0.118      332.512        1.222      874.438
01/28/2022  09:44:00      -10.191      -11.137      -16.632       23.823       36.812       20.499      567.512     1355.095      420.193        0.142        0.117       15.096       17.626        1.363      332.643        1.440      874.442
01/28/2022  09:45:00       32.764       28.348        4.602       26.142       28.749       26.086      683.386      826.526      680.493        0.204        0.110       43.325       13.913        0.103      333.124        2.235      874.437
01/28/2022  09:46:00       50.511       28.178      -15.759       39.230       37.246       32.461     1539.018     1387.267     1053.721        0.379        0.199       57.840       24.062        0.173      333.291        2.511      874.430
01/28/2022  09:47:00       41.277       58.005       -9.329       33.865       39.277       31.273     1146.805     1542.683      977.985        0.441        0.183       71.192       27.982        0.154      332.902        1.868      874.413
01/28/2022  09:48:00       78.379       46.611      -17.016       32.264       32.149       26.100     1040.975     1033.538      681.208        0.568        0.138       91.192        3.931        0.002      332.756        1.626      874.400
01/28/2022  09:49:00       24.994      -52.086      -24.885       56.273       59.295       22.294     3166.596     3515.952      497.019        0.557        0.359       57.772       26.871        0.216      332.739        1.597      874.381
01/28/2022  09:50:00      -23.201      -23.371      -16.966       43.784       35.372       27.486     1917.016     1251.166      755.466        0.265        0.196       32.931       14.957        0.206      333.236        2.418      874.382
01/28/2022  09:51:00       38.529      -64.252      -36.284       62.381       52.646       34.963     3891.408     2771.557     1222.393        0.741        0.394       74.919       36.350        0.235      333.047        2.108      874.387
01/28/2022  09:52:00       64.322      -43.038      -21.648       40.710       37.201       29.355     1657.304     1383.940      861.727        0.518        0.195       77.393       23.175        0.090      332.795        1.691      874.388
01/28/2022  09:53:00       63.602      -53.817      -31.766       56.127       58.360       29.293     3150.211     3405.902      858.078        0.768        0.371       83.316       20.080        0.058      332.941        1.931      874.382
01/28/2022  09:54:00       24.375      -16.994      -10.926       41.121       48.154       24.258     1690.956     2318.818      588.459        0.280        0.230       29.714       19.224        0.419      333.271        2.477      874.384
01/28/2022  09:55:00       17.532      -23.573      -13.063       32.990       24.241       21.761     1088.338      587.644      473.526        0.159        0.107       29.378       13.957        0.226      333.338        2.590      874.379
01/28/2022  09:56:00      -23.006      -20.148       -8.752       27.000       24.839       30.742      728.995      617.000      945.068        0.165        0.115       30.581       22.890        0.560      333.067        2.141      874.366
01/28/2022  09:57:00      -18.196      -39.324      -23.204       38.082       24.384       21.500     1450.215      594.558      462.269        0.246        0.125       43.330       11.070        0.065      333.289        2.507      874.365
01/28/2022  09:58:00       21.034      -69.262      -28.517       44.201       32.320       22.283     1953.743     1044.577      496.518        0.477        0.175       72.385       17.115        0.056      333.051        2.114      874.367
01/28/2022  09:59:00       37.810      -67.680      -21.185       34.071       33.188       29.456     1160.855     1101.466      867.677        0.479        0.156       77.525       22.301        0.083      333.257        2.455      874.368
01/28/2022  10:00:00        0.405      -28.791      -18.893       37.514       50.839       25.426     1407.288     2584.622      646.461        0.291        0.232       28.794       27.848        0.935      333.140        2.260      874.353
01/28/2022  10:01:00       16.369      -46.858      -21.075       43.393       60.390       25.989     1882.927     3646.965      675.415        0.456        0.310       49.635       18.042        0.132      333.285        2.500      874.349
01/28/2022  10:02:00      -45.933       -7.441      -14.236       55.090       42.079       26.284     3034.943     1770.635      690.828        0.393        0.275       46.532        8.105        0.030      333.100        2.194      874.338
01/28/2022  10:03:00       80.806       33.986      -21.271       56.773       68.316       31.150     3223.132     4667.101      970.315        0.850        0.443       87.662       24.489        0.078      333.053        2.118      874.350
01/28/2022  10:04:00       83.024       74.394      -24.488       43.456       55.753       30.615     1888.439     3108.398      937.309        0.948        0.297      111.479       18.134        0.026      333.030        2.080      874.355
01/28/2022  10:05:00       26.687       -6.352      -29.210       52.738       60.088       29.074     2781.259     3610.567      845.274        0.442        0.362       27.433       25.075        0.835      333.430        2.740      874.354
01/28/2022  10:06:00        8.912      -23.869      -19.930       71.998       38.602       41.529     5183.752     1490.137     1724.639        0.472        0.420       25.479       32.731        1.650      333.568        2.969      874.353
01/28/2022  10:07:00       80.133       21.754      -28.994       40.564       49.096       27.366     1645.442     2410.406      748.871        0.627        0.240       83.033       13.294        0.026      333.219        2.391      874.367
01/28/2022  10:08:00       35.653      -53.570      -26.446       47.306       73.357       36.577     2237.876     5381.190     1337.899        0.690        0.448       64.350       22.659        0.124      333.464        2.798      874.359
01/28/2022  10:09:00       40.773       -8.999      -14.563       62.940       53.607       29.341     3961.443     2873.720      860.878        0.482        0.385       41.754       25.040        0.360      333.463        2.795      874.358
01/28/2022  10:10:00      142.181       18.350      -16.783       69.709       49.970       30.121     4859.307     2496.955      907.257        1.455        0.413      143.361       22.679        0.025      333.058        2.124      874.361
01/28/2022  10:11:00        7.769        3.499      -12.634       50.778       19.755       22.390     2578.420      390.267      501.329        0.185        0.174        8.521       20.724        5.915      332.978        1.993      874.357
01/28/2022  10:12:00       36.088      -51.793      -19.528       46.202       58.955       33.946     2134.627     3475.698     1152.327        0.556        0.338       63.126       19.468        0.095      333.487        2.834      874.345
01/28/2022  10:13:00       44.810      -19.706       -9.502       36.823       69.386       41.141     1355.955     4814.401     1692.595        0.517        0.393       48.952       19.011        0.151      333.830        3.403      874.345
01/28/2022  10:14:00       28.677      -18.365        0.108       66.909       72.505       45.158     4476.819     5257.034     2039.269        0.646        0.589       34.053       34.196        1.008      333.640        3.087      874.353
01/28/2022  10:15:00       51.699      -39.324      -27.093       51.516       55.077       35.158     2653.897     3033.467     1236.103        0.594        0.346       64.956       20.289        0.098      333.791        3.338      874.356
01/28/2022  10:16:00       87.044      -26.875      -21.469       52.914       45.068       36.721     2799.884     2031.142     1348.406        0.747        0.309       91.098       24.297        0.071      333.551        2.942      874.354
01/28/2022  10:17:00       91.384     -123.980      -42.230       67.831       48.907       37.247     4600.983     2391.922     1387.314        1.694        0.419      154.020       37.119        0.058      333.447        2.769      874.337
01/28/2022  10:18:00       75.412      -27.488      -24.658       67.596      113.428       46.036     4569.217    12865.865     2119.328        1.330        0.978       80.265       24.412        0.092      333.325        2.567      874.333
01/28/2022  10:19:00      161.108       56.821      -24.204       39.729       31.414       24.071     1578.374      986.834      579.403        1.646        0.157      170.835       11.557        0.005      333.142        2.263      874.348
01/28/2022  10:20:00       91.124       43.902      -20.133       38.811       15.221       14.051     1506.323      231.677      197.434        0.629        0.097      101.148        5.397        0.003      332.942        1.934      874.363
01/28/2022  10:21:00       76.495       37.851      -13.440       41.426       31.801       24.060     1716.141     1011.323      578.871        0.538        0.165       85.347       17.046        0.040      333.203        2.365      874.366
01/28/2022  10:22:00       93.054       54.715      -18.107       49.921       24.578       18.966     2492.132      604.092      359.719        0.772        0.173      107.948       21.338        0.039      333.119        2.225      874.363
01/28/2022  10:23:00       68.655      -13.875       -8.142       88.933       82.603       45.519     7909.126     6823.227     2071.971        1.089        0.840       70.043       45.516        0.422      333.638        3.084      874.339
01/28/2022  10:24:00      109.729       13.159      -36.430       82.080       63.518       41.670     6737.137     4034.517     1736.428        1.302        0.625      110.516       35.599        0.104      333.883        3.490      874.317
01/28/2022  10:25:00       87.398      -18.248      -13.117       61.735       35.819       30.806     3811.263     1283.014      948.991        0.709        0.302       89.283       32.633        0.134      333.359        2.623      874.326
01/28/2022  10:26:00      107.399       42.201      -14.444       62.365       41.589       27.428     3889.427     1729.662      752.301        0.995        0.319      115.393       17.254        0.022      333.455        2.781      874.337
01/28/2022  10:27:00       91.968       46.735      -20.187       60.619       37.591       24.157     3674.641     1413.054      583.557        0.836        0.284      103.161       13.932        0.018      333.160        2.294      874.333
01/28/2022  10:28:00       35.899       18.180      -12.883       40.626       52.628       32.328     1650.451     2769.744     1045.083        0.362        0.273       40.240       24.489        0.370      333.956        3.612      874.320
01/28/2022  10:29:00       35.145      -21.161      -10.048       47.715       31.906       29.441     2276.697     1017.992      866.799        0.297        0.208       41.024       22.641        0.305      333.811        3.372      874.323
01/28/2022  10:30:00       45.569      -47.409      -29.138       66.172       66.168       36.407     4378.736     4378.205     1325.455        0.763        0.504       65.759       39.328        0.358      333.903        3.523      874.323
01/28/2022  10:31:00       75.159       -6.951      -26.014       53.325       72.543       41.735     2843.509     5262.537     1741.797        0.811        0.492       75.479       28.120        0.139      333.691        3.172      874.329
01/28/2022  10:32:00       70.176      -31.811      -24.012       51.790       65.007       39.437     2682.200     4225.867     1555.300        0.749        0.423       77.050       22.201        0.083      334.118        3.878      874.323
01/28/2022  10:33:00       73.394      -32.744      -44.071       36.888       45.900       28.239     1360.756     2106.779      797.437        0.633        0.213       80.367       13.321        0.027      334.032        3.736      874.321
01/28/2022  10:34:00       73.550      -93.662      -41.345       52.730       48.798       28.609     2780.444     2381.255      818.468        1.093        0.299      119.089       20.337        0.029      333.417        2.720      874.327
01/28/2022  10:35:00       33.122      -87.558      -29.796       28.085       34.302       25.961      788.768     1176.657      673.977        0.614        0.132       93.613       16.332        0.030      333.191        2.345      874.319
01/28/2022  10:36:00       40.051      -72.388      -21.242       31.185       60.787       22.890      972.511     3695.012      523.962        0.624        0.260       82.730       14.989        0.033      333.810        3.369      874.307
01/28/2022  10:37:00       68.965       24.968      -12.555       65.170       51.753       29.730     4247.073     2678.417      883.899        0.667        0.390       73.345       11.557        0.025      333.861        3.454      874.293
01/28/2022  10:38:00       93.282       51.572      -23.782       68.994       42.665       31.722     4760.104     1820.319     1006.258        0.976        0.379      106.589       25.161        0.056      333.738        3.251      874.286
01/28/2022  10:39:00       52.619       53.319      -18.433       34.632       22.602       20.246     1199.390      510.830      409.919        0.404        0.106       74.911       13.734        0.034      333.341        2.593      874.294
01/28/2022  10:40:00       11.307       57.144      -12.349       27.622       37.993       23.004      762.994     1443.475      529.201        0.314        0.137       58.252       21.798        0.140      333.535        2.914      874.288
01/28/2022  10:41:00      -10.622       81.257      -11.461       22.665       57.225       21.252      513.704     3274.708      451.632        0.554        0.212       81.949       13.741        0.028      333.562        2.960      874.276
01/28/2022  10:42:00      -15.684      113.821      -12.095       24.730       32.398       21.270      611.578     1049.634      452.418        0.773        0.106      114.896       10.958        0.009      333.341        2.594      874.257
01/28/2022  10:43:00       27.544       79.107      -20.371       32.682       44.430       29.322     1068.109     1974.053      859.796        0.567        0.195       83.765       19.377        0.054      333.508        2.869      874.244
01/28/2022  10:44:00       -1.783       47.186       -8.920       37.137       25.470       26.097     1379.180      648.698      681.047        0.251        0.135       47.220       15.787        0.112      333.719        3.218      874.223
01/28/2022  10:45:00      -32.401       58.105      -18.036       25.670       33.802       15.114      658.940     1142.595      228.419        0.339        0.101       66.529        7.892        0.014      333.535        2.914      874.206
01/28/2022  10:46:00        9.655       58.464        2.545       24.699       41.098       29.833      610.059     1689.040      890.000        0.335        0.159       59.255       25.095        0.179      334.087        3.829      874.198
01/28/2022  10:47:00       48.472       60.266      -27.434       45.868       38.662       32.398     2103.845     1494.765     1049.645        0.569        0.232       77.340       19.561        0.064      333.962        3.621      874.191
01/28/2022  10:48:00       16.264       62.387       10.914       70.899       46.236       36.448     5026.637     2137.727     1328.456        0.638        0.425       64.473       36.447        0.320      334.407        4.359      874.234
01/28/2022  10:49:00       58.321       -9.012      -18.351       59.934       46.819       35.653     3592.144     2192.037     1271.161        0.544        0.353       59.013       24.778        0.176      334.052        3.771      874.231
01/28/2022  10:50:00       68.505        0.780      -13.200       74.446       78.516       51.204     5542.254     6164.829     2621.807        0.960        0.716       68.509       37.958        0.307      334.305        4.190      874.201
01/28/2022  10:51:00       52.479      -43.071      -56.491       68.887       68.511       39.253     4745.409     4693.714     1540.771        0.939        0.549       67.891       28.669        0.178      334.261        4.118      874.200
01/28/2022  10:52:00       71.528      -26.398      -20.636       60.931       68.861       31.374     3712.531     4741.777      984.305        0.784        0.472       76.244       23.578        0.096      334.138        3.913      874.204
01/28/2022  10:53:00      157.225       44.431      -19.108       64.113       68.670       33.590     4110.539     4715.592     1128.280        1.850        0.498      163.382       35.777        0.048      333.659        3.116      874.201
01/28/2022  10:54:00      128.514       50.510      -18.485       61.855       68.650       48.549     3826.067     4712.849     2356.976        1.515        0.545      138.084       33.148        0.058      333.762        3.289      874.209
01/28/2022  10:55:00      176.217       27.783      -29.177       86.972       56.699       42.653     7564.072     3214.789     1819.314        2.263        0.630      178.393       32.775        0.034      333.774        3.309      874.193
01/28/2022  10:56:00       97.527      -12.657      -22.851       85.883       60.843       43.734     7375.952     3701.832     1912.638        1.159        0.650       98.345       35.893        0.133      333.949        3.600      874.200
01/28/2022  10:57:00       80.336       -2.722      -25.417       48.170       60.706       27.036     2320.381     3685.194      730.940        0.692        0.337       80.382       20.591        0.066      334.007        3.696      874.203
01/28/2022  10:58:00      124.212       57.060      -37.694       51.979       68.494       36.511     2701.852     4691.399     1333.030        1.441        0.436      136.691       21.604        0.025      333.990        3.667      874.199
01/28/2022  10:59:00      109.218       66.106      -34.515       40.899       29.232       17.027     1672.768      854.495      289.906        1.015        0.141      127.666       10.284        0.006      333.554        2.946      874.213
01/28/2022  11:00:00      113.994       26.293      -29.063       53.901       46.478       32.458     2905.329     2160.194     1053.548        1.032        0.306      116.988       23.682        0.041      333.813        3.374      874.201
01/28/2022  11:01:00      152.472       42.609      -13.768       65.075       54.752       34.459     4234.788     2997.749     1187.436        1.683        0.421      158.314       32.977        0.043      333.957        3.611      874.190
01/28/2022  11:02:00      166.657       41.812      -27.020       53.019       52.398       31.714     2810.999     2745.586     1005.753        1.841        0.328      171.822       15.540        0.008      333.970        3.634      874.161
01/28/2022  11:03:00       21.203      -16.693      -25.126       62.728       80.863       48.336     3934.827     6538.800     2336.373        0.708        0.640       26.986       39.228        2.113      334.364        4.287      874.162
01/28/2022  11:04:00       18.823      -30.781      -14.113       75.997       46.438       34.100     5775.484     2156.506     1162.787        0.530        0.455       36.080       32.650        0.819      334.037        3.744      874.158
01/28/2022  11:05:00      118.089       60.259      -26.961       72.313       40.166       28.775     5229.187     1613.298      828.013        1.299        0.384      132.575       26.372        0.040      334.100        3.850      874.150
01/28/2022  11:06:00       90.561       64.786      -15.816       38.376       36.299       23.036     1472.741     1317.606      530.654        0.798        0.166      111.349       16.277        0.021      333.957        3.613      874.125
01/28/2022  11:07:00       60.017       41.066       -8.688       59.804       49.120       43.981     3576.562     2412.737     1934.315        0.664        0.396       72.722       19.430        0.071      334.188        3.995      874.094
01/28/2022  11:08:00      103.146       76.916      -14.693       61.775       43.672       29.971     3816.174     1907.212      898.252        1.170        0.331      128.667       24.778        0.037      333.895        3.510      874.077
01/28/2022  11:09:00       78.179       44.866      -28.044       31.203       25.272       20.898      973.625      638.660      436.722        0.548        0.102       90.138       11.266        0.016      333.863        3.457      874.057
01/28/2022  11:10:00      -11.571       -8.843      -13.481       27.671       22.290       18.815      765.671      496.852      354.003        0.100        0.081       14.563       16.118        1.225      334.342        4.250      874.029
01/28/2022  11:11:00       65.496       30.976      -20.164       38.964       41.673       18.967     1518.214     1736.606      359.766        0.463        0.181       72.452       13.446        0.034      334.459        4.445      874.016
01/28/2022  11:12:00       18.632       -7.492      -22.229       36.887       47.311       27.784     1360.664     2238.366      771.949        0.263        0.219       20.082       18.009        0.804      334.891        5.163      874.001
01/28/2022  11:13:00      153.163       47.922      -23.335       98.083       66.750       30.390     9620.303     4455.571      923.561        2.065        0.750      160.485       32.138        0.040      334.303        4.184      873.979
01/28/2022  11:14:00      158.351       80.696      -18.181       57.747       41.294       34.016     3334.699     1705.234     1157.074        1.906        0.310      177.727       26.572        0.022      333.873        3.472      873.972
01/28/2022  11:15:00      185.141       30.720      -27.610       48.833       41.223       20.332     2384.705     1699.362      413.371        2.024        0.225      187.672       19.544        0.011      333.726        3.229      873.955
01/28/2022  11:16:00       44.473       26.647      -18.834       39.855       36.751       17.924     1588.424     1350.650      321.272        0.315        0.163       51.845       14.092        0.074      333.861        3.453      873.946
01/28/2022  11:17:00       45.384      -11.542      -21.626       52.376       58.291       28.616     2743.264     3397.782      818.876        0.481        0.348       46.828       27.367        0.342      334.341        4.249      873.929
01/28/2022  11:18:00       99.230      -64.572      -41.588       85.841      113.814       44.943     7368.703    12953.639     2019.912        1.904        1.117      118.390       32.614        0.076      334.451        4.430      873.909
01/28/2022  11:19:00       65.202     -131.384      -39.118       46.848       45.851       25.622     2194.728     2102.355      656.510        1.400        0.248      146.673       14.352        0.010      334.300        4.181      873.893
01/28/2022  11:20:00       52.713     -107.035      -42.560       48.248       62.504       31.837     2327.907     3906.764     1013.604        1.165        0.362      119.311        4.895        0.002      334.557        4.607      873.875
01/28/2022  11:21:00       14.678      -72.406      -20.446       75.443       71.127       31.841     5691.680     5059.010     1013.861        0.882        0.588       73.879       17.124        0.054      334.621        4.714      873.858
01/28/2022  11:22:00       74.066     -112.783      -24.687       47.561       44.380       31.780     2262.007     1969.552     1009.975        1.203        0.262      134.929       26.747        0.039      334.309        4.197      873.842
01/28/2022  11:23:00      137.984     -173.982      -55.724       52.300      104.585       41.932     2735.262    10938.033     1758.278        3.392        0.772      222.057       29.377        0.018      334.129        3.895      873.822
01/28/2022  11:24:00       37.878      -74.688      -44.249       67.021       86.959       40.498     4491.872     7561.910     1640.048        1.133        0.685       83.743       36.609        0.191      334.446        4.423      873.800
01/28/2022  11:25:00       29.803      -30.020      -18.610       44.284       69.012       34.755     1961.102     4762.598     1207.922        0.503        0.397       42.301       25.165        0.354      334.843        5.084      873.792
01/28/2022  11:26:00       93.199      -49.838      -31.910       55.663       60.019       37.048     3098.357     3602.305     1372.546        1.013        0.404      105.688       30.015        0.081      334.401        4.349      873.769
01/28/2022  11:27:00        1.435     -101.586      -33.951       92.473       70.496       39.142     8551.209     4969.749     1532.122        1.326        0.753      101.596       40.306        0.157      334.638        4.741      873.733
01/28/2022  11:28:00      -67.255      -43.274      -27.098       54.829       45.136       37.792     3006.258     2037.230     1428.242        0.680        0.324       79.974       23.325        0.085      334.770        4.962      873.725
01/28/2022  11:29:00      -43.343      -35.743      -37.733       40.869       53.423       33.956     1670.299     2854.037     1153.030        0.513        0.284       56.180       21.934        0.152      334.819        5.044      873.720
01/28/2022  11:30:00      -30.741     -136.280      -57.368       79.165       68.649       38.863     6267.096     4712.638     1510.294        1.765        0.625      139.705       20.331        0.021      334.735        4.903      873.708
01/28/2022  11:31:00       77.874     -107.556      -41.485       49.851       85.080       36.744     2485.123     7238.583     1350.137        1.521        0.554      132.788       28.954        0.048      334.543        4.583      873.692
01/28/2022  11:32:00       89.044     -116.226      -26.220       34.393       56.665       31.342     1182.881     3210.896      982.336        1.375        0.269      146.415       25.989        0.032      334.158        3.944      873.676
01/28/2022  11:33:00       65.817     -133.039      -35.389       43.973       38.534       23.770     1933.584     1484.881      565.026        1.363        0.199      148.429       11.077        0.006      334.394        4.337      873.636
01/28/2022  11:34:00        7.164      -31.322       -7.116       58.453       46.335       38.853     3416.715     2146.888     1509.588        0.408        0.354       32.131       26.125        0.661      334.893        5.166      873.607
01/28/2022  11:35:00       77.113      -12.848      -22.401       37.357       53.149       29.214     1395.520     2824.803      853.475        0.584        0.254       78.176       22.629        0.084      334.662        4.782      873.595
01/28/2022  11:36:00       28.474      -14.950      -18.013       28.168       36.503       23.869      793.433     1332.505      569.736        0.203        0.135       32.160       13.020        0.164      334.433        4.402      873.588
01/28/2022  11:37:00      -18.130       41.588      -10.161       27.492       26.197       20.644      755.820      686.299      426.189        0.201        0.093       45.368        7.505        0.027      334.261        4.117      873.571
01/28/2022  11:38:00      -35.110      -12.551      -23.486       28.823       29.573       18.821      830.772      874.550      354.244        0.200        0.103       37.286       14.651        0.154      334.335        4.240      873.553
01/28/2022  11:39:00      -19.452      -12.303      -21.499       20.306       26.541       15.784      412.318      704.416      249.134        0.118        0.068       23.017        6.264        0.074      334.983        5.314      873.525
01/28/2022  11:40:00       61.854       -3.590      -24.163       59.906       67.864       35.719     3588.763     4605.566     1275.870        0.694        0.474       61.958       25.810        0.174      334.953        5.267      873.495
01/28/2022  11:41:00      153.360       69.940      -26.595       87.564       74.638       30.070     7667.446     5570.868      904.214        2.163        0.707      168.555       22.157        0.017      334.624        4.717      873.465
01/28/2022  11:42:00      143.445       67.132      -20.043       58.840       47.405       29.719     3462.166     2247.256      883.193        1.604        0.330      158.376       21.448        0.018      334.490        4.496      873.442
01/28/2022  11:43:00      130.550       -6.202      -28.440       78.451       71.496       47.632     6154.605     5111.646     2268.832        1.571        0.677      130.697       28.050        0.046      334.731        4.895      873.406
01/28/2022  11:44:00      110.831       17.213        2.107       66.310       51.363       40.359     4397.034     2638.133     1628.860        1.062        0.433      112.160       32.350        0.083      334.459        4.445      873.387
01/28/2022  11:45:00        8.286       -5.746      -20.718       40.532       37.980       21.750     1642.855     1442.505      473.044        0.204        0.178       10.084       15.254        2.288      334.860        5.112      873.364
01/28/2022  11:46:00       73.346       27.944      -24.171       47.180       66.657       29.520     2225.912     4443.126      871.408        0.714        0.377       78.489       19.383        0.061      334.847        5.090      873.346
01/28/2022  11:47:00       61.826       45.977       -8.649       73.336       40.247       33.338     5378.139     1619.828     1111.445        0.706        0.405       77.048       19.667        0.065      335.166        5.620      873.340
01/28/2022  11:48:00       69.931       36.953       -9.867       49.402       36.907       32.517     2440.600     1362.130     1057.328        0.561        0.243       79.094       20.834        0.069      334.690        4.829      873.336
01/28/2022  11:49:00      -16.975        3.848       -8.061       47.859       43.203       24.302     2290.515     1866.532      590.596        0.256        0.237       17.406       18.612        1.143      334.746        4.921      873.310
01/28/2022  11:50:00       57.941      -89.471      -27.981       52.515       54.197       39.017     2757.857     2937.358     1522.363        0.968        0.361      106.594       30.204        0.080      334.673        4.800      873.292
01/28/2022  11:51:00       38.616      -43.611      -28.249       35.559       33.084       27.223     1264.413     1094.568      741.076        0.365        0.155       58.251       16.541        0.081      334.519        4.543      873.264
01/28/2022  11:52:00       44.301      -29.578      -26.819       26.592       34.406       20.457      707.156     1183.739      418.494        0.293        0.115       53.267       14.236        0.071      334.523        4.551      873.257
01/28/2022  11:53:00       68.769     -102.655      -30.315       48.194       55.482       30.053     2322.695     3078.223      903.189        1.124        0.315      123.560       28.356        0.053      334.776        4.972      873.249
01/28/2022  11:54:00       61.781      -64.770      -30.905       67.176       83.163       41.276     4512.629     6916.084     1703.728        1.105        0.657       89.510       18.157        0.041      334.859        5.110      873.221
01/28/2022  11:55:00       79.480     -217.281      -42.631       49.749      108.097       33.936     2474.973    11684.905     1151.638        3.533        0.766      231.361       29.523        0.016      334.515        4.536      873.181
01/28/2022  11:56:00       42.691      -64.082      -28.855       87.107      117.353       57.668     7587.685    13771.639     3325.625        1.572        1.234       77.000       59.546        0.598      335.047        5.419      873.155
01/28/2022  11:57:00       80.894     -120.131      -40.677       54.589       47.572       37.601     2979.966     2263.058     1413.868        1.464        0.333      144.828       24.958        0.030      334.751        4.931      873.160
01/28/2022  11:58:00       98.593      -10.618      -22.768       67.098       88.432       34.481     4502.105     7820.268     1188.948        1.193        0.676       99.164       15.658        0.025      334.869        5.126      873.144
01/28/2022  11:59:00      178.374      -44.678      -13.166       85.550       74.572       48.286     7318.723     5561.027     2331.513        2.460        0.761      183.884       32.733        0.032      334.825        5.052      873.117
01/28/2022  12:00:00      142.650       18.076      -24.800       81.641       76.382       42.562     6665.201     5834.177     1811.554        1.780        0.716      143.791       35.024        0.059      334.962        5.279      873.095
01/28/2022  12:01:00       92.287        3.427      -46.098       55.894      106.037       49.138     3124.138    11243.776     2414.567        1.371        0.839       92.350       30.065        0.106      335.026        5.386      873.085
01/28/2022  12:02:00       42.755      -22.008      -33.669       54.025       75.736       40.010     2918.716     5735.990     1600.792        0.685        0.513       48.087       29.953        0.388      335.111        5.529      873.068
01/28/2022  12:03:00       20.049      -36.301      -16.794       61.101       62.581       34.603     3733.383     3916.354     1197.358        0.542        0.442       41.470       26.156        0.398      335.093        5.499      873.052
01/28/2022  12:04:00       92.636     -259.065      -40.975       37.046       38.161       29.515     1372.437     1456.244      871.157        4.054        0.185      275.129       23.205        0.007      334.538        4.572      873.017
01/28/2022  12:05:00       79.882     -162.896      -36.250       54.925      120.214       30.953     3016.714    14451.370      958.106        2.632        0.921      181.429       45.436        0.063      334.659        4.774      872.981
01/28/2022  12:06:00      -15.281       54.257        5.957       30.732       53.690       24.059      944.465     2882.651      578.842        0.381        0.220       56.368       11.717        0.043      334.896        5.170      872.968
01/28/2022  12:07:00       66.807     -185.524      -47.252       49.117       62.188       30.054     2412.522     3867.394      903.220        2.415        0.359      197.186       22.344        0.013      334.800        5.010      872.941
01/28/2022  12:08:00       32.729     -141.969      -39.088       56.120       55.497       38.572     3149.442     3079.962     1487.778        1.523        0.386      145.693       40.527        0.077      334.804        5.019      872.937
01/28/2022  12:09:00       70.158     -154.692      -34.374       49.304       44.636       27.702     2430.891     1992.346      767.405        1.761        0.260      169.859       31.935        0.035      334.683        4.815      872.924
01/28/2022  12:10:00       46.819      -74.335      -27.741       40.772       62.981       32.017     1662.321     3966.575     1025.080        0.757        0.333       87.850       30.728        0.122      334.860        5.111      872.913
01/28/2022  12:11:00       54.979     -133.813      -37.132       53.688       49.242       31.447     2882.419     2424.782      988.893        1.430        0.315      144.667       14.990        0.011      334.838        5.075      872.894
01/28/2022  12:12:00       97.725      -70.414      -40.400       66.618      114.432       37.781     4437.903    13094.651     1427.374        1.755        0.948      120.451       24.004        0.040      334.940        5.243      872.870
01/28/2022  12:13:00        6.205      -68.964      -25.342       53.517       67.951       37.873     2864.116     4617.360     1434.358        0.717        0.446       69.242       26.061        0.142      335.022        5.381      872.861
01/28/2022  12:14:00      -10.207      -18.224      -28.101       19.872       27.044       23.917      394.901      731.359      572.035        0.146        0.085       20.887       17.589        0.709      334.946        5.254      872.853
01/28/2022  12:15:00        4.637      -57.888      -25.851       29.310       37.391       23.395      859.102     1398.097      547.342        0.342        0.140       58.073       15.221        0.069      335.103        5.513      872.837
01/28/2022  12:16:00        9.861       -2.601      -10.087       37.839       36.066       19.570     1431.805     1300.728      382.997        0.166        0.156       10.198       15.239        2.233      335.266        5.784      872.825
01/28/2022  12:17:00       71.314     -142.016      -37.681       68.058       69.633       31.037     4631.906     4848.741      963.288        1.856        0.522      158.916       28.973        0.033      334.914        5.200      872.797
01/28/2022  12:18:00       44.944      -73.350      -36.985       41.283       48.032       34.879     1704.268     2307.090     1216.568        0.700        0.261       86.025       26.204        0.093      334.979        5.309      872.785
01/28/2022  12:19:00       71.964      -63.252      -32.419       32.775       59.465       21.153     1074.176     3536.143      447.430        0.764        0.253       95.810       18.406        0.037      334.995        5.336      872.764
01/28/2022  12:20:00       20.424       -6.101       -9.735       44.482       42.588       25.781     1978.671     1813.780      664.647        0.250        0.223       21.315       20.727        0.946      335.225        5.718      872.742
01/28/2022  12:21:00      112.513      -15.717      -29.524       69.918       75.169       41.935     4888.562     5650.433     1758.525        1.304        0.615      113.606       21.719        0.037      335.168        5.623      872.727
01/28/2022  12:22:00      120.193       24.154      -12.239       56.427       58.507       37.918     3183.951     3423.021     1437.808        1.161        0.402      122.596       29.026        0.056      335.029        5.392      872.712
01/28/2022  12:23:00       36.089       -1.206      -15.213       37.372       35.883       22.279     1396.654     1287.569      496.367        0.236        0.159       36.109       11.468        0.101      335.387        5.986      872.688
01/28/2022  12:24:00       37.074      -86.930      -30.410       51.708       53.377       32.179     2673.725     2849.138     1035.516        0.821        0.328       94.506       30.380        0.103      335.372        5.961      872.650
01/28/2022  12:25:00       99.979     -247.296      -46.408       60.566       75.719       52.866     3668.272     5733.296     2794.856        4.275        0.610      266.742       45.528        0.029      335.018        5.368      872.615
01/28/2022  12:26:00       55.925     -225.124      -43.144       40.361       52.214       36.262     1628.971     2726.351     1314.964        3.067        0.284      231.967       25.405        0.012      334.840        5.074      872.599
01/28/2022  12:27:00       35.526     -114.136      -29.512       36.002       83.194       26.737     1296.117     6921.263      714.878        1.204        0.447      119.538       33.646        0.079      335.001        5.342      872.603
01/28/2022  12:28:00        9.870      -21.743      -15.185       49.503       44.814       37.921     2450.556     2008.303     1437.965        0.335        0.295       23.879       21.920        0.843      335.306        5.851      872.594
01/28/2022  12:29:00      -21.012       -9.529       -8.288       38.256       50.933       25.906     1463.488     2594.209      671.112        0.266        0.236       23.072       21.870        0.899      335.479        6.140      872.577
01/28/2022  12:30:00       30.147     -109.198      -32.812       53.651       63.770       38.522     2878.394     4066.598     1483.952        1.117        0.421      113.283       30.017        0.070      335.791        6.660      872.556
01/28/2022  12:31:00       17.765      -90.414      -29.675       42.592       34.351       30.692     1814.091     1179.963      942.029        0.665        0.197       92.143       16.329        0.031      335.376        5.969      872.554
01/28/2022  12:32:00       78.697      -99.515      -30.906       40.781       39.781       37.053     1663.061     1582.490     1372.935        1.083        0.231      126.872       29.217        0.053      334.926        5.220      872.526
01/28/2022  12:33:00       16.051       12.338      -15.905       39.619       42.441       19.270     1569.626     1801.260      371.321        0.220        0.187       20.245        4.198        0.043      334.913        5.200      872.508
01/28/2022  12:34:00       65.343      -30.409      -25.989       99.574       52.122       28.524     9915.017     2716.745      813.611        0.966        0.672       72.072       29.723        0.170      335.269        5.790      872.462
01/28/2022  12:35:00       60.248       28.824      -25.967       74.103       59.819       46.288     5491.264     3578.253     2142.613        0.817        0.561       66.788       43.014        0.415      335.296        5.837      872.437
01/28/2022  12:36:00      124.988       23.968      -23.106       83.788       70.245       45.313     7020.440     4934.353     2053.307        1.537        0.700      127.265       40.069        0.099      335.276        5.802      872.424
01/28/2022  12:37:00       74.749      -56.764      -15.600       74.642       87.197       50.911     5571.355     7603.327     2591.906        1.241        0.788       93.859       36.594        0.152      335.680        6.475      872.401
01/28/2022  12:38:00      137.222       61.020      -21.277       53.392       70.409       40.580     2850.755     4957.469     1646.773        1.623        0.473      150.178       28.563        0.036      335.223        5.715      872.392
01/28/2022  12:39:00      148.601       -4.092      -12.778       66.192       52.278       37.645     4381.364     2733.022     1417.151        1.540        0.427      148.657       35.105        0.056      335.271        5.795      872.362
01/28/2022  12:40:00      141.609       40.658      -22.353       54.924       37.213       19.769     3016.611     1384.837      390.799        1.350        0.240      147.330       24.040        0.027      334.883        5.149      872.345
01/28/2022  12:41:00       31.014       37.392       -7.007       26.856       26.170       22.991      721.221      684.854      528.603        0.217        0.097       48.580       16.511        0.116      335.180        5.643      872.327
01/28/2022  12:42:00      103.576       98.292      -30.018       51.962       36.781       35.168     2700.036     1352.867     1236.815        1.329        0.264      142.792       18.553        0.017      334.997        5.338      872.305
01/28/2022  12:43:00       34.906       97.115      -26.624       20.669       20.393       21.960      427.214      415.885      482.257        0.634        0.066      103.197       16.718        0.026      334.855        5.105      872.288
01/28/2022  12:44:00       24.271       77.718      -23.460       17.710       39.356       17.791      313.628     1548.919      316.536        0.468        0.109       81.420       13.781        0.029      335.099        5.509      872.256
01/28/2022  12:45:00       15.408       55.665      -16.392       21.774       23.581       23.251      474.096      556.057      540.614        0.259        0.079       57.758       13.702        0.056      335.229        5.724      872.232
01/28/2022  12:46:00       56.528       20.572      -18.581       28.720       39.102       19.026      824.848     1528.967      361.999        0.334        0.136       60.155       22.141        0.135      335.120        5.543      872.203
01/28/2022  12:47:00       77.748       20.558      -30.796       42.953       28.969       23.781     1844.954      839.178      565.557        0.533        0.162       80.420       17.234        0.046      335.410        6.026      872.174
01/28/2022  12:48:00       68.465       51.710      -13.706       60.981       43.272       30.091     3718.669     1872.449      905.487        0.702        0.325       85.799       26.782        0.097      335.292        5.829      872.157
01/28/2022  12:49:00      -10.615       50.539       -2.463       50.611       32.917       20.839     2561.436     1083.512      434.274        0.338        0.204       51.642        7.360        0.020      335.728        6.556      872.138
01/28/2022  12:50:00       18.151      -15.664      -10.188       38.515       48.754       31.120     1483.421     2376.921      968.438        0.275        0.241       23.975        7.195        0.090      336.108        7.189      872.106
01/28/2022  12:51:00        9.632       -5.314      -18.328       27.519       32.272       18.232      757.290     1041.506      332.416        0.129        0.107       11.000       12.418        1.274      335.476        6.136      872.087
01/28/2022  12:52:00       27.853     -104.395      -28.129       62.807       49.566       40.937     3944.775     2456.796     1675.843        1.027        0.404      108.046       33.478        0.096      335.809        6.690      872.063
01/28/2022  12:53:00       99.365     -146.810      -56.787       87.534       92.225       50.395     7662.253     8505.395     2539.643        2.668        0.935      177.275       48.056        0.073      335.430        6.057      872.026
01/28/2022  12:54:00       42.627      -54.389      -13.710       31.583       42.231       28.283      997.497     1783.420      799.921        0.427        0.179       69.103       32.850        0.226      335.224        5.718      872.014
01/28/2022  12:55:00       47.729      -71.717      -26.140       57.682       93.607       45.649     3327.161     8762.203     2083.836        1.114        0.709       86.148       38.382        0.199      335.699        6.507      871.985
01/28/2022  12:56:00      107.384     -210.348      -49.153       36.197       52.269       32.853     1310.243     2732.059     1079.292        3.166        0.256      236.173       26.802        0.013      335.057        5.436      871.977
01/28/2022  12:57:00       83.333     -119.593      -46.133       27.277       29.180       19.291      744.029      851.488      372.129        1.267        0.098      145.764       12.846        0.008      334.947        5.254      871.986
01/28/2022  12:58:00       36.481        2.221       -1.393       43.244       66.700       36.329     1870.003     4448.919     1319.775        0.449        0.382       36.548       36.261        0.984      335.456        6.101      871.967
01/28/2022  12:59:00       -4.669       -3.289       -7.887       47.206       48.857       41.158     2228.419     2387.004     1693.952        0.320        0.315        5.711       10.666        3.488      335.729        6.556      871.937
01/28/2022  13:00:00       14.650      -83.239      -10.646       49.143       76.223       40.124     2415.083     5809.878     1609.943        0.854        0.492       84.518       23.771        0.079      335.743        6.580      871.913
01/28/2022  13:01:00      -26.758      -86.823      -28.068       56.693       62.486       26.818     3214.088     3904.545      719.222        0.844        0.392       90.853       14.392        0.025      335.546        6.252      871.892
01/28/2022  13:02:00       38.610      -88.563       -9.807       29.078       74.673       28.720      845.504     5576.101      824.861        0.834        0.362       96.613       30.605        0.100      335.528        6.222      871.892
01/28/2022  13:03:00       48.744     -105.447      -44.758       77.442       78.363       45.654     5997.227     6140.807     2084.283        1.486        0.711      116.168       32.445        0.078      335.370        5.958      871.884
01/28/2022  13:04:00      -18.595      -95.919      -57.533       54.898       55.117       41.351     3013.828     3037.935     1709.872        1.031        0.388       97.705       24.945        0.065      335.728        6.555      871.859
01/28/2022  13:05:00       61.789     -147.327      -33.387       65.787       76.688       41.179     4327.949     5881.102     1695.750        1.927        0.595      159.760       33.297        0.043      335.717        6.536      871.861
01/28/2022  13:06:00       99.280     -194.030      -48.874       77.771       62.377       30.870     6048.367     3890.869      952.930        3.039        0.545      217.955       26.970        0.015      335.227        5.718      871.833
01/28/2022  13:07:00       97.502     -125.781      -42.494       77.158       96.185       46.118     5953.416     9251.536     2126.837        2.223        0.867      159.147       41.538        0.068      335.625        6.380      871.805
01/28/2022  13:08:00      101.328       50.663      -30.842       71.052       66.622       36.429     5048.411     4438.448     1327.046        1.230        0.541      113.287       29.131        0.066      335.709        6.523      871.802
01/28/2022  13:09:00       45.605      -51.087      -32.118       52.991       68.938       33.965     2808.065     4752.408     1153.651        0.722        0.436       68.481       26.311        0.148      335.708        6.521      871.776
01/28/2022  13:10:00       -1.102        7.334       -1.453       41.612       25.944       29.588     1731.519      673.073      875.440        0.167        0.164        7.416        9.168        1.528      336.003        7.013      871.754
01/28/2022  13:11:00       53.406     -114.976      -26.856       27.605       61.788       28.005      762.009     3817.706      784.284        1.108        0.268      126.774       20.777        0.027      335.348        5.923      871.750
01/28/2022  13:12:00       80.873     -113.768      -27.934       60.781       77.558       30.708     3694.344     6015.198      942.981        1.546        0.533      139.584       32.652        0.055      335.512        6.194      871.720
01/28/2022  13:13:00      111.491     -287.283      -56.863       49.716       59.603       29.580     2471.635     3552.533      874.992        5.255        0.345      308.159       30.113        0.010      335.274        5.796      871.691
01/28/2022  13:14:00       96.229     -184.588      -46.072       59.749       87.884       44.535     3569.972     7723.606     1983.386        2.936        0.664      208.165       40.126        0.037      335.330        5.890      871.658
01/28/2022  13:15:00       73.303      -56.885      -36.175       73.934       75.773       32.582     5466.269     5741.559     1061.604        1.109        0.613       92.787       37.355        0.162      335.633        6.395      871.646
01/28/2022  13:16:00       46.393     -170.444      -26.816       60.064       72.803       42.474     3607.648     5300.335     1804.020        2.132        0.536      176.645       31.210        0.031      335.656        6.433      871.631
01/28/2022  13:17:00      103.115     -222.803      -51.843       59.147       65.709       39.961     3498.364     4317.650     1596.851        3.619        0.471      245.508       25.961        0.011      335.571        6.289      871.592
01/28/2022  13:18:00      154.178     -202.923      -54.631       58.453       81.472       38.456     3416.747     6637.655     1478.880        3.973        0.577      254.850       33.836        0.018      335.419        6.035      871.581
01/28/2022  13:19:00       83.814      -70.792      -37.809       41.289       70.978       31.504     1704.786     5037.947      992.500        1.060        0.387      109.710       16.488        0.023      335.569        6.290      871.592
01/28/2022  13:20:00       63.623     -223.907      -39.385       50.337       79.465       36.166     2533.767     6314.615     1308.015        3.294        0.508      232.771       25.929        0.012      335.594        6.328      871.576
01/28/2022  13:21:00       74.328     -204.466      -49.034       30.686       44.299       25.459      941.653     1962.422      648.153        2.664        0.178      217.557       22.077        0.010      335.399        6.005      871.575
01/28/2022  13:22:00       81.950     -188.431      -42.446       45.251       44.089       26.273     2047.614     1943.848      690.278        2.435        0.234      205.480       13.052        0.004      335.680        6.473      871.561
01/28/2022  13:23:00       28.640      -64.940      -34.563       73.576       59.484       31.144     5413.434     3538.335      969.939        0.808        0.496       70.975       21.175        0.089      336.026        7.052      871.541
01/28/2022  13:24:00       28.148      -89.070      -19.910       54.276       42.244       30.408     2945.928     1784.551      924.640        0.739        0.283       93.412       19.840        0.045      336.055        7.100      871.528
01/28/2022  13:25:00      -32.473      -86.560      -43.187       62.669       36.415       21.378     3927.452     1326.076      457.038        0.806        0.286       92.450       12.964        0.020      335.878        6.805      871.517
01/28/2022  13:26:00      -23.184      -45.242      -17.042       42.729       42.346       32.788     1825.758     1793.221     1075.059        0.378        0.235       50.837       21.018        0.171      336.129        7.222      871.506
01/28/2022  13:27:00      -26.468      -66.928      -13.026       71.262       49.202       36.791     5078.322     2420.805     1353.544        0.710        0.443       71.971       24.304        0.114      336.115        7.201      871.487
01/28/2022  13:28:00      -81.460      -50.225      -31.308       57.106       39.340       32.786     3261.124     1547.632     1074.915        0.801        0.294       95.699       19.680        0.042      336.141        7.243      871.459
01/28/2022  13:29:00      -54.967      -60.749      -18.768       51.635       36.417       29.869     2666.209     1326.221      892.149        0.597        0.244       81.926       16.118        0.039      335.836        6.735      871.433
01/28/2022  13:30:00       63.727     -170.356      -47.891       49.039       56.342       23.715     2404.782     3174.402      562.397        2.076        0.307      181.885       11.770        0.004      335.960        6.939      871.406
01/28/2022  13:31:00       97.898     -160.648      -42.972       56.526       84.202       33.305     3195.205     7090.030     1109.252        2.431        0.570      188.127       29.892        0.025      335.636        6.398      871.386
01/28/2022  13:32:00      -19.833      -54.605      -12.024       67.283       52.702       43.338     4526.938     2777.486     1878.219        0.635        0.459       58.095       26.213        0.204      336.199        7.340      871.372
01/28/2022  13:33:00       85.144     -114.006      -29.848       45.636       72.173       37.815     2082.675     5208.945     1429.965        1.493        0.436      142.292       34.062        0.057      335.937        6.902      871.361
01/28/2022  13:34:00      -38.190      -79.181      -35.030       48.164       56.104       31.156     2319.792     3147.694      970.710        0.770        0.322       87.910       18.234        0.043      336.252        7.430      871.349
01/28/2022  13:35:00       -6.649      -61.250       -9.223       58.016       64.257       36.435     3365.804     4128.924     1327.502        0.635        0.441       61.610       14.226        0.053      336.253        7.431      871.340
01/28/2022  13:36:00       48.032     -119.248      -38.483       65.861       72.292       31.547     4337.669     5226.157      995.208        1.428        0.528      128.558       26.822        0.044      335.905        6.850      871.342
01/28/2022  13:37:00       75.901      -81.991      -22.105       44.814       63.318       37.799     2008.285     4009.202     1428.768        1.021        0.372      111.730       35.101        0.099      335.856        6.768      871.362
01/28/2022  13:38:00       43.258       25.768       -5.354       58.809       27.996       29.719     3458.523      783.765      883.191        0.384        0.256       50.351       18.679        0.138      335.741        6.576      871.352
01/28/2022  13:39:00       -8.619        9.790      -11.342       51.891       37.081       30.065     2692.644     1374.983      903.899        0.263        0.249       13.043       27.340        4.394      336.276        7.469      871.316
01/28/2022  13:40:00       17.958       -4.626       12.090       33.831       42.646       32.156     1144.527     1818.706     1033.991        0.224        0.200       18.544       23.725        1.637      336.568        7.958      871.291
01/28/2022  13:41:00       87.971     -170.556      -42.959       58.063       41.585       22.954     3371.287     1729.345      526.906        2.215        0.281      191.907       10.674        0.003      335.835        6.733      871.284
01/28/2022  13:42:00       19.863      -40.583      -20.996       76.058       71.212       34.403     5784.777     5071.139     1183.584        0.726        0.602       45.184       29.605        0.429      336.262        7.446      871.271
01/28/2022  13:43:00       78.064      -51.815      -28.512       64.041       63.345       32.994     4101.240     4012.558     1088.591        0.940        0.460       93.695       20.130        0.046      336.264        7.449      871.277
01/28/2022  13:44:00       44.548      -77.149      -25.660       64.033       52.218       39.651     4100.200     2726.736     1572.238        0.850        0.420       89.086       22.321        0.063      336.347        7.589      871.257
01/28/2022  13:45:00      -14.752       -7.918       -4.970       41.876       35.372       21.137     1753.601     1251.177      446.777        0.188        0.173       16.743        9.754        0.339      336.389        7.658      871.259
01/28/2022  13:46:00      -27.749        0.210      -11.554       43.647       21.476       21.378     1905.060      461.203      457.003        0.186        0.141       27.750       10.780        0.151      336.341        7.579      871.248
01/28/2022  13:47:00       51.090      -10.111       -5.842       58.959       62.031       35.561     3476.201     3847.812     1264.599        0.567        0.429       52.080       33.144        0.405      336.318        7.539      871.219
01/28/2022  13:48:00       61.111       27.817       -7.625       41.634       47.522       33.375     1733.385     2258.313     1113.881        0.484        0.255       67.144       24.034        0.128      335.963        6.948      871.207
01/28/2022  13:49:00       45.836        3.489      -13.738       37.136       56.450       27.707     1379.075     3186.604      767.702        0.382        0.267       45.969       28.549        0.386      336.228        7.391      871.176
01/28/2022  13:50:00       16.863      -50.896      -20.667       47.030       52.034       34.402     2211.860     2707.486     1183.489        0.470        0.305       53.617       23.401        0.190      336.366        7.620      871.170
01/28/2022  13:51:00       32.084       -6.867      -14.008       54.945       87.018       35.515     3018.977     7572.100     1261.289        0.656        0.593       32.810       31.814        0.940      336.315        7.535      871.162
01/28/2022  13:52:00       94.640      -26.420      -11.654       76.681       66.357       46.764     5880.048     4403.297     2186.865        1.113        0.624       98.258       40.230        0.168      336.151        7.259      871.122
01/28/2022  13:53:00      123.790       11.931      -23.051       57.806       58.248       32.705     3341.559     3392.820     1069.600        1.190        0.390      124.363       13.259        0.011      336.151        7.261      871.115
01/28/2022  13:54:00       85.253       16.867      -19.316       52.365       52.703       32.252     2742.104     2777.562     1040.161        0.724        0.328       86.905       13.463        0.024      336.160        7.275      871.092
01/28/2022  13:55:00      146.108        2.244      -22.734       36.601       35.235       32.849     1339.649     1241.481     1079.044        1.276        0.183      146.125       12.174        0.007      335.774        6.631      871.083
01/28/2022  13:56:00       87.312       12.908      -26.793       32.660       39.975       16.405     1066.692     1597.972      269.110        0.572        0.147       88.261        8.608        0.010      335.838        6.738      871.082
01/28/2022  13:57:00       90.461       44.866      -11.785       31.282       45.831       24.781      978.591     2100.460      614.100        0.701        0.185      100.976       21.020        0.043      336.064        7.114      871.070
01/28/2022  13:58:00       60.667       25.580       -6.493       33.884       34.986       25.200     1148.145     1224.049      635.065        0.369        0.150       65.839       17.229        0.068      336.173        7.296      871.054
01/28/2022  13:59:00       65.755      -58.402      -31.264       41.885       53.107       32.668     1754.360     2820.403     1067.187        0.718        0.282       87.946       12.610        0.021      336.393        7.664      871.031
01/28/2022  14:00:00       34.470      -63.924      -37.840       39.136       42.981       30.727     1531.591     1847.353      944.149        0.551        0.216       72.626       18.769        0.067      336.348        7.590      871.006
01/28/2022  14:01:00       67.031      -81.421      -35.106       41.558       61.943       31.778     1727.067     3836.900     1009.864        0.946        0.329      105.464       19.966        0.036      336.411        7.694      870.996
01/28/2022  14:02:00       75.196       24.388      -28.516       20.701       53.318       17.322      428.531     2842.849      300.039        0.532        0.179       79.052       15.362        0.038      336.094        7.164      871.006
01/28/2022  14:03:00       65.985       59.476      -13.491       41.391       31.758       23.938     1713.222     1008.561      573.027        0.568        0.165       88.833       17.622        0.039      336.044        7.083      870.993
01/28/2022  14:04:00       44.709       58.041      -19.943       52.806       33.162       29.856     2788.467     1099.726      891.404        0.527        0.239       73.265       18.773        0.066      336.296        7.504      870.969
01/28/2022  14:05:00       81.445        9.650       -9.520       87.389       47.699       31.272     7636.822     2275.206      977.949        0.885        0.544       82.015       33.643        0.168      336.306        7.519      870.931
01/28/2022  14:06:00      263.081       99.526      -26.124       63.727       48.685       32.091     4061.125     2370.257     1029.819        4.363        0.373      281.277       24.941        0.008      336.014        7.030      870.909
01/28/2022  14:07:00      215.410       35.092      -23.263       62.734       72.871       35.816     3935.520     5310.205     1282.773        2.935        0.526      218.250       21.785        0.010      336.052        7.091      870.913
01/28/2022  14:08:00      124.728        9.965      -17.404       59.118       69.315       42.664     3494.922     4804.531     1820.177        1.304        0.506      125.126       12.427        0.010      336.259        7.440      870.912
01/28/2022  14:09:00      109.062       18.493      -10.604       75.229       52.561       29.403     5659.453     2762.613      864.531        1.082        0.464      110.619       23.564        0.045      336.223        7.380      870.921
01/28/2022  14:10:00       99.041       53.511      -15.650       46.372       32.784       20.806     2150.332     1074.797      432.904        0.829        0.183      112.572       21.136        0.035      336.138        7.238      870.922
01/28/2022  14:11:00      102.978       28.687      -14.078       53.832       40.519       34.193     2897.885     1641.793     1169.178        0.867        0.285      106.899       12.495        0.014      336.415        7.700      870.908
01/28/2022  14:12:00       11.593       11.484      -12.730       34.907       51.246       23.241     1218.518     2626.152      540.151        0.241        0.219       16.318        8.723        0.286      336.368        7.623      870.900
01/28/2022  14:13:00      120.332       72.233      -30.329       76.924       50.524       24.100     5917.239     2552.670      580.791        1.483        0.453      140.348       14.280        0.010      336.186        7.318      870.895
01/28/2022  14:14:00      113.158      150.547      -23.667       62.576       47.731       29.771     3915.787     2278.209      886.333        2.155        0.354      188.333       17.606        0.009      336.140        7.241      870.895
01/28/2022  14:15:00       55.178      139.251      -20.758       40.757       45.432       28.578     1661.135     2064.102      816.689        1.370        0.227      149.785       17.302        0.013      336.369        7.625      870.891
01/28/2022  14:16:00       85.436       78.601      -10.188       52.919       36.946       34.301     2800.381     1365.040     1176.566        0.946        0.267      116.093       20.374        0.031      336.288        7.488      870.887
01/28/2022  14:17:00       75.374       47.071      -19.508       26.258       16.380       16.439      689.469      268.292      270.252        0.475        0.061       88.865        6.116        0.005      336.013        7.029      870.893
01/28/2022  14:18:00       57.670      -26.501      -16.054       39.390       42.403       26.628     1551.560     1798.007      709.058        0.417        0.203       63.468       16.219        0.065      336.146        7.253      870.881
01/28/2022  14:19:00       13.893      -36.869      -23.699       41.646       33.388       22.915     1734.357     1114.759      525.118        0.274        0.169       39.399       26.023        0.436      336.167        7.289      870.863
01/28/2022  14:20:00        2.407      -47.519      -14.254       19.775       27.415       21.378      391.057      751.588      457.020        0.203        0.080       47.580       18.003        0.143      336.131        7.227      870.845
01/28/2022  14:21:00      -23.488       21.116      -26.691       22.405       34.728       16.735      502.006     1206.025      280.073        0.185        0.099       31.584        9.293        0.087      336.242        7.413      870.828
01/28/2022  14:22:00      -97.883       17.690      -25.388       52.077       36.600       33.315     2712.030     1339.539     1109.911        0.785        0.258       99.469       22.168        0.050      336.324        7.549      870.806
01/28/2022  14:23:00     -102.735      -29.640      -26.518       56.697       29.971       35.740     3214.524      898.241     1277.379        0.876        0.270      106.925       35.457        0.110      336.393        7.665      870.781
01/28/2022  14:24:00      -12.316      -25.458       -7.776       39.309       62.308       21.384     1545.187     3882.333      457.274        0.337        0.294       28.280       20.794        0.541      336.370        7.627      870.783
01/28/2022  14:25:00        1.430       90.448      -18.018       21.095       42.787       23.080      444.998     1830.757      532.678        0.566        0.140       90.459        5.790        0.004      336.276        7.469      870.779
01/28/2022  14:26:00      -60.806       62.663      -14.715       31.334       28.159       26.050      981.811      792.925      678.577        0.515        0.123       87.316       16.581        0.036      336.625        8.052      870.767
01/28/2022  14:27:00       16.465        9.042        8.521       48.517       27.917       35.407     2353.851      779.354     1253.630        0.241        0.219       18.785       29.966        2.545      336.656        8.105      870.748
01/28/2022  14:28:00       20.290       35.466      -20.678       39.041       19.148       20.041     1524.225      366.650      401.653        0.219        0.115       40.860       14.081        0.119      336.452        7.763      870.751
01/28/2022  14:29:00       92.834       14.497      -19.875       40.536       33.115       21.543     1643.139     1096.593      464.112        0.621        0.160       93.959       11.323        0.015      336.412        7.696      870.746
01/28/2022  14:30:00       93.828       14.034      -10.501       41.888       58.369       27.518     1754.571     3406.978      757.231        0.751        0.296       94.871       14.098        0.022      336.636        8.072      870.748
01/28/2022  14:31:00       21.549      -30.196      -19.141       49.298       79.767       37.258     2430.339     6362.732     1388.140        0.596        0.509       37.097       36.788        0.983      336.845        8.419      870.743
01/28/2022  14:32:00       87.463       53.352      -25.752       39.585       36.051       31.049     1566.985     1299.665      964.017        0.749        0.192      102.451       18.463        0.032      336.434        7.733      870.752
01/28/2022  14:33:00       54.049       14.007      -16.424       60.285       46.587       28.584     3634.318     2170.322      817.045        0.500        0.331       55.835       25.248        0.204      336.798        8.341      870.754
01/28/2022  14:34:00       47.207       32.352      -34.047       57.641       61.423       42.885     3322.513     3772.830     1839.131        0.668        0.447       57.229       34.319        0.360      336.711        8.196      870.749
01/28/2022  14:35:00      156.826       29.846      -20.906       66.142       76.770       38.981     4374.826     5893.606     1519.502        1.885        0.589      159.641       35.586        0.050      336.341        7.576      870.734
01/28/2022  14:36:00      139.012       39.269      -26.617       76.712       49.811       33.515     5884.760     2481.112     1123.262        1.553        0.474      144.452       21.368        0.022      336.415        7.701      870.740
01/28/2022  14:37:00      158.929       12.281      -23.270       75.149       55.765       28.676     5647.417     3109.724      822.299        1.776        0.479      159.402       21.162        0.018      336.302        7.511      870.735
01/28/2022  14:38:00      105.141       61.362      -27.436       52.940       41.950       33.610     2802.645     1759.783     1129.617        1.063        0.285      121.737       24.729        0.041      336.504        7.850      870.731
01/28/2022  14:39:00       46.862       47.910      -13.400       42.933       36.421       26.803     1843.279     1326.502      718.425        0.428        0.194       67.018       13.698        0.042      336.576        7.970      870.727
01/28/2022  14:40:00       22.645      -30.208      -26.650       38.441       50.011       30.127     1477.679     2501.088      907.613        0.351        0.244       37.754       20.364        0.291      336.579        7.976      870.714
01/28/2022  14:41:00       51.045      -27.520      -16.553       53.276       69.307       42.859     2838.327     4803.414     1836.873        0.656        0.474       57.990       30.587        0.278      336.707        8.191      870.699
01/28/2022  14:42:00      111.307      -36.656      -12.457       85.695       71.433       57.291     7343.641     5102.707     3282.257        1.481        0.786      117.188       53.165        0.206      336.572        7.964      870.691
01/28/2022  14:43:00      120.162     -150.487      -44.734       82.501       79.263       48.474     6806.429     6282.624     2349.690        2.726        0.772      192.575       44.116        0.052      336.527        7.887      870.687
01/28/2022  14:44:00       57.451      -78.500      -30.275       78.413       81.881       45.662     6148.626     6704.479     2084.977        1.266        0.747       97.277       41.632        0.183      336.821        8.378      870.681
01/28/2022  14:45:00      123.728       -7.059      -11.100       94.040       71.103       42.859     8843.559     5055.596     1836.893        1.561        0.787      123.930       39.216        0.100      336.609        8.023      870.673
01/28/2022  14:46:00       56.208       36.125       -2.625       59.692       59.795       32.715     3563.187     3575.499     1070.303        0.634        0.410       66.816       23.980        0.129      336.617        8.038      870.678
01/28/2022  14:47:00      107.350       58.956      -12.375       53.251       35.755       28.513     2835.628     1278.399      812.990        1.004        0.246      122.474       20.313        0.028      336.395        7.668      870.675
01/28/2022  14:48:00       47.443       54.560      -13.441       38.733       36.852       15.877     1500.272     1358.044      252.064        0.426        0.156       72.302       12.055        0.028      336.364        7.615      870.669
01/28/2022  14:49:00       28.060       48.753       -7.189       18.157       19.178       13.232      329.693      367.811      175.078        0.204        0.044       56.252        9.098        0.026      336.395        7.668      870.654
01/28/2022  14:50:00       90.129       36.898      -12.172       36.878       40.990       22.345     1359.953     1680.190      499.310        0.659        0.177       97.389       16.243        0.028      336.580        7.977      870.636
01/28/2022  14:51:00       81.811       21.138      -20.617       61.484       57.531       29.439     3780.264     3309.808      866.643        0.776        0.398       84.497       29.704        0.124      336.712        8.197      870.620
01/28/2022  14:52:00       48.805       24.406      -26.147       48.843       40.652       28.922     2385.617     1652.622      836.504        0.427        0.244       54.567        9.009        0.027      336.789        8.325      870.600
01/28/2022  14:53:00       92.601       70.714      -14.398       52.061       46.752       33.105     2710.350     2185.703     1095.942        0.989        0.300      116.514       15.447        0.018      336.726        8.221      870.597
01/28/2022  14:54:00      103.069       68.075      -30.978       40.903       52.453       29.683     1673.035     2751.360      881.063        1.076        0.265      123.521       18.261        0.022      336.561        7.947      870.588
01/28/2022  14:55:00       52.899       53.959      -11.787       33.051       34.786       23.615     1092.398     1210.040      557.677        0.435        0.143       75.564       14.745        0.038      336.593        8.000      870.589
01/28/2022  14:56:00       44.882       14.368      -13.386       11.708       21.222       14.960      137.072      450.359      223.790        0.161        0.041       47.126        6.970        0.022      336.421        7.715      870.587
01/28/2022  14:57:00       29.396       23.564      -11.494       14.965       15.648       13.636      223.952      244.866      185.934        0.110        0.033       37.675        6.311        0.028      336.598        8.008      870.585
01/28/2022  14:58:00        4.255       -6.195      -16.113       15.844       31.757       16.129      251.035     1008.528      260.149        0.092        0.076        7.515       14.928        3.945      336.845        8.421      870.586
01/28/2022  14:59:00       39.524       11.229       -6.055       41.724       36.271       25.260     1740.886     1315.599      638.083        0.271        0.185       41.088       19.643        0.229      336.788        8.325      870.586
01/28/2022  15:00:00       48.025      -37.135      -32.182       41.445       54.076       27.317     1717.729     2924.250      746.222        0.505        0.269       60.707       27.311        0.202      336.718        8.208      870.589
01/28/2022  15:01:00       -3.145       17.497       -7.871       23.187       15.680       12.043      537.653      245.857      145.044        0.065        0.046       17.777        9.526        0.287      336.748        8.258      870.592
01/28/2022  15:02:00       32.204      -51.756      -17.973       31.930       41.528       24.923     1019.533     1724.584      621.167        0.370        0.168       60.957       17.656        0.084      336.810        8.362      870.591
01/28/2022  15:03:00       95.573       49.722      -12.284       62.591       36.761       30.439     3917.592     1351.336      926.516        0.898        0.310      107.733       20.204        0.035      336.809        8.361      870.591
01/28/2022  15:04:00      153.562       68.713      -22.634       40.431       45.486       23.187     1634.688     2068.964      537.659        1.653        0.212      168.234       14.738        0.008      336.628        8.058      870.594
01/28/2022  15:05:00       70.114       48.827      -10.900       38.152       19.343       19.688     1455.567      374.148      387.623        0.482        0.111       85.440       19.753        0.053      336.585        7.987      870.599
01/28/2022  15:06:00       93.213       62.078      -17.678       47.902       30.199       32.428     2294.609      911.953     1051.587        0.856        0.213      111.992       13.605        0.015      336.678        8.142      870.601
01/28/2022  15:07:00       33.680      -46.558      -28.836       50.444       96.595       44.380     2544.630     9330.667     1969.616        0.899        0.692       57.463       31.755        0.305      336.866        8.455      870.606
01/28/2022  15:08:00       57.621        6.775      -32.636       43.818       95.529       33.986     1920.017     9125.869     1155.018        0.831        0.610       58.018       16.957        0.085      336.670        8.129      870.601
01/28/2022  15:09:00        5.161       31.466      -37.987       43.369       47.592       31.103     1880.907     2264.979      967.411        0.379        0.256       31.886       26.123        0.671      336.937        8.573      870.592
01/28/2022  15:10:00       87.403      -28.872      -22.104       72.182       69.814       39.366     5210.263     4873.983     1549.685        1.030        0.582       92.048       28.722        0.097      336.806        8.354      870.588
01/28/2022  15:11:00       61.264      -99.791      -27.101       54.288       53.043       44.122     2947.163     2813.534     1946.716        1.108        0.385      117.096       26.452        0.051      336.740        8.244      870.590
01/28/2022  15:12:00       -9.407      -33.074       -8.088       50.638       53.305       26.422     2564.240     2841.434      698.138        0.367        0.305       34.386       19.287        0.315      337.003        8.684      870.590
01/28/2022  15:13:00       84.627        2.819      -23.873       77.507       63.336       33.455     6007.272     4011.420     1119.227        0.944        0.557       84.674       27.013        0.102      336.755        8.270      870.586
01/28/2022  15:14:00      152.647       53.627      -23.657       75.204       65.847       31.844     5655.578     4335.862     1014.046        1.887        0.550      161.793       26.649        0.027      336.736        8.236      870.585
01/28/2022  15:15:00      119.718       20.647      -30.810       43.172       59.950       26.744     1863.837     3594.060      715.246        1.094        0.309      121.486       17.888        0.022      336.635        8.070      870.589
01/28/2022  15:16:00      110.212       64.259      -17.387       39.647       31.565       16.016     1571.882      996.369      256.527        0.970        0.141      127.577       13.809        0.012      336.507        7.856      870.595
01/28/2022  15:17:00      167.442      -31.526      -27.479       92.856      126.502       54.107     8622.194    16002.822     2927.604        2.866        1.378      170.384       49.594        0.085      336.616        8.035      870.584
01/28/2022  15:18:00      134.771      -70.574      -20.699       90.197       98.697       66.868     8135.555     9741.059     4471.300        2.296        1.117      152.131       58.922        0.150      336.553        7.930      870.566
01/28/2022  15:19:00      125.679      -24.661      -18.181       79.641       70.528       47.259     6342.646     4974.187     2233.459        1.514        0.678      128.075       29.130        0.052      336.566        7.954      870.560
01/28/2022  15:20:00      223.800       31.466      -18.401       78.953       64.260       41.497     6233.527     4129.285     1722.037        3.175        0.604      226.001       34.265        0.023      336.569        7.957      870.555
01/28/2022  15:21:00      137.644        5.885      -34.011       80.760       70.150       31.461     6522.183     4920.975      989.765        1.628        0.622      137.770       30.275        0.048      336.676        8.136      870.554
01/28/2022  15:22:00       81.589      -49.834      -31.886       63.640      102.913       39.904     4050.105    10591.143     1592.296        1.319        0.812       95.604       40.412        0.179      336.676        8.137      870.539
01/28/2022  15:23:00      129.376     -140.879      -46.359       60.093       54.393       35.334     3611.179     2958.608     1248.482        2.327        0.391      191.272       32.708        0.029      336.661        8.111      870.534
01/28/2022  15:24:00       35.061      -17.536      -30.908       44.862       73.699       39.991     2012.579     5431.493     1599.260        0.577        0.452       39.201       26.780        0.467      336.823        8.382      870.545
01/28/2022  15:25:00       76.261       -1.241      -11.576       53.362       55.655       34.392     2847.493     3097.431     1182.815        0.654        0.356       76.271       20.759        0.074      336.699        8.177      870.548
01/28/2022  15:26:00       68.923      -23.549      -43.722       65.617       64.496       40.670     4305.572     4159.685     1654.040        0.867        0.506       72.835       19.384        0.071      336.722        8.216      870.575
01/28/2022  15:27:00       45.700      -44.638      -30.886       57.761       60.329       40.341     3336.389     3639.640     1627.403        0.682        0.430       63.883       28.214        0.195      336.776        8.304      870.575
01/28/2022  15:28:00      -12.830      -15.777      -16.043       65.634       60.245       44.422     4307.803     3629.500     1973.320        0.529        0.496       20.335       10.941        0.289      336.835        8.404      870.577
01/28/2022  15:29:00       59.204     -158.369      -31.966       68.640       73.988       37.860     4711.500     5474.286     1433.400        2.061        0.581      169.073       35.774        0.045      336.712        8.197      870.581
01/28/2022  15:30:00       24.345     -115.231      -13.939       49.662       71.080       27.401     2466.302     5052.427      750.838        1.117        0.413      117.774       22.460        0.036      336.783        8.317      870.575
01/28/2022  15:31:00       49.705       15.281      -10.179       60.848       68.929       27.518     3702.456     4751.234      757.222        0.601        0.461       52.001       20.344        0.153      336.754        8.269      870.583
01/28/2022  15:32:00       69.692       35.469       -6.389       35.669       22.525       22.797     1272.294      507.380      519.713        0.423        0.115       78.198       17.048        0.048      336.613        8.032      870.590
01/28/2022  15:33:00       28.163       52.081        1.965       21.712       18.025       16.318      471.426      324.898      266.274        0.229        0.053       59.208        7.336        0.015      336.663        8.117      870.594
01/28/2022  15:34:00       11.330       -6.373      -12.552       32.434       67.633       21.125     1051.996     4574.158      446.249        0.320        0.304       12.999       26.560        4.174      336.745        8.254      870.591
01/28/2022  15:35:00       88.694       13.127      -18.246       70.715       58.853       25.621     5000.574     3463.633      656.442        0.874        0.456       89.660       20.361        0.052      336.730        8.229      870.601
01/28/2022  15:36:00       76.098       47.458      -19.211       41.184       37.993       33.032     1696.113     1443.503     1091.137        0.632        0.212       89.683       22.804        0.065      336.693        8.166      870.590
01/28/2022  15:37:00       85.151       24.849      -13.395       44.701       31.030       22.841     1998.181      962.842      521.695        0.576        0.174       88.703       24.872        0.079      336.684        8.153      870.574
01/28/2022  15:38:00      154.128       47.379      -13.942       58.072       56.647       35.344     3372.354     3208.834     1249.214        1.701        0.392      161.246       12.298        0.006      336.589        7.994      870.560
01/28/2022  15:39:00      131.835       74.664      -20.565       51.213       45.631       25.847     2622.740     2082.152      668.087        1.437        0.269      151.510       19.041        0.016      336.565        7.953      870.562
01/28/2022  15:40:00      107.367       68.288      -19.531       27.262       30.743       23.832      743.201      945.136      567.971        0.941        0.113      127.244       13.638        0.011      336.569        7.960      870.555
01/28/2022  15:41:00       83.690       40.316      -11.310       32.538       28.339       18.456     1058.724      803.079      340.632        0.548        0.110       92.894       18.732        0.041      336.599        8.010      870.549
01/28/2022  15:42:00       84.196       43.814       -9.857       29.912       19.642       19.563      894.744      385.814      382.703        0.538        0.083       94.914       14.093        0.022      336.639        8.077      870.553
01/28/2022  15:43:00       54.550       13.775       -0.516       42.078       47.157       20.659     1770.553     2223.783      426.802        0.379        0.221       56.262        8.159        0.021      336.762        8.282      870.540
01/28/2022  15:44:00       31.080       -6.699       -4.809       33.439       41.665       30.515     1118.190     1735.953      931.176        0.241        0.189       31.794       13.227        0.173      336.843        8.417      870.529
01/28/2022  15:45:00       19.180      -81.464      -17.147       54.278       59.603       37.290     2946.072     3552.576     1390.555        0.759        0.394       83.692       23.694        0.080      336.901        8.514      870.509
01/28/2022  15:46:00       31.204      -41.767      -13.641       46.195       54.471       27.746     2134.007     2967.047      769.832        0.439        0.294       52.136       23.289        0.200      336.916        8.537      870.505
01/28/2022  15:47:00       33.777        4.320      -11.887       52.762       45.657       18.816     2783.837     2084.605      354.032        0.326        0.261       34.052       13.693        0.162      336.789        8.326      870.513
01/28/2022  15:48:00       26.983       20.893       -5.668       26.602       23.275       17.038      707.664      541.708      290.290        0.137        0.077       34.127       12.307        0.130      336.683        8.150      870.494
01/28/2022  15:49:00      123.812       25.601      -10.461       34.963       30.809       22.627     1222.432      949.199      511.990        0.939        0.134      126.431       16.743        0.018      336.614        8.036      870.483
01/28/2022  15:50:00      230.683       75.931      -26.922       84.211       74.500       46.375     7091.477     5550.217     2150.604        3.725        0.740      242.859       35.465        0.021      336.536        7.902      870.475
01/28/2022  15:51:00      201.248      145.798      -25.709      110.869       59.470       49.647    12291.992     3536.681     2464.860        4.035        0.915      248.511       32.844        0.017      336.479        7.804      870.453
01/28/2022  15:52:00      290.085      194.640      -30.809      133.850       71.435       61.888    17915.825     5102.954     3830.158        7.491        1.342      349.334       54.470        0.024      336.470        7.788      870.431
01/28/2022  15:53:00      215.300      156.220      -27.783       93.280       73.970       54.759     8701.208     5471.609     2998.584        4.435        0.859      266.005       34.836        0.017      336.462        7.775      870.424
01/28/2022  15:54:00      264.755      163.042      -30.019       95.699       80.103       53.243     9158.249     6416.418     2834.826        5.799        0.920      310.931       31.357        0.010      336.426        7.716      870.410
01/28/2022  15:55:00      220.519      108.137      -40.968      103.824       85.368       40.770    10779.462     7287.635     1662.172        4.086        0.986      245.606       40.344        0.027      336.473        7.793      870.421
01/28/2022  15:56:00      155.007       68.086       -5.232       66.349       58.523       38.317     4402.193     3424.937     1468.179        1.899        0.465      169.301       34.529        0.042      336.506        7.853      870.410
01/28/2022  15:57:00      180.383      -16.038      -18.367      101.917       91.253       55.996    10386.975     8327.021     3135.540        2.749        1.092      181.094       48.325        0.071      336.552        7.930      870.394
01/28/2022  15:58:00      138.108        1.129      -15.433       91.951       50.385       32.628     8454.964     2538.613     1064.564        1.568        0.603      138.113       26.510        0.037      336.559        7.943      870.375
01/28/2022  15:59:00      277.812       74.385      -22.575      120.548       75.378       45.626    14531.803     5681.786     2081.723        5.275        1.115      287.598       40.282        0.020      336.502        7.844      870.366
01/28/2022  16:00:00      177.125       -8.690       -2.739      109.069       76.264       47.946    11896.153     5816.182     2298.809        2.573        1.001      177.338       52.769        0.089      336.572        7.962      870.363
01/28/2022  16:01:00      132.619       35.484      -18.786       68.521       57.568       37.325     4695.142     3314.024     1393.180        1.430        0.470      137.284        7.726        0.003      336.552        7.933      870.369
01/28/2022  16:02:00      173.843       -0.141      -30.418       94.838       69.498       35.348     8994.161     4829.905     1249.460        2.311        0.754      173.843       20.752        0.014      336.511        7.861      870.348
01/28/2022  16:03:00      239.839       31.535      -18.554      146.705       89.754       66.986    21522.333     8055.715     4487.186        4.646        1.703      241.903       58.975        0.059      336.419        7.705      870.336
01/28/2022  16:04:00      199.776       50.779      -26.911       92.036       77.131       49.711     8470.606     5949.237     2471.217        3.005        0.845      206.128       15.866        0.006      336.473        7.795      870.334
01/28/2022  16:05:00      158.926       41.225      -17.278      111.276       85.147       37.960    12382.319     7249.942     1440.928        2.416        1.054      164.186       39.993        0.059      336.495        7.834      870.334
01/28/2022  16:06:00      126.010       33.693      -10.489       79.564       67.428       42.177     6330.460     4546.489     1778.904        1.489        0.633      130.437       42.716        0.107      336.453        7.763      870.333
01/28/2022  16:07:00      245.486       86.814      -22.783       77.636       77.163       46.755     6027.283     5954.167     2186.074        4.124        0.708      260.384       38.015        0.021      336.417        7.698      870.330
01/28/2022  16:08:00      259.842      114.754      -24.781      112.227       61.762       46.979    12594.988     3814.578     2206.996        4.995        0.931      284.053       35.018        0.015      336.399        7.669      870.326
01/28/2022  16:09:00      334.782      129.010      -26.446      119.222       95.646       53.301    14213.998     9148.234     2840.989        7.781        1.310      358.779       51.541        0.021      336.327        7.550      870.314
01/28/2022  16:10:00      291.393      102.620      -23.548      101.404       95.454       55.296    10282.861     9111.416     3057.615        5.922        1.123      308.935       51.082        0.027      336.318        7.536      870.315
01/28/2022  16:11:00      362.684      108.605      -28.599      105.027       84.360       57.426    11030.596     7116.585     3297.705        8.279        1.072      378.596       30.464        0.006      336.232        7.392      870.310
01/28/2022  16:12:00      309.684       82.277      -38.036      115.985       83.120       41.267    13452.439     6908.888     1702.974        6.309        1.103      320.427       38.426        0.014      336.256        7.433      870.305
01/28/2022  16:13:00      291.635      108.963      -32.352      133.407       89.434       55.275    17797.414     7998.446     3055.380        6.341        1.443      311.326       46.782        0.023      336.263        7.444      870.309
01/28/2022  16:14:00      192.264       80.688        5.323       99.759       75.156       48.903     9951.874     5648.484     2391.512        3.074        0.900      208.509       50.016        0.058      336.287        7.485      870.319
01/28/2022  16:15:00      197.190      111.867      -24.759      104.967       74.494       49.933    11018.113     5549.334     2493.263        3.553        0.953      226.712       39.164        0.030      336.273        7.460      870.338
01/28/2022  16:16:00      186.383      123.182      -27.955      104.860       49.269       36.027    10995.560     2427.418     1297.964        3.270        0.736      223.411       22.796        0.010      336.276        7.467      870.361
01/28/2022  16:17:00      168.207       88.388      -22.927       70.750       63.624       38.955     5005.566     4048.043     1517.524        2.360        0.529      190.016       19.380        0.010      336.283        7.477      870.370
01/28/2022  16:18:00      148.405       97.451      -14.302      100.052       62.189       47.873    10010.469     3867.412     2291.810        2.394        0.808      177.541       47.514        0.072      336.292        7.496      870.376
01/28/2022  16:19:00      170.553      125.857       -9.605      114.454       71.729       52.104    13099.824     5145.084     2714.850        3.299        1.048      211.963       59.838        0.080      336.293        7.495      870.371
01/28/2022  16:20:00      204.142       85.334      -21.140       89.885       78.133       44.924     8079.369     6104.843     2018.200        3.280        0.810      221.260       39.224        0.031      336.248        7.419      870.383
01/28/2022  16:21:00      207.229      164.367      -29.602       97.372       64.827       46.059     9481.237     4202.495     2121.447        4.332        0.790      264.501       29.274        0.012      336.247        7.418      870.398
01/28/2022  16:22:00      219.683      132.065      -15.518      102.898       52.989       49.201    10588.055     2807.812     2420.774        4.088        0.791      256.324       36.139        0.020      336.190        7.321      870.401
01/28/2022  16:23:00      218.640      180.882      -27.888       90.728       65.330       55.102     8231.568     4267.970     3036.238        4.841        0.777      283.764       45.261        0.025      336.213        7.360      870.399
01/28/2022  16:24:00      221.574      121.982      -29.601       61.826       48.227       27.631     3822.489     2325.815      763.494        3.588        0.346      252.932       17.515        0.005      336.215        7.362      870.400
01/28/2022  16:25:00      116.220       27.525      -23.784       64.038       60.248       40.485     4100.806     3629.790     1639.051        1.210        0.468      119.435       16.157        0.018      336.211        7.360      870.390
01/28/2022  16:26:00      153.219       66.799      -19.623       79.815       74.804       40.248     6370.461     5595.582     1619.878        2.095        0.679      167.148       32.060        0.037      336.203        7.345      870.385
01/28/2022  16:27:00      239.127      108.916      -18.485       90.048       78.331       42.865     8108.640     6135.724     1837.395        4.273        0.804      262.763       43.790        0.028      336.186        7.315      870.372
01/28/2022  16:28:00      160.442       42.332      -30.003       76.237       68.965       45.469     5812.125     4756.221     2067.449        2.053        0.632      165.933       29.953        0.033      336.209        7.355      870.369
01/28/2022  16:29:00      194.056       32.270      -15.756       79.261       75.309       42.911     6282.246     5671.458     1841.313        2.637        0.690      196.721       36.063        0.034      336.265        7.447      870.357
01/28/2022  16:30:00      232.411       77.504      -22.157       65.189       46.783       35.286     4249.574     2188.624     1245.093        3.410        0.384      244.994       24.635        0.010      336.188        7.318      870.361
01/28/2022  16:31:00      177.081       31.323      -14.861       84.362       48.736       43.849     7116.873     2375.194     1922.697        2.199        0.571      179.830       40.696        0.051      336.148        7.252      870.355
01/28/2022  16:32:00      203.415       91.832      -21.727      101.585       75.587       33.395    10319.574     5713.377     1115.200        3.371        0.857      223.184       32.344        0.021      336.093        7.159      870.357
01/28/2022  16:33:00      305.486      140.855      -27.803       90.821       61.543       50.814     8248.545     3787.583     2582.015        6.427        0.731      336.396       46.524        0.019      336.048        7.083      870.343
01/28/2022  16:34:00      196.201      115.065      -29.431       98.140       62.570       41.836     9631.485     3914.967     1750.237        3.395        0.765      227.453       27.867        0.015      336.032        7.057      870.344
01/28/2022  16:35:00      239.361      120.717      -30.145       84.162       83.682       46.291     7083.186     7002.711     2142.862        4.450        0.811      268.078       32.931        0.015      336.042        7.074      870.338
01/28/2022  16:36:00      189.740      111.542      -26.560       81.359       59.505       36.741     6619.224     3540.863     1349.893        3.033        0.575      220.097       26.320        0.014      336.045        7.079      870.331
01/28/2022  16:37:00      131.611       82.822      -17.061       63.510       42.991       29.291     4033.533     1848.257      857.964        1.560        0.337      155.502       27.086        0.030      336.028        7.054      870.321
01/28/2022  16:38:00      267.107      116.527      -28.859       49.689       51.852       32.784     2469.014     2688.646     1074.789        4.599        0.312      291.419       18.539        0.004      336.036        7.062      870.310
01/28/2022  16:39:00      266.649      140.634      -22.236       94.088       56.982       50.423     8852.490     3246.919     2542.482        5.301        0.732      301.463       28.341        0.009      336.006        7.014      870.302
01/28/2022  16:40:00      173.254       47.220      -12.334      115.457       65.448       38.129    13330.304     4283.489     1453.849        2.573        0.953      179.573       39.135        0.047      336.032        7.057      870.302
01/28/2022  16:41:00      282.855      130.404      -23.917       65.385       72.114       38.959     4275.250     5200.405     1517.795        5.429        0.550      311.468       28.014        0.008      335.982        6.973      870.295
01/28/2022  16:42:00      190.803       74.845      -22.285       55.811       58.568       36.754     3114.857     3430.221     1350.826        2.520        0.395      204.958       24.124        0.014      335.974        6.964      870.305
01/28/2022  16:43:00      180.981       89.134      -23.181      113.298       79.272       41.554    12836.481     6283.980     1726.714        3.104        1.042      201.740       41.178        0.042      335.949        6.923      870.306
01/28/2022  16:44:00      232.240       79.938      -18.510      104.898       63.908       42.157    11003.530     4084.170     1777.216        3.876        0.843      245.613       47.108        0.037      335.952        6.927      870.306
01/28/2022  16:45:00      208.043      101.222      -20.181       74.199       54.577       35.889     5505.562     2978.625     1287.992        3.185        0.489      231.361       27.831        0.014      335.962        6.941      870.309
01/28/2022  16:46:00      150.514       81.092      -16.837       62.261       51.345       33.624     3876.435     2636.298     1130.584        1.858        0.382      170.969       21.718        0.016      335.962        6.944      870.310
01/28/2022  16:47:00      104.103       96.424      -13.086       65.592       37.148       32.874     4302.263     1380.006     1080.727        1.353        0.338      141.897       25.361        0.032      335.981        6.978      870.306
01/28/2022  16:48:00      253.048      120.476      -17.493      120.606       70.677       41.177    14545.869     4995.275     1695.526        5.004        1.062      280.264       46.253        0.027      335.956        6.934      870.290
01/28/2022  16:49:00      221.174       53.639      -21.028       47.057       46.836       30.948     2214.384     2193.571      957.784        2.880        0.268      227.585       13.903        0.004      335.926        6.882      870.300
01/28/2022  16:50:00      146.269       67.118      -19.118       51.652       53.689       33.731     2667.973     2882.503     1137.755        1.648        0.334      160.933       21.350        0.018      335.920        6.876      870.308
01/28/2022  16:51:00      218.436       91.017      -18.176       56.425       48.980       31.891     3183.834     2399.006     1017.014        3.146        0.330      236.640        9.085        0.001      335.935        6.899      870.319
01/28/2022  16:52:00      191.190      122.583      -20.374      112.985       65.473       41.544    12765.499     4286.683     1725.870        3.538        0.939      227.113       41.927        0.034      335.897        6.836      870.324
01/28/2022  16:53:00      211.680       63.954      -16.492      108.840       63.294       46.577    11846.098     4006.107     2169.433        3.359        0.901      221.130       42.119        0.036      335.908        6.853      870.321
01/28/2022  16:54:00      136.411       82.729      -16.853       54.933       50.207       31.369     3017.657     2520.779      984.011        1.613        0.326      159.537       16.991        0.011      335.896        6.835      870.334
01/28/2022  16:55:00      157.048       80.102      -28.728       64.529       52.068       30.659     4164.035     2711.115      939.952        1.986        0.391      176.297       28.123        0.025      335.871        6.792      870.335
01/28/2022  16:56:00      105.867       58.799      -10.436       69.583       56.337       38.269     4841.863     3173.891     1464.548        1.213        0.474      121.100       25.718        0.045      335.810        6.690      870.340
01/28/2022  16:57:00      135.782       89.439      -16.389       64.812       41.563       31.919     4200.548     1727.469     1018.851        1.682        0.347      162.591       23.015        0.020      335.840        6.741      870.332
01/28/2022  16:58:00      170.754       96.522      -19.455       70.671       39.807       22.547     4994.396     1584.625      508.366        2.297        0.354      196.147        9.213        0.002      335.811        6.692      870.333
01/28/2022  16:59:00      229.347       89.045      -27.079       52.166       55.325       32.681     2721.253     3060.827     1068.053        3.405        0.343      246.027       15.273        0.004      335.788        6.652      870.323
01/28/2022  17:00:00      108.942       85.442      -15.407       81.012       55.800       34.072     6563.000     3113.625     1160.919        1.512        0.542      138.451       34.944        0.064      335.737        6.569      870.335
01/28/2022  17:01:00      223.466      116.296      -18.054       88.488       43.633       45.746     7830.122     1903.842     2092.685        3.781        0.591      251.916       28.407        0.013      335.761        6.608      870.319
01/28/2022  17:02:00      163.130       73.803       -6.625       93.558       45.743       39.068     8753.058     2092.400     1526.284        2.223        0.619      179.048       36.106        0.041      335.689        6.488      870.306
01/28/2022  17:03:00      155.143       81.304       -7.579       86.860       45.443       36.427     7544.590     2065.027     1326.899        2.083        0.547      175.157       29.669        0.029      335.646        6.415      870.299
01/28/2022  17:04:00      185.134       94.168      -10.287       79.478       53.990       38.453     6316.804     2914.946     1478.607        2.698        0.536      207.707       25.274        0.015      335.654        6.428      870.293
01/28/2022  17:05:00      145.547       88.448      -14.709       59.158       48.714       40.318     3499.714     2373.017     1625.558        1.836        0.375      170.314       27.022        0.025      335.627        6.384      870.296
01/28/2022  17:06:00      122.160       93.875      -23.391       46.515       38.717       25.979     2163.646     1499.033      674.902        1.431        0.217      154.063       14.651        0.009      335.611        6.360      870.299
01/28/2022  17:07:00      115.530       73.014      -17.912       55.527       27.924       33.740     3083.197      779.728     1138.411        1.200        0.250      136.668       28.943        0.045      335.594        6.332      870.300
01/28/2022  17:08:00      139.277       85.303      -20.863       56.618       50.147       37.281     3205.582     2514.701     1389.841        1.711        0.356      163.323       15.292        0.009      335.581        6.310      870.306
01/28/2022  17:09:00      148.176       78.757      -14.928       63.820       33.574       33.802     4072.944     1127.226     1142.575        1.736        0.317      167.805       12.856        0.006      335.546        6.251      870.300
01/28/2022  17:10:00       95.691       67.604      -14.861       66.143       57.344       27.829     4374.955     3288.301      774.477        1.119        0.422      117.162       22.573        0.037      335.514        6.198      870.297
01/28/2022  17:11:00      117.734       72.205      -10.606       58.516       57.719       35.868     3424.168     3331.503     1286.537        1.361        0.402      138.112       26.761        0.038      335.486        6.151      870.292
01/28/2022  17:12:00      146.230       77.018      -11.454       57.734       37.212       27.840     3333.270     1384.740      775.038        1.647        0.275      165.273       25.178        0.023      335.472        6.128      870.287
01/28/2022  17:13:00      124.285       97.451      -21.087       49.557       54.846       31.594     2455.894     3008.092      998.177        1.592        0.323      157.935       26.807        0.029      335.494        6.164      870.291
01/28/2022  17:14:00      113.524       78.585      -13.777       47.024       37.293       30.553     2211.213     1390.773      933.498        1.189        0.227      138.070       21.446        0.024      335.409        6.022      870.290
01/28/2022  17:15:00      205.944      107.269      -24.789       72.593       61.570       33.222     5269.694     3790.920     1103.716        3.235        0.508      232.206       30.597        0.017      335.429        6.054      870.275
01/28/2022  17:16:00      129.488       64.655       -4.010       73.352       48.814       37.785     5380.553     2382.827     1427.704        1.508        0.460      144.733       32.006        0.049      335.368        5.955      870.266
01/28/2022  17:17:00      185.597       98.301      -11.766       54.255       42.652       31.976     2943.637     1819.213     1022.438        2.502        0.289      210.023       29.337        0.020      335.383        5.977      870.259
01/28/2022  17:18:00      149.242       58.214      -14.778       64.689       47.807       29.170     4184.620     2285.482      850.900        1.660        0.366      160.194       31.717        0.039      335.387        5.986      870.262
01/28/2022  17:19:00      129.757       80.853      -23.426       69.206       53.925       31.895     4789.464     2907.893     1017.316        1.632        0.436      152.886       23.502        0.024      335.394        5.998      870.259
01/28/2022  17:20:00      143.841      100.368      -21.595       44.888       36.923       31.470     2014.921     1363.291      990.388        1.780        0.218      175.396       24.302        0.019      335.361        5.943      870.270
01/28/2022  17:21:00      165.899       75.410      -17.941       49.207       38.224       30.474     2421.342     1461.076      928.665        1.917        0.241      182.234       19.293        0.011      335.343        5.912      870.267
01/28/2022  17:22:00      121.925       60.912      -12.776       52.238       61.080       25.674     2728.772     3730.723      659.166        1.293        0.356      136.294       17.800        0.017      335.330        5.890      870.263
01/28/2022  17:23:00      127.211       26.462       -5.232       72.154       49.137       30.327     5206.243     2414.490      919.757        1.272        0.427      129.934       28.062        0.047      335.320        5.873      870.264
01/28/2022  17:24:00      144.623       34.942      -15.786       62.221       46.709       25.306     3871.448     2181.705      640.407        1.454        0.335      148.784        9.821        0.004      335.299        5.839      870.260
01/28/2022  17:25:00      188.591       67.133      -24.347       77.797       40.981       28.441     6052.444     1679.418      808.906        2.460        0.427      200.184       22.853        0.013      335.336        5.899      870.256
01/28/2022  17:26:00       99.273       53.266      -10.796       56.171       45.787       33.957     3155.130     2096.404     1153.068        0.961        0.320      112.661       16.544        0.022      335.288        5.822      870.250
01/28/2022  17:27:00      103.317       30.840      -13.323       56.626       40.960       27.712     3206.554     1677.720      767.952        0.873        0.283      107.822       17.787        0.027      335.287        5.820      870.250
01/28/2022  17:28:00      137.410       20.914      -16.467       38.953       40.846       26.429     1517.330     1668.434      698.479        1.174        0.194      138.992       19.139        0.019      335.264        5.780      870.251
01/28/2022  17:29:00      169.003       31.173      -11.472       47.480       44.408       22.924     2254.331     1972.107      525.506        1.721        0.238      171.854       18.653        0.012      335.304        5.847      870.254
01/28/2022  17:30:00      103.611       29.646       -7.657       42.361       56.829       30.103     1794.481     3229.585      906.207        0.880        0.297      107.769       17.929        0.028      335.339        5.905      870.262
01/28/2022  17:31:00      115.323       46.350      -16.644       37.155       39.284       21.977     1380.470     1543.241      482.981        0.957        0.170      124.289       17.294        0.019      335.279        5.806      870.267
01/28/2022  17:32:00      106.932       48.222      -19.128       68.938       50.560       33.758     4752.409     2556.357     1139.574        1.129        0.422      117.302       37.307        0.101      335.290        5.824      870.264
01/28/2022  17:33:00      190.923       66.157      -14.402       49.690       40.248       29.206     2469.067     1619.895      853.009        2.299        0.247      202.060       12.215        0.004      335.365        5.950      870.252
01/28/2022  17:34:00      180.947       38.043      -12.413       58.289       64.715       32.040     3397.652     4188.053     1026.564        2.148        0.431      184.902       19.958        0.012      335.309        5.856      870.243
01/28/2022  17:35:00      180.816       56.967       -6.132       56.093       41.435       27.478     3146.434     1716.821      755.035        2.080        0.281      189.578       27.853        0.022      335.317        5.869      870.238
01/28/2022  17:36:00      169.024       56.350       -8.673       58.960       44.700       28.934     3476.237     1998.124      837.155        1.906        0.316      178.170       25.993        0.021      335.254        5.764      870.227
01/28/2022  17:37:00       80.401       -0.067       -7.040       65.201       39.849       27.455     4251.128     1587.925      753.785        0.655        0.330       80.401       29.020        0.130      335.226        5.717      870.229
01/28/2022  17:38:00       86.727       15.142      -20.514       55.509       45.120       27.072     3081.231     2035.859      732.874        0.701        0.292       88.039       16.343        0.034      335.202        5.680      870.226
01/28/2022  17:39:00      106.509       14.890      -15.924       40.744       35.598       22.475     1660.096     1267.247      505.127        0.763        0.172      107.545       12.546        0.014      335.116        5.535      870.229
01/28/2022  17:40:00      125.772       18.567      -20.662       23.910       34.370       19.964      571.677     1181.280      398.556        0.937        0.108      127.135       10.219        0.006      335.148        5.589      870.221
01/28/2022  17:41:00      156.188       41.257      -15.296       57.268       37.246       23.800     3279.637     1387.278      566.457        1.578        0.262      161.545       13.392        0.007      335.138        5.574      870.217
01/28/2022  17:42:00      148.476       15.439      -12.251       53.095       52.160       31.191     2819.123     2720.714      972.881        1.447        0.326      149.277        9.944        0.004      335.206        5.686      870.206
01/28/2022  17:43:00      139.189       39.016      -19.873       54.851       41.602       24.877     3008.657     1730.723      618.887        1.332        0.268      144.554       21.499        0.022      335.224        5.717      870.205
01/28/2022  17:44:00       79.410       15.695      -16.875       41.494       39.024       29.453     1721.726     1522.891      867.472        0.547        0.206       80.946       16.630        0.042      335.154        5.601      870.209
01/28/2022  17:45:00      115.501       11.274       -5.050       39.190       26.924       26.559     1535.840      724.928      705.366        0.823        0.148      116.050       16.561        0.020      335.032        5.398      870.205
01/28/2022  17:46:00       99.649        3.450       -6.244       43.513       31.444       25.682     1893.422      988.713      659.547        0.676        0.177       99.709       19.280        0.037      335.016        5.372      870.193
01/28/2022  17:47:00      140.304       -9.395      -10.736       43.672       38.595       32.099     1907.205     1489.607     1030.354        1.216        0.221      140.618       21.483        0.023      335.016        5.373      870.188
01/28/2022  17:48:00       69.149        4.560        2.901       50.519       34.832       31.298     2552.219     1213.255      979.569        0.478        0.237       69.299       25.767        0.138      334.978        5.309      870.180
01/28/2022  17:49:00      120.070       54.028      -10.925       31.271       25.732       17.911      977.884      662.153      320.793        0.971        0.098      131.666       14.488        0.012      334.944        5.252      870.183
01/28/2022  17:50:00      100.348       32.657      -12.106       27.165       21.665       21.064      737.953      469.356      443.703        0.647        0.083      105.529       15.294        0.021      334.932        5.231      870.175
01/28/2022  17:51:00       82.745       33.256      -12.799       34.562       25.548       15.179     1194.518      652.692      230.390        0.510        0.104       89.178       13.984        0.025      334.876        5.141      870.178
01/28/2022  17:52:00       70.939       14.591      -17.042       30.436       20.756       17.162      926.349      430.801      294.547        0.359        0.083       72.424       10.976        0.023      334.898        5.176      870.165
01/28/2022  17:53:00       69.852       25.133      -13.356       17.691       13.867        8.534      312.970      192.291       72.831        0.313        0.029       74.235        7.195        0.009      334.837        5.073      870.168
01/28/2022  17:54:00       60.539       31.125      -10.904       15.873       18.729       16.653      251.948      350.779      277.323        0.282        0.044       68.072        9.791        0.021      334.833        5.066      870.161
01/28/2022  17:55:00       82.978       43.069      -24.235       24.770       23.507       21.232      613.536      552.597      450.800        0.547        0.081       93.489       13.930        0.022      334.893        5.168      870.160
01/28/2022  17:56:00      105.746       42.663      -15.041       30.077       21.436       19.293      904.607      459.487      372.216        0.748        0.087      114.028       13.041        0.013      334.884        5.154      870.161
01/28/2022  17:57:00       90.860       64.363       -7.678       26.020       17.848       13.533      677.016      318.566      183.138        0.682        0.059      111.347       10.034        0.008      334.849        5.093      870.171
01/28/2022  17:58:00      103.922       69.565      -13.947       22.516       18.930       15.965      506.988      358.351      254.885        0.848        0.056      125.056        4.594        0.001      334.926        5.222      870.174
01/28/2022  17:59:00      114.806       59.255      -17.905       32.582       22.666       23.737     1061.582      513.770      563.422        0.958        0.107      129.196       14.452        0.013      334.854        5.103      870.185
01/28/2022  18:00:00      148.247       31.233      -20.536       50.168       36.270       17.959     2516.805     1315.529      322.514        1.376        0.208      151.502       12.449        0.007      334.863        5.115      870.185
01/28/2022  18:01:00       95.582       24.571      -23.625       57.720       45.792       23.920     3331.655     2096.913      572.143        0.815        0.300       98.690       13.348        0.018      334.821        5.046      870.179
01/28/2022  18:02:00      142.145        5.659      -16.924       48.301       45.745       27.276     2332.980     2092.588      743.980        1.285        0.258      142.257       22.420        0.025      334.772        4.964      870.174
01/28/2022  18:03:00      139.357        7.779       -9.308       69.454       45.960       32.001     4823.884     2112.338     1024.058        1.376        0.398      139.574       31.197        0.050      334.778        4.975      870.173
01/28/2022  18:04:00      128.125      -30.153       -7.479       74.697       45.399       34.415     5579.680     2061.031     1184.372        1.310        0.441      131.625       35.014        0.071      334.755        4.937      870.181
01/28/2022  18:05:00      133.926       15.644      -16.588       54.109       45.493       26.087     2927.732     2069.622      680.542        1.207        0.284      134.837       21.475        0.025      334.749        4.925      870.201
01/28/2022  18:06:00      139.493        2.843      -14.087       61.046       47.120       30.384     3726.649     2220.261      923.189        1.327        0.344      139.522       11.360        0.007      334.706        4.855      870.221
01/28/2022  18:07:00       80.132       23.200       -9.349       47.440       47.498       28.019     2250.544     2256.029      785.075        0.617        0.265       83.423       18.304        0.048      334.788        4.991      870.227
01/28/2022  18:08:00       57.324       22.398      -15.856       38.964       37.231       26.822     1518.198     1386.151      719.401        0.383        0.181       61.544       12.220        0.039      334.694        4.834      870.236
01/28/2022  18:09:00      144.616       11.951      -13.835       37.688       47.202       24.339     1420.356     2228.051      592.385        1.274        0.212      145.109       17.404        0.014      334.657        4.773      870.235
01/28/2022  18:10:00      144.383       17.884       -4.279       61.970       42.278       29.267     3840.281     1787.425      856.585        1.383        0.324      145.486       28.245        0.038      334.633        4.732      870.237
01/28/2022  18:11:00      205.677       25.143       -7.260       57.301       33.864       36.691     3283.382     1146.739     1346.214        2.438        0.289      207.209       36.182        0.030      334.744        4.916      870.236
01/28/2022  18:12:00      186.183        9.499      -15.581       43.124       48.844       26.974     1859.641     2385.702      727.620        1.998        0.249      186.425       16.285        0.008      334.782        4.979      870.244
01/28/2022  18:13:00      135.005       14.499       -6.595       42.572       35.820       28.236     1812.398     1283.100      797.277        1.119        0.195      135.782       23.746        0.031      334.712        4.866      870.235
01/28/2022  18:14:00       96.860       20.496       -7.288       45.884       29.692       23.258     2105.383      881.606      540.937        0.669        0.176       99.004       13.479        0.019      334.671        4.796      870.245
01/28/2022  18:15:00      126.373       11.045      -11.877       16.207       21.789       15.523      262.674      474.756      240.950        0.861        0.049      126.855       10.560        0.007      334.676        4.804      870.239
01/28/2022  18:16:00      109.226       30.517      -12.051       35.930       29.292       20.216     1290.979      858.001      408.704        0.778        0.128      113.409       15.454        0.019      334.618        4.709      870.234
01/28/2022  18:17:00      123.251       26.144       -5.628       32.781       26.366       19.027     1074.591      695.175      362.013        0.902        0.107      125.994       12.980        0.011      334.659        4.776      870.232
01/28/2022  18:18:00       77.766        7.209       -9.583       58.215       44.131       20.984     3388.932     1947.513      440.343        0.598        0.289       78.100       10.622        0.018      334.705        4.852      870.230
01/28/2022  18:19:00       52.167       23.483      -11.084       66.095       33.408       27.102     4368.541     1116.066      734.529        0.481        0.311       57.209       26.642        0.217      334.750        4.929      870.227
01/28/2022  18:20:00      103.471       29.293       -9.878       48.530       32.478       26.764     2355.179     1054.828      716.326        0.789        0.206      107.538       19.054        0.031      334.567        4.623      870.232
01/28/2022  18:21:00       91.285       11.612       -4.871       44.080       32.393       20.235     1943.083     1049.289      409.474        0.595        0.170       92.020       21.323        0.054      334.496        4.504      870.244
01/28/2022  18:22:00      147.464       -5.829      -16.010       54.221       44.203       23.860     2939.866     1953.903      569.285        1.375        0.273      147.579       13.154        0.008      334.552        4.598      870.242
01/28/2022  18:23:00      104.601       14.083       -5.500       45.229       32.956       28.649     2045.667     1086.115      820.746        0.756        0.198      105.545       26.180        0.062      334.478        4.476      870.238
01/28/2022  18:24:00      124.679        2.354      -10.197       54.475       31.095       28.783     2967.496      966.878      828.486        1.021        0.238      124.702       23.715        0.036      334.404        4.354      870.235
01/28/2022  18:25:00      138.242        8.960       -5.461       60.914       49.771       35.034     3710.571     2477.196     1227.368        1.332        0.371      138.532       24.933        0.032      334.376        4.306      870.222
01/28/2022  18:26:00      158.027       29.186      -19.927       49.905       49.383       31.068     2490.548     2438.640      965.223        1.606        0.295      160.700       18.582        0.013      334.369        4.296      870.216
01/28/2022  18:27:00      136.639       -4.359       -9.899       58.425       49.158       37.873     3413.432     2416.491     1434.391        1.302        0.363      136.709       28.904        0.045      334.447        4.425      870.211
01/28/2022  18:28:00      118.886       -2.717       -3.412       71.918       39.128       37.368     5172.232     1531.022     1396.385        1.112        0.405      118.917       33.485        0.079      334.431        4.398      870.213
01/28/2022  18:29:00      115.906       -5.066       -8.233       69.207       47.230       36.032     4789.676     2230.685     1298.274        1.092        0.416      116.017       27.637        0.057      334.519        4.544      870.223
01/28/2022  18:30:00      186.879        6.725      -13.917       60.266       43.588       29.016     3632.017     1899.923      841.907        2.077        0.319      187.000       24.382        0.017      334.516        4.536      870.223
01/28/2022  18:31:00       92.955       18.272        5.560       78.202       51.920       39.746     6115.625     2695.689     1579.770        0.970        0.520       94.734       37.938        0.160      334.573        4.635      870.234
01/28/2022  18:32:00       92.528        4.029      -17.477       68.797       57.899       39.242     4733.001     3352.239     1539.948        0.925        0.481       92.615       33.124        0.128      334.596        4.672      870.241
01/28/2022  18:33:00       55.727        1.543        3.335       50.874       46.468       33.255     2588.139     2159.288     1105.877        0.449        0.293       55.748       25.850        0.215      334.494        4.502      870.247
01/28/2022  18:34:00      104.183       14.381       -8.056       69.566       36.383       28.616     4839.481     1323.754      818.864        0.905        0.349      105.171       26.449        0.063      334.334        4.237      870.242
01/28/2022  18:35:00      124.761      -10.448      -12.979       36.233       39.645       24.871     1312.849     1571.707      618.568        0.967        0.175      125.198       12.066        0.009      334.341        4.249      870.226
01/28/2022  18:36:00      167.263       10.545      -13.416       60.539       36.591       25.961     3665.012     1338.934      673.954        1.697        0.284      167.595       21.822        0.017      334.345        4.256      870.215
01/28/2022  18:37:00      165.914       -9.887       -6.994       64.323       45.664       36.486     4137.495     2085.171     1331.200        1.761        0.378      166.208       33.769        0.041      334.429        4.395      870.213
01/28/2022  18:38:00      169.176      -12.415      -13.294       53.441       41.932       30.220     2855.895     1758.307      913.250        1.724        0.276      169.631       23.229        0.019      334.485        4.486      870.213
01/28/2022  18:39:00       74.890       10.000      -10.462       43.130       50.738       29.265     1860.213     2574.341      856.419        0.555        0.265       75.554       17.279        0.052      334.504        4.518      870.222
01/28/2022  18:40:00      100.017       -3.341      -12.073       68.128       43.497       31.567     4641.420     1891.989      996.499        0.884        0.376      100.073       23.608        0.056      334.409        4.363      870.221
01/28/2022  18:41:00      182.902      -10.103       -9.790       62.554       45.039       38.936     3912.964     2028.469     1516.025        2.055        0.373      183.181       34.891        0.036      334.394        4.336      870.220
01/28/2022  18:42:00      116.740      -10.536       -6.002       61.835       56.135       34.577     3823.594     3151.123     1195.581        1.097        0.409      117.215       30.881        0.069      334.446        4.424      870.210
01/28/2022  18:43:00      129.125       -2.328      -15.400       42.339       37.565       26.343     1792.580     1411.103      693.959        1.041        0.195      129.146       12.952        0.010      334.293        4.169      870.199
01/28/2022  18:44:00      116.126        6.751      -18.278       56.585       65.863       36.993     3201.817     4337.893     1368.484        1.138        0.445      116.322       16.235        0.019      334.379        4.313      870.197
01/28/2022  18:45:00      158.897       29.269      -19.434       63.945       54.127       33.989     4088.954     2929.778     1155.242        1.733        0.409      161.570       27.715        0.029      334.356        4.273      870.184
01/28/2022  18:46:00      122.116        2.308       -9.791       49.481       43.324       32.290     2448.371     1877.007     1042.614        1.019        0.268      122.137       19.516        0.026      334.283        4.153      870.178
01/28/2022  18:47:00      138.320      -17.894       -4.508       52.726       44.114       32.962     2780.037     1946.065     1086.507        1.264        0.291      139.473       28.160        0.041      334.290        4.164      870.167
01/28/2022  18:48:00      119.902      -15.478       -6.895       40.211       34.149       30.814     1616.956     1166.170      949.484        0.920        0.187      120.897       22.819        0.036      334.325        4.224      870.159
01/28/2022  18:49:00       79.104        7.293       -8.284       39.591       22.902       15.744     1567.462      524.506      247.884        0.436        0.117       79.439       16.425        0.043      334.211        4.033      870.150
01/28/2022  18:50:00       87.527        8.562      -15.012       40.286       28.050       18.054     1622.998      786.776      325.949        0.535        0.137       87.944       12.002        0.019      334.268        4.127      870.144
01/28/2022  18:51:00       28.770       -7.602       -7.041       25.569       26.165       18.518      653.764      684.602      342.914        0.131        0.084       29.758       14.482        0.237      334.269        4.130      870.143
01/28/2022  18:52:00       59.567       -7.118      -16.144       41.294       24.630       21.152     1705.161      606.621      447.399        0.331        0.138       59.991       22.976        0.147      334.217        4.043      870.143
01/28/2022  18:53:00       56.082       17.428       -8.283       29.036       31.619       13.760      843.086      999.733      189.340        0.277        0.102       58.728       10.637        0.033      334.102        3.853      870.153
01/28/2022  18:54:00      117.724       25.421       -7.070       55.634       38.128       24.185     3095.097     1453.711      584.897        0.984        0.257      120.437       20.310        0.028      334.140        3.915      870.155
01/28/2022  18:55:00       54.079       18.529       -7.435       42.851       31.264       18.264     1836.211      977.463      333.584        0.323        0.157       57.165       16.001        0.078      334.083        3.821      870.162
01/28/2022  18:56:00      127.219       68.566      -35.311       22.615       23.200       22.882      511.433      538.237      523.602        1.185        0.079      144.520       12.541        0.008      334.165        3.957      870.167
01/28/2022  18:57:00      104.000       32.730      -30.749       22.259       24.572       19.464      495.447      603.806      378.848        0.716        0.074      109.029        6.506        0.004      334.191        4.000      870.171
01/28/2022  18:58:00      113.681       42.302      -22.943       38.233       32.609       23.733     1461.770     1063.340      563.272        0.916        0.154      121.297       12.998        0.011      334.220        4.049      870.172
01/28/2022  18:59:00       88.378       38.451      -15.817       23.869       18.929       16.967      569.715      358.297      287.886        0.538        0.061       96.381       13.620        0.020      334.218        4.047      870.173
01/28/2022  19:00:00      110.732       37.916       -7.211       35.252       27.046       23.436     1242.690      731.510      549.236        0.814        0.126      117.044       10.341        0.008      334.156        3.942      870.175
01/28/2022  19:01:00      183.536       46.867      -20.079       29.020       30.586       18.705      842.178      935.517      349.878        1.921        0.106      189.425       12.575        0.004      334.110        3.866      870.183
01/28/2022  19:02:00      131.228       45.863      -19.155       29.564       35.698       17.754      874.050     1274.318      315.222        1.108        0.123      139.012       15.805        0.013      334.059        3.781      870.186
01/28/2022  19:03:00      179.371       19.812      -14.066       45.088       40.871       22.810     2032.939     1670.406      520.312        1.849        0.211      180.461       18.502        0.011      334.118        3.877      870.182
01/28/2022  19:04:00      105.222       19.101      -14.555       36.419       36.309       24.574     1326.312     1318.320      603.858        0.745        0.162      106.942       16.728        0.024      334.078        3.813      870.181
01/28/2022  19:05:00       69.311       10.744      -11.080       41.003       34.002       21.593     1681.214     1156.158      466.267        0.417        0.165       70.139       10.208        0.021      333.970        3.635      870.186
01/28/2022  19:06:00       74.855       11.952       -9.099       33.928       33.688       19.607     1151.081     1134.884      384.431        0.425        0.134       75.804       12.886        0.029      334.046        3.761      870.190
01/28/2022  19:07:00       78.561       11.537       -4.965       46.667       30.347       22.759     2177.817      920.958      517.988        0.497        0.181       79.403       24.515        0.095      334.029        3.733      870.188
01/28/2022  19:08:00       60.493      -10.110       -7.327       27.412       42.162       18.958      751.414     1777.615      359.417        0.335        0.144       61.332       14.449        0.056      334.067        3.796      870.195
01/28/2022  19:09:00       74.370        7.378      -11.502       58.197       45.673       38.268     3386.922     2085.987     1464.444        0.633        0.347       74.735       25.458        0.116      334.099        3.848      870.196
01/28/2022  19:10:00       68.106        2.525      -27.554       37.546       48.646       28.290     1409.667     2366.457      800.321        0.499        0.229       68.153       19.969        0.086      334.115        3.874      870.198
01/28/2022  19:11:00       64.551       61.894      -17.348       35.009       43.876       19.460     1225.630     1925.143      378.686        0.591        0.176       89.430       15.549        0.030      334.008        3.699      870.194
01/28/2022  19:12:00       65.418       14.485      -19.814       30.945       32.147       23.655      957.590     1033.412      559.576        0.372        0.128       67.002       18.076        0.073      334.069        3.800      870.183
01/28/2022  19:13:00       79.100       19.223      -10.237       34.060       42.764       20.751     1160.053     1828.795      430.597        0.507        0.171       81.402       14.788        0.033      334.052        3.770      870.195
01/28/2022  19:14:00       95.864        5.456      -13.055       18.240       23.701       14.269      332.691      561.755      203.600        0.524        0.055       96.020        5.573        0.003      333.943        3.590      870.197
01/28/2022  19:15:00       85.838       17.438       -8.508       14.636       17.398       11.849      214.222      302.682      140.393        0.420        0.033       87.592        5.655        0.004      333.901        3.522      870.195
01/28/2022  19:16:00       89.770       31.278      -12.007       17.839       19.077       10.627      318.220      363.913      112.938        0.499        0.040       95.063        9.306        0.010      333.927        3.563      870.199
01/28/2022  19:17:00       54.349       35.742       -6.205       14.587        8.862        6.337      212.792       78.543       40.159        0.230        0.017       65.049        3.523        0.003      333.886        3.496      870.206
01/28/2022  19:18:00       66.625       39.392       -9.056       28.188       14.369       11.181      794.568      206.477      125.016        0.360        0.056       77.399       10.799        0.019      333.898        3.516      870.205
01/28/2022  19:19:00       63.618       39.361      -11.921        9.300        9.122        8.014       86.482       83.208       64.218        0.299        0.012       74.810        5.289        0.005      333.939        3.583      870.204
01/28/2022  19:20:00       83.154       50.148      -11.206       18.314       12.404       10.008      335.402      153.855      100.166        0.507        0.029       97.105        5.115        0.003      333.937        3.581      870.192
01/28/2022  19:21:00      100.841       45.128      -13.723       20.810       15.015       11.547      433.042      225.442      133.333        0.659        0.040      110.478        8.118        0.005      333.930        3.568      870.188
01/28/2022  19:22:00      115.598       69.203      -14.156       21.341       16.273       13.479      455.459      264.826      181.677        0.963        0.045      134.729        8.078        0.004      333.933        3.572      870.179
01/28/2022  19:23:00      113.937       51.588      -17.560       26.679       37.169       19.722      711.756     1381.568      388.963        0.922        0.124      125.072       15.460        0.015      333.935        3.576      870.179
01/28/2022  19:24:00      100.745       49.302      -10.408       29.575       23.232       16.370      874.662      539.709      267.992        0.719        0.084      112.162       10.071        0.008      333.895        3.510      870.173
01/28/2022  19:25:00      101.461       47.398      -10.646       22.833       18.430       12.818      521.350      339.670      164.299        0.684        0.051      111.986        5.082        0.002      333.875        3.478      870.178
01/28/2022  19:26:00      111.969       52.398      -15.704       12.773       15.484        9.077      163.161      239.756       82.394        0.801        0.024      123.622        7.258        0.003      333.905        3.529      870.180
01/28/2022  19:27:00      113.950       46.062      -11.153       14.912       15.193        9.212      222.372      230.823       84.869        0.788        0.027      122.908        6.775        0.003      333.906        3.529      870.175
01/28/2022  19:28:00      121.972       42.080      -11.379       19.043       17.031       12.128      362.627      290.049      147.090        0.879        0.040      129.027        5.442        0.002      333.883        3.491      870.169
01/28/2022  19:29:00      111.807       41.198      -10.176       24.653       18.636       11.834      607.770      347.311      140.047        0.770        0.055      119.155       11.217        0.009      333.888        3.499      870.168
01/28/2022  19:30:00      103.760       26.398      -18.475       24.919       29.455       12.467      620.937      867.618      155.426        0.672        0.082      107.065       11.088        0.011      333.883        3.490      870.160
01/28/2022  19:31:00       82.990       23.819       -5.277       37.852       38.084       22.438     1432.771     1450.413      503.472        0.543        0.169       86.340       14.671        0.029      333.923        3.558      870.152
01/28/2022  19:32:00       87.148       26.935      -10.690       24.046       28.174       15.687      578.226      793.771      246.079        0.503        0.081       91.216        9.618        0.011      333.933        3.574      870.151
01/28/2022  19:33:00       76.864       13.542      -20.857       23.586       32.298       14.819      556.301     1043.129      219.609        0.417        0.091       78.048       14.792        0.036      333.998        3.682      870.141
01/28/2022  19:34:00      102.077       32.071      -16.796       13.480       20.349       11.237      181.708      414.091      126.266        0.623        0.036      106.996        9.183        0.007      333.961        3.619      870.148
01/28/2022  19:35:00       86.075       16.484       -8.039       30.852       33.362       15.330      951.840     1113.042      235.006        0.502        0.115       87.639       10.149        0.013      333.938        3.583      870.148
01/28/2022  19:36:00       75.651       38.055      -11.045       37.109       36.354       23.343     1377.045     1321.618      544.917        0.527        0.162       84.683       11.813        0.019      333.986        3.660      870.145
01/28/2022  19:37:00       98.570       33.957      -13.790       35.270       19.882       18.439     1243.957      395.298      339.979        0.652        0.099      104.256        7.979        0.006      333.883        3.491      870.150
01/28/2022  19:38:00      101.462       33.204       -9.298       22.514       21.863       13.824      506.871      478.002      191.107        0.633        0.059      106.757        3.156        0.001      333.779        3.316      870.157
01/28/2022  19:39:00       71.053       42.160       -4.305       21.529       11.934       13.732      463.499      142.409      188.563        0.382        0.040       82.620        6.824        0.007      333.741        3.255      870.147
01/28/2022  19:40:00       43.152       48.048       -4.577       18.732       21.235       13.423      350.892      450.934      180.169        0.259        0.049       64.581       14.256        0.049      333.777        3.315      870.147
01/28/2022  19:41:00       51.279       37.760       -6.863       11.101       15.735        9.616      123.237      247.603       92.470        0.228        0.023       63.682        7.161        0.013      333.848        3.434      870.134
01/28/2022  19:42:00       67.338       39.678      -10.460        5.500        7.969        6.937       30.252       63.503       48.124        0.318        0.007       78.159        2.445        0.001      333.910        3.537      870.123
01/28/2022  19:43:00       63.815       49.621      -10.668       15.025       13.111       10.557      225.762      171.909      111.459        0.358        0.025       80.837        3.731        0.002      333.894        3.510      870.121
01/28/2022  19:44:00       53.772       55.230      -11.881       17.841       21.515       13.560      318.309      462.878      183.886        0.352        0.048       77.083       11.412        0.022      333.841        3.421      870.119
01/28/2022  19:45:00       61.268       87.670      -11.638       28.818       31.384       19.974      830.472      984.955      398.975        0.689        0.111      106.957       17.722        0.027      333.898        3.515      870.115
01/28/2022  19:46:00       31.396       84.840       -5.887       24.475       32.930       22.945      599.031     1084.402      526.487        0.521        0.110       90.463       12.938        0.020      333.991        3.669      870.109
01/28/2022  19:47:00        4.285       59.420       -2.216       29.034       43.470       21.574      842.999     1889.671      465.453        0.338        0.160       59.574       23.620        0.157      333.664        3.126      870.113
01/28/2022  19:48:00       15.831       75.174      -12.540       22.322       24.894       23.412      498.260      619.700      548.128        0.386        0.083       76.823       16.815        0.048      333.783        3.325      870.116
01/28/2022  19:49:00      -14.468       40.541       -8.235       26.721       21.410       15.786      714.016      458.409      249.197        0.167        0.071       43.045       10.915        0.064      333.557        2.951      870.118
01/28/2022  19:50:00      -43.552       26.495      -20.757       13.455       11.597       10.808      181.027      134.492      116.806        0.173        0.022       50.978        7.026        0.019      332.993        2.017      870.107
01/28/2022  19:51:00      -21.423       27.867      -23.196       18.414       21.859       17.678      339.069      477.832      312.498        0.145        0.056       35.150       11.654        0.110      333.084        2.168      870.101
01/28/2022  19:52:00        6.648       13.978       -6.188       17.171       15.300       10.907      294.828      234.104      118.969        0.046        0.032       15.478        5.650        0.133      333.293        2.514      870.104
01/28/2022  19:53:00       46.936       26.076       -3.159       17.150       14.703       12.992      294.128      216.180      168.781        0.179        0.034       53.693       10.720        0.040      333.580        2.989      870.102
01/28/2022  19:54:00       41.200       35.739       -4.445       15.235       23.211       12.810      232.097      538.755      164.101        0.196        0.047       54.541       10.623        0.038      333.538        2.920      870.100
01/28/2022  19:55:00       66.061       55.184      -10.790       19.034       18.898       15.710      362.309      357.145      246.802        0.425        0.048       86.077       11.379        0.017      333.509        2.872      870.085
01/28/2022  19:56:00       55.072       63.876      -11.019       19.740       24.009       16.310      389.656      576.438      266.018        0.423        0.062       84.340       10.536        0.016      333.469        2.804      870.074
01/28/2022  19:57:00       56.737       51.852       -7.612       20.152       15.783       15.533      406.096      249.106      241.267        0.343        0.045       76.862       10.047        0.017      333.408        2.704      870.073
01/28/2022  19:58:00      106.234       79.038      -13.356       33.670       22.010       17.653     1133.686      484.451      311.623        0.982        0.096      132.411       10.964        0.007      333.536        2.915      870.081
01/28/2022  19:59:00       93.754       76.614       -9.474       37.519       25.080       23.842     1407.711      629.027      568.435        0.868        0.130      121.077       14.446        0.014      333.524        2.897      870.096
01/28/2022  20:00:00      104.806       83.752      -15.003       35.949       20.675       17.881     1292.298      427.451      319.737        1.013        0.102      134.159       11.648        0.008      333.496        2.850      870.116
01/28/2022  20:01:00       96.253       81.788       -9.315       39.964       24.399       22.415     1597.095      595.292      502.414        0.937        0.135      126.309       16.352        0.017      333.457        2.785      870.123
01/28/2022  20:02:00       97.410       88.168      -11.030       37.954       26.860       21.730     1440.471      721.463      472.196        1.001        0.132      131.386       20.450        0.024      333.523        2.893      870.129
01/28/2022  20:03:00      107.240       86.793      -13.547       41.084       23.946       22.298     1687.876      573.428      497.205        1.099        0.138      137.961       16.127        0.014      333.556        2.949      870.129
01/28/2022  20:04:00       76.944       76.436      -13.741       37.289       30.761       17.149     1390.459      946.252      294.075        0.729        0.132      108.456       15.676        0.021      333.509        2.872      870.127
01/28/2022  20:05:00       72.731       87.687      -17.737       23.134       21.661       14.666      535.169      469.219      215.081        0.726        0.061      113.925        9.342        0.007      333.544        2.928      870.136
01/28/2022  20:06:00       35.003       59.683       -2.809       30.213       22.898       18.283      912.816      524.308      334.270        0.328        0.089       69.190       15.633        0.051      333.534        2.914      870.150
01/28/2022  20:07:00       -5.765       38.818       -4.152       42.211       23.453       12.305     1781.743      550.027      151.422        0.202        0.124       39.244        6.832        0.030      333.329        2.572      870.168
01/28/2022  20:08:00      -48.868       35.130      -15.842        9.620       13.519        9.946       92.544      182.769       98.923        0.212        0.019       60.185        5.918        0.010      332.975        1.989      870.185
01/28/2022  20:09:00      -62.426       42.782      -11.496       15.738       12.622       11.515      247.671      159.311      132.589        0.320        0.027       75.679        6.098        0.006      332.940        1.931      870.203
01/28/2022  20:10:00      -37.611       27.777      -14.540       19.035       11.574        9.143      362.335      133.962       83.588        0.149        0.029       46.757        5.373        0.013      332.900        1.864      870.213
01/28/2022  20:11:00      -35.913       34.416      -12.736       21.871       16.462       14.133      478.334      271.007      199.730        0.179        0.047       49.741        6.689        0.018      332.850        1.782      870.222
01/28/2022  20:12:00      -27.094       32.306      -11.491       22.094       14.644       11.013      488.167      214.455      121.286        0.137        0.041       42.164        7.207        0.029      333.130        2.245      870.219
01/28/2022  20:13:00        5.469       29.204       -4.182       26.503       12.780       11.915      702.420      163.331      141.955        0.095        0.050       29.711        9.435        0.101      333.167        2.306      870.223
01/28/2022  20:14:00       23.436       19.166        1.943       27.144       17.608       16.741      736.781      310.051      280.261        0.112        0.066       30.275       11.989        0.157      333.313        2.548      870.227
01/28/2022  20:15:00       67.953       71.021       -9.059       37.302       28.899       19.960     1391.471      835.128      398.392        0.618        0.131       98.293       15.002        0.023      333.440        2.757      870.236
01/28/2022  20:16:00       62.118       80.142      -15.694       33.929       23.815       17.182     1151.170      567.155      295.216        0.627        0.101      101.397       14.549        0.021      333.436        2.750      870.245
01/28/2022  20:17:00       63.996       58.667      -10.268       31.098       13.673       13.440      967.058      186.951      180.645        0.449        0.067       86.817        9.358        0.012      333.419        2.723      870.257
01/28/2022  20:18:00       44.080       54.809       -7.448       20.650       18.423       14.535      426.409      339.394      211.253        0.299        0.049       70.336       11.059        0.025      333.430        2.740      870.266
01/28/2022  20:19:00       41.961       48.865      -11.304       14.491       16.010       12.277      209.977      256.306      150.719        0.245        0.031       64.409        4.837        0.006      333.478        2.821      870.265
01/28/2022  20:20:00       33.613       49.914      -11.833       11.657       14.720        8.937      135.879      216.691       79.865        0.210        0.022       60.177        4.373        0.005      333.495        2.846      870.263
01/28/2022  20:21:00       37.554       53.896       -6.202       17.394       17.821       13.195      302.541      317.582      174.110        0.257        0.040       65.689        9.963        0.023      333.417        2.719      870.262
01/28/2022  20:22:00       26.858       70.090       -6.002       31.150       21.022       12.848      970.345      441.928      165.084        0.362        0.079       75.059        8.065        0.012      333.320        2.557      870.249
01/28/2022  20:23:00       33.875       77.104       -6.602       26.248       28.470       14.831      688.959      810.540      219.948        0.443        0.086       84.218       10.786        0.016      333.426        2.735      870.241
01/28/2022  20:24:00       66.210       86.593       -9.210       23.148       20.398       12.139      535.850      416.067      147.351        0.653        0.055      109.005        8.444        0.006      333.576        2.982      870.241
01/28/2022  20:25:00       50.790       85.838       -5.519       25.911       27.855       17.406      671.401      775.903      302.967        0.586        0.088       99.738       14.918        0.022      333.534        2.913      870.224
01/28/2022  20:26:00       43.916       66.602       -5.305       25.430       30.458       13.674      646.701      927.701      186.977        0.408        0.088       79.777       10.572        0.018      333.374        2.648      870.200
01/28/2022  20:27:00       64.826       98.220      -12.374       25.543       29.079       16.636      652.446      845.570      276.758        0.789        0.089      117.684       11.850        0.010      333.503        2.861      870.185
01/28/2022  20:28:00       63.661       96.706       -6.926       30.097       40.142       23.354      905.819     1611.400      545.419        0.826        0.153      115.779       17.405        0.023      333.516        2.884      870.168
01/28/2022  20:29:00       77.151       75.425      -12.914       42.994       26.433       21.741     1848.514      698.707      472.675        0.741        0.151      107.894       14.057        0.017      333.362        2.629      870.156
01/28/2022  20:30:00       95.867       65.782      -12.744       27.721       26.070       17.838      768.446      679.619      318.208        0.772        0.088      116.266       12.159        0.011      333.265        2.466      870.160
01/28/2022  20:31:00       54.095       99.589       -7.161       32.748       25.971       17.613     1072.453      674.486      310.217        0.748        0.103      113.333       18.181        0.026      333.397        2.687      870.154
01/28/2022  20:32:00       59.668       87.992       -8.306       26.597       28.913       20.284      707.422      835.963      411.431        0.666        0.098      106.315       18.321        0.030      333.433        2.746      870.149
01/28/2022  20:33:00       58.012       47.327       -4.132       22.678       13.916       13.921      514.288      193.647      193.794        0.326        0.045       74.869       10.785        0.021      333.330        2.575      870.156
01/28/2022  20:34:00       63.755       51.817       -7.565       17.909       15.524       10.333      320.744      240.998      106.779        0.374        0.033       82.156        2.012        0.001      333.332        2.579      870.161
01/28/2022  20:35:00       39.950       44.369       -6.658       12.458       20.352       10.126      155.210      414.223      102.536        0.214        0.034       59.704        5.933        0.010      333.352        2.612      870.160
01/28/2022  20:36:00       -5.288        5.113      -15.509       22.588        9.468        9.491      510.199       89.645       90.079        0.049        0.034        7.356        9.785        1.770      333.161        2.296      870.156
01/28/2022  20:37:00       -1.115       29.588       -6.926       36.179        7.516       12.826     1308.946       56.497      164.509        0.123        0.076       29.609       16.900        0.326      333.052        2.116      870.155
01/28/2022  20:38:00       25.017       39.400        7.701       19.454       22.208       14.806      378.470      493.179      219.206        0.166        0.055       46.671       12.972        0.077      333.421        2.725      870.158
01/28/2022  20:39:00       27.360       55.003       11.062       37.203       16.846       17.307     1384.041      283.804      299.536        0.293        0.098       61.431       18.839        0.094      333.439        2.756      870.159
01/28/2022  20:40:00      -53.378       49.792       -0.054       23.056       25.899       17.189      531.590      670.745      295.465        0.341        0.075       72.996       15.087        0.043      333.164        2.301      870.167
01/28/2022  20:41:00      -59.831        0.251       -8.925       34.748       23.476       16.324     1207.441      551.125      266.479        0.284        0.101       59.831       14.162        0.056      332.911        1.884      870.184
01/28/2022  20:42:00      -57.131       14.668       -1.542       37.096       29.959       20.648     1376.100      897.563      426.327        0.309        0.135       58.984       20.722        0.123      332.747        1.612      870.196
01/28/2022  20:43:00       -6.274        3.681       -4.685       38.735       28.915       19.131     1500.376      836.094      366.003        0.139        0.135        7.274       19.419        7.126      332.708        1.547      870.202
01/28/2022  20:44:00      -82.631       16.780      -12.023       25.028       26.221       16.905      626.394      687.557      285.766        0.443        0.080       84.318        6.065        0.005      332.493        1.192      870.197
01/28/2022  20:45:00      -92.621       35.712       -6.851       22.753       20.893       15.816      517.694      436.510      250.159        0.555        0.060       99.268        9.272        0.009      332.400        1.038      870.193
01/28/2022  20:46:00      -72.921       17.050      -21.358       31.941       22.023       16.479     1020.222      485.010      271.544        0.392        0.089       74.888       15.010        0.040      332.434        1.093      870.191
01/28/2022  20:47:00      -57.001        2.878      -16.549       33.480       23.192       15.423     1120.894      537.861      237.854        0.271        0.095       57.074       13.917        0.059      332.426        1.079      870.188
01/28/2022  20:48:00      -21.660        4.772       -1.100       30.594       13.593       12.512      935.975      184.756      156.553        0.088        0.064       22.180       11.980        0.292      332.361        0.972      870.198
01/28/2022  20:49:00      -19.945        7.511       -5.248       24.223       20.444       10.785      586.739      417.961      116.318        0.080        0.056       21.312        7.307        0.118      332.324        0.912      870.210
01/28/2022  20:50:00        3.007      -10.338        4.023       10.662       20.385       10.281      113.673      415.539      105.695        0.038        0.032       10.767        9.045        0.706      332.306        0.881      870.211
01/28/2022  20:51:00      -15.579       12.325       -0.434       23.795       23.080       15.544      566.195      532.666      241.606        0.087        0.067       19.864        8.318        0.175      332.288        0.853      870.230
01/28/2022  20:52:00      -35.472        7.479      -18.914       18.004       27.821       18.125      324.147      773.993      328.534        0.155        0.071       36.252       13.394        0.137      332.376        0.997      870.229
01/28/2022  20:53:00      -37.785       21.071      -18.493       18.933       15.107       14.503      358.441      228.228      210.338        0.151        0.040       43.263        9.711        0.050      332.352        0.958      870.217
01/28/2022  20:54:00      -32.447        2.638      -12.477       23.401       20.959       13.588      547.612      439.297      184.639        0.119        0.059       32.554       14.484        0.198      332.374        0.995      870.195
01/28/2022  20:55:00      -29.033       10.764       -8.656       16.440       11.433       10.449      270.283      130.724      109.192        0.077        0.026       30.964        1.826        0.003      332.343        0.942      870.182
01/28/2022  20:56:00       -2.467        2.812       -6.153        8.213        8.688        7.931       67.460       75.473       62.896        0.013        0.010        3.741        3.860        1.065      332.344        0.945      870.181
01/28/2022  20:57:00      -11.219        4.605       -5.072       16.702       12.681       13.817      278.960      160.796      190.902        0.040        0.032       12.127       10.836        0.798      332.363        0.977      870.183
01/28/2022  20:58:00      -27.574       16.845       -8.132       29.194       13.142       13.407      852.293      172.713      179.747        0.116        0.060       32.313        9.451        0.086      332.436        1.098      870.188
01/28/2022  20:59:00      -53.689       19.822      -18.888       16.693       19.780       12.219      278.640      391.256      149.304        0.223        0.041       57.232        6.588        0.013      332.442        1.108      870.180
01/28/2022  21:00:00      -41.667       10.251      -11.091       20.091       22.447       13.416      403.653      503.879      179.982        0.153        0.054       42.909        9.899        0.053      332.369        0.986      870.107
01/28/2022  21:01:00      -41.348        6.163      -18.494       25.707       26.203       17.978      660.835      686.588      323.203        0.188        0.084       41.805       14.105        0.114      332.276        0.834      870.106
01/28/2022  21:02:00      -38.785       -6.802       -4.272       31.622       24.595       21.564      999.979      604.937      465.019        0.182        0.103       39.377       20.269        0.265      332.218        0.738      870.116
01/28/2022  21:03:00      -68.295       31.127      -19.254       27.011       17.860       19.645      729.581      318.994      385.934        0.372        0.072       75.054       18.996        0.064      332.241        0.775      870.122
01/28/2022  21:04:00      -70.461       19.175      -11.400       31.536       26.404       14.211      994.535      697.149      201.946        0.368        0.095       73.024       10.591        0.021      332.221        0.743      870.125
01/28/2022  21:05:00      -10.982       14.956       -0.589       35.831       16.928       16.519     1283.892      286.556      272.869        0.109        0.092       18.555       10.297        0.308      332.187        0.684      870.144
01/28/2022  21:06:00       16.810       -1.019       -5.290       16.107       13.032       21.957      259.428      169.820      482.110        0.061        0.046       16.841       10.113        0.361      332.123        0.582      870.170
01/28/2022  21:07:00      -37.516       23.725       -6.453       33.185       21.043       19.178     1101.271      442.828      367.793        0.196        0.096       44.388       13.028        0.086      332.191        0.692      870.185
01/28/2022  21:08:00      -31.353       10.270      -16.188       31.159       24.583       19.842      970.865      604.346      393.686        0.166        0.098       32.992       14.201        0.185      332.150        0.625      870.184
01/28/2022  21:09:00       -1.856       -3.873      -11.060       27.359       30.163       16.914      748.513      909.828      286.097        0.104        0.097        4.295        9.453        4.844      332.056        0.470      870.194
01/28/2022  21:10:00        0.012        2.727        2.771       16.281       14.989       17.906      265.059      224.678      320.640        0.041        0.041        2.727        8.205        9.056      332.018        0.408      870.196
01/28/2022  21:11:00      -69.247       -0.773      -15.009       30.902       22.028       20.277      954.929      485.244      411.140        0.344        0.093       69.251        8.285        0.014      332.081        0.511      870.195
01/28/2022  21:12:00      -12.658       14.595       -0.450       25.995       12.720       15.149      675.754      161.786      229.494        0.072        0.053       19.320       15.855        0.673      332.058        0.472      870.194
01/28/2022  21:13:00      -38.186        7.629      -12.715       28.267       27.101       17.428      799.003      734.462      303.746        0.176        0.092       38.940        6.049        0.024      332.133        0.597      870.183
01/28/2022  21:14:00      -14.834       -2.649       -9.429       35.832       22.678       21.953     1283.933      514.289      481.928        0.130        0.114       15.069        8.663        0.331      332.125        0.584      870.183
01/28/2022  21:15:00     -122.110       35.188      -13.452       50.633       36.524       24.151     2563.696     1334.028      583.272        1.040        0.224      127.079       21.858        0.030      332.014        0.401      870.188
01/28/2022  21:16:00     -114.733       25.625       -7.679       52.654       36.607       27.451     2772.443     1340.084      753.556        0.937        0.243      117.560       28.418        0.058      331.948        0.294      870.192
01/28/2022  21:17:00      -80.029       16.371       -5.219       63.199       40.657       25.395     3994.140     1653.011      644.902        0.649        0.315       81.686       19.489        0.057      331.905        0.222      870.198
01/28/2022  21:18:00      -74.796       17.579      -10.010       47.728       33.390       21.967     2277.928     1114.874      482.540        0.494        0.194       76.834       19.955        0.067      331.951        0.299      870.191
01/28/2022  21:19:00      -43.952       11.344       -6.366       29.568       20.321       17.250      874.264      412.951      297.568        0.184        0.079       45.393       13.701        0.091      331.948        0.293      870.186
01/28/2022  21:20:00      -35.685       14.200      -16.995       14.358       14.508       14.956      206.147      210.493      223.672        0.120        0.032       38.406        6.018        0.025      331.967        0.324      870.187
01/28/2022  21:21:00      -13.350       -4.569       -7.555       12.034       20.345       10.934      144.814      413.934      119.554        0.047        0.034       14.110        4.574        0.105      332.073        0.497      870.173
01/28/2022  21:22:00      -21.887       13.068       -9.866       18.134       13.740        9.238      328.839      188.794       85.349        0.067        0.030       25.492        4.706        0.034      332.136        0.600      870.159
01/28/2022  21:23:00       -2.249       80.485       -8.480       28.077       33.007       18.886      788.333     1089.458      356.683        0.439        0.112       80.517       12.157        0.023      332.678        1.498      870.142
01/28/2022  21:24:00       28.501       82.035       -3.027       31.654       37.313       24.950     1001.992     1392.229      622.525        0.528        0.151       86.845       22.548        0.067      332.952        1.951      870.140
01/28/2022  21:25:00       59.779       88.181       -8.537       25.621       24.744       17.034      656.453      612.264      290.162        0.649        0.078      106.534       15.033        0.020      332.912        1.884      870.136
01/28/2022  21:26:00       52.026       79.468      -10.207       27.352       24.512       19.107      748.137      600.837      365.088        0.542        0.086       94.983       16.615        0.031      332.918        1.895      870.129
01/28/2022  21:27:00       50.267       66.800       -9.629       23.141       26.301       16.454      535.487      691.748      270.736        0.429        0.075       83.600        9.242        0.012      332.845        1.773      870.124
01/28/2022  21:28:00       48.877       78.319      -17.798       30.095       23.565       18.415      905.704      555.321      339.120        0.532        0.090       92.319       13.393        0.021      332.811        1.717      870.113
01/28/2022  21:29:00       35.664       53.586       -3.808       20.331       30.206       16.213      413.332      912.431      262.874        0.287        0.079       64.369       12.352        0.037      332.713        1.556      870.101
01/28/2022  21:30:00       24.087       40.580        0.823       18.951       24.410       15.251      359.127      595.855      232.593        0.171        0.059       47.191        9.222        0.038      332.739        1.598      870.104
01/28/2022  21:31:00       -2.910       31.683       -8.280       20.262       27.639       10.977      410.554      763.901      120.500        0.119        0.065       31.816        7.153        0.051      332.721        1.568      870.104
01/28/2022  21:32:00      -46.858       18.163      -11.013       19.024       11.827       11.268      361.898      139.885      126.972        0.164        0.031       50.255        1.634        0.001      332.265        0.814      870.103
01/28/2022  21:33:00      -17.975        2.621       -4.164       16.416       10.631        9.326      269.494      113.014       86.970        0.041        0.023       18.165        4.541        0.063      332.217        0.735      870.095
01/28/2022  21:34:00      -30.824      -10.737       -4.749       20.705       16.905       11.140      428.715      285.783      124.095        0.096        0.042       32.641        9.037        0.077      332.292        0.860      870.084
01/28/2022  21:35:00      -51.787       10.376      -11.044       18.321       16.403       11.329      335.656      269.051      128.353        0.182        0.037       52.816        3.952        0.006      332.210        0.725      870.067
01/28/2022  21:36:00      -52.265       13.268      -10.285       17.681       10.365       10.856      312.600      107.433      117.862        0.178        0.027       53.923        5.076        0.009      332.250        0.789      870.052
01/28/2022  21:37:00      -45.192       12.950      -14.243       10.906        7.709        7.102      118.949       59.434       50.442        0.132        0.011       47.011        3.665        0.006      332.230        0.756      870.035
01/28/2022  21:38:00      -26.612        7.296       -5.638       17.083       12.508        9.957      291.815      156.442       99.142        0.067        0.027       27.594        7.203        0.068      332.298        0.868      870.025
01/28/2022  21:39:00       -6.896       -0.116       -1.744        9.945        8.762       10.891       98.905       76.777      118.609        0.017        0.015        6.896        6.920        1.007      332.214        0.730      870.025
01/28/2022  21:40:00      -10.947        2.701       -4.041       15.192       18.019       12.535      230.803      324.683      157.128        0.043        0.036       11.275       10.066        0.797      332.157        0.635      870.028
01/28/2022  21:41:00      -40.474        5.127       -9.280       33.040       23.888       20.175     1091.650      570.645      407.050        0.191        0.103       40.798       19.938        0.239      331.982        0.350      870.027
01/28/2022  21:42:00      -39.979       -0.911      -11.170       26.253       19.969       15.740      689.230      398.763      247.749        0.153        0.067       39.989       14.819        0.137      331.952        0.298      870.021
01/28/2022  21:43:00      -31.739       12.883       -5.400       29.338       18.273       14.678      860.747      333.897      215.440        0.131        0.071       34.254       15.284        0.199      331.985        0.353      870.011
01/28/2022  21:44:00      -71.178       12.810      -11.568       13.464       15.839       12.668      181.283      250.883      160.489        0.298        0.030       72.321        7.639        0.011      332.014        0.400      870.003
01/28/2022  21:45:00      -69.231       26.187       -9.721       16.389       11.356        9.498      268.610      128.970       90.213        0.303        0.024       74.018        8.361        0.013      331.915        0.238      870.000
01/28/2022  21:46:00      -65.596       20.511      -13.454       11.024       16.534       12.121      121.539      273.384      146.912        0.272        0.027       68.728        3.806        0.003      331.949        0.294      869.998
01/28/2022  21:47:00      -49.590       -4.665       -9.371       21.324       27.138       11.913      454.699      736.447      141.911        0.195        0.067       49.809        6.769        0.018      331.933        0.268      870.003
01/28/2022  21:48:00      -70.471        3.416       -4.112       36.608       24.096       18.233     1340.159      580.614      332.437        0.362        0.113       70.554       12.144        0.030      331.877        0.175      870.016
01/28/2022  21:49:00      -38.280        1.654      -10.748       38.514       14.302       17.172     1483.322      204.539      294.870        0.178        0.099       38.315       20.324        0.281      331.836        0.108      870.031
01/28/2022  21:50:00      -58.632       16.616       -5.900       17.949       23.422       10.229      322.179      548.570      104.635        0.236        0.049       60.941        5.660        0.009      331.840        0.116      870.045
01/28/2022  21:51:00      -15.925        3.219       -7.240       24.338       17.867       13.856      592.328      319.225      191.999        0.071        0.055       16.247       13.095        0.650      331.825        0.091      870.046
01/28/2022  21:52:00        0.046        8.439        0.921       11.860       16.203       10.813      140.658      262.550      116.926        0.030        0.026        8.439        4.038        0.229      331.805        0.058      870.060
01/28/2022  21:53:00      -19.579        2.671       -4.162       28.902       14.588       10.751      835.303      212.821      115.593        0.079        0.058       19.761       11.962        0.366      331.870        0.166      870.068
01/28/2022  21:54:00      -31.668        4.785       -7.838       26.837       23.916       18.192      720.251      571.975      330.935        0.135        0.081       32.027        7.720        0.058      331.897        0.208      870.068
01/28/2022  21:55:00        1.070      -11.998       -4.448       15.979       15.530       13.259      255.338      241.174      175.812        0.042        0.034       12.046        4.470        0.138      331.764       -0.012      870.076
01/28/2022  21:56:00       -3.217       -4.427        1.004       25.045       22.211       16.457      627.264      493.346      270.831        0.071        0.070        5.472       10.740        3.853      331.692       -0.128      870.090
01/28/2022  21:57:00      -44.932      -12.820       -7.171       47.815       30.345       27.087     2286.295      920.798      733.732        0.309        0.197       46.725       27.648        0.350      331.663       -0.177      870.100
01/28/2022  21:58:00      -72.797       18.325       -7.418       47.137       22.849       19.747     2221.938      522.070      389.932        0.441        0.157       75.068       14.563        0.038      331.632       -0.228      870.115
01/28/2022  21:59:00      -54.258       -1.997       -6.598       41.032       31.913       25.684     1683.637     1018.463      659.654        0.318        0.168       54.295       19.898        0.134      331.655       -0.190      870.113
01/28/2022  22:00:00      -62.956       -4.956      -12.482       35.488       31.193       24.822     1259.381      972.981      616.150        0.350        0.142       63.151       18.817        0.089      331.590       -0.296      870.112
01/28/2022  22:01:00      -92.299       16.226       -5.633       22.206       22.816       14.590      493.124      520.558      212.879        0.502        0.061       93.714       10.261        0.012      331.598       -0.283      870.109
01/28/2022  22:02:00      -67.383       14.934       -5.502       32.642       22.437       17.979     1065.520      503.418      323.229        0.334        0.095       69.018       14.825        0.046      331.542       -0.376      870.111
01/28/2022  22:03:00      -93.014       24.047       -7.699       35.989       22.174       20.397     1295.210      491.676      416.018        0.575        0.110       96.073       15.525        0.026      331.558       -0.350      870.113
01/28/2022  22:04:00      -45.884       -1.859       -9.075       35.992       30.578       23.855     1295.423      935.008      569.039        0.249        0.140       45.922       19.412        0.179      331.540       -0.380      870.116
01/28/2022  22:05:00      -38.693        1.623       -0.658       34.999       29.178       23.542     1224.960      851.378      554.203        0.206        0.132       38.727       20.537        0.281      331.533       -0.389      870.123
01/28/2022  22:06:00     -118.901       23.721       -6.806       17.168       19.060       15.879      294.734      363.281      252.140        0.783        0.046      121.245        9.427        0.006      331.574       -0.322      870.135
01/28/2022  22:07:00      -66.406       15.375      -10.747       38.122       20.533       19.449     1453.279      421.598      378.246        0.351        0.113       68.162       16.080        0.056      331.621       -0.245      870.132
01/28/2022  22:08:00      -51.185       15.929       -7.625       23.578       23.380       14.313      555.907      546.624      204.852        0.212        0.065       53.606       11.361        0.045      331.634       -0.225      870.129
01/28/2022  22:09:00      -65.493       20.127      -20.129       11.806       10.155        9.328      139.381      103.123       87.006        0.271        0.016       68.516        6.412        0.009      331.553       -0.358      870.126
01/28/2022  22:10:00      -61.576       15.936       -9.991       13.768       10.758        9.219      189.555      115.735       84.996        0.227        0.020       63.605        4.555        0.005      331.614       -0.255      870.133
01/28/2022  22:11:00       -1.099       -1.085      -13.352       14.446       10.223        9.930      208.690      104.502       98.614        0.030        0.021        1.544        6.115       15.682      331.734       -0.060      870.140
01/28/2022  22:12:00      -21.189       -0.388      -12.038       14.834       15.956       12.323      220.058      254.585      151.864        0.061        0.031       21.193        7.593        0.128      331.625       -0.239      870.148
01/28/2022  22:13:00      -31.664      -12.133       -8.414       18.564       15.608       13.583      344.621      243.616      184.497        0.100        0.039       33.909       12.444        0.135      331.504       -0.439      870.145
01/28/2022  22:14:00      -53.504       23.425      -10.186       24.297       16.626       13.647      590.343      276.415      186.243        0.228        0.053       58.407        8.724        0.022      331.548       -0.366      870.141
01/28/2022  22:15:00      -52.699        2.673      -16.697       18.388       21.271       15.178      338.113      452.461      230.383        0.204        0.051       52.766        8.440        0.026      331.503       -0.441      870.139
01/28/2022  22:16:00      -55.378       10.055      -16.877       31.038       22.462       18.524      963.345      504.564      343.142        0.263        0.091       56.283       17.023        0.091      331.495       -0.454      870.129
01/28/2022  22:17:00      -34.102       12.766      -10.161       20.261       16.034       13.001      410.495      257.101      169.029        0.113        0.042       36.413        9.530        0.068      331.515       -0.421      870.111
01/28/2022  22:18:00      -61.795       18.676      -18.108       20.431       12.575        9.066      417.408      158.122       82.199        0.258        0.033       64.556        7.072        0.012      331.484       -0.473      870.107
01/28/2022  22:19:00      -32.229       -7.969      -16.462       19.114       19.416       16.977      365.352      376.993      288.221        0.120        0.052       33.199       10.175        0.094      331.574       -0.324      870.108
01/28/2022  22:20:00      -14.449        7.535       -7.047       14.393       16.019        9.665      207.146      256.610       93.414        0.044        0.028       16.296        2.974        0.033      331.597       -0.284      870.107
01/28/2022  22:21:00      -33.870        4.448      -14.667       15.574       20.555       13.262      242.555      422.510      175.876        0.111        0.042       34.161       10.830        0.101      331.627       -0.235      870.107
01/28/2022  22:22:00      -23.898        2.977       -6.504       12.737       15.803       12.205      162.233      249.747      148.959        0.059        0.028       24.083        6.287        0.068      331.611       -0.262      870.117
01/28/2022  22:23:00      -21.162       -2.321      -11.291       14.480       20.357       10.022      209.684      414.427      100.447        0.065        0.036       21.289        9.089        0.182      331.681       -0.146      870.116
01/28/2022  22:24:00      -19.553        5.440       -0.890       19.543       16.796       11.396      381.948      282.099      129.875        0.060        0.040       20.295        7.675        0.143      331.597       -0.284      870.107
01/28/2022  22:25:00      -21.983       11.383       -5.078       14.525       15.343       10.414      210.990      235.412      108.449        0.060        0.028       24.755        7.116        0.083      331.624       -0.241      870.103
01/28/2022  22:26:00      -38.634       17.399      -11.346       14.990       17.290       11.179      224.696      298.935      124.960        0.129        0.032       42.371        6.622        0.024      331.616       -0.254      870.104
01/28/2022  22:27:00      -32.801       10.581      -18.818       12.260       10.673        8.357      150.309      113.908       69.843        0.094        0.017       34.466        6.604        0.037      331.796        0.043      870.115
01/28/2022  22:28:00      -28.300        4.362      -14.518       21.419       12.580       10.827      458.759      158.254      117.220        0.088        0.037       28.635        8.713        0.093      331.908        0.228      870.124
01/28/2022  22:29:00      -28.687        1.077      -14.177       13.985       16.200       12.059      195.566      262.437      145.411        0.081        0.030       28.707        9.577        0.111      331.683       -0.142      870.118
01/28/2022  22:30:00      -46.415       14.650      -13.763       20.309       18.762       12.474      412.468      352.003      155.589        0.174        0.046       48.672        8.461        0.030      331.687       -0.135      870.108
01/28/2022  22:31:00      -43.437      -12.258      -14.583       17.882       16.587       14.487      319.755      275.131      209.874        0.153        0.040       45.133        7.724        0.029      331.734       -0.059      870.102
01/28/2022  22:32:00      -52.827       25.904      -16.539       19.117       14.478       11.614      365.468      209.619      134.884        0.222        0.035       58.836        4.051        0.005      331.840        0.115      870.106
01/28/2022  22:33:00      -38.191       37.502      -11.461       10.439       13.910       10.038      108.971      193.484      100.762        0.170        0.020       53.525        7.446        0.019      331.822        0.085      870.102
01/28/2022  22:34:00      -45.164       28.092      -15.881       12.066       14.758       14.670      145.584      217.804      215.197        0.183        0.029       53.188        7.752        0.021      331.689       -0.131      870.093
01/28/2022  22:35:00      -13.763        1.168      -16.528       13.455       13.923       10.541      181.047      193.853      111.119        0.047        0.024       13.812        6.551        0.225      331.781        0.019      870.079
01/28/2022  22:36:00      -10.040       -5.933       -9.273       12.544       11.398       11.372      157.354      129.909      129.316        0.032        0.021       11.662        7.203        0.382      331.759       -0.018      870.070
01/28/2022  22:37:00      -26.736       -8.076       -7.289       19.480       17.706       15.617      379.482      313.508      243.882        0.088        0.047       27.929       14.704        0.277      331.603       -0.274      870.063
01/28/2022  22:38:00      -22.873        1.183       -6.659       14.534       17.400       14.692      211.239      302.773      215.850        0.065        0.036       22.904        6.976        0.093      331.610       -0.263      870.065
01/28/2022  22:39:00      -50.541       15.747       -9.309       32.139       19.572       20.316     1032.899      383.065      412.729        0.236        0.091       52.937       12.913        0.060      331.514       -0.422      870.073
01/28/2022  22:40:00     -124.479       23.571      -17.816       16.646       20.555       13.466      277.081      422.509      181.339        0.862        0.044      126.691        4.089        0.001      331.541       -0.378      870.083
01/28/2022  22:41:00      -79.910       10.385      -11.695       38.080       22.798       20.348     1450.049      519.763      414.038        0.451        0.119       80.582       19.511        0.059      331.548       -0.366      870.080
01/28/2022  22:42:00      -56.329       -1.733       -9.724       34.534       23.570       22.094     1192.619      555.533      488.132        0.275        0.112       56.356       18.336        0.106      331.600       -0.281      870.088
01/28/2022  22:43:00      -11.836        4.068       -6.804       30.716       19.383       16.832      943.473      375.702      283.320        0.090        0.080       12.516        7.532        0.362      331.594       -0.290      870.089
01/28/2022  22:44:00      -25.295        3.623       -4.644       21.818       26.770       16.474      476.034      716.615      271.390        0.107        0.073       25.554       13.342        0.273      331.666       -0.171      870.090
01/28/2022  22:45:00      -44.405        1.952       -4.235       33.242       25.456       17.777     1105.011      648.021      316.019        0.203        0.103       44.448       12.046        0.073      331.621       -0.245      870.098
01/28/2022  22:46:00      -89.935       -4.340       -3.474       38.478       24.052       24.998     1480.563      578.514      624.912        0.540        0.134       90.040       21.650        0.058      331.533       -0.391      870.099
01/28/2022  22:47:00      -79.703      -16.065       -8.497       40.554       26.390       28.658     1644.596      696.417      821.273        0.492        0.158       81.306       25.235        0.096      331.524       -0.406      870.094
01/28/2022  22:48:00      -79.371      -16.079       -4.713       50.676       30.093       32.916     2568.016      905.616     1083.473        0.557        0.228       80.983       29.914        0.136      331.449       -0.529      870.088
01/28/2022  22:49:00      -41.131       -4.725        6.953       49.927       28.486       27.735     2492.676      811.452      769.213        0.292        0.204       41.402       25.260        0.372      331.387       -0.629      870.075
01/28/2022  22:50:00      -14.476      -17.404       -4.625       51.961       31.240       37.793     2699.931      975.941     1428.302        0.282        0.255       22.638       26.902        1.412      331.374       -0.654      870.057
01/28/2022  22:51:00      -25.953        2.025       -2.069       47.734       34.724       29.683     2278.581     1205.772      881.081        0.252        0.218       26.032       18.191        0.488      331.370       -0.659      870.052
01/28/2022  22:52:00       -4.174       -5.445        1.886       25.859       21.967       21.686      668.702      482.558      470.286        0.084        0.081        6.861       12.374        3.253      331.413       -0.587      870.038
01/28/2022  22:53:00       23.631       -7.170        6.775       19.977       27.556       16.227      399.098      759.338      263.308        0.104        0.071       24.695        7.999        0.105      331.468       -0.499      870.033
01/28/2022  22:54:00        4.577      -22.993       -1.296       22.372       27.294       13.898      500.519      744.979      193.144        0.099        0.072       23.444       12.673        0.292      331.514       -0.422      870.032
01/28/2022  22:55:00      -33.553      -12.154       -2.320       37.123       37.462       28.495     1378.124     1403.398      811.969        0.244        0.180       35.687       22.518        0.398      331.500       -0.445      870.039
01/28/2022  22:56:00      -22.127      -13.753        5.363       29.234       30.928       18.911      854.603      956.564      357.615        0.144        0.108       26.052       15.808        0.368      331.474       -0.486      870.037
01/28/2022  22:57:00       12.825        1.044        1.063       21.278       17.081       16.407      452.751      291.767      269.183        0.059        0.051       12.868        9.289        0.521      331.396       -0.616      870.047
01/28/2022  22:58:00       -1.951        5.211       -1.519       13.074       21.832       11.522      170.931      476.645      132.757        0.041        0.039        5.564        4.417        0.630      331.439       -0.547      870.055
01/28/2022  22:59:00        9.559        9.351        7.970       21.771       18.609       21.776      473.994      346.285      474.211        0.077        0.065       13.372       16.709        1.561      331.379       -0.644      870.063
01/28/2022  23:00:00       12.664       -1.646       -0.230       24.266       20.230       22.366      588.849      409.243      500.236        0.083        0.075       12.770       11.410        0.798      331.438       -0.547      870.077
01/28/2022  23:01:00      -23.394        2.353       -0.127       36.451       23.163       26.292     1328.692      536.503      691.274        0.155        0.128       23.512       22.628        0.926      331.454       -0.520      870.091
01/28/2022  23:02:00      -35.788       -3.807        5.264       31.245       24.326       23.601      976.266      591.748      557.003        0.172        0.106       35.990       17.810        0.245      331.495       -0.454      870.107
01/28/2022  23:03:00      -70.599      -16.037        2.024       46.586       35.290       29.647     2170.245     1245.411      878.921        0.477        0.215       72.398       23.038        0.101      331.502       -0.442      870.121
01/28/2022  23:04:00      -83.977       -5.816       -8.042       44.744       31.846       23.552     2002.019     1014.174      554.709        0.536        0.179       84.178       18.626        0.049      331.401       -0.608      870.143
01/28/2022  23:05:00      -78.750      -11.625       -4.716       58.653       30.803       22.430     3440.179      948.809      503.103        0.562        0.245       79.603       28.337        0.127      331.357       -0.680      870.141
01/28/2022  23:06:00      -59.154       -4.048        2.010       58.784       36.020       30.848     3455.540     1297.424      951.606        0.461        0.285       59.293       29.569        0.249      331.282       -0.803      870.142
01/28/2022  23:07:00      -76.105      -16.624       -6.023       50.614       27.160       23.902     2561.799      737.675      571.300        0.499        0.194       77.900       18.861        0.059      331.305       -0.765      870.137
01/28/2022  23:08:00      -61.005      -18.264       -6.248       62.214       37.541       25.632     3870.587     1409.315      656.985        0.501        0.297       63.680       21.954        0.119      331.180       -0.970      870.135
01/28/2022  23:09:00      -53.180      -18.855        1.896       58.509       32.300       28.230     3423.251     1043.270      796.941        0.422        0.263       56.424       23.570        0.174      331.214       -0.914      870.139
01/28/2022  23:10:00      -23.858       -7.765        3.601       38.920       30.077       21.127     1514.755      904.650      446.346        0.175        0.143       25.090       18.433        0.540      331.274       -0.815      870.146
01/28/2022  23:11:00        1.236        6.674        2.010       36.411       30.981       26.631     1325.742      959.830      709.228        0.152        0.150        6.787       15.019        4.897      331.221       -0.902      870.156
01/28/2022  23:12:00      -31.813      -11.408       -5.309       46.961       25.474       26.618     2205.289      648.915      708.492        0.237        0.178       33.797       24.705        0.534      331.254       -0.849      870.154
01/28/2022  23:13:00      -37.292        8.538       -5.189       30.310       20.938       19.047      918.676      438.401      362.798        0.160        0.086       38.257       15.471        0.164      331.267       -0.829      870.146
01/28/2022  23:14:00      -24.416       -5.656        0.307       28.000       34.673       23.024      783.994     1202.218      530.116        0.157        0.126       25.063       13.143        0.275      331.329       -0.726      870.133
01/28/2022  23:15:00       -4.019      -13.585       -1.852       42.219       36.519       26.489     1782.407     1333.610      701.672        0.201        0.191       14.167       22.174        2.450      331.283       -0.803      870.131
01/28/2022  23:16:00      -60.390        5.017       -6.266       45.699       28.947       20.896     2088.379      837.943      436.636        0.354        0.168       60.598       21.633        0.127      331.247       -0.861      870.125
01/28/2022  23:17:00      -49.399        5.137       -8.988       36.429       24.948       14.365     1327.104      622.410      206.366        0.235        0.108       49.665       12.300        0.061      331.240       -0.872      870.120
01/28/2022  23:18:00       -2.688       -9.348       -4.735       12.402       14.839       13.282      153.815      220.194      176.418        0.033        0.028        9.727        6.880        0.500      331.277       -0.811      870.114
01/28/2022  23:19:00       -7.767        0.809       -8.193       12.225       13.605       12.034      149.453      185.096      144.826        0.030        0.024        7.809        5.770        0.546      331.256       -0.847      870.108
01/28/2022  23:20:00      -55.094        5.914      -14.958       18.499       23.545       16.341      342.205      554.373      267.036        0.223        0.058       55.411        6.452        0.014      331.324       -0.735      870.108
01/28/2022  23:21:00      -79.171        4.658      -12.722       25.772       14.171       16.569      664.180      200.807      274.522        0.380        0.057       79.308       11.727        0.022      331.280       -0.805      870.110
01/28/2022  23:22:00      -76.849        0.997      -15.706       25.463       22.274       15.047      648.365      496.147      226.425        0.376        0.069       76.856        9.066        0.014      331.344       -0.702      870.114
01/28/2022  23:23:00      -24.246       21.228        0.413       36.529       20.471       24.822     1334.357      419.073      616.126        0.170        0.118       32.225       22.686        0.496      331.200       -0.938      870.125
01/28/2022  23:24:00      -39.885       -6.993       -6.986       32.675       27.975       22.411     1067.642      782.605      502.256        0.202        0.118       40.494       19.532        0.233      331.229       -0.891      870.123
01/28/2022  23:25:00      -43.122        0.511      -10.841       30.007       27.934       19.080      900.410      780.318      364.041        0.201        0.102       43.125       18.472        0.183      331.261       -0.838      870.112
01/28/2022  23:26:00      -29.707        1.021       -6.001       30.449       17.563       19.687      927.154      308.468      387.586        0.127        0.081       29.725       21.188        0.508      331.163       -0.998      870.102
01/28/2022  23:27:00      -39.324       -3.326       -4.034       21.152       18.015       18.441      447.394      324.534      340.081        0.134        0.056       39.465        8.047        0.042      331.211       -0.920      870.088
01/28/2022  23:28:00      -47.688       -7.276       -2.485       24.906       30.651       15.505      620.301      939.472      240.394        0.207        0.090       48.240       11.722        0.059      331.275       -0.815      870.076
01/28/2022  23:29:00      -36.440       12.803       -6.853       26.414       12.982       13.262      697.675      168.537      175.880        0.129        0.052       38.623       11.162        0.084      331.197       -0.943      870.067
01/28/2022  23:30:00      -35.697       -5.525      -10.405       25.344       21.176       13.968      642.294      448.420      195.098        0.135        0.064       36.122       13.389        0.137      331.314       -0.752      870.063
01/28/2022  23:31:00      -25.705       -5.925       -5.838       18.043       17.646       18.045      325.564      311.396      325.606        0.085        0.048       26.379       11.848        0.202      331.323       -0.736      870.064
01/28/2022  23:32:00      -30.022      -11.685       -6.632       24.458       17.627       15.972      598.181      310.725      255.114        0.112        0.058       32.216        5.681        0.031      331.308       -0.762      870.070
01/28/2022  23:33:00      -34.441       -7.254       -8.649       32.876       18.855       17.177     1080.832      355.498      295.039        0.152        0.087       35.196       17.138        0.237      331.228       -0.891      870.074
01/28/2022  23:34:00      -30.778        3.485       -4.095       27.504       21.995       22.964      756.455      483.773      527.331        0.137        0.088       30.975       18.745        0.366      331.183       -0.965      870.081
01/28/2022  23:35:00      -66.572      -11.580       -0.335       33.685       29.437       23.986     1134.681      866.537      575.335        0.357        0.129       67.572       22.251        0.108      331.230       -0.887      870.072
01/28/2022  23:36:00      -88.109       -0.842       -3.669       28.614       24.642       21.057      818.789      607.239      443.388        0.482        0.093       88.113       12.418        0.020      331.196       -0.943      870.069
01/28/2022  23:37:00      -56.696        2.202        1.277       43.680       26.572       19.503     1907.907      706.046      380.385        0.311        0.150       56.738       12.705        0.050      331.160       -1.003      870.058
01/28/2022  23:38:00      -74.219       -5.878       -2.450       58.567       32.548       29.244     3430.140     1059.347      855.218        0.545        0.267       74.452       31.285        0.177      331.022       -1.230      870.048
01/28/2022  23:39:00     -148.309       -4.635       -7.157       51.798       28.118       22.124     2682.990      790.649      489.492        1.302        0.198      148.382       18.905        0.016      330.955       -1.343      870.037
01/28/2022  23:40:00     -120.436      -14.476       -8.471       52.558       31.915       31.810     2762.323     1018.584     1011.899        0.979        0.240      121.303       30.152        0.062      330.931       -1.381      870.033
01/28/2022  23:41:00     -144.852      -11.578       -1.997       50.924       42.711       33.136     2593.257     1824.229     1098.001        1.332        0.276      145.314       28.912        0.040      330.961       -1.331      870.037
01/28/2022  23:42:00     -128.098       -8.955       -6.045       57.707       36.449       32.580     3330.108     1328.555     1061.433        1.112        0.286      128.411       23.583        0.034      331.040       -1.200      870.046
01/28/2022  23:43:00     -165.448      -14.403      -13.906       47.408       30.393       22.325     2247.479      923.758      498.413        1.572        0.183      166.074       18.355        0.012      331.035       -1.210      870.054
01/28/2022  23:44:00      -36.091      -10.624       -1.029       31.844       24.489       18.841     1014.033      599.721      354.996        0.169        0.098       37.622       18.480        0.241      331.084       -1.129      870.061
01/28/2022  23:45:00      -67.841       -0.553       -8.938       42.205       42.036       22.428     1781.292     1767.029      503.024        0.437        0.203       67.844       18.729        0.076      331.098       -1.105      870.066
01/28/2022  23:46:00      -47.005        1.694      -11.251       34.649       28.836       24.058     1200.532      831.506      578.793        0.247        0.131       47.036       19.127        0.165      331.093       -1.115      870.063
01/28/2022  23:47:00      -54.441      -13.194        0.019       55.674       31.932       33.516     3099.574     1019.623     1123.317        0.419        0.262       56.017       35.968        0.412      330.986       -1.291      870.058
01/28/2022  23:48:00      -75.106      -16.246       -5.274       59.629       26.993       27.691     3555.561      728.619      766.781        0.549        0.253       76.843       26.490        0.119      331.098       -1.105      870.051
01/28/2022  23:49:00      -32.114       -9.722        4.466       54.230       36.536       34.036     2940.853     1334.868     1158.434        0.329        0.272       33.554       32.716        0.951      331.080       -1.136      870.047
01/28/2022  23:50:00      -89.607      -10.058       -4.172       53.802       35.851       31.642     2894.657     1285.311     1001.237        0.666        0.259       90.169       25.307        0.079      330.976       -1.306      870.041
01/28/2022  23:51:00     -106.117      -19.206       -4.803       55.109       42.278       32.345     3037.031     1787.431     1046.208        0.876        0.294      107.840       31.036        0.083      330.928       -1.387      870.030
01/28/2022  23:52:00      -59.521       -6.088       -4.002       60.830       36.431       31.042     3700.264     1327.187      963.624        0.479        0.300       59.832       32.727        0.299      330.964       -1.326      870.018
01/28/2022  23:53:00      -78.521      -21.750       -7.217       66.429       32.200       38.590     4412.799     1036.856     1489.187        0.681        0.347       81.478       41.896        0.264      330.876       -1.471      870.010
01/28/2022  23:54:00     -123.954      -11.216      -22.337       45.541       23.547       28.623     2073.970      554.446      819.268        0.972        0.172      124.460       27.030        0.047      330.976       -1.308      870.001
01/28/2022  23:55:00      -39.592       10.185       -4.851       38.805       29.325       22.306     1505.837      859.938      497.562        0.228        0.143       40.881       15.931        0.152      330.940       -1.366      869.988
01/28/2022  23:56:00      -89.688       31.554       -7.775       58.326       35.972       20.788     3401.958     1293.999      432.126        0.711        0.256       95.077       16.163        0.029      330.927       -1.387      869.980
01/28/2022  23:57:00     -129.864       23.625       -5.497       48.563       35.333       27.442     2358.391     1248.440      753.038        1.091        0.218      131.996       25.627        0.038      330.992       -1.280      869.979
01/28/2022  23:58:00      -73.014        3.165       -3.220       65.737       38.231       19.207     4321.290     1461.594      368.902        0.575        0.308       73.083       20.937        0.082      330.942       -1.362      869.977
01/28/2022  23:59:00      -48.193      -14.653       -6.125       46.912       37.817       30.087     2200.746     1430.117      905.235        0.355        0.227       50.372       24.998        0.246      330.945       -1.357      869.982
01/29/2022  00:00:00     -102.316       -8.380       -8.579       39.816       32.684       29.676     1585.342     1068.245      880.647        0.707        0.177      102.659       20.303        0.039      331.040       -1.201      869.984
01/29/2022  00:01:00      -57.910       11.873        4.883       65.353       30.310       23.408     4271.032      918.696      547.954        0.463        0.287       59.115       26.292        0.198      331.036       -1.206      869.986
01/29/2022  00:02:00      -86.032       24.136      -10.106       51.942       31.864       18.674     2698.010     1015.313      348.701        0.607        0.203       89.353       19.514        0.048      331.030       -1.216      869.991
01/29/2022  00:03:00      -72.383       21.065       -5.637       33.263       27.157       19.726     1106.403      737.487      389.101        0.397        0.112       75.386       15.818        0.044      330.899       -1.432      869.990
01/29/2022  00:04:00      -66.324       11.209       -7.213       39.205       27.949       17.789     1537.055      781.172      316.451        0.361        0.132       67.264       16.678        0.061      330.915       -1.406      869.995
01/29/2022  00:05:00      -66.000       29.420       -6.391       27.952       28.928       15.465      781.293      836.845      239.171        0.356        0.093       72.260       11.032        0.023      330.970       -1.317      869.990
01/29/2022  00:06:00      -77.900       49.849      -12.599       20.076       22.208       19.882      403.029      493.195      395.305        0.500        0.065       92.484        9.927        0.012      330.898       -1.435      869.988
01/29/2022  00:07:00      -71.241       25.113       -9.429       26.590       20.856       13.407      707.047      434.966      179.757        0.356        0.066       75.538       11.220        0.022      330.846       -1.521      869.973
01/29/2022  00:08:00      -54.681       19.608       -3.780       15.302       17.588       11.669      234.138      309.349      136.169        0.203        0.034       58.090        7.400        0.016      330.802       -1.592      869.961
01/29/2022  00:09:00      -67.437       31.802       -8.941       17.669       16.235       10.791      312.191      263.569      116.435        0.317        0.035       74.559        4.332        0.003      330.830       -1.547      869.946
01/29/2022  00:10:00      -30.111        9.353       -4.358       34.665       28.862       17.610     1201.631      833.013      310.095        0.168        0.117       31.530       19.896        0.398      330.895       -1.441      869.930
01/29/2022  00:11:00      -43.978        6.697       -7.756       30.284       20.969       14.497      917.142      439.705      210.158        0.180        0.078       44.485       11.811        0.070      330.876       -1.470      869.920
01/29/2022  00:12:00      -20.356       -1.571      -15.129       22.135       22.497       15.361      489.950      506.137      235.948        0.094        0.062       20.417       13.520        0.439      330.845       -1.520      869.914
01/29/2022  00:13:00      -22.236       38.165       -5.690       23.446       14.002       11.470      549.736      196.060      131.560        0.143        0.044       44.170        7.282        0.027      330.764       -1.654      869.909
01/29/2022  00:14:00      -64.312       22.727      -11.659       13.459       30.544       11.574      181.157      932.959      133.951        0.302        0.062       68.210        8.332        0.015      330.779       -1.629      869.899
01/29/2022  00:15:00      -26.213      -11.705       -3.955       23.840       21.444       13.996      568.357      459.853      195.893        0.103        0.061       28.708       13.170        0.210      330.837       -1.535      869.892
01/29/2022  00:16:00      -17.069      -18.456       -9.385       15.801       17.407       11.260      249.684      303.006      126.793        0.070        0.034       25.139        7.379        0.086      330.889       -1.449      869.900
01/29/2022  00:17:00      -18.182      -23.611      -15.057       11.830       23.791       15.474      139.942      566.022      239.456        0.103        0.047       29.801       15.479        0.270      330.820       -1.562      869.899
01/29/2022  00:18:00      -14.709        8.897        1.686       10.890       12.386        9.850      118.594      153.405       97.024        0.033        0.018       17.190        6.501        0.143      330.850       -1.513      869.903
01/29/2022  00:19:00      -21.035      -14.076       -6.147       17.919       19.529       13.008      321.098      381.373      169.208        0.077        0.044       25.310       12.768        0.255      330.846       -1.520      869.905
01/29/2022  00:20:00       -6.656       -0.053       -6.065       18.890       14.394       12.034      356.836      207.186      144.806        0.039        0.035        6.657        9.370        1.981      330.798       -1.597      869.900
01/29/2022  00:21:00       -0.798        2.937       -5.498       11.439       10.527       11.584      130.847      110.809      134.189        0.021        0.019        3.044        6.597        4.699      330.721       -1.723      869.900
01/29/2022  00:22:00      -41.853       -6.368       -2.462       31.103       23.206       22.509      967.407      538.503      506.646        0.191        0.101       42.335       13.323        0.099      330.675       -1.799      869.904
01/29/2022  00:23:00      -72.565      -11.598       -2.078       34.749       23.318       19.170     1207.491      543.737      367.478        0.376        0.106       73.486       19.233        0.068      330.717       -1.730      869.912
01/29/2022  00:24:00      -37.598       -7.560       -1.190       31.808       25.148       16.658     1011.724      632.423      277.496        0.170        0.096       38.351        9.046        0.056      330.794       -1.603      869.924
01/29/2022  00:25:00      -42.546        1.085       -0.392       24.624       14.031       13.222      606.346      196.860      174.814        0.139        0.049       42.560       12.530        0.087      330.852       -1.509      869.925
01/29/2022  00:26:00      -25.446      -12.710       -3.641       35.512       25.463       15.428     1261.080      648.358      238.030        0.148        0.107       28.443       16.474        0.335      330.826       -1.551      869.924
01/29/2022  00:27:00      -56.727        1.813       -1.428       40.827       21.698       17.219     1666.832      470.785      296.480        0.283        0.122       56.756       22.497        0.157      330.756       -1.667      869.922
01/29/2022  00:28:00      -61.973      -20.308      -12.076       34.987       25.925       25.695     1224.116      672.086      660.251        0.348        0.128       65.215       22.927        0.124      330.714       -1.737      869.914
01/29/2022  00:29:00       -3.823       -4.062       -7.310       23.634       11.612       17.280      558.571      134.838      298.585        0.054        0.050        5.578       15.510        7.731      330.723       -1.720      869.912
01/29/2022  00:30:00       -7.301       14.246        3.159       13.605       17.763       11.023      185.096      315.542      121.509        0.044        0.031       16.008        9.420        0.346      330.655       -1.832      869.903
01/29/2022  00:31:00      -44.398        5.448      -14.258       16.975       17.017       10.275      288.146      289.595      105.571        0.144        0.034       44.731        8.607        0.037      330.773       -1.639      869.892
01/29/2022  00:32:00      -53.867        9.514      -11.316       24.430       18.582       14.943      596.829      345.303      223.292        0.214        0.058       54.701       10.726        0.038      330.703       -1.754      869.877
01/29/2022  00:33:00      -48.213       10.800       -8.127       19.349       15.090       17.356      374.396      227.697      301.248        0.171        0.045       49.408        9.798        0.039      330.708       -1.746      869.876
01/29/2022  00:34:00      -73.115       32.702      -10.103       12.892       13.355       13.677      166.208      178.360      187.058        0.352        0.027       80.095        7.215        0.008      330.574       -1.967      869.871
01/29/2022  00:35:00      -56.900       13.272      -13.138       35.612       20.378       13.243     1268.193      415.264      175.369        0.272        0.093       58.428       16.177        0.077      330.589       -1.941      869.880
01/29/2022  00:36:00      -21.764       11.285        0.901       26.067       13.872       12.937      679.506      192.437      167.367        0.082        0.052       24.516       14.736        0.361      330.541       -2.020      869.888
01/29/2022  00:37:00      -57.445       29.089       -7.892       12.848       11.588        7.511      165.071      134.291       56.416        0.228        0.018       64.391        5.399        0.007      330.571       -1.971      869.895
01/29/2022  00:38:00      -63.589       27.036       -6.174       14.034       10.575        8.934      196.957      111.835       79.824        0.260        0.019       69.098        4.694        0.005      330.628       -1.877      869.897
01/29/2022  00:39:00      -37.464       11.027       -5.859       16.836       13.867       11.900      283.468      192.297      141.621        0.109        0.031       39.053        9.175        0.055      330.644       -1.852      869.894
01/29/2022  00:40:00      -13.894      -10.246       -9.240       20.047       13.776       11.793      401.890      189.786      139.080        0.056        0.037       17.263        6.119        0.126      330.665       -1.816      869.891
01/29/2022  00:41:00       -6.844      -21.132      -10.593       12.682        8.268        9.839      160.838       68.360       96.814        0.047        0.016       22.212        8.596        0.150      330.703       -1.754      869.882
01/29/2022  00:42:00       -9.197      -14.301      -11.538        7.728       10.395        8.292       59.725      108.049       68.763        0.033        0.012       17.003        3.685        0.047      330.685       -1.782      869.883
01/29/2022  00:43:00       -1.065        4.809       -7.864        2.436        5.426        5.154        5.932       29.436       26.563        0.007        0.003        4.926        2.801        0.323      330.597       -1.928      869.887
01/29/2022  00:44:00      -17.750       -9.120       -7.032       10.956       12.403        5.556      120.043      153.841       30.869        0.038        0.015       19.956        4.823        0.058      330.752       -1.674      869.887
01/29/2022  00:45:00        7.453      -26.940      -11.982       17.424       10.987       10.567      303.603      120.706      111.668        0.073        0.027       27.952        6.265        0.050      330.904       -1.424      869.877
01/29/2022  00:46:00       22.500       -9.258       -7.526       12.580       14.071        6.752      158.245      198.006       45.585        0.053        0.020       24.330        4.812        0.039      330.859       -1.498      869.869
01/29/2022  00:47:00        8.061       -6.097       -2.011       16.879       11.267       12.917      284.909      126.939      166.846        0.034        0.029       10.107       10.505        1.080      330.748       -1.679      869.870
01/29/2022  00:48:00        7.362       -1.891       -4.646       12.275       15.241       10.125      150.668      232.291      102.513        0.028        0.024        7.601        7.956        1.096      330.744       -1.688      869.871
01/29/2022  00:49:00        7.799      -13.182       -7.406        7.825       10.214        7.105       61.231      104.323       50.481        0.025        0.011       15.316        4.464        0.085      330.736       -1.699      869.873
01/29/2022  00:50:00        6.055       -2.496       -5.119        4.747        5.737        5.514       22.535       32.909       30.407        0.008        0.004        6.549        2.214        0.114      330.631       -1.874      869.869
01/29/2022  00:51:00        9.667        4.043       -5.014        6.503        4.136        5.004       42.291       17.107       25.043        0.011        0.004       10.478        1.995        0.036      330.601       -1.923      869.872
01/29/2022  00:52:00       23.615        4.551      -11.266       11.316        8.998        8.934      128.048       80.966       79.808        0.050        0.014       24.049        5.850        0.059      330.561       -1.989      869.883
01/29/2022  00:53:00       17.994       -4.587       -6.110       14.060       15.601       11.137      197.673      243.380      124.034        0.047        0.028       18.570        8.555        0.212      330.535       -2.030      869.893
01/29/2022  00:54:00      -10.001        4.127       -2.072       11.360       15.036        8.489      129.052      226.071       72.063        0.027        0.021       10.819        5.770        0.284      330.421       -2.217      869.903
01/29/2022  00:55:00        6.321      -10.435       -5.843       19.335       12.376        7.092      373.861      153.177       50.297        0.038        0.029       12.200        6.831        0.313      330.468       -2.141      869.905
01/29/2022  00:56:00      -11.963      -24.390       -3.364        7.672       11.770       10.687       58.857      138.522      114.219        0.053        0.016       27.166        7.277        0.072      330.548       -2.009      869.900
01/29/2022  00:57:00      -13.047        3.330       -3.441        9.411       18.998       12.262       88.563      360.936      150.356        0.040        0.030       13.465       10.414        0.598      330.488       -2.108      869.887
01/29/2022  00:58:00      -20.971       18.169       -3.002       12.540       12.847        9.555      157.262      165.051       91.296        0.060        0.021       27.748        9.242        0.111      330.419       -2.220      869.883
01/29/2022  00:59:00      -53.353       25.568      -11.981       13.539       11.780        9.931      183.301      138.774       98.633        0.203        0.021       59.163        6.167        0.011      330.433       -2.197      869.871
01/29/2022  01:00:00      -44.746       18.731      -12.591       13.048       11.919        9.351      170.251      142.055       87.450        0.146        0.020       48.508        5.811        0.014      330.392       -2.265      869.873
01/29/2022  01:01:00      -26.066       18.189       -9.114       11.561        7.844        6.554      133.652       61.528       42.957        0.067        0.012       31.785        5.066        0.025      330.429       -2.207      869.876
01/29/2022  01:02:00      -14.259       17.829        1.365       12.619        8.093        7.327      159.252       65.499       53.682        0.040        0.014       22.830        3.893        0.029      330.426       -2.210      869.877
01/29/2022  01:03:00       -7.881      -23.371      -11.900       13.854       10.074       10.129      191.923      101.488      102.599        0.057        0.020       24.664        6.034        0.060      330.577       -1.962      869.876
01/29/2022  01:04:00       -4.527       -3.512       -1.838       12.863       11.036        9.439      165.465      121.795       89.088        0.021        0.019        5.729        7.767        1.838      330.492       -2.101      869.869
01/29/2022  01:05:00       -6.395        7.084        0.441       20.522       12.525       12.375      421.158      156.885      153.152        0.041        0.037        9.543       12.258        1.650      330.361       -2.315      869.865
01/29/2022  01:06:00      -16.601       15.362       -6.479        9.501        7.858        9.377       90.267       61.754       87.928        0.040        0.012       22.618        4.682        0.043      330.381       -2.283      869.868
01/29/2022  01:07:00      -11.550       10.121       -6.504       11.091        5.248        4.892      123.008       27.539       23.933        0.023        0.009       15.357        4.280        0.078      330.454       -2.164      869.870
01/29/2022  01:08:00      -21.878       21.309       -8.869        6.359        6.549        6.843       40.437       42.888       46.826        0.057        0.007       30.540        3.416        0.013      330.607       -1.911      869.876
01/29/2022  01:09:00      -29.371        7.473      -12.034       22.306       11.556        7.969      497.544      133.539       63.498        0.088        0.035       30.307        7.203        0.056      330.592       -1.935      869.878
01/29/2022  01:10:00      -22.855       -0.571       -4.391       24.437       18.325       11.432      597.167      335.801      130.687        0.080        0.053       22.863        5.555        0.059      330.574       -1.966      869.879
01/29/2022  01:11:00      -81.400       20.917       -9.034       23.327       18.897       12.830      544.158      357.102      164.619        0.411        0.053       84.045       11.007        0.017      330.431       -2.201      869.880
01/29/2022  01:12:00      -97.608       29.451      -13.122       21.121       17.088       15.442      446.114      291.994      238.447        0.577        0.049      101.955       11.827        0.013      330.276       -2.454      869.887
01/29/2022  01:13:00      -61.939       21.971       -8.891       32.919       22.308       18.820     1083.661      497.658      354.195        0.317        0.097       65.720       17.587        0.072      330.286       -2.438      869.895
01/29/2022  01:14:00      -58.836       19.280       -9.321       32.593       18.522       13.515     1062.318      343.049      182.655        0.275        0.079       61.914        9.664        0.024      330.244       -2.508      869.909
01/29/2022  01:15:00      -47.967       17.398       -7.900       24.524       11.583       13.315      601.437      134.177      177.280        0.179        0.046       51.025        9.936        0.038      330.234       -2.523      869.916
01/29/2022  01:16:00      -77.208       20.344      -10.493       17.112       16.867       13.410      292.831      284.512      179.835        0.362        0.038       79.843        9.231        0.013      330.351       -2.331      869.913
01/29/2022  01:17:00      -37.629        1.328       -3.373       35.480       22.202       18.495     1258.817      492.924      342.055        0.176        0.105       37.652       20.291        0.290      330.339       -2.350      869.910
01/29/2022  01:18:00       -1.870       -2.542       -1.964        9.002        7.506        6.540       81.030       56.338       42.766        0.010        0.009        3.155        4.615        2.140      330.402       -2.248      869.911
01/29/2022  01:19:00        7.639       -7.703       -8.538        9.792        9.492        7.344       95.884       90.099       53.941        0.022        0.012       10.849        4.483        0.171      330.439       -2.186      869.914
01/29/2022  01:20:00      -10.850        6.730       -4.900        6.989        8.748        9.294       48.853       76.533       86.384        0.020        0.011       12.768        2.785        0.048      330.456       -2.159      869.917
01/29/2022  01:21:00      -14.397       -5.431        0.645       10.051        9.617        9.294      101.030       92.490       86.381        0.026        0.014       15.387        6.441        0.175      330.461       -2.152      869.915
01/29/2022  01:22:00      -11.474       -4.493       -8.708       10.703        8.826        8.229      114.554       77.894       67.715        0.024        0.013       12.322        1.798        0.021      330.484       -2.114      869.919
01/29/2022  01:23:00      -12.946        5.508       -3.538       10.612        7.883       10.463      112.606       62.137      109.483        0.025        0.014       14.069        6.522        0.215      330.410       -2.235      869.922
01/29/2022  01:24:00       -9.333       -5.551       -4.380       11.998       15.690       11.576      143.961      246.191      134.008        0.033        0.026       10.859        7.946        0.535      330.429       -2.203      869.916
01/29/2022  01:25:00      -38.524        8.577       -5.721       19.582       11.209       11.710      383.450      125.640      137.125        0.112        0.032       39.467        7.290        0.034      330.278       -2.452      869.911
01/29/2022  01:26:00      -16.722       -0.643       -7.789        9.963       11.444        8.064       99.268      130.968       65.021        0.032        0.015       16.734        7.430        0.197      330.407       -2.240      869.905
01/29/2022  01:27:00      -10.361       -9.013       -7.697       18.306       20.665        9.085      335.106      427.036       82.532        0.055        0.042       13.732        4.390        0.102      330.407       -2.239      869.907
01/29/2022  01:28:00       -2.763       -5.217       -9.578       11.172       18.624        8.584      124.813      346.867       73.677        0.034        0.027        5.903        8.228        1.943      330.384       -2.277      869.907
01/29/2022  01:29:00       -4.329       -1.760        2.837       17.990       15.900        9.611      323.649      252.804       92.364        0.035        0.033        4.673        4.969        1.131      330.373       -2.295      869.910
01/29/2022  01:30:00      -34.531        0.269      -12.223       46.593       27.341       13.327     2170.901      747.518      177.617        0.222        0.155       34.532       14.540        0.177      330.323       -2.379      869.908
01/29/2022  01:31:00      -84.644       24.914       -4.274       24.398       25.705       17.046      595.241      660.738      290.565        0.467        0.077       88.234       10.613        0.014      330.210       -2.564      869.902
01/29/2022  01:32:00      -80.246       14.024       -7.581       29.013       27.898       15.368      841.763      778.284      236.188        0.427        0.093       81.462       12.610        0.024      330.184       -2.607      869.892
01/29/2022  01:33:00      -89.031       24.115        0.212       35.921       27.956       21.431     1290.332      781.527      459.288        0.552        0.127       92.239       19.473        0.045      330.145       -2.671      869.886
01/29/2022  01:34:00      -77.057       -2.344       -3.642       54.403       33.359       19.482     2959.670     1112.790      379.531        0.520        0.223       77.093       21.879        0.081      330.313       -2.393      869.881
01/29/2022  01:35:00      -78.353       19.356       -6.591       42.536       21.105       19.020     1809.331      445.405      361.778        0.459        0.131       80.708       20.244        0.063      330.254       -2.492      869.878
01/29/2022  01:36:00     -111.116       25.484      -13.132       22.626       20.765       15.663      511.928      431.181      245.329        0.718        0.059      114.001       11.518        0.010      330.172       -2.624      869.883
01/29/2022  01:37:00      -88.915       25.984      -12.396       27.957       26.017       18.752      781.602      676.880      351.619        0.527        0.091       92.634       11.978        0.017      330.162       -2.642      869.877
01/29/2022  01:38:00      -82.195       14.836      -10.547       41.456       28.361       20.022     1718.620      804.319      400.881        0.501        0.146       83.523       21.077        0.064      330.096       -2.750      869.874
01/29/2022  01:39:00     -103.355       17.331      -13.228       39.511       28.952       17.897     1561.149      838.218      320.298        0.694        0.136      104.798       18.931        0.033      330.109       -2.730      869.871
01/29/2022  01:40:00     -113.974       22.968      -13.625       45.887       22.068       18.981     2105.577      486.983      360.290        0.833        0.148      116.266       22.388        0.037      330.118       -2.714      869.862
01/29/2022  01:41:00      -89.734        9.257       -7.452       35.746       25.666       22.614     1277.782      658.722      511.380        0.532        0.122       90.210       19.758        0.048      330.121       -2.709      869.866
01/29/2022  01:42:00      -85.743       15.048      -11.240       46.323       29.700       17.419     2145.858      882.074      303.421        0.552        0.167       87.053       16.035        0.034      330.107       -2.732      869.869
01/29/2022  01:43:00      -83.938       21.607      -15.650       33.412       17.021       16.735     1116.383      289.719      280.067        0.472        0.084       86.674        7.375        0.007      330.074       -2.786      869.874
01/29/2022  01:44:00      -89.240       22.520       -9.150       31.084       26.091       22.827      966.211      680.754      521.080        0.536        0.108       92.038       18.974        0.042      330.113       -2.723      869.885
01/29/2022  01:45:00      -72.771        3.649       -5.303       43.769       31.855       20.966     1915.742     1014.770      439.593        0.435        0.169       72.862       17.475        0.058      330.169       -2.630      869.897
01/29/2022  01:46:00      -86.952       11.163      -10.431       38.270       23.476       17.848     1464.574      551.125      318.557        0.506        0.117       87.666       11.999        0.019      330.195       -2.588      869.909
01/29/2022  01:47:00      -64.404       14.081      -11.059       53.112       30.719       23.572     2820.839      943.636      555.636        0.439        0.216       65.926       23.765        0.130      330.055       -2.818      869.918
01/29/2022  01:48:00      -37.470       -4.281       -8.974       45.255       30.376       24.430     2048.019      922.704      596.846        0.253        0.178       37.714       18.337        0.236      330.063       -2.805      869.934
01/29/2022  01:49:00     -112.474       36.795       -6.329       28.857       42.176       20.980      832.750     1778.818      440.165        0.855        0.153      118.340        9.623        0.007      329.883       -3.097      869.941
01/29/2022  01:50:00     -101.202       49.958       -6.601       40.590       31.614       22.240     1647.569      999.468      494.618        0.796        0.157      112.861       16.491        0.021      329.780       -3.267      869.951
01/29/2022  01:51:00      -94.138       25.346       -9.390       45.556       30.255       21.712     2075.361      915.393      471.404        0.653        0.173       97.490       17.253        0.031      329.850       -3.153      869.955
01/29/2022  01:52:00      -59.803       13.952        0.866       42.308       30.067       19.821     1789.951      904.044      392.871        0.343        0.154       61.409       10.007        0.027      329.923       -3.033      869.950
01/29/2022  01:53:00     -107.135       17.804       -3.078       37.700       26.224       21.802     1421.296      687.721      475.345        0.719        0.129      108.604       20.990        0.037      329.885       -3.096      869.954
01/29/2022  01:54:00     -102.539       20.894       -6.619       54.049       23.222       21.381     2921.302      539.251      457.145        0.746        0.196      104.646       24.434        0.055      329.983       -2.935      869.949
01/29/2022  01:55:00      -71.912       21.664        2.559       37.635       29.837       21.584     1416.363      890.236      465.872        0.421        0.139       75.104       22.976        0.094      330.001       -2.905      869.954
01/29/2022  01:56:00      -67.897        0.063       -5.502       52.735       27.392       25.735     2781.016      750.317      662.282        0.442        0.210       67.897       19.711        0.084      330.103       -2.738      869.959
01/29/2022  01:57:00      -56.232        2.621       -7.255       38.013       29.149       21.670     1445.005      849.658      469.590        0.299        0.138       56.293       16.140        0.082      330.136       -2.683      869.966
01/29/2022  01:58:00      -45.048      -12.147       -0.445       48.018       28.158       20.528     2305.726      792.879      421.416        0.285        0.176       46.657       25.734        0.304      330.040       -2.843      869.965
01/29/2022  01:59:00      -50.287        6.266       -3.503       42.173       25.030       18.714     1778.568      626.503      350.202        0.267        0.138       50.676       20.175        0.158      329.977       -2.943      869.959
01/29/2022  02:00:00      -72.512        6.699       -1.567       39.170       24.436       22.178     1534.319      597.107      491.879        0.396        0.131       72.821       16.952        0.054      330.045       -2.833      869.944
01/29/2022  02:01:00      -64.850       11.126        2.836       55.325       25.072       25.727     3060.807      628.595      661.877        0.434        0.218       65.798       26.878        0.167      330.042       -2.839      869.940
01/29/2022  02:02:00      -51.274        7.037       -0.702       43.660       27.646       22.291     1906.167      764.318      496.881        0.292        0.158       51.754       18.577        0.129      330.062       -2.806      869.930
01/29/2022  02:03:00      -66.931       -0.286       -0.464       38.707       26.619       20.075     1498.195      708.575      403.021        0.354        0.130       66.931       16.219        0.059      330.052       -2.821      869.916
01/29/2022  02:04:00      -66.972        3.479        6.492       43.296       29.856       19.303     1874.558      891.397      372.601        0.384        0.157       67.062       20.547        0.094      330.064       -2.803      869.904
01/29/2022  02:05:00      -87.702        5.833        1.192       51.792       29.325       20.879     2682.453      859.977      435.941        0.585        0.199       87.896       22.004        0.063      330.086       -2.767      869.894
01/29/2022  02:06:00      -23.506       -0.010        3.552       36.343       27.454       20.065     1320.818      753.750      402.585        0.152        0.124       23.506       18.083        0.592      330.099       -2.745      869.880
01/29/2022  02:07:00      -52.923       -1.061       -1.359       42.761       32.070       21.331     1828.522     1028.458      455.031        0.306        0.166       52.934       19.760        0.139      330.069       -2.795      869.879
01/29/2022  02:08:00      -57.248        5.702       -0.195       57.042       29.628       25.677     3253.800      877.809      659.323        0.405        0.240       57.531       30.917        0.289      330.079       -2.777      869.883
01/29/2022  02:09:00      -13.253      -17.699       -3.718       34.081       26.429       24.070     1161.499      698.473      579.386        0.147        0.122       22.111       15.542        0.494      330.118       -2.715      869.887
01/29/2022  02:10:00      -56.142       -1.613      -14.784       62.004       34.819       26.150     3844.451     1212.338      683.846        0.456        0.287       56.165       20.994        0.140      330.087       -2.765      869.892
01/29/2022  02:11:00      -34.997       -7.634        5.028       55.651       26.710       27.184     3096.985      713.415      738.967        0.293        0.227       35.820       26.605        0.552      330.012       -2.887      869.891
01/29/2022  02:12:00      -32.438        9.089       -7.843       42.157       36.115       25.981     1777.223     1304.329      674.998        0.248        0.188       33.687       18.854        0.313      329.940       -3.004      869.892
01/29/2022  02:13:00      -40.892        4.492      -13.133       33.489       31.883       25.459     1121.482     1016.521      648.183        0.233        0.139       41.138       16.835        0.167      329.880       -3.103      869.883
01/29/2022  02:14:00      -55.703       19.291       -4.007       42.458       27.916       20.212     1802.687      779.300      408.522        0.324        0.150       58.949       22.156        0.141      329.799       -3.235      869.885
01/29/2022  02:15:00      -92.208       25.546      -12.370       39.858       33.228       20.656     1588.692     1104.098      426.652        0.621        0.156       95.681        9.961        0.011      329.732       -3.346      869.885
01/29/2022  02:16:00      -51.658       -1.487      -13.927       44.912       39.556       22.938     2017.102     1564.666      526.157        0.349        0.205       51.680       20.496        0.157      329.692       -3.413      869.881
01/29/2022  02:17:00      -37.789        5.594        2.715       47.041       32.430       17.021     2212.834     1051.693      289.726        0.251        0.178       38.201       14.720        0.148      329.683       -3.426      869.876
01/29/2022  02:18:00      -37.035        2.578       -7.535       49.811       26.705       20.538     2481.130      713.178      421.790        0.252        0.181       37.124       23.256        0.392      329.661       -3.462      869.876
01/29/2022  02:19:00      -99.402       19.318       -6.898       45.224       25.635       19.159     2045.196      657.148      367.071        0.668        0.153      101.262       17.601        0.030      329.699       -3.400      869.875
01/29/2022  02:20:00      -65.738        6.110       -2.927       46.110       20.912       22.529     2126.114      437.331      507.551        0.372        0.154       66.021       18.799        0.081      329.670       -3.446      869.866
01/29/2022  02:21:00      -60.130        7.051       -3.442       52.634       26.541       21.564     2770.298      704.448      465.027        0.381        0.197       60.542       26.238        0.188      329.609       -3.548      869.861
01/29/2022  02:22:00      -12.981       15.364        2.012       52.326       31.359       25.431     2737.993      983.374      646.742        0.239        0.218       20.113       23.874        1.409      329.628       -3.514      869.856
01/29/2022  02:23:00     -102.798       13.866       -3.244       47.096       36.805       25.182     2218.026     1354.641      634.118        0.749        0.210      103.729       24.004        0.054      329.701       -3.398      869.859
01/29/2022  02:24:00      -85.130        3.742       -9.676       49.347       37.307       25.908     2435.108     1391.846      671.205        0.593        0.225       85.212       20.383        0.057      329.700       -3.397      869.860
01/29/2022  02:25:00      -88.171       15.153       -4.460       34.710       25.563       24.951     1204.807      653.448      622.569        0.525        0.124       89.464       19.197        0.046      329.688       -3.418      869.858
01/29/2022  02:26:00      -96.638       15.064        2.930       44.382       25.756       24.027     1969.801      663.386      577.307        0.639        0.161       97.805       24.674        0.064      329.799       -3.235      869.854
01/29/2022  02:27:00      -30.347       -0.067       -3.246       32.350       21.415       16.367     1046.499      458.599      267.878        0.135        0.089       30.347       10.331        0.116      329.747       -3.321      869.854
01/29/2022  02:28:00      -63.887        3.948        0.333       43.321       26.264       21.228     1876.700      689.778      450.611        0.356        0.151       64.008       22.093        0.119      329.809       -3.221      869.842
01/29/2022  02:29:00      -21.248       -4.645        5.120       38.280       23.741       16.614     1465.345      563.634      276.011        0.140        0.115       21.749       10.808        0.247      329.885       -3.095      869.832
01/29/2022  02:30:00      -23.172        1.258       -0.148       31.307       24.762       18.855      980.148      613.176      355.527        0.124        0.097       23.206       18.076        0.607      329.882       -3.100      869.830
01/29/2022  02:31:00      -26.552      -12.894       -1.916       32.079       18.187       18.805     1029.078      330.778      353.636        0.129        0.086       29.517       17.499        0.351      329.777       -3.272      869.821
01/29/2022  02:32:00      -21.737       -7.035        1.935       30.115       18.488       18.370      906.941      341.824      337.453        0.106        0.079       22.847       17.534        0.589      329.759       -3.301      869.815
01/29/2022  02:33:00      -81.339       20.413      -14.864       20.854       15.093       18.122      434.879      227.785      328.410        0.412        0.050       83.861        7.674        0.008      329.748       -3.320      869.804
01/29/2022  02:34:00      -84.560       -1.690       -9.783       29.104       21.330       18.941      847.039      454.979      358.766        0.445        0.083       84.577       13.907        0.027      329.767       -3.289      869.789
01/29/2022  02:35:00      -69.912       10.707       -4.772       44.790       28.543       17.769     2006.112      814.712      315.733        0.408        0.157       70.727       18.774        0.070      329.800       -3.235      869.771
01/29/2022  02:36:00      -85.858       31.679       -8.679       31.261       22.293       17.231      977.227      496.981      296.899        0.511        0.089       91.516       13.290        0.021      329.639       -3.498      869.755
01/29/2022  02:37:00      -92.770       40.290      -18.974       22.394       26.017       20.181      501.511      676.877      407.274        0.609        0.079      101.141       12.221        0.015      329.573       -3.606      869.746
01/29/2022  02:38:00      -93.347       30.242       -9.808       26.482       24.647       18.332      701.323      607.455      336.046        0.568        0.082       98.124       15.558        0.025      329.579       -3.596      869.740
01/29/2022  02:39:00      -81.976       18.591       -1.614       34.324       24.775       22.772     1178.109      613.816      518.572        0.469        0.116       84.057       20.532        0.060      329.576       -3.601      869.734
01/29/2022  02:40:00      -78.796       10.334       -9.125       36.051       27.391       22.555     1299.658      750.281      508.723        0.448        0.128       79.471       17.453        0.048      329.641       -3.495      869.735
01/29/2022  02:41:00     -121.241       23.463       -8.289       16.981       20.178       13.533      288.338      407.159      183.130        0.810        0.044      123.491        9.567        0.006      329.637       -3.502      869.735
01/29/2022  02:42:00      -58.965        8.810       -0.915       34.638       23.875       23.843     1199.818      570.018      568.493        0.295        0.117       59.619       21.249        0.127      329.707       -3.387      869.740
01/29/2022  02:43:00      -22.184       -0.265       -2.077       30.254       19.162       20.511      915.287      367.169      420.721        0.110        0.085       22.186       15.291        0.475      329.715       -3.373      869.743
01/29/2022  02:44:00      -47.771        0.577      -11.647       49.027       43.802       29.292     2403.615     1918.630      858.019        0.380        0.259       47.775       26.442        0.306      329.673       -3.442      869.755
01/29/2022  02:45:00      -87.045        9.148      -10.551       36.912       31.449       19.815     1362.522      989.032      392.653        0.526        0.137       87.524       16.308        0.035      329.626       -3.518      869.753
01/29/2022  02:46:00      -77.220       11.817       -8.271       47.191       22.700       20.922     2227.000      515.295      437.729        0.467        0.159       78.119       17.810        0.052      329.633       -3.507      869.741
01/29/2022  02:47:00      -84.704       12.174       -9.010       34.050       18.276       16.228     1159.434      333.997      263.346        0.458        0.088       85.575       12.325        0.021      329.608       -3.549      869.719
01/29/2022  02:48:00      -92.503       43.289       -8.638       33.908       24.824       19.952     1149.732      616.250      398.064        0.633        0.108      102.131       17.500        0.029      329.475       -3.767      869.704
01/29/2022  02:49:00      -79.513        3.317      -10.383       38.981       25.861       19.493     1519.523      668.774      379.960        0.450        0.128       79.582       16.201        0.041      329.544       -3.655      869.688
01/29/2022  02:50:00      -66.662       26.798       -2.158       27.305       29.670       22.776      745.544      880.323      518.743        0.366        0.107       71.846       17.134        0.057      329.418       -3.860      869.676
01/29/2022  02:51:00      -84.060       16.910       -9.997       30.457       29.430       19.441      927.627      866.110      377.950        0.481        0.109       85.744        8.869        0.011      329.513       -3.704      869.660
01/29/2022  02:52:00     -107.700       55.708      -15.796       21.587       24.642       20.757      466.003      607.250      430.858        0.823        0.075      121.255       11.948        0.010      329.378       -3.924      869.649
01/29/2022  02:53:00      -98.534       50.534       -8.683       29.888       24.487       15.462      893.279      599.622      239.084        0.703        0.087      110.737       10.479        0.009      329.374       -3.931      869.645
01/29/2022  02:54:00      -99.985       33.803       -4.619       38.208       22.724       15.564     1459.863      516.377      242.232        0.669        0.111      105.545       19.035        0.033      329.404       -3.882      869.636
01/29/2022  02:55:00     -112.967       24.971      -15.803       27.308       25.105       21.515      745.713      630.256      462.900        0.774        0.092      115.694       14.052        0.015      329.392       -3.902      869.634
01/29/2022  02:56:00      -58.184      -46.356      -31.770       37.545       32.481       20.417     1409.643     1055.007      416.864        0.471        0.144       74.392       17.636        0.056      329.443       -3.819      869.633
01/29/2022  02:57:00      -64.988       -9.952      -19.865       48.839       29.718       21.192     2385.229      883.149      449.120        0.422        0.186       65.745       19.304        0.086      329.392       -3.903      869.644
01/29/2022  02:58:00      -23.632       -8.606       -7.874       40.484       28.620       24.779     1638.938      819.116      613.998        0.188        0.154       25.150       13.681        0.296      329.423       -3.853      869.656
01/29/2022  02:59:00      -70.738        4.958       -5.646       63.221       33.057       26.095     3996.868     1092.751      680.969        0.541        0.289       70.911       20.476        0.083      329.443       -3.820      869.669
01/29/2022  03:00:00     -128.584       45.193       -4.415       41.067       26.792       22.158     1686.501      717.808      490.985        1.075        0.145      136.295       20.712        0.023      329.410       -3.872      869.685
01/29/2022  03:01:00      -55.233       24.075       -9.740       40.679       41.336       17.049     1654.744     1708.673      290.682        0.369        0.183       60.252       14.082        0.055      329.435       -3.830      869.688
01/29/2022  03:02:00      -65.463       49.949      -14.431       34.948       36.314       20.980     1221.371     1318.711      440.154        0.498        0.149       82.343       12.037        0.021      329.322       -4.016      869.688
01/29/2022  03:03:00     -118.584       65.647      -14.690       19.970       21.443       16.443      398.805      459.821      270.367        0.986        0.056      135.542        5.679        0.002      329.258       -4.119      869.680
01/29/2022  03:04:00     -123.174       55.377      -14.467       16.127       15.159       14.627      260.068      229.807      213.958        0.958        0.035      135.050       11.886        0.008      329.234       -4.160      869.667
01/29/2022  03:05:00     -114.579       37.481      -15.755       14.865       16.786       12.599      220.968      281.765      158.726        0.772        0.033      120.553        6.721        0.003      329.283       -4.080      869.657
01/29/2022  03:06:00     -123.480       24.525      -15.668       20.087       20.248       11.222      403.486      409.961      125.937        0.852        0.047      125.892        4.887        0.002      329.378       -3.925      869.658
01/29/2022  03:07:00     -108.984       22.558      -15.584       25.203       20.264       13.426      635.185      410.628      180.261        0.693        0.061      111.294        8.298        0.006      329.378       -3.924      869.647
01/29/2022  03:08:00      -90.079        9.907      -15.286       26.501       26.632       18.605      702.314      709.245      346.145        0.510        0.088       90.622       11.977        0.017      329.414       -3.867      869.645
01/29/2022  03:09:00      -28.033      -19.556      -22.172       30.064       22.507       19.970      903.848      506.553      398.803        0.173        0.090       34.181       12.705        0.138      329.489       -3.743      869.631
01/29/2022  03:10:00      -23.102        7.503       -2.277       27.574       23.503       19.341      760.298      552.392      374.086        0.114        0.084       24.290       15.080        0.385      329.447       -3.813      869.618
01/29/2022  03:11:00      -21.861       -1.500       -3.090       24.178       19.800       19.613      584.552      392.029      384.658        0.093        0.068       21.913       11.766        0.288      329.446       -3.816      869.603
01/29/2022  03:12:00      -40.317       11.947      -10.588       23.079       21.475       16.580      532.660      461.155      274.912        0.157        0.063       42.050        9.812        0.054      329.481       -3.758      869.585
01/29/2022  03:13:00      -61.879       12.517      -14.636       22.292       17.488       13.046      496.945      305.846      170.192        0.259        0.049       63.133        8.038        0.016      329.576       -3.601      869.570
01/29/2022  03:14:00      -63.773       20.334      -17.879       11.709       15.457       13.423      137.110      238.934      180.177        0.268        0.028       66.936        4.021        0.004      329.587       -3.582      869.556
01/29/2022  03:15:00      -59.786       34.409      -14.659       14.699       11.960       10.975      216.060      143.043      120.447        0.273        0.024       68.980        7.886        0.013      329.500       -3.726      869.542
01/29/2022  03:16:00      -78.174       36.712      -18.775       15.936       14.434       12.086      253.943      208.348      146.065        0.421        0.030       86.365        6.481        0.006      329.527       -3.682      869.528
01/29/2022  03:17:00      -74.679       35.184       -9.195       22.318       17.834       14.367      498.100      318.045      206.405        0.396        0.051       82.552        8.866        0.012      329.466       -3.780      869.510
01/29/2022  03:18:00      -86.685       26.833      -16.133       13.990       16.292       12.240      195.714      265.414      149.815        0.455        0.031       90.743        6.842        0.006      329.480       -3.759      869.503
01/29/2022  03:19:00      -80.891       32.570      -13.824       14.261       12.369        9.425      203.385      153.000       88.829        0.412        0.022       87.202        3.608        0.002      329.422       -3.852      869.496
01/29/2022  03:20:00      -70.523       20.929      -17.585       22.899       12.446       11.361      524.367      154.899      129.071        0.326        0.040       73.563        8.051        0.012      329.544       -3.654      869.487
01/29/2022  03:21:00      -74.684       20.553      -10.477       22.588       14.422        9.085      510.231      207.989       82.534        0.346        0.040       77.460        8.261        0.011      329.436       -3.829      869.479
01/29/2022  03:22:00      -73.886       22.007      -11.032       17.173       10.374       10.766      294.907      107.613      115.902        0.329        0.026       77.094        5.030        0.004      329.410       -3.874      869.476
01/29/2022  03:23:00      -68.047       24.656      -16.726        7.357        7.530        7.560       54.119       56.703       57.155        0.284        0.008       72.377        3.641        0.003      329.528       -3.680      869.465
01/29/2022  03:24:00      -54.775       17.947      -20.574       13.845       11.393        9.318      191.675      129.792       86.826        0.208        0.020       57.640        4.351        0.006      329.505       -3.717      869.451
01/29/2022  03:25:00      -45.654        9.650      -16.252       24.014       17.195       11.021      576.686      295.672      121.466        0.172        0.050       46.663        9.729        0.043      329.538       -3.665      869.439
01/29/2022  03:26:00      -25.944        3.871      -11.198       31.990       17.583       11.881     1023.389      309.157      141.155        0.114        0.074       26.231        5.449        0.043      329.459       -3.793      869.427
01/29/2022  03:27:00      -70.156       19.120      -10.243       24.749       26.206       15.513      612.511      686.745      240.642        0.347        0.077       72.714       10.933        0.023      329.359       -3.956      869.429
01/29/2022  03:28:00      -59.707       15.901      -14.726       21.964       24.974       13.428      482.402      623.722      180.305        0.266        0.064       61.788       11.687        0.036      329.419       -3.858      869.424
01/29/2022  03:29:00      -79.383       24.185      -19.792       15.953       13.344       14.697      254.487      178.053      216.010        0.396        0.032       82.985        8.570        0.011      329.423       -3.852      869.429
01/29/2022  03:30:00      -47.503        9.039      -13.069       18.021       25.790       14.690      324.764      665.142      215.796        0.186        0.060       48.356        8.715        0.032      329.438       -3.827      869.434
01/29/2022  03:31:00      -68.632       22.033      -10.786       16.735       18.085       14.077      280.056      327.076      198.170        0.306        0.040       72.082        8.063        0.013      329.449       -3.809      869.428
01/29/2022  03:32:00      -69.043       12.467       -0.445       33.899       23.008       17.373     1149.125      529.356      301.806        0.345        0.099       70.159       19.352        0.076      329.466       -3.783      869.426
01/29/2022  03:33:00      -75.021       11.609       -3.434       32.010       27.559       16.997     1024.619      759.508      288.889        0.392        0.104       75.914       15.309        0.041      329.438       -3.827      869.423
01/29/2022  03:34:00      -23.758        0.049       -7.291       31.920       20.386       15.026     1018.897      415.578      225.777        0.114        0.083       23.758       11.063        0.217      329.536       -3.666      869.423
01/29/2022  03:35:00      -75.625        2.451      -13.210       23.381       20.564       13.728      546.658      422.898      188.458        0.353        0.058       75.665        7.382        0.010      329.499       -3.728      869.422
01/29/2022  03:36:00        7.583       -0.380        1.437       20.332       21.552       14.010      413.379      464.477      196.280        0.057        0.054        7.593        4.643        0.374      329.601       -3.560      869.418
01/29/2022  03:37:00      -31.890        4.589       -1.205       31.506       20.867       13.379      992.616      435.435      178.985        0.132        0.080       32.218       13.298        0.170      329.522       -3.691      869.413
01/29/2022  03:38:00      -59.795        2.235       -3.373       34.567       30.695       17.013     1194.901      942.195      289.441        0.301        0.121       59.837        7.646        0.016      329.470       -3.774      869.411
01/29/2022  03:39:00      -83.097      -12.769       -5.562       51.047       40.735       24.311     2605.766     1659.320      591.037        0.598        0.243       84.072       25.439        0.092      329.456       -3.798      869.412
01/29/2022  03:40:00      -83.681       -2.964       -7.485       62.881       31.338       27.341     3953.999      982.039      747.523        0.637        0.284       83.733       28.988        0.120      329.407       -3.879      869.402
01/29/2022  03:41:00     -113.395       16.683       -1.477       49.510       36.458       25.453     2451.271     1329.210      647.868        0.878        0.221      114.615       17.964        0.025      329.373       -3.933      869.395
01/29/2022  03:42:00     -101.974        2.663       -6.349       56.732       34.661       26.248     3218.475     1201.377      688.960        0.778        0.255      102.008       28.463        0.078      329.374       -3.931      869.384
01/29/2022  03:43:00     -138.099       -8.839       -2.077       52.410       32.594       31.264     2746.847     1062.388      977.409        1.197        0.239      138.382       28.365        0.042      329.399       -3.892      869.376
01/29/2022  03:44:00      -52.216       -3.085        4.648       55.982       33.571       28.835     3134.013     1127.025      831.466        0.392        0.255       52.307       30.761        0.346      329.409       -3.875      869.375
01/29/2022  03:45:00      -95.175       11.397       -3.968       54.445       27.066       22.219     2964.305      732.580      493.674        0.670        0.210       95.855       21.135        0.049      329.434       -3.833      869.378
01/29/2022  03:46:00      -61.580       -9.829        5.217       48.058       43.106       29.854     2309.618     1858.142      891.240        0.449        0.253       62.359       25.175        0.163      329.487       -3.747      869.375
01/29/2022  03:47:00      -31.313       -7.109        5.970       50.923       21.173       28.205     2593.134      448.298      795.524        0.245        0.192       32.110       30.498        0.902      329.470       -3.775      869.371
01/29/2022  03:48:00      -35.158       11.768        3.278       48.745       44.059       19.422     2376.100     1941.222      377.218        0.304        0.235       37.075       16.058        0.188      329.437       -3.828      869.359
01/29/2022  03:49:00     -105.608       22.654       -4.412       43.036       24.065       20.034     1852.074      579.132      401.366        0.726        0.142      108.010       12.123        0.013      329.380       -3.920      869.356
01/29/2022  03:50:00      -57.834        0.255       -1.137       39.149       27.039       21.108     1532.637      731.108      445.529        0.303        0.135       57.835       18.205        0.099      329.393       -3.901      869.351
01/29/2022  03:51:00      -89.476        1.483       -8.557       50.795       35.575       23.223     2580.152     1265.574      539.306        0.623        0.219       89.489       15.139        0.029      329.388       -3.908      869.347
01/29/2022  03:52:00     -108.877       20.004       -6.624       31.195       29.247       21.864      973.097      855.360      478.026        0.730        0.115      110.699       16.711        0.023      329.445       -3.816      869.346
01/29/2022  03:53:00      -66.681       15.175       -4.134       30.773       26.784       19.758      946.962      717.366      390.366        0.337        0.103       68.386       14.418        0.044      329.452       -3.803      869.346
01/29/2022  03:54:00      -93.766       28.523      -11.042       32.348       25.274       18.678     1046.366      638.757      348.872        0.588        0.102       98.008       17.971        0.034      329.359       -3.956      869.338
01/29/2022  03:55:00      -87.004       17.260       -2.187       47.232       24.915       19.042     2230.818      620.753      362.600        0.554        0.161       88.700       18.132        0.042      329.348       -3.974      869.337
01/29/2022  03:56:00      -94.478       32.848       -7.949       34.500       23.337       23.186     1190.239      544.630      537.584        0.617        0.114      100.025       16.181        0.026      329.301       -4.052      869.339
01/29/2022  03:57:00     -103.110       25.166       -7.608       30.756       24.187       16.011      945.946      585.001      256.353        0.655        0.089      106.137       16.135        0.023      329.258       -4.120      869.325
01/29/2022  03:58:00      -94.533       32.021       -8.679       34.771       21.530       22.137     1209.030      463.553      490.050        0.610        0.108       99.809       17.413        0.030      329.239       -4.153      869.317
01/29/2022  03:59:00      -83.955       26.419       -5.607       36.524       29.409       24.618     1334.027      864.907      606.063        0.529        0.140       88.014       19.846        0.051      329.246       -4.141      869.312
01/29/2022  04:00:00      -82.085       20.309       -8.837       28.819       26.567       21.976      830.550      705.783      482.930        0.462        0.101       84.560       16.158        0.037      329.211       -4.199      869.315
01/29/2022  04:01:00      -90.720       41.815       -7.498       24.741       24.024       13.899      612.113      577.154      193.194        0.571        0.069       99.893       10.568        0.011      329.125       -4.339      869.312
01/29/2022  04:02:00      -80.106       17.272       -6.144       30.880       28.765       17.071      953.605      827.414      291.436        0.441        0.104       81.947       16.072        0.038      329.303       -4.047      869.316
01/29/2022  04:03:00      -58.457       20.463       -0.747       34.011       27.104       15.524     1156.767      734.625      241.006        0.298        0.107       61.935       12.094        0.038      329.296       -4.059      869.307
01/29/2022  04:04:00      -63.529       18.377       -5.199       27.361       21.374       13.797      748.609      456.829      190.353        0.290        0.070       66.134        9.246        0.020      329.250       -4.134      869.295
01/29/2022  04:05:00      -50.706       11.683       -6.481       23.957       19.089       16.079      573.936      364.379      258.549        0.197        0.060       52.034       15.200        0.085      329.296       -4.060      869.285
01/29/2022  04:06:00      -74.074       24.623       -9.175       13.675       18.301       13.363      187.007      334.944      178.560        0.344        0.035       78.060        9.769        0.016      329.252       -4.133      869.270
01/29/2022  04:07:00      -43.112       12.370       -6.335       34.100       22.706       13.602     1162.785      515.567      185.005        0.196        0.093       44.852        8.977        0.040      329.312       -4.032      869.259
01/29/2022  04:08:00      -73.869       22.929       -8.792       16.542       14.982       10.909      273.654      224.470      119.011        0.334        0.031       77.345        7.618        0.010      329.315       -4.028      869.257
01/29/2022  04:09:00      -59.982       12.302       -8.811       21.559       17.823       11.782      464.793      317.656      138.820        0.237        0.046       61.231        8.892        0.021      329.330       -4.002      869.259
01/29/2022  04:10:00      -57.340        8.965       -7.518       19.342       20.143       15.694      374.095      405.759      246.293        0.223        0.051       58.036       12.517        0.047      329.269       -4.104      869.258
01/29/2022  04:11:00      -58.166       22.961       -8.689       16.363       15.357       10.896      267.738      235.837      118.717        0.230        0.031       62.534        7.171        0.013      329.228       -4.171      869.259
01/29/2022  04:12:00      -61.770       13.617      -14.347       11.245       10.557       11.243      126.448      111.444      126.415        0.229        0.018       63.253        4.749        0.006      329.292       -4.064      869.271
01/29/2022  04:13:00      -46.028        6.127       -7.004       26.716       18.463       10.025      713.744      340.888      100.495        0.168        0.058       46.434        8.848        0.036      329.331       -4.001      869.266
01/29/2022  04:14:00      -38.593        1.469      -10.908       26.641       21.508       13.145      709.737      462.580      172.795        0.148        0.067       38.620        6.718        0.030      329.376       -3.929      869.269
01/29/2022  04:15:00       -1.388       -1.230        1.524       19.364       20.270       13.711      374.980      410.853      188.005        0.049        0.049        1.855        6.776       13.347      329.350       -3.971      869.259
01/29/2022  04:16:00      -33.416       -5.736       -3.146       30.224       20.496       16.266      913.488      420.089      264.576        0.138        0.080       33.905       13.363        0.155      329.380       -3.921      869.250
01/29/2022  04:17:00       -4.004       -0.533       -0.677       22.655       13.982       15.134      513.270      195.500      229.053        0.048        0.047        4.039        6.009        2.213      329.363       -3.949      869.244
01/29/2022  04:18:00      -17.353        3.723       -3.270       16.653       15.585       12.474      277.318      242.906      155.603        0.050        0.034       17.748        7.660        0.186      329.397       -3.895      869.240
01/29/2022  04:19:00      -19.254       -6.125      -11.736       14.208       15.399       11.301      201.871      237.140      127.706        0.056        0.028       20.205        4.744        0.055      329.414       -3.866      869.234
01/29/2022  04:20:00      -16.910        1.332        3.000       21.493       16.573       13.227      461.946      274.662      174.966        0.060        0.046       16.962       11.163        0.433      329.402       -3.886      869.228
01/29/2022  04:21:00      -47.556       11.123       -4.688       25.122       23.959       17.697      631.108      574.036      313.177        0.196        0.076       48.839       13.060        0.072      329.332       -4.000      869.222
01/29/2022  04:22:00      -35.520        9.224        0.316       39.032       22.613       17.787     1523.476      511.349      316.392        0.185        0.118       36.698       13.337        0.132      329.336       -3.992      869.230
01/29/2022  04:23:00      -58.959        8.947       -5.050       25.446       20.094       23.034      647.504      403.773      530.585        0.258        0.079       59.634       17.075        0.082      329.275       -4.094      869.232
01/29/2022  04:24:00      -64.705        3.825       -1.818       26.585       25.134       14.875      706.765      631.720      221.278        0.288        0.078       64.817       14.469        0.050      329.285       -4.075      869.232
01/29/2022  04:25:00      -46.096       -4.690       -6.744       39.443       31.779       17.951     1555.716     1009.896      322.256        0.254        0.144       46.334       12.868        0.077      329.285       -4.077      869.237
01/29/2022  04:26:00      -41.491       -2.482      -10.676       35.961       24.644       16.349     1293.219      607.323      267.291        0.200        0.108       41.565       13.721        0.109      329.288       -4.072      869.238
01/29/2022  04:27:00      -57.093       19.595       -5.809       19.637       21.863       14.678      385.601      477.997      215.441        0.238        0.054       60.362        7.665        0.016      329.293       -4.064      869.229
01/29/2022  04:28:00      -31.204        3.126        5.271       35.534       18.437       17.116     1262.662      339.934      292.954        0.145        0.095       31.360       16.125        0.264      329.336       -3.993      869.220
01/29/2022  04:29:00      -61.575       17.536      -11.914       28.480       15.016       13.395      811.099      225.489      179.416        0.273        0.061       64.023       14.162        0.049      329.327       -4.007      869.214
01/29/2022  04:30:00      -12.279        4.798       -4.866       25.569       20.410       17.728      653.770      416.566      314.279        0.079        0.069       13.183       12.092        0.841      329.251       -4.134      869.216
01/29/2022  04:31:00      -45.763       13.022       -8.618       23.193       18.172       15.741      537.901      330.231      247.783        0.173        0.056       47.580       11.488        0.058      329.298       -4.055      869.213
01/29/2022  04:32:00      -52.932        4.196       -3.887       28.905       18.179       15.204      835.482      330.472      231.161        0.212        0.070       53.098       12.545        0.056      329.301       -4.051      869.208
01/29/2022  04:33:00      -71.050       21.137       -8.168       20.085       16.084       11.681      403.399      258.689      136.437        0.318        0.040       74.127        7.918        0.011      329.309       -4.038      869.214
01/29/2022  04:34:00      -57.435       14.532       -5.574       17.967       20.077       16.704      322.826      403.072      279.023        0.227        0.050       59.245       11.192        0.036      329.247       -4.139      869.231
01/29/2022  04:35:00      -62.953       23.419       -6.128       21.707       14.492       12.545      471.186      210.017      157.385        0.269        0.042       67.167       10.614        0.025      329.182       -4.245      869.241
01/29/2022  04:36:00      -62.888       16.553      -11.775       23.178       17.308       11.267      537.234      299.582      126.938        0.267        0.048       65.030        7.330        0.013      329.267       -4.108      869.247
01/29/2022  04:37:00      -46.862        7.625      -13.317       22.688       18.242       12.507      514.761      332.756      156.413        0.172        0.050       47.478        7.269        0.023      329.309       -4.038      869.248
01/29/2022  04:38:00      -44.237       13.093      -11.627       10.744       10.243        7.971      115.424      104.923       63.541        0.127        0.014       46.134        2.898        0.004      329.315       -4.025      869.238
01/29/2022  04:39:00      -10.321       -8.465        0.786       11.127       17.812       12.265      123.802      317.262      150.419        0.039        0.030       13.348        9.266        0.482      329.403       -3.882      869.234
01/29/2022  04:40:00        5.257       -3.088        1.054        8.274        6.961        9.264       68.459       48.460       85.825        0.012        0.010        6.097        2.986        0.240      329.448       -3.810      869.237
01/29/2022  04:41:00        4.040       10.078       -3.417        7.773        6.387        6.559       60.415       40.798       43.019        0.014        0.007       10.857        3.202        0.087      329.301       -4.051      869.230
01/29/2022  04:42:00       10.506       13.045       -4.350        6.371        5.991        6.350       40.584       35.897       40.318        0.021        0.006       16.750        3.479        0.043      329.289       -4.068      869.236
01/29/2022  04:43:00        4.009       -1.468        0.173        7.171        6.929        5.172       51.419       48.008       26.750        0.007        0.006        4.270        2.480        0.337      329.211       -4.199      869.234
01/29/2022  04:44:00        0.151      -11.310      -11.690        5.792        5.918        7.251       33.545       35.017       52.580        0.019        0.006       11.311        2.078        0.034      329.221       -4.184      869.228
01/29/2022  04:45:00      -15.158      -18.777      -10.593       15.573       13.182        9.472      242.516      173.769       89.717        0.060        0.025       24.132        5.424        0.051      329.261       -4.117      869.218
01/29/2022  04:46:00       -1.068        5.606        0.391        7.957       15.987        9.712       63.319      255.574       94.326        0.022        0.021        5.707        8.425        2.179      329.134       -4.325      869.201
01/29/2022  04:47:00       -2.044        6.447       -3.823        9.015       11.543        9.795       81.266      133.236       95.952        0.019        0.016        6.763        6.559        0.940      328.997       -4.547      869.186
01/29/2022  04:48:00       11.173       -0.754       -0.313        9.403        6.747       10.509       88.424       45.529      110.429        0.018        0.012       11.198        6.876        0.377      329.097       -4.383      869.193
01/29/2022  04:49:00      -21.445        2.220       -8.901       18.845       16.944        9.129      355.139      287.113       83.334        0.063        0.036       21.560        5.622        0.068      329.142       -4.311      869.190
01/29/2022  04:50:00      -24.077        2.322      -11.168       19.522       15.598       14.021      381.096      243.298      196.601        0.077        0.041       24.189        9.843        0.166      329.218       -4.188      869.184
01/29/2022  04:51:00      -28.896        9.301        0.294       18.492       19.110       13.106      341.943      365.193      171.759        0.090        0.044       30.356       10.882        0.129      329.132       -4.327      869.179
01/29/2022  04:52:00      -32.331        4.093       -2.295       22.338       16.228       18.309      498.968      263.343      335.213        0.108        0.055       32.590       16.252        0.249      329.126       -4.337      869.179
01/29/2022  04:53:00      -55.580       17.288       -4.647       21.434       19.233       14.280      459.395      369.918      203.906        0.222        0.052       58.207        5.951        0.010      329.083       -4.407      869.179
01/29/2022  04:54:00      -80.545       25.964       -7.207       19.999       20.499       11.513      399.968      420.214      132.555        0.408        0.048       84.626        9.468        0.013      328.986       -4.565      869.184
01/29/2022  04:55:00      -78.127       25.397      -10.169       21.334       23.474       12.628      455.132      551.025      159.455        0.401        0.058       82.151       11.373        0.019      328.987       -4.563      869.180
01/29/2022  04:56:00      -80.248       30.704       -8.029       16.346       14.881       14.643      267.179      221.431      214.411        0.407        0.035       85.922        9.338        0.012      328.939       -4.644      869.182
01/29/2022  04:57:00      -72.625       26.318       -9.604       17.359       14.748       16.894      301.324      217.515      285.401        0.343        0.040       77.246       12.775        0.027      328.960       -4.608      869.182
01/29/2022  04:58:00      -56.675       10.783       -9.053       27.414       20.739       16.716      751.533      430.090      279.437        0.244        0.073       57.692       18.838        0.107      328.961       -4.606      869.182
01/29/2022  04:59:00      -47.681       15.530      -14.020       13.869       14.402       14.634      192.343      207.412      214.159        0.166        0.031       50.146        7.887        0.025      328.977       -4.581      869.184
01/29/2022  05:00:00      -32.563       21.121       -8.032       13.337        8.606        6.584      177.875       74.065       43.350        0.093        0.015       38.813        3.236        0.007      329.011       -4.525      869.187
01/29/2022  05:01:00       -1.458        9.577       -4.505        6.609        5.683        6.650       43.678       32.296       44.225        0.012        0.006        9.687        4.700        0.235      329.121       -4.344      869.185
01/29/2022  05:02:00       31.613       34.478       -5.094       10.637       12.924        6.089      113.149      167.038       37.072        0.127        0.016       46.777        6.316        0.018      329.242       -4.146      869.188
01/29/2022  05:03:00       51.810       28.001       -8.730       10.131       14.820        9.900      102.643      219.643       98.003        0.198        0.021       58.893        8.258        0.020      329.269       -4.103      869.185
01/29/2022  05:04:00       38.170       10.474       -9.083        7.602       10.331        5.655       57.793      106.734       31.977        0.092        0.010       39.581        2.715        0.005      329.200       -4.218      869.186
01/29/2022  05:05:00       37.212       20.982       -7.625        5.732        8.360        6.065       32.857       69.883       36.784        0.101        0.007       42.720        1.929        0.002      329.200       -4.212      869.190
01/29/2022  05:06:00       31.473       19.502       -4.148        6.112        8.061        5.045       37.360       64.984       25.451        0.076        0.006       37.025        1.870        0.003      329.202       -4.211      869.193
01/29/2022  05:07:00       37.240       16.902       -8.905        4.090        5.215        3.983       16.728       27.194       15.865        0.091        0.003       40.896        1.130        0.001      329.218       -4.187      869.193
01/29/2022  05:08:00       26.119        2.118       -8.165       10.462        7.791        9.882      109.447       60.705       97.654        0.051        0.013       26.205        7.482        0.082      329.257       -4.125      869.199
01/29/2022  05:09:00       23.837        5.466       -5.686       15.748       11.218       10.321      247.997      125.850      106.532        0.056        0.024       24.456        6.349        0.067      329.258       -4.120      869.203
01/29/2022  05:10:00       41.857        3.814       -7.594       14.050       12.391        7.809      197.394      153.543       60.986        0.112        0.021       42.031        5.605        0.018      329.236       -4.159      869.201
01/29/2022  05:11:00       43.434        9.275       -6.445        7.493        6.566        5.924       56.152       43.118       35.088        0.107        0.007       44.413        2.223        0.003      329.188       -4.239      869.189
01/29/2022  05:12:00       18.848       -7.024        1.816       15.705       15.693        8.553      246.633      246.285       73.146        0.049        0.028       20.114        7.272        0.131      329.230       -4.167      869.178
01/29/2022  05:13:00       -3.175      -39.429      -13.305       21.761       15.619       14.489      473.551      243.968      209.928        0.133        0.046       39.557       13.296        0.113      329.296       -4.061      869.169
01/29/2022  05:14:00      -29.045      -43.743      -10.765       19.745       18.592       12.848      389.865      345.670      165.072        0.189        0.045       52.508        9.871        0.035      329.244       -4.143      869.162
01/29/2022  05:15:00      -20.946      -17.609      -15.236       13.947       12.929       10.001      194.524      167.171      100.023        0.072        0.023       27.365        9.971        0.133      329.152       -4.294      869.154
01/29/2022  05:16:00       -2.622       -1.515       -2.832        4.840        3.893        4.165       23.427       15.158       17.350        0.004        0.003        3.028        1.772        0.342      329.137       -4.319      869.155
01/29/2022  05:17:00       -5.304       -0.291       -4.315        5.415        4.367        6.299       29.327       19.069       39.680        0.007        0.004        5.312        2.063        0.151      329.134       -4.324      869.161
01/29/2022  05:18:00       -1.183       12.148       -4.251        6.363        8.719        5.275       40.486       76.030       27.821        0.016        0.007       12.205        4.384        0.129      329.169       -4.268      869.174
01/29/2022  05:19:00      -21.348       14.823      -10.951       12.031        5.018        6.569      144.752       25.176       43.147        0.050        0.011       25.990        4.551        0.031      329.140       -4.315      869.182
01/29/2022  05:20:00      -12.649       -4.012       -6.570       15.461       12.460        8.190      239.034      155.253       67.069        0.034        0.023       13.270        4.938        0.138      329.101       -4.378      869.198
01/29/2022  05:21:00        1.270        5.301       -2.933       10.416        8.187        7.346      108.484       67.034       53.971        0.013        0.011        5.451        4.976        0.833      328.980       -4.574      869.209
01/29/2022  05:22:00      -27.820       10.147       -9.877       15.337       14.742        8.695      235.209      217.324       75.608        0.075        0.026       29.613        2.622        0.008      328.996       -4.549      869.220
01/29/2022  05:23:00        1.602       -1.467       -1.911       13.126        8.203        6.193      172.303       67.285       38.351        0.014        0.014        2.172        5.171        5.668      329.056       -4.450      869.226
01/29/2022  05:24:00      -15.356        6.907       -5.413       24.298       18.058       15.216      590.412      326.074      231.519        0.073        0.057       16.838       15.417        0.838      329.001       -4.541      869.227
01/29/2022  05:25:00      -11.846       -8.652       -1.798       20.868       16.428       10.697      435.494      269.882      114.424        0.052        0.041       14.669        9.007        0.377      329.066       -4.437      869.230
01/29/2022  05:26:00      -10.181       -9.234      -12.532       13.156       20.546        9.319      173.072      422.123       86.847        0.051        0.034       13.745        4.262        0.096      329.001       -4.540      869.234
01/29/2022  05:27:00        4.210       -3.249       -5.993       13.571       13.674       11.338      184.173      186.983      128.544        0.028        0.025        5.318        7.597        2.041      329.023       -4.505      869.239
01/29/2022  05:28:00      -12.944       10.396       -2.120       25.379       14.772        9.912      644.087      218.213       98.250        0.062        0.048       16.602        7.511        0.205      328.988       -4.560      869.242
01/29/2022  05:29:00      -18.136       10.800       -0.173       11.004       20.352       10.808      121.092      414.185      116.812        0.055        0.033       21.108        5.797        0.075      329.034       -4.488      869.239
01/29/2022  05:30:00      -21.630        1.758       -5.509       20.653       12.067       10.824      426.544      145.607      117.165        0.060        0.034       21.702        7.715        0.126      329.025       -4.502      869.238
01/29/2022  05:31:00      -24.586       -1.931       -4.365       20.278       12.587       13.738      411.200      158.442      188.725        0.069        0.038       24.662        9.860        0.160      329.010       -4.525      869.233
01/29/2022  05:32:00      -15.098        7.615       -5.906       18.262       13.679       17.525      333.494      187.104      307.139        0.057        0.041       16.909        8.279        0.240      328.955       -4.615      869.227
01/29/2022  05:33:00      -19.102       -1.384       -3.069       21.759       16.250       17.532      473.447      264.049      307.362        0.071        0.052       19.153       14.696        0.589      329.035       -4.485      869.226
01/29/2022  05:34:00      -45.091        7.928       -4.498       22.463       18.567       13.349      504.585      344.751      178.204        0.157        0.051       45.783       12.134        0.070      329.000       -4.542      869.226
01/29/2022  05:35:00      -26.464        2.687        0.026       24.399       17.634       12.042      595.305      310.971      145.000        0.088        0.053       26.600       11.045        0.172      329.013       -4.521      869.238
01/29/2022  05:36:00      -33.595        6.696       -1.510       26.732       20.884       15.682      714.609      436.153      245.924        0.129        0.070       34.256       11.998        0.123      328.895       -4.713      869.244
01/29/2022  05:37:00      -61.636        2.286       -7.192       32.479       24.046       17.010     1054.902      578.189      289.341        0.289        0.096       61.679       14.106        0.052      328.947       -4.629      869.251
01/29/2022  05:38:00      -86.970       39.163       -5.982       27.317       28.747       17.530      746.229      826.406      307.302        0.551        0.094       95.381       15.858        0.028      328.800       -4.868      869.244
01/29/2022  05:39:00      -97.830       23.423       -5.879       35.107       23.773       20.527     1232.532      565.135      421.345        0.619        0.111      100.595       19.895        0.039      328.755       -4.943      869.233
01/29/2022  05:40:00     -111.619       21.750       -9.478       35.580       25.234       23.389     1265.961      636.746      547.047        0.774        0.122      113.719       18.820        0.027      328.794       -4.880      869.230
01/29/2022  05:41:00     -125.314       47.220       -5.569       37.629       23.951       24.154     1415.965      573.673      583.426        1.027        0.129      133.915       21.929        0.027      328.686       -5.054      869.223
01/29/2022  05:42:00     -102.988       36.159       -2.828       41.561       25.450       21.023     1727.356      647.699      441.957        0.737        0.141      109.151       22.861        0.044      328.669       -5.083      869.221
01/29/2022  05:43:00      -99.166       44.781       -6.798       39.659       29.357       23.920     1572.824      861.836      572.151        0.745        0.150      108.808       18.971        0.030      328.562       -5.257      869.220
01/29/2022  05:44:00      -86.239       24.665       -6.154       40.424       30.016       22.884     1634.139      900.961      523.680        0.557        0.153       89.696       20.979        0.055      328.583       -5.223      869.218
01/29/2022  05:45:00     -113.866       28.914       -5.308       36.167       32.046       24.779     1308.020     1026.919      613.987        0.839        0.147      117.480       20.955        0.032      328.772       -4.914      869.227
01/29/2022  05:46:00     -126.392       33.726      -10.613       40.659       30.224       25.247     1653.194      913.489      637.436        1.021        0.160      130.815       24.270        0.034      328.705       -5.024      869.241
01/29/2022  05:47:00      -94.271       38.015       -5.220       70.615       35.172       26.351     4986.442     1237.055      694.381        0.864        0.346      101.648       33.355        0.108      328.657       -5.102      869.235
01/29/2022  05:48:00     -125.267       30.680      -17.461       40.966       33.037       25.909     1678.219     1091.458      671.260        1.019        0.172      128.970       15.096        0.014      328.647       -5.118      869.225
01/29/2022  05:49:00     -105.979       40.241       -5.346       34.460       27.299       21.055     1187.471      745.261      443.307        0.763        0.119      113.362       17.190        0.023      328.545       -5.283      869.217
01/29/2022  05:50:00     -114.058       31.945       -5.545       36.670       27.284       24.096     1344.719      744.407      580.622        0.836        0.133      118.447       20.928        0.031      328.626       -5.153      869.215
01/29/2022  05:51:00     -110.004       18.382       -9.888       25.191       24.985       16.595      634.603      624.232      275.410        0.704        0.077      111.529       10.910        0.010      328.670       -5.082      869.218
01/29/2022  05:52:00      -16.184      -12.209       -9.588       22.731       17.460       18.856      516.676      304.853      355.567        0.084        0.059       20.272       11.197        0.305      328.751       -4.946      869.223
01/29/2022  05:53:00      -25.171       -4.357       -5.173       32.268       21.131       20.104     1041.204      446.498      404.175        0.129        0.095       25.545        8.972        0.123      328.764       -4.928      869.223
01/29/2022  05:54:00      -10.493       -0.284       -8.613       30.822       21.573       22.552      950.021      465.405      508.590        0.105        0.096       10.496       16.016        2.328      328.700       -5.032      869.230
01/29/2022  05:55:00      -16.714        0.777       -8.630       44.342       24.307       23.870     1966.243      590.831      569.788        0.174        0.156       16.732       23.835        2.029      328.764       -4.928      869.225
01/29/2022  05:56:00      -82.592       23.592      -13.013       31.771       27.822       21.188     1009.369      774.059      448.919        0.489        0.112       85.896        9.989        0.014      328.766       -4.924      869.218
01/29/2022  05:57:00       -9.804       -6.009      -13.379       27.915       23.612       14.121      779.252      557.549      199.397        0.092        0.077       11.499        9.331        0.659      328.736       -4.974      869.213
01/29/2022  05:58:00      -35.171        7.185       -9.982       46.310       35.397       17.233     2144.586     1252.942      296.983        0.254        0.185       35.897        6.961        0.038      328.783       -4.896      869.206
01/29/2022  05:59:00      -67.024       -0.042       -9.292       56.678       32.561       22.787     3212.434     1060.250      519.249        0.468        0.240       67.024       15.696        0.055      328.738       -4.969      869.213
01/29/2022  06:00:00     -100.267       21.352       -7.766       35.196       32.581       19.251     1238.731     1061.537      370.601        0.662        0.134      102.515       17.757        0.030      328.780       -4.902      869.217
01/29/2022  06:01:00      -94.373       32.976      -10.555       32.118       28.408       24.466     1031.569      807.037      598.561        0.627        0.122       99.968       21.250        0.045      328.657       -5.102      869.223
01/29/2022  06:02:00     -104.669       28.271      -11.586       36.554       26.905       19.747     1336.171      723.883      389.931        0.717        0.122      108.419       14.072        0.017      328.708       -5.019      869.225
01/29/2022  06:03:00      -85.360       29.525       -5.960       46.219       31.231       25.007     2136.203      975.395      625.338        0.596        0.187       90.322       25.354        0.079      328.761       -4.932      869.239
01/29/2022  06:04:00      -84.214       25.065       -3.407       33.966       31.541       20.039     1153.691      994.831      401.546        0.514        0.128       87.865       15.537        0.031      328.776       -4.908      869.246
01/29/2022  06:05:00     -101.941       18.759      -10.261       44.236       40.754       26.867     1956.784     1660.883      721.818        0.759        0.217      103.652       24.319        0.055      328.813       -4.848      869.253
01/29/2022  06:06:00      -87.031       47.326       -0.242       48.153       37.093       23.477     2318.754     1375.904      551.155        0.703        0.212       99.067       24.145        0.059      328.789       -4.885      869.260
01/29/2022  06:07:00     -102.699       35.258       -2.068       35.141       34.915       22.823     1234.882     1219.068      520.880        0.738        0.149      108.582       17.215        0.025      328.735       -4.974      869.270
01/29/2022  06:08:00      -85.452       28.674       -4.272       39.640       32.296       18.731     1571.298     1043.019      350.865        0.555        0.148       90.135        8.733        0.009      328.752       -4.946      869.285
01/29/2022  06:09:00      -81.224       12.471       -6.256       40.305       37.646       21.253     1624.518     1417.239      451.685        0.514        0.175       82.176       20.544        0.062      328.780       -4.901      869.291
01/29/2022  06:10:00     -109.073       53.888       -9.416       47.565       29.747       20.436     2262.440      884.856      417.628        0.923        0.178      121.659       14.128        0.013      328.657       -5.103      869.297
01/29/2022  06:11:00      -94.470       20.231       -7.763       51.815       28.992       19.111     2684.824      840.552      365.241        0.664        0.195       96.612       24.997        0.067      328.761       -4.932      869.299
01/29/2022  06:12:00      -92.604       36.052      -12.408       45.676       30.692       19.547     2086.264      941.990      382.074        0.672        0.171       99.374       15.942        0.026      328.747       -4.954      869.316
01/29/2022  06:13:00      -76.477       36.585       -5.044       41.873       29.523       21.291     1753.371      871.635      453.299        0.514        0.154       84.778       18.848        0.049      328.682       -5.062      869.322
01/29/2022  06:14:00      -67.245        6.558       -5.177       41.227       21.992       16.185     1699.706      483.649      261.954        0.352        0.122       67.564       16.169        0.057      328.627       -5.152      869.327
01/29/2022  06:15:00      -43.692        1.434        1.350       30.083       24.765       20.537      904.969      613.290      421.787        0.193        0.097       43.715       14.041        0.103      328.714       -5.009      869.328
01/29/2022  06:16:00      -38.347       -3.834       -8.791       34.191       20.750       18.712     1169.004      430.555      350.140        0.176        0.097       38.538       10.605        0.076      328.868       -4.757      869.332
01/29/2022  06:17:00      -10.669        1.977       -2.218       33.316       19.845       15.965     1109.946      393.825      254.890        0.094        0.088       10.850       12.195        1.263      328.896       -4.712      869.335
01/29/2022  06:18:00      -39.925      -19.595       -3.403       36.356       26.853       22.196     1321.785      721.105      492.650        0.226        0.127       44.475       19.236        0.187      328.855       -4.779      869.338
01/29/2022  06:19:00      -47.106      -12.014       -3.839       52.074       23.681       22.202     2711.658      560.798      492.945        0.307        0.188       48.614       23.223        0.228      328.744       -4.961      869.343
01/29/2022  06:20:00      -48.366       -2.409       -0.638       42.181       21.704       22.256     1779.256      471.085      495.332        0.255        0.137       48.426       20.581        0.181      328.741       -4.964      869.343
01/29/2022  06:21:00      -30.349        0.035       -2.518       37.408       20.950       17.032     1399.393      438.920      290.096        0.153        0.106       30.349       14.977        0.244      328.772       -4.914      869.344
01/29/2022  06:22:00      -49.401        7.678       -5.114       45.103       31.909       27.822     2034.247     1018.185      774.059        0.318        0.191       49.994       23.562        0.222      328.749       -4.951      869.339
01/29/2022  06:23:00      -18.183        6.090        1.987       27.209       24.311       20.809      740.341      591.010      432.998        0.107        0.088       19.176       13.342        0.484      328.719       -5.001      869.329
01/29/2022  06:24:00      -62.835       -1.360       -2.855       35.272       25.082       19.116     1244.140      629.131      365.438        0.310        0.112       62.850       15.573        0.061      328.800       -4.869      869.311
01/29/2022  06:25:00      -40.806        8.431       -3.113       53.971       22.935       22.854     2912.824      526.004      522.300        0.285        0.198       41.667       26.406        0.402      328.825       -4.827      869.294
01/29/2022  06:26:00      -29.028       -2.369       -0.961       54.329       30.725       23.383     2951.631      943.996      546.770        0.264        0.222       29.125       27.708        0.905      328.762       -4.931      869.276
01/29/2022  06:27:00        0.441        6.639        6.133       48.187       22.041       21.962     2321.940      485.789      482.344        0.169        0.165        6.654       23.120       12.073      328.870       -4.755      869.277
01/29/2022  06:28:00      -32.480        1.000       -1.108       43.917       24.550       21.748     1928.715      602.711      472.976        0.203        0.150       32.495       20.784        0.409      328.827       -4.825      869.278
01/29/2022  06:29:00      -13.794        5.101        0.987       27.472       22.790       18.630      754.723      519.383      347.065        0.092        0.081       14.707        9.678        0.433      328.814       -4.846      869.278
01/29/2022  06:30:00      -79.975       41.129       -4.220       15.554       19.055       12.781      241.928      363.088      163.345        0.444        0.038       89.931        5.432        0.004      328.665       -5.089      869.282
01/29/2022  06:31:00      -62.380       33.856       -8.915       29.042       20.916       16.322      843.411      437.489      266.422        0.333        0.077       70.975       14.313        0.041      328.603       -5.189      869.290
01/29/2022  06:32:00      -60.785       14.908       -6.490       29.347       21.455       18.874      861.254      460.302      356.214        0.282        0.084       62.587       12.707        0.041      328.702       -5.028      869.289
01/29/2022  06:33:00      -52.056       24.507       -6.183       30.064       22.992       14.400      903.848      528.631      207.370        0.249        0.082       57.536        7.930        0.019      328.539       -5.295      869.288
01/29/2022  06:34:00      -63.826       15.392       -6.291       37.480       21.194       18.887     1404.741      449.190      356.731        0.328        0.111       65.656       18.686        0.081      328.607       -5.183      869.281
01/29/2022  06:35:00      -51.335        9.802       -3.592       39.672       24.553       16.781     1573.836      602.839      281.591        0.260        0.123       52.262       11.239        0.046      328.698       -5.036      869.273
01/29/2022  06:36:00       -3.960       -4.027       -3.223       23.445       23.607       18.471      549.659      557.292      341.173        0.074        0.072        5.647       12.989        5.290      328.775       -4.908      869.271
01/29/2022  06:37:00      -30.055       -3.065       -3.872       32.719       21.757       14.479     1070.534      473.385      209.643        0.134        0.088       30.211       13.489        0.199      328.738       -4.970      869.269
01/29/2022  06:38:00      -27.889       -8.608       -1.043       35.716       17.448       15.789     1275.601      304.428      249.298        0.134        0.091       29.187       15.772        0.292      328.809       -4.854      869.265
01/29/2022  06:39:00      -38.215       15.251       -6.402       26.422       16.013       11.967      698.105      256.408      143.210        0.142        0.055       41.145        4.612        0.013      328.782       -4.899      869.278
01/29/2022  06:40:00      -26.221        9.573       -2.736       20.618       18.679       11.194      425.119      348.914      125.297        0.084        0.045       27.914        9.786        0.123      328.773       -4.913      869.281
01/29/2022  06:41:00      -51.574        2.786       -5.232       37.548       19.595       13.097     1409.835      383.980      171.525        0.233        0.098       51.649       14.553        0.079      328.819       -4.837      869.280
01/29/2022  06:42:00      -54.760       10.470       -6.752       25.364       22.134       15.140      643.313      489.925      229.207        0.226        0.068       55.752        5.371        0.009      328.798       -4.872      869.275
01/29/2022  06:43:00      -32.962        3.962       -3.884       20.260       17.635       16.207      410.472      311.002      262.678        0.105        0.049       33.199       10.155        0.094      328.870       -4.756      869.275
01/29/2022  06:44:00      -67.493        3.474      -10.161       27.955       20.605       14.255      781.502      424.558      203.195        0.304        0.070       67.582        6.233        0.009      328.754       -4.945      869.278
01/29/2022  06:45:00      -49.721       11.410       -2.064       28.203       19.931       15.216      795.398      397.264      231.533        0.202        0.071       51.013       11.779        0.053      328.634       -5.140      869.287
01/29/2022  06:46:00      -33.004        7.996       -6.133       33.707       19.369       10.583     1136.151      375.157      111.998        0.141        0.081       33.959        9.881        0.085      328.701       -5.030      869.295
01/29/2022  06:47:00      -47.120       13.478       -5.149       28.652       15.175       14.285      820.930      230.275      204.068        0.184        0.063       49.009       17.414        0.126      328.691       -5.048      869.301
01/29/2022  06:48:00      -73.767       18.507       -9.726       20.518       13.564       12.911      421.008      183.975      166.687        0.333        0.039       76.053        5.977        0.006      328.704       -5.025      869.302
01/29/2022  06:49:00      -30.120        9.015        1.069       25.029       17.235       12.432      626.437      297.041      154.546        0.103        0.054       31.440       14.816        0.222      328.696       -5.039      869.306
01/29/2022  06:50:00      -27.740        3.783       -2.907       22.151       22.383       13.815      490.688      501.012      190.863        0.099        0.059       27.997       10.505        0.141      328.831       -4.818      869.316
01/29/2022  06:51:00      -11.559        4.614       -3.984       16.614       15.219       10.538      276.027      231.623      111.045        0.039        0.031       12.446        9.419        0.573      328.899       -4.708      869.331
01/29/2022  06:52:00      -45.345       18.383      -13.612       13.501       10.728       11.188      182.284      115.083      125.161        0.150        0.021       48.930        5.628        0.013      328.784       -4.894      869.346
01/29/2022  06:53:00      -40.627       17.141       -9.485       19.392       12.127        9.335      376.036      147.071       87.151        0.132        0.031       44.095        4.777        0.012      328.773       -4.913      869.354
01/29/2022  06:54:00      -49.691       27.309       -9.574       11.407        9.859        9.654      130.118       97.192       93.203        0.181        0.016       56.700        4.442        0.006      328.698       -5.035      869.358
01/29/2022  06:55:00      -30.428        6.758       -3.984       18.668       17.331       14.410      348.512      300.376      207.662        0.092        0.043       31.169        7.767        0.062      328.750       -4.950      869.361
01/29/2022  06:56:00      -11.422       -5.954       -6.040       12.910       21.528       13.565      166.659      463.439      184.004        0.051        0.041       12.881        6.215        0.233      328.822       -4.832      869.371
01/29/2022  06:57:00        9.061      -23.297      -17.172       20.697       15.118       11.303      428.381      228.542      127.748        0.085        0.039       24.997        7.615        0.093      328.771       -4.917      869.387
01/29/2022  06:58:00        4.265      -11.404       -5.894       12.030       11.424        8.006      144.713      130.515       64.103        0.026        0.017       12.176        6.325        0.270      328.634       -5.139      869.395
01/29/2022  06:59:00        2.339       -1.728       -4.357        5.860       10.530        6.596       34.342      110.882       43.513        0.011        0.009        2.908        2.650        0.830      328.626       -5.152      869.402
01/29/2022  07:00:00       12.145       -7.651       -7.812       12.801        9.447       10.403      163.861       89.246      108.216        0.031        0.018       14.353        7.495        0.273      328.729       -4.983      869.405
01/29/2022  07:01:00        3.606      -11.598      -14.291       11.240        9.139        7.438      126.339       83.529       55.329        0.031        0.013       12.145        5.688        0.219      328.799       -4.869      869.404
01/29/2022  07:02:00      -12.391      -12.371      -11.800       11.595       10.345        8.403      134.447      107.027       70.606        0.038        0.016       17.509        5.445        0.097      328.856       -4.777      869.412
01/29/2022  07:03:00       -4.987      -11.477       -0.118       10.907       14.000        9.157      118.953      196.010       83.859        0.028        0.020       12.514        4.627        0.137      328.743       -4.961      869.431
01/29/2022  07:04:00      -14.997        4.685       -1.337        7.551       11.529       10.942       57.024      132.910      119.737        0.028        0.015       15.712        5.951        0.143      328.586       -5.217      869.443
01/29/2022  07:05:00      -35.321       13.687       -7.886       17.823       11.089        9.833      317.655      122.962       96.680        0.102        0.027       37.881        7.763        0.042      328.652       -5.110      869.449
01/29/2022  07:06:00      -40.827        9.143        0.130       28.714       14.900       11.335      824.488      221.999      128.480        0.146        0.059       41.838       12.958        0.096      328.607       -5.183      869.454
01/29/2022  07:07:00      -25.261        6.635        1.017       25.198       22.374       11.922      634.957      500.592      142.129        0.098        0.064       26.118       10.998        0.177      328.569       -5.246      869.459
01/29/2022  07:08:00      -41.813        2.843       -3.254       36.699       28.314       14.656     1346.840      801.662      214.809        0.206        0.118       41.910       18.221        0.189      328.543       -5.287      869.461
01/29/2022  07:09:00      -37.392       -0.267       -7.306       25.506       27.234       22.705      650.572      741.670      515.507        0.168        0.095       37.393       10.439        0.078      328.649       -5.114      869.463
01/29/2022  07:10:00      -13.585      -11.887       -0.680       18.695       22.545       15.377      349.496      508.289      236.465        0.071        0.055       18.051        6.433        0.127      328.704       -5.026      869.467
01/29/2022  07:11:00      -51.507       19.998       -6.120       20.256       11.837        9.468      410.316      140.116       89.647        0.187        0.032       55.253        6.287        0.013      328.494       -5.368      869.465
01/29/2022  07:12:00      -66.289       29.025      -13.068       19.951       16.958       14.659      398.023      287.565      214.887        0.315        0.045       72.365        5.161        0.005      328.420       -5.489      869.470
01/29/2022  07:13:00      -72.321       27.735      -12.350       20.598       17.193       13.787      424.293      295.609      190.085        0.353        0.045       77.457        8.252        0.011      328.429       -5.474      869.473
01/29/2022  07:14:00      -74.822       14.431      -12.560       18.288       21.653       14.235      334.441      468.858      202.627        0.348        0.050       76.201        9.338        0.015      328.467       -5.413      869.475
01/29/2022  07:15:00      -72.222       14.011      -10.780       27.958       25.174       13.800      781.659      633.735      190.440        0.357        0.080       73.569        8.186        0.012      328.436       -5.463      869.475
01/29/2022  07:16:00      -49.043        7.710       -8.427       30.198       21.523       15.925      911.901      463.254      253.615        0.208        0.081       49.645       14.573        0.086      328.520       -5.326      869.470
01/29/2022  07:17:00      -69.695       14.961       -9.086       32.647       24.614       17.462     1065.824      605.851      304.913        0.357        0.099       71.283       16.619        0.054      328.455       -5.432      869.473
01/29/2022  07:18:00      -83.074       32.927      -13.954       28.482       18.704       14.592      811.217      349.844      212.923        0.478        0.069       89.362        8.300        0.009      328.354       -5.596      869.468
01/29/2022  07:19:00      -72.139       18.496       -4.534       34.912       20.282       19.547     1218.831      411.359      382.094        0.379        0.101       74.472       20.953        0.079      328.404       -5.515      869.468
01/29/2022  07:20:00      -77.414       18.762      -11.603       14.406       16.197       11.430      207.542      262.346      130.652        0.354        0.030       79.656        6.389        0.006      328.366       -5.576      869.463
01/29/2022  07:21:00      -59.164       13.196      -12.631       31.049       27.041       12.349      964.011      731.204      152.488        0.284        0.092       60.618       11.875        0.038      328.429       -5.473      869.450
01/29/2022  07:22:00      -67.601       17.072       -8.096       21.994       18.993       14.353      483.722      360.750      205.995        0.299        0.053       69.723       10.078        0.021      328.431       -5.469      869.442
01/29/2022  07:23:00      -17.426        4.724       -3.737       22.304       24.436       10.904      497.456      597.113      118.897        0.078        0.061       18.055       10.316        0.326      328.487       -5.378      869.429
01/29/2022  07:24:00      -58.667       21.633       -9.775       12.018       10.738        9.511      144.428      115.295       90.459        0.218        0.018       62.529        6.045        0.009      328.366       -5.576      869.428
01/29/2022  07:25:00      -46.409       14.391      -13.884       16.105       14.175        7.436      259.362      200.920       55.301        0.153        0.026       48.589        3.792        0.006      328.575       -5.236      869.431
01/29/2022  07:26:00       -8.908       22.780       -6.025       12.746        8.719        6.668      162.456       76.018       44.468        0.046        0.014       24.460        6.732        0.076      328.649       -5.114      869.433
01/29/2022  07:27:00       17.013       16.473       -4.463        6.513        5.936        4.561       42.415       35.240       20.802        0.034        0.005       23.681        2.247        0.009      328.653       -5.110      869.443
01/29/2022  07:28:00       16.629        7.599       -5.675        5.614        4.824        6.110       31.521       23.274       37.337        0.023        0.005       18.283        2.826        0.024      328.773       -4.914      869.445
01/29/2022  07:29:00       -0.962        2.272       -2.429        6.032        3.438        5.646       36.385       11.823       31.878        0.005        0.004        2.467        4.653        3.556      328.902       -4.701      869.452
01/29/2022  07:30:00      -11.869        5.934       -2.655        7.850       12.280        7.346       61.623      150.804       53.961        0.022        0.013       13.270        6.653        0.251      328.924       -4.667      869.464
01/29/2022  07:31:00      -12.769        8.523       -4.514        7.161        6.144        7.577       51.284       37.752       57.407        0.020        0.007       15.352        3.425        0.050      328.833       -4.816      869.470
01/29/2022  07:32:00       -9.593       10.756       -7.952        5.366        5.619        4.516       28.798       31.574       20.396        0.018        0.004       14.413        3.535        0.060      328.808       -4.858      869.475
01/29/2022  07:33:00        2.187       17.904       -3.267        9.056       13.806        6.114       82.010      190.602       37.379        0.032        0.015       18.037        4.555        0.064      328.910       -4.691      869.477
01/29/2022  07:34:00       13.209       25.036       -0.296       10.203        8.343        8.420      104.101       69.602       70.889        0.052        0.012       28.307        5.954        0.044      328.924       -4.667      869.478
01/29/2022  07:35:00        3.654       27.322       -3.779       12.460       10.124        8.237      155.260      102.487       67.853        0.055        0.016       27.565        6.145        0.050      328.970       -4.590      869.483
01/29/2022  07:36:00        6.286       15.888       -2.819        8.196        8.028        6.743       67.172       64.450       45.471        0.024        0.009       17.086        3.616        0.045      328.968       -4.594      869.478
01/29/2022  07:37:00        9.979        9.835        1.017       11.092        9.288        9.519      123.040       86.272       90.616        0.025        0.015       14.011        5.361        0.146      328.968       -4.593      869.471
01/29/2022  07:38:00       15.249       13.921       -5.990       10.956        9.706        7.542      120.041       94.204       56.881        0.037        0.014       20.648        5.278        0.065      328.962       -4.604      869.471
01/29/2022  07:39:00       16.144       16.169       -4.842       11.040       10.070        8.835      121.873      101.402       78.051        0.042        0.015       22.849        6.346        0.077      329.003       -4.537      869.468
01/29/2022  07:40:00      -12.066        3.580       -4.139       10.988       10.740        7.765      120.746      115.353       60.291        0.024        0.015       12.586        6.381        0.257      328.952       -4.621      869.472
01/29/2022  07:41:00       -4.234       -2.396      -10.398        7.584       12.260        6.505       57.518      150.312       42.314        0.019        0.013        4.865        5.007        1.059      328.967       -4.595      869.472
01/29/2022  07:42:00       -9.273        7.204       -7.910        8.263        7.979       10.710       68.277       63.666      114.711        0.022        0.012       11.742        6.296        0.287      329.035       -4.485      869.475
01/29/2022  07:43:00      -10.896        1.688       -4.884       12.222       12.370        7.865      149.389      153.009       61.857        0.025        0.018       11.026        7.119        0.417      329.071       -4.426      869.483
01/29/2022  07:44:00       -2.298        0.425       -1.861        8.528       14.772       10.405       72.720      218.202      108.273        0.020        0.020        2.337        7.836       11.243      329.019       -4.511      869.485
01/29/2022  07:45:00       -6.985      -15.402       -8.123       11.520        9.207        9.691      132.716       84.762       93.919        0.033        0.016       16.912        4.885        0.083      329.050       -4.460      869.489
01/29/2022  07:46:00       -5.890       -9.579       -3.502       11.688        8.862        8.083      136.616       78.527       65.333        0.021        0.014       11.245        5.377        0.229      329.101       -4.378      869.495
01/29/2022  07:47:00        3.257       -2.391        3.813        6.834        6.557        6.697       46.700       42.998       44.855        0.008        0.007        4.040        1.122        0.077      329.149       -4.299      869.492
01/29/2022  07:48:00        5.316        1.374       -2.403        8.295        6.546        7.400       68.809       42.852       54.754        0.010        0.008        5.491        4.037        0.541      329.077       -4.416      869.490
01/29/2022  07:49:00       -6.129        5.795       -0.151       21.020        8.289        9.823      441.841       68.712       96.494        0.034        0.030        8.435       11.540        1.872      329.057       -4.449      869.495
01/29/2022  07:50:00      -35.792        5.721      -10.306       18.082       19.861       10.409      326.962      394.467      108.342        0.112        0.041       36.247        8.160        0.051      329.040       -4.477      869.496
01/29/2022  07:51:00        0.437        3.454       -0.944       18.568       11.707       12.229      344.765      137.052      149.544        0.032        0.032        3.482        9.359        7.226      329.110       -4.361      869.497
01/29/2022  07:52:00      -20.042       -4.565       -3.514       18.503       15.015       16.729      342.345      225.459      279.844        0.064        0.042       20.556       10.977        0.285      329.169       -4.266      869.503
01/29/2022  07:53:00        0.483       -3.652        1.045       11.517       13.261       16.944      132.652      175.867      287.096        0.031        0.030        3.684        9.718        6.958      329.357       -3.960      869.517
01/29/2022  07:54:00      -14.685       -0.499       -5.868       23.719       14.276       10.785      562.612      203.793      116.308        0.057        0.044       14.694       11.865        0.652      329.283       -4.080      869.537
01/29/2022  07:55:00       -7.348       -4.112       -0.804       16.738       22.591       14.580      280.177      510.344      212.586        0.054        0.050        8.420        8.083        0.922      329.371       -3.937      869.552
01/29/2022  07:56:00      -17.559        1.982        3.343       24.999       15.368       15.490      624.964      236.166      239.949        0.071        0.055       17.671       13.998        0.627      329.333       -3.999      869.563
01/29/2022  07:57:00      -25.931       -2.644       -8.730       25.154       23.102       17.372      632.741      533.681      301.790        0.111        0.073       26.065       10.939        0.176      329.211       -4.197      869.569
01/29/2022  07:58:00      -26.063       -1.254        2.315       27.341       13.284       16.633      747.523      176.469      276.645        0.094        0.060       26.094       12.019        0.212      329.290       -4.070      869.566
01/29/2022  07:59:00       -1.510       -2.257       -0.248       25.112       23.985       17.981      630.634      575.291      323.326        0.077        0.076        2.716        9.476       12.174      329.266       -4.109      869.569
01/29/2022  08:00:00      -29.719       -3.743       -0.198       36.375       12.005       16.349     1323.139      144.127      267.283        0.132        0.087       29.954       20.588        0.472      329.239       -4.152      869.568
01/29/2022  08:01:00      -18.520        0.495       -9.583       11.925       11.285       14.327      142.209      127.341      205.262        0.045        0.024       18.527        8.479        0.209      329.234       -4.162      869.565
01/29/2022  08:02:00      -16.562       21.920       -7.821       13.076       17.184       10.259      170.973      295.281      105.256        0.069        0.029       27.473        6.074        0.049      329.140       -4.313      869.573
01/29/2022  08:03:00      -18.386       25.144      -10.379       12.217       11.205       10.109      149.246      125.559      102.188        0.073        0.019       31.149        4.800        0.024      329.211       -4.200      869.571
01/29/2022  08:04:00      -24.990       21.761       -9.206       15.541       15.814       13.229      241.528      250.086      175.015        0.092        0.033       33.137       14.280        0.186      329.319       -4.023      869.579
01/29/2022  08:05:00       -6.886       13.340       -2.121        8.136       13.514        9.037       66.200      182.641       81.676        0.028        0.017       15.012        5.666        0.142      329.428       -3.843      869.577
01/29/2022  08:06:00       -8.781       27.902       -5.291        7.137        9.157        6.768       50.930       83.849       45.800        0.053        0.009       29.251        4.767        0.027      329.334       -3.996      869.584
01/29/2022  08:07:00      -13.535       22.765      -10.954       10.443        7.319        6.529      109.062       53.574       42.628        0.051        0.010       26.485        3.549        0.018      329.378       -3.924      869.595
01/29/2022  08:08:00       -2.657       15.720       -7.341        9.213        7.056        6.009       84.888       49.792       36.102        0.024        0.009       15.943        3.723        0.055      329.418       -3.858      869.606
01/29/2022  08:09:00       -5.938       12.442       -7.454        6.931        6.595        5.899       48.033       43.496       34.794        0.019        0.006       13.787        3.641        0.070      329.443       -3.818      869.612
01/29/2022  08:10:00       -9.312        7.430       -9.805       11.277       10.224        5.945      127.163      104.522       35.340        0.025        0.013       11.914        3.038        0.065      329.597       -3.565      869.619
01/29/2022  08:11:00        7.264       30.118       -8.356       23.340       22.203       16.711      544.767      492.989      279.271        0.117        0.066       30.981       16.010        0.267      329.566       -3.616      869.612
01/29/2022  08:12:00       14.901       31.665       -7.048       27.282       20.620       13.559      744.327      425.196      183.858        0.131        0.068       34.996       12.221        0.122      329.577       -3.599      869.604
01/29/2022  08:13:00      -17.969       -4.837       -7.204       12.250       10.961        9.185      150.051      120.146       84.361        0.038        0.018       18.609        6.466        0.121      329.659       -3.465      869.597
01/29/2022  08:14:00       -8.481       -2.479      -10.838       13.475       14.079       11.578      181.585      198.218      134.049        0.035        0.026        8.836        7.596        0.739      329.766       -3.291      869.592
01/29/2022  08:15:00       -7.977      -31.418       -8.415       20.174       20.797       16.951      406.984      432.504      287.323        0.112        0.056       32.415       14.825        0.209      329.837       -3.173      869.587
01/29/2022  08:16:00       28.936      -35.802      -14.616       27.712       27.544       19.366      767.932      758.675      375.061        0.212        0.095       46.034       15.922        0.120      329.638       -3.500      869.582
01/29/2022  08:17:00       34.197       -5.898      -22.023       25.824       22.949       20.936      666.885      526.652      438.333        0.166        0.082       34.701       13.568        0.153      329.716       -3.373      869.582
01/29/2022  08:18:00       34.433      -23.978      -18.843       24.003       28.842       24.792      576.121      831.860      614.619        0.207        0.101       41.960       18.596        0.196      329.787       -3.256      869.572
01/29/2022  08:19:00       23.592       -7.574      -14.949       32.634       29.210       24.283     1064.975      853.228      589.662        0.167        0.125       24.778       19.963        0.649      329.829       -3.187      869.562
01/29/2022  08:20:00        9.846       -7.763       -2.539       22.908       26.704       23.565      524.772      713.096      555.292        0.098        0.090       12.538       16.398        1.711      329.993       -2.919      869.561
01/29/2022  08:21:00       28.185        6.370      -10.063       27.349       36.602       27.948      747.988     1339.717      781.094        0.190        0.143       28.896       15.444        0.286      329.798       -3.238      869.562
01/29/2022  08:22:00       39.799      -13.595      -14.370       37.869       31.812       23.924     1434.030     1011.996      572.356        0.250        0.151       42.057       19.893        0.224      329.778       -3.271      869.562
01/29/2022  08:23:00       41.414       12.187      -17.854       32.872       48.349       26.169     1080.550     2337.593      684.832        0.314        0.205       43.170       12.209        0.080      329.846       -3.161      869.564
01/29/2022  08:24:00       46.275       -6.060      -17.534       39.316       37.445       25.860     1545.774     1402.118      668.727        0.305        0.181       46.670       21.639        0.215      329.955       -2.981      869.567
01/29/2022  08:25:00       39.076       19.287      -16.896       32.732       42.024       20.058     1071.414     1766.013      402.305        0.271        0.162       43.576       14.121        0.105      329.879       -3.104      869.587
01/29/2022  08:26:00       34.769      -31.884      -22.169       25.966       61.802       22.020      674.236     3819.499      484.881        0.385        0.249       47.175       22.317        0.224      329.886       -3.094      869.590
01/29/2022  08:27:00       62.102       25.225      -12.650       38.882       32.823       16.877     1511.785     1077.350      284.844        0.376        0.144       67.030        5.562        0.007      329.830       -3.185      869.598
01/29/2022  08:28:00       40.786       -0.409      -13.296       31.091       33.103       18.064      966.671     1095.829      326.322        0.211        0.119       40.788        9.620        0.056      330.024       -2.869      869.598
01/29/2022  08:29:00       70.954       -5.474      -15.111       32.179       37.954       19.171     1035.498     1440.539      367.528        0.407        0.142       71.164       14.271        0.040      329.852       -3.148      869.597
01/29/2022  08:30:00       24.672       -3.215       -7.946       39.383       47.325       32.603     1550.988     2239.649     1062.967        0.277        0.243       24.881       19.212        0.596      330.051       -2.823      869.600
01/29/2022  08:31:00       50.847       -2.510      -23.058       35.902       38.920       27.075     1288.957     1514.762      733.078        0.333        0.177       50.909       10.983        0.047      330.001       -2.905      869.609
01/29/2022  08:32:00       56.759      -20.861      -11.338       36.643       38.787       30.392     1342.724     1504.466      923.695        0.378        0.189       60.472       25.782        0.182      329.999       -2.908      869.615
01/29/2022  08:33:00       20.628      -15.140      -25.803       28.204       39.566       25.278      795.478     1565.471      638.998        0.216        0.150       25.588       23.066        0.813      330.263       -2.476      869.620
01/29/2022  08:34:00       49.854      -32.354      -10.940       38.717       25.306       25.458     1499.012      640.409      648.091        0.322        0.139       59.433       21.673        0.133      330.164       -2.638      869.614
01/29/2022  08:35:00       23.792       -6.100       -0.328       31.195       27.739       24.268      973.129      769.427      588.929        0.147        0.117       24.561       22.075        0.808      330.232       -2.527      869.605
01/29/2022  08:36:00       58.302      -76.325      -33.582       31.864       32.560       27.651     1015.344     1060.135      764.556        0.660        0.142       96.045       18.993        0.039      330.122       -2.708      869.596
01/29/2022  08:37:00       62.186      -41.454      -33.292       48.639       41.308       31.961     2365.758     1706.349     1021.482        0.589        0.255       74.736       27.889        0.139      330.171       -2.626      869.594
01/29/2022  08:38:00       66.247      -17.795      -28.001       52.839       42.463       19.530     2791.960     1803.072      381.431        0.523        0.249       68.596       10.328        0.023      330.235       -2.522      869.593
01/29/2022  08:39:00       67.573      -15.854      -28.681       44.508       46.129       28.168     1980.936     2127.928      793.456        0.527        0.245       69.409       16.999        0.060      330.123       -2.706      869.582
01/29/2022  08:40:00       93.213      -33.052      -35.676       51.050       42.314       31.003     2606.093     1790.438      961.177        0.820        0.268       98.900       21.262        0.046      330.031       -2.858      869.567
01/29/2022  08:41:00       78.270      -30.313       -6.241       51.645       44.165       34.902     2667.244     1950.543     1218.167        0.646        0.292       83.935       37.356        0.198      329.960       -2.972      869.554
01/29/2022  08:42:00       87.040        9.146      -19.648       69.230       55.288       36.828     4792.840     3056.724     1356.276        0.862        0.460       87.519       29.062        0.110      330.115       -2.720      869.541
01/29/2022  08:43:00       97.262      -21.024      -12.944       46.558       35.218       34.478     2167.662     1240.335     1188.713        0.733        0.230       99.509       22.888        0.053      329.995       -2.914      869.541
01/29/2022  08:44:00       67.687       -9.810      -10.158       55.349       42.986       31.995     3063.543     1847.784     1023.712        0.536        0.297       68.394       29.428        0.185      330.206       -2.569      869.535
01/29/2022  08:45:00       76.110       -4.604      -13.700       49.342       50.935       36.372     2434.610     2594.350     1322.891        0.618        0.318       76.249       27.956        0.134      330.219       -2.549      869.530
01/29/2022  08:46:00       69.500      -34.127      -29.244       52.027       50.967       34.231     2706.855     2597.661     1171.738        0.666        0.324       77.426       19.943        0.066      330.170       -2.629      869.529
01/29/2022  08:47:00       87.668      -22.846      -39.809       41.425       46.300       36.348     1716.007     2143.710     1321.141        0.749        0.259       90.596       27.565        0.093      330.197       -2.583      869.528
01/29/2022  08:48:00       47.122      -25.836      -38.569       46.630       50.774       30.396     2174.383     2577.969      923.934        0.502        0.284       53.740       11.035        0.042      330.328       -2.369      869.528
01/29/2022  08:49:00       41.585      -57.156      -33.718       35.541       55.639       31.457     1263.192     3095.723      989.556        0.574        0.267       70.684       18.633        0.069      330.413       -2.230      869.539
01/29/2022  08:50:00       92.587      -29.271      -22.675       45.047       45.172       27.715     2029.246     2040.554      768.143        0.739        0.242       97.104       17.444        0.032      330.255       -2.489      869.559
01/29/2022  08:51:00       49.185      -15.809       -4.237       67.114       23.145       25.792     4504.307      535.687      665.208        0.420        0.285       51.664       28.434        0.303      330.185       -2.604      869.574
01/29/2022  08:52:00       51.604       -3.586      -17.567       37.453       54.538       32.974     1402.698     2974.385     1087.252        0.422        0.273       51.729       22.687        0.192      330.337       -2.354      869.587
01/29/2022  08:53:00       44.665      -59.441      -26.303       30.536       37.778       17.980      932.421     1427.172      323.297        0.445        0.134       74.352       13.608        0.033      330.067       -2.798      869.595
01/29/2022  08:54:00       86.661        2.734      -26.869       43.764       27.158       22.099     1915.290      737.550      488.357        0.569        0.157       86.704       17.169        0.039      330.123       -2.705      869.604
01/29/2022  08:55:00       22.539       13.504      -12.313       31.166       16.192       17.361      971.350      262.176      301.389        0.119        0.077       26.275       19.263        0.537      330.065       -2.800      869.609
01/29/2022  08:56:00       53.929      -48.442      -19.213       53.735       61.154       30.003     2887.407     3739.850      900.180        0.657        0.376       72.491       30.335        0.175      330.301       -2.414      869.618
01/29/2022  08:57:00       37.482       -6.118      -12.893       35.282       51.612       24.334     1244.838     2663.781      592.152        0.305        0.225       37.978       18.052        0.226      330.340       -2.350      869.628
01/29/2022  08:58:00       58.727       29.956      -18.705       26.474       42.733       26.977      700.856     1826.123      727.780        0.397        0.163       65.925       16.486        0.063      330.248       -2.500      869.633
01/29/2022  08:59:00       88.294       35.959      -22.495       56.700       31.849       21.708     3214.893     1014.390      471.227        0.715        0.235       95.336       20.034        0.044      330.416       -2.224      869.640
01/29/2022  09:00:00       88.173       35.280      -10.209       40.679       39.194       24.677     1654.753     1536.204      608.976        0.646        0.190       94.969       11.834        0.016      330.367       -2.306      869.650
01/29/2022  09:01:00      125.604       63.585      -23.357       28.251       33.173       19.361      798.117     1100.442      374.859        1.132        0.114      140.782       12.166        0.007      330.111       -2.725      869.651
01/29/2022  09:02:00      108.729       64.641      -23.481       42.056       34.578       27.519     1768.696     1195.670      757.319        1.014        0.186      126.493       18.545        0.021      330.236       -2.520      869.655
01/29/2022  09:03:00       99.528       63.698      -22.295       34.095       25.654       17.335     1162.451      658.140      300.492        0.829        0.106      118.166        7.794        0.004      330.286       -2.438      869.660
01/29/2022  09:04:00      120.124       41.121      -32.950       35.572       33.055       25.627     1265.362     1092.662      656.746        1.011        0.151      126.967       18.612        0.021      330.473       -2.131      869.657
01/29/2022  09:05:00       99.977       24.698      -16.064       43.238       45.900       29.362     1869.487     2106.793      862.099        0.785        0.242      102.982       19.054        0.034      330.550       -2.006      869.659
01/29/2022  09:06:00       81.912       59.651      -22.319       24.415       30.488       23.182      596.091      929.521      537.411        0.641        0.103      101.330       20.163        0.040      330.409       -2.236      869.663
01/29/2022  09:07:00       27.660       -8.306      -11.225       40.978       62.278       36.346     1679.189     3878.558     1321.050        0.392        0.344       28.880       22.315        0.597      330.765       -1.652      869.668
01/29/2022  09:08:00       60.182      -49.945      -28.199       42.480       47.555       34.816     1804.542     2261.441     1212.124        0.609        0.264       78.207       25.062        0.103      330.640       -1.857      869.674
01/29/2022  09:09:00       78.905      -22.905      -28.653       39.927       45.077       33.140     1594.138     2031.942     1098.229        0.615        0.236       82.162       28.279        0.118      330.616       -1.897      869.676
01/29/2022  09:10:00       75.089      -19.829      -32.157       44.560       46.074       32.224     1985.617     2122.853     1038.410        0.611        0.257       77.663       25.119        0.105      330.570       -1.973      869.692
01/29/2022  09:11:00       89.320      -55.495      -32.660       32.540       36.629       25.784     1058.852     1341.671      664.797        0.759        0.153      105.156       19.589        0.035      330.427       -2.207      869.705
01/29/2022  09:12:00       86.544      -66.997      -30.431       47.918       33.304       34.237     2296.108     1109.159     1172.179        0.874        0.229      109.447       31.098        0.081      330.340       -2.350      869.706
01/29/2022  09:13:00       93.059      -84.500      -44.900       39.490       22.849       26.094     1559.427      522.071      680.873        1.029        0.138      125.699        8.802        0.005      330.391       -2.267      869.717
01/29/2022  09:14:00       89.382      -58.392      -39.389       32.641       43.655       22.655     1065.456     1905.730      513.239        0.822        0.174      106.765       14.822        0.019      330.660       -1.826      869.725
01/29/2022  09:15:00       91.334      -29.716      -37.474       37.541       47.924       28.430     1409.363     2296.752      808.250        0.757        0.226       96.046       23.262        0.059      330.691       -1.774      869.728
01/29/2022  09:16:00       70.955      -14.194      -22.260       33.554       42.609       31.352     1125.840     1815.503      982.964        0.483        0.196       72.361       16.272        0.051      330.598       -1.927      869.741
01/29/2022  09:17:00       34.692      -43.219      -12.868       25.437       39.737       28.947      647.020     1579.035      837.947        0.315        0.153       55.421       21.322        0.148      330.640       -1.857      869.744
01/29/2022  09:18:00       37.171      -49.970      -30.153       31.994       38.455       20.331     1023.624     1478.794      413.339        0.385        0.146       62.279       10.199        0.027      330.651       -1.840      869.743
01/29/2022  09:19:00       62.131      -36.284      -20.309       38.656       27.224       19.166     1494.292      741.168      367.325        0.410        0.130       71.950       14.009        0.038      330.611       -1.905      869.744
01/29/2022  09:20:00       59.252       30.580      -22.239       30.638       21.562       17.543      938.658      464.918      307.757        0.333        0.086       66.678       12.217        0.034      330.483       -2.114      869.753
01/29/2022  09:21:00       31.179       36.732       -4.755       42.913       30.373       15.226     1841.514      922.510      231.829        0.267        0.150       48.181       19.625        0.166      330.751       -1.676      869.762
01/29/2022  09:22:00        8.057       29.872        1.352       20.398       20.316       18.438      416.080      412.740      339.947        0.106        0.058       30.940        8.483        0.075      330.996       -1.273      869.765
01/29/2022  09:23:00       31.634      -42.018      -23.981       38.712       28.948       30.357     1498.654      837.958      921.568        0.330        0.163       52.594       23.777        0.204      331.046       -1.192      869.761
01/29/2022  09:24:00       46.912      -17.584      -19.473       27.245       23.243       26.223      742.291      540.221      687.635        0.243        0.099       50.099       20.842        0.173      330.919       -1.399      869.760
01/29/2022  09:25:00       36.287      -34.422      -14.206       32.786       19.239       21.764     1074.903      370.157      473.693        0.231        0.096       50.016       11.131        0.050      330.854       -1.506      869.753
01/29/2022  09:26:00       35.054      -21.916      -14.278       34.746       56.289       27.884     1207.292     3168.493      777.515        0.353        0.258       41.342       16.800        0.165      330.970       -1.316      869.754
01/29/2022  09:27:00       63.512       64.790      -24.427       30.032       24.812       18.529      901.941      615.624      343.331        0.534        0.093       90.727       10.285        0.013      330.822       -1.560      869.742
01/29/2022  09:28:00       20.810       34.564       -8.609       26.006       22.142       20.257      676.307      490.247      410.332        0.164        0.079       40.345       15.293        0.144      331.169       -0.989      869.737
01/29/2022  09:29:00      -13.138       36.931       -7.640       19.458       21.250       13.722      378.631      451.551      188.293        0.131        0.051       39.198        6.840        0.030      331.088       -1.123      869.729
01/29/2022  09:30:00        1.626       21.353       -3.122       22.505       22.932       24.743      506.455      525.895      612.196        0.106        0.082       21.414        8.702        0.165      331.233       -0.883      869.725
01/29/2022  09:31:00      -43.263      -13.864       -6.784       22.798       10.285       13.786      519.738      105.787      190.060        0.146        0.041       45.430        3.040        0.004      330.918       -1.401      869.723
01/29/2022  09:32:00      -31.248       -8.746      -14.844       20.422       14.812       17.568      417.063      219.393      308.643        0.111        0.047       32.449       11.601        0.128      330.985       -1.291      869.730
01/29/2022  09:33:00      -16.203        3.205        5.529       17.582       17.355       20.258      309.132      301.208      410.371        0.066        0.051       16.517       11.535        0.488      331.302       -0.771      869.731
01/29/2022  09:34:00       23.147      -38.560      -19.459       30.818       47.201       33.659      949.760     2227.965     1132.903        0.336        0.216       44.974       20.866        0.215      331.444       -0.536      869.728
01/29/2022  09:35:00       58.087       73.744       -7.558       28.509       21.244       21.943      812.768      451.302      481.498        0.531        0.087       93.874       13.729        0.021      331.072       -1.148      869.740
01/29/2022  09:36:00       21.715       42.718      -24.846       21.482       27.180       27.010      461.468      738.759      729.514        0.242        0.096       47.921       18.299        0.146      331.113       -1.082      869.745
01/29/2022  09:37:00      -51.112       29.299      -13.156       20.067       16.609       18.633      402.691      275.844      347.207        0.233        0.051       58.914       15.982        0.074      330.894       -1.441      869.748
01/29/2022  09:38:00      -10.670       62.153       -9.111       19.588       20.122       21.150      383.686      404.901      447.311        0.265        0.062       63.062       14.827        0.055      330.985       -1.292      869.761
01/29/2022  09:39:00       29.047       88.712      -19.544       36.431       22.366       26.949     1327.211      500.245      726.226        0.582        0.128       93.346       22.934        0.060      331.047       -1.189      869.751
01/29/2022  09:40:00      -30.787       72.528        6.644       25.870       21.390       17.330      669.233      457.540      300.336        0.384        0.071       78.792        7.906        0.010      331.291       -0.788      869.748
01/29/2022  09:41:00      -33.395       25.714      -11.243       32.893       43.587       22.043     1081.965     1899.831      485.882        0.268        0.173       42.148       14.944        0.126      331.391       -0.624      869.743
01/29/2022  09:42:00      -63.418       31.962        7.011       41.226       28.848       34.109     1699.558      832.212     1163.453        0.439        0.185       71.017       28.755        0.164      331.129       -1.056      869.746
01/29/2022  09:43:00      -20.948        6.954       -5.164       23.047       16.644       13.088      531.156      277.014      171.308        0.075        0.049       22.072        8.754        0.157      331.339       -0.708      869.735
01/29/2022  09:44:00      -16.628        2.952      -16.003       14.029        7.459       11.707      196.826       55.643      137.052        0.047        0.019       16.888        7.756        0.211      331.390       -0.625      869.734
01/29/2022  09:45:00      -16.907        8.843      -12.094       15.967       13.658        9.661      254.947      186.539       93.342        0.052        0.027       19.081        8.149        0.182      331.507       -0.433      869.736
01/29/2022  09:46:00      -19.852       15.491      -14.689       19.676       11.913       16.764      387.147      141.922      281.031        0.083        0.041       25.181        4.694        0.035      331.434       -0.553      869.738
01/29/2022  09:47:00      -15.936      -65.152      -19.660       29.397       33.649       31.172      864.160     1132.230      971.723        0.393        0.148       67.073       19.929        0.088      331.704       -0.109      869.746
01/29/2022  09:48:00       43.583      -38.629      -13.635       26.442       26.573       24.958      699.199      706.130      622.909        0.280        0.101       58.238       14.354        0.061      331.589       -0.297      869.755
01/29/2022  09:49:00       15.444      -56.219      -16.402       23.684       20.105       20.730      560.926      404.208      429.747        0.253        0.070       58.302       15.522        0.071      331.677       -0.154      869.768
01/29/2022  09:50:00       -1.343      -64.725      -11.656       27.521       28.174       24.554      757.418      793.776      602.893        0.324        0.108       64.739        6.678        0.011      332.030        0.428      869.781
01/29/2022  09:51:00       -4.302      -57.088      -24.182       30.614       32.774       21.488      937.208     1074.103      461.725        0.317        0.124       57.250       13.854        0.059      332.103        0.548      869.790
01/29/2022  09:52:00        7.781      -41.808      -10.257       32.880       32.832       24.307     1081.073     1077.959      590.841        0.233        0.137       42.526        9.206        0.047      331.941        0.282      869.793
01/29/2022  09:53:00       -0.803      -39.768       -5.508       26.739       30.256       22.820      714.998      915.400      520.759        0.188        0.108       39.776       15.525        0.152      332.144        0.617      869.800
01/29/2022  09:54:00        5.853       10.843       -5.985       26.389       18.347       20.169      696.364      336.626      406.777        0.081        0.072       12.322        6.350        0.266      331.994        0.368      869.803
01/29/2022  09:55:00       -2.617       -5.297       -7.752       16.652       17.516       13.202      277.284      306.821      174.305        0.043        0.038        5.908        7.970        1.820      332.195        0.699      869.796
01/29/2022  09:56:00       19.679       13.092      -14.558       37.767       26.129       18.112     1426.313      682.716      328.048        0.160        0.122       23.636       18.319        0.601      332.055        0.469      869.797
01/29/2022  09:57:00       58.870      -49.705      -28.515       31.064       24.301       14.862      964.948      590.542      220.886        0.426        0.089       77.047       11.368        0.022      331.762       -0.013      869.796
01/29/2022  09:58:00       65.404      -19.540      -25.326       37.745       32.984       26.649     1424.677     1087.968      710.171        0.426        0.161       68.260       18.290        0.072      332.051        0.462      869.809
01/29/2022  09:59:00       46.159       10.594      -21.798       41.729       43.019       28.622     1741.299     1850.608      819.234        0.356        0.221       47.359       18.472        0.152      332.022        0.415      869.808
01/29/2022  10:00:00       -1.954      -16.690      -14.933       40.700       25.833       18.166     1656.525      667.357      329.995        0.158        0.133       16.804       16.688        0.986      332.041        0.445      869.812
01/29/2022  10:01:00       28.366      -30.243      -23.987       24.832       34.287       27.021      616.642     1175.607      730.116        0.241        0.126       41.464       21.186        0.261      331.933        0.269      869.826
01/29/2022  10:02:00       14.919      -18.936      -15.015       33.088       39.179       29.358     1094.811     1535.006      861.911        0.215        0.175       24.107       20.310        0.710      332.334        0.928      869.834
01/29/2022  10:03:00       48.830        0.123      -28.651       48.248       57.206       32.452     2327.859     3272.542     1053.134        0.493        0.333       48.830       16.606        0.116      332.198        0.706      869.838
01/29/2022  10:04:00       46.715       49.966      -32.504       26.468       16.121       18.443      700.562      259.878      340.157        0.352        0.065       68.403       13.600        0.040      331.610       -0.262      869.853
01/29/2022  10:05:00        0.713       32.691       -3.006       17.634       24.190       13.096      310.955      585.149      171.512        0.107        0.053       32.699        7.435        0.052      332.116        0.569      869.852
01/29/2022  10:06:00       35.454       -2.791      -13.472       40.211       33.827       21.650     1616.926     1144.282      468.704        0.234        0.161       35.564       13.961        0.154      332.309        0.889      869.856
01/29/2022  10:07:00       17.097      -25.506      -23.013       21.077       25.787       22.589      444.239      664.984      510.241        0.155        0.081       30.706       14.407        0.220      332.397        1.031      869.855
01/29/2022  10:08:00       48.280       35.241      -10.401       35.822       46.755       26.640     1283.180     2186.007      709.702        0.393        0.209       59.773       17.354        0.084      332.461        1.139      869.841
01/29/2022  10:09:00      106.338       57.851      -30.906       22.827       23.987       20.994      521.072      575.381      440.736        0.857        0.077      121.056       12.604        0.011      332.037        0.441      869.840
01/29/2022  10:10:00       74.836       14.353      -18.752       37.471       60.213       23.452     1404.089     3625.657      549.996        0.587        0.279       76.200       10.818        0.020      332.101        0.545      869.827
01/29/2022  10:11:00       86.807        8.678      -24.440       67.685       70.681       37.157     4581.245     4995.826     1380.660        0.958        0.548       87.239       27.531        0.100      332.351        0.956      869.823
01/29/2022  10:12:00       71.348      -19.966      -27.186       62.138       98.574       36.477     3861.088     9716.822     1330.578        1.057        0.745       74.089       32.538        0.193      332.304        0.880      869.832
01/29/2022  10:13:00       78.499     -115.169      -35.008       34.287       38.846       28.416     1175.632     1508.990      807.471        1.207        0.175      139.377       19.488        0.020      332.117        0.570      869.837
01/29/2022  10:14:00       55.032      -26.773      -23.975       44.778       44.392       35.572     2005.059     1970.635     1265.345        0.478        0.262       61.199       24.167        0.156      332.471        1.157      869.841
01/29/2022  10:15:00       26.844      -15.130      -31.832       37.763       40.564       27.684     1426.030     1645.405      766.423        0.290        0.192       30.815       18.459        0.359      332.602        1.372      869.846
01/29/2022  10:16:00       15.506      -20.760      -22.739       35.535       37.105       28.787     1262.752     1376.793      828.693        0.233        0.173       25.912       20.038        0.598      332.971        1.983      869.843
01/29/2022  10:17:00       17.292      -24.621      -19.649       40.802       52.014       32.106     1664.765     2705.429     1030.822        0.335        0.270       30.087       22.591        0.564      332.831        1.750      869.838
01/29/2022  10:18:00       87.630      -58.310      -46.534       44.840       50.433       29.488     2010.624     2543.482      869.521        0.933        0.271      105.257       22.837        0.047      332.444        1.110      869.839
01/29/2022  10:19:00       75.943      -33.660      -49.242       28.413       39.347       29.003      807.322     1548.193      841.152        0.626        0.160       83.069       10.654        0.016      332.398        1.035      869.841
01/29/2022  10:20:00       29.000      -62.621      -25.021       28.635       42.314       21.891      819.947     1790.489      479.210        0.424        0.154       69.010       16.122        0.055      332.590        1.352      869.841
01/29/2022  10:21:00        0.607      -47.032       -5.513       34.463       44.664       23.887     1187.666     1994.875      570.603        0.300        0.188       47.036       17.528        0.139      332.843        1.771      869.831
01/29/2022  10:22:00      -31.138       -6.302        1.645       38.387       37.673       31.121     1473.572     1419.228      968.546        0.244        0.193       31.769       10.823        0.116      332.771        1.650      869.827
01/29/2022  10:23:00      -37.873      -40.656        1.593       31.176       40.372       40.706      971.956     1629.866     1656.970        0.367        0.213       55.563       15.149        0.074      332.723        1.572      869.818
01/29/2022  10:24:00       61.654      -69.767      -36.689       37.586       35.511       27.485     1412.738     1260.999      755.420        0.672        0.171       93.106       15.012        0.026      332.501        1.203      869.816
01/29/2022  10:25:00       43.449      -52.249      -39.126       42.556       51.938       27.974     1811.038     2697.531      782.564        0.572        0.265       67.954       14.042        0.043      332.825        1.741      869.806
01/29/2022  10:26:00       70.295     -132.991      -33.320       31.736       38.456       23.962     1007.152     1478.892      574.187        1.340        0.153      150.426       23.163        0.024      332.328        0.920      869.800
01/29/2022  10:27:00       88.891     -101.039      -42.072       39.056       60.475       31.515     1525.352     3657.206      993.195        1.303        0.309      134.576       31.507        0.055      332.491        1.187      869.793
01/29/2022  10:28:00       96.189      -77.333      -44.416       31.892       30.015       29.807     1017.127      900.904      888.447        1.001        0.140      123.421       13.146        0.011      332.503        1.207      869.782
01/29/2022  10:29:00       72.323      -60.256      -33.804       29.607       43.342       21.656      876.557     1878.540      468.967        0.661        0.161       94.135       16.117        0.029      332.381        1.005      869.774
01/29/2022  10:30:00       56.081      -24.101      -23.335       42.151       47.484       29.183     1776.736     2254.701      851.673        0.458        0.244       61.041       23.326        0.146      333.101        2.196      869.763
01/29/2022  10:31:00       89.229        7.198      -23.828       63.530       62.816       34.336     4036.107     3945.812     1178.989        0.887        0.458       89.519       19.331        0.047      332.800        1.698      869.760
01/29/2022  10:32:00       41.732      -23.169      -30.796       57.055       47.005       39.029     3255.233     2209.460     1523.262        0.511        0.349       47.732       24.195        0.257      332.964        1.969      869.753
01/29/2022  10:33:00       30.595      -52.975      -22.738       67.797       31.277       22.652     4596.463      978.236      513.106        0.517        0.304       61.175       22.687        0.138      333.012        2.049      869.757
01/29/2022  10:34:00      113.696      -50.894      -30.201       45.288       39.827       19.919     2051.041     1586.227      396.765        1.023        0.202      124.567       12.275        0.010      332.689        1.515      869.762
01/29/2022  10:35:00       79.985     -109.009      -30.128       46.354      117.254       30.752     2148.677    13748.586      945.704        1.801        0.842      135.206       39.245        0.084      332.742        1.600      869.756
01/29/2022  10:36:00      105.015     -191.031      -39.634       34.481       47.315       19.372     1188.921     2238.755      375.267        2.645        0.190      217.993       15.720        0.005      332.326        0.912      869.752
01/29/2022  10:37:00       32.974     -119.474      -31.336       40.555       32.651       24.021     1644.677     1066.097      577.008        0.981        0.164      123.941       10.704        0.007      332.462        1.140      869.760
01/29/2022  10:38:00       -5.411      -47.540      -16.184       24.595       26.191       33.848      604.914      685.977     1145.720        0.249        0.122       47.847       12.329        0.066      332.789        1.681      869.749
01/29/2022  10:39:00       38.253      -21.944      -25.286       73.054       29.211       28.421     5336.932      853.302      807.725        0.479        0.350       44.101       24.111        0.299      332.930        1.913      869.743
01/29/2022  10:40:00       19.149        2.935      -14.702       27.999       35.723       21.854      783.972     1276.106      477.607        0.156        0.127       19.372       19.584        1.022      333.056        2.122      869.734
01/29/2022  10:41:00       67.352       22.391      -18.990       51.079       56.012       27.582     2609.068     3137.341      760.746        0.595        0.325       70.977       24.743        0.122      333.074        2.151      869.726
01/29/2022  10:42:00       75.179        3.663      -26.206       72.023       86.243       57.930     5187.304     7437.888     3355.863        1.116        0.799       75.268       40.883        0.295      333.067        2.139      869.698
01/29/2022  10:43:00       63.819       -5.131      -27.652       59.534       60.999       43.196     3544.298     3720.866     1865.872        0.700        0.457       64.025       31.073        0.236      332.929        1.912      869.686
01/29/2022  10:44:00       23.291       16.337      -10.617       59.223       52.346       29.825     3507.412     2740.113      889.526        0.403        0.357       28.450       20.973        0.543      333.043        2.101      869.661
01/29/2022  10:45:00       46.968      -14.808      -21.380       64.106       75.225       36.387     4109.583     5658.792     1323.980        0.699        0.555       49.247       27.745        0.317      333.408        2.705      869.646
01/29/2022  10:46:00       46.641      -11.214      -13.443       54.532       52.721       37.561     2973.765     2779.553     1410.830        0.482        0.358       47.970       18.797        0.154      333.240        2.426      869.627
01/29/2022  10:47:00       66.405       10.333      -21.090       53.953       53.566       27.082     2910.962     2869.313      733.409        0.574        0.326       67.204       11.372        0.029      332.961        1.966      869.617
01/29/2022  10:48:00        9.568        1.472      -12.694       74.883       59.723       30.734     5607.526     3566.795      944.587        0.519        0.506        9.681       23.343        5.814      333.117        2.223      869.594
01/29/2022  10:49:00      -26.006      -33.951       -8.468       46.303       36.438       17.123     2143.923     1327.720      293.187        0.283        0.188       42.767       11.220        0.069      333.176        2.321      869.578
01/29/2022  10:50:00       75.321     -145.692      -35.854       29.845       57.152       27.067      890.701     3266.348      732.638        1.654        0.244      164.010       25.329        0.024      332.992        2.016      869.560
01/29/2022  10:51:00       84.724      -74.340      -57.562       42.112       68.901       38.224     1773.410     4747.330     1461.095        1.200        0.399      112.715       27.926        0.061      333.275        2.485      869.547
01/29/2022  10:52:00      106.718     -121.101      -49.231       44.203       39.055       24.353     1953.900     1525.287      593.047        1.627        0.204      161.413       10.224        0.004      332.923        1.901      869.531
01/29/2022  10:53:00      109.934     -122.426      -47.805       41.544       71.887       22.676     1725.898     5167.788      514.188        1.838        0.370      164.541       21.299        0.017      332.910        1.879      869.520
01/29/2022  10:54:00       90.072      -70.726      -37.378       55.918       58.135       32.436     3126.770     3379.705     1052.073        1.103        0.378      114.522       20.726        0.033      333.113        2.217      869.504
01/29/2022  10:55:00       30.123      -46.714      -29.003       43.071       87.947       29.788     1855.121     7734.731      887.348        0.720        0.524       55.584       26.545        0.228      333.422        2.728      869.480
01/29/2022  10:56:00      108.007      -57.934      -37.727       37.338       42.052       27.712     1394.102     1768.366      767.973        1.019        0.197      122.563       20.286        0.027      333.164        2.300      869.464
01/29/2022  10:57:00       85.683      -25.172      -20.100       45.767       44.740       30.647     2094.625     2001.693      939.256        0.671        0.252       89.304       21.539        0.058      333.253        2.449      869.451
01/29/2022  10:58:00       34.517      -57.835      -29.282       36.589       57.427       24.370     1338.753     3297.899      593.893        0.531        0.262       67.352       17.407        0.067      333.224        2.401      869.435
01/29/2022  10:59:00        0.679      -36.880      -13.021       16.734       30.611       17.931      280.028      937.020      321.516        0.153        0.077       36.887        4.900        0.018      333.503        2.861      869.419
01/29/2022  11:00:00      -29.408        0.780       -7.693       29.412       25.353       17.896      865.092      642.771      320.259        0.138        0.091       29.418       14.526        0.244      333.572        2.975      869.397
01/29/2022  11:01:00      -32.667       21.630       -4.858       34.382       28.083       21.098     1182.103      788.649      445.110        0.199        0.121       39.179       18.209        0.216      333.312        2.545      869.377
01/29/2022  11:02:00        3.533       29.927        3.390       25.527       24.885       18.091      651.609      619.285      327.283        0.126        0.080       30.135        9.600        0.101      333.452        2.777      869.356
01/29/2022  11:03:00      -34.405       20.777        3.884       31.173       18.572       13.144      971.726      344.901      172.759        0.156        0.074       40.192        7.614        0.036      333.330        2.575      869.340
01/29/2022  11:04:00       27.477       51.210       -4.408       51.426       19.969       22.001     2644.668      398.765      484.036        0.346        0.176       58.116       22.057        0.144      333.118        2.224      869.334
01/29/2022  11:05:00        8.799       16.746      -10.524       37.681       29.888       20.437     1419.865      893.322      417.684        0.160        0.137       18.917       15.104        0.637      333.610        3.039      869.320
01/29/2022  11:06:00      -18.213       -2.425      -14.808       23.971       14.431       17.949      574.616      208.256      322.160        0.083        0.055       18.374        9.967        0.294      333.655        3.113      869.305
01/29/2022  11:07:00       -6.710       35.219      -18.067       30.503       28.405       13.794      930.441      806.866      190.269        0.177        0.096       35.853        7.710        0.046      333.386        2.668      869.297
01/29/2022  11:08:00      -17.396       -1.779       -6.202       24.879       19.687       18.874      618.961      387.568      356.241        0.085        0.068       17.486        6.567        0.141      333.859        3.451      869.277
01/29/2022  11:09:00        2.270       27.782       15.365       26.593       27.503       25.605      707.200      756.424      655.638        0.157        0.106       27.875       15.313        0.302      333.743        3.258      869.252
01/29/2022  11:10:00      -33.395      -31.452      -17.214       30.529       30.837       19.268      932.024      950.933      371.249        0.233        0.113       45.874       12.324        0.072      333.636        3.081      869.218
01/29/2022  11:11:00        7.324      -31.786       -2.248       53.232       36.349       23.543     2833.659     1321.275      554.272        0.289        0.235       32.619       26.296        0.650      333.697        3.182      869.187
01/29/2022  11:12:00       63.146      -58.536      -22.681       35.441       43.431       27.992     1256.070     1886.246      783.572        0.593        0.196       86.104       20.254        0.055      333.726        3.230      869.166
01/29/2022  11:13:00       39.927      -36.287      -13.630       49.066       46.635       41.188     2407.457     2174.784     1696.452        0.469        0.314       53.953       30.610        0.322      333.803        3.358      869.144
01/29/2022  11:14:00       97.266       14.224      -23.690       54.824       38.606       30.301     3005.640     1490.455      918.175        0.782        0.271       98.300       12.109        0.015      333.570        2.971      869.122
01/29/2022  11:15:00       91.786       69.404      -31.416       39.584       44.736       32.649     1566.905     2001.340     1065.947        0.943        0.232      115.072       17.277        0.023      333.329        2.575      869.115
01/29/2022  11:16:00       77.066       70.633      -13.219       29.082       26.333       17.174      845.761      693.421      294.956        0.647        0.092      104.537       12.421        0.014      333.342        2.596      869.074
01/29/2022  11:17:00       47.257       49.930      -20.770       31.067       21.050       20.739      965.138      443.102      430.090        0.350        0.092       68.747       15.389        0.050      333.507        2.868      869.050
01/29/2022  11:18:00       19.371       -3.529      -17.676       33.674       31.022       18.500     1133.938      962.379      342.264        0.157        0.122       19.690        4.874        0.061      333.809        3.368      869.021
01/29/2022  11:19:00      -27.963      -42.897      -16.111       50.856       38.919       31.531     2586.359     1514.723      994.206        0.399        0.255       51.206       17.404        0.116      333.834        3.409      869.003
01/29/2022  11:20:00       52.990     -122.708      -33.069       41.782       49.968       33.747     1745.726     2496.799     1138.828        1.217        0.269      133.661       19.658        0.022      333.616        3.049      868.989
01/29/2022  11:21:00       12.636       26.630      -18.187       44.021       55.479       33.420     1937.839     3077.972     1116.881        0.367        0.307       29.476       22.838        0.600      334.046        3.761      868.975
01/29/2022  11:22:00      -42.494      -29.342      -13.120       30.948       28.387       23.000      957.773      805.795      528.989        0.257        0.115       51.640       10.193        0.039      334.022        3.722      868.969
01/29/2022  11:23:00      -24.145      -15.696      -14.207       25.983       28.949       21.253      675.118      838.028      451.677        0.150        0.098       28.798       17.485        0.369      334.127        3.894      868.958
01/29/2022  11:24:00       -2.739      -15.535       -4.437       24.024       20.128       17.003      577.174      405.146      289.101        0.077        0.064       15.775        9.267        0.345      334.158        3.946      868.949
01/29/2022  11:25:00      -15.986      -57.244      -19.139       27.018       48.701       25.751      729.997     2371.782      663.133        0.383        0.188       59.434        8.564        0.021      333.946        3.595      868.937
01/29/2022  11:26:00       32.602      -78.937      -25.524       75.595       72.268       37.949     5714.581     5222.669     1440.116        1.016        0.619       85.405       44.706        0.274      333.835        3.410      868.932
01/29/2022  11:27:00       57.971     -144.955      -32.691       46.396       46.262       37.327     2152.560     2140.172     1393.333        1.556        0.284      156.117       24.244        0.024      333.814        3.377      868.931
01/29/2022  11:28:00       62.098      -84.925      -36.773       29.274       46.390       30.152      856.991     2152.031      909.158        0.817        0.196      105.206       26.752        0.065      334.113        3.871      868.928
01/29/2022  11:29:00       20.926       11.176      -19.510       49.264       37.155       31.715     2426.918     1380.524     1005.850        0.288        0.241       23.724       23.016        0.941      334.392        4.333      868.986
01/29/2022  11:30:00       19.956      -20.113      -21.808       35.339       65.376       34.118     1248.821     4273.999     1164.020        0.398        0.334       28.333       21.514        0.577      334.310        4.198      868.974
01/29/2022  11:31:00       46.068       -3.392      -15.322       80.176       67.116       26.864     6428.256     4504.619      721.695        0.701        0.583       46.193       24.327        0.277      334.051        3.769      868.965
01/29/2022  11:32:00       71.825       42.669      -21.468       51.035       55.859       26.111     2604.524     3120.224      681.802        0.692        0.320       83.543       18.734        0.050      334.017        3.712      868.947
01/29/2022  11:33:00       39.073       65.340        7.938       48.090       31.230       25.106     2312.644      975.313      630.305        0.489        0.196       76.131       15.698        0.043      334.201        4.017      868.936
01/29/2022  11:34:00       38.029       13.681      -18.976       43.070       47.160       29.364     1855.054     2224.074      862.238        0.347        0.247       40.415       22.250        0.303      334.470        4.462      868.917
01/29/2022  11:35:00      108.775       16.503      -13.428       61.458       82.604       45.471     3777.055     6823.398     2067.593        1.247        0.633      110.020       37.812        0.118      333.914        3.542      868.907
01/29/2022  11:36:00       63.387       -2.276      -13.951       71.411       86.312       44.124     5099.533     7449.721     1946.959        0.935        0.725       63.428       22.704        0.128      334.253        4.104      868.896
01/29/2022  11:37:00      145.205       68.186      -25.027       36.797       45.664       26.082     1354.041     2085.171      680.270        1.524        0.206      160.418       17.113        0.011      333.759        3.284      868.894
01/29/2022  11:38:00      122.439       68.399      -39.023       34.822       43.853       22.688     1212.595     1923.081      514.734        1.242        0.183      140.249       17.140        0.015      333.740        3.254      868.880
01/29/2022  11:39:00       59.176       54.276      -22.236       31.217       22.656       20.244      974.506      513.302      409.827        0.442        0.095       80.298        9.352        0.014      333.931        3.571      868.875
01/29/2022  11:40:00       19.537       42.955      -13.585       24.654       20.165       20.066      607.803      406.622      402.647        0.191        0.071       47.190       11.351        0.058      334.111        3.868      868.862
01/29/2022  11:41:00       -4.818        9.298       -5.852       22.874       31.087       23.903      523.219      966.417      571.368        0.110        0.103       10.472       18.902        3.258      334.485        4.489      868.837
01/29/2022  11:42:00      -30.902      -32.874      -29.586       33.538       27.076       19.141     1124.781      733.083      366.389        0.257        0.111       45.118        8.813        0.038      334.496        4.506      868.813
01/29/2022  11:43:00       31.648       -7.617       -9.942       49.119       33.636       35.471     2412.686     1131.386     1258.211        0.298        0.240       32.552       20.875        0.411      334.622        4.716      868.793
01/29/2022  11:44:00       31.750       -3.910        0.576       48.328       45.241       37.357     2335.571     2046.731     1395.570        0.340        0.289       31.990       26.571        0.690      334.745        4.920      868.774
01/29/2022  11:45:00       67.296       13.874      -19.918       76.120       66.652       31.799     5794.184     4442.529     1011.175        0.818        0.562       68.711       28.629        0.174      334.269        4.130      868.764
01/29/2022  11:46:00      127.737       17.083      -23.607       52.393       68.042       37.235     2744.991     4629.757     1386.415        1.296        0.438      128.875       19.929        0.024      334.059        3.782      868.744
01/29/2022  11:47:00       65.941      -34.251      -23.104       41.102       59.170       24.340     1689.364     3501.042      592.453        0.592        0.289       74.306       15.123        0.041      334.280        4.147      868.727
01/29/2022  11:48:00       80.367      -14.367      -23.390       45.849       49.464       38.966     2102.106     2446.682     1518.312        0.664        0.303       81.641       31.082        0.145      334.396        4.342      868.707
01/29/2022  11:49:00      129.173      -55.171      -30.575       42.506       47.260       34.370     1806.796     2233.549     1181.329        1.294        0.261      140.462       26.277        0.035      334.051        3.768      868.690
01/29/2022  11:50:00       74.379      -34.748      -40.248       48.433       60.803       32.945     2345.722     3697.019     1085.397        0.774        0.356       82.096       23.423        0.081      334.358        4.278      868.677
01/29/2022  11:51:00       78.404      -35.369      -21.356       23.024       27.761       21.556      530.088      770.672      464.677        0.481        0.088       86.013        7.346        0.007      334.141        3.918      868.676
01/29/2022  11:52:00       27.602       19.890      -15.814       37.345       36.769       25.151     1394.633     1351.984      632.551        0.239        0.169       34.022       14.711        0.187      334.592        4.667      868.675
01/29/2022  11:53:00       77.625       58.829      -19.525       34.736       51.977       23.521     1206.589     2701.625      553.226        0.716        0.223       97.398       20.252        0.043      334.379        4.312      868.657
01/29/2022  11:54:00       50.604       -9.184      -19.005       28.631       44.992       28.557      819.717     2024.311      815.524        0.333        0.183       51.431       20.231        0.155      334.457        4.442      868.639
01/29/2022  11:55:00       78.324       24.531       -7.341       20.425       18.528       17.148      417.189      343.276      294.041        0.392        0.053       82.076        7.826        0.009      334.263        4.119      868.618
01/29/2022  11:56:00       14.753       36.136       -9.042       26.102       22.431       24.012      681.313      503.132      576.564        0.168        0.088       39.031       10.321        0.070      334.467        4.458      868.593
01/29/2022  11:57:00      -13.822       53.995        0.399       21.552       28.011       21.534      464.498      784.601      463.707        0.241        0.086       55.736       10.647        0.036      334.480        4.481      868.572
01/29/2022  11:58:00      -10.276       36.005       12.922       27.213       25.507       24.236      740.550      650.616      587.360        0.177        0.099       37.442       12.114        0.105      334.881        5.147      868.545
01/29/2022  11:59:00        0.306       26.627       -1.654       25.531       19.117       17.877      651.818      365.444      319.589        0.102        0.067       26.629       10.395        0.152      334.933        5.233      868.523
01/29/2022  12:00:00       39.474       40.389      -10.331       28.710       17.380       15.022      824.288      302.047      225.675        0.232        0.068       56.476        9.027        0.026      334.729        4.892      868.508
01/29/2022  12:01:00       46.369       42.255      -36.327       25.732       25.498       20.893      662.137      650.154      436.504        0.350        0.087       62.735       14.289        0.052      334.486        4.491      868.492
01/29/2022  12:02:00       20.099       13.219        3.670       37.876       51.955       30.242     1434.602     2699.323      914.586        0.282        0.252       24.056       24.084        1.002      335.209        5.691      868.481
01/29/2022  12:03:00       69.155      -49.138      -27.851       45.720       55.684       27.229     2090.279     3100.707      741.417        0.695        0.297       84.835       23.064        0.074      334.838        5.075      868.467
01/29/2022  12:04:00      -18.023      -65.625      -23.633       56.405       41.997       30.181     3181.517     1763.783      910.878        0.552        0.293       68.055       19.093        0.079      334.937        5.239      868.460
01/29/2022  12:05:00      -18.780      -35.839      -10.953       43.645       33.142       27.672     1904.900     1098.388      765.741        0.276        0.188       40.462       21.474        0.282      335.242        5.746      868.450
01/29/2022  12:06:00       24.623      -60.117      -28.461       26.995       28.437       24.134      728.725      808.654      582.437        0.357        0.106       64.964       18.055        0.077      334.855        5.102      868.445
01/29/2022  12:07:00       31.336      -81.854      -33.430       20.632       28.017       16.600      425.694      784.969      275.560        0.514        0.074       87.647        3.719        0.002      334.653        4.768      868.433
01/29/2022  12:08:00       -8.009       -8.526      -20.463       27.320       38.546       25.172      746.366     1485.761      633.638        0.171        0.143       11.698       19.708        2.838      335.139        5.575      868.428
01/29/2022  12:09:00       12.254      -52.649      -25.811       56.594       57.741       41.030     3202.896     3333.979     1683.438        0.590        0.411       54.056       31.868        0.348      335.024        5.384      868.415
01/29/2022  12:10:00       56.673     -124.718      -27.187       47.527       90.198       33.849     2258.777     8135.759     1145.770        1.552        0.577      136.991       46.137        0.113      334.894        5.166      868.410
01/29/2022  12:11:00       81.264     -123.967      -39.416       54.058       60.457       36.471     2922.242     3654.998     1330.165        1.571        0.395      148.228       31.730        0.046      334.840        5.078      868.390
01/29/2022  12:12:00      100.481     -188.308      -35.421       42.062       46.060       23.972     1769.204     2121.506      574.649        2.564        0.223      213.439       19.905        0.009      334.474        4.466      868.367
01/29/2022  12:13:00       64.014     -176.601      -39.680       48.586       59.450       35.853     2360.562     3534.268     1285.429        2.202        0.359      187.845       22.216        0.014      334.726        4.887      868.350
01/29/2022  12:14:00       85.683     -104.296      -39.531       41.904       73.192       25.349     1755.914     5357.034      642.562        1.377        0.388      134.979       18.380        0.019      334.540        4.580      868.337
01/29/2022  12:15:00       49.134      -53.848      -14.514       55.974       59.269       44.662     3133.043     3512.827     1994.657        0.708        0.432       72.896       31.658        0.189      334.987        5.323      868.320
01/29/2022  12:16:00       35.494       16.574       -9.365       60.091       46.813       33.916     3610.975     2191.501     1150.326        0.429        0.348       39.173       21.446        0.300      335.182        5.646      868.298
01/29/2022  12:17:00       -7.677        3.840       -6.897       52.745       45.768       29.495     2782.079     2094.675      869.940        0.293        0.287        8.584       16.417        3.657      335.308        5.857      868.282
01/29/2022  12:18:00       73.937     -125.198      -29.087       66.453       67.659       39.398     4416.047     4577.736     1552.200        1.626        0.527      145.400       34.491        0.056      334.966        5.286      868.258
01/29/2022  12:19:00       48.789      -88.323      -40.466       48.853       47.107       27.990     2386.624     2219.035      783.456        0.860        0.269      100.902       15.456        0.023      334.944        5.250      868.244
01/29/2022  12:20:00       86.296     -122.831      -48.751       32.794       60.704       27.893     1075.414     3684.984      778.015        1.522        0.277      150.115       20.433        0.019      334.952        5.262      868.223
01/29/2022  12:21:00       55.281       36.294       -4.132       71.577       43.858       36.744     5123.269     1923.499     1350.156        0.639        0.420       66.130       28.612        0.187      335.279        5.809      868.205
01/29/2022  12:22:00       22.861      -35.223       -2.298       73.494       49.883       52.954     5401.376     2488.349     2804.127        0.623        0.535       41.992       38.972        0.861      335.476        6.134      868.191
01/29/2022  12:23:00      116.413       -4.057      -23.033       80.898       53.830       43.880     6544.445     2897.665     1925.440        1.273        0.568      116.483       41.552        0.127      334.918        5.207      868.168
01/29/2022  12:24:00       89.917       -3.765      -17.244       56.738       42.703       35.654     3219.238     1823.523     1271.222        0.735        0.316       89.996       12.273        0.019      334.817        5.039      868.157
01/29/2022  12:25:00       20.695       -0.014      -22.255       52.493       51.445       21.608     2755.518     2646.588      466.897        0.340        0.293       20.695       10.954        0.280      334.976        5.301      868.148
01/29/2022  12:26:00      -50.197      -14.163      -11.191       24.700       28.746       17.235      610.080      826.357      297.060        0.229        0.087       52.157        9.710        0.035      335.370        5.958      868.138
01/29/2022  12:27:00       46.771     -114.104      -20.430       64.959       50.657       32.486     4219.736     2566.101     1055.337        1.173        0.392      123.318       40.569        0.108      334.784        4.984      868.126
01/29/2022  12:28:00       61.058     -112.117      -39.763       34.276       28.506       19.771     1174.816      812.573      390.891        1.013        0.119      127.664        6.811        0.003      334.799        5.009      868.123
01/29/2022  12:29:00       52.356     -138.651      -37.410       54.441       33.375       33.603     2963.769     1113.875     1129.175        1.428        0.260      148.206       28.165        0.036      334.831        5.063      868.121
01/29/2022  12:30:00       15.599       62.832      -13.941       35.529       93.615       26.457     1262.336     8763.808      699.950        0.755        0.536       64.740       32.345        0.250      334.779        4.976      868.115
01/29/2022  12:31:00       32.194       72.388       -0.497       38.354       48.653       27.682     1471.054     2367.105      766.317        0.544        0.230       79.224       17.108        0.047      335.097        5.505      868.087
01/29/2022  12:32:00       10.313       44.336        4.885       41.419       33.649       33.199     1715.504     1132.240     1102.183        0.302        0.197       45.519       21.236        0.218      335.542        6.244      868.059
01/29/2022  12:33:00       11.702       20.003       -2.018       29.326       33.159       22.188      860.031     1099.504      492.295        0.150        0.123       23.175       11.439        0.244      335.404        6.014      868.029
01/29/2022  12:34:00       28.486      -86.584      -22.055       42.924       55.366       28.432     1842.431     3065.444      808.365        0.725        0.286       91.150       25.546        0.079      335.672        6.463      867.996
01/29/2022  12:35:00       66.217      -14.589       -6.457       79.190       62.615       44.066     6271.024     3920.634     1941.804        0.838        0.607       67.805       39.279        0.336      335.301        5.846      867.969
01/29/2022  12:36:00       53.867      -11.717      -19.815       61.873       65.565       56.697     3828.292     4298.739     3214.516        0.738        0.567       55.126       45.760        0.689      335.384        5.981      867.935
01/29/2022  12:37:00       26.139      -40.093      -14.828       46.314       48.207       32.747     2144.943     2323.891     1072.352        0.402        0.277       47.861       32.739        0.468      335.354        5.932      867.926
01/29/2022  12:38:00       31.048       10.234      -18.763       42.409       58.167       24.581     1798.527     3383.352      604.221        0.360        0.289       32.692       16.309        0.249      335.602        6.345      867.912
01/29/2022  12:39:00       35.707       25.524       -7.693       37.417       43.513       26.109     1400.005     1893.340      681.698        0.298        0.199       43.892       19.949        0.207      335.603        6.348      867.901
01/29/2022  12:40:00       19.953      -44.187       -8.922       42.800       55.321       31.971     1831.798     3060.462     1022.139        0.417        0.296       48.483       20.678        0.182      335.533        6.232      867.893
01/29/2022  12:41:00       57.081      -47.452      -18.608       82.715       81.224       45.923     6841.748     6597.352     2108.946        1.070        0.777       74.229       48.743        0.431      335.618        6.371      867.872
01/29/2022  12:42:00       81.334      -77.186      -25.435       67.395       73.159       39.323     4542.024     5352.289     1546.273        1.233        0.572      112.129       43.799        0.153      335.203        5.681      867.860
01/29/2022  12:43:00       14.957     -110.370      -21.396       37.484       56.221       33.383     1405.076     3160.747     1114.427        0.927        0.284      111.379       16.990        0.023      335.609        6.358      867.849
01/29/2022  12:44:00       67.865      -59.555      -32.320       42.392       56.145       36.214     1797.083     3152.219     1311.423        0.773        0.313       90.291       24.328        0.073      335.075        5.470      867.837
01/29/2022  12:45:00       39.344      -33.407      -17.898       31.089       28.767       18.729      966.503      827.513      350.767        0.256        0.107       51.614       16.174        0.098      334.853        5.099      867.821
01/29/2022  12:46:00       69.279       13.836       -9.608       35.081       32.872       23.426     1230.686     1080.587      548.789        0.397        0.143       70.647       11.407        0.026      335.089        5.492      867.809
01/29/2022  12:47:00       96.867        1.107      -18.368       37.963       59.461       24.017     1441.221     3535.579      576.801        0.764        0.278       96.873       13.251        0.019      335.148        5.590      867.786
01/29/2022  12:48:00      102.182      -34.413      -16.034       57.395       60.864       35.206     3294.221     3704.450     1239.489        1.006        0.412      107.821       23.144        0.046      335.382        5.979      867.766
01/29/2022  12:49:00      135.365        4.232      -23.850       65.117       98.712       39.890     4240.241     9744.053     1591.203        1.724        0.779      135.431       22.454        0.027      335.075        5.468      867.755
01/29/2022  12:50:00       85.528      -28.965      -25.572      103.352       85.080       68.656    10681.671     7238.684     4713.656        1.572        1.132       90.300       62.492        0.479      335.420        6.042      867.727
01/29/2022  12:51:00       65.091       -8.165      -11.721       75.662       55.782       37.117     5724.663     3111.639     1377.648        0.733        0.511       65.601       35.639        0.295      335.353        5.930      867.757
01/29/2022  12:52:00       58.402       28.156      -11.264       71.136       36.415       26.022     5060.366     1326.022      677.145        0.570        0.353       64.835       24.420        0.142      335.562        6.279      867.759
01/29/2022  12:53:00       97.648       38.929      -12.111       55.784       54.363       34.047     3111.811     2955.370     1159.225        0.921        0.361      105.122       24.965        0.056      335.269        5.791      867.750
01/29/2022  12:54:00       94.902       34.550      -24.864       61.613       49.890       30.209     3796.198     2489.036      912.555        0.901        0.360      100.995       29.389        0.085      335.577        6.304      867.732
01/29/2022  12:55:00       99.570       70.994      -29.195       42.322       38.486       24.752     1791.183     1481.159      612.685        0.985        0.194      122.288       17.300        0.020      335.349        5.924      867.721
01/29/2022  12:56:00       51.788       20.978      -10.241       50.961       61.833       38.704     2597.042     3823.358     1497.961        0.557        0.396       55.875       25.021        0.201      335.513        6.198      867.699
01/29/2022  12:57:00      146.182     -104.199      -41.298       63.612       51.480       37.994     4046.516     2650.176     1443.553        2.103        0.407      179.518       36.486        0.041      335.212        5.695      867.674
01/29/2022  12:58:00       27.322       -7.391      -28.510       48.134       45.561       20.455     2316.878     2075.773      418.424        0.321        0.241       28.304       20.299        0.514      335.114        5.534      867.663
01/29/2022  12:59:00       32.000      -95.421      -28.827       54.599       52.071       33.933     2981.011     2711.428     1151.429        0.890        0.342      100.644       23.523        0.055      335.543        6.248      867.624
01/29/2022  13:00:00       34.202      -49.535      -17.149       32.424       53.331       17.374     1051.315     2844.244      301.848        0.406        0.210       60.195       26.404        0.192      335.150        5.594      867.606
01/29/2022  13:01:00       64.836       12.601       -5.409       53.839       41.346       21.654     2898.673     1709.486      468.915        0.473        0.254       66.049       20.924        0.100      335.456        6.102      867.588
01/29/2022  13:02:00       44.650     -128.551      -33.269       67.751       83.815       34.069     4590.182     7024.952     1160.705        1.620        0.639      136.084       33.996        0.062      335.424        6.049      867.558
01/29/2022  13:03:00       80.889     -159.316      -26.411       40.402       47.241       38.200     1632.334     2231.749     1459.238        1.897        0.266      178.675       33.197        0.035      335.246        5.751      867.535
01/29/2022  13:04:00       57.474     -170.283      -26.220       64.846       85.450       44.928     4204.967     7301.694     2018.525        2.325        0.676      179.721       43.758        0.059      335.540        6.241      867.510
01/29/2022  13:05:00       86.147     -145.795      -48.627       63.887       99.699       31.413     4081.611     9939.987      986.760        2.302        0.750      169.344       26.523        0.025      335.677        6.468      867.499
01/29/2022  13:06:00       95.054      -27.038      -36.017       53.463       57.474       37.782     2858.320     3303.236     1427.482        0.932        0.379       98.824       26.181        0.070      335.596        6.335      867.504
01/29/2022  13:07:00       83.958        2.263      -14.657       34.607       68.714       24.505     1197.615     4721.554      600.513        0.689        0.326       83.988       21.994        0.069      335.435        6.067      867.499
01/29/2022  13:08:00      102.628      -87.053      -52.039       70.525       73.584       42.554     4973.758     5414.628     1810.825        1.651        0.610      134.576       34.275        0.065      335.571        6.292      867.464
01/29/2022  13:09:00       44.456     -138.384      -42.151       37.930       41.590       30.743     1438.648     1729.697      945.114        1.351        0.206      145.349       19.567        0.018      335.476        6.135      867.480
01/29/2022  13:10:00       22.983      -34.635      -16.591       39.175       77.799       32.902     1534.715     6052.695     1082.572        0.533        0.433       41.566       23.103        0.309      335.802        6.679      867.455
01/29/2022  13:11:00       46.775       50.703       -9.726       45.816       44.604       38.813     2099.090     1989.476     1506.420        0.522        0.280       68.983       19.426        0.079      335.664        6.449      867.443
01/29/2022  13:12:00      108.265       35.255      -29.222       32.893       30.373       22.127     1081.959      922.527      489.609        0.816        0.125      113.860       14.869        0.017      335.321        5.878      867.431
01/29/2022  13:13:00        9.570       15.687      -11.652       18.901       12.938       15.866      357.243      167.401      251.726        0.062        0.039       18.376       14.647        0.635      335.340        5.908      867.408
01/29/2022  13:14:00        5.145        4.558      -10.911       10.405       13.599       12.407      108.261      184.940      153.924        0.031        0.022        6.873        7.107        1.069      335.527        6.221      867.377
01/29/2022  13:15:00       37.749       -5.730        2.001       41.388       46.892       28.554     1712.975     2198.852      815.334        0.309        0.236       38.181       22.850        0.358      335.980        6.974      867.348
01/29/2022  13:16:00      117.361       59.026      -14.712       47.183       42.441       25.414     2226.238     1801.264      645.875        1.107        0.234      131.368       17.536        0.018      335.496        6.168      867.327
01/29/2022  13:17:00      109.021       25.428      -22.658       52.765       44.944       23.758     2784.151     2019.959      564.457        0.921        0.268      111.947       23.106        0.043      335.517        6.203      867.307
01/29/2022  13:18:00      106.742       33.732      -20.896       44.063       45.830       22.259     1941.508     2100.392      495.445        0.875        0.227      111.945       12.530        0.013      335.747        6.585      867.302
01/29/2022  13:19:00      110.639       67.125      -25.260       32.391       30.828       25.275     1049.191      950.372      638.837        1.001        0.132      129.409       17.860        0.019      335.494        6.164      867.313
01/29/2022  13:20:00       66.998      -24.927      -29.059       53.155       54.660       31.391     2825.446     2987.666      985.370        0.638        0.340       71.485        9.012        0.016      335.881        6.811      867.304
01/29/2022  13:21:00       81.069       33.713       -3.049       52.454       58.850       30.518     2751.380     3463.275      931.331        0.743        0.357       87.799       21.982        0.063      335.758        6.606      867.309
01/29/2022  13:22:00       95.010      -26.883      -13.217       70.164       59.752       42.053     4922.932     3570.272     1768.487        1.009        0.513       98.739       24.295        0.061      335.898        6.839      867.296
01/29/2022  13:23:00      130.334       10.918      -22.756       73.560       52.874       36.052     5411.145     2795.652     1299.722        1.356        0.475      130.791       19.504        0.022      335.858        6.770      867.299
01/29/2022  13:24:00      155.938       65.510      -31.721       43.048       25.546       21.097     1853.138      652.598      445.102        1.628        0.148      169.140        8.438        0.002      335.631        6.392      867.302
01/29/2022  13:25:00      100.474       58.158      -26.170       17.332       21.674       16.636      300.401      469.758      276.752        0.760        0.052      116.092       10.596        0.008      335.498        6.171      867.291
01/29/2022  13:26:00       43.662       52.993       -2.217       43.994       29.686       21.836     1935.449      881.229      476.827        0.401        0.165       68.663       23.399        0.116      335.856        6.769      867.276
01/29/2022  13:27:00      145.489       32.358      -32.863       73.190       77.518       27.808     5356.820     6009.014      773.306        1.771        0.607      149.044       19.883        0.018      335.518        6.203      867.260
01/29/2022  13:28:00       42.600       -9.582       -3.358       86.389       87.230       60.188     7463.022     7609.006     3622.603        1.030        0.935       43.665       45.963        1.108      335.923        6.881      867.212
01/29/2022  13:29:00      155.694       16.657      -17.173       86.614       55.818       43.684     7501.912     3115.678     1908.322        1.867        0.626      156.582       35.828        0.052      335.737        6.568      867.204
01/29/2022  13:30:00      136.047     -125.753      -35.612       53.089       89.021       40.250     2818.476     7924.758     1620.031        2.397        0.618      185.264       38.869        0.044      335.691        6.490      867.183
01/29/2022  13:31:00       52.791     -118.304      -23.505       42.258       56.546       31.116     1785.702     3197.413      968.190        1.164        0.298      129.548       21.489        0.028      335.688        6.487      867.174
01/29/2022  13:32:00       67.956       -5.085      -15.153       76.210       64.883       47.476     5808.038     4209.829     2253.925        0.857        0.614       68.146       32.341        0.225      336.144        7.248      867.139
01/29/2022  13:33:00      -23.520      -75.129      -12.160       51.225      109.237       32.977     2624.008    11932.663     1087.474        1.099        0.782       78.724       29.978        0.145      336.205        7.350      867.126
01/29/2022  13:34:00       50.819     -140.540      -28.841       63.036      114.748       42.931     3973.510    13167.048     1843.071        2.107        0.949      149.446       37.942        0.064      335.980        6.975      867.118
01/29/2022  13:35:00       59.509      -35.461      -24.371       42.317       45.265       25.186     1790.770     2048.918      634.330        0.493        0.224       69.273        9.753        0.020      336.018        7.039      867.122
01/29/2022  13:36:00       38.362      -66.106      -15.573       46.248       43.139       37.650     2138.845     1861.005     1417.519        0.575        0.271       76.430       20.710        0.073      336.269        7.459      867.111
01/29/2022  13:37:00       13.812      -31.763      -18.381       25.691       38.460       25.503      660.012     1479.139      650.383        0.216        0.139       34.636        6.256        0.033      336.008        7.021      867.107
01/29/2022  13:38:00      -41.197      -41.365      -21.891       34.456       36.120       26.497     1187.202     1304.656      702.107        0.354        0.160       58.380        7.872        0.018      336.204        7.349      867.090
01/29/2022  13:39:00       35.198       -4.358      -20.901       51.847       38.385       22.034     2688.113     1473.417      485.510        0.317        0.232       35.467       20.014        0.318      336.228        7.389      867.101
01/29/2022  13:40:00       25.861       23.365       -8.439       43.781       35.325       22.563     1916.780     1247.886      509.070        0.248        0.184       34.853       14.519        0.174      336.417        7.704      867.103
01/29/2022  13:41:00       58.072       21.349      -17.934       40.627       41.893       16.990     1650.537     1755.002      288.650        0.392        0.185       61.872        8.579        0.019      335.865        6.782      867.105
01/29/2022  13:42:00       21.040       10.666      -13.850       11.661       19.388       15.881      135.981      375.913      252.215        0.076        0.038       23.589       10.452        0.196      336.070        7.127      867.102
01/29/2022  13:43:00       44.163        0.137      -20.841       23.976       38.265       14.260      574.827     1464.245      203.350        0.231        0.112       44.163        7.204        0.027      336.040        7.076      867.097
01/29/2022  13:44:00       -7.931       31.894        0.528       53.951       53.530       23.866     2910.714     2865.488      569.568        0.371        0.317       32.866       17.326        0.278      336.323        7.548      867.090
01/29/2022  13:45:00       40.020      -39.753       -9.696       74.434       80.052       50.262     5540.398     6408.261     2526.258        0.887        0.724       56.408       29.437        0.272      336.465        7.784      867.069
01/29/2022  13:46:00       69.467      -12.270      -32.966       70.749       62.966       56.804     5005.377     3964.706     3226.721        0.913        0.610       70.542       43.975        0.389      335.948        6.921      867.057
01/29/2022  13:47:00      110.395      -87.172      -37.739       39.478       57.234       27.752     1558.492     3275.774      770.152        1.341        0.280      140.663       22.319        0.025      335.734        6.564      867.039
01/29/2022  13:48:00       77.256      -71.257      -22.867       51.592       56.665       43.603     2661.726     3210.933     1901.190        0.967        0.389      105.100       33.029        0.099      335.891        6.826      867.021
01/29/2022  13:49:00       36.311       -9.411       -0.377       38.886       35.612       22.150     1512.152     1268.226      490.614        0.234        0.164       37.510       16.147        0.185      336.191        7.329      867.001
01/29/2022  13:50:00      168.879       37.654      -18.151       95.140       38.525       27.702     9051.663     1484.204      767.412        2.078        0.565      173.026       18.949        0.012      335.917        6.867      866.980
01/29/2022  13:51:00      174.904       88.767      -26.450       54.490       35.058       31.607     2969.199     1229.042      999.034        2.218        0.260      196.140       21.933        0.013      335.832        6.727      866.976
01/29/2022  13:52:00       92.613      -60.157      -28.000       54.074       66.027       30.686     2924.012     4359.614      941.607        1.060        0.411      110.436       25.212        0.052      336.079        7.142      866.959
01/29/2022  13:53:00       95.073      -56.350      -32.095       29.695       40.511       16.176      881.766     1641.121      261.653        0.801        0.139      110.517       14.670        0.018      335.674        6.464      866.951
01/29/2022  13:54:00       46.648      -30.922      -22.709       37.505       45.163       31.985     1406.600     2039.677     1023.024        0.406        0.223       55.966       16.374        0.086      336.118        7.204      866.945
01/29/2022  13:55:00       75.942      -10.974      -29.617       47.434       47.267       30.118     2249.964     2234.149      907.071        0.608        0.270       76.731       14.626        0.036      336.062        7.111      866.938
01/29/2022  13:56:00       74.065      -15.226      -22.220       51.347       51.436       37.753     2636.562     2645.641     1425.311        0.646        0.335       75.614       29.802        0.155      336.173        7.297      866.929
01/29/2022  13:57:00       41.550       -9.645      -22.058       28.250       35.796       26.728      798.062     1281.368      714.383        0.255        0.140       42.655       14.924        0.122      336.199        7.339      866.926
01/29/2022  13:58:00       89.048      -35.763      -25.842       27.355       27.147       23.077      748.305      736.976      532.570        0.595        0.101       95.961       15.295        0.025      335.840        6.743      866.912
01/29/2022  13:59:00       76.748      -24.672      -26.842       55.659       45.327       25.979     3097.877     2054.578      674.921        0.652        0.291       80.616       21.035        0.068      336.078        7.139      866.877
01/29/2022  14:00:00       56.532       -0.052      -17.373       48.967       51.005       35.046     2397.735     2601.462     1228.224        0.486        0.311       56.532       28.115        0.247      336.197        7.337      866.848
01/29/2022  14:01:00      118.750      -20.151      -16.345       52.844       55.393       45.082     2792.441     3068.364     2032.359        1.133        0.395      120.447       34.747        0.083      336.162        7.279      866.821
01/29/2022  14:02:00       46.214      -40.834      -25.080       29.335       23.597       26.426      860.553      556.835      698.334        0.327        0.106       61.670       18.844        0.093      336.072        7.128      866.801
01/29/2022  14:03:00        6.572      -17.306       -9.811       11.580       24.272       13.732      134.096      589.119      188.566        0.068        0.046       18.511        8.375        0.205      336.124        7.215      866.790
01/29/2022  14:04:00       -0.039        1.389      -10.403       23.546       23.291       14.382      554.413      542.455      206.843        0.071        0.065        1.390        7.566       29.640      336.491        7.827      866.773
01/29/2022  14:05:00      -20.541        4.423       -4.340       24.619       22.692       20.149      606.111      514.921      405.970        0.099        0.076       21.012        8.351        0.158      336.830        8.396      866.768
01/29/2022  14:06:00       81.503       47.822      -10.597       47.668       27.891       28.469     2272.216      777.885      810.467        0.645        0.193       94.496       21.609        0.052      336.136        7.237      866.773
01/29/2022  14:07:00       14.025       26.116      -11.482       17.440       11.772       17.862      304.171      138.590      319.034        0.089        0.038       29.644        5.658        0.036      336.019        7.041      866.774
01/29/2022  14:08:00        9.102      -26.100      -10.307       17.941       24.754       19.000      321.873      612.757      360.996        0.108        0.065       27.641       10.579        0.146      336.315        7.536      866.755
01/29/2022  14:09:00       58.253       33.047       -7.704       45.775       53.077       25.019     2095.356     2817.140      625.961        0.504        0.277       66.974       20.201        0.091      336.314        7.534      866.746
01/29/2022  14:10:00       15.089       25.228      -23.322       27.720       17.368       17.958      768.372      301.638      322.489        0.140        0.070       29.396       11.871        0.163      336.018        7.039      866.735
01/29/2022  14:11:00       15.652       30.452       -8.262       50.528       37.247       25.933     2553.030     1387.372      672.503        0.293        0.231       34.239       15.720        0.211      336.383        7.649      866.720
01/29/2022  14:12:00       45.251      -18.530      -10.923       53.486       28.525       28.012     2860.716      813.696      784.670        0.348        0.223       48.898       27.958        0.327      336.397        7.673      866.698
01/29/2022  14:13:00       29.035        5.563       -3.543       31.205       32.919       25.720      973.783     1083.661      661.542        0.180        0.136       29.563       15.600        0.278      336.315        7.534      866.692
01/29/2022  14:14:00      -13.871       21.999      -13.389       22.068       24.496       22.567      487.016      600.069      509.264        0.123        0.080       26.007       18.042        0.481      336.318        7.539      866.673
01/29/2022  14:15:00      -25.085        6.109        1.582       40.148       27.686       27.076     1611.871      766.536      733.104        0.189        0.156       25.818       25.692        0.990      336.714        8.202      866.655
01/29/2022  14:16:00       -2.505       34.547       -0.066       34.705       23.277       18.374     1204.458      541.818      337.598        0.164        0.104       34.638       12.869        0.138      336.433        7.731      866.650
01/29/2022  14:17:00       50.191       33.080       -7.094       28.432       29.455       15.171      808.390      867.600      230.144        0.278        0.095       60.111       10.900        0.033      336.283        7.480      866.646
01/29/2022  14:18:00       69.663       37.273      -11.607       33.050       17.768       16.577     1092.293      315.701      274.795        0.403        0.084       79.008       14.582        0.034      336.275        7.465      866.645
01/29/2022  14:19:00       61.084       59.638      -15.627       22.829       53.223       18.917      521.147     2832.726      357.854        0.562        0.186       85.370       10.613        0.015      336.276        7.467      866.648
01/29/2022  14:20:00       54.354       86.354      -15.550       44.112       45.840       28.783     1945.851     2101.289      828.475        0.776        0.244      102.036       22.512        0.049      336.412        7.697      866.654
01/29/2022  14:21:00       30.735       57.415      -11.525       23.808       28.168       17.210      566.838      793.448      296.200        0.301        0.083       65.124       10.243        0.025      336.318        7.539      866.654
01/29/2022  14:22:00       28.409       63.137      -15.339       19.143       22.068       11.713      366.441      486.994      137.200        0.301        0.050       69.234        5.566        0.006      336.402        7.678      866.643
01/29/2022  14:23:00       14.358       78.249      -14.262       21.242       17.233       14.354      451.203      296.990      206.036        0.374        0.048       79.556        8.201        0.011      336.422        7.713      866.629
01/29/2022  14:24:00       76.911       77.172      -10.554       64.641       32.169       27.256     4178.491     1034.876      742.887        0.897        0.298      108.953       22.086        0.041      336.482        7.814      866.616
01/29/2022  14:25:00      101.526      107.008      -17.260       42.454       32.596       27.344     1802.372     1062.503      747.713        1.283        0.181      147.506       22.469        0.023      336.123        7.212      866.615
01/29/2022  14:26:00       28.370       61.893       -3.543       32.948       26.814       21.329     1085.590      719.007      454.927        0.345        0.113       68.085       15.047        0.049      336.276        7.469      866.612
01/29/2022  14:27:00       54.101       49.029       -2.482       29.614       24.220       18.074      876.972      586.620      326.675        0.356        0.090       73.012       12.964        0.032      336.353        7.597      866.602
01/29/2022  14:28:00       33.541       37.908       -9.566       21.602       29.159       18.522      466.627      850.223      343.081        0.216        0.083       50.616       12.171        0.058      336.307        7.520      866.589
01/29/2022  14:29:00       37.664       -8.207      -10.380       14.911       20.946       15.834      222.352      438.740      250.702        0.125        0.046       38.547       10.145        0.069      336.386        7.653      866.567
01/29/2022  14:30:00       43.930      -34.359       -8.472       43.907       58.601       41.542     1927.806     3434.056     1725.706        0.513        0.354       55.771       38.482        0.476      336.513        7.866      866.543
01/29/2022  14:31:00       62.984      -21.250      -24.051       63.098       63.311       41.386     3981.328     4008.314     1712.777        0.735        0.485       66.473       30.174        0.206      336.549        7.924      866.512
01/29/2022  14:32:00       50.482      -19.310      -16.670       59.755       67.060       56.616     3570.659     4497.095     3205.336        0.723        0.564       54.049       41.568        0.591      336.684        8.150      866.499
01/29/2022  14:33:00       75.431      -37.667      -35.800       58.581       84.152       42.429     3431.775     7081.643     1800.204        1.035        0.616       84.313       32.709        0.151      336.709        8.192      866.476
01/29/2022  14:34:00      120.584       -5.071      -27.540       65.786       61.337       42.434     4327.769     3762.281     1800.657        1.261        0.495      120.691       24.961        0.043      336.483        7.814      866.482
01/29/2022  14:35:00       65.874      -17.846       -0.736       73.171       61.325       44.685     5354.010     3760.708     1996.757        0.788        0.556       68.249       44.604        0.427      336.478        7.806      866.464
01/29/2022  14:36:00      104.689      -58.966      -28.848       53.499       66.761       35.811     2862.096     4457.074     1282.456        1.193        0.430      120.153       28.635        0.057      336.314        7.533      866.459
01/29/2022  14:37:00       36.772      -86.906      -23.771       33.549       53.374       27.668     1125.552     2848.813      765.510        0.710        0.237       94.366       16.576        0.031      336.314        7.533      866.452
01/29/2022  14:38:00       49.017      -20.934      -22.772       50.075       52.372       26.157     2507.529     2742.853      684.179        0.465        0.297       53.300       13.564        0.065      336.545        7.918      866.452
01/29/2022  14:39:00       79.011      -61.795      -22.588       34.000       24.814       19.654     1155.999      615.726      386.299        0.636        0.108      100.307       11.708        0.014      336.413        7.698      866.433
01/29/2022  14:40:00       33.877      -17.319      -11.402       26.833       20.476       19.233      719.998      419.272      369.921        0.154        0.075       38.047       10.661        0.079      336.671        8.130      866.425
01/29/2022  14:41:00       49.655      -98.049      -30.378       51.447       82.264       26.300     2646.826     6767.432      691.712        1.155        0.505      109.906       16.542        0.023      336.632        8.064      866.403
01/29/2022  14:42:00       72.310     -107.357      -32.851       53.684       66.611       29.394     2881.994     4437.052      863.990        1.301        0.409      129.438       27.123        0.044      336.464        7.783      866.398
01/29/2022  14:43:00       59.957      -73.390      -32.534       51.476       96.803       30.354     2649.784     9370.766      921.373        1.149        0.647       94.768       27.829        0.086      336.495        7.834      866.392
01/29/2022  14:44:00       65.562      -62.066      -28.513       32.668       43.655       32.358     1067.213     1905.795     1047.062        0.649        0.201       90.281       12.984        0.021      336.577        7.971      866.403
01/29/2022  14:45:00       21.294      -28.679      -15.346       29.412       49.423       19.999      865.059     2442.589      399.965        0.261        0.185       35.720       15.370        0.185      336.742        8.249      866.421
01/29/2022  14:46:00       39.191       55.972        6.268       42.757       35.823       27.498     1828.156     1283.261      756.151        0.429        0.193       68.328       27.742        0.165      336.719        8.210      866.438
01/29/2022  14:47:00       29.555       36.232       -0.112       40.723       32.810       30.007     1658.382     1076.518      900.427        0.291        0.182       46.757       20.198        0.187      336.673        8.134      866.446
01/29/2022  14:48:00       93.526      -28.852      -14.259       89.711       49.819       40.796     8048.057     2481.927     1664.283        1.099        0.610       97.876       43.744        0.200      336.808        8.357      866.453
01/29/2022  14:49:00       69.132      -20.666      -25.301       65.283       52.298       41.504     4261.849     2735.074     1722.602        0.728        0.436       72.155       32.234        0.200      336.711        8.197      866.457
01/29/2022  14:50:00      109.275      -64.478      -36.561       55.757       64.082       36.452     3108.814     4106.445     1328.777        1.299        0.427      126.880       39.061        0.095      336.513        7.867      866.459
01/29/2022  14:51:00       83.812       -7.962      -12.473       44.758       43.961       27.912     2003.312     1932.611      779.063        0.598        0.236       84.189       21.663        0.066      336.630        8.063      866.473
01/29/2022  14:52:00       54.490       20.972       -0.840       57.741       52.126       33.426     3334.006     2717.145     1117.292        0.529        0.358       58.387       23.220        0.158      336.826        8.388      866.470
01/29/2022  14:53:00       39.559      -11.839        7.170       36.138       50.660       27.091     1305.947     2566.411      733.912        0.318        0.230       41.292       20.809        0.254      336.754        8.269      866.489
01/29/2022  14:54:00       20.411       21.263       -1.544       19.567       20.498       18.872      382.870      420.155      356.165        0.101        0.058       29.475       14.418        0.239      336.848        8.427      866.495
01/29/2022  14:55:00       44.742       -1.215      -20.486       33.524       37.730       21.532     1123.866     1423.575      463.634        0.272        0.151       44.758        8.159        0.033      336.778        8.309      866.495
01/29/2022  14:56:00       14.933      -29.310        0.277       35.993       52.243       33.290     1295.465     2729.375     1108.253        0.311        0.257       32.895       20.597        0.392      337.027        8.725      866.489
01/29/2022  14:57:00       81.049        2.175       -2.119       51.541       56.203       37.412     2656.444     3158.812     1399.655        0.690        0.361       81.078       30.258        0.139      336.716        8.205      866.498
01/29/2022  14:58:00       94.877      -36.168      -15.614       46.846       50.151       42.956     2194.552     2515.109     1845.212        0.855        0.328      101.537       33.691        0.110      336.739        8.244      866.498
01/29/2022  14:59:00       81.237      -11.392      -13.664       58.379       30.747       31.380     3408.068      945.358      984.686        0.613        0.267       82.032       31.682        0.149      336.695        8.169      866.494
01/29/2022  15:00:00      109.379       -0.853      -35.462       38.307       29.969       21.665     1467.444      898.143      469.380        0.803        0.142      109.383       17.209        0.025      336.562        7.948      866.499
01/29/2022  15:01:00       67.716      -27.814      -22.873       41.755       34.081       25.638     1743.507     1161.518      657.282        0.472        0.178       73.205       18.646        0.065      336.745        8.253      866.496
01/29/2022  15:02:00       20.834      -21.145       -4.491       56.123       38.843       22.227     3149.797     1508.817      494.055        0.303        0.258       29.684       23.653        0.635      337.001        8.682      866.502
01/29/2022  15:03:00       66.425        0.589       -8.632       24.083       51.727       23.147      579.999     2675.678      535.763        0.414        0.190       66.427       14.296        0.046      336.690        8.163      866.516
01/29/2022  15:04:00       59.905       -1.868      -15.585       32.868       38.097       22.635     1080.312     1451.385      512.353        0.344        0.152       59.935       19.127        0.102      336.817        8.374      866.525
01/29/2022  15:05:00        9.207      -26.159       -8.617       17.442       46.286       21.227      304.234     2142.423      450.593        0.187        0.145       27.732       15.203        0.301      336.998        8.675      866.521
01/29/2022  15:06:00       56.979       -4.953       -9.699       39.464       38.060       29.914     1557.369     1448.547      894.849        0.363        0.195       57.194        9.924        0.030      336.913        8.533      866.518
01/29/2022  15:07:00       61.350      -24.985      -19.597       70.229       55.405       37.819     4932.115     3069.761     1430.250        0.710        0.472       66.243       27.002        0.166      336.800        8.345      866.496
01/29/2022  15:08:00       72.222      -15.263      -26.469       65.072       64.193       44.645     4234.356     4120.767     1993.143        0.825        0.517       73.817       34.460        0.218      336.754        8.268      866.486
01/29/2022  15:09:00       87.844      -42.831      -15.515       44.394       43.894       31.531     1970.862     1926.719      994.191        0.734        0.245       97.730       25.644        0.069      336.747        8.256      866.478
01/29/2022  15:10:00       46.634      -35.740      -24.216       42.876       42.518       27.127     1838.350     1807.739      735.867        0.421        0.219       58.754       15.628        0.071      336.857        8.440      866.467
01/29/2022  15:11:00       70.381      -45.807      -22.673       33.731       27.605       21.827     1137.769      762.009      476.434        0.497        0.119       83.975       12.406        0.022      336.743        8.251      866.469
01/29/2022  15:12:00       77.394       30.241      -22.577       35.830       25.232       18.910     1283.807      636.642      357.594        0.485        0.114       83.092        8.252        0.010      336.722        8.215      866.460
01/29/2022  15:13:00       59.860       31.890      -13.525       25.714       35.588       22.208      661.214     1266.492      493.178        0.360        0.121       67.825       14.251        0.044      336.819        8.376      866.465
01/29/2022  15:14:00       17.012       -8.078      -10.592       32.074       40.345       26.760     1028.742     1627.679      716.108        0.192        0.169       18.832       13.125        0.486      337.016        8.705      866.460
01/29/2022  15:15:00       36.113       22.163       -8.209       43.340       44.064       30.442     1878.352     1941.674      926.715        0.330        0.237       42.371       25.124        0.352      336.947        8.590      866.458
01/29/2022  15:16:00      124.017       38.157      -22.668       55.500       37.709       38.369     3080.236     1421.977     1472.194        1.166        0.299      129.755       20.329        0.025      336.766        8.288      866.458
01/29/2022  15:17:00      103.130       47.468       -8.681       46.527       36.341       30.833     2164.778     1320.698      950.667        0.870        0.222      113.529       22.733        0.040      336.820        8.377      866.455
01/29/2022  15:18:00       49.666       58.847      -15.216       21.815       23.471       20.765      475.873      550.878      431.206        0.381        0.073       77.004        9.778        0.016      336.812        8.365      866.463
01/29/2022  15:19:00        5.021       27.225      -11.082       17.653       23.808       22.179      311.631      566.819      491.895        0.113        0.069       27.684       15.988        0.334      337.158        8.945      866.458
01/29/2022  15:20:00        8.904      -18.353       -8.556       27.289       22.481       20.633      744.669      505.401      425.720        0.108        0.084       20.399       13.112        0.413      337.304        9.187      866.443
01/29/2022  15:21:00       98.490       30.430      -16.421       45.454       31.799       19.985     2066.022     1011.174      399.383        0.719        0.174      103.084       15.108        0.021      336.831        8.397      866.439
01/29/2022  15:22:00      130.278       54.523      -24.301       51.818       38.212       29.639     2685.070     1460.138      878.490        1.278        0.251      141.227       18.796        0.018      336.860        8.444      866.436
01/29/2022  15:23:00      166.078       56.359      -20.543       47.668       49.233       30.270     2272.232     2423.906      916.266        1.840        0.281      175.380       16.999        0.009      336.737        8.239      866.428
01/29/2022  15:24:00      175.211       72.828      -20.932       59.249       34.426       26.307     3510.460     1185.147      692.071        2.091        0.269      189.744       27.020        0.020      336.659        8.110      866.438
01/29/2022  15:25:00       60.297       13.499      -13.934       60.807       19.428       16.763     3697.485      377.453      281.013        0.418        0.218       61.790       16.010        0.067      336.664        8.119      866.438
01/29/2022  15:26:00       61.127       30.329      -19.218       72.711       29.105       25.012     5286.865      847.127      625.617        0.589        0.338       68.237       23.880        0.122      336.744        8.251      866.434
01/29/2022  15:27:00        6.447        2.608       -0.973        8.518       13.035       11.379       72.555      169.898      129.471        0.021        0.019        6.954        9.172        1.739      337.013        8.701      866.427
01/29/2022  15:28:00        5.433      -52.084      -15.362       10.470       30.723       18.162      109.618      943.930      329.869        0.218        0.069       52.367       15.753        0.090      336.920        8.546      866.422
01/29/2022  15:29:00       32.678      -55.392      -22.047       25.480       10.912       11.215      649.209      119.075      125.776        0.276        0.045       64.312        8.959        0.019      336.721        8.213      866.421
01/29/2022  15:30:00       52.673      -12.030      -19.906       17.827       18.456       12.172      317.788      340.635      148.168        0.206        0.040       54.030        7.505        0.019      336.739        8.243      866.421
01/29/2022  15:31:00        5.392       52.079       -3.734       31.461       58.008       24.275      989.785     3364.969      589.297        0.385        0.247       52.357       14.584        0.078      336.972        8.632      866.416
01/29/2022  15:32:00       12.849      107.137      -13.035       33.461       37.557       19.217     1119.622     1410.537      369.302        0.736        0.145      107.904       16.709        0.024      337.054        8.769      866.419
01/29/2022  15:33:00       36.782       98.979      -10.059       62.447       33.827       24.144     3899.624     1144.233      582.929        0.844        0.281      105.593       17.513        0.028      336.940        8.580      866.418
01/29/2022  15:34:00      -45.886       61.170      -12.871       32.662       42.914       31.751     1066.832     1841.640     1008.099        0.496        0.196       76.468       13.161        0.030      336.969        8.627      866.406
01/29/2022  15:35:00      -72.996       37.616      -14.815       50.751       59.031       30.926     2575.696     3484.704      956.416        0.699        0.351       82.118       14.798        0.032      337.319        9.215      866.401
01/29/2022  15:36:00       27.941        6.702      -11.245       33.934       45.695       16.330     1151.530     2088.062      266.672        0.223        0.175       28.734       14.637        0.259      337.062        8.782      866.400
01/29/2022  15:37:00       56.998       11.675       -6.866       39.890       37.128       21.120     1591.185     1378.516      446.056        0.342        0.171       58.181       14.496        0.062      337.030        8.729      866.397
01/29/2022  15:38:00       17.913        6.292        0.364       38.114       31.728       22.073     1452.646     1006.653      487.232        0.165        0.147       18.986       15.574        0.673      337.061        8.781      866.400
01/29/2022  15:39:00       69.281       -4.575      -16.110       47.629       25.115       24.580     2268.539      630.775      604.177        0.429        0.175       69.432       19.753        0.081      336.928        8.561      866.398
01/29/2022  15:40:00      104.008       -0.310      -14.104       39.061       32.146       23.038     1525.778     1033.383      530.743        0.705        0.154      104.008       12.755        0.015      336.844        8.416      866.394
01/29/2022  15:41:00       68.381      -18.347      -19.045       41.801       29.284       17.220     1747.359      857.554      296.521        0.414        0.145       70.799       13.034        0.034      336.761        8.279      866.389
01/29/2022  15:42:00       20.095       10.022      -15.262       23.326       27.248       24.293      544.121      742.435      590.143        0.131        0.094       22.456       20.705        0.850      337.009        8.693      866.376
01/29/2022  15:43:00       74.599       -0.051      -22.930       46.285       33.883       17.072     2142.286     1148.033      291.459        0.484        0.179       74.599        8.551        0.013      336.799        8.342      866.357
01/29/2022  15:44:00       91.064       -0.130      -20.473       63.499       43.508       28.495     4032.162     1892.930      811.971        0.772        0.337       91.064       26.802        0.087      336.778        8.309      866.341
01/29/2022  15:45:00       54.788       21.502      -29.101       34.500       38.732       23.961     1190.251     1500.131      574.111        0.379        0.163       58.856        9.666        0.027      336.792        8.331      866.354
01/29/2022  15:46:00       15.993      -36.919      -17.765       26.573       23.303       21.815      706.145      543.046      475.894        0.183        0.086       40.234       13.310        0.109      336.731        8.230      866.359
01/29/2022  15:47:00       -4.179      -72.543      -25.910       23.018       21.575       19.020      529.851      465.460      361.752        0.365        0.068       72.663       13.265        0.033      336.722        8.214      866.363
01/29/2022  15:48:00       13.832      -60.066      -14.561       23.811       21.985       19.422      566.952      483.329      377.219        0.272        0.071       61.638       14.740        0.057      336.911        8.531      866.355
01/29/2022  15:49:00       12.069       14.954        1.967       15.085       16.318       11.414      227.546      266.284      130.282        0.050        0.031       19.216        9.644        0.252      337.037        8.741      866.354
01/29/2022  15:50:00       28.101       26.379      -14.938       19.465       28.552       17.224      378.899      815.239      296.660        0.160        0.075       38.542       12.884        0.112      336.875        8.469      866.345
01/29/2022  15:51:00       49.672       10.555       -9.140       22.130       21.907       16.946      489.746      479.927      287.173        0.196        0.063       50.782        9.662        0.036      336.902        8.515      866.340
01/29/2022  15:52:00       35.904       30.819       -6.517       21.140       15.799       12.490      446.892      249.598      156.012        0.157        0.043       47.317        9.018        0.036      336.844        8.418      866.339
01/29/2022  15:53:00       47.749       37.628       -3.644       32.664       32.554       13.658     1066.928     1059.776      186.551        0.301        0.116       60.794        6.205        0.010      336.954        8.603      866.330
01/29/2022  15:54:00       61.056       11.284       -6.884       29.121       26.161       17.630      848.044      684.372      310.807        0.287        0.092       62.090       10.255        0.027      336.906        8.522      866.325
01/29/2022  15:55:00       73.075        3.831      -11.499       32.933       30.534       18.748     1084.601      932.324      351.474        0.393        0.118       73.175       14.157        0.037      336.925        8.553      866.324
01/29/2022  15:56:00       75.143       51.462       -6.905       51.111       47.998       18.486     2612.331     2303.803      341.743        0.680        0.263       91.076       14.776        0.026      336.885        8.486      866.323
01/29/2022  15:57:00       22.381      -49.931      -21.562       21.818       25.271       23.096      476.021      638.630      533.405        0.255        0.082       54.718       13.049        0.057      336.793        8.333      866.331
01/29/2022  15:58:00       38.491      -43.285      -16.220       36.276       36.038       24.528     1315.964     1298.729      601.601        0.342        0.161       57.924       18.338        0.100      336.784        8.318      866.327
01/29/2022  15:59:00       61.519      -67.975      -34.191       33.452       51.278       27.987     1119.046     2629.444      783.300        0.705        0.227       91.680       23.982        0.068      336.823        8.382      866.324
01/29/2022  16:00:00       66.816      -39.985      -26.062       32.958       20.379       19.476     1086.232      415.294      379.295        0.431        0.094       77.866        8.262        0.011      336.738        8.242      866.321
01/29/2022  16:01:00       -4.240      -17.826      -11.110       24.251       28.614       21.372      588.109      818.761      456.776        0.116        0.093       18.323       10.235        0.312      336.929        8.559      866.316
01/29/2022  16:02:00       19.045      -32.980      -16.745       19.811       30.014       23.382      392.463      900.815      546.738        0.179        0.092       38.084       17.364        0.208      337.045        8.754      866.301
01/29/2022  16:03:00       57.316      -17.162      -17.577       43.471       38.699       22.494     1889.749     1497.631      505.961        0.389        0.195       59.830       16.068        0.072      336.870        8.463      866.276
01/29/2022  16:04:00       69.266      -95.022      -32.483       38.731       42.221       20.199     1500.126     1782.579      408.012        0.929        0.185      117.589       19.958        0.029      336.874        8.469      866.256
01/29/2022  16:05:00      102.846      -84.245      -35.414       45.919       45.098       25.948     2108.541     2033.798      673.281        1.187        0.241      132.946       18.712        0.020      336.792        8.331      866.213
01/29/2022  16:06:00      157.375       40.676      -31.083       89.262       51.422       41.064     7967.623     2644.208     1686.265        1.984        0.615      162.546        7.279        0.002      336.816        8.369      866.173
01/29/2022  16:07:00      110.515        8.599       -6.002       74.336       38.050       29.067     5525.827     1447.781      844.906        1.007        0.391      110.849       22.993        0.043      336.826        8.388      866.149
01/29/2022  16:08:00       68.628        9.690        1.080       52.776       35.465       25.836     2785.335     1257.801      667.495        0.476        0.236       69.309       27.961        0.163      336.853        8.433      866.111
01/29/2022  16:09:00       38.918      -20.095      -16.939       43.892       46.258       30.044     1926.507     2139.757      902.655        0.359        0.248       43.799       27.952        0.407      336.850        8.428      866.061
01/29/2022  16:10:00       81.312      -53.574       -8.714       62.315       50.619       36.656     3883.128     2562.282     1343.668        0.867        0.389       97.375       33.640        0.119      336.813        8.366      866.008
01/29/2022  16:11:00       74.793      -72.264      -24.945       51.622       55.963       39.420     2664.866     3131.904     1553.947        0.939        0.368      104.000       31.732        0.093      336.893        8.500      865.980
01/29/2022  16:12:00        5.685      -31.463      -25.117       53.076       41.301       26.961     2817.091     1705.735      726.904        0.345        0.262       31.973       25.076        0.615      337.107        8.858      865.965
01/29/2022  16:13:00       58.195        4.773      -21.506       41.033       39.593       29.900     1683.681     1567.605      894.013        0.401        0.207       58.391       13.988        0.057      336.843        8.417      865.971
01/29/2022  16:14:00       80.450      -17.821      -10.588       55.633       41.814       31.896     3095.002     1748.418     1017.386        0.638        0.293       82.400       25.200        0.094      336.734        8.235      865.984
01/29/2022  16:15:00       87.727      -24.321      -12.663       49.734       33.477       27.217     2473.475     1120.680      740.780        0.639        0.217       91.036       13.824        0.023      336.645        8.088      866.001
01/29/2022  16:16:00       26.639        3.719      -18.583       18.682       18.314        9.175      349.000      335.414       84.175        0.092        0.038       26.897        5.510        0.042      336.733        8.234      866.033
01/29/2022  16:17:00       56.122       -5.999      -10.437       42.048       18.641       15.365     1768.052      347.499      236.095        0.282        0.118       56.442       15.741        0.078      336.773        8.299      866.032
01/29/2022  16:18:00       58.763       16.588      -19.553       31.949       18.623       16.688     1020.712      346.825      278.493        0.288        0.082       61.059       11.456        0.035      336.733        8.233      866.042
01/29/2022  16:19:00       46.072       29.493       -6.865       19.001       15.260       12.596      361.054      232.856      158.666        0.190        0.038       54.704       10.600        0.038      336.728        8.226      866.058
01/29/2022  16:20:00       20.638       23.007       -0.199       16.677       16.687       15.440      278.114      278.450      238.400        0.087        0.040       30.907       12.123        0.154      336.815        8.370      866.062
01/29/2022  16:21:00       11.248      -22.995       -8.207       22.427       25.564       19.343      502.982      653.505      374.146        0.113        0.077       25.599       14.414        0.317      336.867        8.456      866.069
01/29/2022  16:22:00       12.650      -15.657       -9.435       12.636       20.875       15.151      159.661      435.766      229.543        0.066        0.041       20.129       15.745        0.612      336.865        8.454      866.092
01/29/2022  16:23:00       -9.760      -30.831      -13.223       17.285       12.050       17.406      298.782      145.191      302.986        0.098        0.037       32.339       14.037        0.188      336.756        8.273      866.110
01/29/2022  16:24:00       39.985       36.746       -8.042       54.492       27.687       17.398     2969.398      766.550      302.687        0.353        0.202       54.305       20.714        0.145      336.828        8.390      866.122
01/29/2022  16:25:00       38.609       27.126      -10.929       34.647       26.562       24.014     1200.390      705.546      576.683        0.241        0.124       47.186       14.634        0.096      336.832        8.397      866.141
01/29/2022  16:26:00       85.352       32.359      -20.897       25.357       20.358       15.190      642.979      414.459      230.739        0.503        0.064       91.280        6.544        0.005      336.710        8.196      866.144
01/29/2022  16:27:00       80.811       25.126      -12.353       18.726       19.206       11.211      350.673      368.876      125.697        0.408        0.042       84.627        7.296        0.007      336.751        8.264      866.146
01/29/2022  16:28:00       81.819       19.050      -12.246       36.172       35.454       15.906     1308.408     1256.954      253.015        0.501        0.141       84.007       14.057        0.028      336.777        8.307      866.137
01/29/2022  16:29:00       25.510        5.026      -13.280       37.892       36.244       38.449     1435.790     1313.597     1478.325        0.254        0.211       26.001       30.471        1.373      336.883        8.482      866.133
01/29/2022  16:30:00       82.044      -22.076       -5.239       40.769       29.816       21.914     1662.073      889.015      480.203        0.514        0.152       84.962       22.167        0.068      336.769        8.293      866.120
01/29/2022  16:31:00       47.907        0.463      -16.796       30.403       36.542       25.178      924.351     1335.305      633.935        0.273        0.145       47.909       19.065        0.158      336.733        8.233      866.115
01/29/2022  16:32:00       64.018      -14.552      -16.544       45.003       42.026       30.765     2025.257     1766.167      946.467        0.466        0.237       65.651       24.542        0.140      336.785        8.318      866.114
01/29/2022  16:33:00       43.234      -19.498      -22.233       40.962       51.664       35.804     1677.866     2669.213     1281.920        0.419        0.281       47.428       30.600        0.416      336.795        8.335      866.112
01/29/2022  16:34:00       23.975       -1.719       -5.016       41.892       17.732       23.822     1754.900      314.434      567.509        0.162        0.132       24.036       26.097        1.179      336.835        8.403      866.114
01/29/2022  16:35:00       47.528      -19.583       -5.919       36.673       18.277       14.271     1344.927      334.037      203.660        0.228        0.094       51.404       17.127        0.111      336.841        8.413      866.100
01/29/2022  16:36:00       16.465       -1.770       -3.422       31.558       25.163       19.664      995.929      633.162      386.690        0.115        0.101       16.559       18.584        1.260      336.922        8.548      866.071
01/29/2022  16:37:00       22.161        2.516        4.771       29.113       34.688       24.481      847.547     1203.245      599.343        0.158        0.133       22.304       12.638        0.321      336.921        8.547      866.047
01/29/2022  16:38:00       55.499       -5.583       -7.883       43.763       35.251       21.104     1915.203     1242.661      445.374        0.339        0.180       55.779       15.707        0.079      336.831        8.395      866.012
01/29/2022  16:39:00       29.233      -16.260       -2.757       33.214       31.588       28.368     1103.151      997.820      804.740        0.202        0.145       33.451       23.082        0.476      336.822        8.381      865.987
01/29/2022  16:40:00       72.688      -39.950      -11.038       45.751       35.803       26.112     2093.145     1281.867      681.851        0.553        0.203       82.943       26.028        0.098      336.763        8.283      865.974
01/29/2022  16:41:00       18.653       11.171       -2.612       30.419       29.522       25.201      925.287      871.523      635.072        0.146        0.122       21.742       17.180        0.624      336.823        8.384      865.976
01/29/2022  16:42:00       37.538       -8.707      -11.726       36.876       36.320       23.741     1359.813     1319.178      563.654        0.243        0.162       38.535       19.302        0.251      336.767        8.290      865.985
01/29/2022  16:43:00      106.372      -19.766       -7.668       54.832       30.042       25.345     3006.528      902.493      642.380        0.816        0.228      108.193       26.582        0.060      336.693        8.168      865.992
01/29/2022  16:44:00       67.284       -9.977       -2.590       44.724       32.794       20.453     2000.266     1075.414      418.330        0.406        0.175       68.020       21.030        0.096      336.715        8.204      866.001
01/29/2022  16:45:00       78.482        0.443      -10.993       24.836       21.686       15.533      616.824      470.284      241.262        0.380        0.066       78.484        3.319        0.002      336.682        8.149      866.005
01/29/2022  16:46:00       64.443      -14.315       -5.783       35.240       24.847       17.848     1241.855      617.398      318.542        0.328        0.109       66.014       11.988        0.033      336.716        8.205      866.000
01/29/2022  16:47:00       77.759      -17.213       -0.523       46.197       25.598       25.062     2134.159      655.256      628.109        0.488        0.171       79.641       21.368        0.072      336.736        8.238      865.985
01/29/2022  16:48:00       55.627       -6.255      -11.918       45.698       44.308       39.788     2088.337     1963.197     1583.050        0.445        0.282       55.977       27.269        0.237      336.760        8.278      865.962
01/29/2022  16:49:00       36.706        3.393      -17.817       37.972       45.240       31.762     1441.853     2046.660     1008.820        0.309        0.225       36.863       17.067        0.214      336.825        8.387      865.940
01/29/2022  16:50:00       50.945       -9.739      -18.529       36.263       33.424       31.088     1314.988     1117.139      966.475        0.322        0.170       51.867       20.764        0.160      336.751        8.263      865.930
01/29/2022  16:51:00       31.841      -14.693       -5.517       34.714       28.727       33.615     1205.086      825.239     1129.978        0.221        0.158       35.067       27.502        0.615      336.741        8.245      865.922
01/29/2022  16:52:00        8.882       -9.512       -1.049       32.179       26.358       27.434     1035.499      694.731      752.632        0.133        0.124       13.014       22.266        2.927      336.733        8.233      865.924
01/29/2022  16:53:00       45.822      -12.644      -21.303       37.287       29.457       21.345     1390.352      867.723      455.593        0.271        0.136       47.534       20.481        0.186      336.710        8.196      865.928
01/29/2022  16:54:00       39.180      -16.180      -12.893       26.338       18.444       17.661      693.681      340.163      311.896        0.165        0.067       42.390       15.071        0.126      336.689        8.161      865.938
01/29/2022  16:55:00       53.744      -18.433      -11.162       25.074       16.785       14.920      628.696      281.750      222.611        0.224        0.057       56.817        7.419        0.017      336.691        8.163      865.950
01/29/2022  16:56:00       40.086       -3.836      -12.318       18.533       18.273        8.864      343.454      333.915       78.575        0.126        0.038       40.269        8.867        0.048      336.732        8.231      865.957
01/29/2022  16:57:00       52.482       16.795      -10.873       12.270        8.240        7.452      150.547       67.898       55.529        0.171        0.014       55.103        5.019        0.008      336.756        8.272      865.967
01/29/2022  16:58:00       54.268        4.466      -13.043       10.170        6.987        8.730      103.422       48.823       76.207        0.168        0.011       54.452        5.110        0.009      336.759        8.276      865.969
01/29/2022  16:59:00       58.034       11.007      -13.016        7.756        4.051        5.225       60.154       16.412       27.304        0.188        0.005       59.068        1.896        0.001      336.735        8.240      865.965
01/29/2022  17:00:00       65.973       23.173      -12.548        9.620       13.662        8.191       92.548      186.663       67.084        0.270        0.017       69.924        5.938        0.007      336.720        8.217      865.972
01/29/2022  17:01:00       31.961       12.137      -16.436       27.462       32.960       22.034      754.181     1086.359      485.483        0.188        0.116       34.188        8.265        0.058      336.689        8.161      865.968
01/29/2022  17:02:00       27.623       -3.421       -9.832       20.422       25.159       18.661      417.049      632.968      348.224        0.113        0.070       27.834        8.874        0.102      336.676        8.139      865.966
01/29/2022  17:03:00       56.054      -12.378       -8.725       21.898       20.485       17.112      479.516      419.634      292.810        0.228        0.060       57.404       10.527        0.034      336.653        8.101      865.967
01/29/2022  17:04:00       65.488        0.546       -5.064       20.923       14.542       10.540      437.752      211.458      111.089        0.254        0.038       65.490        8.559        0.017      336.678        8.145      865.973
01/29/2022  17:05:00       73.737       15.558       -9.526       15.287       15.163        9.884      233.703      229.902       97.697        0.317        0.028       75.360        5.170        0.005      336.646        8.088      865.976
01/29/2022  17:06:00       51.983        5.887       -9.127       18.479       11.271       12.535      341.478      127.046      157.122        0.172        0.031       52.316        4.615        0.008      336.597        8.008      865.979
01/29/2022  17:07:00       24.246       -5.257       -1.669       20.679       14.634       13.257      427.619      214.142      175.751        0.072        0.041       24.809       10.664        0.185      336.602        8.015      865.981
01/29/2022  17:08:00       36.910       16.982       -5.462       16.482       10.184        6.296      271.647      103.720       39.637        0.105        0.021       40.629        4.556        0.013      336.570        7.962      865.985
01/29/2022  17:09:00       45.907       13.415       -5.440        9.697        5.744        4.877       94.036       32.997       23.783        0.123        0.008       47.827        2.984        0.004      336.666        8.123      865.987
01/29/2022  17:10:00       48.052       15.763       -3.957        8.191        7.348        6.274       67.084       53.988       39.360        0.137        0.008       50.572        3.747        0.005      336.621        8.043      865.976
01/29/2022  17:11:00       43.444       12.696       -4.018        8.259        6.448        6.127       68.211       41.582       37.546        0.111        0.007       45.261        3.617        0.006      336.616        8.037      865.976
01/29/2022  17:12:00       37.497        6.178       -4.005        7.138        6.055        3.961       50.944       36.665       15.686        0.078        0.005       38.002        3.073        0.007      336.654        8.099      865.961
01/29/2022  17:13:00       48.318       27.106       -9.811       22.177       13.117        7.150      491.841      172.060       51.125        0.194        0.036       55.401        8.306        0.022      336.596        8.004      865.944
01/29/2022  17:14:00       67.833       26.989       -6.844       10.984       10.244        5.342      120.657      104.941       28.534        0.282        0.013       73.005        5.638        0.006      336.663        8.117      865.942
01/29/2022  17:15:00       59.162        8.037       -6.904       11.150        6.463        6.729      124.332       41.777       45.278        0.191        0.011       59.705        5.228        0.008      336.644        8.086      865.943
01/29/2022  17:16:00       51.042        9.609       -4.731       12.001        7.290        7.212      144.032       53.143       52.006        0.148        0.012       51.939        5.785        0.012      336.579        7.978      865.944
01/29/2022  17:17:00       52.634       16.415       -4.966        4.522        4.638        3.619       20.449       21.512       13.094        0.156        0.003       55.134        2.745        0.002      336.617        8.043      865.955
01/29/2022  17:18:00       46.572       18.569       -5.535       12.425        6.034        5.722      154.382       36.405       32.744        0.138        0.011       50.137        3.115        0.004      336.515        7.869      865.966
01/29/2022  17:19:00       46.527       14.613       -5.735       10.757        6.614        6.011      115.722       43.749       36.137        0.130        0.010       48.768        2.260        0.002      336.535        7.902      865.968
01/29/2022  17:20:00       55.936       18.954       -6.415       10.129        7.427        6.560      102.595       55.157       43.036        0.186        0.010       59.060        3.458        0.003      336.563        7.952      865.973
01/29/2022  17:21:00       48.865       14.029       -8.656        8.923        9.766        8.756       79.627       95.373       76.673        0.146        0.013       50.839        2.420        0.002      336.480        7.812      865.977
01/29/2022  17:22:00       38.688       14.309       -3.768       10.117        8.245        7.475      102.344       67.975       55.882        0.097        0.011       41.249        6.331        0.024      336.406        7.686      865.987
01/29/2022  17:23:00       12.578       10.042       -8.357       15.548        9.850       11.902      241.742       97.032      141.650        0.040        0.024       16.095        9.532        0.351      336.365        7.617      866.001
01/29/2022  17:24:00      -32.229       20.299      -16.290       40.792        9.175        9.560     1663.964       84.176       91.387        0.178        0.092       38.089       11.087        0.085      336.263        7.448      866.010
01/29/2022  17:25:00      -57.295       15.515      -14.588       28.864       22.717       13.869      833.155      516.049      192.350        0.264        0.077       59.359       14.927        0.063      335.956        6.934      866.026
01/29/2022  17:26:00     -122.534       55.071      -18.538       42.312       32.625       21.677     1790.346     1064.411      469.886        1.086        0.166      134.341       12.865        0.009      335.671        6.460      866.033
01/29/2022  17:27:00     -146.970       55.179      -15.624       26.278       28.229       21.705      690.537      796.867      471.086        1.342        0.098      156.987       15.216        0.009      335.765        6.617      866.036
01/29/2022  17:28:00     -130.870       44.342       -6.504       41.389       32.614       27.862     1713.014     1063.699      776.268        1.134        0.178      138.178       26.278        0.036      335.676        6.469      866.037
01/29/2022  17:29:00     -136.231       49.691      -17.254       30.735       37.763       28.277      944.658     1426.016      799.572        1.225        0.159      145.011       15.229        0.011      335.619        6.373      866.034
01/29/2022  17:30:00     -123.902       35.335      -10.238       43.085       34.808       21.114     1856.288     1211.610      445.815        1.011        0.176      128.842       16.394        0.016      335.613        6.365      866.043
01/29/2022  17:31:00     -132.921       63.999      -21.297       26.794       31.072       21.800      717.935      965.440      475.233        1.219        0.108      147.526       14.769        0.010      335.486        6.152      866.047
01/29/2022  17:32:00     -124.141       45.706      -18.153       23.837       26.268       20.508      568.205      690.006      420.587        0.975        0.084      132.288       10.712        0.007      335.432        6.062      866.049
01/29/2022  17:33:00      -81.130       11.299       -6.260       25.967       31.089       20.843      674.310      966.516      434.426        0.441        0.104       81.913        9.185        0.013      335.602        6.343      866.055
01/29/2022  17:34:00      -37.233       -7.311       -1.863       51.844       39.398       23.255     2687.795     1552.166      540.813        0.311        0.239       37.944       21.519        0.322      335.579        6.307      866.059
01/29/2022  17:35:00      -67.884       23.215       -4.351       50.592       32.377       22.213     2559.541     1048.252      493.400        0.463        0.205       71.744       23.205        0.105      335.539        6.239      866.064
01/29/2022  17:36:00      -77.306        1.541      -10.675       66.219       38.923       25.714     4384.947     1514.976      661.204        0.633        0.328       77.321       28.962        0.140      335.524        6.215      866.089
01/29/2022  17:37:00     -107.295       14.109      -17.074       43.890       32.710       24.759     1926.371     1069.958      612.990        0.781        0.180      108.219       22.004        0.041      335.355        5.935      866.108
01/29/2022  17:38:00     -119.487       37.843      -13.376       43.238       30.050       29.275     1869.545      902.985      857.030        0.976        0.181      125.337       23.795        0.036      335.216        5.702      866.133
01/29/2022  17:39:00     -114.433       49.888       -7.932       52.658       37.290       28.760     2772.817     1390.507      827.165        1.032        0.250      124.835       24.019        0.037      335.211        5.694      866.168
01/29/2022  17:40:00     -129.218       52.213      -21.514       40.323       33.175       21.968     1625.937     1100.569      482.580        1.155        0.160      139.368       21.386        0.024      335.068        5.457      866.189
01/29/2022  17:41:00      -72.932       26.348       -4.463       63.123       38.764       30.689     3984.506     1502.628      941.804        0.623        0.321       77.546       30.066        0.150      334.989        5.327      866.223
01/29/2022  17:42:00      -94.890       23.558      -27.517       39.076       32.496       27.049     1526.945     1055.997      731.673        0.681        0.166       97.770       21.447        0.048      335.105        5.518      866.243
01/29/2022  17:43:00      -81.223       47.760      -22.970       48.133       48.483       26.781     2316.818     2350.631      717.211        0.739        0.269       94.224       29.976        0.101      335.213        5.698      866.265
01/29/2022  17:44:00      -58.309       13.874       -7.732       42.629       40.816       29.006     1817.225     1665.906      841.321        0.399        0.216       59.937       23.562        0.155      335.094        5.500      866.282
01/29/2022  17:45:00      -68.236       11.213        0.531       42.358       37.721       26.181     1794.187     1422.858      685.423        0.434        0.195       69.152       22.103        0.102      335.068        5.457      866.301
01/29/2022  17:46:00      -26.182       26.803       -3.851       31.223       32.633       25.864      974.865     1064.892      668.949        0.206        0.135       37.468       16.810        0.201      335.176        5.636      866.314
01/29/2022  17:47:00      -23.521       59.928      -11.470       32.538       53.786       18.156     1058.726     2892.959      329.656        0.428        0.214       64.378       17.756        0.076      335.248        5.755      866.322
01/29/2022  17:48:00      -30.079       85.554       -9.270       20.158       25.014       16.398      406.359      625.723      268.881        0.481        0.065       90.688        8.091        0.008      335.467        6.121      866.319
01/29/2022  17:49:00        1.453       48.586       -4.899       41.039       25.657       16.057     1684.197      658.284      257.830        0.249        0.130       48.608       16.056        0.109      335.422        6.046      866.328
01/29/2022  17:50:00       38.259       11.252      -12.932       38.471       47.160       33.245     1480.056     2224.049     1105.262        0.328        0.240       39.879       23.502        0.347      334.902        5.182      866.340
01/29/2022  17:51:00       37.119       20.496       -5.100       30.075       24.054       22.101      904.479      578.579      488.455        0.190        0.099       42.402       19.311        0.207      334.722        4.882      866.350
01/29/2022  17:52:00       17.558       53.022       -2.583       23.329       29.439       11.751      544.219      866.631      138.076        0.234        0.077       55.854       13.764        0.061      335.313        5.866      866.348
01/29/2022  17:53:00       40.948       33.190      -15.662       32.235       26.914       16.752     1039.117      724.377      280.624        0.253        0.102       52.710       18.754        0.127      335.739        6.574      866.351
01/29/2022  17:54:00      -28.087        7.867      -12.494       22.256       24.623       14.159      495.330      606.279      200.487        0.115        0.065       29.168       13.792        0.224      334.920        5.212      866.359
01/29/2022  17:55:00      -29.104       -1.734       -7.008       21.783       24.485       13.689      474.514      599.500      187.402        0.108        0.063       29.156       10.284        0.124      334.902        5.182      866.363
01/29/2022  17:56:00      -22.137       -7.680       -8.030       17.709       13.741       10.197      313.615      188.829      103.976        0.061        0.030       23.432        8.565        0.134      334.971        5.296      866.366
01/29/2022  17:57:00       -5.225        0.809       -9.425        9.080        9.221        8.702       82.444       85.033       75.723        0.018        0.012        5.288        6.557        1.538      335.292        5.830      866.370
01/29/2022  17:58:00       -2.289      -12.394      -17.563       17.030       11.070        7.471      290.031      122.540       55.823        0.047        0.023       12.603        8.700        0.477      335.520        6.208      866.371
01/29/2022  17:59:00      -48.647       31.985      -14.014       18.737       10.626        9.156      351.067      112.914       83.841        0.207        0.027       58.220        7.329        0.016      335.071        5.461      866.374
01/29/2022  18:00:00      -83.466       20.337      -20.327       11.158       11.209        9.797      124.508      125.643       95.975        0.407        0.017       85.908        4.224        0.002      335.009        5.360      866.379
01/29/2022  18:01:00      -58.516       14.298      -13.125        9.935       12.449       13.260       98.699      154.978      175.833        0.212        0.021       60.238        7.061        0.014      335.078        5.474      866.392
01/29/2022  18:02:00      -49.130       10.611       -2.096       20.147       15.401       12.122      405.907      237.184      146.947        0.166        0.040       50.263        5.913        0.014      335.100        5.510      866.403
01/29/2022  18:03:00       -3.097        1.247       -7.563        9.424       17.037       14.497       88.814      290.248      210.171        0.033        0.029        3.338       11.545       11.960      335.054        5.434      866.416
01/29/2022  18:04:00      -46.142       14.785      -10.309       20.301       13.918       12.767      412.128      193.721      163.007        0.161        0.038       48.453       13.969        0.083      335.148        5.591      866.429
01/29/2022  18:05:00      -26.794       -1.979      -10.879       19.421       16.206       10.562      377.171      262.630      111.559        0.080        0.038       26.867        6.970        0.067      335.120        5.542      866.421
01/29/2022  18:06:00       -8.793       -0.016       -0.415       12.842       12.662       12.801      164.927      160.338      163.876        0.028        0.024        8.793        9.338        1.128      334.982        5.315      866.416
01/29/2022  18:07:00      -29.566       -5.462       -7.925       17.672       13.779       12.062      312.294      189.850      145.497        0.081        0.032       30.066       11.757        0.153      334.880        5.146      866.415
01/29/2022  18:08:00       -2.350       -9.307      -15.300        8.225       12.535        6.642       67.653      157.127       44.120        0.030        0.013        9.599        4.676        0.237      334.922        5.214      866.412
01/29/2022  18:09:00      -22.949       21.648       -3.878       11.786        9.431        5.474      138.906       88.936       29.967        0.063        0.013       31.548        2.658        0.007      335.166        5.619      866.416
01/29/2022  18:10:00      -46.632       22.342      -11.228       14.098       11.816        9.352      198.764      139.609       87.459        0.161        0.021       51.708        5.968        0.013      335.132        5.563      866.418
01/29/2022  18:11:00      -47.867       31.686       -8.879       17.688       11.915       12.516      312.865      141.959      156.658        0.199        0.031       57.405        6.287        0.012      335.277        5.803      866.423
01/29/2022  18:12:00      -55.476       31.967      -13.000       13.296       10.394       11.367      176.772      108.035      129.201        0.234        0.021       64.027        7.476        0.014      334.942        5.248      866.438
01/29/2022  18:13:00      -11.202       24.613       -2.732       10.970        8.375       12.267      120.351       70.138      150.483        0.054        0.017       27.042        9.548        0.125      334.881        5.147      866.458
01/29/2022  18:14:00      -23.949       34.344      -10.330       15.151       30.671       12.832      229.561      940.707      164.656        0.160        0.067       41.870       12.997        0.096      334.908        5.193      866.485
01/29/2022  18:15:00      -22.159       73.393      -13.102       26.193       23.614       12.404      686.047      557.599      153.856        0.372        0.070       76.665        4.637        0.004      334.945        5.254      866.506
01/29/2022  18:16:00      -49.609       35.286      -14.198       24.849       35.079       17.130      617.472     1230.547      293.444        0.302        0.107       60.878       12.572        0.043      334.817        5.040      866.517
01/29/2022  18:17:00      -38.392       -1.482       -2.622       25.696       23.900       20.664      660.288      571.203      426.988        0.157        0.083       38.420       14.357        0.140      334.540        4.578      866.515
01/29/2022  18:18:00      -33.351      -23.900      -15.070       23.662       27.786       11.311      559.869      772.080      127.944        0.168        0.073       41.031       11.053        0.073      334.359        4.279      866.514
01/29/2022  18:19:00      -40.077      -19.526      -13.407       18.973       16.621       10.883      359.974      276.241      118.450        0.146        0.038       44.581        9.479        0.045      334.549        4.593      866.513
01/29/2022  18:20:00      -30.615        5.543       -6.898       24.946       16.882        8.144      622.316      285.007       66.327        0.099        0.049       31.112        5.468        0.031      334.537        4.573      866.515
01/29/2022  18:21:00      -15.136       -8.047       -4.623       21.091       13.719       11.757      444.824      188.213      138.225        0.054        0.039       17.141        6.974        0.166      334.491        4.497      866.520
01/29/2022  18:22:00      -38.401       -0.049       -5.233       24.126       12.982       13.036      582.040      168.528      169.930        0.121        0.046       38.401       13.555        0.125      334.602        4.681      866.527
01/29/2022  18:23:00      -47.630       11.884       -3.472       25.292       15.094       14.726      639.683      227.821      216.857        0.175        0.054       49.090        9.102        0.034      334.627        4.725      866.535
01/29/2022  18:24:00      -35.285       -9.859       -5.541       32.178       18.542       18.392     1035.413      343.808      338.276        0.154        0.086       36.636       15.098        0.170      334.587        4.655      866.536
01/29/2022  18:25:00      -27.530        6.172        0.284       26.877       17.251       15.907      722.370      297.606      253.040        0.103        0.064       28.213       10.751        0.145      334.470        4.463      866.537
01/29/2022  18:26:00      -61.050       -1.585        1.595       40.568       33.165       21.591     1645.802     1099.947      466.191        0.347        0.161       61.070       18.873        0.096      334.561        4.613      866.552
01/29/2022  18:27:00      -71.379        1.230        1.328       38.012       33.906       25.900     1444.880     1149.633      670.824        0.418        0.163       71.389       20.027        0.079      334.547        4.591      866.564
01/29/2022  18:28:00      -69.601       20.367       -5.671       40.162       33.915       23.544     1613.013     1150.256      554.340        0.430        0.166       72.519       19.592        0.073      334.622        4.715      866.585
01/29/2022  18:29:00      -60.962       -3.114       -1.589       47.942       31.180       20.805     2298.413      972.197      432.843        0.372        0.185       61.042       21.160        0.120      334.605        4.687      866.601
01/29/2022  18:30:00        3.661      -10.403        9.229       18.721       19.966       17.194      350.482      398.655      295.630        0.063        0.052       11.028        7.272        0.435      334.450        4.431      866.614
01/29/2022  18:31:00       -8.648       -4.815        5.138       45.800       28.792       23.955     2097.622      828.952      573.830        0.181        0.175        9.898        8.044        0.660      334.418        4.378      866.610
01/29/2022  18:32:00      -51.753       -0.484        1.802       50.693       39.201       28.040     2569.774     1536.735      786.239        0.379        0.245       51.755       23.889        0.213      334.428        4.393      866.609
01/29/2022  18:33:00      -78.716       -3.526       -8.635       43.326       30.499       31.424     1877.175      930.183      987.483        0.504        0.190       78.795       22.660        0.083      334.356        4.275      866.604
01/29/2022  18:34:00      -20.107       -9.950      -10.147       40.015       34.658       27.062     1601.238     1201.171      732.379        0.207        0.177       22.434       21.122        0.886      334.272        4.135      866.608
01/29/2022  18:35:00      -45.337        2.811        0.539       56.936       21.979       19.625     3241.743      483.058      385.139        0.309        0.205       45.424       15.475        0.116      334.264        4.122      866.625
01/29/2022  18:36:00     -119.332       12.359      -18.089       30.424       41.547       25.327      925.615     1726.187      641.444        0.901        0.165      119.971       17.945        0.022      334.173        3.970      866.630
01/29/2022  18:37:00     -106.332       31.330      -15.761       38.195       24.774       21.303     1458.838      613.752      453.828        0.753        0.126      110.851       12.219        0.012      333.984        3.657      866.643
01/29/2022  18:38:00     -104.989       25.598       -9.694       44.412       33.842       25.822     1972.451     1145.311      666.781        0.778        0.189      108.064       24.085        0.050      333.937        3.581      866.646
01/29/2022  18:39:00      -75.097       20.989      -11.216       36.397       26.397       22.220     1324.775      696.789      493.727        0.436        0.126       77.975       12.830        0.027      333.923        3.556      866.650
01/29/2022  18:40:00      -20.055        6.042       -6.636       22.427       35.042       19.908      502.969     1227.910      396.309        0.130        0.106       20.945        8.987        0.184      333.918        3.549      866.661
01/29/2022  18:41:00       -4.751        6.827       -3.747       19.348       26.568       19.778      374.360      705.879      391.160        0.078        0.074        8.318       14.773        3.155      333.851        3.438      866.656
01/29/2022  18:42:00      -36.744       -0.609      -14.032       46.884       35.176       18.060     2198.069     1237.371      326.159        0.265        0.188       36.750        8.741        0.057      333.869        3.469      866.651
01/29/2022  18:43:00        3.221       13.148      -10.985       16.361       17.144       20.777      267.673      293.914      431.696        0.065        0.050       13.536       12.315        0.828      333.772        3.306      866.647
01/29/2022  18:44:00        7.464       -4.606      -21.562       11.930       12.146       11.253      142.328      147.526      126.620        0.048        0.021        8.771        5.442        0.385      333.872        3.473      866.647
01/29/2022  18:45:00       -2.152       -5.679       -4.938       14.371       19.017       16.818      206.522      361.645      282.847        0.046        0.043        6.074       10.141        2.788      333.767        3.297      866.654
01/29/2022  18:46:00      -39.585        3.217      -11.788       45.905       23.949       21.783     2107.303      573.554      474.481        0.244        0.158       39.716       23.905        0.362      333.717        3.215      866.666
01/29/2022  18:47:00      -44.379      -14.427      -25.895       26.222       24.536       18.598      687.577      602.038      345.884        0.224        0.082       46.665       14.202        0.093      333.759        3.286      866.683
01/29/2022  18:48:00      -17.311       11.282      -10.134       20.951       24.047       23.165      438.926      578.247      536.623        0.104        0.078       20.663       17.632        0.728      333.721        3.222      866.701
01/29/2022  18:49:00      -64.605       30.341      -19.275       18.448       14.201       11.461      340.328      201.674      131.359        0.307        0.034       71.374        3.478        0.002      333.751        3.271      866.719
01/29/2022  18:50:00      -87.329       36.292      -21.942       17.077       15.666       12.698      291.631      245.418      161.250        0.506        0.035       94.569        3.850        0.002      333.769        3.301      866.735
01/29/2022  18:51:00      -81.724       26.005      -19.155       16.589       21.635       14.680      275.191      468.093      215.495        0.434        0.048       85.762        8.014        0.009      333.863        3.456      866.742
01/29/2022  18:52:00      -57.988       15.415      -10.559       29.742       21.169       15.688      884.570      448.130      246.110        0.264        0.079       60.001       12.150        0.041      333.824        3.393      866.740
01/29/2022  18:53:00      -80.173       22.096      -15.633       27.058       19.307       14.325      732.113      372.761      205.193        0.423        0.066       83.162        4.566        0.003      333.805        3.360      866.751
01/29/2022  18:54:00      -29.944      -16.376      -11.022       18.919       24.321       16.133      357.927      591.493      260.285        0.125        0.060       34.129        4.982        0.021      333.785        3.328      866.758
01/29/2022  18:55:00      -12.556      -17.713      -12.763       24.972       18.019       13.438      623.592      324.679      180.572        0.088        0.056       21.712       13.283        0.374      334.018        3.713      866.768
01/29/2022  18:56:00      -28.487      -18.091      -15.198       26.548       22.361       13.196      704.774      500.008      174.132        0.137        0.069       33.746       13.983        0.172      334.037        3.745      866.786
01/29/2022  18:57:00      -12.470       -3.819       -7.635       22.302       29.182       18.625      497.373      851.615      346.907        0.096        0.085       13.041       10.137        0.604      333.810        3.369      866.799
01/29/2022  18:58:00      -27.296       10.976       -1.987       34.509       15.465       14.343     1190.891      239.160      205.708        0.125        0.082       29.420       10.194        0.120      333.791        3.337      866.811
01/29/2022  18:59:00      -97.738       17.685      -14.206       14.541       10.888        9.686      211.452      118.543       93.810        0.525        0.021       99.325        3.374        0.001      333.899        3.517      866.827
01/29/2022  19:00:00      -58.820       28.120      -12.552       19.818       13.705       13.366      392.745      187.833      178.649        0.258        0.038       65.196        7.079        0.012      334.005        3.693      866.851
01/29/2022  19:01:00      -19.094       16.355       -6.512       11.893       13.702        8.938      141.437      187.750       79.884        0.054        0.020       25.140        5.965        0.056      334.032        3.738      866.861
01/29/2022  19:02:00      -39.225       17.608       -9.101        9.268        9.647        9.485       85.901       93.071       89.969        0.110        0.013       42.996        4.325        0.010      334.088        3.832      866.866
01/29/2022  19:03:00      -47.014       24.603      -17.049       10.552        7.046        7.206      111.350       49.650       51.920        0.166        0.011       53.062        4.303        0.007      333.994        3.677      866.868
01/29/2022  19:04:00      -61.257       28.505      -14.431        6.565        8.556       10.351       43.105       73.213      107.147        0.250        0.011       67.564        5.877        0.008      333.996        3.677      866.861
01/29/2022  19:05:00      -33.867        8.727      -12.205       22.402       20.945       11.777      501.871      438.673      138.686        0.123        0.054       34.973       14.199        0.165      333.907        3.532      866.868
01/29/2022  19:06:00       -9.340       -9.681        1.042       13.418       11.949        6.889      180.052      142.786       47.460        0.028        0.019       13.452        5.715        0.180      333.823        3.392      866.869
01/29/2022  19:07:00      -20.429        1.989       -7.101       21.062       19.040        9.032      443.605      362.538       81.584        0.068        0.044       20.526        8.749        0.182      333.834        3.409      866.881
01/29/2022  19:08:00      -47.038       14.449      -10.464       11.247        8.394       12.482      126.501       70.454      155.796        0.144        0.018       49.207        3.337        0.005      333.902        3.523      866.890
01/29/2022  19:09:00      -15.055       14.239       -8.901       11.493       11.311        7.466      132.078      127.938       55.735        0.041        0.016       20.722        6.068        0.086      333.952        3.605      866.898
01/29/2022  19:10:00        7.365        6.577       -2.808        7.052        5.790        4.479       49.730       33.521       20.062        0.010        0.005        9.874        2.694        0.074      334.001        3.685      866.896
01/29/2022  19:11:00       11.239        4.169       -4.161        5.033        3.158        2.637       25.327        9.975        6.953        0.010        0.002       11.987        1.591        0.018      334.094        3.837      866.898
01/29/2022  19:12:00        1.579        2.627       -3.877        3.459        2.473        2.167       11.964        6.115        4.694        0.002        0.001        3.065        0.838        0.075      334.077        3.812      866.900
01/29/2022  19:13:00      -21.145       17.707       -7.029       12.550       14.698        6.132      157.497      216.022       37.596        0.061        0.021       27.579        6.334        0.053      333.929        3.567      866.910
01/29/2022  19:14:00      -20.162       28.348       -8.274        7.179        7.581        6.685       51.531       57.469       44.695        0.072        0.008       34.786        4.868        0.020      333.826        3.395      866.926
01/29/2022  19:15:00       -9.033       23.603       -6.088       14.455        7.585       10.184      208.943       57.536      103.720        0.052        0.019       25.272        8.905        0.124      333.888        3.498      866.940
01/29/2022  19:16:00       38.371       35.966       -5.820       22.173       11.843       11.310      491.655      140.248      127.915        0.178        0.038       52.592       12.812        0.059      333.987        3.664      866.944
01/29/2022  19:17:00       54.599       34.229       -5.451       14.384        8.589        7.901      206.889       73.775       62.429        0.226        0.017       64.441        6.360        0.010      333.736        3.247      866.944
01/29/2022  19:18:00       25.024       25.808       -3.522       17.490       20.848        9.643      305.893      434.641       92.987        0.107        0.042       35.948        6.792        0.036      333.546        2.932      866.946
01/29/2022  19:19:00       25.430       57.177       -8.921       17.520       26.082       13.821      306.958      680.274      191.033        0.259        0.059       62.577       10.458        0.028      333.778        3.317      866.940
01/29/2022  19:20:00       38.190       38.776       -4.962       18.208       27.089       13.659      331.516      733.788      186.566        0.212        0.063       54.424       13.368        0.060      333.739        3.252      866.952
01/29/2022  19:21:00       23.001       29.899      -11.643       16.307       13.615       13.109      265.910      185.358      171.847        0.109        0.031       37.723       11.701        0.096      333.595        3.012      866.956
01/29/2022  19:22:00       39.467        5.073        0.639       15.397       13.218       11.576      237.058      174.707      133.998        0.106        0.027       39.792        8.906        0.050      333.755        3.278      866.962
01/29/2022  19:23:00       29.880       35.411       -2.815       22.694       26.243       12.355      515.040      688.713      152.639        0.176        0.068       46.333        9.693        0.044      333.867        3.464      866.977
01/29/2022  19:24:00       23.787       60.385       -4.236       26.199       35.432       18.931      686.395     1255.458      358.377        0.326        0.115       64.902       14.503        0.050      334.031        3.735      867.001
01/29/2022  19:25:00       32.811       19.237      -15.727       41.550       29.508       24.679     1726.401      870.707      609.064        0.245        0.160       38.035       18.700        0.242      334.157        3.942      867.017
01/29/2022  19:26:00      -51.240       19.544      -12.885       25.185       34.604       14.923      634.280     1197.446      222.707        0.261        0.103       54.840       17.700        0.104      333.525        2.898      867.042
01/29/2022  19:27:00       -7.230      -13.591       -9.143       24.144       30.499       10.023      582.932      930.207      100.462        0.097        0.081       15.394       14.512        0.889      333.867        3.463      867.053
01/29/2022  19:28:00      -34.465       15.087      -13.998       21.405       16.582       14.045      458.191      274.973      197.252        0.127        0.047       37.622       15.752        0.175      333.664        3.126      867.065
01/29/2022  19:29:00      -51.678        7.871      -15.557       24.785       17.036       17.889      614.320      290.213      320.030        0.210        0.061       52.274       13.950        0.071      333.348        2.604      867.093
01/29/2022  19:30:00      -68.096        9.339       -8.170       22.585       11.782       14.953      510.100      138.816      223.592        0.283        0.044       68.733       10.928        0.025      333.451        2.775      867.117
01/29/2022  19:31:00      -59.680        7.615      -16.630       42.682       22.453       18.898     1821.788      504.117      357.136        0.329        0.134       60.164       24.348        0.164      333.442        2.762      867.134
01/29/2022  19:32:00      -37.292        3.136      -11.792       29.954        9.909       10.675      897.262       98.196      113.959        0.132        0.055       37.424        9.564        0.065      333.596        3.014      867.153
01/29/2022  19:33:00      -69.386        7.066      -13.814       33.065       21.437       12.243     1093.312      459.524      149.896        0.338        0.085       69.745        5.464        0.006      333.506        2.867      867.166
01/29/2022  19:34:00     -104.413       33.306       -6.758       27.592       18.464       15.004      761.338      340.915      225.123        0.669        0.066      109.596        9.542        0.008      333.410        2.707      867.173
01/29/2022  19:35:00      -92.904       14.386       -6.869       51.049       24.934       20.220     2605.958      621.709      408.862        0.626        0.182       94.011       16.882        0.032      333.527        2.901      867.179
01/29/2022  19:36:00     -117.598       40.654       -5.956       44.029       33.507       24.736     1938.581     1122.724      611.863        0.959        0.184      124.427       25.238        0.041      333.260        2.459      867.179
01/29/2022  19:37:00     -108.749       15.147        0.760       31.196       27.053       23.239      973.195      731.890      540.074        0.715        0.112      109.799       16.938        0.024      333.390        2.675      867.190
01/29/2022  19:38:00      -77.226       34.904       -7.764       22.541       21.473       15.443      508.112      461.069      238.487        0.422        0.060       84.748       11.440        0.018      333.454        2.779      867.211
01/29/2022  19:39:00      -99.665       14.133       -6.385       27.170       18.709       13.623      738.223      350.025      185.584        0.572        0.064      100.662       15.092        0.022      333.560        2.955      867.220
01/29/2022  19:40:00      -94.400       11.920       -9.060       45.240       30.342       18.677     2046.685      920.614      348.818        0.623        0.166       95.150       20.191        0.045      333.670        3.139      867.224
01/29/2022  19:41:00      -67.340        9.695      -10.495       39.243       32.516       18.330     1540.028     1057.307      335.989        0.384        0.147       68.035       15.404        0.051      333.826        3.396      867.229
01/29/2022  19:42:00      -49.388       55.571      -12.662       27.887       30.924       19.645      777.661      956.281      385.912        0.390        0.106       74.346        9.055        0.015      333.942        3.590      867.228
01/29/2022  19:43:00      -20.172       51.836       -9.598       27.318       27.339       11.855      746.268      747.421      140.538        0.241        0.082       55.623       11.489        0.043      333.926        3.563      867.231
01/29/2022  19:44:00      -47.423       34.609      -11.463       30.229       13.739       13.362      913.816      188.767      178.549        0.243        0.064       58.709       10.874        0.034      333.859        3.450      867.221
01/29/2022  19:45:00      -48.642       18.924      -13.034       21.417       13.481       13.012      458.676      181.729      169.306        0.185        0.040       52.194        7.049        0.018      333.695        3.180      867.214
01/29/2022  19:46:00      -35.536      -21.633      -11.286       13.087       13.597       12.387      171.273      184.867      153.433        0.118        0.025       41.603        7.532        0.033      333.608        3.035      867.198
01/29/2022  19:47:00      -35.827      -10.559      -10.227       28.260       13.622       13.984      798.619      185.567      195.540        0.134        0.059       37.351       13.638        0.133      333.708        3.200      867.189
01/29/2022  19:48:00       14.079       -0.950        2.298        7.079        9.469       10.447       50.107       89.657      109.143        0.023        0.012       14.111        6.166        0.191      333.621        3.058      867.186
01/29/2022  19:49:00        2.689       10.060       -4.866       21.888       18.853        8.637      479.089      355.451       74.601        0.052        0.045       10.414        7.741        0.553      333.596        3.015      867.187
01/29/2022  19:50:00      -22.062       75.194       -7.900       26.655       38.767       16.577      710.487     1502.903      274.794        0.435        0.124       78.364       10.427        0.018      333.919        3.551      867.200
01/29/2022  19:51:00      -31.337       68.282       -9.223       25.287       39.333       17.861      639.424     1547.082      319.013        0.412        0.125       75.129       13.370        0.032      333.956        3.611      867.203
01/29/2022  19:52:00      -67.732       27.357      -12.242       22.473       13.911       14.803      505.023      193.508      219.129        0.320        0.046       73.048        7.520        0.011      333.796        3.347      867.199
01/29/2022  19:53:00      -61.571       21.134      -14.647       23.324       14.865       13.255      544.007      220.965      175.698        0.270        0.047       65.098        5.892        0.008      333.856        3.445      867.192
01/29/2022  19:54:00      -48.490       35.978       -7.470       20.367       23.111       17.102      414.811      534.111      292.467        0.247        0.062       60.380        8.295        0.019      333.904        3.524      867.173
01/29/2022  19:55:00      -38.243       -3.785       -9.018       18.703       24.625       13.593      349.798      606.395      184.763        0.135        0.057       38.430        9.445        0.060      333.814        3.376      867.171
01/29/2022  19:56:00      -10.165       14.058       -1.796       17.147       20.331       16.545      294.024      413.354      273.752        0.064        0.049       17.348       11.885        0.469      333.629        3.069      867.164
01/29/2022  19:57:00      -17.352       12.518       -7.988       14.007       12.988       12.328      196.206      168.680      151.988        0.052        0.026       21.396        9.968        0.217      333.950        3.601      867.166
01/29/2022  19:58:00      -64.558       18.905       -7.466       15.567       15.875       12.462      242.318      252.005      155.313        0.262        0.032       67.269        2.493        0.001      334.052        3.772      867.169
01/29/2022  19:59:00      -71.009        9.222      -14.080       11.858       16.112        9.358      140.621      259.599       87.573        0.291        0.024       71.606        3.352        0.002      333.894        3.508      867.177
01/29/2022  20:00:00      -47.959       23.227      -10.382       13.871        8.024        6.467      192.405       64.378       41.818        0.162        0.015       53.288        2.927        0.003      333.977        3.646      867.198
01/29/2022  20:01:00      -29.436       16.854       -6.273       18.107        8.630        9.959      327.867       74.476       99.183        0.085        0.025       33.920        8.010        0.056      333.851        3.438      867.208
01/29/2022  20:02:00      -32.306       22.312       -4.311       20.744       14.805        8.364      430.313      219.175       69.952        0.114        0.036       39.262        4.156        0.011      333.701        3.189      867.214
01/29/2022  20:03:00      -74.604       21.714       -7.607       30.280       26.990       18.309      916.901      728.438      335.218        0.404        0.099       77.700       12.664        0.027      333.221        2.395      867.214
01/29/2022  20:04:00      -58.420       19.221       -0.046       39.106       25.095       22.908     1529.288      629.750      524.758        0.323        0.134       61.500       18.044        0.086      333.040        2.095      867.212
01/29/2022  20:05:00      -29.221       -2.229       -8.963       37.728       23.503       15.800     1423.413      552.413      249.637        0.158        0.111       29.306       14.132        0.233      333.162        2.296      867.205
01/29/2022  20:06:00      -76.594       11.559       -4.566       31.214       26.145       17.075      974.299      683.537      291.565        0.398        0.097       77.461        7.154        0.009      333.095        2.187      867.201
01/29/2022  20:07:00      -75.191       34.964       -9.431       19.609       17.636       12.830      384.527      311.028      164.619        0.391        0.043       82.923        6.816        0.007      333.164        2.301      867.208
01/29/2022  20:08:00      -24.220        2.807       -1.061       25.910       18.939       14.129      671.317      358.680      199.619        0.091        0.061       24.382       13.620        0.312      333.151        2.279      867.215
01/29/2022  20:09:00       11.159        2.070       -3.302       10.143       15.082        9.903      102.874      227.459       98.078        0.028        0.021       11.350        5.759        0.257      333.196        2.351      867.213
01/29/2022  20:10:00      -11.944       -7.555        2.832       15.491       15.631        8.242      239.959      244.331       67.932        0.038        0.028       14.133        5.001        0.125      333.363        2.629      867.219
01/29/2022  20:11:00       -5.584        6.246       -9.126        7.882        9.971        7.580       62.127       99.415       57.450        0.019        0.011        8.378        4.075        0.237      333.157        2.288      867.223
01/29/2022  20:12:00       -3.383       -5.759        1.730        9.469       14.494       14.280       89.670      210.065      203.915        0.028        0.025        6.679       11.110        2.767      333.156        2.286      867.217
01/29/2022  20:13:00      -38.913       21.697       -3.128       27.777       23.289        9.413      771.536      542.356       88.609        0.170        0.070       44.553        9.980        0.050      333.126        2.237      867.219
01/29/2022  20:14:00      -26.221      -16.060      -14.630       16.948       13.603       12.279      287.252      185.037      150.763        0.089        0.031       30.749        7.689        0.063      333.010        2.045      867.227
01/29/2022  20:15:00      -27.794       -5.322       -9.903       16.883       14.104       13.469      285.037      198.935      181.411        0.078        0.033       28.299       11.002        0.151      332.987        2.008      867.246
01/29/2022  20:16:00      -21.423       -6.404      -11.471       16.738       21.920       15.707      280.173      480.507      246.723        0.082        0.050       22.360       11.427        0.261      332.897        1.859      867.273
01/29/2022  20:17:00      -26.152       -1.282       -3.322       26.753       20.069       19.749      715.726      402.751      390.038        0.110        0.075       26.184       15.424        0.347      332.918        1.893      867.300
01/29/2022  20:18:00      -89.348        9.953      -13.797       33.065       19.119       17.276     1093.323      365.524      298.452        0.501        0.088       89.901       15.255        0.029      332.832        1.752      867.315
01/29/2022  20:19:00      -48.131        3.404       -6.530       36.892       24.432       18.174     1361.040      596.933      330.304        0.233        0.114       48.251       17.758        0.135      332.793        1.688      867.325
01/29/2022  20:20:00      -61.024      -10.413       -5.346       35.863       26.838       29.299     1286.170      720.279      858.441        0.336        0.143       61.906       25.240        0.166      332.701        1.536      867.326
01/29/2022  20:21:00      -99.996       -9.548       -4.915       36.566       25.339       23.368     1337.039      642.086      546.068        0.632        0.126      100.451       19.728        0.039      332.772        1.654      867.335
01/29/2022  20:22:00      -40.325       -6.732       -4.720       40.288       26.399       18.903     1623.138      696.901      357.317        0.219        0.134       40.883       12.301        0.091      332.776        1.660      867.341
01/29/2022  20:23:00      -19.576       -6.519       -5.039       40.002       23.677       25.383     1600.155      560.596      644.293        0.163        0.140       20.633       23.531        1.301      332.690        1.517      867.349
01/29/2022  20:24:00        9.883        4.560        5.518       22.118       20.558       17.880      489.222      422.650      319.680        0.069        0.062       10.885       13.428        1.522      332.688        1.514      867.359
01/29/2022  20:25:00      -74.001       -4.364       -4.850       50.550       34.908       26.067     2555.256     1218.539      679.466        0.499        0.223       74.129       10.106        0.019      332.573        1.325      867.358
01/29/2022  20:26:00      -54.168      -10.626       -1.305       39.242       24.096       24.807     1539.937      580.599      615.402        0.289        0.137       55.201       24.625        0.199      332.567        1.314      867.355
01/29/2022  20:27:00      -16.664        3.631       -2.350       23.954       23.450       18.027      573.786      549.890      324.966        0.087        0.072       17.055        8.705        0.260      332.579        1.334      867.356
01/29/2022  20:28:00      -11.135        1.846       -4.774       18.280       21.379       13.578      334.177      457.045      184.356        0.056        0.049       11.287        6.072        0.289      332.609        1.382      867.344
01/29/2022  20:29:00       11.559       -0.697        1.595       10.935        8.862       11.198      119.581       78.530      125.404        0.023        0.016       11.580        6.684        0.333      332.573        1.324      867.343
01/29/2022  20:30:00      -35.783       -6.681       -1.930       33.230       21.142       18.542     1104.262      447.005      343.793        0.161        0.095       36.401       11.642        0.102      332.552        1.288      867.340
01/29/2022  20:31:00      -28.225       -0.298       -0.653       34.687       25.874       19.424     1203.213      669.447      377.301        0.152        0.112       28.227       14.951        0.281      332.524        1.242      867.336
01/29/2022  20:32:00      -21.908        6.915       -1.831       19.249       18.130       15.999      370.538      328.711      255.977        0.074        0.048       22.973        9.547        0.173      332.536        1.263      867.339
01/29/2022  20:33:00      -47.707       -6.846       -2.561       36.214       23.140       22.112     1311.482      535.458      488.934        0.233        0.117       48.196       18.713        0.151      332.607        1.381      867.334
01/29/2022  20:34:00      -35.562       -4.396       -3.500       24.470       23.200       18.639      598.782      538.246      347.428        0.139        0.074       35.833       14.035        0.153      332.649        1.450      867.341
01/29/2022  20:35:00       -7.959       -6.048        0.439       18.172       15.303       17.470      330.213      234.187      305.197        0.048        0.043        9.996       10.619        1.128      332.623        1.406      867.347
01/29/2022  20:36:00      -27.405      -10.269        0.225       31.586       26.889       15.141      997.661      723.000      229.265        0.140        0.097       29.266       10.386        0.126      332.589        1.350      867.348
01/29/2022  20:37:00      -52.132       -0.933        0.211       39.641       31.501       20.801     1571.447      992.326      432.677        0.286        0.150       52.140       20.085        0.148      332.554        1.292      867.350
01/29/2022  20:38:00      -75.526      -16.960        0.786       48.138       27.334       29.410     2317.279      747.161      864.965        0.496        0.196       77.406       26.425        0.117      332.526        1.246      867.350
01/29/2022  20:39:00      -35.752       -8.321        0.329       43.542       35.265       43.705     1895.922     1243.627     1910.086        0.320        0.252       36.708       31.744        0.748      332.414        1.061      867.341
01/29/2022  20:40:00      -50.460      -15.287       -5.428       52.687       30.451       37.437     2775.967      927.239     1401.512        0.396        0.255       52.724       31.454        0.356      332.374        0.995      867.346
01/29/2022  20:41:00      -20.791       24.374      -14.566       32.458       31.541       28.549     1053.519      994.843      815.038        0.205        0.143       32.037       16.582        0.268      332.373        0.993      867.334
01/29/2022  20:42:00      -29.036      -24.405      -13.710       50.342       29.012       29.364     2534.309      841.677      862.236        0.293        0.212       37.931       14.442        0.145      332.351        0.957      867.299
01/29/2022  20:43:00      -71.115      -23.980       -2.239       54.620       26.269       26.837     2983.345      690.080      720.217        0.501        0.220       75.049       27.677        0.136      332.214        0.730      867.305
01/29/2022  20:44:00        2.602       17.540        7.789       31.122       20.336       21.399      968.559      413.572      457.934        0.111        0.092       17.732       16.004        0.815      332.205        0.715      867.311
01/29/2022  20:45:00      -31.565        9.523       -3.968       42.284       34.345       25.344     1787.927     1179.588      642.342        0.236        0.180       32.971       23.367        0.502      332.199        0.706      867.325
01/29/2022  20:46:00      -41.868        1.972       -4.687       50.578       33.080       27.377     2558.112     1094.271      749.480        0.309        0.220       41.914       23.371        0.311      332.223        0.746      867.330
01/29/2022  20:47:00      -67.523       11.347       -7.926       60.986       35.659       24.843     3719.334     1271.587      617.159        0.518        0.280       68.470       25.329        0.137      332.286        0.848      867.339
01/29/2022  20:48:00      -37.733        8.981        8.270       52.240       35.246       26.771     2728.977     1242.303      716.677        0.313        0.234       38.787       23.198        0.358      332.255        0.798      867.344
01/29/2022  20:49:00      -35.603        0.929       -2.124       49.999       32.375       24.565     2499.890     1048.161      603.449        0.271        0.208       35.615       25.975        0.532      332.193        0.696      867.332
01/29/2022  20:50:00      -91.559      -17.048      -11.201       57.556       38.058       32.934     3312.646     1448.445     1084.681        0.732        0.292       93.133       33.685        0.131      332.197        0.701      867.328
01/29/2022  20:51:00      -30.455       -5.425       -5.138       34.934       37.802       27.492     1220.389     1429.025      755.829        0.219        0.170       30.935       21.125        0.466      332.130        0.592      867.324
01/29/2022  20:52:00       15.482       -0.549       -0.366       18.958       17.464       19.605      359.404      304.992      384.344        0.064        0.052       15.491        9.578        0.382      332.139        0.605      867.324
01/29/2022  20:53:00      -82.835       26.950      -20.793       67.293       34.648       19.172     4528.393     1200.492      367.580        0.706        0.305       87.108       15.635        0.032      332.124        0.582      867.331
01/29/2022  20:54:00     -142.370       50.080       -9.963       56.900       30.753       22.212     3237.657      945.757      493.365        1.378        0.234      150.922       21.818        0.021      331.950        0.296      867.336
01/29/2022  20:55:00     -118.735       49.152       -4.629       48.125       39.363       26.529     2316.053     1549.419      703.781        1.055        0.228      128.506       22.772        0.031      331.887        0.194      867.343
01/29/2022  20:56:00     -143.673       51.237      -11.840       47.610       35.728       22.598     2266.697     1276.491      510.687        1.373        0.203      152.536       18.067        0.014      331.853        0.138      867.348
01/29/2022  20:57:00      -35.899       -7.275       -4.693       54.348       42.653       21.016     2953.664     1819.300      441.686        0.329        0.261       36.629       20.725        0.320      331.929        0.262      867.354
01/29/2022  20:58:00       -4.237      -23.457      -20.617       35.211       32.287       26.102     1239.816     1042.468      681.320        0.198        0.148       23.836       22.910        0.924      331.937        0.275      867.359
01/29/2022  20:59:00       -5.093       -7.355      -10.378       33.388       36.941       20.686     1114.766     1364.633      427.896        0.155        0.145        8.947        7.465        0.696      331.941        0.281      867.371
01/29/2022  21:00:00       12.704      -22.461       -7.894       23.438       23.642       16.851      549.346      558.958      283.945        0.106        0.070       25.804       13.077        0.257      331.920        0.246      867.360
01/29/2022  21:01:00      -49.321        9.855       -9.222       72.661       28.488       28.455     5279.603      811.550      809.697        0.476        0.345       50.296       24.668        0.241      331.955        0.305      867.366
01/29/2022  21:02:00      -16.812        3.415       -8.577       24.235       34.505       23.479      587.311     1190.602      551.251        0.135        0.116       17.155        7.597        0.196      331.954        0.302      867.381
01/29/2022  21:03:00      -41.591       -9.520      -11.561       54.083       32.083       26.453     2925.011     1029.326      699.761        0.330        0.233       42.667       17.946        0.177      331.982        0.349      867.391
01/29/2022  21:04:00      -91.457       47.773      -10.376       39.206       34.039       21.309     1537.119     1158.685      454.070        0.695        0.157      103.183       14.482        0.020      331.879        0.180      867.412
01/29/2022  21:05:00     -104.165       47.979       -6.919       31.319       25.584       20.262      980.905      654.543      410.533        0.762        0.102      114.683       17.731        0.024      331.871        0.166      867.428
01/29/2022  21:06:00     -128.409       48.234      -13.361       29.426       24.449       19.653      865.894      597.753      386.256        1.042        0.092      137.169       17.128        0.016      331.860        0.149      867.442
01/29/2022  21:07:00      -86.141       30.951       -5.008       35.217       30.930       21.597     1240.255      956.658      466.445        0.553        0.133       91.533       16.774        0.034      331.871        0.167      867.459
01/29/2022  21:08:00      -80.768       26.046      -11.867       44.480       24.346       20.357     1978.440      592.750      414.424        0.516        0.149       84.864       11.963        0.020      331.864        0.155      867.471
01/29/2022  21:09:00      -79.990        5.926      -20.706       37.282       51.918       32.615     1389.942     2695.450     1063.758        0.600        0.257       80.210       24.539        0.094      331.871        0.168      867.472
01/29/2022  21:10:00      -21.352      -13.936       -1.010       34.590       45.395       18.292     1196.472     2060.748      334.580        0.212        0.180       25.497       16.387        0.413      331.867        0.159      867.473
01/29/2022  21:11:00       -0.814       12.223      -12.066       25.712       29.107       26.430      661.102      847.212      698.542        0.125        0.110       12.250       17.476        2.035      331.813        0.071      867.479
01/29/2022  21:12:00      -11.644      -18.108       -9.490       17.333       28.475       19.577      300.441      810.845      383.260        0.102        0.075       21.529        9.856        0.210      331.795        0.041      867.486
01/29/2022  21:13:00      -44.957        2.266       -6.106       43.274       19.746       22.639     1872.596      389.899      512.531        0.242        0.139       45.014       21.297        0.224      331.844        0.123      867.498
01/29/2022  21:14:00      -79.816        0.492      -13.849       42.115       23.052       22.401     1773.667      531.395      501.805        0.468        0.140       79.818       20.627        0.067      331.937        0.274      867.504
01/29/2022  21:15:00      -66.846       11.677       -8.816       37.919       31.831       16.530     1437.837     1013.189      273.257        0.370        0.136       67.858       21.710        0.102      331.982        0.347      867.515
01/29/2022  21:16:00      -22.863        9.374       -0.845       25.833       21.916       17.891      667.368      480.308      320.091        0.104        0.073       24.711       15.523        0.395      331.994        0.369      867.519
01/29/2022  21:17:00      -64.045       -5.473       -1.657       50.619       24.176       22.122     2562.246      584.497      489.369        0.388        0.182       64.278       21.107        0.108      331.981        0.347      867.530
01/29/2022  21:18:00      -74.441        7.377       -9.156       53.407       29.915       21.882     2852.356      894.928      478.826        0.495        0.211       74.806       15.733        0.044      332.025        0.420      867.537
01/29/2022  21:19:00      -90.661       21.582       -2.148       41.380       28.035       18.732     1712.312      785.987      350.891        0.577        0.142       93.195       15.865        0.029      332.031        0.429      867.548
01/29/2022  21:20:00      -57.268        2.279        0.351       55.025       21.527       21.798     3027.766      463.428      475.165        0.362        0.198       57.314       15.589        0.074      331.881        0.183      867.551
01/29/2022  21:21:00      -60.423        6.213       -9.169       46.207       37.150       30.512     2135.095     1380.136      930.967        0.411        0.222       60.742       18.508        0.093      331.825        0.091      867.558
01/29/2022  21:22:00      -97.478       14.592        1.150       66.154       46.519       26.218     4376.359     2164.010      687.366        0.847        0.361       98.564       24.599        0.062      331.893        0.201      867.567
01/29/2022  21:23:00     -100.223       13.188        1.007       71.953       37.031       26.317     5177.299     1371.317      692.566        0.873        0.362      101.087       30.255        0.090      331.903        0.220      867.577
01/29/2022  21:24:00      -11.209       -8.520       -9.900       36.643       31.695       24.896     1342.689     1004.571      619.815        0.163        0.148       14.079       20.716        2.165      331.860        0.149      867.591
01/29/2022  21:25:00      -56.987      -11.525       -2.353       64.959       38.626       34.500     4219.633     1491.945     1190.229        0.514        0.345       58.141       34.609        0.354      331.758       -0.020      867.602
01/29/2022  21:26:00     -107.456       16.885       -1.715       50.447       31.124       26.904     2544.931      968.727      723.830        0.804        0.212      108.775       23.124        0.045      331.693       -0.127      867.620
01/29/2022  21:27:00     -119.856       -8.402       -6.313       46.669       27.808       22.694     2177.966      773.296      515.036        0.897        0.173      120.150       19.341        0.026      331.737       -0.054      867.632
01/29/2022  21:28:00      -99.250       20.424       -2.873       47.613       35.930       26.828     2266.977     1290.973      719.721        0.728        0.214      101.329       23.750        0.055      331.764       -0.009      867.641
01/29/2022  21:29:00     -114.402       -2.975       -0.915       46.116       32.176       26.688     2126.653     1035.325      712.256        0.849        0.194      114.441       24.733        0.047      331.712       -0.096      867.644
01/29/2022  21:30:00      -89.563        2.196       -5.513       55.451       26.682       20.832     3074.800      711.924      433.963        0.614        0.211       89.589       20.462        0.052      331.699       -0.116      867.644
01/29/2022  21:31:00       -5.806       -6.204        3.146       20.664       17.544       12.979      426.987      307.775      168.457        0.049        0.045        8.497        9.048        1.134      331.763       -0.012      867.639
01/29/2022  21:32:00      -89.604      -15.188       -7.055       52.318       25.063       26.648     2737.127      628.134      710.138        0.619        0.204       90.882       26.671        0.086      331.638       -0.216      867.643
01/29/2022  21:33:00       -5.358       -1.019        1.445       30.278       27.831       19.029      916.746      774.559      362.111        0.104        0.103        5.454       12.655        5.383      331.640       -0.215      867.643
01/29/2022  21:34:00       -6.802        5.576       -6.765       25.033       26.592       23.350      626.657      707.110      545.245        0.100        0.094        8.795       17.073        3.768      331.615       -0.254      867.649
01/29/2022  21:35:00      -64.466        2.648       -6.565       63.511       23.839       22.779     4033.625      568.284      518.895        0.466        0.256       64.521       24.237        0.141      331.620       -0.248      867.643
01/29/2022  21:36:00      -21.231        0.335        1.992       32.326       24.622       21.431     1044.965      606.264      459.269        0.128        0.106       21.233       14.632        0.475      331.601       -0.279      867.644
01/29/2022  21:37:00      -40.119        9.607       -2.922       57.218       28.649       21.355     3273.914      820.760      456.044        0.313        0.228       41.254       15.085        0.134      331.594       -0.290      867.651
01/29/2022  21:38:00      -64.967       17.442       -4.562       38.770       22.883       17.961     1503.115      523.621      322.608        0.345        0.117       67.267       17.201        0.065      331.493       -0.457      867.658
01/29/2022  21:39:00      -65.266       21.134       -3.282       32.252       27.903       17.126     1040.181      778.594      293.289        0.341        0.106       68.603       17.868        0.068      331.420       -0.575      867.670
01/29/2022  21:40:00      -62.697       31.971       -2.053       39.770       30.660       20.072     1581.682      940.013      402.868        0.394        0.146       70.378       19.083        0.074      331.330       -0.724      867.673
01/29/2022  21:41:00      -92.729       55.780       -1.400       35.345       24.157       20.756     1249.269      583.541      430.820        0.699        0.113      108.213       19.887        0.034      331.325       -0.732      867.666
01/29/2022  21:42:00     -101.025       45.647       -6.133       41.489       25.024       19.718     1721.359      626.192      388.786        0.753        0.137      110.859       15.213        0.019      331.294       -0.783      867.666
01/29/2022  21:43:00     -110.847       29.990       -8.142       29.602       27.712       23.100      876.261      767.956      533.590        0.771        0.109      114.832       17.978        0.025      331.332       -0.720      867.657
01/29/2022  21:44:00      -73.046       28.296        6.329       49.835       23.785       21.445     2483.491      565.706      459.872        0.484        0.175       78.335       25.224        0.104      331.334       -0.718      867.646
01/29/2022  21:45:00      -89.247       16.556       -5.443       39.875       30.806       23.226     1590.013      948.985      539.437        0.567        0.154       90.770       20.650        0.052      331.406       -0.599      867.641
01/29/2022  21:46:00     -107.253       42.972       -2.436       37.967       30.599       21.986     1441.486      936.284      483.388        0.811        0.143      115.542       18.922        0.027      331.352       -0.688      867.630
01/29/2022  21:47:00      -82.477       39.113        0.036       42.220       29.457       24.092     1782.559      867.711      580.416        0.578        0.162       91.281       22.966        0.063      331.250       -0.854      867.616
01/29/2022  21:48:00      -69.329       33.987       -6.338       43.455       36.752       20.575     1888.331     1350.711      423.348        0.483        0.183       77.212       18.689        0.059      331.262       -0.835      867.612
01/29/2022  21:49:00      -93.300       31.838      -12.268       30.940       31.173       20.381      957.284      971.758      415.398        0.611        0.117       98.583        9.921        0.010      331.316       -0.746      867.601
01/29/2022  21:50:00     -105.002       38.364      -17.742       27.433       28.442       20.789      752.576      808.940      432.178        0.740        0.100      111.791       15.373        0.019      331.393       -0.620      867.603
01/29/2022  21:51:00      -88.310       24.852      -13.563       32.747       31.473       23.490     1072.371      990.534      551.791        0.561        0.131       91.740       21.216        0.053      331.295       -0.782      867.601
01/29/2022  21:52:00     -100.896       31.986       -8.237       40.581       34.597       21.791     1646.790     1196.920      474.852        0.729        0.166      105.845       18.495        0.031      331.281       -0.805      867.607
01/29/2022  21:53:00      -78.089       24.269       -4.582       47.649       28.052       21.412     2270.422      786.909      458.483        0.511        0.176       81.773       21.164        0.067      331.311       -0.756      867.613
01/29/2022  21:54:00      -91.632       25.199       -7.058       35.041       30.864       22.593     1227.856      952.571      510.454        0.589        0.135       95.034       19.573        0.042      331.387       -0.631      867.624
01/29/2022  21:55:00      -84.713       29.144       -8.552       23.532       18.591       13.567      553.757      345.612      184.059        0.459        0.054       89.586        5.746        0.004      331.360       -0.674      867.637
01/29/2022  21:56:00      -13.535       13.138       -0.316       27.369       24.136       12.237      749.062      582.538      149.746        0.092        0.074       18.862        8.280        0.193      331.403       -0.605      867.641
01/29/2022  21:57:00      -47.672       -0.994       -7.191       32.329       30.528       19.970     1045.134      931.940      398.814        0.235        0.119       47.683       17.609        0.136      331.434       -0.555      867.649
01/29/2022  21:58:00      -67.221       -7.269       -9.088       26.211       23.783       17.547      687.011      565.618      307.901        0.311        0.078       67.613       14.363        0.045      331.469       -0.497      867.652
01/29/2022  21:59:00      -83.038      -14.389       -8.105       32.336       22.830       18.991     1045.634      521.230      360.640        0.455        0.096       84.276       17.355        0.042      331.534       -0.389      867.656
01/29/2022  22:00:00      -56.723        4.228       -8.731       36.334       23.812       17.162     1320.181      566.989      294.531        0.275        0.109       56.880       15.655        0.076      331.511       -0.427      867.651
01/29/2022  22:01:00      -86.875       20.465      -12.902       36.476       22.267       20.156     1330.522      495.823      406.273        0.518        0.112       89.253       12.163        0.019      331.433       -0.557      867.659
01/29/2022  22:02:00      -81.253       21.713       -7.635       43.132       26.154       21.768     1860.373      684.037      473.849        0.507        0.151       84.104       19.901        0.056      331.430       -0.560      867.666
01/29/2022  22:03:00      -78.888       29.231       -5.538       37.753       29.486       16.283     1425.279      869.439      265.134        0.483        0.128       84.130       14.951        0.032      331.492       -0.459      867.662
01/29/2022  22:04:00     -101.355       51.261       -7.351       38.987       29.124       22.064     1520.024      848.196      486.818        0.790        0.143      113.581       13.674        0.014      331.421       -0.575      867.662
01/29/2022  22:05:00      -63.114       27.114      -13.775       27.620       17.285       16.694      762.866      298.768      278.703        0.312        0.067       68.692       10.371        0.023      331.340       -0.709      867.657
01/29/2022  22:06:00      -48.862        2.158      -13.075       30.418       22.300       20.663      925.245      497.296      426.965        0.221        0.092       48.910       11.385        0.054      331.450       -0.527      867.655
01/29/2022  22:07:00      -43.404       22.270      -10.832       29.688       15.765       15.089      881.406      248.531      227.663        0.193        0.068       48.784       11.658        0.057      331.365       -0.667      867.654
01/29/2022  22:08:00      -84.452       10.205      -20.878       26.832       26.020       13.859      719.977      677.023      192.085        0.463        0.079       85.066        8.267        0.009      331.382       -0.638      867.652
01/29/2022  22:09:00      -78.003      -14.913      -15.510       24.853       22.179       23.455      617.695      491.916      550.125        0.410        0.083       79.416       17.844        0.050      331.339       -0.709      867.644
01/29/2022  22:10:00      -77.140        3.928       -9.949       28.701       25.503       19.920      823.774      650.385      396.804        0.397        0.094       77.240       17.800        0.053      331.352       -0.687      867.640
01/29/2022  22:11:00      -61.101       -0.922      -10.655       26.303       21.331       18.394      691.847      455.025      338.325        0.267        0.074       61.108        8.507        0.019      331.407       -0.598      867.633
01/29/2022  22:12:00      -53.990       12.532       -3.155       27.017       30.628       18.409      729.924      938.068      338.891        0.254        0.100       55.425       12.465        0.051      331.373       -0.653      867.619
01/29/2022  22:13:00       -5.328        3.539       -2.574       19.928       23.877       18.232      397.109      570.099      332.419        0.067        0.065        6.396       13.736        4.612      331.339       -0.709      867.606
01/29/2022  22:14:00      -43.477      -16.492      -12.125       33.054       25.485       20.539     1092.589      649.467      421.844        0.224        0.108       46.499       18.376        0.156      331.331       -0.724      867.602
01/29/2022  22:15:00      -42.806       -4.032       -4.930       34.067       22.754       24.209     1160.556      517.734      586.079        0.207        0.113       42.996       21.416        0.248      331.241       -0.871      867.586
01/29/2022  22:16:00      -45.611        2.880       -3.958       32.695       29.435       22.773     1068.948      866.414      518.599        0.228        0.123       45.702       16.727        0.134      331.238       -0.875      867.579
01/29/2022  22:17:00      -12.947       -0.134       -4.362       23.569       15.179       14.158      555.494      230.393      200.446        0.059        0.049       12.948        6.440        0.247      331.354       -0.686      867.567
01/29/2022  22:18:00      -66.171        0.325       -4.072       37.737       26.252       19.609     1424.089      689.156      384.524        0.345        0.125       66.172       19.311        0.085      331.375       -0.651      867.566
01/29/2022  22:19:00      -68.133       10.705       -9.120       27.666       21.629       14.628      765.428      467.797      213.981        0.314        0.072       68.969       11.883        0.030      331.329       -0.726      867.561
01/29/2022  22:20:00      -80.956       19.713       -6.484       24.976       17.121       15.468      623.801      293.134      239.272        0.407        0.058       83.322       11.564        0.019      331.261       -0.837      867.565
01/29/2022  22:21:00      -74.232       11.267       -1.651       36.299       24.146       16.749     1317.626      583.039      280.527        0.391        0.109       75.082       16.335        0.047      331.225       -0.897      867.569
01/29/2022  22:22:00      -86.246       21.437       -2.853       36.980       31.388       20.041     1367.527      985.177      401.644        0.533        0.138       88.870       13.882        0.024      331.237       -0.876      867.571
01/29/2022  22:23:00      -48.780       15.722       -6.285       48.238       28.625       19.949     2326.886      819.394      397.944        0.310        0.177       51.251       13.321        0.068      331.142       -1.035      867.573
01/29/2022  22:24:00      -49.079       -5.974      -12.565       42.236       24.049       18.570     1783.856      578.346      344.832        0.265        0.135       49.441       13.000        0.069      331.158       -1.007      867.561
01/29/2022  22:25:00        1.208       -0.635        1.851       41.144       24.065       26.224     1692.830      579.111      687.722        0.148        0.148        1.365       22.546      272.893      331.070       -1.152      867.564
01/29/2022  22:26:00       -1.786        2.625       -9.300       29.722       25.229       21.069      883.411      636.522      443.886        0.103        0.098        3.174       14.771       21.652      331.083       -1.131      867.565
01/29/2022  22:27:00      -69.587      -21.259      -11.985       48.541       33.216       26.341     2356.260     1103.308      693.852        0.479        0.208       72.762       27.788        0.146      331.068       -1.155      867.585
01/29/2022  22:28:00      -24.637       10.666       -1.138       29.016       24.986       20.326      841.912      624.295      413.149        0.130        0.094       26.847       14.068        0.275      331.074       -1.145      867.592
01/29/2022  22:29:00      -66.685        0.024       -5.428       32.422       25.757       19.864     1051.196      663.443      394.596        0.329        0.105       66.685       15.188        0.052      331.130       -1.051      867.607
01/29/2022  22:30:00      -18.424        1.353        4.910       44.708       26.400       21.725     1998.798      696.944      471.985        0.177        0.158       18.473       19.866        1.156      331.088       -1.121      867.615
01/29/2022  22:31:00      -30.052       -0.931       -3.236       31.141       27.316       15.094      969.733      746.165      227.824        0.143        0.097       30.067       12.203        0.165      331.126       -1.060      867.617
01/29/2022  22:32:00      -33.780       -4.210        1.253       35.873       25.198       21.865     1286.898      634.947      478.075        0.178        0.120       34.041       12.745        0.140      331.139       -1.039      867.621
01/29/2022  22:33:00      -49.005      -10.513       -3.816       32.248       27.049       16.188     1039.953      731.657      262.052        0.228        0.102       50.120       14.461        0.083      331.142       -1.033      867.626
01/29/2022  22:34:00      -62.312       -0.578       -7.679       27.755       29.344       18.303      770.326      861.080      335.006        0.295        0.098       62.315       12.162        0.038      331.104       -1.096      867.634
01/29/2022  22:35:00      -55.827       -3.789       -7.152       37.117       17.971       14.181     1377.669      322.958      201.106        0.254        0.095       55.955        6.808        0.015      331.151       -1.019      867.641
01/29/2022  22:36:00      -70.940       17.491       -9.308       37.590       23.779       18.365     1412.988      565.418      337.265        0.387        0.116       73.065       19.792        0.073      331.123       -1.065      867.658
01/29/2022  22:37:00      -94.114       19.086       -5.082       34.448       16.991       16.989     1186.691      288.677      288.641        0.551        0.088       96.030       19.641        0.042      331.069       -1.153      867.677
01/29/2022  22:38:00      -63.321       19.022       -7.774       43.689       23.751       17.378     1908.726      564.128      301.981        0.360        0.139       66.116       23.500        0.126      331.079       -1.137      867.688
01/29/2022  22:39:00      -83.052       23.163      -16.934       29.145       22.888       12.213      849.434      523.840      149.153        0.462        0.076       86.222       10.641        0.015      331.096       -1.109      867.700
01/29/2022  22:40:00      -22.840       10.113       -6.690       23.228       18.113       16.713      539.552      328.066      279.309        0.091        0.057       24.979        9.872        0.156      331.072       -1.148      867.705
01/29/2022  22:41:00      -16.451        0.327        1.588       23.514       33.031       21.801      552.893     1091.016      475.298        0.120        0.106       16.454       20.920        1.617      330.968       -1.320      867.705
01/29/2022  22:42:00      -43.852      -10.734      -13.112       35.106       24.363       16.809     1232.451      593.556      282.550        0.216        0.105       45.147       10.981        0.059      331.013       -1.247      867.709
01/29/2022  22:43:00      -21.082       -3.250       -7.102       34.137       15.945       14.609     1165.310      254.239      213.433        0.107        0.082       21.331       18.043        0.716      330.964       -1.326      867.716
01/29/2022  22:44:00      -48.089        2.958      -15.254       42.596       19.474       19.876     1814.377      379.222      395.055        0.257        0.129       48.179       23.664        0.241      330.996       -1.273      867.716
01/29/2022  22:45:00      -29.544        3.871       -4.845       26.067       23.074       17.494      679.469      532.396      306.025        0.121        0.076       29.796        9.319        0.098      331.100       -1.103      867.715
01/29/2022  22:46:00      -42.156        5.569       -4.920       41.139       32.096       15.744     1692.452     1030.126      247.874        0.240        0.149       42.522       16.187        0.145      331.085       -1.128      867.716
01/29/2022  22:47:00      -73.940       20.755       -7.232       36.570       22.410       16.748     1337.339      502.218      280.486        0.403        0.106       76.798       18.476        0.058      331.017       -1.240      867.724
01/29/2022  22:48:00      -73.711       12.076       -4.172       32.092       23.500       19.419     1029.865      552.230      377.116        0.378        0.098       74.694       15.719        0.044      330.971       -1.313      867.734
01/29/2022  22:49:00      -77.038       16.069       -3.454       32.225       21.987       17.345     1038.444      483.430      300.863        0.401        0.091       78.696       14.778        0.035      330.931       -1.380      867.742
01/29/2022  22:50:00      -73.863       19.306       -2.145       43.122       21.723       16.993     1859.473      471.877      288.749        0.423        0.131       76.345       17.271        0.051      330.919       -1.400      867.746
01/29/2022  22:51:00      -68.400       16.124       -2.373       51.111       29.536       18.636     2612.367      872.398      347.287        0.439        0.192       70.275       20.680        0.087      330.967       -1.321      867.745
01/29/2022  22:52:00      -61.717       17.654       -6.737       30.073       18.277       16.873      904.415      334.040      284.707        0.284        0.076       64.193       13.856        0.047      330.943       -1.360      867.749
01/29/2022  22:53:00      -91.724       20.665       -5.298       21.538       23.033       14.169      463.877      530.501      200.772        0.503        0.060       94.023        9.704        0.011      330.943       -1.361      867.757
01/29/2022  22:54:00      -58.330        4.345       -7.864       33.094       24.273       14.383     1095.191      589.173      206.878        0.269        0.095       58.492        6.935        0.014      330.929       -1.383      867.765
01/29/2022  22:55:00      -45.523       16.985        3.425       40.557       29.523       18.586     1644.891      871.621      345.431        0.262        0.143       48.588       15.271        0.099      330.842       -1.525      867.778
01/29/2022  22:56:00      -46.715       22.486       -7.705       25.627       20.207       16.772      656.762      408.331      281.309        0.205        0.067       51.846       12.162        0.055      330.837       -1.534      867.784
01/29/2022  22:57:00      -35.266       -0.983       -1.195       35.484       17.993       14.642     1259.094      323.749      214.380        0.152        0.090       35.279       11.654        0.109      330.855       -1.505      867.795
01/29/2022  22:58:00      -56.345        2.842       -5.231       36.151       25.970       21.961     1306.907      674.424      482.268        0.284        0.123       56.416       15.907        0.080      330.944       -1.360      867.800
01/29/2022  22:59:00       -5.217        0.241        0.031       38.870       29.605       19.013     1510.881      876.452      361.485        0.139        0.137        5.223       17.808       11.626      330.878       -1.467      867.809
01/29/2022  23:00:00       -6.189       18.639       -3.595       32.518       23.972       22.389     1057.431      574.661      501.259        0.127        0.107       19.640       14.440        0.541      330.791       -1.609      867.810
01/29/2022  23:01:00      -16.672        9.643       -7.417       30.889       22.779       18.377      954.100      518.886      337.715        0.112        0.091       19.260       15.190        0.622      330.821       -1.559      867.797
01/29/2022  23:02:00      -67.765       18.484      -15.008       36.159       27.765       17.630     1307.508      770.873      310.813        0.377        0.119       70.241       13.781        0.038      330.846       -1.520      867.786
01/29/2022  23:03:00      -55.873        9.870        1.836       36.445       29.790       20.619     1328.233      887.456      425.155        0.293        0.132       56.738       19.006        0.112      330.974       -1.310      867.778
01/29/2022  23:04:00      -29.571       -0.446       -1.552       36.449       21.761       18.031     1328.502      473.559      325.114        0.150        0.106       29.574       19.584        0.438      330.939       -1.369      867.769
01/29/2022  23:05:00      -74.074       15.563       -6.162       32.132       20.913       18.360     1032.451      437.336      337.106        0.379        0.090       75.691       13.297        0.031      330.893       -1.443      867.770
01/29/2022  23:06:00      -59.974       10.806       -1.609       36.494       26.488       18.183     1331.822      701.596      330.639        0.304        0.118       60.940       18.979        0.097      330.848       -1.516      867.770
01/29/2022  23:07:00      -39.905       -2.338        1.933       27.029       22.915       16.628      730.568      525.083      276.491        0.157        0.077       39.973       11.673        0.085      330.920       -1.398      867.779
01/29/2022  23:08:00      -23.730       -3.010       -4.130       31.891       26.209       23.511     1017.020      686.936      552.782        0.142        0.113       23.920       18.643        0.607      330.879       -1.465      867.782
01/29/2022  23:09:00      -39.086        0.323      -10.018       27.356       29.195       17.031      748.374      852.339      290.040        0.176        0.095       39.088        6.906        0.031      330.875       -1.472      867.787
01/29/2022  23:10:00       -8.357        8.174       -0.480       27.598       16.443       11.980      761.663      270.358      143.532        0.066        0.059       11.690       11.966        1.048      330.843       -1.524      867.795
01/29/2022  23:11:00      -38.263       -2.406       -9.098       23.013       22.750       16.117      529.593      517.570      259.767        0.143        0.065       38.338       12.300        0.103      330.914       -1.409      867.804
01/29/2022  23:12:00      -37.598        9.176       -4.817       31.808       22.338       11.439     1011.730      498.995      130.848        0.158        0.082       38.701       13.655        0.124      330.907       -1.420      867.812
01/29/2022  23:13:00       -7.130       10.595        6.361       22.301       23.980       15.656      497.339      575.021      245.115        0.076        0.066       12.771        7.983        0.391      330.774       -1.637      867.821
01/29/2022  23:14:00       -6.310      -11.977       -1.143       35.539       14.445       17.713     1263.022      208.665      313.764        0.098        0.089       13.537       12.988        0.920      330.846       -1.519      867.825
01/29/2022  23:15:00      -21.812       17.051        1.150       34.705       19.241       20.170     1204.450      370.204      406.842        0.137        0.099       27.686       20.096        0.527      330.861       -1.494      867.832
01/29/2022  23:16:00      -73.567       24.843       -4.466       31.780       20.712       13.236     1009.978      428.967      175.198        0.383        0.081       77.648       13.371        0.030      330.792       -1.608      867.834
01/29/2022  23:17:00      -55.226        7.165       -4.970       36.562       18.439       16.985     1336.754      340.013      288.484        0.255        0.098       55.689       20.350        0.134      330.848       -1.516      867.841
01/29/2022  23:18:00      -39.475       21.840       -0.393       30.941       16.756       18.289      957.357      280.774      334.471        0.180        0.079       45.114       13.303        0.087      330.833       -1.541      867.838
01/29/2022  23:19:00      -42.951        8.864       -4.898       32.234       20.580       15.881     1039.030      423.525      252.217        0.183        0.086       43.856       15.471        0.124      330.825       -1.554      867.837
01/29/2022  23:20:00      -19.657        2.161       -6.134       35.494       25.431       14.918     1259.796      646.744      222.548        0.128        0.106       19.775        9.915        0.251      330.861       -1.495      867.841
01/29/2022  23:21:00        0.918        0.934        2.811       21.808       17.554       12.283      475.595      308.155      150.874        0.047        0.047        1.310       10.314       61.996      330.887       -1.453      867.843
01/29/2022  23:22:00      -19.871       -5.752       -6.494       24.807       21.392       12.759      615.382      457.599      162.802        0.085        0.062       20.686        9.387        0.206      330.847       -1.517      867.839
01/29/2022  23:23:00      -34.316        5.538      -12.538       27.538       25.063       16.641      758.342      628.132      276.925        0.151        0.083       34.760        3.203        0.008      330.851       -1.512      867.844
01/29/2022  23:24:00      -46.895        4.239       -4.597       34.630       16.521       14.541     1199.239      272.936      211.432        0.196        0.084       47.087       14.185        0.091      330.912       -1.413      867.835
01/29/2022  23:25:00      -47.374       12.365       -3.931       27.214       22.631       18.633      740.590      512.151      347.186        0.201        0.080       48.961       16.329        0.111      330.899       -1.433      867.832
01/29/2022  23:26:00      -33.837        3.528        0.199       38.815       27.970       17.057     1506.570      782.299      290.931        0.187        0.129       34.020       15.379        0.204      330.802       -1.591      867.829
01/29/2022  23:27:00      -33.290       -3.494       -0.309       31.458       20.264       17.830      989.579      410.645      317.892        0.142        0.086       33.473       17.253        0.266      330.854       -1.506      867.829
01/29/2022  23:28:00      -58.306        8.148       -2.857       30.171       22.062       20.211      910.278      486.726      408.469        0.264        0.090       58.873       16.734        0.081      330.837       -1.535      867.829
01/29/2022  23:29:00      -26.279        2.162       -4.497       33.374       16.347       14.381     1113.851      267.240      206.807        0.115        0.079       26.368       15.274        0.336      330.806       -1.584      867.831
01/29/2022  23:30:00      -31.576       -1.472       -4.631       23.913       21.847       15.259      571.815      477.287      232.852        0.115        0.064       31.611        9.649        0.093      330.789       -1.613      867.836
01/29/2022  23:31:00        1.753        2.665        2.980        8.022       17.559       11.608       64.353      308.320      134.734        0.026        0.025        3.190        5.941        3.469      330.772       -1.641      867.839
01/29/2022  23:32:00       -8.956       -2.001       -2.153       13.693       15.502       11.610      187.496      240.298      134.798        0.033        0.028        9.177        2.714        0.087      330.813       -1.573      867.841
01/29/2022  23:33:00      -27.597      -10.067       -0.506       22.875       25.404       16.301      523.270      645.355      265.728        0.115        0.072       29.376       12.531        0.182      330.783       -1.623      867.843
01/29/2022  23:34:00      -26.626       -4.897       -2.829       31.467       12.277       11.864      990.169      150.729      140.744        0.101        0.064       27.072       13.755        0.258      330.770       -1.643      867.845
01/29/2022  23:35:00      -28.340        0.873       -4.335       32.828       20.423       14.071     1077.695      417.095      197.996        0.126        0.085       28.353       16.364        0.333      330.871       -1.479      867.843
01/29/2022  23:36:00      -39.642       -7.079       -3.727       27.400       20.990       17.647      750.773      440.570      311.425        0.157        0.075       40.269       10.083        0.063      330.817       -1.567      867.839
01/29/2022  23:37:00      -51.604       -7.991       -6.092       29.681       31.017       14.431      880.933      962.057      208.245        0.241        0.103       52.219       13.352        0.065      330.752       -1.671      867.841
01/29/2022  23:38:00        1.631       -6.164       -5.316       26.880       21.500       17.806      722.527      462.230      317.071        0.079        0.075        6.376        9.035        2.008      330.790       -1.612      867.850
01/29/2022  23:39:00      -30.995        1.933       -5.495       39.568       22.975       19.687     1565.630      527.872      387.584        0.174        0.124       31.055       13.244        0.182      330.588       -1.943      867.859
01/29/2022  23:40:00      -69.034        2.351       -7.854       45.642       28.127       23.408     2083.227      791.146      547.917        0.413        0.171       69.074       20.999        0.092      330.566       -1.980      867.871
01/29/2022  23:41:00      -64.000      -14.974       -3.178       37.489       29.872       24.359     1405.417      892.339      593.345        0.361        0.145       65.728       22.129        0.113      330.596       -1.930      867.886
01/29/2022  23:42:00      -47.568        0.110        2.261       46.281       40.742       26.562     2141.966     1659.931      705.541        0.339        0.225       47.568       18.461        0.151      330.553       -2.001      867.902
01/29/2022  23:43:00      -29.991        7.211       -0.126       40.683       30.014       27.168     1655.132      900.838      738.118        0.212        0.165       30.845       22.592        0.536      330.586       -1.947      867.915
01/29/2022  23:44:00      -63.080       14.192       -0.935       51.008       34.249       20.141     2601.836     1173.019      405.650        0.418        0.209       64.656       15.408        0.057      330.514       -2.065      867.935
01/29/2022  23:45:00      -26.692       16.162       -0.657       44.683       30.117       27.662     1996.611      907.060      765.207        0.232        0.183       31.203       19.013        0.371      330.504       -2.082      867.946
01/29/2022  23:46:00      -58.825       12.258       -3.643       56.166       45.525       25.586     3154.619     2072.483      654.624        0.475        0.294       60.089       22.562        0.141      330.537       -2.028      867.959
01/29/2022  23:47:00     -102.999       -2.860      -13.632       43.762       37.012       34.696     1915.151     1369.913     1203.801        0.764        0.224      103.038       25.614        0.062      330.493       -2.100      867.954
01/29/2022  23:48:00      -89.842       -8.257       -1.109       42.701       37.962       32.859     1823.339     1441.116     1079.728        0.624        0.217       90.221       25.545        0.080      330.522       -2.052      867.948
01/29/2022  23:49:00      -77.924       -4.252       -8.182       42.078       27.695       19.158     1770.567      766.995      367.025        0.453        0.145       78.040       11.654        0.022      330.581       -1.955      867.929
01/29/2022  23:50:00      -39.870       -3.319       -8.485       34.037       28.424       19.237     1158.531      807.923      370.070        0.200        0.117       40.008       15.443        0.149      330.585       -1.948      867.907
01/29/2022  23:51:00      -44.103        1.209       -1.212       32.736       23.267       21.769     1071.629      541.343      473.895        0.202        0.104       44.119       16.536        0.140      330.535       -2.031      867.885
01/29/2022  23:52:00      -86.088       -5.126      -18.210       22.339       18.390       19.660      499.049      338.188      386.504        0.450        0.061       86.240       11.331        0.017      330.622       -1.887      867.870
01/29/2022  23:53:00      -55.143       11.055       -4.266       34.207       26.680       19.693     1170.090      711.811      387.818        0.273        0.113       56.241       14.664        0.068      330.584       -1.950      867.862
01/29/2022  23:54:00      -75.278       16.587       -5.954       30.983       25.518       15.362      959.935      651.144      235.978        0.391        0.092       77.084        8.508        0.012      330.641       -1.855      867.850
01/29/2022  23:55:00     -110.878       37.790      -21.728       23.796       20.637       19.994      566.261      425.902      399.779        0.779        0.070      117.141        5.883        0.003      330.477       -2.125      867.844
01/29/2022  23:56:00      -81.326       15.334       -4.330       37.798       36.168       27.065     1428.708     1308.133      732.513        0.517        0.173       82.759       16.041        0.038      330.451       -2.168      867.833
01/29/2022  23:57:00      -44.494       18.820       -7.773       54.584       33.262       25.427     2979.396     1106.353      646.551        0.356        0.237       48.311       22.055        0.208      330.385       -2.274      867.827
01/29/2022  23:58:00      -12.933       -5.714       -4.632       26.892       20.207       18.778      723.182      408.318      352.616        0.085        0.074       14.139       12.647        0.800      330.392       -2.265      867.830
01/29/2022  23:59:00      -38.599      -33.414      -13.102       50.268       29.679       32.530     2526.846      880.857     1058.209        0.362        0.223       51.053       25.945        0.258      330.361       -2.315      867.826
01/30/2022  00:00:00      -61.609       19.581      -22.506       51.418       38.850       30.092     2643.805     1509.330      905.548        0.487        0.253       64.646       24.912        0.148      330.367       -2.305      867.816
01/30/2022  00:01:00      -79.014       -8.141      -14.978       30.038       42.021       22.892      902.288     1765.762      524.065        0.486        0.160       79.432        9.692        0.015      330.355       -2.326      867.802
01/30/2022  00:02:00      -56.950       15.443      -19.749       29.310       26.453       14.419      859.048      699.762      207.912        0.282        0.088       59.007        9.207        0.024      330.451       -2.167      867.776
01/30/2022  00:03:00      -68.932       26.340      -19.245       23.100       22.472       17.958      533.601      504.986      322.479        0.359        0.068       73.793        7.162        0.009      330.454       -2.163      867.762
01/30/2022  00:04:00      -60.562       19.739      -11.180       24.562       26.272       20.584      603.316      690.199      423.690        0.295        0.086       63.698       12.636        0.039      330.346       -2.340      867.753
01/30/2022  00:05:00      -67.868        4.433      -18.601       34.441       27.635       22.777     1186.199      763.677      518.780        0.372        0.123       68.012       20.125        0.088      330.415       -2.227      867.743
01/30/2022  00:06:00     -108.240       16.636      -19.623       39.672       30.908       22.979     1573.838      955.275      528.026        0.772        0.153      109.511       21.542        0.039      330.445       -2.178      867.737
01/30/2022  00:07:00      -76.773       19.921       -3.784       56.116       25.117       20.745     3148.951      630.860      430.341        0.526        0.211       79.316       25.137        0.100      330.416       -2.224      867.733
01/30/2022  00:08:00      -74.843       11.328      -12.056       36.862       22.519       14.054     1358.842      507.093      197.528        0.397        0.103       75.695        7.332        0.009      330.451       -2.169      867.729
01/30/2022  00:09:00      -80.071        9.986       -9.198       35.012       31.998       24.722     1225.807     1023.847      611.163        0.473        0.143       80.691       23.096        0.082      330.362       -2.312      867.726
01/30/2022  00:10:00      -85.901       27.982       -2.580       52.842       36.907       20.886     2792.236     1362.154      436.236        0.638        0.230       90.344       10.386        0.013      330.321       -2.382      867.720
01/30/2022  00:11:00      -49.709        6.315       -1.130       40.964       31.770       17.460     1678.044     1009.316      304.859        0.275        0.150       50.108       11.129        0.049      330.401       -2.249      867.711
01/30/2022  00:12:00      -45.601       16.331      -11.861       34.883       26.558       18.653     1216.831      705.335      347.923        0.238        0.114       48.437        8.589        0.031      330.275       -2.455      867.707
01/30/2022  00:13:00      -40.003       -8.004        2.479       49.205       23.708       17.480     2421.118      562.077      305.567        0.248        0.164       40.796       16.046        0.155      330.268       -2.469      867.698
01/30/2022  00:14:00      -59.290        7.028      -10.934       37.483       21.759       17.171     1404.974      473.452      294.842        0.293        0.109       59.706       16.335        0.075      330.449       -2.171      867.694
01/30/2022  00:15:00      -20.712        1.741       -3.559       18.128       20.146       10.359      328.637      405.879      107.317        0.064        0.042       20.786        3.443        0.027      330.471       -2.136      867.690
01/30/2022  00:16:00      -24.757       12.252       -4.605       21.410       17.179       12.662      458.376      295.127      160.337        0.085        0.046       27.622        5.813        0.044      330.407       -2.239      867.680
01/30/2022  00:17:00       -3.940      -14.171       -1.293       16.098       18.187       17.726      259.132      330.752      314.228        0.056        0.045       14.708        9.833        0.447      330.472       -2.135      867.681
01/30/2022  00:18:00       -8.175        4.471       -0.127       22.052       19.556       12.817      486.272      382.418      164.283        0.056        0.052        9.318       10.907        1.370      330.449       -2.170      867.680
01/30/2022  00:19:00       -9.564       -9.061       -2.061       17.514       24.790       17.043      306.745      614.537      290.468        0.069        0.061       13.175       10.301        0.611      330.465       -2.146      867.684
01/30/2022  00:20:00      -45.551       -5.578       -3.518       35.181       19.959       23.598     1237.725      398.379      556.867        0.216        0.110       45.892       20.582        0.201      330.423       -2.213      867.695
01/30/2022  00:21:00      -68.230        4.542       -5.891       43.501       30.191       19.418     1892.373      911.481      377.052        0.395        0.159       68.381       18.219        0.071      330.398       -2.254      867.708
01/30/2022  00:22:00      -99.373       -6.535       -8.353       39.662       25.591       23.831     1573.045      654.921      567.937        0.639        0.140       99.587       21.965        0.049      330.347       -2.338      867.718
01/30/2022  00:23:00      -90.263       -0.420      -13.575       42.852       28.403       29.657     1836.296      806.745      879.514        0.593        0.176       90.264       22.986        0.065      330.292       -2.429      867.724
01/30/2022  00:24:00      -27.675        5.883       -1.063       32.438       31.105       25.665     1052.196      967.505      658.708        0.174        0.134       28.293       16.856        0.355      330.360       -2.316      867.734
01/30/2022  00:25:00      -64.796       13.810       -2.510       48.761       24.736       21.935     2377.607      611.889      481.153        0.393        0.174       66.251       23.731        0.128      330.398       -2.254      867.735
01/30/2022  00:26:00      -65.104       15.254       -1.190       47.985       25.196       23.403     2302.597      634.814      547.703        0.398        0.174       66.867       21.465        0.103      330.314       -2.391      867.733
01/30/2022  00:27:00      -38.474        4.918       -6.588       35.882       30.930       21.517     1287.523      956.649      462.995        0.213        0.135       38.787       20.159        0.270      330.372       -2.298      867.726
01/30/2022  00:28:00      -62.142        2.127        0.389       43.734       29.815       20.001     1912.637      888.905      400.024        0.353        0.160       62.178       20.964        0.114      330.319       -2.383      867.720
01/30/2022  00:29:00      -26.075        2.107      -10.966       38.122       25.426       19.951     1453.291      646.503      398.045        0.165        0.125       26.160       12.150        0.216      330.307       -2.403      867.712
01/30/2022  00:30:00      -47.101      -13.881       -1.042       32.788       29.261       19.437     1075.057      856.207      377.800        0.236        0.115       49.104       14.932        0.092      330.328       -2.370      867.702
01/30/2022  00:31:00      -79.153        9.638       -6.311       47.271       31.164       21.567     2234.588      971.212      465.144        0.503        0.184       79.737       20.866        0.068      330.385       -2.276      867.697
01/30/2022  00:32:00      -95.449       16.253       -6.515       47.570       35.285       25.185     2262.871     1245.014      634.307        0.678        0.207       96.823       14.579        0.023      330.421       -2.218      867.690
01/30/2022  00:33:00      -87.496       -0.843       -2.167       55.923       43.979       22.331     3127.354     1934.137      498.654        0.661        0.278       87.501       24.575        0.079      330.391       -2.266      867.686
01/30/2022  00:34:00      -62.346       10.835        3.224       52.381       31.983       19.748     2743.742     1022.944      390.000        0.409        0.208       63.281       22.963        0.132      330.401       -2.249      867.678
01/30/2022  00:35:00      -86.031       18.472       -0.767       31.430       33.057       21.948      987.856     1092.785      481.736        0.515        0.128       87.991       14.742        0.028      330.394       -2.262      867.666
01/30/2022  00:36:00      -56.525       11.695        2.247       58.308       37.139       29.821     3399.824     1379.329      889.278        0.450        0.283       57.723       28.482        0.243      330.422       -2.217      867.673
01/30/2022  00:37:00      -14.852       -1.476      -16.026       36.818       28.773       20.600     1355.566      827.913      424.343        0.154        0.130       14.925       16.342        1.199      330.437       -2.190      867.673
01/30/2022  00:38:00      -94.532       35.374      -10.762       33.242       25.804       22.551     1105.032      665.850      508.543        0.629        0.114      100.933       15.510        0.024      330.348       -2.337      867.677
01/30/2022  00:39:00       -0.106       11.681        6.164       25.859       20.081       19.857      668.681      403.265      394.291        0.082        0.073       11.682        6.278        0.289      330.301       -2.414      867.681
01/30/2022  00:40:00      -19.927       12.560       -4.831       27.044       19.990       18.461      731.351      399.600      340.816        0.102        0.074       23.555        9.167        0.151      330.298       -2.418      867.682
01/30/2022  00:41:00        2.252        7.332       -4.154       28.471       22.948       14.021      810.586      526.605      196.592        0.080        0.077        7.670       12.890        2.824      330.290       -2.431      867.686
01/30/2022  00:42:00      -17.098       -1.190        0.796       24.828       25.255       17.260      616.406      637.790      297.899        0.092        0.078       17.139       12.473        0.530      330.407       -2.240      867.686
01/30/2022  00:43:00      -12.777       -1.338       -3.301       26.031       12.869       14.143      677.592      165.603      200.026        0.061        0.052       12.846        7.805        0.369      330.429       -2.203      867.685
01/30/2022  00:44:00      -59.033       22.651      -12.321       19.557       12.972        9.618      382.489      168.261       92.514        0.240        0.032       63.230        5.361        0.007      330.393       -2.261      867.692
01/30/2022  00:45:00      -88.727       28.540      -12.392       20.577       15.762       11.785      423.406      248.455      138.885        0.483        0.041       93.205        3.764        0.002      330.312       -2.395      867.701
01/30/2022  00:46:00      -90.953       23.732      -13.754       26.989       17.794       17.365      728.415      316.610      301.543        0.519        0.067       93.998       17.293        0.034      330.310       -2.399      867.708
01/30/2022  00:47:00      -89.099       25.065       -7.806       24.613       18.099       11.344      605.805      327.592      128.690        0.484        0.053       92.558       10.146        0.012      330.253       -2.492      867.711
01/30/2022  00:48:00      -63.557       29.409       -6.908       17.442       16.484       12.821      304.214      271.706      164.372        0.285        0.037       70.031        9.693        0.019      330.207       -2.569      867.722
01/30/2022  00:49:00      -58.730       27.429       -5.819       15.968       12.763       12.482      254.987      162.904      155.801        0.240        0.029       64.819        8.407        0.017      330.247       -2.502      867.722
01/30/2022  00:50:00      -75.589       32.656      -15.688        9.216        8.670       11.013       84.928       75.164      121.277        0.365        0.014       82.342        5.575        0.005      330.310       -2.398      867.716
01/30/2022  00:51:00      -83.730       45.503      -19.303       13.174       12.628       14.329      173.549      159.460      205.329        0.500        0.027       95.296        4.538        0.002      330.171       -2.628      867.720
01/30/2022  00:52:00      -79.245       42.028      -12.598       20.194       14.801       15.386      407.816      219.061      236.723        0.453        0.043       89.701       10.336        0.013      330.101       -2.742      867.718
01/30/2022  00:53:00      -88.300       33.477      -11.411       19.413       14.314       14.095      376.859      204.900      198.662        0.491        0.039       94.433       11.540        0.015      330.049       -2.826      867.717
01/30/2022  00:54:00      -89.976       41.922      -13.898       17.341       15.599       13.876      300.714      243.322      192.544        0.539        0.037       99.263        6.608        0.004      329.985       -2.930      867.722
01/30/2022  00:55:00      -94.967       26.146       -7.366       15.529       20.567       12.154      241.139      422.992      147.720        0.528        0.041       98.501        8.893        0.008      329.978       -2.944      867.729
01/30/2022  00:56:00      -76.686       26.324       -3.795       26.539       19.030       15.477      704.343      362.159      239.533        0.395        0.065       81.078       14.184        0.031      330.058       -2.812      867.731
01/30/2022  00:57:00      -80.114       20.413       -3.887       22.697       19.883       15.243      515.149      395.326      232.363        0.400        0.057       82.674       10.641        0.017      330.076       -2.784      867.744
01/30/2022  00:58:00      -86.069       34.958      -11.361       25.744       14.802       12.052      662.765      219.100      145.247        0.489        0.051       92.898       11.798        0.016      330.108       -2.731      867.752
01/30/2022  00:59:00      -76.583       25.911       -4.137       23.586       23.932       13.049      556.295      572.754      170.283        0.393        0.065       80.848       13.170        0.027      329.939       -3.007      867.760
01/30/2022  01:00:00      -72.519       39.989      -15.323       18.084       16.786       12.498      327.024      281.771      156.191        0.393        0.038       82.813        7.626        0.008      329.940       -3.006      867.773
01/30/2022  01:01:00      -82.129       51.217      -13.027       26.877       19.491       17.870      722.392      379.902      319.339        0.548        0.071       96.790       14.053        0.021      329.891       -3.085      867.784
01/30/2022  01:02:00      -91.306       36.250      -11.330       21.288       17.977       17.884      453.195      323.161      319.847        0.544        0.055       98.239       10.533        0.011      329.894       -3.081      867.784
01/30/2022  01:03:00     -114.437       36.479      -15.610       19.242       18.622       15.514      370.256      346.797      240.697        0.781        0.048      120.111        8.897        0.005      329.845       -3.160      867.787
01/30/2022  01:04:00     -106.145       33.731       -9.890       23.584       18.383       18.071      556.197      337.945      326.562        0.686        0.061      111.375       16.009        0.021      329.798       -3.238      867.785
01/30/2022  01:05:00     -106.499       36.125      -12.735       16.987       21.046       13.883      288.561      442.933      192.739        0.687        0.046      112.459        5.343        0.002      329.796       -3.243      867.780
01/30/2022  01:06:00      -86.424       33.143      -15.576       21.150       20.177       11.939      447.330      407.105      142.539        0.490        0.050       92.561        3.600        0.002      329.877       -3.108      867.774
01/30/2022  01:07:00      -79.471       35.130      -12.870       11.783       13.531       10.476      138.836      183.078      109.753        0.407        0.022       86.889        6.122        0.005      329.824       -3.194      867.772
01/30/2022  01:08:00      -73.752       18.739      -10.066       24.988       19.377       16.547      624.425      375.449      273.789        0.358        0.064       76.096       13.192        0.030      329.884       -3.096      867.770
01/30/2022  01:09:00      -79.918       25.111       -7.115       25.783       22.797       14.191      664.772      519.717      201.396        0.423        0.069       83.770       13.917        0.028      329.790       -3.250      867.771
01/30/2022  01:10:00      -71.592       15.805       -1.534       32.520       22.398       16.165     1057.568      501.662      261.312        0.360        0.091       73.316       15.351        0.044      329.883       -3.099      867.770
01/30/2022  01:11:00      -67.278       21.320       -3.439       44.098       19.186       14.840     1944.607      368.088      220.227        0.376        0.127       70.575       20.216        0.082      329.878       -3.108      867.763
01/30/2022  01:12:00      -81.028       29.528      -10.175       27.172       17.989       17.500      738.334      323.600      306.244        0.445        0.068       86.241       16.812        0.038      329.884       -3.096      867.774
01/30/2022  01:13:00      -79.453       29.234       -4.350       23.961       20.127       14.570      574.116      405.106      212.292        0.419        0.060       84.661       12.194        0.021      329.768       -3.286      867.788
01/30/2022  01:14:00     -103.437       38.288      -11.983       15.261       16.530       12.467      232.884      273.240      155.424        0.649        0.033      110.296        6.986        0.004      329.760       -3.300      867.801
01/30/2022  01:15:00     -113.929       35.480       -8.512       27.913       24.729       15.571      779.153      611.542      242.455        0.797        0.082      119.326        4.179        0.001      329.702       -3.394      867.805
01/30/2022  01:16:00     -104.721       37.430       -5.461       36.844       25.077       21.403     1357.452      628.868      458.088        0.742        0.122      111.209       19.996        0.032      329.730       -3.349      867.810
01/30/2022  01:17:00      -55.805        8.263       -0.867       54.884       30.055       25.469     3012.219      903.325      648.674        0.387        0.228       56.413       24.751        0.193      329.773       -3.280      867.804
01/30/2022  01:18:00      -66.275        4.527       -2.781       35.075       27.997       20.081     1230.242      783.833      403.258        0.342        0.121       66.429       14.798        0.050      329.774       -3.277      867.806
01/30/2022  01:19:00      -62.023       -2.315       -2.336       44.595       27.343       21.050     1988.695      747.640      443.116        0.352        0.159       62.066       18.195        0.086      329.850       -3.153      867.807
01/30/2022  01:20:00      -30.394       -2.768       -0.192       33.123       22.220       21.538     1097.162      493.749      463.896        0.149        0.103       30.520       22.261        0.532      329.851       -3.151      867.808
01/30/2022  01:21:00      -66.444       -6.223       -7.079       44.362       27.369       20.807     1967.995      749.039      432.947        0.383        0.157       66.735       14.689        0.048      329.844       -3.162      867.808
01/30/2022  01:22:00      -37.501       -6.360        3.376       56.874       31.104       23.343     3234.682      967.451      544.885        0.310        0.237       38.036       25.852        0.462      329.840       -3.169      867.802
01/30/2022  01:23:00      -43.632       -8.300       -7.365       48.166       30.137       22.658     2319.967      908.253      513.404        0.288        0.187       44.414       22.445        0.255      329.823       -3.197      867.800
01/30/2022  01:24:00      -49.932        6.379       -2.883       32.500       20.587       19.652     1056.278      423.841      386.205        0.220        0.093       50.338       14.835        0.087      329.837       -3.174      867.798
01/30/2022  01:25:00      -66.626       29.025      -11.858       24.605       16.378       15.132      605.398      268.229      228.970        0.326        0.055       72.674       12.455        0.029      329.798       -3.238      867.788
01/30/2022  01:26:00      -56.329       20.635      -12.345       18.851       11.768       12.050      355.344      138.474      145.195        0.219        0.032       59.990        8.534        0.020      329.811       -3.218      867.773
01/30/2022  01:27:00      -90.603       27.788      -20.928       13.325       16.246       12.631      177.568      263.934      159.537        0.501        0.030       94.769       12.340        0.017      329.731       -3.347      867.758
01/30/2022  01:28:00     -112.816       43.660      -15.811       15.110       19.038       13.647      228.317      362.447      186.241        0.783        0.039      120.970        8.064        0.004      329.732       -3.345      867.745
01/30/2022  01:29:00     -117.857       24.206      -14.343       25.768       21.750       14.848      663.973      473.069      220.469        0.802        0.068      120.317        6.253        0.003      329.784       -3.262      867.730
01/30/2022  01:30:00      -88.688       14.016      -11.819       28.356       29.433       19.055      804.089      866.307      363.081        0.512        0.102       89.788        8.773        0.010      329.738       -3.336      867.716
01/30/2022  01:31:00     -100.248       17.073      -20.087       28.358       29.558       21.049      804.184      873.702      443.073        0.643        0.106      101.692       17.801        0.031      329.763       -3.295      867.694
01/30/2022  01:32:00      -83.868       11.635       -8.550       41.231       26.194       17.739     1700.014      686.118      314.657        0.497        0.135       84.671       11.412        0.018      329.673       -3.443      867.680
01/30/2022  01:33:00      -61.400        7.023       -0.560       50.849       27.192       22.894     2585.580      739.385      524.125        0.383        0.192       61.801       20.135        0.106      329.706       -3.389      867.671
01/30/2022  01:34:00      -87.598       22.710       -7.578       51.374       32.091       18.938     2639.251     1029.816      358.632        0.614        0.201       90.494       14.073        0.024      329.711       -3.380      867.657
01/30/2022  01:35:00      -68.301        6.407      -13.092       39.672       25.706       17.304     1573.889      660.799      299.428        0.371        0.127       68.601       13.484        0.039      329.739       -3.335      867.657
01/30/2022  01:36:00      -46.490       10.017       -5.670       51.707       32.182       17.706     2673.649     1035.663      313.503        0.316        0.201       47.557       17.725        0.139      329.656       -3.471      867.662
01/30/2022  01:37:00      -87.936       33.630      -11.951       29.484       22.730       19.841      869.307      516.641      393.655        0.539        0.089       94.148       15.972        0.029      329.544       -3.654      867.673
01/30/2022  01:38:00      -81.778       44.080      -13.898       24.677       16.438       15.909      608.969      270.211      253.082        0.498        0.057       92.901        9.663        0.011      329.540       -3.661      867.681
01/30/2022  01:39:00      -95.838       54.493       -8.789       37.990       24.241       17.760     1443.253      587.641      315.403        0.729        0.117      110.247       17.080        0.024      329.483       -3.754      867.691
01/30/2022  01:40:00      -85.494       34.987      -12.169       31.086       20.205       16.546      966.309      408.262      273.755        0.516        0.082       92.376        9.698        0.011      329.486       -3.749      867.700
01/30/2022  01:41:00      -12.733       14.884       -9.029       14.881       18.225        6.901      221.431      332.148       47.627        0.053        0.030       19.587        4.033        0.042      329.539       -3.662      867.717
01/30/2022  01:42:00      -12.856       30.003      -14.096       13.084        9.948       12.383      171.190       98.970      153.337        0.084        0.021       32.641        8.511        0.068      329.667       -3.453      867.727
01/30/2022  01:43:00        1.083       -2.638       -8.065       12.583       16.949        8.537      158.331      287.270       72.888        0.030        0.026        2.852        7.818        7.515      329.802       -3.233      867.733
01/30/2022  01:44:00      -25.516      -32.283      -21.681       13.083       14.157        8.342      171.175      200.431       69.587        0.130        0.022       41.149        8.170        0.039      329.618       -3.532      867.740
01/30/2022  01:45:00      -16.399      -20.001      -13.080       10.592       18.813       13.945      112.186      353.933      194.468        0.075        0.033       25.865        4.667        0.033      329.733       -3.344      867.739
01/30/2022  01:46:00      -19.808      -37.207      -22.144       14.227       16.442       10.419      202.412      270.343      108.554        0.142        0.029       42.152        4.166        0.010      329.752       -3.314      867.742
01/30/2022  01:47:00      -10.137       -7.790      -10.780       12.355       14.696        9.183      152.647      215.966       84.322        0.037        0.023       12.785        4.762        0.139      329.695       -3.407      867.740
01/30/2022  01:48:00       -8.236       -1.312       -2.643       12.032       12.551       12.302      144.770      157.516      151.333        0.026        0.023        8.340        9.304        1.245      329.733       -3.345      867.729
01/30/2022  01:49:00       12.530       25.604        4.654       30.155       15.625       11.613      909.336      244.133      134.872        0.106        0.064       28.505       14.300        0.252      329.962       -2.969      867.721
01/30/2022  01:50:00       61.270       59.939      -20.685        9.144       14.098        9.840       83.610      198.766       96.825        0.408        0.019       85.713        7.631        0.008      330.359       -2.316      867.711
01/30/2022  01:51:00       73.802       38.559      -11.294       10.173       14.005        8.338      103.483      196.137       69.527        0.372        0.018       83.268        6.704        0.006      330.315       -2.390      867.697
01/30/2022  01:52:00       63.344       15.353       -7.658       13.621       12.302        6.957      185.531      151.348       48.395        0.235        0.019       65.178        2.829        0.002      330.279       -2.449      867.684
01/30/2022  01:53:00       67.439       20.464       -3.285       17.939       12.519        9.346      321.800      156.726       87.345        0.277        0.028       70.476        7.533        0.011      330.261       -2.482      867.676
01/30/2022  01:54:00       73.589       20.731       -8.791        8.943       10.581        6.612       79.985      111.967       43.713        0.308        0.012       76.454        2.953        0.001      330.265       -2.471      867.673
01/30/2022  01:55:00       74.526       16.152       -5.693       13.596       14.041        9.472      184.853      197.160       89.717        0.316        0.024       76.256        3.743        0.002      330.242       -2.510      867.670
01/30/2022  01:56:00       17.709        9.925        2.154       24.103       20.839       16.008      580.934      434.278      256.240        0.084        0.064       20.301       13.511        0.443      330.142       -2.675      867.666
01/30/2022  01:57:00        2.903       -9.652      -14.895       13.341       12.871        9.683      177.985      165.672       93.761        0.038        0.022       10.079        6.448        0.409      330.090       -2.761      867.667
01/30/2022  01:58:00       -5.117       -4.931      -12.385        9.571       12.063        9.598       91.597      145.506       92.113        0.027        0.016        7.106        7.216        1.031      330.113       -2.725      867.670
01/30/2022  01:59:00      -23.559      -24.756       -9.570       14.882       19.069        8.509      221.461      363.632       72.399        0.096        0.033       34.174        4.538        0.018      330.164       -2.638      867.671
01/30/2022  02:00:00      -19.768      -27.950      -14.175       12.238       22.219        8.832      149.774      493.701       78.009        0.105        0.036       34.234        9.619        0.079      330.109       -2.727      867.681
01/30/2022  02:01:00      -32.674        5.391       -9.903       10.319       12.002        8.439      106.487      144.055       71.215        0.076        0.016       33.115        3.304        0.010      329.851       -3.152      867.681
01/30/2022  02:02:00      -36.617       12.301      -11.970        7.941        8.462        8.150       63.062       71.611       66.424        0.092        0.010       38.628        4.381        0.013      329.890       -3.088      867.686
01/30/2022  02:03:00      -42.855       19.104      -10.757        8.539        8.242        7.250       72.907       67.933       52.555        0.126        0.010       46.920        3.698        0.006      329.873       -3.116      867.689
01/30/2022  02:04:00      -41.372       26.498      -10.677       11.152        9.431        7.813      124.364       88.950       61.040        0.140        0.014       49.130        7.568        0.024      329.856       -3.143      867.691
01/30/2022  02:05:00      -47.218       31.871      -11.167       10.500        9.092        7.083      110.251       82.670       50.162        0.181        0.012       56.968        6.067        0.011      329.787       -3.256      867.692
01/30/2022  02:06:00      -38.974       33.136      -12.741       11.161       11.427        8.509      124.566      130.570       72.399        0.155        0.016       51.157        4.722        0.009      329.745       -3.326      867.691
01/30/2022  02:07:00      -62.443       37.614      -11.946       12.721        7.851        9.387      161.813       61.641       88.123        0.288        0.016       72.897        4.467        0.004      329.699       -3.401      867.692
01/30/2022  02:08:00      -64.539       20.880      -12.620       16.855       18.175       11.778      284.087      330.315      138.724        0.276        0.038       67.833        2.194        0.001      329.599       -3.563      867.695
01/30/2022  02:09:00      -89.522       38.883      -11.274       17.248       18.485       12.296      297.481      341.695      151.180        0.522        0.040       97.602       10.643        0.012      329.475       -3.766      867.689
01/30/2022  02:10:00     -105.971       42.112      -11.835       17.644       15.171       14.087      311.303      230.166      198.432        0.694        0.037      114.032        9.742        0.007      329.425       -3.849      867.680
01/30/2022  02:11:00     -104.762       39.853      -10.641       21.625       13.134       10.650      467.638      172.498      113.421        0.671        0.038      112.087        5.087        0.002      329.419       -3.859      867.676
01/30/2022  02:12:00      -82.700       33.653       -0.366       36.863       26.873       20.106     1358.880      722.183      404.262        0.523        0.124       89.285       17.171        0.037      329.370       -3.937      867.680
01/30/2022  02:13:00      -74.863       19.553       -4.641       34.701       22.612       17.684     1204.155      511.291      312.736        0.402        0.101       77.374       15.904        0.042      329.468       -3.778      867.678
01/30/2022  02:14:00      -25.687      -11.306       -8.977       37.598       27.883       17.938     1413.593      777.443      321.758        0.169        0.126       28.065       14.257        0.258      329.628       -3.516      867.690
01/30/2022  02:15:00      -61.841       12.515       -3.159       41.025       24.850       22.016     1683.076      617.520      484.712        0.339        0.139       63.094       19.925        0.100      329.570       -3.611      867.695
01/30/2022  02:16:00      -20.684        8.736        5.157       26.249       23.631       20.953      689.026      558.426      439.040        0.111        0.084       22.453       18.368        0.669      329.540       -3.660      867.693
01/30/2022  02:17:00      -41.523       13.265        2.613       31.398       27.653       17.299      985.851      764.682      299.255        0.198        0.102       43.590       11.492        0.070      329.466       -3.781      867.685
01/30/2022  02:18:00      -73.082       21.956       -3.312       35.856       22.796       21.029     1285.688      519.659      442.240        0.404        0.112       76.309       22.777        0.089      329.407       -3.879      867.677
01/30/2022  02:19:00      -99.066       32.000       -6.523       21.838       21.527       13.723      476.898      463.395      188.325        0.600        0.056      104.106       10.524        0.010      329.407       -3.878      867.670
01/30/2022  02:20:00      -85.208       16.503      -16.250       33.573       20.341       21.836     1127.140      413.742      476.808        0.491        0.101       86.791       19.924        0.053      329.468       -3.777      867.668
01/30/2022  02:21:00      -99.510       30.476      -10.207       32.265       25.883       17.701     1041.062      669.950      313.308        0.648        0.101      104.072       10.858        0.011      329.391       -3.904      867.669
01/30/2022  02:22:00     -101.226       31.983      -11.591       34.458       30.356       17.271     1187.368      921.496      298.297        0.691        0.120      106.159       11.682        0.012      329.319       -4.022      867.668
01/30/2022  02:23:00      -63.080       16.994      -17.020       39.700       29.308       24.600     1576.073      858.948      605.159        0.380        0.152       65.329       12.742        0.038      329.306       -4.043      867.665
01/30/2022  02:24:00      -25.311       -0.074      -15.932       25.600       21.687       20.591      655.345      470.319      423.994        0.122        0.077       25.311       15.400        0.370      329.382       -3.918      867.663
01/30/2022  02:25:00       -9.507       -3.795      -22.002       31.587       22.638       20.716      997.732      512.501      429.162        0.126        0.097       10.236       15.574        2.315      329.336       -3.993      867.655
01/30/2022  02:26:00        7.338       -3.682       -8.048       19.618       20.170       14.559      384.885      406.826      211.962        0.057        0.050        8.210        7.238        0.777      329.308       -4.039      867.641
01/30/2022  02:27:00       10.658        4.256       -4.675        7.301        8.543       10.574       53.311       72.983      111.807        0.020        0.012       11.476        5.252        0.209      329.284       -4.078      867.633
01/30/2022  02:28:00      -61.013       29.196      -10.890       24.126       17.463       12.692      582.073      304.970      161.075        0.287        0.052       67.639        5.138        0.006      329.307       -4.040      867.620
01/30/2022  02:29:00      -67.817       36.039      -15.860       12.053       17.495       16.789      145.271      306.089      281.874        0.344        0.037       76.798       13.006        0.029      329.286       -4.076      867.619
01/30/2022  02:30:00      -70.357       25.186      -18.099       14.939       16.503       13.345      223.188      272.347      178.096        0.329        0.034       74.729        5.664        0.006      329.342       -3.984      867.624
01/30/2022  02:31:00      -61.718       26.619       -8.088       13.133       15.626       14.144      172.465      244.184      200.039        0.260        0.031       67.214        9.420        0.020      329.256       -4.124      867.627
01/30/2022  02:32:00      -85.345       42.720      -12.489       19.930       12.559       12.590      397.199      157.732      158.519        0.499        0.036       95.440        8.211        0.007      329.222       -4.181      867.624
01/30/2022  02:33:00      -76.692       37.745      -10.221       18.232       22.269       13.343      332.417      495.904      178.039        0.421        0.050       85.477        9.510        0.012      329.264       -4.110      867.619
01/30/2022  02:34:00      -76.065       42.202      -11.784       14.455       15.741       13.665      208.933      247.782      186.732        0.417        0.032       86.988        6.522        0.006      329.287       -4.074      867.620
01/30/2022  02:35:00      -72.449       27.656      -12.946       17.721       16.043       13.036      314.033      257.386      169.931        0.346        0.037       77.548        6.636        0.007      329.294       -4.062      867.622
01/30/2022  02:36:00      -72.898       35.136      -14.430       25.312       22.408       14.068      640.707      502.114      197.898        0.405        0.067       80.923       10.641        0.017      329.221       -4.181      867.623
01/30/2022  02:37:00      -79.170       22.068      -13.518       21.550       21.082       14.360      464.424      444.461      206.206        0.403        0.056       82.188        5.551        0.005      329.268       -4.105      867.631
01/30/2022  02:38:00      -99.385       55.325      -12.857       15.420       14.001       15.671      237.778      196.033      245.573        0.689        0.034      113.747        8.520        0.006      329.270       -4.102      867.630
01/30/2022  02:39:00      -97.580       41.394      -15.999       21.686       15.130       16.429      470.279      228.920      269.915        0.623        0.048      105.997       11.110        0.011      329.271       -4.099      867.635
01/30/2022  02:40:00     -104.289       35.069      -20.241       19.943       25.379       15.995      397.711      644.112      255.846        0.691        0.065      110.027        8.764        0.006      329.334       -3.996      867.634
01/30/2022  02:41:00     -122.296       47.672      -15.266       16.835       18.262       16.889      283.415      333.511      285.223        0.918        0.045      131.259        5.756        0.002      329.251       -4.132      867.639
01/30/2022  02:42:00     -130.009       56.529       -8.379       36.752       19.526       20.584     1350.682      381.268      423.714        1.116        0.108      141.767       18.689        0.017      329.253       -4.129      867.636
01/30/2022  02:43:00     -119.054       43.246      -15.678       33.960       27.720       20.604     1153.295      768.419      424.517        0.932        0.117      126.665       13.569        0.011      329.231       -4.166      867.633
01/30/2022  02:44:00     -109.322       35.595      -13.487       41.039       42.683       24.468     1684.220     1821.857      598.688        0.875        0.205      114.971       21.661        0.035      329.251       -4.132      867.625
01/30/2022  02:45:00     -123.385       61.639      -11.995       32.063       24.389       22.213     1028.059      594.840      493.411        1.064        0.106      137.924       17.007        0.015      329.234       -4.160      867.621
01/30/2022  02:46:00     -141.775       63.553      -10.927       43.916       23.791       21.672     1928.606      565.990      469.672        1.361        0.148      155.367       19.146        0.015      329.310       -4.035      867.617
01/30/2022  02:47:00     -147.192       51.704      -18.690       19.890       21.425       14.613      395.618      459.023      213.554        1.288        0.053      156.009        6.784        0.002      329.257       -4.122      867.617
01/30/2022  02:48:00     -123.238       58.084      -10.476       40.046       26.505       19.520     1603.696      702.490      381.035        1.068        0.134      136.240       14.009        0.011      329.283       -4.079      867.616
01/30/2022  02:49:00     -110.636       50.934       -9.196       34.587       30.807       24.814     1196.291      949.073      615.752        0.884        0.138      121.797       20.541        0.028      329.272       -4.096      867.612
01/30/2022  02:50:00     -111.607       40.741       -7.866       39.937       29.698       22.472     1594.995      881.967      504.988        0.858        0.149      118.811       18.509        0.024      329.181       -4.246      867.605
01/30/2022  02:51:00     -107.663       40.626      -10.163       22.437       30.492       19.766      503.399      929.774      390.699        0.758        0.091      115.073       10.832        0.009      329.326       -4.009      867.601
01/30/2022  02:52:00     -101.317       38.372       -7.586       35.112       28.287       21.350     1232.836      800.140      455.813        0.714        0.124      108.339       17.955        0.027      329.219       -4.183      867.599
01/30/2022  02:53:00      -92.594       47.003       -3.927       29.786       26.418       18.493      887.225      697.903      341.998        0.636        0.096      103.841       11.533        0.012      329.190       -4.233      867.607
01/30/2022  02:54:00     -110.632       63.725      -10.416       17.144       20.847       16.975      293.900      434.596      288.158        0.871        0.051      127.673       10.806        0.007      329.130       -4.331      867.608
01/30/2022  02:55:00     -107.412       33.547      -13.212       15.900       19.101       11.377      252.800      364.863      129.445        0.679        0.037      112.528        4.779        0.002      329.141       -4.313      867.607
01/30/2022  02:56:00      -43.255        7.083      -14.959       29.515       27.376       14.154      871.139      749.465      200.338        0.198        0.091       43.831        9.476        0.047      329.163       -4.276      867.593
01/30/2022  02:57:00        6.058      -17.107       -6.896        9.384       12.369       15.505       88.058      152.999      240.411        0.043        0.024       18.148        8.158        0.202      329.241       -4.147      867.577
01/30/2022  02:58:00        1.031        1.380       -5.749        4.947        7.489        7.084       24.478       56.090       50.187        0.008        0.007        1.722        4.292        6.209      329.558       -3.629      867.556
01/30/2022  02:59:00      -10.510       -4.360       -0.772       12.755       14.363       10.508      162.682      206.297      110.411        0.030        0.024       11.379        7.861        0.477      329.462       -3.788      867.547
01/30/2022  03:00:00       -1.221       -9.365       -7.526        7.990       12.541        9.070       63.841      157.270       82.272        0.022        0.015        9.445        6.660        0.497      329.448       -3.811      867.535
01/30/2022  03:01:00      -26.988      -13.097      -15.485       12.500       10.062        9.148      156.252      101.246       83.688        0.074        0.017       29.998        3.427        0.013      329.359       -3.957      867.534
01/30/2022  03:02:00      -25.413      -25.113      -16.662       11.285        9.552        8.750      127.354       91.244       76.565        0.092        0.015       35.728        5.713        0.026      329.317       -4.024      867.542
01/30/2022  03:03:00      -20.940      -18.286      -18.364       13.993       18.910       11.026      195.803      357.600      121.569        0.089        0.034       27.800        8.839        0.101      329.242       -4.146      867.555
01/30/2022  03:04:00       -4.101        2.679       -8.085       14.063       18.855       16.062      197.775      355.513      257.980        0.045        0.041        4.898       14.018        8.190      329.115       -4.354      867.558
01/30/2022  03:05:00       22.022       -2.196       -1.648        9.827       12.016       14.591       96.563      144.378      212.884        0.047        0.023       22.132        7.985        0.130      329.131       -4.329      867.565
01/30/2022  03:06:00        7.660        5.178       -1.017       22.599       11.324        6.942      510.706      128.231       48.191        0.039        0.034        9.246        6.473        0.490      329.220       -4.183      867.570
01/30/2022  03:07:00      -53.860       19.105       -9.813       21.984       15.168       12.148      483.296      230.059      147.576        0.211        0.043       57.148       10.221        0.032      329.166       -4.272      867.573
01/30/2022  03:08:00      -74.799       19.100       -8.592       37.201       21.621       14.210     1383.882      467.468      201.921        0.404        0.103       77.200       13.448        0.030      329.086       -4.403      867.591
01/30/2022  03:09:00      -85.344       11.923      -11.917       23.360       20.144       17.163      545.673      405.791      294.567        0.441        0.062       86.173       11.143        0.017      329.064       -4.439      867.603
01/30/2022  03:10:00      -85.108       25.057      -11.084       29.061       21.934       15.915      844.546      481.103      253.274        0.479        0.079       88.720       11.976        0.018      329.032       -4.490      867.618
01/30/2022  03:11:00     -104.013       39.372       -6.961       21.406       19.399       13.104      458.203      376.311      171.703        0.671        0.050      111.215        8.520        0.006      329.031       -4.490      867.616
01/30/2022  03:12:00     -105.526       30.139      -13.518       20.367       19.945       14.407      414.802      397.788      207.568        0.662        0.051      109.745       11.007        0.010      329.043       -4.473      867.617
01/30/2022  03:13:00      -84.450       36.650       -6.924       35.055       19.804       16.796     1228.868      392.190      282.115        0.521        0.095       92.060       13.356        0.021      328.981       -4.575      867.625
01/30/2022  03:14:00      -61.645       24.937      -14.555       11.578       10.482       11.290      134.053      109.881      127.467        0.250        0.019       66.498        4.115        0.004      329.090       -4.395      867.625
01/30/2022  03:15:00      -60.605       28.795      -14.911       12.762       12.370        9.208      162.878      153.005       84.781        0.256        0.020       67.098        7.191        0.011      329.151       -4.296      867.627
01/30/2022  03:16:00      -91.538       30.924      -14.817       19.758       13.849       16.769      390.361      191.789      281.202        0.521        0.043       96.621       10.622        0.012      329.088       -4.397      867.624
01/30/2022  03:17:00     -110.362       44.865      -11.760       16.284       12.634       12.754      265.179      159.619      162.656        0.746        0.029      119.133        5.444        0.002      329.021       -4.507      867.619
01/30/2022  03:18:00      -84.406       35.486      -16.599       32.331       22.244       16.271     1045.275      494.793      264.734        0.523        0.090       91.562       15.447        0.028      329.044       -4.472      867.610
01/30/2022  03:19:00      -84.988       21.642      -16.712       24.981       20.695       14.067      624.042      428.278      197.881        0.461        0.063       87.700       13.551        0.024      329.065       -4.436      867.601
01/30/2022  03:20:00      -94.707       28.132      -14.359       21.372       21.053       14.818      456.776      443.246      219.583        0.554        0.056       98.797        9.741        0.010      329.044       -4.470      867.605
01/30/2022  03:21:00      -93.731       38.317      -13.543       18.557       15.147       11.362      344.350      229.432      129.093        0.557        0.035      101.261        3.320        0.001      329.043       -4.472      867.601
01/30/2022  03:22:00     -113.862       41.261      -16.109       15.278       13.670       11.192      233.432      186.872      125.259        0.774        0.027      121.108        7.691        0.004      328.978       -4.577      867.594
01/30/2022  03:23:00     -110.547       27.696      -13.844       17.098       22.272       12.888      292.351      496.042      166.101        0.707        0.048      113.964        6.593        0.003      329.038       -4.481      867.578
01/30/2022  03:24:00      -71.605       21.423      -25.801       18.510       26.095       16.917      342.615      680.930      286.182        0.378        0.065       74.741        9.469        0.016      329.073       -4.423      867.559
01/30/2022  03:25:00      -59.802       20.065      -17.736       18.851       16.027       12.825      355.346      256.872      164.474        0.253        0.039       63.078        9.084        0.021      329.081       -4.408      867.531
01/30/2022  03:26:00     -103.002       43.806      -12.655       25.921       19.657       16.004      671.921      386.389      256.124        0.700        0.066      111.930       10.444        0.009      329.025       -4.502      867.514
01/30/2022  03:27:00     -105.155       43.823      -10.871       21.143       16.097       12.751      447.023      259.119      162.580        0.698        0.043      113.921        8.205        0.005      329.055       -4.453      867.506
01/30/2022  03:28:00      -73.485       27.493      -12.069       17.668       12.240        9.256      312.141      149.813       85.671        0.342        0.027       78.459        6.634        0.007      329.081       -4.409      867.508
01/30/2022  03:29:00      -91.894       20.385      -10.836       22.169       18.695       13.550      491.475      349.510      183.608        0.500        0.051       94.128        6.193        0.004      329.071       -4.427      867.511
01/30/2022  03:30:00      -98.427       28.749       -7.442       18.822       15.345       15.540      354.285      235.458      241.492        0.570        0.042      102.540       10.370        0.010      329.014       -4.520      867.519
01/30/2022  03:31:00     -107.902       23.812      -14.165       13.859       20.178       14.213      192.060      407.164      201.998        0.661        0.040      110.499       10.445        0.009      329.077       -4.417      867.532
01/30/2022  03:32:00      -88.315       17.927      -14.055       30.478       20.190       18.659      928.882      407.646      348.141        0.500        0.084       90.116       14.575        0.026      329.096       -4.386      867.539
01/30/2022  03:33:00      -64.251        1.652      -11.255       32.697       32.794       18.658     1069.061     1075.424      348.126        0.337        0.125       64.272       16.432        0.065      329.131       -4.328      867.545
01/30/2022  03:34:00      -98.938       22.794      -17.321       24.445       15.621       12.968      597.537      244.017      168.169        0.581        0.050      101.530        9.807        0.009      329.142       -4.311      867.543
01/30/2022  03:35:00      -95.224        9.444      -10.125       24.995       21.337       20.330      624.738      455.275      413.324        0.538        0.075       95.691       15.942        0.028      329.162       -4.277      867.552
01/30/2022  03:36:00      -98.360       43.814       -8.393       33.132       29.374       19.528     1097.718      862.850      381.332        0.700        0.117      107.677       16.871        0.025      328.966       -4.598      867.553
01/30/2022  03:37:00     -104.741       56.818      -13.085       29.318       26.661       17.944      859.524      710.811      321.992        0.813        0.095      119.159       15.127        0.016      328.903       -4.701      867.548
01/30/2022  03:38:00      -83.168       49.095       -6.601       20.694       16.592       18.507      428.230      275.309      342.507        0.521        0.052       96.578       13.482        0.019      328.918       -4.677      867.552
01/30/2022  03:39:00      -84.013       43.984       -7.918       16.740       17.185       15.119      280.240      295.322      228.592        0.493        0.040       94.830       10.063        0.011      329.006       -4.533      867.550
01/30/2022  03:40:00     -104.874       30.775      -13.134       12.030       10.967        8.796      144.723      120.268       77.363        0.623        0.017      109.296        6.644        0.004      329.090       -4.395      867.552
01/30/2022  03:41:00     -106.617       34.611      -12.629       21.872       16.362       14.643      478.394      267.730      214.405        0.684        0.048      112.094        8.224        0.005      329.074       -4.420      867.545
01/30/2022  03:42:00      -99.469       38.765       -7.535       22.219       18.053       16.215      493.687      325.917      262.914        0.627        0.054      106.756       11.485        0.012      329.057       -4.448      867.542
01/30/2022  03:43:00     -105.794       46.595      -13.640       35.492       19.264       14.906     1259.656      371.102      222.194        0.770        0.093      115.601        9.477        0.007      329.078       -4.415      867.531
01/30/2022  03:44:00      -99.151       22.662      -11.446       27.147       21.944       16.745      736.983      481.554      280.384        0.599        0.075      101.708        8.612        0.007      329.161       -4.280      867.528
01/30/2022  03:45:00      -68.360       12.055       -6.928       36.009       31.696       19.917     1296.671     1004.618      396.691        0.378        0.135       69.415       15.737        0.051      329.169       -4.267      867.526
01/30/2022  03:46:00      -53.370        8.817        1.326       36.461       27.553       20.740     1329.393      759.158      430.167        0.272        0.126       54.094       19.326        0.128      329.099       -4.381      867.523
01/30/2022  03:47:00      -61.546       26.452       -9.526       15.042       16.341       11.526      226.267      267.019      132.839        0.260        0.031       66.990        2.953        0.002      329.110       -4.363      867.515
01/30/2022  03:48:00      -61.441       19.730      -17.002       18.547       12.657       10.539      343.993      160.194      111.063        0.253        0.031       64.531        7.096        0.012      329.200       -4.216      867.513
01/30/2022  03:49:00      -81.311       24.010       -9.428       24.301       16.343       15.265      590.552      267.090      233.014        0.418        0.055       84.782        8.556        0.010      329.108       -4.365      867.519
01/30/2022  03:50:00      -97.456       31.353      -14.030       23.536       18.767       13.088      553.950      352.193      171.299        0.588        0.054      102.375       10.848        0.011      329.138       -4.318      867.534
01/30/2022  03:51:00      -82.313       20.085      -15.227       16.540       16.538       14.999      273.565      273.516      224.962        0.409        0.039       84.728        9.245        0.012      329.152       -4.294      867.540
01/30/2022  03:52:00      -71.618       16.425      -14.307       30.304       21.341       16.236      918.302      455.427      263.594        0.362        0.082       73.478       15.067        0.042      329.136       -4.320      867.548
01/30/2022  03:53:00      -79.066       26.992       -8.756       38.539       24.060       12.453     1485.245      578.897      155.075        0.464        0.111       83.546        6.533        0.006      329.072       -4.423      867.548
01/30/2022  03:54:00      -96.560       30.839      -13.674       27.007       27.533       13.793      729.359      758.047      190.237        0.607        0.084      101.365        9.829        0.009      329.053       -4.455      867.548
01/30/2022  03:55:00      -82.008       26.081      -11.351       38.269       27.910       19.053     1464.480      778.952      362.998        0.507        0.130       86.055       15.468        0.032      329.054       -4.455      867.560
01/30/2022  03:56:00      -73.183       40.321       -4.587       34.104       22.398       17.503     1163.075      501.660      306.345        0.449        0.099       83.556       15.237        0.033      328.935       -4.650      867.568
01/30/2022  03:57:00      -73.364       42.491      -16.579       27.149       17.575       12.805      737.062      308.888      163.968        0.434        0.060       84.781        5.870        0.005      328.993       -4.554      867.582
01/30/2022  03:58:00      -85.791       30.645       -5.506       19.679       17.527       13.204      387.244      307.201      174.346        0.460        0.043       91.100       10.925        0.014      328.887       -4.727      867.588
01/30/2022  03:59:00      -73.266       34.187       -3.529       30.712       17.733       15.403      943.230      314.454      237.247        0.402        0.075       80.849       12.307        0.023      328.917       -4.679      867.605
01/30/2022  04:00:00      -76.146       42.278       -3.351       23.020       18.606       16.407      529.916      346.178      269.188        0.437        0.057       87.095       12.369        0.020      328.862       -4.767      867.606
01/30/2022  04:01:00      -79.092       26.691       -7.920       21.966       17.094       10.544      482.513      292.193      111.185        0.396        0.044       83.474       10.591        0.016      328.887       -4.727      867.590
01/30/2022  04:02:00      -56.347        9.489      -11.478       22.202       15.103       10.954      492.939      228.087      119.979        0.212        0.042       57.140       12.255        0.046      329.013       -4.521      867.575
01/30/2022  04:03:00      -40.594       13.066       -3.477       30.841       22.200        8.098      951.163      492.831       65.579        0.167        0.075       42.644        9.070        0.045      328.928       -4.661      867.575
01/30/2022  04:04:00      -26.477        6.598      -11.942       21.778       18.157       13.621      474.264      329.667      185.532        0.094        0.049       27.286        6.141        0.051      329.003       -4.539      867.580
01/30/2022  04:05:00      -69.607       17.139       -1.639       21.335       14.165       14.865      455.193      200.651      220.976        0.301        0.044       71.686       11.533        0.026      328.936       -4.647      867.596
01/30/2022  04:06:00      -80.268       20.462       -6.662       16.559       15.372       12.404      274.192      236.288      153.865        0.379        0.033       82.835        7.165        0.007      328.969       -4.593      867.614
01/30/2022  04:07:00      -52.422        5.381       -6.867       30.286       25.386       18.810      917.259      644.470      353.831        0.237        0.096       52.697       15.454        0.086      328.979       -4.577      867.618
01/30/2022  04:08:00      -56.190        9.528      -11.923       23.156       20.426       12.572      536.188      417.215      158.065        0.225        0.056       56.992       11.453        0.040      329.014       -4.519      867.616
01/30/2022  04:09:00      -45.726       23.259       -4.171       18.842       12.461       12.292      355.024      155.281      151.101        0.166        0.033       51.302        9.199        0.032      328.919       -4.674      867.607
01/30/2022  04:10:00      -27.843       -4.229       -9.847       28.800       24.693       11.333      829.431      609.745      128.440        0.123        0.078       28.163        5.063        0.032      329.033       -4.488      867.600
01/30/2022  04:11:00      -14.823       15.058       -4.124       26.058       16.260       14.731      679.013      264.374      216.996        0.081        0.058       21.130        9.736        0.212      329.100       -4.380      867.592
01/30/2022  04:12:00      -26.133        6.076       -7.298       23.691       14.457       16.179      561.258      209.010      261.752        0.090        0.052       26.830       14.443        0.290      329.123       -4.341      867.580
01/30/2022  04:13:00      -26.053        9.402       -2.386       23.013       14.534        9.791      529.597      211.249       95.865        0.080        0.042       27.698       12.465        0.203      329.123       -4.342      867.575
01/30/2022  04:14:00      -32.437       10.915       -3.325       17.945       14.399       10.653      322.034      207.329      113.494        0.091        0.032       34.224        2.293        0.004      329.102       -4.375      867.579
01/30/2022  04:15:00      -25.954        7.588       -5.106       21.967       25.080       15.772      482.542      628.987      248.750        0.106        0.068       27.040       10.986        0.165      329.072       -4.424      867.580
01/30/2022  04:16:00      -26.034        3.491        5.114       26.988       18.520       13.133      728.358      343.005      172.464        0.098        0.062       26.267       10.272        0.153      329.053       -4.456      867.584
01/30/2022  04:17:00      -15.837        1.237       -5.709       14.468       23.830       19.665      209.324      567.886      386.725        0.072        0.058       15.885        8.226        0.268      329.134       -4.325      867.592
01/30/2022  04:18:00      -27.149        4.957       -2.310       21.640       17.369       14.093      468.279      301.681      198.626        0.087        0.048       27.598       13.420        0.236      329.045       -4.468      867.587
01/30/2022  04:19:00      -44.837       13.463       -5.815       16.836       12.522       10.863      283.444      156.803      118.014        0.139        0.028       46.815        6.930        0.022      328.945       -4.633      867.574
01/30/2022  04:20:00      -32.098        7.846       -1.098       17.091       14.117       11.395      292.112      199.278      129.853        0.086        0.031       33.043        9.572        0.084      328.890       -4.722      867.573
01/30/2022  04:21:00      -49.763       28.082      -11.788       10.038       14.450        8.326      100.766      208.792       69.324        0.189        0.019       57.139        2.945        0.003      328.854       -4.780      867.563
01/30/2022  04:22:00      -37.073       -0.123       -8.550       23.126       18.891        8.262      534.830      356.856       68.257        0.120        0.048       37.073        4.750        0.016      328.914       -4.682      867.549
01/30/2022  04:23:00      -44.338        6.786      -13.563       21.071       20.907       13.061      443.999      437.102      170.592        0.162        0.053       44.854        7.259        0.026      328.941       -4.637      867.536
01/30/2022  04:24:00      -54.969        8.788      -13.171       23.110       15.596       11.659      534.087      243.244      135.941        0.209        0.046       55.667        6.125        0.012      328.922       -4.670      867.525
01/30/2022  04:25:00      -41.428       13.597       -0.764       20.194       20.027       15.803      407.786      401.078      249.738        0.148        0.053       43.602        9.457        0.047      328.893       -4.717      867.519
01/30/2022  04:26:00      -61.055        2.617       -1.183       26.865       17.227       17.272      721.709      296.759      298.320        0.253        0.066       61.111       15.128        0.061      328.917       -4.678      867.518
01/30/2022  04:27:00      -45.543       20.136      -10.985       26.509       12.228       12.548      702.702      149.523      157.444        0.180        0.050       49.796       12.925        0.067      328.848       -4.791      867.515
01/30/2022  04:28:00      -55.926       18.271       -5.778       21.780       16.968       14.704      474.378      287.916      216.206        0.224        0.049       58.835       13.461        0.052      328.855       -4.780      867.510
01/30/2022  04:29:00      -33.192        3.408       -0.767       21.232       19.489       17.748      450.809      379.811      314.991        0.113        0.057       33.366       11.458        0.118      328.814       -4.846      867.516
01/30/2022  04:30:00      -16.270        1.818       -0.289       15.715       10.841       13.528      246.949      117.538      183.004        0.041        0.027       16.372        7.680        0.220      328.822       -4.832      867.507
01/30/2022  04:31:00      -44.769       14.209      -11.196       17.069       14.546        9.219      291.338      211.579       84.998        0.146        0.029       46.969        6.232        0.018      328.849       -4.788      867.491
01/30/2022  04:32:00      -19.449       -1.106       -0.365       21.305       15.360       12.816      453.915      235.917      164.248        0.062        0.043       19.480        4.754        0.060      328.981       -4.572      867.477
01/30/2022  04:33:00       -3.122        1.857       -1.959        9.107        9.124        7.418       82.940       83.243       55.031        0.012        0.011        3.632        6.018        2.745      328.846       -4.793      867.467
01/30/2022  04:34:00      -11.807       -5.955      -10.579       12.696       11.998       10.262      161.179      143.963      105.316        0.035        0.021       13.223        7.341        0.308      328.868       -4.756      867.463
01/30/2022  04:35:00      -29.064        8.064       -9.706       26.523       26.676       17.371      703.487      711.631      301.756        0.136        0.086       30.163       15.695        0.271      328.721       -4.998      867.462
01/30/2022  04:36:00       -1.492       -1.370       -0.186       15.082       17.515       18.221      227.475      306.760      332.004        0.044        0.043        2.025       12.211       36.346      328.551       -5.275      867.470
01/30/2022  04:37:00      -58.776       13.321      -11.896       45.444       22.485       20.257     2065.189      505.591      410.363        0.338        0.149       60.266       20.337        0.114      328.557       -5.264      867.480
01/30/2022  04:38:00     -112.676       42.242       -3.361       30.301       20.102       17.819      918.131      404.082      317.525        0.807        0.082      120.334       16.667        0.019      328.542       -5.291      867.497
01/30/2022  04:39:00     -115.241       32.601       -8.052       25.742       20.546       19.098      662.639      422.149      364.746        0.793        0.072      119.764       14.867        0.015      328.539       -5.295      867.502
01/30/2022  04:40:00      -77.616       20.866       -2.226       27.216       23.566       18.071      740.733      555.374      326.548        0.404        0.081       80.372       12.456        0.024      328.565       -5.252      867.503
01/30/2022  04:41:00      -75.184       31.611       -6.080       30.523       15.424       13.789      931.666      237.913      190.147        0.402        0.068       81.559        8.470        0.011      328.625       -5.154      867.487
01/30/2022  04:42:00      -46.579       24.500      -11.505       19.355       19.513       15.311      374.614      380.771      234.427        0.195        0.049       52.630       10.757        0.042      328.665       -5.089      867.475
01/30/2022  04:43:00      -55.238       11.272       -2.703       22.808       14.952       16.057      520.193      223.561      257.831        0.209        0.050       56.376       14.271        0.064      328.809       -4.854      867.467
01/30/2022  04:44:00      -88.076       19.484       -8.169       13.807       16.465       11.195      190.644      271.100      125.317        0.440        0.029       90.205        6.233        0.005      328.874       -4.748      867.462
01/30/2022  04:45:00      -78.819       23.451       -9.085       16.921       17.155       13.743      286.320      294.309      188.865        0.381        0.038       82.233        8.653        0.011      328.919       -4.675      867.448
01/30/2022  04:46:00      -92.879       32.763      -12.971       13.654       12.870        7.778      186.437      165.631       60.491        0.514        0.021       98.488        2.967        0.001      328.843       -4.799      867.429
01/30/2022  04:47:00      -81.768       38.693      -11.485       18.944       10.343        9.549      358.868      106.971       91.176        0.444        0.028       90.461        7.823        0.007      328.657       -5.102      867.413
01/30/2022  04:48:00      -46.929       33.075       -5.289       15.319       11.803       10.531      234.659      139.319      110.899        0.190        0.024       57.413        5.907        0.011      328.888       -4.725      867.406
01/30/2022  04:49:00       -6.905       -7.269       -7.017       12.474       18.849       10.543      155.601      355.292      111.165        0.039        0.031       10.026        6.695        0.446      329.011       -4.524      867.407
01/30/2022  04:50:00       -5.649      -21.687       -9.479        9.964       14.924       11.106       99.274      222.732      123.333        0.052        0.022       22.411        7.801        0.121      329.133       -4.325      867.412
01/30/2022  04:51:00       -3.438      -14.948        0.069        8.118        9.669        8.241       65.906       93.488       67.906        0.023        0.011       15.338        4.016        0.069      329.138       -4.316      867.417
01/30/2022  04:52:00       -9.002      -13.932       -6.847        9.982       12.828        9.783       99.641      164.565       95.709        0.034        0.018       16.587        8.392        0.256      329.166       -4.272      867.419
01/30/2022  04:53:00       -9.435      -18.246      -15.505       13.558        9.990       10.579      183.828       99.805      111.921        0.053        0.020       20.542        6.665        0.105      329.049       -4.462      867.430
01/30/2022  04:54:00      -11.834      -11.143       -9.843       11.576        8.307        9.505      134.014       69.005       90.351        0.033        0.015       16.254        7.172        0.195      329.037       -4.483      867.433
01/30/2022  04:55:00      -10.575      -14.219       -8.777       16.053       17.862       10.876      257.704      319.043      118.278        0.054        0.035       17.720       11.993        0.458      329.033       -4.490      867.439
01/30/2022  04:56:00      -13.830       12.034       -5.112       15.013       10.292        6.051      225.391      105.934       36.617        0.037        0.018       18.333        3.764        0.042      328.857       -4.776      867.448
01/30/2022  04:57:00      -22.320       18.160       -9.902        7.931        8.017        6.409       62.898       64.272       41.074        0.055        0.008       28.775        3.888        0.018      328.805       -4.860      867.459
01/30/2022  04:58:00      -26.216       16.003      -14.638        6.580        7.894        8.841       43.300       62.308       78.159        0.067        0.009       30.714        5.377        0.031      328.865       -4.762      867.471
01/30/2022  04:59:00      -20.396       16.983      -15.401        6.938        9.587        6.628       48.133       91.906       43.934        0.056        0.009       26.541        4.362        0.027      329.019       -4.511      867.479
01/30/2022  05:00:00      -16.060        4.147       -4.934       13.879       11.370        8.590      192.639      129.285       73.786        0.035        0.020       16.587        2.823        0.029      328.831       -4.816      867.502
01/30/2022  05:01:00      -38.442        6.272      -12.522       13.054       15.678        9.445      170.399      245.806       89.204        0.109        0.025       38.950        7.655        0.039      328.650       -5.114      867.507
01/30/2022  05:02:00      -26.322       -9.258       -5.606       29.392       18.352       17.382      863.872      336.791      302.136        0.116        0.075       27.902       19.876        0.507      328.539       -5.295      867.505
01/30/2022  05:03:00      -71.146       22.476      -11.766       47.852       25.860       17.862     2289.774      668.716      319.055        0.449        0.164       74.612       12.063        0.026      328.401       -5.519      867.501
01/30/2022  05:04:00     -101.274       27.807      -16.704       35.687       24.404       14.848     1273.538      595.543      220.477        0.670        0.104      105.023        9.402        0.008      328.373       -5.565      867.502
01/30/2022  05:05:00      -78.821        7.950      -11.721       50.501       31.822       22.526     2550.329     1012.647      507.415        0.524        0.204       79.220       21.303        0.072      328.416       -5.494      867.503
01/30/2022  05:06:00      -94.231       25.549      -12.613       30.107       26.821       19.811      906.448      719.363      392.458        0.585        0.101       97.633       14.405        0.022      328.403       -5.517      867.497
01/30/2022  05:07:00     -112.657       45.881      -14.136       19.303       17.966       16.914      372.602      322.774      286.090        0.799        0.049      121.641        9.805        0.006      328.362       -5.583      867.493
01/30/2022  05:08:00      -98.583       40.570       -9.033       22.208       18.610       15.868      493.212      346.346      251.797        0.627        0.055      106.604       10.412        0.010      328.364       -5.580      867.492
01/30/2022  05:09:00      -97.226       31.567       -4.914       40.715       27.110       20.337     1657.728      734.946      413.596        0.664        0.140      102.222       19.675        0.037      328.354       -5.596      867.503
01/30/2022  05:10:00     -115.958       33.785       -9.307       25.697       15.628       15.583      660.313      244.226      242.842        0.791        0.057      120.780       12.449        0.011      328.337       -5.624      867.523
01/30/2022  05:11:00     -110.314       34.471       -7.880       23.315       18.881       14.247      543.600      356.484      202.980        0.726        0.055      115.575       10.894        0.009      328.356       -5.592      867.535
01/30/2022  05:12:00     -123.908       44.943       -7.114       36.559       24.164       17.588     1336.573      583.891      309.326        0.983        0.111      131.807       14.799        0.013      328.427       -5.478      867.539
01/30/2022  05:13:00     -144.515       40.538       -7.898       35.919       33.141       16.452     1290.144     1098.352      270.681        1.262        0.133      150.093        7.433        0.002      328.549       -5.278      867.539
01/30/2022  05:14:00     -120.127       47.716      -11.474       42.742       31.351       24.870     1826.876      982.892      618.499        1.013        0.171      129.257       20.945        0.026      328.369       -5.571      867.539
01/30/2022  05:15:00      -79.999       28.282        3.412       57.213       38.518       26.622     3273.327     1483.601      708.753        0.634        0.273       84.851       25.110        0.088      328.384       -5.547      867.533
01/30/2022  05:16:00      -64.743       30.299        1.845       50.934       39.626       30.649     2594.233     1570.239      939.391        0.511        0.255       71.482       24.476        0.117      328.356       -5.593      867.527
01/30/2022  05:17:00      -89.418       36.584       -4.441       45.219       34.956       22.634     2044.752     1221.926      512.319        0.657        0.189       96.612       19.676        0.041      328.255       -5.758      867.518
01/30/2022  05:18:00     -116.922       49.382       -4.950       51.237       27.841       22.725     2625.195      775.146      516.445        1.002        0.196      126.922       24.677        0.038      328.256       -5.755      867.511
01/30/2022  05:19:00     -102.266       36.276       -1.860       49.884       33.566       23.536     2488.371     1126.683      553.937        0.797        0.208      108.510       23.328        0.046      328.220       -5.814      867.509
01/30/2022  05:20:00     -100.048       29.693       -4.065       55.010       31.729       27.809     3026.073     1006.728      773.365        0.786        0.240      104.362       27.009        0.067      328.234       -5.792      867.502
01/30/2022  05:21:00     -112.163       22.483        5.683       64.154       40.825       30.961     4115.756     1666.641      958.572        0.993        0.337      114.394       33.073        0.084      328.271       -5.731      867.492
01/30/2022  05:22:00     -121.851       39.580      -11.006       65.378       40.302       30.444     4274.249     1624.231      926.852        1.168        0.341      128.118       35.329        0.076      328.270       -5.733      867.496
01/30/2022  05:23:00     -136.121       44.390      -10.230       51.446       35.755       29.650     2646.720     1278.454      879.120        1.270        0.240      143.176       27.206        0.036      328.306       -5.674      867.518
01/30/2022  05:24:00     -108.920       21.191      -14.861       84.248       27.634       33.446     7097.764      763.616     1118.609        1.076        0.449      110.962       44.501        0.161      328.358       -5.590      867.534
01/30/2022  05:25:00      -13.401        2.886      -11.021       50.054       38.751       29.101     2505.439     1501.607      846.865        0.258        0.243       13.708       17.805        1.687      328.326       -5.640      867.547
01/30/2022  05:26:00      -83.801       18.851      -25.537       56.804       35.270       30.302     3226.641     1243.957      918.221        0.671        0.269       85.895       16.001        0.035      328.449       -5.442      867.554
01/30/2022  05:27:00     -102.311       20.873      -29.312       37.714       28.612       23.857     1422.315      818.624      569.139        0.729        0.141      104.418       15.740        0.023      328.537       -5.298      867.553
01/30/2022  05:28:00     -101.017       32.999      -21.193       36.755       24.989       33.010     1350.922      624.432     1089.689        0.740        0.153      106.270       22.408        0.044      328.555       -5.267      867.536
01/30/2022  05:29:00      -59.708       12.277      -19.733       49.647       28.154       26.419     2464.859      792.633      697.968        0.403        0.198       60.958       15.031        0.061      328.505       -5.349      867.524
01/30/2022  05:30:00      -55.649        7.509      -17.090       56.274       31.395       18.367     3166.732      985.670      337.338        0.397        0.224       56.153       18.020        0.103      328.562       -5.258      867.514
01/30/2022  05:31:00        5.966        1.891       -2.636       16.494       17.390       17.459      272.062      302.423      304.800        0.046        0.044        6.259       10.059        2.583      328.498       -5.362      867.498
01/30/2022  05:32:00      -12.257       -5.043       -4.154       40.374       20.052       21.958     1630.021      402.096      482.134        0.135        0.126       13.254       22.264        2.822      328.537       -5.298      867.490
01/30/2022  05:33:00      -47.587        7.778       -3.961       40.013       18.027       23.063     1601.038      324.990      531.887        0.240        0.123       48.219       17.715        0.135      328.638       -5.133      867.487
01/30/2022  05:34:00      -96.407       34.961       -4.048       30.081       20.458       20.568      904.864      418.530      423.027        0.614        0.087      102.550       15.769        0.024      328.619       -5.164      867.483
01/30/2022  05:35:00      -97.180       26.537       -8.391       37.958       23.949       17.078     1440.829      573.534      291.657        0.626        0.115      100.738       14.052        0.019      328.541       -5.291      867.488
01/30/2022  05:36:00     -100.508       31.029       -5.678       36.206       27.982       20.809     1310.857      783.015      433.018        0.681        0.126      105.189       19.150        0.033      328.593       -5.206      867.503
01/30/2022  05:37:00      -74.727        4.099       -8.138       41.102       32.182       28.232     1689.373     1035.672      797.064        0.459        0.176       74.840       27.688        0.137      328.584       -5.221      867.512
01/30/2022  05:38:00     -111.999       34.873       -7.456       32.976       35.176       23.031     1087.393     1237.363      530.436        0.833        0.143      117.302       11.633        0.010      328.623       -5.158      867.521
01/30/2022  05:39:00      -97.840       35.838       -5.945       30.332       33.926       22.738      920.052     1150.995      516.994        0.674        0.129      104.197       18.216        0.031      328.568       -5.248      867.523
01/30/2022  05:40:00     -107.639       41.574      -10.524       27.353       20.905       16.863      748.193      437.019      284.378        0.745        0.073      115.389       11.112        0.009      328.567       -5.247      867.523
01/30/2022  05:41:00      -85.252       20.286       -5.124       19.938       14.840       15.617      397.540      220.211      243.881        0.428        0.043       87.633       12.660        0.021      328.598       -5.198      867.507
01/30/2022  05:42:00      -93.208       32.192       -8.163       16.912       17.796       13.727      286.030      316.708      188.436        0.529        0.040       98.611        6.954        0.005      328.545       -5.285      867.495
01/30/2022  05:43:00      -92.156       30.402       -9.523       29.195       29.393       19.495      852.369      863.940      380.074        0.580        0.105       97.041       16.587        0.029      328.482       -5.387      867.491
01/30/2022  05:44:00     -106.294       56.301      -10.706       23.371       20.682       17.261      546.209      427.746      297.945        0.793        0.064      120.284        9.554        0.006      328.351       -5.601      867.495
01/30/2022  05:45:00      -78.856       38.353       -6.937       17.932       19.002       13.435      321.552      361.059      180.509        0.430        0.043       87.688        8.467        0.009      328.343       -5.613      867.505
01/30/2022  05:46:00      -75.869       35.403      -12.640       18.348       14.955       13.166      336.634      223.646      173.356        0.395        0.037       83.722        8.301        0.010      328.351       -5.600      867.520
01/30/2022  05:47:00      -73.558       22.237       -7.730       31.775       27.443       12.246     1009.660      753.111      149.974        0.394        0.096       76.846        9.911        0.017      328.349       -5.603      867.515
01/30/2022  05:48:00      -63.490       16.742      -10.218       21.724       18.866       18.632      471.954      355.923      347.139        0.280        0.059       65.660       13.759        0.044      328.404       -5.514      867.500
01/30/2022  05:49:00      -61.875       30.053      -14.175       17.526       17.907       11.839      307.157      320.658      140.163        0.285        0.038       68.787        4.569        0.004      328.333       -5.631      867.485
01/30/2022  05:50:00      -57.418       49.986      -11.665       16.532       20.483       14.693      273.298      419.562      215.881        0.342        0.045       76.128       10.743        0.020      328.269       -5.735      867.475
01/30/2022  05:51:00      -83.858       54.384      -12.885       13.725       16.783       14.290      188.380      281.658      204.202        0.541        0.034       99.948        8.583        0.007      328.381       -5.552      867.464
01/30/2022  05:52:00     -100.403       30.420      -13.482       28.993       26.033       17.300      840.608      677.718      299.282        0.650        0.091      104.911       15.479        0.022      328.406       -5.511      867.466
01/30/2022  05:53:00      -79.527       19.377      -10.312       29.817       21.546       15.303      889.036      464.245      234.178        0.420        0.079       81.854       13.272        0.026      328.405       -5.512      867.457
01/30/2022  05:54:00      -39.106        6.397       -9.012       27.264       18.645       11.174      743.324      347.638      124.850        0.143        0.061       39.625        7.401        0.035      328.424       -5.482      867.452
01/30/2022  05:55:00      -61.894       20.986      -11.741       13.497       14.801       15.072      182.178      219.074      227.174        0.252        0.031       65.355        7.522        0.013      328.468       -5.409      867.446
01/30/2022  05:56:00      -75.152       35.722      -11.600       19.891       13.722       11.934      395.660      188.286      142.432        0.389        0.036       83.210        7.371        0.008      328.337       -5.623      867.445
01/30/2022  05:57:00      -73.054       21.323       -8.827       36.442       14.536       14.853     1328.021      211.298      220.619        0.381        0.088       76.102       13.552        0.032      328.300       -5.684      867.448
01/30/2022  05:58:00      -82.223       33.303      -10.121       26.117       15.560       14.242      682.083      242.104      202.849        0.455        0.056       88.711       11.463        0.017      328.296       -5.690      867.453
01/30/2022  05:59:00      -96.428       34.279       -9.633       20.710       17.670       15.285      428.901      312.230      233.620        0.577        0.049      102.340       11.668        0.013      328.277       -5.720      867.444
01/30/2022  06:00:00      -75.779       17.738       -8.899       24.697       22.927       15.306      609.925      525.663      234.282        0.375        0.068       77.828       11.276        0.021      328.358       -5.588      867.434
01/30/2022  06:01:00      -43.894        8.867      -11.633       26.127       23.894       16.017      682.627      570.944      256.530        0.183        0.076       44.781       12.459        0.077      328.383       -5.550      867.439
01/30/2022  06:02:00      -75.431       15.070       -9.601       19.396       18.221       14.676      376.194      331.998      215.379        0.347        0.046       76.922        8.811        0.013      328.407       -5.510      867.452
01/30/2022  06:03:00     -100.008       35.001      -13.755       21.110       19.409       15.065      445.614      376.724      226.963        0.623        0.052      105.956        7.443        0.005      328.338       -5.620      867.464
01/30/2022  06:04:00     -108.054       41.933      -13.613       26.639       18.373       17.074      709.637      337.557      291.534        0.748        0.067      115.906        5.774        0.002      328.349       -5.604      867.473
01/30/2022  06:05:00     -102.072       37.790      -13.322       24.127       26.764       18.570      582.102      716.334      344.838        0.683        0.082      108.843       11.578        0.011      328.284       -5.711      867.478
01/30/2022  06:06:00     -105.295       34.985       -8.918       31.231       22.685       19.044      975.353      514.619      362.670        0.712        0.093      110.955       13.302        0.014      328.283       -5.711      867.477
01/30/2022  06:07:00      -99.259       48.546      -13.599       32.098       22.163       19.661     1030.282      491.209      386.570        0.715        0.095      110.494       17.285        0.024      328.235       -5.791      867.476
01/30/2022  06:08:00      -59.678       43.915      -12.904       25.189       19.266       12.257      634.489      371.167      150.233        0.341        0.058       74.095        5.559        0.006      328.291       -5.696      867.477
01/30/2022  06:09:00      -21.216       21.017      -13.189       12.920       15.439        8.241      166.926      238.368       67.919        0.077        0.024       29.864        7.407        0.062      328.517       -5.329      867.478
01/30/2022  06:10:00        2.692       28.122       -8.206        9.534       16.000        8.022       90.891      256.003       64.351        0.064        0.021       28.250        3.680        0.017      328.649       -5.115      867.478
01/30/2022  06:11:00       13.222       20.910       -1.496       12.425       12.566        7.546      154.379      157.914       56.948        0.049        0.018       24.740        3.833        0.024      328.772       -4.915      867.482
01/30/2022  06:12:00        5.732       10.748       -4.278       11.099        8.464        6.847      123.187       71.632       46.886        0.020        0.012       12.181        4.065        0.111      328.743       -4.962      867.482
01/30/2022  06:13:00        7.162       12.415       -5.051       10.770        6.990        8.031      115.986       48.858       64.494        0.023        0.011       14.333        4.580        0.102      328.800       -4.868      867.482
01/30/2022  06:14:00       -1.598        2.606       -6.842       16.668        7.813        6.073      277.825       61.043       36.881        0.022        0.019        3.057        1.855        0.368      328.669       -5.082      867.486
01/30/2022  06:15:00      -22.822       10.751       -4.478       10.700       10.936       10.208      114.482      119.587      104.206        0.050        0.017       25.228        7.262        0.083      328.616       -5.168      867.495
01/30/2022  06:16:00       -1.841       -7.657       -8.134       10.448        8.620        9.960      109.151       74.301       99.204        0.021        0.014        7.875        1.605        0.042      328.549       -5.277      867.517
01/30/2022  06:17:00      -19.989      -13.214       -1.648       10.327       11.715       11.993      106.651      137.239      143.830        0.048        0.019       23.961        6.517        0.074      328.784       -4.895      867.530
01/30/2022  06:18:00      -34.994       20.983       -6.293       27.380       13.208       12.009      749.649      174.464      144.206        0.139        0.053       40.803       15.982        0.153      328.551       -5.276      867.559
01/30/2022  06:19:00      -67.683       40.580       -7.800       20.190       14.088       13.606      407.634      198.476      185.118        0.354        0.040       78.916       11.120        0.020      328.475       -5.400      867.586
01/30/2022  06:20:00      -69.494       38.977      -11.243       22.044       16.413       15.397      485.922      269.387      237.056        0.373        0.050       79.678       13.993        0.031      328.450       -5.439      867.606
01/30/2022  06:21:00      -69.779       19.255      -16.005       18.046       17.510       13.903      325.667      306.592      193.302        0.316        0.041       72.387        9.607        0.018      328.471       -5.406      867.616
01/30/2022  06:22:00      -32.295        8.023       -7.398       31.167       21.036       15.966      971.381      442.506      254.920        0.142        0.083       33.277       12.335        0.137      328.435       -5.464      867.626
01/30/2022  06:23:00      -60.857        7.101      -19.329       33.117       21.921       17.306     1096.716      480.548      299.481        0.300        0.094       61.270       14.754        0.058      328.426       -5.480      867.618
01/30/2022  06:24:00      -35.255       14.233       -4.628       28.603       17.251       16.756      818.144      297.587      280.754        0.143        0.070       38.020       17.911        0.222      328.362       -5.582      867.598
01/30/2022  06:25:00      -43.405       13.013      -21.261       21.549       17.195       14.429      464.353      295.681      208.189        0.174        0.048       45.314       11.743        0.067      328.466       -5.414      867.579
01/30/2022  06:26:00      -25.044       15.169       -9.795       17.087       14.973       16.146      291.973      224.177      260.694        0.086        0.039       29.280        8.055        0.076      328.438       -5.459      867.562
01/30/2022  06:27:00      -58.148       23.401      -15.044       17.885       15.125       10.970      319.869      228.761      120.347        0.241        0.033       62.680        2.290        0.001      328.445       -5.447      867.562
01/30/2022  06:28:00      -65.331       16.134      -11.698       24.028       19.276       13.588      577.341      371.559      184.629        0.290        0.057       67.294       12.744        0.036      328.357       -5.591      867.563
01/30/2022  06:29:00      -95.381       35.094      -16.193       14.820       15.353        9.627      219.642      235.721       92.682        0.557        0.027      101.632        4.449        0.002      328.288       -5.704      867.563
01/30/2022  06:30:00      -63.603       11.600      -13.789       41.336       25.375       20.742     1708.639      643.869      430.217        0.358        0.139       64.652       19.349        0.090      328.286       -5.707      867.562
01/30/2022  06:31:00      -52.921        0.753      -13.992       39.928       21.092       15.306     1594.223      444.852      234.282        0.263        0.114       52.927       16.261        0.094      328.282       -5.715      867.559
01/30/2022  06:32:00      -46.068        6.990      -15.171       21.290       17.049       11.478      453.279      290.680      131.753        0.164        0.044       46.595        7.355        0.025      328.275       -5.725      867.546
01/30/2022  06:33:00        5.061       15.565       -4.350       11.654       11.709       11.590      135.811      137.090      134.320        0.035        0.020       16.367        5.017        0.094      328.424       -5.482      867.541
01/30/2022  06:34:00       23.553       29.439       -6.378       20.386        9.746       10.499      415.607       94.989      110.224        0.104        0.031       37.702        9.446        0.063      328.698       -5.036      867.541
01/30/2022  06:35:00       38.882       23.043      -11.147       17.656       12.548        7.226      311.722      157.451       52.210        0.134        0.026       45.197        9.104        0.041      328.731       -4.982      867.558
01/30/2022  06:36:00       41.111       25.745       -7.108       15.934       11.790       11.003      253.893      139.000      121.057        0.146        0.026       48.506        7.117        0.022      328.750       -4.950      867.569
01/30/2022  06:37:00       36.077       18.610       -3.950       22.799       12.315       11.741      519.801      151.660      137.844        0.124        0.040       40.595       10.682        0.069      328.757       -4.938      867.585
01/30/2022  06:38:00        3.018        5.246       -2.070        9.479        8.672        7.457       89.845       75.199       55.611        0.013        0.011        6.052        7.291        1.451      328.695       -5.040      867.607
01/30/2022  06:39:00       -2.543        6.277       -2.810        8.722        9.172        7.899       76.070       84.127       62.401        0.014        0.011        6.772        4.345        0.412      328.695       -5.041      867.626
01/30/2022  06:40:00      -18.697        5.570       -8.467       13.589        9.632        9.449      184.671       92.784       89.279        0.041        0.018       19.509        7.132        0.134      328.534       -5.302      867.636
01/30/2022  06:41:00      -19.403        9.073       -4.199       19.322        8.464        8.771      373.354       71.647       76.922        0.050        0.026       21.419        4.849        0.051      328.482       -5.388      867.651
01/30/2022  06:42:00       -7.233       26.773      -10.747       21.765       12.289        9.239      473.722      151.008       85.366        0.080        0.036       27.733        6.071        0.048      328.688       -5.053      867.674
01/30/2022  06:43:00      -33.014       35.219      -13.031       19.359       12.974       11.425      374.769      168.336      130.541        0.159        0.034       48.273        9.245        0.037      328.513       -5.337      867.698
01/30/2022  06:44:00      -42.847       25.599      -13.451        6.657        6.988        7.569       44.310       48.833       57.285        0.141        0.008       49.912        4.590        0.008      328.499       -5.361      867.728
01/30/2022  06:45:00      -31.271        6.415      -11.008       18.957       16.568       15.628      359.363      274.495      244.248        0.101        0.044       31.923       10.788        0.114      328.628       -5.148      867.747
01/30/2022  06:46:00       10.717       11.584       -6.969       21.250       22.974       15.225      451.543      527.793      231.794        0.075        0.061       15.782       11.021        0.488      328.749       -4.953      867.750
01/30/2022  06:47:00       21.334       -6.610       -8.811       34.098       37.065       20.228     1162.694     1373.805      409.187        0.176        0.147       22.334       17.646        0.624      328.804       -4.862      867.757
01/30/2022  06:48:00       77.699      -20.591       -7.051       24.798       19.030       16.350      614.934      362.141      267.320        0.388        0.062       80.381       14.471        0.032      328.754       -4.944      867.765
01/30/2022  06:49:00       90.347       26.419      -13.080       22.420       19.103       11.411      502.659      364.928      130.203        0.501        0.050       94.130       10.953        0.014      328.749       -4.952      867.782
01/30/2022  06:50:00       18.793       -7.558       -9.693       21.499       30.756       17.031      462.188      945.904      290.050        0.110        0.085       20.256        5.794        0.082      328.790       -4.885      867.790
01/30/2022  06:51:00       -8.560        0.989      -13.641       24.233       23.180       16.333      587.245      537.291      266.761        0.083        0.070        8.617       12.508        2.107      328.756       -4.941      867.796
01/30/2022  06:52:00        7.311       -6.841       -9.064       17.709       32.557       18.887      313.609     1059.964      356.720        0.096        0.087       10.012       17.670        3.114      328.771       -4.918      867.789
01/30/2022  06:53:00      -22.922       -8.765       -7.641       21.952       24.742       13.417      481.910      612.154      180.016        0.097        0.064       24.541        7.375        0.090      328.827       -4.824      867.792
01/30/2022  06:54:00      -36.282      -17.107       -3.991       23.798       26.060       15.174      566.332      679.141      230.259        0.155        0.074       40.112       12.602        0.099      328.707       -5.020      867.808
01/30/2022  06:55:00      -16.520      -67.303      -16.671       37.865       28.050       19.191     1433.783      786.816      368.299        0.383        0.129       69.301       12.641        0.033      328.756       -4.939      867.818
01/30/2022  06:56:00      -23.046      -15.485      -20.071       20.483       13.661       15.637      419.545      186.632      244.516        0.101        0.043       27.765       11.502        0.172      328.598       -5.199      867.828
01/30/2022  06:57:00      -21.438      -13.540        2.364       10.225       11.286       13.377      104.545      127.369      178.933        0.053        0.021       25.356        7.166        0.080      328.682       -5.061      867.825
01/30/2022  06:58:00       -6.131      -44.986      -19.225       18.783       22.452       19.492      352.812      504.079      379.954        0.183        0.062       45.402       10.592        0.054      328.806       -4.859      867.820
01/30/2022  06:59:00       46.965      -65.504      -20.645       21.212       31.796       17.626      449.928     1011.003      310.668        0.435        0.089       80.601       10.712        0.018      328.858       -4.774      867.822
01/30/2022  07:00:00       10.695      -33.306       -5.652       25.274       37.971       16.492      638.793     1441.811      271.979        0.180        0.118       34.981       16.660        0.227      328.793       -4.880      867.835
01/30/2022  07:01:00      -20.708        9.010      -11.389       14.517       12.275       11.075      210.754      150.678      122.666        0.056        0.024       22.583        7.558        0.112      328.637       -5.136      867.840
01/30/2022  07:02:00      -20.271        3.307       -9.808        7.255       11.884        8.347       52.637      141.235       69.673        0.039        0.013       20.539        6.315        0.095      328.556       -5.265      867.851
01/30/2022  07:03:00      -22.338      -20.369       -8.835       10.327       25.219       18.530      106.644      636.022      343.373        0.104        0.054       30.230        9.493        0.099      328.658       -5.101      867.852
01/30/2022  07:04:00       -7.273       -8.904       -5.768       15.191       18.007       16.145      230.768      324.267      260.676        0.049        0.041       11.497        7.710        0.450      328.694       -5.043      867.854
01/30/2022  07:05:00      -25.495       -1.113       -1.442       12.543       12.145       10.912      157.320      147.497      119.068        0.054        0.021       25.519        6.942        0.074      328.664       -5.092      867.871
01/30/2022  07:06:00      -11.848       -6.696       -2.858       13.452       12.962        8.197      180.945      168.004       67.196        0.030        0.021       13.609        6.654        0.239      328.524       -5.317      867.902
01/30/2022  07:07:00      -10.979        5.125       -5.615       12.803        8.034        5.621      163.915       64.547       31.598        0.022        0.013       12.116        3.787        0.098      328.448       -5.443      867.935
01/30/2022  07:08:00      -26.296       14.111       -4.670       10.097       10.009        8.676      101.944      100.179       75.274        0.059        0.014       29.843        5.142        0.030      328.478       -5.393      867.968
01/30/2022  07:09:00      -30.199       11.734       -5.438       25.624       13.844       12.258      656.567      191.644      150.247        0.104        0.050       32.399       14.738        0.207      328.454       -5.433      867.995
01/30/2022  07:10:00      -34.607       13.947       -8.476       15.815       10.829       10.251      250.121      117.264      105.075        0.097        0.024       37.311        4.907        0.017      328.379       -5.555      868.013
01/30/2022  07:11:00       -5.668       10.767      -10.256       10.070        7.509        7.019      101.398       56.386       49.269        0.023        0.010       12.168        5.341        0.193      328.356       -5.591      868.016
01/30/2022  07:12:00       -1.859        3.581       -6.191        7.713       16.491        5.981       59.487      271.962       35.771        0.021        0.018        4.035        4.402        1.190      328.442       -5.453      868.020
01/30/2022  07:13:00        4.402        2.450       -7.835       12.242       17.614       11.048      149.863      310.253      122.059        0.033        0.029        5.038        5.965        1.402      328.561       -5.258      868.030
01/30/2022  07:14:00        4.690       28.784       -7.919       12.211        8.949        8.078      149.100       80.076       65.259        0.060        0.015       29.164        3.953        0.018      328.466       -5.414      868.034
01/30/2022  07:15:00       20.090       22.544       -3.763       22.401       11.169        8.427      501.795      124.744       71.012        0.081        0.035       30.197        6.014        0.040      328.422       -5.486      868.024
01/30/2022  07:16:00       47.134       18.351      -10.973       13.189       18.055       11.026      173.960      325.966      121.566        0.165        0.031       50.580        3.901        0.006      328.438       -5.459      868.014
01/30/2022  07:17:00       57.086        6.422      -11.707       15.581       19.899       14.438      242.764      395.987      208.465        0.214        0.042       57.446        9.045        0.025      328.389       -5.539      868.007
01/30/2022  07:18:00        9.560       -2.021        4.914       23.034       30.058       15.583      530.560      903.472      242.819        0.090        0.084        9.771        8.950        0.839      328.413       -5.499      868.001
01/30/2022  07:19:00       40.762       -8.515       -5.479       37.101       21.637       20.212     1376.464      468.164      408.508        0.201        0.113       41.642       19.013        0.208      328.382       -5.549      868.000
01/30/2022  07:20:00       64.823        8.645       -0.686       30.046       26.967       16.743      902.736      727.237      280.337        0.309        0.096       65.396       15.121        0.053      328.280       -5.716      867.997
01/30/2022  07:21:00      108.725       44.302       -9.196       25.604       26.678       13.849      655.542      711.734      191.792        0.771        0.078      117.404        6.273        0.003      328.146       -5.934      868.001
01/30/2022  07:22:00      116.220       42.558       -9.746       17.373       15.637       10.892      301.831      244.524      118.645        0.804        0.033      123.767        8.740        0.005      328.147       -5.934      868.012
01/30/2022  07:23:00      107.061       53.272      -10.121       19.400       14.238        8.480      376.359      202.714       71.918        0.753        0.033      119.583        5.297        0.002      328.202       -5.843      868.020
01/30/2022  07:24:00       71.002       52.185       -5.761       23.797       18.794       14.927      566.295      353.200      222.817        0.447        0.057       88.116       10.094        0.013      328.146       -5.935      868.036
01/30/2022  07:25:00       67.447       61.648       -5.709       19.872       13.526        9.946      394.889      182.948       98.915        0.453        0.034       91.376        6.905        0.006      328.244       -5.775      868.061
01/30/2022  07:26:00       45.932       84.901      -11.133       21.123       16.472       12.605      446.166      271.339      158.886        0.516        0.044       96.530        8.734        0.008      328.332       -5.633      868.093
01/30/2022  07:27:00       42.712       70.796       -9.067       18.763       18.020       12.884      352.069      324.706      166.008        0.388        0.042       82.682        9.624        0.014      328.379       -5.555      868.121
01/30/2022  07:28:00       39.035       60.189       -6.695       21.452       16.661       14.603      460.199      277.599      213.248        0.307        0.048       71.739       11.589        0.026      328.423       -5.483      868.133
01/30/2022  07:29:00       66.378       53.889      -16.613       15.564       14.327       11.324      242.239      205.270      128.237        0.408        0.029       85.499        6.614        0.006      328.398       -5.524      868.131
01/30/2022  07:30:00       69.953       50.683      -15.875       14.087       10.956        9.383      198.443      120.034       88.033        0.406        0.020       86.384        5.315        0.004      328.401       -5.519      868.124
01/30/2022  07:31:00       51.125       42.404      -11.215       16.755       16.292       15.071      280.732      265.434      227.135        0.266        0.039       66.421       11.475        0.030      328.477       -5.395      868.121
01/30/2022  07:32:00       61.604       35.490      -12.180       15.814       11.311       11.978      250.068      127.944      143.472        0.286        0.026       71.095        7.937        0.012      328.530       -5.309      868.122
01/30/2022  07:33:00       57.921       29.794      -11.979       14.484        9.119        9.026      209.785       83.157       81.464        0.238        0.019       65.134        4.493        0.005      328.563       -5.254      868.136
01/30/2022  07:34:00       54.164       35.847      -14.818        9.823        9.884       10.990       96.482       97.687      120.773        0.238        0.016       64.952        5.870        0.008      328.580       -5.226      868.141
01/30/2022  07:35:00       70.881       31.358      -12.064        5.905        7.421        5.480       34.864       55.073       30.035        0.314        0.006       77.508        2.099        0.001      328.616       -5.169      868.142
01/30/2022  07:36:00       62.895       38.367      -17.425       19.229       27.957       17.916      369.773      781.594      320.981        0.360        0.074       73.674       13.102        0.032      328.749       -4.952      868.141
01/30/2022  07:37:00       69.482       46.859       -4.112       23.918       20.896       14.153      572.066      436.640      200.321        0.412        0.060       83.806        7.832        0.009      328.684       -5.058      868.135
01/30/2022  07:38:00       61.247       11.114       -8.889       24.981       25.224       20.463      624.030      636.269      418.744        0.282        0.084       62.247        9.228        0.022      328.776       -4.907      868.131
01/30/2022  07:39:00       62.067       -0.286      -12.596       24.794       24.978       14.247      614.753      623.889      202.988        0.273        0.072       62.068        5.807        0.009      328.847       -4.792      868.134
01/30/2022  07:40:00       55.088        4.851      -10.932       37.198       23.555       20.903     1383.682      554.843      436.942        0.278        0.119       55.301       21.041        0.145      328.842       -4.800      868.145
01/30/2022  07:41:00       66.324       31.912      -11.545       27.954       19.368       18.663      781.431      375.128      348.316        0.353        0.075       73.602       17.771        0.058      328.742       -4.962      868.158
01/30/2022  07:42:00      104.202       25.014      -16.789       10.478       13.062        8.764      109.789      170.626       76.812        0.606        0.018      107.162        5.183        0.002      328.690       -5.050      868.161
01/30/2022  07:43:00      113.955       28.310      -18.792       14.812       14.110       12.599      219.402      199.092      158.723        0.736        0.029      117.418        9.599        0.007      328.745       -4.959      868.162
01/30/2022  07:44:00       98.122       15.301      -12.495       22.479       27.806       14.861      505.306      773.197      220.837        0.576        0.075       99.308        5.635        0.003      328.820       -4.836      868.161
01/30/2022  07:45:00       63.979        3.880      -11.816       23.209       26.266       26.304      538.664      689.906      691.913        0.308        0.096       64.096        7.113        0.012      328.889       -4.722      868.162
01/30/2022  07:46:00      114.353       38.122      -19.231       14.996       15.994       11.728      224.887      255.808      137.540        0.776        0.031      120.540        8.308        0.005      328.713       -5.010      868.177
01/30/2022  07:47:00       87.663       26.237      -12.944       25.490       15.938       10.062      649.717      254.013      101.248        0.477        0.050       91.505       10.067        0.012      328.771       -4.916      868.198
01/30/2022  07:48:00       75.510       35.536      -12.580       21.449       19.524       13.229      460.051      381.191      175.002        0.407        0.051       83.454        9.335        0.013      328.828       -4.822      868.207
01/30/2022  07:49:00       86.407       54.861      -19.332       16.936       15.699       12.791      286.813      246.472      163.619        0.577        0.035      102.351        7.944        0.006      328.833       -4.815      868.210
01/30/2022  07:50:00      105.018       38.076      -12.506       17.711       31.246       14.165      313.687      976.298      200.656        0.706        0.075      111.708       12.547        0.013      328.934       -4.650      868.216
01/30/2022  07:51:00       86.042       39.301      -16.575       14.262       12.531       10.698      203.418      157.030      114.445        0.485        0.024       94.593        7.538        0.006      328.915       -4.681      868.226
01/30/2022  07:52:00       97.926       53.913      -16.750       14.053       13.503       12.999      197.488      182.331      168.976        0.666        0.027      111.786        6.012        0.003      328.949       -4.627      868.239
01/30/2022  07:53:00       93.617       40.605      -17.902       15.305       13.295       11.779      234.250      176.752      138.738        0.564        0.027      102.044        5.556        0.003      328.949       -4.627      868.257
01/30/2022  07:54:00       95.304       41.612      -19.208       17.652       20.165       14.024      311.593      406.628      196.665        0.605        0.046      103.992        3.362        0.001      329.071       -4.428      868.267
01/30/2022  07:55:00       82.508       27.855      -18.797       32.910       30.431       18.528     1083.053      926.035      343.278        0.514        0.118       87.083       17.330        0.040      329.208       -4.203      868.282
01/30/2022  07:56:00       96.394       36.310      -22.576       15.551       18.380       11.550      241.837      337.812      133.403        0.592        0.036      103.006        4.356        0.002      329.027       -4.497      868.308
01/30/2022  07:57:00       77.651       38.231      -18.467       10.927       10.638       13.763      119.410      113.164      189.409        0.413        0.021       86.552        6.681        0.006      329.014       -4.522      868.332
01/30/2022  07:58:00       78.343       29.821      -20.474       12.508       14.663       12.318      156.457      214.997      151.745        0.398        0.026       83.827        1.763        0.000      329.044       -4.471      868.343
01/30/2022  07:59:00       79.991       26.827      -17.287        9.561       11.058        8.254       91.410      122.269       68.132        0.385        0.014       84.370        5.931        0.005      329.042       -4.473      868.349
01/30/2022  08:00:00       89.217       27.952      -18.660        9.589        8.653       10.708       91.945       74.882      114.667        0.469        0.014       93.493        2.077        0.000      329.046       -4.465      868.351
01/30/2022  08:01:00       84.808       43.296      -20.388       12.106       14.090       10.985      146.546      198.537      120.659        0.497        0.023       95.220        7.841        0.007      329.117       -4.351      868.360
01/30/2022  08:02:00       90.314       60.499      -23.365       14.532       12.730       12.471      211.165      162.062      155.534        0.645        0.026      108.705        3.969        0.001      329.148       -4.301      868.372
01/30/2022  08:03:00       91.732       48.118      -33.019       15.618       18.572       14.297      243.925      344.911      204.398        0.631        0.040      103.586       10.490        0.010      329.215       -4.191      868.394
01/30/2022  08:04:00       87.317       22.654      -22.864       21.481       25.061       17.711      461.432      628.043      313.693        0.503        0.070       90.208        8.439        0.009      329.349       -3.972      868.392
01/30/2022  08:05:00       83.461       26.317      -16.103       10.281       16.738       12.753      105.706      280.148      162.643        0.423        0.027       87.512        6.766        0.006      329.183       -4.244      868.383
01/30/2022  08:06:00       92.547       29.678      -19.965       10.323       13.509        7.548      106.572      182.491       56.969        0.510        0.017       97.189        2.364        0.001      329.158       -4.285      868.371
01/30/2022  08:07:00       82.123       38.088      -16.484       15.008       11.443       11.229      225.247      130.939      126.099        0.447        0.024       90.526        5.857        0.004      329.213       -4.194      868.358
01/30/2022  08:08:00       75.423       31.524      -15.105       13.532       16.263       10.771      183.106      264.501      116.005        0.374        0.028       81.746        7.278        0.008      329.277       -4.091      868.358
01/30/2022  08:09:00       67.684       45.319      -11.799       13.554       11.386       10.508      183.704      129.636      110.415        0.360        0.021       81.455        5.859        0.005      329.401       -3.889      868.356
01/30/2022  08:10:00       65.122       38.762      -14.571       13.284       14.228        9.693      176.455      202.439       93.955        0.321        0.024       75.785        6.154        0.007      329.434       -3.833      868.348
01/30/2022  08:11:00       62.708       45.150      -12.721       23.405       19.374       14.774      547.815      375.362      218.263        0.364        0.057       77.271       13.393        0.030      329.457       -3.795      868.349
01/30/2022  08:12:00       51.622       32.482        2.705       32.830       20.013       21.046     1077.819      400.535      442.928        0.282        0.096       60.992       12.526        0.042      329.537       -3.663      868.334
01/30/2022  08:13:00       34.060       38.081       -7.964       22.330       21.270       13.665      498.636      452.406      186.737        0.191        0.057       51.091        9.415        0.034      329.650       -3.481      868.312
01/30/2022  08:14:00       45.126       10.026      -16.457       28.773       26.616       12.674      827.892      708.436      160.618        0.205        0.085       46.227        7.326        0.025      329.588       -3.581      868.279
01/30/2022  08:15:00       24.959       32.274       -1.311       28.403       34.782       19.157      806.703     1209.820      366.988        0.202        0.119       40.799       10.659        0.068      329.701       -3.397      868.269
01/30/2022  08:16:00       24.730       27.398       -3.442       16.989       22.982       17.824      288.621      528.181      317.688        0.125        0.057       36.908       12.905        0.122      329.773       -3.280      868.285
01/30/2022  08:17:00       55.960       31.258      -14.873       17.793       14.559       15.400      316.574      211.952      237.167        0.255        0.038       64.098        9.910        0.024      329.709       -3.385      868.307
01/30/2022  08:18:00       49.697       27.965      -18.120       27.030       22.953       18.445      730.644      526.850      340.204        0.259        0.080       57.025        6.934        0.015      329.636       -3.503      868.321
01/30/2022  08:19:00       18.517      -16.036      -11.416       26.299       21.933       19.359      691.642      481.046      374.759        0.114        0.077       24.495       15.809        0.417      329.925       -3.032      868.321
01/30/2022  08:20:00        8.409      -18.958       -9.838       19.614       30.948       21.831      384.693      957.770      476.600        0.117        0.091       20.739       11.119        0.287      329.987       -2.930      868.324
01/30/2022  08:21:00       32.141      -51.690      -28.390       23.217       38.081       18.479      539.032     1450.169      341.479        0.342        0.117       60.868        7.198        0.014      329.887       -3.092      868.329
01/30/2022  08:22:00       47.349       -1.267      -16.224       24.925       24.577       20.138      621.257      604.038      405.537        0.207        0.082       47.366       11.107        0.055      329.920       -3.038      868.336
01/30/2022  08:23:00       64.533       52.035      -16.047       23.721       22.334       18.780      562.692      498.786      352.701        0.427        0.071       82.899       11.337        0.019      329.718       -3.368      868.345
01/30/2022  08:24:00       59.264       41.962      -20.630       11.036       10.375        9.716      121.801      107.644       94.408        0.301        0.016       72.615        5.643        0.006      329.614       -3.539      868.347
01/30/2022  08:25:00       55.477       32.027      -22.127       12.023       11.759       10.522      144.556      138.279      110.714        0.249        0.020       64.058        7.054        0.012      329.647       -3.484      868.340
01/30/2022  08:26:00       39.207        5.057      -12.647       36.617       35.569       21.477     1340.788     1265.146      461.243        0.239        0.153       39.531       20.606        0.272      330.100       -2.742      868.321
01/30/2022  08:27:00       10.860      -43.550      -20.477       24.667       39.243       21.850      608.484     1540.023      477.440        0.253        0.131       44.883       16.947        0.143      330.393       -2.262      868.304
01/30/2022  08:28:00      -15.170      -17.975       -5.804       27.311       32.348       24.174      745.907     1046.371      584.389        0.148        0.119       23.521       13.945        0.351      330.177       -2.617      868.293
01/30/2022  08:29:00      -49.704      -26.104       -7.669       26.946       22.803       17.809      726.096      519.966      317.158        0.239        0.078       56.142        9.814        0.031      330.004       -2.900      868.283
01/30/2022  08:30:00        5.739       -3.100       -8.446       32.811       29.198       24.448     1076.563      852.525      597.713        0.132        0.126        6.522       22.206       11.591      330.109       -2.730      868.272
01/30/2022  08:31:00        3.746      -19.270      -12.668       29.814       32.603       22.092      888.890     1062.956      488.043        0.149        0.122       19.631       14.828        0.571      330.253       -2.492      868.272
01/30/2022  08:32:00      -22.477      -15.671      -15.820       19.901       23.163       14.535      396.053      536.548      211.261        0.107        0.057       27.401        8.043        0.086      330.141       -2.677      868.265
01/30/2022  08:33:00       28.217      -13.568       -7.948       30.109       34.180       21.400      906.531     1168.290      457.976        0.179        0.127       31.310       13.736        0.192      330.291       -2.432      868.256
01/30/2022  08:34:00       33.662      -18.955      -19.989       30.052       54.766       32.190      903.133     2999.358     1036.182        0.341        0.247       38.632       21.055        0.297      330.284       -2.441      868.248
01/30/2022  08:35:00       49.602      -15.110      -23.980       27.637       48.262       22.807      763.815     2329.267      520.150        0.344        0.181       51.853       13.612        0.069      330.276       -2.453      868.248
01/30/2022  08:36:00       36.867      -16.134      -13.387       34.517       43.954       27.432     1191.430     1931.971      752.524        0.284        0.194       40.243       18.822        0.219      330.471       -2.135      868.256
01/30/2022  08:37:00       51.286       -4.361      -13.340       40.873       34.943       25.309     1670.570     1221.017      640.568        0.318        0.177       51.471       22.214        0.186      330.276       -2.455      868.271
01/30/2022  08:38:00       59.691       47.665      -14.487       30.050       32.061       17.464      902.982     1027.922      304.983        0.414        0.112       76.387       12.364        0.026      330.168       -2.633      868.296
01/30/2022  08:39:00       57.908        4.263       -9.619       42.438       56.680       32.364     1800.949     3212.641     1047.440        0.476        0.303       58.065       28.510        0.241      330.392       -2.266      868.305
01/30/2022  08:40:00       47.332      -21.033      -13.448       37.161       62.942       33.196     1380.911     3961.682     1101.961        0.465        0.322       51.795       17.433        0.113      330.600       -1.923      868.314
01/30/2022  08:41:00       88.007       13.559      -27.808       49.238       57.233       37.322     2424.380     3275.659     1392.897        0.790        0.355       89.046       28.732        0.104      330.256       -2.487      868.329
01/30/2022  08:42:00       57.052       -9.056      -25.183       50.196       51.358       27.182     2519.661     2637.668      738.873        0.493        0.295       57.766       24.586        0.181      330.245       -2.506      868.355
01/30/2022  08:43:00       62.043      -50.246      -34.863       35.667       38.165       31.497     1272.100     1456.533      992.063        0.565        0.186       79.838       19.929        0.062      330.213       -2.558      868.353
01/30/2022  08:44:00       47.877       -3.799      -13.509       34.946       32.560       34.748     1221.207     1060.154     1207.448        0.299        0.174       48.027       22.350        0.217      330.461       -2.151      868.342
01/30/2022  08:45:00       41.196      -21.104      -20.874       44.941       46.256       35.779     2019.705     2139.617     1280.158        0.401        0.272       46.287       29.395        0.403      330.468       -2.140      868.314
01/30/2022  08:46:00       33.869      -10.391       -5.862       30.549       33.407       34.588      933.252     1116.008     1196.344        0.227        0.162       35.428       21.711        0.376      330.489       -2.105      868.308
01/30/2022  08:47:00      120.503       50.646      -17.920       28.799       33.206       21.338      829.386     1102.662      455.322        0.990        0.119      130.714        9.004        0.005      330.066       -2.798      868.300
01/30/2022  08:48:00       91.675       29.406      -32.423       29.059       17.282       14.037      844.428      298.657      197.025        0.583        0.067       96.276       12.516        0.017      330.011       -2.888      868.295
01/30/2022  08:49:00       47.150       17.044      -19.651       30.188       45.820       27.959      911.322     2099.438      781.703        0.335        0.190       50.136       22.571        0.203      330.431       -2.200      868.283
01/30/2022  08:50:00        9.961       32.594      -11.914       38.552       39.270       29.889     1486.288     1542.163      893.361        0.261        0.196       34.082       22.650        0.442      330.616       -1.897      868.284
01/30/2022  08:51:00        9.359      -28.123        0.163       33.601       39.818       36.405     1129.048     1585.493     1325.292        0.246        0.202       29.640       25.104        0.717      330.649       -1.843      868.286
01/30/2022  08:52:00       40.686      -23.344      -23.713       33.247       38.348       32.277     1105.382     1470.571     1041.792        0.319        0.181       46.908       22.852        0.237      330.742       -1.689      868.291
01/30/2022  08:53:00       65.480       29.642      -13.903       48.589       42.186       23.482     2360.877     1779.686      551.412        0.502        0.235       71.877       22.099        0.095      330.387       -2.271      868.285
01/30/2022  08:54:00       78.972       28.020      -29.701       24.803       24.839       16.024      615.206      616.982      256.761        0.470        0.074       83.796        8.420        0.010      330.039       -2.843      868.268
01/30/2022  08:55:00       27.935        3.655      -20.904       48.180       22.820       24.005     2321.359      520.730      576.250        0.232        0.171       28.173       27.282        0.938      330.426       -2.209      868.253
01/30/2022  08:56:00       56.487       25.059      -21.030       35.470       40.829       27.840     1258.112     1666.997      775.066        0.398        0.185       61.796       20.702        0.112      330.616       -1.898      868.247
01/30/2022  08:57:00       84.204       47.456      -29.477       29.191       27.612       17.772      852.101      762.442      315.848        0.607        0.097       96.656        5.477        0.003      330.491       -2.103      868.247
01/30/2022  08:58:00       76.606       31.561      -30.593       29.352       20.650       18.019      861.561      426.442      324.681        0.471        0.081       82.853        7.820        0.009      330.258       -2.485      868.240
01/30/2022  08:59:00       -3.425        3.100      -17.110       20.898       21.966       17.378      436.714      482.510      301.990        0.077        0.061        4.620       13.942        9.108      330.796       -1.602      868.248
01/30/2022  09:00:00      -54.775      -36.520      -21.807       34.257       27.233       19.809     1173.532      741.638      392.395        0.356        0.115       65.834       16.211        0.061      330.579       -1.957      868.249
01/30/2022  09:01:00      -66.299      -31.436       -7.828       24.696       45.195       21.609      609.886     2042.618      466.938        0.428        0.156       73.374       12.478        0.029      330.657       -1.829      868.260
01/30/2022  09:02:00       -2.962       24.335      -12.936       21.809       19.339       17.449      475.615      373.990      304.459        0.096        0.058       24.514       10.474        0.183      330.879       -1.465      868.266
01/30/2022  09:03:00        5.393      -42.535      -15.372       21.684       35.733       18.725      470.192     1276.858      350.617        0.209        0.105       42.876       13.885        0.105      331.026       -1.224      868.270
01/30/2022  09:04:00       33.283       21.609      -13.917       37.107       44.475       28.930     1376.962     1977.986      836.970        0.298        0.210       39.683       24.456        0.380      330.706       -1.749      868.287
01/30/2022  09:05:00      -18.257      -16.423       -1.027       18.035       29.787       20.610      325.244      887.271      424.784        0.112        0.082       24.557       11.648        0.225      330.893       -1.443      868.307
01/30/2022  09:06:00      -37.195      -20.010      -16.845       30.621       26.971       21.732      937.623      727.432      472.274        0.210        0.107       42.236       17.197        0.166      330.900       -1.430      868.326
01/30/2022  09:07:00      -15.276      -33.524      -13.331       58.627       48.051       28.115     3437.114     2308.925      790.467        0.403        0.327       36.840       29.725        0.651      331.015       -1.242      868.344
01/30/2022  09:08:00        0.795      -18.317      -13.196       28.634       30.891       22.266      819.909      954.230      495.784        0.139        0.113       18.334       14.785        0.650      331.202       -0.935      868.354
01/30/2022  09:09:00        1.242      -45.524      -37.391       23.879       39.815       19.634      570.222     1585.262      385.484        0.301        0.127       45.540       12.465        0.075      331.047       -1.189      868.362
01/30/2022  09:10:00       -4.440      -76.696      -23.772       33.275       25.271       20.695     1107.225      638.631      428.290        0.432        0.109       76.825        8.124        0.011      330.992       -1.280      868.368
01/30/2022  09:11:00       38.493      -70.301      -35.490       27.262       30.365       20.975      743.229      922.040      439.938        0.489        0.105       80.149       18.948        0.056      330.704       -1.753      868.369
01/30/2022  09:12:00       45.915      -24.131      -19.312       27.149       32.896       27.554      737.094     1082.134      759.224        0.282        0.129       51.870       15.616        0.091      331.019       -1.234      868.368
01/30/2022  09:13:00       40.523        1.220      -22.199       30.210       49.820       27.768      912.674     2482.038      771.077        0.315        0.208       40.542       20.003        0.243      331.209       -0.923      868.369
01/30/2022  09:14:00       60.793      -31.551      -25.879       41.909       35.804       24.032     1756.387     1281.917      577.529        0.449        0.181       68.493       15.287        0.050      331.202       -0.934      868.365
01/30/2022  09:15:00       61.758        9.900      -17.181       43.576       62.281       39.077     1898.888     3878.892     1526.992        0.575        0.365       62.546       29.031        0.215      331.118       -1.074      868.369
01/30/2022  09:16:00       56.349       -9.383      -10.001       42.452       56.001       36.528     1802.201     3136.166     1334.269        0.482        0.314       57.124       24.918        0.190      331.103       -1.098      868.366
01/30/2022  09:17:00       61.764      -17.704      -32.643       35.784       48.029       31.760     1280.523     2306.758     1008.694        0.489        0.230       64.251       18.790        0.086      331.252       -0.852      868.363
01/30/2022  09:18:00       67.590       18.725      -38.893       45.788       64.254       37.015     2096.510     4128.567     1370.121        0.701        0.380       70.135       25.694        0.134      331.336       -0.714      868.358
01/30/2022  09:19:00       68.710      -32.825      -35.516       49.406       60.785       31.024     2440.943     3694.823      962.503        0.708        0.355       76.149       20.925        0.076      331.054       -1.177      868.354
01/30/2022  09:20:00       77.431      -31.568      -31.987       69.961       55.907       37.802     4894.498     3125.568     1429.006        0.873        0.472       83.618       33.533        0.161      331.188       -0.957      868.355
01/30/2022  09:21:00       86.995      -21.562      -39.707       45.608       69.046       33.332     2080.122     4767.353     1110.991        0.878        0.398       89.627       19.321        0.046      331.168       -0.990      868.361
01/30/2022  09:22:00       75.232      -18.554      -28.484       52.625       62.171       42.828     2769.436     3865.233     1834.199        0.764        0.423       77.486       19.408        0.063      331.402       -0.606      868.366
01/30/2022  09:23:00       74.574       24.269      -30.792       65.577       78.526       44.023     4300.351     6166.291     1937.990        0.975        0.620       78.423       31.268        0.159      331.369       -0.661      868.375
01/30/2022  09:24:00      118.265       63.618      -32.290       59.716       50.760       38.098     3566.015     2576.553     1451.460        1.333        0.380      134.290       29.612        0.049      331.039       -1.203      868.371
01/30/2022  09:25:00      148.051       42.801      -28.403       75.576       63.256       33.355     5711.674     4001.359     1112.531        1.769        0.541      154.114       15.656        0.010      331.146       -1.028      868.374
01/30/2022  09:26:00       82.850       15.071      -22.425       60.118       54.561       35.341     3614.229     2976.940     1248.979        0.772        0.392       84.210       18.216        0.047      331.281       -0.806      868.375
01/30/2022  09:27:00       53.233       -2.716       -7.584       64.278       56.041       40.954     4131.669     3140.607     1677.215        0.592        0.447       53.302       35.759        0.450      331.495       -0.451      868.370
01/30/2022  09:28:00       88.602      -88.135      -33.680       70.977       71.408       44.972     5037.791     5099.158     2022.465        1.445        0.608      124.972       38.051        0.093      331.928        0.259      868.359
01/30/2022  09:29:00       82.276     -139.058      -43.315       47.610       47.981       44.612     2266.685     2302.213     1990.228        1.727        0.328      161.575       36.170        0.050      331.215       -0.914      868.359
01/30/2022  09:30:00       82.670     -117.187      -45.932       52.764       49.263       27.083     2784.029     2426.841      733.496        1.431        0.297      143.413       15.771        0.012      331.519       -0.413      868.370
01/30/2022  09:31:00       63.473      -31.564      -32.650       49.720       55.827       40.897     2472.051     3116.647     1672.525        0.667        0.363       70.888       21.064        0.088      331.620       -0.247      868.397
01/30/2022  09:32:00       54.025     -130.746      -33.952       35.598       41.969       37.014     1267.193     1761.419     1370.031        1.278        0.220      141.468       24.421        0.030      331.152       -1.015      868.425
01/30/2022  09:33:00        5.685      -79.550      -29.723       36.181       38.649       29.541     1309.101     1493.719      872.665        0.546        0.184       79.753       20.399        0.065      331.185       -0.961      868.444
01/30/2022  09:34:00       29.097      -12.265      -30.237       25.443       36.751       34.357      647.357     1350.649     1180.396        0.254        0.159       31.576       15.793        0.250      331.588       -0.300      868.451
01/30/2022  09:35:00       23.905       -5.884       -9.378       33.058       36.271       27.162     1092.803     1315.618      737.765        0.192        0.157       24.619       20.927        0.723      331.691       -0.130      868.449
01/30/2022  09:36:00       97.405       24.378      -25.002       37.171       52.202       29.139     1381.682     2725.039      849.084        0.783        0.248      100.409       14.654        0.021      331.278       -0.810      868.454
01/30/2022  09:37:00       86.429       64.970      -21.267       26.015       34.037       23.772      676.755     1158.508      565.119        0.727        0.120      108.125       14.296        0.017      331.194       -0.949      868.444
01/30/2022  09:38:00       81.907       66.645      -18.943       22.427       24.548       14.614      502.975      602.608      213.571        0.641        0.066      105.595        8.663        0.007      331.231       -0.886      868.441
01/30/2022  09:39:00       34.218       50.211      -26.052       45.117       27.770       19.802     2035.539      771.153      392.121        0.378        0.160       60.762       21.812        0.129      331.358       -0.680      868.439
01/30/2022  09:40:00       25.076      -50.173      -14.414       46.180       36.661       31.644     2132.638     1344.029     1001.363        0.392        0.224       56.091       22.216        0.157      331.506       -0.434      868.435
01/30/2022  09:41:00       65.190      -51.766      -30.435       35.510       38.922       39.080     1260.985     1514.942     1527.281        0.608        0.215       83.244       21.918        0.069      331.582       -0.309      868.442
01/30/2022  09:42:00       76.462       28.090      -14.109       41.646       73.960       23.521     1734.425     5470.094      553.253        0.729        0.388       81.458       17.600        0.047      331.603       -0.275      868.452
01/30/2022  09:43:00       73.314       41.866      -18.460       41.854       51.436       32.306     1751.750     2645.690     1043.653        0.645        0.272       84.426       24.071        0.081      331.691       -0.130      868.457
01/30/2022  09:44:00       46.597      -55.099      -30.839       41.841       54.402       29.635     1750.689     2959.564      878.214        0.587        0.279       72.161       17.288        0.057      331.714       -0.093      868.457
01/30/2022  09:45:00       87.367      -57.552      -32.376       33.390       48.447       28.737     1114.900     2347.134      825.804        0.814        0.214      104.620       12.317        0.014      331.680       -0.149      868.454
01/30/2022  09:46:00       81.296       36.061      -14.979       42.588       39.857       35.804     1813.756     1588.550     1281.939        0.641        0.234       88.935       14.322        0.026      331.474       -0.486      868.451
01/30/2022  09:47:00       47.077       37.547      -11.545       33.777       50.154       22.824     1140.869     2515.437      520.948        0.397        0.209       60.217       16.700        0.077      331.566       -0.336      868.442
01/30/2022  09:48:00       98.293       65.486      -18.283       37.093       31.516       19.899     1375.882      993.272      395.977        0.852        0.138      118.110       11.626        0.010      331.565       -0.338      868.437
01/30/2022  09:49:00       58.435       25.782      -26.228       44.765       52.756       31.150     2003.917     2783.148      970.325        0.526        0.288       63.869       17.436        0.075      331.740       -0.049      868.430
01/30/2022  09:50:00       64.350      -45.623      -33.634       49.695       50.052       40.870     2469.591     2505.183     1670.373        0.700        0.332       78.882       26.081        0.109      332.068        0.490      868.428
01/30/2022  09:51:00       30.491       24.537      -21.059       35.323       54.338       35.304     1247.699     2952.578     1246.380        0.371        0.272       39.138       19.727        0.254      332.065        0.485      868.436
01/30/2022  09:52:00       50.850      -55.012      -29.790       37.110       61.375       27.587     1377.118     3766.914      761.040        0.620        0.295       74.914       13.838        0.034      331.955        0.305      868.442
01/30/2022  09:53:00       60.972      -19.104      -37.424       56.966       79.527       52.360     3245.087     6324.500     2741.573        0.889        0.616       63.894       34.404        0.290      332.155        0.634      868.436
01/30/2022  09:54:00       68.128       -9.211      -31.322       59.207       76.409       38.706     3505.468     5838.405     1498.133        0.827        0.542       68.748       21.277        0.096      332.153        0.631      868.439
01/30/2022  09:55:00       67.238       19.835      -31.552       62.083       68.577       35.545     3854.352     4702.839     1263.439        0.786        0.491       70.103       28.185        0.162      332.052        0.464      868.437
01/30/2022  09:56:00      108.568       12.373      -18.495       40.702       46.624       23.283     1656.661     2173.841      542.104        0.833        0.219      109.271       19.001        0.030      331.721       -0.080      868.426
01/30/2022  09:57:00       83.515      -10.190      -28.651       79.338       36.878       23.565     6294.573     1360.006      555.318        0.805        0.410       84.135       11.574        0.019      332.111        0.562      868.415
01/30/2022  09:58:00       64.136      -42.421      -19.130       63.521       57.729       34.623     4034.872     3332.626     1198.764        0.742        0.428       76.895       27.653        0.129      332.430        1.088      868.406
01/30/2022  09:59:00       44.920      -34.568      -15.007       43.047       36.012       37.940     1853.024     1296.886     1439.471        0.401        0.229       56.682       22.084        0.152      332.399        1.038      868.403
01/30/2022  10:00:00       65.099        6.902      -29.001       46.200       52.301       33.302     2134.422     2735.365     1109.041        0.555        0.299       65.464       21.241        0.105      332.117        0.570      868.399
01/30/2022  10:01:00       82.828      -18.392      -33.415       42.656       48.239       37.995     1819.526     2326.959     1443.598        0.695        0.280       84.846       24.377        0.083      332.141        0.610      868.405
01/30/2022  10:02:00       70.709       23.885      -31.886       46.311       58.908       29.729     2144.670     3470.108      883.800        0.654        0.325       74.634       18.799        0.063      331.981        0.346      868.405
01/30/2022  10:03:00       14.959       29.794       -7.278       40.139       74.716       43.305     1611.147     5582.496     1875.307        0.512        0.453       33.338       20.649        0.384      332.246        0.784      868.390
01/30/2022  10:04:00        5.116      -84.625      -11.717       54.269       78.778       39.613     2945.120     6206.034     1569.207        0.902        0.536       84.780       23.473        0.077      332.448        1.117      868.373
01/30/2022  10:05:00        4.874      -55.287      -26.074       54.374       59.963       38.263     2956.554     3595.551     1464.089        0.589        0.401       55.501       15.558        0.079      332.599        1.366      868.354
01/30/2022  10:06:00      -21.082        3.320      -20.327       58.037       42.624       24.044     3368.242     1816.808      578.095        0.331        0.288       21.342       17.059        0.639      332.350        0.956      868.343
01/30/2022  10:07:00      125.805      -21.646       -8.933       54.843       61.300       39.964     3007.727     3757.652     1597.149        1.237        0.418      127.654       14.297        0.013      332.181        0.676      868.353
01/30/2022  10:08:00      118.460       13.631      -19.486       36.912       54.677       20.623     1362.512     2989.622      425.313        0.969        0.239      119.242        9.396        0.006      331.900        0.213      868.369
01/30/2022  10:09:00       94.741       40.418      -18.779       28.757       55.721       22.492      826.946     3104.793      505.901        0.770        0.222      103.002       20.246        0.039      331.972        0.333      868.375
01/30/2022  10:10:00       88.112      -82.360      -30.328       31.853       57.202       26.365     1014.637     3272.075      695.088        1.022        0.249      120.611       17.860        0.022      331.924        0.253      868.373
01/30/2022  10:11:00       92.696      -75.975      -39.648       31.231       42.489       25.243      975.382     1805.301      637.229        0.968        0.171      119.853       14.549        0.015      332.015        0.404      868.364
01/30/2022  10:12:00      103.891     -129.688      -59.198       35.211       49.492       29.402     1239.810     2449.436      864.482        1.783        0.228      166.169       20.504        0.015      332.103        0.548      868.348
01/30/2022  10:13:00       81.972     -111.945      -36.824       41.169       45.750       32.975     1694.856     2093.055     1087.333        1.274        0.244      138.749       19.229        0.019      331.995        0.371      868.348
01/30/2022  10:14:00       63.712      -66.195      -32.445       39.832       41.042       29.841     1586.570     1684.440      890.463        0.683        0.208       91.874       27.646        0.091      332.291        0.858      868.344
01/30/2022  10:15:00       62.833      -99.817      -37.730       52.711       70.107       39.919     2778.494     4914.940     1593.526        1.231        0.464      117.947       40.389        0.117      332.375        0.997      868.345
01/30/2022  10:16:00       32.671      -80.416      -19.131       45.331       57.227       36.203     2054.857     3274.947     1310.676        0.727        0.332       86.799       30.874        0.127      332.501        1.205      868.352
01/30/2022  10:17:00      -33.451      -32.478      -27.463       40.996       48.113       28.814     1680.687     2314.826      830.223        0.388        0.241       46.624       23.823        0.261      332.450        1.120      868.360
01/30/2022  10:18:00       71.933      -54.025      -41.288       47.624       62.231       36.902     2268.012     3872.653     1361.753        0.865        0.375       89.961       24.161        0.072      332.492        1.190      868.374
01/30/2022  10:19:00       23.455      -32.998      -18.262       75.152       39.813       44.009     5647.836     1585.078     1936.778        0.557        0.458       40.485       43.033        1.130      332.282        0.845      868.392
01/30/2022  10:20:00       25.086      -81.060      -24.345       39.707       45.762       34.495     1576.657     2094.196     1189.888        0.633        0.243       84.853       33.539        0.156      332.436        1.098      868.390
01/30/2022  10:21:00       75.187       47.758      -12.873       50.860       50.755       34.458     2586.699     2576.101     1187.352        0.722        0.318       89.073       16.125        0.033      332.781        1.667      868.391
01/30/2022  10:22:00       36.062       -0.199       -6.631       66.348       84.576       36.869     4402.087     7153.078     1359.291        0.713        0.646       36.063       20.974        0.338      332.696        1.526      868.391
01/30/2022  10:23:00       42.446     -108.033      -30.985       31.687       48.179       20.869     1004.077     2321.177      435.517        0.910        0.188      116.072       21.812        0.035      332.225        0.748      868.382
01/30/2022  10:24:00       72.513      -97.320      -40.702       35.112       50.429       25.852     1232.884     2543.096      668.317        1.041        0.222      121.364       18.336        0.023      332.608        1.382      868.386
01/30/2022  10:25:00       43.270      -54.752      -35.608       23.032       69.218       25.249      530.485     4791.106      637.516        0.605        0.298       69.786       25.549        0.134      332.007        0.391      868.397
01/30/2022  10:26:00       26.926       35.889      -10.669       32.935       22.198       19.746     1084.715      492.753      389.911        0.205        0.098       44.867       12.593        0.079      332.341        0.940      868.404
01/30/2022  10:27:00       18.529       -4.483      -35.720       61.197       45.574       27.663     3745.132     2076.985      765.268        0.411        0.329       19.064       20.403        1.145      332.700        1.533      868.399
01/30/2022  10:28:00      100.887       44.619      -32.053       25.397       41.675       25.044      645.018     1736.841      627.180        0.810        0.150      110.313       21.414        0.038      332.216        0.734      868.400
01/30/2022  10:29:00       52.755       44.376      -17.666       34.092       24.740       24.260     1162.264      612.084      588.546        0.371        0.118       68.937       22.549        0.107      332.408        1.051      868.396
01/30/2022  10:30:00        2.198      -18.898        1.241       32.802       45.738       23.176     1075.978     2091.984      537.116        0.203        0.185       19.025       18.313        0.927      332.970        1.979      868.367
01/30/2022  10:31:00      -39.935       -4.612      -12.144       28.048       24.593       26.732      786.665      604.817      714.613        0.193        0.105       40.201        8.552        0.045      332.880        1.831      868.327
01/30/2022  10:32:00      -21.640       -3.841      -14.396       27.020       41.121       22.069      730.099     1690.965      487.023        0.180        0.145       21.978       19.473        0.785      332.813        1.721      868.296
01/30/2022  10:33:00       62.614      -48.767      -27.375       44.308       73.487       36.921     1963.177     5400.391     1363.180        0.789        0.436       79.364       27.550        0.121      333.083        2.168      868.252
01/30/2022  10:34:00      136.909       20.122      -17.619       64.891       69.050       37.313     4210.806     4767.851     1392.243        1.491        0.519      138.380       31.254        0.051      332.704        1.540      868.231
01/30/2022  10:35:00        2.020      -20.535        1.933       54.317       53.013       34.542     2950.374     2810.338     1193.116        0.369        0.348       20.635       24.038        1.357      333.139        2.260      868.209
01/30/2022  10:36:00       77.910     -105.016      -47.216       51.801       73.835       44.593     2683.385     5451.636     1988.492        1.472        0.506      130.761       23.157        0.031      333.316        2.551      868.187
01/30/2022  10:37:00      107.145      -88.677      -36.378       56.039       49.613       44.977     3140.388     2461.467     2022.908        1.414        0.381      139.081       31.421        0.051      332.489        1.185      868.192
01/30/2022  10:38:00       68.041      -63.772      -27.025       47.612       47.853       21.440     2266.861     2289.865      459.672        0.722        0.251       93.255       23.566        0.064      332.377        0.999      868.191
01/30/2022  10:39:00       88.483     -110.579      -36.990       28.429       34.175       27.266      808.186     1167.931      743.461        1.207        0.136      141.623       18.769        0.018      332.593        1.357      868.201
01/30/2022  10:40:00      106.454      -94.901      -44.407       59.796       83.869       35.356     3575.506     7034.050     1250.054        1.708        0.593      142.614       13.395        0.009      332.805        1.707      868.229
01/30/2022  10:41:00        2.042      -50.800      -13.326       57.405       60.122       31.136     3295.333     3614.619      969.430        0.532        0.394       50.841       24.558        0.233      333.084        2.169      868.255
01/30/2022  10:42:00       33.176      -70.380      -25.582       52.805       43.550       34.175     2788.330     1896.566     1167.943        0.628        0.293       77.807       32.858        0.178      332.834        1.754      868.274
01/30/2022  10:43:00       28.771       -7.914       -5.492       54.129       37.408       33.093     2929.932     1399.352     1095.144        0.317        0.271       29.839       19.684        0.435      333.069        2.144      868.275
01/30/2022  10:44:00       75.833       13.472      -25.558       43.957       23.108       17.763     1932.228      533.978      315.530        0.468        0.139       77.020       10.711        0.019      332.397        1.032      868.267
01/30/2022  10:45:00       44.710       46.971      -21.922       22.002       27.900       18.509      484.076      778.433      342.599        0.315        0.080       64.848       12.633        0.038      332.632        1.421      868.259
01/30/2022  10:46:00       18.314       29.340       -9.635       45.918       24.701       14.731     2108.498      610.131      216.988        0.211        0.147       34.587       15.827        0.209      332.878        1.827      868.242
01/30/2022  10:47:00      -15.158       -8.563       -1.022       47.723       41.585       35.123     2277.511     1729.305     1233.625        0.277        0.262       17.410       18.192        1.092      333.154        2.284      868.220
01/30/2022  10:48:00       36.916      -40.468      -26.347       44.642       59.575       32.706     1992.923     3549.220     1069.653        0.515        0.331       54.776       21.941        0.160      333.026        2.074      868.204
01/30/2022  10:49:00      109.350       25.308      -22.757       55.443       56.770       34.042     3073.887     3222.835     1158.883        1.028        0.373      112.241       21.776        0.038      332.897        1.859      868.186
01/30/2022  10:50:00       25.475       25.618      -14.472       43.237       63.598       30.335     1869.437     4044.703      920.237        0.417        0.342       36.128       20.485        0.321      333.220        2.392      868.170
01/30/2022  10:51:00       35.753      -36.581      -25.586       63.409       62.494       31.429     4020.691     3905.448      987.795        0.609        0.446       51.151       21.359        0.174      333.450        2.774      868.155
01/30/2022  10:52:00       63.418       21.052      -12.588       42.476       47.123       23.879     1804.199     2220.555      570.225        0.461        0.230       66.821       19.476        0.085      333.173        2.316      868.144
01/30/2022  10:53:00       48.296      -47.128      -30.618       30.934       74.051       27.829      956.931     5483.570      774.465        0.635        0.361       67.480       34.769        0.265      333.364        2.630      868.115
01/30/2022  10:54:00       99.894      -77.553      -51.492       49.650       51.574       35.643     2465.150     2659.926     1270.406        1.252        0.320      126.465       18.767        0.022      333.204        2.366      868.091
01/30/2022  10:55:00       49.206      -32.809      -24.672       62.835       32.269       33.637     3948.239     1041.314     1131.442        0.511        0.306       59.141       32.917        0.310      333.312        2.546      868.063
01/30/2022  10:56:00       32.460      -21.455      -30.599       42.570       51.605       31.992     1812.228     2663.087     1023.475        0.397        0.275       38.909       17.725        0.208      333.468        2.803      868.055
01/30/2022  10:57:00       37.484        4.016      -20.930       41.978       55.365       31.526     1762.153     3065.238      993.888        0.384        0.291       37.699       32.895        0.761      333.384        2.665      868.039
01/30/2022  10:58:00       56.631       48.314      -16.304       52.009       50.370       31.282     2704.983     2537.139      978.552        0.601        0.311       74.440       22.512        0.091      333.545        2.932      868.023
01/30/2022  10:59:00      102.298       60.359      -24.284       33.297       44.942       23.056     1108.674     2019.787      531.565        0.918        0.183      118.778       13.831        0.014      333.154        2.285      868.011
01/30/2022  11:00:00       89.880       17.938      -18.273       56.344       61.106       30.646     3174.639     3733.910      939.163        0.829        0.392       91.653       21.404        0.055      333.544        2.929      867.982
01/30/2022  11:01:00      125.536       27.078      -22.316       61.254       55.183       28.057     3752.094     3045.153      787.216        1.229        0.379      128.423       27.132        0.045      333.281        2.494      867.957
01/30/2022  11:02:00      103.291       -1.158      -30.685       89.838       67.232       29.349     8070.792     4520.189      861.364        1.253        0.673      103.298       20.324        0.039      333.292        2.512      867.930
01/30/2022  11:03:00      100.862      -99.172      -37.868       37.160       58.248       24.059     1380.868     3392.842      578.828        1.340        0.268      141.451       21.401        0.023      333.324        2.566      867.908
01/30/2022  11:04:00       23.979      -67.401      -22.414       30.586       57.664       27.301      935.487     3325.150      745.334        0.531        0.250       71.539       15.866        0.049      333.462        2.794      867.891
01/30/2022  11:05:00       18.576        3.127      -18.755       22.020       30.164       21.682      484.883      909.876      470.124        0.129        0.093       18.837        6.481        0.118      333.688        3.166      867.872
01/30/2022  11:06:00       52.153      -17.668      -21.513       52.225       63.592       49.592     2727.463     4043.973     2459.415        0.636        0.462       55.064       27.189        0.244      334.005        3.693      867.835
01/30/2022  11:07:00      120.703      -74.824      -45.009       46.245       49.515       36.857     2138.559     2451.695     1358.474        1.407        0.297      142.014       16.517        0.014      333.582        2.991      867.819
01/30/2022  11:08:00      104.877       73.957      -20.843       45.306       51.390       29.465     2052.655     2640.974      868.190        1.123        0.278      128.331       18.556        0.021      333.395        2.682      867.792
01/30/2022  11:09:00       39.937        0.504      -19.065       35.422       64.675       35.896     1254.745     4182.889     1288.507        0.434        0.336       39.940       26.611        0.444      333.947        3.597      867.755
01/30/2022  11:10:00       70.465       20.980      -19.274       46.383       55.998       33.317     2151.417     3135.807     1110.026        0.609        0.320       73.522       21.780        0.088      333.785        3.329      867.744
01/30/2022  11:11:00       51.326       63.202        8.332       42.346       57.338       28.675     1793.185     3287.590      822.247        0.630        0.295       81.418       20.638        0.064      333.652        3.108      867.736
01/30/2022  11:12:00       96.615       -2.121      -21.821       54.649       52.709       23.516     2986.474     2778.209      553.001        0.807        0.316       96.638       22.619        0.055      333.546        2.932      867.722
01/30/2022  11:13:00       33.983       32.318      -22.741       32.655       48.954       25.097     1066.345     2396.481      629.846        0.340        0.205       46.897       17.000        0.131      333.567        2.967      867.724
01/30/2022  11:14:00      -31.267      -15.207        9.347       28.667       39.425       24.092      821.784     1554.347      580.444        0.213        0.148       34.769       22.476        0.418      333.977        3.647      867.709
01/30/2022  11:15:00      -21.306        6.495      -12.665       29.645       38.556       25.167      878.812     1486.562      633.356        0.183        0.150       22.274        8.209        0.136      334.063        3.788      867.694
01/30/2022  11:16:00       80.325       55.334       -4.306       58.356       36.155       29.679     3405.481     1307.209      880.815        0.756        0.280       97.540       26.024        0.071      333.893        3.507      867.677
01/30/2022  11:17:00       85.139       79.283      -12.354       29.194       26.193       23.513      852.288      686.059      552.866        0.789        0.105      116.338       17.186        0.022      333.464        2.796      867.664
01/30/2022  11:18:00       20.223      -20.693      -23.785       46.236       68.608       30.914     2137.732     4707.014      955.700        0.460        0.390       28.934       25.658        0.786      333.900        3.518      867.640
01/30/2022  11:19:00       15.812      -77.546      -30.057       44.193       45.495       32.506     1953.049     2069.826     1056.627        0.612        0.254       79.142       26.071        0.109      333.808        3.366      867.644
01/30/2022  11:20:00       13.155      -19.087      -17.754       36.670       47.797       26.882     1344.678     2284.516      722.624        0.260        0.218       23.181       22.992        0.984      333.787        3.332      867.650
01/30/2022  11:21:00       46.657       23.916       -8.139       37.264       40.803       22.919     1388.579     1664.876      525.276        0.320        0.179       52.429       19.334        0.136      333.897        3.514      867.637
01/30/2022  11:22:00       -0.474       35.771        5.068       27.272       28.432       20.291      743.763      808.394      411.709        0.163        0.098       35.774       12.296        0.118      334.253        4.104      867.619
01/30/2022  11:23:00      -11.966      -50.973      -17.252       57.522       49.310       33.523     3308.725     2431.465     1123.803        0.495        0.343       52.358       26.280        0.252      334.047        3.762      867.605
01/30/2022  11:24:00       89.163       25.971      -33.633       28.736       34.136       20.898      825.775     1165.277      436.717        0.609        0.121       92.868       13.144        0.020      333.704        3.194      867.636
01/30/2022  11:25:00       67.951       23.322      -11.592       39.160       46.720       19.648     1533.493     2182.716      386.038        0.470        0.205       71.842       10.625        0.022      333.786        3.329      867.667
01/30/2022  11:26:00       27.001       51.820      -14.698       42.398       36.195       26.008     1797.596     1310.083      676.399        0.371        0.189       58.432       27.857        0.227      333.878        3.484      867.655
01/30/2022  11:27:00      -17.719       18.745      -14.023       31.949       28.006       25.554     1020.735      784.321      653.019        0.166        0.123       25.794       10.654        0.171      334.398        4.343      867.640
01/30/2022  11:28:00      -40.338      -12.165      -25.700       36.172       28.252       20.852     1308.428      798.169      434.795        0.249        0.127       42.133       12.796        0.092      334.275        4.139      867.625
01/30/2022  11:29:00       15.552      -41.205      -18.669       49.947       67.129       38.745     2494.671     4506.292     1501.182        0.539        0.425       44.042       37.452        0.723      334.320        4.214      867.603
01/30/2022  11:30:00       29.197      -72.944      -30.099       47.649       82.210       38.845     2270.395     6758.529     1508.901        0.881        0.527       78.570       19.466        0.061      334.276        4.141      867.584
01/30/2022  11:31:00      -37.337      -48.390      -17.359       55.130       72.544       39.028     3039.304     5262.640     1523.164        0.693        0.491       61.119       32.527        0.283      334.266        4.125      867.566
01/30/2022  11:32:00       49.458     -133.552      -29.990       51.396       54.424       37.323     2641.546     2961.983     1393.033        1.409        0.350      142.416       29.549        0.043      334.153        3.938      867.553
01/30/2022  11:33:00       60.854     -120.298      -35.779       38.760       56.139       33.104     1502.354     3151.568     1095.881        1.260        0.287      134.814       21.770        0.026      333.714        3.211      867.547
01/30/2022  11:34:00       71.685      -85.410      -28.241       27.543       30.062       22.833      758.597      903.697      521.336        0.771        0.109      111.506       19.665        0.031      333.847        3.431      867.535
01/30/2022  11:35:00       42.525      -26.300      -27.621       37.836       39.932       34.452     1431.553     1594.591     1186.941        0.374        0.211       50.001       23.070        0.213      334.355        4.273      867.510
01/30/2022  11:36:00       18.214      -23.982      -12.547       52.468       42.546       29.341     2752.905     1810.204      860.869        0.324        0.271       30.115       26.604        0.780      334.552        4.601      867.471
01/30/2022  11:37:00       85.402      -57.455      -28.415       27.464       30.772       26.525      754.291      946.921      703.564        0.690        0.120      102.930       20.050        0.038      334.003        3.689      867.430
01/30/2022  11:38:00       53.123      -38.393      -13.171       54.686       62.979       26.980     2990.589     3966.353      727.943        0.608        0.384       65.545       19.486        0.088      334.213        4.037      867.407
01/30/2022  11:39:00       36.553       15.318      -16.442       32.717       41.044       31.327     1070.429     1684.588      981.383        0.279        0.187       39.633       17.607        0.197      334.266        4.124      867.382
01/30/2022  11:40:00       79.940      -31.989      -48.085       59.599       67.733       38.208     3552.054     4587.769     1459.851        0.966        0.480       86.103       27.007        0.098      334.694        4.834      867.358
01/30/2022  11:41:00       49.614      -18.164      -30.261       41.949       84.437       34.176     1759.723     7129.568     1168.008        0.688        0.503       52.834       17.866        0.114      334.241        4.084      867.356
01/30/2022  11:42:00        0.332      -29.082       -6.968       29.015       20.307       28.010      841.868      412.381      784.540        0.147        0.102       29.084       10.532        0.131      334.139        3.914      867.335
01/30/2022  11:43:00       51.101      -86.049      -22.351       38.027       48.836       28.864     1446.041     2384.928      833.112        0.759        0.233      100.079       27.721        0.077      334.361        4.283      867.305
01/30/2022  11:44:00       60.043     -117.654      -33.363       46.591       41.739       31.339     2170.760     1742.148      982.150        1.173        0.245      132.089       28.997        0.048      334.076        3.812      867.282
01/30/2022  11:45:00      107.319     -117.668      -38.988       28.245       44.047       18.336      797.778     1940.168      336.192        1.498        0.154      159.258       12.228        0.006      334.001        3.686      867.258
01/30/2022  11:46:00       53.052      -44.546      -17.614       38.743       38.712       26.822     1501.056     1498.601      719.431        0.441        0.186       69.274       28.683        0.171      334.366        4.290      867.229
01/30/2022  11:47:00       64.130       13.245      -23.721       47.904       50.074       24.577     2294.784     2507.389      604.025        0.513        0.270       65.484       21.653        0.109      334.512        4.535      867.206
01/30/2022  11:48:00       98.929       56.904      -25.995       40.252       42.440       24.201     1620.251     1801.129      585.706        0.885        0.200      114.127       10.102        0.008      334.429        4.395      867.190
01/30/2022  11:49:00       69.996       47.479      -16.146       51.045       42.883       31.647     2605.551     1838.960     1001.563        0.643        0.272       84.579       18.763        0.049      334.937        5.239      867.168
01/30/2022  11:50:00      127.408      -12.020      -23.697       76.666       55.434       43.473     5877.608     3072.920     1889.907        1.389        0.542      127.974       36.019        0.079      334.534        4.570      867.129
01/30/2022  11:51:00      102.099      -10.075      -36.177       57.746       55.415       41.712     3334.636     3070.847     1739.857        0.999        0.407      102.595       27.335        0.071      334.531        4.563      867.096
01/30/2022  11:52:00       78.853        5.736      -23.906       62.857       59.697       35.632     3951.002     3563.696     1269.650        0.780        0.439       79.062       31.596        0.160      334.570        4.630      867.062
01/30/2022  11:53:00      150.697       86.550       -6.688       52.289       64.708       33.131     2734.154     4187.146     1097.692        1.913        0.401      173.783       23.837        0.019      334.490        4.494      867.041
01/30/2022  11:54:00      -17.332       -0.576       11.960       50.966       28.945       36.671     2597.560      837.831     1344.785        0.261        0.239       17.341       35.561        4.205      334.587        4.657      867.022
01/30/2022  11:55:00       80.443      -24.721      -15.836       59.332       64.456       36.331     3520.279     4154.633     1319.942        0.816        0.450       84.156       16.817        0.040      334.711        4.865      867.011
01/30/2022  11:56:00       92.593      -81.919      -34.661       42.220       59.048       24.573     1782.533     3486.721      603.836        1.118        0.294      123.629       22.261        0.032      334.338        4.245      867.004
01/30/2022  11:57:00       69.203      -45.939      -25.558       47.592       77.711       41.316     2264.966     6038.993     1707.035        0.878        0.501       83.063       31.617        0.145      334.705        4.855      866.978
01/30/2022  11:58:00       46.823     -125.630      -46.226       62.116       53.421       40.233     3858.345     2853.788     1618.660        1.422        0.417      134.072       28.874        0.046      334.548        4.593      866.976
01/30/2022  11:59:00      -41.436        7.328      -32.072       32.837       41.805       24.682     1078.266     1747.652      609.216        0.312        0.172       42.079       10.473        0.062      334.330        4.231      866.979
01/30/2022  12:00:00      -24.795       16.921      -26.227       31.010       30.729       21.736      961.618      944.282      472.466        0.198        0.119       30.018       17.577        0.343      334.437        4.408      866.981
01/30/2022  12:01:00       44.011     -107.509      -12.385       43.114       78.192       42.370     1858.808     6114.049     1795.259        1.171        0.488      116.169       19.189        0.027      334.816        5.038      866.975
01/30/2022  12:02:00      119.257       -5.729      -43.711       49.577       54.621       41.483     2457.835     2983.462     1720.809        1.166        0.358      119.394       17.117        0.021      334.632        4.733      866.970
01/30/2022  12:03:00       49.645       58.495      -19.173       40.862       30.733       28.176     1669.731      944.488      793.860        0.483        0.170       76.722       16.302        0.045      334.491        4.500      866.964
01/30/2022  12:04:00        3.296       36.695      -10.270       34.203       29.891       25.232     1169.852      893.470      636.656        0.208        0.135       36.843       20.733        0.317      334.619        4.710      866.939
01/30/2022  12:05:00      117.495       68.463      -20.401       90.714       39.797       29.973     8228.946     1583.793      898.352        1.481        0.536      135.986       33.728        0.062      334.450        4.430      866.925
01/30/2022  12:06:00      -43.681       19.248       -3.414       49.576       58.602       38.346     2457.800     3434.175     1470.382        0.482        0.368       47.733       18.918        0.157      334.796        5.006      866.918
01/30/2022  12:07:00       47.578     -133.492      -23.936       34.753       39.464       40.809     1207.796     1557.368     1665.401        1.254        0.222      141.717       30.640        0.047      334.575        4.637      866.907
01/30/2022  12:08:00       28.862      -95.026      -32.232       21.301       22.770       23.183      453.744      518.478      537.465        0.621        0.075       99.312        6.101        0.004      334.366        4.291      866.886
01/30/2022  12:09:00       37.256     -112.608      -15.223       39.530       42.720       32.435     1562.617     1824.997     1052.054        0.937        0.222      118.611       23.749        0.040      334.702        4.848      866.861
01/30/2022  12:10:00       65.515      -93.911      -38.078       37.194       42.938       29.785     1383.369     1843.658      887.170        0.934        0.206      114.505       14.305        0.016      334.726        4.889      866.837
01/30/2022  12:11:00       22.626      -46.120      -16.511       55.271       28.042       24.197     3054.837      786.327      585.512        0.367        0.221       51.371       25.110        0.239      334.976        5.305      866.825
01/30/2022  12:12:00       28.722       -5.702      -18.604       83.819       65.631       45.264     7025.554     4307.374     2048.849        0.729        0.669       29.282       30.703        1.099      335.299        5.841      866.807
01/30/2022  12:13:00      161.065       45.596      -42.161       48.994       64.302       29.996     2400.444     4134.787      899.785        1.862        0.372      167.394       17.998        0.012      334.847        5.090      866.816
01/30/2022  12:14:00      101.531       27.408      -22.323       33.049       18.866       15.574     1092.204      355.907      242.537        0.662        0.085      105.165        9.886        0.009      334.471        4.467      866.823
01/30/2022  12:15:00       46.113       42.400      -15.088       22.602       17.854       14.788      510.858      318.766      218.687        0.260        0.052       62.643       10.374        0.027      334.714        4.870      866.804
01/30/2022  12:16:00       71.417       43.632      -24.460       37.588       22.823       30.641     1412.887      520.909      938.876        0.524        0.144       83.691       13.573        0.026      334.737        4.906      866.776
01/30/2022  12:17:00        3.874       25.075      -15.388       11.687       28.896       17.271      136.590      834.983      298.279        0.107        0.063       25.373        6.275        0.061      334.850        5.095      866.743
01/30/2022  12:18:00       58.390       41.202       -9.764       43.212       33.036       18.237     1867.273     1091.363      332.593        0.425        0.165       71.463       15.363        0.046      335.122        5.547      866.715
01/30/2022  12:19:00      126.815       33.907      -15.546       61.751       52.795       32.702     3813.200     2787.273     1069.437        1.257        0.383      131.270       32.813        0.062      335.204        5.682      866.694
01/30/2022  12:20:00      137.761       22.337      -19.196       78.284       48.464       40.885     6128.337     2348.759     1671.551        1.500        0.507      139.560       13.411        0.009      335.243        5.746      866.677
01/30/2022  12:21:00      134.596       84.014      -28.694       46.486       26.858       25.243     2160.944      721.360      637.190        1.476        0.176      158.664        7.860        0.002      334.765        4.952      866.693
01/30/2022  12:22:00       44.571       62.893       -8.959       23.307       20.493       21.981      543.239      419.971      483.170        0.373        0.072       77.086       13.091        0.029      334.855        5.102      866.697
01/30/2022  12:23:00      -14.409      -10.967      -11.438       24.090       29.001       22.711      580.344      841.060      515.799        0.120        0.097       18.108       15.107        0.696      335.441        6.076      866.695
01/30/2022  12:24:00       26.547      -20.601      -22.416       30.587       45.781       16.307      935.557     2095.919      265.921        0.246        0.165       33.602       10.727        0.102      335.518        6.205      866.691
01/30/2022  12:25:00       26.824      -72.560      -17.194       35.286       24.370       26.696     1245.102      593.910      712.655        0.442        0.128       77.360       18.208        0.055      335.354        5.932      866.685
01/30/2022  12:26:00      -20.371      -20.080      -18.163       32.937       25.273       24.994     1084.826      638.742      624.700        0.175        0.117       28.604       14.432        0.255      335.762        6.611      866.673
01/30/2022  12:27:00      -18.190       13.548       -3.109       30.906       33.795       23.790      955.198     1142.123      565.977        0.159        0.133       22.681       18.485        0.664      335.801        6.676      866.678
01/30/2022  12:28:00       65.698       36.104      -14.889       42.921       31.101       20.951     1842.252      967.282      438.939        0.454        0.162       74.965        4.122        0.003      335.425        6.051      866.676
01/30/2022  12:29:00       68.425      -36.760       -6.183       59.698       48.439       37.652     3563.882     2346.361     1417.679        0.670        0.366       77.674       15.838        0.042      335.753        6.597      866.671
01/30/2022  12:30:00       42.915      -13.145       16.641       51.404       62.055       48.312     2642.417     3850.883     2334.092        0.556        0.441       44.883       31.364        0.488      335.876        6.803      866.672
01/30/2022  12:31:00       83.954      -16.264      -31.072       49.982       56.793       35.885     2498.237     3225.435     1287.768        0.764        0.351       85.515       18.175        0.045      335.583        6.314      866.658
01/30/2022  12:32:00       60.791      -57.484      -41.389       51.884       52.623       34.614     2691.991     2769.227     1198.120        0.768        0.333       83.666       16.094        0.037      335.418        6.039      866.639
01/30/2022  12:33:00       77.830      -95.362      -26.881       42.162       29.643       25.702     1777.663      878.700      660.575        0.959        0.166      123.091       15.852        0.017      335.169        5.624      866.614
01/30/2022  12:34:00       35.665      -24.902      -22.723       29.068       66.967       22.085      844.978     4484.622      487.747        0.411        0.291       43.498       19.743        0.206      335.455        6.101      866.593
01/30/2022  12:35:00      114.291       33.666      -22.231       71.759       88.200       42.792     5149.288     7779.247     1831.168        1.472        0.738      119.146       36.560        0.094      335.751        6.593      866.565
01/30/2022  12:36:00      106.410       65.231      -33.615       51.209       36.620       26.824     2622.333     1341.024      719.544        1.069        0.234      124.813       16.895        0.018      335.463        6.112      866.535
01/30/2022  12:37:00       45.332       -1.614       -8.535       40.522       69.359       35.145     1642.051     4810.670     1235.167        0.491        0.384       45.361       25.538        0.317      335.717        6.536      866.493
01/30/2022  12:38:00       84.599       17.168      -42.803       69.042       68.043       46.030     4766.809     4629.796     2118.741        1.040        0.576       86.323       15.264        0.031      335.663        6.446      866.435
01/30/2022  12:39:00       77.090       -9.290      -31.310       49.168       41.374       36.883     2417.524     1711.806     1360.323        0.625        0.274       77.647       27.453        0.125      335.702        6.512      866.396
01/30/2022  12:40:00       93.271      -28.462      -36.690       73.590       62.271       56.746     5415.498     3877.723     3220.102        1.168        0.626       97.517       37.564        0.148      335.744        6.582      866.361
01/30/2022  12:41:00      140.724        0.653      -26.263       75.468       75.487       40.703     5695.395     5698.260     1656.722        1.677        0.653      140.725       34.869        0.061      335.453        6.097      866.347
01/30/2022  12:42:00       51.268        8.852      -19.222       37.599       32.433       25.541     1413.695     1051.892      652.344        0.310        0.156       52.026        8.586        0.027      335.447        6.086      866.348
01/30/2022  12:43:00       22.389      -41.496       -3.398       61.997       74.823       40.921     3843.622     5598.467     1674.510        0.667        0.556       47.151       38.545        0.668      335.960        6.943      866.322
01/30/2022  12:44:00      104.417      -26.042      -34.224       78.584       73.846       46.606     6175.394     5453.164     2172.108        1.327        0.690      107.616       25.376        0.056      335.724        6.548      866.301
01/30/2022  12:45:00       99.981       10.166      -36.301       72.044       54.588       30.192     5190.322     2979.812      911.562        1.025        0.454      100.497       16.656        0.027      335.705        6.516      866.296
01/30/2022  12:46:00       76.477       13.332      -41.941       73.553       74.817       50.893     5410.094     5597.560     2590.094        1.069        0.680       77.630       34.175        0.194      336.100        7.175      866.277
01/30/2022  12:47:00       86.614      -88.115      -26.939       37.983       60.824       27.375     1442.712     3699.513      749.418        1.094        0.295      123.557       29.122        0.056      335.517        6.204      866.252
01/30/2022  12:48:00      116.311      -67.614      -23.811       70.383       72.793       38.447     4953.831     5298.753     1478.196        1.520        0.587      134.536       30.450        0.051      335.550        6.257      866.206
01/30/2022  12:49:00      100.538     -111.082      -22.037       96.360       86.929       49.986     9285.287     7556.651     2498.634        2.113        0.967      149.824       43.341        0.084      335.755        6.598      866.169
01/30/2022  12:50:00      107.595      -23.802      -33.493       94.419       78.844       52.675     8914.958     6216.316     2774.668        1.558        0.895      110.197       27.415        0.062      335.911        6.859      866.133
01/30/2022  12:51:00      123.169      -27.513      -38.065       80.341       67.563       44.344     6454.727     4564.755     1966.406        1.518        0.649      126.205       24.466        0.038      335.696        6.502      866.123
01/30/2022  12:52:00       58.166       21.338       -8.066       61.753       64.417       46.403     3813.434     4149.613     2153.251        0.701        0.506       61.956       27.544        0.198      335.931        6.893      866.119
01/30/2022  12:53:00      113.012      -29.454      -18.175       80.739       57.726       50.872     6518.849     3332.315     2587.987        1.320        0.622      116.788       44.668        0.146      335.867        6.787      866.104
01/30/2022  12:54:00      100.038      -51.082      -26.847       65.078       68.451       34.710     4235.206     4685.473     1204.800        1.173        0.506      112.325       23.162        0.043      335.743        6.580      866.090
01/30/2022  12:55:00      138.165      -20.908      -37.939       81.230       66.419       48.287     6598.232     4411.472     2331.672        1.715        0.667      139.738       34.091        0.060      335.974        6.964      866.089
01/30/2022  12:56:00       75.056      -62.416      -31.845       59.588       53.627       33.522     3550.724     2875.840     1123.752        0.905        0.378       97.618       26.967        0.076      335.746        6.585      866.097
01/30/2022  12:57:00       36.640      -47.708      -31.062       49.355       71.276       36.376     2435.929     5080.242     1323.217        0.671        0.442       60.154       30.679        0.260      336.037        7.069      866.083
01/30/2022  12:58:00      139.972      -18.294      -29.820       89.645       71.969       41.546     8036.184     5179.504     1726.079        1.788        0.747      141.162       30.754        0.047      336.061        7.108      866.065
01/30/2022  12:59:00       45.353      -46.271      -28.684       37.046       65.300       39.155     1372.421     4264.068     1533.082        0.609        0.358       64.791       23.823        0.135      336.150        7.259      866.073
01/30/2022  13:00:00       18.621       -9.188      -10.106       39.862       60.646       37.719     1588.984     3677.915     1422.741        0.361        0.334       20.765       22.124        1.135      336.374        7.634      866.059
01/30/2022  13:01:00       93.815       27.932      -41.675       66.123       70.503       36.525     4372.301     4970.670     1334.100        1.100        0.534       97.885       21.924        0.050      336.067        7.119      866.058
01/30/2022  13:02:00        9.729       -4.609      -13.448       53.219       66.651       32.996     2832.271     4442.414     1088.760        0.433        0.418       10.765       31.925        8.794      336.264        7.449      866.063
01/30/2022  13:03:00       29.198     -146.319      -29.358       48.257       67.424       34.097     2328.779     4545.948     1162.619        1.558        0.402      149.203       27.857        0.035      336.256        7.434      866.045
01/30/2022  13:04:00       85.607      -66.777      -30.813       51.074       65.189       36.006     2608.580     4249.670     1296.430        1.044        0.408      108.572       30.365        0.078      336.266        7.452      866.030
01/30/2022  13:05:00       46.479      -21.944      -10.002       46.014       62.198       40.728     2117.249     3868.618     1658.790        0.519        0.382       51.398       21.659        0.178      336.418        7.707      866.013
01/30/2022  13:06:00      105.496      -40.066      -25.255       65.359       55.954       30.825     4271.847     3130.838      950.187        1.086        0.418      112.848       14.119        0.016      336.099        7.174      865.980
01/30/2022  13:07:00      114.457       -4.966      -20.525       99.226       62.887       44.101     9845.817     3954.807     1944.877        1.464        0.787      114.565       38.149        0.111      336.234        7.398      865.954
01/30/2022  13:08:00      158.494      -19.616      -30.047       83.529       67.988       45.721     6977.029     4622.357     2090.435        2.005        0.684      159.703       40.321        0.064      336.167        7.286      865.952
01/30/2022  13:09:00       83.728      -37.677      -18.875       40.927       44.004       30.498     1675.046     1936.370      930.135        0.666        0.227       91.815       15.939        0.030      336.217        7.369      865.942
01/30/2022  13:10:00      107.128      -47.136      -41.993       74.229       73.418       50.460     5509.935     5390.229     2546.163        1.445        0.672      117.039       33.202        0.080      336.430        7.726      865.927
01/30/2022  13:11:00      108.130      -58.974      -43.450       61.529      120.609       35.819     3785.873    14546.568     1283.035        1.833        0.981      123.167       25.578        0.043      336.298        7.504      865.920
01/30/2022  13:12:00       55.347     -102.537      -20.333       40.629       98.881       40.604     1650.706     9777.513     1648.717        1.353        0.654      116.521       32.672        0.079      336.495        7.834      865.919
01/30/2022  13:13:00       84.773     -124.866      -32.101       64.479       69.541       35.415     4157.480     4835.988     1254.195        1.703        0.512      150.924       36.029        0.057      336.265        7.452      865.915
01/30/2022  13:14:00       77.677     -112.380      -30.424       41.061       45.993       21.413     1686.035     2115.359      458.518        1.192        0.213      136.613       21.390        0.025      335.959        6.940      865.893
01/30/2022  13:15:00       84.408      -68.514      -17.535       40.893       36.247       26.886     1672.240     1313.873      722.852        0.792        0.185      108.715       16.586        0.023      336.106        7.184      865.882
01/30/2022  13:16:00      128.633      -67.540      -31.823       88.338       61.825       43.056     7803.678     3822.303     1853.791        1.780        0.674      145.287       28.472        0.038      336.374        7.631      865.873
01/30/2022  13:17:00      188.496      -17.976      -18.858       70.666       62.681       59.699     4993.687     3928.907     3564.007        2.435        0.624      189.351       44.712        0.056      336.176        7.300      865.869
01/30/2022  13:18:00      146.094       29.361      -25.014       52.704       44.708       25.297     2777.660     1998.780      639.921        1.412        0.271      149.016       17.020        0.013      336.195        7.334      865.860
01/30/2022  13:19:00       89.824        3.086      -11.922       33.397       46.014       24.981     1115.341     2117.317      624.047        0.604        0.193       89.877        4.963        0.003      336.433        7.733      865.844
01/30/2022  13:20:00       -1.848       41.010      -14.855       36.938       18.044       25.166     1364.380      325.602      633.349        0.211        0.116       41.051       19.196        0.219      336.581        7.980      865.806
01/30/2022  13:21:00       88.892      -37.858      -23.558       72.926       91.027       61.916     5318.215     8285.864     3833.595        1.366        0.872       96.618       45.442        0.221      336.551        7.927      865.770
01/30/2022  13:22:00       64.392      -39.308      -17.903       59.503       68.683       59.959     3540.634     4717.290     3595.096        0.893        0.593       75.442       43.575        0.334      336.565        7.952      865.747
01/30/2022  13:23:00      129.386       20.501      -23.246       79.857       55.447       36.959     6377.097     3074.417     1365.998        1.426        0.541      131.000       29.224        0.050      336.650        8.093      865.765
01/30/2022  13:24:00       84.805      -17.256      -16.098       59.898       60.387       38.032     3587.797     3646.608     1446.435        0.821        0.434       86.543       27.420        0.100      336.555        7.936      865.762
01/30/2022  13:25:00      212.298       68.420      -26.720       50.894       45.628       30.212     2590.215     2081.943      912.735        2.802        0.279      223.051       18.354        0.007      336.326        7.548      865.762
01/30/2022  13:26:00      116.877       54.915      -23.494       50.150       47.478       27.985     2515.039     2254.186      783.174        1.139        0.278      129.136       16.408        0.016      336.454        7.765      865.769
01/30/2022  13:27:00      122.666       26.084      -22.575       42.484       41.349       30.504     1804.901     1709.735      930.483        1.034        0.222      125.409       17.619        0.020      336.357        7.604      865.763
01/30/2022  13:28:00       84.198       63.333      -10.827       37.564       42.263       18.565     1411.040     1786.125      344.667        0.738        0.177      105.358       12.535        0.014      336.372        7.628      865.753
01/30/2022  13:29:00       90.437      -11.903      -17.478       64.960       81.919       32.691     4219.738     6710.696     1068.706        1.031        0.600       91.217       31.136        0.117      336.710        8.195      865.725
01/30/2022  13:30:00      153.440     -109.952      -47.539       91.323       88.334       55.006     8339.907     7802.883     3025.664        2.853        0.958      188.768       38.347        0.041      336.587        7.986      865.699
01/30/2022  13:31:00       89.029     -111.763      -29.856       47.602       57.204       32.341     2265.944     3272.351     1045.964        1.395        0.329      142.889       23.602        0.027      336.633        8.066      865.706
01/30/2022  13:32:00       98.276       -6.225      -25.561       87.218       85.873       40.223     7606.973     7374.127     1617.898        1.347        0.830       98.473       31.967        0.105      336.866        8.455      865.688
01/30/2022  13:33:00      167.377      -15.205      -31.446       57.224       48.890       32.956     3274.593     2390.217     1086.102        1.799        0.338      168.066       25.685        0.023      336.451        7.761      865.696
01/30/2022  13:34:00      127.374       32.896      -21.170       67.242       50.881       25.988     4521.444     2588.856      675.387        1.277        0.389      131.554       23.566        0.032      336.462        7.780      865.687
01/30/2022  13:35:00      174.639        8.430      -18.251      111.464       57.646       38.118    12424.123     3323.099     1452.974        2.405        0.860      174.842       36.911        0.045      336.670        8.126      865.666
01/30/2022  13:36:00      102.554       66.482      -11.373       71.631       42.587       23.845     5130.965     1813.652      568.579        1.129        0.376      122.218       19.099        0.024      336.613        8.032      865.666
01/30/2022  13:37:00       36.617      -38.983      -12.396       49.153       54.334       39.826     2416.006     2952.130     1586.092        0.498        0.348       53.484       19.273        0.130      337.102        8.850      865.653
01/30/2022  13:38:00      118.022       -4.162      -18.060       88.691       87.504       69.609     7866.064     7656.894     4845.472        1.732        1.018      118.096       57.554        0.238      336.612        8.030      865.633
01/30/2022  13:39:00      113.534        3.270      -41.144       75.455       71.333       47.719     5693.528     5088.429     2277.116        1.382        0.653      113.581       27.823        0.060      336.617        8.040      865.640
01/30/2022  13:40:00       81.918      -64.458      -20.801       74.930       90.303       41.786     5614.458     8154.580     1746.069        1.340        0.776      104.237       40.973        0.155      336.723        8.217      865.655
01/30/2022  13:41:00       34.944      -23.732       -4.373       52.280       54.599       38.748     2733.193     2981.104     1501.414        0.451        0.361       42.241       18.512        0.192      336.864        8.451      865.650
01/30/2022  13:42:00       54.132      -76.584      -21.712       57.469       81.690       28.563     3302.688     6673.220      815.856        1.003        0.540       93.783       28.478        0.092      336.722        8.214      865.643
01/30/2022  13:43:00      -25.151       -2.404      -17.317       37.820       30.740       28.289     1430.326      944.976      800.266        0.206        0.159       25.266       25.220        0.996      337.148        8.928      865.627
01/30/2022  13:44:00      -25.663       10.512      -11.534       37.531       30.468       16.428     1408.549      928.294      269.879        0.175        0.130       27.733       10.751        0.150      337.157        8.943      865.621
01/30/2022  13:45:00       33.515     -100.680      -27.926       54.748       61.994       25.066     2997.391     3843.302      628.311        0.975        0.373      106.112       24.366        0.053      337.158        8.945      865.609
01/30/2022  13:46:00      103.749     -182.945      -45.118       55.423       51.898       31.913     3071.729     2693.357     1018.428        2.652        0.339      210.316       27.216        0.017      336.885        8.484      865.584
01/30/2022  13:47:00       88.758      -71.155      -30.758       82.761      115.442       42.981     6849.308    13326.953     1847.341        1.795        1.101      113.759       59.215        0.271      336.929        8.560      865.567
01/30/2022  13:48:00       63.488      -14.692      -21.165       51.337       78.798       37.947     2635.472     6209.131     1440.007        0.749        0.514       65.166       17.269        0.070      336.992        8.666      865.538
01/30/2022  13:49:00      108.337       31.216      -38.860       61.311       64.219       38.037     3758.982     4124.059     1446.815        1.177        0.466      112.744       18.866        0.028      336.939        8.577      865.515
01/30/2022  13:50:00       70.065     -122.475      -23.136       70.462       83.134       40.570     4964.861     6911.280     1645.925        1.698        0.676      141.100       35.194        0.062      336.975        8.636      865.500
01/30/2022  13:51:00       66.658     -112.950      -32.477       41.922       56.324       25.517     1757.452     3172.348      651.122        1.192        0.279      131.152       13.133        0.010      336.991        8.664      865.488
01/30/2022  13:52:00       42.470      -18.768       -9.716       75.214       65.205       47.373     5657.147     4251.723     2244.177        0.720        0.608       46.432       35.078        0.571      337.238        9.077      865.472
01/30/2022  13:53:00       66.725      -71.375      -27.661       64.047       89.456       49.551     4102.022     8002.359     2455.336        1.243        0.728       97.707       44.295        0.206      336.964        8.619      865.488
01/30/2022  13:54:00       95.546      -39.411      -34.701       60.553       72.021       43.320     3666.634     5186.998     1876.596        1.131        0.537      103.355       22.726        0.048      336.778        8.310      865.505
01/30/2022  13:55:00       56.973      -32.751      -21.996       51.508       51.089       41.318     2653.121     2610.115     1707.212        0.589        0.349       65.716       38.475        0.343      336.848        8.424      865.523
01/30/2022  13:56:00       68.556      -90.796      -29.303       57.385       63.358       43.356     3293.056     4014.282     1879.775        1.149        0.459      113.771       38.068        0.112      336.927        8.556      865.512
01/30/2022  13:57:00       22.947      -20.632      -20.808       34.601       72.280       35.345     1197.233     5224.428     1249.296        0.453        0.384       30.859       19.017        0.380      337.290        9.164      865.512
01/30/2022  13:58:00       30.376        5.526      -16.224       44.753       45.573       34.400     2002.809     2076.916     1183.345        0.324        0.263       30.874       25.529        0.684      337.307        9.192      865.508
01/30/2022  13:59:00       22.813      -41.507       -2.799       55.425       69.087       32.297     3071.897     4773.024     1043.072        0.557        0.444       47.363       25.833        0.297      337.446        9.426      865.504
01/30/2022  14:00:00       75.292     -164.265      -32.143       51.696       72.004       38.910     2672.428     5184.590     1513.964        2.153        0.469      180.698       32.906        0.033      337.158        8.940      865.495
01/30/2022  14:01:00       28.460      -26.453      -26.456       59.624       78.038       45.786     3554.996     6089.914     2096.325        0.697        0.587       38.855       26.730        0.473      337.393        9.337      865.484
01/30/2022  14:02:00      -26.836      -21.216      -10.777       35.799       48.492       33.292     1281.590     2351.435     1108.357        0.301        0.237       34.210       25.346        0.549      337.536        9.576      865.457
01/30/2022  14:03:00       -3.101      -14.015      -16.544       33.853       70.586       19.002     1146.057     4982.448      361.080        0.348        0.324       14.354       16.256        1.283      337.569        9.631      865.431
01/30/2022  14:04:00       56.130     -187.327      -26.085       50.805       62.427       33.131     2581.167     3897.079     1097.681        2.325        0.379      195.555       29.773        0.023      337.132        8.898      865.404
01/30/2022  14:05:00       62.180     -137.071      -26.143       55.746       42.363       44.594     3107.604     1794.592     1988.589        1.511        0.345      150.515       40.082        0.071      337.180        8.980      865.385
01/30/2022  14:06:00       85.526     -236.968      -37.040       44.437       63.086       39.337     1974.636     3979.871     1547.414        3.617        0.375      251.930       35.325        0.020      336.956        8.601      865.370
01/30/2022  14:07:00       52.131     -136.735      -26.298       60.432       40.403       23.079     3652.005     1632.379      532.619        1.396        0.291      146.335       25.592        0.031      337.093        8.834      865.369
01/30/2022  14:08:00       26.224      -14.163      -13.730       31.731       53.978       20.415     1006.877     2913.623      416.755        0.271        0.217       29.804       10.056        0.114      337.343        9.254      865.382
01/30/2022  14:09:00       46.209       25.460      -14.365       31.655       31.089       15.308     1002.064      966.541      234.331        0.260        0.110       52.758       13.271        0.063      337.320        9.213      865.378
01/30/2022  14:10:00      108.054       35.686      -11.281       41.916       48.992       28.672     1756.968     2400.234      822.112        0.903        0.249      113.795       16.715        0.022      337.181        8.982      865.377
01/30/2022  14:11:00       31.564        4.099      -24.501       66.301       40.327       32.761     4395.835     1626.240     1073.266        0.435        0.355       31.829       16.319        0.263      337.542        9.587      865.363
01/30/2022  14:12:00       54.933      -69.059      -16.907       64.838       90.411       34.835     4203.991     8174.097     1213.470        1.083        0.680       88.243       39.516        0.201      337.288        9.161      865.365
01/30/2022  14:13:00       57.835     -154.659      -46.578       48.717       49.919       28.718     2373.387     2491.878      824.750        1.756        0.285      165.119       16.772        0.010      337.119        8.878      865.361
01/30/2022  14:14:00       21.706       -7.248      -30.410       64.540      105.800       45.937     4165.458    11193.684     2110.243        0.946        0.873       22.884       41.864        3.347      337.480        9.482      865.361
01/30/2022  14:15:00       69.902      -21.460      -26.426       63.863       79.395       31.191     4078.529     6303.497      972.859        0.870        0.568       73.122       23.118        0.100      337.183        8.986      865.365
01/30/2022  14:16:00       54.236       20.733      -21.307       72.014       64.093       26.525     5185.948     4107.854      703.587        0.691        0.500       58.064       21.161        0.133      337.178        8.978      865.364
01/30/2022  14:17:00      113.108       79.840      -17.266       40.617       43.543       31.600     1649.734     1896.025      998.560        1.200        0.227      138.448       12.290        0.008      336.996        8.673      865.370
01/30/2022  14:18:00       65.494       84.648       -8.584       31.834       34.495       24.035     1013.373     1189.927      577.666        0.715        0.139      107.027       25.628        0.057      337.117        8.875      865.362
01/30/2022  14:19:00       17.154       37.955       -4.554       33.183       33.531       21.363     1101.124     1124.302      456.379        0.222        0.134       41.651       18.807        0.204      337.271        9.132      865.352
01/30/2022  14:20:00       56.820      -95.413      -23.548       84.141      102.728       53.683     7079.692    10553.100     2881.906        1.670        1.026      111.050       61.851        0.310      337.302        9.183      865.330
01/30/2022  14:21:00       76.279     -112.625      -39.081       45.643       43.501       38.860     2083.328     1892.379     1510.115        1.276        0.274      136.025       26.155        0.037      337.032        8.732      865.332
01/30/2022  14:22:00       10.283      -43.132      -35.152       27.664       42.422       23.348      765.284     1799.591      545.122        0.316        0.155       44.341       23.028        0.270      337.236        9.073      865.311
01/30/2022  14:23:00       55.032      -32.714      -12.919       44.821       59.395       33.629     2008.902     3527.776     1130.882        0.547        0.333       64.021       26.858        0.176      337.517        9.545      865.277
01/30/2022  14:24:00       77.827     -140.123      -38.445       62.759       70.077       46.413     3938.739     4910.837     2154.153        1.908        0.550      160.286       39.414        0.060      337.313        9.202      865.260
01/30/2022  14:25:00       36.666      -84.847      -13.461       26.071       64.583       21.763      679.675     4170.978      473.629        0.702        0.266       92.431       14.152        0.023      337.274        9.139      865.250
01/30/2022  14:26:00       69.016      -11.209      -34.474       60.513       43.356       28.248     3661.818     1879.726      797.953        0.621        0.317       69.920       16.031        0.053      337.444        9.422      865.207
01/30/2022  14:27:00      132.192       81.607      -27.073       47.140       34.039       20.997     2222.141     1158.663      440.860        1.434        0.191      155.353        9.465        0.004      337.197        9.007      865.199
01/30/2022  14:28:00        9.434      -16.606      -19.840       68.385       58.091       39.774     4676.493     3374.586     1581.971        0.519        0.482       19.098       29.307        2.355      337.664        9.790      865.169
01/30/2022  14:29:00       95.198       50.462      -20.231       67.325       55.669       38.390     4532.604     3099.086     1473.768        1.056        0.455      107.745       20.322        0.036      337.496        9.509      865.158
01/30/2022  14:30:00       61.561       31.718       -9.116       64.535       29.979       19.291     4164.714      898.721      372.142        0.516        0.272       69.252       18.625        0.072      337.333        9.237      865.168
01/30/2022  14:31:00       27.750      -37.158       -0.438       37.192       39.035       31.719     1383.215     1523.744     1006.094        0.303        0.196       46.377       21.118        0.207      337.782        9.989      865.173
01/30/2022  14:32:00       32.712     -161.291      -18.176       47.471      116.527       34.294     2253.463    13578.636     1176.105        2.221        0.850      164.574       42.360        0.066      337.573        9.636      865.169
01/30/2022  14:33:00       85.561     -212.214      -41.437       71.647       67.482       33.995     5133.324     4553.837     1155.692        3.246        0.542      228.813       41.638        0.033      337.395        9.337      865.158
01/30/2022  14:34:00      111.156     -137.055      -38.857       52.459       50.713       33.357     2751.977     2571.788     1112.710        1.954        0.322      176.465       35.832        0.041      337.311        9.198      865.172
01/30/2022  14:35:00       34.212      -42.168      -33.419       43.701       84.780       29.416     1909.787     7187.612      865.284        0.701        0.498       54.301       23.157        0.182      337.561        9.619      865.203
01/30/2022  14:36:00       44.876     -112.304      -19.572       46.003       48.000       42.456     2116.252     2303.990     1802.509        1.061        0.311      120.938       33.103        0.075      337.678        9.815      865.196
01/30/2022  14:37:00       -5.875      -60.515      -14.438       47.685       36.226       29.457     2273.879     1312.335      867.706        0.418        0.223       60.800       22.717        0.140      337.820       10.053      865.190
01/30/2022  14:38:00       47.011     -104.919      -26.618       39.558       45.730       33.475     1564.870     2091.278     1120.558        0.935        0.239      114.969       23.076        0.040      337.326        9.227      865.197
01/30/2022  14:39:00        7.211      -25.615      -18.958       39.180       31.482       28.090     1535.090      991.124      789.045        0.219        0.166       26.610        9.848        0.137      337.526        9.559      865.199
01/30/2022  14:40:00       18.003       25.669      -20.892       41.510       47.754       34.069     1723.118     2280.453     1160.726        0.329        0.258       31.353       19.920        0.404      337.587        9.662      865.194
01/30/2022  14:41:00        4.806       -6.730      -13.858       38.620       44.647       31.352     1491.498     1993.355      982.966        0.236        0.223        8.269       20.730        6.284      337.864       10.126      865.179
01/30/2022  14:42:00       99.295       50.699      -20.320       93.841       59.550       30.416     8806.093     3546.261      925.151        1.306        0.664      111.490       33.074        0.088      337.618        9.712      865.157
01/30/2022  14:43:00       62.877        2.908      -19.199       62.935       62.818       32.620     3960.790     3946.126     1064.064        0.665        0.449       62.944       27.650        0.193      337.590        9.667      865.153
01/30/2022  14:44:00       24.459       -7.413      -14.290       68.798       79.295       31.331     4733.132     6287.751      981.603        0.643        0.600       25.558       24.010        0.883      337.686        9.828      865.145
01/30/2022  14:45:00       25.941      -49.910       -8.946       39.393       37.089       28.143     1551.796     1375.600      792.023        0.348        0.186       56.249       21.910        0.152      337.895       10.178      865.133
01/30/2022  14:46:00       74.340     -122.032      -30.464       72.822      106.327       38.120     5303.029    11305.418     1453.132        1.970        0.903      142.892       32.787        0.053      337.853       10.107      865.117
01/30/2022  14:47:00      101.287     -209.568      -44.342       33.311       66.109       26.622     1109.592     4370.355      708.711        3.117        0.309      232.761       21.784        0.009      337.292        9.165      865.093
01/30/2022  14:48:00       43.061     -168.433      -33.761       32.035       45.241       25.303     1026.239     2046.754      640.241        1.754        0.186      173.850       14.218        0.007      337.348        9.262      865.069
01/30/2022  14:49:00       61.078     -143.503      -31.162       48.918       47.030       31.025     2392.929     2211.819      962.576        1.543        0.278      155.960       21.314        0.019      337.655        9.775      865.053
01/30/2022  14:50:00        1.738      -23.298      -23.562       62.235       43.436       35.554     3873.207     1886.685     1264.059        0.406        0.351       23.363       22.919        0.962      338.024       10.395      865.033
01/30/2022  14:51:00       10.058      -21.897       -5.748       22.104       46.507       18.278      488.586     2162.888      334.070        0.180        0.149       24.097       11.595        0.232      338.202       10.694      865.025
01/30/2022  14:52:00       34.942      -72.219      -25.245       38.023       74.532       29.775     1445.783     5555.041      886.575        0.748        0.394       80.228       15.936        0.039      337.918       10.217      865.017
01/30/2022  14:53:00       27.259      -92.225      -26.014       39.981       59.485       24.410     1598.503     3538.440      595.844        0.783        0.287       96.169       26.582        0.076      338.047       10.434      865.008
01/30/2022  14:54:00      105.139     -146.788      -46.043       62.969       46.261       30.042     3965.067     2140.119      902.509        2.086        0.350      180.558       27.434        0.023      337.657        9.777      865.008
01/30/2022  14:55:00       66.455     -125.373      -51.624       52.452       45.142       31.090     2751.167     2037.796      966.574        1.428        0.288      141.897       28.226        0.040      337.432        9.400      865.024
01/30/2022  14:56:00       71.986     -199.237      -32.296       31.674       43.517       18.272     1003.230     1893.704      333.848        2.457        0.162      211.843       15.600        0.005      337.508        9.526      865.029
01/30/2022  14:57:00       54.387     -161.897      -39.660       25.609       42.794       30.691      655.831     1831.335      941.928        1.708        0.171      170.788       16.150        0.009      337.592        9.668      865.045
01/30/2022  14:58:00       46.931      -75.362      -14.318       30.176       37.635       28.510      910.583     1416.394      812.844        0.561        0.157       88.781       20.379        0.053      337.816       10.045      865.066
01/30/2022  14:59:00       37.525      -45.036      -15.725       43.460       28.649       25.932     1888.781      820.758      672.491        0.353        0.169       58.621       11.943        0.042      337.795       10.009      865.085
01/30/2022  15:00:00       42.966     -102.890      -26.019       40.914       45.271       28.710     1673.951     2049.490      824.285        0.883        0.227      111.501       28.787        0.067      337.856       10.113      865.086
01/30/2022  15:01:00       19.981      -47.359      -21.041       57.473       55.126       34.263     3303.176     3038.863     1173.920        0.530        0.376       51.402       35.875        0.487      337.630        9.734      865.076
01/30/2022  15:02:00       27.689       25.908      -13.593       43.154       46.631       37.238     1862.257     2174.460     1386.667        0.352        0.271       37.920       17.327        0.209      337.755        9.943      865.069
01/30/2022  15:03:00       43.082      -65.419      -30.623       43.076       72.752       27.482     1855.523     5292.883      755.274        0.749        0.395       78.330       29.632        0.143      337.643        9.756      865.066
01/30/2022  15:04:00       24.154      -34.681      -12.483       43.978       66.833       36.400     1934.092     4466.695     1324.971        0.483        0.386       42.263       39.307        0.865      337.679        9.816      865.056
01/30/2022  15:05:00       65.691      -47.545      -32.424       59.949       83.591       41.154     3593.872     6987.384     1693.685        0.995        0.614       81.091       29.387        0.131      337.668        9.798      865.045
01/30/2022  15:06:00        0.605       13.922       -4.422       56.425       50.464       43.379     3183.806     2546.580     1881.743        0.391        0.381       13.935       34.698        6.200      337.924       10.227      865.044
01/30/2022  15:07:00        9.153        1.569       -4.730       28.152       43.986       24.103      792.553     1934.746      580.943        0.171        0.165        9.287        7.736        0.694      338.006       10.365      865.045
01/30/2022  15:08:00      -11.990      -23.295       15.426       22.692       31.145       22.991      514.912      969.996      528.582        0.147        0.101       26.199       15.800        0.364      338.196       10.683      865.035
01/30/2022  15:09:00      -12.787      -64.421      -12.289       24.093       42.553       23.977      580.471     1810.741      574.918        0.371        0.148       65.678       18.148        0.076      338.103       10.527      865.029
01/30/2022  15:10:00       44.867      -80.004      -27.203       69.505       67.333       28.860     4830.934     4533.684      832.920        0.967        0.510       91.726       29.949        0.107      337.895       10.178      865.023
01/30/2022  15:11:00       66.707      -93.324      -42.312       29.977       58.526       24.503      898.634     3425.262      600.381        0.994        0.246      114.714       23.543        0.042      337.695        9.842      865.022
01/30/2022  15:12:00       60.828     -108.962      -28.984       56.530       45.531       36.504     3195.663     2073.076     1332.541        1.151        0.330      124.790       30.085        0.058      337.937       10.248      865.024
01/30/2022  15:13:00       45.123     -158.633      -32.822       37.416       41.054       22.242     1399.927     1685.395      494.714        1.593        0.179      164.925       16.448        0.010      337.709        9.867      865.032
01/30/2022  15:14:00       28.845     -126.860      -27.782       32.047       31.708       21.456     1027.035     1005.381      460.339        1.009        0.125      130.098       13.575        0.011      338.026       10.400      865.039
01/30/2022  15:15:00       20.097      -63.660      -21.865       37.950       37.991       25.608     1440.209     1443.309      655.745        0.424        0.177       66.757        7.683        0.013      338.262       10.794      865.045
01/30/2022  15:16:00       24.033      -68.741      -24.428       61.270       63.579       40.317     3754.040     4042.289     1625.441        0.766        0.471       72.821       46.010        0.399      338.046       10.432      865.046
01/30/2022  15:17:00       53.573      -76.764      -20.512       32.910       39.696       25.563     1083.098     1575.778      653.456        0.625        0.166       93.610       28.061        0.090      337.749        9.934      865.043
01/30/2022  15:18:00       30.391      -43.266       -8.905       38.281       31.967       25.183     1465.443     1021.901      634.191        0.300        0.156       52.873       28.229        0.285      337.846       10.095      865.051
01/30/2022  15:19:00       16.210      -12.693      -17.688       36.072       40.567       22.282     1301.211     1645.653      496.487        0.209        0.172       20.588        9.823        0.228      337.844       10.093      865.059
01/30/2022  15:20:00        1.380      -37.170       -9.429       24.859       23.945       31.093      617.945      573.374      966.763        0.181        0.108       37.196       21.635        0.338      337.859       10.118      865.058
01/30/2022  15:21:00        2.174        8.433       -2.701       22.781       23.909       16.962      518.958      571.623      287.706        0.073        0.069        8.709        7.989        0.842      337.987       10.332      865.073
01/30/2022  15:22:00       44.239       53.773        2.378       43.948       27.904       19.993     1931.437      778.635      399.706        0.398        0.155       69.632       12.482        0.032      337.826       10.061      865.076
01/30/2022  15:23:00       32.276       26.775       -1.578       46.112       43.584       27.304     2126.313     1899.548      745.529        0.327        0.239       41.936       19.945        0.226      337.811       10.037      865.079
01/30/2022  15:24:00       18.247      -31.403      -31.030       26.447       33.694       26.889      699.439     1135.303      723.038        0.242        0.128       36.320       19.740        0.295      337.766        9.962      865.080
01/30/2022  15:25:00       16.049       21.173       -0.952       26.261       30.452       17.936      689.614      927.324      321.699        0.132        0.097       26.568       12.048        0.206      337.970       10.304      865.071
01/30/2022  15:26:00        0.580      -26.827       -7.462       21.316       23.025       24.349      454.370      530.137      592.887        0.118        0.079       26.833       14.562        0.294      337.932       10.240      865.058
01/30/2022  15:27:00       21.969      -18.192      -20.136       30.419       44.976       21.391      925.330     2022.815      457.595        0.231        0.170       28.523       16.427        0.332      338.088       10.502      865.047
01/30/2022  15:28:00       19.328      -48.392      -19.418       59.833       54.155       25.810     3579.993     2932.718      666.131        0.513        0.359       52.109       25.399        0.238      338.100       10.522      865.031
01/30/2022  15:29:00       47.601     -107.147      -22.559       53.395       42.259       25.748     2851.031     1785.820      662.959        0.978        0.265      117.245       17.498        0.022      338.045       10.429      865.019
01/30/2022  15:30:00      -21.990      -18.369       -7.642       30.510       26.950       15.552      930.837      726.318      241.878        0.139        0.095       28.653        8.242        0.083      338.330       10.909      865.019
01/30/2022  15:31:00       20.205      -49.243      -30.183       17.731       37.326       19.429      314.399     1393.254      377.491        0.291        0.104       53.227        9.561        0.032      338.117       10.551      865.012
01/30/2022  15:32:00       31.026      -63.864      -31.445       29.695       39.368       26.960      881.772     1549.820      726.828        0.459        0.158       71.002       24.219        0.116      338.078       10.486      865.015
01/30/2022  15:33:00      -12.013      -32.485      -20.893       26.532       31.592       19.397      703.924      998.080      376.229        0.186        0.104       34.635       11.736        0.115      338.289       10.840      865.027
01/30/2022  15:34:00       11.836      -29.957      -22.052       19.066       30.877       20.100      363.496      953.363      404.025        0.162        0.086       32.210       14.038        0.190      338.345       10.933      865.050
01/30/2022  15:35:00      -10.468      -22.234      -22.663       23.230       17.543       16.511      539.645      307.763      272.623        0.112        0.056       24.575        6.650        0.073      338.313       10.880      865.073
01/30/2022  15:36:00       20.071      -10.788       -6.457       17.539       17.840       16.077      307.618      318.273      258.469        0.072        0.044       22.786        9.046        0.158      338.196       10.683      865.087
01/30/2022  15:37:00       25.267       11.741      -17.869       26.765       21.342       20.841      716.379      455.498      434.356        0.135        0.080       27.861        9.604        0.119      338.044       10.428      865.106
01/30/2022  15:38:00      -29.269       38.196       -3.113       26.834       23.985       22.031      720.038      575.274      485.361        0.205        0.089       48.121       14.746        0.094      338.299       10.857      865.116
01/30/2022  15:39:00       40.173       36.707      -20.674       21.498       12.840       18.149      462.163      164.877      329.374        0.217        0.048       54.418        6.005        0.012      338.023       10.392      865.113
01/30/2022  15:40:00       26.446        9.298       -8.384       41.326       27.564       19.165     1707.876      759.783      367.284        0.185        0.142       28.033       12.491        0.199      338.293       10.847      865.110
01/30/2022  15:41:00        7.800       -9.154       -4.522       13.373       22.552       12.859      178.835      508.601      165.360        0.051        0.043       12.026       10.610        0.778      338.417       11.054      865.116
01/30/2022  15:42:00      -11.642        0.595       -6.599       24.021       22.435       16.790      577.032      503.323      281.897        0.077        0.068       11.657       13.587        1.358      338.418       11.057      865.123
01/30/2022  15:43:00       17.601       38.355       -2.236       18.291       14.475       10.818      334.553      209.523      117.019        0.122        0.033       42.201        1.940        0.002      338.312       10.878      865.143
01/30/2022  15:44:00       31.007       29.263      -10.052       26.777       26.884       15.701      717.006      722.757      246.532        0.180        0.084       42.635       13.430        0.099      338.199       10.690      865.168
01/30/2022  15:45:00       15.059       10.108       -2.822       17.191       16.484       15.286      295.546      271.718      233.665        0.057        0.040       18.137        5.700        0.099      338.226       10.735      865.184
01/30/2022  15:46:00       25.507        5.208      -13.474       31.039       22.233       20.539      963.425      494.306      421.853        0.137        0.094       26.034       21.054        0.654      338.073       10.476      865.194
01/30/2022  15:47:00       -3.969       18.680      -18.073       13.447       19.221       15.804      180.828      369.437      249.768        0.075        0.040       19.097        6.504        0.116      338.425       11.069      865.201
01/30/2022  15:48:00       -8.279      -16.026      -11.676       32.522       33.263       22.292     1057.681     1106.454      496.942        0.156        0.133       18.038       14.521        0.648      338.525       11.236      865.203
01/30/2022  15:49:00        5.892      -26.356      -22.995       33.213       31.729       22.437     1103.104     1006.719      503.397        0.194        0.131       27.007        7.884        0.085      338.307       10.869      865.207
01/30/2022  15:50:00      -16.595       -6.128       -9.848       22.750       22.725       14.758      517.550      516.428      217.794        0.083        0.063       17.691        9.836        0.309      338.589       11.343      865.212
01/30/2022  15:51:00        7.604      -27.254        0.379       29.483       51.793       26.345      869.225     2682.554      694.069        0.252        0.212       28.295       17.616        0.388      338.458       11.123      865.211
01/30/2022  15:52:00        6.044      -37.759      -19.566       37.830       57.661       24.479     1431.114     3324.798      599.244        0.360        0.268       38.240       21.283        0.310      338.397       11.021      865.205
01/30/2022  15:53:00       65.762      -72.424      -35.833       29.980       25.147       28.152      898.817      632.389      792.510        0.659        0.116       97.825        8.801        0.008      337.896       10.180      865.197
01/30/2022  15:54:00       24.638      -44.853      -16.102       46.607       34.756       23.078     2172.195     1207.988      532.605        0.339        0.196       51.175       20.223        0.156      338.287       10.836      865.174
01/30/2022  15:55:00        5.100       -4.493      -14.107       26.320       24.242       17.431      692.757      587.670      303.855        0.091        0.079        6.797       11.044        2.640      338.359       10.956      865.155
01/30/2022  15:56:00       19.120      -36.403      -20.108       43.709       33.737       25.661     1910.449     1138.159      658.501        0.290        0.185       41.118       17.890        0.189      338.368       10.971      865.126
01/30/2022  15:57:00       62.021      -96.342      -17.107       22.402       34.375       23.448      501.844     1181.626      549.818        0.783        0.112      114.579       13.712        0.014      338.158       10.622      865.102
01/30/2022  15:58:00       28.755      -44.624      -13.786       25.760       32.944       17.812      663.568     1085.289      317.268        0.254        0.103       53.086       11.364        0.046      338.180       10.657      865.087
01/30/2022  15:59:00        7.881      -22.023      -20.045       21.801       40.760       15.861      475.270     1661.350      251.563        0.167        0.119       23.391       16.333        0.488      338.069       10.470      865.076
01/30/2022  16:00:00       -1.451      -30.520      -14.594       15.778       32.973       25.117      248.933     1087.235      630.855        0.156        0.098       30.554       16.487        0.291      338.280       10.823      865.053
01/30/2022  16:01:00       -1.187       21.343       -9.476       27.081       33.203       25.465      733.361     1102.436      648.469        0.152        0.124       21.376       14.407        0.454      338.131       10.575      865.037
01/30/2022  16:02:00       23.508        7.098       -9.425       41.552       37.957       26.376     1726.570     1440.753      695.694        0.228        0.193       24.556       18.854        0.589      338.118       10.552      865.030
01/30/2022  16:03:00       42.614       32.611       -1.739       46.906       46.683       19.960     2200.158     2179.328      398.421        0.383        0.239       53.660       14.412        0.072      337.969       10.302      865.024
01/30/2022  16:04:00        9.966       23.349      -18.849       32.276       31.548       19.628     1041.723      995.248      385.250        0.171        0.121       25.387       19.224        0.573      337.954       10.278      865.022
01/30/2022  16:05:00        2.506       -2.436      -16.132       26.908       68.258       21.839      724.015     4659.087      476.932        0.307        0.293        3.495       21.193       36.765      337.913       10.209      865.018
01/30/2022  16:06:00       25.278       24.390      -10.596       50.768       51.420       22.126     2577.405     2644.056      489.575        0.353        0.286       35.126       15.522        0.195      338.015       10.380      865.017
01/30/2022  16:07:00       99.392       38.611      -33.958       36.337       44.669       25.595     1320.342     1995.293      655.101        0.825        0.199      106.629       22.441        0.044      337.954       10.276      865.015
01/30/2022  16:08:00       85.478       34.328      -25.297       35.298       32.636       20.575     1245.944     1065.138      423.342        0.593        0.137       92.114        4.715        0.003      337.998       10.351      865.002
01/30/2022  16:09:00       11.677      -29.943      -23.999       29.756       32.595       17.306      885.435     1062.412      299.510        0.193        0.112       32.139        9.240        0.083      338.020       10.388      864.988
01/30/2022  16:10:00        7.022      -15.843       -4.872       21.545       23.913       15.975      464.194      571.843      255.192        0.081        0.065       17.329        9.568        0.305      337.999       10.352      864.989
01/30/2022  16:11:00       45.307      -91.791      -26.178       34.849       48.031       21.285     1214.423     2306.961      453.066        0.757        0.199      102.364       19.921        0.038      337.939       10.252      864.982
01/30/2022  16:12:00       36.796      -94.024      -28.629       15.989       25.780       15.621      255.658      664.631      244.019        0.609        0.058      100.968        7.503        0.006      338.192       10.677      864.982
01/30/2022  16:13:00       45.774      -82.509      -25.576       46.728       57.152       30.478     2183.525     3266.370      928.925        0.797        0.319       94.355       21.538        0.052      338.251       10.776      864.987
01/30/2022  16:14:00       10.921      -86.746      -26.270       45.516       45.736       28.418     2071.701     2091.780      807.584        0.665        0.249       87.430       24.387        0.078      338.238       10.752      865.000
01/30/2022  16:15:00       -1.731      -49.307      -20.911       35.936       52.613       22.684     1291.388     2768.177      514.558        0.372        0.229       49.337       22.004        0.199      338.412       11.047      865.006
01/30/2022  16:16:00        4.269      -37.210       -5.888       30.019       28.751       17.776      901.141      826.627      316.001        0.174        0.102       37.454       11.451        0.093      338.387       11.004      865.013
01/30/2022  16:17:00       58.223      -64.077      -15.123       34.405       29.199       28.651     1183.738      852.573      820.896        0.529        0.143       86.578       22.323        0.066      338.375       10.983      865.005
01/30/2022  16:18:00       27.422        1.092      -11.084       20.300       40.441       19.259      412.082     1635.489      370.904        0.165        0.121       27.444       16.275        0.352      338.387       11.003      864.983
01/30/2022  16:19:00       15.566      -24.640      -11.309       27.378       41.153       22.890      749.553     1693.556      523.971        0.197        0.148       29.145       11.763        0.163      338.281       10.826      864.966
01/30/2022  16:20:00       61.445     -105.225      -24.115       28.896       64.137       20.318      835.006     4113.524      412.813        1.039        0.268      121.852       16.873        0.019      338.202       10.693      864.944
01/30/2022  16:21:00       48.943     -113.930      -26.665       42.276       29.371       28.189     1787.225      862.673      794.639        0.976        0.172      123.998       20.315        0.027      338.265       10.799      864.957
01/30/2022  16:22:00       17.986      -37.671      -20.768       41.714       40.532       22.128     1740.086     1642.867      489.659        0.302        0.194       41.744       22.083        0.280      338.331       10.911      864.966
01/30/2022  16:23:00       -4.338       -1.668      -13.325       14.156       15.955        9.440      200.393      254.567       89.112        0.037        0.027        4.647        5.393        1.347      338.425       11.068      864.984
01/30/2022  16:24:00      -11.838        9.763       -8.886       20.297       17.794       10.933      411.964      316.638      119.531        0.058        0.042       15.344        8.321        0.294      338.258       10.788      865.010
01/30/2022  16:25:00       13.467       39.627      -15.116       14.486       18.011       10.141      209.837      324.393      102.835        0.131        0.032       41.853        4.643        0.012      338.191       10.674      865.037
01/30/2022  16:26:00       16.594        0.997      -10.640       17.487        9.178        9.587      305.806       84.232       91.910        0.044        0.024       16.624        2.144        0.017      338.273       10.815      865.051
01/30/2022  16:27:00       47.105      -18.105      -12.648       33.236       19.634       14.892     1104.650      385.480      221.771        0.221        0.086       50.465       15.838        0.099      338.283       10.828      865.052
01/30/2022  16:28:00       60.452       -9.035      -17.085       30.375       37.854       22.000      922.642     1432.943      484.003        0.343        0.142       61.123       10.029        0.027      338.159       10.620      865.041
01/30/2022  16:29:00       19.055       -0.802      -13.327       21.123       16.271        8.726      446.190      264.762       76.149        0.066        0.039       19.072        4.560        0.057      338.244       10.764      865.033
01/30/2022  16:30:00       -0.599      -10.728      -13.403        9.355       19.469       19.061       87.512      379.024      363.307        0.056        0.041       10.745       15.353        2.041      338.453       11.115      865.025
01/30/2022  16:31:00      -20.916      -11.066       -8.864       21.474       16.901       14.896      461.144      285.631      221.906        0.080        0.048       23.663        5.683        0.058      338.360       10.958      864.992
01/30/2022  16:32:00      -22.001      -13.016       -7.553       31.623       16.171       18.823     1000.005      261.485      354.317        0.116        0.081       25.563       12.171        0.227      338.455       11.117      864.982
01/30/2022  16:33:00       46.559      -30.674      -31.938       45.157       49.117       33.789     2039.116     2412.445     1141.715        0.486        0.280       55.755       28.477        0.261      338.249       10.772      864.960
01/30/2022  16:34:00      -37.966      -22.674      -13.566       40.488       46.703       31.547     1639.264     2181.163      995.213        0.348        0.241       44.221       24.939        0.318      338.234       10.747      864.953
01/30/2022  16:35:00      -29.031      -12.035      -18.350       26.400       25.975       19.040      696.953      674.725      362.520        0.153        0.087       31.427       11.294        0.129      338.301       10.859      864.976
01/30/2022  16:36:00        0.295      -56.466       -3.229       38.973       48.300       29.708     1518.865     2332.843      882.558        0.397        0.237       56.467        6.731        0.014      338.331       10.909      864.996
01/30/2022  16:37:00      -14.350      -15.388      -12.069       33.865       24.903       20.138     1146.815      620.138      405.536        0.138        0.109       21.040       17.596        0.699      338.405       11.035      865.006
01/30/2022  16:38:00      -30.459      -24.671       -7.704       29.142       21.536       22.518      849.270      463.796      507.050        0.171        0.091       39.197       12.967        0.109      338.384       10.999      865.018
01/30/2022  16:39:00      -11.246      -31.078      -32.392       25.242       20.592       17.148      637.175      424.034      294.046        0.175        0.068       33.050       13.195        0.159      338.362       10.962      865.012
01/30/2022  16:40:00        8.918      -13.623        4.278       16.334       32.960       20.721      266.790     1086.352      429.365        0.103        0.089       16.283       16.973        1.087      338.409       11.041      865.008
01/30/2022  16:41:00       13.776      -14.869       -3.718       13.701       14.520       11.910      187.713      210.830      141.838        0.048        0.027       20.270        8.393        0.171      338.437       11.087      864.997
01/30/2022  16:42:00        7.990      -11.608       -1.412       21.274       22.207       16.815      452.568      493.165      282.753        0.071        0.061       14.092       11.153        0.626      338.440       11.093      864.961
01/30/2022  16:43:00        7.040      -20.976       -4.775       38.036       29.728       16.480     1446.763      883.759      271.590        0.156        0.130       22.126       11.649        0.277      338.260       10.790      864.908
01/30/2022  16:44:00      -25.932        7.926      -11.387       39.434       27.581       23.233     1555.050      760.725      539.780        0.186        0.143       27.117       13.697        0.255      338.347       10.937      864.859
01/30/2022  16:45:00      -11.952      -20.033        0.305       31.302       36.739       27.985      979.835     1349.731      783.159        0.183        0.156       23.328       18.243        0.612      338.341       10.925      864.829
01/30/2022  16:46:00       30.582      -37.960      -15.916       29.983       42.274       22.157      898.979     1787.069      490.926        0.290        0.159       48.746       17.267        0.125      338.217       10.718      864.808
01/30/2022  16:47:00       15.298      -62.676      -23.582       30.659       34.454       17.168      939.953     1187.075      294.740        0.357        0.121       64.516       15.319        0.056      338.185       10.663      864.791
01/30/2022  16:48:00       29.630       -3.974      -19.824       36.343       49.056       31.187     1320.824     2406.536      972.638        0.299        0.235       29.895       24.780        0.687      338.153       10.609      864.773
01/30/2022  16:49:00        4.816      -11.251      -13.594       33.780       45.087       25.926     1141.063     2032.844      672.180        0.209        0.192       12.239       24.125        3.886      338.144       10.596      864.771
01/30/2022  16:50:00      -33.800        1.023      -26.579       20.016       24.017       13.334      400.632      576.828      177.790        0.150        0.058       33.816        6.005        0.032      338.309       10.873      864.774
01/30/2022  16:51:00      -12.867       12.419      -13.950       19.548       17.467       14.532      382.114      305.101      211.188        0.071        0.045       17.883        9.583        0.287      338.295       10.849      864.782
01/30/2022  16:52:00      -28.425        7.292        1.067       39.479       25.114       14.640     1558.592      630.698      214.330        0.163        0.120       29.346       16.478        0.315      338.159       10.622      864.781
01/30/2022  16:53:00        3.202      -11.375       -4.878       19.224       12.486       14.306      369.579      155.898      204.669        0.045        0.037       11.817       10.671        0.816      338.060       10.456      864.801
01/30/2022  16:54:00      -22.765        1.602       -6.252       21.146       20.086       10.937      447.159      403.458      119.607        0.076        0.049       22.822        9.067        0.158      338.216       10.717      864.809
01/30/2022  16:55:00       -4.293       -8.183        2.575       24.718       19.142       21.087      610.998      366.417      444.657        0.076        0.071        9.241       13.735        2.209      338.200       10.690      864.807
01/30/2022  16:56:00       -6.015      -34.715      -12.272       30.399       22.075       22.942      924.114      487.315      526.338        0.166        0.097       35.233       16.502        0.219      338.170       10.640      864.795
01/30/2022  16:57:00        1.565      -27.300      -18.155       23.700       28.957       20.782      561.699      838.530      431.890        0.145        0.092       27.345       14.114        0.266      338.219       10.722      864.776
01/30/2022  16:58:00       12.649      -71.982      -10.824       38.443       64.713       26.792     1477.855     4187.759      717.801        0.592        0.319       73.085       14.112        0.037      338.136       10.584      864.758
01/30/2022  16:59:00      -15.684      -24.071      -12.424       18.596       19.396       14.841      345.807      376.192      220.258        0.096        0.047       28.730        7.482        0.068      338.134       10.578      864.746
01/30/2022  17:00:00        9.295        0.010      -19.134       19.971       16.294       18.769      398.840      265.503      352.259        0.073        0.051        9.295       13.807        2.206      338.029       10.404      864.736
01/30/2022  17:01:00        0.651        8.459      -13.417       12.483       20.563       13.669      155.836      422.857      186.838        0.051        0.038        8.484        5.585        0.433      337.935       10.245      864.722
01/30/2022  17:02:00        2.608       23.182      -13.444       17.511       14.580       15.223      306.633      212.581      231.740        0.074        0.038       23.328        9.345        0.160      337.925       10.229      864.712
01/30/2022  17:03:00      -17.293      -23.509       -7.186       15.835       15.627       14.403      250.752      244.188      207.456        0.080        0.035       29.184       11.046        0.143      337.954       10.276      864.706
01/30/2022  17:04:00       -4.948       -9.924       -3.479       16.656       17.744       11.771      277.410      314.852      138.552        0.043        0.037       11.089        6.258        0.318      337.855       10.111      864.718
01/30/2022  17:05:00      -37.814       -5.645       -4.405       40.594       20.049       19.584     1647.837      401.963      383.551        0.196        0.122       38.234       15.476        0.164      337.894       10.176      864.732
01/30/2022  17:06:00      -55.622      -24.412      -15.787       55.518       33.062       28.421     3082.208     1093.071      807.732        0.446        0.249       60.743       18.236        0.090      337.984       10.327      864.741
01/30/2022  17:07:00      -43.141      -17.365       -4.068       44.503       24.422       17.770     1980.481      596.422      315.779        0.254        0.145       46.505       17.736        0.145      337.920       10.221      864.741
01/30/2022  17:08:00      -24.795       -6.781       -2.278       48.145       25.734       20.906     2317.908      662.220      437.073        0.204        0.171       25.705       13.427        0.273      337.970       10.306      864.735
01/30/2022  17:09:00        4.398       -3.371      -10.174       15.337       12.414       10.173      235.224      154.102      103.488        0.031        0.025        5.541        6.142        1.229      337.885       10.160      864.709
01/30/2022  17:10:00       -1.327        4.843       -5.861       31.231       15.953       15.062      975.395      254.495      226.851        0.076        0.073        5.022       14.458        8.289      338.002       10.358      864.693
01/30/2022  17:11:00      -32.879       -7.598       -4.908       23.438       24.687       12.670      549.327      609.446      160.537        0.124        0.066       33.746        8.008        0.056      337.978       10.316      864.698
01/30/2022  17:12:00      -37.681        4.277       -7.010       27.915       30.379       21.202      779.275      922.872      449.534        0.182        0.108       37.923       15.231        0.161      337.869       10.136      864.724
01/30/2022  17:13:00      -40.232        5.459        4.531       35.246       31.361       23.016     1242.266      983.532      529.743        0.221        0.138       40.601       14.116        0.121      337.817       10.046      864.770
01/30/2022  17:14:00      -21.195        3.273        1.744       37.142       25.900       18.087     1379.556      670.833      327.138        0.142        0.119       21.447       19.643        0.839      337.725        9.892      864.805
01/30/2022  17:15:00      -56.117       -6.282       -5.664       46.930       18.360       19.062     2202.448      337.102      363.353        0.306        0.145       56.467       19.373        0.118      337.809       10.035      864.819
01/30/2022  17:16:00      -29.527       -9.937       -5.019       28.731       18.550       19.428      825.464      344.116      377.451        0.127        0.077       31.155       13.902        0.199      337.821       10.053      864.823
01/30/2022  17:17:00      -21.021      -12.709       -3.636       20.731       15.082       10.626      429.775      227.460      112.915        0.069        0.039       24.564        8.084        0.108      337.846       10.096      864.828
01/30/2022  17:18:00      -22.813       -2.527       -2.200       25.504       30.152       18.286      650.430      909.145      334.389        0.121        0.095       22.953       14.459        0.397      337.593        9.670      864.850
01/30/2022  17:19:00      -93.718       24.476       -9.941       32.256       28.952       20.030     1040.431      838.241      401.193        0.588        0.114       96.862        7.658        0.006      337.492        9.502      864.878
01/30/2022  17:20:00     -117.270       51.567       -9.835       26.756       25.790       14.619      715.867      665.116      213.703        0.905        0.080      128.107       11.436        0.008      337.338        9.245      864.898
01/30/2022  17:21:00     -113.598       46.870      -10.250       22.263       18.236       15.222      495.648      332.536      231.713        0.813        0.053      122.887       12.676        0.011      337.207        9.025      864.898
01/30/2022  17:22:00     -108.109       48.301      -15.668       20.996       17.822       15.874      440.844      317.606      251.995        0.764        0.051      118.409       10.762        0.008      337.190        8.996      864.896
01/30/2022  17:23:00     -108.745       41.113      -13.424       17.303       14.799       11.654      299.398      218.998      135.821        0.718        0.033      116.258        9.222        0.006      337.199        9.012      864.904
01/30/2022  17:24:00      -65.426       11.277       -8.889       37.029       27.275       15.611     1371.158      743.930      243.706        0.342        0.118       66.391        9.649        0.021      337.155        8.939      864.919
01/30/2022  17:25:00      -76.822       31.565       -4.392       24.295       25.295       15.598      590.254      639.852      243.294        0.420        0.074       83.054       14.956        0.032      337.202        9.018      864.932
01/30/2022  17:26:00      -47.345       18.798       -0.615       39.144       21.122       17.751     1532.260      446.143      315.080        0.244        0.115       50.940       19.357        0.144      337.102        8.851      864.934
01/30/2022  17:27:00      -42.121        2.186       -9.772       34.595       24.281       17.316     1196.790      589.573      299.855        0.198        0.104       42.178       18.203        0.186      336.874        8.468      864.935
01/30/2022  17:28:00      -40.126        8.582      -13.049       23.424       32.200       21.011      548.667     1036.837      441.443        0.194        0.101       41.034       16.056        0.153      336.563        7.950      864.936
01/30/2022  17:29:00      -23.016       16.792      -11.870       33.989       21.053       22.492     1155.224      443.245      505.888        0.153        0.105       28.491       12.983        0.208      336.490        7.826      864.958
01/30/2022  17:30:00       -3.750       -1.044      -10.526       26.173       26.786       26.124      685.036      717.478      682.470        0.111        0.104        3.892       13.783       12.539      336.433        7.731      864.987
01/30/2022  17:31:00        4.284       10.076      -11.138       19.770       15.655       12.299      390.870      245.085      151.262        0.052        0.039       10.949        4.456        0.166      336.320        7.542      865.014
01/30/2022  17:32:00      -41.154      -14.978       -9.500       28.738       20.416       20.938      825.887      416.812      438.380        0.184        0.084       43.795       15.873        0.131      336.325        7.550      865.029
01/30/2022  17:33:00      -22.009        1.218      -10.385       26.021       22.891       17.694      677.103      524.009      313.091        0.105        0.076       22.042       12.130        0.303      336.397        7.670      865.028
01/30/2022  17:34:00      -58.860        3.309      -22.690       25.524       30.062       23.069      651.491      903.706      532.192        0.304        0.104       58.953       17.432        0.087      336.490        7.827      865.030
01/30/2022  17:35:00      -47.275        0.605      -16.746       27.221       23.640       22.232      740.971      558.829      494.240        0.215        0.090       47.278       16.426        0.121      336.420        7.711      865.042
01/30/2022  17:36:00      -66.230       -5.498      -20.756       42.499       31.481       22.783     1806.139      991.031      519.063        0.408        0.166       66.458       22.262        0.112      336.319        7.540      865.062
01/30/2022  17:37:00      -64.670        4.044      -19.641       26.484       26.184       24.418      701.411      685.607      596.252        0.328        0.099       64.796       17.612        0.074      336.258        7.439      865.086
01/30/2022  17:38:00      -33.851        7.289      -15.705       45.243       28.382       21.195     2046.952      805.549      449.214        0.237        0.165       34.627       21.514        0.386      336.243        7.415      865.113
01/30/2022  17:39:00       -6.824       -1.658      -10.256       30.690       23.741       19.455      941.859      563.636      378.498        0.102        0.094        7.022       16.890        5.785      336.079        7.139      865.134
01/30/2022  17:40:00      -39.393       -3.084      -13.073       38.598       32.119       24.240     1489.844     1031.640      587.555        0.242        0.155       39.514       16.655        0.178      336.028        7.055      865.141
01/30/2022  17:41:00      -21.056        7.653       -3.143       46.629       24.204       23.695     2174.261      585.849      561.453        0.192        0.166       22.404       21.538        0.924      335.978        6.971      865.140
01/30/2022  17:42:00      -71.311      -11.017      -19.404       42.191       36.537       26.232     1780.069     1334.949      688.113        0.469        0.190       72.157       24.739        0.118      336.012        7.028      865.148
01/30/2022  17:43:00     -155.430       48.816      -21.414       15.751       17.527       14.351      248.092      307.179      205.957        1.388        0.038      162.916        7.001        0.002      335.857        6.771      865.162
01/30/2022  17:44:00      -71.065        9.306      -15.584       47.646       29.734       25.297     2270.100      884.102      639.929        0.459        0.190       71.671       22.807        0.101      335.857        6.770      865.181
01/30/2022  17:45:00      -40.246        3.962      -12.186       50.814       33.664       28.782     2582.085     1133.267      828.397        0.316        0.227       40.441       29.640        0.537      335.829        6.723      865.176
01/30/2022  17:46:00      -70.675        7.816      -15.207       53.988       28.892       22.422     2914.669      834.737      502.731        0.477        0.213       71.106       25.566        0.129      335.818        6.704      865.159
01/30/2022  17:47:00      -72.693        3.245       -9.014       38.657       29.761       19.058     1494.385      885.688      363.192        0.406        0.137       72.766        9.385        0.017      335.769        6.623      865.147
01/30/2022  17:48:00      -73.121        8.796      -17.102       30.887       24.819       21.112      954.006      615.974      445.727        0.387        0.101       73.648       13.943        0.036      335.801        6.675      865.147
01/30/2022  17:49:00      -45.951       -0.131       -1.851       42.682       39.007       33.731     1821.773     1521.573     1137.770        0.330        0.224       45.951       26.211        0.325      335.637        6.403      865.167
01/30/2022  17:50:00      -75.722       14.894       -0.195       88.075       39.380       32.249     7757.183     1550.810     1040.004        0.815        0.517       77.173       41.338        0.287      335.559        6.273      865.198
01/30/2022  17:51:00     -152.416       20.086      -18.646       57.129       43.770       28.996     3263.687     1915.843      840.784        1.500        0.301      153.733       11.951        0.006      335.622        6.377      865.221
01/30/2022  17:52:00     -100.050       15.989       -7.182       64.369       51.687       30.483     4143.316     2671.517      929.220        0.903        0.387      101.320       30.663        0.092      335.544        6.248      865.251
01/30/2022  17:53:00     -113.063       32.239       -5.560       40.204       32.816       22.321     1616.344     1076.858      498.220        0.852        0.160      117.570       16.245        0.019      335.609        6.357      865.271
01/30/2022  17:54:00     -127.711       49.251      -10.694       24.710       26.488       18.046      610.606      701.593      325.665        1.024        0.082      136.879       11.267        0.007      335.671        6.458      865.297
01/30/2022  17:55:00      -84.955        3.851       -8.088       30.700       26.619       17.780      942.493      708.555      316.138        0.463        0.098       85.042       14.101        0.027      335.739        6.572      865.318
01/30/2022  17:56:00      -73.716       12.800      -13.280       41.773       26.553       20.878     1744.953      705.076      435.905        0.433        0.144       74.819       20.671        0.076      335.903        6.847      865.332
01/30/2022  17:57:00      -45.883        1.673       -9.999       27.503       29.040       18.616      756.401      843.339      346.562        0.208        0.097       45.913       10.578        0.053      335.883        6.813      865.339
01/30/2022  17:58:00      -72.127       13.006      -12.904       37.174       21.956       19.016     1381.892      482.054      361.621        0.388        0.111       73.290       17.219        0.055      335.972        6.961      865.345
01/30/2022  17:59:00      -98.909       36.441      -15.752       12.677       18.728        9.739      160.705      350.750       94.840        0.598        0.030      105.409        4.539        0.002      335.917        6.870      865.345
01/30/2022  18:00:00     -108.641       62.921      -17.300       26.451       19.461       20.465      699.670      378.715      418.819        0.878        0.075      125.547       11.360        0.008      335.862        6.779      865.357
01/30/2022  18:01:00     -104.103       47.675       -7.915       21.443       18.263       17.709      459.810      333.534      313.623        0.714        0.055      114.501       13.176        0.013      335.827        6.721      865.367
01/30/2022  18:02:00     -101.431       51.141       -4.461       26.851       17.785       17.691      720.950      316.320      312.987        0.714        0.068      113.594       14.422        0.016      335.808        6.689      865.382
01/30/2022  18:03:00     -115.772       46.001       -9.059       17.251       21.323       10.932      297.598      454.679      119.508        0.824        0.044      124.576        9.088        0.005      335.762        6.611      865.400
01/30/2022  18:04:00      -93.451       35.604       -3.014       27.730       31.666       17.061      768.951     1002.722      291.089        0.604        0.103      100.004       14.701        0.022      335.665        6.449      865.412
01/30/2022  18:05:00     -116.313       48.097      -11.532       20.816       20.439       19.259      433.292      417.737      370.911        0.860        0.061      125.865       10.775        0.007      335.564        6.281      865.419
01/30/2022  18:06:00     -115.760       40.498       -9.660       21.117       23.913       16.242      445.945      571.811      263.788        0.821        0.064      122.640        9.377        0.006      335.547        6.254      865.413
01/30/2022  18:07:00     -109.611       44.457      -16.695       29.395       26.656       12.509      864.068      710.544      156.477        0.800        0.087      118.283       10.967        0.009      335.473        6.131      865.413
01/30/2022  18:08:00      -96.288       33.742       -7.564       29.454       20.271       15.684      867.552      410.894      245.976        0.600        0.076      102.029       13.568        0.018      335.529        6.223      865.416
01/30/2022  18:09:00     -120.704       39.063       -9.101       15.614       21.706       14.835      243.792      471.156      220.085        0.856        0.047      126.868       10.399        0.007      335.603        6.346      865.422
01/30/2022  18:10:00     -110.575       39.199       -9.105       21.054       18.175       14.145      443.291      330.330      200.077        0.741        0.049      117.317       10.171        0.008      335.588        6.322      865.426
01/30/2022  18:11:00     -116.958       56.448      -11.820       33.259       26.371       25.473     1106.166      695.440      648.876        0.973        0.123      129.867       20.802        0.026      335.511        6.192      865.433
01/30/2022  18:12:00     -119.532       67.881      -11.437       42.310       29.223       24.814     1790.131      853.993      615.733        1.114        0.163      137.462       21.669        0.025      335.605        6.351      865.449
01/30/2022  18:13:00      -96.749       40.137       -0.068       52.224       33.497       27.226     2727.389     1122.059      741.230        0.778        0.230      104.745       28.230        0.073      335.463        6.112      865.464
01/30/2022  18:14:00     -104.955       47.601      -16.015       22.820       30.276       20.834      520.759      916.658      434.042        0.770        0.094      115.245        6.388        0.003      335.369        5.956      865.472
01/30/2022  18:15:00     -111.665       30.458      -17.666       24.740       27.851       17.259      612.061      775.663      297.872        0.770        0.084      115.744       15.172        0.017      335.276        5.802      865.474
01/30/2022  18:16:00     -106.139       19.797      -19.968       30.315       27.948       19.815      918.995      781.079      392.619        0.707        0.105      107.970        9.693        0.008      335.334        5.898      865.477
01/30/2022  18:17:00      -64.052       11.403       -7.444       34.571       23.850       17.101     1195.161      568.837      292.438        0.317        0.103       65.059       10.835        0.028      335.377        5.969      865.483
01/30/2022  18:18:00      -55.013       -4.352      -10.237       36.538       25.659       18.596     1334.993      658.367      345.809        0.274        0.117       55.185        9.731        0.031      335.310        5.857      865.483
01/30/2022  18:19:00      -57.718      -11.678       -7.608       31.390       17.319       14.614      985.323      299.951      213.567        0.251        0.075       58.888       12.960        0.048      335.457        6.103      865.468
01/30/2022  18:20:00      -59.496      -12.904       -8.650       31.688       19.714       20.667     1004.154      388.656      427.111        0.280        0.091       60.879       20.384        0.112      335.303        5.846      865.465
01/30/2022  18:21:00      -71.922      -19.472      -13.370       22.709       19.528       19.347      515.712      381.337      374.300        0.350        0.064       74.511       15.141        0.041      335.236        5.734      865.465
01/30/2022  18:22:00      -80.125      -11.292       -7.972       26.457       24.637       20.191      699.951      606.997      407.684        0.416        0.086       80.917       11.384        0.020      335.229        5.722      865.465
01/30/2022  18:23:00     -129.088       -2.933      -12.709       27.533       20.525       16.852      758.045      421.282      283.999        0.915        0.073      129.121       14.026        0.012      335.298        5.837      865.466
01/30/2022  18:24:00      -92.486      -10.389      -12.739       28.823       26.939       19.725      830.760      725.730      389.074        0.538        0.097       93.068        8.633        0.009      335.297        5.835      865.459
01/30/2022  18:25:00      -94.718       -3.314       -3.573       44.822       38.149       22.426     2008.979     1455.317      502.924        0.648        0.198       94.776       23.598        0.062      335.283        5.813      865.451
01/30/2022  18:26:00     -111.813        0.056        1.899       60.658       45.124       30.670     3679.363     2036.178      940.667        0.958        0.333      111.813       32.207        0.083      335.344        5.915      865.438
01/30/2022  18:27:00      -84.008       -6.719       -3.678       48.522       37.409       26.504     2354.429     1399.409      702.467        0.579        0.223       84.277       18.614        0.049      335.430        6.060      865.424
01/30/2022  18:28:00      -88.472      -18.489       -7.056       57.807       45.634       37.536     3341.670     2082.460     1408.958        0.752        0.342       90.383       30.789        0.116      335.405        6.017      865.409
01/30/2022  18:29:00      -82.872        0.244       -2.826       46.697       41.196       33.962     2180.613     1697.105     1153.384        0.595        0.252       82.873       26.504        0.102      335.382        5.978      865.391
01/30/2022  18:30:00      -82.274        4.169       -7.392       42.899       27.351       23.060     1840.338      748.057      531.758        0.498        0.156       82.379       14.076        0.029      335.373        5.964      865.370
01/30/2022  18:31:00     -100.986        7.991       -3.082       62.324       42.123       27.525     3884.237     1774.389      757.634        0.834        0.321      101.302       24.754        0.060      335.401        6.010      865.375
01/30/2022  18:32:00     -136.377        5.656       -1.139       74.911       44.865       31.133     5611.589     2012.880      969.233        1.361        0.430      136.494       31.430        0.053      335.396        6.000      865.384
01/30/2022  18:33:00      -92.765       -3.277      -11.698       63.516       43.993       23.198     4034.280     1935.383      538.150        0.763        0.325       92.823       24.311        0.069      335.344        5.915      865.403
01/30/2022  18:34:00     -101.039       34.221       -8.276       47.365       35.557       26.174     2243.479     1264.277      685.088        0.782        0.210      106.677       20.709        0.038      335.263        5.779      865.418
01/30/2022  18:35:00     -118.474       54.899       -8.671       37.231       38.564       27.919     1386.119     1487.199      779.476        1.039        0.183      130.576       24.628        0.036      335.153        5.598      865.413
01/30/2022  18:36:00     -123.971       40.855       -4.324       30.705       27.876       23.126      942.811      777.064      534.824        0.966        0.113      130.529       16.278        0.016      335.150        5.594      865.407
01/30/2022  18:37:00      -96.730       34.289       -6.930       35.279       26.809       21.844     1244.607      718.724      477.176        0.651        0.122      102.628       21.284        0.043      335.220        5.707      865.406
01/30/2022  18:38:00     -103.448       53.060      -17.024       12.862       15.840       11.671      165.439      250.913      136.220        0.718        0.028      116.262        7.453        0.004      335.247        5.753      865.412
01/30/2022  18:39:00      -86.746       38.118      -13.472       20.918       19.609       14.970      437.560      384.496      224.107        0.510        0.052       94.752       10.364        0.012      335.329        5.889      865.416
01/30/2022  18:40:00      -66.484       12.950       -8.802       26.050       17.985       15.320      678.580      323.450      234.692        0.295        0.062       67.734       10.820        0.026      335.383        5.979      865.430
01/30/2022  18:41:00       -8.744      -17.860       -6.739       14.198       14.390       12.760      201.576      207.067      162.811        0.051        0.029       19.886       10.158        0.261      335.345        5.917      865.441
01/30/2022  18:42:00       -7.937      -12.443      -19.459       18.871       13.100       15.589      356.113      171.618      243.002        0.068        0.039       14.758        7.932        0.289      335.059        5.442      865.461
01/30/2022  18:43:00      -27.554      -23.491      -16.912       24.707       13.671       12.064      610.445      186.905      145.530        0.127        0.047       36.209       11.713        0.105      335.031        5.396      865.467
01/30/2022  18:44:00      -46.992       11.828       -6.882       21.322       23.561       15.274      454.607      555.110      233.286        0.182        0.062       48.458       11.361        0.055      335.092        5.496      865.471
01/30/2022  18:45:00      -35.149       -7.087       -5.090       25.693       20.740       16.220      660.156      430.155      263.093        0.133        0.068       35.856       14.722        0.169      334.971        5.296      865.466
01/30/2022  18:46:00      -32.537        3.769       -1.578       28.584       24.127       20.462      817.037      582.091      418.688        0.145        0.091       32.754       13.959        0.182      334.975        5.303      865.467
01/30/2022  18:47:00      -45.705        0.822        0.351       30.711       28.844       21.490      943.172      831.988      461.837        0.216        0.112       45.712       12.983        0.081      334.877        5.139      865.460
01/30/2022  18:48:00      -95.622        8.215        3.788       50.732       29.811       21.119     2573.760      888.723      446.014        0.657        0.195       95.974       16.862        0.031      335.041        5.412      865.446
01/30/2022  18:49:00      -39.299      -11.793        6.443       47.910       21.734       21.224     2295.330      472.371      450.474        0.247        0.161       41.030       22.064        0.289      335.079        5.477      865.433
01/30/2022  18:50:00      -47.675      -14.981       -1.531       34.471       23.993       21.317     1188.219      575.652      454.423        0.236        0.111       49.973       17.941        0.129      335.237        5.737      865.430
01/30/2022  18:51:00      -69.191      -21.051      -19.248       30.299       28.119       17.056      918.032      790.658      290.920        0.380        0.100       72.322        4.317        0.004      335.335        5.899      865.429
01/30/2022  18:52:00      -33.460       -0.293      -24.560       17.081       14.204       21.817      291.774      201.758      475.960        0.135        0.048       33.462        6.795        0.041      335.300        5.842      865.409
01/30/2022  18:53:00      -19.013        3.650       -5.405       21.881       15.476       18.582      478.785      239.517      345.305        0.073        0.053       19.360       10.232        0.279      335.128        5.557      865.386
01/30/2022  18:54:00      -38.831       -5.579       -6.231       27.003       28.447       17.438      729.142      809.223      304.077        0.171        0.092       39.230       10.871        0.077      335.177        5.637      865.370
01/30/2022  18:55:00      -39.186       -6.851       -0.671       35.929       22.817       15.525     1290.913      520.603      241.037        0.182        0.103       39.780       16.336        0.169      335.170        5.626      865.351
01/30/2022  18:56:00       -9.240        2.085       -3.734       20.377       20.587       11.230      415.204      423.845      126.104        0.053        0.048        9.472        9.063        0.915      334.992        5.332      865.349
01/30/2022  18:57:00      -24.686       17.798       -5.073       15.211       19.231       10.779      231.369      369.840      116.192        0.083        0.036       30.433        8.329        0.075      334.947        5.258      865.332
01/30/2022  18:58:00       16.386       46.032       -3.022       21.923       25.111       13.798      480.602      630.568      190.384        0.185        0.065       48.862        4.233        0.008      334.841        5.081      865.321
01/30/2022  18:59:00       -4.903       61.136       -8.021        8.931       21.456       12.345       79.771      460.339      152.396        0.226        0.035       61.332        7.307        0.014      335.055        5.435      865.302
01/30/2022  19:00:00       23.646       74.432       -6.592       24.338       28.300       15.147      592.354      800.916      229.422        0.388        0.081       78.098        9.583        0.015      334.883        5.152      865.304
01/30/2022  19:01:00       33.661       30.623       -8.208       19.078       24.006       15.691      363.980      576.267      246.223        0.166        0.059       45.506       11.768        0.067      334.665        4.785      865.300
01/30/2022  19:02:00       17.183       29.017       -6.563       15.987       17.878       13.657      255.596      319.617      186.507        0.097        0.038       33.723       12.352        0.134      334.650        4.760      865.285
01/30/2022  19:03:00       -2.495       14.865       -7.044       14.054        8.843       11.535      197.506       78.198      133.054        0.034        0.020       15.073        8.003        0.282      334.780        4.978      865.270
01/30/2022  19:04:00        4.944       24.243        1.899       18.598       12.150       11.860      345.871      147.625      140.669        0.062        0.032       24.742        7.528        0.093      334.722        4.883      865.250
01/30/2022  19:05:00       10.622       44.831       -5.708       16.202       13.950        9.730      262.509      194.613       94.667        0.135        0.028       46.072        6.916        0.023      334.949        5.261      865.239
01/30/2022  19:06:00        5.123       35.767        1.871       12.801       14.555        8.482      163.872      211.858       71.949        0.088        0.022       36.132        3.588        0.010      334.992        5.330      865.240
01/30/2022  19:07:00        2.425       20.113       -5.388       19.554       14.579       14.228      382.367      212.552      202.445        0.062        0.040       20.259       11.929        0.347      334.963        5.283      865.235
01/30/2022  19:08:00      -35.337        3.511      -16.373       16.113       10.215        9.155      259.629      104.339       83.821        0.099        0.022       35.511        5.884        0.027      334.726        4.890      865.227
01/30/2022  19:09:00      -44.235       10.670      -17.334       10.953        8.875        8.517      119.969       78.758       72.536        0.132        0.014       45.504        5.713        0.016      334.870        5.127      865.219
01/30/2022  19:10:00      -57.096       20.955      -16.837       23.103       14.302       11.021      533.756      204.541      121.466        0.242        0.043       60.820        6.969        0.013      334.682        4.814      865.200
01/30/2022  19:11:00      -44.703       -2.253      -14.716       23.591       22.112       11.968      556.546      488.923      143.239        0.170        0.059       44.760        7.138        0.025      334.245        4.090      865.190
01/30/2022  19:12:00      -38.588        8.743       -9.615       25.212       26.207       15.535      635.647      686.798      241.341        0.161        0.078       39.566        7.188        0.033      334.194        4.005      865.169
01/30/2022  19:13:00      -35.546        3.909      -20.531       21.286       14.155       14.607      453.095      200.370      213.360        0.128        0.043       35.760       11.261        0.099      334.409        4.363      865.144
01/30/2022  19:14:00      -44.699       20.899      -21.968       17.348       10.888       11.773      300.970      118.547      138.596        0.174        0.028       49.343        5.490        0.012      334.549        4.594      865.129
01/30/2022  19:15:00      -54.438        2.676      -13.978       15.292       18.009       14.135      233.841      324.338      199.793        0.196        0.038       54.503        3.990        0.005      334.170        3.965      865.111
01/30/2022  19:16:00      -96.981       12.125      -26.562       25.708       25.726       16.975      660.916      661.819      288.156        0.593        0.081       97.736       10.077        0.011      334.111        3.868      865.112
01/30/2022  19:17:00      -84.457       16.212      -25.047       19.141       19.032       14.044      366.371      362.203      197.244        0.447        0.046       85.999        8.351        0.009      334.150        3.932      865.124
01/30/2022  19:18:00      -89.851       24.527      -18.333       18.210       14.470       16.264      331.619      209.378      264.521        0.491        0.040       93.138       10.525        0.013      334.241        4.083      865.146
01/30/2022  19:19:00      -92.815       14.039      -12.404       30.778       17.773       18.685      947.311      315.868      349.120        0.529        0.081       93.871       11.242        0.014      334.335        4.238      865.166
01/30/2022  19:20:00      -78.198       20.989       -7.965       38.323       31.403       19.573     1468.657      986.160      383.095        0.473        0.142       80.966       13.957        0.030      334.294        4.171      865.193
01/30/2022  19:21:00     -101.701       26.049      -15.983       28.226       23.830       16.258      796.713      567.854      264.312        0.645        0.081      104.984       11.369        0.012      334.300        4.181      865.229
01/30/2022  19:22:00     -104.527       33.912       -7.342       19.704       19.851       12.696      388.234      394.071      161.188        0.654        0.047      109.890       11.337        0.011      334.215        4.040      865.269
01/30/2022  19:23:00      -85.614       36.143      -11.517       26.179       19.079       14.101      685.331      363.994      198.842        0.501        0.062       92.930       14.080        0.023      334.086        3.826      865.294
01/30/2022  19:24:00      -74.459       22.456       -9.996       29.866       26.992       15.740      891.970      728.592      247.743        0.401        0.093       77.772       12.074        0.024      334.105        3.858      865.324
01/30/2022  19:25:00     -102.062       51.403       -6.685       37.665       23.638       22.193     1418.669      558.737      492.537        0.779        0.123      114.276       19.327        0.029      334.098        3.846      865.348
01/30/2022  19:26:00     -123.404       36.848      -11.622       30.930       25.190       19.838      956.655      634.551      393.554        0.935        0.099      128.788        9.380        0.005      334.008        3.696      865.368
01/30/2022  19:27:00      -46.053        3.083       -5.614       34.759       30.287       22.194     1208.173      917.302      492.556        0.239        0.131       46.156       18.944        0.168      333.975        3.643      865.386
01/30/2022  19:28:00      -58.786       15.500      -11.497       32.556       31.042       19.155     1059.921      963.581      366.912        0.311        0.120       60.795       21.505        0.125      333.936        3.579      865.394
01/30/2022  19:29:00      -99.898       40.478      -16.915       13.956       13.282       12.444      194.766      176.399      154.844        0.622        0.026      107.787        5.702        0.003      334.063        3.788      865.401
01/30/2022  19:30:00      -81.716       21.905      -15.476       13.688       11.635       11.611      187.354      135.378      134.818        0.393        0.023       84.601        3.150        0.001      334.100        3.850      865.385
01/30/2022  19:31:00      -67.733       37.168      -10.126       12.485       12.240        9.638      155.873      149.819       92.886        0.324        0.020       77.261        4.189        0.003      334.424        4.387      865.360
01/30/2022  19:32:00     -116.821       21.623      -15.684       43.937       34.894       23.867     1930.489     1217.564      569.627        0.904        0.186      118.805       21.515        0.033      334.285        4.157      865.356
01/30/2022  19:33:00     -107.690       30.308      -10.850       80.058       53.055       35.164     6409.331     2814.856     1236.517        1.155        0.523      111.873       32.326        0.083      333.919        3.548      865.358
01/30/2022  19:34:00     -139.338       66.588      -13.302       46.381       47.558       26.165     2151.158     2261.725      684.596        1.456        0.255      154.432       16.082        0.011      333.928        3.564      865.354
01/30/2022  19:35:00     -120.371       49.629      -20.049       23.173       26.201       15.870      536.976      686.473      251.854        0.941        0.074      130.201        9.896        0.006      334.026        3.727      865.345
01/30/2022  19:36:00     -121.461       33.320      -17.965       34.918       24.366       17.700     1219.254      593.684      313.277        0.916        0.106      125.948        9.148        0.005      334.076        3.809      865.346
01/30/2022  19:37:00     -118.841       29.493      -14.877       72.842       34.816       26.110     5305.972     1212.149      681.748        1.121        0.360      122.446       24.553        0.040      333.947        3.597      865.357
01/30/2022  19:38:00      -92.355       12.398      -21.056       62.166       43.098       30.944     3864.650     1857.477      957.527        0.790        0.334       93.184       29.394        0.100      333.832        3.405      865.383
01/30/2022  19:39:00     -123.577       14.232      -10.287       63.569       40.001       28.031     4040.998     1600.117      785.733        1.100        0.321      124.394       22.665        0.033      333.876        3.479      865.413
01/30/2022  19:40:00     -122.131       21.027      -14.020       69.012       54.567       31.943     4762.627     2977.608     1020.328        1.216        0.438      123.928       15.978        0.017      333.807        3.364      865.427
01/30/2022  19:41:00      -60.574       15.568      -15.364       52.951       42.326       26.989     2803.815     1791.506      728.406        0.473        0.266       62.543       12.847        0.042      333.740        3.254      865.433
01/30/2022  19:42:00      -32.219        1.200      -18.989       41.700       28.987       21.323     1738.872      840.270      454.657        0.222        0.152       32.242       20.691        0.412      333.770        3.302      865.435
01/30/2022  19:43:00      -45.002       -0.208      -20.353       37.090       36.906       27.043     1375.643     1362.088      731.308        0.295        0.173       45.002       19.545        0.189      333.704        3.194      865.440
01/30/2022  19:44:00      -19.105        6.452       -3.484       37.961       24.888       26.255     1441.064      619.424      689.324        0.158        0.137       20.165       24.739        1.505      333.747        3.265      865.454
01/30/2022  19:45:00      -74.768       28.822      -27.100       67.800       42.616       32.990     4596.810     1816.085     1088.361        0.733        0.375       80.130       31.131        0.151      333.727        3.231      865.490
01/30/2022  19:46:00     -166.931       53.713      -22.116       66.583       42.081       35.856     4433.292     1770.848     1285.670        1.936        0.374      175.360       30.272        0.030      333.665        3.127      865.519
01/30/2022  19:47:00      -82.355        9.958       -2.033       54.395       40.747       32.556     2958.832     1660.308     1059.861        0.628        0.284       82.955       24.226        0.085      333.716        3.215      865.538
01/30/2022  19:48:00      -91.748       20.661       -6.922       57.470       39.287       28.388     3302.792     1543.506      805.882        0.727        0.283       94.045       30.526        0.105      333.821        3.387      865.541
01/30/2022  19:49:00     -106.735       13.863       -1.747       59.906       35.720       25.381     3588.671     1275.939      644.194        0.855        0.275      107.631       30.511        0.080      333.835        3.412      865.545
01/30/2022  19:50:00      -82.138       11.496       -0.553       63.257       32.756       26.691     4001.389     1072.979      712.428        0.633        0.289       82.938       31.367        0.143      333.825        3.395      865.539
01/30/2022  19:51:00      -65.779        3.235        6.179       39.408       31.055       26.359     1552.980      964.412      694.803        0.379        0.161       65.858       20.774        0.099      333.930        3.570      865.530
01/30/2022  19:52:00     -101.898       22.828       -1.242       55.449       36.069       26.693     3074.599     1300.959      712.492        0.800        0.254      104.423       20.175        0.037      334.151        3.933      865.530
01/30/2022  19:53:00      -97.246       17.004        1.209       48.965       39.847       22.939     2397.574     1587.808      526.175        0.713        0.226       98.722       16.456        0.028      334.133        3.904      865.540
01/30/2022  19:54:00      -98.285       23.094       -3.399       56.250       41.090       23.948     3164.093     1688.357      573.519        0.781        0.271      100.962       27.704        0.075      333.939        3.584      865.551
01/30/2022  19:55:00      -94.909       -6.256       -3.388       50.092       37.949       28.472     2509.212     1440.104      810.640        0.691        0.238       95.115       19.237        0.041      333.923        3.558      865.558
01/30/2022  19:56:00       17.595       -3.746       -6.810       42.936       34.355       35.010     1843.507     1180.245     1225.685        0.231        0.212       17.990       24.155        1.803      333.769        3.300      865.572
01/30/2022  19:57:00     -115.325       48.925      -20.128       80.449       32.711       27.579     6472.112     1069.994      760.611        1.220        0.415      125.274       26.354        0.044      333.806        3.361      865.587
01/30/2022  19:58:00     -197.296       69.549       -3.182       41.440       42.712       28.625     1717.279     1824.330      819.416        2.407        0.218      209.195       22.496        0.012      333.811        3.368      865.604
01/30/2022  19:59:00     -151.324       48.635      -16.860       78.942       47.505       32.315     6231.834     2256.700     1044.266        1.754        0.477      158.948       38.061        0.057      333.899        3.515      865.614
01/30/2022  20:00:00     -101.798       13.950       -3.672       70.343       48.992       38.722     4948.149     2400.188     1499.418        0.971        0.442      102.749       31.611        0.095      333.856        3.444      865.621
01/30/2022  20:01:00     -140.564       50.007       -6.125       71.354       35.500       32.814     5091.325     1260.247     1076.773        1.486        0.371      149.194       33.406        0.050      333.920        3.550      865.634
01/30/2022  20:02:00      -73.896       11.828      -10.205       63.962       43.622       34.442     4091.123     1902.887     1186.222        0.644        0.359       74.836       37.171        0.247      333.887        3.498      865.641
01/30/2022  20:03:00     -110.857       59.598      -15.710       56.885       33.817       27.276     3235.883     1143.599      743.975        1.060        0.256      125.862       25.753        0.042      333.945        3.591      865.658
01/30/2022  20:04:00     -132.956       52.535      -36.923       59.335       41.845       36.853     3520.687     1751.021     1358.128        1.421        0.331      142.959       33.192        0.054      333.944        3.591      865.671
01/30/2022  20:05:00     -101.268       79.233      -34.919       33.684       46.464       29.373     1134.584     2158.915      862.790        1.095        0.208      128.581       16.420        0.016      334.094        3.839      865.685
01/30/2022  20:06:00     -100.053       81.040      -19.028       44.273       44.752       25.275     1960.076     2002.772      638.824        1.077        0.230      128.756       21.591        0.028      334.342        4.251      865.676
01/30/2022  20:07:00      -42.932       23.480      -17.657       57.857       33.873       30.464     3347.484     1147.376      928.032        0.406        0.271       48.933       23.655        0.234      334.279        4.146      865.665
01/30/2022  20:08:00     -114.484       17.922      -20.334       77.441       51.848       38.272     5997.120     2688.175     1464.768        1.199        0.508      115.878       25.607        0.049      334.010        3.699      865.683
01/30/2022  20:09:00     -146.188       65.884      -15.143       80.910       46.498       33.275     6546.387     2162.104     1107.218        1.788        0.491      160.349       31.095        0.038      334.427        4.391      865.694
01/30/2022  20:10:00      -44.949       73.292       -6.480       45.105       31.810       22.331     2034.490     1011.876      498.680        0.549        0.177       85.978       16.339        0.036      334.929        5.225      865.698
01/30/2022  20:11:00       -2.292       30.198       -5.338       15.469       24.178       15.833      239.296      584.557      250.686        0.101        0.054       30.285        4.080        0.018      334.881        5.146      865.692
01/30/2022  20:12:00      -18.163        9.918       -6.066       27.780       22.981       18.422      771.741      528.132      339.360        0.105        0.082       20.695        8.857        0.183      334.277        4.142      865.703
01/30/2022  20:13:00      -53.864       34.820      -19.009       23.897       16.592       11.961      571.067      275.295      143.073        0.273        0.049       64.139        7.069        0.012      334.116        3.875      865.699
01/30/2022  20:14:00       17.138       37.695      -11.658       20.875       16.460       10.764      435.760      270.938      115.866        0.134        0.041       41.408        5.579        0.018      334.898        5.174      865.676
01/30/2022  20:15:00       44.318       15.773      -11.857       17.255        9.971       12.591      297.735       99.421      158.528        0.145        0.028       47.041        7.045        0.022      335.091        5.494      865.656
01/30/2022  20:16:00       -7.773       -6.594       -7.216       24.954       15.173       15.333      622.707      230.219      235.087        0.062        0.054       10.193       13.514        1.758      334.602        4.683      865.648
01/30/2022  20:17:00      -62.176       -8.169      -16.995       30.295       19.348       20.996      917.760      374.354      440.813        0.298        0.087       62.711       15.376        0.060      334.113        3.871      865.649
01/30/2022  20:18:00      -79.107       -2.955      -12.916       28.724       27.291       23.753      825.062      744.814      564.195        0.428        0.107       79.162       13.576        0.029      334.067        3.794      865.665
01/30/2022  20:19:00      -42.863       38.054      -14.724       17.959       16.603       11.406      322.531      275.667      130.091        0.212        0.036       57.318       10.637        0.034      334.482        4.481      865.656
01/30/2022  20:20:00        7.785       12.877      -12.536       16.047       11.827        9.497      257.519      139.888       90.191        0.044        0.024       15.048        7.054        0.220      335.066        5.453      865.632
01/30/2022  20:21:00      -76.421        4.838      -22.334       38.296       19.100       18.805     1466.563      364.817      353.645        0.427        0.109       76.574       21.052        0.076      334.462        4.450      865.624
01/30/2022  20:22:00      -82.802      -18.799      -15.509       57.182       33.379       27.969     3269.808     1114.150      782.248        0.631        0.258       84.909       31.403        0.137      334.002        3.688      865.615
01/30/2022  20:23:00      -74.774       18.790      -17.833       19.214       14.210       12.091      369.173      201.916      146.184        0.349        0.036       77.099        2.238        0.001      334.189        3.997      865.578
01/30/2022  20:24:00      -87.654       56.580      -12.252       34.708       26.107       20.512     1204.677      681.573      420.761        0.667        0.115      104.329       14.890        0.020      334.211        4.034      865.567
01/30/2022  20:25:00      -18.934       18.463       -1.508       23.510       32.511       13.815      552.703     1056.968      190.847        0.125        0.090       26.446       14.412        0.297      334.294        4.172      865.563
01/30/2022  20:26:00      -26.035        2.370       -2.737       47.385       49.897       37.788     2245.335     2489.760     1427.931        0.343        0.308       26.143       29.561        1.279      333.858        3.449      865.578
01/30/2022  20:27:00      -44.521        7.324       12.274       75.440       70.906       52.128     5691.164     5027.639     2717.352        0.781        0.672       45.119       43.744        0.940      333.762        3.289      865.634
01/30/2022  20:28:00       70.679       16.436      -13.594       64.961       63.213       41.082     4219.991     3995.927     1687.720        0.768        0.495       72.565       38.764        0.285      334.008        3.698      865.588
01/30/2022  20:29:00       -9.149       -5.659      -26.067       85.016       74.436       44.982     7227.685     5540.772     2023.336        0.779        0.740       10.757       34.366       10.206      334.171        3.968      865.516
01/30/2022  20:30:00     -171.639      -57.294      -20.346      158.777       90.424       66.010    25210.276     8176.562     4357.296        3.544        1.887      180.949       57.001        0.099      334.338        4.244      865.584
01/30/2022  20:31:00      -12.937        5.615      -20.138       99.494       78.270       59.311     9899.119     6126.120     3517.822        1.007        0.977       14.103       35.098        6.193      334.683        4.817      865.514
01/30/2022  20:32:00      -95.813      -55.139      -27.215      107.924       94.702       52.532    11647.606     8968.536     2759.661        1.816        1.169      110.547       24.612        0.050      335.368        5.956      865.523
01/30/2022  20:33:00      -31.979      -25.094      -20.569       59.011       66.055       32.827     3482.264     4363.258     1077.591        0.550        0.446       40.649       33.916        0.696      335.237        5.738      865.455
01/30/2022  20:34:00       -4.352       -1.478       -8.085       48.878       33.925       27.782     2389.028     1150.874      771.849        0.220        0.216        4.596       21.773       22.440      334.490        4.497      865.465
01/30/2022  20:35:00      -76.618       10.377      -12.217       48.462       31.029       17.420     2348.592      962.770      303.450        0.487        0.181       77.318       18.049        0.054      334.131        3.900      865.464
01/30/2022  20:36:00      -49.465       -2.207      -22.498       54.988       28.147       17.434     3023.678      792.270      303.957        0.354        0.206       49.514       24.452        0.244      334.444        4.418      865.444
01/30/2022  20:37:00      -63.663       31.946       -9.881       70.509       33.183       18.703     4971.545     1101.087      349.786        0.580        0.321       71.229       11.166        0.025      334.251        4.099      865.447
01/30/2022  20:38:00      -74.979       23.815      -12.257       62.206       34.041       20.221     3869.584     1158.782      408.899        0.589        0.272       78.671       14.560        0.034      334.515        4.538      865.440
01/30/2022  20:39:00      -94.009        8.440      -11.209       62.070       38.932       25.813     3852.727     1515.729      666.287        0.753        0.302       94.387       27.723        0.086      334.230        4.065      865.497
01/30/2022  20:40:00      -61.410       21.300       -7.676       27.501       27.847       15.914      756.332      775.431      253.242        0.303        0.089       64.999        6.887        0.011      334.216        4.042      865.510
01/30/2022  20:41:00      -82.103       23.643      -15.877       43.279       27.914       20.988     1873.109      779.196      440.486        0.532        0.155       85.439       18.756        0.048      334.172        3.968      865.527
01/30/2022  20:42:00      -28.313      -10.819      -10.413       27.202       12.250       11.985      739.972      150.063      143.629        0.103        0.052       30.310       12.148        0.161      334.317        4.209      865.539
01/30/2022  20:43:00      -60.893      -10.139      -10.136       39.575       24.150       25.945     1566.190      583.243      673.146        0.337        0.141       61.732       23.477        0.145      334.215        4.040      865.534
01/30/2022  20:44:00      -32.569       -6.920       -2.780       28.959       28.070       18.676      838.602      787.928      348.778        0.155        0.099       33.296       14.519        0.190      334.208        4.028      865.539
01/30/2022  20:45:00      -74.452      -16.782      -11.074       37.616       30.833       22.396     1414.992      950.659      501.598        0.441        0.143       76.320       18.431        0.058      334.395        4.338      865.528
01/30/2022  20:46:00      -62.252      -28.311      -16.227       15.060       19.967       11.561      226.803      398.670      133.659        0.285        0.038       68.387        9.106        0.018      334.628        4.724      865.494
01/30/2022  20:47:00      -54.307        5.391      -16.588       33.255       20.436       18.918     1105.927      417.620      357.882        0.257        0.094       54.574       18.336        0.113      334.466        4.456      865.487
01/30/2022  20:48:00      -43.579        2.344       -5.806       35.273       21.130       17.964     1244.205      446.483      322.715        0.198        0.101       43.642       15.943        0.133      334.156        3.941      865.492
01/30/2022  20:49:00      -26.557       -5.680       -3.329       14.410       16.659        8.787      207.638      277.510       77.207        0.066        0.028       27.158        8.215        0.092      334.292        4.166      865.487
01/30/2022  20:50:00      -13.006       20.026      -10.689       28.382       10.152        8.021      805.514      103.059       64.336        0.083        0.049       23.879        8.320        0.121      334.301        4.183      865.479
01/30/2022  20:51:00       65.795        7.191      -13.750       29.926       27.993       16.926      895.569      783.582      286.482        0.327        0.098       66.187       17.049        0.066      334.376        4.306      865.445
01/30/2022  20:52:00       39.355        0.143      -16.904       37.133       36.049       32.119     1378.832     1299.505     1031.610        0.277        0.185       39.355       19.900        0.256      334.268        4.128      865.445
01/30/2022  20:53:00       36.637       25.070       -9.968       24.655       14.436       13.682      607.893      208.398      187.197        0.154        0.050       44.393       13.168        0.088      334.073        3.805      865.495
01/30/2022  20:54:00        3.088       21.511       -5.838       17.746       13.313        9.905      314.924      177.232       98.115        0.055        0.030       21.731        6.450        0.088      334.193        4.002      865.554
01/30/2022  20:55:00      -58.113       12.968      -14.525       34.607       27.740       14.153     1197.636      769.486      200.309        0.296        0.108       59.542       13.313        0.050      333.937        3.580      865.587
01/30/2022  20:56:00        0.220        3.759      -13.380       11.858        5.951        7.728      140.621       35.417       59.724        0.021        0.012        3.765        5.605        2.216      334.066        3.794      865.579
01/30/2022  20:57:00       22.972       19.905      -10.858        8.555       12.237       11.703       73.183      149.749      136.971        0.070        0.018       30.396        5.704        0.035      334.334        4.238      865.582
01/30/2022  20:58:00        8.741       41.778      -11.649       13.643       10.735        8.794      186.119      115.250       77.338        0.117        0.019       42.683        9.339        0.048      334.569        4.625      865.607
01/30/2022  20:59:00       -6.997       31.467       -9.642       18.249       19.356       12.908      333.042      374.651      166.624        0.100        0.044       32.235        5.558        0.030      334.474        4.470      865.640
01/30/2022  21:00:00      -51.577       20.107      -16.494       28.759       25.119       13.761      827.108      630.986      189.371        0.249        0.082       55.358       12.781        0.053      334.288        4.161      865.668
01/30/2022  21:01:00      -82.668       17.030      -18.449       65.570       37.092       23.224     4299.381     1375.850      539.354        0.684        0.311       84.404       24.597        0.085      333.867        3.464      865.705
01/30/2022  21:02:00      -32.415       -8.605       -7.929       32.110       18.673       20.240     1031.077      348.676      409.645        0.149        0.089       33.538       19.309        0.331      333.814        3.375      865.710
01/30/2022  21:03:00      -51.318       -1.489       -8.435       25.489       18.364       12.069      649.693      337.227      145.652        0.192        0.057       51.340       13.033        0.064      334.039        3.749      865.682
01/30/2022  21:04:00     -111.146       23.862      -12.920       57.624       32.579       25.145     3320.472     1061.376      632.268        0.905        0.251      113.679       22.508        0.039      333.975        3.645      865.693
01/30/2022  21:05:00      -96.167       21.775       -6.957       43.212       21.121       22.423     1867.305      446.088      502.782        0.629        0.141       98.601       13.762        0.019      334.041        3.751      865.694
01/30/2022  21:06:00      -13.134      -30.392      -15.871       36.088       49.147       17.282     1302.330     2415.409      298.684        0.268        0.201       33.108       25.394        0.588      334.388        4.327      865.677
01/30/2022  21:07:00       69.090      -80.768      -45.788       40.286       48.552       25.813     1622.971     2357.253      666.332        0.902        0.232      106.286       16.801        0.025      334.359        4.278      865.666
01/30/2022  21:08:00       -2.563      -49.782      -25.339       33.375       50.250       21.988     1113.871     2525.106      483.451        0.362        0.206       49.848       18.659        0.140      334.450        4.431      865.649
01/30/2022  21:09:00      -60.553       27.721       -4.989       30.699       33.949       19.803      942.403     1152.547      392.173        0.347        0.124       66.597       15.430        0.054      333.939        3.583      865.655
01/30/2022  21:10:00      -28.302       10.747       -7.550       19.217       14.602       13.236      369.301      213.220      175.192        0.087        0.038       30.274        5.202        0.030      333.992        3.670      865.613
01/30/2022  21:11:00      -13.854        3.271       -7.893        7.346        9.408        7.454       53.970       88.510       55.561        0.023        0.010       14.235        5.752        0.163      334.321        4.216      865.576
01/30/2022  21:12:00       -4.732       -0.857       -8.341        5.481        4.975        4.227       30.037       24.746       17.869        0.008        0.004        4.809        2.973        0.382      334.451        4.431      865.565
01/30/2022  21:13:00      -17.901       11.939       -8.735       23.042        8.530        7.454      530.952       72.754       55.557        0.060        0.033       21.517        9.166        0.181      334.481        4.481      865.569
01/30/2022  21:14:00      -56.192       14.271      -15.126       27.408       21.292       12.139      751.221      453.335      147.349        0.247        0.068       57.976        8.879        0.023      334.109        3.866      865.596
01/30/2022  21:15:00      -53.497       39.844       -7.727       14.373        9.849        9.266      206.593       96.996       85.851        0.245        0.019       66.704        7.845        0.014      333.978        3.648      865.589
01/30/2022  21:16:00      -57.309       36.366       -6.625       21.726       13.249        9.124      472.032      175.543       83.241        0.269        0.037       67.874        8.443        0.015      334.021        3.721      865.574
01/30/2022  21:17:00       -7.020       27.310       -1.120       26.813       21.806       11.780      718.948      475.517      138.773        0.106        0.067       28.198        9.502        0.114      334.280        4.149      865.572
01/30/2022  21:18:00      -46.897       22.839      -12.670       21.338       12.842        9.442      455.302      164.912       89.148        0.180        0.035       52.162        3.890        0.006      333.840        3.419      865.571
01/30/2022  21:19:00      -53.281       21.199      -16.307       24.454       21.577       11.880      597.987      465.560      141.144        0.238        0.060       57.343        5.339        0.009      333.717        3.215      865.547
01/30/2022  21:20:00      -11.741        1.894       -8.469       18.263       18.197       10.238      333.536      331.140      104.819        0.049        0.038       11.893       10.247        0.742      333.725        3.227      865.512
01/30/2022  21:21:00       -4.407        5.292       -2.911       10.297       13.467        8.196      106.026      181.361       67.180        0.021        0.018        6.886        6.024        0.765      333.804        3.358      865.473
01/30/2022  21:22:00      -33.292       15.108      -15.274       14.341       17.972       12.578      205.663      322.976      158.204        0.113        0.034       36.560        8.526        0.054      333.865        3.460      865.456
01/30/2022  21:23:00      -24.821      -10.827       -6.745       20.661       13.762       17.131      426.866      189.406      293.465        0.084        0.045       27.079       13.160        0.236      333.620        3.055      865.465
01/30/2022  21:24:00      -32.803      -17.446      -15.052       10.477       10.711       11.473      109.770      114.724      131.620        0.098        0.018       37.154        4.298        0.013      333.518        2.887      865.460
01/30/2022  21:25:00      -17.648        9.511      -11.364       14.542       11.660        8.892      211.464      135.945       79.062        0.048        0.021       20.048        5.628        0.079      333.706        3.198      865.440
01/30/2022  21:26:00      -47.506        1.288      -11.684       39.196       27.439       25.526     1536.309      752.916      651.577        0.267        0.147       47.524       27.470        0.334      333.571        2.974      865.444
01/30/2022  21:27:00      -57.724      -13.025      -18.177       53.190       21.668       29.329     2829.164      469.495      860.171        0.399        0.208       59.175       20.687        0.122      333.310        2.542      865.467
01/30/2022  21:28:00      -43.644        3.230      -15.828       27.342       25.549       19.323      747.572      652.733      373.380        0.197        0.089       43.763       15.352        0.123      333.297        2.520      865.467
01/30/2022  21:29:00      -72.973       31.124      -19.742       19.687       13.696       15.175      387.578      187.591      230.287        0.374        0.040       79.333        7.481        0.009      333.349        2.606      865.453
01/30/2022  21:30:00      -92.053       69.180       -5.494       45.121       28.215       22.775     2035.943      796.110      518.687        0.832        0.168      115.151       16.260        0.020      333.375        2.649      865.435
01/30/2022  21:31:00      -26.666       45.672       -5.895       30.856       23.516       17.589      952.108      553.021      309.377        0.232        0.091       52.886       14.561        0.076      333.564        2.962      865.424
01/30/2022  21:32:00      -21.969       50.570      -13.322       17.562       30.319       12.420      308.407      919.235      154.256        0.230        0.069       55.136       11.468        0.043      333.960        3.618      865.439
01/30/2022  21:33:00      -91.355        8.059      -28.332       51.869       33.930       22.677     2690.355     1151.271      514.237        0.678        0.218       91.709       15.904        0.030      333.423        2.729      865.479
01/30/2022  21:34:00     -109.635       20.872      -24.731       49.971       37.050       25.909     2497.081     1372.702      671.272        0.880        0.227      111.604       24.419        0.048      333.356        2.618      865.491
01/30/2022  21:35:00      -66.823       33.171      -19.536       20.022       15.642       16.520      400.880      244.679      272.909        0.343        0.046       74.604        6.758        0.008      333.435        2.749      865.500
01/30/2022  21:36:00      -74.396       16.873      -23.278       32.849       23.820       18.530     1079.045      567.378      343.344        0.418        0.099       76.285       14.269        0.035      333.409        2.704      865.533
01/30/2022  21:37:00      -55.240       26.304      -19.790       52.085       32.821       28.050     2712.797     1077.232      786.789        0.436        0.229       61.183       23.053        0.142      333.248        2.439      865.564
01/30/2022  21:38:00      -57.454       22.534      -18.471       57.541       36.143       31.688     3310.974     1306.327     1004.100        0.488        0.281       61.715       24.518        0.158      333.302        2.528      865.568
01/30/2022  21:39:00      -41.586       12.289      -17.598       35.390       38.883       32.123     1252.475     1511.867     1031.863        0.299        0.190       43.364       14.078        0.105      333.310        2.541      865.571
01/30/2022  21:40:00      -46.028       15.014      -20.603       39.212       27.350       22.138     1537.569      748.024      490.108        0.277        0.139       48.415       17.112        0.125      333.321        2.559      865.557
01/30/2022  21:41:00      -27.812       51.302       -8.551       30.327       35.836       19.792      919.704     1284.191      391.731        0.304        0.130       58.356       10.914        0.035      333.657        3.118      865.544
01/30/2022  21:42:00      -17.892       88.075       -5.740       20.398       39.319       17.856      416.070     1546.015      318.838        0.520        0.114       89.874       20.779        0.053      334.024        3.725      865.534
01/30/2022  21:43:00      -14.823       84.416       -9.558       24.060       24.813       14.449      578.872      615.697      208.774        0.442        0.070       85.708       10.567        0.015      334.079        3.814      865.565
01/30/2022  21:44:00       14.414       18.276        0.451       27.191       14.445       12.707      739.376      208.671      161.466        0.083        0.055       23.276        4.495        0.037      333.698        3.185      865.604
01/30/2022  21:45:00       -3.385       15.256      -17.400       22.691       18.221       17.358      514.895      332.016      301.310        0.085        0.057       15.627        4.895        0.098      333.929        3.567      865.640
01/30/2022  21:46:00       23.146      -14.170      -10.122       14.471       12.731       11.324      209.407      162.072      128.244        0.067        0.025       27.139        8.053        0.088      333.672        3.141      865.676
01/30/2022  21:47:00       -7.729       -1.442      -13.501       13.053       14.903        8.027      170.390      222.114       64.428        0.035        0.023        7.862        2.553        0.105      333.769        3.301      865.720
01/30/2022  21:48:00      -10.140       11.113       -4.136       15.379       11.283       12.727      236.514      127.316      161.975        0.038        0.026       15.044        5.218        0.120      333.787        3.330      865.771
01/30/2022  21:49:00      -13.812       38.825      -14.866       19.173       25.412       15.001      367.612      645.792      225.038        0.158        0.062       41.209        7.988        0.038      334.036        3.744      865.800
01/30/2022  21:50:00      -17.009       50.964      -11.734       24.735       24.486       16.874      611.819      599.560      284.726        0.226        0.075       53.727       10.460        0.038      334.143        3.920      865.808
01/30/2022  21:51:00       -4.070       63.904      -11.356       20.757       23.077       12.798      430.866      532.555      163.792        0.268        0.056       64.034        8.327        0.017      334.125        3.892      865.783
01/30/2022  21:52:00       35.639       67.738       -6.588       20.517       29.988       19.108      420.947      899.300      365.121        0.379        0.084       76.542       13.530        0.031      334.565        4.620      865.737
01/30/2022  21:53:00      -25.107       45.266      -18.161       37.171       46.910       13.623     1381.677     2200.566      185.573        0.339        0.188       51.762       16.992        0.108      334.227        4.062      865.712
01/30/2022  21:54:00      -64.817       -2.672      -13.428       16.795       18.229       13.159      282.067      332.282      173.157        0.259        0.039       64.872        4.034        0.004      333.506        2.866      865.693
01/30/2022  21:55:00     -138.681       38.864      -30.383       32.464       31.507       14.819     1053.929      992.722      219.615        1.197        0.113      144.023        9.211        0.004      333.433        2.745      865.659
01/30/2022  21:56:00      -68.065       35.527      -16.606       30.424       22.661       18.328      925.639      513.501      335.924        0.397        0.089       76.779        8.861        0.013      333.415        2.717      865.609
01/30/2022  21:57:00      -89.586       35.276      -21.899       11.642       13.514       11.554      135.546      182.635      133.504        0.510        0.023       96.281        6.080        0.004      333.526        2.899      865.589
01/30/2022  21:58:00     -135.341       31.330      -15.408       64.568       41.191       30.156     4169.053     1696.726      909.366        1.315        0.339      138.920       21.149        0.023      333.416        2.716      865.612
01/30/2022  21:59:00      -89.114       56.094       -4.666       39.472       25.417       24.735     1558.075      646.017      611.839        0.696        0.141      105.299       15.544        0.022      333.465        2.798      865.623
01/30/2022  22:00:00      -52.982        1.090       -7.796       32.370       32.462       19.922     1047.807     1053.786      396.868        0.268        0.125       52.993       17.879        0.114      333.488        2.836      865.623
01/30/2022  22:01:00      -91.466        0.232      -14.152       47.653       26.224       26.055     2270.763      687.714      678.884        0.610        0.182       91.467       15.605        0.029      333.472        2.809      865.640
01/30/2022  22:02:00      -61.912       23.615       -5.617       46.430       41.418       24.091     2155.700     1715.411      580.359        0.444        0.223       66.263       23.997        0.131      333.592        3.009      865.646
01/30/2022  22:03:00      -34.582       54.602       -8.872       26.010       27.769       15.302      676.524      771.103      234.147        0.297        0.084       64.632        5.130        0.006      333.953        3.607      865.665
01/30/2022  22:04:00      -44.188       16.575      -22.835       51.134       40.292       31.433     2614.685     1623.458      988.051        0.399        0.261       47.194       17.839        0.143      333.547        2.935      865.736
01/30/2022  22:05:00      -43.648        8.802      -24.377       56.120       36.616       30.904     3149.450     1340.752      955.075        0.401        0.272       44.527       19.820        0.198      333.554        2.946      865.749
01/30/2022  22:06:00      -30.115       32.657      -16.329       41.560       18.829       21.268     1727.266      354.548      452.320        0.239        0.127       44.423       12.672        0.081      333.756        3.281      865.741
01/30/2022  22:07:00       65.440       82.588      -19.639       19.186       25.015       11.974      368.102      625.754      143.371        0.631        0.057      105.372        9.311        0.008      334.170        3.967      865.667
01/30/2022  22:08:00      135.189       82.899      -17.160       33.144       20.494       19.073     1098.534      420.019      363.781        1.366        0.094      158.582       10.842        0.005      334.636        4.739      865.645
01/30/2022  22:09:00       92.326       56.612      -18.256       35.213       22.683       13.601     1239.987      514.525      184.991        0.700        0.097      108.300       12.204        0.013      334.076        3.808      865.647
01/30/2022  22:10:00      -45.715      -31.802      -19.528       31.538       46.067       22.888      994.645     2122.134      523.869        0.356        0.182       55.689       15.448        0.077      334.094        3.840      865.689
01/30/2022  22:11:00       37.207     -100.601      -25.504       39.508       36.726       26.731     1560.862     1348.766      714.533        0.789        0.181      107.261       13.512        0.016      334.465        4.456      865.719
01/30/2022  22:12:00       45.338      -81.992      -22.976       39.436       55.082       19.973     1555.233     3034.005      398.911        0.715        0.249       93.692       28.386        0.092      334.603        4.684      865.753
01/30/2022  22:13:00      -48.041      -13.958      -23.981       22.865       20.212       16.302      522.812      408.524      265.757        0.214        0.060       50.028        5.260        0.011      334.827        5.057      865.830
01/30/2022  22:14:00      -55.458       58.947      -18.363       94.740      105.897       31.918     8975.748    11214.128     1018.784        1.404        1.060       80.934       27.730        0.117      335.914        6.868      865.835
01/30/2022  22:15:00     -164.130       44.393      -26.383      121.065       97.615       54.666    14656.785     9528.604     2988.327        2.838        1.359      170.028       60.654        0.127      337.699        9.847      865.784
01/30/2022  22:16:00     -247.868      -22.831       -5.476      129.274      127.447       80.085    16711.711    16242.744     6413.658        5.067        1.968      248.917       77.595        0.097      336.879        8.474      865.790
01/30/2022  22:17:00     -111.497       30.060      -13.191       97.957       59.504       40.334     9595.578     3540.687     1626.850        1.413        0.738      115.478       38.628        0.112      337.420        9.381      865.798
01/30/2022  22:18:00     -123.760       59.430      -16.590       73.894       47.973       32.332     5460.316     2301.380     1045.327        1.396        0.440      137.290       27.061        0.039      337.123        8.884      865.779
01/30/2022  22:19:00     -300.800      -14.824      -19.643      170.800       91.333       73.573    29172.776     8341.643     5412.945        6.700        2.146      301.165       84.644        0.079      337.659        9.780      865.768
01/30/2022  22:20:00     -148.310        4.111        2.307      137.648       71.947       57.080    18947.009     5176.362     3258.123        2.469        1.369      148.367       64.023        0.186      337.737        9.911      865.749
01/30/2022  22:21:00       10.381       46.863       -1.046       99.030       49.279       37.832     9806.916     2428.436     1431.293        0.798        0.683       47.999       45.337        0.892      337.172        8.968      865.767
01/30/2022  22:22:00     -140.739       79.934        0.281      115.520       62.153       37.094    13344.933     3863.020     1375.936        2.239        0.929      161.855       40.878        0.064      337.657        9.778      865.704
01/30/2022  22:23:00      -98.640       22.455       10.523       86.600       48.557       45.467     7499.584     2357.762     2067.293        1.113        0.596      101.163       41.310        0.167      337.238        9.077      865.711
01/30/2022  22:24:00      -92.719      -11.398        3.531       65.211       52.979       39.506     4252.533     2806.756     1560.702        0.868        0.431       93.417       35.297        0.143      336.963        8.617      865.708
01/30/2022  22:25:00      -86.565       39.961       -2.520       67.994       35.373       27.768     4623.128     1251.270      771.060        0.787        0.332       95.343       26.446        0.077      337.109        8.862      865.691
01/30/2022  22:26:00      -44.466      -28.638       -0.920       29.602       52.681       17.766      876.273     2775.279      315.648        0.338        0.198       52.890       14.502        0.075      336.986        8.655      865.643
01/30/2022  22:27:00     -127.721       32.338      -24.807       74.358       52.134       35.560     5529.141     2717.924     1264.494        1.374        0.476      131.751       35.107        0.071      336.726        8.220      865.687
01/30/2022  22:28:00      -79.143       59.226       -2.352      141.456       82.521       42.996    20009.891     6809.648     1848.644        1.922        1.433       98.850       46.612        0.222      336.984        8.652      865.684
01/30/2022  22:29:00      -94.071       36.196      -17.030      106.016       59.499       44.977    11239.350     3540.165     2022.923        1.362        0.840      100.794       30.994        0.095      336.754        8.269      865.650
01/30/2022  22:30:00     -169.589       80.284      -18.214       74.280       95.208       49.717     5517.493     9064.501     2471.799        2.629        0.853      187.633       32.505        0.030      337.350        9.263      865.694
01/30/2022  22:31:00     -135.812       14.923      -15.751       92.097       84.053       48.207     8481.767     7064.893     2323.922        1.839        0.894      136.629       33.076        0.059      337.226        9.057      865.699
01/30/2022  22:32:00      -36.287       19.561        5.418       91.240       75.923       68.737     8324.769     5764.327     4724.821        1.027        0.941       41.223       31.872        0.598      337.158        8.944      865.711
01/30/2022  22:33:00     -117.159       -6.277      -20.584       70.287       56.131       37.531     4940.281     3150.665     1408.599        1.184        0.475      117.327       24.205        0.043      337.363        9.284      865.693
01/30/2022  22:34:00       32.696       26.711      -13.536       52.578       42.967       18.940     2764.473     1846.197      358.729        0.347        0.248       42.220        7.438        0.031      336.680        8.143      865.653
01/30/2022  22:35:00     -126.194      126.501      -33.980       96.984       59.123       50.283     9405.896     3495.523     2528.383        2.425        0.771      178.683       44.793        0.063      337.421        9.381      865.661
01/30/2022  22:36:00      -25.844       18.372       -2.201       51.773       69.268       28.476     2680.416     4798.029      810.900        0.465        0.414       31.709       20.396        0.414      336.819        8.376      865.677
01/30/2022  22:37:00        3.233        1.979      -17.359       34.631       20.801       26.401     1199.291      432.699      697.007        0.132        0.116        3.790       13.692       13.048      335.774        6.632      865.678
01/30/2022  22:38:00       78.199      -26.328      -25.739       46.414       28.857       29.236     2154.253      832.706      854.738        0.566        0.192       82.512       21.414        0.067      334.558        4.610      865.662
01/30/2022  22:39:00       87.963      -28.916      -16.642       30.472       27.442       14.944      928.529      753.070      223.313        0.538        0.095       92.594       13.222        0.020      334.298        4.177      865.661
01/30/2022  22:40:00       17.212      -45.073       -4.578       35.000       31.810       24.829     1224.989     1011.874      616.459        0.260        0.143       48.248       21.199        0.193      334.180        3.982      865.679
01/30/2022  22:41:00        0.219      -37.058      -17.423       37.008       34.313       26.162     1369.622     1177.376      684.433        0.245        0.162       37.058       21.954        0.351      334.353        4.269      865.687
01/30/2022  22:42:00       49.480      -29.991      -16.363       38.272       19.039       19.682     1464.743      362.472      387.374        0.291        0.111       57.860       11.919        0.042      334.395        4.339      865.631
01/30/2022  22:43:00       82.416       -1.177      -35.105       36.161       40.072       20.495     1307.624     1605.758      420.054        0.568        0.167       82.424       15.633        0.036      334.228        4.062      865.593
01/30/2022  22:44:00       15.815       11.667      -12.280       38.006       24.914       13.410     1444.486      620.718      179.825        0.139        0.112       19.653        6.868        0.122      334.495        4.504      865.575
01/30/2022  22:45:00     -158.775      112.577      -33.214       77.980      118.238       38.243     6080.817    13980.302     1462.504        3.025        1.076      194.636       30.665        0.025      336.688        8.156      865.545
01/30/2022  22:46:00      -39.423       13.070        5.114       38.882       46.770       26.045     1511.786     2187.422      678.348        0.306        0.219       41.533       21.663        0.272      334.892        5.162      865.508
01/30/2022  22:47:00      -18.740       13.642       -6.131       37.529       32.816       15.009     1408.405     1076.908      225.274        0.164        0.136       23.179        8.043        0.120      335.229        5.725      865.492
01/30/2022  22:48:00      -17.533        5.926       -3.088       17.423       17.231       13.078      303.571      296.910      171.035        0.056        0.039       18.508       12.080        0.426      335.314        5.865      865.475
01/30/2022  22:49:00        7.143        0.787      -11.600       20.461       10.838        7.698      418.662      117.470       59.267        0.039        0.030        7.186        9.033        1.580      335.035        5.404      865.459
01/30/2022  22:50:00       29.064       -2.403      -12.043       19.988       14.590       17.682      399.519      212.876      312.638        0.096        0.046       29.163        6.386        0.048      334.884        5.150      865.456
01/30/2022  22:51:00       64.402       35.857      -12.359       27.483       19.675       15.546      755.291      387.102      241.675        0.348        0.069       73.711       15.512        0.044      334.258        4.112      865.459
01/30/2022  22:52:00      120.550       48.061      -16.257       15.070       19.318       15.323      227.090      373.191      234.800        0.897        0.042      129.777        7.363        0.003      333.868        3.467      865.456
01/30/2022  22:53:00      118.242       33.023      -16.870       20.852       18.209       18.879      434.812      331.565      356.435        0.824        0.056      122.767       10.116        0.007      333.831        3.405      865.448
01/30/2022  22:54:00      157.391       21.253      -21.497       44.916       44.377       25.552     2017.407     1969.317      652.913        1.516        0.232      158.820       19.858        0.016      333.745        3.261      865.440
01/30/2022  22:55:00      110.956      -42.051      -19.347       34.655       32.083       24.690     1200.935     1029.342      609.574        0.865        0.142      118.657       15.077        0.016      333.609        3.037      865.456
01/30/2022  22:56:00       97.310     -109.228      -27.108       40.332       64.382       29.783     1626.645     4145.006      887.036        1.440        0.333      146.287       30.940        0.045      333.792        3.339      865.505
01/30/2022  22:57:00       43.672     -141.958      -37.715      131.072       85.394       51.901    17179.991     7292.080     2693.736        2.532        1.358      148.523       66.772        0.202      333.851        3.433      865.509
01/30/2022  22:58:00      -36.732        0.484       15.620       44.874       50.079       33.427     2013.649     2507.862     1117.381        0.362        0.282       36.735       24.571        0.447      333.870        3.470      865.524
01/30/2022  22:59:00      -50.207       -7.895      -20.110       33.679       41.621       26.052     1134.244     1732.297      678.696        0.327        0.177       50.824       22.034        0.188      333.977        3.646      865.530
01/30/2022  23:00:00      -49.359      -33.587      -11.066       41.735       40.214       30.547     1741.817     1617.182      933.116        0.399        0.215       59.702       26.151        0.192      334.012        3.703      865.552
01/30/2022  23:01:00        1.772       -4.330      -24.979       31.331       29.477       19.968      981.632      868.904      398.701        0.145        0.112        4.678        9.555        4.171      333.882        3.487      865.537
01/30/2022  23:02:00      -23.274       -6.482       -2.992       48.035       33.120       24.911     2307.354     1096.952      620.570        0.231        0.201       24.160       16.363        0.459      334.023        3.723      865.539
01/30/2022  23:03:00      -86.994      -31.625       -7.198       57.674       41.180       31.751     3326.284     1695.760     1008.146        0.732        0.302       92.564       22.172        0.057      333.740        3.254      865.564
01/30/2022  23:04:00      -75.524      -63.571      -18.291       30.087       42.118       21.620      905.238     1773.925      467.427        0.661        0.157       98.718       13.612        0.019      333.675        3.146      865.534
01/30/2022  23:05:00       45.589      -36.570      -33.621       54.309       47.467       35.028     2949.418     2253.155     1226.964        0.549        0.321       58.444       30.004        0.264      333.711        3.205      865.490
01/30/2022  23:06:00        5.710      -47.600      -29.408       44.114       50.484       20.795     1946.083     2548.667      432.417        0.404        0.246       47.941       16.468        0.118      333.755        3.280      865.539
01/30/2022  23:07:00      -57.793      -47.428       -0.850       80.695       47.878       37.581     6511.719     2292.349     1412.320        0.790        0.511       74.763       26.338        0.124      333.824        3.391      865.615
01/30/2022  23:08:00      -48.263      -27.338      -13.500       40.906       40.107       36.868     1673.265     1608.607     1359.217        0.395        0.232       55.467       21.284        0.147      333.750        3.270      865.634
01/30/2022  23:09:00      -15.581      -30.734       -1.701       49.370       40.131       33.473     2437.410     1610.507     1120.427        0.318        0.258       34.459       21.424        0.387      333.724        3.226      865.635
01/30/2022  23:10:00      -15.278      -95.037      -36.815       58.742       58.450       35.131     3450.575     3416.458     1234.155        0.936        0.405       96.257       28.841        0.090      333.783        3.324      865.592
01/30/2022  23:11:00      -21.669       12.677       -5.736       49.784       35.195       33.377     2478.494     1238.680     1114.037        0.275        0.242       25.105       21.036        0.702      333.687        3.165      865.637
01/30/2022  23:12:00       40.519       30.516      -21.583       52.620       39.697       28.873     2768.881     1575.821      833.634        0.411        0.259       50.725       29.250        0.333      333.678        3.151      865.629
01/30/2022  23:13:00       23.684       47.736      -15.971       46.715       41.775       13.981     2182.280     1745.115      195.476        0.361        0.206       53.288       11.598        0.047      333.660        3.122      865.692
01/30/2022  23:14:00       32.428       -3.241      -28.858       34.510       39.330       34.856     1190.930     1546.830     1214.913        0.292        0.198       32.589       21.069        0.418      333.681        3.158      865.690
01/30/2022  23:15:00       28.645      -20.894      -20.367       29.334       31.585       19.183      860.490      997.602      367.986        0.195        0.111       35.456       11.645        0.108      333.680        3.154      865.745
01/30/2022  23:16:00      101.036       17.316      -12.496       34.751       23.537       15.401     1207.609      553.969      237.180        0.633        0.100      102.509        2.993        0.001      333.540        2.923      865.762
01/30/2022  23:17:00       60.559       40.964       -9.134       57.597       26.072       21.521     3317.405      679.755      463.138        0.494        0.223       73.113       14.260        0.038      333.396        2.684      865.744
01/30/2022  23:18:00        8.556       73.725        3.026       31.430       38.167       24.958      987.836     1456.694      622.926        0.429        0.153       74.220       15.985        0.046      333.472        2.810      865.791
01/30/2022  23:19:00      128.132       79.490      -13.586       59.478       37.653       26.879     3537.585     1417.743      722.504        1.430        0.284      150.787       23.789        0.025      333.360        2.625      865.738
01/30/2022  23:20:00       57.244        4.828      -13.549       37.115       40.640       26.195     1377.519     1651.580      686.189        0.360        0.186       57.448       15.867        0.076      333.395        2.682      865.726
01/30/2022  23:21:00       89.091       31.395      -16.850       38.649       22.914       16.805     1493.740      525.063      282.415        0.575        0.115       94.461        9.322        0.010      333.330        2.577      865.809
01/30/2022  23:22:00       41.270       20.874       -7.987       45.876       45.101       29.142     2104.613     2034.103      849.253        0.359        0.249       46.249       13.767        0.089      333.369        2.642      865.859
01/30/2022  23:23:00       77.052        3.825       -7.022       58.262       41.595       36.570     3394.513     1730.117     1337.380        0.623        0.323       77.147       34.459        0.200      333.254        2.449      865.870
01/30/2022  23:24:00       74.794      -12.853      -24.989       70.328       46.617       44.013     4946.016     2173.162     1937.158        0.772        0.453       75.891       36.849        0.236      333.227        2.403      865.840
01/30/2022  23:25:00       70.990       -5.017       -9.361       51.351       22.219       36.570     2636.932      493.673     1337.387        0.481        0.223       71.167       28.267        0.158      333.124        2.234      865.866
01/30/2022  23:26:00      129.992       21.946       -5.994       50.250       27.410       19.781     2525.033      751.324      391.270        1.054        0.183      131.832       19.765        0.022      333.087        2.174      865.871
01/30/2022  23:27:00      106.655       -9.130       -6.350       47.774       39.998       30.289     2282.316     1599.860      917.399        0.815        0.240      107.045       24.312        0.052      333.140        2.264      865.820
01/30/2022  23:28:00       45.951      -18.641       -5.217       18.021       15.607       13.675      324.759      243.575      187.002        0.162        0.038       49.588        9.156        0.034      333.218        2.391      865.829
01/30/2022  23:29:00       64.679        2.497      -11.291       11.478       10.665        8.892      131.738      113.751       79.067        0.232        0.016       64.727        3.347        0.003      333.273        2.482      865.830
01/30/2022  23:30:00       70.084      -24.228      -10.882       25.427       26.108       18.674      646.546      681.629      348.715        0.365        0.084       74.153       11.973        0.026      333.407        2.703      865.805
01/30/2022  23:31:00       74.416      -48.295      -14.495       23.539       27.499       20.360      554.083      756.179      414.532        0.490        0.086       88.714       18.679        0.044      333.330        2.576      865.784
01/30/2022  23:32:00       57.276      -96.699      -22.304       37.925       46.163       24.897     1438.316     2131.033      619.876        0.866        0.209      112.389       25.749        0.052      333.635        3.080      865.789
01/30/2022  23:33:00       92.931     -107.576      -37.510       33.771       38.217       21.975     1140.507     1460.537      482.907        1.235        0.154      142.158       22.806        0.026      333.624        3.063      865.775
01/30/2022  23:34:00       34.698      -89.001      -12.184       30.099       35.991       29.320      905.945     1295.344      859.682        0.617        0.153       95.526       21.086        0.049      333.976        3.646      865.789
01/30/2022  23:35:00       46.280      -17.207      -15.589       47.286       35.103       26.125     2235.972     1232.209      682.511        0.342        0.208       49.375       19.725        0.160      333.981        3.654      865.753
01/30/2022  23:36:00       35.935       -4.269      -13.525       49.309       34.690       26.376     2431.427     1203.420      695.681        0.291        0.217       36.188       25.631        0.502      333.682        3.156      865.692
01/30/2022  23:37:00       32.769       26.346       -3.522       20.663       33.701       14.780      426.974     1135.724      218.459        0.178        0.089       42.046       13.460        0.102      333.559        2.954      865.720
01/30/2022  23:38:00       23.292       44.222       -7.557       17.201       18.061       10.515      295.872      326.200      110.556        0.164        0.037       49.981        5.693        0.013      333.658        3.120      865.747
01/30/2022  23:39:00       46.426       -7.314      -11.730       31.541       33.340       20.324      994.866     1111.542      413.083        0.243        0.126       46.999       14.671        0.097      333.575        2.980      865.730
01/30/2022  23:40:00       60.667      -16.335       -9.790       30.741       32.309       22.418      945.032     1043.887      502.579        0.327        0.125       62.827       12.997        0.043      333.488        2.834      865.726
01/30/2022  23:41:00       48.469        2.860      -19.071       25.925       31.091       16.739      672.086      966.662      280.204        0.232        0.096       48.553       11.901        0.060      333.456        2.785      865.744
01/30/2022  23:42:00       87.788       52.653      -11.211       22.161       25.166       12.633      491.099      633.350      159.605        0.594        0.064      102.367       11.377        0.012      333.392        2.678      865.745
01/30/2022  23:43:00       49.871       78.382      -11.481       26.488       23.141       17.680      701.635      535.495      312.571        0.516        0.077       92.902       11.757        0.016      333.488        2.837      865.727
01/30/2022  23:44:00       -0.594       39.162       -5.181       30.805       17.439       14.156      948.940      304.109      200.383        0.151        0.073       39.167       11.685        0.089      333.663        3.126      865.687
01/30/2022  23:45:00      -77.157       24.868      -13.330       30.366       25.738       17.111      922.099      662.458      292.779        0.431        0.094       81.065        9.866        0.015      333.599        3.021      865.707
01/30/2022  23:46:00      -87.343      -22.549      -13.286       54.697       34.946       27.485     2991.736     1221.246      755.452        0.664        0.248       90.206       22.490        0.062      333.580        2.989      865.723
01/30/2022  23:47:00      -85.923       14.708       -0.684       44.717       37.366       27.198     1999.566     1396.233      739.754        0.587        0.207       87.173       14.857        0.029      333.662        3.125      865.725
01/30/2022  23:48:00      -28.153      -15.078       -9.306       57.066       42.507       22.071     3256.477     1806.853      487.123        0.333        0.278       31.936       23.913        0.561      333.734        3.243      865.703
01/30/2022  23:49:00       15.318      -26.809      -20.537       34.339       43.777       16.106     1179.160     1916.414      259.405        0.236        0.168       30.876       20.444        0.438      333.769        3.302      865.663
01/30/2022  23:50:00      -83.755       49.607      -20.882       47.918       26.891       23.200     2296.122      723.133      538.232        0.673        0.178       97.344       19.531        0.040      333.814        3.375      865.657
01/30/2022  23:51:00      -47.334       51.988       -4.631       21.926       43.717       13.887      480.737     1911.175      192.850        0.377        0.129       70.308       16.113        0.053      333.905        3.527      865.615
01/30/2022  23:52:00      -28.759      -11.080      -21.186       62.346       44.249       28.352     3887.034     1957.996      803.850        0.402        0.332       30.819       24.416        0.628      333.890        3.503      865.640
01/30/2022  23:53:00      -38.921        7.965       -4.999       49.397       39.920       23.751     2440.023     1593.583      564.132        0.310        0.230       39.728       25.520        0.413      333.768        3.301      865.603
01/30/2022  23:54:00       67.119      -25.134      -10.896       53.712       44.183       29.533     2885.028     1952.161      872.189        0.548        0.285       71.670       28.587        0.159      333.856        3.446      865.505
01/30/2022  23:55:00       12.918       27.892      -10.516       19.402       10.314        7.900      376.447      106.383       62.410        0.080        0.027       30.738        8.666        0.079      334.001        3.685      865.512
01/30/2022  23:56:00      -10.353       81.474      -12.393       20.854       22.958       16.063      434.887      527.084      258.029        0.406        0.061       82.129        6.125        0.006      334.050        3.767      865.517
01/30/2022  23:57:00      -19.750       29.683      -16.201       22.224       41.157       17.264      493.919     1693.923      298.048        0.201        0.124       35.653        8.373        0.055      333.926        3.562      865.516
01/30/2022  23:58:00       17.805       -7.604      -14.826       28.976       49.785       16.356      839.616     2478.514      267.510        0.209        0.179       19.361       15.464        0.638      333.854        3.443      865.532
01/30/2022  23:59:00       10.026       11.937       -7.777       33.003       33.593       23.337     1089.170     1128.486      544.630        0.153        0.138       15.589       12.284        0.621      333.663        3.126      865.540
01/31/2022  00:00:00       14.890      -10.723       -9.109       23.507       23.040       19.755      552.589      530.839      390.251        0.095        0.074       18.350       16.670        0.825      333.515        2.881      865.580
01/31/2022  00:01:00       49.582       -9.002      -10.887       49.867       27.201       31.232     2486.709      739.889      975.438        0.343        0.210       50.392       27.189        0.291      333.393        2.681      865.589
01/31/2022  00:02:00       47.918        9.666      -26.004       46.038       47.753       43.674     2119.479     2280.332     1907.402        0.469        0.315       48.884       31.373        0.412      333.357        2.620      865.599
01/31/2022  00:03:00       33.496        2.687        8.183       44.953       32.888       41.622     2020.767     1081.603     1732.387        0.301        0.242       33.603       32.789        0.952      333.390        2.674      865.612
01/31/2022  00:04:00       40.527      -12.624        5.921       68.483       46.581       48.387     4689.981     2169.832     2341.280        0.552        0.460       42.447       44.680        1.108      333.545        2.930      865.563
01/31/2022  00:05:00       51.095      -11.722        2.833       57.739       40.435       39.413     3333.828     1635.029     1553.375        0.464        0.326       52.422       33.308        0.404      333.536        2.917      865.555
01/31/2022  00:06:00       60.170       25.936       -2.126       30.375       21.023       17.079      922.616      441.972      291.700        0.298        0.083       65.522       14.123        0.046      333.486        2.833      865.578
01/31/2022  00:07:00      120.527       22.517      -11.499       52.641       35.509       32.934     2771.065     1260.902     1084.636        1.014        0.256      122.613       14.836        0.015      333.528        2.902      865.556
01/31/2022  00:08:00       47.170       -4.485      -11.951       40.741       52.137       35.323     1659.790     2718.240     1247.705        0.401        0.281       47.383       25.015        0.279      333.555        2.948      865.522
01/31/2022  00:09:00       51.975        6.800      -11.699       37.178       41.691       25.873     1382.192     1738.134      669.394        0.334        0.189       52.418       18.267        0.121      333.575        2.980      865.534
01/31/2022  00:10:00      108.242       -2.689      -10.212       49.897       36.462       25.909     2489.756     1329.472      671.285        0.816        0.225      108.276       24.437        0.051      333.439        2.755      865.543
01/31/2022  00:11:00      120.926        1.844       -0.215       49.792       29.829       21.699     2479.246      889.794      470.829        0.923        0.192      120.940       25.022        0.043      333.434        2.747      865.551
01/31/2022  00:12:00       72.393       21.494       -9.457       39.478       27.010       15.880     1558.506      729.534      252.161        0.417        0.127       75.517       11.690        0.024      333.421        2.725      865.585
01/31/2022  00:13:00       50.700       41.829      -10.472       24.024       23.162       13.324      577.141      536.471      177.526        0.286        0.065       65.728       13.027        0.039      333.413        2.712      865.635
01/31/2022  00:14:00       72.820       15.830       -8.352       19.352       20.769       14.741      374.494      431.365      217.286        0.332        0.051       74.521        9.754        0.017      333.457        2.783      865.673
01/31/2022  00:15:00       46.103       28.669       -2.280       20.154       19.528       15.969      406.190      381.354      255.010        0.200        0.052       54.290        8.057        0.022      333.462        2.792      865.653
01/31/2022  00:16:00       56.764       42.660       -9.402       20.606       26.942       13.786      424.600      725.885      190.056        0.324        0.067       71.007        7.818        0.012      333.443        2.760      865.655
01/31/2022  00:17:00       56.288       91.453      -10.462       32.503       26.041       19.848     1056.451      678.147      393.946        0.688        0.106      107.387       15.007        0.020      333.551        2.941      865.646
01/31/2022  00:18:00       91.465       69.674      -12.042       33.553       24.969       17.767     1125.817      623.457      315.681        0.771        0.103      114.980       15.238        0.018      333.527        2.901      865.637
01/31/2022  00:19:00       88.861       63.361      -13.918       40.218       27.135       15.193     1617.464      736.299      230.824        0.734        0.129      109.137        8.491        0.006      333.522        2.893      865.622
01/31/2022  00:20:00       66.519      130.737      -19.472       35.245       49.047       28.071     1242.234     2405.633      787.998        1.317        0.222      146.686       22.028        0.023      333.588        3.002      865.645
01/31/2022  00:21:00       66.784       47.613      -13.084       38.975       18.566       16.847     1519.028      344.694      283.812        0.452        0.107       82.019       14.909        0.033      333.572        2.974      865.665
01/31/2022  00:22:00       51.615       58.880       -8.568       29.019       21.456       19.133      842.105      460.366      366.070        0.394        0.083       78.300       10.415        0.018      333.612        3.043      865.700
01/31/2022  00:23:00       74.606       18.482      -14.983       38.170       30.630       14.687     1456.920      938.194      215.717        0.437        0.131       76.861       13.858        0.033      333.604        3.029      865.681
01/31/2022  00:24:00       39.806       14.993       -4.242       17.024       11.913       13.813      289.833      141.911      190.798        0.122        0.031       42.536        8.487        0.040      333.517        2.884      865.692
01/31/2022  00:25:00       23.808        1.734       -1.896       23.602       11.433        9.224      557.047      130.718       85.088        0.067        0.039       23.871       10.831        0.206      333.490        2.840      865.686
01/31/2022  00:26:00       14.011       12.647       -5.050       17.046       11.840        9.207      290.565      140.178       84.772        0.045        0.026       18.874        5.617        0.089      333.537        2.918      865.714
01/31/2022  00:27:00       46.530       43.513      -14.331        9.025       13.314        8.086       81.452      177.264       65.379        0.229        0.016       63.706        7.517        0.014      333.690        3.170      865.717
01/31/2022  00:28:00       43.027       19.713       -2.718       20.679       15.901        7.789      427.638      252.826       60.672        0.149        0.037       47.328        9.387        0.039      333.648        3.101      865.720
01/31/2022  00:29:00       31.841      -19.340       -8.529       25.157       16.040       12.763      632.882      257.276      162.886        0.126        0.053       37.255       12.686        0.116      333.649        3.102      865.715
01/31/2022  00:30:00       35.342      -21.674      -17.381       26.471       28.648       21.885      700.727      820.695      478.960        0.201        0.100       41.458        9.657        0.054      333.595        3.014      865.686
01/31/2022  00:31:00       26.373       -8.077      -13.669       24.109       27.598       19.535      581.258      761.641      381.620        0.134        0.086       27.582       16.128        0.342      333.836        3.414      865.680
01/31/2022  00:32:00       49.091       -4.061       -7.662       31.890       41.928       22.978     1016.986     1757.938      528.002        0.289        0.165       49.259       15.220        0.095      333.957        3.614      865.654
01/31/2022  00:33:00       12.122        8.546       -5.256       19.412       16.533        9.449      376.810      273.347       89.280        0.049        0.037       14.832        5.132        0.120      333.891        3.503      865.648
01/31/2022  00:34:00       33.366      -12.464       -5.542       22.997       12.815       13.830      528.876      164.213      191.271        0.109        0.044       35.618       10.500        0.087      333.924        3.560      865.627
01/31/2022  00:35:00       54.747       32.747       -5.837       12.694       15.328        7.717      161.149      234.957       59.559        0.228        0.023       63.794        5.812        0.008      333.847        3.430      865.640
01/31/2022  00:36:00       66.835      -22.039      -10.703       18.192       25.915        9.605      330.958      671.588       92.254        0.308        0.055       70.375       11.733        0.028      334.187        3.993      865.642
01/31/2022  00:37:00       20.269       -4.657        3.993       22.036       15.650       12.959      485.567      244.918      167.941        0.067        0.045       20.797       10.238        0.242      334.203        4.021      865.640
01/31/2022  00:38:00       31.848       11.769       -1.299       33.281       13.219       13.257     1107.625      174.753      175.736        0.131        0.073       33.953       14.433        0.181      333.869        3.468      865.648
01/31/2022  00:39:00       50.732      -40.784      -15.540       36.923       46.050       21.806     1363.294     2120.558      475.490        0.422        0.198       65.093       21.556        0.110      333.763        3.292      865.616
01/31/2022  00:40:00       73.957      -17.999      -23.458       26.124       40.030       18.058      682.463     1602.362      326.092        0.448        0.131       76.115       16.651        0.048      333.630        3.071      865.619
01/31/2022  00:41:00       64.385      -17.454      -12.068       51.354       19.823       20.050     2637.195      392.939      401.992        0.401        0.172       66.709       15.433        0.054      333.704        3.195      865.602
01/31/2022  00:42:00       27.598      -38.668      -17.705       34.116       48.815       23.004     1163.869     2382.876      529.200        0.332        0.204       47.507       24.148        0.258      333.755        3.279      865.582
01/31/2022  00:43:00       67.706     -108.779      -25.695       29.236       32.690       16.355      854.723     1068.611      267.495        0.963        0.110      128.129       19.390        0.023      333.903        3.523      865.594
01/31/2022  00:44:00      103.102      -53.316      -24.369       22.380       36.639       16.571      500.868     1342.404      274.587        0.809        0.106      116.072       14.734        0.016      333.789        3.335      865.596
01/31/2022  00:45:00       22.708      -39.555      -22.397       50.117       28.132       20.771     2511.721      791.384      431.439        0.316        0.187       45.610       17.844        0.153      333.736        3.247      865.559
01/31/2022  00:46:00       28.909      -46.917      -14.959       35.475       46.252       21.008     1258.460     2139.207      441.348        0.355        0.192       55.109       19.998        0.132      333.826        3.396      865.577
01/31/2022  00:47:00       47.712       15.826      -20.562       30.989       22.860       18.758      960.322      522.595      351.871        0.239        0.092       50.268       12.299        0.060      333.826        3.397      865.552
01/31/2022  00:48:00      -74.872       44.223      -15.702       31.848       24.047       15.106     1014.294      578.245      228.186        0.481        0.091       86.957       17.026        0.038      333.694        3.178      865.543
01/31/2022  00:49:00       -3.674       -6.809       -2.322       15.365       18.197       10.919      236.095      331.148      119.226        0.038        0.034        7.737        3.820        0.244      333.706        3.197      865.499
01/31/2022  00:50:00      -77.674       50.301      -17.619       16.149       20.895       11.617      260.791      436.595      134.962        0.485        0.042       92.538        8.700        0.009      333.821        3.388      865.487
01/31/2022  00:51:00      -60.039        9.674      -19.176       50.701       28.772       21.657     2570.550      827.804      469.029        0.397        0.193       60.814       21.487        0.125      333.716        3.214      865.471
01/31/2022  00:52:00      -43.015       16.975       -8.135       33.899       31.508       23.387     1149.161      992.774      546.962        0.245        0.134       46.243       22.160        0.230      333.744        3.261      865.462
01/31/2022  00:53:00      -79.755       17.689       -7.228       37.183       41.652       14.199     1382.553     1734.848      201.603        0.502        0.166       81.693        8.205        0.010      333.749        3.268      865.427
01/31/2022  00:54:00      -47.156       35.270       -6.029       44.193       21.587       17.581     1952.990      465.997      309.106        0.312        0.136       58.887       21.519        0.134      333.853        3.441      865.398
01/31/2022  00:55:00     -125.778       40.501      -17.244       31.403       27.445       20.102      986.131      753.221      404.083        0.995        0.107      132.138       17.807        0.018      333.721        3.222      865.414
01/31/2022  00:56:00      -53.450      -49.880      -10.120       46.059       43.679       21.863     2121.463     1907.819      478.001        0.498        0.225       73.109       14.890        0.041      335.395        6.004      865.386
01/31/2022  00:57:00      -64.119       10.676       -9.725       57.061       36.714       31.401     3255.945     1347.902      986.026        0.495        0.279       65.001       26.285        0.164      334.178        3.978      865.411
01/31/2022  00:58:00        7.266      -30.412       -5.665       35.583       26.862       22.637     1266.123      721.594      512.441        0.175        0.125       31.268       11.926        0.145      333.752        3.274      865.417
01/31/2022  00:59:00      -73.464      -33.756       -6.228       57.617       45.718       30.063     3319.754     2090.091      903.778        0.644        0.316       80.848       26.426        0.107      333.874        3.475      865.401
01/31/2022  01:00:00      -48.861       13.871       -4.520       42.039       31.770       15.733     1767.241     1009.315      247.537        0.281        0.151       50.792       17.567        0.120      333.812        3.373      865.401
01/31/2022  01:01:00       48.971      -63.867      -26.895       43.768       43.209       25.990     1915.664     1867.009      675.457        0.583        0.223       80.481       28.613        0.126      333.803        3.360      865.400
01/31/2022  01:02:00      110.447      -13.589      -19.299       54.304       47.247       29.456     2948.955     2232.238      867.683        0.940        0.302      111.280       31.161        0.078      333.859        3.450      865.348
01/31/2022  01:03:00        4.718        2.221      -17.567       55.758       42.710       27.409     3108.909     1824.111      751.278        0.301        0.284        5.214       26.071       24.999      333.930        3.569      865.376
01/31/2022  01:04:00      -10.298        9.452       -0.863       21.722       28.231       23.379      471.863      797.009      546.597        0.101        0.091       13.979       12.248        0.768      333.881        3.486      865.399
01/31/2022  01:05:00       55.203       45.348       -3.004       43.841       72.415       22.861     1922.001     5243.960      522.620        0.640        0.384       71.440       15.273        0.046      334.043        3.756      865.350
01/31/2022  01:06:00       17.602       73.014      -14.666       42.113       23.944       17.032     1773.531      573.303      290.077        0.425        0.132       75.105       11.792        0.025      333.941        3.585      865.352
01/31/2022  01:07:00       97.336       10.458      -23.032       24.703       25.004       16.180      610.230      625.202      261.807        0.581        0.075       97.896       10.950        0.013      333.887        3.498      865.327
01/31/2022  01:08:00       10.993      -12.333      -17.712       50.735       28.483       25.031     2573.990      811.296      626.542        0.230        0.201       16.522       23.347        1.997      333.613        3.043      865.291
01/31/2022  01:09:00      -10.665        5.623        2.738       27.105       23.082       23.303      734.661      532.785      543.023        0.098        0.091       12.057        7.383        0.375      333.825        3.395      865.339
01/31/2022  01:10:00      -16.261       -7.883        7.712       53.461       39.570       24.636     2858.131     1565.781      606.923        0.271        0.252       18.071       25.020        1.917      333.826        3.395      865.329
01/31/2022  01:11:00      -89.529        0.986       -1.957       80.206       45.578       32.386     6433.048     2077.382     1048.833        0.879        0.478       89.534       33.298        0.138      333.819        3.385      865.308
01/31/2022  01:12:00      -12.774      -57.675      -14.095       32.878       16.604       15.217     1080.942      275.694      231.561        0.264        0.079       59.073       10.919        0.034      333.909        3.533      865.268
01/31/2022  01:13:00       32.164      -31.979      -21.613       21.940       35.175       15.615      481.346     1237.262      243.827        0.224        0.098       45.356        8.767        0.037      334.109        3.864      865.230
01/31/2022  01:14:00      -12.753      -51.276      -33.820       36.420       26.510       18.680     1326.388      702.781      348.934        0.316        0.119       52.838        9.800        0.034      334.066        3.793      865.211
01/31/2022  01:15:00      -19.443        7.069      -14.667       27.962       18.154       15.967      781.853      329.583      254.955        0.100        0.068       20.688        7.787        0.142      334.115        3.875      865.212
01/31/2022  01:16:00       47.067       66.228      -18.205       29.546       28.685       13.972      872.944      822.817      195.227        0.441        0.095       81.249       10.059        0.015      334.129        3.897      865.202
01/31/2022  01:17:00      -72.156       78.732      -16.435       35.460       52.950       22.972     1257.428     2803.679      527.729        0.813        0.229      106.795       17.466        0.027      333.827        3.398      865.232
01/31/2022  01:18:00      -52.026       13.684      -16.548       40.520       37.571       22.910     1641.859     1411.580      524.863        0.337        0.179       53.796       11.246        0.044      333.628        3.070      865.279
01/31/2022  01:19:00      -56.264       75.489       -9.529       38.975       31.677       26.167     1519.048     1003.419      684.712        0.608        0.160       94.150       18.628        0.039      333.767        3.298      865.290
01/31/2022  01:20:00       46.928       18.440      -11.072       25.897       17.423       13.613      670.661      303.575      185.321        0.191        0.058       50.421        8.434        0.028      334.116        3.876      865.239
01/31/2022  01:21:00       72.909       -3.783      -11.362       26.084       20.347        8.483      680.381      413.991       71.965        0.331        0.058       73.007        7.439        0.010      333.966        3.627      865.223
01/31/2022  01:22:00      -16.538       15.838      -10.637       17.773       17.816       13.310      315.864      317.406      177.151        0.072        0.041       22.898        9.124        0.159      333.744        3.261      865.292
01/31/2022  01:23:00      -31.905        7.469      -10.636       26.480       26.432       11.941      701.212      698.655      142.577        0.136        0.077       32.768        7.750        0.056      333.858        3.450      865.331
01/31/2022  01:24:00       64.841      -56.651      -21.782       36.963       22.732       18.273     1366.287      516.753      333.894        0.505        0.111       86.102       11.817        0.019      334.049        3.766      865.280
01/31/2022  01:25:00       36.411      -38.395      -22.437       32.102       40.000       24.183     1030.563     1600.020      584.795        0.326        0.161       52.915       21.145        0.160      333.906        3.529      865.239
01/31/2022  01:26:00       11.813       -7.320      -27.835       29.136       37.019       17.041      848.892     1370.404      290.400        0.174        0.125       13.897        6.971        0.252      333.976        3.645      865.315
01/31/2022  01:27:00       44.730       69.007      -11.715       38.131       31.864       14.558     1453.983     1015.327      211.930        0.479        0.134       82.236       14.261        0.030      333.720        3.219      865.368
01/31/2022  01:28:00       15.332      103.461      -14.038       32.211       32.125       17.634     1037.559     1032.021      310.975        0.676        0.119      104.591       14.375        0.019      333.891        3.505      865.392
01/31/2022  01:29:00        2.460       15.223      -17.601       25.620       25.167       23.722      656.401      633.371      562.739        0.120        0.093       15.421       13.681        0.787      333.923        3.557      865.451
01/31/2022  01:30:00       -7.079        9.627        3.768       26.749       29.147       17.526      715.491      849.571      307.174        0.101        0.094       11.949       12.954        1.175      333.844        3.425      865.486
01/31/2022  01:31:00      -47.384       27.533       -2.503       22.351       19.635       11.490      499.565      385.551      132.017        0.201        0.051       54.803        9.869        0.032      333.837        3.414      865.477
01/31/2022  01:32:00      -94.100       46.605       -8.594       33.802       32.480       17.203     1142.581     1054.948      295.954        0.680        0.125      105.008       17.974        0.029      333.885        3.493      865.480
01/31/2022  01:33:00      -99.992       24.324      -12.862       26.771       25.548       19.285      716.699      652.720      371.914        0.625        0.087      102.908       12.740        0.015      333.934        3.576      865.487
01/31/2022  01:34:00      -33.303       14.596      -10.875       30.248       20.977       14.614      914.953      440.050      213.579        0.150        0.078       36.361        9.217        0.064      334.027        3.730      865.449
01/31/2022  01:35:00        2.668      -32.374      -14.717       16.449       19.641       13.854      270.559      385.771      191.934        0.106        0.042       32.484        9.960        0.094      334.035        3.744      865.396
01/31/2022  01:36:00        0.362       -6.063       -0.437       13.516       15.228        7.478      182.690      231.881       55.914        0.025        0.024        6.074        6.100        1.009      334.096        3.842      865.405
01/31/2022  01:37:00        3.489       -1.002        8.222       41.682       29.744       28.355     1737.367      884.689      804.022        0.175        0.171        3.630       15.884       19.145      333.946        3.596      865.412
01/31/2022  01:38:00     -116.544      -18.185       -4.289       73.721       36.645       31.802     5434.734     1342.857     1011.344        1.086        0.389      117.954       29.384        0.062      334.014        3.707      865.397
01/31/2022  01:39:00      -61.730      -27.093       -2.792       32.221       29.733       17.508     1038.205      884.071      306.517        0.339        0.111       67.414       13.067        0.038      334.014        3.707      865.384
01/31/2022  01:40:00      -34.298       -3.889      -12.057       25.131       14.879       10.938      631.546      221.390      119.644        0.115        0.049       34.518       11.803        0.117      334.408        4.362      865.348
01/31/2022  01:41:00      -83.833       -5.431      -13.788       25.360       25.789       20.208      643.145      665.059      408.353        0.448        0.086       84.009       16.797        0.040      334.519        4.545      865.320
01/31/2022  01:42:00      -88.801       56.121      -14.184       32.106       27.957       11.558     1030.801      781.591      133.585        0.659        0.097      105.048        5.764        0.003      334.728        4.893      865.307
01/31/2022  01:43:00       21.896      107.915       -9.731       35.135       42.869       21.919     1234.495     1837.779      480.449        0.789        0.178      110.114       22.326        0.041      335.835        6.733      865.277
01/31/2022  01:44:00       39.216       20.512      -17.948       57.136       36.003       30.201     3264.469     1296.240      912.071        0.388        0.274       44.257       18.464        0.174      334.595        4.671      865.254
01/31/2022  01:45:00      -57.766       11.002       -3.923       59.181       50.175       46.206     3502.442     2517.545     2134.982        0.581        0.408       58.804       39.159        0.443      334.224        4.057      865.271
01/31/2022  01:46:00     -103.907       43.814        1.415       67.889       61.694       36.036     4608.871     3806.106     1298.572        1.121        0.486      112.767       33.983        0.091      334.078        3.813      865.326
01/31/2022  01:47:00     -131.376       91.972      -16.085       51.299       37.717       28.699     2631.612     1422.561      823.617        1.543        0.244      160.370       30.852        0.037      334.921        5.213      865.329
01/31/2022  01:48:00      -71.693      103.490      -15.713       46.729       22.722       17.226     2183.626      516.277      296.752        0.955        0.150      125.897       19.014        0.023      335.405        6.016      865.286
01/31/2022  01:49:00       37.366       98.233      -10.133       38.008       45.648       27.430     1444.611     2083.700      752.424        0.771        0.214      105.099       24.989        0.057      335.695        6.501      865.198
01/31/2022  01:50:00       84.284      108.429      -12.901       33.466       37.496       26.441     1119.988     1405.938      699.151        1.113        0.161      137.334       19.939        0.021      335.533        6.230      865.136
01/31/2022  01:51:00       96.160      121.646      -15.106       53.147       55.231       36.849     2824.602     3050.492     1357.837        1.575        0.362      155.063       36.888        0.057      335.325        5.883      865.105
01/31/2022  01:52:00       64.846      139.233      -20.093       43.859       38.268       28.436     1923.635     1464.427      808.590        1.409        0.210      153.593       21.656        0.020      335.565        6.283      865.112
01/31/2022  01:53:00      -16.411       24.894      -15.491       41.268       61.542       25.744     1703.082     3787.405      662.738        0.364        0.308       29.816       12.621        0.179      335.373        5.963      865.136
01/31/2022  01:54:00      -17.523      -37.005      -10.221       29.615       31.618       24.120      877.033      999.726      581.782        0.212        0.123       40.944       23.171        0.320      335.006        5.354      865.178
01/31/2022  01:55:00      -50.869      -98.884      -17.415       49.442       46.756       19.444     2444.493     2186.158      378.088        0.884        0.250      111.201       18.756        0.028      335.088        5.491      865.188
01/31/2022  01:56:00     -238.496      -31.028      -14.216       78.823       63.879       40.954     6212.995     4080.493     1677.252        3.501        0.599      240.506       27.313        0.013      335.025        5.382      865.243
01/31/2022  01:57:00     -171.090       -5.920       -5.926       76.983       41.367       39.385     5926.432     1711.198     1551.166        1.926        0.459      171.193       41.301        0.058      335.220        5.710      865.268
01/31/2022  01:58:00     -158.984       30.925      -14.667       60.238       67.064       31.925     3628.666     4497.626     1019.203        1.779        0.457      161.964       23.632        0.021      335.144        5.582      865.253
01/31/2022  01:59:00     -160.298       59.037      -24.980       66.026       50.142       34.812     4359.400     2514.237     1211.895        1.894        0.404      170.824       18.720        0.012      335.394        5.999      865.265
01/31/2022  02:00:00     -103.068      140.229      -24.116       48.471       28.705       25.826     2349.467      823.974      666.957        1.735        0.192      174.033       11.164        0.004      336.579        7.976      865.249
01/31/2022  02:01:00     -102.997       81.613      -11.950       44.431       44.365       23.402     1974.084     1968.217      547.645        1.095        0.224      131.412       16.025        0.015      336.798        8.343      865.229
01/31/2022  02:02:00      -93.989      125.298      -19.495       44.194       37.726       19.308     1953.147     1423.223      372.815        1.433        0.187      156.632       15.256        0.009      336.457        7.772      865.197
01/31/2022  02:03:00      -37.825       76.914      -16.698       42.961       35.882       25.843     1845.681     1287.524      667.875        0.571        0.190       85.712       22.410        0.068      336.275        7.466      865.170
01/31/2022  02:04:00        0.175       96.211       -9.184       23.870       28.269       15.679      569.792      799.152      245.843        0.548        0.081       96.212        8.475        0.008      336.474        7.799      865.147
01/31/2022  02:05:00       -4.911      101.635       -4.293       39.050       48.199       26.920     1524.873     2323.169      724.661        0.747        0.229      101.754       26.307        0.067      336.264        7.450      865.164
01/31/2022  02:06:00      -44.772       47.219      -10.792       39.039       22.877       21.672     1524.067      523.359      469.656        0.343        0.126       65.071       18.722        0.083      335.562        6.279      865.165
01/31/2022  02:07:00      -36.168       28.137       -7.753       28.979       16.841       14.565      839.755      283.603      212.141        0.175        0.067       45.824        7.562        0.027      335.157        5.604      865.138
01/31/2022  02:08:00      -23.707       71.818      -10.391       27.961       35.030       21.563      781.844     1227.089      464.970        0.415        0.124       75.630       17.526        0.054      335.999        7.008      865.099
01/31/2022  02:09:00      -26.246      110.592      -19.928       38.203       52.827       26.720     1459.454     2790.729      713.936        0.914        0.248      113.664       17.915        0.025      336.228        7.388      865.070
01/31/2022  02:10:00      -43.087      125.279      -14.015       52.527       35.955       22.896     2759.086     1292.789      524.221        1.116        0.229      132.482       17.440        0.017      336.051        7.094      865.051
01/31/2022  02:11:00      -52.165       97.302      -20.610       58.770       37.063       20.628     3453.859     1373.702      425.504        0.893        0.263      110.404       13.589        0.015      335.997        7.002      865.058
01/31/2022  02:12:00      -20.944       16.682        2.100       42.508       30.830       30.228     1806.939      950.507      913.704        0.220        0.184       26.776       22.942        0.734      335.429        6.058      865.108
01/31/2022  02:13:00      -41.629      -16.204       -8.114       57.501       31.134       21.567     3306.334      969.343      465.132        0.340        0.237       44.671       17.466        0.153      335.180        5.642      865.167
01/31/2022  02:14:00      -62.516        2.191       -2.589       36.117       25.549       23.638     1304.474      652.763      558.775        0.322        0.126       62.554       22.343        0.128      335.231        5.726      865.193
01/31/2022  02:15:00       -6.191       -5.815       -3.206       15.721       15.389       14.356      247.149      236.826      206.103        0.039        0.035        8.494        8.325        0.961      334.950        5.259      865.160
01/31/2022  02:16:00       -0.682      -38.896      -13.096       32.404       30.370       16.292     1049.996      922.354      265.424        0.196        0.112       38.902       11.944        0.094      334.749        4.927      865.121
01/31/2022  02:17:00      -65.448        6.644      -11.669       25.763       19.411       16.946      663.738      376.805      287.163        0.290        0.066       65.784        7.970        0.015      334.902        5.181      865.133
01/31/2022  02:18:00      -84.600        1.785      -12.293       29.125       35.182       18.771      848.242     1237.772      352.353        0.487        0.122       84.619       16.073        0.036      334.724        4.884      865.169
01/31/2022  02:19:00      -50.447        0.905       -9.988       24.508       30.605       27.268      600.648      936.670      743.563        0.246        0.114       50.455       19.615        0.151      334.892        5.164      865.162
01/31/2022  02:20:00      -20.786       -3.592       -5.321       32.883       18.741       13.137     1081.318      351.228      172.589        0.104        0.080       21.094       12.077        0.328      335.092        5.497      865.162
01/31/2022  02:21:00       16.956      -13.208        2.120       12.742       20.009       14.682      162.364      400.346      215.575        0.062        0.039       21.493        9.481        0.195      335.306        5.851      865.124
01/31/2022  02:22:00       -2.249        3.060      -18.937       33.469       13.624       11.417     1120.153      185.609      130.344        0.090        0.072        3.798        4.484        1.394      334.825        5.055      865.133
01/31/2022  02:23:00      -67.597       23.413      -15.403       47.266       22.985       23.199     2234.105      528.306      538.215        0.433        0.165       71.537       18.127        0.064      334.610        4.696      865.187
01/31/2022  02:24:00      -43.484       36.413      -22.806       42.203       44.870       26.002     1781.119     2013.287      676.128        0.410        0.224       56.717       15.176        0.072      335.402        6.010      865.209
01/31/2022  02:25:00      -50.907       24.971      -20.185       48.127       33.710       34.419     2316.250     1136.331     1184.699        0.413        0.232       56.701       33.685        0.353      335.595        6.333      865.223
01/31/2022  02:26:00       -5.936       96.278       -8.582       39.520       70.285       31.166     1561.840     4939.928      971.348        0.842        0.374       96.461       25.661        0.071      335.795        6.667      865.224
01/31/2022  02:27:00       33.407       48.961       -8.121       37.469       47.970       27.695     1403.907     2301.145      767.034        0.402        0.224       59.273       19.036        0.103      335.845        6.751      865.202
01/31/2022  02:28:00       36.889       61.747      -14.287       46.996       75.374       20.952     2208.629     5681.265      438.978        0.685        0.416       71.927       23.812        0.110      335.701        6.508      865.180
01/31/2022  02:29:00       62.065       97.147      -16.760       57.676       75.057       30.635     3326.486     5633.497      938.525        1.173        0.495      115.281       24.554        0.045      335.797        6.669      865.175
01/31/2022  02:30:00      -20.831        9.070      -11.597       22.588       31.960       18.172      510.216     1021.444      330.239        0.126        0.093       22.720        6.291        0.077      335.468        6.122      865.200
01/31/2022  02:31:00      -70.990       29.356      -11.379       43.698       30.312       21.699     1909.496      918.796      470.850        0.466        0.165       76.820       12.836        0.028      336.154        7.266      865.222
01/31/2022  02:32:00      -36.416       40.220      -13.390       40.058       25.245       20.917     1604.626      637.310      437.509        0.290        0.134       54.256       19.625        0.131      335.998        7.006      865.236
01/31/2022  02:33:00      -30.433      -23.697        3.823       39.090       18.169       20.268     1528.027      330.123      410.780        0.189        0.113       38.571       22.291        0.334      334.727        4.889      865.257
01/31/2022  02:34:00      -65.038       82.329      -15.755       41.432       48.194       24.684     1716.617     2322.651      609.301        0.795        0.232      104.919       20.894        0.040      335.995        7.001      865.244
01/31/2022  02:35:00     -108.360       44.953      -32.492       43.328       40.930       32.599     1877.301     1675.238     1062.681        0.972        0.231      117.314        9.297        0.006      335.878        6.805      865.228
01/31/2022  02:36:00      -33.631       95.147      -21.197       64.129       58.532       35.537     4112.496     3426.032     1262.908        0.972        0.440      100.915       28.017        0.077      336.075        7.134      865.212
01/31/2022  02:37:00      -19.690      174.073      -25.338       80.084       98.999       35.372     6413.479     9800.748     1251.213        2.440        0.873      175.183       30.701        0.031      336.227        7.385      865.211
01/31/2022  02:38:00      -65.718      173.767      -26.119       59.569       73.470       34.567     3548.430     5397.783     1194.909        2.267        0.507      185.779       15.647        0.007      336.211        7.359      865.204
01/31/2022  02:39:00       15.339      171.742      -14.854       76.855       85.762       44.178     5906.649     7355.196     1951.730        2.258        0.761      172.425       27.634        0.026      336.218        7.370      865.175
01/31/2022  02:40:00      117.158      283.832      -29.333       59.551       67.501       32.316     3546.374     4556.361     1044.292        5.215        0.457      307.061       29.636        0.009      336.188        7.317      865.143
01/31/2022  02:41:00        0.163      174.737      -18.385       80.231       65.169       37.058     6437.092     4246.992     1373.277        2.146        0.603      174.737       25.040        0.021      336.087        7.152      865.146
01/31/2022  02:42:00       24.466      259.147      -16.235       91.119      112.858       52.589     8302.701    12736.894     2765.589        4.591        1.190      260.300       47.291        0.033      336.197        7.333      865.153
01/31/2022  02:43:00       56.129      260.337      -24.447       74.082       75.315       47.420     5488.211     5672.293     2248.631        4.246        0.670      266.319       33.812        0.016      336.103        7.175      865.125
01/31/2022  02:44:00        9.085      259.942      -25.539      105.212       68.174       48.479    11069.516     4647.649     2350.232        4.318        0.903      260.101       45.950        0.031      336.121        7.205      865.090
01/31/2022  02:45:00       81.686      313.677      -28.049       85.774       94.379       46.867     7357.200     8907.357     2196.506        6.215        0.923      324.138       52.153        0.026      336.132        7.226      865.070
01/31/2022  02:46:00       94.659      293.580      -33.360       63.923       72.001       40.433     4086.112     5184.101     1634.804        5.358        0.545      308.463       38.062        0.015      336.081        7.139      865.054
01/31/2022  02:47:00      -40.388      224.117      -20.142       76.841       79.501       48.585     5904.616     6320.479     2360.509        3.342        0.729      227.727       44.247        0.038      336.206        7.349      865.063
01/31/2022  02:48:00      -79.182      133.681      -16.185       58.024       81.661       43.332     3366.777     6668.493     1877.659        1.816        0.596      155.372       36.884        0.056      336.233        7.396      865.082
01/31/2022  02:49:00      -36.264       87.934      -12.350       58.039       81.481       44.332     3368.516     6639.180     1965.332        1.058        0.599       95.118       34.058        0.128      336.070        7.125      865.095
01/31/2022  02:50:00      -40.825      188.408       -8.799       67.325       64.052       42.725     4532.719     4102.619     1825.438        2.385        0.523      192.781       33.547        0.030      336.273        7.462      865.068
01/31/2022  02:51:00      -53.303      218.143      -34.711       50.477       50.420       32.383     2547.907     2542.146     1048.667        2.888        0.307      224.561       23.277        0.011      336.164        7.278      865.033
01/31/2022  02:52:00       -9.904      185.580      -16.680       56.371       57.549       33.626     3177.715     3311.881     1130.691        2.122        0.381      185.844       29.375        0.025      336.007        7.018      865.004
01/31/2022  02:53:00      -48.584      195.299      -24.139       74.873       78.489       45.479     5606.030     6160.494     2068.333        2.746        0.692      201.251       35.209        0.031      336.201        7.341      865.004
01/31/2022  02:54:00      -30.943      167.837      -12.360       68.165       82.252       36.335     4646.498     6765.337     1320.248        2.100        0.637      170.665       30.641        0.032      336.269        7.455      865.021
01/31/2022  02:55:00      -62.830      127.835      -19.410       50.129       61.719       40.551     2512.906     3809.207     1644.375        1.431        0.398      142.441       26.586        0.035      336.201        7.342      865.046
01/31/2022  02:56:00       -6.678      216.671      -24.033       40.774       82.945       35.046     1662.496     6879.812     1228.203        2.867        0.489      216.774       33.767        0.024      336.094        7.163      865.056
01/31/2022  02:57:00       15.049      250.642      -38.728       80.839       85.308       36.262     6534.900     7277.489     1314.928        3.983        0.756      251.093       30.115        0.014      336.124        7.210      865.071
01/31/2022  02:58:00       21.854      180.529      -25.614       54.043       44.775       30.972     2920.623     2004.794      959.262        1.980        0.294      181.847       25.741        0.020      336.135        7.233      865.075
01/31/2022  02:59:00       10.981      152.186      -22.925       57.320       52.368       31.940     3285.530     2742.432     1020.132        1.543        0.352      152.582       24.734        0.026      336.157        7.269      865.078
01/31/2022  03:00:00      -45.567      157.505      -19.835       42.381       97.659       33.828     1796.190     9537.297     1144.344        1.988        0.624      163.964       34.017        0.043      336.195        7.332      865.110
01/31/2022  03:01:00       46.505      203.878      -25.194       64.413       62.081       31.538     4149.029     3854.019      994.633        2.668        0.450      209.115       32.122        0.024      336.037        7.067      865.081
01/31/2022  03:02:00       61.034      216.070      -24.579       78.468       76.607       42.403     6157.153     5868.565     1797.977        3.242        0.691      224.525       41.283        0.034      336.076        7.134      865.052
01/31/2022  03:03:00       61.349      198.625      -25.558       48.622       41.612       26.592     2364.141     1731.554      707.114        2.433        0.240      207.883       14.569        0.005      335.997        7.001      865.034
01/31/2022  03:04:00       -9.555      201.701      -25.390       46.962       98.935       30.587     2205.387     9788.053      935.586        2.717        0.646      201.927       35.346        0.031      336.125        7.216      865.031
01/31/2022  03:05:00      -23.493      162.050      -20.597       52.904       73.682       34.626     2798.848     5428.979     1198.927        1.833        0.471      163.744       30.484        0.035      336.164        7.279      865.026
01/31/2022  03:06:00        6.171      221.971      -27.477       55.370       53.874       32.626     3065.869     2902.361     1064.470        2.855        0.352      222.057       26.634        0.014      336.191        7.326      865.019
01/31/2022  03:07:00       58.421      177.089      -20.378       59.623       69.099       38.182     3554.945     4774.739     1457.857        2.249        0.489      186.477       35.868        0.037      336.264        7.446      865.015
01/31/2022  03:08:00      -34.589       88.975      -16.833       40.821       65.143       21.058     1666.384     4243.553      443.449        0.787        0.318       95.462       19.885        0.043      336.338        7.574      865.028
01/31/2022  03:09:00      -16.763       45.536       -2.620       33.955       54.247       22.655     1152.939     2942.757      513.246        0.348        0.230       48.523       18.451        0.145      336.243        7.414      865.022
01/31/2022  03:10:00      -39.651       34.982       -6.313       27.766       30.384       18.591      770.947      923.217      345.630        0.244        0.102       52.876       17.749        0.113      336.200        7.342      865.029
01/31/2022  03:11:00      -72.181       20.844       -9.995       30.855       21.453       15.637      952.057      460.211      244.501        0.370        0.083       75.130       11.945        0.025      335.862        6.780      865.025
01/31/2022  03:12:00      -60.452      106.967       -6.950       24.409       51.625       18.353      595.806     2665.166      336.814        0.937        0.180      122.868       12.452        0.010      336.347        7.586      865.012
01/31/2022  03:13:00      -22.866      139.856      -19.944       55.445       36.028       24.661     3074.184     1298.034      608.182        1.273        0.249      141.713       12.142        0.007      336.763        8.281      865.014
01/31/2022  03:14:00      -58.544       22.558      -15.692       29.577       30.140       15.998      874.800      908.412      255.949        0.311        0.102       62.740       12.948        0.043      336.236        7.402      865.011
01/31/2022  03:15:00      -21.382       53.803      -12.110       39.975       73.149       19.300     1597.999     5350.712      372.482        0.541        0.366       57.895       18.997        0.108      336.436        7.737      864.987
01/31/2022  03:16:00       73.622       89.827      -13.721       31.385       44.900       21.411      985.017     2015.983      458.436        0.857        0.173      116.143       12.704        0.012      336.324        7.549      864.951
01/31/2022  03:17:00       24.645       48.480      -10.739       39.399       46.301       20.007     1552.265     2143.827      400.285        0.358        0.205       54.385       16.412        0.091      336.223        7.380      864.931
01/31/2022  03:18:00      -22.479       38.890      -15.558       25.781       48.654       16.809      664.644     2367.197      282.553        0.279        0.166       44.919       12.425        0.077      336.071        7.127      864.939
01/31/2022  03:19:00        9.010       43.351       -5.931       14.510       19.662       16.240      210.536      386.580      263.728        0.143        0.043       44.277       10.794        0.059      335.880        6.808      864.946
01/31/2022  03:20:00       27.992       21.713       -6.007       18.270       35.812       11.866      333.802     1282.472      140.797        0.152        0.088       35.427       11.651        0.108      335.942        6.912      864.905
01/31/2022  03:21:00       41.357       -8.068       -0.016       26.399       20.817       19.718      696.888      433.357      388.819        0.165        0.076       42.137       17.159        0.166      335.705        6.515      864.875
01/31/2022  03:22:00        4.492       -1.159       -8.535       10.372       11.558       11.629      107.570      133.584      135.240        0.024        0.019        4.639        4.992        1.158      335.881        6.810      864.881
01/31/2022  03:23:00       45.609       -9.971       -5.793       26.023        7.904        6.075      677.197       62.474       36.903        0.149        0.039       46.686        8.126        0.030      335.943        6.915      864.866
01/31/2022  03:24:00       40.379       -5.482       -5.036       26.644       26.150       20.994      709.877      683.826      440.735        0.176        0.092       40.749       18.728        0.211      335.791        6.660      864.850
01/31/2022  03:25:00        2.602        5.885       -5.521       16.008       18.554       17.845      256.268      344.261      318.433        0.050        0.046        6.435       10.903        2.871      335.786        6.652      864.869
01/31/2022  03:26:00       36.496        1.993       -9.626       45.755       18.532       10.393     2093.475      343.419      108.012        0.199        0.127       36.550        5.242        0.021      335.839        6.740      864.885
01/31/2022  03:27:00       39.309      -13.142        0.235       49.848       35.451       39.097     2484.821     1256.775     1528.540        0.349        0.264       41.448       36.451        0.773      335.595        6.334      864.869
01/31/2022  03:28:00       53.306      -72.948      -18.272       42.732       56.972       32.651     1825.992     3245.829     1066.061        0.732        0.307       90.349       28.027        0.096      335.560        6.275      864.846
01/31/2022  03:29:00       47.398      -43.884      -16.760       35.315       51.791       25.562     1247.174     2682.347      653.417        0.452        0.229       64.594       21.817        0.114      335.832        6.728      864.844
01/31/2022  03:30:00       82.480        4.290      -15.519       18.476       19.065       16.198      341.378      363.473      262.366        0.401        0.048       82.592        8.920        0.012      336.071        7.127      864.818
01/31/2022  03:31:00       55.030        3.244      -14.597       20.747       20.493       14.195      430.428      419.964      201.512        0.215        0.053       55.125        9.723        0.031      335.845        6.750      864.794
01/31/2022  03:32:00      100.227       21.666       -9.947       24.099       19.474       17.866      580.781      379.226      319.183        0.595        0.064      102.542       11.547        0.013      335.675        6.465      864.752
01/31/2022  03:33:00       13.612      -48.324      -12.941       41.561       24.849       15.985     1727.338      617.455      255.530        0.264        0.130       50.205       13.002        0.067      335.425        6.051      864.729
01/31/2022  03:34:00      -18.734      -24.162       -8.121       37.234       17.551       11.900     1386.341      308.028      141.600        0.142        0.092       30.574        7.587        0.062      335.375        5.967      864.751
01/31/2022  03:35:00        4.576      -16.198       -6.837       29.874        9.817       11.926      892.468       96.369      142.234        0.073        0.057       16.832       11.695        0.483      335.495        6.166      864.778
01/31/2022  03:36:00      -32.461       -5.944      -15.960       11.981        7.698        9.064      143.547       59.264       82.161        0.081        0.014       33.001        3.044        0.009      335.237        5.738      864.836
01/31/2022  03:37:00      -50.932      -44.817      -24.577       20.972       31.858       13.290      439.815     1014.962      176.626        0.342        0.082       67.843        6.771        0.010      335.597        6.337      864.900
01/31/2022  03:38:00       13.204      -63.548      -40.105       47.778       62.500       37.209     2282.753     3906.204     1384.508        0.670        0.379       64.905       29.754        0.210      334.944        5.253      864.924
01/31/2022  03:39:00       81.356       42.007      -21.328       28.375       27.262       24.300      805.168      743.212      590.480        0.549        0.107       91.561       14.024        0.023      334.813        5.031      864.938
01/31/2022  03:40:00       89.336       73.064      -14.203       29.351       23.860       17.627      861.498      569.298      310.729        0.763        0.087      115.409       13.228        0.013      335.439        6.073      864.978
01/31/2022  03:41:00      133.607       66.712      -12.709       31.300       27.365       16.416      979.715      748.848      269.470        1.223        0.100      149.337       12.306        0.007      335.549        6.256      865.015
01/31/2022  03:42:00      136.075       47.304      -10.175       66.155       51.044       24.196     4376.435     2605.499      585.458        1.421        0.378      144.063       18.514        0.017      335.728        6.554      865.004
01/31/2022  03:43:00      112.706       29.563       -4.426       47.661       40.961       30.832     2271.537     1677.825      950.632        0.925        0.245      116.519       27.450        0.056      335.593        6.329      864.976
01/31/2022  03:44:00       75.869        1.643       -0.962       58.416       34.698       27.332     3412.441     1203.920      747.014        0.556        0.268       75.886       11.735        0.024      335.327        5.886      864.964
01/31/2022  03:45:00       76.390       -2.930        1.661       31.470       21.914       17.670      990.342      480.221      312.246        0.381        0.089       76.446       10.652        0.019      335.183        5.647      864.964
01/31/2022  03:46:00      110.013       24.256      -10.043       27.914       14.230       10.978      779.168      202.505      120.516        0.695        0.055      112.655        8.360        0.006      335.165        5.618      864.968
01/31/2022  03:47:00      139.137       48.005      -15.785       26.661       25.185       14.736      710.798      634.296      217.159        1.174        0.078      147.185       11.665        0.006      335.162        5.612      864.950
01/31/2022  03:48:00      129.761       36.829      -15.308       35.948       27.655       20.666     1292.289      764.782      427.077        1.046        0.124      134.886       20.071        0.022      334.949        5.260      864.930
01/31/2022  03:49:00       97.543       44.193       -5.536       48.337       39.191       21.889     2336.505     1535.958      479.123        0.792        0.218      107.087       13.581        0.016      334.755        4.937      864.917
01/31/2022  03:50:00      132.457       52.026       -2.661       35.330       32.368       20.616     1248.212     1047.691      425.034        1.149        0.136      142.309       16.400        0.013      334.898        5.174      864.922
01/31/2022  03:51:00      114.939       56.139       -9.219       40.017       27.044       22.003     1601.344      731.393      484.123        0.963        0.141      127.917       18.396        0.021      334.747        4.924      864.938
01/31/2022  03:52:00      124.026       29.118        4.081       85.929       40.384       34.745     7383.743     1630.898     1207.201        1.323        0.511      127.398       34.826        0.075      334.744        4.918      864.938
01/31/2022  03:53:00      105.995       16.842       -2.534       82.370       45.324       27.387     6784.822     2054.255      750.029        1.056        0.479      107.325       28.539        0.071      334.543        4.584      864.950
01/31/2022  03:54:00      112.273       51.415       -9.846       31.895       30.504       15.361     1017.306      930.502      235.955        0.876        0.109      123.486        9.941        0.006      334.934        5.233      864.956
01/31/2022  03:55:00       71.757       18.014       -4.792       34.522       23.125       16.984     1191.796      534.788      288.456        0.376        0.101       73.983        9.014        0.015      334.709        4.859      864.965
01/31/2022  03:56:00      -38.580       40.218      -19.002       56.073       22.749       16.892     3144.208      517.510      285.356        0.371        0.197       55.730       20.555        0.136      334.629        4.727      865.009
01/31/2022  03:57:00        3.829      108.521      -13.502       36.820       51.950       23.748     1355.726     2698.816      563.948        0.830        0.231      108.588       22.352        0.042      335.533        6.230      865.057
01/31/2022  03:58:00      -14.711      132.119      -22.063       65.724       61.635       34.606     4319.624     3798.895     1197.587        1.374        0.466      132.935       32.437        0.060      336.250        7.424      865.075
01/31/2022  03:59:00      -18.747      208.873      -21.981       64.585       99.495       38.216     4171.203     9899.171     1460.484        2.999        0.777      209.712       35.417        0.029      336.311        7.524      865.082
01/31/2022  04:00:00     -113.485       47.146      -41.086       53.096       42.789       39.006     2819.169     1830.889     1521.478        1.148        0.309      122.889       16.624        0.018      335.925        6.883      865.104
01/31/2022  04:01:00      -56.915       48.404      -15.243       57.223       54.580       28.819     3274.524     2979.026      830.519        0.645        0.354       74.715       13.808        0.034      336.203        7.348      865.101
01/31/2022  04:02:00      -52.642      103.030       -4.865       45.840       58.875       24.643     2101.291     3466.209      607.264        0.979        0.309      115.699       18.654        0.026      336.526        7.887      865.099
01/31/2022  04:03:00      -82.427       34.166      -15.329       47.371       43.578       26.841     2244.000     1899.054      720.414        0.653        0.243       89.228       15.296        0.029      335.872        6.794      865.116
01/31/2022  04:04:00      -39.083        1.113       -1.442       51.185       36.832       28.167     2619.914     1356.575      793.371        0.315        0.238       39.098       27.716        0.502      335.297        5.838      865.131
01/31/2022  04:05:00     -137.730       89.702      -26.921       61.315       52.722       34.448     3759.558     2779.570     1186.676        1.773        0.386      164.366       15.654        0.009      335.789        6.656      865.131
01/31/2022  04:06:00      -81.465       12.770      -15.103       72.498       43.389       43.220     5256.011     1882.626     1867.948        0.802        0.450       82.460       30.850        0.140      335.590        6.325      865.136
01/31/2022  04:07:00      -77.168       26.259      -14.695       51.370       43.268       44.131     2638.869     1872.140     1947.580        0.666        0.323       81.514       27.726        0.116      335.472        6.129      865.134
01/31/2022  04:08:00      -78.726       22.942       -5.318       47.379       41.406       25.406     2244.787     1714.441      645.485        0.568        0.230       82.000       18.925        0.053      335.432        6.062      865.117
01/31/2022  04:09:00      -61.049      -16.698      -17.063       33.092       57.906       29.260     1095.061     3353.145      856.131        0.480        0.265       63.291       15.455        0.060      335.508        6.189      865.085
01/31/2022  04:10:00      -79.588       19.273       -8.233       98.377       58.543       45.603     9677.989     3427.247     2079.591        1.098        0.759       81.889       36.604        0.200      335.614        6.365      865.093
01/31/2022  04:11:00     -141.303       53.328       -5.025       77.248       65.413       42.588     5967.234     4278.858     1813.770        1.745        0.603      151.031       27.591        0.033      335.518        6.203      865.107
01/31/2022  04:12:00     -199.736       43.868      -15.320       82.941       56.056       43.266     6879.179     3142.282     1871.910        2.697        0.595      204.497       31.616        0.024      335.516        6.199      865.144
01/31/2022  04:13:00     -170.401       32.963        0.353       87.737       57.172       39.943     7697.754     3268.633     1595.403        2.134        0.628      173.560       32.088        0.034      335.557        6.268      865.178
01/31/2022  04:14:00     -135.073       23.467      -16.448       70.811       69.648       37.477     5014.128     4850.850     1404.530        1.517        0.563      137.096       27.076        0.039      335.594        6.331      865.175
01/31/2022  04:15:00     -178.144       29.788       -0.179       99.707       41.896       34.916     9941.585     1755.262     1219.137        2.277        0.646      180.617       39.995        0.049      335.663        6.445      865.174
01/31/2022  04:16:00     -220.836       63.022      -12.253       60.072       48.622       34.624     3608.616     2364.130     1198.805        3.003        0.359      229.652       28.925        0.016      335.835        6.730      865.182
01/31/2022  04:17:00     -149.615       43.678      -14.114       47.138       56.279       34.251     2222.012     3167.367     1173.151        1.553        0.328      155.861       25.966        0.028      335.803        6.680      865.192
01/31/2022  04:18:00     -161.763       36.960      -14.985       67.608       51.855       45.064     4570.871     2688.945     2030.776        1.852        0.465      165.931       33.644        0.041      335.733        6.562      865.187
01/31/2022  04:19:00     -134.548       56.462      -19.226       48.878       48.771       32.620     2389.043     2378.628     1064.039        1.375        0.292      145.914       28.038        0.037      335.818        6.704      865.180
01/31/2022  04:20:00      -51.190       26.025       -5.554       66.202       50.229       31.762     4382.677     2522.992     1008.818        0.562        0.396       57.426       30.493        0.282      335.812        6.695      865.181
01/31/2022  04:21:00     -141.521       45.352      -31.527       59.039       41.271       31.335     3485.548     1703.297      981.909        1.462        0.309      148.611       25.639        0.030      335.787        6.654      865.183
01/31/2022  04:22:00     -149.054       28.993      -24.332       68.188       36.576       30.749     4649.606     1337.798      945.517        1.529        0.347      151.847       33.323        0.048      335.820        6.706      865.182
01/31/2022  04:23:00      -58.481        9.946      -13.035       75.394       44.613       42.320     5684.325     1990.301     1791.010        0.658        0.473       59.321       29.719        0.251      335.711        6.526      865.172
01/31/2022  04:24:00     -128.899       21.221      -11.206       93.165       65.539       46.171     8679.760     4295.304     2131.730        1.615        0.755      130.634       36.511        0.078      335.716        6.534      865.158
01/31/2022  04:25:00     -119.420       50.462      -25.946      115.041       72.626       46.097    13234.490     5274.467     2124.921        1.905        1.032      129.644       47.808        0.136      335.903        6.845      865.160
01/31/2022  04:26:00     -126.765       34.365      -20.975       97.563       70.374       45.406     9518.459     4952.528     2061.748        1.711        0.827      131.341       41.471        0.100      335.771        6.626      865.173
01/31/2022  04:27:00     -200.810       69.581      -38.512       79.286       59.112       47.549     6286.211     3494.283     2260.921        2.934        0.602      212.523       25.970        0.015      335.864        6.779      865.166
01/31/2022  04:28:00     -162.067       18.965      -24.235       97.194       59.663       51.449     9446.609     3559.686     2646.985        2.143        0.783      163.173       12.139        0.006      335.798        6.670      865.165
01/31/2022  04:29:00     -119.619       37.391      -39.289       87.615       85.796       45.164     7676.424     7360.871     2039.777        1.716        0.854      125.327       43.117        0.118      335.881        6.809      865.166
01/31/2022  04:30:00     -163.055       41.818      -26.837      140.462       69.304       54.767    19729.607     4803.084     2999.457        2.829        1.377      168.331       64.514        0.147      335.965        6.949      865.167
01/31/2022  04:31:00     -223.289       72.430      -28.155      140.552       97.040       54.453    19754.742     9416.851     2965.170        4.401        1.607      234.743       51.672        0.048      336.061        7.108      865.162
01/31/2022  04:32:00     -141.596       42.029      -11.327      124.644       69.546       43.217    15536.080     4836.655     1867.747        2.209        1.112      147.702       57.298        0.150      335.883        6.810      865.167
01/31/2022  04:33:00     -211.787       54.353      -33.141       80.778       41.742       46.949     6525.082     1742.382     2204.174        2.969        0.524      218.650       34.744        0.025      335.921        6.873      865.186
01/31/2022  04:34:00     -187.015       31.119      -34.228       65.089       69.622       50.797     4236.564     4847.280     2580.383        2.439        0.583      189.587       39.514        0.043      335.895        6.831      865.191
01/31/2022  04:35:00     -141.203       38.197      -19.926       80.517       71.495       45.072     6483.063     5111.602     2031.459        1.771        0.681      146.278       29.510        0.041      335.915        6.864      865.185
01/31/2022  04:36:00      -30.057       -8.879       -4.038       96.114       69.961       60.117     9237.928     4894.569     3614.067        0.937        0.887       31.341       46.209        2.174      335.832        6.729      865.199
01/31/2022  04:37:00     -128.222       43.650      -19.005      107.943       86.575       59.013    11651.715     7495.238     3482.478        2.066        1.131      135.448       46.745        0.119      335.850        6.756      865.215
01/31/2022  04:38:00     -219.124       58.056      -32.858      139.291       67.352       47.999    19402.002     4536.353     2303.878        3.935        1.312      226.684       48.967        0.047      335.990        6.988      865.200
01/31/2022  04:39:00     -249.051       54.632      -23.651      104.271       63.963       47.278    10872.381     4091.238     2235.241        4.138        0.860      254.972       29.046        0.013      335.982        6.976      865.175
01/31/2022  04:40:00     -238.466       60.812       -8.930      118.121       69.821       45.282    13952.614     4874.931     2050.432        4.076        1.044      246.098       29.616        0.014      335.959        6.937      865.146
01/31/2022  04:41:00     -192.546       35.964        7.266      143.472       86.225       60.808    20584.204     7434.798     3697.595        3.506        1.586      195.876       57.985        0.088      336.021        7.041      865.127
01/31/2022  04:42:00     -258.200       21.756       -8.031      161.739      112.642       63.869    26159.636    12688.132     4079.215        5.506        2.146      259.115       39.948        0.024      336.126        7.216      865.107
01/31/2022  04:43:00     -231.168       14.666       -6.641      161.676       98.986       79.991    26139.082     9798.219     6398.542        4.801        2.117      231.633       92.717        0.160      336.158        7.268      865.089
01/31/2022  04:44:00     -319.996      112.853       -4.662      180.002      112.861       78.846    32400.557    12737.579     6216.724        8.325        2.568      339.313       80.079        0.056      336.205        7.347      865.071
01/31/2022  04:45:00     -124.107       27.267       -7.383      147.075       74.495       57.380    21631.152     5549.554     3292.454        2.333        1.524      127.067       63.573        0.250      336.129        7.220      865.056
01/31/2022  04:46:00     -186.563       76.861        4.052      146.975       86.880       66.423    21601.744     7548.080     4411.984        3.714        1.678      201.776       54.603        0.073      336.133        7.229      865.054
01/31/2022  04:47:00     -240.223       93.101       -0.182      166.055       93.110       61.034    27574.353     8669.540     3725.185        5.316        1.998      257.633       54.045        0.044      336.157        7.268      865.058
01/31/2022  04:48:00     -263.361       45.554      -31.268      131.453       86.924       59.581    17279.838     7555.707     3549.911        5.039        1.419      267.272       58.150        0.047      336.135        7.231      865.062
01/31/2022  04:49:00      -78.381        1.555      -12.214      130.941      101.669       69.258    17145.523    10336.602     4796.643        1.928        1.614       78.396       67.330        0.738      336.003        7.012      865.046
01/31/2022  04:50:00      -85.469       19.679       14.289      130.036       79.090       70.318    16909.269     6255.285     4944.674        1.800        1.405       87.705       64.864        0.547      336.096        7.168      865.016
01/31/2022  04:51:00     -187.667       44.256       -3.052      124.402       68.419       44.285    15475.828     4681.152     1961.195        2.965        1.106      192.815       51.571        0.072      336.052        7.092      865.012
01/31/2022  04:52:00     -264.011       72.451       -9.259       96.219       93.349       60.038     9258.177     8714.102     3604.603        4.830        1.079      273.772       56.507        0.043      336.143        7.245      865.006
01/31/2022  04:53:00     -192.615       43.906       -3.476       97.102       67.610       53.331     9428.731     4571.134     2844.227        2.794        0.842      197.556       48.126        0.059      336.101        7.174      864.999
01/31/2022  04:54:00     -224.429       80.188        3.588      117.376       71.523       53.885    13777.195     5115.583     2903.583        3.930        1.090      238.324       51.218        0.046      336.144        7.244      864.981
01/31/2022  04:55:00     -192.897       97.721        1.163       92.346       72.038       57.011     8527.861     5189.526     3250.298        3.186        0.848      216.238       52.519        0.059      336.123        7.209      864.945
01/31/2022  04:56:00     -170.293       28.517        1.659       80.362       72.211       43.366     6458.016     5214.360     1880.595        2.168        0.678      172.665       43.445        0.063      335.999        7.004      864.937
01/31/2022  04:57:00     -234.172       51.788      -31.331      106.059       72.922       50.733    11248.616     5317.590     2573.855        3.882        0.957      239.830       56.449        0.055      336.107        7.185      864.944
01/31/2022  04:58:00     -104.527       -9.933      -15.940       56.065       68.823       45.620     3143.280     4736.569     2081.218        1.062        0.498      104.998       23.682        0.051      336.040        7.073      864.965
01/31/2022  04:59:00      -46.188        0.554       -0.023       56.766       39.472       26.659     3222.397     1558.019      710.698        0.381        0.275       46.191       26.073        0.319      335.975        6.967      864.968
01/31/2022  05:00:00      -87.001       -6.860      -17.458       95.969       72.143       42.711     9209.966     5204.573     1824.270        1.208        0.812       87.272       26.545        0.093      336.067        7.120      864.983
01/31/2022  05:01:00     -129.958       -9.668      -24.795      103.929       64.433       28.935    10801.240     4151.669      837.210        1.669        0.790      130.317       32.609        0.063      336.115        7.199      864.996
01/31/2022  05:02:00      -40.211       61.945      -12.691       44.531       41.030       26.289     1982.984     1683.476      691.138        0.499        0.218       73.852       22.704        0.095      336.032        7.061      865.019
01/31/2022  05:03:00      -44.948       14.859      -15.970       46.900       64.536       32.739     2199.593     4164.834     1071.843        0.496        0.372       47.341       26.488        0.313      335.933        6.897      865.022
01/31/2022  05:04:00       28.754       -6.042      -24.037       48.308       26.468       21.649     2333.624      700.564      468.696        0.247        0.175       29.382       11.831        0.162      334.680        4.811      865.045
01/31/2022  05:05:00       33.462       36.323      -21.203       53.190       33.036       22.088     2829.199     1091.381      487.874        0.365        0.220       49.387       16.886        0.117      334.111        3.869      865.054
01/31/2022  05:06:00       33.685      -10.944      -27.598      116.610       77.641       45.604    13597.897     6028.056     2079.683        1.186        1.085       35.419       45.860        1.677      334.804        5.020      865.094
01/31/2022  05:07:00       83.512       12.245      -13.885       69.297       60.356       31.736     4802.141     3642.899     1007.204        0.838        0.473       84.405       34.042        0.163      334.511        4.532      865.104
01/31/2022  05:08:00        6.094      -20.090       -0.692       61.324       62.902       30.128     3760.670     3956.644      907.719        0.453        0.431       20.994       23.947        1.301      334.831        5.063      865.126
01/31/2022  05:09:00      139.493       50.740      -23.656       36.922       27.972       22.779     1363.231      782.406      518.894        1.263        0.133      148.434        9.807        0.004      333.747        3.263      865.168
01/31/2022  05:10:00      120.552       13.472      -15.898       59.595       37.128       25.444     3551.590     1378.505      647.411        1.027        0.279      121.302       21.391        0.031      333.717        3.216      865.180
01/31/2022  05:11:00      121.566       24.292      -10.946       37.875       25.943       23.169     1434.483      673.023      536.807        0.907        0.132      123.970        8.231        0.004      333.605        3.032      865.190
01/31/2022  05:12:00      134.139       40.750      -11.105       30.506       37.461       15.329      930.594     1403.292      234.972        1.117        0.128      140.192        8.011        0.003      333.554        2.947      865.186
01/31/2022  05:13:00      107.157       14.507       -3.797       55.792       46.070       26.475     3112.734     2122.459      700.929        0.882        0.297      108.134       27.660        0.065      333.515        2.881      865.183
01/31/2022  05:14:00       75.889       29.670      -13.541       35.140       24.895       13.159     1234.847      619.785      173.168        0.442        0.101       81.483       13.608        0.028      333.519        2.887      865.197
01/31/2022  05:15:00       96.550       35.460       -8.867       35.736       33.075       14.966     1277.079     1093.943      223.972        0.663        0.130      102.855       11.119        0.012      333.419        2.721      865.191
01/31/2022  05:16:00       63.465       23.599       -7.520       38.908       31.759       17.723     1513.799     1008.639      314.118        0.374        0.142       67.710        6.214        0.008      333.385        2.666      865.186
01/31/2022  05:17:00       98.746       50.223      -12.637       30.485       16.701       11.661      929.333      278.940      135.983        0.689        0.067      110.784       13.602        0.015      333.407        2.701      865.195
01/31/2022  05:18:00      139.483       15.935      -12.413       43.080       37.838       24.478     1855.907     1431.683      599.178        1.187        0.194      140.390       22.815        0.026      333.470        2.806      865.178
01/31/2022  05:19:00      138.916      -10.721      -16.405       51.463       46.282       43.416     2648.445     2142.035     1884.965        1.318        0.334      139.329       32.383        0.054      333.379        2.657      865.139
01/31/2022  05:20:00       50.773        9.492       -7.466       55.886       54.779       40.262     3123.260     3000.744     1621.006        0.523        0.387       51.653       35.020        0.460      333.416        2.718      865.097
01/31/2022  05:21:00       29.296       13.001        4.945       33.143       27.929       20.261     1098.453      780.032      410.523        0.167        0.114       32.051       15.818        0.244      333.396        2.684      865.125
01/31/2022  05:22:00       56.201       39.131       -8.455       34.969       29.547       14.857     1222.841      873.036      220.735        0.354        0.116       68.482        7.992        0.014      333.310        2.543      865.156
01/31/2022  05:23:00      -14.258       20.273        5.176       15.191       37.294       14.504      230.757     1390.847      210.373        0.124        0.092       24.785        8.789        0.126      333.310        2.542      865.164
01/31/2022  05:24:00       26.124        2.572       -5.899       18.503       24.416       11.088      342.372      596.145      122.951        0.089        0.053       26.250        6.007        0.052      333.357        2.618      865.170
01/31/2022  05:25:00       68.181      -13.099      -18.705       32.037       27.169       14.164     1026.396      738.130      200.632        0.357        0.098       69.428       13.224        0.036      333.456        2.781      865.175
01/31/2022  05:26:00       49.685      -22.657      -17.000       35.906       33.924       21.037     1289.232     1150.863      442.541        0.308        0.144       54.607       17.910        0.108      333.417        2.718      865.140
01/31/2022  05:27:00       48.460        3.406       -3.028       36.030       19.420       14.133     1298.165      377.154      199.742        0.212        0.094       48.580       11.319        0.054      333.341        2.592      865.156
01/31/2022  05:28:00      105.522      -25.674      -23.253       43.279       32.061       26.446     1873.041     1027.885      699.377        0.797        0.180      108.601       17.662        0.026      333.508        2.872      865.163
01/31/2022  05:29:00       51.277       -9.845      -16.939       71.502       61.851       54.600     5112.583     3825.574     2981.178        0.746        0.596       52.213       36.982        0.502      333.341        2.593      865.087
01/31/2022  05:30:00       33.997      -66.508       -3.977       27.170       46.491       23.929      738.212     2161.425      572.595        0.453        0.174       74.693       24.743        0.110      333.575        2.981      865.123
01/31/2022  05:31:00       69.509      -19.111      -37.021       36.858       49.437       25.991     1358.531     2444.029      675.555        0.552        0.224       72.088       19.209        0.071      333.674        3.145      865.166
01/31/2022  05:32:00       90.611       18.184      -33.002       77.350       83.911       58.595     5983.055     7040.973     3433.331        1.304        0.823       92.418       46.483        0.253      333.539        2.919      865.058
01/31/2022  05:33:00       23.623       14.312      -17.329       57.157       47.966       35.478     3266.962     2300.714     1258.713        0.394        0.341       27.620       22.102        0.640      333.477        2.817      865.050
01/31/2022  05:34:00       14.580       86.114       -9.777       33.203       38.363       19.207     1102.408     1471.734      368.925        0.533        0.147       87.340       14.578        0.028      333.357        2.621      865.120
01/31/2022  05:35:00       61.201        1.645      -27.346       45.735       28.237       16.776     2091.712      797.316      281.420        0.383        0.159       61.223       11.932        0.038      333.443        2.763      865.098
01/31/2022  05:36:00       59.483      -21.031       -8.965       57.388       42.187       32.305     3293.404     1779.778     1043.622        0.509        0.306       63.091       31.975        0.257      333.396        2.685      865.044
01/31/2022  05:37:00       50.220       -4.988       -3.661       37.009       20.824       18.146     1369.678      433.645      329.278        0.235        0.107       50.467       11.471        0.052      333.459        2.788      865.063
01/31/2022  05:38:00      -46.210       36.724      -10.037       40.553       19.483       15.452     1644.529      379.602      238.759        0.292        0.113       59.025       18.314        0.096      333.325        2.566      865.133
01/31/2022  05:39:00       89.028       10.591      -52.080       55.843       63.381       45.760     3118.398     4017.160     2093.997        0.999        0.461       89.656       32.975        0.135      333.367        2.636      865.063
01/31/2022  05:40:00       22.005       12.323      -20.595       26.126       27.316       33.145      682.549      746.170     1098.565        0.179        0.126       25.221       16.891        0.449      333.329        2.573      865.057
01/31/2022  05:41:00       78.563       19.726       -6.478       49.932       13.436       15.514     2493.157      180.521      240.678        0.476        0.146       81.001       17.806        0.048      333.533        2.910      865.101
01/31/2022  05:42:00       71.868      -42.697      -24.978       63.987       41.859       29.108     4094.343     1752.191      847.301        0.715        0.335       83.595       21.982        0.069      333.551        2.940      865.039
01/31/2022  05:43:00      -16.731      -19.060      -16.221       27.371       18.750       18.931      749.199      351.566      358.381        0.118        0.073       25.362       12.635        0.248      333.637        3.083      865.123
01/31/2022  05:44:00       82.492      -78.539      -26.613       22.154       28.282       18.036      490.789      799.854      325.310        0.765        0.081      113.901       11.160        0.010      333.822        3.388      865.170
01/31/2022  05:45:00       38.781      -40.901       -5.749       55.718       38.678       33.504     3104.485     1495.982     1122.521        0.447        0.286       56.363       29.898        0.281      333.709        3.203      865.176
01/31/2022  05:46:00      -62.556      -23.788      -22.133       39.736       27.829       26.501     1578.983      774.463      702.300        0.401        0.153       66.926       16.753        0.063      333.566        2.967      865.237
01/31/2022  05:47:00       61.772      -15.870      -25.495       60.840       65.193       41.718     3701.542     4250.124     1740.400        0.720        0.485       63.778       41.072        0.415      333.624        3.063      865.215
01/31/2022  05:48:00       34.934      -12.772      -24.720       40.991       76.082       46.195     1680.240     5788.515     2133.959        0.580        0.480       37.196       49.844        1.796      333.462        2.792      865.199
01/31/2022  05:49:00       17.684       23.168        7.013       30.982       33.133       16.077      959.887     1097.817      258.483        0.161        0.116       29.146       16.687        0.328      333.569        2.971      865.284
01/31/2022  05:50:00       67.932      -37.645      -15.150       41.462       40.265       24.175     1719.104     1621.268      584.424        0.509        0.196       77.665       21.914        0.080      333.734        3.245      865.254
01/31/2022  05:51:00       26.276      -43.630      -23.717       50.271       66.569       40.677     2527.125     4431.431     1654.593        0.588        0.431       50.931       37.002        0.528      333.633        3.077      865.225
01/31/2022  05:52:00       17.979      -68.096      -20.859       47.572       47.639       40.947     2263.057     2269.458     1676.649        0.580        0.310       70.430       29.640        0.177      333.739        3.251      865.221
01/31/2022  05:53:00       17.156       -5.431        8.423       19.995       27.590       19.552      399.819      761.190      382.283        0.097        0.077       17.995        5.137        0.081      333.597        3.017      865.269
01/31/2022  05:54:00        2.040       27.164      -15.281       22.554       29.762       20.880      508.704      885.793      435.979        0.140        0.092       27.240       17.541        0.415      333.381        2.659      865.268
01/31/2022  05:55:00       56.685      -67.730      -45.699       55.936       74.189       33.902     3128.806     5503.995     1149.344        0.983        0.489       88.321       32.477        0.135      333.924        3.559      865.208
01/31/2022  05:56:00       46.192      -21.702      -43.749       37.008       53.053       31.976     1369.575     2814.659     1022.443        0.486        0.260       51.036       18.432        0.130      333.816        3.378      865.177
01/31/2022  05:57:00       48.596     -123.641      -18.287       44.572       65.765       34.126     1986.627     4325.054     1164.600        1.273        0.374      132.848       34.805        0.069      333.800        3.354      865.179
01/31/2022  05:58:00       67.202      -88.750      -23.417       35.204       64.396       25.096     1239.322     4146.843      629.801        0.948        0.301      111.322       25.676        0.053      333.773        3.308      865.203
01/31/2022  05:59:00       53.794      -97.423      -26.897       32.652       30.791       24.620     1066.155      948.108      606.168        0.786        0.131      111.288       17.475        0.025      333.719        3.219      865.218
01/31/2022  06:00:00       64.614     -124.598      -20.839       42.732       51.019       34.219     1826.058     2602.922     1170.916        1.287        0.280      140.355       25.941        0.034      333.870        3.469      865.241
01/31/2022  06:01:00       67.851     -137.375      -16.816       45.448       42.406       35.412     2065.542     1798.306     1254.017        1.444        0.256      153.218       29.194        0.036      333.867        3.463      865.254
01/31/2022  06:02:00       85.026     -123.228      -28.380       23.026       43.104       23.207      530.175     1857.924      538.585        1.307        0.146      149.715       17.880        0.014      333.741        3.256      865.250
01/31/2022  06:03:00       65.320      -32.740      -17.636       46.356       39.391       29.148     2148.836     1551.653      849.616        0.510        0.228       73.066       25.553        0.122      333.567        2.967      865.216
01/31/2022  06:04:00       -1.445      -32.042      -10.502       45.706       54.265       34.471     2089.007     2944.734     1188.225        0.368        0.311       32.074       23.782        0.550      333.547        2.935      865.172
01/31/2022  06:05:00       38.625      -83.837      -29.664       34.891       61.952       33.968     1217.389     3838.008     1153.826        0.780        0.310       92.307       27.308        0.088      333.485        2.832      865.211
01/31/2022  06:06:00       59.263      -73.617      -17.571       33.696       56.817       29.719     1135.417     3228.132      883.195        0.724        0.262       94.507       28.138        0.089      333.500        2.857      865.247
01/31/2022  06:07:00       70.892       14.238      -14.515       26.011       16.064       12.098      676.594      258.062      146.367        0.326        0.054       72.308        3.243        0.002      333.119        2.226      865.240
01/31/2022  06:08:00       84.158       24.095       -8.763       44.583       27.463       19.857     1987.606      754.226      394.312        0.544        0.157       87.540       17.669        0.041      333.119        2.225      865.201
01/31/2022  06:09:00       51.837      -10.010        3.561       30.702       25.761       14.685      942.643      663.614      215.642        0.231        0.091       52.795        7.779        0.022      333.104        2.202      865.176
01/31/2022  06:10:00       19.207       -2.150       -4.204       27.070       10.219        7.655      732.772      104.433       58.603        0.064        0.045       19.327        7.588        0.154      333.222        2.397      865.199
01/31/2022  06:11:00      -25.558       16.223       -4.426       13.741       18.898       13.042      188.804      357.147      170.090        0.083        0.036       30.272        9.259        0.094      333.155        2.286      865.211
01/31/2022  06:12:00      -32.003       43.361       -9.216       18.421       11.502       10.640      339.352      132.288      113.217        0.179        0.029       53.893       10.615        0.039      333.203        2.367      865.194
01/31/2022  06:13:00      -38.913       26.234      -10.137       12.420       11.336        8.772      154.254      128.503       76.940        0.133        0.018       46.931        6.355        0.018      333.249        2.439      865.190
01/31/2022  06:14:00       30.259       16.503       -8.741       16.944        9.625        9.528      287.114       92.647       90.783        0.087        0.024       34.466        6.533        0.036      333.862        3.457      865.179
01/31/2022  06:15:00       43.468       -6.164        1.011       11.633       16.991        9.331      135.317      288.678       87.072        0.122        0.026       43.903        1.802        0.002      333.936        3.579      865.168
01/31/2022  06:16:00       -4.993       -7.356       -4.261       25.686        7.651        7.022      659.761       58.545       49.303        0.043        0.038        8.891        8.289        0.869      333.777        3.314      865.171
01/31/2022  06:17:00      -20.125       -1.332       -7.704       26.710       18.614       15.649      713.438      346.470      244.899        0.089        0.065       20.170       12.793        0.402      333.386        2.669      865.202
01/31/2022  06:18:00      -30.214       -8.944       -5.003       41.659       29.504       17.171     1735.435      870.475      294.853        0.196        0.145       31.510        7.644        0.059      333.131        2.244      865.203
01/31/2022  06:19:00        3.545       20.510      -16.732       19.438       20.684       17.113      377.819      427.828      292.842        0.091        0.055       20.814       11.999        0.332      333.138        2.257      865.186
01/31/2022  06:20:00      -39.369       30.023       -6.580       19.412       21.776       10.502      376.811      474.184      110.286        0.173        0.048       49.510        6.657        0.018      333.189        2.342      865.177
01/31/2022  06:21:00       17.485        2.247       -7.854       14.473        9.037        7.221      209.471       81.674       52.143        0.036        0.017       17.628        7.780        0.195      333.253        2.448      865.169
01/31/2022  06:22:00       20.336        9.592       -6.810       10.027        9.873        7.742      100.546       97.476       59.941        0.040        0.013       22.484        5.372        0.057      333.303        2.532      865.166
01/31/2022  06:23:00        1.041       59.524       -3.073       18.758       22.267       12.453      351.862      495.818      155.087        0.228        0.050       59.533        5.601        0.009      333.420        2.724      865.190
01/31/2022  06:24:00      -10.434       64.838       -6.324       24.704       22.729       13.181      610.291      516.613      173.739        0.283        0.065       65.672        8.060        0.015      333.139        2.260      865.209
01/31/2022  06:25:00       27.205      110.431       -7.223       33.037       43.049       24.683     1091.471     1853.217      609.229        0.827        0.178      113.733       25.368        0.050      333.283        2.498      865.221
01/31/2022  06:26:00       60.090       37.577       -9.238       16.788       20.049       13.727      281.851      401.974      188.431        0.299        0.044       70.871        8.294        0.014      333.571        2.973      865.250
01/31/2022  06:27:00       78.677       -4.984      -11.770       31.196       27.350       19.920      973.216      747.998      396.800        0.424        0.106       78.835       15.728        0.040      333.411        2.709      865.245
01/31/2022  06:28:00       27.065      -15.752      -15.641       46.534       31.062       25.563     2165.456      964.833      653.465        0.250        0.189       31.315       13.489        0.186      333.209        2.375      865.233
01/31/2022  06:29:00      -29.226       13.632       -1.756       16.427       21.930       14.097      269.847      480.903      198.733        0.100        0.047       32.249        8.957        0.077      333.155        2.286      865.272
01/31/2022  06:30:00      -57.236       36.063      -27.209       32.216       39.702       19.274     1037.864     1576.264      371.490        0.415        0.149       67.649       18.534        0.075      332.778        1.662      865.333
01/31/2022  06:31:00      -72.416       26.130      -24.396       60.318       40.027       25.913     3638.223     1602.182      671.506        0.622        0.296       76.986       22.532        0.086      332.783        1.672      865.357
01/31/2022  06:32:00      -55.508       30.747      -12.917       45.817       18.392       13.282     2099.238      338.249      176.411        0.340        0.131       63.455       18.015        0.081      333.165        2.303      865.353
01/31/2022  06:33:00       73.075      -18.005      -10.136       32.115       28.678       18.085     1031.377      822.446      327.078        0.397        0.109       75.260       17.111        0.052      333.122        2.231      865.319
01/31/2022  06:34:00      108.912      -13.738      -10.351       37.345       29.350       22.178     1394.654      861.414      491.860        0.745        0.137      109.775       16.269        0.022      333.283        2.497      865.299
01/31/2022  06:35:00      118.912       43.874       -5.875       25.594       25.843       13.716      655.044      667.885      188.123        0.880        0.076      126.748        9.989        0.006      333.425        2.732      865.321
01/31/2022  06:36:00       15.160      101.699      -13.596       28.935       36.282       17.560      837.211     1316.367      308.368        0.661        0.123      102.823       12.903        0.016      333.357        2.619      865.369
01/31/2022  06:37:00      -58.189       35.737      -16.574       22.359       28.478       14.467      499.917      810.982      209.306        0.323        0.076       68.287        6.059        0.008      332.812        1.719      865.405
01/31/2022  06:38:00      -91.666       40.040      -27.044       50.715       31.175       23.066     2572.058      971.909      532.053        0.741        0.204      100.029       15.904        0.025      332.539        1.267      865.406
01/31/2022  06:39:00      -41.393       15.393      -16.064       54.621       36.235       36.620     2983.455     1312.958     1340.999        0.392        0.282       44.163       25.250        0.327      332.434        1.093      865.393
01/31/2022  06:40:00      -37.220       -1.804      -18.058       65.961       39.397       26.744     4350.791     1552.111      715.258        0.417        0.331       37.264       14.808        0.158      332.527        1.248      865.401
01/31/2022  06:41:00     -104.538       44.308      -17.766       47.625       30.016       24.538     2268.182      900.933      602.113        0.849        0.189      113.540       23.282        0.042      332.541        1.269      865.429
01/31/2022  06:42:00      -72.016       18.368      -13.064       47.714       37.537       17.900     2276.642     1409.023      320.427        0.485        0.200       74.322       18.048        0.059      332.567        1.314      865.442
01/31/2022  06:43:00      -33.259       18.180      -13.986       20.509       17.809       14.011      420.620      317.149      196.318        0.128        0.047       37.904        9.891        0.068      332.682        1.505      865.427
01/31/2022  06:44:00      -23.581       21.700      -19.775       21.904        7.901       13.088      479.789       62.432      171.283        0.107        0.036       32.046        9.760        0.093      333.238        2.423      865.419
01/31/2022  06:45:00      -39.939       23.845      -15.007       20.895       13.535       13.330      436.582      183.194      177.688        0.159        0.040       46.516       15.538        0.112      333.219        2.392      865.444
01/31/2022  06:46:00     -126.852       32.642      -33.542       92.654       40.955       36.686     8584.696     1677.343     1345.847        1.494        0.580      130.984       35.861        0.075      332.576        1.327      865.497
01/31/2022  06:47:00     -124.752       20.493      -18.417       59.378       50.704       42.135     3525.734     2570.916     1775.374        1.210        0.394      126.424       24.417        0.037      332.499        1.200      865.531
01/31/2022  06:48:00      -88.311       18.714        5.122       86.749       43.692       39.678     7525.424     1908.953     1574.348        0.959        0.550       90.272       46.381        0.264      332.432        1.090      865.532
01/31/2022  06:49:00     -141.456       34.057       -9.310       47.963       38.119       29.403     2300.425     1453.026      864.512        1.294        0.231      145.498       24.919        0.029      332.457        1.132      865.535
01/31/2022  06:50:00     -114.119       23.110       -1.794       37.956       29.459       23.334     1440.694      867.827      544.455        0.821        0.143      116.436       19.331        0.028      332.453        1.126      865.545
01/31/2022  06:51:00     -140.775       23.185      -12.129       31.842       26.252       18.859     1013.911      689.168      355.665        1.128        0.103      142.672       12.417        0.008      332.480        1.170      865.554
01/31/2022  06:52:00      -89.003        9.884       -0.888       52.249       29.874       22.802     2729.972      892.459      519.953        0.608        0.207       89.550       21.856        0.060      332.478        1.167      865.546
01/31/2022  06:53:00     -109.514       36.592      -14.703       31.593       22.928       16.131      998.104      525.703      260.210        0.767        0.089      115.466       15.880        0.019      332.577        1.330      865.514
01/31/2022  06:54:00     -108.410       52.008       -3.877       29.639       24.422       20.845      878.463      596.455      434.527        0.819        0.095      120.239       14.820        0.015      332.789        1.681      865.478
01/31/2022  06:55:00     -117.965       54.363      -19.577       31.051       31.259       18.738      964.176      977.096      351.111        0.977        0.115      129.888       19.198        0.022      333.035        2.087      865.445
01/31/2022  06:56:00     -165.044       34.855      -17.806       59.365       45.567       33.606     3524.239     2076.329     1129.341        1.775        0.336      168.684       21.153        0.016      332.904        1.871      865.443
01/31/2022  06:57:00     -125.148       16.823      -26.410       92.654       45.494       35.268     8584.721     2069.735     1243.844        1.427        0.595      126.274       28.839        0.052      332.578        1.330      865.449
01/31/2022  06:58:00      -38.079        6.147        1.948       53.833       35.252       24.140     2898.031     1242.682      582.745        0.311        0.236       38.572       18.403        0.228      332.490        1.187      865.441
01/31/2022  06:59:00      -39.119        5.399       -5.800       56.400       31.968       24.186     3180.936     1021.924      584.972        0.319        0.239       39.490        9.439        0.057      332.647        1.446      865.434
01/31/2022  07:00:00     -123.076      -14.962       -0.799       67.500       49.777       40.117     4556.283     2477.751     1609.414        1.201        0.432      123.982       38.905        0.098      332.823        1.737      865.436
01/31/2022  07:01:00     -131.320       -0.443      -11.177       94.488       40.837       41.528     8927.929     1667.654     1724.596        1.484        0.616      131.321       37.154        0.080      332.845        1.772      865.449
01/31/2022  07:02:00     -140.312      -12.311       -9.121       70.310       45.334       32.697     4943.522     2055.156     1069.087        1.399        0.403      140.851       31.318        0.049      333.058        2.124      865.467
01/31/2022  07:03:00     -100.603      -43.050      -15.774       26.354       44.773       20.743      694.547     2004.648      430.255        0.768        0.156      109.427       14.667        0.018      333.283        2.497      865.476
01/31/2022  07:04:00      -49.550       -2.764       -3.811       41.123       28.009       25.739     1691.063      784.478      662.516        0.281        0.157       49.627       20.739        0.175      333.194        2.350      865.499
01/31/2022  07:05:00      -81.229       -6.900       -1.158       61.128       40.439       28.260     3736.659     1635.311      798.651        0.641        0.309       81.521       25.870        0.101      333.321        2.560      865.517
01/31/2022  07:06:00      -35.429      -21.454        4.060       17.051       23.997       12.804      290.727      575.869      163.948        0.138        0.052       41.418        7.399        0.032      333.336        2.586      865.511
01/31/2022  07:07:00       -3.041      -18.584        5.299       20.382       13.485       10.775      415.417      181.834      116.102        0.055        0.036       18.831        5.964        0.100      333.571        2.974      865.504
01/31/2022  07:08:00       79.474       19.609      -10.678       13.428       20.549        7.488      180.310      422.278       56.073        0.374        0.033       81.857        4.584        0.003      333.276        2.486      865.510
01/31/2022  07:09:00       89.221       34.534       -9.675       29.631       21.949       17.572      877.990      481.771      308.769        0.546        0.083       95.671       13.013        0.019      332.988        2.010      865.547
01/31/2022  07:10:00       72.017       23.021       -2.993       41.845       42.146       29.618     1750.999     1776.256      877.238        0.506        0.220       75.607       22.505        0.089      332.712        1.554      865.606
01/31/2022  07:11:00       65.511       56.716      -10.682       31.060       30.015       24.430      964.731      900.886      596.805        0.504        0.123       86.651       20.682        0.057      332.488        1.183      865.656
01/31/2022  07:12:00       52.457       71.864      -12.049       25.148       17.784       15.193      632.438      316.257      230.839        0.462        0.059       88.973       15.371        0.030      333.479        2.822      865.683
01/31/2022  07:13:00      -36.656       28.184       -9.768       24.964       31.191       13.018      623.187      972.863      169.465        0.200        0.088       46.239       13.733        0.088      333.697        3.183      865.698
01/31/2022  07:14:00      -36.978        6.401       -6.747       26.435       13.865       16.301      698.808      192.248      265.738        0.131        0.058       37.528       15.478        0.170      333.525        2.898      865.715
01/31/2022  07:15:00        6.520        4.159       -9.131       21.521       22.083        9.938      463.134      487.659       98.766        0.060        0.052        7.733        7.595        0.965      333.702        3.190      865.734
01/31/2022  07:16:00       35.830       -7.094      -41.420       46.557       48.890       31.844     2167.591     2390.273     1014.045        0.431        0.279       36.526       13.512        0.137      332.797        1.694      865.754
01/31/2022  07:17:00       47.421      -18.303       -5.062       53.389       38.226       39.793     2850.436     1461.245     1583.495        0.425        0.295       50.831       35.620        0.491      332.564        1.310      865.789
01/31/2022  07:18:00       -8.436       -8.647       -9.502       25.108       18.513       15.348      630.390      342.736      235.553        0.072        0.060       12.080       11.033        0.834      333.181        2.328      865.807
01/31/2022  07:19:00      -36.307        1.008      -16.663       24.526       16.583       10.388      601.547      275.006      107.921        0.129        0.049       36.321        7.272        0.040      332.830        1.750      865.793
01/31/2022  07:20:00      -28.057      -14.816      -16.224       12.882       13.514       10.823      165.938      182.639      117.141        0.087        0.023       31.728        6.243        0.039      332.842        1.769      865.795
01/31/2022  07:21:00      -44.119      -13.698       -6.966       22.141       15.044       14.101      490.213      226.311      198.847        0.155        0.046       46.197       12.530        0.074      332.982        1.999      865.784
01/31/2022  07:22:00      -21.459      -13.383       -9.233       13.089       11.363       10.474      171.321      129.124      109.704        0.057        0.021       25.291        6.625        0.069      333.069        2.144      865.778
01/31/2022  07:23:00       -9.285      -10.789      -11.572        5.629        6.029        6.372       31.681       36.344       40.599        0.022        0.005       14.234        3.058        0.046      333.529        2.905      865.771
01/31/2022  07:24:00      -20.227        2.267       -4.118       10.060        5.402        4.666      101.201       29.186       21.774        0.029        0.008       20.354        2.969        0.021      333.467        2.801      865.753
01/31/2022  07:25:00      -37.396       16.541       -9.229        7.669        6.592        7.150       58.810       43.451       51.117        0.096        0.008       40.891        3.956        0.009      333.062        2.132      865.751
01/31/2022  07:26:00      -43.627       26.837       -8.397        6.822        9.598        5.173       46.537       92.131       26.757        0.143        0.008       51.220        4.424        0.007      333.073        2.149      865.740
01/31/2022  07:27:00      -55.261       23.538      -17.873       17.744       14.072       10.302      314.843      198.032      106.124        0.227        0.031       60.065        5.797        0.009      333.193        2.349      865.748
01/31/2022  07:28:00      -55.726       34.884       -9.273       17.005       21.800       13.892      289.187      475.237      192.982        0.268        0.048       65.744       10.633        0.026      332.606        1.378      865.765
01/31/2022  07:29:00      -83.515       36.466      -17.923       16.510       10.671        9.618      272.594      113.874       92.513        0.455        0.024       91.129        8.470        0.009      332.727        1.579      865.784
01/31/2022  07:30:00     -101.174       50.178      -17.477       14.713       11.736       11.802      216.472      137.728      139.294        0.678        0.025      112.934        4.406        0.002      332.779        1.665      865.789
01/31/2022  07:31:00      -95.791       25.617      -11.166       68.171       44.769       30.493     4647.224     2004.289      929.846        0.877        0.379       99.158       23.955        0.058      332.568        1.314      865.805
01/31/2022  07:32:00     -121.149       63.893      -16.424       57.329       52.592       39.862     3286.621     2765.895     1589.017        1.333        0.382      136.965       36.170        0.070      332.755        1.623      865.829
01/31/2022  07:33:00      -90.691       29.712      -26.077       25.396       27.005       22.950      644.956      729.295      526.725        0.584        0.095       95.434       11.799        0.015      332.781        1.668      865.826
01/31/2022  07:34:00      -94.260       56.980      -16.498       32.270       32.602       18.122     1041.338     1062.875      328.400        0.742        0.122      110.144       15.688        0.020      332.709        1.548      865.827
01/31/2022  07:35:00      -75.344       43.431      -10.988       42.152       25.906       20.211     1776.792      671.143      408.482        0.527        0.143       86.966       14.807        0.029      332.991        2.015      865.816
01/31/2022  07:36:00       22.787       85.943       -8.131       40.342       53.052       20.911     1627.499     2814.511      437.290        0.642        0.244       88.912       20.567        0.054      333.675        3.146      865.826
01/31/2022  07:37:00       92.415      174.105      -25.338       44.786       60.570       31.550     2005.763     3668.712      995.399        2.308        0.333      197.112       29.176        0.022      334.018        3.711      865.834
01/31/2022  07:38:00      103.244      100.178      -30.528       22.891       66.465       23.942      523.996     4417.659      573.226        1.357        0.276      143.858        7.903        0.003      333.915        3.543      865.850
01/31/2022  07:39:00       59.860       94.035      -13.192       37.806       65.430       29.351     1429.283     4281.062      861.495        0.958        0.329      111.471       25.488        0.052      333.750        3.271      865.871
01/31/2022  07:40:00      -15.951       83.499      -17.873       43.166       69.566       22.326     1863.320     4839.454      498.455        0.737        0.360       85.009        7.982        0.009      333.491        2.841      865.894
01/31/2022  07:41:00      -35.663       34.339      -10.932       41.502       22.717       16.992     1722.389      516.076      288.739        0.255        0.126       49.508       11.748        0.056      333.350        2.608      865.909
01/31/2022  07:42:00      -32.003       29.933       -7.868       20.351       19.728       13.540      414.166      389.200      183.344        0.148        0.049       43.820        9.964        0.052      333.418        2.721      865.922
01/31/2022  07:43:00      -41.679       -2.028      -13.761       19.497       16.198       11.635      380.152      262.376      135.363        0.135        0.039       41.728        6.904        0.027      333.498        2.852      865.933
01/31/2022  07:44:00      -36.436        4.655       -5.340       24.297       17.492       17.549      590.358      305.974      307.974        0.129        0.060       36.732       15.997        0.190      333.453        2.778      865.946
01/31/2022  07:45:00      -81.139       19.995      -17.024       19.315       24.180       15.696      373.070      584.657      246.357        0.424        0.060       83.566       10.271        0.015      333.273        2.481      865.982
01/31/2022  07:46:00      -90.706       30.490       -7.430       39.163       24.663       20.484     1533.723      608.276      419.611        0.589        0.128       95.693       22.078        0.053      333.340        2.592      865.991
01/31/2022  07:47:00      -95.471       47.908      -13.971       29.872       31.622       17.743      892.356      999.955      314.808        0.691        0.110      106.817        8.039        0.006      333.273        2.480      866.002
01/31/2022  07:48:00      -84.883       56.792      -14.553       37.871       25.565       17.430     1434.224      653.581      303.822        0.652        0.120      102.130       15.424        0.023      333.431        2.743      866.011
01/31/2022  07:49:00      -16.777       11.902       -5.250       12.650       12.528        9.988      160.016      156.945       99.755        0.043        0.021       20.570        8.246        0.161      333.538        2.918      866.025
01/31/2022  07:50:00       -7.858       29.682        1.139       19.100       13.328       12.864      364.794      177.641      165.477        0.083        0.035       30.705        6.774        0.049      333.823        3.390      866.039
01/31/2022  07:51:00      -17.379        7.898       -5.627       10.640       19.725       14.389      113.208      389.090      207.030        0.055        0.035       19.090        5.984        0.098      333.770        3.302      866.056
01/31/2022  07:52:00        4.957       25.086       -9.481       22.472       17.609       16.232      504.983      310.088      263.476        0.091        0.054       25.571       10.928        0.183      334.047        3.763      866.071
01/31/2022  07:53:00       19.192        0.815       -3.318       31.544       38.716       28.595      995.011     1498.894      817.674        0.185        0.166       19.209       20.790        1.171      333.730        3.238      866.094
01/31/2022  07:54:00       47.559      -12.709       -8.504       58.919       41.492       41.215     3471.474     1721.587     1698.653        0.469        0.345       49.228       38.807        0.621      333.475        2.815      866.113
01/31/2022  07:55:00       48.839      -16.178      -14.450       36.906       44.290       31.284     1362.088     1961.572      978.664        0.358        0.215       51.448       26.112        0.258      333.552        2.942      866.125
01/31/2022  07:56:00       49.900      -39.436      -23.989       24.978       31.748       14.806      623.896     1007.966      219.213        0.324        0.093       63.602       10.560        0.028      333.725        3.228      866.116
01/31/2022  07:57:00       72.585      -17.943      -12.684       39.322       27.260       24.907     1546.206      743.115      620.375        0.433        0.145       74.770       11.804        0.025      333.594        3.012      866.121
01/31/2022  07:58:00       33.506      -14.858      -30.947       33.063       38.211       19.249     1093.194     1460.111      370.523        0.261        0.146       36.653       10.456        0.081      333.635        3.079      866.141
01/31/2022  07:59:00       50.079      -14.038      -17.128       36.734       31.081       21.151     1349.404      966.017      447.371        0.288        0.138       52.009        4.378        0.007      333.553        2.944      866.148
01/31/2022  08:00:00      -23.018        8.865       -5.161       23.124       16.188       17.045      534.722      262.044      290.525        0.086        0.054       24.666       10.922        0.196      333.588        3.002      866.154
01/31/2022  08:01:00      -44.736        0.792      -15.579       14.439       11.426       11.607      208.473      130.544      134.721        0.136        0.024       44.743        6.957        0.024      333.506        2.865      866.159
01/31/2022  08:02:00      -18.018       -4.274       -8.097       13.978        6.716        8.574      195.392       45.107       73.516        0.036        0.016       18.518        9.306        0.253      333.580        2.989      866.159
01/31/2022  08:03:00        6.551       -2.864      -11.268       23.619       22.452       17.358      557.868      504.081      301.292        0.077        0.068        7.149       10.334        2.089      333.926        3.563      866.155
01/31/2022  08:04:00       13.357       -7.431      -17.013       15.993       16.863       13.018      255.782      284.350      169.461        0.062        0.035       15.285        9.653        0.399      333.929        3.568      866.165
01/31/2022  08:05:00      -12.763       13.278       -4.686       15.412        9.981        6.567      237.530       99.611       43.131        0.037        0.019       18.418        4.717        0.066      333.897        3.512      866.192
01/31/2022  08:06:00      -12.064       22.799       -6.078       11.696        9.461        8.028      136.796       89.516       64.452        0.050        0.015       25.794        2.730        0.011      333.839        3.418      866.219
01/31/2022  08:07:00       -5.890       22.168       -2.320        4.419        7.672        3.250       19.532       58.857       10.562        0.031        0.004       22.937        1.311        0.003      333.844        3.426      866.240
01/31/2022  08:08:00       10.568       -3.929       -4.634       13.271       23.048       17.965      176.120      531.232      322.730        0.059        0.052       11.274       14.751        1.712      334.066        3.794      866.254
01/31/2022  08:09:00       19.961       -3.567      -14.221       12.975       18.252       10.766      168.352      333.134      115.914        0.062        0.031       20.277        7.097        0.123      334.042        3.754      866.272
01/31/2022  08:10:00        9.283       -8.522      -10.682        9.902       15.255        9.415       98.049      232.717       88.645        0.035        0.021       12.601        6.738        0.286      334.124        3.890      866.286
01/31/2022  08:11:00       -1.669        1.280       -0.083        8.293        8.043        7.483       68.767       64.691       55.996        0.010        0.009        2.103        3.880        3.403      334.185        3.991      866.291
01/31/2022  08:12:00      -21.728        3.745       -4.462       14.467        7.237        8.422      209.294       52.375       70.935        0.042        0.017       22.048        5.441        0.061      333.817        3.381      866.303
01/31/2022  08:13:00      -24.818      -11.491       -2.540       24.540       10.836       11.439      602.197      117.424      130.845        0.080        0.043       27.349       11.287        0.170      334.000        3.685      866.297
01/31/2022  08:14:00      -50.918       -4.480       -1.706       36.342       23.962       17.315     1320.734      574.199      299.799        0.240        0.110       51.115       18.568        0.132      333.934        3.575      866.303
01/31/2022  08:15:00      -66.816       -4.814       -2.471       37.634       19.985       19.396     1416.351      399.411      376.201        0.334        0.110       66.990       20.747        0.096      333.926        3.561      866.294
01/31/2022  08:16:00      -90.675       -6.604      -14.746       24.977       22.123       14.124      623.830      489.445      199.493        0.490        0.066       90.915        9.805        0.012      333.856        3.446      866.274
01/31/2022  08:17:00      -61.300        5.821      -12.772       14.389       14.301       10.410      207.057      204.522      108.372        0.224        0.026       61.576        5.785        0.009      333.879        3.484      866.253
01/31/2022  08:18:00      -32.865       -3.484      -10.784       17.381        8.652        7.381      302.094       74.855       54.481        0.082        0.022       33.050        5.514        0.028      334.008        3.697      866.244
01/31/2022  08:19:00       -6.242       -1.679       -1.754        6.730        9.237        5.415       45.294       85.327       29.318        0.010        0.008        6.464        2.328        0.130      334.228        4.062      866.239
01/31/2022  08:20:00       25.727        7.757      -13.176       21.849       27.488       13.008      477.391      755.617      169.211        0.115        0.070       26.871       10.766        0.161      334.225        4.057      866.241
01/31/2022  08:21:00       28.805       -9.287      -18.027       25.352       29.115       18.736      642.729      847.693      351.034        0.154        0.092       30.265        6.013        0.039      334.357        4.275      866.241
01/31/2022  08:22:00       18.650       -7.139       -1.287       29.920       27.264       24.143      895.184      743.345      582.892        0.131        0.111       19.970       20.851        1.090      334.461        4.448      866.240
01/31/2022  08:23:00       40.621       -7.150      -15.233       18.820       18.339       16.726      354.190      336.330      279.749        0.145        0.049       41.245        7.671        0.035      334.382        4.317      866.238
01/31/2022  08:24:00       43.449      -25.630      -21.619       20.344       17.539       15.872      413.895      307.624      251.921        0.199        0.049       50.445        6.368        0.016      334.307        4.191      866.236
01/31/2022  08:25:00       33.204      -54.690      -27.482       23.241       32.006       23.390      540.157     1024.360      547.113        0.348        0.106       63.981       12.552        0.038      334.523        4.552      866.231
01/31/2022  08:26:00       52.805      -16.916      -31.091       25.774       32.395       26.413      664.293     1049.449      697.622        0.323        0.121       55.449       14.938        0.073      334.577        4.641      866.223
01/31/2022  08:27:00       58.745      -30.988      -27.664       23.070       30.720       21.213      532.215      943.734      449.999        0.355        0.096       66.417       11.603        0.031      334.493        4.501      866.218
01/31/2022  08:28:00       53.382      -14.145      -29.123       26.222       25.731       20.545      687.609      662.092      422.091        0.283        0.089       55.224       10.219        0.034      334.522        4.547      866.224
01/31/2022  08:29:00       34.961      -27.782      -11.431       21.370       17.052       17.929      456.679      290.772      321.461        0.160        0.053       44.655       13.640        0.093      334.624        4.719      866.232
01/31/2022  08:30:00        8.959       -9.465       -8.460       23.531       19.204       13.801      553.719      368.805      190.470        0.068        0.056       13.033       11.832        0.824      334.791        4.998      866.234
01/31/2022  08:31:00      -32.146       -4.808      -15.536       12.879       12.418       13.514      165.865      154.197      182.629        0.090        0.025       32.504        9.401        0.084      334.402        4.349      866.226
01/31/2022  08:32:00      -12.876      -23.537      -15.270       33.297       18.865       20.517     1108.675      355.875      420.950        0.142        0.094       26.829       11.294        0.177      334.406        4.355      866.223
01/31/2022  08:33:00      -15.412       -8.522       -9.843       16.060       17.589       13.325      257.915      309.359      177.562        0.058        0.037       17.611       10.659        0.366      334.485        4.489      866.219
01/31/2022  08:34:00      -28.078        5.414       -5.092       23.971       18.434       20.321      574.632      339.818      412.938        0.109        0.066       28.596       13.155        0.212      334.320        4.214      866.216
01/31/2022  08:35:00      -40.751      -30.361       -0.366       40.592       26.026       23.488     1647.750      677.365      551.705        0.273        0.144       50.818       20.542        0.163      334.381        4.317      866.204
01/31/2022  08:36:00      -31.230       -8.719      -10.922       32.479       26.854       20.720     1054.882      721.149      429.324        0.169        0.110       32.424       12.508        0.149      334.454        4.436      866.207
01/31/2022  08:37:00      -26.137        0.336      -12.810       17.493       17.235       16.555      306.013      297.034      274.056        0.086        0.044       26.139       10.573        0.164      334.468        4.460      866.209
01/31/2022  08:38:00      -25.874       22.302       -4.608        8.633        7.540       11.656       74.526       56.850      135.870        0.073        0.013       34.159        6.976        0.042      334.322        4.218      866.222
01/31/2022  08:39:00      -24.637        0.440       -5.597       10.832       12.707        9.480      117.323      161.467       89.869        0.050        0.018       24.641        5.945        0.058      334.478        4.477      866.234
01/31/2022  08:40:00       35.913       -6.030      -10.450       31.294       39.627       19.619      979.334     1570.305      384.902        0.218        0.147       36.416       12.266        0.113      334.682        4.815      866.234
01/31/2022  08:41:00       73.261      -13.677      -13.545       42.777       36.988       30.748     1829.868     1368.146      945.442        0.494        0.207       74.527       27.918        0.140      334.513        4.534      866.233
01/31/2022  08:42:00       73.935      -12.683      -18.516       39.340       31.622       21.675     1547.600      999.951      469.823        0.449        0.151       75.015       21.241        0.080      334.537        4.574      866.243
01/31/2022  08:43:00       78.255       17.572      -12.961       35.823       57.638       26.713     1283.299     3322.177      713.569        0.596        0.266       80.204       13.642        0.029      334.552        4.599      866.259
01/31/2022  08:44:00       68.269       -9.452      -21.107       39.715       43.830       23.069     1577.293     1921.036      532.202        0.461        0.202       68.920        8.287        0.014      334.665        4.787      866.266
01/31/2022  08:45:00       47.964      -16.762      -29.066       33.099       32.807       23.111     1095.527     1076.319      534.114        0.307        0.135       50.808       17.138        0.114      334.728        4.892      866.273
01/31/2022  08:46:00       57.035       -0.673      -19.823       39.038       28.886       25.973     1523.942      834.390      674.572        0.334        0.152       57.039       15.573        0.075      334.734        4.902      866.287
01/31/2022  08:47:00       55.275        2.081      -16.152       34.438       37.890       26.402     1185.954     1435.637      697.045        0.332        0.166       55.314       11.845        0.046      334.684        4.819      866.311
01/31/2022  08:48:00       62.531       -3.082      -23.782       35.644       44.260       28.429     1270.498     1958.990      808.227        0.426        0.202       62.607       23.363        0.139      334.740        4.911      866.314
01/31/2022  08:49:00       27.935      -16.739      -21.989       38.063       42.630       28.246     1448.766     1817.287      797.839        0.280        0.203       32.566       20.478        0.395      334.953        5.265      866.308
01/31/2022  08:50:00       48.178      -14.178      -31.317       51.367       44.711       27.496     2638.543     1999.116      756.045        0.445        0.270       50.220       25.448        0.257      334.890        5.164      866.306
01/31/2022  08:51:00       56.913      -18.087      -13.881       42.295       23.827       23.426     1788.907      567.720      548.782        0.333        0.145       59.717       16.161        0.073      334.812        5.033      866.304
01/31/2022  08:52:00       62.294      -25.438      -31.362       37.000       51.370       28.088     1369.037     2638.908      788.963        0.515        0.240       67.287       15.385        0.052      334.822        5.049      866.295
01/31/2022  08:53:00       15.964      -66.562      -18.716       42.718       31.138       28.486     1824.861      969.586      811.446        0.432        0.180       68.450       27.643        0.163      334.947        5.257      866.295
01/31/2022  08:54:00       50.309      -71.914      -19.512       43.197       39.442       33.076     1866.016     1555.655     1094.043        0.630        0.226       87.764       18.613        0.045      334.831        5.065      866.316
01/31/2022  08:55:00       78.026      -43.001      -21.550       56.876       40.856       29.749     3234.844     1669.234      885.014        0.709        0.289       89.091       18.393        0.043      334.867        5.123      866.320
01/31/2022  08:56:00       76.428      -13.409       -4.723       69.799       47.040       33.915     4871.920     2212.779     1150.202        0.714        0.412       77.596       35.106        0.205      334.802        5.014      866.323
01/31/2022  08:57:00      112.810      -11.521      -26.081       41.402       49.726       28.504     1714.155     2472.681      812.454        0.927        0.250      113.397       15.728        0.019      334.698        4.841      866.325
01/31/2022  08:58:00      101.051      -17.332      -17.067       45.099       49.787       30.596     2033.932     2478.748      936.129        0.812        0.272      102.527       16.375        0.026      334.723        4.884      866.335
01/31/2022  08:59:00       86.084      -40.185      -15.306       52.611       33.104       34.955     2767.901     1095.865     1221.884        0.717        0.254       95.001       26.730        0.079      334.637        4.740      866.362
01/31/2022  09:00:00       58.515      -18.849      -18.212       49.205       46.894       33.585     2421.173     2199.032     1127.953        0.493        0.287       61.476       13.705        0.050      335.074        5.467      866.375
01/31/2022  09:01:00       91.466      -50.533      -29.950       28.587       35.086       27.713      817.224     1231.010      767.986        0.732        0.141      104.497       18.541        0.031      334.920        5.210      866.379
01/31/2022  09:02:00       66.325      -42.548      -35.183       33.198       39.006       25.643     1102.116     1521.470      657.560        0.536        0.164       78.799       22.382        0.081      334.924        5.218      866.392
01/31/2022  09:03:00       51.944      -52.321      -23.050       25.922       36.559       21.292      671.950     1336.597      453.339        0.421        0.123       73.727       14.076        0.036      335.050        5.427      866.412
01/31/2022  09:04:00       91.658      -63.157      -22.971       50.581       37.811       19.305     2558.447     1429.643      372.702        0.864        0.218      111.310       13.494        0.015      335.117        5.540      866.414
01/31/2022  09:05:00       71.172      -33.131      -17.329       44.068       32.162       23.677     1941.982     1034.402      560.578        0.500        0.177       78.505       14.409        0.034      335.133        5.563      866.411
01/31/2022  09:06:00       85.405      -46.216      -24.742       37.755       34.081       25.015     1425.402     1161.544      625.753        0.663        0.161       97.108       18.580        0.037      335.273        5.799      866.411
01/31/2022  09:07:00       97.340      -29.056      -20.203       43.266       31.010       27.590     1871.909      961.634      761.223        0.716        0.180      101.584       26.832        0.070      335.334        5.898      866.395
01/31/2022  09:08:00       53.996        9.952      -16.378       34.533       40.763       23.090     1192.561     1661.657      533.161        0.333        0.169       54.905       15.717        0.082      335.577        6.303      866.390
01/31/2022  09:09:00       98.680       21.637      -15.819       51.020       34.089       21.983     2603.039     1162.050      483.272        0.735        0.212      101.024       14.483        0.021      335.634        6.398      866.385
01/31/2022  09:10:00       56.494       35.231      -23.328       56.915       43.410       33.261     3239.355     1884.424     1106.278        0.560        0.312       66.579       32.487        0.238      335.772        6.629      866.378
01/31/2022  09:11:00       37.439      -42.753      -31.149       43.498       62.401       37.503     1892.040     3893.914     1406.449        0.569        0.360       56.829       19.269        0.115      335.916        6.869      866.382
01/31/2022  09:12:00       61.970      -76.949      -26.626       56.145       45.905       27.336     3152.242     2107.242      747.254        0.824        0.300       98.800       31.157        0.099      335.414        6.031      866.377
01/31/2022  09:13:00       -8.520       31.405      -17.191       69.626       38.109       20.754     4847.734     1452.265      430.726        0.404        0.337       32.540       12.521        0.148      335.480        6.142      866.383
01/31/2022  09:14:00       85.379      -25.171      -13.779       60.514       60.182       43.030     3661.946     3621.826     1851.592        0.862        0.457       89.012       34.647        0.152      335.376        5.969      866.383
01/31/2022  09:15:00       67.694      -39.329      -19.669       45.719       48.992       22.899     2090.216     2400.263      524.381        0.576        0.251       78.290       15.787        0.041      335.212        5.696      866.381
01/31/2022  09:16:00       70.274       -9.860      -24.861       35.367       39.555       29.588     1250.793     1564.568      875.475        0.467        0.185       70.962       21.306        0.090      335.559        6.273      866.373
01/31/2022  09:17:00       53.260      -25.481      -31.490       39.170       42.173       35.974     1534.251     1778.536     1294.162        0.454        0.230       59.042       23.238        0.155      335.618        6.371      866.369
01/31/2022  09:18:00       27.305        8.421      -24.765       37.029       51.175       30.037     1371.120     2618.854      902.232        0.316        0.245       28.573       25.753        0.812      335.778        6.637      866.380
01/31/2022  09:19:00       52.213       -2.772      -30.580       30.708       37.838       19.344      942.977     1431.715      374.198        0.321        0.137       52.287       13.950        0.071      335.921        6.876      866.373
01/31/2022  09:20:00       35.896       -1.449      -23.242       30.706       42.011       30.988      942.852     1764.958      960.256        0.275        0.183       35.925       16.293        0.206      336.036        7.068      866.371
01/31/2022  09:21:00       66.321       -7.443      -19.938       77.069       65.594       42.340     5939.624     4302.619     1792.674        0.844        0.602       66.738       33.564        0.253      336.028        7.054      866.357
01/31/2022  09:22:00      145.480       28.074       -8.068      100.094       49.567       43.109    10018.797     2456.855     1858.352        1.817        0.717      148.164       35.882        0.059      335.829        6.721      866.348
01/31/2022  09:23:00       69.083      -33.286      -44.505       71.741       69.110       45.316     5146.729     4776.227     2053.559        0.992        0.599       76.684       32.901        0.184      335.800        6.674      866.330
01/31/2022  09:24:00       89.599      -35.879      -30.887       89.141       66.384       40.631     7946.151     4406.894     1650.867        1.213        0.700       96.516       31.912        0.109      335.460        6.108      866.325
01/31/2022  09:25:00       14.272      -41.477      -23.703       43.878       46.440       32.197     1925.270     2156.650     1036.643        0.380        0.256       43.864       22.671        0.267      335.848        6.754      866.318
01/31/2022  09:26:00       77.049     -106.383      -32.766       33.481       64.613       28.132     1120.954     4174.872      791.385        1.221        0.304      131.354       24.135        0.034      335.398        6.005      866.311
01/31/2022  09:27:00       90.912     -106.452      -47.506       44.772       65.801       33.291     2004.558     4329.771     1108.263        1.465        0.372      139.990       22.002        0.025      335.524        6.215      866.281
01/31/2022  09:28:00      108.143     -180.901      -43.612       50.824       54.098       42.630     2583.072     2926.568     1817.336        2.682        0.366      210.761       26.513        0.016      335.270        5.790      866.258
01/31/2022  09:29:00      124.423     -137.485      -46.534       36.867       57.565       26.155     1359.178     3313.696      684.072        2.095        0.268      185.427       26.596        0.021      335.073        5.463      866.238
01/31/2022  09:30:00       89.984     -137.730      -37.466       32.434       35.192       27.078     1051.933     1238.486      733.216        1.575        0.151      164.520       17.479        0.011      335.224        5.716      866.226
01/31/2022  09:31:00       89.533     -126.290      -33.824       57.214       62.712       42.086     3273.410     3932.820     1771.268        1.704        0.449      154.807       39.642        0.066      335.485        6.151      866.215
01/31/2022  09:32:00      125.066     -128.565      -44.757       70.869       77.398       43.718     5022.451     5990.489     1911.244        2.355        0.646      179.361       43.155        0.058      335.238        5.736      866.215
01/31/2022  09:33:00      115.651     -175.511      -57.690       45.391      102.853       22.295     2060.381    10578.767      497.064        3.032        0.657      210.189       12.990        0.004      334.946        5.250      866.206
01/31/2022  09:34:00       94.519     -193.482      -44.910       47.076       43.864       32.818     2216.179     1924.028     1077.028        2.680        0.261      215.335       25.452        0.014      335.211        5.692      866.200
01/31/2022  09:35:00      117.916     -164.151      -41.049       49.132       51.666       37.717     2414.001     2669.354     1422.562        2.452        0.325      202.113       28.090        0.019      335.218        5.705      866.178
01/31/2022  09:36:00       81.643     -209.756      -38.585       41.186       56.000       28.633     1696.275     3135.978      819.848        2.890        0.283      225.085       19.766        0.008      335.200        5.673      866.158
01/31/2022  09:37:00       79.309     -241.647      -50.408       29.030       36.815       21.035      842.758     1355.363      442.452        3.493        0.132      254.329        7.969        0.001      335.007        5.350      866.137
01/31/2022  09:38:00      102.488     -181.964      -49.021       40.583       63.598       33.666     1646.988     4044.657     1133.413        2.642        0.341      208.842       21.768        0.011      335.149        5.588      866.124
01/31/2022  09:39:00       95.173     -145.669      -44.009       50.361       60.017       24.807     2536.210     3602.077      615.396        1.948        0.338      174.003        7.646        0.002      335.102        5.511      866.108
01/31/2022  09:40:00       66.442      -73.052      -23.764       44.806       51.075       31.622     2007.599     2608.684      999.968        0.797        0.281       98.748       27.297        0.076      335.446        6.084      866.101
01/31/2022  09:41:00       65.126      -99.870      -29.716       34.266       45.752       25.634     1174.179     2093.235      657.080        0.951        0.196      119.229       13.722        0.013      335.469        6.124      866.100
01/31/2022  09:42:00       39.557      -61.168      -28.246       44.034       56.039       37.002     1938.950     3140.317     1369.170        0.628        0.322       72.844       29.122        0.160      335.861        6.776      866.094
01/31/2022  09:43:00       85.173     -117.999      -33.682       50.411       43.812       26.255     2541.309     1919.454      689.350        1.373        0.258      145.528       23.955        0.027      335.608        6.354      866.099
01/31/2022  09:44:00       39.604      -66.058      -36.233       54.952       53.438       36.251     3019.683     2855.658     1314.149        0.722        0.359       77.020       29.750        0.149      335.721        6.544      866.101
01/31/2022  09:45:00       49.956      -66.159      -11.112       64.947       48.446       33.291     4218.174     2347.003     1108.274        0.733        0.384       82.901       34.135        0.170      335.767        6.620      866.089
01/31/2022  09:46:00       54.683     -161.885      -32.542       82.446       61.130       40.066     6797.418     3736.922     1605.281        2.120        0.607      170.871       27.839        0.027      335.523        6.212      866.073
01/31/2022  09:47:00      120.006     -124.435      -49.066       36.372       64.333       34.716     1322.910     4138.797     1205.203        1.948        0.333      172.874       25.752        0.022      335.443        6.080      866.048
01/31/2022  09:48:00      105.543     -158.289      -53.610       28.480       53.658       26.877      811.082     2879.153      722.353        2.174        0.221      190.249        9.855        0.003      335.213        5.697      866.022
01/31/2022  09:49:00       16.505      -67.334      -15.593       59.230       77.066       51.541     3508.228     5939.101     2656.516        0.857        0.605       69.328       37.957        0.300      335.640        6.408      865.996
01/31/2022  09:50:00       88.040     -164.079      -35.718       47.602       73.846       36.635     2265.978     5453.248     1342.139        2.250        0.453      186.207       29.551        0.025      335.478        6.135      865.976
01/31/2022  09:51:00       37.686      -38.869      -19.011       64.577       72.368       31.249     4170.243     5237.105      976.531        0.684        0.519       54.139       26.739        0.244      335.303        5.848      865.969
01/31/2022  09:52:00      -49.523      -17.898      -10.522       37.109       40.588       34.136     1377.106     1647.409     1165.277        0.354        0.209       52.658       19.697        0.140      335.771        6.625      865.971
01/31/2022  09:53:00      -28.466      -69.739      -33.090       54.151       49.491       23.529     2932.325     2449.398      553.592        0.635        0.297       75.325       18.356        0.059      335.729        6.557      865.969
01/31/2022  09:54:00      -55.746      -36.766      -31.902       46.844       37.981       25.608     2194.402     1442.581      655.770        0.488        0.215       66.779       18.205        0.074      335.597        6.336      865.959
01/31/2022  09:55:00      -40.802        2.050       -6.247       33.879       43.524       23.745     1147.799     1894.326      563.844        0.266        0.180       40.853       19.098        0.219      335.549        6.258      865.946
01/31/2022  09:56:00       65.248      -42.301      -28.522       56.624       78.386       39.075     3206.235     6144.354     1526.850        0.887        0.544       77.761       33.823        0.189      335.772        6.627      865.941
01/31/2022  09:57:00       89.474     -117.493      -26.982       42.037       53.847       30.608     1767.146     2899.533      936.849        1.407        0.280      147.683       22.084        0.022      335.617        6.370      865.932
01/31/2022  09:58:00       91.478      -83.998      -43.252       35.685       45.427       26.986     1273.406     2063.597      728.246        1.068        0.203      124.193       12.917        0.011      335.841        6.745      865.941
01/31/2022  09:59:00       92.608     -117.781      -43.580       43.243       73.433       30.422     1869.961     5392.432      925.483        1.627        0.409      149.828       19.848        0.018      335.642        6.410      865.929
01/31/2022  10:00:00       91.780     -128.471      -41.613       45.639       75.244       23.253     2082.899     5661.597      540.712        1.747        0.414      157.887       19.818        0.016      335.718        6.536      865.922
01/31/2022  10:01:00      114.049     -187.842      -53.945       58.501       51.954       37.286     3422.353     2699.252     1390.232        2.936        0.376      219.754       13.651        0.004      335.494        6.161      865.917
01/31/2022  10:02:00      104.816     -175.954      -51.647       24.160       35.249       18.210      583.695     1242.486      331.593        2.339        0.108      204.807       13.769        0.005      335.394        5.997      865.911
01/31/2022  10:03:00       62.942      -90.821      -39.118       47.903       59.616       35.155     2294.720     3554.073     1235.898        1.041        0.354      110.500       26.783        0.059      335.638        6.406      865.908
01/31/2022  10:04:00       62.786     -128.750      -35.289       67.374       61.419       30.625     4539.246     3772.284      937.861        1.550        0.462      143.243       36.074        0.063      335.778        6.638      865.905
01/31/2022  10:05:00      104.186     -197.938      -46.970       40.796       50.932       26.766     1664.348     2594.088      716.437        2.861        0.249      223.683       21.257        0.009      335.560        6.271      865.898
01/31/2022  10:06:00      110.481     -114.775      -43.819       44.011       61.778       41.911     1936.937     3816.477     1756.538        1.740        0.375      159.309       28.918        0.033      335.724        6.547      865.898
01/31/2022  10:07:00       48.273      -70.181      -32.402       44.658       70.073       37.027     1994.305     4910.232     1370.985        0.829        0.414       85.180       25.858        0.092      336.010        7.026      865.897
01/31/2022  10:08:00       -6.920      -32.866       -6.335       62.235       60.445       40.076     3873.180     3653.581     1606.079        0.515        0.457       33.587       33.565        0.999      336.096        7.169      865.890
01/31/2022  10:09:00       53.502     -121.155      -26.010       76.969      104.567       40.088     5924.208    10934.219     1607.008        1.834        0.923      132.442       54.085        0.167      335.808        6.684      865.902
01/31/2022  10:10:00      118.146     -183.113      -59.942       32.797       47.403       16.405     1075.612     2247.005      269.120        2.734        0.180      217.919        7.154        0.001      335.406        6.014      865.904
01/31/2022  10:11:00      105.145      -58.883      -42.402       40.138       57.505       26.079     1611.042     3306.855      680.123        1.096        0.280      120.510       15.430        0.016      335.649        6.424      865.910
01/31/2022  10:12:00       49.861        1.342      -19.551       26.166       28.089       16.847      684.657      788.979      283.819        0.231        0.088       49.879       10.211        0.042      335.745        6.583      865.902
01/31/2022  10:13:00       47.109       -1.308       -6.657       63.497       59.678       50.020     4031.929     3561.418     2502.037        0.618        0.505       47.127       41.166        0.763      336.074        7.133      865.870
01/31/2022  10:14:00      115.447      -17.248      -20.077       74.103       51.967       40.595     5491.257     2700.599     1647.983        1.193        0.492      116.728       33.860        0.084      335.858        6.772      865.865
01/31/2022  10:15:00       91.511      -16.932      -18.980       68.554       50.504       43.878     4699.659     2550.643     1925.298        0.910        0.459       93.064       34.675        0.139      335.965        6.949      865.855
01/31/2022  10:16:00       79.336      -17.464      -18.767       62.871       47.840       36.443     3952.760     2288.657     1328.056        0.726        0.378       81.235       22.940        0.080      336.022        7.046      865.852
01/31/2022  10:17:00       45.082      -32.326       -3.054       41.942       22.956       21.931     1759.114      526.964      480.966        0.293        0.138       55.474       18.142        0.107      335.994        6.998      865.857
01/31/2022  10:18:00      -10.751       -5.175       -3.676       32.710       37.512       23.391     1069.925     1407.184      547.157        0.159        0.151       11.932       15.652        1.721      336.265        7.450      865.849
01/31/2022  10:19:00        8.612      -55.443      -23.084       76.412       70.143       39.489     5838.795     4920.085     1559.381        0.800        0.616       56.108       52.018        0.860      336.004        7.017      865.855
01/31/2022  10:20:00       28.850       -7.903      -18.636       38.071       57.390       23.227     1449.393     3293.587      539.498        0.326        0.264       29.912       27.793        0.863      335.845        6.751      865.874
01/31/2022  10:21:00       32.189      -80.056      -37.402       30.383       44.746       27.565      923.120     2002.234      759.816        0.626        0.184       86.285       15.983        0.034      336.139        7.240      865.887
01/31/2022  10:22:00       13.352      -36.527      -14.955       45.009       35.559       29.902     2025.793     1264.478      894.115        0.296        0.209       38.891       11.191        0.083      336.120        7.209      865.897
01/31/2022  10:23:00       61.178      -77.422      -18.965       59.034       69.866       34.719     3485.043     4881.324     1205.437        0.983        0.479       98.676       37.671        0.146      336.148        7.255      865.890
01/31/2022  10:24:00       56.105      -98.775      -28.308       34.165       31.461       13.477     1167.266      989.823      181.639        0.802        0.117      113.597       19.143        0.028      335.653        6.430      865.911
01/31/2022  10:25:00       37.069      -48.873      -19.115       37.154       42.776       25.492     1380.440     1829.789      649.866        0.399        0.193       61.341       19.612        0.102      336.281        7.478      865.905
01/31/2022  10:26:00        0.043      -24.371       -8.487       39.342       30.105       26.276     1547.796      906.322      690.408        0.190        0.157       24.371       14.069        0.333      336.459        7.776      865.909
01/31/2022  10:27:00      -18.174      -47.899      -16.020       43.476       39.464       31.296     1890.183     1557.401      979.412        0.365        0.221       51.230       25.245        0.243      336.382        7.646      865.904
01/31/2022  10:28:00       42.147      -46.880      -22.505       61.555       40.773       25.995     3789.063     1662.439      675.760        0.530        0.306       63.040       18.697        0.088      336.195        7.335      865.894
01/31/2022  10:29:00      121.709     -104.297      -42.084       48.262       37.105       28.267     2329.199     1376.746      798.996        1.598        0.225      160.284       24.348        0.023      336.103        7.180      865.879
01/31/2022  10:30:00       57.677      -55.140      -30.348       45.651       39.962       22.615     2084.009     1596.974      511.433        0.574        0.210       79.794       16.830        0.044      336.044        7.081      865.867
01/31/2022  10:31:00       90.994     -158.747      -42.654       52.284       59.026       33.827     2733.642     3484.122     1144.250        2.133        0.368      182.977       30.202        0.027      336.118        7.205      865.850
01/31/2022  10:32:00       90.682     -190.204      -32.057       44.314       40.655       35.942     1963.744     1652.812     1291.824        2.517        0.245      210.715       31.074        0.022      335.937        6.900      865.841
01/31/2022  10:33:00       94.152      -83.444      -52.406       39.604       59.138       30.915     1568.493     3497.346      955.757        1.230        0.301      125.808       23.887        0.036      336.342        7.581      865.838
01/31/2022  10:34:00       85.551      -59.774      -31.412       40.800       48.127       31.878     1664.604     2316.227     1016.234        0.844        0.250      104.364       20.770        0.040      336.271        7.462      865.842
01/31/2022  10:35:00       41.098       -8.532      -18.755       58.945       54.943       33.819     3474.522     3018.745     1143.705        0.487        0.382       41.974       24.806        0.349      336.527        7.888      865.846
01/31/2022  10:36:00       41.108      -51.066      -12.119       39.019       41.914       27.452     1522.456     1756.777      753.608        0.424        0.202       65.556       19.507        0.089      336.423        7.715      865.836
01/31/2022  10:37:00       67.031       36.362      -24.864       30.271       44.612       22.647      916.311     1990.194      512.882        0.493        0.171       76.259       11.502        0.023      336.570        7.961      865.837
01/31/2022  10:38:00       52.257        9.780      -22.194       53.152       47.115       35.211     2825.132     2219.867     1239.813        0.480        0.314       53.165       21.797        0.168      336.820        8.379      865.830
01/31/2022  10:39:00       69.357      -23.569      -13.991       75.896       56.467       42.623     5760.213     3188.502     1816.724        0.816        0.538       73.252       19.333        0.070      336.781        8.314      865.810
01/31/2022  10:40:00      118.285      -30.462      -48.292       69.944       62.921       46.222     4892.211     3959.083     2136.512        1.412        0.549      122.145       39.458        0.104      336.198        7.339      865.799
01/31/2022  10:41:00      110.795      -22.933      -32.147       65.237       46.478       43.647     4255.836     2160.192     1905.026        1.108        0.416      113.143       30.142        0.071      336.208        7.356      865.803
01/31/2022  10:42:00      102.890       13.431      -15.404       52.013       62.968       34.742     2705.315     3964.937     1207.032        0.944        0.394      103.762       18.958        0.033      336.442        7.745      865.799
01/31/2022  10:43:00      129.187        7.411      -25.721       67.603       48.062       30.235     4570.172     2309.935      914.142        1.260        0.390      129.399       32.151        0.062      336.209        7.358      865.791
01/31/2022  10:44:00       94.159       -1.918      -28.432       53.423       72.095       35.678     2854.029     5197.718     1272.895        0.950        0.466       94.178       31.940        0.115      336.555        7.936      865.779
01/31/2022  10:45:00       51.818      -35.625      -35.142       54.394       65.908       47.675     2958.673     4343.799     2272.940        0.738        0.479       62.882       28.251        0.202      336.675        8.135      865.751
01/31/2022  10:46:00      127.697      -29.472      -34.168       71.093       58.997       45.229     5054.228     3480.609     2045.619        1.446        0.529      131.054       36.327        0.077      336.253        7.430      865.753
01/31/2022  10:47:00       76.682      -38.675      -15.963       41.036       47.256       27.808     1683.965     2233.116      773.287        0.616        0.235       85.883       20.539        0.057      336.372        7.630      865.768
01/31/2022  10:48:00       84.728      -47.368      -31.526       47.221       65.844       33.689     2229.791     4335.427     1134.981        0.906        0.385       97.070       23.977        0.061      336.466        7.787      865.764
01/31/2022  10:49:00       97.324       -4.241      -37.925       64.819       69.308       37.734     4201.485     4803.657     1423.828        1.068        0.521       97.416       17.649        0.033      336.580        7.978      865.754
01/31/2022  10:50:00       50.462      -46.192      -17.619       57.825       72.658       33.181     3343.707     5279.184     1100.966        0.736        0.486       68.411       20.047        0.086      336.710        8.195      865.756
01/31/2022  10:51:00       81.523     -131.991      -46.676       28.769       40.910       19.926      827.671     1673.641      397.059        1.457        0.145      155.137        8.845        0.003      336.116        7.201      865.752
01/31/2022  10:52:00       26.771      -23.317      -24.224       40.488       43.495       24.728     1639.279     1891.846      611.467        0.299        0.207       35.502       19.375        0.298      336.266        7.454      865.746
01/31/2022  10:53:00        3.225      -24.207      -24.244       38.535       34.377       22.194     1484.939     1181.800      492.588        0.217        0.158       24.421       19.074        0.610      336.706        8.189      865.731
01/31/2022  10:54:00       79.062     -117.356      -30.316       49.449       50.489       32.729     2445.215     2549.188     1071.157        1.350        0.303      141.503       23.640        0.028      336.689        8.161      865.711
01/31/2022  10:55:00       67.804      -25.583       -5.293       48.651       71.330       54.401     2366.912     5087.951     2959.475        0.785        0.521       72.470       41.544        0.329      336.826        8.389      865.709
01/31/2022  10:56:00       74.083      -25.580      -16.376       63.660       74.482       60.081     4052.647     5547.504     3609.774        0.981        0.660       78.375       51.699        0.435      336.768        8.291      865.690
01/31/2022  10:57:00      123.063        9.288      -34.941       81.499       77.840       47.733     6642.085     6059.005     2278.463        1.571        0.749      123.413       29.725        0.058      336.915        8.537      865.691
01/31/2022  10:58:00       93.581       17.636      -10.692       73.340       69.264       42.869     5378.708     4797.502     1837.753        1.060        0.601       95.228       31.728        0.111      337.027        8.723      865.700
01/31/2022  10:59:00      142.289       60.795      -27.937       66.428       40.905       21.877     4412.702     1673.252      478.609        1.564        0.328      154.733       21.702        0.020      336.476        7.802      865.701
01/31/2022  11:00:00       58.328       -1.516      -15.366       41.502       34.699       28.206     1722.437     1204.037      795.603        0.368        0.186       58.347       21.959        0.142      336.704        8.184      865.692
01/31/2022  11:01:00       51.131      -38.186      -30.101       54.785       66.386       46.327     3001.360     4407.147     2146.210        0.726        0.478       63.816       29.981        0.221      337.145        8.922      865.670
01/31/2022  11:02:00       85.235        9.792      -14.298       60.542       48.799       32.552     3665.390     2381.336     1059.630        0.733        0.355       85.795       14.543        0.029      336.745        8.254      865.667
01/31/2022  11:03:00       26.157       10.886      -12.004       31.774       37.401       26.724     1009.608     1398.821      714.152        0.203        0.156       28.332       10.971        0.150      336.866        8.455      865.655
01/31/2022  11:04:00        2.588      -12.754      -10.204       36.423       34.589       13.811     1326.668     1196.377      190.746        0.149        0.136       13.014       13.532        1.081      336.953        8.600      865.634
01/31/2022  11:05:00       50.289      -37.827      -30.454       39.551       37.132       31.354     1564.263     1378.822      983.078        0.441        0.196       62.927       20.703        0.108      337.318        9.211      865.607
01/31/2022  11:06:00       86.296      -81.048      -24.364       61.715       73.547       46.306     3808.707     5409.162     2144.240        1.298        0.568      118.389       45.066        0.145      337.066        8.789      865.574
01/31/2022  11:07:00       74.387      -12.135      -10.834       58.985       60.107       39.998     3479.205     3612.890     1599.810        0.724        0.435       75.370       32.131        0.182      337.087        8.824      865.554
01/31/2022  11:08:00      115.155       -0.739      -25.212       82.494       85.243       68.082     6805.288     7266.448     4635.147        1.630        0.935      115.157       47.763        0.172      337.158        8.942      865.511
01/31/2022  11:09:00      126.406     -110.175      -32.693       73.348       89.109       38.751     5379.953     7940.369     1501.613        2.200        0.741      167.682       37.289        0.049      336.957        8.606      865.483
01/31/2022  11:10:00      100.454     -141.399      -36.270       40.886       58.708       27.568     1671.668     3446.641      759.972        1.864        0.294      173.449       20.099        0.013      336.825        8.386      865.463
01/31/2022  11:11:00       68.029      -69.442      -15.467       51.825       56.899       30.235     2685.805     3237.490      914.160        0.826        0.342       97.212       31.249        0.103      337.194        9.004      865.443
01/31/2022  11:12:00      149.168      -53.721      -34.541       60.104       58.443       38.512     3612.503     3415.553     1483.158        1.742        0.426      158.547       29.917        0.036      337.148        8.927      865.418
01/31/2022  11:13:00      117.268        5.413      -28.823       43.068       36.583       34.305     1854.862     1338.295     1176.840        0.949        0.218      117.393       13.518        0.013      337.037        8.740      865.412
01/31/2022  11:14:00      100.704      -18.082      -25.187       81.861       60.564       44.396     6701.271     3667.975     1971.023        1.172        0.617      102.314       35.808        0.122      337.274        9.138      865.401
01/31/2022  11:15:00       34.837       -3.216      -24.100       58.902       61.606       49.167     3469.409     3795.320     2417.385        0.574        0.484       34.985       33.400        0.911      337.549        9.597      865.406
01/31/2022  11:16:00       67.742      -19.979      -35.311       45.720       76.409       41.074     2090.325     5838.364     1687.089        0.792        0.481       70.627       29.623        0.176      337.748        9.931      865.417
01/31/2022  11:17:00      129.630      -27.469      -25.146      123.459       53.929       50.282    15242.095     2908.310     2528.245        1.943        1.034      132.508       53.365        0.162      337.478        9.478      865.418
01/31/2022  11:18:00      122.512        7.791      -53.753       90.728       71.692       40.053     8231.520     5139.765     1604.212        1.646        0.749      122.760       17.519        0.020      337.558        9.613      865.404
01/31/2022  11:19:00      118.943       16.493      -27.736       89.673      102.340       36.511     8041.273    10473.531     1333.085        1.751        0.992      120.081       25.133        0.044      337.552        9.601      865.406
01/31/2022  11:20:00       47.801      -59.896      -28.137       55.331       48.293       37.313     3061.561     2332.239     1392.288        0.672        0.339       76.632       25.393        0.110      337.406        9.359      865.406
01/31/2022  11:21:00       36.007       23.832      -18.441       54.601       70.168       32.293     2981.240     4923.575     1042.865        0.557        0.447       43.180       22.994        0.284      337.571        9.636      865.382
01/31/2022  11:22:00       14.099       45.932       -3.564       73.879       55.491       36.416     5458.058     3079.248     1326.115        0.609        0.493       48.047       31.146        0.420      337.668        9.797      865.354
01/31/2022  11:23:00      190.343       21.641      -27.843       73.201       70.342       40.085     5358.358     4947.962     1606.780        2.469        0.596      191.569       32.594        0.029      337.329        9.227      865.312
01/31/2022  11:24:00       92.294      -48.861      -22.145       81.710       81.613       56.701     6676.536     6660.655     3214.976        1.397        0.828      104.429       45.375        0.189      337.706        9.861      865.283
01/31/2022  11:25:00       84.538     -133.399      -38.078       84.384       97.094       54.651     7120.665     9427.189     2986.741        2.296        0.977      157.930       42.440        0.072      337.227        9.057      865.264
01/31/2022  11:26:00       19.202     -150.796      -25.099       57.737       54.878       38.148     3333.516     3011.614     1455.271        1.577        0.390      152.013       22.376        0.022      337.226        9.056      865.253
01/31/2022  11:27:00       78.395     -161.250      -47.381       55.659       89.223       46.082     3097.951     7960.663     2123.530        2.378        0.659      179.297       28.571        0.025      337.361        9.281      865.256
01/31/2022  11:28:00       71.177      -60.037      -37.264       69.435      109.699       37.812     4821.267    12033.938     1429.778        1.417        0.914       93.116       15.859        0.029      337.341        9.249      865.238
01/31/2022  11:29:00       46.677      -80.866      -31.458       61.181       71.707       34.722     3743.060     5141.920     1205.640        0.990        0.505       93.371       35.844        0.147      337.435        9.408      865.225
01/31/2022  11:30:00       69.276      -84.750      -42.523       44.127       62.187       35.133     1947.219     3867.229     1234.352        1.042        0.352      109.460       21.250        0.038      337.322        9.218      865.219
01/31/2022  11:31:00      113.809     -200.279      -42.966       52.832       69.287       38.474     2791.272     4800.724     1480.271        3.199        0.454      230.357       31.056        0.018      337.124        8.885      865.187
01/31/2022  11:32:00      131.596     -196.770      -53.977       96.889      121.490       60.887     9387.451    14759.797     3707.237        4.340        1.393      236.719       57.714        0.059      337.306        9.188      865.146
01/31/2022  11:33:00      123.621      -25.661      -36.584       87.751       73.987       46.608     7700.278     5474.034     2172.311        1.631        0.767      126.256       24.444        0.037      337.507        9.526      865.126
01/31/2022  11:34:00      179.773       78.403      -32.911       97.039       70.473       41.338     9416.580     4966.512     1708.829        2.782        0.805      196.125       33.565        0.029      337.395        9.337      865.122
01/31/2022  11:35:00      171.819       43.162      -32.126       62.110       48.752       31.665     3857.603     2376.749     1002.662        1.983        0.362      177.157       26.063        0.022      337.072        8.799      865.119
01/31/2022  11:36:00       69.206       60.617      -21.839       39.048       34.939       30.525     1524.755     1220.710      931.751        0.631        0.184       91.999       18.339        0.040      337.400        9.347      865.124
01/31/2022  11:37:00       48.242       62.106      -19.148       36.422       26.890       23.066     1326.590      723.048      532.032        0.457        0.129       78.642       13.716        0.030      337.482        9.485      865.133
01/31/2022  11:38:00       40.965       31.816      -23.627       67.196       79.038       37.460     4515.264     6246.949     1403.226        0.770        0.608       51.869       19.497        0.141      337.465        9.458      865.142
01/31/2022  11:39:00        3.000        3.274       -7.475       40.244       59.077       28.018     1619.573     3490.067      785.005        0.298        0.295        4.441       15.885       12.796      337.636        9.743      865.140
01/31/2022  11:40:00       34.259      -13.386        1.250       65.542       88.909       56.591     4295.727     7904.803     3202.532        0.838        0.770       36.781       39.717        1.166      337.622        9.721      865.128
01/31/2022  11:41:00       79.011      -33.662      -28.712       55.935      102.491       40.856     3128.671    10504.450     1669.250        1.175        0.765       85.883       18.544        0.047      337.317        9.209      865.097
01/31/2022  11:42:00      105.091       -0.207      -15.985      141.820       86.400       59.481    20113.024     7464.876     3537.941        2.120        1.556      105.091       36.046        0.118      337.556        9.607      865.076
01/31/2022  11:43:00       87.676       27.970       -6.981       74.980       58.950       56.071     5622.033     3475.046     3143.993        1.038        0.612       92.029       23.324        0.064      337.930       10.236      865.076
01/31/2022  11:44:00      265.499       42.124      -33.872       94.102       85.441       48.389     8855.255     7300.191     2341.542        4.595        0.925      268.820       33.416        0.015      337.519        9.545      865.069
01/31/2022  11:45:00      277.518       97.920      -31.616       84.183       73.887       40.592     7086.851     5459.333     1647.706        5.090        0.710      294.286       27.359        0.009      337.309        9.193      865.076
01/31/2022  11:46:00      135.044       68.996       -2.404      110.759       78.089       47.243    12267.531     6097.841     2231.911        2.180        1.030      151.649       22.685        0.022      337.501        9.516      865.070
01/31/2022  11:47:00       30.936      170.903      -21.420       44.369       42.132       28.745     1968.576     1775.073      826.293        1.760        0.228      173.681       18.967        0.012      337.288        9.160      865.095
01/31/2022  11:48:00       94.480      107.851      -18.640      110.515       38.004       36.294    12213.624     1444.301     1317.265        1.794        0.749      143.382       45.374        0.100      337.221        9.048      865.055
01/31/2022  11:49:00      132.741       59.254      -29.161       37.848       54.270       25.295     1432.442     2945.194      639.816        1.350        0.251      145.366       24.955        0.029      337.097        8.841      865.033
01/31/2022  11:50:00       23.793       84.544      -13.274       40.512       41.018       21.225     1641.240     1682.467      450.492        0.583        0.189       87.829       14.170        0.026      337.298        9.179      865.009
01/31/2022  11:51:00      -10.972       56.919       -6.435       23.201       35.026       22.820      538.284     1226.803      520.767        0.284        0.114       57.967       14.703        0.064      337.609        9.699      864.979
01/31/2022  11:52:00       39.736       72.877       -9.085       36.893       29.870       24.177     1361.084      892.214      584.520        0.490        0.142       83.006       19.721        0.056      337.501        9.518      864.962
01/31/2022  11:53:00       82.989       73.915       -9.823       53.363       40.517       34.209     2847.620     1641.625     1170.281        0.905        0.283      111.134       22.234        0.040      337.395        9.339      864.959
01/31/2022  11:54:00       47.033      -63.192      -32.765       35.625       72.679       32.249     1269.118     5282.257     1039.994        0.743        0.380       78.774       30.689        0.152      337.406        9.358      864.904
01/31/2022  11:55:00      -12.377      -11.858      -25.135       31.854       59.172       36.177     1014.672     3501.346     1308.789        0.337        0.291       17.140       29.712        3.005      337.237        9.076      864.883
01/31/2022  11:56:00       52.143      -51.493      -28.242       48.086       62.385       41.336     2312.304     3891.867     1708.666        0.704        0.396       73.283       31.939        0.190      337.451        9.434      864.868
01/31/2022  11:57:00      126.746       22.440      -23.805       92.418       47.328       37.476     8541.050     2239.899     1404.455        1.466        0.609      128.717       15.441        0.014      337.475        9.473      864.839
01/31/2022  11:58:00      239.167       53.272      -25.057       95.722       66.791       45.449     9162.776     4460.995     2065.594        3.818        0.784      245.028       32.992        0.018      337.460        9.446      864.793
01/31/2022  11:59:00      117.133       62.840       -9.779       76.158       67.254       35.186     5800.079     4523.144     1238.069        1.466        0.578      132.925       26.029        0.038      337.550        9.599      864.781
01/31/2022  12:00:00      102.648       57.268       -7.128       49.941       59.169       28.202     2494.119     3500.915      795.358        1.033        0.340      117.542       17.647        0.023      337.535        9.575      864.753
01/31/2022  12:01:00      118.468       58.783      -26.110       48.128       38.099       29.937     2316.259     1451.528      896.243        1.142        0.233      132.250       20.674        0.024      337.441        9.418      864.727
01/31/2022  12:02:00      157.686        8.178      -30.407       51.330       59.582       39.698     2634.794     3549.997     1575.961        1.681        0.388      157.898       12.401        0.006      337.532        9.569      864.672
01/31/2022  12:03:00       90.670      132.827      -26.362       62.980       53.194       32.246     3966.519     2829.636     1039.788        1.720        0.392      160.823       22.183        0.019      337.384        9.321      864.659
01/31/2022  12:04:00       23.147      135.933      -17.716       53.775       44.139       30.734     2891.737     1948.255      944.601        1.255        0.289      137.889       29.302        0.045      337.807       10.030      864.626
01/31/2022  12:05:00       11.318       11.174       18.090       73.536       60.767       44.110     5407.477     3692.633     1945.693        0.581        0.552       15.904       35.379        4.948      338.256       10.785      864.572
01/31/2022  12:06:00      162.903       89.687      -16.264      110.357       55.596       43.177    12178.720     3090.937     1864.259        2.599        0.857      185.960       23.898        0.017      337.858       10.114      864.549
01/31/2022  12:07:00      170.796      155.500      -20.180      119.476       75.265       58.537    14274.414     5664.844     3426.633        3.856        1.168      230.980       36.537        0.025      337.604        9.686      864.531
01/31/2022  12:08:00       95.329      138.436      -25.951       81.814       56.532       41.454     6693.555     3195.823     1718.414        2.026        0.580      168.084       35.727        0.045      337.638        9.746      864.509
01/31/2022  12:09:00      135.748       75.059      -20.320       78.927       86.280       46.058     6229.427     7444.179     2121.355        2.013        0.790      155.117       20.181        0.017      337.947       10.265      864.478
01/31/2022  12:10:00      138.921      107.276      -15.192       92.747       42.498       39.065     8602.063     1806.113     1526.102        2.148        0.597      175.520       33.141        0.036      337.538        9.580      864.469
01/31/2022  12:11:00      194.638       41.531      -15.196       74.754       68.474       43.384     5588.230     4688.737     1882.208        2.600        0.608      199.019       25.976        0.017      337.607        9.694      864.440
01/31/2022  12:12:00      116.206       51.217      -18.601       67.806       26.524       27.987     4597.644      703.516      783.286        1.128        0.304      126.993       21.960        0.030      337.354        9.273      864.420
01/31/2022  12:13:00       93.891       84.409      -11.874       58.627       33.914       23.601     3437.183     1150.171      557.012        1.061        0.257      126.255       23.786        0.035      337.709        9.865      864.397
01/31/2022  12:14:00      102.861       69.060      -12.138       65.115       70.113       43.605     4239.919     4915.815     1901.388        1.327        0.553      123.893       25.932        0.044      337.952       10.274      864.364
01/31/2022  12:15:00      161.863       62.477      -18.750      109.552       68.631       33.311    12001.617     4710.229     1109.612        2.413        0.891      173.502       21.647        0.016      337.852       10.105      864.338
01/31/2022  12:16:00      105.619      108.271      -25.933       55.078       63.867       38.107     3033.618     4079.037     1452.106        1.606        0.428      151.255       12.613        0.007      337.417        9.375      864.326
01/31/2022  12:17:00      104.195       60.991      -21.132       47.602       41.032       26.970     2265.932     1683.596      727.401        0.985        0.234      120.733       20.330        0.028      337.429        9.397      864.307
01/31/2022  12:18:00       95.124       50.541      -35.142       49.779       38.779       28.687     2477.926     1503.811      822.959        0.882        0.240      107.717       17.796        0.027      337.655        9.775      864.272
01/31/2022  12:19:00       89.029       30.654      -20.643       68.159       49.468       26.632     4645.717     2447.060      709.252        0.855        0.390       94.159       19.135        0.041      337.800       10.019      864.247
01/31/2022  12:20:00       96.170       50.194      -24.062       43.163       45.031       25.792     1863.028     2027.797      665.243        0.845        0.228      108.481       10.090        0.009      337.501        9.517      864.241
01/31/2022  12:21:00      160.353       78.174      -26.188       37.689       43.788       23.196     1420.474     1917.357      538.059        1.819        0.194      178.393        4.771        0.001      337.344        9.254      864.224
01/31/2022  12:22:00       94.033       72.945      -24.263       60.256       63.580       40.685     3630.840     4042.389     1655.253        1.204        0.466      119.010       22.370        0.035      337.774        9.975      864.209
01/31/2022  12:23:00       34.825       71.447      -11.294       34.373       51.641       35.665     1181.472     2666.755     1271.962        0.578        0.256       79.483       37.591        0.224      337.669        9.801      864.207
01/31/2022  12:24:00      -16.870      -84.458      -36.101       55.354       37.621       35.687     3064.025     1415.336     1273.573        0.724        0.288       86.126       35.172        0.167      337.462        9.452      864.163
01/31/2022  12:25:00       18.083      -47.156      -26.300       38.361       62.969       37.012     1471.551     3965.064     1369.914        0.502        0.340       50.504       23.108        0.209      337.838       10.083      864.120
01/31/2022  12:26:00       14.989       -8.760      -21.567       33.218       57.135       28.748     1103.414     3264.439      826.458        0.298        0.260       17.361       17.600        1.028      338.121       10.557      864.094
01/31/2022  12:27:00      -24.685       16.497        5.830       49.617       42.473       27.859     2461.822     1803.990      776.106        0.298        0.252       29.690       22.141        0.556      338.562       11.299      864.076
01/31/2022  12:28:00      243.967       44.332      -20.637       68.087       52.330       40.121     4635.878     2738.435     1609.655        3.545        0.449      247.962       34.927        0.020      337.601        9.680      864.057
01/31/2022  12:29:00      156.049       62.905      -30.327       54.501       42.353       27.005     2970.399     1793.752      729.281        1.736        0.275      168.251       12.022        0.005      337.463        9.453      864.048
01/31/2022  12:30:00      104.512       85.600      -18.601       55.663       41.930       30.344     3098.341     1758.084      920.757        1.219        0.289      135.093       19.578        0.021      337.915       10.211      864.030
01/31/2022  12:31:00      143.408      132.951      -29.310       82.850       54.581       45.916     6864.094     2979.091     2108.307        2.552        0.598      195.556       45.801        0.055      338.135       10.579      864.003
01/31/2022  12:32:00      184.376      109.935      -25.887       85.969       50.722       37.231     7390.653     2572.686     1386.164        2.905        0.567      214.663       35.640        0.028      337.817       10.044      863.998
01/31/2022  12:33:00      114.616      114.344      -15.239       73.195       80.528       45.527     5357.539     6484.754     2072.750        2.018        0.696      161.899       42.855        0.070      338.131       10.573      863.987
01/31/2022  12:34:00      173.689      172.913      -31.110       94.537       83.821       57.039     8937.210     7025.883     3253.502        4.012        0.961      245.085       57.213        0.054      338.113       10.542      863.952
01/31/2022  12:35:00      173.343      176.836      -12.077       91.101       70.260       61.595     8299.405     4936.416     3793.915        3.924        0.851      247.626       53.220        0.046      337.941       10.253      863.882
01/31/2022  12:36:00       93.295      160.707      -26.856       64.128       77.248       44.335     4112.438     5967.213     1965.622        2.365        0.602      185.824       45.559        0.060      338.106       10.530      863.868
01/31/2022  12:37:00      166.383      118.707      -17.128       73.469       46.696       46.093     5397.643     2180.475     2124.550        2.588        0.485      204.388       36.856        0.033      337.962       10.288      863.838
01/31/2022  12:38:00      -47.497      204.486      -28.468       63.318       98.580       35.419     4009.217     9718.012     1254.474        2.993        0.749      209.930       14.261        0.005      337.970       10.303      863.831
01/31/2022  12:39:00       28.223       94.291      -10.090       45.692       54.575       28.331     2087.773     2978.390      802.619        0.783        0.293       98.424       25.672        0.068      338.026       10.397      863.811
01/31/2022  12:40:00      -10.209       91.351       -6.994       48.469       58.575       38.093     2349.210     3431.018     1451.082        0.786        0.362       91.920       21.827        0.056      338.497       11.190      863.783
01/31/2022  12:41:00       62.822      127.137      -16.354       93.575       94.519       36.939     8756.300     8933.839     1364.487        1.971        0.953      141.811       28.311        0.040      338.334       10.913      863.763
01/31/2022  12:42:00       30.481      218.499      -19.034      105.983      123.131       54.075    11232.297    15161.309     2924.128        3.917        1.466      220.615       57.926        0.069      338.157       10.614      863.759
01/31/2022  12:43:00       99.241      124.138      -29.233       75.229       87.804       43.247     5659.404     7709.458     1870.266        2.067        0.762      158.931       41.698        0.069      337.975       10.311      863.769
01/31/2022  12:44:00      168.957      122.252      -33.645       60.194       92.226       39.168     3623.317     8505.546     1534.101        2.914        0.683      208.547       32.262        0.024      337.736        9.909      863.738
01/31/2022  12:45:00      131.610       33.633      -26.597       51.111       64.765       30.525     2612.361     4194.516      931.799        1.345        0.387      135.839       25.933        0.036      337.931       10.239      863.709
01/31/2022  12:46:00        6.281       34.188      -19.827       70.701       76.154       32.074     4998.682     5799.475     1028.712        0.671        0.591       34.760       23.405        0.453      338.069       10.469      863.701
01/31/2022  12:47:00       66.807       84.789      -16.649       43.800       58.272       30.746     1918.427     3395.647      945.335        0.909        0.313      107.946        9.823        0.008      338.083       10.494      863.674
01/31/2022  12:48:00      -10.612      149.234      -22.383       41.560       33.204       27.383     1727.260     1102.485      749.845        1.323        0.179      149.611        9.903        0.004      337.985       10.329      863.671
01/31/2022  12:49:00       11.930      107.174      -21.952       61.197       64.249       34.919     3745.098     4127.871     1219.342        1.060        0.455      107.836       27.037        0.063      338.180       10.655      863.649
01/31/2022  12:50:00        4.906      168.305       -2.853       52.900      131.847       60.551     2798.418    17383.515     3666.440        2.610        1.192      168.377       65.563        0.152      338.405       11.033      863.620
01/31/2022  12:51:00      -49.324       56.138      -13.476       69.601      120.680       53.192     4844.336    14563.709     2829.399        1.400        1.112       74.728       50.350        0.454      338.197       10.685      863.585
01/31/2022  12:52:00      -33.574       -1.680        2.389      135.166       73.471       53.104    18269.897     5398.031     2819.997        1.381        1.324       33.616       37.926        1.273      338.253       10.778      863.580
01/31/2022  12:53:00       43.140       92.509      -18.775       58.473      138.250       45.583     3419.131    19113.086     2077.771        1.769        1.230      102.073       29.802        0.085      338.423       11.063      863.591
01/31/2022  12:54:00      294.249      128.294      -20.806      101.630      107.891       68.167    10328.613    11640.484     4646.785        6.504        1.331      321.002       57.245        0.032      337.922       10.220      863.587
01/31/2022  12:55:00      125.912       42.236      -26.553      111.963       64.233       34.496    12535.753     4125.828     1189.947        1.809        0.893      132.807       18.803        0.020      337.955       10.278      863.582
01/31/2022  12:56:00       23.461       81.565       -6.410       45.779       37.417       28.457     2095.730     1400.030      809.802        0.577        0.215       84.873       14.366        0.029      338.298       10.854      863.595
01/31/2022  12:57:00       26.437      115.249      -22.539       45.642       69.253       25.932     2083.233     4795.964      672.459        1.102        0.378      118.242       18.767        0.025      338.567       11.306      863.591
01/31/2022  12:58:00       86.592      162.982      -27.325      120.077       98.840       51.136    14418.463     9769.378     2614.851        3.080        1.340      184.557       55.636        0.091      338.351       10.940      863.587
01/31/2022  12:59:00       53.700      369.240      -44.963      160.113      138.864       73.762    25636.079    19283.141     5440.889        9.579        2.518      373.125       72.373        0.038      338.099       10.517      863.563
01/31/2022  13:00:00      -13.375      351.770      -34.586       75.204       84.616       47.691     5655.670     7159.938     2274.429        7.010        0.755      352.024       45.138        0.016      337.894       10.174      863.565
01/31/2022  13:01:00      -52.371      256.376      -22.130       73.304      119.536       48.308     5373.472    14288.791     2333.629        4.547        1.100      261.670       39.225        0.022      338.088       10.500      863.535
01/31/2022  13:02:00       33.568       50.817      -26.555       60.492       54.957       41.069     3659.341     3020.247     1686.643        0.639        0.418       60.903       14.629        0.058      338.309       10.873      863.510
01/31/2022  13:03:00       80.851       43.382      -11.804       79.710       50.495       36.646     6353.610     2549.746     1342.954        0.940        0.512       91.754       11.109        0.015      338.330       10.906      863.486
01/31/2022  13:04:00      112.023      110.558      -29.072       75.509       47.247       40.782     5701.589     2232.308     1663.147        1.761        0.480      157.392       34.845        0.049      338.308       10.869      863.469
01/31/2022  13:05:00       28.248      198.182      -32.713       69.749       82.665       48.338     4864.925     6833.541     2336.593        2.759        0.702      200.185       35.539        0.032      338.609       11.373      863.443
01/31/2022  13:06:00      191.069      158.548      -36.734       62.751       94.761       47.385     3937.728     8979.592     2245.333        3.908        0.758      248.284       45.729        0.034      338.059       10.450      863.408
01/31/2022  13:07:00      131.124      189.030      -33.618       81.823      125.326       46.923     6695.060    15706.510     2201.729        3.933        1.230      230.056       46.258        0.040      338.197       10.682      863.379
01/31/2022  13:08:00      -35.327      198.909      -43.249       64.964      107.407       57.515     4220.349    11536.256     3308.011        3.087        0.953      202.022       36.424        0.033      338.229       10.736      863.380
01/31/2022  13:09:00      -50.461      129.514      -13.517       86.733       82.213       40.284     7522.558     6759.050     1622.794        1.770        0.795      138.997       37.321        0.072      338.264       10.796      863.363
01/31/2022  13:10:00      -17.682      232.792      -24.337       72.289       93.636       53.339     5225.653     8767.640     2845.024        3.596        0.842      233.462       39.049        0.028      338.209       10.701      863.343
01/31/2022  13:11:00      -51.869      143.276       -0.828       65.263       79.250       44.900     4259.279     6280.492     2016.019        1.789        0.628      152.376       20.306        0.018      338.402       11.029      863.321
01/31/2022  13:12:00      -32.732      157.257      -19.275       78.081       64.385       45.722     6096.643     4145.491     2090.486        1.925        0.617      160.628       44.198        0.076      338.100       10.522      863.283
01/31/2022  13:13:00      -60.149      169.530      -27.762      103.199       85.761       51.708    10649.975     7354.968     2673.712        2.690        1.034      179.884       40.358        0.050      338.293       10.844      863.249
01/31/2022  13:14:00       48.404      194.789      -25.219       88.253       71.947       33.416     7788.583     5176.390     1116.599        2.750        0.704      200.713       22.726        0.013      338.208       10.701      863.238
01/31/2022  13:15:00       74.499      179.942      -26.046       54.753       86.832       36.218     2997.851     7539.726     1311.732        2.523        0.592      194.754       38.511        0.039      338.232       10.741      863.199
01/31/2022  13:16:00       87.155      265.322      -26.307       79.129       91.851       44.186     6261.461     8436.597     1952.363        4.766        0.833      279.270       34.655        0.015      338.236       10.748      863.170
01/31/2022  13:17:00      154.537      295.970      -26.832       79.864      135.447       47.094     6378.274    18346.017     2217.805        6.957        1.347      333.886       59.752        0.032      338.140       10.586      863.143
01/31/2022  13:18:00       51.823      236.069      -24.253       82.154       97.367       48.126     6749.339     9480.361     2316.112        3.877        0.927      241.690       53.941        0.050      338.370       10.973      863.129
01/31/2022  13:19:00       87.500      296.273      -37.116       81.286      137.620       54.084     6607.467    18939.266     2925.059        6.264        1.424      308.924       60.319        0.038      338.154       10.610      863.109
01/31/2022  13:20:00       71.098      282.402      -20.489       76.099       69.979       37.781     5791.124     4896.997     1427.428        4.867        0.606      291.215       38.131        0.017      338.074       10.474      863.098
01/31/2022  13:21:00      126.099      305.118      -49.643      115.179      112.089       55.939    13266.257    12563.977     3129.143        7.021        1.448      330.148       45.200        0.019      338.058       10.448      863.068
01/31/2022  13:22:00       79.364      224.738      -23.805       77.356      116.734       48.404     5983.942    13626.842     2342.914        3.966        1.098      238.340       51.969        0.048      338.185       10.661      863.045
01/31/2022  13:23:00       38.104      153.232      -24.514       92.419       62.314       49.289     8541.187     3883.000     2429.402        2.019        0.743      157.898       29.686        0.035      338.553       11.281      863.036
01/31/2022  13:24:00      125.911      125.810      -18.893      100.418       82.591       47.242    10083.821     6821.267     2231.798        2.558        0.957      177.994       53.023        0.089      338.226       10.732      863.015
01/31/2022  13:25:00       62.535       91.253      -27.950       92.116       68.012       34.786     8485.290     4625.698     1210.073        1.367        0.716      110.624       33.481        0.092      338.280       10.824      862.981
01/31/2022  13:26:00      -17.364      235.324      -22.747      102.980      129.316       38.456    10604.983    16722.544     1478.831        4.250        1.440      235.963       45.402        0.037      338.347       10.934      862.986
01/31/2022  13:27:00      -42.808      246.378      -27.398       67.476       67.095       37.447     4553.040     4501.800     1402.242        3.687        0.523      250.070       24.754        0.010      338.009       10.366      862.992
01/31/2022  13:28:00       18.645      215.158      -21.589       46.309       59.711       37.812     2144.507     3565.347     1429.754        2.712        0.357      215.965       23.650        0.012      338.185       10.662      862.972
01/31/2022  13:29:00      108.182      234.569      -33.810       72.559       61.199       32.442     5264.865     3745.334     1052.472        3.896        0.503      258.314       31.716        0.015      338.206       10.696      862.980
01/31/2022  13:30:00       46.022      166.366      -21.902       87.929       92.406       44.511     7731.533     8538.867     1981.208        2.426        0.913      172.614       33.039        0.037      338.234       10.744      862.984
01/31/2022  13:31:00      -12.180      202.596      -26.096      100.842       66.649       40.957    10169.167     4442.047     1677.478        2.908        0.814      202.962       18.944        0.009      338.545       11.266      862.957
01/31/2022  13:32:00       78.192      162.755      -26.527       73.695       86.659       36.147     5430.972     7509.790     1306.615        2.377        0.712      180.563       24.604        0.019      338.341       10.925      862.955
01/31/2022  13:33:00      155.809      286.129      -42.997       91.555      101.455       54.282     8382.275    10293.130     2946.579        6.480        1.081      325.801       43.245        0.018      338.241       10.755      862.960
01/31/2022  13:34:00      170.087      190.924      -34.942      112.510       91.437       52.816    12658.470     8360.663     2789.537        4.520        1.190      255.698       44.211        0.030      338.231       10.738      862.941
01/31/2022  13:35:00      203.149       94.320       -9.561      115.263       91.725       51.754    13285.493     8413.492     2678.444        3.731        1.219      223.977       36.326        0.026      338.335       10.915      862.903
01/31/2022  13:36:00      203.695        9.312       -4.745      130.969       73.289       62.125    17152.803     5371.299     3859.503        3.399        1.319      203.907       50.756        0.062      338.410       11.040      862.870
01/31/2022  13:37:00      144.962       37.227      -21.716      142.644       90.704       70.087    20347.176     8227.184     4912.243        2.817        1.674      149.666       66.616        0.198      338.503       11.196      862.846
01/31/2022  13:38:00      147.255      144.294      -28.528      109.136      113.880       50.649    11910.689    12968.696     2565.287        3.538        1.372      206.167       47.257        0.053      338.433       11.077      862.856
01/31/2022  13:39:00       48.169      218.251      -32.234       75.225       57.192       42.511     5658.768     3270.972     1807.218        3.086        0.537      223.503       33.830        0.023      338.509       11.205      862.850
01/31/2022  13:40:00      119.244      273.652      -39.151       81.776      117.588       41.620     6687.292    13826.991     1732.235        5.644        1.112      298.504       55.121        0.034      338.356       10.948      862.843
01/31/2022  13:41:00       72.576      242.940      -25.345       83.833      107.116       51.034     7028.055    11473.842     2604.462        4.301        1.055      253.549       56.402        0.049      338.331       10.906      862.825
01/31/2022  13:42:00      -12.704      221.701      -28.372       60.806       75.659       35.066     3697.426     5724.267     1229.655        3.038        0.533      222.064       33.161        0.022      338.322       10.892      862.788
01/31/2022  13:43:00       45.180      202.497      -18.449       80.623       88.323       34.652     6500.002     7800.996     1200.787        2.944        0.775      207.476       40.420        0.038      338.433       11.078      862.748
01/31/2022  13:44:00      108.497      179.236      -28.058       64.313       94.805       36.916     4136.141     8988.055     1362.794        2.958        0.724      209.516       38.901        0.034      338.554       11.281      862.734
01/31/2022  13:45:00       97.372      119.632      -25.817       86.088       59.094       38.175     7411.099     3492.104     1457.300        1.841        0.618      154.250       27.377        0.032      338.432       11.078      862.723
01/31/2022  13:46:00      195.677       40.849      -20.832       83.180       86.003       47.878     6918.927     7396.486     2292.305        2.850        0.830      199.896       29.081        0.021      338.360       10.955      862.677
01/31/2022  13:47:00      225.359      168.968      -36.454      120.661       67.929       52.535    14559.100     4614.300     2759.881        5.130        1.097      281.668       34.043        0.015      338.254       10.778      862.643
01/31/2022  13:48:00       94.452      151.526      -14.616       87.995      119.772       39.122     7743.203    14345.296     1530.521        2.785        1.181      178.554       41.634        0.054      338.509       11.207      862.638
01/31/2022  13:49:00      261.881      155.115      -26.412      109.824       73.631       56.151    12061.215     5421.531     3152.909        5.698        1.032      304.372       48.803        0.026      338.374       10.977      862.612
01/31/2022  13:50:00      264.111      198.798      -36.365      104.960       69.190       54.532    11016.583     4787.227     2973.788        6.468        0.939      330.568       50.937        0.024      338.254       10.778      862.595
01/31/2022  13:51:00      176.821      152.430      -36.089       74.378       58.848       42.988     5532.071     3463.122     1847.978        3.332        0.542      233.453       28.121        0.015      338.493       11.178      862.602
01/31/2022  13:52:00      144.138       63.397      -13.123       77.170       76.286       45.990     5955.173     5819.618     2115.051        1.943        0.694      157.464       22.536        0.020      338.680       11.493      862.597
01/31/2022  13:53:00      133.150       54.866      -18.618       79.417       52.858       37.186     6307.028     2793.939     1382.813        1.578        0.524      144.011       16.756        0.014      338.636       11.420      862.578
01/31/2022  13:54:00      130.779       95.254      -23.948       78.704       79.033       34.364     6194.390     6246.191     1180.864        2.018        0.681      161.792       26.557        0.027      338.350       10.940      862.581
01/31/2022  13:55:00       41.713      -16.839      -15.722      105.908       61.344       44.214    11216.446     3763.134     1954.890        0.960        0.847       44.984       27.883        0.384      338.617       11.389      862.550
01/31/2022  13:56:00       13.071       17.146      -19.109       73.615       51.055       52.368     5419.096     2606.565     2742.449        0.580        0.538       21.560       32.384        2.256      338.393       11.013      862.546
01/31/2022  13:57:00       41.724      102.993       -5.327       82.303       73.808       42.021     6773.859     5447.567     1765.769        1.318        0.699      111.124       36.797        0.110      338.618       11.390      862.544
01/31/2022  13:58:00      195.819      122.248      -33.480      117.520       85.453       57.192    13811.020     7302.275     3270.945        3.939        1.219      230.845       47.796        0.043      338.487       11.169      862.512
01/31/2022  13:59:00       76.380      239.746      -25.786      156.922      124.540       49.283    24624.645    15510.146     2428.814        5.326        2.128      251.619       66.141        0.069      338.625       11.402      862.498
01/31/2022  14:00:00      155.689      122.702      -42.885       88.134      140.255       48.382     7767.628    19671.547     2340.834        3.545        1.489      198.230       53.386        0.073      338.478       11.154      862.456
01/31/2022  14:01:00      185.290      100.246      -18.110       80.438       85.596       55.246     6470.279     7326.699     3052.092        3.078        0.842      210.670       44.087        0.044      338.611       11.376      862.411
01/31/2022  14:02:00       46.537      176.960      -23.359       97.394      109.523       61.386     9485.496    11995.315     3768.296        2.963        1.262      182.976       59.881        0.107      338.640       11.425      862.428
01/31/2022  14:03:00       23.261      185.861      -29.561       80.398       76.717       36.444     6463.822     5885.527     1328.152        2.482        0.684      187.311       27.668        0.022      338.564       11.299      862.422
01/31/2022  14:04:00       72.672       65.340      -21.678       49.707       87.138       36.475     2470.828     7593.086     1330.436        1.071        0.570       97.727       20.880        0.046      338.519       11.224      862.410
01/31/2022  14:05:00       67.636      261.867      -32.647      119.388       86.103       47.656    14253.415     7413.759     2271.115        4.907        1.197      270.461       33.913        0.016      338.497       11.184      862.395
01/31/2022  14:06:00     -133.578      135.512      -22.700      140.580      152.606       76.391    19762.625    23288.448     5835.525        4.280        2.444      190.281       60.190        0.100      338.638       11.422      862.373
01/31/2022  14:07:00       75.574      112.725      -18.976       80.740       91.850       43.980     6518.915     8436.408     1934.246        1.783        0.844      135.714       33.048        0.059      338.475       11.150      862.381
01/31/2022  14:08:00       92.951       47.071      -12.618       93.659       71.901       34.121     8772.033     5169.711     1164.227        1.306        0.755      104.190       28.012        0.072      338.887       11.842      862.352
01/31/2022  14:09:00      -19.065      182.000      -27.435       90.039       91.051       55.880     8107.001     8290.352     3122.557        2.688        0.976      182.995       31.176        0.029      338.737       11.590      862.363
01/31/2022  14:10:00      -23.079      220.987      -27.667      151.477      131.103       63.125    22945.263    17187.957     3984.772        4.712        2.206      222.189       49.712        0.050      338.665       11.468      862.347
01/31/2022  14:11:00      163.433      362.933      -51.025       77.616      103.944       40.913     6024.219    10804.270     1673.912        8.976        0.925      398.034       24.251        0.004      338.335       10.913      862.325
01/31/2022  14:12:00       72.801      192.389      -28.485       78.341      109.505       43.676     6137.343    11991.329     1907.610        3.158        1.002      205.703       46.439        0.051      338.588       11.338      862.327
01/31/2022  14:13:00       69.733      212.671      -23.507       92.224      114.804       50.996     8505.264    13180.063     2600.629        3.746        1.214      223.812       46.141        0.043      338.647       11.438      862.299
01/31/2022  14:14:00      108.929      333.534      -48.280      116.258      127.267       69.665    13516.032    16196.833     4853.226        8.000        1.728      350.871       72.709        0.043      338.409       11.038      862.300
01/31/2022  14:15:00       96.335      367.285      -41.542      117.725      148.669       52.939    13859.108    22102.515     2802.553        9.233        1.938      379.709       65.924        0.030      338.340       10.922      862.294
01/31/2022  14:16:00      121.552      347.153      -42.382       84.146      130.890       35.662     7080.556    17132.231     1271.814        8.128        1.274      367.818       52.175        0.020      338.203       10.693      862.273
01/31/2022  14:17:00      230.373      211.157      -30.557      146.640      116.352       62.030    21503.378    13537.857     3847.757        6.873        1.944      312.504       49.983        0.026      338.469       11.137      862.239
01/31/2022  14:18:00      160.525      240.133      -32.655      100.005      115.120       61.683    10000.991    13252.708     3804.756        5.577        1.353      288.846       53.489        0.034      338.523       11.229      862.241
01/31/2022  14:19:00       11.700      278.909      -18.118      116.020      157.425       55.238    13460.692    24782.615     3051.185        5.977        2.065      279.154       57.317        0.042      338.558       11.287      862.249
01/31/2022  14:20:00       93.630      180.635      -15.219       81.918       78.706       52.073     6710.639     6194.605     2711.588        2.862        0.781      203.459       44.830        0.049      338.620       11.392      862.248
01/31/2022  14:21:00       93.675      188.791      -19.611       77.813       78.605       50.083     6054.855     6178.791     2508.304        2.977        0.737      210.753       49.809        0.056      338.737       11.589      862.251
01/31/2022  14:22:00      150.017      349.383      -39.595       89.982      117.730       57.052     8096.835    13860.367     3254.949        8.567        1.261      380.228       50.457        0.018      338.432       11.076      862.243
01/31/2022  14:23:00      110.085      246.246      -41.270       82.609       90.240       49.045     6824.281     8143.255     2405.446        4.591        0.869      269.733       46.934        0.030      338.458       11.120      862.233
01/31/2022  14:24:00      -58.420      225.775      -21.944      107.548      142.086       53.810    11566.581    20188.292     2895.542        4.475        1.733      233.211       42.830        0.034      338.519       11.223      862.240
01/31/2022  14:25:00     -106.104      334.895      -39.763      165.551      100.460       64.227    27407.082    10092.231     4125.094        8.330        2.081      351.302       46.795        0.018      338.472       11.143      862.221
01/31/2022  14:26:00       52.236      159.425      -14.657       85.178       78.824       44.327     7255.277     6213.169     1964.871        2.189        0.772      167.765       37.958        0.051      338.562       11.295      862.195
01/31/2022  14:27:00       22.301      219.948      -21.298       95.364      130.640       57.550     9094.325    17066.680     3311.952        3.939        1.474      221.075       51.005        0.053      338.590       11.340      862.172
01/31/2022  14:28:00        5.725      271.916      -16.050       68.110      124.804       51.040     4638.974    15576.041     2605.080        4.852        1.141      271.976       50.175        0.034      338.545       11.267      862.135
01/31/2022  14:29:00     -105.398      190.750      -21.934       82.452       88.126       59.108     6798.322     7766.227     3493.739        3.301        0.903      217.932       46.946        0.046      338.888       11.843      862.114
01/31/2022  14:30:00     -237.453      125.773      -39.508      119.400       83.148       52.389    14256.242     6913.654     2744.627        4.883        1.196      268.706       35.607        0.018      338.613       11.382      862.095
01/31/2022  14:31:00     -121.222       35.146      -23.034      100.791       80.208       43.395    10158.826     6433.369     1883.098        1.746        0.924      126.214       48.957        0.150      338.616       11.388      862.077
01/31/2022  14:32:00     -118.056       38.219      -11.767       71.683       36.654       29.471     5138.476     1343.535      868.549        1.144        0.368      124.088       27.076        0.048      338.595       11.354      862.063
01/31/2022  14:33:00       47.278       69.025       -3.879       61.067       55.139       35.729     3729.153     3040.299     1276.580        0.753        0.402       83.664       15.363        0.034      338.630       11.411      862.033
01/31/2022  14:34:00       18.673      156.318      -27.374       93.552       96.761       61.201     8752.018     9362.693     3745.550        2.369        1.093      157.430       50.198        0.102      338.699       11.527      861.949
01/31/2022  14:35:00     -190.883       82.017       -3.509      272.237      118.837       95.504    74113.208    14122.324     9120.932        7.025        4.868      207.757       88.374        0.181      338.856       11.791      861.857
01/31/2022  14:36:00      -42.821       34.734      -12.712      148.398       80.012       73.840    22021.940     6401.889     5452.355        1.853        1.694       55.137       39.458        0.512      338.854       11.786      861.916
01/31/2022  14:37:00      -72.317       76.817        3.706      147.266       83.994       64.716    21687.167     7054.953     4188.216        2.203        1.647      105.502       14.911        0.020      339.059       12.133      861.953
01/31/2022  14:38:00      -78.580       11.040       13.568       76.869       63.545       51.065     5908.871     4037.915     2607.611        0.952        0.628       79.352       39.428        0.247      339.100       12.202      861.950
01/31/2022  14:39:00     -207.393       54.740      -14.961      142.298       97.501       56.514    20248.666     9506.487     3193.844        3.958        1.647      214.495       40.077        0.035      338.464       11.132      861.947
01/31/2022  14:40:00     -143.984        6.653       19.508      136.334       83.068       81.346    18586.939     6900.358     6617.199        2.662        1.605      144.138       57.764        0.161      338.521       11.228      861.882
01/31/2022  14:41:00     -237.694      -93.352      -23.498      130.556      104.081       75.770    17044.939    10832.864     5741.043        4.969        1.681      255.368       57.865        0.051      337.979       10.314      861.892
01/31/2022  14:42:00     -162.633        6.197       -5.996      119.653      127.800       58.354    14316.733    16332.724     3405.203        3.028        1.703      162.751       42.997        0.070      338.259       10.787      861.904
01/31/2022  14:43:00     -138.159       25.868       10.197      208.281      135.901       80.191    43380.915    18469.128     6430.612        4.406        3.414      140.560       27.895        0.039      338.381       10.992      861.883
01/31/2022  14:44:00      -27.531      -47.126       10.254       95.662       72.851       49.808     9151.203     5307.243     2480.857        1.001        0.847       54.578       40.507        0.551      338.399       11.024      861.929
01/31/2022  14:45:00     -129.496       40.255       -9.750       97.906       66.131       41.149     9585.646     4373.325     1693.210        1.707        0.783      135.609       33.356        0.061      338.552       11.280      861.955
01/31/2022  14:46:00      -28.049       16.384       -5.254       63.968       64.072       48.767     4091.843     4105.175     2378.237        0.583        0.529       32.483       31.820        0.960      338.688       11.510      861.972
01/31/2022  14:47:00     -234.324       44.577      -16.787      156.838      132.206       74.710    24598.197    17478.532     5581.631        5.241        2.383      238.527       64.996        0.074      338.470       11.140      861.978
01/31/2022  14:48:00     -137.007       54.768        7.951      169.664       91.789       79.461    28785.869     8425.134     6314.122        3.267        2.176      147.548       85.291        0.334      338.510       11.209      862.001
01/31/2022  14:49:00     -227.292       65.363      -23.361      224.066      121.461       77.291    50205.434    14752.719     5973.845        6.369        3.547      236.503       62.891        0.071      338.441       11.091      861.981
01/31/2022  14:50:00     -280.200       34.823        7.507      231.134      144.310      102.439    53422.928    20825.344    10493.788        8.225        4.237      282.355       89.585        0.101      338.207       10.698      861.981
01/31/2022  14:51:00     -267.674       18.193       -7.931      198.488      127.758       89.797    39397.355    16322.168     8063.567        6.790        3.189      268.291       70.068        0.068      338.075       10.476      862.008
01/31/2022  14:52:00     -298.195       58.549       -5.656      179.146      110.335       77.667    32093.463    12173.804     6032.187        7.133        2.515      303.889       82.851        0.074      338.134       10.575      861.997
01/31/2022  14:53:00     -424.310       90.480        3.211      239.686      137.497       91.908    57449.165    18905.314     8447.159       13.650        4.240      433.850      104.419        0.058      338.330       10.905      861.950
01/31/2022  14:54:00     -284.736       30.465       -1.185      221.661      168.428      110.412    49133.669    28368.026    12190.887        8.583        4.485      286.361      105.070        0.135      338.164       10.626      862.044
01/31/2022  14:55:00     -323.163     -156.105      -46.905      146.492      134.942       72.356    21459.775    18209.232     5235.455        8.795        2.245      358.892       68.293        0.036      338.017       10.379      862.110
01/31/2022  14:56:00      -95.779     -270.470       -4.463      133.868       99.425       74.421    17920.727     9885.352     5538.482        5.784        1.667      286.928       55.349        0.037      338.104       10.525      862.102
01/31/2022  14:57:00      -86.569     -166.513      -40.607       89.794       73.066       46.027     8063.032     5338.705     2118.476        2.619        0.776      187.672       35.534        0.036      338.292       10.841      862.092
01/31/2022  14:58:00      -17.967      -38.097      -32.013      100.255       99.523       65.615    10051.163     9904.792     4305.297        1.353        1.213       42.121       58.731        1.944      338.414       11.049      862.081
01/31/2022  14:59:00       -4.944       54.701       15.958      108.968       61.954       37.856    11874.016     3838.271     1433.107        1.021        0.857       54.924       41.387        0.568      338.406       11.036      862.122
01/31/2022  15:00:00      -79.559       23.313      -12.575      110.308       74.187       50.758    12167.800     5503.725     2576.327        1.364        1.012       82.905       30.273        0.133      338.695       11.520      862.156
01/31/2022  15:01:00     -162.683       28.741      -15.843      178.580       84.932       66.566    31890.751     7213.438     4431.055        3.553        2.177      165.203       71.719        0.188      338.362       10.962      862.125
01/31/2022  15:02:00     -188.201      -24.806      -20.414      104.945       90.834       56.208    11013.434     8250.740     3159.302        2.943        1.121      189.829       41.274        0.047      338.248       10.767      862.126
01/31/2022  15:03:00      -79.070       18.325      -13.405      118.299       63.615       48.300    13994.644     4046.872     2332.859        1.357        1.019       81.166       43.294        0.285      338.393       11.013      862.186
01/31/2022  15:04:00       19.633      -24.703        4.347       87.803       67.481       47.286     7709.286     4553.638     2235.995        0.775        0.725       31.554       31.053        0.968      338.455       11.118      862.185
01/31/2022  15:05:00       -9.860      126.075       -3.329       49.075       72.340       31.597     2408.377     5233.104      998.399        1.232        0.432      126.460       32.202        0.065      338.747       11.607      862.218
01/31/2022  15:06:00     -128.498      139.392      -27.342       86.407       93.160       47.783     7466.169     8678.817     2283.186        2.756        0.921      189.584       35.521        0.035      338.352       10.944      862.223
01/31/2022  15:07:00       -7.790      190.245       -4.417       69.931      118.661       47.289     4890.374    14080.425     2236.295        2.874        1.060      190.405       38.441        0.041      338.433       11.079      862.219
01/31/2022  15:08:00      -38.113      176.617       -6.820       69.795       92.247       63.967     4871.315     8509.585     4091.824        2.508        0.874      180.683       58.351        0.104      338.448       11.104      862.230
01/31/2022  15:09:00        0.618      214.049      -20.841       68.714      116.021       54.398     4721.564    13460.830     2959.129        3.369        1.057      214.050       56.738        0.070      338.319       10.886      862.252
01/31/2022  15:10:00       -4.930      253.400      -33.820       72.888       45.896       38.417     5312.651     2106.467     1475.873        3.714        0.445      253.448       13.315        0.003      338.271       10.802      862.268
01/31/2022  15:11:00      106.341       -0.944       -7.811       86.751       58.507       39.673     7525.778     3423.072     1573.921        1.194        0.626      106.346       27.347        0.066      338.216       10.716      862.253
01/31/2022  15:12:00      233.090       26.056      -18.106      148.304      121.514       68.903    21994.144    14765.629     4747.613        4.841        2.075      234.541       47.183        0.040      337.765        9.958      862.216
01/31/2022  15:13:00       99.388       45.961        6.741      134.514       99.311       60.909    18094.017     9862.600     3709.883        2.185        1.583      109.501       56.630        0.267      337.913       10.207      862.201
01/31/2022  15:14:00      212.312      169.910      -38.761      136.969      157.193       69.007    18760.489    24709.671     4761.989        6.183        2.412      271.929       53.245        0.038      337.649        9.763      862.224
01/31/2022  15:15:00      394.654       86.090      -29.120      117.650      106.361       60.373    13841.502    11312.768     3644.901        9.640        1.440      403.935       41.613        0.011      337.469        9.460      862.176
01/31/2022  15:16:00      317.969      120.189      -28.773      129.215      109.682       53.496    16696.569    12030.114     2861.771        7.398        1.579      339.926       39.208        0.013      337.458        9.444      862.176
01/31/2022  15:17:00      313.429       72.512      -29.988      126.732      128.640       51.527    16061.045    16548.156     2655.078        6.982        1.763      321.707       23.933        0.006      337.557        9.608      862.114
01/31/2022  15:18:00      149.125       78.576      -24.919      126.876      105.932       77.686    16097.441    11221.556     6035.076        3.119        1.668      168.559       45.500        0.073      337.698        9.846      862.074
01/31/2022  15:19:00      356.645      197.147      -30.131      156.371       92.449       74.245    24451.794     8546.900     5512.282       10.273        1.926      407.508       67.543        0.027      337.568        9.628      862.093
01/31/2022  15:20:00      323.702      202.187      -23.345      115.024       81.000       55.028    13230.608     6560.970     3028.091        8.451        1.141      381.658       44.593        0.014      337.556        9.607      862.112
01/31/2022  15:21:00      280.520      202.946      -41.348      114.073      105.975       69.008    13012.635    11230.727     4762.146        7.529        1.450      346.235       55.184        0.025      337.495        9.504      862.106
01/31/2022  15:22:00      266.047      110.688      -22.917      154.654      120.974       75.754    23917.949    14634.674     5738.736        6.392        2.215      288.154       71.109        0.061      337.590        9.664      862.086
01/31/2022  15:23:00      197.673      187.802      -31.773      105.289       78.948       61.291    11085.766     6232.820     3756.542        4.821        1.054      272.662       46.573        0.029      337.710        9.864      862.095
01/31/2022  15:24:00      207.500      208.210      -34.903      119.922      151.255       78.590    14381.189    22877.994     6176.324        6.552        2.172      293.952       74.214        0.064      337.584        9.653      862.091
01/31/2022  15:25:00      268.172      130.431      -26.375      188.518      128.982       67.250    35538.889    16636.265     4522.518        7.315        2.835      298.209       66.105        0.049      337.647        9.758      862.069
01/31/2022  15:26:00      300.196      198.494      -32.497      178.897      132.024       71.502    32004.304    17430.433     5112.560        9.255        2.727      359.885       75.022        0.043      337.548        9.594      862.049
01/31/2022  15:27:00      235.125      240.068      -37.456      142.092      114.250       77.242    20190.258    13053.150     5966.301        7.676        1.960      336.031       46.501        0.019      337.525        9.553      862.056
01/31/2022  15:28:00      218.413      208.097      -37.842       84.980       91.873       55.615     7221.517     8440.631     3092.982        5.559        0.938      301.676       44.814        0.022      337.620        9.713      862.074
01/31/2022  15:29:00      182.392       94.171      -16.865      131.401       71.338       52.760    17266.098     5089.143     2783.635        3.377        1.257      205.269       40.780        0.039      337.686        9.825      862.066
01/31/2022  15:30:00      162.087      185.458      -14.255      106.575      111.483       57.663    11358.311    12428.401     3325.029        4.399        1.356      246.307       56.267        0.052      337.714        9.873      862.056
01/31/2022  15:31:00      224.060      149.968      -33.468      117.069      104.803       58.707    13705.106    10983.644     3446.552        5.097        1.407      269.617       36.512        0.018      337.650        9.765      862.052
01/31/2022  15:32:00      130.012      154.226      -26.305      108.645       81.157       49.183    11803.831     6586.465     2419.006        3.109        1.040      201.714       16.509        0.007      337.663        9.786      862.051
01/31/2022  15:33:00      133.521      261.617      -46.780      103.002      115.559       57.069    10609.434    13353.965     3256.856        5.784        1.361      293.720       44.677        0.023      337.611        9.700      862.044
01/31/2022  15:34:00      166.765      290.351      -36.574      159.266      139.645       83.726    25365.737    19500.653     7010.086        8.265        2.594      334.835       75.403        0.051      337.619        9.712      862.050
01/31/2022  15:35:00      265.585      219.809      -44.282      196.320      129.221       56.516    38541.604    16698.119     3194.073        8.961        2.922      344.748       51.014        0.022      337.535        9.573      862.062
01/31/2022  15:36:00      406.147      235.274      -52.189      174.631      129.909       88.875    30495.857    16876.360     7898.790       13.914        2.764      469.371       61.025        0.017      337.252        9.098      862.018
01/31/2022  15:37:00      320.552      216.592      -39.146      162.208      122.976       68.997    26311.371    15122.976     4760.642        9.869        2.310      386.867       68.072        0.031      337.366        9.287      862.048
01/31/2022  15:38:00      249.196      247.984      -37.685      149.441      150.072       83.660    22332.747    22521.642     6999.075        8.842        2.593      351.561       81.398        0.054      337.351        9.262      862.078
01/31/2022  15:39:00      329.769      231.418      -37.525      155.260       99.600       76.515    24105.546     9920.202     5854.592       10.179        1.994      402.867       62.536        0.024      337.316        9.204      862.102
01/31/2022  15:40:00      255.583      230.317      -36.565      116.357      159.241       66.133    13539.012    25357.586     4373.554        8.148        2.164      344.047       71.808        0.044      337.293        9.165      862.114
01/31/2022  15:41:00      281.794      197.952      -31.277      132.789       93.301       82.005    17632.870     8704.990     6724.815        7.631        1.653      344.373       72.421        0.044      337.328        9.225      862.114
01/31/2022  15:42:00      249.516      214.842      -24.077      175.078      111.830       70.212    30652.373    12505.873     4929.725        7.853        2.404      329.265       62.650        0.036      337.360        9.279      862.116
01/31/2022  15:43:00      166.936      291.137      -38.005      105.513      131.390       62.570    11132.977    17263.235     3914.983        7.319        1.616      335.602       51.005        0.023      337.398        9.341      862.117
01/31/2022  15:44:00      279.045      211.495      -25.414      146.540      134.603       74.466    21473.952    18118.018     5545.209        8.418        2.257      350.137       71.930        0.042      337.342        9.248      862.097
01/31/2022  15:45:00      388.574      238.140      -39.180      181.910      111.223       76.187    33091.147    12370.621     5804.475       13.024        2.563      455.741       61.915        0.018      337.245        9.087      862.078
01/31/2022  15:46:00      450.018      198.602      -43.845      159.573      119.901       67.050    25463.516    14376.344     4495.762       14.410        2.217      491.894       58.017        0.014      337.259        9.109      862.043
01/31/2022  15:47:00      304.036      169.719      -29.378      215.973      125.532       73.701    46644.492    15758.336     5431.840        9.496        3.392      348.199       74.944        0.046      337.287        9.158      862.039
01/31/2022  15:48:00      201.955      188.265      -23.921      104.628       71.570       55.016    10947.025     5122.254     3026.741        4.795        0.955      276.097       33.512        0.015      337.428        9.392      862.075
01/31/2022  15:49:00      288.299      176.203      -32.920      162.763      106.220       60.815    26491.850    11282.582     3698.489        7.835        2.074      337.881       38.913        0.013      337.398        9.341      862.054
01/31/2022  15:50:00      346.918      177.319      -39.229      149.834      120.446       78.013    22450.346    14507.132     6086.094        9.818        2.152      389.607       60.551        0.024      337.219        9.043      862.018
01/31/2022  15:51:00      190.385      209.106      -22.657      141.662      112.274       90.541    20068.105    12605.558     8197.694        6.067        2.044      282.793       82.918        0.086      337.266        9.123      862.032
01/31/2022  15:52:00      231.506      309.195      -45.352      130.450      122.068       81.031    17017.121    14900.502     6566.065        9.486        1.924      386.260       64.192        0.028      337.252        9.098      862.033
01/31/2022  15:53:00      205.061      214.483      -26.736      116.728      121.954       71.411    13625.327    14872.893     5099.593        6.118        1.680      296.737       65.011        0.048      337.234        9.068      862.034
01/31/2022  15:54:00      372.043      240.829      -43.511      143.543      107.950       79.884    20604.709    11653.169     6381.489       11.847        1.932      443.187       66.795        0.023      337.097        8.835      862.027
01/31/2022  15:55:00      292.128      254.506      -45.198      152.920      133.410       72.318    23384.406    17798.196     5229.937        9.928        2.321      387.443       63.725        0.027      337.094        8.833      862.034
01/31/2022  15:56:00      220.773      310.097      -42.211      108.221      125.718       60.942    11711.756    15804.962     3713.925        8.895        1.562      380.658       53.771        0.020      337.096        8.835      862.047
01/31/2022  15:57:00      253.191      317.205      -45.663      155.058      129.370       82.910    24042.886    16736.540     6874.104       10.722        2.383      405.862       68.443        0.028      337.050        8.759      862.048
01/31/2022  15:58:00      293.833      282.089      -38.532      162.273      128.533       79.851    26332.565    16520.763     6376.177       10.830        2.461      407.323       82.747        0.041      337.020        8.709      862.067
01/31/2022  15:59:00      158.388      329.048      -21.499      143.739      145.770       68.397    20660.914    21248.933     4678.151        9.020        2.329      365.184       56.847        0.024      337.040        8.743      862.072
01/31/2022  16:00:00      247.795      182.338      -29.546      157.108       88.860       67.127    24682.813     7896.039     4506.101        6.630        1.854      307.652       74.700        0.059      337.121        8.878      862.077
01/31/2022  16:01:00      343.822      253.470      -49.571      124.635       82.880       67.039    15533.886     6869.030     4494.241       10.590        1.345      427.154       38.950        0.008      337.024        8.715      862.073
01/31/2022  16:02:00      268.125      309.049      -56.938      123.838      145.276       70.978    15335.875    21105.233     5037.841       10.605        2.074      409.149       74.085        0.033      337.018        8.704      862.099
01/31/2022  16:03:00      320.029      248.663      -37.562      181.899      105.006       85.876    33087.375    11026.167     7374.608       10.857        2.574      405.280       67.127        0.027      337.001        8.676      862.092
01/31/2022  16:04:00      228.920      178.742      -24.307      148.206      158.161       77.523    21964.923    25014.941     6009.782        6.896        2.649      290.436       78.852        0.074      337.015        8.700      862.095
01/31/2022  16:05:00      212.189      376.219      -52.692      131.890      114.670       67.141    17394.973    13149.236     4507.960       11.219        1.753      431.932       67.738        0.025      336.971        8.627      862.113
01/31/2022  16:06:00      199.768      255.320      -36.092      135.245      107.426       69.538    18291.275    11540.427     4835.504        7.053        1.733      324.184       45.350        0.020      336.951        8.593      862.094
01/31/2022  16:07:00      305.660      167.184      -31.697      129.929       95.049       64.141    16881.631     9034.400     4114.040        7.620        1.502      348.394       49.413        0.020      336.877        8.472      862.085
01/31/2022  16:08:00      276.978      241.062      -37.220      193.775      118.089       77.609    37548.838    13944.985     6023.080        9.685        2.876      367.189       63.393        0.030      336.892        8.495      862.100
01/31/2022  16:09:00      302.585      168.086      -33.748      183.450      133.324       72.422    33653.780    17775.237     5244.910        8.880        2.834      346.136       74.780        0.047      336.843        8.414      862.098
01/31/2022  16:10:00      371.397      121.938      -22.132      198.235      119.176       79.016    39297.059    14202.817     6243.531       10.651        2.987      390.903       74.054        0.036      336.782        8.312      862.092
01/31/2022  16:11:00      209.662       99.903       -9.103      113.647       89.899       49.780    12915.621     8081.862     2477.999        3.874        1.174      232.247       42.809        0.034      336.859        8.441      862.107
01/31/2022  16:12:00      316.327       90.885      -23.373      162.775      115.294       73.776    26495.766    13292.801     5442.967        7.704        2.262      329.124       61.912        0.035      336.806        8.352      862.080
01/31/2022  16:13:00      286.240      128.450      -31.103      216.929      129.387       65.108    47058.228    16740.871     4239.111        8.371        3.402      313.740       24.748        0.006      336.783        8.313      862.087
01/31/2022  16:14:00      361.653       95.964      -37.744      163.972      126.366       68.541    26886.793    15968.338     4697.833        9.448        2.378      374.169       63.051        0.028      336.722        8.211      862.072
01/31/2022  16:15:00      239.236      136.409      -25.964      155.764      104.151       61.599    24262.480    10847.328     3794.491        5.770        1.945      275.393       72.014        0.068      336.768        8.286      862.104
01/31/2022  16:16:00      320.416      111.597      -26.916      157.304      133.365       81.185    24744.472    17786.114     6590.951        8.247        2.456      339.294       73.876        0.047      336.692        8.163      862.104
01/31/2022  16:17:00      293.993      180.250      -46.160      120.388      125.019       75.287    14493.335    15629.670     5668.111        7.842        1.790      344.851       61.411        0.032      336.653        8.098      862.141
01/31/2022  16:18:00      355.231      192.368      -41.263      125.989      110.296       70.156    15873.153    12165.254     4921.814        9.892        1.648      403.973       65.757        0.026      336.561        7.945      862.149
01/31/2022  16:19:00      332.560      209.120      -39.768      156.149       96.338       62.463    24382.532     9281.068     3901.604        9.673        1.878      392.845       42.551        0.012      336.549        7.922      862.161
01/31/2022  16:20:00      384.242      195.288      -41.972      162.147      105.198       61.151    26291.627    11066.703     3739.476       11.431        2.055      431.021       56.404        0.017      336.534        7.896      862.170
01/31/2022  16:21:00      269.891      139.324      -30.693      116.241      117.040       52.816    13511.873    13698.392     2789.480        6.159        1.500      303.731       42.377        0.019      336.556        7.936      862.198
01/31/2022  16:22:00      367.229      154.843      -32.992      169.606      101.077       69.470    28766.098    10216.623     4826.135       10.186        2.190      398.539       66.522        0.028      336.509        7.855      862.202
01/31/2022  16:23:00      236.199      189.853      -31.633      114.505       86.079       62.624    13111.388     7409.576     3921.745        5.863        1.222      303.042       60.148        0.039      336.541        7.911      862.221
01/31/2022  16:24:00      137.766      233.027      -39.267      100.741      110.507       55.942    10148.721    12211.874     3129.557        5.015        1.275      270.704       48.809        0.033      336.566        7.951      862.252
01/31/2022  16:25:00      238.910      126.342      -28.544      121.543       61.950       36.564    14772.583     3837.757     1336.911        4.690        0.997      270.260       34.354        0.016      336.587        7.988      862.259
01/31/2022  16:26:00      322.554       68.484      -21.467      122.541       90.096       67.027    15016.252     8117.203     4492.599        6.840        1.381      329.744       51.586        0.024      336.538        7.905      862.254
01/31/2022  16:27:00      336.184      107.327      -40.919      102.025       81.814       57.845    10409.026     6693.515     3345.995        7.333        1.022      352.900       31.999        0.008      336.515        7.865      862.260
01/31/2022  16:28:00      146.063       94.702      -19.049       94.940       70.186       48.961     9013.642     4926.094     2397.167        2.350        0.817      174.077       28.048        0.026      336.549        7.927      862.286
01/31/2022  16:29:00      175.522      109.875      -24.891       86.763       91.239       53.103     7527.807     8324.481     2819.967        3.108        0.934      207.076       46.939        0.051      336.563        7.949      862.299
01/31/2022  16:30:00      225.997      154.991      -20.682      123.061       66.234       58.715    15143.986     4386.930     3447.455        4.925        1.149      274.038       33.444        0.015      336.453        7.761      862.320
01/31/2022  16:31:00      200.583      137.199      -28.582      137.621       89.712       56.047    18939.546     8048.283     3141.264        4.500        1.506      243.017       51.423        0.045      336.459        7.771      862.303
01/31/2022  16:32:00      333.850       74.767      -45.779      133.767      154.570       64.643    17893.583    23891.839     4178.740        8.254        2.298      342.120       52.735        0.024      336.437        7.733      862.305
01/31/2022  16:33:00      266.770      238.077      -52.450      152.420      108.286       57.239    23231.708    11725.931     3276.262        8.441        1.912      357.557       43.115        0.015      336.403        7.675      862.304
01/31/2022  16:34:00      175.548      319.262      -40.571       84.761      142.192       57.506     7184.424    20218.531     3306.905        8.254        1.535      364.342       51.015        0.020      336.473        7.794      862.321
01/31/2022  16:35:00      208.512      152.038      -34.217       67.899       76.250       50.986     4610.226     5814.104     2599.528        4.039        0.651      258.056       36.983        0.021      336.497        7.834      862.323
01/31/2022  16:36:00      308.723      207.067      -43.780       96.394      148.845       66.323     9291.768    22154.771     4398.720        8.797        1.792      371.734       50.582        0.019      336.453        7.760      862.320
01/31/2022  16:37:00      192.361      177.499      -25.161       93.370      122.445       54.367     8717.955    14992.781     2955.779        4.790        1.333      261.741       47.526        0.033      336.439        7.739      862.343
01/31/2022  16:38:00      292.045      127.628      -32.658      131.476      103.259       65.621    17285.876    10662.432     4306.079        6.744        1.613      318.715       49.149        0.024      336.394        7.662      862.350
01/31/2022  16:39:00      269.055      102.909      -18.177      192.145      111.673       71.723    36919.685    12470.887     5144.210        6.891        2.727      288.064       74.338        0.067      336.352        7.592      862.353
01/31/2022  16:40:00      318.762      174.607      -26.021      103.221       63.628       46.871    10654.480     4048.477     2196.923        7.483        0.845      363.451       34.487        0.009      336.346        7.583      862.361
01/31/2022  16:41:00      305.191      125.228      -30.058      157.061      107.408       62.930    24668.057    11536.574     3960.206        7.494        2.008      329.884       46.463        0.020      336.311        7.524      862.356
01/31/2022  16:42:00      241.440      181.133      -25.331      122.745      101.886       65.920    15066.440    10380.822     4345.436        6.076        1.490      301.832       56.207        0.035      336.302        7.508      862.359
01/31/2022  16:43:00      157.176      116.176      -17.452       81.384       75.375       43.802     6623.384     5681.431     1918.633        2.636        0.711      195.451       41.912        0.046      336.323        7.545      862.366
01/31/2022  16:44:00      262.488      189.123      -37.168       94.802      114.418       65.735     8987.461    13091.417     4321.145        6.622        1.320      323.524       59.891        0.034      336.291        7.490      862.363
01/31/2022  16:45:00      226.645      199.040      -34.415      111.082       66.656       58.724    12339.145     4443.068     3448.480        5.620        1.012      301.637       37.825        0.016      336.278        7.469      862.364
01/31/2022  16:46:00      185.121      237.850      -34.438      133.965      107.551       68.107    17946.755    11567.296     4638.599        6.308        1.708      301.401       70.318        0.054      336.264        7.445      862.365
01/31/2022  16:47:00      186.854      169.053      -27.863      121.330       74.432       56.131    14721.033     5540.103     3150.702        4.384        1.171      251.979       54.678        0.047      336.256        7.433      862.370
01/31/2022  16:48:00      134.188      132.060      -18.153       96.126       88.633       48.733     9240.161     7855.822     2374.879        2.762        0.974      188.272       36.694        0.038      336.285        7.481      862.358
01/31/2022  16:49:00      177.394      229.107      -33.487       82.878      114.990       52.718     6868.806    13222.731     2779.217        5.397        1.144      289.756       60.050        0.043      336.245        7.414      862.353
01/31/2022  16:50:00      103.202      197.381      -19.631       88.259       88.278       48.498     7789.564     7792.926     2352.082        3.396        0.897      222.733       48.366        0.047      336.270        7.456      862.353
01/31/2022  16:51:00      108.851      174.084      -16.833       71.674       79.530       42.468     5137.157     6325.043     1803.530        2.785        0.663      205.314       36.305        0.031      336.278        7.468      862.359
01/31/2022  16:52:00      159.931      135.012      -18.783       80.578       67.827       44.104     6492.893     4600.502     1945.122        2.860        0.652      209.300       34.835        0.028      336.220        7.373      862.347
01/31/2022  16:53:00      196.281      173.607      -37.700      101.243       67.643       54.376    10250.196     4575.522     2956.777        4.393        0.889      262.041       39.407        0.023      336.166        7.282      862.333
01/31/2022  16:54:00      176.736      238.918      -42.135      127.875      103.552       69.353    16352.027    10723.014     4809.806        6.098        1.594      297.183       60.563        0.042      336.161        7.272      862.341
01/31/2022  16:55:00      160.563      203.101      -34.746       96.246       88.976       51.861     9263.363     7916.778     2689.541        4.405        0.993      258.902       46.338        0.032      336.169        7.286      862.346
01/31/2022  16:56:00      142.464      168.826      -23.239      106.696      102.196       59.936    11384.065    10444.046     3592.269        3.737        1.271      220.904       42.126        0.036      336.135        7.231      862.338
01/31/2022  16:57:00      113.499      177.904      -13.209       74.072       91.046       50.858     5486.672     8289.335     2586.531        3.053        0.818      211.026       52.500        0.062      336.139        7.237      862.345
01/31/2022  16:58:00      180.927      168.401      -38.411      106.734       87.705       52.554    11392.172     7692.237     2761.939        4.220        1.092      247.171       46.383        0.035      336.107        7.183      862.339
01/31/2022  16:59:00      143.178      178.055       -8.848      128.586      111.248       66.170    16534.237    12376.161     4378.503        4.278        1.664      228.481       68.830        0.091      336.103        7.177      862.345
01/31/2022  17:00:00      100.124      307.408      -34.105       82.922       69.814       49.433     6876.090     4873.985     2443.629        5.994        0.710      323.302       38.726        0.014      336.148        7.251      862.353
01/31/2022  17:01:00      167.608      291.313      -47.735      107.237      143.097       60.425    11499.712    20476.613     3651.210        7.542        1.781      336.089       70.651        0.044      336.092        7.157      862.350
01/31/2022  17:02:00      156.514      182.055      -26.433       87.403       86.076       54.880     7639.319     7409.160     3011.774        3.820        0.903      240.085       36.153        0.023      336.047        7.083      862.355
01/31/2022  17:03:00      174.073      235.302      -32.107       90.166      112.144       47.032     8129.836    12576.233     2212.020        5.480        1.146      292.692       47.091        0.026      336.009        7.018      862.362
01/31/2022  17:04:00      160.806      169.458      -31.252      152.745       80.716       60.850    23330.909     6514.992     3702.712        4.454        1.677      233.611       48.174        0.043      335.931        6.891      862.369
01/31/2022  17:05:00      148.885      232.045      -29.493       92.662      121.295       44.295     8586.319    14712.494     1962.086        5.107        1.263      275.702       48.992        0.032      335.882        6.809      862.370
01/31/2022  17:06:00      154.137      212.851      -33.490      111.328       91.207       57.834    12393.818     8318.701     3344.799        4.712        1.203      262.800       58.536        0.050      335.830        6.722      862.377
01/31/2022  17:07:00      142.202      184.302      -31.241       80.091       88.173       61.934     6414.492     7774.544     3835.820        3.659        0.901      232.785       54.861        0.056      335.796        6.665      862.379
01/31/2022  17:08:00       84.043      212.027      -22.180       93.334       94.295       50.995     8711.314     8891.605     2600.477        3.635        1.010      228.076       53.503        0.055      335.874        6.796      862.376
01/31/2022  17:09:00      201.072      127.305      -24.584       98.018       80.121       45.344     9607.548     6419.374     2056.063        3.766        0.904      237.984       39.032        0.027      335.784        6.646      862.367
01/31/2022  17:10:00      111.121      168.192      -16.935       72.485      102.533       44.785     5254.111    10512.927     2005.720        2.934        0.889      201.585       51.171        0.064      335.776        6.633      862.381
01/31/2022  17:11:00      127.338      138.044      -16.612       90.250       70.735       49.715     8145.088     5003.374     2471.627        2.558        0.781      187.806       49.300        0.069      335.775        6.631      862.390
01/31/2022  17:12:00       89.859      220.912      -28.978       73.767       76.226       38.868     5441.570     5810.363     1510.732        3.524        0.638      238.489       21.317        0.008      335.781        6.640      862.396
01/31/2022  17:13:00       56.868      184.673      -16.392       47.479       66.043       29.220     2254.269     4361.742      853.788        2.254        0.373      193.231       20.174        0.011      335.864        6.780      862.411
01/31/2022  17:14:00       90.935      126.918      -11.964       56.422       49.959       32.320     3183.404     2495.858     1044.610        1.562        0.336      156.132       34.364        0.048      335.837        6.736      862.429
01/31/2022  17:15:00       22.649      168.266      -19.061       47.443       60.224       31.325     2250.854     3626.967      981.269        1.802        0.343      169.783       26.580        0.025      335.845        6.750      862.447
01/31/2022  17:16:00       66.349       77.053       -6.661       78.169       36.313       28.617     6110.362     1318.669      818.946        0.931        0.412      101.682       18.428        0.033      335.896        6.836      862.461
01/31/2022  17:17:00      113.340      175.445      -19.007       71.504       84.818       41.289     5112.855     7194.115     1704.746        2.900        0.701      208.871       27.554        0.017      335.780        6.639      862.462
01/31/2022  17:18:00       27.752      124.353      -18.354       74.866      113.019       29.566     5604.905    12773.202      874.152        1.791        0.963      127.412       22.381        0.031      335.844        6.747      862.483
01/31/2022  17:19:00       66.330      232.783      -34.839       75.145       91.142       39.701     5646.710     8306.838     1576.161        3.766        0.776      242.049       29.026        0.014      335.803        6.676      862.488
01/31/2022  17:20:00       -5.419       50.624      -16.032       47.730       40.436       31.482     2278.160     1635.071      991.118        0.388        0.245       50.913       11.515        0.051      335.918        6.872      862.509
01/31/2022  17:21:00       50.730      110.493      -18.952       50.025       59.961       29.731     2502.524     3595.273      883.956        1.106        0.349      121.582       18.508        0.023      335.821        6.710      862.529
01/31/2022  17:22:00       97.056       89.404      -16.829       60.159       51.942       33.298     3619.062     2697.995     1108.748        1.256        0.371      131.958       29.255        0.049      335.752        6.593      862.540
01/31/2022  17:23:00       71.374      124.727      -22.047       52.984       62.735       34.840     2807.266     3935.713     1213.849        1.455        0.398      143.705       37.773        0.069      335.714        6.531      862.555
01/31/2022  17:24:00       47.426      189.555      -24.728       96.720       82.906       53.835     9354.789     6873.334     2898.253        2.896        0.956      195.398       24.739        0.016      335.726        6.548      862.556
01/31/2022  17:25:00       55.908       32.359      -17.842       85.776       50.269       36.694     7357.477     2526.992     1346.468        0.786        0.562       64.597       34.837        0.291      335.662        6.444      862.571
01/31/2022  17:26:00       68.155      136.790      -22.841       53.893       92.010       25.575     2904.418     8465.780      654.072        1.795        0.601      152.829       26.105        0.029      335.660        6.440      862.585
01/31/2022  17:27:00       71.420      164.367      -27.862       69.049       49.983       28.245     4767.827     2498.263      797.760        2.048        0.403      179.213       27.120        0.023      335.637        6.402      862.594
01/31/2022  17:28:00       37.839      115.290      -13.940       54.684       43.712       23.387     2990.346     1910.732      546.931        1.018        0.272      121.341       20.226        0.028      335.671        6.460      862.601
01/31/2022  17:29:00       87.947       73.492      -19.260       45.486       39.229       27.483     2069.013     1538.905      755.338        0.893        0.218      114.611       25.611        0.050      335.591        6.326      862.591
01/31/2022  17:30:00       72.908       19.802      -31.158       43.548       56.842       30.381     1896.451     3231.007      923.034        0.636        0.303       75.549       17.304        0.052      335.527        6.220      862.591
01/31/2022  17:31:00       64.263       45.440      -12.828       52.641       59.701       35.580     2771.037     3564.192     1265.905        0.698        0.380       78.706       23.473        0.089      335.457        6.104      862.595
01/31/2022  17:32:00       61.872       61.814       -7.382       37.344       53.155       21.372     1394.609     2825.428      456.750        0.619        0.234       87.460       17.124        0.038      335.463        6.113      862.602
01/31/2022  17:33:00       16.951        7.843       -5.388       25.146       19.204       12.508      632.296      368.785      156.457        0.077        0.058       18.678        8.050        0.186      335.368        5.956      862.602
01/31/2022  17:34:00       25.781       46.039       -0.624       34.374       36.908       26.857     1181.555     1362.175      721.313        0.302        0.163       52.766       20.322        0.148      335.469        6.123      862.613
01/31/2022  17:35:00       82.420       74.366      -19.044       45.056       49.665       26.459     2030.072     2466.642      700.096        0.894        0.260      111.011       28.049        0.064      335.412        6.029      862.616
01/31/2022  17:36:00       53.593        7.898      -10.403       34.642       24.931       24.815     1200.089      621.570      615.760        0.274        0.122       54.172       21.477        0.157      335.340        5.907      862.618
01/31/2022  17:37:00       65.446       36.141       -3.478       50.922       31.491       22.428     2593.045      991.714      503.038        0.484        0.204       74.762       22.567        0.091      335.286        5.818      862.636
01/31/2022  17:38:00       51.094       16.859      -11.843       24.399       36.339       20.228      595.332     1320.547      409.177        0.268        0.116       53.803       16.618        0.095      335.350        5.926      862.640
01/31/2022  17:39:00       20.458       29.048       -2.666       28.579       20.054       20.431      816.782      402.146      417.427        0.145        0.082       35.529       16.262        0.209      335.380        5.974      862.654
01/31/2022  17:40:00       55.453      109.654      -14.132       33.709       46.628       22.875     1136.314     2174.199      523.266        0.957        0.192      122.878       14.459        0.014      335.413        6.029      862.658
01/31/2022  17:41:00       26.945       41.470      -10.264       20.486       33.200       16.477      419.684     1102.270      271.505        0.217        0.090       49.455       18.456        0.139      335.339        5.908      862.658
01/31/2022  17:42:00       62.818       37.295      -24.023       54.545       58.431       30.711     2975.208     3414.162      943.170        0.662        0.367       73.055       21.324        0.085      335.339        5.907      862.643
01/31/2022  17:43:00       75.010       62.721       -8.833       55.493       35.258       21.562     3079.492     1243.137      464.925        0.721        0.239       97.777       19.946        0.042      335.284        5.814      862.654
01/31/2022  17:44:00      117.328       65.283      -11.290       39.600       42.374       24.944     1568.126     1795.594      622.219        1.107        0.199      134.267       27.648        0.042      335.291        5.827      862.653
01/31/2022  17:45:00       62.278       12.595       -9.701       66.529       43.057       30.443     4426.170     1853.941      926.806        0.567        0.360       63.539       31.316        0.243      335.403        6.013      862.648
01/31/2022  17:46:00       69.119       44.362      -10.252       59.260       34.607       34.882     3511.727     1197.661     1216.786        0.639        0.296       82.130       23.909        0.085      335.276        5.801      862.652
01/31/2022  17:47:00       65.816       24.001      -16.131       60.577       43.097       38.636     3669.632     1857.316     1492.716        0.609        0.351       70.056       35.709        0.260      335.258        5.771      862.638
01/31/2022  17:48:00       43.922       89.822      -17.818       46.182       29.832       31.777     2132.803      889.959     1009.755        0.717        0.202       99.986       21.163        0.045      335.222        5.710      862.649
01/31/2022  17:49:00       57.758      169.020      -22.131       43.039       60.713       35.342     1852.326     3686.123     1249.041        1.959        0.339      178.616       27.580        0.024      335.252        5.759      862.655
01/31/2022  17:50:00       87.033       57.511       -8.100       47.124       33.330       23.235     2220.638     1110.898      539.872        0.741        0.194      104.318       18.318        0.031      335.153        5.598      862.638
01/31/2022  17:51:00       43.137       50.695      -12.492       38.673       30.382       22.334     1495.588      923.052      498.812        0.375        0.146       66.564       12.019        0.033      335.160        5.609      862.644
01/31/2022  17:52:00       30.555      123.034      -19.442       36.616       38.455       19.933     1340.757     1478.749      397.323        0.983        0.161      126.772       12.149        0.009      335.218        5.707      862.652
01/31/2022  17:53:00       43.273      122.491      -19.152       35.967       66.128       24.379     1293.633     4372.933      594.325        1.175        0.313      129.910       23.797        0.034      335.180        5.642      862.668
01/31/2022  17:54:00       43.793       96.816      -12.996       44.908       54.735       30.913     2016.733     2995.942      955.628        0.871        0.298      106.260       25.947        0.060      335.141        5.579      862.663
01/31/2022  17:55:00       73.916      131.692      -21.035       35.192       51.949       26.921     1238.490     2698.741      724.738        1.395        0.233      151.018       20.785        0.019      335.177        5.637      862.676
01/31/2022  17:56:00       37.479       87.595      -14.787       83.539       65.796       28.597     6978.734     4329.163      817.797        1.071        0.606       95.276       17.234        0.033      335.155        5.602      862.682
01/31/2022  17:57:00      110.061       49.328      -15.631       65.966       36.968       28.208     4351.484     1366.629      795.681        1.065        0.326      120.610       26.605        0.049      335.169        5.623      862.691
01/31/2022  17:58:00       88.192       55.729      -17.566       40.980       23.498       19.696     1679.359      552.168      387.939        0.691        0.131      104.324        8.868        0.007      335.110        5.526      862.699
01/31/2022  17:59:00      106.711       51.508      -11.925       39.600       33.476       24.415     1568.130     1120.614      596.106        0.873        0.164      118.492       17.141        0.021      335.038        5.406      862.721
01/31/2022  18:00:00       77.627      141.626      -19.141       69.909       87.645       31.471     4887.201     7681.669      990.442        2.000        0.678      161.505       20.685        0.016      335.096        5.502      862.721
01/31/2022  18:01:00        8.806      104.831       -8.926       81.884       81.661       30.877     6705.050     6668.594      953.389        1.273        0.716      105.200       13.161        0.016      335.179        5.639      862.728
01/31/2022  18:02:00       -1.499       36.355       -7.451       74.736       33.169       26.799     5585.497     1100.183      718.207        0.439        0.370       36.386       12.702        0.122      335.200        5.677      862.731
01/31/2022  18:03:00       29.992       29.413      -12.724       24.119       26.408       23.086      581.709      697.389      532.941        0.187        0.091       42.008       16.697        0.158      335.079        5.477      862.735
01/31/2022  18:04:00       43.166       55.859      -10.765       53.064       32.763       22.211     2815.767     1073.391      493.317        0.474        0.219       70.594        7.568        0.011      335.073        5.465      862.748
01/31/2022  18:05:00       77.510       54.002      -13.919       34.627       29.051       21.933     1198.997      843.978      481.043        0.582        0.126       94.467       15.801        0.028      334.977        5.305      862.753
01/31/2022  18:06:00       48.064       48.765      -15.163       33.091       48.319       19.599     1095.046     2334.729      384.125        0.437        0.191       68.470       12.451        0.033      335.031        5.396      862.764
01/31/2022  18:07:00       52.002       97.802      -14.744       38.833       46.809       25.256     1508.011     2191.052      637.850        0.841        0.217      110.768       17.118        0.024      335.128        5.558      862.776
01/31/2022  18:08:00       66.307        9.269      -10.020       31.756       32.737       25.763     1008.430     1071.708      663.755        0.366        0.137       66.951       10.825        0.026      334.977        5.306      862.777
01/31/2022  18:09:00       84.437       58.758      -12.994       52.747       28.167       23.873     2782.281      793.404      569.920        0.745        0.207      102.870       23.289        0.051      334.893        5.166      862.783
01/31/2022  18:10:00       57.893      105.568      -20.515       36.079       70.575       24.380     1301.702     4980.876      594.364        1.090        0.344      120.400       15.471        0.017      334.993        5.333      862.798
01/31/2022  18:11:00       75.584       61.971      -10.022       48.157       53.613       26.878     2319.094     2874.394      722.453        0.778        0.296       97.741       23.636        0.058      334.928        5.226      862.792
01/31/2022  18:12:00       59.469      102.424      -21.024       53.149       62.031       35.912     2824.818     3847.785     1289.703        1.121        0.398      118.437       23.632        0.040      335.010        5.360      862.798
01/31/2022  18:13:00       80.254       77.113      -17.129       50.782       29.082       25.969     2578.815      845.766      674.396        0.839        0.205      111.297       12.535        0.013      334.985        5.319      862.813
01/31/2022  18:14:00       37.626      135.516       -9.413       44.060       67.753       34.620     1941.275     4590.501     1198.562        1.380        0.387      140.642       29.813        0.045      335.083        5.482      862.829
01/31/2022  18:15:00       83.701       93.844      -17.349       56.883       53.192       35.686     3235.623     2829.342     1273.488        1.172        0.367      125.748       27.398        0.047      334.972        5.297      862.828
01/31/2022  18:16:00       86.080       67.083      -19.586       52.962       41.896       26.921     2804.939     1755.278      724.720        0.879        0.264      109.133       20.615        0.036      334.908        5.193      862.812
01/31/2022  18:17:00       70.602       63.487      -12.893       43.387       33.445       23.054     1882.409     1118.566      531.509        0.636        0.177       94.949       19.878        0.044      334.923        5.217      862.804
01/31/2022  18:18:00       67.133      153.426      -18.024       50.171       54.341       28.114     2517.108     2952.927      790.416        1.731        0.313      167.471       29.097        0.030      334.984        5.317      862.802
01/31/2022  18:19:00       24.802       79.066       -5.408       35.608       46.413       29.060     1267.964     2154.178      844.457        0.558        0.213       82.865       21.233        0.066      334.947        5.254      862.803
01/31/2022  18:20:00       37.905       87.817      -14.325       67.346       54.276       24.063     4535.466     2945.913      579.017        0.871        0.403       95.648       21.732        0.052      335.006        5.355      862.797
01/31/2022  18:21:00       47.052      121.242      -17.781       29.702       37.888       21.830      882.217     1435.507      476.527        1.001        0.140      130.052       11.295        0.008      335.016        5.371      862.787
01/31/2022  18:22:00       78.846      140.744      -20.965       43.504       51.464       26.394     1892.614     2648.499      696.644        1.585        0.262      161.324       27.559        0.029      335.006        5.354      862.788
01/31/2022  18:23:00       14.769      113.361      -10.539       44.451       49.590       30.465     1975.918     2459.174      928.138        0.927        0.268      114.319       29.009        0.064      335.077        5.472      862.784
01/31/2022  18:24:00        2.222      135.710       -9.284       38.921       53.428       35.017     1514.839     2854.546     1226.167        1.205        0.280      135.728       30.121        0.049      335.090        5.494      862.770
01/31/2022  18:25:00       40.903      159.572      -24.951       34.434       28.920       20.126     1185.697      836.395      405.048        1.509        0.121      164.731        7.014        0.002      335.055        5.436      862.742
01/31/2022  18:26:00       26.902       94.657      -13.700       52.685       43.371       21.313     2775.659     1881.065      454.247        0.749        0.256       98.406       11.519        0.014      335.047        5.423      862.734
01/31/2022  18:27:00       55.188       42.944      -10.975       43.651       32.146       24.095     1905.391     1033.337      580.588        0.426        0.176       69.928       19.985        0.082      334.906        5.192      862.720
01/31/2022  18:28:00       67.035       36.421       -2.201       68.647       39.689       30.134     4712.373     1575.188      908.043        0.651        0.360       76.290       23.922        0.098      334.863        5.118      862.703
01/31/2022  18:29:00       50.540      113.677       -5.876       45.803       72.376       37.115     2097.950     5238.345     1377.531        1.211        0.436      124.406       40.243        0.105      334.911        5.196      862.700
01/31/2022  18:30:00        8.688      115.952       -5.796       54.906       68.728       32.648     3014.694     4723.475     1065.884        1.118        0.440      116.277       31.106        0.072      334.985        5.318      862.700
01/31/2022  18:31:00       41.636      126.894      -18.915       76.018       48.474       34.240     5778.792     2349.697     1172.377        1.375        0.465      133.550       19.186        0.021      334.965        5.286      862.691
01/31/2022  18:32:00       12.399       77.717       -8.403       43.030       73.619       29.565     1851.578     5419.759      874.117        0.720        0.407       78.700        9.955        0.016      334.933        5.233      862.694
01/31/2022  18:33:00       27.410      114.086      -18.525       31.561       35.384       21.396      996.079     1251.998      457.779        0.841        0.135      117.333       17.542        0.022      334.985        5.318      862.706
01/31/2022  18:34:00       47.825      109.452      -18.559       41.189       68.614       30.867     1696.510     4707.846      952.798        1.098        0.368      119.445       24.045        0.041      334.900        5.178      862.712
01/31/2022  18:35:00       86.209      107.772      -20.060       47.757       53.735       26.098     2280.769     2887.397      681.094        1.265        0.292      138.010       21.812        0.025      334.873        5.133      862.722
01/31/2022  18:36:00       91.963      153.192      -21.201       44.818       54.402       34.987     2008.689     2959.549     1224.110        1.928        0.310      178.676       32.462        0.033      334.861        5.112      862.723
01/31/2022  18:37:00       81.049      102.523      -10.209       51.517       48.949       33.411     2654.051     2396.010     1116.277        1.167        0.308      130.690       20.178        0.024      334.810        5.028      862.745
01/31/2022  18:38:00      106.304      101.144      -16.186       56.717       50.886       37.435     3216.861     2589.390     1401.363        1.450        0.360      146.733       28.778        0.038      334.753        4.934      862.753
01/31/2022  18:39:00      125.718       95.943      -16.927       63.091       47.105       33.576     3980.509     2218.887     1127.348        1.631        0.366      158.146       29.395        0.035      334.742        4.915      862.761
01/31/2022  18:40:00      140.883      136.543      -22.293       82.230       71.086       37.317     6761.706     5053.239     1392.550        2.610        0.660      196.194       35.998        0.034      334.732        4.896      862.774
01/31/2022  18:41:00      140.193      135.145      -21.739       63.129       57.088       43.530     3985.286     3259.085     1894.852        2.376        0.457      194.726       35.336        0.033      334.737        4.905      862.780
01/31/2022  18:42:00       81.767       72.269      -11.049       45.261       40.818       33.616     2048.591     1666.136     1130.055        0.844        0.242      109.127       24.754        0.051      334.692        4.831      862.792
01/31/2022  18:43:00       54.876      124.101      -13.435       43.738       59.326       33.086     1912.987     3519.599     1094.683        1.256        0.326      135.692       27.383        0.041      334.746        4.921      862.809
01/31/2022  18:44:00       98.020      152.593      -32.722       51.574       69.056       26.648     2659.845     4768.703      710.096        2.105        0.407      181.363       26.905        0.022      334.794        5.001      862.821
01/31/2022  18:45:00       70.278      160.318      -20.737       47.285       53.438       28.841     2235.849     2855.663      831.793        1.850        0.296      175.045       23.565        0.018      334.817        5.038      862.839
01/31/2022  18:46:00       38.368       94.250      -11.457       39.679       31.621       22.361     1574.412      999.885      500.013        0.678        0.154      101.760       11.847        0.014      334.777        4.975      862.856
01/31/2022  18:47:00       39.253      138.760      -17.252       46.360       50.310       25.087     2149.241     2531.101      629.346        1.320        0.265      144.205       23.099        0.026      334.808        5.024      862.866
01/31/2022  18:48:00        8.232      146.040      -14.662       44.458       36.517       23.881     1976.511     1333.510      570.319        1.274        0.194      146.272       22.462        0.024      334.770        4.962      862.843
01/31/2022  18:49:00       57.386       98.762       -5.885       38.018       47.357       29.263     1445.352     2242.680      856.332        0.881        0.227      114.224       28.131        0.061      334.672        4.798      862.806
01/31/2022  18:50:00       51.287       92.166      -13.125       45.507       39.675       28.199     2070.873     1574.135      795.182        0.787        0.222      105.475       26.239        0.062      334.664        4.786      862.785
01/31/2022  18:51:00       76.523      155.764      -15.414       44.865       65.037       32.849     2012.838     4229.749     1079.068        1.884        0.366      173.546       28.259        0.027      334.697        4.838      862.772
01/31/2022  18:52:00       51.967      153.439      -14.059       48.514       42.634       24.004     2353.656     1817.679      576.200        1.559        0.237      162.000       26.892        0.028      334.690        4.828      862.786
01/31/2022  18:53:00       18.613      155.662      -16.984       61.857       51.472       32.533     3826.288     2649.323     1058.424        1.620        0.377      156.771       25.581        0.027      334.781        4.979      862.799
01/31/2022  18:54:00       15.692      213.135      -27.104       58.545       39.810       25.798     3427.498     1584.853      665.545        2.604        0.284      213.712        4.461        0.000      334.695        4.835      862.820
01/31/2022  18:55:00       -3.313      122.157      -10.969       46.243       48.304       26.794     2138.455     2333.316      717.924        1.012        0.259      122.202       14.167        0.013      334.762        4.948      862.842
01/31/2022  18:56:00       -8.395       64.673      -14.675       85.020       72.032       39.693     7228.415     5188.663     1575.547        0.923        0.700       65.216       27.750        0.181      334.808        5.026      862.827
01/31/2022  18:57:00        0.442       64.155       -9.218       64.076       60.590       37.360     4105.764     3671.173     1395.755        0.669        0.459       64.157       31.625        0.243      334.703        4.849      862.829
01/31/2022  18:58:00       32.286      170.142      -16.927       58.986       63.607       37.360     3479.297     4045.905     1395.771        1.960        0.446      173.179       26.415        0.023      334.589        4.659      862.816
01/31/2022  18:59:00      -28.906      194.014      -16.840       51.137       59.532       33.516     2615.028     3544.114     1123.347        2.302        0.364      196.156       22.593        0.013      334.642        4.747      862.801
01/31/2022  19:00:00      -17.585      117.584      -17.066       66.552       58.532       42.200     4429.162     3425.968     1780.823        1.203        0.482      118.892       22.634        0.036      334.707        4.855      862.795
01/31/2022  19:01:00       60.706      155.534      -20.953       55.942       75.484       29.469     3129.506     5697.815      868.427        1.900        0.485      166.961       26.263        0.025      334.549        4.592      862.789
01/31/2022  19:02:00       54.385      113.992      -14.897       48.076       45.751       32.043     2311.347     2093.134     1026.726        1.080        0.272      126.301       24.412        0.037      334.461        4.447      862.790
01/31/2022  19:03:00       72.944      126.843       -6.001       43.761       56.970       34.572     1915.015     3245.551     1195.202        1.390        0.318      146.322       21.171        0.021      334.429        4.395      862.785
01/31/2022  19:04:00       43.888      159.484      -11.597       53.402       54.412       26.256     2851.809     2960.708      689.396        1.700        0.325      165.413       24.770        0.022      334.486        4.490      862.769
01/31/2022  19:05:00       86.052      109.083      -20.167       40.999       64.208       33.995     1680.951     4122.663     1155.645        1.333        0.348      138.939       31.068        0.050      334.387        4.325      862.755
01/31/2022  19:06:00      108.167      136.006      -20.691       55.930       60.900       42.050     3128.131     3708.835     1768.167        1.961        0.430      173.775       33.709        0.038      334.390        4.330      862.746
01/31/2022  19:07:00       89.277       64.272       -2.372       76.196       49.649       35.930     5805.764     2465.047     1290.972        1.083        0.478      110.005       32.688        0.088      334.310        4.196      862.758
01/31/2022  19:08:00       66.297       67.083      -11.937       58.619       56.530       26.083     3436.137     3195.585      680.347        0.817        0.366       94.315       23.291        0.061      334.279        4.146      862.773
01/31/2022  19:09:00       81.006       92.805      -13.075       54.658       43.699       28.626     2987.467     1909.564      819.427        1.053        0.286      123.185       20.979        0.029      334.228        4.061      862.796
01/31/2022  19:10:00       91.988      102.528      -24.122       56.858       69.175       31.218     3232.862     4785.241      974.582        1.427        0.450      137.746       22.045        0.026      334.276        4.141      862.814
01/31/2022  19:11:00       75.683       76.630       -9.247       42.839       35.526       22.029     1835.216     1262.081      485.269        0.763        0.179      107.704       20.271        0.035      334.195        4.007      862.823
01/31/2022  19:12:00       50.964       86.378       -9.304       39.424       45.202       24.854     1554.219     2043.221      617.743        0.718        0.211      100.292       26.320        0.069      334.258        4.110      862.828
01/31/2022  19:13:00       32.674      128.377      -15.368       47.384       64.852       32.836     2245.266     4205.841     1078.182        1.266        0.376      132.470       24.183        0.033      334.253        4.101      862.824
01/31/2022  19:14:00       25.325      182.013      -28.291       56.819       36.494       24.970     3228.405     1331.810      623.515        1.988        0.259      183.766       18.535        0.010      334.371        4.297      862.827
01/31/2022  19:15:00      -39.270      160.050      -26.587       57.422       54.960       37.522     3297.313     3020.651     1407.910        1.779        0.386      164.797       32.794        0.040      334.408        4.359      862.826
01/31/2022  19:16:00        5.881      196.568      -22.476       55.767       41.343       29.683     3109.989     1709.213      881.069        2.244        0.285      196.656       22.321        0.013      334.431        4.396      862.837
01/31/2022  19:17:00      -34.200      107.165      -17.529       69.756       74.555       37.688     4865.831     5558.469     1420.407        1.240        0.592      112.490       31.686        0.079      334.457        4.440      862.843
01/31/2022  19:18:00       -2.653      183.820      -12.506       50.927       99.741       43.495     2593.524     9948.261     1891.845        2.419        0.722      183.839       40.696        0.049      334.452        4.431      862.846
01/31/2022  19:19:00      -53.095      151.377      -13.832       56.970       83.898       33.654     3245.632     7038.842     1132.616        1.867        0.571      160.419       36.522        0.052      334.454        4.435      862.849
01/31/2022  19:20:00      -64.987      216.349      -14.214       89.488       63.985       43.206     8008.076     4094.057     1866.783        3.260        0.698      225.899       32.129        0.020      334.458        4.441      862.840
01/31/2022  19:21:00      -35.270      211.493      -31.550       72.411       68.558       33.653     5243.317     4700.202     1132.537        2.902        0.554      214.413       21.021        0.010      334.413        4.366      862.831
01/31/2022  19:22:00      -37.972      238.922      -14.757       62.628       86.660       40.888     3922.249     7510.002     1671.799        3.592        0.655      241.921       37.184        0.024      334.387        4.323      862.818
01/31/2022  19:23:00      -46.430      184.075      -17.011       54.844       56.974       34.125     3007.810     3246.044     1164.514        2.187        0.371      189.840       21.800        0.013      334.392        4.334      862.797
01/31/2022  19:24:00     -116.074      225.407      -32.084       76.624       80.478       43.576     5871.193     6476.725     1898.890        3.978        0.712      253.537       25.997        0.011      334.365        4.285      862.789
01/31/2022  19:25:00      -72.650      185.888      -18.709       63.992       98.026       39.759     4094.944     9609.065     1580.776        2.773        0.764      199.580       29.369        0.022      334.391        4.330      862.767
01/31/2022  19:26:00     -120.498      188.492      -32.288       83.374       80.483       55.373     6951.234     6477.590     3066.171        3.379        0.825      223.717       42.008        0.035      334.370        4.295      862.753
01/31/2022  19:27:00      -42.854      227.345      -29.404       77.786       88.102       45.656     6050.721     7761.905     2084.503        3.514        0.795      231.348       40.493        0.031      334.313        4.199      862.752
01/31/2022  19:28:00     -122.309      243.051      -34.738      128.567      100.089       65.299    16529.598    10017.809     4263.909        5.302        1.541      272.090       56.808        0.044      334.272        4.131      862.746
01/31/2022  19:29:00      -82.711      262.472      -23.007       89.894       92.317       50.340     8080.927     8522.472     2534.163        4.770        0.957      275.195       41.465        0.023      334.299        4.174      862.762
01/31/2022  19:30:00      -47.540      239.762      -25.904       66.608       64.236       40.116     4436.668     4126.246     1609.259        3.529        0.509      244.430       13.169        0.003      334.283        4.150      862.789
01/31/2022  19:31:00      -74.809      233.718      -26.100       78.435       65.150       54.432     6152.067     4244.576     2962.880        3.713        0.668      245.398       39.335        0.026      334.262        4.113      862.815
01/31/2022  19:32:00      -99.904      255.357      -27.077      109.752       81.883       54.125    12045.583     6704.824     2929.462        4.880        1.084      274.204       36.454        0.018      334.247        4.089      862.838
01/31/2022  19:33:00      -40.757      290.793      -25.664       72.758      106.874       51.465     5293.732    11421.996     2648.603        5.312        0.968      293.635       35.903        0.015      334.211        4.030      862.848
01/31/2022  19:34:00      -18.442      203.756      -19.574       80.202       71.532       49.985     6432.355     5116.893     2498.457        2.814        0.702      204.589       43.626        0.045      334.208        4.025      862.859
01/31/2022  19:35:00      -17.980      182.750      -16.737       56.709       62.140       35.778     3215.949     3861.379     1280.033        2.118        0.418      183.632       19.401        0.011      334.213        4.034      862.866
01/31/2022  19:36:00      -18.972      161.813      -16.534       64.657       69.819       43.721     4180.468     4874.744     1911.550        1.889        0.548      162.921       29.412        0.033      334.162        3.950      862.883
01/31/2022  19:37:00      -26.951      237.817      -22.496       73.632       73.495       47.577     5421.687     5401.505     2263.593        3.544        0.654      239.339       40.268        0.028      334.219        4.042      862.905
01/31/2022  19:38:00        5.494      228.633      -22.753       73.132       77.765       47.816     5348.245     6047.367     2286.383        3.325        0.684      228.698       36.040        0.025      334.170        3.961      862.917
01/31/2022  19:39:00      -14.739      244.710      -22.383       72.204       85.474       35.169     5213.352     7305.740     1236.866        3.718        0.688      245.153       29.605        0.015      334.184        3.985      862.936
01/31/2022  19:40:00       22.050      211.567      -19.617       81.977      117.485       52.780     6720.291    13802.727     2785.717        3.447        1.165      212.712       56.548        0.071      334.149        3.929      862.955
01/31/2022  19:41:00       19.334      254.299      -22.614       87.652       79.699       47.004     7682.941     6351.868     2209.330        4.090        0.812      255.033       42.806        0.028      334.150        3.928      862.964
01/31/2022  19:42:00      -29.278      238.907      -27.571       77.178       86.015       44.838     5956.500     7398.515     2010.436        3.703        0.768      240.694       36.966        0.024      334.173        3.965      862.973
01/31/2022  19:43:00      -51.908      211.913      -17.467       75.445       71.264       44.319     5691.948     5078.557     1964.130        3.032        0.637      218.178       37.508        0.030      334.179        3.977      862.975
01/31/2022  19:44:00      -29.373      198.943      -25.842       85.072       58.594       48.456     7237.224     3433.293     2347.999        2.706        0.651      201.100       29.208        0.021      334.134        3.903      862.983
01/31/2022  19:45:00      -57.531      232.159      -32.484       51.322       80.641       39.106     2633.969     6503.038     1529.302        3.446        0.533      239.181       13.332        0.003      334.160        3.945      862.981
01/31/2022  19:46:00      -36.310      215.343      -12.687       74.914       71.362       46.854     5612.099     5092.551     2195.310        3.037        0.645      218.383       35.437        0.026      334.139        3.909      862.986
01/31/2022  19:47:00     -112.694      256.424      -33.451      101.511       96.966       50.880    10304.562     9402.443     2588.804        5.093        1.115      280.095       33.231        0.014      334.120        3.876      862.977
01/31/2022  19:48:00      -63.499      261.192      -21.556       54.175       65.771       37.907     2934.974     4325.881     1436.966        4.071        0.435      268.800       22.850        0.007      334.099        3.843      862.962
01/31/2022  19:49:00      -82.632      198.530      -32.422       61.358       74.323       46.909     3764.846     5523.902     2200.463        2.939        0.574      215.041       29.027        0.018      334.144        3.918      862.949
01/31/2022  19:50:00      -36.116      287.016      -38.443       90.716       90.670       55.902     8229.371     8221.043     3125.039        5.236        0.979      289.280       32.859        0.013      334.044        3.752      862.939
01/31/2022  19:51:00      -40.996      170.376      -11.001       67.108       73.213       44.105     4503.520     5360.092     1945.261        2.132        0.590      175.239       16.557        0.009      334.070        3.798      862.929
01/31/2022  19:52:00      -93.239      285.717      -28.857      110.091      123.744       52.180    12120.021    15312.462     2722.794        6.065        1.508      300.546       34.314        0.013      334.026        3.723      862.929
01/31/2022  19:53:00      -42.409      283.566      -28.185       79.273       85.207       42.919     6284.138     7260.244     1842.069        4.919        0.769      286.720       33.223        0.013      334.002        3.683      862.918
01/31/2022  19:54:00      -28.170      227.116      -25.774      106.192       84.767       37.810    11276.678     7185.462     1429.608        3.646        0.995      228.856       31.129        0.019      334.032        3.734      862.913
01/31/2022  19:55:00      -26.542      257.732      -22.377       64.771       84.887       38.004     4195.251     7205.772     1444.327        4.024        0.642      259.095       37.457        0.021      333.993        3.668      862.918
01/31/2022  19:56:00      -20.614      198.706      -23.931       89.190       82.535       51.482     7954.914     6811.955     2650.434        2.895        0.871      199.772       30.046        0.023      333.975        3.639      862.917
01/31/2022  19:57:00      -26.284      218.013      -23.435       67.780       78.406       35.463     4594.064     6147.457     1257.604        3.038        0.600      219.592       23.893        0.012      333.940        3.582      862.921
01/31/2022  19:58:00      -36.612      190.290      -23.943       74.799       71.732       39.922     5594.961     5145.477     1593.756        2.523        0.617      193.780       26.179        0.018      333.949        3.599      862.927
01/31/2022  19:59:00      -33.599      184.765      -19.578       52.038       77.446       31.052     2707.946     5997.865      964.198        2.266        0.484      187.795       32.040        0.029      333.984        3.656      862.931
01/31/2022  20:00:00      -21.469      115.693       -5.571       56.992       50.752       31.441     3248.057     2575.769      988.508        1.034        0.341      117.669       24.894        0.045      333.906        3.529      862.936
01/31/2022  20:01:00      -36.499      172.373      -16.094       62.497       65.793       35.380     3905.888     4328.706     1251.775        2.039        0.474      176.195       22.607        0.016      333.903        3.523      862.935
01/31/2022  20:02:00      -44.793      174.719      -16.075       61.054       83.298       56.386     3727.603     6938.521     3179.355        2.332        0.692      180.370       49.800        0.076      333.890        3.499      862.948
01/31/2022  20:03:00      -46.816      228.322      -23.473       70.142       95.686       48.550     4919.846     9155.742     2357.135        3.565        0.822      233.073       38.316        0.027      333.906        3.526      862.956
01/31/2022  20:04:00      -10.382      202.336      -22.289       82.198       77.461       37.302     6756.473     6000.176     1391.408        2.784        0.707      202.602       24.080        0.014      333.859        3.448      862.960
01/31/2022  20:05:00      -12.691      194.581      -18.551       77.908       99.381       41.720     6069.591     9876.609     1740.585        2.802        0.884      194.995       29.117        0.022      333.873        3.473      862.962
01/31/2022  20:06:00      -37.159       84.990       -6.559       67.447       69.537       34.838     4549.055     4835.411     1213.690        0.962        0.530       92.758       27.737        0.089      333.818        3.383      862.974
01/31/2022  20:07:00      -11.021      194.915      -23.105       57.391      105.988       44.122     3293.719    11233.395     1946.765        2.756        0.824      195.227       47.895        0.060      333.802        3.352      862.994
01/31/2022  20:08:00       11.643      175.900      -21.606       73.291       68.426       37.207     5371.559     4682.049     1384.331        2.149        0.572      176.285       25.154        0.020      333.813        3.372      863.022
01/31/2022  20:09:00      -21.806      285.287      -20.383       90.944       89.183       50.949     8270.858     7953.637     2595.821        5.055        0.941      286.119       39.028        0.019      333.783        3.320      863.055
01/31/2022  20:10:00      -13.561      258.937      -22.479       72.947       79.598       56.015     5321.197     6335.870     3137.628        4.126        0.740      259.291       39.962        0.024      333.757        3.278      863.086
01/31/2022  20:11:00        0.660      232.937       -7.093       97.512      112.212       62.520     9508.499    12591.547     3908.760        4.015        1.300      232.938       50.647        0.047      333.728        3.230      863.118
01/31/2022  20:12:00       -1.395      216.107      -25.701       64.678       80.566       45.550     4183.194     6490.929     2074.799        3.005        0.637      216.111       38.187        0.031      333.735        3.241      863.139
01/31/2022  20:13:00        6.239      236.283      -23.236       84.822      104.615       52.900     7194.725    10944.389     2798.379        3.867        1.047      236.365       47.465        0.040      333.715        3.210      863.158
01/31/2022  20:14:00       -3.928      219.815      -13.647       70.219       84.522       44.856     4930.722     7143.908     2012.039        3.130        0.704      219.850       43.245        0.039      333.725        3.226      863.164
01/31/2022  20:15:00      -47.850      234.062      -23.385       93.726       76.393       46.151     8784.476     5835.901     2129.885        3.718        0.838      238.903       32.756        0.019      333.736        3.242      863.181
01/31/2022  20:16:00      -53.212      134.938      -21.787       52.278       79.015       41.750     2732.959     6243.319     1743.057        1.611        0.536      145.050       26.412        0.033      333.776        3.312      863.185
01/31/2022  20:17:00      -80.546      221.602      -17.420       75.463       70.750       39.685     5694.641     5005.608     1574.907        3.408        0.614      235.786       23.334        0.010      333.688        3.164      863.193
01/31/2022  20:18:00       -2.367      226.199      -18.068       82.394       87.387       51.124     6788.796     7636.482     2613.658        3.427        0.852      226.212       39.075        0.030      333.646        3.095      863.183
01/31/2022  20:19:00       12.283      282.750      -27.664       67.038       87.808       48.126     4494.038     7710.222     2316.127        4.769        0.726      283.016       33.455        0.014      333.652        3.104      863.171
01/31/2022  20:20:00      -12.860      248.804      -19.311       88.679       85.656       51.090     7863.918     7337.022     2610.146        4.012        0.891      249.136       42.769        0.029      333.670        3.134      863.157
01/31/2022  20:21:00        2.598      236.307      -26.030       59.992       71.600       41.268     3599.044     5126.555     1703.030        3.348        0.521      236.321       36.826        0.024      333.654        3.108      863.164
01/31/2022  20:22:00       -1.266      216.282      -18.436       86.918       68.703       50.220     7554.746     4720.040     2522.006        3.096        0.740      216.286       27.707        0.016      333.687        3.164      863.162
01/31/2022  20:23:00       33.107      225.220      -16.971       76.633      105.572       47.869     5872.602    11145.420     2291.476        3.571        0.965      227.640       46.657        0.042      333.645        3.094      863.179
01/31/2022  20:24:00        7.454      270.951      -22.146       83.852      106.392       50.406     7031.153    11319.161     2540.755        4.742        1.045      271.054       53.742        0.039      333.623        3.057      863.200
01/31/2022  20:25:00      -32.313      200.729      -16.988       71.846       70.155       40.361     5161.885     4921.709     1629.006        2.667        0.586      203.313       42.492        0.044      333.600        3.018      863.203
01/31/2022  20:26:00        6.232      162.500      -18.476       70.441       67.184       30.618     4961.927     4513.711      937.435        1.860        0.521      162.620       26.034        0.026      333.573        2.974      863.202
01/31/2022  20:27:00       50.462      285.204      -25.849       69.335       94.358       54.793     4807.305     8903.410     3002.241        5.063        0.836      289.634       47.908        0.027      333.408        2.700      863.197
01/31/2022  20:28:00        0.678      259.109      -34.587       89.319       83.855       47.458     7977.860     7031.633     2252.289        4.279        0.863      259.110       31.919        0.015      333.425        2.728      863.193
01/31/2022  20:29:00      -39.352      155.176      -17.804       85.412       77.310       41.253     7295.268     5976.874     1701.802        2.046        0.749      160.088       23.314        0.021      333.435        2.748      863.185
01/31/2022  20:30:00      -40.805      256.106      -30.178       59.419      101.691       46.549     3530.563    10341.088     2166.769        4.210        0.802      259.336       31.446        0.015      333.367        2.634      863.181
01/31/2022  20:31:00        2.085      188.661      -17.811       61.190       77.796       40.852     3744.164     6052.260     1668.882        2.369        0.573      188.672       33.023        0.031      333.381        2.657      863.169
01/31/2022  20:32:00     -148.378      278.720      -34.025      114.423      104.397       51.221    13092.621    10898.825     2623.605        6.373        1.331      315.754       45.409        0.021      333.286        2.499      863.156
01/31/2022  20:33:00      -47.192      297.851      -29.453       93.376      105.567       51.041     8719.155    11144.484     2605.223        5.714        1.123      301.567       44.756        0.022      333.258        2.451      863.147
01/31/2022  20:34:00      -92.592      213.213      -25.191      104.131      102.154       51.362    10843.232    10435.524     2638.072        3.929        1.196      232.451       40.082        0.030      333.294        2.511      863.124
01/31/2022  20:35:00      -27.049      198.290      -12.022       57.447       87.570       41.543     3300.177     7668.465     1725.852        2.644        0.635      200.126       43.126        0.046      333.277        2.486      863.119
01/31/2022  20:36:00      -33.811      218.498      -21.494       70.606       83.291       44.831     4985.220     6937.345     2009.850        3.164        0.697      221.099       43.255        0.038      333.309        2.538      863.122
01/31/2022  20:37:00       35.442      343.805      -35.983       83.368      107.735       51.028     6950.286    11606.889     2603.818        7.095        1.058      345.627       50.587        0.021      333.284        2.494      863.132
01/31/2022  20:38:00       73.156      223.557      -14.916       57.000       59.885       40.421     3248.971     3586.194     1633.878        3.201        0.423      235.223       35.783        0.023      333.252        2.443      863.128
01/31/2022  20:39:00       -0.111      199.210      -20.529       55.735       70.409       36.728     3106.374     4957.366     1348.948        2.476        0.471      199.210       35.784        0.032      333.232        2.410      863.132
01/31/2022  20:40:00      -19.260      164.438      -19.999       63.874       63.786       45.877     4079.917     4068.662     2104.732        1.903        0.513      165.562       38.726        0.055      333.351        2.609      863.123
01/31/2022  20:41:00        2.518      145.491      -16.061       79.549       81.683       40.907     6328.029     6672.174     1673.361        1.805        0.734      145.513       32.222        0.049      333.390        2.673      863.128
01/31/2022  20:42:00      -10.323      177.563      -25.715       79.291       86.785       40.098     6287.082     7531.704     1607.869        2.386        0.771      177.863       31.871        0.032      333.417        2.717      863.136
01/31/2022  20:43:00       17.639      222.625      -22.394       78.827       60.039       35.700     6213.629     3604.741     1274.488        3.073        0.555      223.323       26.804        0.014      333.438        2.748      863.144
01/31/2022  20:44:00       62.692      242.875      -21.766       71.023       88.807       46.675     5044.232     7886.645     2178.545        3.925        0.755      250.836       49.504        0.039      333.480        2.819      863.152
01/31/2022  20:45:00       29.199      220.453      -18.235       73.344       58.334       34.177     5379.318     3402.888     1168.087        2.987        0.498      222.378       24.552        0.012      333.465        2.796      863.158
01/31/2022  20:46:00       84.829      296.054      -31.114       67.569       72.576       33.881     4565.553     5267.259     1147.937        5.339        0.549      307.967       40.315        0.017      333.363        2.626      863.174
01/31/2022  20:47:00       35.132      215.975       -8.748       65.855       65.214       33.434     4336.834     4252.922     1117.810        2.883        0.485      218.814       35.847        0.027      333.320        2.556      863.178
01/31/2022  20:48:00       10.584      173.481      -19.833       49.927       67.993       39.019     2492.663     4623.048     1522.505        1.962        0.432      173.803       36.238        0.043      333.393        2.679      863.188
01/31/2022  20:49:00       16.502      169.814      -13.141       64.162       94.833       37.219     4116.740     8993.292     1385.285        2.189        0.725      170.614       33.427        0.038      333.459        2.786      863.210
01/31/2022  20:50:00       -4.699      221.917      -22.832       54.773       68.886       41.181     3000.124     4745.246     1695.898        2.961        0.472      221.967       28.682        0.017      333.480        2.819      863.218
01/31/2022  20:51:00      -42.638      159.055      -12.174       43.226       50.769       30.789     1868.527     2577.538      947.985        1.633        0.270      164.670       21.611        0.017      333.539        2.919      863.225
01/31/2022  20:52:00      -76.199      180.427      -27.049      101.260       70.261       38.057    10253.619     4936.593     1448.318        2.786        0.832      195.857       25.394        0.017      333.507        2.865      863.225
01/31/2022  20:53:00      -39.888      188.350      -22.807       52.792       81.452       34.514     2786.946     6634.400     1191.247        2.410        0.531      192.527       30.663        0.025      333.521        2.888      863.219
01/31/2022  20:54:00      -55.043      183.666      -27.714       70.183       98.224       42.815     4925.602     9648.027     1833.141        2.697        0.820      191.737       37.385        0.038      333.570        2.971      863.216
01/31/2022  20:55:00      -49.301      250.084      -26.703       52.208       88.632       40.350     2725.642     7855.653     1628.114        3.895        0.610      254.897       40.160        0.025      333.486        2.830      863.201
01/31/2022  20:56:00      -77.889      170.078      -15.481       86.678       65.843       49.448     7513.094     4335.239     2445.102        2.476        0.715      187.065       41.886        0.050      333.547        2.933      863.190
01/31/2022  20:57:00      -84.943      132.703      -18.499       77.712       79.335       46.272     6039.192     6294.109     2141.104        1.982        0.724      157.561       26.766        0.029      333.545        2.929      863.177
01/31/2022  20:58:00      -51.333      165.502      -13.084       75.548      119.126       50.611     5707.470    14190.994     2561.482        2.632        1.123      173.280       31.598        0.033      333.554        2.942      863.162
01/31/2022  20:59:00      -66.892      115.370      -15.518       54.882       58.526       34.224     3012.046     3425.304     1171.251        1.282        0.380      133.359       24.473        0.034      333.590        3.006      863.150
01/31/2022  21:00:00      -45.597       60.919      -21.946       49.283       48.700       33.534     2428.794     2371.737     1124.557        0.610        0.296       76.093       22.885        0.090      333.608        3.036      863.130
01/31/2022  21:01:00      -45.623       30.126      -27.054       62.018       63.905       39.308     3846.265     4083.911     1545.139        0.660        0.474       54.672       21.099        0.149      333.629        3.071      863.110
01/31/2022  21:02:00      -39.133       85.269      -44.033       55.890       57.581       58.403     3123.733     3315.581     3410.945        1.029        0.493       93.820       41.416        0.195      333.669        3.137      863.095
01/31/2022  21:03:00      -63.860       40.401      -30.792       72.621       58.739       40.397     5273.831     3450.318     1631.922        0.851        0.518       75.567       31.049        0.169      333.669        3.135      863.072
01/31/2022  21:04:00      -57.623      144.643      -31.842       66.834      117.904       49.304     4466.733    13901.421     2430.881        2.302        1.040      155.698       16.214        0.011      333.676        3.146      863.066
01/31/2022  21:05:00      -53.402      151.020      -19.559       62.104       56.258       35.268     3856.859     3164.952     1243.841        1.715        0.413      160.184       21.739        0.018      333.659        3.117      863.071
01/31/2022  21:06:00      -72.354      105.390       -1.033       74.850       74.255       35.278     5602.495     5513.815     1244.512        1.435        0.618      127.836       22.535        0.031      333.672        3.141      863.090
01/31/2022  21:07:00       -3.141      207.689      -21.601       64.647       92.406       47.132     4179.192     8538.852     2221.402        2.927        0.747      207.713       44.596        0.046      333.605        3.029      863.097
01/31/2022  21:08:00      -74.793       87.997      -16.657       63.403       47.497       32.977     4019.893     2255.923     1087.502        1.049        0.368      115.488       13.423        0.014      333.672        3.142      863.110
01/31/2022  21:09:00      -27.229      200.404      -25.964       57.496       79.822       38.347     3305.832     6371.606     1470.498        2.636        0.557      202.245       16.799        0.007      333.617        3.047      863.135
01/31/2022  21:10:00      -65.238      116.539      -14.091       53.232       67.931       29.327     2833.634     4614.661      860.102        1.317        0.415      133.556       25.852        0.037      333.628        3.069      863.136
01/31/2022  21:11:00      -24.108      113.932      -17.852       64.023       62.270       41.109     4098.890     3877.507     1689.987        1.177        0.483      116.455       26.077        0.050      333.602        3.023      863.146
01/31/2022  21:12:00      -35.549       87.408      -11.293       51.327       54.418       33.586     2634.507     2961.268     1127.988        0.788        0.336       94.361       16.256        0.030      333.613        3.044      863.142
01/31/2022  21:13:00      -72.182      136.313      -23.941       55.337       44.818       31.454     3062.158     2008.668      989.329        1.521        0.303      154.244        7.948        0.003      333.652        3.107      863.153
01/31/2022  21:14:00      -17.954      179.969      -15.542       50.715       85.528       41.571     2572.016     7315.009     1728.121        2.228        0.581      180.863       37.984        0.044      333.556        2.947      863.159
01/31/2022  21:15:00      -16.039      141.676      -13.050       45.728       70.123       35.383     2091.090     4917.302     1251.952        1.438        0.413      142.581       13.082        0.008      333.584        2.996      863.172
01/31/2022  21:16:00      -54.892      112.586      -32.220       51.628       92.763       41.879     2665.442     8604.958     1753.812        1.487        0.651      125.254       23.363        0.035      333.597        3.014      863.182
01/31/2022  21:17:00      -61.533      188.694      -19.524       72.647       77.010       58.003     5277.619     5930.485     3364.376        2.717        0.729      198.474       35.770        0.032      333.575        2.979      863.184
01/31/2022  21:18:00      -56.278      170.141       -6.995       74.542       74.334       40.698     5556.500     5525.496     1656.317        2.245        0.637      179.207       39.807        0.049      333.585        2.995      863.186
01/31/2022  21:19:00      -73.536       72.662      -10.133       46.815       50.537       30.494     2191.621     2553.987      929.868        0.823        0.284      103.380       16.563        0.026      333.541        2.925      863.188
01/31/2022  21:20:00      -29.972       91.134      -13.035       68.754       52.738       33.924     4727.139     2781.342     1150.835        0.901        0.433       95.936       21.649        0.051      333.539        2.920      863.196
01/31/2022  21:21:00      -25.172      142.309      -12.745       41.931       86.125       40.600     1758.225     7417.594     1648.370        1.593        0.541      144.518       39.298        0.074      333.518        2.884      863.192
01/31/2022  21:22:00      -32.971       84.416      -24.440       52.494       51.672       35.361     2755.644     2669.949     1250.420        0.774        0.334       90.627       21.136        0.054      333.565        2.963      863.195
01/31/2022  21:23:00      -30.370      124.232       -9.989       87.632       77.991       53.691     7679.383     6082.634     2882.708        1.655        0.832      127.891       37.531        0.086      333.517        2.883      863.191
01/31/2022  21:24:00      -55.419      177.010      -16.670       46.291       48.672       30.276     2142.846     2368.916      916.617        2.005        0.271      185.482       17.102        0.009      333.537        2.914      863.191
01/31/2022  21:25:00      -52.133      197.150      -17.774       65.333       55.286       38.176     4268.388     3056.505     1457.444        2.534        0.439      203.926       21.351        0.011      333.514        2.877      863.177
01/31/2022  21:26:00      -36.782      168.249       -5.554       64.984       73.526       42.115     4222.878     5406.099     1773.661        2.054        0.570      172.222       34.075        0.039      333.479        2.818      863.167
01/31/2022  21:27:00      -75.517      194.862      -17.571      114.379      133.384       63.742    13082.520    17791.308     4063.073        3.945        1.747      208.984       71.881        0.118      333.481        2.823      863.167
01/31/2022  21:28:00      -61.809      177.077      -18.480       98.632      109.621       57.393     9728.280    12016.706     3293.969        3.027        1.252      187.554       54.921        0.086      333.485        2.828      863.160
01/31/2022  21:29:00      -21.325      193.966      -28.804       74.238       90.785       45.775     5511.214     8241.961     2095.309        2.737        0.792      195.135       21.088        0.012      333.462        2.789      863.152
01/31/2022  21:30:00      -32.034      219.115      -11.672       56.613       71.657       39.936     3205.051     5134.779     1594.851        2.955        0.497      221.444       30.804        0.019      333.456        2.779      863.147
01/31/2022  21:31:00      -49.761      212.799      -23.160       83.019      120.129       50.933     6892.210    14430.956     2594.148        3.610        1.196      218.540       42.091        0.037      333.479        2.819      863.150
01/31/2022  21:32:00      -80.699      213.680      -20.827       73.211       76.429       40.318     5359.783     5841.338     1625.572        3.271        0.641      228.410       30.387        0.018      333.509        2.868      863.161
01/31/2022  21:33:00        9.543      174.988      -17.304       55.790       77.610       40.242     3112.531     6023.353     1619.454        2.088        0.538      175.248       38.661        0.049      333.456        2.782      863.170
01/31/2022  21:34:00       21.816      159.651       -7.751       70.577       86.124       56.962     4981.177     7417.293     3244.709        2.083        0.782      161.134       29.087        0.033      333.477        2.816      863.178
01/31/2022  21:35:00      -58.200      217.804      -25.061       67.778       89.014       43.707     4593.854     7923.565     1910.334        3.294        0.721      225.446       38.281        0.029      333.474        2.809      863.191
01/31/2022  21:36:00       36.592      112.961       -9.596       71.742       45.778       28.768     5146.867     2095.585      827.600        1.113        0.404      118.740       25.799        0.047      333.490        2.839      863.223
01/31/2022  21:37:00       61.998       72.863      -27.199       55.947       37.083       30.211     3130.045     1375.162      912.724        0.765        0.271       95.670       17.152        0.032      333.524        2.894      863.235
01/31/2022  21:38:00      115.974       70.619      -20.833       60.652       43.164       30.565     3678.676     1863.166      934.199        1.267        0.324      135.783       19.901        0.021      333.432        2.742      863.259
01/31/2022  21:39:00       86.755       59.085       -2.887       58.931       48.666       49.901     3472.877     2368.332     2490.109        0.968        0.417      104.965       28.538        0.074      333.400        2.691      863.276
01/31/2022  21:40:00       77.213       40.229      -15.166       58.000       57.187       33.490     3363.963     3270.332     1121.601        0.778        0.388       87.064       22.978        0.070      333.409        2.707      863.281
01/31/2022  21:41:00      126.266       22.411      -24.584       48.391       60.155       27.130     2341.669     3618.589      736.018        1.187        0.335      128.240       17.644        0.019      333.431        2.742      863.289
01/31/2022  21:42:00       62.845       -8.788      -23.724       35.128       68.775       29.329     1233.990     4730.061      860.179        0.571        0.341       63.456       16.233        0.065      333.449        2.773      863.288
01/31/2022  21:43:00       80.338      -22.034       -5.065       77.008       62.609       41.974     5930.274     3919.862     1761.831        0.929        0.581       83.305       43.285        0.270      333.360        2.625      863.304
01/31/2022  21:44:00       47.887      -61.735      -14.477       60.700       58.804       37.495     3684.447     3457.964     1405.899        0.743        0.427       78.131       24.802        0.101      333.207        2.372      863.314
01/31/2022  21:45:00       27.561      -56.901      -28.864       36.281       65.279       26.615     1316.347     4261.285      708.371        0.556        0.314       63.225       23.683        0.140      333.148        2.272      863.338
01/31/2022  21:46:00       25.395        7.207      -29.284       42.954       49.006       24.829     1845.035     2401.582      616.492        0.321        0.243       26.398       19.377        0.539      333.076        2.154      863.342
01/31/2022  21:47:00       27.053       13.393      -25.106       35.774       30.114       20.371     1279.814      906.854      414.995        0.207        0.130       30.186       13.478        0.199      332.995        2.021      863.352
01/31/2022  21:48:00       -0.486       13.443      -10.396       39.059       32.165       21.562     1525.605     1034.596      464.935        0.166        0.151       13.451       16.054        1.424      333.001        2.031      863.360
01/31/2022  21:49:00       53.697       20.751      -23.677       33.825       31.379       23.779     1144.148      984.612      565.427        0.328        0.135       57.567       13.967        0.059      332.975        1.988      863.371
01/31/2022  21:50:00       46.338      -25.666      -11.272       26.117       38.469       17.431      682.092     1479.852      303.844        0.270        0.123       52.971        8.318        0.025      332.974        1.988      863.365
01/31/2022  21:51:00        3.413       49.770       -9.605       29.732       32.062       26.085      883.998     1027.946      680.446        0.259        0.130       49.887       20.505        0.169      333.095        2.187      863.375
01/31/2022  21:52:00        3.798       59.201       -2.114       42.594       41.856       20.219     1814.223     1751.928      408.810        0.375        0.199       59.323       17.193        0.084      333.041        2.096      863.379
01/31/2022  21:53:00       31.050       62.149       -9.301       25.167       29.242       15.162      633.382      855.110      229.874        0.332        0.086       69.474        8.120        0.014      333.211        2.379      863.379
01/31/2022  21:54:00       52.474       71.397      -16.137       28.476       56.340       23.596      810.860     3174.209      556.755        0.633        0.227       88.607       16.551        0.035      333.153        2.282      863.397
01/31/2022  21:55:00      -20.088       35.225      -14.126       38.480       31.369       31.416     1480.747      984.024      986.968        0.265        0.173       40.551        9.516        0.055      333.285        2.501      863.387
01/31/2022  21:56:00       12.177       91.835      -12.909       41.976       51.347       23.901     1761.946     2636.523      571.239        0.686        0.248       92.639       26.158        0.080      333.406        2.700      863.390
01/31/2022  21:57:00       49.250      122.740      -20.995       53.356       47.416       32.464     2846.900     2248.321     1053.916        1.204        0.307      132.253       18.435        0.019      333.462        2.793      863.373
01/31/2022  21:58:00       28.744       62.519        4.253       55.735       80.199       37.396     3106.411     6431.825     1398.456        0.784        0.547       68.810       32.290        0.220      333.494        2.845      863.362
01/31/2022  21:59:00      -53.793       87.420      -15.450       63.786       65.562       33.456     4068.601     4298.399     1119.296        1.013        0.474      102.644       22.030        0.046      333.492        2.842      863.363
01/31/2022  22:00:00      -26.082      127.723      -14.384       38.878       60.183       33.078     1511.477     3621.941     1094.130        1.171        0.311      130.358       21.223        0.027      333.445        2.765      863.356
01/31/2022  22:01:00      -17.756      149.235      -19.397       43.083       94.150       34.427     1856.131     8864.214     1185.233        1.743        0.595      150.287       29.351        0.038      333.455        2.779      863.349
01/31/2022  22:02:00      -94.897      182.287      -37.016      106.629       71.278       41.211    11369.728     5080.536     1698.364        3.087        0.907      205.509       37.823        0.034      333.450        2.770      863.331
01/31/2022  22:03:00      -34.327      159.506      -20.165       75.671       69.004       58.764     5726.171     4761.526     3453.261        2.048        0.697      163.158       33.231        0.041      333.472        2.808      863.298
01/31/2022  22:04:00      -61.763      188.734      -26.589       90.465       62.268       50.317     8183.948     3877.295     2531.838        2.736        0.730      198.583       37.903        0.036      333.460        2.788      863.289
01/31/2022  22:05:00      -64.253      265.748      -26.144       52.229      118.431       35.934     2727.840    14025.799     1291.249        4.674        0.902      273.405       39.911        0.021      333.430        2.737      863.269
01/31/2022  22:06:00      -35.837      201.150      -15.716       81.013       93.757       52.017     6563.122     8790.455     2705.792        3.002        0.903      204.318       30.671        0.023      333.445        2.762      863.265
01/31/2022  22:07:00       23.821      267.586      -26.102       93.947       90.966       48.050     8825.959     8274.776     2308.778        4.613        0.970      268.645       40.311        0.023      333.412        2.707      863.261
01/31/2022  22:08:00      -74.925      194.186      -17.768      107.309       95.621       47.830    11515.185     9143.337     2287.732        3.329        1.147      208.139       36.337        0.030      333.383        2.658      863.240
01/31/2022  22:09:00       12.494      206.470      -15.398       80.532       93.445       54.484     6485.334     8731.997     2968.454        3.060        0.909      206.847       46.133        0.050      333.363        2.627      863.202
01/31/2022  22:10:00      -70.538      208.191      -26.425       72.597       71.625       47.766     5270.288     5130.164     2281.635        3.085        0.634      219.816       21.893        0.010      333.371        2.639      863.185
01/31/2022  22:11:00       -9.951      203.512      -12.746      113.982      100.568       51.953    12991.996    10114.015     2699.115        3.374        1.290      203.755       54.546        0.072      333.396        2.682      863.164
01/31/2022  22:12:00      -73.040      212.781      -25.051       99.031      103.697       46.608     9807.050    10753.033     2172.274        3.698        1.137      224.968       49.275        0.048      333.329        2.570      863.152
01/31/2022  22:13:00      -86.139      271.795      -27.104      106.505       96.603       52.399    11343.405     9332.098     2745.650        5.272        1.171      285.118       44.749        0.025      333.316        2.546      863.143
01/31/2022  22:14:00      -26.098      167.829      -21.360       71.964       75.321       43.794     5178.861     5673.199     1917.877        2.103        0.638      169.847       31.832        0.035      333.357        2.618      863.134
01/31/2022  22:15:00      -42.066      229.658      -25.334       46.015       96.013       38.927     2117.422     9218.461     1515.280        3.400        0.643      233.479       28.142        0.015      333.298        2.519      863.120
01/31/2022  22:16:00      -78.625      221.440      -27.212      114.631       77.954       40.866    13140.282     6076.774     1670.031        3.842        1.044      234.984       29.532        0.016      333.282        2.492      863.115
01/31/2022  22:17:00      -42.493      113.306      -10.587       79.586      101.715       51.258     6333.961    10345.925     2627.359        1.703        0.965      121.012       25.432        0.044      333.311        2.542      863.122
01/31/2022  22:18:00      -69.208      175.845      -23.792       80.348      107.851       57.608     6455.826    11631.809     3318.718        2.884        1.070      188.974       31.320        0.027      333.292        2.511      863.151
01/31/2022  22:19:00      -96.890      271.742      -35.446       58.228       85.089       42.177     3390.512     7240.162     1778.860        4.845        0.620      288.498       28.630        0.010      333.224        2.395      863.178
01/31/2022  22:20:00      -34.130      264.933      -24.688       75.744      142.994       42.289     5737.140    20447.267     1788.396        4.996        1.399      267.122       32.532        0.015      333.214        2.381      863.201
01/31/2022  22:21:00      -58.687      135.706      -11.159       62.371       79.836       45.828     3890.157     6373.769     2100.161        1.717        0.618      147.852       38.570        0.068      333.196        2.354      863.216
01/31/2022  22:22:00      -89.170      187.214      -11.192      100.670      115.641       46.351    10134.416    13372.908     2148.394        3.439        1.283      207.366       41.864        0.041      333.201        2.359      863.228
01/31/2022  22:23:00       -2.623      269.338      -28.927       76.181       80.045       45.176     5803.573     6407.136     2040.875        4.382        0.713      269.351       34.419        0.016      333.127        2.236      863.236
01/31/2022  22:24:00      -18.793      231.396      -19.588       50.732       48.099       50.079     2573.711     2313.487     2507.928        3.084        0.370      232.158       24.203        0.011      333.139        2.254      863.252
01/31/2022  22:25:00      -23.539      261.271      -18.660       76.087      103.530       46.091     5789.163    10718.505     2124.415        4.390        0.932      262.329       49.745        0.036      333.096        2.185      863.271
01/31/2022  22:26:00       -0.478      179.179      -23.220       56.262       88.873       47.861     3165.382     7898.420     2290.655        2.300        0.668      179.180       36.100        0.041      333.145        2.269      863.255
01/31/2022  22:27:00      -40.378      174.254       -4.783       65.673       89.096       37.978     4312.898     7938.102     1442.347        2.285        0.685      178.871       39.252        0.048      333.138        2.256      863.245
01/31/2022  22:28:00        7.729      124.029       -8.630       46.893       59.579       34.437     2198.977     3549.638     1185.883        1.122        0.347      124.270       27.583        0.049      333.174        2.317      863.227
01/31/2022  22:29:00      -20.040       92.928       -5.220       52.287       65.725       39.116     2733.918     4319.711     1530.051        0.882        0.429       95.065       37.282        0.154      333.154        2.284      863.203
01/31/2022  22:30:00      -78.020      171.219       -1.858      102.860       93.855       47.894    10580.094     8808.816     2293.819        2.854        1.084      188.157       47.903        0.065      333.105        2.201      863.184
01/31/2022  22:31:00      -26.662      191.481      -30.301       55.948       61.923       37.689     3130.155     3834.398     1420.477        2.334        0.419      193.328       17.840        0.009      333.079        2.157      863.186
01/31/2022  22:32:00      -69.856      201.212      -28.619       88.922       96.972       50.620     7907.128     9403.509     2562.422        3.303        0.994      212.994       39.415        0.034      333.045        2.101      863.206
01/31/2022  22:33:00      -17.556      124.821      -25.347       69.967       78.104       48.555     4895.421     6100.270     2357.594        1.494        0.668      126.050       31.425        0.062      333.039        2.094      863.211
01/31/2022  22:34:00      -40.043      183.418      -29.455       45.379       67.663       35.764     2059.283     4578.240     1279.035        2.201        0.396      187.738       20.900        0.012      333.036        2.086      863.218
01/31/2022  22:35:00      -70.624      216.308      -15.622       84.216      111.094       48.098     7092.304    12341.982     2313.412        3.688        1.087      227.546       41.233        0.033      333.034        2.083      863.222
01/31/2022  22:36:00      -18.900      172.425      -18.195       81.634       71.215       46.585     6664.081     5071.629     2170.169        2.216        0.695      173.458       35.570        0.042      333.028        2.075      863.223
01/31/2022  22:37:00       53.313      184.916      -25.285       52.124       77.366       35.404     2716.940     5985.499     1253.431        2.381        0.498      192.448       35.592        0.034      333.015        2.052      863.203
01/31/2022  22:38:00       41.843      129.519      -12.815       52.347       68.207       31.941     2740.167     4652.199     1020.207        1.355        0.421      136.110       34.224        0.063      333.066        2.137      863.219
01/31/2022  22:39:00       27.961      163.790      -24.508       65.053       66.844       35.580     4231.828     4468.136     1265.902        1.909        0.498      166.160       28.961        0.030      333.050        2.111      863.235
01/31/2022  22:40:00       60.201      166.100      -35.274       75.346       65.932       38.765     5677.073     4346.989     1502.723        2.199        0.576      176.672       34.435        0.038      333.051        2.111      863.240
01/31/2022  22:41:00       61.409      230.577      -28.488       78.811       80.483       43.874     6211.241     6477.532     1924.947        3.618        0.731      238.615       40.998        0.030      333.012        2.045      863.235
01/31/2022  22:42:00       89.769      141.686      -18.806       64.488       82.021       47.830     4158.718     6727.423     2287.699        2.083        0.659      167.730       40.416        0.058      332.974        1.985      863.243
01/31/2022  22:43:00       55.318      102.538       -6.129       43.478       58.500       35.249     1890.319     3422.244     1242.503        1.008        0.328      116.509       30.196        0.067      332.980        1.996      863.255
01/31/2022  22:44:00       69.809      110.273      -18.136       69.202       94.839       46.893     4788.937     8994.511     2198.984        1.667        0.799      130.512       44.152        0.114      332.975        1.987      863.286
01/31/2022  22:45:00       93.639       76.244      -26.466       58.226       70.216       36.934     3390.292     4930.289     1364.108        1.248        0.484      120.754       16.845        0.019      332.904        1.870      863.318
01/31/2022  22:46:00       90.373       35.876      -17.440       57.081       57.320       33.080     3258.191     3285.527     1094.302        0.870        0.382       97.234       18.736        0.037      332.894        1.855      863.338
01/31/2022  22:47:00       48.655       -8.282      -23.023       55.081       60.248       35.865     3033.940     3629.762     1286.308        0.546        0.398       49.355       17.836        0.131      332.996        2.022      863.343
01/31/2022  22:48:00      132.820       63.531      -25.384       57.538       54.277       29.156     3310.607     2945.985      850.053        1.471        0.355      147.232       14.543        0.010      332.751        1.616      863.353
01/31/2022  22:49:00       39.172       36.470      -10.378       29.980       29.865       18.237      898.794      891.944      332.583        0.255        0.106       53.521       10.425        0.038      332.739        1.598      863.369
01/31/2022  22:50:00       -5.487       54.038      -13.449       61.848       88.423       34.598     3825.167     7818.605     1197.045        0.798        0.642       54.316       20.748        0.146      332.884        1.839      863.371
01/31/2022  22:51:00      101.584       68.277      -16.370       48.648       73.623       27.253     2366.601     5420.335      742.715        1.189        0.426      122.397       21.309        0.030      332.925        1.906      863.369
01/31/2022  22:52:00       48.490       87.584      -27.291       68.683       40.463       37.235     4717.340     1637.285     1386.441        0.925        0.387      100.112       23.813        0.057      332.841        1.767      863.361
01/31/2022  22:53:00       -0.259       28.539      -22.277       41.126       52.008       22.326     1691.387     2704.878      498.445        0.310        0.245       28.540       21.499        0.567      332.904        1.871      863.362
01/31/2022  22:54:00      -28.314       19.940      -26.647       34.135       39.900       24.309     1165.168     1592.017      590.927        0.263        0.167       34.631       18.131        0.274      333.039        2.094      863.344
01/31/2022  22:55:00       -0.067       66.325      -16.257       49.363       41.175       18.675     2436.659     1695.345      348.773        0.457        0.224       66.325       13.433        0.041      332.945        1.938      863.341
01/31/2022  22:56:00       -8.573       50.800      -12.314       65.185       55.116       31.203     4249.143     3037.821      973.656        0.553        0.413       51.518       17.000        0.109      332.946        1.940      863.323
01/31/2022  22:57:00      -10.225       46.191      -18.144       66.750       32.262       29.508     4455.620     1040.866      870.702        0.447        0.318       47.310       21.528        0.207      332.901        1.865      863.307
01/31/2022  22:58:00       18.630       57.950       -7.568       26.635       39.829       21.989      709.435     1586.312      483.501        0.327        0.139       60.871       20.804        0.117      332.928        1.910      863.318
01/31/2022  22:59:00      -32.507      169.491      -13.612       64.021       68.070       38.955     4098.716     4633.512     1517.493        2.011        0.512      172.580       31.862        0.034      332.963        1.967      863.303
01/31/2022  23:00:00       17.688       73.923        0.667       45.829       47.825       24.786     2100.333     2287.187      614.355        0.539        0.250       76.010       22.555        0.088      332.995        2.020      863.300
01/31/2022  23:01:00      -30.448       69.413       -8.399       64.208       49.229       33.272     4122.657     2423.520     1107.004        0.673        0.383       75.797       22.171        0.086      333.022        2.066      863.292
01/31/2022  23:02:00       20.673      213.343      -24.588       91.720       90.214       60.765     8412.547     8138.518     3692.374        3.339        1.012      214.342       46.492        0.047      332.968        1.971      863.283
01/31/2022  23:03:00      -78.880      194.586      -31.265       92.489       66.078       39.258     8554.189     4366.363     1541.153        2.976        0.723      209.966       23.644        0.013      332.972        1.980      863.292
01/31/2022  23:04:00      -65.834      139.018      -39.860       77.690       69.271       34.714     6035.718     4798.446     1205.091        1.864        0.602      153.819       18.360        0.014      333.010        2.043      863.293
01/31/2022  23:05:00       -0.482      107.967       -6.109       45.797       40.094       33.332     2097.357     1607.536     1111.044        0.825        0.241      107.968       20.867        0.037      333.082        2.165      863.312
01/31/2022  23:06:00       -0.095      108.160       -9.834       89.672       76.281       46.302     8041.045     5818.798     2143.904        1.390        0.800      108.160       38.506        0.127      332.999        2.027      863.320
01/31/2022  23:07:00        3.889      161.325      -13.155       64.444       56.671       40.240     4153.006     3211.579     1619.265        1.760        0.449      161.372       36.497        0.051      332.973        1.984      863.325
01/31/2022  23:08:00       25.887      111.452      -16.264       66.257       58.904       34.801     4389.975     3469.701     1211.097        1.121        0.454      114.419       15.639        0.019      332.981        1.997      863.336
01/31/2022  23:09:00       32.383      113.978       -3.486       64.014       99.116       36.155     4097.850     9823.969     1307.205        1.464        0.761      118.489       42.828        0.131      332.994        2.018      863.316
01/31/2022  23:10:00       41.525      154.018      -24.387       70.470       73.211       45.911     4966.048     5359.886     2107.846        1.923        0.622      159.517       38.327        0.058      333.000        2.028      863.314
01/31/2022  23:11:00       -2.726      176.982      -20.887       83.719      108.430       42.542     7008.905    11757.133     1809.863        2.617        1.029      177.003       49.929        0.080      332.987        2.006      863.307
01/31/2022  23:12:00       -3.608      286.300      -38.884       67.458      101.599       48.076     4550.610    10322.332     2311.254        5.034        0.859      286.322       36.791        0.017      332.959        1.959      863.314
01/31/2022  23:13:00       46.356      258.316      -20.184       70.872      107.521       46.643     5022.818    11560.674     2175.562        4.402        0.938      262.443       49.449        0.036      332.938        1.925      863.309
01/31/2022  23:14:00       71.589      271.024      -29.281       86.290       84.529       48.213     7445.956     7145.074     2324.507        4.817        0.846      280.319       46.491        0.028      332.919        1.892      863.307
01/31/2022  23:15:00      125.372      275.672      -39.542       55.181       61.401       44.855     3044.993     3770.105     2011.934        5.105        0.441      302.842       27.625        0.008      332.939        1.923      863.307
01/31/2022  23:16:00       47.427      229.446      -22.911       67.964       75.735       46.692     4619.094     5735.751     2180.185        3.398        0.627      234.296       41.119        0.031      332.932        1.913      863.297
01/31/2022  23:17:00       28.822      185.151      -16.165       75.933       69.242       37.008     5765.891     4794.459     1369.584        2.365        0.596      187.381       20.405        0.012      332.943        1.933      863.285
01/31/2022  23:18:00      139.655      175.907      -24.604      107.223       98.490       45.895    11496.770     9700.222     2106.395        3.717        1.165      224.604       37.177        0.027      332.908        1.876      863.283
01/31/2022  23:19:00       59.548      129.732      -13.317       62.864       83.161       35.173     3951.904     6915.758     1237.165        1.633        0.605      142.746       41.970        0.086      332.884        1.836      863.284
01/31/2022  23:20:00       62.565      102.296       -3.537       56.872       62.695       46.446     3234.410     3930.659     2157.250        1.186        0.466      119.911       33.782        0.079      332.917        1.890      863.296
01/31/2022  23:21:00       29.951      146.350      -21.283       63.851       90.406       41.531     4076.998     8173.248     1724.802        1.837        0.699      149.384       36.813        0.061      332.910        1.878      863.301
01/31/2022  23:22:00       51.826      160.985      -13.629       97.275      107.844       50.469     9462.356    11630.276     2547.076        2.621        1.182      169.122       53.297        0.099      332.852        1.783      863.304
01/31/2022  23:23:00       87.112      219.093      -25.905       58.312       74.286       41.387     3400.296     5518.393     1712.900        3.344        0.532      235.776       35.944        0.023      332.881        1.828      863.320
01/31/2022  23:24:00       99.550      169.971      -32.617       56.471       72.574       37.231     3188.991     5266.931     1386.146        2.485        0.492      196.978       21.441        0.012      332.847        1.773      863.330
01/31/2022  23:25:00       88.729      163.968      -21.252       61.054       85.399       42.068     3727.592     7292.916     1769.696        2.400        0.640      186.436       41.509        0.050      332.865        1.805      863.342
01/31/2022  23:26:00        4.327      206.789      -26.623       61.946       61.896       35.299     3837.322     3831.127     1246.048        2.620        0.446      206.834       28.725        0.019      332.830        1.746      863.350
01/31/2022  23:27:00       21.278      151.735      -18.675       72.560       53.110       34.817     5265.000     2820.670     1212.241        1.656        0.465      153.220       28.640        0.035      332.911        1.880      863.367
01/31/2022  23:28:00       20.577      110.376      -17.072       77.181       57.715       33.451     5956.971     3331.035     1118.961        1.165        0.520      112.278       22.338        0.040      332.907        1.875      863.386
01/31/2022  23:29:00       56.707      114.682      -14.088       58.027       81.500       35.408     3367.137     6642.187     1253.728        1.391        0.563      127.936       41.398        0.105      332.918        1.892      863.389
01/31/2022  23:30:00      110.622      247.181      -38.026       64.334       68.275       37.621     4138.901     4661.533     1415.351        4.250        0.511      270.805       25.811        0.009      332.834        1.750      863.394
01/31/2022  23:31:00       81.525      207.791      -33.116       51.914       64.246       42.520     2695.046     4127.519     1807.980        2.977        0.432      223.211       31.492        0.020      332.858        1.790      863.388
01/31/2022  23:32:00       99.967      212.786      -26.505       70.032       90.877       53.319     4904.445     8258.587     2842.901        3.599        0.800      235.099       53.424        0.052      332.797        1.689      863.381
01/31/2022  23:33:00       79.399      177.932      -25.076       43.984       51.633       39.503     1934.585     2666.015     1560.468        2.238        0.308      194.843       32.842        0.028      332.853        1.784      863.388
01/31/2022  23:34:00       28.349      120.390      -13.738       91.288       65.047       47.627     8333.455     4231.113     2268.359        1.516        0.742      123.683       31.495        0.065      332.827        1.742      863.384
01/31/2022  23:35:00       27.459      121.190       -7.380       77.084       69.440       41.030     5941.870     4821.909     1683.428        1.397        0.622      124.262       37.277        0.090      332.847        1.774      863.394
01/31/2022  23:36:00       51.733      122.019       -7.740       37.863       54.281       26.666     1433.604     2946.387      711.090        1.136        0.255      132.533       21.665        0.027      332.864        1.804      863.396
01/31/2022  23:37:00       68.008      192.443      -22.730       59.318       47.323       35.992     3518.649     2239.496     1295.423        2.461        0.353      204.107       27.086        0.018      332.835        1.753      863.398
01/31/2022  23:38:00       63.931      189.780      -23.724       66.463       90.054       46.070     4417.331     8109.778     2122.450        2.766        0.732      200.259       46.431        0.054      332.822        1.733      863.409
01/31/2022  23:39:00       77.478      176.643      -25.969       70.216       73.500       41.827     4930.230     5402.244     1749.457        2.498        0.604      192.888       44.814        0.054      332.828        1.743      863.408
01/31/2022  23:40:00       58.032      123.979      -13.338       54.651       64.090       37.154     2986.720     4107.468     1380.409        1.369        0.424      136.889       33.424        0.060      332.823        1.736      863.394
01/31/2022  23:41:00       75.371      172.050      -25.264       52.240       56.440       31.340     2729.017     3185.440      982.165        2.141        0.345      187.835       15.692        0.007      332.819        1.728      863.393
01/31/2022  23:42:00       57.291      164.307      -24.680       52.554       49.257       37.046     2761.886     2426.248     1372.376        1.872        0.328      174.009       27.924        0.026      332.817        1.725      863.379
01/31/2022  23:43:00       54.825      144.078      -16.042       51.795       70.889       38.874     2682.723     5025.203     1511.185        1.662        0.461      154.156       36.510        0.056      332.828        1.744      863.369
01/31/2022  23:44:00       40.913      143.943      -15.994       53.440       71.891       34.016     2855.816     5168.303     1157.055        1.591        0.459      149.644       35.170        0.055      332.826        1.741      863.358
01/31/2022  23:45:00       53.184      171.269      -16.182       57.014       69.052       31.687     3250.626     4768.204     1004.058        2.072        0.451      179.337       31.390        0.031      332.783        1.669      863.359
01/31/2022  23:46:00        7.030      139.348      -10.942       80.664       41.510       35.734     6506.718     1723.087     1276.898        1.455        0.475      139.525       21.233        0.023      332.871        1.816      863.359
01/31/2022  23:47:00       37.833      106.373      -10.688       79.104       78.812       32.339     6257.393     6211.290     1045.802        1.319        0.676      112.901       35.035        0.096      332.846        1.773      863.359
01/31/2022  23:48:00       84.863      160.596      -22.310       68.523       69.941       48.096     4695.428     4891.744     2313.256        2.269        0.595      181.639       46.522        0.066      332.809        1.712      863.362
01/31/2022  23:49:00       54.657      156.640      -32.396       53.588       50.191       34.495     2871.667     2519.174     1189.873        1.758        0.329      165.902       30.227        0.033      332.829        1.746      863.360
01/31/2022  23:50:00       56.351      151.934      -12.776       67.759       72.677       43.105     4591.311     5281.939     1858.071        1.907        0.587      162.047       37.302        0.053      332.790        1.679      863.345
01/31/2022  23:51:00      122.803      227.369      -33.205       52.996      110.804       48.827     2808.560    12277.444     2384.029        4.267        0.874      258.413       42.208        0.027      332.822        1.733      863.323
01/31/2022  23:52:00       68.113      181.425      -24.124       80.567       68.508       47.456     6491.040     4693.365     2252.084        2.578        0.672      193.790       47.934        0.061      332.803        1.702      863.313
01/31/2022  23:53:00      -23.821      197.615      -30.850       61.377       71.443       37.371     3767.134     5104.035     1396.568        2.542        0.513      199.045       22.182        0.012      332.806        1.707      863.314
01/31/2022  23:54:00       48.827      196.822      -27.242       66.949       59.250       36.509     4482.139     3510.617     1332.905        2.559        0.466      202.788       25.814        0.016      332.877        1.822      863.312
01/31/2022  23:55:00       95.130      290.824      -34.302       62.845       56.839       35.136     3949.515     3230.665     1234.563        5.161        0.421      305.988       22.778        0.006      332.825        1.735      863.307
01/31/2022  23:56:00       84.678      215.647      -17.328       57.274       80.570       48.867     3280.298     6491.518     2388.031        3.306        0.608      231.676       52.994        0.052      332.845        1.769      863.310
01/31/2022  23:57:00       20.921      171.403      -19.312       76.046       78.011       36.130     5782.985     6085.746     1305.411        2.168        0.659      172.675       41.471        0.058      332.900        1.860      863.308
01/31/2022  23:58:00       16.144      196.696       -7.012       61.274       68.546       42.439     3754.557     4698.513     1801.034        2.462        0.513      197.358       41.266        0.044      332.853        1.783      863.321
01/31/2022  23:59:00       21.584      179.108      -20.392       59.379       76.074       39.794     3525.832     5787.275     1583.578        2.193        0.545      180.403       41.048        0.052      332.868        1.808      863.328
